<?xml version="1.0" encoding="UTF-8" standalone="no" ?>
<gpx xmlns="http://www.topografix.com/GPX/1/1" xmlns:xsi="http://www.w3.org/2001/XMLSchema-instance" xsi:schemaLocation="http://www.topografix.com/GPX/1/1 http://www.topografix.com/GPX/1/1/gpx.xsd" version="1.1" creator="VisuGPX - https://www.visugpx.com">
  <metadata>
    <name>13 - D+  - Marseille</name>
    <desc><![CDATA[13 - D+  - Marseille - Gardiole - Portalet - col de l'Oule - Belvédère - Devenson - cap Gros - crête de l'Estret]]></desc>
  </metadata>
  <trk>
    <name><![CDATA[Cassis - portalet - oule - belvédère devenson - cap gros - Estret 2025-10-19-01]]></name>
    <trkseg>
      <trkpt lat="43.23712" lon="5.50014">
        <ele>230.8</ele>
        <time>2025-10-19T07:03:24Z</time>
      </trkpt>
      <trkpt lat="43.23712" lon="5.50014">
        <ele>230.8</ele>
        <time>2025-10-19T07:03:25Z</time>
      </trkpt>
      <trkpt lat="43.23712" lon="5.50014">
        <ele>230.8</ele>
        <time>2025-10-19T07:03:26Z</time>
      </trkpt>
      <trkpt lat="43.23712" lon="5.50014">
        <ele>230.8</ele>
        <time>2025-10-19T07:03:27Z</time>
      </trkpt>
      <trkpt lat="43.23711" lon="5.50015">
        <ele>230.8</ele>
        <time>2025-10-19T07:03:28Z</time>
      </trkpt>
      <trkpt lat="43.23711" lon="5.50014">
        <ele>230.8</ele>
        <time>2025-10-19T07:03:29Z</time>
      </trkpt>
      <trkpt lat="43.23711" lon="5.50014">
        <ele>230.8</ele>
        <time>2025-10-19T07:03:30Z</time>
      </trkpt>
      <trkpt lat="43.23712" lon="5.50014">
        <ele>230.8</ele>
        <time>2025-10-19T07:03:31Z</time>
      </trkpt>
      <trkpt lat="43.23712" lon="5.50014">
        <ele>230.8</ele>
        <time>2025-10-19T07:03:32Z</time>
      </trkpt>
      <trkpt lat="43.23713" lon="5.50014">
        <ele>230.8</ele>
        <time>2025-10-19T07:03:33Z</time>
      </trkpt>
      <trkpt lat="43.23712" lon="5.50014">
        <ele>230.8</ele>
        <time>2025-10-19T07:03:34Z</time>
      </trkpt>
      <trkpt lat="43.23712" lon="5.50014">
        <ele>230.8</ele>
        <time>2025-10-19T07:03:35Z</time>
      </trkpt>
      <trkpt lat="43.23712" lon="5.50014">
        <ele>230.8</ele>
        <time>2025-10-19T07:03:36Z</time>
      </trkpt>
      <trkpt lat="43.23712" lon="5.50014">
        <ele>230.8</ele>
        <time>2025-10-19T07:03:37Z</time>
      </trkpt>
      <trkpt lat="43.23712" lon="5.50013">
        <ele>230.8</ele>
        <time>2025-10-19T07:03:38Z</time>
      </trkpt>
      <trkpt lat="43.23713" lon="5.50013">
        <ele>230.9</ele>
        <time>2025-10-19T07:03:39Z</time>
      </trkpt>
      <trkpt lat="43.23713" lon="5.50013">
        <ele>230.9</ele>
        <time>2025-10-19T07:03:40Z</time>
      </trkpt>
      <trkpt lat="43.23713" lon="5.50013">
        <ele>230.8</ele>
        <time>2025-10-19T07:03:41Z</time>
      </trkpt>
      <trkpt lat="43.23713" lon="5.50012">
        <ele>230.8</ele>
        <time>2025-10-19T07:03:42Z</time>
      </trkpt>
      <trkpt lat="43.23713" lon="5.50012">
        <ele>230.8</ele>
        <time>2025-10-19T07:03:43Z</time>
      </trkpt>
      <trkpt lat="43.23713" lon="5.50012">
        <ele>230.7</ele>
        <time>2025-10-19T07:03:44Z</time>
      </trkpt>
      <trkpt lat="43.23714" lon="5.50012">
        <ele>230.7</ele>
        <time>2025-10-19T07:03:45Z</time>
      </trkpt>
      <trkpt lat="43.23714" lon="5.50012">
        <ele>230.7</ele>
        <time>2025-10-19T07:03:46Z</time>
      </trkpt>
      <trkpt lat="43.23714" lon="5.50012">
        <ele>230.7</ele>
        <time>2025-10-19T07:03:47Z</time>
      </trkpt>
      <trkpt lat="43.23714" lon="5.50012">
        <ele>230.7</ele>
        <time>2025-10-19T07:03:48Z</time>
      </trkpt>
      <trkpt lat="43.23714" lon="5.50011">
        <ele>230.7</ele>
        <time>2025-10-19T07:03:49Z</time>
      </trkpt>
      <trkpt lat="43.23714" lon="5.50011">
        <ele>230.7</ele>
        <time>2025-10-19T07:03:50Z</time>
      </trkpt>
      <trkpt lat="43.23714" lon="5.50012">
        <ele>230.6</ele>
        <time>2025-10-19T07:03:51Z</time>
      </trkpt>
      <trkpt lat="43.23713" lon="5.50012">
        <ele>230.7</ele>
        <time>2025-10-19T07:03:52Z</time>
      </trkpt>
      <trkpt lat="43.23713" lon="5.50012">
        <ele>230.6</ele>
        <time>2025-10-19T07:03:53Z</time>
      </trkpt>
      <trkpt lat="43.23713" lon="5.50012">
        <ele>230.6</ele>
        <time>2025-10-19T07:03:54Z</time>
      </trkpt>
      <trkpt lat="43.23714" lon="5.50012">
        <ele>230.7</ele>
        <time>2025-10-19T07:03:55Z</time>
      </trkpt>
      <trkpt lat="43.23713" lon="5.50012">
        <ele>230.7</ele>
        <time>2025-10-19T07:03:56Z</time>
      </trkpt>
      <trkpt lat="43.23713" lon="5.50012">
        <ele>230.8</ele>
        <time>2025-10-19T07:03:57Z</time>
      </trkpt>
      <trkpt lat="43.23713" lon="5.50012">
        <ele>230.8</ele>
        <time>2025-10-19T07:03:58Z</time>
      </trkpt>
      <trkpt lat="43.23713" lon="5.50011">
        <ele>230.9</ele>
        <time>2025-10-19T07:03:59Z</time>
      </trkpt>
      <trkpt lat="43.23713" lon="5.50011">
        <ele>230.9</ele>
        <time>2025-10-19T07:04:00Z</time>
      </trkpt>
      <trkpt lat="43.23713" lon="5.50011">
        <ele>230.9</ele>
        <time>2025-10-19T07:04:01Z</time>
      </trkpt>
      <trkpt lat="43.23713" lon="5.50011">
        <ele>230.9</ele>
        <time>2025-10-19T07:04:02Z</time>
      </trkpt>
      <trkpt lat="43.23713" lon="5.50011">
        <ele>230.9</ele>
        <time>2025-10-19T07:04:03Z</time>
      </trkpt>
      <trkpt lat="43.23712" lon="5.50011">
        <ele>230.9</ele>
        <time>2025-10-19T07:04:04Z</time>
      </trkpt>
      <trkpt lat="43.23712" lon="5.50011">
        <ele>230.9</ele>
        <time>2025-10-19T07:04:05Z</time>
      </trkpt>
      <trkpt lat="43.23712" lon="5.50011">
        <ele>230.9</ele>
        <time>2025-10-19T07:04:06Z</time>
      </trkpt>
      <trkpt lat="43.23712" lon="5.50011">
        <ele>230.9</ele>
        <time>2025-10-19T07:04:07Z</time>
      </trkpt>
      <trkpt lat="43.23712" lon="5.50011">
        <ele>230.8</ele>
        <time>2025-10-19T07:04:08Z</time>
      </trkpt>
      <trkpt lat="43.23711" lon="5.50011">
        <ele>230.8</ele>
        <time>2025-10-19T07:04:09Z</time>
      </trkpt>
      <trkpt lat="43.23711" lon="5.50011">
        <ele>230.8</ele>
        <time>2025-10-19T07:04:10Z</time>
      </trkpt>
      <trkpt lat="43.23711" lon="5.50011">
        <ele>230.8</ele>
        <time>2025-10-19T07:04:11Z</time>
      </trkpt>
      <trkpt lat="43.23711" lon="5.50011">
        <ele>230.9</ele>
        <time>2025-10-19T07:04:12Z</time>
      </trkpt>
      <trkpt lat="43.23711" lon="5.50011">
        <ele>230.8</ele>
        <time>2025-10-19T07:04:13Z</time>
      </trkpt>
      <trkpt lat="43.23711" lon="5.50011">
        <ele>230.6</ele>
        <time>2025-10-19T07:04:14Z</time>
      </trkpt>
      <trkpt lat="43.23711" lon="5.50011">
        <ele>230.6</ele>
        <time>2025-10-19T07:04:15Z</time>
      </trkpt>
      <trkpt lat="43.23711" lon="5.5001">
        <ele>230.6</ele>
        <time>2025-10-19T07:04:16Z</time>
      </trkpt>
      <trkpt lat="43.23711" lon="5.5001">
        <ele>230.5</ele>
        <time>2025-10-19T07:04:17Z</time>
      </trkpt>
      <trkpt lat="43.23712" lon="5.5001">
        <ele>230.6</ele>
        <time>2025-10-19T07:04:18Z</time>
      </trkpt>
      <trkpt lat="43.23711" lon="5.5001">
        <ele>230.7</ele>
        <time>2025-10-19T07:04:19Z</time>
      </trkpt>
      <trkpt lat="43.23712" lon="5.5001">
        <ele>230.7</ele>
        <time>2025-10-19T07:04:20Z</time>
      </trkpt>
      <trkpt lat="43.23711" lon="5.5001">
        <ele>230.8</ele>
        <time>2025-10-19T07:04:21Z</time>
      </trkpt>
      <trkpt lat="43.23711" lon="5.5001">
        <ele>230.8</ele>
        <time>2025-10-19T07:04:22Z</time>
      </trkpt>
      <trkpt lat="43.23711" lon="5.5001">
        <ele>230.9</ele>
        <time>2025-10-19T07:04:23Z</time>
      </trkpt>
      <trkpt lat="43.23711" lon="5.5001">
        <ele>230.9</ele>
        <time>2025-10-19T07:04:24Z</time>
      </trkpt>
      <trkpt lat="43.23711" lon="5.5001">
        <ele>230.8</ele>
        <time>2025-10-19T07:04:25Z</time>
      </trkpt>
      <trkpt lat="43.23711" lon="5.5001">
        <ele>230.8</ele>
        <time>2025-10-19T07:04:26Z</time>
      </trkpt>
      <trkpt lat="43.23711" lon="5.5001">
        <ele>230.7</ele>
        <time>2025-10-19T07:04:27Z</time>
      </trkpt>
      <trkpt lat="43.23711" lon="5.5001">
        <ele>230.6</ele>
        <time>2025-10-19T07:04:28Z</time>
      </trkpt>
      <trkpt lat="43.23711" lon="5.5001">
        <ele>230.6</ele>
        <time>2025-10-19T07:04:29Z</time>
      </trkpt>
      <trkpt lat="43.23711" lon="5.5001">
        <ele>230.6</ele>
        <time>2025-10-19T07:04:30Z</time>
      </trkpt>
      <trkpt lat="43.23711" lon="5.5001">
        <ele>230.6</ele>
        <time>2025-10-19T07:04:31Z</time>
      </trkpt>
      <trkpt lat="43.23711" lon="5.5001">
        <ele>230.5</ele>
        <time>2025-10-19T07:04:32Z</time>
      </trkpt>
      <trkpt lat="43.23711" lon="5.5001">
        <ele>230.5</ele>
        <time>2025-10-19T07:04:33Z</time>
      </trkpt>
      <trkpt lat="43.23711" lon="5.5001">
        <ele>230.6</ele>
        <time>2025-10-19T07:04:34Z</time>
      </trkpt>
      <trkpt lat="43.23711" lon="5.5001">
        <ele>230.6</ele>
        <time>2025-10-19T07:04:35Z</time>
      </trkpt>
      <trkpt lat="43.23711" lon="5.5001">
        <ele>230.6</ele>
        <time>2025-10-19T07:04:36Z</time>
      </trkpt>
      <trkpt lat="43.23711" lon="5.5001">
        <ele>230.6</ele>
        <time>2025-10-19T07:04:37Z</time>
      </trkpt>
      <trkpt lat="43.23711" lon="5.50009">
        <ele>230.6</ele>
        <time>2025-10-19T07:04:38Z</time>
      </trkpt>
      <trkpt lat="43.23711" lon="5.50009">
        <ele>230.6</ele>
        <time>2025-10-19T07:04:39Z</time>
      </trkpt>
      <trkpt lat="43.23711" lon="5.50009">
        <ele>230.6</ele>
        <time>2025-10-19T07:04:40Z</time>
      </trkpt>
      <trkpt lat="43.23711" lon="5.50009">
        <ele>230.6</ele>
        <time>2025-10-19T07:04:41Z</time>
      </trkpt>
      <trkpt lat="43.23711" lon="5.50009">
        <ele>230.7</ele>
        <time>2025-10-19T07:04:42Z</time>
      </trkpt>
      <trkpt lat="43.23711" lon="5.50009">
        <ele>230.7</ele>
        <time>2025-10-19T07:04:43Z</time>
      </trkpt>
      <trkpt lat="43.23711" lon="5.50009">
        <ele>230.7</ele>
        <time>2025-10-19T07:04:44Z</time>
      </trkpt>
      <trkpt lat="43.23711" lon="5.50009">
        <ele>230.7</ele>
        <time>2025-10-19T07:04:45Z</time>
      </trkpt>
      <trkpt lat="43.23711" lon="5.50009">
        <ele>230.6</ele>
        <time>2025-10-19T07:04:46Z</time>
      </trkpt>
      <trkpt lat="43.23711" lon="5.5001">
        <ele>230.6</ele>
        <time>2025-10-19T07:04:47Z</time>
      </trkpt>
      <trkpt lat="43.23711" lon="5.5001">
        <ele>230.4</ele>
        <time>2025-10-19T07:04:48Z</time>
      </trkpt>
      <trkpt lat="43.23711" lon="5.5001">
        <ele>230.4</ele>
        <time>2025-10-19T07:04:49Z</time>
      </trkpt>
      <trkpt lat="43.23711" lon="5.50011">
        <ele>230.3</ele>
        <time>2025-10-19T07:04:50Z</time>
      </trkpt>
      <trkpt lat="43.23711" lon="5.50011">
        <ele>230.4</ele>
        <time>2025-10-19T07:04:51Z</time>
      </trkpt>
      <trkpt lat="43.23712" lon="5.5001">
        <ele>230.4</ele>
        <time>2025-10-19T07:04:52Z</time>
      </trkpt>
      <trkpt lat="43.23712" lon="5.5001">
        <ele>230.4</ele>
        <time>2025-10-19T07:04:53Z</time>
      </trkpt>
      <trkpt lat="43.23712" lon="5.5001">
        <ele>230.5</ele>
        <time>2025-10-19T07:04:54Z</time>
      </trkpt>
      <trkpt lat="43.23712" lon="5.5001">
        <ele>230.5</ele>
        <time>2025-10-19T07:04:55Z</time>
      </trkpt>
      <trkpt lat="43.23712" lon="5.5001">
        <ele>230.6</ele>
        <time>2025-10-19T07:04:56Z</time>
      </trkpt>
      <trkpt lat="43.23712" lon="5.5001">
        <ele>230.7</ele>
        <time>2025-10-19T07:04:57Z</time>
      </trkpt>
      <trkpt lat="43.23712" lon="5.50011">
        <ele>230.7</ele>
        <time>2025-10-19T07:04:58Z</time>
      </trkpt>
      <trkpt lat="43.23713" lon="5.50011">
        <ele>230.7</ele>
        <time>2025-10-19T07:04:59Z</time>
      </trkpt>
      <trkpt lat="43.23713" lon="5.50011">
        <ele>230.8</ele>
        <time>2025-10-19T07:05:00Z</time>
      </trkpt>
      <trkpt lat="43.23713" lon="5.50011">
        <ele>230.7</ele>
        <time>2025-10-19T07:05:01Z</time>
      </trkpt>
      <trkpt lat="43.23713" lon="5.50011">
        <ele>230.7</ele>
        <time>2025-10-19T07:05:02Z</time>
      </trkpt>
      <trkpt lat="43.23713" lon="5.50011">
        <ele>230.6</ele>
        <time>2025-10-19T07:05:03Z</time>
      </trkpt>
      <trkpt lat="43.23713" lon="5.50011">
        <ele>230.5</ele>
        <time>2025-10-19T07:05:04Z</time>
      </trkpt>
      <trkpt lat="43.23713" lon="5.50011">
        <ele>230.6</ele>
        <time>2025-10-19T07:05:05Z</time>
      </trkpt>
      <trkpt lat="43.23712" lon="5.50012">
        <ele>230.6</ele>
        <time>2025-10-19T07:05:06Z</time>
      </trkpt>
      <trkpt lat="43.23712" lon="5.50012">
        <ele>230.5</ele>
        <time>2025-10-19T07:05:07Z</time>
      </trkpt>
      <trkpt lat="43.23713" lon="5.50012">
        <ele>230.5</ele>
        <time>2025-10-19T07:05:08Z</time>
      </trkpt>
      <trkpt lat="43.23713" lon="5.50012">
        <ele>230.5</ele>
        <time>2025-10-19T07:05:09Z</time>
      </trkpt>
      <trkpt lat="43.23713" lon="5.50011">
        <ele>230.4</ele>
        <time>2025-10-19T07:05:10Z</time>
      </trkpt>
      <trkpt lat="43.23713" lon="5.50011">
        <ele>230.4</ele>
        <time>2025-10-19T07:05:11Z</time>
      </trkpt>
      <trkpt lat="43.23713" lon="5.50011">
        <ele>230.8</ele>
        <time>2025-10-19T07:05:12Z</time>
      </trkpt>
      <trkpt lat="43.23714" lon="5.50012">
        <ele>230.7</ele>
        <time>2025-10-19T07:05:13Z</time>
      </trkpt>
      <trkpt lat="43.23714" lon="5.50012">
        <ele>230.7</ele>
        <time>2025-10-19T07:05:14Z</time>
      </trkpt>
      <trkpt lat="43.23714" lon="5.50012">
        <ele>230.7</ele>
        <time>2025-10-19T07:05:15Z</time>
      </trkpt>
      <trkpt lat="43.23713" lon="5.50012">
        <ele>230.7</ele>
        <time>2025-10-19T07:05:16Z</time>
      </trkpt>
      <trkpt lat="43.23713" lon="5.50013">
        <ele>230.7</ele>
        <time>2025-10-19T07:05:17Z</time>
      </trkpt>
      <trkpt lat="43.23713" lon="5.50013">
        <ele>230.7</ele>
        <time>2025-10-19T07:05:18Z</time>
      </trkpt>
      <trkpt lat="43.23713" lon="5.50013">
        <ele>230.6</ele>
        <time>2025-10-19T07:05:19Z</time>
      </trkpt>
      <trkpt lat="43.23713" lon="5.50014">
        <ele>230.5</ele>
        <time>2025-10-19T07:05:20Z</time>
      </trkpt>
      <trkpt lat="43.23713" lon="5.50014">
        <ele>230.5</ele>
        <time>2025-10-19T07:05:21Z</time>
      </trkpt>
      <trkpt lat="43.23713" lon="5.50014">
        <ele>230.4</ele>
        <time>2025-10-19T07:05:22Z</time>
      </trkpt>
      <trkpt lat="43.23713" lon="5.50014">
        <ele>230.4</ele>
        <time>2025-10-19T07:05:23Z</time>
      </trkpt>
      <trkpt lat="43.23713" lon="5.50014">
        <ele>230.4</ele>
        <time>2025-10-19T07:05:24Z</time>
      </trkpt>
      <trkpt lat="43.23713" lon="5.50014">
        <ele>230.4</ele>
        <time>2025-10-19T07:05:25Z</time>
      </trkpt>
      <trkpt lat="43.23713" lon="5.50015">
        <ele>230.4</ele>
        <time>2025-10-19T07:05:26Z</time>
      </trkpt>
      <trkpt lat="43.23713" lon="5.50015">
        <ele>230.4</ele>
        <time>2025-10-19T07:05:27Z</time>
      </trkpt>
      <trkpt lat="43.23713" lon="5.50014">
        <ele>230.3</ele>
        <time>2025-10-19T07:05:28Z</time>
      </trkpt>
      <trkpt lat="43.23713" lon="5.50014">
        <ele>230.2</ele>
        <time>2025-10-19T07:05:29Z</time>
      </trkpt>
      <trkpt lat="43.23712" lon="5.50014">
        <ele>230.2</ele>
        <time>2025-10-19T07:05:30Z</time>
      </trkpt>
      <trkpt lat="43.23712" lon="5.50015">
        <ele>230.2</ele>
        <time>2025-10-19T07:05:31Z</time>
      </trkpt>
      <trkpt lat="43.23712" lon="5.50014">
        <ele>230.1</ele>
        <time>2025-10-19T07:05:32Z</time>
      </trkpt>
      <trkpt lat="43.23712" lon="5.50014">
        <ele>230.2</ele>
        <time>2025-10-19T07:05:33Z</time>
      </trkpt>
      <trkpt lat="43.23712" lon="5.50015">
        <ele>230.2</ele>
        <time>2025-10-19T07:05:34Z</time>
      </trkpt>
      <trkpt lat="43.23712" lon="5.50015">
        <ele>230.2</ele>
        <time>2025-10-19T07:05:35Z</time>
      </trkpt>
      <trkpt lat="43.23711" lon="5.50015">
        <ele>230.3</ele>
        <time>2025-10-19T07:05:36Z</time>
      </trkpt>
      <trkpt lat="43.23711" lon="5.50015">
        <ele>230.3</ele>
        <time>2025-10-19T07:05:37Z</time>
      </trkpt>
      <trkpt lat="43.23711" lon="5.50015">
        <ele>230.2</ele>
        <time>2025-10-19T07:05:38Z</time>
      </trkpt>
      <trkpt lat="43.23711" lon="5.50015">
        <ele>230.2</ele>
        <time>2025-10-19T07:05:39Z</time>
      </trkpt>
      <trkpt lat="43.23711" lon="5.50015">
        <ele>230.2</ele>
        <time>2025-10-19T07:05:40Z</time>
      </trkpt>
      <trkpt lat="43.23711" lon="5.50015">
        <ele>230.2</ele>
        <time>2025-10-19T07:05:41Z</time>
      </trkpt>
      <trkpt lat="43.23711" lon="5.50015">
        <ele>230.2</ele>
        <time>2025-10-19T07:05:42Z</time>
      </trkpt>
      <trkpt lat="43.23711" lon="5.50015">
        <ele>230.3</ele>
        <time>2025-10-19T07:05:43Z</time>
      </trkpt>
      <trkpt lat="43.2371" lon="5.50015">
        <ele>230.2</ele>
        <time>2025-10-19T07:05:44Z</time>
      </trkpt>
      <trkpt lat="43.2371" lon="5.50015">
        <ele>230.2</ele>
        <time>2025-10-19T07:05:45Z</time>
      </trkpt>
      <trkpt lat="43.2371" lon="5.50015">
        <ele>230.2</ele>
        <time>2025-10-19T07:05:46Z</time>
      </trkpt>
      <trkpt lat="43.2371" lon="5.50015">
        <ele>230.1</ele>
        <time>2025-10-19T07:05:47Z</time>
      </trkpt>
      <trkpt lat="43.2371" lon="5.50015">
        <ele>230.2</ele>
        <time>2025-10-19T07:05:48Z</time>
      </trkpt>
      <trkpt lat="43.2371" lon="5.50015">
        <ele>230.2</ele>
        <time>2025-10-19T07:05:49Z</time>
      </trkpt>
      <trkpt lat="43.2371" lon="5.50015">
        <ele>230.1</ele>
        <time>2025-10-19T07:05:50Z</time>
      </trkpt>
      <trkpt lat="43.2371" lon="5.50015">
        <ele>230</ele>
        <time>2025-10-19T07:05:51Z</time>
      </trkpt>
      <trkpt lat="43.2371" lon="5.50015">
        <ele>229.9</ele>
        <time>2025-10-19T07:05:52Z</time>
      </trkpt>
      <trkpt lat="43.2371" lon="5.50015">
        <ele>229.9</ele>
        <time>2025-10-19T07:05:53Z</time>
      </trkpt>
      <trkpt lat="43.2371" lon="5.50015">
        <ele>229.9</ele>
        <time>2025-10-19T07:05:54Z</time>
      </trkpt>
      <trkpt lat="43.2371" lon="5.50015">
        <ele>229.8</ele>
        <time>2025-10-19T07:05:55Z</time>
      </trkpt>
      <trkpt lat="43.2371" lon="5.50015">
        <ele>229.9</ele>
        <time>2025-10-19T07:05:56Z</time>
      </trkpt>
      <trkpt lat="43.2371" lon="5.50015">
        <ele>229.9</ele>
        <time>2025-10-19T07:05:57Z</time>
      </trkpt>
      <trkpt lat="43.2371" lon="5.50015">
        <ele>230</ele>
        <time>2025-10-19T07:05:58Z</time>
      </trkpt>
      <trkpt lat="43.2371" lon="5.50015">
        <ele>230.1</ele>
        <time>2025-10-19T07:05:59Z</time>
      </trkpt>
      <trkpt lat="43.2371" lon="5.50015">
        <ele>230.1</ele>
        <time>2025-10-19T07:06:00Z</time>
      </trkpt>
      <trkpt lat="43.23709" lon="5.50015">
        <ele>230.1</ele>
        <time>2025-10-19T07:06:01Z</time>
      </trkpt>
      <trkpt lat="43.23709" lon="5.50015">
        <ele>230.1</ele>
        <time>2025-10-19T07:06:02Z</time>
      </trkpt>
      <trkpt lat="43.23709" lon="5.50015">
        <ele>230.1</ele>
        <time>2025-10-19T07:06:03Z</time>
      </trkpt>
      <trkpt lat="43.2371" lon="5.50015">
        <ele>230.1</ele>
        <time>2025-10-19T07:06:04Z</time>
      </trkpt>
      <trkpt lat="43.2371" lon="5.50015">
        <ele>230.1</ele>
        <time>2025-10-19T07:06:05Z</time>
      </trkpt>
      <trkpt lat="43.23709" lon="5.50015">
        <ele>230.1</ele>
        <time>2025-10-19T07:06:06Z</time>
      </trkpt>
      <trkpt lat="43.23709" lon="5.50015">
        <ele>230.1</ele>
        <time>2025-10-19T07:06:07Z</time>
      </trkpt>
      <trkpt lat="43.23709" lon="5.50015">
        <ele>230.1</ele>
        <time>2025-10-19T07:06:08Z</time>
      </trkpt>
      <trkpt lat="43.23709" lon="5.50015">
        <ele>230.1</ele>
        <time>2025-10-19T07:06:09Z</time>
      </trkpt>
      <trkpt lat="43.23709" lon="5.50015">
        <ele>230</ele>
        <time>2025-10-19T07:06:10Z</time>
      </trkpt>
      <trkpt lat="43.23709" lon="5.50015">
        <ele>230</ele>
        <time>2025-10-19T07:06:11Z</time>
      </trkpt>
      <trkpt lat="43.23709" lon="5.50015">
        <ele>230</ele>
        <time>2025-10-19T07:06:12Z</time>
      </trkpt>
      <trkpt lat="43.23709" lon="5.50015">
        <ele>230</ele>
        <time>2025-10-19T07:06:13Z</time>
      </trkpt>
      <trkpt lat="43.23709" lon="5.50015">
        <ele>229.9</ele>
        <time>2025-10-19T07:06:14Z</time>
      </trkpt>
      <trkpt lat="43.23709" lon="5.50015">
        <ele>229.9</ele>
        <time>2025-10-19T07:06:15Z</time>
      </trkpt>
      <trkpt lat="43.23709" lon="5.50015">
        <ele>230</ele>
        <time>2025-10-19T07:06:16Z</time>
      </trkpt>
      <trkpt lat="43.23709" lon="5.50015">
        <ele>230.1</ele>
        <time>2025-10-19T07:06:17Z</time>
      </trkpt>
      <trkpt lat="43.23709" lon="5.50015">
        <ele>230.1</ele>
        <time>2025-10-19T07:06:18Z</time>
      </trkpt>
      <trkpt lat="43.23709" lon="5.50016">
        <ele>230</ele>
        <time>2025-10-19T07:06:19Z</time>
      </trkpt>
      <trkpt lat="43.23709" lon="5.50016">
        <ele>230</ele>
        <time>2025-10-19T07:06:20Z</time>
      </trkpt>
      <trkpt lat="43.23708" lon="5.50016">
        <ele>229.9</ele>
        <time>2025-10-19T07:06:21Z</time>
      </trkpt>
      <trkpt lat="43.23708" lon="5.50016">
        <ele>229.9</ele>
        <time>2025-10-19T07:06:22Z</time>
      </trkpt>
      <trkpt lat="43.23708" lon="5.50016">
        <ele>229.9</ele>
        <time>2025-10-19T07:06:23Z</time>
      </trkpt>
      <trkpt lat="43.23708" lon="5.50016">
        <ele>230</ele>
        <time>2025-10-19T07:06:24Z</time>
      </trkpt>
      <trkpt lat="43.23708" lon="5.50016">
        <ele>230</ele>
        <time>2025-10-19T07:06:25Z</time>
      </trkpt>
      <trkpt lat="43.23708" lon="5.50016">
        <ele>230</ele>
        <time>2025-10-19T07:06:26Z</time>
      </trkpt>
      <trkpt lat="43.23708" lon="5.50016">
        <ele>230</ele>
        <time>2025-10-19T07:06:27Z</time>
      </trkpt>
      <trkpt lat="43.23708" lon="5.50016">
        <ele>230</ele>
        <time>2025-10-19T07:06:28Z</time>
      </trkpt>
      <trkpt lat="43.23708" lon="5.50016">
        <ele>230</ele>
        <time>2025-10-19T07:06:29Z</time>
      </trkpt>
      <trkpt lat="43.23708" lon="5.50016">
        <ele>230</ele>
        <time>2025-10-19T07:06:30Z</time>
      </trkpt>
      <trkpt lat="43.23709" lon="5.50016">
        <ele>230</ele>
        <time>2025-10-19T07:06:31Z</time>
      </trkpt>
      <trkpt lat="43.23709" lon="5.50015">
        <ele>230</ele>
        <time>2025-10-19T07:06:32Z</time>
      </trkpt>
      <trkpt lat="43.23709" lon="5.50016">
        <ele>230</ele>
        <time>2025-10-19T07:06:33Z</time>
      </trkpt>
      <trkpt lat="43.23709" lon="5.50015">
        <ele>229.9</ele>
        <time>2025-10-19T07:06:34Z</time>
      </trkpt>
      <trkpt lat="43.23709" lon="5.50016">
        <ele>229.8</ele>
        <time>2025-10-19T07:06:35Z</time>
      </trkpt>
      <trkpt lat="43.23709" lon="5.50016">
        <ele>229.9</ele>
        <time>2025-10-19T07:06:36Z</time>
      </trkpt>
      <trkpt lat="43.23709" lon="5.50016">
        <ele>229.7</ele>
        <time>2025-10-19T07:06:37Z</time>
      </trkpt>
      <trkpt lat="43.23709" lon="5.50015">
        <ele>229.8</ele>
        <time>2025-10-19T07:06:38Z</time>
      </trkpt>
      <trkpt lat="43.23709" lon="5.50015">
        <ele>229.8</ele>
        <time>2025-10-19T07:06:39Z</time>
      </trkpt>
      <trkpt lat="43.23709" lon="5.50016">
        <ele>229.8</ele>
        <time>2025-10-19T07:06:40Z</time>
      </trkpt>
      <trkpt lat="43.23709" lon="5.50016">
        <ele>229.9</ele>
        <time>2025-10-19T07:06:41Z</time>
      </trkpt>
      <trkpt lat="43.23709" lon="5.50016">
        <ele>229.9</ele>
        <time>2025-10-19T07:06:42Z</time>
      </trkpt>
      <trkpt lat="43.23709" lon="5.50015">
        <ele>229.8</ele>
        <time>2025-10-19T07:06:43Z</time>
      </trkpt>
      <trkpt lat="43.23709" lon="5.50015">
        <ele>229.8</ele>
        <time>2025-10-19T07:06:44Z</time>
      </trkpt>
      <trkpt lat="43.23709" lon="5.50015">
        <ele>229.9</ele>
        <time>2025-10-19T07:06:45Z</time>
      </trkpt>
      <trkpt lat="43.23709" lon="5.50015">
        <ele>229.9</ele>
        <time>2025-10-19T07:06:46Z</time>
      </trkpt>
      <trkpt lat="43.23709" lon="5.50015">
        <ele>230</ele>
        <time>2025-10-19T07:06:47Z</time>
      </trkpt>
      <trkpt lat="43.23709" lon="5.50015">
        <ele>230</ele>
        <time>2025-10-19T07:06:48Z</time>
      </trkpt>
      <trkpt lat="43.23709" lon="5.50016">
        <ele>229.9</ele>
        <time>2025-10-19T07:06:49Z</time>
      </trkpt>
      <trkpt lat="43.23709" lon="5.50016">
        <ele>229.9</ele>
        <time>2025-10-19T07:06:50Z</time>
      </trkpt>
      <trkpt lat="43.23709" lon="5.50016">
        <ele>229.7</ele>
        <time>2025-10-19T07:06:51Z</time>
      </trkpt>
      <trkpt lat="43.23709" lon="5.50016">
        <ele>229.8</ele>
        <time>2025-10-19T07:06:52Z</time>
      </trkpt>
      <trkpt lat="43.23709" lon="5.50016">
        <ele>229.8</ele>
        <time>2025-10-19T07:06:53Z</time>
      </trkpt>
      <trkpt lat="43.23709" lon="5.50016">
        <ele>229.7</ele>
        <time>2025-10-19T07:06:54Z</time>
      </trkpt>
      <trkpt lat="43.23709" lon="5.50016">
        <ele>229.7</ele>
        <time>2025-10-19T07:06:55Z</time>
      </trkpt>
      <trkpt lat="43.23709" lon="5.50016">
        <ele>229.6</ele>
        <time>2025-10-19T07:06:56Z</time>
      </trkpt>
      <trkpt lat="43.23709" lon="5.50016">
        <ele>229.6</ele>
        <time>2025-10-19T07:06:57Z</time>
      </trkpt>
      <trkpt lat="43.23709" lon="5.50016">
        <ele>229.6</ele>
        <time>2025-10-19T07:06:58Z</time>
      </trkpt>
      <trkpt lat="43.23709" lon="5.50016">
        <ele>229.6</ele>
        <time>2025-10-19T07:06:59Z</time>
      </trkpt>
      <trkpt lat="43.23709" lon="5.50016">
        <ele>229.6</ele>
        <time>2025-10-19T07:07:00Z</time>
      </trkpt>
      <trkpt lat="43.23709" lon="5.50016">
        <ele>229.6</ele>
        <time>2025-10-19T07:07:01Z</time>
      </trkpt>
      <trkpt lat="43.23709" lon="5.50016">
        <ele>229.6</ele>
        <time>2025-10-19T07:07:02Z</time>
      </trkpt>
      <trkpt lat="43.23709" lon="5.50016">
        <ele>229.7</ele>
        <time>2025-10-19T07:07:03Z</time>
      </trkpt>
      <trkpt lat="43.23709" lon="5.50016">
        <ele>229.7</ele>
        <time>2025-10-19T07:07:04Z</time>
      </trkpt>
      <trkpt lat="43.23709" lon="5.50016">
        <ele>229.7</ele>
        <time>2025-10-19T07:07:05Z</time>
      </trkpt>
      <trkpt lat="43.23709" lon="5.50016">
        <ele>229.7</ele>
        <time>2025-10-19T07:07:06Z</time>
      </trkpt>
      <trkpt lat="43.23709" lon="5.50016">
        <ele>229.7</ele>
        <time>2025-10-19T07:07:07Z</time>
      </trkpt>
      <trkpt lat="43.23709" lon="5.50016">
        <ele>229.7</ele>
        <time>2025-10-19T07:07:08Z</time>
      </trkpt>
      <trkpt lat="43.23709" lon="5.50016">
        <ele>229.7</ele>
        <time>2025-10-19T07:07:09Z</time>
      </trkpt>
      <trkpt lat="43.23709" lon="5.50016">
        <ele>229.7</ele>
        <time>2025-10-19T07:07:10Z</time>
      </trkpt>
      <trkpt lat="43.23708" lon="5.50016">
        <ele>229.6</ele>
        <time>2025-10-19T07:07:11Z</time>
      </trkpt>
      <trkpt lat="43.23709" lon="5.50016">
        <ele>229.6</ele>
        <time>2025-10-19T07:07:12Z</time>
      </trkpt>
      <trkpt lat="43.23709" lon="5.50016">
        <ele>229.5</ele>
        <time>2025-10-19T07:07:13Z</time>
      </trkpt>
      <trkpt lat="43.23709" lon="5.50016">
        <ele>229.5</ele>
        <time>2025-10-19T07:07:14Z</time>
      </trkpt>
      <trkpt lat="43.23709" lon="5.50016">
        <ele>229.5</ele>
        <time>2025-10-19T07:07:15Z</time>
      </trkpt>
      <trkpt lat="43.23709" lon="5.50016">
        <ele>229.5</ele>
        <time>2025-10-19T07:07:16Z</time>
      </trkpt>
      <trkpt lat="43.23709" lon="5.50016">
        <ele>229.5</ele>
        <time>2025-10-19T07:07:17Z</time>
      </trkpt>
      <trkpt lat="43.23709" lon="5.50016">
        <ele>229.5</ele>
        <time>2025-10-19T07:07:18Z</time>
      </trkpt>
      <trkpt lat="43.23709" lon="5.50017">
        <ele>229.5</ele>
        <time>2025-10-19T07:07:19Z</time>
      </trkpt>
      <trkpt lat="43.2371" lon="5.50017">
        <ele>229.5</ele>
        <time>2025-10-19T07:07:20Z</time>
      </trkpt>
      <trkpt lat="43.23709" lon="5.50016">
        <ele>229.5</ele>
        <time>2025-10-19T07:07:21Z</time>
      </trkpt>
      <trkpt lat="43.2371" lon="5.50016">
        <ele>229.5</ele>
        <time>2025-10-19T07:07:22Z</time>
      </trkpt>
      <trkpt lat="43.2371" lon="5.50015">
        <ele>229.5</ele>
        <time>2025-10-19T07:07:23Z</time>
      </trkpt>
      <trkpt lat="43.2371" lon="5.50014">
        <ele>229.5</ele>
        <time>2025-10-19T07:07:24Z</time>
      </trkpt>
      <trkpt lat="43.2371" lon="5.50013">
        <ele>229.6</ele>
        <time>2025-10-19T07:07:25Z</time>
      </trkpt>
      <trkpt lat="43.2371" lon="5.50012">
        <ele>229.6</ele>
        <time>2025-10-19T07:07:26Z</time>
      </trkpt>
      <trkpt lat="43.23711" lon="5.50011">
        <ele>229.7</ele>
        <time>2025-10-19T07:07:27Z</time>
      </trkpt>
      <trkpt lat="43.23711" lon="5.5001">
        <ele>229.8</ele>
        <time>2025-10-19T07:07:28Z</time>
      </trkpt>
      <trkpt lat="43.23711" lon="5.5001">
        <ele>229.9</ele>
        <time>2025-10-19T07:07:29Z</time>
      </trkpt>
      <trkpt lat="43.2371" lon="5.50009">
        <ele>229.9</ele>
        <time>2025-10-19T07:07:30Z</time>
      </trkpt>
      <trkpt lat="43.2371" lon="5.50008">
        <ele>229.9</ele>
        <time>2025-10-19T07:07:31Z</time>
      </trkpt>
      <trkpt lat="43.23709" lon="5.50007">
        <ele>229.9</ele>
        <time>2025-10-19T07:07:32Z</time>
      </trkpt>
      <trkpt lat="43.23708" lon="5.50007">
        <ele>229.9</ele>
        <time>2025-10-19T07:07:33Z</time>
      </trkpt>
      <trkpt lat="43.23708" lon="5.50007">
        <ele>229.8</ele>
        <time>2025-10-19T07:07:34Z</time>
      </trkpt>
      <trkpt lat="43.23708" lon="5.50007">
        <ele>229.8</ele>
        <time>2025-10-19T07:07:35Z</time>
      </trkpt>
      <trkpt lat="43.23707" lon="5.50006">
        <ele>229.8</ele>
        <time>2025-10-19T07:07:36Z</time>
      </trkpt>
      <trkpt lat="43.23707" lon="5.50006">
        <ele>229.7</ele>
        <time>2025-10-19T07:07:37Z</time>
      </trkpt>
      <trkpt lat="43.23706" lon="5.50006">
        <ele>229.7</ele>
        <time>2025-10-19T07:07:38Z</time>
      </trkpt>
      <trkpt lat="43.23705" lon="5.50006">
        <ele>229.5</ele>
        <time>2025-10-19T07:07:39Z</time>
      </trkpt>
      <trkpt lat="43.23705" lon="5.50006">
        <ele>229.5</ele>
        <time>2025-10-19T07:07:40Z</time>
      </trkpt>
      <trkpt lat="43.23704" lon="5.50006">
        <ele>229.5</ele>
        <time>2025-10-19T07:07:41Z</time>
      </trkpt>
      <trkpt lat="43.23704" lon="5.50005">
        <ele>229.5</ele>
        <time>2025-10-19T07:07:42Z</time>
      </trkpt>
      <trkpt lat="43.23704" lon="5.50005">
        <ele>229.5</ele>
        <time>2025-10-19T07:07:43Z</time>
      </trkpt>
      <trkpt lat="43.23703" lon="5.50004">
        <ele>229.5</ele>
        <time>2025-10-19T07:07:44Z</time>
      </trkpt>
      <trkpt lat="43.23703" lon="5.50004">
        <ele>229.4</ele>
        <time>2025-10-19T07:07:45Z</time>
      </trkpt>
      <trkpt lat="43.23702" lon="5.50003">
        <ele>229.2</ele>
        <time>2025-10-19T07:07:46Z</time>
      </trkpt>
      <trkpt lat="43.23702" lon="5.50003">
        <ele>229.2</ele>
        <time>2025-10-19T07:07:47Z</time>
      </trkpt>
      <trkpt lat="43.23702" lon="5.50003">
        <ele>229.1</ele>
        <time>2025-10-19T07:07:48Z</time>
      </trkpt>
      <trkpt lat="43.23701" lon="5.50002">
        <ele>229</ele>
        <time>2025-10-19T07:07:49Z</time>
      </trkpt>
      <trkpt lat="43.23701" lon="5.50001">
        <ele>229</ele>
        <time>2025-10-19T07:07:50Z</time>
      </trkpt>
      <trkpt lat="43.237" lon="5.50001">
        <ele>229</ele>
        <time>2025-10-19T07:07:51Z</time>
      </trkpt>
      <trkpt lat="43.237" lon="5.5">
        <ele>229</ele>
        <time>2025-10-19T07:07:52Z</time>
      </trkpt>
      <trkpt lat="43.23699" lon="5.49999">
        <ele>229</ele>
        <time>2025-10-19T07:07:53Z</time>
      </trkpt>
      <trkpt lat="43.23699" lon="5.49999">
        <ele>229</ele>
        <time>2025-10-19T07:07:54Z</time>
      </trkpt>
      <trkpt lat="43.23699" lon="5.49998">
        <ele>229</ele>
        <time>2025-10-19T07:07:55Z</time>
      </trkpt>
      <trkpt lat="43.23698" lon="5.49997">
        <ele>229</ele>
        <time>2025-10-19T07:07:56Z</time>
      </trkpt>
      <trkpt lat="43.23698" lon="5.49996">
        <ele>228.9</ele>
        <time>2025-10-19T07:07:57Z</time>
      </trkpt>
      <trkpt lat="43.23697" lon="5.49995">
        <ele>228.9</ele>
        <time>2025-10-19T07:07:58Z</time>
      </trkpt>
      <trkpt lat="43.23697" lon="5.49995">
        <ele>228.8</ele>
        <time>2025-10-19T07:07:59Z</time>
      </trkpt>
      <trkpt lat="43.23696" lon="5.49994">
        <ele>228.8</ele>
        <time>2025-10-19T07:08:00Z</time>
      </trkpt>
      <trkpt lat="43.23695" lon="5.49994">
        <ele>228.7</ele>
        <time>2025-10-19T07:08:01Z</time>
      </trkpt>
      <trkpt lat="43.23694" lon="5.49994">
        <ele>228.7</ele>
        <time>2025-10-19T07:08:02Z</time>
      </trkpt>
      <trkpt lat="43.23693" lon="5.49993">
        <ele>228.6</ele>
        <time>2025-10-19T07:08:03Z</time>
      </trkpt>
      <trkpt lat="43.23693" lon="5.49993">
        <ele>228.5</ele>
        <time>2025-10-19T07:08:04Z</time>
      </trkpt>
      <trkpt lat="43.23692" lon="5.49992">
        <ele>228.4</ele>
        <time>2025-10-19T07:08:05Z</time>
      </trkpt>
      <trkpt lat="43.23691" lon="5.49991">
        <ele>228.4</ele>
        <time>2025-10-19T07:08:06Z</time>
      </trkpt>
      <trkpt lat="43.23691" lon="5.49991">
        <ele>228.3</ele>
        <time>2025-10-19T07:08:07Z</time>
      </trkpt>
      <trkpt lat="43.2369" lon="5.4999">
        <ele>228.4</ele>
        <time>2025-10-19T07:08:08Z</time>
      </trkpt>
      <trkpt lat="43.23689" lon="5.49989">
        <ele>228.4</ele>
        <time>2025-10-19T07:08:09Z</time>
      </trkpt>
      <trkpt lat="43.23688" lon="5.49988">
        <ele>228.5</ele>
        <time>2025-10-19T07:08:10Z</time>
      </trkpt>
      <trkpt lat="43.23688" lon="5.49987">
        <ele>228.3</ele>
        <time>2025-10-19T07:08:11Z</time>
      </trkpt>
      <trkpt lat="43.23687" lon="5.49987">
        <ele>228.3</ele>
        <time>2025-10-19T07:08:12Z</time>
      </trkpt>
      <trkpt lat="43.23686" lon="5.49987">
        <ele>228.3</ele>
        <time>2025-10-19T07:08:13Z</time>
      </trkpt>
      <trkpt lat="43.23685" lon="5.49986">
        <ele>228.3</ele>
        <time>2025-10-19T07:08:14Z</time>
      </trkpt>
      <trkpt lat="43.23685" lon="5.49985">
        <ele>228.2</ele>
        <time>2025-10-19T07:08:15Z</time>
      </trkpt>
      <trkpt lat="43.23684" lon="5.49984">
        <ele>228.2</ele>
        <time>2025-10-19T07:08:16Z</time>
      </trkpt>
      <trkpt lat="43.23683" lon="5.49983">
        <ele>228.1</ele>
        <time>2025-10-19T07:08:17Z</time>
      </trkpt>
      <trkpt lat="43.23682" lon="5.49982">
        <ele>228</ele>
        <time>2025-10-19T07:08:18Z</time>
      </trkpt>
      <trkpt lat="43.23682" lon="5.49981">
        <ele>228</ele>
        <time>2025-10-19T07:08:19Z</time>
      </trkpt>
      <trkpt lat="43.23681" lon="5.49981">
        <ele>227.9</ele>
        <time>2025-10-19T07:08:20Z</time>
      </trkpt>
      <trkpt lat="43.23679" lon="5.4998">
        <ele>227.9</ele>
        <time>2025-10-19T07:08:21Z</time>
      </trkpt>
      <trkpt lat="43.23679" lon="5.49979">
        <ele>227.9</ele>
        <time>2025-10-19T07:08:22Z</time>
      </trkpt>
      <trkpt lat="43.23678" lon="5.49978">
        <ele>227.9</ele>
        <time>2025-10-19T07:08:23Z</time>
      </trkpt>
      <trkpt lat="43.23678" lon="5.49977">
        <ele>227.9</ele>
        <time>2025-10-19T07:08:24Z</time>
      </trkpt>
      <trkpt lat="43.23677" lon="5.49976">
        <ele>227.9</ele>
        <time>2025-10-19T07:08:25Z</time>
      </trkpt>
      <trkpt lat="43.23677" lon="5.49975">
        <ele>227.9</ele>
        <time>2025-10-19T07:08:26Z</time>
      </trkpt>
      <trkpt lat="43.23676" lon="5.49974">
        <ele>227.7</ele>
        <time>2025-10-19T07:08:27Z</time>
      </trkpt>
      <trkpt lat="43.23675" lon="5.49972">
        <ele>227.5</ele>
        <time>2025-10-19T07:08:28Z</time>
      </trkpt>
      <trkpt lat="43.23674" lon="5.49971">
        <ele>227.5</ele>
        <time>2025-10-19T07:08:29Z</time>
      </trkpt>
      <trkpt lat="43.23673" lon="5.4997">
        <ele>227.5</ele>
        <time>2025-10-19T07:08:30Z</time>
      </trkpt>
      <trkpt lat="43.23673" lon="5.49969">
        <ele>227.6</ele>
        <time>2025-10-19T07:08:31Z</time>
      </trkpt>
      <trkpt lat="43.23672" lon="5.49969">
        <ele>227.5</ele>
        <time>2025-10-19T07:08:32Z</time>
      </trkpt>
      <trkpt lat="43.23671" lon="5.49969">
        <ele>227.5</ele>
        <time>2025-10-19T07:08:33Z</time>
      </trkpt>
      <trkpt lat="43.2367" lon="5.49969">
        <ele>227.5</ele>
        <time>2025-10-19T07:08:34Z</time>
      </trkpt>
      <trkpt lat="43.2367" lon="5.49969">
        <ele>227.5</ele>
        <time>2025-10-19T07:08:35Z</time>
      </trkpt>
      <trkpt lat="43.23669" lon="5.49969">
        <ele>227.5</ele>
        <time>2025-10-19T07:08:36Z</time>
      </trkpt>
      <trkpt lat="43.23669" lon="5.49969">
        <ele>227.5</ele>
        <time>2025-10-19T07:08:37Z</time>
      </trkpt>
      <trkpt lat="43.23668" lon="5.49969">
        <ele>227.6</ele>
        <time>2025-10-19T07:08:38Z</time>
      </trkpt>
      <trkpt lat="43.23668" lon="5.49969">
        <ele>227.6</ele>
        <time>2025-10-19T07:08:39Z</time>
      </trkpt>
      <trkpt lat="43.23667" lon="5.4997">
        <ele>227.6</ele>
        <time>2025-10-19T07:08:40Z</time>
      </trkpt>
      <trkpt lat="43.23667" lon="5.49971">
        <ele>227.6</ele>
        <time>2025-10-19T07:08:41Z</time>
      </trkpt>
      <trkpt lat="43.23666" lon="5.49971">
        <ele>227.7</ele>
        <time>2025-10-19T07:08:42Z</time>
      </trkpt>
      <trkpt lat="43.23665" lon="5.49971">
        <ele>227.7</ele>
        <time>2025-10-19T07:08:43Z</time>
      </trkpt>
      <trkpt lat="43.23664" lon="5.4997">
        <ele>227.6</ele>
        <time>2025-10-19T07:08:44Z</time>
      </trkpt>
      <trkpt lat="43.23663" lon="5.49971">
        <ele>227.5</ele>
        <time>2025-10-19T07:08:45Z</time>
      </trkpt>
      <trkpt lat="43.23662" lon="5.49971">
        <ele>227.4</ele>
        <time>2025-10-19T07:08:46Z</time>
      </trkpt>
      <trkpt lat="43.23661" lon="5.49972">
        <ele>227.3</ele>
        <time>2025-10-19T07:08:47Z</time>
      </trkpt>
      <trkpt lat="43.23661" lon="5.49972">
        <ele>227.2</ele>
        <time>2025-10-19T07:08:48Z</time>
      </trkpt>
      <trkpt lat="43.23661" lon="5.49972">
        <ele>227.2</ele>
        <time>2025-10-19T07:08:49Z</time>
      </trkpt>
      <trkpt lat="43.23661" lon="5.49972">
        <ele>227.2</ele>
        <time>2025-10-19T07:08:50Z</time>
      </trkpt>
      <trkpt lat="43.23661" lon="5.49971">
        <ele>227.1</ele>
        <time>2025-10-19T07:08:51Z</time>
      </trkpt>
      <trkpt lat="43.23661" lon="5.49971">
        <ele>227.1</ele>
        <time>2025-10-19T07:08:52Z</time>
      </trkpt>
      <trkpt lat="43.2366" lon="5.49971">
        <ele>227.2</ele>
        <time>2025-10-19T07:08:53Z</time>
      </trkpt>
      <trkpt lat="43.2366" lon="5.49971">
        <ele>227.2</ele>
        <time>2025-10-19T07:08:54Z</time>
      </trkpt>
      <trkpt lat="43.23659" lon="5.49971">
        <ele>227.2</ele>
        <time>2025-10-19T07:08:55Z</time>
      </trkpt>
      <trkpt lat="43.23658" lon="5.49972">
        <ele>227.3</ele>
        <time>2025-10-19T07:08:56Z</time>
      </trkpt>
      <trkpt lat="43.23657" lon="5.49972">
        <ele>227.3</ele>
        <time>2025-10-19T07:08:57Z</time>
      </trkpt>
      <trkpt lat="43.23655" lon="5.49972">
        <ele>227.2</ele>
        <time>2025-10-19T07:08:58Z</time>
      </trkpt>
      <trkpt lat="43.23654" lon="5.49973">
        <ele>227.1</ele>
        <time>2025-10-19T07:08:59Z</time>
      </trkpt>
      <trkpt lat="43.23653" lon="5.49973">
        <ele>227.1</ele>
        <time>2025-10-19T07:09:00Z</time>
      </trkpt>
      <trkpt lat="43.23652" lon="5.49974">
        <ele>227</ele>
        <time>2025-10-19T07:09:01Z</time>
      </trkpt>
      <trkpt lat="43.2365" lon="5.49974">
        <ele>226.9</ele>
        <time>2025-10-19T07:09:02Z</time>
      </trkpt>
      <trkpt lat="43.23649" lon="5.49974">
        <ele>226.9</ele>
        <time>2025-10-19T07:09:03Z</time>
      </trkpt>
      <trkpt lat="43.23648" lon="5.49975">
        <ele>226.8</ele>
        <time>2025-10-19T07:09:04Z</time>
      </trkpt>
      <trkpt lat="43.23647" lon="5.49975">
        <ele>226.7</ele>
        <time>2025-10-19T07:09:05Z</time>
      </trkpt>
      <trkpt lat="43.23646" lon="5.49975">
        <ele>226.7</ele>
        <time>2025-10-19T07:09:06Z</time>
      </trkpt>
      <trkpt lat="43.23645" lon="5.49976">
        <ele>226.7</ele>
        <time>2025-10-19T07:09:07Z</time>
      </trkpt>
      <trkpt lat="43.23644" lon="5.49976">
        <ele>226.8</ele>
        <time>2025-10-19T07:09:08Z</time>
      </trkpt>
      <trkpt lat="43.23643" lon="5.49977">
        <ele>226.7</ele>
        <time>2025-10-19T07:09:09Z</time>
      </trkpt>
      <trkpt lat="43.23642" lon="5.49978">
        <ele>226.6</ele>
        <time>2025-10-19T07:09:10Z</time>
      </trkpt>
      <trkpt lat="43.23642" lon="5.49978">
        <ele>226.6</ele>
        <time>2025-10-19T07:09:11Z</time>
      </trkpt>
      <trkpt lat="43.23641" lon="5.49978">
        <ele>226.6</ele>
        <time>2025-10-19T07:09:12Z</time>
      </trkpt>
      <trkpt lat="43.2364" lon="5.49978">
        <ele>226.5</ele>
        <time>2025-10-19T07:09:13Z</time>
      </trkpt>
      <trkpt lat="43.23639" lon="5.49978">
        <ele>226.6</ele>
        <time>2025-10-19T07:09:14Z</time>
      </trkpt>
      <trkpt lat="43.23638" lon="5.49979">
        <ele>226.6</ele>
        <time>2025-10-19T07:09:15Z</time>
      </trkpt>
      <trkpt lat="43.23637" lon="5.49979">
        <ele>226.6</ele>
        <time>2025-10-19T07:09:16Z</time>
      </trkpt>
      <trkpt lat="43.23636" lon="5.49979">
        <ele>226.5</ele>
        <time>2025-10-19T07:09:17Z</time>
      </trkpt>
      <trkpt lat="43.23635" lon="5.4998">
        <ele>226.4</ele>
        <time>2025-10-19T07:09:18Z</time>
      </trkpt>
      <trkpt lat="43.23634" lon="5.4998">
        <ele>226.5</ele>
        <time>2025-10-19T07:09:19Z</time>
      </trkpt>
      <trkpt lat="43.23633" lon="5.4998">
        <ele>226.5</ele>
        <time>2025-10-19T07:09:20Z</time>
      </trkpt>
      <trkpt lat="43.23632" lon="5.4998">
        <ele>226.5</ele>
        <time>2025-10-19T07:09:21Z</time>
      </trkpt>
      <trkpt lat="43.23631" lon="5.4998">
        <ele>226.4</ele>
        <time>2025-10-19T07:09:22Z</time>
      </trkpt>
      <trkpt lat="43.2363" lon="5.49981">
        <ele>226.4</ele>
        <time>2025-10-19T07:09:23Z</time>
      </trkpt>
      <trkpt lat="43.23629" lon="5.49982">
        <ele>226.3</ele>
        <time>2025-10-19T07:09:24Z</time>
      </trkpt>
      <trkpt lat="43.23628" lon="5.49982">
        <ele>226.3</ele>
        <time>2025-10-19T07:09:25Z</time>
      </trkpt>
      <trkpt lat="43.23627" lon="5.49983">
        <ele>226.3</ele>
        <time>2025-10-19T07:09:26Z</time>
      </trkpt>
      <trkpt lat="43.23626" lon="5.49983">
        <ele>226.3</ele>
        <time>2025-10-19T07:09:27Z</time>
      </trkpt>
      <trkpt lat="43.23625" lon="5.49984">
        <ele>226.2</ele>
        <time>2025-10-19T07:09:28Z</time>
      </trkpt>
      <trkpt lat="43.23624" lon="5.49984">
        <ele>226.1</ele>
        <time>2025-10-19T07:09:29Z</time>
      </trkpt>
      <trkpt lat="43.23623" lon="5.49984">
        <ele>226</ele>
        <time>2025-10-19T07:09:30Z</time>
      </trkpt>
      <trkpt lat="43.23622" lon="5.49985">
        <ele>225.9</ele>
        <time>2025-10-19T07:09:31Z</time>
      </trkpt>
      <trkpt lat="43.23621" lon="5.49986">
        <ele>225.8</ele>
        <time>2025-10-19T07:09:32Z</time>
      </trkpt>
      <trkpt lat="43.2362" lon="5.49986">
        <ele>225.7</ele>
        <time>2025-10-19T07:09:33Z</time>
      </trkpt>
      <trkpt lat="43.23619" lon="5.49986">
        <ele>225.7</ele>
        <time>2025-10-19T07:09:34Z</time>
      </trkpt>
      <trkpt lat="43.23618" lon="5.49987">
        <ele>225.6</ele>
        <time>2025-10-19T07:09:35Z</time>
      </trkpt>
      <trkpt lat="43.23617" lon="5.49987">
        <ele>225.5</ele>
        <time>2025-10-19T07:09:36Z</time>
      </trkpt>
      <trkpt lat="43.23616" lon="5.49987">
        <ele>225.3</ele>
        <time>2025-10-19T07:09:37Z</time>
      </trkpt>
      <trkpt lat="43.23615" lon="5.49988">
        <ele>225.2</ele>
        <time>2025-10-19T07:09:38Z</time>
      </trkpt>
      <trkpt lat="43.23614" lon="5.49988">
        <ele>225.1</ele>
        <time>2025-10-19T07:09:39Z</time>
      </trkpt>
      <trkpt lat="43.23613" lon="5.49988">
        <ele>225</ele>
        <time>2025-10-19T07:09:40Z</time>
      </trkpt>
      <trkpt lat="43.23612" lon="5.49989">
        <ele>225</ele>
        <time>2025-10-19T07:09:41Z</time>
      </trkpt>
      <trkpt lat="43.23611" lon="5.49989">
        <ele>225</ele>
        <time>2025-10-19T07:09:42Z</time>
      </trkpt>
      <trkpt lat="43.2361" lon="5.4999">
        <ele>224.9</ele>
        <time>2025-10-19T07:09:43Z</time>
      </trkpt>
      <trkpt lat="43.23609" lon="5.4999">
        <ele>224.8</ele>
        <time>2025-10-19T07:09:44Z</time>
      </trkpt>
      <trkpt lat="43.23608" lon="5.4999">
        <ele>224.8</ele>
        <time>2025-10-19T07:09:45Z</time>
      </trkpt>
      <trkpt lat="43.23607" lon="5.4999">
        <ele>224.8</ele>
        <time>2025-10-19T07:09:46Z</time>
      </trkpt>
      <trkpt lat="43.23606" lon="5.49991">
        <ele>224.8</ele>
        <time>2025-10-19T07:09:47Z</time>
      </trkpt>
      <trkpt lat="43.23605" lon="5.49991">
        <ele>224.7</ele>
        <time>2025-10-19T07:09:48Z</time>
      </trkpt>
      <trkpt lat="43.23604" lon="5.49991">
        <ele>224.7</ele>
        <time>2025-10-19T07:09:49Z</time>
      </trkpt>
      <trkpt lat="43.23603" lon="5.49992">
        <ele>224.7</ele>
        <time>2025-10-19T07:09:50Z</time>
      </trkpt>
      <trkpt lat="43.23602" lon="5.49993">
        <ele>224.7</ele>
        <time>2025-10-19T07:09:51Z</time>
      </trkpt>
      <trkpt lat="43.23601" lon="5.49993">
        <ele>224.6</ele>
        <time>2025-10-19T07:09:52Z</time>
      </trkpt>
      <trkpt lat="43.236" lon="5.49993">
        <ele>224.5</ele>
        <time>2025-10-19T07:09:53Z</time>
      </trkpt>
      <trkpt lat="43.23599" lon="5.49994">
        <ele>224.4</ele>
        <time>2025-10-19T07:09:54Z</time>
      </trkpt>
      <trkpt lat="43.23598" lon="5.49994">
        <ele>224.4</ele>
        <time>2025-10-19T07:09:55Z</time>
      </trkpt>
      <trkpt lat="43.23597" lon="5.49994">
        <ele>224.2</ele>
        <time>2025-10-19T07:09:56Z</time>
      </trkpt>
      <trkpt lat="43.23596" lon="5.49994">
        <ele>224.1</ele>
        <time>2025-10-19T07:09:57Z</time>
      </trkpt>
      <trkpt lat="43.23595" lon="5.49995">
        <ele>224.1</ele>
        <time>2025-10-19T07:09:58Z</time>
      </trkpt>
      <trkpt lat="43.23594" lon="5.49995">
        <ele>224.1</ele>
        <time>2025-10-19T07:09:59Z</time>
      </trkpt>
      <trkpt lat="43.23593" lon="5.49996">
        <ele>224.1</ele>
        <time>2025-10-19T07:10:00Z</time>
      </trkpt>
      <trkpt lat="43.23592" lon="5.49997">
        <ele>224.1</ele>
        <time>2025-10-19T07:10:01Z</time>
      </trkpt>
      <trkpt lat="43.23591" lon="5.49997">
        <ele>224.1</ele>
        <time>2025-10-19T07:10:02Z</time>
      </trkpt>
      <trkpt lat="43.2359" lon="5.49998">
        <ele>224</ele>
        <time>2025-10-19T07:10:03Z</time>
      </trkpt>
      <trkpt lat="43.23589" lon="5.49998">
        <ele>224</ele>
        <time>2025-10-19T07:10:04Z</time>
      </trkpt>
      <trkpt lat="43.23587" lon="5.49998">
        <ele>224.1</ele>
        <time>2025-10-19T07:10:05Z</time>
      </trkpt>
      <trkpt lat="43.23586" lon="5.49998">
        <ele>224.1</ele>
        <time>2025-10-19T07:10:06Z</time>
      </trkpt>
      <trkpt lat="43.23585" lon="5.49998">
        <ele>224.1</ele>
        <time>2025-10-19T07:10:07Z</time>
      </trkpt>
      <trkpt lat="43.23584" lon="5.49998">
        <ele>224.1</ele>
        <time>2025-10-19T07:10:08Z</time>
      </trkpt>
      <trkpt lat="43.23583" lon="5.49998">
        <ele>224.1</ele>
        <time>2025-10-19T07:10:09Z</time>
      </trkpt>
      <trkpt lat="43.23582" lon="5.49998">
        <ele>224</ele>
        <time>2025-10-19T07:10:10Z</time>
      </trkpt>
      <trkpt lat="43.23582" lon="5.49999">
        <ele>224</ele>
        <time>2025-10-19T07:10:11Z</time>
      </trkpt>
      <trkpt lat="43.23581" lon="5.49999">
        <ele>223.9</ele>
        <time>2025-10-19T07:10:12Z</time>
      </trkpt>
      <trkpt lat="43.2358" lon="5.49999">
        <ele>223.9</ele>
        <time>2025-10-19T07:10:13Z</time>
      </trkpt>
      <trkpt lat="43.23579" lon="5.49999">
        <ele>223.9</ele>
        <time>2025-10-19T07:10:14Z</time>
      </trkpt>
      <trkpt lat="43.23579" lon="5.5">
        <ele>223.9</ele>
        <time>2025-10-19T07:10:15Z</time>
      </trkpt>
      <trkpt lat="43.23578" lon="5.50001">
        <ele>223.8</ele>
        <time>2025-10-19T07:10:16Z</time>
      </trkpt>
      <trkpt lat="43.23577" lon="5.50001">
        <ele>223.6</ele>
        <time>2025-10-19T07:10:17Z</time>
      </trkpt>
      <trkpt lat="43.23575" lon="5.50001">
        <ele>223.5</ele>
        <time>2025-10-19T07:10:18Z</time>
      </trkpt>
      <trkpt lat="43.23574" lon="5.50001">
        <ele>223.5</ele>
        <time>2025-10-19T07:10:19Z</time>
      </trkpt>
      <trkpt lat="43.23573" lon="5.50001">
        <ele>223.4</ele>
        <time>2025-10-19T07:10:20Z</time>
      </trkpt>
      <trkpt lat="43.23572" lon="5.50001">
        <ele>223.3</ele>
        <time>2025-10-19T07:10:21Z</time>
      </trkpt>
      <trkpt lat="43.23571" lon="5.50001">
        <ele>223.3</ele>
        <time>2025-10-19T07:10:22Z</time>
      </trkpt>
      <trkpt lat="43.2357" lon="5.50001">
        <ele>223.2</ele>
        <time>2025-10-19T07:10:23Z</time>
      </trkpt>
      <trkpt lat="43.23569" lon="5.50002">
        <ele>223.1</ele>
        <time>2025-10-19T07:10:24Z</time>
      </trkpt>
      <trkpt lat="43.23568" lon="5.50002">
        <ele>223</ele>
        <time>2025-10-19T07:10:25Z</time>
      </trkpt>
      <trkpt lat="43.23567" lon="5.50002">
        <ele>223.1</ele>
        <time>2025-10-19T07:10:26Z</time>
      </trkpt>
      <trkpt lat="43.23566" lon="5.50003">
        <ele>223.1</ele>
        <time>2025-10-19T07:10:27Z</time>
      </trkpt>
      <trkpt lat="43.23566" lon="5.50003">
        <ele>223.1</ele>
        <time>2025-10-19T07:10:28Z</time>
      </trkpt>
      <trkpt lat="43.23565" lon="5.50004">
        <ele>222.9</ele>
        <time>2025-10-19T07:10:29Z</time>
      </trkpt>
      <trkpt lat="43.23564" lon="5.50004">
        <ele>222.9</ele>
        <time>2025-10-19T07:10:30Z</time>
      </trkpt>
      <trkpt lat="43.23562" lon="5.50004">
        <ele>222.9</ele>
        <time>2025-10-19T07:10:31Z</time>
      </trkpt>
      <trkpt lat="43.23561" lon="5.50005">
        <ele>222.8</ele>
        <time>2025-10-19T07:10:32Z</time>
      </trkpt>
      <trkpt lat="43.2356" lon="5.50005">
        <ele>222.8</ele>
        <time>2025-10-19T07:10:33Z</time>
      </trkpt>
      <trkpt lat="43.23559" lon="5.50006">
        <ele>222.8</ele>
        <time>2025-10-19T07:10:34Z</time>
      </trkpt>
      <trkpt lat="43.23558" lon="5.50006">
        <ele>222.8</ele>
        <time>2025-10-19T07:10:35Z</time>
      </trkpt>
      <trkpt lat="43.23557" lon="5.50007">
        <ele>222.8</ele>
        <time>2025-10-19T07:10:36Z</time>
      </trkpt>
      <trkpt lat="43.23556" lon="5.50007">
        <ele>222.7</ele>
        <time>2025-10-19T07:10:37Z</time>
      </trkpt>
      <trkpt lat="43.23555" lon="5.50007">
        <ele>222.4</ele>
        <time>2025-10-19T07:10:38Z</time>
      </trkpt>
      <trkpt lat="43.23554" lon="5.50007">
        <ele>222.4</ele>
        <time>2025-10-19T07:10:39Z</time>
      </trkpt>
      <trkpt lat="43.23553" lon="5.50008">
        <ele>222.4</ele>
        <time>2025-10-19T07:10:40Z</time>
      </trkpt>
      <trkpt lat="43.23552" lon="5.50008">
        <ele>222.3</ele>
        <time>2025-10-19T07:10:41Z</time>
      </trkpt>
      <trkpt lat="43.23551" lon="5.50009">
        <ele>222.3</ele>
        <time>2025-10-19T07:10:42Z</time>
      </trkpt>
      <trkpt lat="43.2355" lon="5.5001">
        <ele>222.3</ele>
        <time>2025-10-19T07:10:43Z</time>
      </trkpt>
      <trkpt lat="43.23549" lon="5.50011">
        <ele>222.3</ele>
        <time>2025-10-19T07:10:44Z</time>
      </trkpt>
      <trkpt lat="43.23548" lon="5.50011">
        <ele>222.3</ele>
        <time>2025-10-19T07:10:45Z</time>
      </trkpt>
      <trkpt lat="43.23547" lon="5.50012">
        <ele>222.3</ele>
        <time>2025-10-19T07:10:46Z</time>
      </trkpt>
      <trkpt lat="43.23546" lon="5.50012">
        <ele>222.3</ele>
        <time>2025-10-19T07:10:47Z</time>
      </trkpt>
      <trkpt lat="43.23545" lon="5.50013">
        <ele>222.3</ele>
        <time>2025-10-19T07:10:48Z</time>
      </trkpt>
      <trkpt lat="43.23544" lon="5.50013">
        <ele>222.3</ele>
        <time>2025-10-19T07:10:49Z</time>
      </trkpt>
      <trkpt lat="43.23543" lon="5.50014">
        <ele>222.3</ele>
        <time>2025-10-19T07:10:50Z</time>
      </trkpt>
      <trkpt lat="43.23542" lon="5.50015">
        <ele>222.3</ele>
        <time>2025-10-19T07:10:51Z</time>
      </trkpt>
      <trkpt lat="43.23541" lon="5.50015">
        <ele>222.3</ele>
        <time>2025-10-19T07:10:52Z</time>
      </trkpt>
      <trkpt lat="43.23539" lon="5.50015">
        <ele>222.2</ele>
        <time>2025-10-19T07:10:53Z</time>
      </trkpt>
      <trkpt lat="43.23538" lon="5.50015">
        <ele>222.1</ele>
        <time>2025-10-19T07:10:54Z</time>
      </trkpt>
      <trkpt lat="43.23537" lon="5.50016">
        <ele>222</ele>
        <time>2025-10-19T07:10:55Z</time>
      </trkpt>
      <trkpt lat="43.23536" lon="5.50016">
        <ele>222</ele>
        <time>2025-10-19T07:10:56Z</time>
      </trkpt>
      <trkpt lat="43.23535" lon="5.50017">
        <ele>221.8</ele>
        <time>2025-10-19T07:10:57Z</time>
      </trkpt>
      <trkpt lat="43.23534" lon="5.50018">
        <ele>221.7</ele>
        <time>2025-10-19T07:10:58Z</time>
      </trkpt>
      <trkpt lat="43.23533" lon="5.50018">
        <ele>221.6</ele>
        <time>2025-10-19T07:10:59Z</time>
      </trkpt>
      <trkpt lat="43.23532" lon="5.50019">
        <ele>221.5</ele>
        <time>2025-10-19T07:11:00Z</time>
      </trkpt>
      <trkpt lat="43.23531" lon="5.5002">
        <ele>221.5</ele>
        <time>2025-10-19T07:11:01Z</time>
      </trkpt>
      <trkpt lat="43.2353" lon="5.5002">
        <ele>221.4</ele>
        <time>2025-10-19T07:11:02Z</time>
      </trkpt>
      <trkpt lat="43.23529" lon="5.50021">
        <ele>221.3</ele>
        <time>2025-10-19T07:11:03Z</time>
      </trkpt>
      <trkpt lat="43.23528" lon="5.50022">
        <ele>221.2</ele>
        <time>2025-10-19T07:11:04Z</time>
      </trkpt>
      <trkpt lat="43.23527" lon="5.50022">
        <ele>221.2</ele>
        <time>2025-10-19T07:11:05Z</time>
      </trkpt>
      <trkpt lat="43.23526" lon="5.50023">
        <ele>221.2</ele>
        <time>2025-10-19T07:11:06Z</time>
      </trkpt>
      <trkpt lat="43.23525" lon="5.50024">
        <ele>221.2</ele>
        <time>2025-10-19T07:11:07Z</time>
      </trkpt>
      <trkpt lat="43.23524" lon="5.50025">
        <ele>221.2</ele>
        <time>2025-10-19T07:11:08Z</time>
      </trkpt>
      <trkpt lat="43.23523" lon="5.50026">
        <ele>221.2</ele>
        <time>2025-10-19T07:11:09Z</time>
      </trkpt>
      <trkpt lat="43.23522" lon="5.50026">
        <ele>221.2</ele>
        <time>2025-10-19T07:11:10Z</time>
      </trkpt>
      <trkpt lat="43.23521" lon="5.50027">
        <ele>221.2</ele>
        <time>2025-10-19T07:11:11Z</time>
      </trkpt>
      <trkpt lat="43.2352" lon="5.50027">
        <ele>221.1</ele>
        <time>2025-10-19T07:11:12Z</time>
      </trkpt>
      <trkpt lat="43.23519" lon="5.50027">
        <ele>221.1</ele>
        <time>2025-10-19T07:11:13Z</time>
      </trkpt>
      <trkpt lat="43.23518" lon="5.50028">
        <ele>221</ele>
        <time>2025-10-19T07:11:14Z</time>
      </trkpt>
      <trkpt lat="43.23517" lon="5.50029">
        <ele>221</ele>
        <time>2025-10-19T07:11:15Z</time>
      </trkpt>
      <trkpt lat="43.23516" lon="5.50029">
        <ele>221</ele>
        <time>2025-10-19T07:11:16Z</time>
      </trkpt>
      <trkpt lat="43.23514" lon="5.5003">
        <ele>220.9</ele>
        <time>2025-10-19T07:11:17Z</time>
      </trkpt>
      <trkpt lat="43.23513" lon="5.50031">
        <ele>220.9</ele>
        <time>2025-10-19T07:11:18Z</time>
      </trkpt>
      <trkpt lat="43.23512" lon="5.50032">
        <ele>220.9</ele>
        <time>2025-10-19T07:11:19Z</time>
      </trkpt>
      <trkpt lat="43.23511" lon="5.50032">
        <ele>220.8</ele>
        <time>2025-10-19T07:11:20Z</time>
      </trkpt>
      <trkpt lat="43.2351" lon="5.50032">
        <ele>220.8</ele>
        <time>2025-10-19T07:11:21Z</time>
      </trkpt>
      <trkpt lat="43.23509" lon="5.50032">
        <ele>220.8</ele>
        <time>2025-10-19T07:11:22Z</time>
      </trkpt>
      <trkpt lat="43.23508" lon="5.50033">
        <ele>220.7</ele>
        <time>2025-10-19T07:11:23Z</time>
      </trkpt>
      <trkpt lat="43.23507" lon="5.50033">
        <ele>220.6</ele>
        <time>2025-10-19T07:11:24Z</time>
      </trkpt>
      <trkpt lat="43.23506" lon="5.50033">
        <ele>220.5</ele>
        <time>2025-10-19T07:11:25Z</time>
      </trkpt>
      <trkpt lat="43.23505" lon="5.50033">
        <ele>220.4</ele>
        <time>2025-10-19T07:11:26Z</time>
      </trkpt>
      <trkpt lat="43.23504" lon="5.50034">
        <ele>220.4</ele>
        <time>2025-10-19T07:11:27Z</time>
      </trkpt>
      <trkpt lat="43.23503" lon="5.50034">
        <ele>220.3</ele>
        <time>2025-10-19T07:11:28Z</time>
      </trkpt>
      <trkpt lat="43.23502" lon="5.50035">
        <ele>220.3</ele>
        <time>2025-10-19T07:11:29Z</time>
      </trkpt>
      <trkpt lat="43.23501" lon="5.50035">
        <ele>220.3</ele>
        <time>2025-10-19T07:11:30Z</time>
      </trkpt>
      <trkpt lat="43.23499" lon="5.50035">
        <ele>220.4</ele>
        <time>2025-10-19T07:11:31Z</time>
      </trkpt>
      <trkpt lat="43.23498" lon="5.50036">
        <ele>220.4</ele>
        <time>2025-10-19T07:11:32Z</time>
      </trkpt>
      <trkpt lat="43.23497" lon="5.50037">
        <ele>220.4</ele>
        <time>2025-10-19T07:11:33Z</time>
      </trkpt>
      <trkpt lat="43.23496" lon="5.50037">
        <ele>220.4</ele>
        <time>2025-10-19T07:11:34Z</time>
      </trkpt>
      <trkpt lat="43.23494" lon="5.50037">
        <ele>220.4</ele>
        <time>2025-10-19T07:11:35Z</time>
      </trkpt>
      <trkpt lat="43.23493" lon="5.50038">
        <ele>220.3</ele>
        <time>2025-10-19T07:11:36Z</time>
      </trkpt>
      <trkpt lat="43.23492" lon="5.50039">
        <ele>220.3</ele>
        <time>2025-10-19T07:11:37Z</time>
      </trkpt>
      <trkpt lat="43.23492" lon="5.50039">
        <ele>220.2</ele>
        <time>2025-10-19T07:11:38Z</time>
      </trkpt>
      <trkpt lat="43.23491" lon="5.5004">
        <ele>220.1</ele>
        <time>2025-10-19T07:11:39Z</time>
      </trkpt>
      <trkpt lat="43.2349" lon="5.5004">
        <ele>220.1</ele>
        <time>2025-10-19T07:11:40Z</time>
      </trkpt>
      <trkpt lat="43.23489" lon="5.50041">
        <ele>220</ele>
        <time>2025-10-19T07:11:41Z</time>
      </trkpt>
      <trkpt lat="43.23488" lon="5.50042">
        <ele>219.9</ele>
        <time>2025-10-19T07:11:42Z</time>
      </trkpt>
      <trkpt lat="43.23487" lon="5.50043">
        <ele>219.8</ele>
        <time>2025-10-19T07:11:43Z</time>
      </trkpt>
      <trkpt lat="43.23486" lon="5.50044">
        <ele>219.7</ele>
        <time>2025-10-19T07:11:44Z</time>
      </trkpt>
      <trkpt lat="43.23485" lon="5.50045">
        <ele>219.6</ele>
        <time>2025-10-19T07:11:45Z</time>
      </trkpt>
      <trkpt lat="43.23484" lon="5.50046">
        <ele>219.6</ele>
        <time>2025-10-19T07:11:46Z</time>
      </trkpt>
      <trkpt lat="43.23483" lon="5.50047">
        <ele>219.6</ele>
        <time>2025-10-19T07:11:47Z</time>
      </trkpt>
      <trkpt lat="43.23482" lon="5.50047">
        <ele>219.5</ele>
        <time>2025-10-19T07:11:48Z</time>
      </trkpt>
      <trkpt lat="43.23481" lon="5.50048">
        <ele>219.5</ele>
        <time>2025-10-19T07:11:49Z</time>
      </trkpt>
      <trkpt lat="43.2348" lon="5.50049">
        <ele>219.5</ele>
        <time>2025-10-19T07:11:50Z</time>
      </trkpt>
      <trkpt lat="43.23479" lon="5.5005">
        <ele>219.5</ele>
        <time>2025-10-19T07:11:51Z</time>
      </trkpt>
      <trkpt lat="43.23478" lon="5.5005">
        <ele>219.5</ele>
        <time>2025-10-19T07:11:52Z</time>
      </trkpt>
      <trkpt lat="43.23477" lon="5.50051">
        <ele>219.5</ele>
        <time>2025-10-19T07:11:53Z</time>
      </trkpt>
      <trkpt lat="43.23476" lon="5.50052">
        <ele>219.4</ele>
        <time>2025-10-19T07:11:54Z</time>
      </trkpt>
      <trkpt lat="43.23475" lon="5.50052">
        <ele>219.3</ele>
        <time>2025-10-19T07:11:55Z</time>
      </trkpt>
      <trkpt lat="43.23474" lon="5.50053">
        <ele>219.2</ele>
        <time>2025-10-19T07:11:56Z</time>
      </trkpt>
      <trkpt lat="43.23473" lon="5.50053">
        <ele>219.1</ele>
        <time>2025-10-19T07:11:57Z</time>
      </trkpt>
      <trkpt lat="43.23471" lon="5.50054">
        <ele>219.1</ele>
        <time>2025-10-19T07:11:58Z</time>
      </trkpt>
      <trkpt lat="43.2347" lon="5.50054">
        <ele>219</ele>
        <time>2025-10-19T07:11:59Z</time>
      </trkpt>
      <trkpt lat="43.23469" lon="5.50055">
        <ele>219</ele>
        <time>2025-10-19T07:12:00Z</time>
      </trkpt>
      <trkpt lat="43.23468" lon="5.50055">
        <ele>218.9</ele>
        <time>2025-10-19T07:12:01Z</time>
      </trkpt>
      <trkpt lat="43.23467" lon="5.50056">
        <ele>218.9</ele>
        <time>2025-10-19T07:12:02Z</time>
      </trkpt>
      <trkpt lat="43.23466" lon="5.50056">
        <ele>218.9</ele>
        <time>2025-10-19T07:12:03Z</time>
      </trkpt>
      <trkpt lat="43.23465" lon="5.50057">
        <ele>218.9</ele>
        <time>2025-10-19T07:12:04Z</time>
      </trkpt>
      <trkpt lat="43.23464" lon="5.50058">
        <ele>218.9</ele>
        <time>2025-10-19T07:12:05Z</time>
      </trkpt>
      <trkpt lat="43.23463" lon="5.50058">
        <ele>218.9</ele>
        <time>2025-10-19T07:12:06Z</time>
      </trkpt>
      <trkpt lat="43.23462" lon="5.50059">
        <ele>218.8</ele>
        <time>2025-10-19T07:12:07Z</time>
      </trkpt>
      <trkpt lat="43.23461" lon="5.5006">
        <ele>218.8</ele>
        <time>2025-10-19T07:12:08Z</time>
      </trkpt>
      <trkpt lat="43.2346" lon="5.50061">
        <ele>218.7</ele>
        <time>2025-10-19T07:12:09Z</time>
      </trkpt>
      <trkpt lat="43.23459" lon="5.50062">
        <ele>218.7</ele>
        <time>2025-10-19T07:12:10Z</time>
      </trkpt>
      <trkpt lat="43.23457" lon="5.50063">
        <ele>218.8</ele>
        <time>2025-10-19T07:12:11Z</time>
      </trkpt>
      <trkpt lat="43.23456" lon="5.50064">
        <ele>218.8</ele>
        <time>2025-10-19T07:12:12Z</time>
      </trkpt>
      <trkpt lat="43.23456" lon="5.50065">
        <ele>218.8</ele>
        <time>2025-10-19T07:12:13Z</time>
      </trkpt>
      <trkpt lat="43.23455" lon="5.50066">
        <ele>218.8</ele>
        <time>2025-10-19T07:12:14Z</time>
      </trkpt>
      <trkpt lat="43.23454" lon="5.50067">
        <ele>218.8</ele>
        <time>2025-10-19T07:12:15Z</time>
      </trkpt>
      <trkpt lat="43.23453" lon="5.50068">
        <ele>218.7</ele>
        <time>2025-10-19T07:12:16Z</time>
      </trkpt>
      <trkpt lat="43.23452" lon="5.50069">
        <ele>218.7</ele>
        <time>2025-10-19T07:12:17Z</time>
      </trkpt>
      <trkpt lat="43.23451" lon="5.5007">
        <ele>218.6</ele>
        <time>2025-10-19T07:12:18Z</time>
      </trkpt>
      <trkpt lat="43.2345" lon="5.50071">
        <ele>218.6</ele>
        <time>2025-10-19T07:12:19Z</time>
      </trkpt>
      <trkpt lat="43.23449" lon="5.50071">
        <ele>218.7</ele>
        <time>2025-10-19T07:12:20Z</time>
      </trkpt>
      <trkpt lat="43.23448" lon="5.50072">
        <ele>218.8</ele>
        <time>2025-10-19T07:12:21Z</time>
      </trkpt>
      <trkpt lat="43.23446" lon="5.50072">
        <ele>218.8</ele>
        <time>2025-10-19T07:12:22Z</time>
      </trkpt>
      <trkpt lat="43.23445" lon="5.50073">
        <ele>218.7</ele>
        <time>2025-10-19T07:12:23Z</time>
      </trkpt>
      <trkpt lat="43.23444" lon="5.50074">
        <ele>218.7</ele>
        <time>2025-10-19T07:12:24Z</time>
      </trkpt>
      <trkpt lat="43.23443" lon="5.50074">
        <ele>218.8</ele>
        <time>2025-10-19T07:12:25Z</time>
      </trkpt>
      <trkpt lat="43.23442" lon="5.50075">
        <ele>218.6</ele>
        <time>2025-10-19T07:12:26Z</time>
      </trkpt>
      <trkpt lat="43.2344" lon="5.50075">
        <ele>218.5</ele>
        <time>2025-10-19T07:12:27Z</time>
      </trkpt>
      <trkpt lat="43.23439" lon="5.50076">
        <ele>218.5</ele>
        <time>2025-10-19T07:12:28Z</time>
      </trkpt>
      <trkpt lat="43.23438" lon="5.50077">
        <ele>218.5</ele>
        <time>2025-10-19T07:12:29Z</time>
      </trkpt>
      <trkpt lat="43.23438" lon="5.50078">
        <ele>218.4</ele>
        <time>2025-10-19T07:12:30Z</time>
      </trkpt>
      <trkpt lat="43.23437" lon="5.50078">
        <ele>218.3</ele>
        <time>2025-10-19T07:12:31Z</time>
      </trkpt>
      <trkpt lat="43.23436" lon="5.50079">
        <ele>218.3</ele>
        <time>2025-10-19T07:12:32Z</time>
      </trkpt>
      <trkpt lat="43.23435" lon="5.5008">
        <ele>218.4</ele>
        <time>2025-10-19T07:12:33Z</time>
      </trkpt>
      <trkpt lat="43.23434" lon="5.50081">
        <ele>218.4</ele>
        <time>2025-10-19T07:12:34Z</time>
      </trkpt>
      <trkpt lat="43.23434" lon="5.50082">
        <ele>218.4</ele>
        <time>2025-10-19T07:12:35Z</time>
      </trkpt>
      <trkpt lat="43.23433" lon="5.50082">
        <ele>218.4</ele>
        <time>2025-10-19T07:12:36Z</time>
      </trkpt>
      <trkpt lat="43.23432" lon="5.50083">
        <ele>218.4</ele>
        <time>2025-10-19T07:12:37Z</time>
      </trkpt>
      <trkpt lat="43.23431" lon="5.50084">
        <ele>218.4</ele>
        <time>2025-10-19T07:12:38Z</time>
      </trkpt>
      <trkpt lat="43.2343" lon="5.50085">
        <ele>218.5</ele>
        <time>2025-10-19T07:12:39Z</time>
      </trkpt>
      <trkpt lat="43.23429" lon="5.50086">
        <ele>218.4</ele>
        <time>2025-10-19T07:12:40Z</time>
      </trkpt>
      <trkpt lat="43.23429" lon="5.50087">
        <ele>218.4</ele>
        <time>2025-10-19T07:12:41Z</time>
      </trkpt>
      <trkpt lat="43.23428" lon="5.50088">
        <ele>218.3</ele>
        <time>2025-10-19T07:12:42Z</time>
      </trkpt>
      <trkpt lat="43.23427" lon="5.50088">
        <ele>218.3</ele>
        <time>2025-10-19T07:12:43Z</time>
      </trkpt>
      <trkpt lat="43.23426" lon="5.50088">
        <ele>218.3</ele>
        <time>2025-10-19T07:12:44Z</time>
      </trkpt>
      <trkpt lat="43.23425" lon="5.50089">
        <ele>218.2</ele>
        <time>2025-10-19T07:12:45Z</time>
      </trkpt>
      <trkpt lat="43.23424" lon="5.50089">
        <ele>218.2</ele>
        <time>2025-10-19T07:12:46Z</time>
      </trkpt>
      <trkpt lat="43.23423" lon="5.5009">
        <ele>218.2</ele>
        <time>2025-10-19T07:12:47Z</time>
      </trkpt>
      <trkpt lat="43.23422" lon="5.50091">
        <ele>218.2</ele>
        <time>2025-10-19T07:12:48Z</time>
      </trkpt>
      <trkpt lat="43.23421" lon="5.50091">
        <ele>218.2</ele>
        <time>2025-10-19T07:12:49Z</time>
      </trkpt>
      <trkpt lat="43.2342" lon="5.50092">
        <ele>218.2</ele>
        <time>2025-10-19T07:12:50Z</time>
      </trkpt>
      <trkpt lat="43.23419" lon="5.50092">
        <ele>218.2</ele>
        <time>2025-10-19T07:12:51Z</time>
      </trkpt>
      <trkpt lat="43.23418" lon="5.50093">
        <ele>218.2</ele>
        <time>2025-10-19T07:12:52Z</time>
      </trkpt>
      <trkpt lat="43.23417" lon="5.50094">
        <ele>218.1</ele>
        <time>2025-10-19T07:12:53Z</time>
      </trkpt>
      <trkpt lat="43.23416" lon="5.50095">
        <ele>218</ele>
        <time>2025-10-19T07:12:54Z</time>
      </trkpt>
      <trkpt lat="43.23415" lon="5.50096">
        <ele>218</ele>
        <time>2025-10-19T07:12:55Z</time>
      </trkpt>
      <trkpt lat="43.23414" lon="5.50097">
        <ele>218</ele>
        <time>2025-10-19T07:12:56Z</time>
      </trkpt>
      <trkpt lat="43.23413" lon="5.50097">
        <ele>218.1</ele>
        <time>2025-10-19T07:12:57Z</time>
      </trkpt>
      <trkpt lat="43.23412" lon="5.50098">
        <ele>218.1</ele>
        <time>2025-10-19T07:12:58Z</time>
      </trkpt>
      <trkpt lat="43.23411" lon="5.50098">
        <ele>218</ele>
        <time>2025-10-19T07:12:59Z</time>
      </trkpt>
      <trkpt lat="43.2341" lon="5.50099">
        <ele>218</ele>
        <time>2025-10-19T07:13:00Z</time>
      </trkpt>
      <trkpt lat="43.2341" lon="5.50099">
        <ele>218</ele>
        <time>2025-10-19T07:13:01Z</time>
      </trkpt>
      <trkpt lat="43.23409" lon="5.50099">
        <ele>217.9</ele>
        <time>2025-10-19T07:13:02Z</time>
      </trkpt>
      <trkpt lat="43.23408" lon="5.501">
        <ele>217.9</ele>
        <time>2025-10-19T07:13:03Z</time>
      </trkpt>
      <trkpt lat="43.23407" lon="5.501">
        <ele>217.8</ele>
        <time>2025-10-19T07:13:04Z</time>
      </trkpt>
      <trkpt lat="43.23406" lon="5.501">
        <ele>217.7</ele>
        <time>2025-10-19T07:13:05Z</time>
      </trkpt>
      <trkpt lat="43.23405" lon="5.50101">
        <ele>217.6</ele>
        <time>2025-10-19T07:13:06Z</time>
      </trkpt>
      <trkpt lat="43.23405" lon="5.50101">
        <ele>217.6</ele>
        <time>2025-10-19T07:13:07Z</time>
      </trkpt>
      <trkpt lat="43.23404" lon="5.50103">
        <ele>217.5</ele>
        <time>2025-10-19T07:13:08Z</time>
      </trkpt>
      <trkpt lat="43.23403" lon="5.50103">
        <ele>217.5</ele>
        <time>2025-10-19T07:13:09Z</time>
      </trkpt>
      <trkpt lat="43.23402" lon="5.50104">
        <ele>217.4</ele>
        <time>2025-10-19T07:13:10Z</time>
      </trkpt>
      <trkpt lat="43.23401" lon="5.50105">
        <ele>217.4</ele>
        <time>2025-10-19T07:13:11Z</time>
      </trkpt>
      <trkpt lat="43.234" lon="5.50105">
        <ele>217.4</ele>
        <time>2025-10-19T07:13:12Z</time>
      </trkpt>
      <trkpt lat="43.23399" lon="5.50106">
        <ele>217.4</ele>
        <time>2025-10-19T07:13:13Z</time>
      </trkpt>
      <trkpt lat="43.23398" lon="5.50106">
        <ele>217.4</ele>
        <time>2025-10-19T07:13:14Z</time>
      </trkpt>
      <trkpt lat="43.23397" lon="5.50107">
        <ele>217.4</ele>
        <time>2025-10-19T07:13:15Z</time>
      </trkpt>
      <trkpt lat="43.23396" lon="5.50108">
        <ele>217.4</ele>
        <time>2025-10-19T07:13:16Z</time>
      </trkpt>
      <trkpt lat="43.23395" lon="5.50108">
        <ele>217.4</ele>
        <time>2025-10-19T07:13:17Z</time>
      </trkpt>
      <trkpt lat="43.23394" lon="5.50109">
        <ele>217.4</ele>
        <time>2025-10-19T07:13:18Z</time>
      </trkpt>
      <trkpt lat="43.23393" lon="5.50109">
        <ele>217.3</ele>
        <time>2025-10-19T07:13:19Z</time>
      </trkpt>
      <trkpt lat="43.23392" lon="5.5011">
        <ele>217.3</ele>
        <time>2025-10-19T07:13:20Z</time>
      </trkpt>
      <trkpt lat="43.23392" lon="5.5011">
        <ele>217.2</ele>
        <time>2025-10-19T07:13:21Z</time>
      </trkpt>
      <trkpt lat="43.23391" lon="5.5011">
        <ele>217.3</ele>
        <time>2025-10-19T07:13:22Z</time>
      </trkpt>
      <trkpt lat="43.23391" lon="5.5011">
        <ele>217.3</ele>
        <time>2025-10-19T07:13:23Z</time>
      </trkpt>
      <trkpt lat="43.23391" lon="5.5011">
        <ele>217.4</ele>
        <time>2025-10-19T07:13:24Z</time>
      </trkpt>
      <trkpt lat="43.2339" lon="5.50111">
        <ele>217.4</ele>
        <time>2025-10-19T07:13:25Z</time>
      </trkpt>
      <trkpt lat="43.23389" lon="5.50112">
        <ele>217.3</ele>
        <time>2025-10-19T07:13:26Z</time>
      </trkpt>
      <trkpt lat="43.23388" lon="5.50113">
        <ele>217.2</ele>
        <time>2025-10-19T07:13:27Z</time>
      </trkpt>
      <trkpt lat="43.23388" lon="5.50114">
        <ele>217.3</ele>
        <time>2025-10-19T07:13:28Z</time>
      </trkpt>
      <trkpt lat="43.23387" lon="5.50114">
        <ele>217.2</ele>
        <time>2025-10-19T07:13:29Z</time>
      </trkpt>
      <trkpt lat="43.23386" lon="5.50115">
        <ele>217.2</ele>
        <time>2025-10-19T07:13:30Z</time>
      </trkpt>
      <trkpt lat="43.23386" lon="5.50115">
        <ele>217.2</ele>
        <time>2025-10-19T07:13:31Z</time>
      </trkpt>
      <trkpt lat="43.23385" lon="5.50116">
        <ele>217.2</ele>
        <time>2025-10-19T07:13:32Z</time>
      </trkpt>
      <trkpt lat="43.23384" lon="5.50117">
        <ele>217.2</ele>
        <time>2025-10-19T07:13:33Z</time>
      </trkpt>
      <trkpt lat="43.23383" lon="5.50117">
        <ele>217.1</ele>
        <time>2025-10-19T07:13:34Z</time>
      </trkpt>
      <trkpt lat="43.23382" lon="5.50118">
        <ele>217</ele>
        <time>2025-10-19T07:13:35Z</time>
      </trkpt>
      <trkpt lat="43.23382" lon="5.50119">
        <ele>216.9</ele>
        <time>2025-10-19T07:13:36Z</time>
      </trkpt>
      <trkpt lat="43.23381" lon="5.50119">
        <ele>216.8</ele>
        <time>2025-10-19T07:13:37Z</time>
      </trkpt>
      <trkpt lat="43.2338" lon="5.5012">
        <ele>216.8</ele>
        <time>2025-10-19T07:13:38Z</time>
      </trkpt>
      <trkpt lat="43.23378" lon="5.5012">
        <ele>216.7</ele>
        <time>2025-10-19T07:13:39Z</time>
      </trkpt>
      <trkpt lat="43.23377" lon="5.5012">
        <ele>216.6</ele>
        <time>2025-10-19T07:13:40Z</time>
      </trkpt>
      <trkpt lat="43.23376" lon="5.5012">
        <ele>216.4</ele>
        <time>2025-10-19T07:13:41Z</time>
      </trkpt>
      <trkpt lat="43.23375" lon="5.50121">
        <ele>216.4</ele>
        <time>2025-10-19T07:13:42Z</time>
      </trkpt>
      <trkpt lat="43.23374" lon="5.50121">
        <ele>216.3</ele>
        <time>2025-10-19T07:13:43Z</time>
      </trkpt>
      <trkpt lat="43.23373" lon="5.50121">
        <ele>216.2</ele>
        <time>2025-10-19T07:13:44Z</time>
      </trkpt>
      <trkpt lat="43.23372" lon="5.50122">
        <ele>216.1</ele>
        <time>2025-10-19T07:13:45Z</time>
      </trkpt>
      <trkpt lat="43.23371" lon="5.50122">
        <ele>216.1</ele>
        <time>2025-10-19T07:13:46Z</time>
      </trkpt>
      <trkpt lat="43.2337" lon="5.50121">
        <ele>216</ele>
        <time>2025-10-19T07:13:47Z</time>
      </trkpt>
      <trkpt lat="43.23369" lon="5.50121">
        <ele>215.9</ele>
        <time>2025-10-19T07:13:48Z</time>
      </trkpt>
      <trkpt lat="43.23368" lon="5.50121">
        <ele>215.9</ele>
        <time>2025-10-19T07:13:49Z</time>
      </trkpt>
      <trkpt lat="43.23367" lon="5.50121">
        <ele>215.9</ele>
        <time>2025-10-19T07:13:50Z</time>
      </trkpt>
      <trkpt lat="43.23366" lon="5.50121">
        <ele>215.9</ele>
        <time>2025-10-19T07:13:51Z</time>
      </trkpt>
      <trkpt lat="43.23365" lon="5.50121">
        <ele>215.8</ele>
        <time>2025-10-19T07:13:52Z</time>
      </trkpt>
      <trkpt lat="43.23364" lon="5.50121">
        <ele>215.7</ele>
        <time>2025-10-19T07:13:53Z</time>
      </trkpt>
      <trkpt lat="43.23364" lon="5.50121">
        <ele>215.6</ele>
        <time>2025-10-19T07:13:54Z</time>
      </trkpt>
      <trkpt lat="43.23363" lon="5.50121">
        <ele>215.6</ele>
        <time>2025-10-19T07:13:55Z</time>
      </trkpt>
      <trkpt lat="43.23362" lon="5.50121">
        <ele>215.5</ele>
        <time>2025-10-19T07:13:56Z</time>
      </trkpt>
      <trkpt lat="43.23361" lon="5.50121">
        <ele>215.4</ele>
        <time>2025-10-19T07:13:57Z</time>
      </trkpt>
      <trkpt lat="43.2336" lon="5.50121">
        <ele>215.3</ele>
        <time>2025-10-19T07:13:58Z</time>
      </trkpt>
      <trkpt lat="43.23359" lon="5.50121">
        <ele>215.2</ele>
        <time>2025-10-19T07:13:59Z</time>
      </trkpt>
      <trkpt lat="43.23359" lon="5.50121">
        <ele>215.1</ele>
        <time>2025-10-19T07:14:00Z</time>
      </trkpt>
      <trkpt lat="43.23358" lon="5.50121">
        <ele>215.1</ele>
        <time>2025-10-19T07:14:01Z</time>
      </trkpt>
      <trkpt lat="43.23357" lon="5.50121">
        <ele>215</ele>
        <time>2025-10-19T07:14:02Z</time>
      </trkpt>
      <trkpt lat="43.23356" lon="5.50121">
        <ele>214.9</ele>
        <time>2025-10-19T07:14:03Z</time>
      </trkpt>
      <trkpt lat="43.23355" lon="5.50121">
        <ele>214.7</ele>
        <time>2025-10-19T07:14:04Z</time>
      </trkpt>
      <trkpt lat="43.23355" lon="5.50121">
        <ele>214.6</ele>
        <time>2025-10-19T07:14:05Z</time>
      </trkpt>
      <trkpt lat="43.23354" lon="5.50121">
        <ele>214.6</ele>
        <time>2025-10-19T07:14:06Z</time>
      </trkpt>
      <trkpt lat="43.23353" lon="5.50121">
        <ele>214.5</ele>
        <time>2025-10-19T07:14:07Z</time>
      </trkpt>
      <trkpt lat="43.23353" lon="5.5012">
        <ele>214.4</ele>
        <time>2025-10-19T07:14:08Z</time>
      </trkpt>
      <trkpt lat="43.23352" lon="5.5012">
        <ele>214.4</ele>
        <time>2025-10-19T07:14:09Z</time>
      </trkpt>
      <trkpt lat="43.23352" lon="5.50119">
        <ele>214.3</ele>
        <time>2025-10-19T07:14:10Z</time>
      </trkpt>
      <trkpt lat="43.23351" lon="5.50119">
        <ele>214.2</ele>
        <time>2025-10-19T07:14:11Z</time>
      </trkpt>
      <trkpt lat="43.23351" lon="5.50119">
        <ele>214</ele>
        <time>2025-10-19T07:14:12Z</time>
      </trkpt>
      <trkpt lat="43.2335" lon="5.50118">
        <ele>214</ele>
        <time>2025-10-19T07:14:13Z</time>
      </trkpt>
      <trkpt lat="43.23349" lon="5.50118">
        <ele>213.9</ele>
        <time>2025-10-19T07:14:14Z</time>
      </trkpt>
      <trkpt lat="43.23349" lon="5.50117">
        <ele>213.8</ele>
        <time>2025-10-19T07:14:15Z</time>
      </trkpt>
      <trkpt lat="43.23348" lon="5.50117">
        <ele>213.7</ele>
        <time>2025-10-19T07:14:16Z</time>
      </trkpt>
      <trkpt lat="43.23347" lon="5.50116">
        <ele>213.5</ele>
        <time>2025-10-19T07:14:17Z</time>
      </trkpt>
      <trkpt lat="43.23347" lon="5.50116">
        <ele>213.3</ele>
        <time>2025-10-19T07:14:18Z</time>
      </trkpt>
      <trkpt lat="43.23346" lon="5.50116">
        <ele>213.3</ele>
        <time>2025-10-19T07:14:19Z</time>
      </trkpt>
      <trkpt lat="43.23345" lon="5.50116">
        <ele>213.1</ele>
        <time>2025-10-19T07:14:20Z</time>
      </trkpt>
      <trkpt lat="43.23344" lon="5.50116">
        <ele>213</ele>
        <time>2025-10-19T07:14:21Z</time>
      </trkpt>
      <trkpt lat="43.23344" lon="5.50116">
        <ele>213</ele>
        <time>2025-10-19T07:14:22Z</time>
      </trkpt>
      <trkpt lat="43.23343" lon="5.50116">
        <ele>212.9</ele>
        <time>2025-10-19T07:14:23Z</time>
      </trkpt>
      <trkpt lat="43.23343" lon="5.50116">
        <ele>212.9</ele>
        <time>2025-10-19T07:14:24Z</time>
      </trkpt>
      <trkpt lat="43.23343" lon="5.50116">
        <ele>212.7</ele>
        <time>2025-10-19T07:14:25Z</time>
      </trkpt>
      <trkpt lat="43.23342" lon="5.50115">
        <ele>212.7</ele>
        <time>2025-10-19T07:14:26Z</time>
      </trkpt>
      <trkpt lat="43.23342" lon="5.50115">
        <ele>212.6</ele>
        <time>2025-10-19T07:14:27Z</time>
      </trkpt>
      <trkpt lat="43.23342" lon="5.50114">
        <ele>212.5</ele>
        <time>2025-10-19T07:14:28Z</time>
      </trkpt>
      <trkpt lat="43.23341" lon="5.50114">
        <ele>212.4</ele>
        <time>2025-10-19T07:14:29Z</time>
      </trkpt>
      <trkpt lat="43.23341" lon="5.50113">
        <ele>212.3</ele>
        <time>2025-10-19T07:14:30Z</time>
      </trkpt>
      <trkpt lat="43.2334" lon="5.50112">
        <ele>212.3</ele>
        <time>2025-10-19T07:14:31Z</time>
      </trkpt>
      <trkpt lat="43.2334" lon="5.50112">
        <ele>212.1</ele>
        <time>2025-10-19T07:14:32Z</time>
      </trkpt>
      <trkpt lat="43.2334" lon="5.50112">
        <ele>212</ele>
        <time>2025-10-19T07:14:33Z</time>
      </trkpt>
      <trkpt lat="43.2334" lon="5.50113">
        <ele>211.9</ele>
        <time>2025-10-19T07:14:34Z</time>
      </trkpt>
      <trkpt lat="43.2334" lon="5.50114">
        <ele>211.8</ele>
        <time>2025-10-19T07:14:35Z</time>
      </trkpt>
      <trkpt lat="43.2334" lon="5.50114">
        <ele>211.7</ele>
        <time>2025-10-19T07:14:36Z</time>
      </trkpt>
      <trkpt lat="43.2334" lon="5.50114">
        <ele>211.8</ele>
        <time>2025-10-19T07:14:37Z</time>
      </trkpt>
      <trkpt lat="43.2334" lon="5.50115">
        <ele>211.9</ele>
        <time>2025-10-19T07:14:38Z</time>
      </trkpt>
      <trkpt lat="43.23339" lon="5.50115">
        <ele>211.9</ele>
        <time>2025-10-19T07:14:39Z</time>
      </trkpt>
      <trkpt lat="43.23339" lon="5.50115">
        <ele>212</ele>
        <time>2025-10-19T07:14:40Z</time>
      </trkpt>
      <trkpt lat="43.23339" lon="5.50115">
        <ele>212</ele>
        <time>2025-10-19T07:14:41Z</time>
      </trkpt>
      <trkpt lat="43.23339" lon="5.50115">
        <ele>212</ele>
        <time>2025-10-19T07:14:42Z</time>
      </trkpt>
      <trkpt lat="43.23339" lon="5.50115">
        <ele>212</ele>
        <time>2025-10-19T07:14:43Z</time>
      </trkpt>
      <trkpt lat="43.23339" lon="5.50115">
        <ele>211.9</ele>
        <time>2025-10-19T07:14:44Z</time>
      </trkpt>
      <trkpt lat="43.23339" lon="5.50115">
        <ele>211.9</ele>
        <time>2025-10-19T07:14:45Z</time>
      </trkpt>
      <trkpt lat="43.23339" lon="5.50115">
        <ele>211.8</ele>
        <time>2025-10-19T07:14:46Z</time>
      </trkpt>
      <trkpt lat="43.23339" lon="5.50115">
        <ele>211.8</ele>
        <time>2025-10-19T07:14:47Z</time>
      </trkpt>
      <trkpt lat="43.23338" lon="5.50115">
        <ele>211.8</ele>
        <time>2025-10-19T07:14:48Z</time>
      </trkpt>
      <trkpt lat="43.23338" lon="5.50116">
        <ele>211.7</ele>
        <time>2025-10-19T07:14:49Z</time>
      </trkpt>
      <trkpt lat="43.23338" lon="5.50115">
        <ele>211.7</ele>
        <time>2025-10-19T07:14:50Z</time>
      </trkpt>
      <trkpt lat="43.23338" lon="5.50115">
        <ele>211.5</ele>
        <time>2025-10-19T07:14:51Z</time>
      </trkpt>
      <trkpt lat="43.23338" lon="5.50115">
        <ele>211.4</ele>
        <time>2025-10-19T07:14:52Z</time>
      </trkpt>
      <trkpt lat="43.23337" lon="5.50115">
        <ele>211.3</ele>
        <time>2025-10-19T07:14:53Z</time>
      </trkpt>
      <trkpt lat="43.23337" lon="5.50114">
        <ele>211.2</ele>
        <time>2025-10-19T07:14:54Z</time>
      </trkpt>
      <trkpt lat="43.23337" lon="5.50114">
        <ele>211.2</ele>
        <time>2025-10-19T07:14:55Z</time>
      </trkpt>
      <trkpt lat="43.23337" lon="5.50113">
        <ele>211.1</ele>
        <time>2025-10-19T07:14:56Z</time>
      </trkpt>
      <trkpt lat="43.23336" lon="5.50113">
        <ele>210.8</ele>
        <time>2025-10-19T07:14:57Z</time>
      </trkpt>
      <trkpt lat="43.23336" lon="5.50113">
        <ele>210.6</ele>
        <time>2025-10-19T07:14:58Z</time>
      </trkpt>
      <trkpt lat="43.23336" lon="5.50112">
        <ele>210.4</ele>
        <time>2025-10-19T07:14:59Z</time>
      </trkpt>
      <trkpt lat="43.23335" lon="5.50112">
        <ele>210.3</ele>
        <time>2025-10-19T07:15:00Z</time>
      </trkpt>
      <trkpt lat="43.23335" lon="5.50112">
        <ele>210.2</ele>
        <time>2025-10-19T07:15:01Z</time>
      </trkpt>
      <trkpt lat="43.23335" lon="5.50113">
        <ele>210.1</ele>
        <time>2025-10-19T07:15:02Z</time>
      </trkpt>
      <trkpt lat="43.23335" lon="5.50113">
        <ele>209.9</ele>
        <time>2025-10-19T07:15:03Z</time>
      </trkpt>
      <trkpt lat="43.23335" lon="5.50113">
        <ele>209.8</ele>
        <time>2025-10-19T07:15:04Z</time>
      </trkpt>
      <trkpt lat="43.23335" lon="5.50113">
        <ele>209.7</ele>
        <time>2025-10-19T07:15:05Z</time>
      </trkpt>
      <trkpt lat="43.23335" lon="5.50113">
        <ele>209.6</ele>
        <time>2025-10-19T07:15:06Z</time>
      </trkpt>
      <trkpt lat="43.23335" lon="5.50113">
        <ele>209.5</ele>
        <time>2025-10-19T07:15:07Z</time>
      </trkpt>
      <trkpt lat="43.23335" lon="5.50113">
        <ele>209.5</ele>
        <time>2025-10-19T07:15:08Z</time>
      </trkpt>
      <trkpt lat="43.23335" lon="5.50113">
        <ele>209.5</ele>
        <time>2025-10-19T07:15:09Z</time>
      </trkpt>
      <trkpt lat="43.23335" lon="5.50113">
        <ele>209.4</ele>
        <time>2025-10-19T07:15:10Z</time>
      </trkpt>
      <trkpt lat="43.23335" lon="5.50113">
        <ele>209.4</ele>
        <time>2025-10-19T07:15:11Z</time>
      </trkpt>
      <trkpt lat="43.23334" lon="5.50113">
        <ele>209.4</ele>
        <time>2025-10-19T07:15:12Z</time>
      </trkpt>
      <trkpt lat="43.23334" lon="5.50113">
        <ele>209.3</ele>
        <time>2025-10-19T07:15:13Z</time>
      </trkpt>
      <trkpt lat="43.23334" lon="5.50113">
        <ele>209.2</ele>
        <time>2025-10-19T07:15:14Z</time>
      </trkpt>
      <trkpt lat="43.23334" lon="5.50113">
        <ele>209.1</ele>
        <time>2025-10-19T07:15:15Z</time>
      </trkpt>
      <trkpt lat="43.23333" lon="5.50114">
        <ele>209</ele>
        <time>2025-10-19T07:15:16Z</time>
      </trkpt>
      <trkpt lat="43.23333" lon="5.50113">
        <ele>208.9</ele>
        <time>2025-10-19T07:15:17Z</time>
      </trkpt>
      <trkpt lat="43.23333" lon="5.50114">
        <ele>208.9</ele>
        <time>2025-10-19T07:15:18Z</time>
      </trkpt>
      <trkpt lat="43.23333" lon="5.50114">
        <ele>208.8</ele>
        <time>2025-10-19T07:15:19Z</time>
      </trkpt>
      <trkpt lat="43.23333" lon="5.50114">
        <ele>208.8</ele>
        <time>2025-10-19T07:15:20Z</time>
      </trkpt>
      <trkpt lat="43.23333" lon="5.50114">
        <ele>208.8</ele>
        <time>2025-10-19T07:15:21Z</time>
      </trkpt>
      <trkpt lat="43.23333" lon="5.50114">
        <ele>208.8</ele>
        <time>2025-10-19T07:15:22Z</time>
      </trkpt>
      <trkpt lat="43.23333" lon="5.50114">
        <ele>208.8</ele>
        <time>2025-10-19T07:15:23Z</time>
      </trkpt>
      <trkpt lat="43.23333" lon="5.50114">
        <ele>208.8</ele>
        <time>2025-10-19T07:15:24Z</time>
      </trkpt>
      <trkpt lat="43.23332" lon="5.50114">
        <ele>208.8</ele>
        <time>2025-10-19T07:15:25Z</time>
      </trkpt>
      <trkpt lat="43.23332" lon="5.50114">
        <ele>208.7</ele>
        <time>2025-10-19T07:15:26Z</time>
      </trkpt>
      <trkpt lat="43.23332" lon="5.50114">
        <ele>208.6</ele>
        <time>2025-10-19T07:15:27Z</time>
      </trkpt>
      <trkpt lat="43.23332" lon="5.50113">
        <ele>208.5</ele>
        <time>2025-10-19T07:15:28Z</time>
      </trkpt>
      <trkpt lat="43.23332" lon="5.50113">
        <ele>208.5</ele>
        <time>2025-10-19T07:15:29Z</time>
      </trkpt>
      <trkpt lat="43.23332" lon="5.50113">
        <ele>208.4</ele>
        <time>2025-10-19T07:15:30Z</time>
      </trkpt>
      <trkpt lat="43.23332" lon="5.50113">
        <ele>208.4</ele>
        <time>2025-10-19T07:15:31Z</time>
      </trkpt>
      <trkpt lat="43.23332" lon="5.50113">
        <ele>208.4</ele>
        <time>2025-10-19T07:15:32Z</time>
      </trkpt>
      <trkpt lat="43.23332" lon="5.50113">
        <ele>208.3</ele>
        <time>2025-10-19T07:15:33Z</time>
      </trkpt>
      <trkpt lat="43.23331" lon="5.50113">
        <ele>208.3</ele>
        <time>2025-10-19T07:15:34Z</time>
      </trkpt>
      <trkpt lat="43.23331" lon="5.50113">
        <ele>208.2</ele>
        <time>2025-10-19T07:15:35Z</time>
      </trkpt>
      <trkpt lat="43.23331" lon="5.50113">
        <ele>208.2</ele>
        <time>2025-10-19T07:15:36Z</time>
      </trkpt>
      <trkpt lat="43.23331" lon="5.50113">
        <ele>208.1</ele>
        <time>2025-10-19T07:15:37Z</time>
      </trkpt>
      <trkpt lat="43.23331" lon="5.50113">
        <ele>208.1</ele>
        <time>2025-10-19T07:15:38Z</time>
      </trkpt>
      <trkpt lat="43.2333" lon="5.50112">
        <ele>208</ele>
        <time>2025-10-19T07:15:39Z</time>
      </trkpt>
      <trkpt lat="43.2333" lon="5.50112">
        <ele>207.9</ele>
        <time>2025-10-19T07:15:40Z</time>
      </trkpt>
      <trkpt lat="43.2333" lon="5.50112">
        <ele>207.8</ele>
        <time>2025-10-19T07:15:41Z</time>
      </trkpt>
      <trkpt lat="43.23329" lon="5.50113">
        <ele>207.5</ele>
        <time>2025-10-19T07:15:42Z</time>
      </trkpt>
      <trkpt lat="43.23329" lon="5.50113">
        <ele>207.4</ele>
        <time>2025-10-19T07:15:43Z</time>
      </trkpt>
      <trkpt lat="43.23329" lon="5.50113">
        <ele>207.3</ele>
        <time>2025-10-19T07:15:44Z</time>
      </trkpt>
      <trkpt lat="43.23329" lon="5.50113">
        <ele>207.3</ele>
        <time>2025-10-19T07:15:45Z</time>
      </trkpt>
      <trkpt lat="43.23329" lon="5.50113">
        <ele>207.1</ele>
        <time>2025-10-19T07:15:46Z</time>
      </trkpt>
      <trkpt lat="43.23329" lon="5.50113">
        <ele>207</ele>
        <time>2025-10-19T07:15:47Z</time>
      </trkpt>
      <trkpt lat="43.23328" lon="5.50113">
        <ele>206.9</ele>
        <time>2025-10-19T07:15:48Z</time>
      </trkpt>
      <trkpt lat="43.23328" lon="5.50112">
        <ele>206.8</ele>
        <time>2025-10-19T07:15:49Z</time>
      </trkpt>
      <trkpt lat="43.23327" lon="5.50111">
        <ele>206.7</ele>
        <time>2025-10-19T07:15:50Z</time>
      </trkpt>
      <trkpt lat="43.23327" lon="5.50111">
        <ele>206.5</ele>
        <time>2025-10-19T07:15:51Z</time>
      </trkpt>
      <trkpt lat="43.23326" lon="5.50112">
        <ele>206.2</ele>
        <time>2025-10-19T07:15:52Z</time>
      </trkpt>
      <trkpt lat="43.23326" lon="5.50112">
        <ele>206.1</ele>
        <time>2025-10-19T07:15:53Z</time>
      </trkpt>
      <trkpt lat="43.23326" lon="5.50111">
        <ele>206.1</ele>
        <time>2025-10-19T07:15:54Z</time>
      </trkpt>
      <trkpt lat="43.23326" lon="5.50111">
        <ele>205.9</ele>
        <time>2025-10-19T07:15:55Z</time>
      </trkpt>
      <trkpt lat="43.23326" lon="5.50111">
        <ele>205.8</ele>
        <time>2025-10-19T07:15:56Z</time>
      </trkpt>
      <trkpt lat="43.23326" lon="5.50111">
        <ele>205.7</ele>
        <time>2025-10-19T07:15:57Z</time>
      </trkpt>
      <trkpt lat="43.23326" lon="5.50112">
        <ele>205.6</ele>
        <time>2025-10-19T07:15:58Z</time>
      </trkpt>
      <trkpt lat="43.23325" lon="5.50112">
        <ele>205.5</ele>
        <time>2025-10-19T07:15:59Z</time>
      </trkpt>
      <trkpt lat="43.23325" lon="5.50112">
        <ele>205.4</ele>
        <time>2025-10-19T07:16:00Z</time>
      </trkpt>
      <trkpt lat="43.23325" lon="5.50112">
        <ele>205.4</ele>
        <time>2025-10-19T07:16:01Z</time>
      </trkpt>
      <trkpt lat="43.23325" lon="5.50113">
        <ele>205.2</ele>
        <time>2025-10-19T07:16:02Z</time>
      </trkpt>
      <trkpt lat="43.23325" lon="5.50113">
        <ele>205.1</ele>
        <time>2025-10-19T07:16:03Z</time>
      </trkpt>
      <trkpt lat="43.23324" lon="5.50113">
        <ele>205</ele>
        <time>2025-10-19T07:16:04Z</time>
      </trkpt>
      <trkpt lat="43.23324" lon="5.50113">
        <ele>204.9</ele>
        <time>2025-10-19T07:16:05Z</time>
      </trkpt>
      <trkpt lat="43.23324" lon="5.50113">
        <ele>204.8</ele>
        <time>2025-10-19T07:16:06Z</time>
      </trkpt>
      <trkpt lat="43.23324" lon="5.50113">
        <ele>204.7</ele>
        <time>2025-10-19T07:16:07Z</time>
      </trkpt>
      <trkpt lat="43.23324" lon="5.50113">
        <ele>204.6</ele>
        <time>2025-10-19T07:16:08Z</time>
      </trkpt>
      <trkpt lat="43.23323" lon="5.50113">
        <ele>204.4</ele>
        <time>2025-10-19T07:16:09Z</time>
      </trkpt>
      <trkpt lat="43.23323" lon="5.50113">
        <ele>204.3</ele>
        <time>2025-10-19T07:16:10Z</time>
      </trkpt>
      <trkpt lat="43.23323" lon="5.50112">
        <ele>204.1</ele>
        <time>2025-10-19T07:16:11Z</time>
      </trkpt>
      <trkpt lat="43.23322" lon="5.50112">
        <ele>203.9</ele>
        <time>2025-10-19T07:16:12Z</time>
      </trkpt>
      <trkpt lat="43.23321" lon="5.50111">
        <ele>203.8</ele>
        <time>2025-10-19T07:16:13Z</time>
      </trkpt>
      <trkpt lat="43.23321" lon="5.50111">
        <ele>203.7</ele>
        <time>2025-10-19T07:16:14Z</time>
      </trkpt>
      <trkpt lat="43.23319" lon="5.50111">
        <ele>203.5</ele>
        <time>2025-10-19T07:16:15Z</time>
      </trkpt>
      <trkpt lat="43.23319" lon="5.50112">
        <ele>203.2</ele>
        <time>2025-10-19T07:16:16Z</time>
      </trkpt>
      <trkpt lat="43.23318" lon="5.50112">
        <ele>203</ele>
        <time>2025-10-19T07:16:17Z</time>
      </trkpt>
      <trkpt lat="43.23317" lon="5.50113">
        <ele>202.8</ele>
        <time>2025-10-19T07:16:18Z</time>
      </trkpt>
      <trkpt lat="43.23317" lon="5.50113">
        <ele>202.6</ele>
        <time>2025-10-19T07:16:19Z</time>
      </trkpt>
      <trkpt lat="43.23317" lon="5.50114">
        <ele>202.4</ele>
        <time>2025-10-19T07:16:20Z</time>
      </trkpt>
      <trkpt lat="43.23316" lon="5.50114">
        <ele>202.1</ele>
        <time>2025-10-19T07:16:21Z</time>
      </trkpt>
      <trkpt lat="43.23316" lon="5.50114">
        <ele>201.9</ele>
        <time>2025-10-19T07:16:22Z</time>
      </trkpt>
      <trkpt lat="43.23315" lon="5.50114">
        <ele>201.8</ele>
        <time>2025-10-19T07:16:23Z</time>
      </trkpt>
      <trkpt lat="43.23315" lon="5.50114">
        <ele>201.6</ele>
        <time>2025-10-19T07:16:24Z</time>
      </trkpt>
      <trkpt lat="43.23315" lon="5.50113">
        <ele>201.5</ele>
        <time>2025-10-19T07:16:25Z</time>
      </trkpt>
      <trkpt lat="43.23314" lon="5.50113">
        <ele>201.4</ele>
        <time>2025-10-19T07:16:26Z</time>
      </trkpt>
      <trkpt lat="43.23314" lon="5.50112">
        <ele>201.4</ele>
        <time>2025-10-19T07:16:27Z</time>
      </trkpt>
      <trkpt lat="43.23313" lon="5.50112">
        <ele>201.2</ele>
        <time>2025-10-19T07:16:28Z</time>
      </trkpt>
      <trkpt lat="43.23312" lon="5.50112">
        <ele>201.1</ele>
        <time>2025-10-19T07:16:29Z</time>
      </trkpt>
      <trkpt lat="43.23311" lon="5.50111">
        <ele>200.9</ele>
        <time>2025-10-19T07:16:30Z</time>
      </trkpt>
      <trkpt lat="43.2331" lon="5.5011">
        <ele>200.7</ele>
        <time>2025-10-19T07:16:31Z</time>
      </trkpt>
      <trkpt lat="43.23309" lon="5.5011">
        <ele>200.5</ele>
        <time>2025-10-19T07:16:32Z</time>
      </trkpt>
      <trkpt lat="43.23309" lon="5.50111">
        <ele>200.2</ele>
        <time>2025-10-19T07:16:33Z</time>
      </trkpt>
      <trkpt lat="43.23308" lon="5.50111">
        <ele>199.9</ele>
        <time>2025-10-19T07:16:34Z</time>
      </trkpt>
      <trkpt lat="43.23307" lon="5.50112">
        <ele>199.6</ele>
        <time>2025-10-19T07:16:35Z</time>
      </trkpt>
      <trkpt lat="43.23307" lon="5.50112">
        <ele>199.4</ele>
        <time>2025-10-19T07:16:36Z</time>
      </trkpt>
      <trkpt lat="43.23306" lon="5.50112">
        <ele>199.2</ele>
        <time>2025-10-19T07:16:37Z</time>
      </trkpt>
      <trkpt lat="43.23306" lon="5.50112">
        <ele>199</ele>
        <time>2025-10-19T07:16:38Z</time>
      </trkpt>
      <trkpt lat="43.23306" lon="5.50112">
        <ele>198.9</ele>
        <time>2025-10-19T07:16:39Z</time>
      </trkpt>
      <trkpt lat="43.23305" lon="5.50111">
        <ele>198.7</ele>
        <time>2025-10-19T07:16:40Z</time>
      </trkpt>
      <trkpt lat="43.23304" lon="5.5011">
        <ele>198.5</ele>
        <time>2025-10-19T07:16:41Z</time>
      </trkpt>
      <trkpt lat="43.23303" lon="5.5011">
        <ele>198.1</ele>
        <time>2025-10-19T07:16:42Z</time>
      </trkpt>
      <trkpt lat="43.23303" lon="5.50111">
        <ele>197.8</ele>
        <time>2025-10-19T07:16:43Z</time>
      </trkpt>
      <trkpt lat="43.23302" lon="5.50112">
        <ele>197.6</ele>
        <time>2025-10-19T07:16:44Z</time>
      </trkpt>
      <trkpt lat="43.23301" lon="5.50113">
        <ele>197.3</ele>
        <time>2025-10-19T07:16:45Z</time>
      </trkpt>
      <trkpt lat="43.23301" lon="5.50114">
        <ele>197.1</ele>
        <time>2025-10-19T07:16:46Z</time>
      </trkpt>
      <trkpt lat="43.233" lon="5.50114">
        <ele>197</ele>
        <time>2025-10-19T07:16:47Z</time>
      </trkpt>
      <trkpt lat="43.23299" lon="5.50115">
        <ele>196.8</ele>
        <time>2025-10-19T07:16:48Z</time>
      </trkpt>
      <trkpt lat="43.23298" lon="5.50115">
        <ele>196.5</ele>
        <time>2025-10-19T07:16:49Z</time>
      </trkpt>
      <trkpt lat="43.23297" lon="5.50115">
        <ele>196.4</ele>
        <time>2025-10-19T07:16:50Z</time>
      </trkpt>
      <trkpt lat="43.23297" lon="5.50116">
        <ele>196.2</ele>
        <time>2025-10-19T07:16:51Z</time>
      </trkpt>
      <trkpt lat="43.23296" lon="5.50116">
        <ele>196</ele>
        <time>2025-10-19T07:16:52Z</time>
      </trkpt>
      <trkpt lat="43.23295" lon="5.50116">
        <ele>195.9</ele>
        <time>2025-10-19T07:16:53Z</time>
      </trkpt>
      <trkpt lat="43.23295" lon="5.50117">
        <ele>195.7</ele>
        <time>2025-10-19T07:16:54Z</time>
      </trkpt>
      <trkpt lat="43.23294" lon="5.50117">
        <ele>195.4</ele>
        <time>2025-10-19T07:16:55Z</time>
      </trkpt>
      <trkpt lat="43.23293" lon="5.50117">
        <ele>195.2</ele>
        <time>2025-10-19T07:16:56Z</time>
      </trkpt>
      <trkpt lat="43.23292" lon="5.50118">
        <ele>195</ele>
        <time>2025-10-19T07:16:57Z</time>
      </trkpt>
      <trkpt lat="43.23291" lon="5.50118">
        <ele>194.9</ele>
        <time>2025-10-19T07:16:58Z</time>
      </trkpt>
      <trkpt lat="43.23291" lon="5.50119">
        <ele>194.7</ele>
        <time>2025-10-19T07:16:59Z</time>
      </trkpt>
      <trkpt lat="43.23291" lon="5.5012">
        <ele>194.5</ele>
        <time>2025-10-19T07:17:00Z</time>
      </trkpt>
      <trkpt lat="43.2329" lon="5.5012">
        <ele>194.3</ele>
        <time>2025-10-19T07:17:01Z</time>
      </trkpt>
      <trkpt lat="43.2329" lon="5.5012">
        <ele>194.1</ele>
        <time>2025-10-19T07:17:02Z</time>
      </trkpt>
      <trkpt lat="43.23289" lon="5.5012">
        <ele>193.9</ele>
        <time>2025-10-19T07:17:03Z</time>
      </trkpt>
      <trkpt lat="43.23289" lon="5.5012">
        <ele>193.7</ele>
        <time>2025-10-19T07:17:04Z</time>
      </trkpt>
      <trkpt lat="43.23289" lon="5.5012">
        <ele>193.3</ele>
        <time>2025-10-19T07:17:05Z</time>
      </trkpt>
      <trkpt lat="43.23289" lon="5.50119">
        <ele>193.1</ele>
        <time>2025-10-19T07:17:06Z</time>
      </trkpt>
      <trkpt lat="43.23289" lon="5.50119">
        <ele>192.9</ele>
        <time>2025-10-19T07:17:07Z</time>
      </trkpt>
      <trkpt lat="43.23288" lon="5.50118">
        <ele>192.7</ele>
        <time>2025-10-19T07:17:08Z</time>
      </trkpt>
      <trkpt lat="43.23288" lon="5.50118">
        <ele>192.5</ele>
        <time>2025-10-19T07:17:09Z</time>
      </trkpt>
      <trkpt lat="43.23288" lon="5.50118">
        <ele>192.3</ele>
        <time>2025-10-19T07:17:10Z</time>
      </trkpt>
      <trkpt lat="43.23287" lon="5.50118">
        <ele>192.1</ele>
        <time>2025-10-19T07:17:11Z</time>
      </trkpt>
      <trkpt lat="43.23287" lon="5.50117">
        <ele>192</ele>
        <time>2025-10-19T07:17:12Z</time>
      </trkpt>
      <trkpt lat="43.23286" lon="5.50117">
        <ele>191.8</ele>
        <time>2025-10-19T07:17:13Z</time>
      </trkpt>
      <trkpt lat="43.23285" lon="5.50118">
        <ele>191.6</ele>
        <time>2025-10-19T07:17:14Z</time>
      </trkpt>
      <trkpt lat="43.23285" lon="5.50118">
        <ele>191.4</ele>
        <time>2025-10-19T07:17:15Z</time>
      </trkpt>
      <trkpt lat="43.23285" lon="5.50118">
        <ele>191.2</ele>
        <time>2025-10-19T07:17:16Z</time>
      </trkpt>
      <trkpt lat="43.23285" lon="5.50118">
        <ele>191</ele>
        <time>2025-10-19T07:17:17Z</time>
      </trkpt>
      <trkpt lat="43.23285" lon="5.50117">
        <ele>190.9</ele>
        <time>2025-10-19T07:17:18Z</time>
      </trkpt>
      <trkpt lat="43.23285" lon="5.50117">
        <ele>190.8</ele>
        <time>2025-10-19T07:17:19Z</time>
      </trkpt>
      <trkpt lat="43.23285" lon="5.50116">
        <ele>190.5</ele>
        <time>2025-10-19T07:17:20Z</time>
      </trkpt>
      <trkpt lat="43.23284" lon="5.50116">
        <ele>190.4</ele>
        <time>2025-10-19T07:17:21Z</time>
      </trkpt>
      <trkpt lat="43.23284" lon="5.50116">
        <ele>190.2</ele>
        <time>2025-10-19T07:17:22Z</time>
      </trkpt>
      <trkpt lat="43.23283" lon="5.50117">
        <ele>190.1</ele>
        <time>2025-10-19T07:17:23Z</time>
      </trkpt>
      <trkpt lat="43.23283" lon="5.50117">
        <ele>189.7</ele>
        <time>2025-10-19T07:17:24Z</time>
      </trkpt>
      <trkpt lat="43.23283" lon="5.50117">
        <ele>189.5</ele>
        <time>2025-10-19T07:17:25Z</time>
      </trkpt>
      <trkpt lat="43.23283" lon="5.50117">
        <ele>189.3</ele>
        <time>2025-10-19T07:17:26Z</time>
      </trkpt>
      <trkpt lat="43.23283" lon="5.50117">
        <ele>189.2</ele>
        <time>2025-10-19T07:17:27Z</time>
      </trkpt>
      <trkpt lat="43.23282" lon="5.50117">
        <ele>189.2</ele>
        <time>2025-10-19T07:17:28Z</time>
      </trkpt>
      <trkpt lat="43.23282" lon="5.50117">
        <ele>189</ele>
        <time>2025-10-19T07:17:29Z</time>
      </trkpt>
      <trkpt lat="43.23282" lon="5.50117">
        <ele>188.9</ele>
        <time>2025-10-19T07:17:30Z</time>
      </trkpt>
      <trkpt lat="43.23282" lon="5.50116">
        <ele>188.9</ele>
        <time>2025-10-19T07:17:31Z</time>
      </trkpt>
      <trkpt lat="43.23282" lon="5.50116">
        <ele>188.9</ele>
        <time>2025-10-19T07:17:32Z</time>
      </trkpt>
      <trkpt lat="43.23282" lon="5.50117">
        <ele>188.7</ele>
        <time>2025-10-19T07:17:33Z</time>
      </trkpt>
      <trkpt lat="43.23282" lon="5.50117">
        <ele>188.7</ele>
        <time>2025-10-19T07:17:34Z</time>
      </trkpt>
      <trkpt lat="43.23281" lon="5.50117">
        <ele>188.6</ele>
        <time>2025-10-19T07:17:35Z</time>
      </trkpt>
      <trkpt lat="43.23281" lon="5.50117">
        <ele>188.5</ele>
        <time>2025-10-19T07:17:36Z</time>
      </trkpt>
      <trkpt lat="43.23281" lon="5.50117">
        <ele>188.3</ele>
        <time>2025-10-19T07:17:37Z</time>
      </trkpt>
      <trkpt lat="43.23281" lon="5.50116">
        <ele>188.2</ele>
        <time>2025-10-19T07:17:38Z</time>
      </trkpt>
      <trkpt lat="43.23281" lon="5.50116">
        <ele>188.1</ele>
        <time>2025-10-19T07:17:39Z</time>
      </trkpt>
      <trkpt lat="43.2328" lon="5.50116">
        <ele>188</ele>
        <time>2025-10-19T07:17:40Z</time>
      </trkpt>
      <trkpt lat="43.2328" lon="5.50116">
        <ele>187.9</ele>
        <time>2025-10-19T07:17:41Z</time>
      </trkpt>
      <trkpt lat="43.2328" lon="5.50116">
        <ele>187.8</ele>
        <time>2025-10-19T07:17:42Z</time>
      </trkpt>
      <trkpt lat="43.2328" lon="5.50116">
        <ele>187.6</ele>
        <time>2025-10-19T07:17:43Z</time>
      </trkpt>
      <trkpt lat="43.23279" lon="5.50117">
        <ele>187.4</ele>
        <time>2025-10-19T07:17:44Z</time>
      </trkpt>
      <trkpt lat="43.23278" lon="5.50117">
        <ele>187.2</ele>
        <time>2025-10-19T07:17:45Z</time>
      </trkpt>
      <trkpt lat="43.23278" lon="5.50117">
        <ele>187</ele>
        <time>2025-10-19T07:17:46Z</time>
      </trkpt>
      <trkpt lat="43.23277" lon="5.50117">
        <ele>186.7</ele>
        <time>2025-10-19T07:17:47Z</time>
      </trkpt>
      <trkpt lat="43.23277" lon="5.50118">
        <ele>186.6</ele>
        <time>2025-10-19T07:17:48Z</time>
      </trkpt>
      <trkpt lat="43.23277" lon="5.50118">
        <ele>186.4</ele>
        <time>2025-10-19T07:17:49Z</time>
      </trkpt>
      <trkpt lat="43.23276" lon="5.50118">
        <ele>186.2</ele>
        <time>2025-10-19T07:17:50Z</time>
      </trkpt>
      <trkpt lat="43.23275" lon="5.50118">
        <ele>186</ele>
        <time>2025-10-19T07:17:51Z</time>
      </trkpt>
      <trkpt lat="43.23275" lon="5.50118">
        <ele>185.9</ele>
        <time>2025-10-19T07:17:52Z</time>
      </trkpt>
      <trkpt lat="43.23275" lon="5.50118">
        <ele>185.8</ele>
        <time>2025-10-19T07:17:53Z</time>
      </trkpt>
      <trkpt lat="43.23275" lon="5.50118">
        <ele>185.7</ele>
        <time>2025-10-19T07:17:54Z</time>
      </trkpt>
      <trkpt lat="43.23275" lon="5.50118">
        <ele>185.6</ele>
        <time>2025-10-19T07:17:55Z</time>
      </trkpt>
      <trkpt lat="43.23275" lon="5.50118">
        <ele>185.5</ele>
        <time>2025-10-19T07:17:56Z</time>
      </trkpt>
      <trkpt lat="43.23275" lon="5.50118">
        <ele>185.5</ele>
        <time>2025-10-19T07:17:57Z</time>
      </trkpt>
      <trkpt lat="43.23275" lon="5.50119">
        <ele>185.5</ele>
        <time>2025-10-19T07:17:58Z</time>
      </trkpt>
      <trkpt lat="43.23275" lon="5.50118">
        <ele>185.4</ele>
        <time>2025-10-19T07:17:59Z</time>
      </trkpt>
      <trkpt lat="43.23274" lon="5.50118">
        <ele>185.4</ele>
        <time>2025-10-19T07:18:00Z</time>
      </trkpt>
      <trkpt lat="43.23274" lon="5.50117">
        <ele>185.3</ele>
        <time>2025-10-19T07:18:01Z</time>
      </trkpt>
      <trkpt lat="43.23273" lon="5.50117">
        <ele>185.1</ele>
        <time>2025-10-19T07:18:02Z</time>
      </trkpt>
      <trkpt lat="43.23273" lon="5.50117">
        <ele>185</ele>
        <time>2025-10-19T07:18:03Z</time>
      </trkpt>
      <trkpt lat="43.23272" lon="5.50117">
        <ele>184.8</ele>
        <time>2025-10-19T07:18:04Z</time>
      </trkpt>
      <trkpt lat="43.23272" lon="5.50117">
        <ele>184.6</ele>
        <time>2025-10-19T07:18:05Z</time>
      </trkpt>
      <trkpt lat="43.23272" lon="5.50117">
        <ele>184.3</ele>
        <time>2025-10-19T07:18:06Z</time>
      </trkpt>
      <trkpt lat="43.23271" lon="5.50118">
        <ele>184.2</ele>
        <time>2025-10-19T07:18:07Z</time>
      </trkpt>
      <trkpt lat="43.23271" lon="5.50118">
        <ele>184</ele>
        <time>2025-10-19T07:18:08Z</time>
      </trkpt>
      <trkpt lat="43.23271" lon="5.50118">
        <ele>183.9</ele>
        <time>2025-10-19T07:18:09Z</time>
      </trkpt>
      <trkpt lat="43.23271" lon="5.50118">
        <ele>183.7</ele>
        <time>2025-10-19T07:18:10Z</time>
      </trkpt>
      <trkpt lat="43.23271" lon="5.50117">
        <ele>183.5</ele>
        <time>2025-10-19T07:18:11Z</time>
      </trkpt>
      <trkpt lat="43.23271" lon="5.50117">
        <ele>183.4</ele>
        <time>2025-10-19T07:18:12Z</time>
      </trkpt>
      <trkpt lat="43.2327" lon="5.50117">
        <ele>183.2</ele>
        <time>2025-10-19T07:18:13Z</time>
      </trkpt>
      <trkpt lat="43.2327" lon="5.50117">
        <ele>182.9</ele>
        <time>2025-10-19T07:18:14Z</time>
      </trkpt>
      <trkpt lat="43.2327" lon="5.50117">
        <ele>182.7</ele>
        <time>2025-10-19T07:18:15Z</time>
      </trkpt>
      <trkpt lat="43.2327" lon="5.50117">
        <ele>182.5</ele>
        <time>2025-10-19T07:18:16Z</time>
      </trkpt>
      <trkpt lat="43.23269" lon="5.50116">
        <ele>182.4</ele>
        <time>2025-10-19T07:18:17Z</time>
      </trkpt>
      <trkpt lat="43.23268" lon="5.50115">
        <ele>182.3</ele>
        <time>2025-10-19T07:18:18Z</time>
      </trkpt>
      <trkpt lat="43.23268" lon="5.50115">
        <ele>182</ele>
        <time>2025-10-19T07:18:19Z</time>
      </trkpt>
      <trkpt lat="43.23267" lon="5.50115">
        <ele>181.8</ele>
        <time>2025-10-19T07:18:20Z</time>
      </trkpt>
      <trkpt lat="43.23267" lon="5.50116">
        <ele>181.6</ele>
        <time>2025-10-19T07:18:21Z</time>
      </trkpt>
      <trkpt lat="43.23266" lon="5.50116">
        <ele>181.5</ele>
        <time>2025-10-19T07:18:22Z</time>
      </trkpt>
      <trkpt lat="43.23266" lon="5.50116">
        <ele>181.4</ele>
        <time>2025-10-19T07:18:23Z</time>
      </trkpt>
      <trkpt lat="43.23266" lon="5.50116">
        <ele>181.3</ele>
        <time>2025-10-19T07:18:24Z</time>
      </trkpt>
      <trkpt lat="43.23265" lon="5.50116">
        <ele>181.2</ele>
        <time>2025-10-19T07:18:25Z</time>
      </trkpt>
      <trkpt lat="43.23265" lon="5.50116">
        <ele>181.1</ele>
        <time>2025-10-19T07:18:26Z</time>
      </trkpt>
      <trkpt lat="43.23265" lon="5.50115">
        <ele>181</ele>
        <time>2025-10-19T07:18:27Z</time>
      </trkpt>
      <trkpt lat="43.23265" lon="5.50114">
        <ele>180.9</ele>
        <time>2025-10-19T07:18:28Z</time>
      </trkpt>
      <trkpt lat="43.23264" lon="5.50113">
        <ele>180.7</ele>
        <time>2025-10-19T07:18:29Z</time>
      </trkpt>
      <trkpt lat="43.23263" lon="5.50113">
        <ele>180.5</ele>
        <time>2025-10-19T07:18:30Z</time>
      </trkpt>
      <trkpt lat="43.23262" lon="5.50113">
        <ele>180.3</ele>
        <time>2025-10-19T07:18:31Z</time>
      </trkpt>
      <trkpt lat="43.23262" lon="5.50113">
        <ele>180.2</ele>
        <time>2025-10-19T07:18:32Z</time>
      </trkpt>
      <trkpt lat="43.23261" lon="5.50114">
        <ele>180</ele>
        <time>2025-10-19T07:18:33Z</time>
      </trkpt>
      <trkpt lat="43.23261" lon="5.50114">
        <ele>179.9</ele>
        <time>2025-10-19T07:18:34Z</time>
      </trkpt>
      <trkpt lat="43.2326" lon="5.50115">
        <ele>179.8</ele>
        <time>2025-10-19T07:18:35Z</time>
      </trkpt>
      <trkpt lat="43.2326" lon="5.50115">
        <ele>179.6</ele>
        <time>2025-10-19T07:18:36Z</time>
      </trkpt>
      <trkpt lat="43.2326" lon="5.50115">
        <ele>179.5</ele>
        <time>2025-10-19T07:18:37Z</time>
      </trkpt>
      <trkpt lat="43.23259" lon="5.50115">
        <ele>179.3</ele>
        <time>2025-10-19T07:18:38Z</time>
      </trkpt>
      <trkpt lat="43.23259" lon="5.50116">
        <ele>179.1</ele>
        <time>2025-10-19T07:18:39Z</time>
      </trkpt>
      <trkpt lat="43.23259" lon="5.50116">
        <ele>179</ele>
        <time>2025-10-19T07:18:40Z</time>
      </trkpt>
      <trkpt lat="43.23259" lon="5.50115">
        <ele>178.9</ele>
        <time>2025-10-19T07:18:41Z</time>
      </trkpt>
      <trkpt lat="43.23259" lon="5.50115">
        <ele>178.7</ele>
        <time>2025-10-19T07:18:42Z</time>
      </trkpt>
      <trkpt lat="43.23259" lon="5.50115">
        <ele>178.6</ele>
        <time>2025-10-19T07:18:43Z</time>
      </trkpt>
      <trkpt lat="43.23258" lon="5.50114">
        <ele>178.4</ele>
        <time>2025-10-19T07:18:44Z</time>
      </trkpt>
      <trkpt lat="43.23258" lon="5.50114">
        <ele>178.3</ele>
        <time>2025-10-19T07:18:45Z</time>
      </trkpt>
      <trkpt lat="43.23258" lon="5.50114">
        <ele>178.2</ele>
        <time>2025-10-19T07:18:46Z</time>
      </trkpt>
      <trkpt lat="43.23258" lon="5.50114">
        <ele>178.1</ele>
        <time>2025-10-19T07:18:47Z</time>
      </trkpt>
      <trkpt lat="43.23258" lon="5.50114">
        <ele>177.9</ele>
        <time>2025-10-19T07:18:48Z</time>
      </trkpt>
      <trkpt lat="43.23258" lon="5.50114">
        <ele>177.8</ele>
        <time>2025-10-19T07:18:49Z</time>
      </trkpt>
      <trkpt lat="43.23258" lon="5.50114">
        <ele>177.6</ele>
        <time>2025-10-19T07:18:50Z</time>
      </trkpt>
      <trkpt lat="43.23258" lon="5.50114">
        <ele>177.5</ele>
        <time>2025-10-19T07:18:51Z</time>
      </trkpt>
      <trkpt lat="43.23258" lon="5.50114">
        <ele>177.4</ele>
        <time>2025-10-19T07:18:52Z</time>
      </trkpt>
      <trkpt lat="43.23257" lon="5.50114">
        <ele>177.3</ele>
        <time>2025-10-19T07:18:53Z</time>
      </trkpt>
      <trkpt lat="43.23257" lon="5.50114">
        <ele>177.3</ele>
        <time>2025-10-19T07:18:54Z</time>
      </trkpt>
      <trkpt lat="43.23257" lon="5.50115">
        <ele>177.1</ele>
        <time>2025-10-19T07:18:55Z</time>
      </trkpt>
      <trkpt lat="43.23257" lon="5.50115">
        <ele>177</ele>
        <time>2025-10-19T07:18:56Z</time>
      </trkpt>
      <trkpt lat="43.23257" lon="5.50115">
        <ele>176.8</ele>
        <time>2025-10-19T07:18:57Z</time>
      </trkpt>
      <trkpt lat="43.23256" lon="5.50114">
        <ele>176.6</ele>
        <time>2025-10-19T07:18:58Z</time>
      </trkpt>
      <trkpt lat="43.23255" lon="5.50114">
        <ele>176.5</ele>
        <time>2025-10-19T07:18:59Z</time>
      </trkpt>
      <trkpt lat="43.23254" lon="5.50114">
        <ele>176.3</ele>
        <time>2025-10-19T07:19:00Z</time>
      </trkpt>
      <trkpt lat="43.23253" lon="5.50114">
        <ele>176.1</ele>
        <time>2025-10-19T07:19:01Z</time>
      </trkpt>
      <trkpt lat="43.23253" lon="5.50115">
        <ele>175.9</ele>
        <time>2025-10-19T07:19:02Z</time>
      </trkpt>
      <trkpt lat="43.23252" lon="5.50115">
        <ele>175.7</ele>
        <time>2025-10-19T07:19:03Z</time>
      </trkpt>
      <trkpt lat="43.23252" lon="5.50115">
        <ele>175.6</ele>
        <time>2025-10-19T07:19:04Z</time>
      </trkpt>
      <trkpt lat="43.23251" lon="5.50115">
        <ele>175.5</ele>
        <time>2025-10-19T07:19:05Z</time>
      </trkpt>
      <trkpt lat="43.2325" lon="5.50115">
        <ele>175.4</ele>
        <time>2025-10-19T07:19:06Z</time>
      </trkpt>
      <trkpt lat="43.23249" lon="5.50115">
        <ele>175.2</ele>
        <time>2025-10-19T07:19:07Z</time>
      </trkpt>
      <trkpt lat="43.23248" lon="5.50115">
        <ele>175.1</ele>
        <time>2025-10-19T07:19:08Z</time>
      </trkpt>
      <trkpt lat="43.23248" lon="5.50115">
        <ele>175</ele>
        <time>2025-10-19T07:19:09Z</time>
      </trkpt>
      <trkpt lat="43.23247" lon="5.50115">
        <ele>174.9</ele>
        <time>2025-10-19T07:19:10Z</time>
      </trkpt>
      <trkpt lat="43.23246" lon="5.50114">
        <ele>174.8</ele>
        <time>2025-10-19T07:19:11Z</time>
      </trkpt>
      <trkpt lat="43.23245" lon="5.50113">
        <ele>174.6</ele>
        <time>2025-10-19T07:19:12Z</time>
      </trkpt>
      <trkpt lat="43.23244" lon="5.50113">
        <ele>174.5</ele>
        <time>2025-10-19T07:19:13Z</time>
      </trkpt>
      <trkpt lat="43.23242" lon="5.50112">
        <ele>174.4</ele>
        <time>2025-10-19T07:19:14Z</time>
      </trkpt>
      <trkpt lat="43.23241" lon="5.50113">
        <ele>174.3</ele>
        <time>2025-10-19T07:19:15Z</time>
      </trkpt>
      <trkpt lat="43.2324" lon="5.50113">
        <ele>174.2</ele>
        <time>2025-10-19T07:19:16Z</time>
      </trkpt>
      <trkpt lat="43.23239" lon="5.50113">
        <ele>174.1</ele>
        <time>2025-10-19T07:19:17Z</time>
      </trkpt>
      <trkpt lat="43.23238" lon="5.50114">
        <ele>174</ele>
        <time>2025-10-19T07:19:18Z</time>
      </trkpt>
      <trkpt lat="43.23237" lon="5.50114">
        <ele>173.9</ele>
        <time>2025-10-19T07:19:19Z</time>
      </trkpt>
      <trkpt lat="43.23236" lon="5.50115">
        <ele>173.8</ele>
        <time>2025-10-19T07:19:20Z</time>
      </trkpt>
      <trkpt lat="43.23235" lon="5.50115">
        <ele>173.6</ele>
        <time>2025-10-19T07:19:21Z</time>
      </trkpt>
      <trkpt lat="43.23233" lon="5.50116">
        <ele>173.5</ele>
        <time>2025-10-19T07:19:22Z</time>
      </trkpt>
      <trkpt lat="43.23233" lon="5.50116">
        <ele>173.4</ele>
        <time>2025-10-19T07:19:23Z</time>
      </trkpt>
      <trkpt lat="43.23232" lon="5.50117">
        <ele>173.4</ele>
        <time>2025-10-19T07:19:24Z</time>
      </trkpt>
      <trkpt lat="43.23232" lon="5.50118">
        <ele>173.4</ele>
        <time>2025-10-19T07:19:25Z</time>
      </trkpt>
      <trkpt lat="43.23232" lon="5.50119">
        <ele>173.4</ele>
        <time>2025-10-19T07:19:26Z</time>
      </trkpt>
      <trkpt lat="43.23232" lon="5.5012">
        <ele>173.4</ele>
        <time>2025-10-19T07:19:27Z</time>
      </trkpt>
      <trkpt lat="43.23231" lon="5.50119">
        <ele>173.3</ele>
        <time>2025-10-19T07:19:28Z</time>
      </trkpt>
      <trkpt lat="43.2323" lon="5.5012">
        <ele>173.4</ele>
        <time>2025-10-19T07:19:29Z</time>
      </trkpt>
      <trkpt lat="43.2323" lon="5.5012">
        <ele>173.4</ele>
        <time>2025-10-19T07:19:30Z</time>
      </trkpt>
      <trkpt lat="43.23229" lon="5.5012">
        <ele>173.4</ele>
        <time>2025-10-19T07:19:31Z</time>
      </trkpt>
      <trkpt lat="43.23227" lon="5.5012">
        <ele>173.5</ele>
        <time>2025-10-19T07:19:32Z</time>
      </trkpt>
      <trkpt lat="43.23226" lon="5.5012">
        <ele>173.5</ele>
        <time>2025-10-19T07:19:33Z</time>
      </trkpt>
      <trkpt lat="43.23225" lon="5.50121">
        <ele>173.5</ele>
        <time>2025-10-19T07:19:34Z</time>
      </trkpt>
      <trkpt lat="43.23224" lon="5.50121">
        <ele>173.5</ele>
        <time>2025-10-19T07:19:35Z</time>
      </trkpt>
      <trkpt lat="43.23222" lon="5.50122">
        <ele>173.4</ele>
        <time>2025-10-19T07:19:36Z</time>
      </trkpt>
      <trkpt lat="43.23221" lon="5.50122">
        <ele>173.3</ele>
        <time>2025-10-19T07:19:37Z</time>
      </trkpt>
      <trkpt lat="43.2322" lon="5.50122">
        <ele>173.1</ele>
        <time>2025-10-19T07:19:38Z</time>
      </trkpt>
      <trkpt lat="43.23219" lon="5.50122">
        <ele>173</ele>
        <time>2025-10-19T07:19:39Z</time>
      </trkpt>
      <trkpt lat="43.23218" lon="5.50122">
        <ele>173</ele>
        <time>2025-10-19T07:19:40Z</time>
      </trkpt>
      <trkpt lat="43.23217" lon="5.50122">
        <ele>173</ele>
        <time>2025-10-19T07:19:41Z</time>
      </trkpt>
      <trkpt lat="43.23216" lon="5.50122">
        <ele>173</ele>
        <time>2025-10-19T07:19:42Z</time>
      </trkpt>
      <trkpt lat="43.23214" lon="5.50122">
        <ele>173</ele>
        <time>2025-10-19T07:19:43Z</time>
      </trkpt>
      <trkpt lat="43.23213" lon="5.50122">
        <ele>172.9</ele>
        <time>2025-10-19T07:19:44Z</time>
      </trkpt>
      <trkpt lat="43.23212" lon="5.50122">
        <ele>172.9</ele>
        <time>2025-10-19T07:19:45Z</time>
      </trkpt>
      <trkpt lat="43.23211" lon="5.50122">
        <ele>172.9</ele>
        <time>2025-10-19T07:19:46Z</time>
      </trkpt>
      <trkpt lat="43.2321" lon="5.50122">
        <ele>172.8</ele>
        <time>2025-10-19T07:19:47Z</time>
      </trkpt>
      <trkpt lat="43.23209" lon="5.50122">
        <ele>172.8</ele>
        <time>2025-10-19T07:19:48Z</time>
      </trkpt>
      <trkpt lat="43.23208" lon="5.50122">
        <ele>172.9</ele>
        <time>2025-10-19T07:19:49Z</time>
      </trkpt>
      <trkpt lat="43.23207" lon="5.50122">
        <ele>172.9</ele>
        <time>2025-10-19T07:19:50Z</time>
      </trkpt>
      <trkpt lat="43.23206" lon="5.50121">
        <ele>172.8</ele>
        <time>2025-10-19T07:19:51Z</time>
      </trkpt>
      <trkpt lat="43.23205" lon="5.50121">
        <ele>172.8</ele>
        <time>2025-10-19T07:19:52Z</time>
      </trkpt>
      <trkpt lat="43.23204" lon="5.50121">
        <ele>172.8</ele>
        <time>2025-10-19T07:19:53Z</time>
      </trkpt>
      <trkpt lat="43.23203" lon="5.50121">
        <ele>172.8</ele>
        <time>2025-10-19T07:19:54Z</time>
      </trkpt>
      <trkpt lat="43.23202" lon="5.5012">
        <ele>172.8</ele>
        <time>2025-10-19T07:19:55Z</time>
      </trkpt>
      <trkpt lat="43.232" lon="5.5012">
        <ele>172.7</ele>
        <time>2025-10-19T07:19:56Z</time>
      </trkpt>
      <trkpt lat="43.23199" lon="5.50119">
        <ele>172.8</ele>
        <time>2025-10-19T07:19:57Z</time>
      </trkpt>
      <trkpt lat="43.23199" lon="5.50119">
        <ele>172.8</ele>
        <time>2025-10-19T07:19:58Z</time>
      </trkpt>
      <trkpt lat="43.23198" lon="5.50119">
        <ele>172.8</ele>
        <time>2025-10-19T07:19:59Z</time>
      </trkpt>
      <trkpt lat="43.23197" lon="5.50119">
        <ele>172.8</ele>
        <time>2025-10-19T07:20:00Z</time>
      </trkpt>
      <trkpt lat="43.23195" lon="5.50119">
        <ele>172.7</ele>
        <time>2025-10-19T07:20:01Z</time>
      </trkpt>
      <trkpt lat="43.23194" lon="5.50119">
        <ele>172.7</ele>
        <time>2025-10-19T07:20:02Z</time>
      </trkpt>
      <trkpt lat="43.23193" lon="5.50119">
        <ele>172.8</ele>
        <time>2025-10-19T07:20:03Z</time>
      </trkpt>
      <trkpt lat="43.23192" lon="5.50118">
        <ele>172.7</ele>
        <time>2025-10-19T07:20:04Z</time>
      </trkpt>
      <trkpt lat="43.23191" lon="5.50118">
        <ele>172.7</ele>
        <time>2025-10-19T07:20:05Z</time>
      </trkpt>
      <trkpt lat="43.2319" lon="5.50118">
        <ele>172.6</ele>
        <time>2025-10-19T07:20:06Z</time>
      </trkpt>
      <trkpt lat="43.23189" lon="5.50118">
        <ele>172.6</ele>
        <time>2025-10-19T07:20:07Z</time>
      </trkpt>
      <trkpt lat="43.23188" lon="5.50119">
        <ele>172.6</ele>
        <time>2025-10-19T07:20:08Z</time>
      </trkpt>
      <trkpt lat="43.23186" lon="5.5012">
        <ele>172.5</ele>
        <time>2025-10-19T07:20:09Z</time>
      </trkpt>
      <trkpt lat="43.23185" lon="5.5012">
        <ele>172.5</ele>
        <time>2025-10-19T07:20:10Z</time>
      </trkpt>
      <trkpt lat="43.23184" lon="5.50121">
        <ele>172.4</ele>
        <time>2025-10-19T07:20:11Z</time>
      </trkpt>
      <trkpt lat="43.23183" lon="5.50122">
        <ele>172.3</ele>
        <time>2025-10-19T07:20:12Z</time>
      </trkpt>
      <trkpt lat="43.23182" lon="5.50122">
        <ele>172.3</ele>
        <time>2025-10-19T07:20:13Z</time>
      </trkpt>
      <trkpt lat="43.2318" lon="5.50122">
        <ele>172.3</ele>
        <time>2025-10-19T07:20:14Z</time>
      </trkpt>
      <trkpt lat="43.23179" lon="5.50122">
        <ele>172.3</ele>
        <time>2025-10-19T07:20:15Z</time>
      </trkpt>
      <trkpt lat="43.23178" lon="5.50123">
        <ele>172.2</ele>
        <time>2025-10-19T07:20:16Z</time>
      </trkpt>
      <trkpt lat="43.23176" lon="5.50123">
        <ele>172.2</ele>
        <time>2025-10-19T07:20:17Z</time>
      </trkpt>
      <trkpt lat="43.23175" lon="5.50124">
        <ele>172.2</ele>
        <time>2025-10-19T07:20:18Z</time>
      </trkpt>
      <trkpt lat="43.23174" lon="5.50124">
        <ele>172.2</ele>
        <time>2025-10-19T07:20:19Z</time>
      </trkpt>
      <trkpt lat="43.23172" lon="5.50124">
        <ele>172.2</ele>
        <time>2025-10-19T07:20:20Z</time>
      </trkpt>
      <trkpt lat="43.23171" lon="5.50125">
        <ele>172.2</ele>
        <time>2025-10-19T07:20:21Z</time>
      </trkpt>
      <trkpt lat="43.23169" lon="5.50125">
        <ele>172.1</ele>
        <time>2025-10-19T07:20:22Z</time>
      </trkpt>
      <trkpt lat="43.23168" lon="5.50126">
        <ele>172.1</ele>
        <time>2025-10-19T07:20:23Z</time>
      </trkpt>
      <trkpt lat="43.23167" lon="5.50127">
        <ele>172.1</ele>
        <time>2025-10-19T07:20:24Z</time>
      </trkpt>
      <trkpt lat="43.23166" lon="5.50127">
        <ele>172.1</ele>
        <time>2025-10-19T07:20:25Z</time>
      </trkpt>
      <trkpt lat="43.23165" lon="5.50128">
        <ele>172</ele>
        <time>2025-10-19T07:20:26Z</time>
      </trkpt>
      <trkpt lat="43.23164" lon="5.50128">
        <ele>171.9</ele>
        <time>2025-10-19T07:20:27Z</time>
      </trkpt>
      <trkpt lat="43.23162" lon="5.50128">
        <ele>171.8</ele>
        <time>2025-10-19T07:20:28Z</time>
      </trkpt>
      <trkpt lat="43.23161" lon="5.50128">
        <ele>171.9</ele>
        <time>2025-10-19T07:20:29Z</time>
      </trkpt>
      <trkpt lat="43.2316" lon="5.50129">
        <ele>171.9</ele>
        <time>2025-10-19T07:20:30Z</time>
      </trkpt>
      <trkpt lat="43.23158" lon="5.50129">
        <ele>171.9</ele>
        <time>2025-10-19T07:20:31Z</time>
      </trkpt>
      <trkpt lat="43.23158" lon="5.5013">
        <ele>171.7</ele>
        <time>2025-10-19T07:20:32Z</time>
      </trkpt>
      <trkpt lat="43.23157" lon="5.5013">
        <ele>171.7</ele>
        <time>2025-10-19T07:20:33Z</time>
      </trkpt>
      <trkpt lat="43.23156" lon="5.5013">
        <ele>171.6</ele>
        <time>2025-10-19T07:20:34Z</time>
      </trkpt>
      <trkpt lat="43.23154" lon="5.5013">
        <ele>171.6</ele>
        <time>2025-10-19T07:20:35Z</time>
      </trkpt>
      <trkpt lat="43.23153" lon="5.5013">
        <ele>171.5</ele>
        <time>2025-10-19T07:20:36Z</time>
      </trkpt>
      <trkpt lat="43.23152" lon="5.5013">
        <ele>171.5</ele>
        <time>2025-10-19T07:20:37Z</time>
      </trkpt>
      <trkpt lat="43.23151" lon="5.50129">
        <ele>171.4</ele>
        <time>2025-10-19T07:20:38Z</time>
      </trkpt>
      <trkpt lat="43.2315" lon="5.50129">
        <ele>171.3</ele>
        <time>2025-10-19T07:20:39Z</time>
      </trkpt>
      <trkpt lat="43.23149" lon="5.50129">
        <ele>171.3</ele>
        <time>2025-10-19T07:20:40Z</time>
      </trkpt>
      <trkpt lat="43.23148" lon="5.50129">
        <ele>171.4</ele>
        <time>2025-10-19T07:20:41Z</time>
      </trkpt>
      <trkpt lat="43.23147" lon="5.50129">
        <ele>171.4</ele>
        <time>2025-10-19T07:20:42Z</time>
      </trkpt>
      <trkpt lat="43.23146" lon="5.50128">
        <ele>171.4</ele>
        <time>2025-10-19T07:20:43Z</time>
      </trkpt>
      <trkpt lat="43.23146" lon="5.50127">
        <ele>171.3</ele>
        <time>2025-10-19T07:20:44Z</time>
      </trkpt>
      <trkpt lat="43.23145" lon="5.50127">
        <ele>171.4</ele>
        <time>2025-10-19T07:20:45Z</time>
      </trkpt>
      <trkpt lat="43.23145" lon="5.50126">
        <ele>171.4</ele>
        <time>2025-10-19T07:20:46Z</time>
      </trkpt>
      <trkpt lat="43.23144" lon="5.50125">
        <ele>171.3</ele>
        <time>2025-10-19T07:20:47Z</time>
      </trkpt>
      <trkpt lat="43.23143" lon="5.50124">
        <ele>171.3</ele>
        <time>2025-10-19T07:20:48Z</time>
      </trkpt>
      <trkpt lat="43.23144" lon="5.50124">
        <ele>171.3</ele>
        <time>2025-10-19T07:20:49Z</time>
      </trkpt>
      <trkpt lat="43.23144" lon="5.50124">
        <ele>171.4</ele>
        <time>2025-10-19T07:20:50Z</time>
      </trkpt>
      <trkpt lat="43.23144" lon="5.50125">
        <ele>171.4</ele>
        <time>2025-10-19T07:20:51Z</time>
      </trkpt>
      <trkpt lat="43.23143" lon="5.50125">
        <ele>171.4</ele>
        <time>2025-10-19T07:20:52Z</time>
      </trkpt>
      <trkpt lat="43.23143" lon="5.50125">
        <ele>171.4</ele>
        <time>2025-10-19T07:20:53Z</time>
      </trkpt>
      <trkpt lat="43.23142" lon="5.50125">
        <ele>171.3</ele>
        <time>2025-10-19T07:20:54Z</time>
      </trkpt>
      <trkpt lat="43.23141" lon="5.50126">
        <ele>171.3</ele>
        <time>2025-10-19T07:20:55Z</time>
      </trkpt>
      <trkpt lat="43.23141" lon="5.50126">
        <ele>171.3</ele>
        <time>2025-10-19T07:20:56Z</time>
      </trkpt>
      <trkpt lat="43.23141" lon="5.50126">
        <ele>171.3</ele>
        <time>2025-10-19T07:20:57Z</time>
      </trkpt>
      <trkpt lat="43.2314" lon="5.50126">
        <ele>171.3</ele>
        <time>2025-10-19T07:20:58Z</time>
      </trkpt>
      <trkpt lat="43.2314" lon="5.50126">
        <ele>171.4</ele>
        <time>2025-10-19T07:20:59Z</time>
      </trkpt>
      <trkpt lat="43.2314" lon="5.50127">
        <ele>171.3</ele>
        <time>2025-10-19T07:21:00Z</time>
      </trkpt>
      <trkpt lat="43.2314" lon="5.50127">
        <ele>171.4</ele>
        <time>2025-10-19T07:21:01Z</time>
      </trkpt>
      <trkpt lat="43.2314" lon="5.50127">
        <ele>171.4</ele>
        <time>2025-10-19T07:21:02Z</time>
      </trkpt>
      <trkpt lat="43.23139" lon="5.50127">
        <ele>171.4</ele>
        <time>2025-10-19T07:21:03Z</time>
      </trkpt>
      <trkpt lat="43.23138" lon="5.50127">
        <ele>171.4</ele>
        <time>2025-10-19T07:21:04Z</time>
      </trkpt>
      <trkpt lat="43.23138" lon="5.50128">
        <ele>171.5</ele>
        <time>2025-10-19T07:21:05Z</time>
      </trkpt>
      <trkpt lat="43.23137" lon="5.50128">
        <ele>171.5</ele>
        <time>2025-10-19T07:21:06Z</time>
      </trkpt>
      <trkpt lat="43.23137" lon="5.50129">
        <ele>171.5</ele>
        <time>2025-10-19T07:21:07Z</time>
      </trkpt>
      <trkpt lat="43.23136" lon="5.50129">
        <ele>171.5</ele>
        <time>2025-10-19T07:21:08Z</time>
      </trkpt>
      <trkpt lat="43.23136" lon="5.50129">
        <ele>171.5</ele>
        <time>2025-10-19T07:21:09Z</time>
      </trkpt>
      <trkpt lat="43.23136" lon="5.5013">
        <ele>171.5</ele>
        <time>2025-10-19T07:21:10Z</time>
      </trkpt>
      <trkpt lat="43.23135" lon="5.50129">
        <ele>171.5</ele>
        <time>2025-10-19T07:21:11Z</time>
      </trkpt>
      <trkpt lat="43.23135" lon="5.50129">
        <ele>171.5</ele>
        <time>2025-10-19T07:21:12Z</time>
      </trkpt>
      <trkpt lat="43.23135" lon="5.50129">
        <ele>171.5</ele>
        <time>2025-10-19T07:21:13Z</time>
      </trkpt>
      <trkpt lat="43.23134" lon="5.50129">
        <ele>171.5</ele>
        <time>2025-10-19T07:21:14Z</time>
      </trkpt>
      <trkpt lat="43.23134" lon="5.50129">
        <ele>171.5</ele>
        <time>2025-10-19T07:21:15Z</time>
      </trkpt>
      <trkpt lat="43.23134" lon="5.50129">
        <ele>171.5</ele>
        <time>2025-10-19T07:21:16Z</time>
      </trkpt>
      <trkpt lat="43.23133" lon="5.5013">
        <ele>171.5</ele>
        <time>2025-10-19T07:21:17Z</time>
      </trkpt>
      <trkpt lat="43.23133" lon="5.5013">
        <ele>171.5</ele>
        <time>2025-10-19T07:21:18Z</time>
      </trkpt>
      <trkpt lat="43.23132" lon="5.50129">
        <ele>171.6</ele>
        <time>2025-10-19T07:21:19Z</time>
      </trkpt>
      <trkpt lat="43.23132" lon="5.50129">
        <ele>171.6</ele>
        <time>2025-10-19T07:21:20Z</time>
      </trkpt>
      <trkpt lat="43.23132" lon="5.50129">
        <ele>171.6</ele>
        <time>2025-10-19T07:21:21Z</time>
      </trkpt>
      <trkpt lat="43.23132" lon="5.50129">
        <ele>171.7</ele>
        <time>2025-10-19T07:21:22Z</time>
      </trkpt>
      <trkpt lat="43.23132" lon="5.5013">
        <ele>171.7</ele>
        <time>2025-10-19T07:21:23Z</time>
      </trkpt>
      <trkpt lat="43.23132" lon="5.5013">
        <ele>171.7</ele>
        <time>2025-10-19T07:21:24Z</time>
      </trkpt>
      <trkpt lat="43.23132" lon="5.5013">
        <ele>171.7</ele>
        <time>2025-10-19T07:21:25Z</time>
      </trkpt>
      <trkpt lat="43.23132" lon="5.5013">
        <ele>171.7</ele>
        <time>2025-10-19T07:21:26Z</time>
      </trkpt>
      <trkpt lat="43.23132" lon="5.5013">
        <ele>171.7</ele>
        <time>2025-10-19T07:21:27Z</time>
      </trkpt>
      <trkpt lat="43.23132" lon="5.5013">
        <ele>171.6</ele>
        <time>2025-10-19T07:21:28Z</time>
      </trkpt>
      <trkpt lat="43.23132" lon="5.5013">
        <ele>171.5</ele>
        <time>2025-10-19T07:21:29Z</time>
      </trkpt>
      <trkpt lat="43.23132" lon="5.5013">
        <ele>171.5</ele>
        <time>2025-10-19T07:21:30Z</time>
      </trkpt>
      <trkpt lat="43.23132" lon="5.50131">
        <ele>171.6</ele>
        <time>2025-10-19T07:21:31Z</time>
      </trkpt>
      <trkpt lat="43.23132" lon="5.50131">
        <ele>171.6</ele>
        <time>2025-10-19T07:21:32Z</time>
      </trkpt>
      <trkpt lat="43.23132" lon="5.50131">
        <ele>171.6</ele>
        <time>2025-10-19T07:21:33Z</time>
      </trkpt>
      <trkpt lat="43.23133" lon="5.50131">
        <ele>171.7</ele>
        <time>2025-10-19T07:21:34Z</time>
      </trkpt>
      <trkpt lat="43.23133" lon="5.50132">
        <ele>171.6</ele>
        <time>2025-10-19T07:21:35Z</time>
      </trkpt>
      <trkpt lat="43.23133" lon="5.50132">
        <ele>171.6</ele>
        <time>2025-10-19T07:21:36Z</time>
      </trkpt>
      <trkpt lat="43.23133" lon="5.50132">
        <ele>171.7</ele>
        <time>2025-10-19T07:21:37Z</time>
      </trkpt>
      <trkpt lat="43.23133" lon="5.50132">
        <ele>171.7</ele>
        <time>2025-10-19T07:21:38Z</time>
      </trkpt>
      <trkpt lat="43.23133" lon="5.50132">
        <ele>171.7</ele>
        <time>2025-10-19T07:21:39Z</time>
      </trkpt>
      <trkpt lat="43.23133" lon="5.50132">
        <ele>171.7</ele>
        <time>2025-10-19T07:21:40Z</time>
      </trkpt>
      <trkpt lat="43.23133" lon="5.50133">
        <ele>171.7</ele>
        <time>2025-10-19T07:21:41Z</time>
      </trkpt>
      <trkpt lat="43.23133" lon="5.50133">
        <ele>171.7</ele>
        <time>2025-10-19T07:21:42Z</time>
      </trkpt>
      <trkpt lat="43.23133" lon="5.50133">
        <ele>171.7</ele>
        <time>2025-10-19T07:21:43Z</time>
      </trkpt>
      <trkpt lat="43.23133" lon="5.50132">
        <ele>171.7</ele>
        <time>2025-10-19T07:21:44Z</time>
      </trkpt>
      <trkpt lat="43.23133" lon="5.50133">
        <ele>171.7</ele>
        <time>2025-10-19T07:21:45Z</time>
      </trkpt>
      <trkpt lat="43.23133" lon="5.50133">
        <ele>171.6</ele>
        <time>2025-10-19T07:21:46Z</time>
      </trkpt>
      <trkpt lat="43.23133" lon="5.50133">
        <ele>171.6</ele>
        <time>2025-10-19T07:21:47Z</time>
      </trkpt>
      <trkpt lat="43.23134" lon="5.50133">
        <ele>171.6</ele>
        <time>2025-10-19T07:21:48Z</time>
      </trkpt>
      <trkpt lat="43.23134" lon="5.50133">
        <ele>171.7</ele>
        <time>2025-10-19T07:21:49Z</time>
      </trkpt>
      <trkpt lat="43.23133" lon="5.50133">
        <ele>171.7</ele>
        <time>2025-10-19T07:21:50Z</time>
      </trkpt>
      <trkpt lat="43.23133" lon="5.50133">
        <ele>171.7</ele>
        <time>2025-10-19T07:21:51Z</time>
      </trkpt>
      <trkpt lat="43.23133" lon="5.50133">
        <ele>171.7</ele>
        <time>2025-10-19T07:21:52Z</time>
      </trkpt>
      <trkpt lat="43.23133" lon="5.50133">
        <ele>171.7</ele>
        <time>2025-10-19T07:21:53Z</time>
      </trkpt>
      <trkpt lat="43.23132" lon="5.50133">
        <ele>171.6</ele>
        <time>2025-10-19T07:21:54Z</time>
      </trkpt>
      <trkpt lat="43.23132" lon="5.50134">
        <ele>171.7</ele>
        <time>2025-10-19T07:21:55Z</time>
      </trkpt>
      <trkpt lat="43.23132" lon="5.50135">
        <ele>171.8</ele>
        <time>2025-10-19T07:21:56Z</time>
      </trkpt>
      <trkpt lat="43.23132" lon="5.50135">
        <ele>171.7</ele>
        <time>2025-10-19T07:21:57Z</time>
      </trkpt>
      <trkpt lat="43.23132" lon="5.50135">
        <ele>171.6</ele>
        <time>2025-10-19T07:21:58Z</time>
      </trkpt>
      <trkpt lat="43.23132" lon="5.50135">
        <ele>171.6</ele>
        <time>2025-10-19T07:21:59Z</time>
      </trkpt>
      <trkpt lat="43.23132" lon="5.50135">
        <ele>171.6</ele>
        <time>2025-10-19T07:22:00Z</time>
      </trkpt>
      <trkpt lat="43.23132" lon="5.50135">
        <ele>171.6</ele>
        <time>2025-10-19T07:22:01Z</time>
      </trkpt>
      <trkpt lat="43.23133" lon="5.50135">
        <ele>171.5</ele>
        <time>2025-10-19T07:22:02Z</time>
      </trkpt>
      <trkpt lat="43.23133" lon="5.50135">
        <ele>171.4</ele>
        <time>2025-10-19T07:22:03Z</time>
      </trkpt>
      <trkpt lat="43.23133" lon="5.50135">
        <ele>171.5</ele>
        <time>2025-10-19T07:22:04Z</time>
      </trkpt>
      <trkpt lat="43.23134" lon="5.50135">
        <ele>171.6</ele>
        <time>2025-10-19T07:22:05Z</time>
      </trkpt>
      <trkpt lat="43.23134" lon="5.50135">
        <ele>171.6</ele>
        <time>2025-10-19T07:22:06Z</time>
      </trkpt>
      <trkpt lat="43.23134" lon="5.50134">
        <ele>171.7</ele>
        <time>2025-10-19T07:22:07Z</time>
      </trkpt>
      <trkpt lat="43.23134" lon="5.50134">
        <ele>171.7</ele>
        <time>2025-10-19T07:22:08Z</time>
      </trkpt>
      <trkpt lat="43.23134" lon="5.50134">
        <ele>171.7</ele>
        <time>2025-10-19T07:22:09Z</time>
      </trkpt>
      <trkpt lat="43.23134" lon="5.50135">
        <ele>171.7</ele>
        <time>2025-10-19T07:22:10Z</time>
      </trkpt>
      <trkpt lat="43.23134" lon="5.50135">
        <ele>171.8</ele>
        <time>2025-10-19T07:22:11Z</time>
      </trkpt>
      <trkpt lat="43.23134" lon="5.50135">
        <ele>171.6</ele>
        <time>2025-10-19T07:22:12Z</time>
      </trkpt>
      <trkpt lat="43.23134" lon="5.50134">
        <ele>171.7</ele>
        <time>2025-10-19T07:22:13Z</time>
      </trkpt>
      <trkpt lat="43.23134" lon="5.50134">
        <ele>171.7</ele>
        <time>2025-10-19T07:22:14Z</time>
      </trkpt>
      <trkpt lat="43.23134" lon="5.50134">
        <ele>171.7</ele>
        <time>2025-10-19T07:22:15Z</time>
      </trkpt>
      <trkpt lat="43.23134" lon="5.50134">
        <ele>171.7</ele>
        <time>2025-10-19T07:22:16Z</time>
      </trkpt>
      <trkpt lat="43.23134" lon="5.50134">
        <ele>171.8</ele>
        <time>2025-10-19T07:22:17Z</time>
      </trkpt>
      <trkpt lat="43.23134" lon="5.50134">
        <ele>171.8</ele>
        <time>2025-10-19T07:22:18Z</time>
      </trkpt>
      <trkpt lat="43.23134" lon="5.50133">
        <ele>171.8</ele>
        <time>2025-10-19T07:22:19Z</time>
      </trkpt>
      <trkpt lat="43.23134" lon="5.50133">
        <ele>171.8</ele>
        <time>2025-10-19T07:22:20Z</time>
      </trkpt>
      <trkpt lat="43.23134" lon="5.50133">
        <ele>171.8</ele>
        <time>2025-10-19T07:22:21Z</time>
      </trkpt>
      <trkpt lat="43.23134" lon="5.50133">
        <ele>171.8</ele>
        <time>2025-10-19T07:22:22Z</time>
      </trkpt>
      <trkpt lat="43.23134" lon="5.50132">
        <ele>171.8</ele>
        <time>2025-10-19T07:22:23Z</time>
      </trkpt>
      <trkpt lat="43.23134" lon="5.50132">
        <ele>171.7</ele>
        <time>2025-10-19T07:22:24Z</time>
      </trkpt>
      <trkpt lat="43.23134" lon="5.50132">
        <ele>171.6</ele>
        <time>2025-10-19T07:22:25Z</time>
      </trkpt>
      <trkpt lat="43.23134" lon="5.50132">
        <ele>171.7</ele>
        <time>2025-10-19T07:22:26Z</time>
      </trkpt>
      <trkpt lat="43.23134" lon="5.50132">
        <ele>171.7</ele>
        <time>2025-10-19T07:22:27Z</time>
      </trkpt>
      <trkpt lat="43.23133" lon="5.50132">
        <ele>171.7</ele>
        <time>2025-10-19T07:22:28Z</time>
      </trkpt>
      <trkpt lat="43.23133" lon="5.50132">
        <ele>171.7</ele>
        <time>2025-10-19T07:22:29Z</time>
      </trkpt>
      <trkpt lat="43.23133" lon="5.50132">
        <ele>171.7</ele>
        <time>2025-10-19T07:22:30Z</time>
      </trkpt>
      <trkpt lat="43.23133" lon="5.50131">
        <ele>171.8</ele>
        <time>2025-10-19T07:22:31Z</time>
      </trkpt>
      <trkpt lat="43.23133" lon="5.50131">
        <ele>171.8</ele>
        <time>2025-10-19T07:22:32Z</time>
      </trkpt>
      <trkpt lat="43.23133" lon="5.5013">
        <ele>171.9</ele>
        <time>2025-10-19T07:22:33Z</time>
      </trkpt>
      <trkpt lat="43.23132" lon="5.5013">
        <ele>171.9</ele>
        <time>2025-10-19T07:22:34Z</time>
      </trkpt>
      <trkpt lat="43.23132" lon="5.5013">
        <ele>171.8</ele>
        <time>2025-10-19T07:22:35Z</time>
      </trkpt>
      <trkpt lat="43.23132" lon="5.5013">
        <ele>171.8</ele>
        <time>2025-10-19T07:22:36Z</time>
      </trkpt>
      <trkpt lat="43.23132" lon="5.5013">
        <ele>171.8</ele>
        <time>2025-10-19T07:22:37Z</time>
      </trkpt>
      <trkpt lat="43.23132" lon="5.5013">
        <ele>171.8</ele>
        <time>2025-10-19T07:22:38Z</time>
      </trkpt>
      <trkpt lat="43.23132" lon="5.5013">
        <ele>171.8</ele>
        <time>2025-10-19T07:22:39Z</time>
      </trkpt>
      <trkpt lat="43.23132" lon="5.5013">
        <ele>171.8</ele>
        <time>2025-10-19T07:22:40Z</time>
      </trkpt>
      <trkpt lat="43.23132" lon="5.5013">
        <ele>171.8</ele>
        <time>2025-10-19T07:22:41Z</time>
      </trkpt>
      <trkpt lat="43.23132" lon="5.5013">
        <ele>171.7</ele>
        <time>2025-10-19T07:22:42Z</time>
      </trkpt>
      <trkpt lat="43.23132" lon="5.5013">
        <ele>171.7</ele>
        <time>2025-10-19T07:22:43Z</time>
      </trkpt>
      <trkpt lat="43.23132" lon="5.5013">
        <ele>171.8</ele>
        <time>2025-10-19T07:22:44Z</time>
      </trkpt>
      <trkpt lat="43.23131" lon="5.5013">
        <ele>171.7</ele>
        <time>2025-10-19T07:22:45Z</time>
      </trkpt>
      <trkpt lat="43.23131" lon="5.50129">
        <ele>171.7</ele>
        <time>2025-10-19T07:22:46Z</time>
      </trkpt>
      <trkpt lat="43.2313" lon="5.50127">
        <ele>171.6</ele>
        <time>2025-10-19T07:22:47Z</time>
      </trkpt>
      <trkpt lat="43.2313" lon="5.50126">
        <ele>171.6</ele>
        <time>2025-10-19T07:22:48Z</time>
      </trkpt>
      <trkpt lat="43.2313" lon="5.50125">
        <ele>171.5</ele>
        <time>2025-10-19T07:22:49Z</time>
      </trkpt>
      <trkpt lat="43.2313" lon="5.50124">
        <ele>171.5</ele>
        <time>2025-10-19T07:22:50Z</time>
      </trkpt>
      <trkpt lat="43.23131" lon="5.50123">
        <ele>171.5</ele>
        <time>2025-10-19T07:22:51Z</time>
      </trkpt>
      <trkpt lat="43.2313" lon="5.50122">
        <ele>171.5</ele>
        <time>2025-10-19T07:22:52Z</time>
      </trkpt>
      <trkpt lat="43.23131" lon="5.5012">
        <ele>171.4</ele>
        <time>2025-10-19T07:22:53Z</time>
      </trkpt>
      <trkpt lat="43.23131" lon="5.50119">
        <ele>171.3</ele>
        <time>2025-10-19T07:22:54Z</time>
      </trkpt>
      <trkpt lat="43.23131" lon="5.50118">
        <ele>171.2</ele>
        <time>2025-10-19T07:22:55Z</time>
      </trkpt>
      <trkpt lat="43.23132" lon="5.50117">
        <ele>171.2</ele>
        <time>2025-10-19T07:22:56Z</time>
      </trkpt>
      <trkpt lat="43.23133" lon="5.50116">
        <ele>171.1</ele>
        <time>2025-10-19T07:22:57Z</time>
      </trkpt>
      <trkpt lat="43.23133" lon="5.50115">
        <ele>171</ele>
        <time>2025-10-19T07:22:58Z</time>
      </trkpt>
      <trkpt lat="43.23133" lon="5.50114">
        <ele>171</ele>
        <time>2025-10-19T07:22:59Z</time>
      </trkpt>
      <trkpt lat="43.23133" lon="5.50113">
        <ele>171</ele>
        <time>2025-10-19T07:23:00Z</time>
      </trkpt>
      <trkpt lat="43.23133" lon="5.50113">
        <ele>171</ele>
        <time>2025-10-19T07:23:01Z</time>
      </trkpt>
      <trkpt lat="43.23133" lon="5.50112">
        <ele>170.9</ele>
        <time>2025-10-19T07:23:02Z</time>
      </trkpt>
      <trkpt lat="43.23134" lon="5.50112">
        <ele>170.9</ele>
        <time>2025-10-19T07:23:03Z</time>
      </trkpt>
      <trkpt lat="43.23134" lon="5.50111">
        <ele>170.9</ele>
        <time>2025-10-19T07:23:04Z</time>
      </trkpt>
      <trkpt lat="43.23134" lon="5.50111">
        <ele>170.9</ele>
        <time>2025-10-19T07:23:05Z</time>
      </trkpt>
      <trkpt lat="43.23135" lon="5.50111">
        <ele>171.1</ele>
        <time>2025-10-19T07:23:06Z</time>
      </trkpt>
      <trkpt lat="43.23135" lon="5.5011">
        <ele>171.3</ele>
        <time>2025-10-19T07:23:07Z</time>
      </trkpt>
      <trkpt lat="43.23135" lon="5.5011">
        <ele>171.5</ele>
        <time>2025-10-19T07:23:08Z</time>
      </trkpt>
      <trkpt lat="43.23135" lon="5.50111">
        <ele>171.7</ele>
        <time>2025-10-19T07:23:09Z</time>
      </trkpt>
      <trkpt lat="43.23135" lon="5.5011">
        <ele>171.9</ele>
        <time>2025-10-19T07:23:10Z</time>
      </trkpt>
      <trkpt lat="43.23135" lon="5.5011">
        <ele>172.1</ele>
        <time>2025-10-19T07:23:11Z</time>
      </trkpt>
      <trkpt lat="43.23135" lon="5.5011">
        <ele>172.3</ele>
        <time>2025-10-19T07:23:12Z</time>
      </trkpt>
      <trkpt lat="43.23135" lon="5.5011">
        <ele>172.6</ele>
        <time>2025-10-19T07:23:13Z</time>
      </trkpt>
      <trkpt lat="43.23136" lon="5.50109">
        <ele>172.8</ele>
        <time>2025-10-19T07:23:14Z</time>
      </trkpt>
      <trkpt lat="43.23136" lon="5.50108">
        <ele>173</ele>
        <time>2025-10-19T07:23:15Z</time>
      </trkpt>
      <trkpt lat="43.23136" lon="5.50107">
        <ele>173.2</ele>
        <time>2025-10-19T07:23:16Z</time>
      </trkpt>
      <trkpt lat="43.23136" lon="5.50107">
        <ele>173.3</ele>
        <time>2025-10-19T07:23:17Z</time>
      </trkpt>
      <trkpt lat="43.23137" lon="5.50106">
        <ele>173.6</ele>
        <time>2025-10-19T07:23:18Z</time>
      </trkpt>
      <trkpt lat="43.23138" lon="5.50104">
        <ele>173.7</ele>
        <time>2025-10-19T07:23:19Z</time>
      </trkpt>
      <trkpt lat="43.23138" lon="5.50103">
        <ele>173.8</ele>
        <time>2025-10-19T07:23:20Z</time>
      </trkpt>
      <trkpt lat="43.23138" lon="5.50102">
        <ele>173.9</ele>
        <time>2025-10-19T07:23:21Z</time>
      </trkpt>
      <trkpt lat="43.23138" lon="5.50102">
        <ele>174.1</ele>
        <time>2025-10-19T07:23:22Z</time>
      </trkpt>
      <trkpt lat="43.23138" lon="5.50101">
        <ele>174.2</ele>
        <time>2025-10-19T07:23:23Z</time>
      </trkpt>
      <trkpt lat="43.23138" lon="5.50101">
        <ele>174.2</ele>
        <time>2025-10-19T07:23:24Z</time>
      </trkpt>
      <trkpt lat="43.23139" lon="5.501">
        <ele>174.3</ele>
        <time>2025-10-19T07:23:25Z</time>
      </trkpt>
      <trkpt lat="43.23139" lon="5.50099">
        <ele>174.4</ele>
        <time>2025-10-19T07:23:26Z</time>
      </trkpt>
      <trkpt lat="43.23139" lon="5.50098">
        <ele>174.5</ele>
        <time>2025-10-19T07:23:27Z</time>
      </trkpt>
      <trkpt lat="43.2314" lon="5.50097">
        <ele>174.6</ele>
        <time>2025-10-19T07:23:28Z</time>
      </trkpt>
      <trkpt lat="43.2314" lon="5.50097">
        <ele>174.6</ele>
        <time>2025-10-19T07:23:29Z</time>
      </trkpt>
      <trkpt lat="43.2314" lon="5.50096">
        <ele>174.7</ele>
        <time>2025-10-19T07:23:30Z</time>
      </trkpt>
      <trkpt lat="43.2314" lon="5.50096">
        <ele>174.7</ele>
        <time>2025-10-19T07:23:31Z</time>
      </trkpt>
      <trkpt lat="43.23141" lon="5.50095">
        <ele>174.5</ele>
        <time>2025-10-19T07:23:32Z</time>
      </trkpt>
      <trkpt lat="43.23141" lon="5.50094">
        <ele>174.4</ele>
        <time>2025-10-19T07:23:33Z</time>
      </trkpt>
      <trkpt lat="43.23141" lon="5.50093">
        <ele>174.5</ele>
        <time>2025-10-19T07:23:34Z</time>
      </trkpt>
      <trkpt lat="43.23143" lon="5.50092">
        <ele>174.6</ele>
        <time>2025-10-19T07:23:35Z</time>
      </trkpt>
      <trkpt lat="43.23143" lon="5.50092">
        <ele>174.7</ele>
        <time>2025-10-19T07:23:36Z</time>
      </trkpt>
      <trkpt lat="43.23143" lon="5.50092">
        <ele>174.9</ele>
        <time>2025-10-19T07:23:37Z</time>
      </trkpt>
      <trkpt lat="43.23143" lon="5.50092">
        <ele>175</ele>
        <time>2025-10-19T07:23:38Z</time>
      </trkpt>
      <trkpt lat="43.23144" lon="5.50092">
        <ele>175.1</ele>
        <time>2025-10-19T07:23:39Z</time>
      </trkpt>
      <trkpt lat="43.23143" lon="5.50092">
        <ele>175.2</ele>
        <time>2025-10-19T07:23:40Z</time>
      </trkpt>
      <trkpt lat="43.23144" lon="5.50091">
        <ele>175.3</ele>
        <time>2025-10-19T07:23:41Z</time>
      </trkpt>
      <trkpt lat="43.23144" lon="5.5009">
        <ele>175.4</ele>
        <time>2025-10-19T07:23:42Z</time>
      </trkpt>
      <trkpt lat="43.23144" lon="5.5009">
        <ele>175.5</ele>
        <time>2025-10-19T07:23:43Z</time>
      </trkpt>
      <trkpt lat="43.23144" lon="5.50089">
        <ele>175.6</ele>
        <time>2025-10-19T07:23:44Z</time>
      </trkpt>
      <trkpt lat="43.23144" lon="5.50089">
        <ele>175.6</ele>
        <time>2025-10-19T07:23:45Z</time>
      </trkpt>
      <trkpt lat="43.23144" lon="5.50089">
        <ele>175.6</ele>
        <time>2025-10-19T07:23:46Z</time>
      </trkpt>
      <trkpt lat="43.23144" lon="5.50089">
        <ele>175.5</ele>
        <time>2025-10-19T07:23:47Z</time>
      </trkpt>
      <trkpt lat="43.23144" lon="5.50089">
        <ele>175.5</ele>
        <time>2025-10-19T07:23:48Z</time>
      </trkpt>
      <trkpt lat="43.23144" lon="5.50089">
        <ele>175.5</ele>
        <time>2025-10-19T07:23:49Z</time>
      </trkpt>
      <trkpt lat="43.23144" lon="5.50089">
        <ele>175.4</ele>
        <time>2025-10-19T07:23:50Z</time>
      </trkpt>
      <trkpt lat="43.23145" lon="5.50089">
        <ele>175.4</ele>
        <time>2025-10-19T07:23:51Z</time>
      </trkpt>
      <trkpt lat="43.23145" lon="5.50089">
        <ele>175.4</ele>
        <time>2025-10-19T07:23:52Z</time>
      </trkpt>
      <trkpt lat="43.23144" lon="5.50089">
        <ele>175.5</ele>
        <time>2025-10-19T07:23:53Z</time>
      </trkpt>
      <trkpt lat="43.23144" lon="5.50089">
        <ele>175.5</ele>
        <time>2025-10-19T07:23:54Z</time>
      </trkpt>
      <trkpt lat="43.23144" lon="5.50089">
        <ele>175.5</ele>
        <time>2025-10-19T07:23:55Z</time>
      </trkpt>
      <trkpt lat="43.23144" lon="5.50089">
        <ele>175.6</ele>
        <time>2025-10-19T07:23:56Z</time>
      </trkpt>
      <trkpt lat="43.23144" lon="5.50089">
        <ele>175.6</ele>
        <time>2025-10-19T07:23:57Z</time>
      </trkpt>
      <trkpt lat="43.23144" lon="5.50089">
        <ele>175.6</ele>
        <time>2025-10-19T07:23:58Z</time>
      </trkpt>
      <trkpt lat="43.23144" lon="5.50088">
        <ele>175.6</ele>
        <time>2025-10-19T07:23:59Z</time>
      </trkpt>
      <trkpt lat="43.23144" lon="5.50088">
        <ele>175.5</ele>
        <time>2025-10-19T07:24:00Z</time>
      </trkpt>
      <trkpt lat="43.23143" lon="5.50087">
        <ele>175.4</ele>
        <time>2025-10-19T07:24:01Z</time>
      </trkpt>
      <trkpt lat="43.23143" lon="5.50087">
        <ele>175.3</ele>
        <time>2025-10-19T07:24:02Z</time>
      </trkpt>
      <trkpt lat="43.23143" lon="5.50087">
        <ele>175.2</ele>
        <time>2025-10-19T07:24:03Z</time>
      </trkpt>
      <trkpt lat="43.23143" lon="5.50087">
        <ele>175.1</ele>
        <time>2025-10-19T07:24:04Z</time>
      </trkpt>
      <trkpt lat="43.23143" lon="5.50088">
        <ele>174.9</ele>
        <time>2025-10-19T07:24:05Z</time>
      </trkpt>
      <trkpt lat="43.23142" lon="5.50088">
        <ele>174.9</ele>
        <time>2025-10-19T07:24:06Z</time>
      </trkpt>
      <trkpt lat="43.23142" lon="5.50088">
        <ele>174.9</ele>
        <time>2025-10-19T07:24:07Z</time>
      </trkpt>
      <trkpt lat="43.23142" lon="5.50089">
        <ele>174.9</ele>
        <time>2025-10-19T07:24:08Z</time>
      </trkpt>
      <trkpt lat="43.23142" lon="5.50089">
        <ele>174.9</ele>
        <time>2025-10-19T07:24:09Z</time>
      </trkpt>
      <trkpt lat="43.23141" lon="5.50089">
        <ele>174.9</ele>
        <time>2025-10-19T07:24:10Z</time>
      </trkpt>
      <trkpt lat="43.23141" lon="5.50089">
        <ele>174.9</ele>
        <time>2025-10-19T07:24:11Z</time>
      </trkpt>
      <trkpt lat="43.23141" lon="5.5009">
        <ele>174.9</ele>
        <time>2025-10-19T07:24:12Z</time>
      </trkpt>
      <trkpt lat="43.23141" lon="5.5009">
        <ele>174.7</ele>
        <time>2025-10-19T07:24:13Z</time>
      </trkpt>
      <trkpt lat="43.2314" lon="5.5009">
        <ele>174.6</ele>
        <time>2025-10-19T07:24:14Z</time>
      </trkpt>
      <trkpt lat="43.2314" lon="5.50091">
        <ele>174.6</ele>
        <time>2025-10-19T07:24:15Z</time>
      </trkpt>
      <trkpt lat="43.23139" lon="5.50092">
        <ele>174.6</ele>
        <time>2025-10-19T07:24:16Z</time>
      </trkpt>
      <trkpt lat="43.23138" lon="5.50093">
        <ele>174.6</ele>
        <time>2025-10-19T07:24:17Z</time>
      </trkpt>
      <trkpt lat="43.23137" lon="5.50093">
        <ele>174.4</ele>
        <time>2025-10-19T07:24:18Z</time>
      </trkpt>
      <trkpt lat="43.23137" lon="5.50093">
        <ele>174.3</ele>
        <time>2025-10-19T07:24:19Z</time>
      </trkpt>
      <trkpt lat="43.23137" lon="5.50094">
        <ele>174.2</ele>
        <time>2025-10-19T07:24:20Z</time>
      </trkpt>
      <trkpt lat="43.23137" lon="5.50094">
        <ele>174.1</ele>
        <time>2025-10-19T07:24:21Z</time>
      </trkpt>
      <trkpt lat="43.23136" lon="5.50094">
        <ele>174</ele>
        <time>2025-10-19T07:24:22Z</time>
      </trkpt>
      <trkpt lat="43.23136" lon="5.50095">
        <ele>173.7</ele>
        <time>2025-10-19T07:24:23Z</time>
      </trkpt>
      <trkpt lat="43.23136" lon="5.50095">
        <ele>173.5</ele>
        <time>2025-10-19T07:24:24Z</time>
      </trkpt>
      <trkpt lat="43.23135" lon="5.50096">
        <ele>173.4</ele>
        <time>2025-10-19T07:24:25Z</time>
      </trkpt>
      <trkpt lat="43.23134" lon="5.50097">
        <ele>173</ele>
        <time>2025-10-19T07:24:26Z</time>
      </trkpt>
      <trkpt lat="43.23133" lon="5.50098">
        <ele>172.8</ele>
        <time>2025-10-19T07:24:27Z</time>
      </trkpt>
      <trkpt lat="43.23132" lon="5.50099">
        <ele>172.4</ele>
        <time>2025-10-19T07:24:28Z</time>
      </trkpt>
      <trkpt lat="43.23131" lon="5.501">
        <ele>172.2</ele>
        <time>2025-10-19T07:24:29Z</time>
      </trkpt>
      <trkpt lat="43.2313" lon="5.501">
        <ele>171.9</ele>
        <time>2025-10-19T07:24:30Z</time>
      </trkpt>
      <trkpt lat="43.23128" lon="5.50101">
        <ele>171.6</ele>
        <time>2025-10-19T07:24:31Z</time>
      </trkpt>
      <trkpt lat="43.23128" lon="5.50102">
        <ele>171.4</ele>
        <time>2025-10-19T07:24:32Z</time>
      </trkpt>
      <trkpt lat="43.23127" lon="5.50103">
        <ele>171.2</ele>
        <time>2025-10-19T07:24:33Z</time>
      </trkpt>
      <trkpt lat="43.23126" lon="5.50105">
        <ele>171</ele>
        <time>2025-10-19T07:24:34Z</time>
      </trkpt>
      <trkpt lat="43.23126" lon="5.50106">
        <ele>170.8</ele>
        <time>2025-10-19T07:24:35Z</time>
      </trkpt>
      <trkpt lat="43.23126" lon="5.50107">
        <ele>170.7</ele>
        <time>2025-10-19T07:24:36Z</time>
      </trkpt>
      <trkpt lat="43.23125" lon="5.50109">
        <ele>170.5</ele>
        <time>2025-10-19T07:24:37Z</time>
      </trkpt>
      <trkpt lat="43.23125" lon="5.5011">
        <ele>170.5</ele>
        <time>2025-10-19T07:24:38Z</time>
      </trkpt>
      <trkpt lat="43.23125" lon="5.50111">
        <ele>170.5</ele>
        <time>2025-10-19T07:24:39Z</time>
      </trkpt>
      <trkpt lat="43.23125" lon="5.50112">
        <ele>170.6</ele>
        <time>2025-10-19T07:24:40Z</time>
      </trkpt>
      <trkpt lat="43.23124" lon="5.50113">
        <ele>170.7</ele>
        <time>2025-10-19T07:24:41Z</time>
      </trkpt>
      <trkpt lat="43.23124" lon="5.50115">
        <ele>170.8</ele>
        <time>2025-10-19T07:24:42Z</time>
      </trkpt>
      <trkpt lat="43.23124" lon="5.50116">
        <ele>170.8</ele>
        <time>2025-10-19T07:24:43Z</time>
      </trkpt>
      <trkpt lat="43.23124" lon="5.50117">
        <ele>170.8</ele>
        <time>2025-10-19T07:24:44Z</time>
      </trkpt>
      <trkpt lat="43.23124" lon="5.50118">
        <ele>170.8</ele>
        <time>2025-10-19T07:24:45Z</time>
      </trkpt>
      <trkpt lat="43.23124" lon="5.50119">
        <ele>170.8</ele>
        <time>2025-10-19T07:24:46Z</time>
      </trkpt>
      <trkpt lat="43.23123" lon="5.50119">
        <ele>170.9</ele>
        <time>2025-10-19T07:24:47Z</time>
      </trkpt>
      <trkpt lat="43.23123" lon="5.5012">
        <ele>170.9</ele>
        <time>2025-10-19T07:24:48Z</time>
      </trkpt>
      <trkpt lat="43.23122" lon="5.5012">
        <ele>171</ele>
        <time>2025-10-19T07:24:49Z</time>
      </trkpt>
      <trkpt lat="43.23122" lon="5.5012">
        <ele>171</ele>
        <time>2025-10-19T07:24:50Z</time>
      </trkpt>
      <trkpt lat="43.23122" lon="5.50121">
        <ele>171</ele>
        <time>2025-10-19T07:24:51Z</time>
      </trkpt>
      <trkpt lat="43.23122" lon="5.50121">
        <ele>171</ele>
        <time>2025-10-19T07:24:52Z</time>
      </trkpt>
      <trkpt lat="43.23122" lon="5.50121">
        <ele>170.8</ele>
        <time>2025-10-19T07:24:53Z</time>
      </trkpt>
      <trkpt lat="43.23122" lon="5.50121">
        <ele>170.8</ele>
        <time>2025-10-19T07:24:54Z</time>
      </trkpt>
      <trkpt lat="43.23122" lon="5.50121">
        <ele>170.7</ele>
        <time>2025-10-19T07:24:55Z</time>
      </trkpt>
      <trkpt lat="43.23122" lon="5.50121">
        <ele>170.7</ele>
        <time>2025-10-19T07:24:56Z</time>
      </trkpt>
      <trkpt lat="43.23122" lon="5.50121">
        <ele>170.7</ele>
        <time>2025-10-19T07:24:57Z</time>
      </trkpt>
      <trkpt lat="43.23123" lon="5.50122">
        <ele>170.7</ele>
        <time>2025-10-19T07:24:58Z</time>
      </trkpt>
      <trkpt lat="43.23123" lon="5.50122">
        <ele>170.8</ele>
        <time>2025-10-19T07:24:59Z</time>
      </trkpt>
      <trkpt lat="43.23123" lon="5.50122">
        <ele>170.8</ele>
        <time>2025-10-19T07:25:00Z</time>
      </trkpt>
      <trkpt lat="43.23123" lon="5.50122">
        <ele>170.8</ele>
        <time>2025-10-19T07:25:01Z</time>
      </trkpt>
      <trkpt lat="43.23124" lon="5.50122">
        <ele>170.8</ele>
        <time>2025-10-19T07:25:02Z</time>
      </trkpt>
      <trkpt lat="43.23124" lon="5.50122">
        <ele>170.8</ele>
        <time>2025-10-19T07:25:03Z</time>
      </trkpt>
      <trkpt lat="43.23124" lon="5.50122">
        <ele>170.7</ele>
        <time>2025-10-19T07:25:04Z</time>
      </trkpt>
      <trkpt lat="43.23124" lon="5.50122">
        <ele>170.6</ele>
        <time>2025-10-19T07:25:05Z</time>
      </trkpt>
      <trkpt lat="43.23124" lon="5.50122">
        <ele>170.6</ele>
        <time>2025-10-19T07:25:06Z</time>
      </trkpt>
      <trkpt lat="43.23124" lon="5.50122">
        <ele>170.6</ele>
        <time>2025-10-19T07:25:07Z</time>
      </trkpt>
      <trkpt lat="43.23125" lon="5.50122">
        <ele>170.6</ele>
        <time>2025-10-19T07:25:08Z</time>
      </trkpt>
      <trkpt lat="43.23125" lon="5.50122">
        <ele>170.6</ele>
        <time>2025-10-19T07:25:09Z</time>
      </trkpt>
      <trkpt lat="43.23124" lon="5.50122">
        <ele>170.6</ele>
        <time>2025-10-19T07:25:10Z</time>
      </trkpt>
      <trkpt lat="43.23124" lon="5.50122">
        <ele>170.7</ele>
        <time>2025-10-19T07:25:11Z</time>
      </trkpt>
      <trkpt lat="43.23124" lon="5.50122">
        <ele>170.8</ele>
        <time>2025-10-19T07:25:12Z</time>
      </trkpt>
      <trkpt lat="43.23124" lon="5.50122">
        <ele>170.7</ele>
        <time>2025-10-19T07:25:13Z</time>
      </trkpt>
      <trkpt lat="43.23124" lon="5.50123">
        <ele>170.8</ele>
        <time>2025-10-19T07:25:14Z</time>
      </trkpt>
      <trkpt lat="43.23124" lon="5.50124">
        <ele>170.9</ele>
        <time>2025-10-19T07:25:15Z</time>
      </trkpt>
      <trkpt lat="43.23124" lon="5.50125">
        <ele>171</ele>
        <time>2025-10-19T07:25:16Z</time>
      </trkpt>
      <trkpt lat="43.23124" lon="5.50126">
        <ele>171</ele>
        <time>2025-10-19T07:25:17Z</time>
      </trkpt>
      <trkpt lat="43.23124" lon="5.50126">
        <ele>171</ele>
        <time>2025-10-19T07:25:18Z</time>
      </trkpt>
      <trkpt lat="43.23124" lon="5.50127">
        <ele>171</ele>
        <time>2025-10-19T07:25:19Z</time>
      </trkpt>
      <trkpt lat="43.23124" lon="5.50127">
        <ele>171.1</ele>
        <time>2025-10-19T07:25:20Z</time>
      </trkpt>
      <trkpt lat="43.23125" lon="5.50127">
        <ele>171.1</ele>
        <time>2025-10-19T07:25:21Z</time>
      </trkpt>
      <trkpt lat="43.23124" lon="5.50127">
        <ele>171.1</ele>
        <time>2025-10-19T07:25:22Z</time>
      </trkpt>
      <trkpt lat="43.23124" lon="5.50127">
        <ele>171.1</ele>
        <time>2025-10-19T07:25:23Z</time>
      </trkpt>
      <trkpt lat="43.23125" lon="5.50126">
        <ele>171.1</ele>
        <time>2025-10-19T07:25:24Z</time>
      </trkpt>
      <trkpt lat="43.23125" lon="5.50125">
        <ele>171.1</ele>
        <time>2025-10-19T07:25:25Z</time>
      </trkpt>
      <trkpt lat="43.23125" lon="5.50125">
        <ele>171.1</ele>
        <time>2025-10-19T07:25:26Z</time>
      </trkpt>
      <trkpt lat="43.23125" lon="5.50124">
        <ele>171.1</ele>
        <time>2025-10-19T07:25:27Z</time>
      </trkpt>
      <trkpt lat="43.23125" lon="5.50124">
        <ele>171.1</ele>
        <time>2025-10-19T07:25:28Z</time>
      </trkpt>
      <trkpt lat="43.23125" lon="5.50124">
        <ele>171.2</ele>
        <time>2025-10-19T07:25:29Z</time>
      </trkpt>
      <trkpt lat="43.23124" lon="5.50124">
        <ele>171.2</ele>
        <time>2025-10-19T07:25:30Z</time>
      </trkpt>
      <trkpt lat="43.23124" lon="5.50124">
        <ele>171.3</ele>
        <time>2025-10-19T07:25:31Z</time>
      </trkpt>
      <trkpt lat="43.23123" lon="5.50123">
        <ele>171.5</ele>
        <time>2025-10-19T07:25:32Z</time>
      </trkpt>
      <trkpt lat="43.23123" lon="5.50123">
        <ele>171.6</ele>
        <time>2025-10-19T07:25:33Z</time>
      </trkpt>
      <trkpt lat="43.23123" lon="5.50122">
        <ele>171.8</ele>
        <time>2025-10-19T07:25:34Z</time>
      </trkpt>
      <trkpt lat="43.23123" lon="5.50122">
        <ele>171.9</ele>
        <time>2025-10-19T07:25:35Z</time>
      </trkpt>
      <trkpt lat="43.23122" lon="5.50121">
        <ele>172.1</ele>
        <time>2025-10-19T07:25:36Z</time>
      </trkpt>
      <trkpt lat="43.23122" lon="5.50121">
        <ele>172.3</ele>
        <time>2025-10-19T07:25:37Z</time>
      </trkpt>
      <trkpt lat="43.23122" lon="5.50121">
        <ele>172.5</ele>
        <time>2025-10-19T07:25:38Z</time>
      </trkpt>
      <trkpt lat="43.23122" lon="5.5012">
        <ele>172.7</ele>
        <time>2025-10-19T07:25:39Z</time>
      </trkpt>
      <trkpt lat="43.23121" lon="5.5012">
        <ele>172.9</ele>
        <time>2025-10-19T07:25:40Z</time>
      </trkpt>
      <trkpt lat="43.23121" lon="5.5012">
        <ele>173</ele>
        <time>2025-10-19T07:25:41Z</time>
      </trkpt>
      <trkpt lat="43.2312" lon="5.5012">
        <ele>173.2</ele>
        <time>2025-10-19T07:25:42Z</time>
      </trkpt>
      <trkpt lat="43.2312" lon="5.5012">
        <ele>173.3</ele>
        <time>2025-10-19T07:25:43Z</time>
      </trkpt>
      <trkpt lat="43.2312" lon="5.5012">
        <ele>173.4</ele>
        <time>2025-10-19T07:25:44Z</time>
      </trkpt>
      <trkpt lat="43.23119" lon="5.5012">
        <ele>173.6</ele>
        <time>2025-10-19T07:25:45Z</time>
      </trkpt>
      <trkpt lat="43.23119" lon="5.5012">
        <ele>173.7</ele>
        <time>2025-10-19T07:25:46Z</time>
      </trkpt>
      <trkpt lat="43.23119" lon="5.50119">
        <ele>173.9</ele>
        <time>2025-10-19T07:25:47Z</time>
      </trkpt>
      <trkpt lat="43.23119" lon="5.50119">
        <ele>174.1</ele>
        <time>2025-10-19T07:25:48Z</time>
      </trkpt>
      <trkpt lat="43.23119" lon="5.50119">
        <ele>174.2</ele>
        <time>2025-10-19T07:25:49Z</time>
      </trkpt>
      <trkpt lat="43.23118" lon="5.50119">
        <ele>174.4</ele>
        <time>2025-10-19T07:25:50Z</time>
      </trkpt>
      <trkpt lat="43.23118" lon="5.50119">
        <ele>174.6</ele>
        <time>2025-10-19T07:25:51Z</time>
      </trkpt>
      <trkpt lat="43.23117" lon="5.50118">
        <ele>174.7</ele>
        <time>2025-10-19T07:25:52Z</time>
      </trkpt>
      <trkpt lat="43.23117" lon="5.50118">
        <ele>174.9</ele>
        <time>2025-10-19T07:25:53Z</time>
      </trkpt>
      <trkpt lat="43.23117" lon="5.50118">
        <ele>175.1</ele>
        <time>2025-10-19T07:25:54Z</time>
      </trkpt>
      <trkpt lat="43.23117" lon="5.50117">
        <ele>175.2</ele>
        <time>2025-10-19T07:25:55Z</time>
      </trkpt>
      <trkpt lat="43.23116" lon="5.50116">
        <ele>175.3</ele>
        <time>2025-10-19T07:25:56Z</time>
      </trkpt>
      <trkpt lat="43.23116" lon="5.50116">
        <ele>175.4</ele>
        <time>2025-10-19T07:25:57Z</time>
      </trkpt>
      <trkpt lat="43.23116" lon="5.50115">
        <ele>175.7</ele>
        <time>2025-10-19T07:25:58Z</time>
      </trkpt>
      <trkpt lat="43.23116" lon="5.50115">
        <ele>175.9</ele>
        <time>2025-10-19T07:25:59Z</time>
      </trkpt>
      <trkpt lat="43.23116" lon="5.50115">
        <ele>176</ele>
        <time>2025-10-19T07:26:00Z</time>
      </trkpt>
      <trkpt lat="43.23116" lon="5.50115">
        <ele>176.2</ele>
        <time>2025-10-19T07:26:01Z</time>
      </trkpt>
      <trkpt lat="43.23116" lon="5.50114">
        <ele>176.4</ele>
        <time>2025-10-19T07:26:02Z</time>
      </trkpt>
      <trkpt lat="43.23116" lon="5.50114">
        <ele>176.6</ele>
        <time>2025-10-19T07:26:03Z</time>
      </trkpt>
      <trkpt lat="43.23116" lon="5.50114">
        <ele>176.8</ele>
        <time>2025-10-19T07:26:04Z</time>
      </trkpt>
      <trkpt lat="43.23117" lon="5.50114">
        <ele>176.9</ele>
        <time>2025-10-19T07:26:05Z</time>
      </trkpt>
      <trkpt lat="43.23117" lon="5.50113">
        <ele>177.1</ele>
        <time>2025-10-19T07:26:06Z</time>
      </trkpt>
      <trkpt lat="43.23116" lon="5.50112">
        <ele>177.3</ele>
        <time>2025-10-19T07:26:07Z</time>
      </trkpt>
      <trkpt lat="43.23116" lon="5.50112">
        <ele>177.4</ele>
        <time>2025-10-19T07:26:08Z</time>
      </trkpt>
      <trkpt lat="43.23116" lon="5.50112">
        <ele>177.6</ele>
        <time>2025-10-19T07:26:09Z</time>
      </trkpt>
      <trkpt lat="43.23116" lon="5.50112">
        <ele>177.7</ele>
        <time>2025-10-19T07:26:10Z</time>
      </trkpt>
      <trkpt lat="43.23116" lon="5.50112">
        <ele>177.9</ele>
        <time>2025-10-19T07:26:11Z</time>
      </trkpt>
      <trkpt lat="43.23115" lon="5.50111">
        <ele>178.1</ele>
        <time>2025-10-19T07:26:12Z</time>
      </trkpt>
      <trkpt lat="43.23115" lon="5.5011">
        <ele>178.1</ele>
        <time>2025-10-19T07:26:13Z</time>
      </trkpt>
      <trkpt lat="43.23114" lon="5.5011">
        <ele>178.3</ele>
        <time>2025-10-19T07:26:14Z</time>
      </trkpt>
      <trkpt lat="43.23114" lon="5.50109">
        <ele>178.4</ele>
        <time>2025-10-19T07:26:15Z</time>
      </trkpt>
      <trkpt lat="43.23114" lon="5.50109">
        <ele>178.6</ele>
        <time>2025-10-19T07:26:16Z</time>
      </trkpt>
      <trkpt lat="43.23114" lon="5.50109">
        <ele>178.8</ele>
        <time>2025-10-19T07:26:17Z</time>
      </trkpt>
      <trkpt lat="43.23114" lon="5.50109">
        <ele>178.9</ele>
        <time>2025-10-19T07:26:18Z</time>
      </trkpt>
      <trkpt lat="43.23113" lon="5.50109">
        <ele>179.2</ele>
        <time>2025-10-19T07:26:19Z</time>
      </trkpt>
      <trkpt lat="43.23113" lon="5.50109">
        <ele>179.3</ele>
        <time>2025-10-19T07:26:20Z</time>
      </trkpt>
      <trkpt lat="43.23113" lon="5.50108">
        <ele>179.4</ele>
        <time>2025-10-19T07:26:21Z</time>
      </trkpt>
      <trkpt lat="43.23112" lon="5.50108">
        <ele>179.6</ele>
        <time>2025-10-19T07:26:22Z</time>
      </trkpt>
      <trkpt lat="43.23112" lon="5.50107">
        <ele>179.7</ele>
        <time>2025-10-19T07:26:23Z</time>
      </trkpt>
      <trkpt lat="43.23112" lon="5.50106">
        <ele>179.9</ele>
        <time>2025-10-19T07:26:24Z</time>
      </trkpt>
      <trkpt lat="43.23111" lon="5.50106">
        <ele>180</ele>
        <time>2025-10-19T07:26:25Z</time>
      </trkpt>
      <trkpt lat="43.23111" lon="5.50105">
        <ele>180</ele>
        <time>2025-10-19T07:26:26Z</time>
      </trkpt>
      <trkpt lat="43.2311" lon="5.50105">
        <ele>180.1</ele>
        <time>2025-10-19T07:26:27Z</time>
      </trkpt>
      <trkpt lat="43.23109" lon="5.50105">
        <ele>180.1</ele>
        <time>2025-10-19T07:26:28Z</time>
      </trkpt>
      <trkpt lat="43.23109" lon="5.50104">
        <ele>180.1</ele>
        <time>2025-10-19T07:26:29Z</time>
      </trkpt>
      <trkpt lat="43.23108" lon="5.50104">
        <ele>180.3</ele>
        <time>2025-10-19T07:26:30Z</time>
      </trkpt>
      <trkpt lat="43.23107" lon="5.50104">
        <ele>180.4</ele>
        <time>2025-10-19T07:26:31Z</time>
      </trkpt>
      <trkpt lat="43.23107" lon="5.50104">
        <ele>180.5</ele>
        <time>2025-10-19T07:26:32Z</time>
      </trkpt>
      <trkpt lat="43.23107" lon="5.50104">
        <ele>180.7</ele>
        <time>2025-10-19T07:26:33Z</time>
      </trkpt>
      <trkpt lat="43.23106" lon="5.50104">
        <ele>180.8</ele>
        <time>2025-10-19T07:26:34Z</time>
      </trkpt>
      <trkpt lat="43.23106" lon="5.50104">
        <ele>180.9</ele>
        <time>2025-10-19T07:26:35Z</time>
      </trkpt>
      <trkpt lat="43.23105" lon="5.50103">
        <ele>181.1</ele>
        <time>2025-10-19T07:26:36Z</time>
      </trkpt>
      <trkpt lat="43.23105" lon="5.50103">
        <ele>181.3</ele>
        <time>2025-10-19T07:26:37Z</time>
      </trkpt>
      <trkpt lat="43.23104" lon="5.50103">
        <ele>181.4</ele>
        <time>2025-10-19T07:26:38Z</time>
      </trkpt>
      <trkpt lat="43.23103" lon="5.50103">
        <ele>181.6</ele>
        <time>2025-10-19T07:26:39Z</time>
      </trkpt>
      <trkpt lat="43.23103" lon="5.50102">
        <ele>181.7</ele>
        <time>2025-10-19T07:26:40Z</time>
      </trkpt>
      <trkpt lat="43.23102" lon="5.50102">
        <ele>181.9</ele>
        <time>2025-10-19T07:26:41Z</time>
      </trkpt>
      <trkpt lat="43.23102" lon="5.50102">
        <ele>182.1</ele>
        <time>2025-10-19T07:26:42Z</time>
      </trkpt>
      <trkpt lat="43.23101" lon="5.50102">
        <ele>182.2</ele>
        <time>2025-10-19T07:26:43Z</time>
      </trkpt>
      <trkpt lat="43.231" lon="5.50102">
        <ele>182.4</ele>
        <time>2025-10-19T07:26:44Z</time>
      </trkpt>
      <trkpt lat="43.23099" lon="5.50101">
        <ele>182.5</ele>
        <time>2025-10-19T07:26:45Z</time>
      </trkpt>
      <trkpt lat="43.23098" lon="5.50101">
        <ele>182.7</ele>
        <time>2025-10-19T07:26:46Z</time>
      </trkpt>
      <trkpt lat="43.23097" lon="5.50101">
        <ele>182.9</ele>
        <time>2025-10-19T07:26:47Z</time>
      </trkpt>
      <trkpt lat="43.23097" lon="5.50101">
        <ele>183</ele>
        <time>2025-10-19T07:26:48Z</time>
      </trkpt>
      <trkpt lat="43.23096" lon="5.50102">
        <ele>183.1</ele>
        <time>2025-10-19T07:26:49Z</time>
      </trkpt>
      <trkpt lat="43.23096" lon="5.50102">
        <ele>183.4</ele>
        <time>2025-10-19T07:26:50Z</time>
      </trkpt>
      <trkpt lat="43.23095" lon="5.50102">
        <ele>183.5</ele>
        <time>2025-10-19T07:26:51Z</time>
      </trkpt>
      <trkpt lat="43.23094" lon="5.50102">
        <ele>183.8</ele>
        <time>2025-10-19T07:26:52Z</time>
      </trkpt>
      <trkpt lat="43.23094" lon="5.50102">
        <ele>184</ele>
        <time>2025-10-19T07:26:53Z</time>
      </trkpt>
      <trkpt lat="43.23093" lon="5.50102">
        <ele>184.1</ele>
        <time>2025-10-19T07:26:54Z</time>
      </trkpt>
      <trkpt lat="43.23092" lon="5.50102">
        <ele>184.2</ele>
        <time>2025-10-19T07:26:55Z</time>
      </trkpt>
      <trkpt lat="43.23092" lon="5.50102">
        <ele>184.3</ele>
        <time>2025-10-19T07:26:56Z</time>
      </trkpt>
      <trkpt lat="43.23091" lon="5.50102">
        <ele>184.4</ele>
        <time>2025-10-19T07:26:57Z</time>
      </trkpt>
      <trkpt lat="43.2309" lon="5.50103">
        <ele>184.5</ele>
        <time>2025-10-19T07:26:58Z</time>
      </trkpt>
      <trkpt lat="43.2309" lon="5.50103">
        <ele>184.5</ele>
        <time>2025-10-19T07:26:59Z</time>
      </trkpt>
      <trkpt lat="43.2309" lon="5.50103">
        <ele>184.7</ele>
        <time>2025-10-19T07:27:00Z</time>
      </trkpt>
      <trkpt lat="43.23089" lon="5.50103">
        <ele>185</ele>
        <time>2025-10-19T07:27:01Z</time>
      </trkpt>
      <trkpt lat="43.23089" lon="5.50103">
        <ele>185.2</ele>
        <time>2025-10-19T07:27:02Z</time>
      </trkpt>
      <trkpt lat="43.23088" lon="5.50103">
        <ele>185.3</ele>
        <time>2025-10-19T07:27:03Z</time>
      </trkpt>
      <trkpt lat="43.23088" lon="5.50103">
        <ele>185.5</ele>
        <time>2025-10-19T07:27:04Z</time>
      </trkpt>
      <trkpt lat="43.23087" lon="5.50104">
        <ele>185.6</ele>
        <time>2025-10-19T07:27:05Z</time>
      </trkpt>
      <trkpt lat="43.23087" lon="5.50104">
        <ele>185.8</ele>
        <time>2025-10-19T07:27:06Z</time>
      </trkpt>
      <trkpt lat="43.23087" lon="5.50104">
        <ele>185.9</ele>
        <time>2025-10-19T07:27:07Z</time>
      </trkpt>
      <trkpt lat="43.23086" lon="5.50105">
        <ele>186.1</ele>
        <time>2025-10-19T07:27:08Z</time>
      </trkpt>
      <trkpt lat="43.23086" lon="5.50105">
        <ele>186.3</ele>
        <time>2025-10-19T07:27:09Z</time>
      </trkpt>
      <trkpt lat="43.23085" lon="5.50105">
        <ele>186.4</ele>
        <time>2025-10-19T07:27:10Z</time>
      </trkpt>
      <trkpt lat="43.23085" lon="5.50105">
        <ele>186.6</ele>
        <time>2025-10-19T07:27:11Z</time>
      </trkpt>
      <trkpt lat="43.23084" lon="5.50106">
        <ele>186.8</ele>
        <time>2025-10-19T07:27:12Z</time>
      </trkpt>
      <trkpt lat="43.23083" lon="5.50106">
        <ele>186.9</ele>
        <time>2025-10-19T07:27:13Z</time>
      </trkpt>
      <trkpt lat="43.23083" lon="5.50107">
        <ele>187</ele>
        <time>2025-10-19T07:27:14Z</time>
      </trkpt>
      <trkpt lat="43.23082" lon="5.50107">
        <ele>187.1</ele>
        <time>2025-10-19T07:27:15Z</time>
      </trkpt>
      <trkpt lat="43.23082" lon="5.50108">
        <ele>187.1</ele>
        <time>2025-10-19T07:27:16Z</time>
      </trkpt>
      <trkpt lat="43.23081" lon="5.50109">
        <ele>187.2</ele>
        <time>2025-10-19T07:27:17Z</time>
      </trkpt>
      <trkpt lat="43.23081" lon="5.50109">
        <ele>187.2</ele>
        <time>2025-10-19T07:27:18Z</time>
      </trkpt>
      <trkpt lat="43.2308" lon="5.5011">
        <ele>187.3</ele>
        <time>2025-10-19T07:27:19Z</time>
      </trkpt>
      <trkpt lat="43.23079" lon="5.5011">
        <ele>187.4</ele>
        <time>2025-10-19T07:27:20Z</time>
      </trkpt>
      <trkpt lat="43.23079" lon="5.5011">
        <ele>187.6</ele>
        <time>2025-10-19T07:27:21Z</time>
      </trkpt>
      <trkpt lat="43.23078" lon="5.5011">
        <ele>187.8</ele>
        <time>2025-10-19T07:27:22Z</time>
      </trkpt>
      <trkpt lat="43.23077" lon="5.5011">
        <ele>188</ele>
        <time>2025-10-19T07:27:23Z</time>
      </trkpt>
      <trkpt lat="43.23077" lon="5.5011">
        <ele>188.2</ele>
        <time>2025-10-19T07:27:24Z</time>
      </trkpt>
      <trkpt lat="43.23076" lon="5.50111">
        <ele>188.4</ele>
        <time>2025-10-19T07:27:25Z</time>
      </trkpt>
      <trkpt lat="43.23075" lon="5.50111">
        <ele>188.6</ele>
        <time>2025-10-19T07:27:26Z</time>
      </trkpt>
      <trkpt lat="43.23075" lon="5.50111">
        <ele>188.8</ele>
        <time>2025-10-19T07:27:27Z</time>
      </trkpt>
      <trkpt lat="43.23074" lon="5.50112">
        <ele>189</ele>
        <time>2025-10-19T07:27:28Z</time>
      </trkpt>
      <trkpt lat="43.23074" lon="5.50112">
        <ele>189.2</ele>
        <time>2025-10-19T07:27:29Z</time>
      </trkpt>
      <trkpt lat="43.23073" lon="5.50113">
        <ele>189.3</ele>
        <time>2025-10-19T07:27:30Z</time>
      </trkpt>
      <trkpt lat="43.23073" lon="5.50113">
        <ele>189.4</ele>
        <time>2025-10-19T07:27:31Z</time>
      </trkpt>
      <trkpt lat="43.23072" lon="5.50114">
        <ele>189.6</ele>
        <time>2025-10-19T07:27:32Z</time>
      </trkpt>
      <trkpt lat="43.23071" lon="5.50115">
        <ele>189.7</ele>
        <time>2025-10-19T07:27:33Z</time>
      </trkpt>
      <trkpt lat="43.2307" lon="5.50115">
        <ele>189.8</ele>
        <time>2025-10-19T07:27:34Z</time>
      </trkpt>
      <trkpt lat="43.2307" lon="5.50116">
        <ele>189.9</ele>
        <time>2025-10-19T07:27:35Z</time>
      </trkpt>
      <trkpt lat="43.23069" lon="5.50117">
        <ele>190.1</ele>
        <time>2025-10-19T07:27:36Z</time>
      </trkpt>
      <trkpt lat="43.23069" lon="5.50117">
        <ele>190.2</ele>
        <time>2025-10-19T07:27:37Z</time>
      </trkpt>
      <trkpt lat="43.23068" lon="5.50117">
        <ele>190.3</ele>
        <time>2025-10-19T07:27:38Z</time>
      </trkpt>
      <trkpt lat="43.23067" lon="5.50117">
        <ele>190.4</ele>
        <time>2025-10-19T07:27:39Z</time>
      </trkpt>
      <trkpt lat="43.23066" lon="5.50117">
        <ele>190.5</ele>
        <time>2025-10-19T07:27:40Z</time>
      </trkpt>
      <trkpt lat="43.23066" lon="5.50117">
        <ele>190.6</ele>
        <time>2025-10-19T07:27:41Z</time>
      </trkpt>
      <trkpt lat="43.23065" lon="5.50117">
        <ele>190.7</ele>
        <time>2025-10-19T07:27:42Z</time>
      </trkpt>
      <trkpt lat="43.23064" lon="5.50117">
        <ele>190.8</ele>
        <time>2025-10-19T07:27:43Z</time>
      </trkpt>
      <trkpt lat="43.23063" lon="5.50117">
        <ele>190.9</ele>
        <time>2025-10-19T07:27:44Z</time>
      </trkpt>
      <trkpt lat="43.23062" lon="5.50118">
        <ele>191</ele>
        <time>2025-10-19T07:27:45Z</time>
      </trkpt>
      <trkpt lat="43.23061" lon="5.50118">
        <ele>191.2</ele>
        <time>2025-10-19T07:27:46Z</time>
      </trkpt>
      <trkpt lat="43.23061" lon="5.50119">
        <ele>191.2</ele>
        <time>2025-10-19T07:27:47Z</time>
      </trkpt>
      <trkpt lat="43.2306" lon="5.50119">
        <ele>191.4</ele>
        <time>2025-10-19T07:27:48Z</time>
      </trkpt>
      <trkpt lat="43.23059" lon="5.50119">
        <ele>191.4</ele>
        <time>2025-10-19T07:27:49Z</time>
      </trkpt>
      <trkpt lat="43.23059" lon="5.5012">
        <ele>191.6</ele>
        <time>2025-10-19T07:27:50Z</time>
      </trkpt>
      <trkpt lat="43.23058" lon="5.5012">
        <ele>191.6</ele>
        <time>2025-10-19T07:27:51Z</time>
      </trkpt>
      <trkpt lat="43.23057" lon="5.50121">
        <ele>191.7</ele>
        <time>2025-10-19T07:27:52Z</time>
      </trkpt>
      <trkpt lat="43.23056" lon="5.50122">
        <ele>191.8</ele>
        <time>2025-10-19T07:27:53Z</time>
      </trkpt>
      <trkpt lat="43.23056" lon="5.50123">
        <ele>191.9</ele>
        <time>2025-10-19T07:27:54Z</time>
      </trkpt>
      <trkpt lat="43.23055" lon="5.50123">
        <ele>192.2</ele>
        <time>2025-10-19T07:27:55Z</time>
      </trkpt>
      <trkpt lat="43.23054" lon="5.50123">
        <ele>192.4</ele>
        <time>2025-10-19T07:27:56Z</time>
      </trkpt>
      <trkpt lat="43.23053" lon="5.50124">
        <ele>192.6</ele>
        <time>2025-10-19T07:27:57Z</time>
      </trkpt>
      <trkpt lat="43.23052" lon="5.50124">
        <ele>192.6</ele>
        <time>2025-10-19T07:27:58Z</time>
      </trkpt>
      <trkpt lat="43.23051" lon="5.50125">
        <ele>192.7</ele>
        <time>2025-10-19T07:27:59Z</time>
      </trkpt>
      <trkpt lat="43.2305" lon="5.50126">
        <ele>192.8</ele>
        <time>2025-10-19T07:28:00Z</time>
      </trkpt>
      <trkpt lat="43.2305" lon="5.50127">
        <ele>193</ele>
        <time>2025-10-19T07:28:01Z</time>
      </trkpt>
      <trkpt lat="43.23049" lon="5.50127">
        <ele>193.1</ele>
        <time>2025-10-19T07:28:02Z</time>
      </trkpt>
      <trkpt lat="43.23048" lon="5.50127">
        <ele>193.2</ele>
        <time>2025-10-19T07:28:03Z</time>
      </trkpt>
      <trkpt lat="43.23047" lon="5.50127">
        <ele>193.3</ele>
        <time>2025-10-19T07:28:04Z</time>
      </trkpt>
      <trkpt lat="43.23046" lon="5.50128">
        <ele>193.4</ele>
        <time>2025-10-19T07:28:05Z</time>
      </trkpt>
      <trkpt lat="43.23045" lon="5.50128">
        <ele>193.6</ele>
        <time>2025-10-19T07:28:06Z</time>
      </trkpt>
      <trkpt lat="43.23044" lon="5.50129">
        <ele>193.7</ele>
        <time>2025-10-19T07:28:07Z</time>
      </trkpt>
      <trkpt lat="43.23043" lon="5.50129">
        <ele>193.9</ele>
        <time>2025-10-19T07:28:08Z</time>
      </trkpt>
      <trkpt lat="43.23042" lon="5.5013">
        <ele>194.1</ele>
        <time>2025-10-19T07:28:09Z</time>
      </trkpt>
      <trkpt lat="43.23042" lon="5.50131">
        <ele>194.2</ele>
        <time>2025-10-19T07:28:10Z</time>
      </trkpt>
      <trkpt lat="43.23041" lon="5.50131">
        <ele>194.5</ele>
        <time>2025-10-19T07:28:11Z</time>
      </trkpt>
      <trkpt lat="43.2304" lon="5.50132">
        <ele>194.6</ele>
        <time>2025-10-19T07:28:12Z</time>
      </trkpt>
      <trkpt lat="43.23039" lon="5.50132">
        <ele>194.7</ele>
        <time>2025-10-19T07:28:13Z</time>
      </trkpt>
      <trkpt lat="43.23038" lon="5.50133">
        <ele>194.8</ele>
        <time>2025-10-19T07:28:14Z</time>
      </trkpt>
      <trkpt lat="43.23038" lon="5.50133">
        <ele>194.9</ele>
        <time>2025-10-19T07:28:15Z</time>
      </trkpt>
      <trkpt lat="43.23037" lon="5.50134">
        <ele>195.1</ele>
        <time>2025-10-19T07:28:16Z</time>
      </trkpt>
      <trkpt lat="43.23036" lon="5.50134">
        <ele>195.3</ele>
        <time>2025-10-19T07:28:17Z</time>
      </trkpt>
      <trkpt lat="43.23035" lon="5.50134">
        <ele>195.4</ele>
        <time>2025-10-19T07:28:18Z</time>
      </trkpt>
      <trkpt lat="43.23035" lon="5.50134">
        <ele>195.6</ele>
        <time>2025-10-19T07:28:19Z</time>
      </trkpt>
      <trkpt lat="43.23034" lon="5.50134">
        <ele>195.7</ele>
        <time>2025-10-19T07:28:20Z</time>
      </trkpt>
      <trkpt lat="43.23033" lon="5.50135">
        <ele>195.8</ele>
        <time>2025-10-19T07:28:21Z</time>
      </trkpt>
      <trkpt lat="43.23032" lon="5.50135">
        <ele>196</ele>
        <time>2025-10-19T07:28:22Z</time>
      </trkpt>
      <trkpt lat="43.23032" lon="5.50135">
        <ele>196.2</ele>
        <time>2025-10-19T07:28:23Z</time>
      </trkpt>
      <trkpt lat="43.23031" lon="5.50135">
        <ele>196.4</ele>
        <time>2025-10-19T07:28:24Z</time>
      </trkpt>
      <trkpt lat="43.2303" lon="5.50135">
        <ele>196.5</ele>
        <time>2025-10-19T07:28:25Z</time>
      </trkpt>
      <trkpt lat="43.23029" lon="5.50136">
        <ele>196.7</ele>
        <time>2025-10-19T07:28:26Z</time>
      </trkpt>
      <trkpt lat="43.23029" lon="5.50137">
        <ele>196.8</ele>
        <time>2025-10-19T07:28:27Z</time>
      </trkpt>
      <trkpt lat="43.23028" lon="5.50137">
        <ele>196.8</ele>
        <time>2025-10-19T07:28:28Z</time>
      </trkpt>
      <trkpt lat="43.23028" lon="5.50138">
        <ele>196.9</ele>
        <time>2025-10-19T07:28:29Z</time>
      </trkpt>
      <trkpt lat="43.23027" lon="5.50138">
        <ele>197</ele>
        <time>2025-10-19T07:28:30Z</time>
      </trkpt>
      <trkpt lat="43.23026" lon="5.50139">
        <ele>197.2</ele>
        <time>2025-10-19T07:28:31Z</time>
      </trkpt>
      <trkpt lat="43.23026" lon="5.5014">
        <ele>197.4</ele>
        <time>2025-10-19T07:28:32Z</time>
      </trkpt>
      <trkpt lat="43.23026" lon="5.5014">
        <ele>197.4</ele>
        <time>2025-10-19T07:28:33Z</time>
      </trkpt>
      <trkpt lat="43.23025" lon="5.50141">
        <ele>197.6</ele>
        <time>2025-10-19T07:28:34Z</time>
      </trkpt>
      <trkpt lat="43.23024" lon="5.50142">
        <ele>197.7</ele>
        <time>2025-10-19T07:28:35Z</time>
      </trkpt>
      <trkpt lat="43.23023" lon="5.50142">
        <ele>197.8</ele>
        <time>2025-10-19T07:28:36Z</time>
      </trkpt>
      <trkpt lat="43.23023" lon="5.50143">
        <ele>198</ele>
        <time>2025-10-19T07:28:37Z</time>
      </trkpt>
      <trkpt lat="43.23022" lon="5.50144">
        <ele>198.2</ele>
        <time>2025-10-19T07:28:38Z</time>
      </trkpt>
      <trkpt lat="43.23021" lon="5.50144">
        <ele>198.4</ele>
        <time>2025-10-19T07:28:39Z</time>
      </trkpt>
      <trkpt lat="43.23021" lon="5.50144">
        <ele>198.5</ele>
        <time>2025-10-19T07:28:40Z</time>
      </trkpt>
      <trkpt lat="43.2302" lon="5.50144">
        <ele>198.8</ele>
        <time>2025-10-19T07:28:41Z</time>
      </trkpt>
      <trkpt lat="43.23019" lon="5.50145">
        <ele>199</ele>
        <time>2025-10-19T07:28:42Z</time>
      </trkpt>
      <trkpt lat="43.23018" lon="5.50146">
        <ele>199.2</ele>
        <time>2025-10-19T07:28:43Z</time>
      </trkpt>
      <trkpt lat="43.23018" lon="5.50146">
        <ele>199.3</ele>
        <time>2025-10-19T07:28:44Z</time>
      </trkpt>
      <trkpt lat="43.23017" lon="5.50146">
        <ele>199.5</ele>
        <time>2025-10-19T07:28:45Z</time>
      </trkpt>
      <trkpt lat="43.23016" lon="5.50147">
        <ele>199.6</ele>
        <time>2025-10-19T07:28:46Z</time>
      </trkpt>
      <trkpt lat="43.23015" lon="5.50147">
        <ele>199.8</ele>
        <time>2025-10-19T07:28:47Z</time>
      </trkpt>
      <trkpt lat="43.23014" lon="5.50148">
        <ele>199.9</ele>
        <time>2025-10-19T07:28:48Z</time>
      </trkpt>
      <trkpt lat="43.23014" lon="5.50148">
        <ele>200.1</ele>
        <time>2025-10-19T07:28:49Z</time>
      </trkpt>
      <trkpt lat="43.23014" lon="5.5015">
        <ele>200.2</ele>
        <time>2025-10-19T07:28:50Z</time>
      </trkpt>
      <trkpt lat="43.23013" lon="5.5015">
        <ele>200.4</ele>
        <time>2025-10-19T07:28:51Z</time>
      </trkpt>
      <trkpt lat="43.23013" lon="5.5015">
        <ele>200.5</ele>
        <time>2025-10-19T07:28:52Z</time>
      </trkpt>
      <trkpt lat="43.23012" lon="5.50151">
        <ele>200.6</ele>
        <time>2025-10-19T07:28:53Z</time>
      </trkpt>
      <trkpt lat="43.23011" lon="5.50151">
        <ele>200.7</ele>
        <time>2025-10-19T07:28:54Z</time>
      </trkpt>
      <trkpt lat="43.23011" lon="5.50152">
        <ele>200.8</ele>
        <time>2025-10-19T07:28:55Z</time>
      </trkpt>
      <trkpt lat="43.2301" lon="5.50152">
        <ele>201.1</ele>
        <time>2025-10-19T07:28:56Z</time>
      </trkpt>
      <trkpt lat="43.2301" lon="5.50153">
        <ele>201.3</ele>
        <time>2025-10-19T07:28:57Z</time>
      </trkpt>
      <trkpt lat="43.23009" lon="5.50153">
        <ele>201.4</ele>
        <time>2025-10-19T07:28:58Z</time>
      </trkpt>
      <trkpt lat="43.23008" lon="5.50153">
        <ele>201.6</ele>
        <time>2025-10-19T07:28:59Z</time>
      </trkpt>
      <trkpt lat="43.23008" lon="5.50154">
        <ele>201.7</ele>
        <time>2025-10-19T07:29:00Z</time>
      </trkpt>
      <trkpt lat="43.23007" lon="5.50154">
        <ele>201.8</ele>
        <time>2025-10-19T07:29:01Z</time>
      </trkpt>
      <trkpt lat="43.23007" lon="5.50154">
        <ele>202.1</ele>
        <time>2025-10-19T07:29:02Z</time>
      </trkpt>
      <trkpt lat="43.23006" lon="5.50154">
        <ele>202.3</ele>
        <time>2025-10-19T07:29:03Z</time>
      </trkpt>
      <trkpt lat="43.23006" lon="5.50154">
        <ele>202.4</ele>
        <time>2025-10-19T07:29:04Z</time>
      </trkpt>
      <trkpt lat="43.23005" lon="5.50154">
        <ele>202.5</ele>
        <time>2025-10-19T07:29:05Z</time>
      </trkpt>
      <trkpt lat="43.23004" lon="5.50154">
        <ele>202.7</ele>
        <time>2025-10-19T07:29:06Z</time>
      </trkpt>
      <trkpt lat="43.23004" lon="5.50154">
        <ele>202.8</ele>
        <time>2025-10-19T07:29:07Z</time>
      </trkpt>
      <trkpt lat="43.23004" lon="5.50154">
        <ele>202.9</ele>
        <time>2025-10-19T07:29:08Z</time>
      </trkpt>
      <trkpt lat="43.23003" lon="5.50153">
        <ele>203.1</ele>
        <time>2025-10-19T07:29:09Z</time>
      </trkpt>
      <trkpt lat="43.23002" lon="5.50153">
        <ele>203.3</ele>
        <time>2025-10-19T07:29:10Z</time>
      </trkpt>
      <trkpt lat="43.23001" lon="5.50154">
        <ele>203.4</ele>
        <time>2025-10-19T07:29:11Z</time>
      </trkpt>
      <trkpt lat="43.23" lon="5.50154">
        <ele>203.5</ele>
        <time>2025-10-19T07:29:12Z</time>
      </trkpt>
      <trkpt lat="43.22999" lon="5.50155">
        <ele>203.6</ele>
        <time>2025-10-19T07:29:13Z</time>
      </trkpt>
      <trkpt lat="43.22999" lon="5.50155">
        <ele>203.8</ele>
        <time>2025-10-19T07:29:14Z</time>
      </trkpt>
      <trkpt lat="43.22999" lon="5.50155">
        <ele>204</ele>
        <time>2025-10-19T07:29:15Z</time>
      </trkpt>
      <trkpt lat="43.22998" lon="5.50156">
        <ele>204.2</ele>
        <time>2025-10-19T07:29:16Z</time>
      </trkpt>
      <trkpt lat="43.22998" lon="5.50156">
        <ele>204.3</ele>
        <time>2025-10-19T07:29:17Z</time>
      </trkpt>
      <trkpt lat="43.22997" lon="5.50156">
        <ele>204.4</ele>
        <time>2025-10-19T07:29:18Z</time>
      </trkpt>
      <trkpt lat="43.22997" lon="5.50157">
        <ele>204.5</ele>
        <time>2025-10-19T07:29:19Z</time>
      </trkpt>
      <trkpt lat="43.22997" lon="5.50157">
        <ele>204.6</ele>
        <time>2025-10-19T07:29:20Z</time>
      </trkpt>
      <trkpt lat="43.22996" lon="5.50158">
        <ele>204.7</ele>
        <time>2025-10-19T07:29:21Z</time>
      </trkpt>
      <trkpt lat="43.22996" lon="5.50159">
        <ele>204.8</ele>
        <time>2025-10-19T07:29:22Z</time>
      </trkpt>
      <trkpt lat="43.22995" lon="5.5016">
        <ele>205</ele>
        <time>2025-10-19T07:29:23Z</time>
      </trkpt>
      <trkpt lat="43.22995" lon="5.5016">
        <ele>205.1</ele>
        <time>2025-10-19T07:29:24Z</time>
      </trkpt>
      <trkpt lat="43.22995" lon="5.50162">
        <ele>205.3</ele>
        <time>2025-10-19T07:29:25Z</time>
      </trkpt>
      <trkpt lat="43.22994" lon="5.50162">
        <ele>205.3</ele>
        <time>2025-10-19T07:29:26Z</time>
      </trkpt>
      <trkpt lat="43.22994" lon="5.50163">
        <ele>205.4</ele>
        <time>2025-10-19T07:29:27Z</time>
      </trkpt>
      <trkpt lat="43.22993" lon="5.50163">
        <ele>205.6</ele>
        <time>2025-10-19T07:29:28Z</time>
      </trkpt>
      <trkpt lat="43.22993" lon="5.50164">
        <ele>205.6</ele>
        <time>2025-10-19T07:29:29Z</time>
      </trkpt>
      <trkpt lat="43.22992" lon="5.50165">
        <ele>205.7</ele>
        <time>2025-10-19T07:29:30Z</time>
      </trkpt>
      <trkpt lat="43.22992" lon="5.50166">
        <ele>205.8</ele>
        <time>2025-10-19T07:29:31Z</time>
      </trkpt>
      <trkpt lat="43.22992" lon="5.50166">
        <ele>205.9</ele>
        <time>2025-10-19T07:29:32Z</time>
      </trkpt>
      <trkpt lat="43.22991" lon="5.50166">
        <ele>205.9</ele>
        <time>2025-10-19T07:29:33Z</time>
      </trkpt>
      <trkpt lat="43.22991" lon="5.50167">
        <ele>206</ele>
        <time>2025-10-19T07:29:34Z</time>
      </trkpt>
      <trkpt lat="43.2299" lon="5.50167">
        <ele>206.2</ele>
        <time>2025-10-19T07:29:35Z</time>
      </trkpt>
      <trkpt lat="43.22989" lon="5.50168">
        <ele>206.3</ele>
        <time>2025-10-19T07:29:36Z</time>
      </trkpt>
      <trkpt lat="43.22989" lon="5.50168">
        <ele>206.4</ele>
        <time>2025-10-19T07:29:37Z</time>
      </trkpt>
      <trkpt lat="43.22988" lon="5.50168">
        <ele>206.6</ele>
        <time>2025-10-19T07:29:38Z</time>
      </trkpt>
      <trkpt lat="43.22988" lon="5.50168">
        <ele>206.7</ele>
        <time>2025-10-19T07:29:39Z</time>
      </trkpt>
      <trkpt lat="43.22988" lon="5.50168">
        <ele>206.8</ele>
        <time>2025-10-19T07:29:40Z</time>
      </trkpt>
      <trkpt lat="43.22987" lon="5.50169">
        <ele>206.8</ele>
        <time>2025-10-19T07:29:41Z</time>
      </trkpt>
      <trkpt lat="43.22987" lon="5.5017">
        <ele>206.9</ele>
        <time>2025-10-19T07:29:42Z</time>
      </trkpt>
      <trkpt lat="43.22987" lon="5.5017">
        <ele>207</ele>
        <time>2025-10-19T07:29:43Z</time>
      </trkpt>
      <trkpt lat="43.22986" lon="5.50171">
        <ele>207.2</ele>
        <time>2025-10-19T07:29:44Z</time>
      </trkpt>
      <trkpt lat="43.22986" lon="5.50172">
        <ele>207.3</ele>
        <time>2025-10-19T07:29:45Z</time>
      </trkpt>
      <trkpt lat="43.22986" lon="5.50173">
        <ele>207.4</ele>
        <time>2025-10-19T07:29:46Z</time>
      </trkpt>
      <trkpt lat="43.22985" lon="5.50174">
        <ele>207.6</ele>
        <time>2025-10-19T07:29:47Z</time>
      </trkpt>
      <trkpt lat="43.22985" lon="5.50174">
        <ele>207.7</ele>
        <time>2025-10-19T07:29:48Z</time>
      </trkpt>
      <trkpt lat="43.22984" lon="5.50175">
        <ele>207.8</ele>
        <time>2025-10-19T07:29:49Z</time>
      </trkpt>
      <trkpt lat="43.22984" lon="5.50176">
        <ele>207.9</ele>
        <time>2025-10-19T07:29:50Z</time>
      </trkpt>
      <trkpt lat="43.22983" lon="5.50176">
        <ele>208</ele>
        <time>2025-10-19T07:29:51Z</time>
      </trkpt>
      <trkpt lat="43.22983" lon="5.50177">
        <ele>208.1</ele>
        <time>2025-10-19T07:29:52Z</time>
      </trkpt>
      <trkpt lat="43.22982" lon="5.50178">
        <ele>208.3</ele>
        <time>2025-10-19T07:29:53Z</time>
      </trkpt>
      <trkpt lat="43.22982" lon="5.50179">
        <ele>208.4</ele>
        <time>2025-10-19T07:29:54Z</time>
      </trkpt>
      <trkpt lat="43.22982" lon="5.50179">
        <ele>208.5</ele>
        <time>2025-10-19T07:29:55Z</time>
      </trkpt>
      <trkpt lat="43.22982" lon="5.5018">
        <ele>208.7</ele>
        <time>2025-10-19T07:29:56Z</time>
      </trkpt>
      <trkpt lat="43.22982" lon="5.5018">
        <ele>208.8</ele>
        <time>2025-10-19T07:29:57Z</time>
      </trkpt>
      <trkpt lat="43.22982" lon="5.50182">
        <ele>209</ele>
        <time>2025-10-19T07:29:58Z</time>
      </trkpt>
      <trkpt lat="43.22982" lon="5.50183">
        <ele>209.1</ele>
        <time>2025-10-19T07:29:59Z</time>
      </trkpt>
      <trkpt lat="43.22982" lon="5.50184">
        <ele>209.3</ele>
        <time>2025-10-19T07:30:00Z</time>
      </trkpt>
      <trkpt lat="43.22982" lon="5.50185">
        <ele>209.4</ele>
        <time>2025-10-19T07:30:01Z</time>
      </trkpt>
      <trkpt lat="43.22982" lon="5.50185">
        <ele>209.5</ele>
        <time>2025-10-19T07:30:02Z</time>
      </trkpt>
      <trkpt lat="43.22982" lon="5.50186">
        <ele>209.7</ele>
        <time>2025-10-19T07:30:03Z</time>
      </trkpt>
      <trkpt lat="43.22981" lon="5.50187">
        <ele>209.8</ele>
        <time>2025-10-19T07:30:04Z</time>
      </trkpt>
      <trkpt lat="43.22981" lon="5.50188">
        <ele>209.9</ele>
        <time>2025-10-19T07:30:05Z</time>
      </trkpt>
      <trkpt lat="43.2298" lon="5.50189">
        <ele>210</ele>
        <time>2025-10-19T07:30:06Z</time>
      </trkpt>
      <trkpt lat="43.2298" lon="5.50189">
        <ele>210.2</ele>
        <time>2025-10-19T07:30:07Z</time>
      </trkpt>
      <trkpt lat="43.2298" lon="5.5019">
        <ele>210.4</ele>
        <time>2025-10-19T07:30:08Z</time>
      </trkpt>
      <trkpt lat="43.22979" lon="5.50191">
        <ele>210.6</ele>
        <time>2025-10-19T07:30:09Z</time>
      </trkpt>
      <trkpt lat="43.22979" lon="5.50192">
        <ele>210.7</ele>
        <time>2025-10-19T07:30:10Z</time>
      </trkpt>
      <trkpt lat="43.22979" lon="5.50193">
        <ele>210.9</ele>
        <time>2025-10-19T07:30:11Z</time>
      </trkpt>
      <trkpt lat="43.22978" lon="5.50194">
        <ele>211</ele>
        <time>2025-10-19T07:30:12Z</time>
      </trkpt>
      <trkpt lat="43.22978" lon="5.50194">
        <ele>211.1</ele>
        <time>2025-10-19T07:30:13Z</time>
      </trkpt>
      <trkpt lat="43.22978" lon="5.50195">
        <ele>211.3</ele>
        <time>2025-10-19T07:30:14Z</time>
      </trkpt>
      <trkpt lat="43.22977" lon="5.50196">
        <ele>211.5</ele>
        <time>2025-10-19T07:30:15Z</time>
      </trkpt>
      <trkpt lat="43.22977" lon="5.50196">
        <ele>211.7</ele>
        <time>2025-10-19T07:30:16Z</time>
      </trkpt>
      <trkpt lat="43.22977" lon="5.50197">
        <ele>211.9</ele>
        <time>2025-10-19T07:30:17Z</time>
      </trkpt>
      <trkpt lat="43.22976" lon="5.50197">
        <ele>212.2</ele>
        <time>2025-10-19T07:30:18Z</time>
      </trkpt>
      <trkpt lat="43.22976" lon="5.50198">
        <ele>212.2</ele>
        <time>2025-10-19T07:30:19Z</time>
      </trkpt>
      <trkpt lat="43.22976" lon="5.50198">
        <ele>212.3</ele>
        <time>2025-10-19T07:30:20Z</time>
      </trkpt>
      <trkpt lat="43.22975" lon="5.50199">
        <ele>212.4</ele>
        <time>2025-10-19T07:30:21Z</time>
      </trkpt>
      <trkpt lat="43.22975" lon="5.50199">
        <ele>212.6</ele>
        <time>2025-10-19T07:30:22Z</time>
      </trkpt>
      <trkpt lat="43.22975" lon="5.502">
        <ele>212.8</ele>
        <time>2025-10-19T07:30:23Z</time>
      </trkpt>
      <trkpt lat="43.22974" lon="5.502">
        <ele>212.9</ele>
        <time>2025-10-19T07:30:24Z</time>
      </trkpt>
      <trkpt lat="43.22974" lon="5.50201">
        <ele>213</ele>
        <time>2025-10-19T07:30:25Z</time>
      </trkpt>
      <trkpt lat="43.22974" lon="5.50201">
        <ele>213</ele>
        <time>2025-10-19T07:30:26Z</time>
      </trkpt>
      <trkpt lat="43.22973" lon="5.50202">
        <ele>213</ele>
        <time>2025-10-19T07:30:27Z</time>
      </trkpt>
      <trkpt lat="43.22973" lon="5.50202">
        <ele>213.1</ele>
        <time>2025-10-19T07:30:28Z</time>
      </trkpt>
      <trkpt lat="43.22973" lon="5.50201">
        <ele>213.2</ele>
        <time>2025-10-19T07:30:29Z</time>
      </trkpt>
      <trkpt lat="43.22973" lon="5.50201">
        <ele>213.2</ele>
        <time>2025-10-19T07:30:30Z</time>
      </trkpt>
      <trkpt lat="43.22973" lon="5.50202">
        <ele>213.2</ele>
        <time>2025-10-19T07:30:31Z</time>
      </trkpt>
      <trkpt lat="43.22972" lon="5.50202">
        <ele>213.2</ele>
        <time>2025-10-19T07:30:32Z</time>
      </trkpt>
      <trkpt lat="43.22972" lon="5.50202">
        <ele>213.3</ele>
        <time>2025-10-19T07:30:33Z</time>
      </trkpt>
      <trkpt lat="43.22972" lon="5.50203">
        <ele>213.4</ele>
        <time>2025-10-19T07:30:34Z</time>
      </trkpt>
      <trkpt lat="43.22972" lon="5.50204">
        <ele>213.4</ele>
        <time>2025-10-19T07:30:35Z</time>
      </trkpt>
      <trkpt lat="43.22972" lon="5.50204">
        <ele>213.4</ele>
        <time>2025-10-19T07:30:36Z</time>
      </trkpt>
      <trkpt lat="43.22972" lon="5.50205">
        <ele>213.5</ele>
        <time>2025-10-19T07:30:37Z</time>
      </trkpt>
      <trkpt lat="43.22971" lon="5.50204">
        <ele>213.6</ele>
        <time>2025-10-19T07:30:38Z</time>
      </trkpt>
      <trkpt lat="43.22971" lon="5.50205">
        <ele>213.7</ele>
        <time>2025-10-19T07:30:39Z</time>
      </trkpt>
      <trkpt lat="43.22971" lon="5.50205">
        <ele>213.8</ele>
        <time>2025-10-19T07:30:40Z</time>
      </trkpt>
      <trkpt lat="43.22972" lon="5.50206">
        <ele>213.8</ele>
        <time>2025-10-19T07:30:41Z</time>
      </trkpt>
      <trkpt lat="43.22972" lon="5.50206">
        <ele>213.8</ele>
        <time>2025-10-19T07:30:42Z</time>
      </trkpt>
      <trkpt lat="43.22972" lon="5.50206">
        <ele>213.8</ele>
        <time>2025-10-19T07:30:43Z</time>
      </trkpt>
      <trkpt lat="43.22972" lon="5.50206">
        <ele>213.8</ele>
        <time>2025-10-19T07:30:44Z</time>
      </trkpt>
      <trkpt lat="43.22972" lon="5.50206">
        <ele>213.8</ele>
        <time>2025-10-19T07:30:45Z</time>
      </trkpt>
      <trkpt lat="43.22972" lon="5.50207">
        <ele>213.8</ele>
        <time>2025-10-19T07:30:46Z</time>
      </trkpt>
      <trkpt lat="43.22972" lon="5.50207">
        <ele>213.8</ele>
        <time>2025-10-19T07:30:47Z</time>
      </trkpt>
      <trkpt lat="43.22972" lon="5.50207">
        <ele>213.7</ele>
        <time>2025-10-19T07:30:48Z</time>
      </trkpt>
      <trkpt lat="43.22971" lon="5.50207">
        <ele>213.8</ele>
        <time>2025-10-19T07:30:49Z</time>
      </trkpt>
      <trkpt lat="43.22971" lon="5.50207">
        <ele>213.8</ele>
        <time>2025-10-19T07:30:50Z</time>
      </trkpt>
      <trkpt lat="43.22971" lon="5.50207">
        <ele>213.8</ele>
        <time>2025-10-19T07:30:51Z</time>
      </trkpt>
      <trkpt lat="43.22971" lon="5.50207">
        <ele>213.8</ele>
        <time>2025-10-19T07:30:52Z</time>
      </trkpt>
      <trkpt lat="43.22971" lon="5.50208">
        <ele>213.9</ele>
        <time>2025-10-19T07:30:53Z</time>
      </trkpt>
      <trkpt lat="43.22971" lon="5.50208">
        <ele>213.9</ele>
        <time>2025-10-19T07:30:54Z</time>
      </trkpt>
      <trkpt lat="43.22971" lon="5.50208">
        <ele>213.9</ele>
        <time>2025-10-19T07:30:55Z</time>
      </trkpt>
      <trkpt lat="43.22971" lon="5.50208">
        <ele>213.9</ele>
        <time>2025-10-19T07:30:56Z</time>
      </trkpt>
      <trkpt lat="43.22971" lon="5.50208">
        <ele>213.8</ele>
        <time>2025-10-19T07:30:57Z</time>
      </trkpt>
      <trkpt lat="43.22971" lon="5.50208">
        <ele>213.8</ele>
        <time>2025-10-19T07:30:58Z</time>
      </trkpt>
      <trkpt lat="43.22971" lon="5.50208">
        <ele>213.8</ele>
        <time>2025-10-19T07:30:59Z</time>
      </trkpt>
      <trkpt lat="43.22971" lon="5.50208">
        <ele>213.9</ele>
        <time>2025-10-19T07:31:00Z</time>
      </trkpt>
      <trkpt lat="43.22971" lon="5.50208">
        <ele>213.9</ele>
        <time>2025-10-19T07:31:01Z</time>
      </trkpt>
      <trkpt lat="43.22971" lon="5.50208">
        <ele>213.9</ele>
        <time>2025-10-19T07:31:02Z</time>
      </trkpt>
      <trkpt lat="43.22971" lon="5.50208">
        <ele>214</ele>
        <time>2025-10-19T07:31:03Z</time>
      </trkpt>
      <trkpt lat="43.22971" lon="5.50208">
        <ele>214</ele>
        <time>2025-10-19T07:31:04Z</time>
      </trkpt>
      <trkpt lat="43.22971" lon="5.50208">
        <ele>214</ele>
        <time>2025-10-19T07:31:05Z</time>
      </trkpt>
      <trkpt lat="43.22971" lon="5.50209">
        <ele>214</ele>
        <time>2025-10-19T07:31:06Z</time>
      </trkpt>
      <trkpt lat="43.22971" lon="5.50209">
        <ele>214</ele>
        <time>2025-10-19T07:31:07Z</time>
      </trkpt>
      <trkpt lat="43.22971" lon="5.50209">
        <ele>214</ele>
        <time>2025-10-19T07:31:08Z</time>
      </trkpt>
      <trkpt lat="43.2297" lon="5.50208">
        <ele>214</ele>
        <time>2025-10-19T07:31:09Z</time>
      </trkpt>
      <trkpt lat="43.2297" lon="5.50208">
        <ele>214</ele>
        <time>2025-10-19T07:31:10Z</time>
      </trkpt>
      <trkpt lat="43.2297" lon="5.50209">
        <ele>214.1</ele>
        <time>2025-10-19T07:31:11Z</time>
      </trkpt>
      <trkpt lat="43.2297" lon="5.50209">
        <ele>214.1</ele>
        <time>2025-10-19T07:31:12Z</time>
      </trkpt>
      <trkpt lat="43.22971" lon="5.50208">
        <ele>214.1</ele>
        <time>2025-10-19T07:31:13Z</time>
      </trkpt>
      <trkpt lat="43.22971" lon="5.50208">
        <ele>214.1</ele>
        <time>2025-10-19T07:31:14Z</time>
      </trkpt>
      <trkpt lat="43.22971" lon="5.50208">
        <ele>214</ele>
        <time>2025-10-19T07:31:15Z</time>
      </trkpt>
      <trkpt lat="43.22971" lon="5.50208">
        <ele>214</ele>
        <time>2025-10-19T07:31:16Z</time>
      </trkpt>
      <trkpt lat="43.22971" lon="5.50208">
        <ele>214.1</ele>
        <time>2025-10-19T07:31:17Z</time>
      </trkpt>
      <trkpt lat="43.22971" lon="5.50208">
        <ele>214.1</ele>
        <time>2025-10-19T07:31:18Z</time>
      </trkpt>
      <trkpt lat="43.22971" lon="5.50208">
        <ele>214.1</ele>
        <time>2025-10-19T07:31:19Z</time>
      </trkpt>
      <trkpt lat="43.22971" lon="5.50209">
        <ele>214.1</ele>
        <time>2025-10-19T07:31:20Z</time>
      </trkpt>
      <trkpt lat="43.22971" lon="5.50209">
        <ele>214.1</ele>
        <time>2025-10-19T07:31:21Z</time>
      </trkpt>
      <trkpt lat="43.22971" lon="5.5021">
        <ele>214.1</ele>
        <time>2025-10-19T07:31:22Z</time>
      </trkpt>
      <trkpt lat="43.2297" lon="5.5021">
        <ele>214.1</ele>
        <time>2025-10-19T07:31:23Z</time>
      </trkpt>
      <trkpt lat="43.2297" lon="5.50211">
        <ele>214.1</ele>
        <time>2025-10-19T07:31:24Z</time>
      </trkpt>
      <trkpt lat="43.2297" lon="5.50211">
        <ele>214.2</ele>
        <time>2025-10-19T07:31:25Z</time>
      </trkpt>
      <trkpt lat="43.2297" lon="5.50212">
        <ele>214.3</ele>
        <time>2025-10-19T07:31:26Z</time>
      </trkpt>
      <trkpt lat="43.2297" lon="5.50212">
        <ele>214.3</ele>
        <time>2025-10-19T07:31:27Z</time>
      </trkpt>
      <trkpt lat="43.22969" lon="5.50213">
        <ele>214.4</ele>
        <time>2025-10-19T07:31:28Z</time>
      </trkpt>
      <trkpt lat="43.22969" lon="5.50214">
        <ele>214.5</ele>
        <time>2025-10-19T07:31:29Z</time>
      </trkpt>
      <trkpt lat="43.22969" lon="5.50214">
        <ele>214.6</ele>
        <time>2025-10-19T07:31:30Z</time>
      </trkpt>
      <trkpt lat="43.22969" lon="5.50215">
        <ele>214.6</ele>
        <time>2025-10-19T07:31:31Z</time>
      </trkpt>
      <trkpt lat="43.22969" lon="5.50216">
        <ele>214.7</ele>
        <time>2025-10-19T07:31:32Z</time>
      </trkpt>
      <trkpt lat="43.22969" lon="5.50216">
        <ele>214.9</ele>
        <time>2025-10-19T07:31:33Z</time>
      </trkpt>
      <trkpt lat="43.22969" lon="5.50217">
        <ele>215</ele>
        <time>2025-10-19T07:31:34Z</time>
      </trkpt>
      <trkpt lat="43.22969" lon="5.50218">
        <ele>215</ele>
        <time>2025-10-19T07:31:35Z</time>
      </trkpt>
      <trkpt lat="43.22969" lon="5.50218">
        <ele>215.1</ele>
        <time>2025-10-19T07:31:36Z</time>
      </trkpt>
      <trkpt lat="43.22968" lon="5.50219">
        <ele>215.2</ele>
        <time>2025-10-19T07:31:37Z</time>
      </trkpt>
      <trkpt lat="43.22968" lon="5.5022">
        <ele>215.3</ele>
        <time>2025-10-19T07:31:38Z</time>
      </trkpt>
      <trkpt lat="43.22968" lon="5.5022">
        <ele>215.3</ele>
        <time>2025-10-19T07:31:39Z</time>
      </trkpt>
      <trkpt lat="43.22968" lon="5.5022">
        <ele>215.5</ele>
        <time>2025-10-19T07:31:40Z</time>
      </trkpt>
      <trkpt lat="43.22967" lon="5.50221">
        <ele>215.6</ele>
        <time>2025-10-19T07:31:41Z</time>
      </trkpt>
      <trkpt lat="43.22967" lon="5.50222">
        <ele>215.6</ele>
        <time>2025-10-19T07:31:42Z</time>
      </trkpt>
      <trkpt lat="43.22967" lon="5.50222">
        <ele>215.8</ele>
        <time>2025-10-19T07:31:43Z</time>
      </trkpt>
      <trkpt lat="43.22967" lon="5.50223">
        <ele>216</ele>
        <time>2025-10-19T07:31:44Z</time>
      </trkpt>
      <trkpt lat="43.22967" lon="5.50223">
        <ele>216.1</ele>
        <time>2025-10-19T07:31:45Z</time>
      </trkpt>
      <trkpt lat="43.22967" lon="5.50224">
        <ele>216.2</ele>
        <time>2025-10-19T07:31:46Z</time>
      </trkpt>
      <trkpt lat="43.22967" lon="5.50224">
        <ele>216.2</ele>
        <time>2025-10-19T07:31:47Z</time>
      </trkpt>
      <trkpt lat="43.22967" lon="5.50224">
        <ele>216.3</ele>
        <time>2025-10-19T07:31:48Z</time>
      </trkpt>
      <trkpt lat="43.22967" lon="5.50224">
        <ele>216.3</ele>
        <time>2025-10-19T07:31:49Z</time>
      </trkpt>
      <trkpt lat="43.22967" lon="5.50223">
        <ele>216.3</ele>
        <time>2025-10-19T07:31:50Z</time>
      </trkpt>
      <trkpt lat="43.22967" lon="5.50224">
        <ele>216.4</ele>
        <time>2025-10-19T07:31:51Z</time>
      </trkpt>
      <trkpt lat="43.22967" lon="5.50224">
        <ele>216.4</ele>
        <time>2025-10-19T07:31:52Z</time>
      </trkpt>
      <trkpt lat="43.22966" lon="5.50224">
        <ele>216.5</ele>
        <time>2025-10-19T07:31:53Z</time>
      </trkpt>
      <trkpt lat="43.22966" lon="5.50225">
        <ele>216.5</ele>
        <time>2025-10-19T07:31:54Z</time>
      </trkpt>
      <trkpt lat="43.22966" lon="5.50226">
        <ele>216.5</ele>
        <time>2025-10-19T07:31:55Z</time>
      </trkpt>
      <trkpt lat="43.22965" lon="5.50226">
        <ele>216.4</ele>
        <time>2025-10-19T07:31:56Z</time>
      </trkpt>
      <trkpt lat="43.22965" lon="5.50227">
        <ele>216.5</ele>
        <time>2025-10-19T07:31:57Z</time>
      </trkpt>
      <trkpt lat="43.22964" lon="5.50227">
        <ele>216.7</ele>
        <time>2025-10-19T07:31:58Z</time>
      </trkpt>
      <trkpt lat="43.22964" lon="5.50228">
        <ele>216.8</ele>
        <time>2025-10-19T07:31:59Z</time>
      </trkpt>
      <trkpt lat="43.22964" lon="5.50229">
        <ele>216.9</ele>
        <time>2025-10-19T07:32:00Z</time>
      </trkpt>
      <trkpt lat="43.22964" lon="5.5023">
        <ele>217</ele>
        <time>2025-10-19T07:32:01Z</time>
      </trkpt>
      <trkpt lat="43.22964" lon="5.50231">
        <ele>217.1</ele>
        <time>2025-10-19T07:32:02Z</time>
      </trkpt>
      <trkpt lat="43.22964" lon="5.50231">
        <ele>217.3</ele>
        <time>2025-10-19T07:32:03Z</time>
      </trkpt>
      <trkpt lat="43.22963" lon="5.50232">
        <ele>217.6</ele>
        <time>2025-10-19T07:32:04Z</time>
      </trkpt>
      <trkpt lat="43.22963" lon="5.50233">
        <ele>217.8</ele>
        <time>2025-10-19T07:32:05Z</time>
      </trkpt>
      <trkpt lat="43.22963" lon="5.50233">
        <ele>217.8</ele>
        <time>2025-10-19T07:32:06Z</time>
      </trkpt>
      <trkpt lat="43.22962" lon="5.50234">
        <ele>217.8</ele>
        <time>2025-10-19T07:32:07Z</time>
      </trkpt>
      <trkpt lat="43.22962" lon="5.50235">
        <ele>218</ele>
        <time>2025-10-19T07:32:08Z</time>
      </trkpt>
      <trkpt lat="43.22961" lon="5.50236">
        <ele>218</ele>
        <time>2025-10-19T07:32:09Z</time>
      </trkpt>
      <trkpt lat="43.22961" lon="5.50237">
        <ele>218.2</ele>
        <time>2025-10-19T07:32:10Z</time>
      </trkpt>
      <trkpt lat="43.2296" lon="5.50237">
        <ele>218.3</ele>
        <time>2025-10-19T07:32:11Z</time>
      </trkpt>
      <trkpt lat="43.2296" lon="5.50238">
        <ele>218.3</ele>
        <time>2025-10-19T07:32:12Z</time>
      </trkpt>
      <trkpt lat="43.2296" lon="5.50239">
        <ele>218.4</ele>
        <time>2025-10-19T07:32:13Z</time>
      </trkpt>
      <trkpt lat="43.2296" lon="5.5024">
        <ele>218.5</ele>
        <time>2025-10-19T07:32:14Z</time>
      </trkpt>
      <trkpt lat="43.2296" lon="5.50241">
        <ele>218.6</ele>
        <time>2025-10-19T07:32:15Z</time>
      </trkpt>
      <trkpt lat="43.2296" lon="5.50242">
        <ele>218.7</ele>
        <time>2025-10-19T07:32:16Z</time>
      </trkpt>
      <trkpt lat="43.22959" lon="5.50243">
        <ele>218.8</ele>
        <time>2025-10-19T07:32:17Z</time>
      </trkpt>
      <trkpt lat="43.22958" lon="5.50244">
        <ele>218.8</ele>
        <time>2025-10-19T07:32:18Z</time>
      </trkpt>
      <trkpt lat="43.22958" lon="5.50245">
        <ele>218.9</ele>
        <time>2025-10-19T07:32:19Z</time>
      </trkpt>
      <trkpt lat="43.22958" lon="5.50246">
        <ele>219</ele>
        <time>2025-10-19T07:32:20Z</time>
      </trkpt>
      <trkpt lat="43.22957" lon="5.50247">
        <ele>219.1</ele>
        <time>2025-10-19T07:32:21Z</time>
      </trkpt>
      <trkpt lat="43.22957" lon="5.50247">
        <ele>219.1</ele>
        <time>2025-10-19T07:32:22Z</time>
      </trkpt>
      <trkpt lat="43.22957" lon="5.50248">
        <ele>219.2</ele>
        <time>2025-10-19T07:32:23Z</time>
      </trkpt>
      <trkpt lat="43.22956" lon="5.50248">
        <ele>219.3</ele>
        <time>2025-10-19T07:32:24Z</time>
      </trkpt>
      <trkpt lat="43.22956" lon="5.50249">
        <ele>219.4</ele>
        <time>2025-10-19T07:32:25Z</time>
      </trkpt>
      <trkpt lat="43.22955" lon="5.5025">
        <ele>219.5</ele>
        <time>2025-10-19T07:32:26Z</time>
      </trkpt>
      <trkpt lat="43.22955" lon="5.50251">
        <ele>219.6</ele>
        <time>2025-10-19T07:32:27Z</time>
      </trkpt>
      <trkpt lat="43.22954" lon="5.50252">
        <ele>219.7</ele>
        <time>2025-10-19T07:32:28Z</time>
      </trkpt>
      <trkpt lat="43.22954" lon="5.50252">
        <ele>219.8</ele>
        <time>2025-10-19T07:32:29Z</time>
      </trkpt>
      <trkpt lat="43.22953" lon="5.50253">
        <ele>219.8</ele>
        <time>2025-10-19T07:32:30Z</time>
      </trkpt>
      <trkpt lat="43.22952" lon="5.50254">
        <ele>219.9</ele>
        <time>2025-10-19T07:32:31Z</time>
      </trkpt>
      <trkpt lat="43.22952" lon="5.50254">
        <ele>220</ele>
        <time>2025-10-19T07:32:32Z</time>
      </trkpt>
      <trkpt lat="43.22951" lon="5.50255">
        <ele>220.1</ele>
        <time>2025-10-19T07:32:33Z</time>
      </trkpt>
      <trkpt lat="43.22951" lon="5.50255">
        <ele>220.2</ele>
        <time>2025-10-19T07:32:34Z</time>
      </trkpt>
      <trkpt lat="43.22951" lon="5.50255">
        <ele>220.3</ele>
        <time>2025-10-19T07:32:35Z</time>
      </trkpt>
      <trkpt lat="43.2295" lon="5.50256">
        <ele>220.3</ele>
        <time>2025-10-19T07:32:36Z</time>
      </trkpt>
      <trkpt lat="43.22949" lon="5.50256">
        <ele>220.4</ele>
        <time>2025-10-19T07:32:37Z</time>
      </trkpt>
      <trkpt lat="43.22948" lon="5.50257">
        <ele>220.6</ele>
        <time>2025-10-19T07:32:38Z</time>
      </trkpt>
      <trkpt lat="43.22947" lon="5.50257">
        <ele>220.9</ele>
        <time>2025-10-19T07:32:39Z</time>
      </trkpt>
      <trkpt lat="43.22946" lon="5.50258">
        <ele>221.1</ele>
        <time>2025-10-19T07:32:40Z</time>
      </trkpt>
      <trkpt lat="43.22946" lon="5.50258">
        <ele>221.3</ele>
        <time>2025-10-19T07:32:41Z</time>
      </trkpt>
      <trkpt lat="43.22945" lon="5.50259">
        <ele>221.4</ele>
        <time>2025-10-19T07:32:42Z</time>
      </trkpt>
      <trkpt lat="43.22945" lon="5.5026">
        <ele>221.5</ele>
        <time>2025-10-19T07:32:43Z</time>
      </trkpt>
      <trkpt lat="43.22944" lon="5.50261">
        <ele>221.6</ele>
        <time>2025-10-19T07:32:44Z</time>
      </trkpt>
      <trkpt lat="43.22944" lon="5.50261">
        <ele>221.7</ele>
        <time>2025-10-19T07:32:45Z</time>
      </trkpt>
      <trkpt lat="43.22943" lon="5.50262">
        <ele>221.8</ele>
        <time>2025-10-19T07:32:46Z</time>
      </trkpt>
      <trkpt lat="43.22943" lon="5.50263">
        <ele>221.9</ele>
        <time>2025-10-19T07:32:47Z</time>
      </trkpt>
      <trkpt lat="43.22942" lon="5.50264">
        <ele>222</ele>
        <time>2025-10-19T07:32:48Z</time>
      </trkpt>
      <trkpt lat="43.22942" lon="5.50266">
        <ele>222.1</ele>
        <time>2025-10-19T07:32:49Z</time>
      </trkpt>
      <trkpt lat="43.22941" lon="5.50267">
        <ele>222.2</ele>
        <time>2025-10-19T07:32:50Z</time>
      </trkpt>
      <trkpt lat="43.22941" lon="5.50267">
        <ele>222.2</ele>
        <time>2025-10-19T07:32:51Z</time>
      </trkpt>
      <trkpt lat="43.2294" lon="5.50268">
        <ele>222.3</ele>
        <time>2025-10-19T07:32:52Z</time>
      </trkpt>
      <trkpt lat="43.2294" lon="5.50269">
        <ele>222.4</ele>
        <time>2025-10-19T07:32:53Z</time>
      </trkpt>
      <trkpt lat="43.22939" lon="5.50269">
        <ele>222.5</ele>
        <time>2025-10-19T07:32:54Z</time>
      </trkpt>
      <trkpt lat="43.22939" lon="5.50269">
        <ele>222.6</ele>
        <time>2025-10-19T07:32:55Z</time>
      </trkpt>
      <trkpt lat="43.22938" lon="5.5027">
        <ele>222.7</ele>
        <time>2025-10-19T07:32:56Z</time>
      </trkpt>
      <trkpt lat="43.22938" lon="5.5027">
        <ele>222.8</ele>
        <time>2025-10-19T07:32:57Z</time>
      </trkpt>
      <trkpt lat="43.22937" lon="5.50271">
        <ele>222.9</ele>
        <time>2025-10-19T07:32:58Z</time>
      </trkpt>
      <trkpt lat="43.22937" lon="5.50271">
        <ele>223</ele>
        <time>2025-10-19T07:32:59Z</time>
      </trkpt>
      <trkpt lat="43.22936" lon="5.50272">
        <ele>223.1</ele>
        <time>2025-10-19T07:33:00Z</time>
      </trkpt>
      <trkpt lat="43.22936" lon="5.50272">
        <ele>223.2</ele>
        <time>2025-10-19T07:33:01Z</time>
      </trkpt>
      <trkpt lat="43.22935" lon="5.50273">
        <ele>223.3</ele>
        <time>2025-10-19T07:33:02Z</time>
      </trkpt>
      <trkpt lat="43.22935" lon="5.50274">
        <ele>223.4</ele>
        <time>2025-10-19T07:33:03Z</time>
      </trkpt>
      <trkpt lat="43.22934" lon="5.50275">
        <ele>223.5</ele>
        <time>2025-10-19T07:33:04Z</time>
      </trkpt>
      <trkpt lat="43.22934" lon="5.50276">
        <ele>223.6</ele>
        <time>2025-10-19T07:33:05Z</time>
      </trkpt>
      <trkpt lat="43.22933" lon="5.50277">
        <ele>223.8</ele>
        <time>2025-10-19T07:33:06Z</time>
      </trkpt>
      <trkpt lat="43.22933" lon="5.50277">
        <ele>224</ele>
        <time>2025-10-19T07:33:07Z</time>
      </trkpt>
      <trkpt lat="43.22933" lon="5.50278">
        <ele>224</ele>
        <time>2025-10-19T07:33:08Z</time>
      </trkpt>
      <trkpt lat="43.22932" lon="5.50279">
        <ele>224.1</ele>
        <time>2025-10-19T07:33:09Z</time>
      </trkpt>
      <trkpt lat="43.22932" lon="5.5028">
        <ele>224.2</ele>
        <time>2025-10-19T07:33:10Z</time>
      </trkpt>
      <trkpt lat="43.22931" lon="5.5028">
        <ele>224.4</ele>
        <time>2025-10-19T07:33:11Z</time>
      </trkpt>
      <trkpt lat="43.2293" lon="5.50281">
        <ele>224.4</ele>
        <time>2025-10-19T07:33:12Z</time>
      </trkpt>
      <trkpt lat="43.2293" lon="5.50282">
        <ele>224.4</ele>
        <time>2025-10-19T07:33:13Z</time>
      </trkpt>
      <trkpt lat="43.22929" lon="5.50283">
        <ele>224.5</ele>
        <time>2025-10-19T07:33:14Z</time>
      </trkpt>
      <trkpt lat="43.22929" lon="5.50284">
        <ele>224.6</ele>
        <time>2025-10-19T07:33:15Z</time>
      </trkpt>
      <trkpt lat="43.22929" lon="5.50284">
        <ele>224.7</ele>
        <time>2025-10-19T07:33:16Z</time>
      </trkpt>
      <trkpt lat="43.22928" lon="5.50285">
        <ele>224.9</ele>
        <time>2025-10-19T07:33:17Z</time>
      </trkpt>
      <trkpt lat="43.22928" lon="5.50285">
        <ele>225</ele>
        <time>2025-10-19T07:33:18Z</time>
      </trkpt>
      <trkpt lat="43.22927" lon="5.50285">
        <ele>225.1</ele>
        <time>2025-10-19T07:33:19Z</time>
      </trkpt>
      <trkpt lat="43.22926" lon="5.50286">
        <ele>225.2</ele>
        <time>2025-10-19T07:33:20Z</time>
      </trkpt>
      <trkpt lat="43.22925" lon="5.50287">
        <ele>225.2</ele>
        <time>2025-10-19T07:33:21Z</time>
      </trkpt>
      <trkpt lat="43.22925" lon="5.50287">
        <ele>225.3</ele>
        <time>2025-10-19T07:33:22Z</time>
      </trkpt>
      <trkpt lat="43.22924" lon="5.50288">
        <ele>225.4</ele>
        <time>2025-10-19T07:33:23Z</time>
      </trkpt>
      <trkpt lat="43.22923" lon="5.50289">
        <ele>225.4</ele>
        <time>2025-10-19T07:33:24Z</time>
      </trkpt>
      <trkpt lat="43.22923" lon="5.5029">
        <ele>225.5</ele>
        <time>2025-10-19T07:33:25Z</time>
      </trkpt>
      <trkpt lat="43.22923" lon="5.50291">
        <ele>225.6</ele>
        <time>2025-10-19T07:33:26Z</time>
      </trkpt>
      <trkpt lat="43.22922" lon="5.50292">
        <ele>225.7</ele>
        <time>2025-10-19T07:33:27Z</time>
      </trkpt>
      <trkpt lat="43.22922" lon="5.50294">
        <ele>225.8</ele>
        <time>2025-10-19T07:33:28Z</time>
      </trkpt>
      <trkpt lat="43.22921" lon="5.50294">
        <ele>225.9</ele>
        <time>2025-10-19T07:33:29Z</time>
      </trkpt>
      <trkpt lat="43.22921" lon="5.50295">
        <ele>226</ele>
        <time>2025-10-19T07:33:30Z</time>
      </trkpt>
      <trkpt lat="43.2292" lon="5.50295">
        <ele>226.1</ele>
        <time>2025-10-19T07:33:31Z</time>
      </trkpt>
      <trkpt lat="43.2292" lon="5.50297">
        <ele>226.2</ele>
        <time>2025-10-19T07:33:32Z</time>
      </trkpt>
      <trkpt lat="43.22919" lon="5.50297">
        <ele>226.5</ele>
        <time>2025-10-19T07:33:33Z</time>
      </trkpt>
      <trkpt lat="43.22919" lon="5.50297">
        <ele>226.7</ele>
        <time>2025-10-19T07:33:34Z</time>
      </trkpt>
      <trkpt lat="43.22918" lon="5.50298">
        <ele>226.7</ele>
        <time>2025-10-19T07:33:35Z</time>
      </trkpt>
      <trkpt lat="43.22917" lon="5.50299">
        <ele>226.8</ele>
        <time>2025-10-19T07:33:36Z</time>
      </trkpt>
      <trkpt lat="43.22916" lon="5.503">
        <ele>226.9</ele>
        <time>2025-10-19T07:33:37Z</time>
      </trkpt>
      <trkpt lat="43.22915" lon="5.50301">
        <ele>227.1</ele>
        <time>2025-10-19T07:33:38Z</time>
      </trkpt>
      <trkpt lat="43.22915" lon="5.50302">
        <ele>227.2</ele>
        <time>2025-10-19T07:33:39Z</time>
      </trkpt>
      <trkpt lat="43.22914" lon="5.50303">
        <ele>227.4</ele>
        <time>2025-10-19T07:33:40Z</time>
      </trkpt>
      <trkpt lat="43.22913" lon="5.50304">
        <ele>227.5</ele>
        <time>2025-10-19T07:33:41Z</time>
      </trkpt>
      <trkpt lat="43.22913" lon="5.50305">
        <ele>227.6</ele>
        <time>2025-10-19T07:33:42Z</time>
      </trkpt>
      <trkpt lat="43.22912" lon="5.50307">
        <ele>227.7</ele>
        <time>2025-10-19T07:33:43Z</time>
      </trkpt>
      <trkpt lat="43.22912" lon="5.50307">
        <ele>227.8</ele>
        <time>2025-10-19T07:33:44Z</time>
      </trkpt>
      <trkpt lat="43.22911" lon="5.50308">
        <ele>227.9</ele>
        <time>2025-10-19T07:33:45Z</time>
      </trkpt>
      <trkpt lat="43.2291" lon="5.50309">
        <ele>228</ele>
        <time>2025-10-19T07:33:46Z</time>
      </trkpt>
      <trkpt lat="43.2291" lon="5.5031">
        <ele>228.2</ele>
        <time>2025-10-19T07:33:47Z</time>
      </trkpt>
      <trkpt lat="43.22909" lon="5.50311">
        <ele>228.3</ele>
        <time>2025-10-19T07:33:48Z</time>
      </trkpt>
      <trkpt lat="43.22909" lon="5.50312">
        <ele>228.4</ele>
        <time>2025-10-19T07:33:49Z</time>
      </trkpt>
      <trkpt lat="43.22908" lon="5.50312">
        <ele>228.5</ele>
        <time>2025-10-19T07:33:50Z</time>
      </trkpt>
      <trkpt lat="43.22908" lon="5.50313">
        <ele>228.6</ele>
        <time>2025-10-19T07:33:51Z</time>
      </trkpt>
      <trkpt lat="43.22907" lon="5.50314">
        <ele>228.7</ele>
        <time>2025-10-19T07:33:52Z</time>
      </trkpt>
      <trkpt lat="43.22907" lon="5.50315">
        <ele>228.7</ele>
        <time>2025-10-19T07:33:53Z</time>
      </trkpt>
      <trkpt lat="43.22906" lon="5.50315">
        <ele>228.8</ele>
        <time>2025-10-19T07:33:54Z</time>
      </trkpt>
      <trkpt lat="43.22906" lon="5.50317">
        <ele>228.8</ele>
        <time>2025-10-19T07:33:55Z</time>
      </trkpt>
      <trkpt lat="43.22906" lon="5.50318">
        <ele>228.8</ele>
        <time>2025-10-19T07:33:56Z</time>
      </trkpt>
      <trkpt lat="43.22905" lon="5.50319">
        <ele>228.9</ele>
        <time>2025-10-19T07:33:57Z</time>
      </trkpt>
      <trkpt lat="43.22905" lon="5.5032">
        <ele>228.9</ele>
        <time>2025-10-19T07:33:58Z</time>
      </trkpt>
      <trkpt lat="43.22905" lon="5.50322">
        <ele>229</ele>
        <time>2025-10-19T07:33:59Z</time>
      </trkpt>
      <trkpt lat="43.22905" lon="5.50323">
        <ele>229.1</ele>
        <time>2025-10-19T07:34:00Z</time>
      </trkpt>
      <trkpt lat="43.22904" lon="5.50324">
        <ele>229.2</ele>
        <time>2025-10-19T07:34:01Z</time>
      </trkpt>
      <trkpt lat="43.22904" lon="5.50325">
        <ele>229.3</ele>
        <time>2025-10-19T07:34:02Z</time>
      </trkpt>
      <trkpt lat="43.22904" lon="5.50326">
        <ele>229.4</ele>
        <time>2025-10-19T07:34:03Z</time>
      </trkpt>
      <trkpt lat="43.22903" lon="5.50327">
        <ele>229.4</ele>
        <time>2025-10-19T07:34:04Z</time>
      </trkpt>
      <trkpt lat="43.22902" lon="5.50328">
        <ele>229.4</ele>
        <time>2025-10-19T07:34:05Z</time>
      </trkpt>
      <trkpt lat="43.22902" lon="5.50329">
        <ele>229.5</ele>
        <time>2025-10-19T07:34:06Z</time>
      </trkpt>
      <trkpt lat="43.22901" lon="5.50329">
        <ele>229.6</ele>
        <time>2025-10-19T07:34:07Z</time>
      </trkpt>
      <trkpt lat="43.229" lon="5.5033">
        <ele>229.6</ele>
        <time>2025-10-19T07:34:08Z</time>
      </trkpt>
      <trkpt lat="43.22899" lon="5.5033">
        <ele>229.7</ele>
        <time>2025-10-19T07:34:09Z</time>
      </trkpt>
      <trkpt lat="43.22899" lon="5.50331">
        <ele>229.8</ele>
        <time>2025-10-19T07:34:10Z</time>
      </trkpt>
      <trkpt lat="43.22899" lon="5.50332">
        <ele>229.8</ele>
        <time>2025-10-19T07:34:11Z</time>
      </trkpt>
      <trkpt lat="43.22898" lon="5.50333">
        <ele>229.9</ele>
        <time>2025-10-19T07:34:12Z</time>
      </trkpt>
      <trkpt lat="43.22897" lon="5.50333">
        <ele>229.9</ele>
        <time>2025-10-19T07:34:13Z</time>
      </trkpt>
      <trkpt lat="43.22897" lon="5.50334">
        <ele>230</ele>
        <time>2025-10-19T07:34:14Z</time>
      </trkpt>
      <trkpt lat="43.22896" lon="5.50335">
        <ele>230.1</ele>
        <time>2025-10-19T07:34:15Z</time>
      </trkpt>
      <trkpt lat="43.22896" lon="5.50335">
        <ele>230.2</ele>
        <time>2025-10-19T07:34:16Z</time>
      </trkpt>
      <trkpt lat="43.22895" lon="5.50336">
        <ele>230.4</ele>
        <time>2025-10-19T07:34:17Z</time>
      </trkpt>
      <trkpt lat="43.22894" lon="5.50336">
        <ele>230.5</ele>
        <time>2025-10-19T07:34:18Z</time>
      </trkpt>
      <trkpt lat="43.22893" lon="5.50337">
        <ele>230.7</ele>
        <time>2025-10-19T07:34:19Z</time>
      </trkpt>
      <trkpt lat="43.22893" lon="5.50338">
        <ele>230.9</ele>
        <time>2025-10-19T07:34:20Z</time>
      </trkpt>
      <trkpt lat="43.22893" lon="5.50339">
        <ele>231</ele>
        <time>2025-10-19T07:34:21Z</time>
      </trkpt>
      <trkpt lat="43.22892" lon="5.5034">
        <ele>231</ele>
        <time>2025-10-19T07:34:22Z</time>
      </trkpt>
      <trkpt lat="43.22892" lon="5.50341">
        <ele>231.1</ele>
        <time>2025-10-19T07:34:23Z</time>
      </trkpt>
      <trkpt lat="43.22891" lon="5.50342">
        <ele>231.1</ele>
        <time>2025-10-19T07:34:24Z</time>
      </trkpt>
      <trkpt lat="43.2289" lon="5.50343">
        <ele>231.2</ele>
        <time>2025-10-19T07:34:25Z</time>
      </trkpt>
      <trkpt lat="43.2289" lon="5.50343">
        <ele>231.4</ele>
        <time>2025-10-19T07:34:26Z</time>
      </trkpt>
      <trkpt lat="43.22889" lon="5.50344">
        <ele>231.5</ele>
        <time>2025-10-19T07:34:27Z</time>
      </trkpt>
      <trkpt lat="43.22888" lon="5.50344">
        <ele>231.6</ele>
        <time>2025-10-19T07:34:28Z</time>
      </trkpt>
      <trkpt lat="43.22887" lon="5.50345">
        <ele>231.7</ele>
        <time>2025-10-19T07:34:29Z</time>
      </trkpt>
      <trkpt lat="43.22887" lon="5.50345">
        <ele>231.9</ele>
        <time>2025-10-19T07:34:30Z</time>
      </trkpt>
      <trkpt lat="43.22886" lon="5.50346">
        <ele>232</ele>
        <time>2025-10-19T07:34:31Z</time>
      </trkpt>
      <trkpt lat="43.22885" lon="5.50347">
        <ele>232.1</ele>
        <time>2025-10-19T07:34:32Z</time>
      </trkpt>
      <trkpt lat="43.22885" lon="5.50347">
        <ele>232.2</ele>
        <time>2025-10-19T07:34:33Z</time>
      </trkpt>
      <trkpt lat="43.22884" lon="5.50347">
        <ele>232.3</ele>
        <time>2025-10-19T07:34:34Z</time>
      </trkpt>
      <trkpt lat="43.22883" lon="5.50348">
        <ele>232.4</ele>
        <time>2025-10-19T07:34:35Z</time>
      </trkpt>
      <trkpt lat="43.22882" lon="5.50349">
        <ele>232.5</ele>
        <time>2025-10-19T07:34:36Z</time>
      </trkpt>
      <trkpt lat="43.22882" lon="5.5035">
        <ele>232.6</ele>
        <time>2025-10-19T07:34:37Z</time>
      </trkpt>
      <trkpt lat="43.22881" lon="5.50351">
        <ele>232.7</ele>
        <time>2025-10-19T07:34:38Z</time>
      </trkpt>
      <trkpt lat="43.2288" lon="5.50351">
        <ele>232.8</ele>
        <time>2025-10-19T07:34:39Z</time>
      </trkpt>
      <trkpt lat="43.2288" lon="5.50353">
        <ele>232.9</ele>
        <time>2025-10-19T07:34:40Z</time>
      </trkpt>
      <trkpt lat="43.2288" lon="5.50354">
        <ele>232.9</ele>
        <time>2025-10-19T07:34:41Z</time>
      </trkpt>
      <trkpt lat="43.2288" lon="5.50354">
        <ele>232.9</ele>
        <time>2025-10-19T07:34:42Z</time>
      </trkpt>
      <trkpt lat="43.22879" lon="5.50356">
        <ele>233</ele>
        <time>2025-10-19T07:34:43Z</time>
      </trkpt>
      <trkpt lat="43.22879" lon="5.50356">
        <ele>233</ele>
        <time>2025-10-19T07:34:44Z</time>
      </trkpt>
      <trkpt lat="43.22878" lon="5.50357">
        <ele>233</ele>
        <time>2025-10-19T07:34:45Z</time>
      </trkpt>
      <trkpt lat="43.22878" lon="5.50358">
        <ele>233</ele>
        <time>2025-10-19T07:34:46Z</time>
      </trkpt>
      <trkpt lat="43.22877" lon="5.50359">
        <ele>233</ele>
        <time>2025-10-19T07:34:47Z</time>
      </trkpt>
      <trkpt lat="43.22876" lon="5.50359">
        <ele>233.1</ele>
        <time>2025-10-19T07:34:48Z</time>
      </trkpt>
      <trkpt lat="43.22876" lon="5.5036">
        <ele>233.2</ele>
        <time>2025-10-19T07:34:49Z</time>
      </trkpt>
      <trkpt lat="43.22875" lon="5.50361">
        <ele>233.3</ele>
        <time>2025-10-19T07:34:50Z</time>
      </trkpt>
      <trkpt lat="43.22874" lon="5.50361">
        <ele>233.3</ele>
        <time>2025-10-19T07:34:51Z</time>
      </trkpt>
      <trkpt lat="43.22874" lon="5.50362">
        <ele>233.3</ele>
        <time>2025-10-19T07:34:52Z</time>
      </trkpt>
      <trkpt lat="43.22873" lon="5.50363">
        <ele>233.3</ele>
        <time>2025-10-19T07:34:53Z</time>
      </trkpt>
      <trkpt lat="43.22872" lon="5.50364">
        <ele>233.3</ele>
        <time>2025-10-19T07:34:54Z</time>
      </trkpt>
      <trkpt lat="43.22872" lon="5.50364">
        <ele>233.3</ele>
        <time>2025-10-19T07:34:55Z</time>
      </trkpt>
      <trkpt lat="43.22871" lon="5.50365">
        <ele>233.4</ele>
        <time>2025-10-19T07:34:56Z</time>
      </trkpt>
      <trkpt lat="43.2287" lon="5.50366">
        <ele>233.5</ele>
        <time>2025-10-19T07:34:57Z</time>
      </trkpt>
      <trkpt lat="43.2287" lon="5.50367">
        <ele>233.5</ele>
        <time>2025-10-19T07:34:58Z</time>
      </trkpt>
      <trkpt lat="43.22869" lon="5.50368">
        <ele>233.7</ele>
        <time>2025-10-19T07:34:59Z</time>
      </trkpt>
      <trkpt lat="43.22868" lon="5.50368">
        <ele>233.8</ele>
        <time>2025-10-19T07:35:00Z</time>
      </trkpt>
      <trkpt lat="43.22868" lon="5.50368">
        <ele>233.8</ele>
        <time>2025-10-19T07:35:01Z</time>
      </trkpt>
      <trkpt lat="43.22867" lon="5.50369">
        <ele>233.9</ele>
        <time>2025-10-19T07:35:02Z</time>
      </trkpt>
      <trkpt lat="43.22867" lon="5.5037">
        <ele>234.1</ele>
        <time>2025-10-19T07:35:03Z</time>
      </trkpt>
      <trkpt lat="43.22866" lon="5.5037">
        <ele>234.1</ele>
        <time>2025-10-19T07:35:04Z</time>
      </trkpt>
      <trkpt lat="43.22866" lon="5.50371">
        <ele>234.2</ele>
        <time>2025-10-19T07:35:05Z</time>
      </trkpt>
      <trkpt lat="43.22865" lon="5.50371">
        <ele>234.3</ele>
        <time>2025-10-19T07:35:06Z</time>
      </trkpt>
      <trkpt lat="43.22865" lon="5.50372">
        <ele>234.4</ele>
        <time>2025-10-19T07:35:07Z</time>
      </trkpt>
      <trkpt lat="43.22865" lon="5.50373">
        <ele>234.4</ele>
        <time>2025-10-19T07:35:08Z</time>
      </trkpt>
      <trkpt lat="43.22864" lon="5.50373">
        <ele>234.6</ele>
        <time>2025-10-19T07:35:09Z</time>
      </trkpt>
      <trkpt lat="43.22864" lon="5.50373">
        <ele>234.7</ele>
        <time>2025-10-19T07:35:10Z</time>
      </trkpt>
      <trkpt lat="43.22863" lon="5.50374">
        <ele>234.8</ele>
        <time>2025-10-19T07:35:11Z</time>
      </trkpt>
      <trkpt lat="43.22863" lon="5.50374">
        <ele>234.8</ele>
        <time>2025-10-19T07:35:12Z</time>
      </trkpt>
      <trkpt lat="43.22862" lon="5.50375">
        <ele>234.9</ele>
        <time>2025-10-19T07:35:13Z</time>
      </trkpt>
      <trkpt lat="43.22861" lon="5.50376">
        <ele>234.9</ele>
        <time>2025-10-19T07:35:14Z</time>
      </trkpt>
      <trkpt lat="43.22861" lon="5.50376">
        <ele>235</ele>
        <time>2025-10-19T07:35:15Z</time>
      </trkpt>
      <trkpt lat="43.2286" lon="5.50376">
        <ele>235</ele>
        <time>2025-10-19T07:35:16Z</time>
      </trkpt>
      <trkpt lat="43.2286" lon="5.50377">
        <ele>234.9</ele>
        <time>2025-10-19T07:35:17Z</time>
      </trkpt>
      <trkpt lat="43.22859" lon="5.50377">
        <ele>234.9</ele>
        <time>2025-10-19T07:35:18Z</time>
      </trkpt>
      <trkpt lat="43.22858" lon="5.50378">
        <ele>235</ele>
        <time>2025-10-19T07:35:19Z</time>
      </trkpt>
      <trkpt lat="43.22856" lon="5.50378">
        <ele>235.1</ele>
        <time>2025-10-19T07:35:20Z</time>
      </trkpt>
      <trkpt lat="43.22856" lon="5.50379">
        <ele>235.1</ele>
        <time>2025-10-19T07:35:21Z</time>
      </trkpt>
      <trkpt lat="43.22855" lon="5.5038">
        <ele>235.1</ele>
        <time>2025-10-19T07:35:22Z</time>
      </trkpt>
      <trkpt lat="43.22855" lon="5.50381">
        <ele>235.2</ele>
        <time>2025-10-19T07:35:23Z</time>
      </trkpt>
      <trkpt lat="43.22854" lon="5.50381">
        <ele>235.2</ele>
        <time>2025-10-19T07:35:24Z</time>
      </trkpt>
      <trkpt lat="43.22853" lon="5.50382">
        <ele>235.4</ele>
        <time>2025-10-19T07:35:25Z</time>
      </trkpt>
      <trkpt lat="43.22852" lon="5.50382">
        <ele>235.6</ele>
        <time>2025-10-19T07:35:26Z</time>
      </trkpt>
      <trkpt lat="43.22851" lon="5.50383">
        <ele>235.7</ele>
        <time>2025-10-19T07:35:27Z</time>
      </trkpt>
      <trkpt lat="43.2285" lon="5.50384">
        <ele>235.8</ele>
        <time>2025-10-19T07:35:28Z</time>
      </trkpt>
      <trkpt lat="43.2285" lon="5.50384">
        <ele>236</ele>
        <time>2025-10-19T07:35:29Z</time>
      </trkpt>
      <trkpt lat="43.22849" lon="5.50385">
        <ele>236.1</ele>
        <time>2025-10-19T07:35:30Z</time>
      </trkpt>
      <trkpt lat="43.22849" lon="5.50386">
        <ele>236.2</ele>
        <time>2025-10-19T07:35:31Z</time>
      </trkpt>
      <trkpt lat="43.22848" lon="5.50386">
        <ele>236.2</ele>
        <time>2025-10-19T07:35:32Z</time>
      </trkpt>
      <trkpt lat="43.22848" lon="5.50387">
        <ele>236.4</ele>
        <time>2025-10-19T07:35:33Z</time>
      </trkpt>
      <trkpt lat="43.22848" lon="5.50387">
        <ele>236.4</ele>
        <time>2025-10-19T07:35:34Z</time>
      </trkpt>
      <trkpt lat="43.22847" lon="5.50388">
        <ele>236.5</ele>
        <time>2025-10-19T07:35:35Z</time>
      </trkpt>
      <trkpt lat="43.22847" lon="5.50389">
        <ele>236.6</ele>
        <time>2025-10-19T07:35:36Z</time>
      </trkpt>
      <trkpt lat="43.22846" lon="5.5039">
        <ele>236.7</ele>
        <time>2025-10-19T07:35:37Z</time>
      </trkpt>
      <trkpt lat="43.22846" lon="5.5039">
        <ele>236.8</ele>
        <time>2025-10-19T07:35:38Z</time>
      </trkpt>
      <trkpt lat="43.22845" lon="5.5039">
        <ele>236.8</ele>
        <time>2025-10-19T07:35:39Z</time>
      </trkpt>
      <trkpt lat="43.22844" lon="5.50391">
        <ele>236.9</ele>
        <time>2025-10-19T07:35:40Z</time>
      </trkpt>
      <trkpt lat="43.22844" lon="5.50392">
        <ele>237</ele>
        <time>2025-10-19T07:35:41Z</time>
      </trkpt>
      <trkpt lat="43.22843" lon="5.50393">
        <ele>237.1</ele>
        <time>2025-10-19T07:35:42Z</time>
      </trkpt>
      <trkpt lat="43.22842" lon="5.50394">
        <ele>237.2</ele>
        <time>2025-10-19T07:35:43Z</time>
      </trkpt>
      <trkpt lat="43.22842" lon="5.50395">
        <ele>237.4</ele>
        <time>2025-10-19T07:35:44Z</time>
      </trkpt>
      <trkpt lat="43.22841" lon="5.50395">
        <ele>237.5</ele>
        <time>2025-10-19T07:35:45Z</time>
      </trkpt>
      <trkpt lat="43.2284" lon="5.50396">
        <ele>237.6</ele>
        <time>2025-10-19T07:35:46Z</time>
      </trkpt>
      <trkpt lat="43.2284" lon="5.50396">
        <ele>237.7</ele>
        <time>2025-10-19T07:35:47Z</time>
      </trkpt>
      <trkpt lat="43.22839" lon="5.50397">
        <ele>237.9</ele>
        <time>2025-10-19T07:35:48Z</time>
      </trkpt>
      <trkpt lat="43.22839" lon="5.50398">
        <ele>237.9</ele>
        <time>2025-10-19T07:35:49Z</time>
      </trkpt>
      <trkpt lat="43.22838" lon="5.50399">
        <ele>238</ele>
        <time>2025-10-19T07:35:50Z</time>
      </trkpt>
      <trkpt lat="43.22837" lon="5.504">
        <ele>238</ele>
        <time>2025-10-19T07:35:51Z</time>
      </trkpt>
      <trkpt lat="43.22837" lon="5.504">
        <ele>238</ele>
        <time>2025-10-19T07:35:52Z</time>
      </trkpt>
      <trkpt lat="43.22836" lon="5.504">
        <ele>238</ele>
        <time>2025-10-19T07:35:53Z</time>
      </trkpt>
      <trkpt lat="43.22835" lon="5.50401">
        <ele>238</ele>
        <time>2025-10-19T07:35:54Z</time>
      </trkpt>
      <trkpt lat="43.22835" lon="5.50402">
        <ele>238.1</ele>
        <time>2025-10-19T07:35:55Z</time>
      </trkpt>
      <trkpt lat="43.22834" lon="5.50403">
        <ele>238.1</ele>
        <time>2025-10-19T07:35:56Z</time>
      </trkpt>
      <trkpt lat="43.22834" lon="5.50404">
        <ele>238.2</ele>
        <time>2025-10-19T07:35:57Z</time>
      </trkpt>
      <trkpt lat="43.22833" lon="5.50404">
        <ele>238.2</ele>
        <time>2025-10-19T07:35:58Z</time>
      </trkpt>
      <trkpt lat="43.22832" lon="5.50404">
        <ele>238.3</ele>
        <time>2025-10-19T07:35:59Z</time>
      </trkpt>
      <trkpt lat="43.22832" lon="5.50404">
        <ele>238.4</ele>
        <time>2025-10-19T07:36:00Z</time>
      </trkpt>
      <trkpt lat="43.22831" lon="5.50404">
        <ele>238.5</ele>
        <time>2025-10-19T07:36:01Z</time>
      </trkpt>
      <trkpt lat="43.2283" lon="5.50405">
        <ele>238.6</ele>
        <time>2025-10-19T07:36:02Z</time>
      </trkpt>
      <trkpt lat="43.2283" lon="5.50406">
        <ele>238.7</ele>
        <time>2025-10-19T07:36:03Z</time>
      </trkpt>
      <trkpt lat="43.22829" lon="5.50407">
        <ele>238.8</ele>
        <time>2025-10-19T07:36:04Z</time>
      </trkpt>
      <trkpt lat="43.22829" lon="5.50407">
        <ele>238.9</ele>
        <time>2025-10-19T07:36:05Z</time>
      </trkpt>
      <trkpt lat="43.22828" lon="5.50409">
        <ele>238.9</ele>
        <time>2025-10-19T07:36:06Z</time>
      </trkpt>
      <trkpt lat="43.22827" lon="5.50409">
        <ele>239</ele>
        <time>2025-10-19T07:36:07Z</time>
      </trkpt>
      <trkpt lat="43.22827" lon="5.5041">
        <ele>239</ele>
        <time>2025-10-19T07:36:08Z</time>
      </trkpt>
      <trkpt lat="43.22826" lon="5.50411">
        <ele>239.1</ele>
        <time>2025-10-19T07:36:09Z</time>
      </trkpt>
      <trkpt lat="43.22825" lon="5.50412">
        <ele>239.1</ele>
        <time>2025-10-19T07:36:10Z</time>
      </trkpt>
      <trkpt lat="43.22824" lon="5.50412">
        <ele>239.1</ele>
        <time>2025-10-19T07:36:11Z</time>
      </trkpt>
      <trkpt lat="43.22824" lon="5.50413">
        <ele>239.2</ele>
        <time>2025-10-19T07:36:12Z</time>
      </trkpt>
      <trkpt lat="43.22823" lon="5.50414">
        <ele>239.2</ele>
        <time>2025-10-19T07:36:13Z</time>
      </trkpt>
      <trkpt lat="43.22822" lon="5.50414">
        <ele>239.3</ele>
        <time>2025-10-19T07:36:14Z</time>
      </trkpt>
      <trkpt lat="43.22821" lon="5.50415">
        <ele>239.4</ele>
        <time>2025-10-19T07:36:15Z</time>
      </trkpt>
      <trkpt lat="43.22821" lon="5.50416">
        <ele>239.6</ele>
        <time>2025-10-19T07:36:16Z</time>
      </trkpt>
      <trkpt lat="43.2282" lon="5.50416">
        <ele>239.7</ele>
        <time>2025-10-19T07:36:17Z</time>
      </trkpt>
      <trkpt lat="43.22819" lon="5.50417">
        <ele>239.8</ele>
        <time>2025-10-19T07:36:18Z</time>
      </trkpt>
      <trkpt lat="43.22819" lon="5.50418">
        <ele>239.9</ele>
        <time>2025-10-19T07:36:19Z</time>
      </trkpt>
      <trkpt lat="43.22818" lon="5.50418">
        <ele>240</ele>
        <time>2025-10-19T07:36:20Z</time>
      </trkpt>
      <trkpt lat="43.22817" lon="5.50418">
        <ele>240.1</ele>
        <time>2025-10-19T07:36:21Z</time>
      </trkpt>
      <trkpt lat="43.22816" lon="5.50419">
        <ele>240.2</ele>
        <time>2025-10-19T07:36:22Z</time>
      </trkpt>
      <trkpt lat="43.22816" lon="5.50419">
        <ele>240.3</ele>
        <time>2025-10-19T07:36:23Z</time>
      </trkpt>
      <trkpt lat="43.22815" lon="5.50419">
        <ele>240.3</ele>
        <time>2025-10-19T07:36:24Z</time>
      </trkpt>
      <trkpt lat="43.22814" lon="5.50419">
        <ele>240.5</ele>
        <time>2025-10-19T07:36:25Z</time>
      </trkpt>
      <trkpt lat="43.22813" lon="5.5042">
        <ele>240.5</ele>
        <time>2025-10-19T07:36:26Z</time>
      </trkpt>
      <trkpt lat="43.22813" lon="5.5042">
        <ele>240.6</ele>
        <time>2025-10-19T07:36:27Z</time>
      </trkpt>
      <trkpt lat="43.22813" lon="5.5042">
        <ele>240.7</ele>
        <time>2025-10-19T07:36:28Z</time>
      </trkpt>
      <trkpt lat="43.22813" lon="5.50421">
        <ele>240.8</ele>
        <time>2025-10-19T07:36:29Z</time>
      </trkpt>
      <trkpt lat="43.22813" lon="5.50422">
        <ele>241</ele>
        <time>2025-10-19T07:36:30Z</time>
      </trkpt>
      <trkpt lat="43.22812" lon="5.50423">
        <ele>241.1</ele>
        <time>2025-10-19T07:36:31Z</time>
      </trkpt>
      <trkpt lat="43.22812" lon="5.50423">
        <ele>241.3</ele>
        <time>2025-10-19T07:36:32Z</time>
      </trkpt>
      <trkpt lat="43.22811" lon="5.50423">
        <ele>241.4</ele>
        <time>2025-10-19T07:36:33Z</time>
      </trkpt>
      <trkpt lat="43.22811" lon="5.50423">
        <ele>241.5</ele>
        <time>2025-10-19T07:36:34Z</time>
      </trkpt>
      <trkpt lat="43.22809" lon="5.50423">
        <ele>241.6</ele>
        <time>2025-10-19T07:36:35Z</time>
      </trkpt>
      <trkpt lat="43.22808" lon="5.50423">
        <ele>241.8</ele>
        <time>2025-10-19T07:36:36Z</time>
      </trkpt>
      <trkpt lat="43.22808" lon="5.50423">
        <ele>242</ele>
        <time>2025-10-19T07:36:37Z</time>
      </trkpt>
      <trkpt lat="43.22807" lon="5.50424">
        <ele>242.3</ele>
        <time>2025-10-19T07:36:38Z</time>
      </trkpt>
      <trkpt lat="43.22806" lon="5.50424">
        <ele>242.4</ele>
        <time>2025-10-19T07:36:39Z</time>
      </trkpt>
      <trkpt lat="43.22806" lon="5.50424">
        <ele>242.5</ele>
        <time>2025-10-19T07:36:40Z</time>
      </trkpt>
      <trkpt lat="43.22805" lon="5.50425">
        <ele>242.6</ele>
        <time>2025-10-19T07:36:41Z</time>
      </trkpt>
      <trkpt lat="43.22805" lon="5.50425">
        <ele>242.7</ele>
        <time>2025-10-19T07:36:42Z</time>
      </trkpt>
      <trkpt lat="43.22804" lon="5.50425">
        <ele>242.8</ele>
        <time>2025-10-19T07:36:43Z</time>
      </trkpt>
      <trkpt lat="43.22803" lon="5.50425">
        <ele>242.9</ele>
        <time>2025-10-19T07:36:44Z</time>
      </trkpt>
      <trkpt lat="43.22802" lon="5.50426">
        <ele>243</ele>
        <time>2025-10-19T07:36:45Z</time>
      </trkpt>
      <trkpt lat="43.22802" lon="5.50427">
        <ele>243.1</ele>
        <time>2025-10-19T07:36:46Z</time>
      </trkpt>
      <trkpt lat="43.22801" lon="5.50427">
        <ele>243.2</ele>
        <time>2025-10-19T07:36:47Z</time>
      </trkpt>
      <trkpt lat="43.228" lon="5.50428">
        <ele>243.4</ele>
        <time>2025-10-19T07:36:48Z</time>
      </trkpt>
      <trkpt lat="43.228" lon="5.50428">
        <ele>243.4</ele>
        <time>2025-10-19T07:36:49Z</time>
      </trkpt>
      <trkpt lat="43.22799" lon="5.50428">
        <ele>243.5</ele>
        <time>2025-10-19T07:36:50Z</time>
      </trkpt>
      <trkpt lat="43.22799" lon="5.50429">
        <ele>243.7</ele>
        <time>2025-10-19T07:36:51Z</time>
      </trkpt>
      <trkpt lat="43.22799" lon="5.50429">
        <ele>243.8</ele>
        <time>2025-10-19T07:36:52Z</time>
      </trkpt>
      <trkpt lat="43.22799" lon="5.5043">
        <ele>243.9</ele>
        <time>2025-10-19T07:36:53Z</time>
      </trkpt>
      <trkpt lat="43.22798" lon="5.5043">
        <ele>243.9</ele>
        <time>2025-10-19T07:36:54Z</time>
      </trkpt>
      <trkpt lat="43.22797" lon="5.5043">
        <ele>244</ele>
        <time>2025-10-19T07:36:55Z</time>
      </trkpt>
      <trkpt lat="43.22796" lon="5.50431">
        <ele>244.1</ele>
        <time>2025-10-19T07:36:56Z</time>
      </trkpt>
      <trkpt lat="43.22796" lon="5.50431">
        <ele>244.3</ele>
        <time>2025-10-19T07:36:57Z</time>
      </trkpt>
      <trkpt lat="43.22795" lon="5.50432">
        <ele>244.3</ele>
        <time>2025-10-19T07:36:58Z</time>
      </trkpt>
      <trkpt lat="43.22794" lon="5.50432">
        <ele>244.4</ele>
        <time>2025-10-19T07:36:59Z</time>
      </trkpt>
      <trkpt lat="43.22794" lon="5.50432">
        <ele>244.6</ele>
        <time>2025-10-19T07:37:00Z</time>
      </trkpt>
      <trkpt lat="43.22793" lon="5.50432">
        <ele>244.7</ele>
        <time>2025-10-19T07:37:01Z</time>
      </trkpt>
      <trkpt lat="43.22793" lon="5.50433">
        <ele>244.8</ele>
        <time>2025-10-19T07:37:02Z</time>
      </trkpt>
      <trkpt lat="43.22793" lon="5.50433">
        <ele>244.9</ele>
        <time>2025-10-19T07:37:03Z</time>
      </trkpt>
      <trkpt lat="43.22792" lon="5.50434">
        <ele>245</ele>
        <time>2025-10-19T07:37:04Z</time>
      </trkpt>
      <trkpt lat="43.22791" lon="5.50434">
        <ele>245</ele>
        <time>2025-10-19T07:37:05Z</time>
      </trkpt>
      <trkpt lat="43.22791" lon="5.50434">
        <ele>245.2</ele>
        <time>2025-10-19T07:37:06Z</time>
      </trkpt>
      <trkpt lat="43.2279" lon="5.50434">
        <ele>245.3</ele>
        <time>2025-10-19T07:37:07Z</time>
      </trkpt>
      <trkpt lat="43.22789" lon="5.50435">
        <ele>245.4</ele>
        <time>2025-10-19T07:37:08Z</time>
      </trkpt>
      <trkpt lat="43.22789" lon="5.50435">
        <ele>245.5</ele>
        <time>2025-10-19T07:37:09Z</time>
      </trkpt>
      <trkpt lat="43.22788" lon="5.50435">
        <ele>245.7</ele>
        <time>2025-10-19T07:37:10Z</time>
      </trkpt>
      <trkpt lat="43.22787" lon="5.50436">
        <ele>245.8</ele>
        <time>2025-10-19T07:37:11Z</time>
      </trkpt>
      <trkpt lat="43.22787" lon="5.50437">
        <ele>246</ele>
        <time>2025-10-19T07:37:12Z</time>
      </trkpt>
      <trkpt lat="43.22786" lon="5.50437">
        <ele>246.1</ele>
        <time>2025-10-19T07:37:13Z</time>
      </trkpt>
      <trkpt lat="43.22786" lon="5.50438">
        <ele>246.2</ele>
        <time>2025-10-19T07:37:14Z</time>
      </trkpt>
      <trkpt lat="43.22785" lon="5.50438">
        <ele>246.3</ele>
        <time>2025-10-19T07:37:15Z</time>
      </trkpt>
      <trkpt lat="43.22784" lon="5.50439">
        <ele>246.3</ele>
        <time>2025-10-19T07:37:16Z</time>
      </trkpt>
      <trkpt lat="43.22784" lon="5.50439">
        <ele>246.4</ele>
        <time>2025-10-19T07:37:17Z</time>
      </trkpt>
      <trkpt lat="43.22783" lon="5.50439">
        <ele>246.5</ele>
        <time>2025-10-19T07:37:18Z</time>
      </trkpt>
      <trkpt lat="43.22782" lon="5.5044">
        <ele>246.6</ele>
        <time>2025-10-19T07:37:19Z</time>
      </trkpt>
      <trkpt lat="43.22781" lon="5.5044">
        <ele>246.7</ele>
        <time>2025-10-19T07:37:20Z</time>
      </trkpt>
      <trkpt lat="43.22781" lon="5.5044">
        <ele>246.8</ele>
        <time>2025-10-19T07:37:21Z</time>
      </trkpt>
      <trkpt lat="43.2278" lon="5.50441">
        <ele>246.9</ele>
        <time>2025-10-19T07:37:22Z</time>
      </trkpt>
      <trkpt lat="43.22779" lon="5.50441">
        <ele>247</ele>
        <time>2025-10-19T07:37:23Z</time>
      </trkpt>
      <trkpt lat="43.22778" lon="5.50442">
        <ele>247.1</ele>
        <time>2025-10-19T07:37:24Z</time>
      </trkpt>
      <trkpt lat="43.22778" lon="5.50442">
        <ele>247.2</ele>
        <time>2025-10-19T07:37:25Z</time>
      </trkpt>
      <trkpt lat="43.22777" lon="5.50442">
        <ele>247.4</ele>
        <time>2025-10-19T07:37:26Z</time>
      </trkpt>
      <trkpt lat="43.22776" lon="5.50442">
        <ele>247.5</ele>
        <time>2025-10-19T07:37:27Z</time>
      </trkpt>
      <trkpt lat="43.22775" lon="5.50442">
        <ele>247.5</ele>
        <time>2025-10-19T07:37:28Z</time>
      </trkpt>
      <trkpt lat="43.22774" lon="5.50443">
        <ele>247.5</ele>
        <time>2025-10-19T07:37:29Z</time>
      </trkpt>
      <trkpt lat="43.22774" lon="5.50443">
        <ele>247.6</ele>
        <time>2025-10-19T07:37:30Z</time>
      </trkpt>
      <trkpt lat="43.22773" lon="5.50444">
        <ele>247.6</ele>
        <time>2025-10-19T07:37:31Z</time>
      </trkpt>
      <trkpt lat="43.22772" lon="5.50444">
        <ele>247.7</ele>
        <time>2025-10-19T07:37:32Z</time>
      </trkpt>
      <trkpt lat="43.22771" lon="5.50445">
        <ele>247.8</ele>
        <time>2025-10-19T07:37:33Z</time>
      </trkpt>
      <trkpt lat="43.2277" lon="5.50445">
        <ele>247.9</ele>
        <time>2025-10-19T07:37:34Z</time>
      </trkpt>
      <trkpt lat="43.22769" lon="5.50445">
        <ele>248.1</ele>
        <time>2025-10-19T07:37:35Z</time>
      </trkpt>
      <trkpt lat="43.22768" lon="5.50445">
        <ele>248.3</ele>
        <time>2025-10-19T07:37:36Z</time>
      </trkpt>
      <trkpt lat="43.22768" lon="5.50446">
        <ele>248.5</ele>
        <time>2025-10-19T07:37:37Z</time>
      </trkpt>
      <trkpt lat="43.22767" lon="5.50445">
        <ele>248.6</ele>
        <time>2025-10-19T07:37:38Z</time>
      </trkpt>
      <trkpt lat="43.22766" lon="5.50446">
        <ele>248.8</ele>
        <time>2025-10-19T07:37:39Z</time>
      </trkpt>
      <trkpt lat="43.22765" lon="5.50445">
        <ele>248.8</ele>
        <time>2025-10-19T07:37:40Z</time>
      </trkpt>
      <trkpt lat="43.22764" lon="5.50445">
        <ele>248.7</ele>
        <time>2025-10-19T07:37:41Z</time>
      </trkpt>
      <trkpt lat="43.22763" lon="5.50445">
        <ele>248.8</ele>
        <time>2025-10-19T07:37:42Z</time>
      </trkpt>
      <trkpt lat="43.22763" lon="5.50445">
        <ele>248.8</ele>
        <time>2025-10-19T07:37:43Z</time>
      </trkpt>
      <trkpt lat="43.22762" lon="5.50445">
        <ele>249</ele>
        <time>2025-10-19T07:37:44Z</time>
      </trkpt>
      <trkpt lat="43.22761" lon="5.50445">
        <ele>249.2</ele>
        <time>2025-10-19T07:37:45Z</time>
      </trkpt>
      <trkpt lat="43.22761" lon="5.50445">
        <ele>249.3</ele>
        <time>2025-10-19T07:37:46Z</time>
      </trkpt>
      <trkpt lat="43.2276" lon="5.50445">
        <ele>249.4</ele>
        <time>2025-10-19T07:37:47Z</time>
      </trkpt>
      <trkpt lat="43.22759" lon="5.50445">
        <ele>249.5</ele>
        <time>2025-10-19T07:37:48Z</time>
      </trkpt>
      <trkpt lat="43.22758" lon="5.50445">
        <ele>249.5</ele>
        <time>2025-10-19T07:37:49Z</time>
      </trkpt>
      <trkpt lat="43.22757" lon="5.50445">
        <ele>249.7</ele>
        <time>2025-10-19T07:37:50Z</time>
      </trkpt>
      <trkpt lat="43.22756" lon="5.50444">
        <ele>249.9</ele>
        <time>2025-10-19T07:37:51Z</time>
      </trkpt>
      <trkpt lat="43.22755" lon="5.50444">
        <ele>250</ele>
        <time>2025-10-19T07:37:52Z</time>
      </trkpt>
      <trkpt lat="43.22754" lon="5.50444">
        <ele>249.9</ele>
        <time>2025-10-19T07:37:53Z</time>
      </trkpt>
      <trkpt lat="43.22753" lon="5.50444">
        <ele>249.9</ele>
        <time>2025-10-19T07:37:54Z</time>
      </trkpt>
      <trkpt lat="43.22752" lon="5.50443">
        <ele>250</ele>
        <time>2025-10-19T07:37:55Z</time>
      </trkpt>
      <trkpt lat="43.22752" lon="5.50443">
        <ele>250.2</ele>
        <time>2025-10-19T07:37:56Z</time>
      </trkpt>
      <trkpt lat="43.22751" lon="5.50442">
        <ele>250.3</ele>
        <time>2025-10-19T07:37:57Z</time>
      </trkpt>
      <trkpt lat="43.22751" lon="5.50442">
        <ele>250.4</ele>
        <time>2025-10-19T07:37:58Z</time>
      </trkpt>
      <trkpt lat="43.2275" lon="5.50441">
        <ele>250.4</ele>
        <time>2025-10-19T07:37:59Z</time>
      </trkpt>
      <trkpt lat="43.2275" lon="5.5044">
        <ele>250.4</ele>
        <time>2025-10-19T07:38:00Z</time>
      </trkpt>
      <trkpt lat="43.22749" lon="5.50439">
        <ele>250.5</ele>
        <time>2025-10-19T07:38:01Z</time>
      </trkpt>
      <trkpt lat="43.22749" lon="5.50439">
        <ele>250.6</ele>
        <time>2025-10-19T07:38:02Z</time>
      </trkpt>
      <trkpt lat="43.22748" lon="5.50438">
        <ele>250.5</ele>
        <time>2025-10-19T07:38:03Z</time>
      </trkpt>
      <trkpt lat="43.22747" lon="5.50437">
        <ele>250.6</ele>
        <time>2025-10-19T07:38:04Z</time>
      </trkpt>
      <trkpt lat="43.22747" lon="5.50437">
        <ele>250.7</ele>
        <time>2025-10-19T07:38:05Z</time>
      </trkpt>
      <trkpt lat="43.22747" lon="5.50436">
        <ele>250.7</ele>
        <time>2025-10-19T07:38:06Z</time>
      </trkpt>
      <trkpt lat="43.22746" lon="5.50435">
        <ele>250.8</ele>
        <time>2025-10-19T07:38:07Z</time>
      </trkpt>
      <trkpt lat="43.22746" lon="5.50435">
        <ele>250.9</ele>
        <time>2025-10-19T07:38:08Z</time>
      </trkpt>
      <trkpt lat="43.22745" lon="5.50434">
        <ele>251.1</ele>
        <time>2025-10-19T07:38:09Z</time>
      </trkpt>
      <trkpt lat="43.22744" lon="5.50433">
        <ele>251.2</ele>
        <time>2025-10-19T07:38:10Z</time>
      </trkpt>
      <trkpt lat="43.22743" lon="5.50432">
        <ele>251.3</ele>
        <time>2025-10-19T07:38:11Z</time>
      </trkpt>
      <trkpt lat="43.22742" lon="5.50432">
        <ele>251.3</ele>
        <time>2025-10-19T07:38:12Z</time>
      </trkpt>
      <trkpt lat="43.22741" lon="5.50431">
        <ele>251.4</ele>
        <time>2025-10-19T07:38:13Z</time>
      </trkpt>
      <trkpt lat="43.2274" lon="5.50431">
        <ele>251.4</ele>
        <time>2025-10-19T07:38:14Z</time>
      </trkpt>
      <trkpt lat="43.22739" lon="5.50431">
        <ele>251.4</ele>
        <time>2025-10-19T07:38:15Z</time>
      </trkpt>
      <trkpt lat="43.22738" lon="5.5043">
        <ele>251.5</ele>
        <time>2025-10-19T07:38:16Z</time>
      </trkpt>
      <trkpt lat="43.22737" lon="5.5043">
        <ele>251.5</ele>
        <time>2025-10-19T07:38:17Z</time>
      </trkpt>
      <trkpt lat="43.22736" lon="5.50429">
        <ele>251.5</ele>
        <time>2025-10-19T07:38:18Z</time>
      </trkpt>
      <trkpt lat="43.22735" lon="5.50429">
        <ele>251.5</ele>
        <time>2025-10-19T07:38:19Z</time>
      </trkpt>
      <trkpt lat="43.22734" lon="5.50429">
        <ele>251.5</ele>
        <time>2025-10-19T07:38:20Z</time>
      </trkpt>
      <trkpt lat="43.22733" lon="5.50428">
        <ele>251.5</ele>
        <time>2025-10-19T07:38:21Z</time>
      </trkpt>
      <trkpt lat="43.22732" lon="5.50428">
        <ele>251.6</ele>
        <time>2025-10-19T07:38:22Z</time>
      </trkpt>
      <trkpt lat="43.22731" lon="5.50428">
        <ele>251.6</ele>
        <time>2025-10-19T07:38:23Z</time>
      </trkpt>
      <trkpt lat="43.2273" lon="5.50429">
        <ele>251.6</ele>
        <time>2025-10-19T07:38:24Z</time>
      </trkpt>
      <trkpt lat="43.22729" lon="5.5043">
        <ele>251.6</ele>
        <time>2025-10-19T07:38:25Z</time>
      </trkpt>
      <trkpt lat="43.22728" lon="5.5043">
        <ele>251.6</ele>
        <time>2025-10-19T07:38:26Z</time>
      </trkpt>
      <trkpt lat="43.22728" lon="5.5043">
        <ele>251.6</ele>
        <time>2025-10-19T07:38:27Z</time>
      </trkpt>
      <trkpt lat="43.22727" lon="5.50431">
        <ele>251.6</ele>
        <time>2025-10-19T07:38:28Z</time>
      </trkpt>
      <trkpt lat="43.22727" lon="5.50431">
        <ele>251.6</ele>
        <time>2025-10-19T07:38:29Z</time>
      </trkpt>
      <trkpt lat="43.22727" lon="5.50431">
        <ele>251.6</ele>
        <time>2025-10-19T07:38:30Z</time>
      </trkpt>
      <trkpt lat="43.22727" lon="5.50431">
        <ele>251.6</ele>
        <time>2025-10-19T07:38:31Z</time>
      </trkpt>
      <trkpt lat="43.22727" lon="5.50431">
        <ele>251.6</ele>
        <time>2025-10-19T07:38:32Z</time>
      </trkpt>
      <trkpt lat="43.22727" lon="5.50431">
        <ele>251.6</ele>
        <time>2025-10-19T07:38:33Z</time>
      </trkpt>
      <trkpt lat="43.22727" lon="5.50431">
        <ele>251.6</ele>
        <time>2025-10-19T07:38:34Z</time>
      </trkpt>
      <trkpt lat="43.22727" lon="5.50432">
        <ele>251.7</ele>
        <time>2025-10-19T07:38:35Z</time>
      </trkpt>
      <trkpt lat="43.22726" lon="5.50432">
        <ele>251.7</ele>
        <time>2025-10-19T07:38:36Z</time>
      </trkpt>
      <trkpt lat="43.22726" lon="5.50431">
        <ele>251.8</ele>
        <time>2025-10-19T07:38:37Z</time>
      </trkpt>
      <trkpt lat="43.22725" lon="5.50431">
        <ele>251.8</ele>
        <time>2025-10-19T07:38:38Z</time>
      </trkpt>
      <trkpt lat="43.22725" lon="5.50431">
        <ele>251.9</ele>
        <time>2025-10-19T07:38:39Z</time>
      </trkpt>
      <trkpt lat="43.22725" lon="5.50432">
        <ele>251.8</ele>
        <time>2025-10-19T07:38:40Z</time>
      </trkpt>
      <trkpt lat="43.22725" lon="5.50431">
        <ele>251.8</ele>
        <time>2025-10-19T07:38:41Z</time>
      </trkpt>
      <trkpt lat="43.22725" lon="5.50432">
        <ele>251.8</ele>
        <time>2025-10-19T07:38:42Z</time>
      </trkpt>
      <trkpt lat="43.22725" lon="5.50432">
        <ele>251.7</ele>
        <time>2025-10-19T07:38:43Z</time>
      </trkpt>
      <trkpt lat="43.22725" lon="5.50432">
        <ele>251.7</ele>
        <time>2025-10-19T07:38:44Z</time>
      </trkpt>
      <trkpt lat="43.22725" lon="5.50431">
        <ele>251.7</ele>
        <time>2025-10-19T07:38:45Z</time>
      </trkpt>
      <trkpt lat="43.22724" lon="5.50431">
        <ele>251.7</ele>
        <time>2025-10-19T07:38:46Z</time>
      </trkpt>
      <trkpt lat="43.22724" lon="5.50432">
        <ele>251.7</ele>
        <time>2025-10-19T07:38:47Z</time>
      </trkpt>
      <trkpt lat="43.22724" lon="5.50432">
        <ele>251.7</ele>
        <time>2025-10-19T07:38:48Z</time>
      </trkpt>
      <trkpt lat="43.22724" lon="5.50432">
        <ele>251.6</ele>
        <time>2025-10-19T07:38:49Z</time>
      </trkpt>
      <trkpt lat="43.22724" lon="5.50432">
        <ele>251.6</ele>
        <time>2025-10-19T07:38:50Z</time>
      </trkpt>
      <trkpt lat="43.22724" lon="5.50432">
        <ele>251.6</ele>
        <time>2025-10-19T07:38:51Z</time>
      </trkpt>
      <trkpt lat="43.22724" lon="5.50432">
        <ele>251.6</ele>
        <time>2025-10-19T07:38:52Z</time>
      </trkpt>
      <trkpt lat="43.22724" lon="5.50432">
        <ele>251.6</ele>
        <time>2025-10-19T07:38:53Z</time>
      </trkpt>
      <trkpt lat="43.22724" lon="5.50432">
        <ele>251.7</ele>
        <time>2025-10-19T07:38:54Z</time>
      </trkpt>
      <trkpt lat="43.22724" lon="5.50432">
        <ele>251.7</ele>
        <time>2025-10-19T07:38:55Z</time>
      </trkpt>
      <trkpt lat="43.22724" lon="5.50432">
        <ele>251.7</ele>
        <time>2025-10-19T07:38:56Z</time>
      </trkpt>
      <trkpt lat="43.22724" lon="5.50432">
        <ele>251.8</ele>
        <time>2025-10-19T07:38:57Z</time>
      </trkpt>
      <trkpt lat="43.22724" lon="5.50432">
        <ele>251.7</ele>
        <time>2025-10-19T07:38:58Z</time>
      </trkpt>
      <trkpt lat="43.22724" lon="5.50432">
        <ele>251.8</ele>
        <time>2025-10-19T07:38:59Z</time>
      </trkpt>
      <trkpt lat="43.22724" lon="5.50432">
        <ele>251.8</ele>
        <time>2025-10-19T07:39:00Z</time>
      </trkpt>
      <trkpt lat="43.22724" lon="5.50432">
        <ele>251.9</ele>
        <time>2025-10-19T07:39:01Z</time>
      </trkpt>
      <trkpt lat="43.22724" lon="5.50432">
        <ele>251.9</ele>
        <time>2025-10-19T07:39:02Z</time>
      </trkpt>
      <trkpt lat="43.22724" lon="5.50432">
        <ele>251.9</ele>
        <time>2025-10-19T07:39:03Z</time>
      </trkpt>
      <trkpt lat="43.22723" lon="5.50432">
        <ele>251.9</ele>
        <time>2025-10-19T07:39:04Z</time>
      </trkpt>
      <trkpt lat="43.22723" lon="5.50432">
        <ele>251.8</ele>
        <time>2025-10-19T07:39:05Z</time>
      </trkpt>
      <trkpt lat="43.22723" lon="5.50432">
        <ele>251.7</ele>
        <time>2025-10-19T07:39:06Z</time>
      </trkpt>
      <trkpt lat="43.22723" lon="5.50432">
        <ele>251.7</ele>
        <time>2025-10-19T07:39:07Z</time>
      </trkpt>
      <trkpt lat="43.22723" lon="5.50432">
        <ele>251.6</ele>
        <time>2025-10-19T07:39:08Z</time>
      </trkpt>
      <trkpt lat="43.22723" lon="5.50432">
        <ele>251.6</ele>
        <time>2025-10-19T07:39:09Z</time>
      </trkpt>
      <trkpt lat="43.22723" lon="5.50432">
        <ele>251.6</ele>
        <time>2025-10-19T07:39:10Z</time>
      </trkpt>
      <trkpt lat="43.22723" lon="5.50431">
        <ele>251.6</ele>
        <time>2025-10-19T07:39:11Z</time>
      </trkpt>
      <trkpt lat="43.22723" lon="5.50431">
        <ele>251.6</ele>
        <time>2025-10-19T07:39:12Z</time>
      </trkpt>
      <trkpt lat="43.22723" lon="5.50431">
        <ele>251.6</ele>
        <time>2025-10-19T07:39:13Z</time>
      </trkpt>
      <trkpt lat="43.22723" lon="5.5043">
        <ele>251.7</ele>
        <time>2025-10-19T07:39:14Z</time>
      </trkpt>
      <trkpt lat="43.22723" lon="5.5043">
        <ele>251.6</ele>
        <time>2025-10-19T07:39:15Z</time>
      </trkpt>
      <trkpt lat="43.22723" lon="5.50429">
        <ele>251.6</ele>
        <time>2025-10-19T07:39:16Z</time>
      </trkpt>
      <trkpt lat="43.22722" lon="5.50429">
        <ele>251.6</ele>
        <time>2025-10-19T07:39:17Z</time>
      </trkpt>
      <trkpt lat="43.22723" lon="5.5043">
        <ele>251.7</ele>
        <time>2025-10-19T07:39:18Z</time>
      </trkpt>
      <trkpt lat="43.22723" lon="5.5043">
        <ele>251.7</ele>
        <time>2025-10-19T07:39:19Z</time>
      </trkpt>
      <trkpt lat="43.22723" lon="5.50429">
        <ele>251.8</ele>
        <time>2025-10-19T07:39:20Z</time>
      </trkpt>
      <trkpt lat="43.22723" lon="5.5043">
        <ele>251.8</ele>
        <time>2025-10-19T07:39:21Z</time>
      </trkpt>
      <trkpt lat="43.22723" lon="5.50429">
        <ele>251.9</ele>
        <time>2025-10-19T07:39:22Z</time>
      </trkpt>
      <trkpt lat="43.22723" lon="5.5043">
        <ele>251.9</ele>
        <time>2025-10-19T07:39:23Z</time>
      </trkpt>
      <trkpt lat="43.22722" lon="5.50429">
        <ele>252</ele>
        <time>2025-10-19T07:39:24Z</time>
      </trkpt>
      <trkpt lat="43.22722" lon="5.50429">
        <ele>251.9</ele>
        <time>2025-10-19T07:39:25Z</time>
      </trkpt>
      <trkpt lat="43.22723" lon="5.5043">
        <ele>251.9</ele>
        <time>2025-10-19T07:39:26Z</time>
      </trkpt>
      <trkpt lat="43.22723" lon="5.50429">
        <ele>251.8</ele>
        <time>2025-10-19T07:39:27Z</time>
      </trkpt>
      <trkpt lat="43.22723" lon="5.50429">
        <ele>251.8</ele>
        <time>2025-10-19T07:39:28Z</time>
      </trkpt>
      <trkpt lat="43.22723" lon="5.50429">
        <ele>251.8</ele>
        <time>2025-10-19T07:39:29Z</time>
      </trkpt>
      <trkpt lat="43.22723" lon="5.50429">
        <ele>251.8</ele>
        <time>2025-10-19T07:39:30Z</time>
      </trkpt>
      <trkpt lat="43.22723" lon="5.5043">
        <ele>251.8</ele>
        <time>2025-10-19T07:39:31Z</time>
      </trkpt>
      <trkpt lat="43.22723" lon="5.5043">
        <ele>251.8</ele>
        <time>2025-10-19T07:39:32Z</time>
      </trkpt>
      <trkpt lat="43.22723" lon="5.5043">
        <ele>251.8</ele>
        <time>2025-10-19T07:39:33Z</time>
      </trkpt>
      <trkpt lat="43.22723" lon="5.5043">
        <ele>251.8</ele>
        <time>2025-10-19T07:39:34Z</time>
      </trkpt>
      <trkpt lat="43.22723" lon="5.5043">
        <ele>251.8</ele>
        <time>2025-10-19T07:39:35Z</time>
      </trkpt>
      <trkpt lat="43.22723" lon="5.5043">
        <ele>251.8</ele>
        <time>2025-10-19T07:39:36Z</time>
      </trkpt>
      <trkpt lat="43.22723" lon="5.5043">
        <ele>251.8</ele>
        <time>2025-10-19T07:39:37Z</time>
      </trkpt>
      <trkpt lat="43.22724" lon="5.50431">
        <ele>251.8</ele>
        <time>2025-10-19T07:39:38Z</time>
      </trkpt>
      <trkpt lat="43.22724" lon="5.50431">
        <ele>251.8</ele>
        <time>2025-10-19T07:39:39Z</time>
      </trkpt>
      <trkpt lat="43.22724" lon="5.50431">
        <ele>251.8</ele>
        <time>2025-10-19T07:39:40Z</time>
      </trkpt>
      <trkpt lat="43.22724" lon="5.50431">
        <ele>251.8</ele>
        <time>2025-10-19T07:39:41Z</time>
      </trkpt>
      <trkpt lat="43.22724" lon="5.50432">
        <ele>251.9</ele>
        <time>2025-10-19T07:39:42Z</time>
      </trkpt>
      <trkpt lat="43.22724" lon="5.50431">
        <ele>251.8</ele>
        <time>2025-10-19T07:39:43Z</time>
      </trkpt>
      <trkpt lat="43.22724" lon="5.50431">
        <ele>251.8</ele>
        <time>2025-10-19T07:39:44Z</time>
      </trkpt>
      <trkpt lat="43.22724" lon="5.50432">
        <ele>251.8</ele>
        <time>2025-10-19T07:39:45Z</time>
      </trkpt>
      <trkpt lat="43.22724" lon="5.50432">
        <ele>251.8</ele>
        <time>2025-10-19T07:39:46Z</time>
      </trkpt>
      <trkpt lat="43.22725" lon="5.50432">
        <ele>251.8</ele>
        <time>2025-10-19T07:39:47Z</time>
      </trkpt>
      <trkpt lat="43.22725" lon="5.50432">
        <ele>251.8</ele>
        <time>2025-10-19T07:39:48Z</time>
      </trkpt>
      <trkpt lat="43.22725" lon="5.50432">
        <ele>251.7</ele>
        <time>2025-10-19T07:39:49Z</time>
      </trkpt>
      <trkpt lat="43.22725" lon="5.50432">
        <ele>251.7</ele>
        <time>2025-10-19T07:39:50Z</time>
      </trkpt>
      <trkpt lat="43.22725" lon="5.50431">
        <ele>251.6</ele>
        <time>2025-10-19T07:39:51Z</time>
      </trkpt>
      <trkpt lat="43.22725" lon="5.50431">
        <ele>251.6</ele>
        <time>2025-10-19T07:39:52Z</time>
      </trkpt>
      <trkpt lat="43.22725" lon="5.50431">
        <ele>251.7</ele>
        <time>2025-10-19T07:39:53Z</time>
      </trkpt>
      <trkpt lat="43.22725" lon="5.50431">
        <ele>251.7</ele>
        <time>2025-10-19T07:39:54Z</time>
      </trkpt>
      <trkpt lat="43.22725" lon="5.50432">
        <ele>251.8</ele>
        <time>2025-10-19T07:39:55Z</time>
      </trkpt>
      <trkpt lat="43.22725" lon="5.50432">
        <ele>251.8</ele>
        <time>2025-10-19T07:39:56Z</time>
      </trkpt>
      <trkpt lat="43.22725" lon="5.50432">
        <ele>251.9</ele>
        <time>2025-10-19T07:39:57Z</time>
      </trkpt>
      <trkpt lat="43.22725" lon="5.50432">
        <ele>251.9</ele>
        <time>2025-10-19T07:39:58Z</time>
      </trkpt>
      <trkpt lat="43.22725" lon="5.50432">
        <ele>251.8</ele>
        <time>2025-10-19T07:39:59Z</time>
      </trkpt>
      <trkpt lat="43.22725" lon="5.50432">
        <ele>251.8</ele>
        <time>2025-10-19T07:40:00Z</time>
      </trkpt>
      <trkpt lat="43.22725" lon="5.50432">
        <ele>251.8</ele>
        <time>2025-10-19T07:40:01Z</time>
      </trkpt>
      <trkpt lat="43.22725" lon="5.50432">
        <ele>251.8</ele>
        <time>2025-10-19T07:40:02Z</time>
      </trkpt>
      <trkpt lat="43.22724" lon="5.50432">
        <ele>251.8</ele>
        <time>2025-10-19T07:40:03Z</time>
      </trkpt>
      <trkpt lat="43.22724" lon="5.50432">
        <ele>251.8</ele>
        <time>2025-10-19T07:40:04Z</time>
      </trkpt>
      <trkpt lat="43.22724" lon="5.50432">
        <ele>251.8</ele>
        <time>2025-10-19T07:40:05Z</time>
      </trkpt>
      <trkpt lat="43.22724" lon="5.50432">
        <ele>251.8</ele>
        <time>2025-10-19T07:40:06Z</time>
      </trkpt>
      <trkpt lat="43.22724" lon="5.50432">
        <ele>251.8</ele>
        <time>2025-10-19T07:40:07Z</time>
      </trkpt>
      <trkpt lat="43.22724" lon="5.50432">
        <ele>251.9</ele>
        <time>2025-10-19T07:40:08Z</time>
      </trkpt>
      <trkpt lat="43.22724" lon="5.50432">
        <ele>251.9</ele>
        <time>2025-10-19T07:40:09Z</time>
      </trkpt>
      <trkpt lat="43.22724" lon="5.50432">
        <ele>251.9</ele>
        <time>2025-10-19T07:40:10Z</time>
      </trkpt>
      <trkpt lat="43.22724" lon="5.50432">
        <ele>251.9</ele>
        <time>2025-10-19T07:40:11Z</time>
      </trkpt>
      <trkpt lat="43.22724" lon="5.50432">
        <ele>251.8</ele>
        <time>2025-10-19T07:40:12Z</time>
      </trkpt>
      <trkpt lat="43.22724" lon="5.50432">
        <ele>251.9</ele>
        <time>2025-10-19T07:40:13Z</time>
      </trkpt>
      <trkpt lat="43.22724" lon="5.50432">
        <ele>251.9</ele>
        <time>2025-10-19T07:40:14Z</time>
      </trkpt>
      <trkpt lat="43.22724" lon="5.50432">
        <ele>251.9</ele>
        <time>2025-10-19T07:40:15Z</time>
      </trkpt>
      <trkpt lat="43.22724" lon="5.50431">
        <ele>251.9</ele>
        <time>2025-10-19T07:40:16Z</time>
      </trkpt>
      <trkpt lat="43.22724" lon="5.50431">
        <ele>251.8</ele>
        <time>2025-10-19T07:40:17Z</time>
      </trkpt>
      <trkpt lat="43.22724" lon="5.50431">
        <ele>251.8</ele>
        <time>2025-10-19T07:40:18Z</time>
      </trkpt>
      <trkpt lat="43.22724" lon="5.50431">
        <ele>251.8</ele>
        <time>2025-10-19T07:40:19Z</time>
      </trkpt>
      <trkpt lat="43.22724" lon="5.50431">
        <ele>251.8</ele>
        <time>2025-10-19T07:40:20Z</time>
      </trkpt>
      <trkpt lat="43.22723" lon="5.50431">
        <ele>251.8</ele>
        <time>2025-10-19T07:40:21Z</time>
      </trkpt>
      <trkpt lat="43.22723" lon="5.50431">
        <ele>251.8</ele>
        <time>2025-10-19T07:40:22Z</time>
      </trkpt>
      <trkpt lat="43.22723" lon="5.50431">
        <ele>251.7</ele>
        <time>2025-10-19T07:40:23Z</time>
      </trkpt>
      <trkpt lat="43.22723" lon="5.50431">
        <ele>251.6</ele>
        <time>2025-10-19T07:40:24Z</time>
      </trkpt>
      <trkpt lat="43.22723" lon="5.50431">
        <ele>251.6</ele>
        <time>2025-10-19T07:40:25Z</time>
      </trkpt>
      <trkpt lat="43.22723" lon="5.50431">
        <ele>251.6</ele>
        <time>2025-10-19T07:40:26Z</time>
      </trkpt>
      <trkpt lat="43.22723" lon="5.50431">
        <ele>251.7</ele>
        <time>2025-10-19T07:40:27Z</time>
      </trkpt>
      <trkpt lat="43.22723" lon="5.50431">
        <ele>251.7</ele>
        <time>2025-10-19T07:40:28Z</time>
      </trkpt>
      <trkpt lat="43.22723" lon="5.50431">
        <ele>251.7</ele>
        <time>2025-10-19T07:40:29Z</time>
      </trkpt>
      <trkpt lat="43.22723" lon="5.50431">
        <ele>251.7</ele>
        <time>2025-10-19T07:40:30Z</time>
      </trkpt>
      <trkpt lat="43.22723" lon="5.50431">
        <ele>251.7</ele>
        <time>2025-10-19T07:40:31Z</time>
      </trkpt>
      <trkpt lat="43.22723" lon="5.50431">
        <ele>251.7</ele>
        <time>2025-10-19T07:40:32Z</time>
      </trkpt>
      <trkpt lat="43.22723" lon="5.50431">
        <ele>251.7</ele>
        <time>2025-10-19T07:40:33Z</time>
      </trkpt>
      <trkpt lat="43.22723" lon="5.50431">
        <ele>251.7</ele>
        <time>2025-10-19T07:40:34Z</time>
      </trkpt>
      <trkpt lat="43.22723" lon="5.50431">
        <ele>251.7</ele>
        <time>2025-10-19T07:40:35Z</time>
      </trkpt>
      <trkpt lat="43.22723" lon="5.50431">
        <ele>251.7</ele>
        <time>2025-10-19T07:40:36Z</time>
      </trkpt>
      <trkpt lat="43.22722" lon="5.50431">
        <ele>251.7</ele>
        <time>2025-10-19T07:40:37Z</time>
      </trkpt>
      <trkpt lat="43.22722" lon="5.50431">
        <ele>251.7</ele>
        <time>2025-10-19T07:40:38Z</time>
      </trkpt>
      <trkpt lat="43.22722" lon="5.50431">
        <ele>251.7</ele>
        <time>2025-10-19T07:40:39Z</time>
      </trkpt>
      <trkpt lat="43.22722" lon="5.50431">
        <ele>251.7</ele>
        <time>2025-10-19T07:40:40Z</time>
      </trkpt>
      <trkpt lat="43.22722" lon="5.50431">
        <ele>251.7</ele>
        <time>2025-10-19T07:40:41Z</time>
      </trkpt>
      <trkpt lat="43.22722" lon="5.50431">
        <ele>251.7</ele>
        <time>2025-10-19T07:40:42Z</time>
      </trkpt>
      <trkpt lat="43.22722" lon="5.50431">
        <ele>251.6</ele>
        <time>2025-10-19T07:40:43Z</time>
      </trkpt>
      <trkpt lat="43.22722" lon="5.50431">
        <ele>251.6</ele>
        <time>2025-10-19T07:40:44Z</time>
      </trkpt>
      <trkpt lat="43.22721" lon="5.50431">
        <ele>251.6</ele>
        <time>2025-10-19T07:40:45Z</time>
      </trkpt>
      <trkpt lat="43.22721" lon="5.50431">
        <ele>251.6</ele>
        <time>2025-10-19T07:40:46Z</time>
      </trkpt>
      <trkpt lat="43.22721" lon="5.50431">
        <ele>251.5</ele>
        <time>2025-10-19T07:40:47Z</time>
      </trkpt>
      <trkpt lat="43.22721" lon="5.50431">
        <ele>251.5</ele>
        <time>2025-10-19T07:40:48Z</time>
      </trkpt>
      <trkpt lat="43.22721" lon="5.50431">
        <ele>251.5</ele>
        <time>2025-10-19T07:40:49Z</time>
      </trkpt>
      <trkpt lat="43.2272" lon="5.5043">
        <ele>251.5</ele>
        <time>2025-10-19T07:40:50Z</time>
      </trkpt>
      <trkpt lat="43.2272" lon="5.5043">
        <ele>251.5</ele>
        <time>2025-10-19T07:40:51Z</time>
      </trkpt>
      <trkpt lat="43.2272" lon="5.5043">
        <ele>251.5</ele>
        <time>2025-10-19T07:40:52Z</time>
      </trkpt>
      <trkpt lat="43.22721" lon="5.50429">
        <ele>251.5</ele>
        <time>2025-10-19T07:40:53Z</time>
      </trkpt>
      <trkpt lat="43.22721" lon="5.50428">
        <ele>251.5</ele>
        <time>2025-10-19T07:40:54Z</time>
      </trkpt>
      <trkpt lat="43.22722" lon="5.50428">
        <ele>251.5</ele>
        <time>2025-10-19T07:40:55Z</time>
      </trkpt>
      <trkpt lat="43.22722" lon="5.50426">
        <ele>251.5</ele>
        <time>2025-10-19T07:40:56Z</time>
      </trkpt>
      <trkpt lat="43.22722" lon="5.50425">
        <ele>251.5</ele>
        <time>2025-10-19T07:40:57Z</time>
      </trkpt>
      <trkpt lat="43.22722" lon="5.50424">
        <ele>251.5</ele>
        <time>2025-10-19T07:40:58Z</time>
      </trkpt>
      <trkpt lat="43.22721" lon="5.50423">
        <ele>251.4</ele>
        <time>2025-10-19T07:40:59Z</time>
      </trkpt>
      <trkpt lat="43.22721" lon="5.50421">
        <ele>251.3</ele>
        <time>2025-10-19T07:41:00Z</time>
      </trkpt>
      <trkpt lat="43.22721" lon="5.5042">
        <ele>251.3</ele>
        <time>2025-10-19T07:41:01Z</time>
      </trkpt>
      <trkpt lat="43.22721" lon="5.50419">
        <ele>251.3</ele>
        <time>2025-10-19T07:41:02Z</time>
      </trkpt>
      <trkpt lat="43.2272" lon="5.50418">
        <ele>251.3</ele>
        <time>2025-10-19T07:41:03Z</time>
      </trkpt>
      <trkpt lat="43.2272" lon="5.50417">
        <ele>251.3</ele>
        <time>2025-10-19T07:41:04Z</time>
      </trkpt>
      <trkpt lat="43.2272" lon="5.50415">
        <ele>251.2</ele>
        <time>2025-10-19T07:41:05Z</time>
      </trkpt>
      <trkpt lat="43.22719" lon="5.50414">
        <ele>251.2</ele>
        <time>2025-10-19T07:41:06Z</time>
      </trkpt>
      <trkpt lat="43.22718" lon="5.50414">
        <ele>251.2</ele>
        <time>2025-10-19T07:41:07Z</time>
      </trkpt>
      <trkpt lat="43.22718" lon="5.50413">
        <ele>251.1</ele>
        <time>2025-10-19T07:41:08Z</time>
      </trkpt>
      <trkpt lat="43.22717" lon="5.50412">
        <ele>251.2</ele>
        <time>2025-10-19T07:41:09Z</time>
      </trkpt>
      <trkpt lat="43.22717" lon="5.5041">
        <ele>251.1</ele>
        <time>2025-10-19T07:41:10Z</time>
      </trkpt>
      <trkpt lat="43.22716" lon="5.50409">
        <ele>251.1</ele>
        <time>2025-10-19T07:41:11Z</time>
      </trkpt>
      <trkpt lat="43.22715" lon="5.50408">
        <ele>251</ele>
        <time>2025-10-19T07:41:12Z</time>
      </trkpt>
      <trkpt lat="43.22715" lon="5.50407">
        <ele>251</ele>
        <time>2025-10-19T07:41:13Z</time>
      </trkpt>
      <trkpt lat="43.22714" lon="5.50406">
        <ele>251</ele>
        <time>2025-10-19T07:41:14Z</time>
      </trkpt>
      <trkpt lat="43.22713" lon="5.50405">
        <ele>251</ele>
        <time>2025-10-19T07:41:15Z</time>
      </trkpt>
      <trkpt lat="43.22713" lon="5.50404">
        <ele>251</ele>
        <time>2025-10-19T07:41:16Z</time>
      </trkpt>
      <trkpt lat="43.22712" lon="5.50403">
        <ele>250.9</ele>
        <time>2025-10-19T07:41:17Z</time>
      </trkpt>
      <trkpt lat="43.22712" lon="5.50402">
        <ele>250.8</ele>
        <time>2025-10-19T07:41:18Z</time>
      </trkpt>
      <trkpt lat="43.22711" lon="5.50401">
        <ele>250.8</ele>
        <time>2025-10-19T07:41:19Z</time>
      </trkpt>
      <trkpt lat="43.22711" lon="5.504">
        <ele>250.8</ele>
        <time>2025-10-19T07:41:20Z</time>
      </trkpt>
      <trkpt lat="43.2271" lon="5.50399">
        <ele>250.7</ele>
        <time>2025-10-19T07:41:21Z</time>
      </trkpt>
      <trkpt lat="43.22709" lon="5.50398">
        <ele>250.7</ele>
        <time>2025-10-19T07:41:22Z</time>
      </trkpt>
      <trkpt lat="43.22709" lon="5.50398">
        <ele>250.7</ele>
        <time>2025-10-19T07:41:23Z</time>
      </trkpt>
      <trkpt lat="43.22708" lon="5.50396">
        <ele>250.6</ele>
        <time>2025-10-19T07:41:24Z</time>
      </trkpt>
      <trkpt lat="43.22708" lon="5.50395">
        <ele>250.6</ele>
        <time>2025-10-19T07:41:25Z</time>
      </trkpt>
      <trkpt lat="43.22707" lon="5.50394">
        <ele>250.5</ele>
        <time>2025-10-19T07:41:26Z</time>
      </trkpt>
      <trkpt lat="43.22707" lon="5.50394">
        <ele>250.4</ele>
        <time>2025-10-19T07:41:27Z</time>
      </trkpt>
      <trkpt lat="43.22707" lon="5.50393">
        <ele>250.3</ele>
        <time>2025-10-19T07:41:28Z</time>
      </trkpt>
      <trkpt lat="43.22706" lon="5.50392">
        <ele>250.2</ele>
        <time>2025-10-19T07:41:29Z</time>
      </trkpt>
      <trkpt lat="43.22705" lon="5.50392">
        <ele>250.1</ele>
        <time>2025-10-19T07:41:30Z</time>
      </trkpt>
      <trkpt lat="43.22704" lon="5.50391">
        <ele>250</ele>
        <time>2025-10-19T07:41:31Z</time>
      </trkpt>
      <trkpt lat="43.22704" lon="5.5039">
        <ele>250</ele>
        <time>2025-10-19T07:41:32Z</time>
      </trkpt>
      <trkpt lat="43.22703" lon="5.50389">
        <ele>249.9</ele>
        <time>2025-10-19T07:41:33Z</time>
      </trkpt>
      <trkpt lat="43.22702" lon="5.50388">
        <ele>249.8</ele>
        <time>2025-10-19T07:41:34Z</time>
      </trkpt>
      <trkpt lat="43.22702" lon="5.50387">
        <ele>249.9</ele>
        <time>2025-10-19T07:41:35Z</time>
      </trkpt>
      <trkpt lat="43.22701" lon="5.50385">
        <ele>249.9</ele>
        <time>2025-10-19T07:41:36Z</time>
      </trkpt>
      <trkpt lat="43.227" lon="5.50384">
        <ele>249.9</ele>
        <time>2025-10-19T07:41:37Z</time>
      </trkpt>
      <trkpt lat="43.227" lon="5.50383">
        <ele>249.9</ele>
        <time>2025-10-19T07:41:38Z</time>
      </trkpt>
      <trkpt lat="43.22699" lon="5.50382">
        <ele>249.9</ele>
        <time>2025-10-19T07:41:39Z</time>
      </trkpt>
      <trkpt lat="43.22699" lon="5.50381">
        <ele>249.9</ele>
        <time>2025-10-19T07:41:40Z</time>
      </trkpt>
      <trkpt lat="43.22698" lon="5.50379">
        <ele>249.9</ele>
        <time>2025-10-19T07:41:41Z</time>
      </trkpt>
      <trkpt lat="43.22698" lon="5.50378">
        <ele>249.9</ele>
        <time>2025-10-19T07:41:42Z</time>
      </trkpt>
      <trkpt lat="43.22697" lon="5.50377">
        <ele>249.9</ele>
        <time>2025-10-19T07:41:43Z</time>
      </trkpt>
      <trkpt lat="43.22697" lon="5.50375">
        <ele>249.8</ele>
        <time>2025-10-19T07:41:44Z</time>
      </trkpt>
      <trkpt lat="43.22696" lon="5.50374">
        <ele>249.8</ele>
        <time>2025-10-19T07:41:45Z</time>
      </trkpt>
      <trkpt lat="43.22696" lon="5.50373">
        <ele>249.8</ele>
        <time>2025-10-19T07:41:46Z</time>
      </trkpt>
      <trkpt lat="43.22696" lon="5.50372">
        <ele>249.8</ele>
        <time>2025-10-19T07:41:47Z</time>
      </trkpt>
      <trkpt lat="43.22695" lon="5.5037">
        <ele>249.8</ele>
        <time>2025-10-19T07:41:48Z</time>
      </trkpt>
      <trkpt lat="43.22695" lon="5.50369">
        <ele>249.8</ele>
        <time>2025-10-19T07:41:49Z</time>
      </trkpt>
      <trkpt lat="43.22694" lon="5.50368">
        <ele>249.8</ele>
        <time>2025-10-19T07:41:50Z</time>
      </trkpt>
      <trkpt lat="43.22693" lon="5.50367">
        <ele>249.7</ele>
        <time>2025-10-19T07:41:51Z</time>
      </trkpt>
      <trkpt lat="43.22692" lon="5.50365">
        <ele>249.7</ele>
        <time>2025-10-19T07:41:52Z</time>
      </trkpt>
      <trkpt lat="43.22692" lon="5.50363">
        <ele>249.7</ele>
        <time>2025-10-19T07:41:53Z</time>
      </trkpt>
      <trkpt lat="43.22691" lon="5.50362">
        <ele>249.7</ele>
        <time>2025-10-19T07:41:54Z</time>
      </trkpt>
      <trkpt lat="43.2269" lon="5.50361">
        <ele>249.6</ele>
        <time>2025-10-19T07:41:55Z</time>
      </trkpt>
      <trkpt lat="43.22689" lon="5.50359">
        <ele>249.4</ele>
        <time>2025-10-19T07:41:56Z</time>
      </trkpt>
      <trkpt lat="43.22688" lon="5.50358">
        <ele>249.4</ele>
        <time>2025-10-19T07:41:57Z</time>
      </trkpt>
      <trkpt lat="43.22688" lon="5.50357">
        <ele>249.3</ele>
        <time>2025-10-19T07:41:58Z</time>
      </trkpt>
      <trkpt lat="43.22687" lon="5.50356">
        <ele>249.3</ele>
        <time>2025-10-19T07:41:59Z</time>
      </trkpt>
      <trkpt lat="43.22686" lon="5.50354">
        <ele>249.1</ele>
        <time>2025-10-19T07:42:00Z</time>
      </trkpt>
      <trkpt lat="43.22685" lon="5.50353">
        <ele>249.1</ele>
        <time>2025-10-19T07:42:01Z</time>
      </trkpt>
      <trkpt lat="43.22684" lon="5.50352">
        <ele>249</ele>
        <time>2025-10-19T07:42:02Z</time>
      </trkpt>
      <trkpt lat="43.22684" lon="5.50351">
        <ele>249</ele>
        <time>2025-10-19T07:42:03Z</time>
      </trkpt>
      <trkpt lat="43.22684" lon="5.50349">
        <ele>249</ele>
        <time>2025-10-19T07:42:04Z</time>
      </trkpt>
      <trkpt lat="43.22683" lon="5.50348">
        <ele>249</ele>
        <time>2025-10-19T07:42:05Z</time>
      </trkpt>
      <trkpt lat="43.22682" lon="5.50346">
        <ele>248.8</ele>
        <time>2025-10-19T07:42:06Z</time>
      </trkpt>
      <trkpt lat="43.22681" lon="5.50345">
        <ele>248.9</ele>
        <time>2025-10-19T07:42:07Z</time>
      </trkpt>
      <trkpt lat="43.22681" lon="5.50343">
        <ele>248.9</ele>
        <time>2025-10-19T07:42:08Z</time>
      </trkpt>
      <trkpt lat="43.2268" lon="5.50342">
        <ele>248.9</ele>
        <time>2025-10-19T07:42:09Z</time>
      </trkpt>
      <trkpt lat="43.2268" lon="5.5034">
        <ele>248.8</ele>
        <time>2025-10-19T07:42:10Z</time>
      </trkpt>
      <trkpt lat="43.22679" lon="5.50339">
        <ele>248.8</ele>
        <time>2025-10-19T07:42:11Z</time>
      </trkpt>
      <trkpt lat="43.22678" lon="5.50338">
        <ele>248.7</ele>
        <time>2025-10-19T07:42:12Z</time>
      </trkpt>
      <trkpt lat="43.22677" lon="5.50337">
        <ele>248.6</ele>
        <time>2025-10-19T07:42:13Z</time>
      </trkpt>
      <trkpt lat="43.22676" lon="5.50336">
        <ele>248.5</ele>
        <time>2025-10-19T07:42:14Z</time>
      </trkpt>
      <trkpt lat="43.22676" lon="5.50334">
        <ele>248.4</ele>
        <time>2025-10-19T07:42:15Z</time>
      </trkpt>
      <trkpt lat="43.22675" lon="5.50333">
        <ele>248.4</ele>
        <time>2025-10-19T07:42:16Z</time>
      </trkpt>
      <trkpt lat="43.22674" lon="5.50331">
        <ele>248.4</ele>
        <time>2025-10-19T07:42:17Z</time>
      </trkpt>
      <trkpt lat="43.22673" lon="5.5033">
        <ele>248.3</ele>
        <time>2025-10-19T07:42:18Z</time>
      </trkpt>
      <trkpt lat="43.22672" lon="5.50329">
        <ele>248.3</ele>
        <time>2025-10-19T07:42:19Z</time>
      </trkpt>
      <trkpt lat="43.22671" lon="5.50328">
        <ele>248.2</ele>
        <time>2025-10-19T07:42:20Z</time>
      </trkpt>
      <trkpt lat="43.2267" lon="5.50327">
        <ele>248.1</ele>
        <time>2025-10-19T07:42:21Z</time>
      </trkpt>
      <trkpt lat="43.22669" lon="5.50326">
        <ele>248</ele>
        <time>2025-10-19T07:42:22Z</time>
      </trkpt>
      <trkpt lat="43.22668" lon="5.50324">
        <ele>248</ele>
        <time>2025-10-19T07:42:23Z</time>
      </trkpt>
      <trkpt lat="43.22668" lon="5.50323">
        <ele>247.9</ele>
        <time>2025-10-19T07:42:24Z</time>
      </trkpt>
      <trkpt lat="43.22667" lon="5.50321">
        <ele>247.8</ele>
        <time>2025-10-19T07:42:25Z</time>
      </trkpt>
      <trkpt lat="43.22666" lon="5.5032">
        <ele>247.7</ele>
        <time>2025-10-19T07:42:26Z</time>
      </trkpt>
      <trkpt lat="43.22665" lon="5.50319">
        <ele>247.6</ele>
        <time>2025-10-19T07:42:27Z</time>
      </trkpt>
      <trkpt lat="43.22664" lon="5.50318">
        <ele>247.5</ele>
        <time>2025-10-19T07:42:28Z</time>
      </trkpt>
      <trkpt lat="43.22663" lon="5.50317">
        <ele>247.5</ele>
        <time>2025-10-19T07:42:29Z</time>
      </trkpt>
      <trkpt lat="43.22662" lon="5.50315">
        <ele>247.5</ele>
        <time>2025-10-19T07:42:30Z</time>
      </trkpt>
      <trkpt lat="43.22661" lon="5.50314">
        <ele>247.5</ele>
        <time>2025-10-19T07:42:31Z</time>
      </trkpt>
      <trkpt lat="43.2266" lon="5.50313">
        <ele>247.6</ele>
        <time>2025-10-19T07:42:32Z</time>
      </trkpt>
      <trkpt lat="43.22659" lon="5.50312">
        <ele>247.5</ele>
        <time>2025-10-19T07:42:33Z</time>
      </trkpt>
      <trkpt lat="43.22658" lon="5.50311">
        <ele>247.5</ele>
        <time>2025-10-19T07:42:34Z</time>
      </trkpt>
      <trkpt lat="43.22658" lon="5.50309">
        <ele>247.6</ele>
        <time>2025-10-19T07:42:35Z</time>
      </trkpt>
      <trkpt lat="43.22657" lon="5.50308">
        <ele>247.6</ele>
        <time>2025-10-19T07:42:36Z</time>
      </trkpt>
      <trkpt lat="43.22656" lon="5.50307">
        <ele>247.6</ele>
        <time>2025-10-19T07:42:37Z</time>
      </trkpt>
      <trkpt lat="43.22655" lon="5.50306">
        <ele>247.6</ele>
        <time>2025-10-19T07:42:38Z</time>
      </trkpt>
      <trkpt lat="43.22654" lon="5.50304">
        <ele>247.5</ele>
        <time>2025-10-19T07:42:39Z</time>
      </trkpt>
      <trkpt lat="43.22653" lon="5.50303">
        <ele>247.4</ele>
        <time>2025-10-19T07:42:40Z</time>
      </trkpt>
      <trkpt lat="43.22652" lon="5.50302">
        <ele>247.4</ele>
        <time>2025-10-19T07:42:41Z</time>
      </trkpt>
      <trkpt lat="43.22651" lon="5.50301">
        <ele>247.3</ele>
        <time>2025-10-19T07:42:42Z</time>
      </trkpt>
      <trkpt lat="43.22651" lon="5.503">
        <ele>247.2</ele>
        <time>2025-10-19T07:42:43Z</time>
      </trkpt>
      <trkpt lat="43.2265" lon="5.50298">
        <ele>247.1</ele>
        <time>2025-10-19T07:42:44Z</time>
      </trkpt>
      <trkpt lat="43.22649" lon="5.50297">
        <ele>247</ele>
        <time>2025-10-19T07:42:45Z</time>
      </trkpt>
      <trkpt lat="43.22648" lon="5.50296">
        <ele>246.9</ele>
        <time>2025-10-19T07:42:46Z</time>
      </trkpt>
      <trkpt lat="43.22647" lon="5.50295">
        <ele>246.9</ele>
        <time>2025-10-19T07:42:47Z</time>
      </trkpt>
      <trkpt lat="43.22646" lon="5.50294">
        <ele>246.9</ele>
        <time>2025-10-19T07:42:48Z</time>
      </trkpt>
      <trkpt lat="43.22645" lon="5.50293">
        <ele>246.9</ele>
        <time>2025-10-19T07:42:49Z</time>
      </trkpt>
      <trkpt lat="43.22644" lon="5.50293">
        <ele>246.9</ele>
        <time>2025-10-19T07:42:50Z</time>
      </trkpt>
      <trkpt lat="43.22643" lon="5.50292">
        <ele>246.8</ele>
        <time>2025-10-19T07:42:51Z</time>
      </trkpt>
      <trkpt lat="43.22642" lon="5.50291">
        <ele>246.7</ele>
        <time>2025-10-19T07:42:52Z</time>
      </trkpt>
      <trkpt lat="43.22641" lon="5.5029">
        <ele>246.6</ele>
        <time>2025-10-19T07:42:53Z</time>
      </trkpt>
      <trkpt lat="43.2264" lon="5.50289">
        <ele>246.6</ele>
        <time>2025-10-19T07:42:54Z</time>
      </trkpt>
      <trkpt lat="43.22639" lon="5.50288">
        <ele>246.5</ele>
        <time>2025-10-19T07:42:55Z</time>
      </trkpt>
      <trkpt lat="43.22638" lon="5.50286">
        <ele>246.5</ele>
        <time>2025-10-19T07:42:56Z</time>
      </trkpt>
      <trkpt lat="43.22637" lon="5.50285">
        <ele>246.4</ele>
        <time>2025-10-19T07:42:57Z</time>
      </trkpt>
      <trkpt lat="43.22637" lon="5.50284">
        <ele>246.4</ele>
        <time>2025-10-19T07:42:58Z</time>
      </trkpt>
      <trkpt lat="43.22636" lon="5.50283">
        <ele>246.2</ele>
        <time>2025-10-19T07:42:59Z</time>
      </trkpt>
      <trkpt lat="43.22635" lon="5.50283">
        <ele>246.1</ele>
        <time>2025-10-19T07:43:00Z</time>
      </trkpt>
      <trkpt lat="43.22634" lon="5.50283">
        <ele>246</ele>
        <time>2025-10-19T07:43:01Z</time>
      </trkpt>
      <trkpt lat="43.22633" lon="5.50282">
        <ele>245.9</ele>
        <time>2025-10-19T07:43:02Z</time>
      </trkpt>
      <trkpt lat="43.22631" lon="5.50282">
        <ele>245.9</ele>
        <time>2025-10-19T07:43:03Z</time>
      </trkpt>
      <trkpt lat="43.2263" lon="5.50281">
        <ele>245.9</ele>
        <time>2025-10-19T07:43:04Z</time>
      </trkpt>
      <trkpt lat="43.22629" lon="5.50281">
        <ele>245.8</ele>
        <time>2025-10-19T07:43:05Z</time>
      </trkpt>
      <trkpt lat="43.22628" lon="5.5028">
        <ele>245.8</ele>
        <time>2025-10-19T07:43:06Z</time>
      </trkpt>
      <trkpt lat="43.22627" lon="5.5028">
        <ele>245.7</ele>
        <time>2025-10-19T07:43:07Z</time>
      </trkpt>
      <trkpt lat="43.22626" lon="5.5028">
        <ele>245.7</ele>
        <time>2025-10-19T07:43:08Z</time>
      </trkpt>
      <trkpt lat="43.22624" lon="5.50279">
        <ele>245.6</ele>
        <time>2025-10-19T07:43:09Z</time>
      </trkpt>
      <trkpt lat="43.22623" lon="5.50279">
        <ele>245.5</ele>
        <time>2025-10-19T07:43:10Z</time>
      </trkpt>
      <trkpt lat="43.22621" lon="5.5028">
        <ele>245.4</ele>
        <time>2025-10-19T07:43:11Z</time>
      </trkpt>
      <trkpt lat="43.2262" lon="5.5028">
        <ele>245.3</ele>
        <time>2025-10-19T07:43:12Z</time>
      </trkpt>
      <trkpt lat="43.22619" lon="5.5028">
        <ele>245.2</ele>
        <time>2025-10-19T07:43:13Z</time>
      </trkpt>
      <trkpt lat="43.22618" lon="5.50279">
        <ele>245.2</ele>
        <time>2025-10-19T07:43:14Z</time>
      </trkpt>
      <trkpt lat="43.22617" lon="5.50279">
        <ele>245.1</ele>
        <time>2025-10-19T07:43:15Z</time>
      </trkpt>
      <trkpt lat="43.22615" lon="5.50279">
        <ele>245</ele>
        <time>2025-10-19T07:43:16Z</time>
      </trkpt>
      <trkpt lat="43.22614" lon="5.50279">
        <ele>245</ele>
        <time>2025-10-19T07:43:17Z</time>
      </trkpt>
      <trkpt lat="43.22613" lon="5.50279">
        <ele>244.9</ele>
        <time>2025-10-19T07:43:18Z</time>
      </trkpt>
      <trkpt lat="43.22611" lon="5.50278">
        <ele>244.8</ele>
        <time>2025-10-19T07:43:19Z</time>
      </trkpt>
      <trkpt lat="43.2261" lon="5.50279">
        <ele>244.6</ele>
        <time>2025-10-19T07:43:20Z</time>
      </trkpt>
      <trkpt lat="43.22609" lon="5.50278">
        <ele>244.4</ele>
        <time>2025-10-19T07:43:21Z</time>
      </trkpt>
      <trkpt lat="43.22607" lon="5.50278">
        <ele>244.3</ele>
        <time>2025-10-19T07:43:22Z</time>
      </trkpt>
      <trkpt lat="43.22606" lon="5.50278">
        <ele>244.2</ele>
        <time>2025-10-19T07:43:23Z</time>
      </trkpt>
      <trkpt lat="43.22605" lon="5.50279">
        <ele>244.1</ele>
        <time>2025-10-19T07:43:24Z</time>
      </trkpt>
      <trkpt lat="43.22604" lon="5.50279">
        <ele>244.1</ele>
        <time>2025-10-19T07:43:25Z</time>
      </trkpt>
      <trkpt lat="43.22603" lon="5.50279">
        <ele>244</ele>
        <time>2025-10-19T07:43:26Z</time>
      </trkpt>
      <trkpt lat="43.22601" lon="5.50279">
        <ele>243.9</ele>
        <time>2025-10-19T07:43:27Z</time>
      </trkpt>
      <trkpt lat="43.226" lon="5.50279">
        <ele>243.9</ele>
        <time>2025-10-19T07:43:28Z</time>
      </trkpt>
      <trkpt lat="43.22599" lon="5.50279">
        <ele>243.8</ele>
        <time>2025-10-19T07:43:29Z</time>
      </trkpt>
      <trkpt lat="43.22598" lon="5.50279">
        <ele>243.7</ele>
        <time>2025-10-19T07:43:30Z</time>
      </trkpt>
      <trkpt lat="43.22597" lon="5.50279">
        <ele>243.7</ele>
        <time>2025-10-19T07:43:31Z</time>
      </trkpt>
      <trkpt lat="43.22595" lon="5.50279">
        <ele>243.7</ele>
        <time>2025-10-19T07:43:32Z</time>
      </trkpt>
      <trkpt lat="43.22594" lon="5.50279">
        <ele>243.7</ele>
        <time>2025-10-19T07:43:33Z</time>
      </trkpt>
      <trkpt lat="43.22593" lon="5.50279">
        <ele>243.5</ele>
        <time>2025-10-19T07:43:34Z</time>
      </trkpt>
      <trkpt lat="43.22591" lon="5.50279">
        <ele>243.4</ele>
        <time>2025-10-19T07:43:35Z</time>
      </trkpt>
      <trkpt lat="43.2259" lon="5.50279">
        <ele>243.3</ele>
        <time>2025-10-19T07:43:36Z</time>
      </trkpt>
      <trkpt lat="43.22588" lon="5.50279">
        <ele>243.2</ele>
        <time>2025-10-19T07:43:37Z</time>
      </trkpt>
      <trkpt lat="43.22587" lon="5.50279">
        <ele>243.1</ele>
        <time>2025-10-19T07:43:38Z</time>
      </trkpt>
      <trkpt lat="43.22585" lon="5.50278">
        <ele>243</ele>
        <time>2025-10-19T07:43:39Z</time>
      </trkpt>
      <trkpt lat="43.22584" lon="5.50278">
        <ele>242.9</ele>
        <time>2025-10-19T07:43:40Z</time>
      </trkpt>
      <trkpt lat="43.22583" lon="5.50278">
        <ele>242.7</ele>
        <time>2025-10-19T07:43:41Z</time>
      </trkpt>
      <trkpt lat="43.22582" lon="5.50278">
        <ele>242.6</ele>
        <time>2025-10-19T07:43:42Z</time>
      </trkpt>
      <trkpt lat="43.22581" lon="5.50278">
        <ele>242.4</ele>
        <time>2025-10-19T07:43:43Z</time>
      </trkpt>
      <trkpt lat="43.22579" lon="5.50279">
        <ele>242.3</ele>
        <time>2025-10-19T07:43:44Z</time>
      </trkpt>
      <trkpt lat="43.22578" lon="5.50279">
        <ele>242.1</ele>
        <time>2025-10-19T07:43:45Z</time>
      </trkpt>
      <trkpt lat="43.22577" lon="5.50279">
        <ele>242</ele>
        <time>2025-10-19T07:43:46Z</time>
      </trkpt>
      <trkpt lat="43.22576" lon="5.50279">
        <ele>241.9</ele>
        <time>2025-10-19T07:43:47Z</time>
      </trkpt>
      <trkpt lat="43.22574" lon="5.50279">
        <ele>241.8</ele>
        <time>2025-10-19T07:43:48Z</time>
      </trkpt>
      <trkpt lat="43.22573" lon="5.50279">
        <ele>241.7</ele>
        <time>2025-10-19T07:43:49Z</time>
      </trkpt>
      <trkpt lat="43.22572" lon="5.50279">
        <ele>241.6</ele>
        <time>2025-10-19T07:43:50Z</time>
      </trkpt>
      <trkpt lat="43.22571" lon="5.50279">
        <ele>241.6</ele>
        <time>2025-10-19T07:43:51Z</time>
      </trkpt>
      <trkpt lat="43.22569" lon="5.50279">
        <ele>241.5</ele>
        <time>2025-10-19T07:43:52Z</time>
      </trkpt>
      <trkpt lat="43.22568" lon="5.50279">
        <ele>241.4</ele>
        <time>2025-10-19T07:43:53Z</time>
      </trkpt>
      <trkpt lat="43.22567" lon="5.50278">
        <ele>241.2</ele>
        <time>2025-10-19T07:43:54Z</time>
      </trkpt>
      <trkpt lat="43.22565" lon="5.50278">
        <ele>241.1</ele>
        <time>2025-10-19T07:43:55Z</time>
      </trkpt>
      <trkpt lat="43.22564" lon="5.50278">
        <ele>241</ele>
        <time>2025-10-19T07:43:56Z</time>
      </trkpt>
      <trkpt lat="43.22563" lon="5.50278">
        <ele>240.9</ele>
        <time>2025-10-19T07:43:57Z</time>
      </trkpt>
      <trkpt lat="43.22562" lon="5.50278">
        <ele>240.9</ele>
        <time>2025-10-19T07:43:58Z</time>
      </trkpt>
      <trkpt lat="43.22561" lon="5.50278">
        <ele>240.8</ele>
        <time>2025-10-19T07:43:59Z</time>
      </trkpt>
      <trkpt lat="43.22559" lon="5.50278">
        <ele>240.8</ele>
        <time>2025-10-19T07:44:00Z</time>
      </trkpt>
      <trkpt lat="43.22558" lon="5.50277">
        <ele>240.7</ele>
        <time>2025-10-19T07:44:01Z</time>
      </trkpt>
      <trkpt lat="43.22557" lon="5.50277">
        <ele>240.7</ele>
        <time>2025-10-19T07:44:02Z</time>
      </trkpt>
      <trkpt lat="43.22556" lon="5.50277">
        <ele>240.6</ele>
        <time>2025-10-19T07:44:03Z</time>
      </trkpt>
      <trkpt lat="43.22554" lon="5.50277">
        <ele>240.5</ele>
        <time>2025-10-19T07:44:04Z</time>
      </trkpt>
      <trkpt lat="43.22553" lon="5.50276">
        <ele>240.3</ele>
        <time>2025-10-19T07:44:05Z</time>
      </trkpt>
      <trkpt lat="43.22552" lon="5.50276">
        <ele>240.1</ele>
        <time>2025-10-19T07:44:06Z</time>
      </trkpt>
      <trkpt lat="43.2255" lon="5.50276">
        <ele>240</ele>
        <time>2025-10-19T07:44:07Z</time>
      </trkpt>
      <trkpt lat="43.22549" lon="5.50276">
        <ele>240</ele>
        <time>2025-10-19T07:44:08Z</time>
      </trkpt>
      <trkpt lat="43.22548" lon="5.50276">
        <ele>240</ele>
        <time>2025-10-19T07:44:09Z</time>
      </trkpt>
      <trkpt lat="43.22546" lon="5.50276">
        <ele>239.9</ele>
        <time>2025-10-19T07:44:10Z</time>
      </trkpt>
      <trkpt lat="43.22544" lon="5.50276">
        <ele>239.8</ele>
        <time>2025-10-19T07:44:11Z</time>
      </trkpt>
      <trkpt lat="43.22543" lon="5.50276">
        <ele>239.7</ele>
        <time>2025-10-19T07:44:12Z</time>
      </trkpt>
      <trkpt lat="43.22542" lon="5.50276">
        <ele>239.6</ele>
        <time>2025-10-19T07:44:13Z</time>
      </trkpt>
      <trkpt lat="43.22541" lon="5.50276">
        <ele>239.6</ele>
        <time>2025-10-19T07:44:14Z</time>
      </trkpt>
      <trkpt lat="43.2254" lon="5.50276">
        <ele>239.6</ele>
        <time>2025-10-19T07:44:15Z</time>
      </trkpt>
      <trkpt lat="43.22539" lon="5.50276">
        <ele>239.4</ele>
        <time>2025-10-19T07:44:16Z</time>
      </trkpt>
      <trkpt lat="43.22538" lon="5.50276">
        <ele>239.4</ele>
        <time>2025-10-19T07:44:17Z</time>
      </trkpt>
      <trkpt lat="43.22537" lon="5.50276">
        <ele>239.3</ele>
        <time>2025-10-19T07:44:18Z</time>
      </trkpt>
      <trkpt lat="43.22536" lon="5.50275">
        <ele>239.3</ele>
        <time>2025-10-19T07:44:19Z</time>
      </trkpt>
      <trkpt lat="43.22535" lon="5.50275">
        <ele>239.1</ele>
        <time>2025-10-19T07:44:20Z</time>
      </trkpt>
      <trkpt lat="43.22534" lon="5.50275">
        <ele>239</ele>
        <time>2025-10-19T07:44:21Z</time>
      </trkpt>
      <trkpt lat="43.22533" lon="5.50274">
        <ele>238.9</ele>
        <time>2025-10-19T07:44:22Z</time>
      </trkpt>
      <trkpt lat="43.22532" lon="5.50273">
        <ele>238.9</ele>
        <time>2025-10-19T07:44:23Z</time>
      </trkpt>
      <trkpt lat="43.22532" lon="5.50273">
        <ele>238.8</ele>
        <time>2025-10-19T07:44:24Z</time>
      </trkpt>
      <trkpt lat="43.22531" lon="5.50272">
        <ele>238.7</ele>
        <time>2025-10-19T07:44:25Z</time>
      </trkpt>
      <trkpt lat="43.2253" lon="5.50272">
        <ele>238.8</ele>
        <time>2025-10-19T07:44:26Z</time>
      </trkpt>
      <trkpt lat="43.22529" lon="5.50272">
        <ele>238.7</ele>
        <time>2025-10-19T07:44:27Z</time>
      </trkpt>
      <trkpt lat="43.22528" lon="5.50272">
        <ele>238.7</ele>
        <time>2025-10-19T07:44:28Z</time>
      </trkpt>
      <trkpt lat="43.22527" lon="5.50272">
        <ele>238.7</ele>
        <time>2025-10-19T07:44:29Z</time>
      </trkpt>
      <trkpt lat="43.22527" lon="5.50271">
        <ele>238.8</ele>
        <time>2025-10-19T07:44:30Z</time>
      </trkpt>
      <trkpt lat="43.22526" lon="5.50271">
        <ele>238.8</ele>
        <time>2025-10-19T07:44:31Z</time>
      </trkpt>
      <trkpt lat="43.22525" lon="5.50271">
        <ele>238.8</ele>
        <time>2025-10-19T07:44:32Z</time>
      </trkpt>
      <trkpt lat="43.22524" lon="5.5027">
        <ele>238.7</ele>
        <time>2025-10-19T07:44:33Z</time>
      </trkpt>
      <trkpt lat="43.22523" lon="5.5027">
        <ele>238.7</ele>
        <time>2025-10-19T07:44:34Z</time>
      </trkpt>
      <trkpt lat="43.22522" lon="5.5027">
        <ele>238.7</ele>
        <time>2025-10-19T07:44:35Z</time>
      </trkpt>
      <trkpt lat="43.22521" lon="5.5027">
        <ele>238.8</ele>
        <time>2025-10-19T07:44:36Z</time>
      </trkpt>
      <trkpt lat="43.2252" lon="5.5027">
        <ele>238.8</ele>
        <time>2025-10-19T07:44:37Z</time>
      </trkpt>
      <trkpt lat="43.22519" lon="5.50269">
        <ele>238.9</ele>
        <time>2025-10-19T07:44:38Z</time>
      </trkpt>
      <trkpt lat="43.22518" lon="5.50269">
        <ele>239</ele>
        <time>2025-10-19T07:44:39Z</time>
      </trkpt>
      <trkpt lat="43.22517" lon="5.50268">
        <ele>239</ele>
        <time>2025-10-19T07:44:40Z</time>
      </trkpt>
      <trkpt lat="43.22516" lon="5.50268">
        <ele>239</ele>
        <time>2025-10-19T07:44:41Z</time>
      </trkpt>
      <trkpt lat="43.22515" lon="5.50268">
        <ele>238.9</ele>
        <time>2025-10-19T07:44:42Z</time>
      </trkpt>
      <trkpt lat="43.22514" lon="5.50268">
        <ele>238.8</ele>
        <time>2025-10-19T07:44:43Z</time>
      </trkpt>
      <trkpt lat="43.22513" lon="5.50268">
        <ele>238.8</ele>
        <time>2025-10-19T07:44:44Z</time>
      </trkpt>
      <trkpt lat="43.22512" lon="5.50267">
        <ele>238.8</ele>
        <time>2025-10-19T07:44:45Z</time>
      </trkpt>
      <trkpt lat="43.22511" lon="5.50266">
        <ele>238.9</ele>
        <time>2025-10-19T07:44:46Z</time>
      </trkpt>
      <trkpt lat="43.22509" lon="5.50265">
        <ele>238.8</ele>
        <time>2025-10-19T07:44:47Z</time>
      </trkpt>
      <trkpt lat="43.22508" lon="5.50265">
        <ele>238.8</ele>
        <time>2025-10-19T07:44:48Z</time>
      </trkpt>
      <trkpt lat="43.22507" lon="5.50264">
        <ele>238.9</ele>
        <time>2025-10-19T07:44:49Z</time>
      </trkpt>
      <trkpt lat="43.22506" lon="5.50264">
        <ele>239</ele>
        <time>2025-10-19T07:44:50Z</time>
      </trkpt>
      <trkpt lat="43.22506" lon="5.50263">
        <ele>239</ele>
        <time>2025-10-19T07:44:51Z</time>
      </trkpt>
      <trkpt lat="43.22505" lon="5.50263">
        <ele>239.1</ele>
        <time>2025-10-19T07:44:52Z</time>
      </trkpt>
      <trkpt lat="43.22504" lon="5.50262">
        <ele>239</ele>
        <time>2025-10-19T07:44:53Z</time>
      </trkpt>
      <trkpt lat="43.22503" lon="5.50262">
        <ele>238.9</ele>
        <time>2025-10-19T07:44:54Z</time>
      </trkpt>
      <trkpt lat="43.22501" lon="5.50261">
        <ele>238.9</ele>
        <time>2025-10-19T07:44:55Z</time>
      </trkpt>
      <trkpt lat="43.225" lon="5.50261">
        <ele>238.8</ele>
        <time>2025-10-19T07:44:56Z</time>
      </trkpt>
      <trkpt lat="43.22499" lon="5.5026">
        <ele>238.9</ele>
        <time>2025-10-19T07:44:57Z</time>
      </trkpt>
      <trkpt lat="43.22498" lon="5.5026">
        <ele>238.9</ele>
        <time>2025-10-19T07:44:58Z</time>
      </trkpt>
      <trkpt lat="43.22498" lon="5.5026">
        <ele>238.9</ele>
        <time>2025-10-19T07:44:59Z</time>
      </trkpt>
      <trkpt lat="43.22496" lon="5.50259">
        <ele>238.9</ele>
        <time>2025-10-19T07:45:00Z</time>
      </trkpt>
      <trkpt lat="43.22495" lon="5.50258">
        <ele>239</ele>
        <time>2025-10-19T07:45:01Z</time>
      </trkpt>
      <trkpt lat="43.22494" lon="5.50258">
        <ele>239</ele>
        <time>2025-10-19T07:45:02Z</time>
      </trkpt>
      <trkpt lat="43.22493" lon="5.50257">
        <ele>239.1</ele>
        <time>2025-10-19T07:45:03Z</time>
      </trkpt>
      <trkpt lat="43.22492" lon="5.50256">
        <ele>239.1</ele>
        <time>2025-10-19T07:45:04Z</time>
      </trkpt>
      <trkpt lat="43.22491" lon="5.50256">
        <ele>239.1</ele>
        <time>2025-10-19T07:45:05Z</time>
      </trkpt>
      <trkpt lat="43.22491" lon="5.50255">
        <ele>239.2</ele>
        <time>2025-10-19T07:45:06Z</time>
      </trkpt>
      <trkpt lat="43.2249" lon="5.50255">
        <ele>239.3</ele>
        <time>2025-10-19T07:45:07Z</time>
      </trkpt>
      <trkpt lat="43.22489" lon="5.50254">
        <ele>239.3</ele>
        <time>2025-10-19T07:45:08Z</time>
      </trkpt>
      <trkpt lat="43.22488" lon="5.50254">
        <ele>239.3</ele>
        <time>2025-10-19T07:45:09Z</time>
      </trkpt>
      <trkpt lat="43.22487" lon="5.50253">
        <ele>239.4</ele>
        <time>2025-10-19T07:45:10Z</time>
      </trkpt>
      <trkpt lat="43.22486" lon="5.50252">
        <ele>239.5</ele>
        <time>2025-10-19T07:45:11Z</time>
      </trkpt>
      <trkpt lat="43.22485" lon="5.50251">
        <ele>239.5</ele>
        <time>2025-10-19T07:45:12Z</time>
      </trkpt>
      <trkpt lat="43.22485" lon="5.50251">
        <ele>239.4</ele>
        <time>2025-10-19T07:45:13Z</time>
      </trkpt>
      <trkpt lat="43.22484" lon="5.5025">
        <ele>239.4</ele>
        <time>2025-10-19T07:45:14Z</time>
      </trkpt>
      <trkpt lat="43.22483" lon="5.50249">
        <ele>239.5</ele>
        <time>2025-10-19T07:45:15Z</time>
      </trkpt>
      <trkpt lat="43.22482" lon="5.50249">
        <ele>239.4</ele>
        <time>2025-10-19T07:45:16Z</time>
      </trkpt>
      <trkpt lat="43.22481" lon="5.50249">
        <ele>239.4</ele>
        <time>2025-10-19T07:45:17Z</time>
      </trkpt>
      <trkpt lat="43.22481" lon="5.50248">
        <ele>239.3</ele>
        <time>2025-10-19T07:45:18Z</time>
      </trkpt>
      <trkpt lat="43.2248" lon="5.50247">
        <ele>239.3</ele>
        <time>2025-10-19T07:45:19Z</time>
      </trkpt>
      <trkpt lat="43.22479" lon="5.50247">
        <ele>239.3</ele>
        <time>2025-10-19T07:45:20Z</time>
      </trkpt>
      <trkpt lat="43.22479" lon="5.50247">
        <ele>239.3</ele>
        <time>2025-10-19T07:45:21Z</time>
      </trkpt>
      <trkpt lat="43.22478" lon="5.50246">
        <ele>239.2</ele>
        <time>2025-10-19T07:45:22Z</time>
      </trkpt>
      <trkpt lat="43.22477" lon="5.50245">
        <ele>239.2</ele>
        <time>2025-10-19T07:45:23Z</time>
      </trkpt>
      <trkpt lat="43.22476" lon="5.50245">
        <ele>239.2</ele>
        <time>2025-10-19T07:45:24Z</time>
      </trkpt>
      <trkpt lat="43.22475" lon="5.50245">
        <ele>239.2</ele>
        <time>2025-10-19T07:45:25Z</time>
      </trkpt>
      <trkpt lat="43.22475" lon="5.50245">
        <ele>239.2</ele>
        <time>2025-10-19T07:45:26Z</time>
      </trkpt>
      <trkpt lat="43.22475" lon="5.50245">
        <ele>239.2</ele>
        <time>2025-10-19T07:45:27Z</time>
      </trkpt>
      <trkpt lat="43.22475" lon="5.50245">
        <ele>239.2</ele>
        <time>2025-10-19T07:45:28Z</time>
      </trkpt>
      <trkpt lat="43.22475" lon="5.50245">
        <ele>239.3</ele>
        <time>2025-10-19T07:45:29Z</time>
      </trkpt>
      <trkpt lat="43.22474" lon="5.50244">
        <ele>239.3</ele>
        <time>2025-10-19T07:45:30Z</time>
      </trkpt>
      <trkpt lat="43.22474" lon="5.50244">
        <ele>239.3</ele>
        <time>2025-10-19T07:45:31Z</time>
      </trkpt>
      <trkpt lat="43.22473" lon="5.50244">
        <ele>239.3</ele>
        <time>2025-10-19T07:45:32Z</time>
      </trkpt>
      <trkpt lat="43.22473" lon="5.50243">
        <ele>239.2</ele>
        <time>2025-10-19T07:45:33Z</time>
      </trkpt>
      <trkpt lat="43.22472" lon="5.50243">
        <ele>239.2</ele>
        <time>2025-10-19T07:45:34Z</time>
      </trkpt>
      <trkpt lat="43.22472" lon="5.50242">
        <ele>239.2</ele>
        <time>2025-10-19T07:45:35Z</time>
      </trkpt>
      <trkpt lat="43.22471" lon="5.50242">
        <ele>239.1</ele>
        <time>2025-10-19T07:45:36Z</time>
      </trkpt>
      <trkpt lat="43.2247" lon="5.50242">
        <ele>239</ele>
        <time>2025-10-19T07:45:37Z</time>
      </trkpt>
      <trkpt lat="43.22469" lon="5.50241">
        <ele>239</ele>
        <time>2025-10-19T07:45:38Z</time>
      </trkpt>
      <trkpt lat="43.22469" lon="5.50241">
        <ele>238.9</ele>
        <time>2025-10-19T07:45:39Z</time>
      </trkpt>
      <trkpt lat="43.22469" lon="5.50241">
        <ele>238.9</ele>
        <time>2025-10-19T07:45:40Z</time>
      </trkpt>
      <trkpt lat="43.22469" lon="5.50241">
        <ele>238.9</ele>
        <time>2025-10-19T07:45:41Z</time>
      </trkpt>
      <trkpt lat="43.22469" lon="5.50241">
        <ele>238.9</ele>
        <time>2025-10-19T07:45:42Z</time>
      </trkpt>
      <trkpt lat="43.22469" lon="5.50241">
        <ele>238.8</ele>
        <time>2025-10-19T07:45:43Z</time>
      </trkpt>
      <trkpt lat="43.22469" lon="5.5024">
        <ele>238.9</ele>
        <time>2025-10-19T07:45:44Z</time>
      </trkpt>
      <trkpt lat="43.22469" lon="5.5024">
        <ele>238.9</ele>
        <time>2025-10-19T07:45:45Z</time>
      </trkpt>
      <trkpt lat="43.22469" lon="5.5024">
        <ele>238.8</ele>
        <time>2025-10-19T07:45:46Z</time>
      </trkpt>
      <trkpt lat="43.22469" lon="5.5024">
        <ele>238.8</ele>
        <time>2025-10-19T07:45:47Z</time>
      </trkpt>
      <trkpt lat="43.22469" lon="5.5024">
        <ele>238.7</ele>
        <time>2025-10-19T07:45:48Z</time>
      </trkpt>
      <trkpt lat="43.22469" lon="5.5024">
        <ele>238.7</ele>
        <time>2025-10-19T07:45:49Z</time>
      </trkpt>
      <trkpt lat="43.22468" lon="5.5024">
        <ele>238.7</ele>
        <time>2025-10-19T07:45:50Z</time>
      </trkpt>
      <trkpt lat="43.22468" lon="5.50239">
        <ele>238.7</ele>
        <time>2025-10-19T07:45:51Z</time>
      </trkpt>
      <trkpt lat="43.22468" lon="5.50239">
        <ele>238.6</ele>
        <time>2025-10-19T07:45:52Z</time>
      </trkpt>
      <trkpt lat="43.22469" lon="5.50238">
        <ele>238.6</ele>
        <time>2025-10-19T07:45:53Z</time>
      </trkpt>
      <trkpt lat="43.22469" lon="5.50238">
        <ele>238.6</ele>
        <time>2025-10-19T07:45:54Z</time>
      </trkpt>
      <trkpt lat="43.22469" lon="5.50238">
        <ele>238.5</ele>
        <time>2025-10-19T07:45:55Z</time>
      </trkpt>
      <trkpt lat="43.22469" lon="5.50238">
        <ele>238.6</ele>
        <time>2025-10-19T07:45:56Z</time>
      </trkpt>
      <trkpt lat="43.22469" lon="5.50238">
        <ele>238.6</ele>
        <time>2025-10-19T07:45:57Z</time>
      </trkpt>
      <trkpt lat="43.22469" lon="5.50238">
        <ele>238.5</ele>
        <time>2025-10-19T07:45:58Z</time>
      </trkpt>
      <trkpt lat="43.22468" lon="5.50238">
        <ele>238.4</ele>
        <time>2025-10-19T07:45:59Z</time>
      </trkpt>
      <trkpt lat="43.22468" lon="5.50238">
        <ele>238.4</ele>
        <time>2025-10-19T07:46:00Z</time>
      </trkpt>
      <trkpt lat="43.22468" lon="5.50237">
        <ele>238.4</ele>
        <time>2025-10-19T07:46:01Z</time>
      </trkpt>
      <trkpt lat="43.22467" lon="5.50238">
        <ele>238.3</ele>
        <time>2025-10-19T07:46:02Z</time>
      </trkpt>
      <trkpt lat="43.22467" lon="5.50238">
        <ele>238.3</ele>
        <time>2025-10-19T07:46:03Z</time>
      </trkpt>
      <trkpt lat="43.22467" lon="5.50238">
        <ele>238.3</ele>
        <time>2025-10-19T07:46:04Z</time>
      </trkpt>
      <trkpt lat="43.22468" lon="5.50238">
        <ele>238.3</ele>
        <time>2025-10-19T07:46:05Z</time>
      </trkpt>
      <trkpt lat="43.22468" lon="5.50238">
        <ele>238.3</ele>
        <time>2025-10-19T07:46:06Z</time>
      </trkpt>
      <trkpt lat="43.22468" lon="5.50238">
        <ele>238.3</ele>
        <time>2025-10-19T07:46:07Z</time>
      </trkpt>
      <trkpt lat="43.22468" lon="5.50239">
        <ele>238.5</ele>
        <time>2025-10-19T07:46:08Z</time>
      </trkpt>
      <trkpt lat="43.22469" lon="5.50239">
        <ele>238.5</ele>
        <time>2025-10-19T07:46:09Z</time>
      </trkpt>
      <trkpt lat="43.2247" lon="5.5024">
        <ele>238.5</ele>
        <time>2025-10-19T07:46:10Z</time>
      </trkpt>
      <trkpt lat="43.22471" lon="5.5024">
        <ele>238.6</ele>
        <time>2025-10-19T07:46:11Z</time>
      </trkpt>
      <trkpt lat="43.2247" lon="5.5024">
        <ele>238.7</ele>
        <time>2025-10-19T07:46:12Z</time>
      </trkpt>
      <trkpt lat="43.2247" lon="5.5024">
        <ele>238.8</ele>
        <time>2025-10-19T07:46:13Z</time>
      </trkpt>
      <trkpt lat="43.2247" lon="5.50239">
        <ele>238.9</ele>
        <time>2025-10-19T07:46:14Z</time>
      </trkpt>
      <trkpt lat="43.22469" lon="5.50238">
        <ele>238.9</ele>
        <time>2025-10-19T07:46:15Z</time>
      </trkpt>
      <trkpt lat="43.22468" lon="5.50237">
        <ele>238.9</ele>
        <time>2025-10-19T07:46:16Z</time>
      </trkpt>
      <trkpt lat="43.22467" lon="5.50237">
        <ele>238.9</ele>
        <time>2025-10-19T07:46:17Z</time>
      </trkpt>
      <trkpt lat="43.22466" lon="5.50237">
        <ele>238.9</ele>
        <time>2025-10-19T07:46:18Z</time>
      </trkpt>
      <trkpt lat="43.22466" lon="5.50236">
        <ele>238.9</ele>
        <time>2025-10-19T07:46:19Z</time>
      </trkpt>
      <trkpt lat="43.22466" lon="5.50236">
        <ele>238.8</ele>
        <time>2025-10-19T07:46:20Z</time>
      </trkpt>
      <trkpt lat="43.22465" lon="5.50236">
        <ele>238.7</ele>
        <time>2025-10-19T07:46:21Z</time>
      </trkpt>
      <trkpt lat="43.22464" lon="5.50236">
        <ele>238.7</ele>
        <time>2025-10-19T07:46:22Z</time>
      </trkpt>
      <trkpt lat="43.22463" lon="5.50237">
        <ele>238.6</ele>
        <time>2025-10-19T07:46:23Z</time>
      </trkpt>
      <trkpt lat="43.22463" lon="5.50237">
        <ele>238.5</ele>
        <time>2025-10-19T07:46:24Z</time>
      </trkpt>
      <trkpt lat="43.22463" lon="5.50237">
        <ele>238.4</ele>
        <time>2025-10-19T07:46:25Z</time>
      </trkpt>
      <trkpt lat="43.22463" lon="5.50236">
        <ele>238.4</ele>
        <time>2025-10-19T07:46:26Z</time>
      </trkpt>
      <trkpt lat="43.22462" lon="5.50235">
        <ele>238.3</ele>
        <time>2025-10-19T07:46:27Z</time>
      </trkpt>
      <trkpt lat="43.22461" lon="5.50234">
        <ele>238.1</ele>
        <time>2025-10-19T07:46:28Z</time>
      </trkpt>
      <trkpt lat="43.2246" lon="5.50234">
        <ele>238</ele>
        <time>2025-10-19T07:46:29Z</time>
      </trkpt>
      <trkpt lat="43.2246" lon="5.50234">
        <ele>237.9</ele>
        <time>2025-10-19T07:46:30Z</time>
      </trkpt>
      <trkpt lat="43.2246" lon="5.50234">
        <ele>237.9</ele>
        <time>2025-10-19T07:46:31Z</time>
      </trkpt>
      <trkpt lat="43.2246" lon="5.50234">
        <ele>237.9</ele>
        <time>2025-10-19T07:46:32Z</time>
      </trkpt>
      <trkpt lat="43.2246" lon="5.50234">
        <ele>237.9</ele>
        <time>2025-10-19T07:46:33Z</time>
      </trkpt>
      <trkpt lat="43.2246" lon="5.50234">
        <ele>237.9</ele>
        <time>2025-10-19T07:46:34Z</time>
      </trkpt>
      <trkpt lat="43.2246" lon="5.50234">
        <ele>237.9</ele>
        <time>2025-10-19T07:46:35Z</time>
      </trkpt>
      <trkpt lat="43.2246" lon="5.50234">
        <ele>237.9</ele>
        <time>2025-10-19T07:46:36Z</time>
      </trkpt>
      <trkpt lat="43.2246" lon="5.50234">
        <ele>237.8</ele>
        <time>2025-10-19T07:46:37Z</time>
      </trkpt>
      <trkpt lat="43.22461" lon="5.50235">
        <ele>237.8</ele>
        <time>2025-10-19T07:46:38Z</time>
      </trkpt>
      <trkpt lat="43.22461" lon="5.50235">
        <ele>238</ele>
        <time>2025-10-19T07:46:39Z</time>
      </trkpt>
      <trkpt lat="43.22462" lon="5.50235">
        <ele>238</ele>
        <time>2025-10-19T07:46:40Z</time>
      </trkpt>
      <trkpt lat="43.22462" lon="5.50235">
        <ele>238.2</ele>
        <time>2025-10-19T07:46:41Z</time>
      </trkpt>
      <trkpt lat="43.22463" lon="5.50236">
        <ele>238.3</ele>
        <time>2025-10-19T07:46:42Z</time>
      </trkpt>
      <trkpt lat="43.22463" lon="5.50236">
        <ele>238.4</ele>
        <time>2025-10-19T07:46:43Z</time>
      </trkpt>
      <trkpt lat="43.22464" lon="5.50236">
        <ele>238.5</ele>
        <time>2025-10-19T07:46:44Z</time>
      </trkpt>
      <trkpt lat="43.22465" lon="5.50237">
        <ele>238.5</ele>
        <time>2025-10-19T07:46:45Z</time>
      </trkpt>
      <trkpt lat="43.22466" lon="5.50237">
        <ele>238.5</ele>
        <time>2025-10-19T07:46:46Z</time>
      </trkpt>
      <trkpt lat="43.22466" lon="5.50237">
        <ele>238.6</ele>
        <time>2025-10-19T07:46:47Z</time>
      </trkpt>
      <trkpt lat="43.22467" lon="5.50238">
        <ele>238.7</ele>
        <time>2025-10-19T07:46:48Z</time>
      </trkpt>
      <trkpt lat="43.22468" lon="5.50239">
        <ele>238.7</ele>
        <time>2025-10-19T07:46:49Z</time>
      </trkpt>
      <trkpt lat="43.22468" lon="5.50239">
        <ele>238.7</ele>
        <time>2025-10-19T07:46:50Z</time>
      </trkpt>
      <trkpt lat="43.22469" lon="5.50239">
        <ele>238.7</ele>
        <time>2025-10-19T07:46:51Z</time>
      </trkpt>
      <trkpt lat="43.22469" lon="5.50239">
        <ele>238.7</ele>
        <time>2025-10-19T07:46:52Z</time>
      </trkpt>
      <trkpt lat="43.2247" lon="5.50239">
        <ele>238.7</ele>
        <time>2025-10-19T07:46:53Z</time>
      </trkpt>
      <trkpt lat="43.2247" lon="5.5024">
        <ele>238.8</ele>
        <time>2025-10-19T07:46:54Z</time>
      </trkpt>
      <trkpt lat="43.22472" lon="5.5024">
        <ele>238.8</ele>
        <time>2025-10-19T07:46:55Z</time>
      </trkpt>
      <trkpt lat="43.22472" lon="5.50241">
        <ele>238.9</ele>
        <time>2025-10-19T07:46:56Z</time>
      </trkpt>
      <trkpt lat="43.22474" lon="5.50242">
        <ele>238.9</ele>
        <time>2025-10-19T07:46:57Z</time>
      </trkpt>
      <trkpt lat="43.22475" lon="5.50243">
        <ele>239</ele>
        <time>2025-10-19T07:46:58Z</time>
      </trkpt>
      <trkpt lat="43.22476" lon="5.50245">
        <ele>239</ele>
        <time>2025-10-19T07:46:59Z</time>
      </trkpt>
      <trkpt lat="43.22477" lon="5.50246">
        <ele>239</ele>
        <time>2025-10-19T07:47:00Z</time>
      </trkpt>
      <trkpt lat="43.22478" lon="5.50247">
        <ele>239</ele>
        <time>2025-10-19T07:47:01Z</time>
      </trkpt>
      <trkpt lat="43.22478" lon="5.50247">
        <ele>239</ele>
        <time>2025-10-19T07:47:02Z</time>
      </trkpt>
      <trkpt lat="43.22479" lon="5.50248">
        <ele>239</ele>
        <time>2025-10-19T07:47:03Z</time>
      </trkpt>
      <trkpt lat="43.22479" lon="5.50249">
        <ele>239</ele>
        <time>2025-10-19T07:47:04Z</time>
      </trkpt>
      <trkpt lat="43.2248" lon="5.5025">
        <ele>239</ele>
        <time>2025-10-19T07:47:05Z</time>
      </trkpt>
      <trkpt lat="43.2248" lon="5.5025">
        <ele>239</ele>
        <time>2025-10-19T07:47:06Z</time>
      </trkpt>
      <trkpt lat="43.22481" lon="5.5025">
        <ele>239</ele>
        <time>2025-10-19T07:47:07Z</time>
      </trkpt>
      <trkpt lat="43.22481" lon="5.50251">
        <ele>239.1</ele>
        <time>2025-10-19T07:47:08Z</time>
      </trkpt>
      <trkpt lat="43.22481" lon="5.50252">
        <ele>239.1</ele>
        <time>2025-10-19T07:47:09Z</time>
      </trkpt>
      <trkpt lat="43.22481" lon="5.50252">
        <ele>239.2</ele>
        <time>2025-10-19T07:47:10Z</time>
      </trkpt>
      <trkpt lat="43.22481" lon="5.50253">
        <ele>239</ele>
        <time>2025-10-19T07:47:11Z</time>
      </trkpt>
      <trkpt lat="43.22481" lon="5.50253">
        <ele>239</ele>
        <time>2025-10-19T07:47:12Z</time>
      </trkpt>
      <trkpt lat="43.22481" lon="5.50255">
        <ele>238.9</ele>
        <time>2025-10-19T07:47:13Z</time>
      </trkpt>
      <trkpt lat="43.22481" lon="5.50255">
        <ele>238.9</ele>
        <time>2025-10-19T07:47:14Z</time>
      </trkpt>
      <trkpt lat="43.2248" lon="5.50256">
        <ele>238.8</ele>
        <time>2025-10-19T07:47:15Z</time>
      </trkpt>
      <trkpt lat="43.2248" lon="5.50257">
        <ele>238.7</ele>
        <time>2025-10-19T07:47:16Z</time>
      </trkpt>
      <trkpt lat="43.2248" lon="5.50258">
        <ele>238.6</ele>
        <time>2025-10-19T07:47:17Z</time>
      </trkpt>
      <trkpt lat="43.2248" lon="5.50259">
        <ele>238.4</ele>
        <time>2025-10-19T07:47:18Z</time>
      </trkpt>
      <trkpt lat="43.2248" lon="5.5026">
        <ele>238.3</ele>
        <time>2025-10-19T07:47:19Z</time>
      </trkpt>
      <trkpt lat="43.2248" lon="5.50261">
        <ele>238.2</ele>
        <time>2025-10-19T07:47:20Z</time>
      </trkpt>
      <trkpt lat="43.2248" lon="5.50262">
        <ele>238.1</ele>
        <time>2025-10-19T07:47:21Z</time>
      </trkpt>
      <trkpt lat="43.2248" lon="5.50263">
        <ele>238</ele>
        <time>2025-10-19T07:47:22Z</time>
      </trkpt>
      <trkpt lat="43.22479" lon="5.50264">
        <ele>237.8</ele>
        <time>2025-10-19T07:47:23Z</time>
      </trkpt>
      <trkpt lat="43.2248" lon="5.50265">
        <ele>237.7</ele>
        <time>2025-10-19T07:47:24Z</time>
      </trkpt>
      <trkpt lat="43.2248" lon="5.50266">
        <ele>237.4</ele>
        <time>2025-10-19T07:47:25Z</time>
      </trkpt>
      <trkpt lat="43.22479" lon="5.50268">
        <ele>237.2</ele>
        <time>2025-10-19T07:47:26Z</time>
      </trkpt>
      <trkpt lat="43.22479" lon="5.50269">
        <ele>236.9</ele>
        <time>2025-10-19T07:47:27Z</time>
      </trkpt>
      <trkpt lat="43.22479" lon="5.5027">
        <ele>236.7</ele>
        <time>2025-10-19T07:47:28Z</time>
      </trkpt>
      <trkpt lat="43.22478" lon="5.50271">
        <ele>236.5</ele>
        <time>2025-10-19T07:47:29Z</time>
      </trkpt>
      <trkpt lat="43.22478" lon="5.50271">
        <ele>236.4</ele>
        <time>2025-10-19T07:47:30Z</time>
      </trkpt>
      <trkpt lat="43.22477" lon="5.50272">
        <ele>236.2</ele>
        <time>2025-10-19T07:47:31Z</time>
      </trkpt>
      <trkpt lat="43.22476" lon="5.50272">
        <ele>236.1</ele>
        <time>2025-10-19T07:47:32Z</time>
      </trkpt>
      <trkpt lat="43.22475" lon="5.50273">
        <ele>236</ele>
        <time>2025-10-19T07:47:33Z</time>
      </trkpt>
      <trkpt lat="43.22474" lon="5.50273">
        <ele>235.9</ele>
        <time>2025-10-19T07:47:34Z</time>
      </trkpt>
      <trkpt lat="43.22474" lon="5.50273">
        <ele>235.9</ele>
        <time>2025-10-19T07:47:35Z</time>
      </trkpt>
      <trkpt lat="43.22473" lon="5.50273">
        <ele>235.8</ele>
        <time>2025-10-19T07:47:36Z</time>
      </trkpt>
      <trkpt lat="43.22472" lon="5.50273">
        <ele>235.7</ele>
        <time>2025-10-19T07:47:37Z</time>
      </trkpt>
      <trkpt lat="43.22471" lon="5.50274">
        <ele>235.6</ele>
        <time>2025-10-19T07:47:38Z</time>
      </trkpt>
      <trkpt lat="43.2247" lon="5.50274">
        <ele>235.4</ele>
        <time>2025-10-19T07:47:39Z</time>
      </trkpt>
      <trkpt lat="43.22469" lon="5.50273">
        <ele>235.3</ele>
        <time>2025-10-19T07:47:40Z</time>
      </trkpt>
      <trkpt lat="43.22468" lon="5.50273">
        <ele>235.4</ele>
        <time>2025-10-19T07:47:41Z</time>
      </trkpt>
      <trkpt lat="43.22468" lon="5.50274">
        <ele>235.3</ele>
        <time>2025-10-19T07:47:42Z</time>
      </trkpt>
      <trkpt lat="43.22467" lon="5.50274">
        <ele>235.2</ele>
        <time>2025-10-19T07:47:43Z</time>
      </trkpt>
      <trkpt lat="43.22466" lon="5.50274">
        <ele>235.2</ele>
        <time>2025-10-19T07:47:44Z</time>
      </trkpt>
      <trkpt lat="43.22465" lon="5.50275">
        <ele>235.1</ele>
        <time>2025-10-19T07:47:45Z</time>
      </trkpt>
      <trkpt lat="43.22464" lon="5.50274">
        <ele>235.1</ele>
        <time>2025-10-19T07:47:46Z</time>
      </trkpt>
      <trkpt lat="43.22463" lon="5.50274">
        <ele>235.1</ele>
        <time>2025-10-19T07:47:47Z</time>
      </trkpt>
      <trkpt lat="43.22461" lon="5.50274">
        <ele>235</ele>
        <time>2025-10-19T07:47:48Z</time>
      </trkpt>
      <trkpt lat="43.2246" lon="5.50274">
        <ele>235</ele>
        <time>2025-10-19T07:47:49Z</time>
      </trkpt>
      <trkpt lat="43.2246" lon="5.50274">
        <ele>235</ele>
        <time>2025-10-19T07:47:50Z</time>
      </trkpt>
      <trkpt lat="43.22459" lon="5.50275">
        <ele>235</ele>
        <time>2025-10-19T07:47:51Z</time>
      </trkpt>
      <trkpt lat="43.22458" lon="5.50277">
        <ele>234.9</ele>
        <time>2025-10-19T07:47:52Z</time>
      </trkpt>
      <trkpt lat="43.22456" lon="5.50278">
        <ele>234.9</ele>
        <time>2025-10-19T07:47:53Z</time>
      </trkpt>
      <trkpt lat="43.22455" lon="5.50278">
        <ele>234.9</ele>
        <time>2025-10-19T07:47:54Z</time>
      </trkpt>
      <trkpt lat="43.22454" lon="5.50278">
        <ele>234.8</ele>
        <time>2025-10-19T07:47:55Z</time>
      </trkpt>
      <trkpt lat="43.22453" lon="5.50278">
        <ele>234.8</ele>
        <time>2025-10-19T07:47:56Z</time>
      </trkpt>
      <trkpt lat="43.22452" lon="5.50278">
        <ele>234.6</ele>
        <time>2025-10-19T07:47:57Z</time>
      </trkpt>
      <trkpt lat="43.2245" lon="5.50278">
        <ele>234.5</ele>
        <time>2025-10-19T07:47:58Z</time>
      </trkpt>
      <trkpt lat="43.22449" lon="5.50278">
        <ele>234.4</ele>
        <time>2025-10-19T07:47:59Z</time>
      </trkpt>
      <trkpt lat="43.22448" lon="5.50278">
        <ele>234.3</ele>
        <time>2025-10-19T07:48:00Z</time>
      </trkpt>
      <trkpt lat="43.22447" lon="5.50278">
        <ele>234.3</ele>
        <time>2025-10-19T07:48:01Z</time>
      </trkpt>
      <trkpt lat="43.22446" lon="5.50278">
        <ele>234.2</ele>
        <time>2025-10-19T07:48:02Z</time>
      </trkpt>
      <trkpt lat="43.22445" lon="5.50278">
        <ele>234.2</ele>
        <time>2025-10-19T07:48:03Z</time>
      </trkpt>
      <trkpt lat="43.22444" lon="5.50278">
        <ele>234.1</ele>
        <time>2025-10-19T07:48:04Z</time>
      </trkpt>
      <trkpt lat="43.22443" lon="5.50279">
        <ele>234.1</ele>
        <time>2025-10-19T07:48:05Z</time>
      </trkpt>
      <trkpt lat="43.22442" lon="5.50279">
        <ele>234.1</ele>
        <time>2025-10-19T07:48:06Z</time>
      </trkpt>
      <trkpt lat="43.22441" lon="5.50279">
        <ele>234.1</ele>
        <time>2025-10-19T07:48:07Z</time>
      </trkpt>
      <trkpt lat="43.2244" lon="5.50279">
        <ele>234</ele>
        <time>2025-10-19T07:48:08Z</time>
      </trkpt>
      <trkpt lat="43.22439" lon="5.50279">
        <ele>234</ele>
        <time>2025-10-19T07:48:09Z</time>
      </trkpt>
      <trkpt lat="43.22438" lon="5.5028">
        <ele>234</ele>
        <time>2025-10-19T07:48:10Z</time>
      </trkpt>
      <trkpt lat="43.22437" lon="5.5028">
        <ele>233.9</ele>
        <time>2025-10-19T07:48:11Z</time>
      </trkpt>
      <trkpt lat="43.22435" lon="5.5028">
        <ele>233.9</ele>
        <time>2025-10-19T07:48:12Z</time>
      </trkpt>
      <trkpt lat="43.22434" lon="5.5028">
        <ele>233.8</ele>
        <time>2025-10-19T07:48:13Z</time>
      </trkpt>
      <trkpt lat="43.22433" lon="5.5028">
        <ele>233.7</ele>
        <time>2025-10-19T07:48:14Z</time>
      </trkpt>
      <trkpt lat="43.22432" lon="5.5028">
        <ele>233.5</ele>
        <time>2025-10-19T07:48:15Z</time>
      </trkpt>
      <trkpt lat="43.22431" lon="5.5028">
        <ele>233.3</ele>
        <time>2025-10-19T07:48:16Z</time>
      </trkpt>
      <trkpt lat="43.2243" lon="5.5028">
        <ele>233.1</ele>
        <time>2025-10-19T07:48:17Z</time>
      </trkpt>
      <trkpt lat="43.22429" lon="5.5028">
        <ele>233</ele>
        <time>2025-10-19T07:48:18Z</time>
      </trkpt>
      <trkpt lat="43.22428" lon="5.50279">
        <ele>232.9</ele>
        <time>2025-10-19T07:48:19Z</time>
      </trkpt>
      <trkpt lat="43.22427" lon="5.50279">
        <ele>232.9</ele>
        <time>2025-10-19T07:48:20Z</time>
      </trkpt>
      <trkpt lat="43.22426" lon="5.50279">
        <ele>232.7</ele>
        <time>2025-10-19T07:48:21Z</time>
      </trkpt>
      <trkpt lat="43.22425" lon="5.50278">
        <ele>232.6</ele>
        <time>2025-10-19T07:48:22Z</time>
      </trkpt>
      <trkpt lat="43.22424" lon="5.50278">
        <ele>232.6</ele>
        <time>2025-10-19T07:48:23Z</time>
      </trkpt>
      <trkpt lat="43.22423" lon="5.50278">
        <ele>232.5</ele>
        <time>2025-10-19T07:48:24Z</time>
      </trkpt>
      <trkpt lat="43.22422" lon="5.50277">
        <ele>232.5</ele>
        <time>2025-10-19T07:48:25Z</time>
      </trkpt>
      <trkpt lat="43.22421" lon="5.50276">
        <ele>232.3</ele>
        <time>2025-10-19T07:48:26Z</time>
      </trkpt>
      <trkpt lat="43.2242" lon="5.50276">
        <ele>232.1</ele>
        <time>2025-10-19T07:48:27Z</time>
      </trkpt>
      <trkpt lat="43.22419" lon="5.50275">
        <ele>232.1</ele>
        <time>2025-10-19T07:48:28Z</time>
      </trkpt>
      <trkpt lat="43.22418" lon="5.50275">
        <ele>231.9</ele>
        <time>2025-10-19T07:48:29Z</time>
      </trkpt>
      <trkpt lat="43.22417" lon="5.50274">
        <ele>231.9</ele>
        <time>2025-10-19T07:48:30Z</time>
      </trkpt>
      <trkpt lat="43.22416" lon="5.50273">
        <ele>231.8</ele>
        <time>2025-10-19T07:48:31Z</time>
      </trkpt>
      <trkpt lat="43.22415" lon="5.50272">
        <ele>231.8</ele>
        <time>2025-10-19T07:48:32Z</time>
      </trkpt>
      <trkpt lat="43.22415" lon="5.50271">
        <ele>231.6</ele>
        <time>2025-10-19T07:48:33Z</time>
      </trkpt>
      <trkpt lat="43.22414" lon="5.5027">
        <ele>231.5</ele>
        <time>2025-10-19T07:48:34Z</time>
      </trkpt>
      <trkpt lat="43.22413" lon="5.50269">
        <ele>231.4</ele>
        <time>2025-10-19T07:48:35Z</time>
      </trkpt>
      <trkpt lat="43.22413" lon="5.50268">
        <ele>231.4</ele>
        <time>2025-10-19T07:48:36Z</time>
      </trkpt>
      <trkpt lat="43.22412" lon="5.50268">
        <ele>231.3</ele>
        <time>2025-10-19T07:48:37Z</time>
      </trkpt>
      <trkpt lat="43.22411" lon="5.50267">
        <ele>231.1</ele>
        <time>2025-10-19T07:48:38Z</time>
      </trkpt>
      <trkpt lat="43.22411" lon="5.50266">
        <ele>231.1</ele>
        <time>2025-10-19T07:48:39Z</time>
      </trkpt>
      <trkpt lat="43.2241" lon="5.50265">
        <ele>231</ele>
        <time>2025-10-19T07:48:40Z</time>
      </trkpt>
      <trkpt lat="43.22409" lon="5.50263">
        <ele>231</ele>
        <time>2025-10-19T07:48:41Z</time>
      </trkpt>
      <trkpt lat="43.22409" lon="5.50262">
        <ele>230.9</ele>
        <time>2025-10-19T07:48:42Z</time>
      </trkpt>
      <trkpt lat="43.22408" lon="5.50262">
        <ele>230.8</ele>
        <time>2025-10-19T07:48:43Z</time>
      </trkpt>
      <trkpt lat="43.22408" lon="5.50261">
        <ele>230.7</ele>
        <time>2025-10-19T07:48:44Z</time>
      </trkpt>
      <trkpt lat="43.22407" lon="5.50259">
        <ele>230.6</ele>
        <time>2025-10-19T07:48:45Z</time>
      </trkpt>
      <trkpt lat="43.22407" lon="5.50259">
        <ele>230.5</ele>
        <time>2025-10-19T07:48:46Z</time>
      </trkpt>
      <trkpt lat="43.22406" lon="5.50257">
        <ele>230.5</ele>
        <time>2025-10-19T07:48:47Z</time>
      </trkpt>
      <trkpt lat="43.22406" lon="5.50256">
        <ele>230.5</ele>
        <time>2025-10-19T07:48:48Z</time>
      </trkpt>
      <trkpt lat="43.22405" lon="5.50254">
        <ele>230.4</ele>
        <time>2025-10-19T07:48:49Z</time>
      </trkpt>
      <trkpt lat="43.22405" lon="5.50253">
        <ele>230.4</ele>
        <time>2025-10-19T07:48:50Z</time>
      </trkpt>
      <trkpt lat="43.22404" lon="5.50252">
        <ele>230.3</ele>
        <time>2025-10-19T07:48:51Z</time>
      </trkpt>
      <trkpt lat="43.22404" lon="5.5025">
        <ele>230.2</ele>
        <time>2025-10-19T07:48:52Z</time>
      </trkpt>
      <trkpt lat="43.22404" lon="5.50249">
        <ele>230.3</ele>
        <time>2025-10-19T07:48:53Z</time>
      </trkpt>
      <trkpt lat="43.22404" lon="5.50248">
        <ele>230.3</ele>
        <time>2025-10-19T07:48:54Z</time>
      </trkpt>
      <trkpt lat="43.22404" lon="5.50247">
        <ele>230.2</ele>
        <time>2025-10-19T07:48:55Z</time>
      </trkpt>
      <trkpt lat="43.22404" lon="5.50246">
        <ele>230.2</ele>
        <time>2025-10-19T07:48:56Z</time>
      </trkpt>
      <trkpt lat="43.22403" lon="5.50244">
        <ele>230.1</ele>
        <time>2025-10-19T07:48:57Z</time>
      </trkpt>
      <trkpt lat="43.22403" lon="5.50243">
        <ele>230</ele>
        <time>2025-10-19T07:48:58Z</time>
      </trkpt>
      <trkpt lat="43.22404" lon="5.50242">
        <ele>229.9</ele>
        <time>2025-10-19T07:48:59Z</time>
      </trkpt>
      <trkpt lat="43.22404" lon="5.5024">
        <ele>229.8</ele>
        <time>2025-10-19T07:49:00Z</time>
      </trkpt>
      <trkpt lat="43.22404" lon="5.50239">
        <ele>229.8</ele>
        <time>2025-10-19T07:49:01Z</time>
      </trkpt>
      <trkpt lat="43.22404" lon="5.50238">
        <ele>229.7</ele>
        <time>2025-10-19T07:49:02Z</time>
      </trkpt>
      <trkpt lat="43.22404" lon="5.50236">
        <ele>229.7</ele>
        <time>2025-10-19T07:49:03Z</time>
      </trkpt>
      <trkpt lat="43.22404" lon="5.50235">
        <ele>229.6</ele>
        <time>2025-10-19T07:49:04Z</time>
      </trkpt>
      <trkpt lat="43.22404" lon="5.50234">
        <ele>229.6</ele>
        <time>2025-10-19T07:49:05Z</time>
      </trkpt>
      <trkpt lat="43.22404" lon="5.50232">
        <ele>229.5</ele>
        <time>2025-10-19T07:49:06Z</time>
      </trkpt>
      <trkpt lat="43.22405" lon="5.50231">
        <ele>229.4</ele>
        <time>2025-10-19T07:49:07Z</time>
      </trkpt>
      <trkpt lat="43.22405" lon="5.5023">
        <ele>229.3</ele>
        <time>2025-10-19T07:49:08Z</time>
      </trkpt>
      <trkpt lat="43.22405" lon="5.50228">
        <ele>229.2</ele>
        <time>2025-10-19T07:49:09Z</time>
      </trkpt>
      <trkpt lat="43.22405" lon="5.50227">
        <ele>229.2</ele>
        <time>2025-10-19T07:49:10Z</time>
      </trkpt>
      <trkpt lat="43.22405" lon="5.50226">
        <ele>229.1</ele>
        <time>2025-10-19T07:49:11Z</time>
      </trkpt>
      <trkpt lat="43.22406" lon="5.50224">
        <ele>229</ele>
        <time>2025-10-19T07:49:12Z</time>
      </trkpt>
      <trkpt lat="43.22406" lon="5.50223">
        <ele>229</ele>
        <time>2025-10-19T07:49:13Z</time>
      </trkpt>
      <trkpt lat="43.22406" lon="5.50221">
        <ele>228.9</ele>
        <time>2025-10-19T07:49:14Z</time>
      </trkpt>
      <trkpt lat="43.22407" lon="5.5022">
        <ele>228.8</ele>
        <time>2025-10-19T07:49:15Z</time>
      </trkpt>
      <trkpt lat="43.22407" lon="5.50218">
        <ele>228.7</ele>
        <time>2025-10-19T07:49:16Z</time>
      </trkpt>
      <trkpt lat="43.22407" lon="5.50217">
        <ele>228.6</ele>
        <time>2025-10-19T07:49:17Z</time>
      </trkpt>
      <trkpt lat="43.22407" lon="5.50215">
        <ele>228.6</ele>
        <time>2025-10-19T07:49:18Z</time>
      </trkpt>
      <trkpt lat="43.22408" lon="5.50214">
        <ele>228.6</ele>
        <time>2025-10-19T07:49:19Z</time>
      </trkpt>
      <trkpt lat="43.22408" lon="5.50212">
        <ele>228.5</ele>
        <time>2025-10-19T07:49:20Z</time>
      </trkpt>
      <trkpt lat="43.22409" lon="5.50211">
        <ele>228.5</ele>
        <time>2025-10-19T07:49:21Z</time>
      </trkpt>
      <trkpt lat="43.22409" lon="5.50209">
        <ele>228.4</ele>
        <time>2025-10-19T07:49:22Z</time>
      </trkpt>
      <trkpt lat="43.22409" lon="5.50207">
        <ele>228.4</ele>
        <time>2025-10-19T07:49:23Z</time>
      </trkpt>
      <trkpt lat="43.22409" lon="5.50206">
        <ele>228.4</ele>
        <time>2025-10-19T07:49:24Z</time>
      </trkpt>
      <trkpt lat="43.22409" lon="5.50204">
        <ele>228.4</ele>
        <time>2025-10-19T07:49:25Z</time>
      </trkpt>
      <trkpt lat="43.22409" lon="5.50203">
        <ele>228.3</ele>
        <time>2025-10-19T07:49:26Z</time>
      </trkpt>
      <trkpt lat="43.22409" lon="5.50202">
        <ele>228.3</ele>
        <time>2025-10-19T07:49:27Z</time>
      </trkpt>
      <trkpt lat="43.22409" lon="5.502">
        <ele>228.2</ele>
        <time>2025-10-19T07:49:28Z</time>
      </trkpt>
      <trkpt lat="43.22409" lon="5.50198">
        <ele>228.2</ele>
        <time>2025-10-19T07:49:29Z</time>
      </trkpt>
      <trkpt lat="43.22409" lon="5.50197">
        <ele>228.2</ele>
        <time>2025-10-19T07:49:30Z</time>
      </trkpt>
      <trkpt lat="43.22409" lon="5.50195">
        <ele>228.1</ele>
        <time>2025-10-19T07:49:31Z</time>
      </trkpt>
      <trkpt lat="43.22409" lon="5.50193">
        <ele>228.1</ele>
        <time>2025-10-19T07:49:32Z</time>
      </trkpt>
      <trkpt lat="43.22408" lon="5.50192">
        <ele>228</ele>
        <time>2025-10-19T07:49:33Z</time>
      </trkpt>
      <trkpt lat="43.22408" lon="5.5019">
        <ele>228</ele>
        <time>2025-10-19T07:49:34Z</time>
      </trkpt>
      <trkpt lat="43.22408" lon="5.50188">
        <ele>228</ele>
        <time>2025-10-19T07:49:35Z</time>
      </trkpt>
      <trkpt lat="43.22407" lon="5.50187">
        <ele>227.9</ele>
        <time>2025-10-19T07:49:36Z</time>
      </trkpt>
      <trkpt lat="43.22407" lon="5.50185">
        <ele>227.7</ele>
        <time>2025-10-19T07:49:37Z</time>
      </trkpt>
      <trkpt lat="43.22406" lon="5.50184">
        <ele>227.6</ele>
        <time>2025-10-19T07:49:38Z</time>
      </trkpt>
      <trkpt lat="43.22406" lon="5.50182">
        <ele>227.5</ele>
        <time>2025-10-19T07:49:39Z</time>
      </trkpt>
      <trkpt lat="43.22405" lon="5.50181">
        <ele>227.4</ele>
        <time>2025-10-19T07:49:40Z</time>
      </trkpt>
      <trkpt lat="43.22404" lon="5.5018">
        <ele>227.3</ele>
        <time>2025-10-19T07:49:41Z</time>
      </trkpt>
      <trkpt lat="43.22404" lon="5.50178">
        <ele>227.3</ele>
        <time>2025-10-19T07:49:42Z</time>
      </trkpt>
      <trkpt lat="43.22403" lon="5.50177">
        <ele>227.2</ele>
        <time>2025-10-19T07:49:43Z</time>
      </trkpt>
      <trkpt lat="43.22402" lon="5.50176">
        <ele>227.2</ele>
        <time>2025-10-19T07:49:44Z</time>
      </trkpt>
      <trkpt lat="43.22401" lon="5.50175">
        <ele>227.2</ele>
        <time>2025-10-19T07:49:45Z</time>
      </trkpt>
      <trkpt lat="43.224" lon="5.50174">
        <ele>227</ele>
        <time>2025-10-19T07:49:46Z</time>
      </trkpt>
      <trkpt lat="43.224" lon="5.50173">
        <ele>226.8</ele>
        <time>2025-10-19T07:49:47Z</time>
      </trkpt>
      <trkpt lat="43.22399" lon="5.50172">
        <ele>226.9</ele>
        <time>2025-10-19T07:49:48Z</time>
      </trkpt>
      <trkpt lat="43.22398" lon="5.50171">
        <ele>226.8</ele>
        <time>2025-10-19T07:49:49Z</time>
      </trkpt>
      <trkpt lat="43.22397" lon="5.50171">
        <ele>226.7</ele>
        <time>2025-10-19T07:49:50Z</time>
      </trkpt>
      <trkpt lat="43.22396" lon="5.5017">
        <ele>226.6</ele>
        <time>2025-10-19T07:49:51Z</time>
      </trkpt>
      <trkpt lat="43.22395" lon="5.50169">
        <ele>226.5</ele>
        <time>2025-10-19T07:49:52Z</time>
      </trkpt>
      <trkpt lat="43.22394" lon="5.50169">
        <ele>226.5</ele>
        <time>2025-10-19T07:49:53Z</time>
      </trkpt>
      <trkpt lat="43.22393" lon="5.50168">
        <ele>226.3</ele>
        <time>2025-10-19T07:49:54Z</time>
      </trkpt>
      <trkpt lat="43.22392" lon="5.50167">
        <ele>226.2</ele>
        <time>2025-10-19T07:49:55Z</time>
      </trkpt>
      <trkpt lat="43.22391" lon="5.50167">
        <ele>226</ele>
        <time>2025-10-19T07:49:56Z</time>
      </trkpt>
      <trkpt lat="43.2239" lon="5.50166">
        <ele>225.9</ele>
        <time>2025-10-19T07:49:57Z</time>
      </trkpt>
      <trkpt lat="43.22389" lon="5.50166">
        <ele>225.7</ele>
        <time>2025-10-19T07:49:58Z</time>
      </trkpt>
      <trkpt lat="43.22388" lon="5.50166">
        <ele>225.6</ele>
        <time>2025-10-19T07:49:59Z</time>
      </trkpt>
      <trkpt lat="43.22387" lon="5.50165">
        <ele>225.5</ele>
        <time>2025-10-19T07:50:00Z</time>
      </trkpt>
      <trkpt lat="43.22386" lon="5.50165">
        <ele>225.4</ele>
        <time>2025-10-19T07:50:01Z</time>
      </trkpt>
      <trkpt lat="43.22385" lon="5.50165">
        <ele>225.4</ele>
        <time>2025-10-19T07:50:02Z</time>
      </trkpt>
      <trkpt lat="43.22384" lon="5.50164">
        <ele>225.3</ele>
        <time>2025-10-19T07:50:03Z</time>
      </trkpt>
      <trkpt lat="43.22383" lon="5.50164">
        <ele>225.2</ele>
        <time>2025-10-19T07:50:04Z</time>
      </trkpt>
      <trkpt lat="43.22382" lon="5.50164">
        <ele>225.2</ele>
        <time>2025-10-19T07:50:05Z</time>
      </trkpt>
      <trkpt lat="43.22381" lon="5.50164">
        <ele>225</ele>
        <time>2025-10-19T07:50:06Z</time>
      </trkpt>
      <trkpt lat="43.2238" lon="5.50164">
        <ele>224.9</ele>
        <time>2025-10-19T07:50:07Z</time>
      </trkpt>
      <trkpt lat="43.22379" lon="5.50164">
        <ele>224.8</ele>
        <time>2025-10-19T07:50:08Z</time>
      </trkpt>
      <trkpt lat="43.22377" lon="5.50164">
        <ele>224.7</ele>
        <time>2025-10-19T07:50:09Z</time>
      </trkpt>
      <trkpt lat="43.22376" lon="5.50164">
        <ele>224.6</ele>
        <time>2025-10-19T07:50:10Z</time>
      </trkpt>
      <trkpt lat="43.22375" lon="5.50163">
        <ele>224.5</ele>
        <time>2025-10-19T07:50:11Z</time>
      </trkpt>
      <trkpt lat="43.22374" lon="5.50163">
        <ele>224.4</ele>
        <time>2025-10-19T07:50:12Z</time>
      </trkpt>
      <trkpt lat="43.22373" lon="5.50163">
        <ele>224.3</ele>
        <time>2025-10-19T07:50:13Z</time>
      </trkpt>
      <trkpt lat="43.22372" lon="5.50163">
        <ele>224</ele>
        <time>2025-10-19T07:50:14Z</time>
      </trkpt>
      <trkpt lat="43.22371" lon="5.50163">
        <ele>223.9</ele>
        <time>2025-10-19T07:50:15Z</time>
      </trkpt>
      <trkpt lat="43.2237" lon="5.50163">
        <ele>223.9</ele>
        <time>2025-10-19T07:50:16Z</time>
      </trkpt>
      <trkpt lat="43.22369" lon="5.50163">
        <ele>223.7</ele>
        <time>2025-10-19T07:50:17Z</time>
      </trkpt>
      <trkpt lat="43.22368" lon="5.50163">
        <ele>223.6</ele>
        <time>2025-10-19T07:50:18Z</time>
      </trkpt>
      <trkpt lat="43.22367" lon="5.50163">
        <ele>223.5</ele>
        <time>2025-10-19T07:50:19Z</time>
      </trkpt>
      <trkpt lat="43.22366" lon="5.50163">
        <ele>223.4</ele>
        <time>2025-10-19T07:50:20Z</time>
      </trkpt>
      <trkpt lat="43.22364" lon="5.50162">
        <ele>223.4</ele>
        <time>2025-10-19T07:50:21Z</time>
      </trkpt>
      <trkpt lat="43.22363" lon="5.50163">
        <ele>223.3</ele>
        <time>2025-10-19T07:50:22Z</time>
      </trkpt>
      <trkpt lat="43.22362" lon="5.50163">
        <ele>223.1</ele>
        <time>2025-10-19T07:50:23Z</time>
      </trkpt>
      <trkpt lat="43.22361" lon="5.50163">
        <ele>223</ele>
        <time>2025-10-19T07:50:24Z</time>
      </trkpt>
      <trkpt lat="43.2236" lon="5.50163">
        <ele>222.9</ele>
        <time>2025-10-19T07:50:25Z</time>
      </trkpt>
      <trkpt lat="43.2236" lon="5.50163">
        <ele>222.7</ele>
        <time>2025-10-19T07:50:26Z</time>
      </trkpt>
      <trkpt lat="43.22358" lon="5.50163">
        <ele>222.6</ele>
        <time>2025-10-19T07:50:27Z</time>
      </trkpt>
      <trkpt lat="43.22357" lon="5.50164">
        <ele>222.4</ele>
        <time>2025-10-19T07:50:28Z</time>
      </trkpt>
      <trkpt lat="43.22356" lon="5.50164">
        <ele>222.2</ele>
        <time>2025-10-19T07:50:29Z</time>
      </trkpt>
      <trkpt lat="43.22355" lon="5.50164">
        <ele>222</ele>
        <time>2025-10-19T07:50:30Z</time>
      </trkpt>
      <trkpt lat="43.22354" lon="5.50164">
        <ele>221.9</ele>
        <time>2025-10-19T07:50:31Z</time>
      </trkpt>
      <trkpt lat="43.22353" lon="5.50165">
        <ele>221.8</ele>
        <time>2025-10-19T07:50:32Z</time>
      </trkpt>
      <trkpt lat="43.22352" lon="5.50165">
        <ele>221.6</ele>
        <time>2025-10-19T07:50:33Z</time>
      </trkpt>
      <trkpt lat="43.22351" lon="5.50165">
        <ele>221.5</ele>
        <time>2025-10-19T07:50:34Z</time>
      </trkpt>
      <trkpt lat="43.2235" lon="5.50165">
        <ele>221.4</ele>
        <time>2025-10-19T07:50:35Z</time>
      </trkpt>
      <trkpt lat="43.22349" lon="5.50165">
        <ele>221.2</ele>
        <time>2025-10-19T07:50:36Z</time>
      </trkpt>
      <trkpt lat="43.22348" lon="5.50165">
        <ele>221</ele>
        <time>2025-10-19T07:50:37Z</time>
      </trkpt>
      <trkpt lat="43.22347" lon="5.50165">
        <ele>221</ele>
        <time>2025-10-19T07:50:38Z</time>
      </trkpt>
      <trkpt lat="43.22345" lon="5.50166">
        <ele>220.9</ele>
        <time>2025-10-19T07:50:39Z</time>
      </trkpt>
      <trkpt lat="43.22344" lon="5.50166">
        <ele>220.8</ele>
        <time>2025-10-19T07:50:40Z</time>
      </trkpt>
      <trkpt lat="43.22343" lon="5.50166">
        <ele>220.7</ele>
        <time>2025-10-19T07:50:41Z</time>
      </trkpt>
      <trkpt lat="43.22342" lon="5.50167">
        <ele>220.5</ele>
        <time>2025-10-19T07:50:42Z</time>
      </trkpt>
      <trkpt lat="43.22341" lon="5.50167">
        <ele>220.4</ele>
        <time>2025-10-19T07:50:43Z</time>
      </trkpt>
      <trkpt lat="43.2234" lon="5.50167">
        <ele>220.2</ele>
        <time>2025-10-19T07:50:44Z</time>
      </trkpt>
      <trkpt lat="43.22339" lon="5.50167">
        <ele>220.1</ele>
        <time>2025-10-19T07:50:45Z</time>
      </trkpt>
      <trkpt lat="43.22338" lon="5.50168">
        <ele>220</ele>
        <time>2025-10-19T07:50:46Z</time>
      </trkpt>
      <trkpt lat="43.22337" lon="5.50168">
        <ele>219.9</ele>
        <time>2025-10-19T07:50:47Z</time>
      </trkpt>
      <trkpt lat="43.22336" lon="5.50169">
        <ele>219.7</ele>
        <time>2025-10-19T07:50:48Z</time>
      </trkpt>
      <trkpt lat="43.22335" lon="5.50169">
        <ele>219.7</ele>
        <time>2025-10-19T07:50:49Z</time>
      </trkpt>
      <trkpt lat="43.22334" lon="5.5017">
        <ele>219.7</ele>
        <time>2025-10-19T07:50:50Z</time>
      </trkpt>
      <trkpt lat="43.22333" lon="5.5017">
        <ele>219.6</ele>
        <time>2025-10-19T07:50:51Z</time>
      </trkpt>
      <trkpt lat="43.22332" lon="5.5017">
        <ele>219.5</ele>
        <time>2025-10-19T07:50:52Z</time>
      </trkpt>
      <trkpt lat="43.22331" lon="5.5017">
        <ele>219.3</ele>
        <time>2025-10-19T07:50:53Z</time>
      </trkpt>
      <trkpt lat="43.22329" lon="5.50171">
        <ele>219.2</ele>
        <time>2025-10-19T07:50:54Z</time>
      </trkpt>
      <trkpt lat="43.22328" lon="5.50171">
        <ele>219.2</ele>
        <time>2025-10-19T07:50:55Z</time>
      </trkpt>
      <trkpt lat="43.22327" lon="5.50172">
        <ele>219.1</ele>
        <time>2025-10-19T07:50:56Z</time>
      </trkpt>
      <trkpt lat="43.22326" lon="5.50172">
        <ele>219</ele>
        <time>2025-10-19T07:50:57Z</time>
      </trkpt>
      <trkpt lat="43.22325" lon="5.50173">
        <ele>218.9</ele>
        <time>2025-10-19T07:50:58Z</time>
      </trkpt>
      <trkpt lat="43.22324" lon="5.50173">
        <ele>218.7</ele>
        <time>2025-10-19T07:50:59Z</time>
      </trkpt>
      <trkpt lat="43.22323" lon="5.50173">
        <ele>218.6</ele>
        <time>2025-10-19T07:51:00Z</time>
      </trkpt>
      <trkpt lat="43.22322" lon="5.50174">
        <ele>218.6</ele>
        <time>2025-10-19T07:51:01Z</time>
      </trkpt>
      <trkpt lat="43.22321" lon="5.50174">
        <ele>218.4</ele>
        <time>2025-10-19T07:51:02Z</time>
      </trkpt>
      <trkpt lat="43.2232" lon="5.50174">
        <ele>218.3</ele>
        <time>2025-10-19T07:51:03Z</time>
      </trkpt>
      <trkpt lat="43.22319" lon="5.50175">
        <ele>218.2</ele>
        <time>2025-10-19T07:51:04Z</time>
      </trkpt>
      <trkpt lat="43.22318" lon="5.50175">
        <ele>218.1</ele>
        <time>2025-10-19T07:51:05Z</time>
      </trkpt>
      <trkpt lat="43.22317" lon="5.50175">
        <ele>217.9</ele>
        <time>2025-10-19T07:51:06Z</time>
      </trkpt>
      <trkpt lat="43.22316" lon="5.50176">
        <ele>217.8</ele>
        <time>2025-10-19T07:51:07Z</time>
      </trkpt>
      <trkpt lat="43.22315" lon="5.50176">
        <ele>217.7</ele>
        <time>2025-10-19T07:51:08Z</time>
      </trkpt>
      <trkpt lat="43.22314" lon="5.50176">
        <ele>217.6</ele>
        <time>2025-10-19T07:51:09Z</time>
      </trkpt>
      <trkpt lat="43.22313" lon="5.50177">
        <ele>217.4</ele>
        <time>2025-10-19T07:51:10Z</time>
      </trkpt>
      <trkpt lat="43.22312" lon="5.50177">
        <ele>217.1</ele>
        <time>2025-10-19T07:51:11Z</time>
      </trkpt>
      <trkpt lat="43.22311" lon="5.50177">
        <ele>217</ele>
        <time>2025-10-19T07:51:12Z</time>
      </trkpt>
      <trkpt lat="43.22311" lon="5.50178">
        <ele>217</ele>
        <time>2025-10-19T07:51:13Z</time>
      </trkpt>
      <trkpt lat="43.22309" lon="5.50177">
        <ele>217</ele>
        <time>2025-10-19T07:51:14Z</time>
      </trkpt>
      <trkpt lat="43.22308" lon="5.50177">
        <ele>217</ele>
        <time>2025-10-19T07:51:15Z</time>
      </trkpt>
      <trkpt lat="43.22308" lon="5.50177">
        <ele>217</ele>
        <time>2025-10-19T07:51:16Z</time>
      </trkpt>
      <trkpt lat="43.22307" lon="5.50177">
        <ele>216.9</ele>
        <time>2025-10-19T07:51:17Z</time>
      </trkpt>
      <trkpt lat="43.22306" lon="5.50177">
        <ele>216.9</ele>
        <time>2025-10-19T07:51:18Z</time>
      </trkpt>
      <trkpt lat="43.22305" lon="5.50176">
        <ele>216.9</ele>
        <time>2025-10-19T07:51:19Z</time>
      </trkpt>
      <trkpt lat="43.22305" lon="5.50176">
        <ele>216.7</ele>
        <time>2025-10-19T07:51:20Z</time>
      </trkpt>
      <trkpt lat="43.22304" lon="5.50176">
        <ele>216.6</ele>
        <time>2025-10-19T07:51:21Z</time>
      </trkpt>
      <trkpt lat="43.22303" lon="5.50176">
        <ele>216.5</ele>
        <time>2025-10-19T07:51:22Z</time>
      </trkpt>
      <trkpt lat="43.22302" lon="5.50176">
        <ele>216.4</ele>
        <time>2025-10-19T07:51:23Z</time>
      </trkpt>
      <trkpt lat="43.22302" lon="5.50177">
        <ele>216.3</ele>
        <time>2025-10-19T07:51:24Z</time>
      </trkpt>
      <trkpt lat="43.22301" lon="5.50177">
        <ele>216.3</ele>
        <time>2025-10-19T07:51:25Z</time>
      </trkpt>
      <trkpt lat="43.223" lon="5.50178">
        <ele>216.2</ele>
        <time>2025-10-19T07:51:26Z</time>
      </trkpt>
      <trkpt lat="43.223" lon="5.50178">
        <ele>216</ele>
        <time>2025-10-19T07:51:27Z</time>
      </trkpt>
      <trkpt lat="43.22299" lon="5.50179">
        <ele>216.1</ele>
        <time>2025-10-19T07:51:28Z</time>
      </trkpt>
      <trkpt lat="43.22298" lon="5.50179">
        <ele>215.9</ele>
        <time>2025-10-19T07:51:29Z</time>
      </trkpt>
      <trkpt lat="43.22297" lon="5.5018">
        <ele>215.9</ele>
        <time>2025-10-19T07:51:30Z</time>
      </trkpt>
      <trkpt lat="43.22296" lon="5.5018">
        <ele>215.8</ele>
        <time>2025-10-19T07:51:31Z</time>
      </trkpt>
      <trkpt lat="43.22295" lon="5.5018">
        <ele>215.8</ele>
        <time>2025-10-19T07:51:32Z</time>
      </trkpt>
      <trkpt lat="43.22294" lon="5.5018">
        <ele>215.7</ele>
        <time>2025-10-19T07:51:33Z</time>
      </trkpt>
      <trkpt lat="43.22293" lon="5.50181">
        <ele>215.7</ele>
        <time>2025-10-19T07:51:34Z</time>
      </trkpt>
      <trkpt lat="43.22292" lon="5.50181">
        <ele>215.6</ele>
        <time>2025-10-19T07:51:35Z</time>
      </trkpt>
      <trkpt lat="43.22291" lon="5.50182">
        <ele>215.5</ele>
        <time>2025-10-19T07:51:36Z</time>
      </trkpt>
      <trkpt lat="43.2229" lon="5.50182">
        <ele>215.4</ele>
        <time>2025-10-19T07:51:37Z</time>
      </trkpt>
      <trkpt lat="43.22289" lon="5.50182">
        <ele>215.3</ele>
        <time>2025-10-19T07:51:38Z</time>
      </trkpt>
      <trkpt lat="43.22288" lon="5.50183">
        <ele>215.1</ele>
        <time>2025-10-19T07:51:39Z</time>
      </trkpt>
      <trkpt lat="43.22287" lon="5.50183">
        <ele>215</ele>
        <time>2025-10-19T07:51:40Z</time>
      </trkpt>
      <trkpt lat="43.22286" lon="5.50183">
        <ele>214.8</ele>
        <time>2025-10-19T07:51:41Z</time>
      </trkpt>
      <trkpt lat="43.22285" lon="5.50184">
        <ele>214.6</ele>
        <time>2025-10-19T07:51:42Z</time>
      </trkpt>
      <trkpt lat="43.22284" lon="5.50184">
        <ele>214.5</ele>
        <time>2025-10-19T07:51:43Z</time>
      </trkpt>
      <trkpt lat="43.22283" lon="5.50185">
        <ele>214.4</ele>
        <time>2025-10-19T07:51:44Z</time>
      </trkpt>
      <trkpt lat="43.22282" lon="5.50185">
        <ele>214.4</ele>
        <time>2025-10-19T07:51:45Z</time>
      </trkpt>
      <trkpt lat="43.22281" lon="5.50186">
        <ele>214.3</ele>
        <time>2025-10-19T07:51:46Z</time>
      </trkpt>
      <trkpt lat="43.2228" lon="5.50186">
        <ele>214.3</ele>
        <time>2025-10-19T07:51:47Z</time>
      </trkpt>
      <trkpt lat="43.22279" lon="5.50187">
        <ele>214.3</ele>
        <time>2025-10-19T07:51:48Z</time>
      </trkpt>
      <trkpt lat="43.22278" lon="5.50187">
        <ele>214.2</ele>
        <time>2025-10-19T07:51:49Z</time>
      </trkpt>
      <trkpt lat="43.22277" lon="5.50187">
        <ele>214.1</ele>
        <time>2025-10-19T07:51:50Z</time>
      </trkpt>
      <trkpt lat="43.22276" lon="5.50187">
        <ele>213.9</ele>
        <time>2025-10-19T07:51:51Z</time>
      </trkpt>
      <trkpt lat="43.22275" lon="5.50188">
        <ele>213.7</ele>
        <time>2025-10-19T07:51:52Z</time>
      </trkpt>
      <trkpt lat="43.22274" lon="5.50188">
        <ele>213.6</ele>
        <time>2025-10-19T07:51:53Z</time>
      </trkpt>
      <trkpt lat="43.22273" lon="5.50188">
        <ele>213.5</ele>
        <time>2025-10-19T07:51:54Z</time>
      </trkpt>
      <trkpt lat="43.22272" lon="5.50188">
        <ele>213.4</ele>
        <time>2025-10-19T07:51:55Z</time>
      </trkpt>
      <trkpt lat="43.22271" lon="5.50188">
        <ele>213.3</ele>
        <time>2025-10-19T07:51:56Z</time>
      </trkpt>
      <trkpt lat="43.2227" lon="5.50188">
        <ele>213.3</ele>
        <time>2025-10-19T07:51:57Z</time>
      </trkpt>
      <trkpt lat="43.22269" lon="5.50188">
        <ele>213.2</ele>
        <time>2025-10-19T07:51:58Z</time>
      </trkpt>
      <trkpt lat="43.22268" lon="5.50188">
        <ele>213.2</ele>
        <time>2025-10-19T07:51:59Z</time>
      </trkpt>
      <trkpt lat="43.22267" lon="5.50188">
        <ele>213.1</ele>
        <time>2025-10-19T07:52:00Z</time>
      </trkpt>
      <trkpt lat="43.22266" lon="5.50188">
        <ele>213</ele>
        <time>2025-10-19T07:52:01Z</time>
      </trkpt>
      <trkpt lat="43.22266" lon="5.50188">
        <ele>212.9</ele>
        <time>2025-10-19T07:52:02Z</time>
      </trkpt>
      <trkpt lat="43.22265" lon="5.50188">
        <ele>212.8</ele>
        <time>2025-10-19T07:52:03Z</time>
      </trkpt>
      <trkpt lat="43.22264" lon="5.50189">
        <ele>212.7</ele>
        <time>2025-10-19T07:52:04Z</time>
      </trkpt>
      <trkpt lat="43.22264" lon="5.5019">
        <ele>212.4</ele>
        <time>2025-10-19T07:52:05Z</time>
      </trkpt>
      <trkpt lat="43.22263" lon="5.5019">
        <ele>212.4</ele>
        <time>2025-10-19T07:52:06Z</time>
      </trkpt>
      <trkpt lat="43.22263" lon="5.5019">
        <ele>212.3</ele>
        <time>2025-10-19T07:52:07Z</time>
      </trkpt>
      <trkpt lat="43.22262" lon="5.5019">
        <ele>212.3</ele>
        <time>2025-10-19T07:52:08Z</time>
      </trkpt>
      <trkpt lat="43.22262" lon="5.5019">
        <ele>212.2</ele>
        <time>2025-10-19T07:52:09Z</time>
      </trkpt>
      <trkpt lat="43.22262" lon="5.5019">
        <ele>212.1</ele>
        <time>2025-10-19T07:52:10Z</time>
      </trkpt>
      <trkpt lat="43.22262" lon="5.50191">
        <ele>212.1</ele>
        <time>2025-10-19T07:52:11Z</time>
      </trkpt>
      <trkpt lat="43.22262" lon="5.50191">
        <ele>212</ele>
        <time>2025-10-19T07:52:12Z</time>
      </trkpt>
      <trkpt lat="43.22262" lon="5.50191">
        <ele>212</ele>
        <time>2025-10-19T07:52:13Z</time>
      </trkpt>
      <trkpt lat="43.22262" lon="5.50191">
        <ele>211.9</ele>
        <time>2025-10-19T07:52:14Z</time>
      </trkpt>
      <trkpt lat="43.22262" lon="5.50191">
        <ele>211.9</ele>
        <time>2025-10-19T07:52:15Z</time>
      </trkpt>
      <trkpt lat="43.22262" lon="5.50191">
        <ele>212</ele>
        <time>2025-10-19T07:52:16Z</time>
      </trkpt>
      <trkpt lat="43.22262" lon="5.50191">
        <ele>211.9</ele>
        <time>2025-10-19T07:52:17Z</time>
      </trkpt>
      <trkpt lat="43.22261" lon="5.50191">
        <ele>211.9</ele>
        <time>2025-10-19T07:52:18Z</time>
      </trkpt>
      <trkpt lat="43.22261" lon="5.50191">
        <ele>211.9</ele>
        <time>2025-10-19T07:52:19Z</time>
      </trkpt>
      <trkpt lat="43.22261" lon="5.50192">
        <ele>212</ele>
        <time>2025-10-19T07:52:20Z</time>
      </trkpt>
      <trkpt lat="43.22261" lon="5.50192">
        <ele>212</ele>
        <time>2025-10-19T07:52:21Z</time>
      </trkpt>
      <trkpt lat="43.2226" lon="5.50192">
        <ele>212.1</ele>
        <time>2025-10-19T07:52:22Z</time>
      </trkpt>
      <trkpt lat="43.2226" lon="5.50192">
        <ele>212</ele>
        <time>2025-10-19T07:52:23Z</time>
      </trkpt>
      <trkpt lat="43.2226" lon="5.50192">
        <ele>212</ele>
        <time>2025-10-19T07:52:24Z</time>
      </trkpt>
      <trkpt lat="43.2226" lon="5.50192">
        <ele>212</ele>
        <time>2025-10-19T07:52:25Z</time>
      </trkpt>
      <trkpt lat="43.2226" lon="5.50192">
        <ele>212</ele>
        <time>2025-10-19T07:52:26Z</time>
      </trkpt>
      <trkpt lat="43.2226" lon="5.50193">
        <ele>212</ele>
        <time>2025-10-19T07:52:27Z</time>
      </trkpt>
      <trkpt lat="43.2226" lon="5.50193">
        <ele>212</ele>
        <time>2025-10-19T07:52:28Z</time>
      </trkpt>
      <trkpt lat="43.22259" lon="5.50193">
        <ele>212</ele>
        <time>2025-10-19T07:52:29Z</time>
      </trkpt>
      <trkpt lat="43.22259" lon="5.50193">
        <ele>212</ele>
        <time>2025-10-19T07:52:30Z</time>
      </trkpt>
      <trkpt lat="43.22259" lon="5.50193">
        <ele>212</ele>
        <time>2025-10-19T07:52:31Z</time>
      </trkpt>
      <trkpt lat="43.22259" lon="5.50193">
        <ele>211.9</ele>
        <time>2025-10-19T07:52:32Z</time>
      </trkpt>
      <trkpt lat="43.22259" lon="5.50193">
        <ele>211.9</ele>
        <time>2025-10-19T07:52:33Z</time>
      </trkpt>
      <trkpt lat="43.22259" lon="5.50193">
        <ele>211.8</ele>
        <time>2025-10-19T07:52:34Z</time>
      </trkpt>
      <trkpt lat="43.22259" lon="5.50194">
        <ele>211.8</ele>
        <time>2025-10-19T07:52:35Z</time>
      </trkpt>
      <trkpt lat="43.22259" lon="5.50193">
        <ele>211.9</ele>
        <time>2025-10-19T07:52:36Z</time>
      </trkpt>
      <trkpt lat="43.22259" lon="5.50193">
        <ele>211.9</ele>
        <time>2025-10-19T07:52:37Z</time>
      </trkpt>
      <trkpt lat="43.22259" lon="5.50192">
        <ele>211.9</ele>
        <time>2025-10-19T07:52:38Z</time>
      </trkpt>
      <trkpt lat="43.22259" lon="5.50192">
        <ele>211.8</ele>
        <time>2025-10-19T07:52:39Z</time>
      </trkpt>
      <trkpt lat="43.22259" lon="5.50192">
        <ele>211.8</ele>
        <time>2025-10-19T07:52:40Z</time>
      </trkpt>
      <trkpt lat="43.22258" lon="5.50192">
        <ele>211.7</ele>
        <time>2025-10-19T07:52:41Z</time>
      </trkpt>
      <trkpt lat="43.22258" lon="5.50192">
        <ele>211.7</ele>
        <time>2025-10-19T07:52:42Z</time>
      </trkpt>
      <trkpt lat="43.22257" lon="5.50191">
        <ele>211.7</ele>
        <time>2025-10-19T07:52:43Z</time>
      </trkpt>
      <trkpt lat="43.22257" lon="5.50191">
        <ele>211.7</ele>
        <time>2025-10-19T07:52:44Z</time>
      </trkpt>
      <trkpt lat="43.22257" lon="5.5019">
        <ele>211.7</ele>
        <time>2025-10-19T07:52:45Z</time>
      </trkpt>
      <trkpt lat="43.22256" lon="5.50189">
        <ele>211.8</ele>
        <time>2025-10-19T07:52:46Z</time>
      </trkpt>
      <trkpt lat="43.22256" lon="5.50189">
        <ele>211.8</ele>
        <time>2025-10-19T07:52:47Z</time>
      </trkpt>
      <trkpt lat="43.22255" lon="5.50189">
        <ele>211.8</ele>
        <time>2025-10-19T07:52:48Z</time>
      </trkpt>
      <trkpt lat="43.22255" lon="5.50188">
        <ele>211.7</ele>
        <time>2025-10-19T07:52:49Z</time>
      </trkpt>
      <trkpt lat="43.22255" lon="5.50187">
        <ele>211.7</ele>
        <time>2025-10-19T07:52:50Z</time>
      </trkpt>
      <trkpt lat="43.22254" lon="5.50186">
        <ele>211.7</ele>
        <time>2025-10-19T07:52:51Z</time>
      </trkpt>
      <trkpt lat="43.22254" lon="5.50185">
        <ele>211.7</ele>
        <time>2025-10-19T07:52:52Z</time>
      </trkpt>
      <trkpt lat="43.22254" lon="5.50184">
        <ele>211.8</ele>
        <time>2025-10-19T07:52:53Z</time>
      </trkpt>
      <trkpt lat="43.22253" lon="5.50184">
        <ele>211.8</ele>
        <time>2025-10-19T07:52:54Z</time>
      </trkpt>
      <trkpt lat="43.22253" lon="5.50183">
        <ele>211.9</ele>
        <time>2025-10-19T07:52:55Z</time>
      </trkpt>
      <trkpt lat="43.22252" lon="5.50182">
        <ele>211.9</ele>
        <time>2025-10-19T07:52:56Z</time>
      </trkpt>
      <trkpt lat="43.22252" lon="5.5018">
        <ele>212</ele>
        <time>2025-10-19T07:52:57Z</time>
      </trkpt>
      <trkpt lat="43.22252" lon="5.50179">
        <ele>212.1</ele>
        <time>2025-10-19T07:52:58Z</time>
      </trkpt>
      <trkpt lat="43.22252" lon="5.50178">
        <ele>212.2</ele>
        <time>2025-10-19T07:52:59Z</time>
      </trkpt>
      <trkpt lat="43.22252" lon="5.50177">
        <ele>212.2</ele>
        <time>2025-10-19T07:53:00Z</time>
      </trkpt>
      <trkpt lat="43.22251" lon="5.50175">
        <ele>212.2</ele>
        <time>2025-10-19T07:53:01Z</time>
      </trkpt>
      <trkpt lat="43.2225" lon="5.50174">
        <ele>212.2</ele>
        <time>2025-10-19T07:53:02Z</time>
      </trkpt>
      <trkpt lat="43.2225" lon="5.50173">
        <ele>212.3</ele>
        <time>2025-10-19T07:53:03Z</time>
      </trkpt>
      <trkpt lat="43.2225" lon="5.50171">
        <ele>212.3</ele>
        <time>2025-10-19T07:53:04Z</time>
      </trkpt>
      <trkpt lat="43.22249" lon="5.5017">
        <ele>212.4</ele>
        <time>2025-10-19T07:53:05Z</time>
      </trkpt>
      <trkpt lat="43.22249" lon="5.50169">
        <ele>212.3</ele>
        <time>2025-10-19T07:53:06Z</time>
      </trkpt>
      <trkpt lat="43.22248" lon="5.50168">
        <ele>212.3</ele>
        <time>2025-10-19T07:53:07Z</time>
      </trkpt>
      <trkpt lat="43.22248" lon="5.50167">
        <ele>212.3</ele>
        <time>2025-10-19T07:53:08Z</time>
      </trkpt>
      <trkpt lat="43.22247" lon="5.50166">
        <ele>212.3</ele>
        <time>2025-10-19T07:53:09Z</time>
      </trkpt>
      <trkpt lat="43.22247" lon="5.50165">
        <ele>212.4</ele>
        <time>2025-10-19T07:53:10Z</time>
      </trkpt>
      <trkpt lat="43.22247" lon="5.50164">
        <ele>212.4</ele>
        <time>2025-10-19T07:53:11Z</time>
      </trkpt>
      <trkpt lat="43.22246" lon="5.50163">
        <ele>212.6</ele>
        <time>2025-10-19T07:53:12Z</time>
      </trkpt>
      <trkpt lat="43.22246" lon="5.50161">
        <ele>212.7</ele>
        <time>2025-10-19T07:53:13Z</time>
      </trkpt>
      <trkpt lat="43.22245" lon="5.5016">
        <ele>212.8</ele>
        <time>2025-10-19T07:53:14Z</time>
      </trkpt>
      <trkpt lat="43.22245" lon="5.50159">
        <ele>213</ele>
        <time>2025-10-19T07:53:15Z</time>
      </trkpt>
      <trkpt lat="43.22244" lon="5.50158">
        <ele>213</ele>
        <time>2025-10-19T07:53:16Z</time>
      </trkpt>
      <trkpt lat="43.22244" lon="5.50156">
        <ele>213.1</ele>
        <time>2025-10-19T07:53:17Z</time>
      </trkpt>
      <trkpt lat="43.22243" lon="5.50156">
        <ele>213.2</ele>
        <time>2025-10-19T07:53:18Z</time>
      </trkpt>
      <trkpt lat="43.22243" lon="5.50155">
        <ele>213.4</ele>
        <time>2025-10-19T07:53:19Z</time>
      </trkpt>
      <trkpt lat="43.22242" lon="5.50153">
        <ele>213.4</ele>
        <time>2025-10-19T07:53:20Z</time>
      </trkpt>
      <trkpt lat="43.22241" lon="5.50152">
        <ele>213.5</ele>
        <time>2025-10-19T07:53:21Z</time>
      </trkpt>
      <trkpt lat="43.22241" lon="5.50151">
        <ele>213.7</ele>
        <time>2025-10-19T07:53:22Z</time>
      </trkpt>
      <trkpt lat="43.2224" lon="5.5015">
        <ele>213.8</ele>
        <time>2025-10-19T07:53:23Z</time>
      </trkpt>
      <trkpt lat="43.2224" lon="5.50149">
        <ele>213.9</ele>
        <time>2025-10-19T07:53:24Z</time>
      </trkpt>
      <trkpt lat="43.22239" lon="5.50148">
        <ele>213.9</ele>
        <time>2025-10-19T07:53:25Z</time>
      </trkpt>
      <trkpt lat="43.22238" lon="5.50147">
        <ele>214</ele>
        <time>2025-10-19T07:53:26Z</time>
      </trkpt>
      <trkpt lat="43.22238" lon="5.50146">
        <ele>214.1</ele>
        <time>2025-10-19T07:53:27Z</time>
      </trkpt>
      <trkpt lat="43.22237" lon="5.50145">
        <ele>214.1</ele>
        <time>2025-10-19T07:53:28Z</time>
      </trkpt>
      <trkpt lat="43.22237" lon="5.50144">
        <ele>214.2</ele>
        <time>2025-10-19T07:53:29Z</time>
      </trkpt>
      <trkpt lat="43.22236" lon="5.50143">
        <ele>214.3</ele>
        <time>2025-10-19T07:53:30Z</time>
      </trkpt>
      <trkpt lat="43.22235" lon="5.50142">
        <ele>214.3</ele>
        <time>2025-10-19T07:53:31Z</time>
      </trkpt>
      <trkpt lat="43.22235" lon="5.50141">
        <ele>214.4</ele>
        <time>2025-10-19T07:53:32Z</time>
      </trkpt>
      <trkpt lat="43.22234" lon="5.50139">
        <ele>214.4</ele>
        <time>2025-10-19T07:53:33Z</time>
      </trkpt>
      <trkpt lat="43.22233" lon="5.50138">
        <ele>214.5</ele>
        <time>2025-10-19T07:53:34Z</time>
      </trkpt>
      <trkpt lat="43.22233" lon="5.50137">
        <ele>214.5</ele>
        <time>2025-10-19T07:53:35Z</time>
      </trkpt>
      <trkpt lat="43.22232" lon="5.50137">
        <ele>214.6</ele>
        <time>2025-10-19T07:53:36Z</time>
      </trkpt>
      <trkpt lat="43.22231" lon="5.50135">
        <ele>214.7</ele>
        <time>2025-10-19T07:53:37Z</time>
      </trkpt>
      <trkpt lat="43.22231" lon="5.50134">
        <ele>214.8</ele>
        <time>2025-10-19T07:53:38Z</time>
      </trkpt>
      <trkpt lat="43.2223" lon="5.50133">
        <ele>214.7</ele>
        <time>2025-10-19T07:53:39Z</time>
      </trkpt>
      <trkpt lat="43.22229" lon="5.50132">
        <ele>214.7</ele>
        <time>2025-10-19T07:53:40Z</time>
      </trkpt>
      <trkpt lat="43.22229" lon="5.50131">
        <ele>214.8</ele>
        <time>2025-10-19T07:53:41Z</time>
      </trkpt>
      <trkpt lat="43.22228" lon="5.5013">
        <ele>214.8</ele>
        <time>2025-10-19T07:53:42Z</time>
      </trkpt>
      <trkpt lat="43.22227" lon="5.50129">
        <ele>214.8</ele>
        <time>2025-10-19T07:53:43Z</time>
      </trkpt>
      <trkpt lat="43.22227" lon="5.50127">
        <ele>214.9</ele>
        <time>2025-10-19T07:53:44Z</time>
      </trkpt>
      <trkpt lat="43.22226" lon="5.50126">
        <ele>214.9</ele>
        <time>2025-10-19T07:53:45Z</time>
      </trkpt>
      <trkpt lat="43.22225" lon="5.50125">
        <ele>214.9</ele>
        <time>2025-10-19T07:53:46Z</time>
      </trkpt>
      <trkpt lat="43.22225" lon="5.50124">
        <ele>214.8</ele>
        <time>2025-10-19T07:53:47Z</time>
      </trkpt>
      <trkpt lat="43.22224" lon="5.50124">
        <ele>214.9</ele>
        <time>2025-10-19T07:53:48Z</time>
      </trkpt>
      <trkpt lat="43.22224" lon="5.50123">
        <ele>214.9</ele>
        <time>2025-10-19T07:53:49Z</time>
      </trkpt>
      <trkpt lat="43.22223" lon="5.50122">
        <ele>214.9</ele>
        <time>2025-10-19T07:53:50Z</time>
      </trkpt>
      <trkpt lat="43.22223" lon="5.50121">
        <ele>215</ele>
        <time>2025-10-19T07:53:51Z</time>
      </trkpt>
      <trkpt lat="43.22222" lon="5.5012">
        <ele>215</ele>
        <time>2025-10-19T07:53:52Z</time>
      </trkpt>
      <trkpt lat="43.22221" lon="5.50119">
        <ele>214.9</ele>
        <time>2025-10-19T07:53:53Z</time>
      </trkpt>
      <trkpt lat="43.22221" lon="5.50118">
        <ele>214.9</ele>
        <time>2025-10-19T07:53:54Z</time>
      </trkpt>
      <trkpt lat="43.2222" lon="5.50118">
        <ele>215</ele>
        <time>2025-10-19T07:53:55Z</time>
      </trkpt>
      <trkpt lat="43.22219" lon="5.50117">
        <ele>215.1</ele>
        <time>2025-10-19T07:53:56Z</time>
      </trkpt>
      <trkpt lat="43.22219" lon="5.50116">
        <ele>215</ele>
        <time>2025-10-19T07:53:57Z</time>
      </trkpt>
      <trkpt lat="43.22218" lon="5.50116">
        <ele>215</ele>
        <time>2025-10-19T07:53:58Z</time>
      </trkpt>
      <trkpt lat="43.22217" lon="5.50115">
        <ele>215</ele>
        <time>2025-10-19T07:53:59Z</time>
      </trkpt>
      <trkpt lat="43.22216" lon="5.50114">
        <ele>214.9</ele>
        <time>2025-10-19T07:54:00Z</time>
      </trkpt>
      <trkpt lat="43.22215" lon="5.50114">
        <ele>214.9</ele>
        <time>2025-10-19T07:54:01Z</time>
      </trkpt>
      <trkpt lat="43.22214" lon="5.50114">
        <ele>214.8</ele>
        <time>2025-10-19T07:54:02Z</time>
      </trkpt>
      <trkpt lat="43.22213" lon="5.50114">
        <ele>214.7</ele>
        <time>2025-10-19T07:54:03Z</time>
      </trkpt>
      <trkpt lat="43.22212" lon="5.50113">
        <ele>214.7</ele>
        <time>2025-10-19T07:54:04Z</time>
      </trkpt>
      <trkpt lat="43.22211" lon="5.50113">
        <ele>214.6</ele>
        <time>2025-10-19T07:54:05Z</time>
      </trkpt>
      <trkpt lat="43.2221" lon="5.50112">
        <ele>214.5</ele>
        <time>2025-10-19T07:54:06Z</time>
      </trkpt>
      <trkpt lat="43.22209" lon="5.50112">
        <ele>214.5</ele>
        <time>2025-10-19T07:54:07Z</time>
      </trkpt>
      <trkpt lat="43.22208" lon="5.50112">
        <ele>214.4</ele>
        <time>2025-10-19T07:54:08Z</time>
      </trkpt>
      <trkpt lat="43.22208" lon="5.50111">
        <ele>214.3</ele>
        <time>2025-10-19T07:54:09Z</time>
      </trkpt>
      <trkpt lat="43.22207" lon="5.50111">
        <ele>214.1</ele>
        <time>2025-10-19T07:54:10Z</time>
      </trkpt>
      <trkpt lat="43.22206" lon="5.50111">
        <ele>213.9</ele>
        <time>2025-10-19T07:54:11Z</time>
      </trkpt>
      <trkpt lat="43.22205" lon="5.50111">
        <ele>213.7</ele>
        <time>2025-10-19T07:54:12Z</time>
      </trkpt>
      <trkpt lat="43.22204" lon="5.5011">
        <ele>213.6</ele>
        <time>2025-10-19T07:54:13Z</time>
      </trkpt>
      <trkpt lat="43.22203" lon="5.5011">
        <ele>213.5</ele>
        <time>2025-10-19T07:54:14Z</time>
      </trkpt>
      <trkpt lat="43.22203" lon="5.5011">
        <ele>213.3</ele>
        <time>2025-10-19T07:54:15Z</time>
      </trkpt>
      <trkpt lat="43.22202" lon="5.5011">
        <ele>213.1</ele>
        <time>2025-10-19T07:54:16Z</time>
      </trkpt>
      <trkpt lat="43.22201" lon="5.5011">
        <ele>213</ele>
        <time>2025-10-19T07:54:17Z</time>
      </trkpt>
      <trkpt lat="43.22201" lon="5.5011">
        <ele>212.8</ele>
        <time>2025-10-19T07:54:18Z</time>
      </trkpt>
      <trkpt lat="43.222" lon="5.5011">
        <ele>212.7</ele>
        <time>2025-10-19T07:54:19Z</time>
      </trkpt>
      <trkpt lat="43.22199" lon="5.5011">
        <ele>212.6</ele>
        <time>2025-10-19T07:54:20Z</time>
      </trkpt>
      <trkpt lat="43.22199" lon="5.5011">
        <ele>212.5</ele>
        <time>2025-10-19T07:54:21Z</time>
      </trkpt>
      <trkpt lat="43.22198" lon="5.5011">
        <ele>212.4</ele>
        <time>2025-10-19T07:54:22Z</time>
      </trkpt>
      <trkpt lat="43.22197" lon="5.5011">
        <ele>212.3</ele>
        <time>2025-10-19T07:54:23Z</time>
      </trkpt>
      <trkpt lat="43.22196" lon="5.5011">
        <ele>212.2</ele>
        <time>2025-10-19T07:54:24Z</time>
      </trkpt>
      <trkpt lat="43.22196" lon="5.5011">
        <ele>212.1</ele>
        <time>2025-10-19T07:54:25Z</time>
      </trkpt>
      <trkpt lat="43.22195" lon="5.5011">
        <ele>212</ele>
        <time>2025-10-19T07:54:26Z</time>
      </trkpt>
      <trkpt lat="43.22194" lon="5.5011">
        <ele>211.9</ele>
        <time>2025-10-19T07:54:27Z</time>
      </trkpt>
      <trkpt lat="43.22193" lon="5.5011">
        <ele>211.8</ele>
        <time>2025-10-19T07:54:28Z</time>
      </trkpt>
      <trkpt lat="43.22192" lon="5.5011">
        <ele>211.7</ele>
        <time>2025-10-19T07:54:29Z</time>
      </trkpt>
      <trkpt lat="43.22192" lon="5.5011">
        <ele>211.6</ele>
        <time>2025-10-19T07:54:30Z</time>
      </trkpt>
      <trkpt lat="43.22191" lon="5.5011">
        <ele>211.5</ele>
        <time>2025-10-19T07:54:31Z</time>
      </trkpt>
      <trkpt lat="43.2219" lon="5.5011">
        <ele>211.3</ele>
        <time>2025-10-19T07:54:32Z</time>
      </trkpt>
      <trkpt lat="43.2219" lon="5.5011">
        <ele>211.1</ele>
        <time>2025-10-19T07:54:33Z</time>
      </trkpt>
      <trkpt lat="43.22189" lon="5.5011">
        <ele>210.9</ele>
        <time>2025-10-19T07:54:34Z</time>
      </trkpt>
      <trkpt lat="43.22188" lon="5.50109">
        <ele>210.7</ele>
        <time>2025-10-19T07:54:35Z</time>
      </trkpt>
      <trkpt lat="43.22188" lon="5.50109">
        <ele>210.5</ele>
        <time>2025-10-19T07:54:36Z</time>
      </trkpt>
      <trkpt lat="43.22187" lon="5.50109">
        <ele>210.4</ele>
        <time>2025-10-19T07:54:37Z</time>
      </trkpt>
      <trkpt lat="43.22187" lon="5.50108">
        <ele>210.3</ele>
        <time>2025-10-19T07:54:38Z</time>
      </trkpt>
      <trkpt lat="43.22186" lon="5.50108">
        <ele>210.1</ele>
        <time>2025-10-19T07:54:39Z</time>
      </trkpt>
      <trkpt lat="43.22185" lon="5.50108">
        <ele>210</ele>
        <time>2025-10-19T07:54:40Z</time>
      </trkpt>
      <trkpt lat="43.22185" lon="5.50108">
        <ele>209.9</ele>
        <time>2025-10-19T07:54:41Z</time>
      </trkpt>
      <trkpt lat="43.22184" lon="5.50108">
        <ele>209.7</ele>
        <time>2025-10-19T07:54:42Z</time>
      </trkpt>
      <trkpt lat="43.22183" lon="5.50108">
        <ele>209.6</ele>
        <time>2025-10-19T07:54:43Z</time>
      </trkpt>
      <trkpt lat="43.22183" lon="5.50108">
        <ele>209.4</ele>
        <time>2025-10-19T07:54:44Z</time>
      </trkpt>
      <trkpt lat="43.22182" lon="5.50108">
        <ele>209.2</ele>
        <time>2025-10-19T07:54:45Z</time>
      </trkpt>
      <trkpt lat="43.22182" lon="5.50108">
        <ele>209.1</ele>
        <time>2025-10-19T07:54:46Z</time>
      </trkpt>
      <trkpt lat="43.22181" lon="5.50108">
        <ele>208.9</ele>
        <time>2025-10-19T07:54:47Z</time>
      </trkpt>
      <trkpt lat="43.2218" lon="5.50107">
        <ele>208.8</ele>
        <time>2025-10-19T07:54:48Z</time>
      </trkpt>
      <trkpt lat="43.22179" lon="5.50107">
        <ele>208.6</ele>
        <time>2025-10-19T07:54:49Z</time>
      </trkpt>
      <trkpt lat="43.22179" lon="5.50107">
        <ele>208.5</ele>
        <time>2025-10-19T07:54:50Z</time>
      </trkpt>
      <trkpt lat="43.22178" lon="5.50107">
        <ele>208.2</ele>
        <time>2025-10-19T07:54:51Z</time>
      </trkpt>
      <trkpt lat="43.22177" lon="5.50107">
        <ele>208.1</ele>
        <time>2025-10-19T07:54:52Z</time>
      </trkpt>
      <trkpt lat="43.22177" lon="5.50107">
        <ele>207.9</ele>
        <time>2025-10-19T07:54:53Z</time>
      </trkpt>
      <trkpt lat="43.22176" lon="5.50107">
        <ele>207.7</ele>
        <time>2025-10-19T07:54:54Z</time>
      </trkpt>
      <trkpt lat="43.22176" lon="5.50107">
        <ele>207.6</ele>
        <time>2025-10-19T07:54:55Z</time>
      </trkpt>
      <trkpt lat="43.22175" lon="5.50108">
        <ele>207.4</ele>
        <time>2025-10-19T07:54:56Z</time>
      </trkpt>
      <trkpt lat="43.22174" lon="5.50108">
        <ele>207.3</ele>
        <time>2025-10-19T07:54:57Z</time>
      </trkpt>
      <trkpt lat="43.22174" lon="5.50107">
        <ele>207.2</ele>
        <time>2025-10-19T07:54:58Z</time>
      </trkpt>
      <trkpt lat="43.22173" lon="5.50107">
        <ele>207.1</ele>
        <time>2025-10-19T07:54:59Z</time>
      </trkpt>
      <trkpt lat="43.22172" lon="5.50107">
        <ele>206.9</ele>
        <time>2025-10-19T07:55:00Z</time>
      </trkpt>
      <trkpt lat="43.22172" lon="5.50107">
        <ele>206.8</ele>
        <time>2025-10-19T07:55:01Z</time>
      </trkpt>
      <trkpt lat="43.22172" lon="5.50107">
        <ele>206.7</ele>
        <time>2025-10-19T07:55:02Z</time>
      </trkpt>
      <trkpt lat="43.22171" lon="5.50106">
        <ele>206.6</ele>
        <time>2025-10-19T07:55:03Z</time>
      </trkpt>
      <trkpt lat="43.22171" lon="5.50106">
        <ele>206.4</ele>
        <time>2025-10-19T07:55:04Z</time>
      </trkpt>
      <trkpt lat="43.2217" lon="5.50106">
        <ele>206.3</ele>
        <time>2025-10-19T07:55:05Z</time>
      </trkpt>
      <trkpt lat="43.22169" lon="5.50105">
        <ele>206.2</ele>
        <time>2025-10-19T07:55:06Z</time>
      </trkpt>
      <trkpt lat="43.22169" lon="5.50105">
        <ele>206.1</ele>
        <time>2025-10-19T07:55:07Z</time>
      </trkpt>
      <trkpt lat="43.22169" lon="5.50105">
        <ele>206</ele>
        <time>2025-10-19T07:55:08Z</time>
      </trkpt>
      <trkpt lat="43.22168" lon="5.50105">
        <ele>206</ele>
        <time>2025-10-19T07:55:09Z</time>
      </trkpt>
      <trkpt lat="43.22167" lon="5.50105">
        <ele>205.9</ele>
        <time>2025-10-19T07:55:10Z</time>
      </trkpt>
      <trkpt lat="43.22167" lon="5.50105">
        <ele>205.9</ele>
        <time>2025-10-19T07:55:11Z</time>
      </trkpt>
      <trkpt lat="43.22166" lon="5.50105">
        <ele>205.8</ele>
        <time>2025-10-19T07:55:12Z</time>
      </trkpt>
      <trkpt lat="43.22165" lon="5.50105">
        <ele>205.7</ele>
        <time>2025-10-19T07:55:13Z</time>
      </trkpt>
      <trkpt lat="43.22164" lon="5.50105">
        <ele>205.5</ele>
        <time>2025-10-19T07:55:14Z</time>
      </trkpt>
      <trkpt lat="43.22164" lon="5.50105">
        <ele>205.3</ele>
        <time>2025-10-19T07:55:15Z</time>
      </trkpt>
      <trkpt lat="43.22163" lon="5.50105">
        <ele>205.2</ele>
        <time>2025-10-19T07:55:16Z</time>
      </trkpt>
      <trkpt lat="43.22163" lon="5.50105">
        <ele>205.1</ele>
        <time>2025-10-19T07:55:17Z</time>
      </trkpt>
      <trkpt lat="43.22162" lon="5.50105">
        <ele>205</ele>
        <time>2025-10-19T07:55:18Z</time>
      </trkpt>
      <trkpt lat="43.22161" lon="5.50105">
        <ele>204.9</ele>
        <time>2025-10-19T07:55:19Z</time>
      </trkpt>
      <trkpt lat="43.2216" lon="5.50105">
        <ele>204.8</ele>
        <time>2025-10-19T07:55:20Z</time>
      </trkpt>
      <trkpt lat="43.2216" lon="5.50105">
        <ele>204.8</ele>
        <time>2025-10-19T07:55:21Z</time>
      </trkpt>
      <trkpt lat="43.22159" lon="5.50105">
        <ele>204.6</ele>
        <time>2025-10-19T07:55:22Z</time>
      </trkpt>
      <trkpt lat="43.22159" lon="5.50105">
        <ele>204.4</ele>
        <time>2025-10-19T07:55:23Z</time>
      </trkpt>
      <trkpt lat="43.22158" lon="5.50105">
        <ele>204.4</ele>
        <time>2025-10-19T07:55:24Z</time>
      </trkpt>
      <trkpt lat="43.22157" lon="5.50106">
        <ele>204.4</ele>
        <time>2025-10-19T07:55:25Z</time>
      </trkpt>
      <trkpt lat="43.22157" lon="5.50106">
        <ele>204.3</ele>
        <time>2025-10-19T07:55:26Z</time>
      </trkpt>
      <trkpt lat="43.22156" lon="5.50106">
        <ele>204.2</ele>
        <time>2025-10-19T07:55:27Z</time>
      </trkpt>
      <trkpt lat="43.22155" lon="5.50106">
        <ele>203.9</ele>
        <time>2025-10-19T07:55:28Z</time>
      </trkpt>
      <trkpt lat="43.22154" lon="5.50107">
        <ele>203.7</ele>
        <time>2025-10-19T07:55:29Z</time>
      </trkpt>
      <trkpt lat="43.22154" lon="5.50107">
        <ele>203.5</ele>
        <time>2025-10-19T07:55:30Z</time>
      </trkpt>
      <trkpt lat="43.22153" lon="5.50107">
        <ele>203.5</ele>
        <time>2025-10-19T07:55:31Z</time>
      </trkpt>
      <trkpt lat="43.22152" lon="5.50107">
        <ele>203.2</ele>
        <time>2025-10-19T07:55:32Z</time>
      </trkpt>
      <trkpt lat="43.22152" lon="5.50108">
        <ele>203</ele>
        <time>2025-10-19T07:55:33Z</time>
      </trkpt>
      <trkpt lat="43.22151" lon="5.50108">
        <ele>202.9</ele>
        <time>2025-10-19T07:55:34Z</time>
      </trkpt>
      <trkpt lat="43.22151" lon="5.50108">
        <ele>202.7</ele>
        <time>2025-10-19T07:55:35Z</time>
      </trkpt>
      <trkpt lat="43.22151" lon="5.50108">
        <ele>202.5</ele>
        <time>2025-10-19T07:55:36Z</time>
      </trkpt>
      <trkpt lat="43.2215" lon="5.50109">
        <ele>202.5</ele>
        <time>2025-10-19T07:55:37Z</time>
      </trkpt>
      <trkpt lat="43.22149" lon="5.50109">
        <ele>202.3</ele>
        <time>2025-10-19T07:55:38Z</time>
      </trkpt>
      <trkpt lat="43.22149" lon="5.50109">
        <ele>202.2</ele>
        <time>2025-10-19T07:55:39Z</time>
      </trkpt>
      <trkpt lat="43.22148" lon="5.50109">
        <ele>202.1</ele>
        <time>2025-10-19T07:55:40Z</time>
      </trkpt>
      <trkpt lat="43.22147" lon="5.50109">
        <ele>202.1</ele>
        <time>2025-10-19T07:55:41Z</time>
      </trkpt>
      <trkpt lat="43.22147" lon="5.5011">
        <ele>201.9</ele>
        <time>2025-10-19T07:55:42Z</time>
      </trkpt>
      <trkpt lat="43.22146" lon="5.5011">
        <ele>201.7</ele>
        <time>2025-10-19T07:55:43Z</time>
      </trkpt>
      <trkpt lat="43.22145" lon="5.5011">
        <ele>201.6</ele>
        <time>2025-10-19T07:55:44Z</time>
      </trkpt>
      <trkpt lat="43.22144" lon="5.5011">
        <ele>201.4</ele>
        <time>2025-10-19T07:55:45Z</time>
      </trkpt>
      <trkpt lat="43.22143" lon="5.5011">
        <ele>201.3</ele>
        <time>2025-10-19T07:55:46Z</time>
      </trkpt>
      <trkpt lat="43.22143" lon="5.5011">
        <ele>201.2</ele>
        <time>2025-10-19T07:55:47Z</time>
      </trkpt>
      <trkpt lat="43.22142" lon="5.5011">
        <ele>201.1</ele>
        <time>2025-10-19T07:55:48Z</time>
      </trkpt>
      <trkpt lat="43.22142" lon="5.5011">
        <ele>201</ele>
        <time>2025-10-19T07:55:49Z</time>
      </trkpt>
      <trkpt lat="43.22142" lon="5.5011">
        <ele>200.9</ele>
        <time>2025-10-19T07:55:50Z</time>
      </trkpt>
      <trkpt lat="43.22141" lon="5.50111">
        <ele>200.9</ele>
        <time>2025-10-19T07:55:51Z</time>
      </trkpt>
      <trkpt lat="43.22141" lon="5.50111">
        <ele>200.8</ele>
        <time>2025-10-19T07:55:52Z</time>
      </trkpt>
      <trkpt lat="43.22141" lon="5.5011">
        <ele>200.7</ele>
        <time>2025-10-19T07:55:53Z</time>
      </trkpt>
      <trkpt lat="43.22141" lon="5.5011">
        <ele>200.7</ele>
        <time>2025-10-19T07:55:54Z</time>
      </trkpt>
      <trkpt lat="43.22141" lon="5.5011">
        <ele>200.7</ele>
        <time>2025-10-19T07:55:55Z</time>
      </trkpt>
      <trkpt lat="43.22141" lon="5.5011">
        <ele>200.7</ele>
        <time>2025-10-19T07:55:56Z</time>
      </trkpt>
      <trkpt lat="43.22141" lon="5.50109">
        <ele>200.8</ele>
        <time>2025-10-19T07:55:57Z</time>
      </trkpt>
      <trkpt lat="43.22141" lon="5.50109">
        <ele>200.8</ele>
        <time>2025-10-19T07:55:58Z</time>
      </trkpt>
      <trkpt lat="43.2214" lon="5.50109">
        <ele>200.7</ele>
        <time>2025-10-19T07:55:59Z</time>
      </trkpt>
      <trkpt lat="43.2214" lon="5.50109">
        <ele>200.5</ele>
        <time>2025-10-19T07:56:00Z</time>
      </trkpt>
      <trkpt lat="43.2214" lon="5.50109">
        <ele>200.5</ele>
        <time>2025-10-19T07:56:01Z</time>
      </trkpt>
      <trkpt lat="43.2214" lon="5.5011">
        <ele>200.5</ele>
        <time>2025-10-19T07:56:02Z</time>
      </trkpt>
      <trkpt lat="43.2214" lon="5.5011">
        <ele>200.5</ele>
        <time>2025-10-19T07:56:03Z</time>
      </trkpt>
      <trkpt lat="43.2214" lon="5.50109">
        <ele>200.6</ele>
        <time>2025-10-19T07:56:04Z</time>
      </trkpt>
      <trkpt lat="43.2214" lon="5.50109">
        <ele>200.6</ele>
        <time>2025-10-19T07:56:05Z</time>
      </trkpt>
      <trkpt lat="43.2214" lon="5.50109">
        <ele>200.7</ele>
        <time>2025-10-19T07:56:06Z</time>
      </trkpt>
      <trkpt lat="43.2214" lon="5.50109">
        <ele>200.7</ele>
        <time>2025-10-19T07:56:07Z</time>
      </trkpt>
      <trkpt lat="43.2214" lon="5.5011">
        <ele>200.7</ele>
        <time>2025-10-19T07:56:08Z</time>
      </trkpt>
      <trkpt lat="43.2214" lon="5.5011">
        <ele>200.7</ele>
        <time>2025-10-19T07:56:09Z</time>
      </trkpt>
      <trkpt lat="43.2214" lon="5.5011">
        <ele>200.7</ele>
        <time>2025-10-19T07:56:10Z</time>
      </trkpt>
      <trkpt lat="43.2214" lon="5.5011">
        <ele>200.7</ele>
        <time>2025-10-19T07:56:11Z</time>
      </trkpt>
      <trkpt lat="43.2214" lon="5.5011">
        <ele>200.7</ele>
        <time>2025-10-19T07:56:12Z</time>
      </trkpt>
      <trkpt lat="43.2214" lon="5.5011">
        <ele>200.8</ele>
        <time>2025-10-19T07:56:13Z</time>
      </trkpt>
      <trkpt lat="43.2214" lon="5.5011">
        <ele>200.8</ele>
        <time>2025-10-19T07:56:14Z</time>
      </trkpt>
      <trkpt lat="43.2214" lon="5.5011">
        <ele>200.8</ele>
        <time>2025-10-19T07:56:15Z</time>
      </trkpt>
      <trkpt lat="43.2214" lon="5.5011">
        <ele>200.8</ele>
        <time>2025-10-19T07:56:16Z</time>
      </trkpt>
      <trkpt lat="43.2214" lon="5.5011">
        <ele>200.7</ele>
        <time>2025-10-19T07:56:17Z</time>
      </trkpt>
      <trkpt lat="43.2214" lon="5.5011">
        <ele>200.7</ele>
        <time>2025-10-19T07:56:18Z</time>
      </trkpt>
      <trkpt lat="43.2214" lon="5.5011">
        <ele>200.7</ele>
        <time>2025-10-19T07:56:19Z</time>
      </trkpt>
      <trkpt lat="43.2214" lon="5.50109">
        <ele>200.7</ele>
        <time>2025-10-19T07:56:20Z</time>
      </trkpt>
      <trkpt lat="43.2214" lon="5.50109">
        <ele>200.7</ele>
        <time>2025-10-19T07:56:21Z</time>
      </trkpt>
      <trkpt lat="43.2214" lon="5.5011">
        <ele>200.7</ele>
        <time>2025-10-19T07:56:22Z</time>
      </trkpt>
      <trkpt lat="43.2214" lon="5.5011">
        <ele>200.8</ele>
        <time>2025-10-19T07:56:23Z</time>
      </trkpt>
      <trkpt lat="43.22139" lon="5.50111">
        <ele>200.7</ele>
        <time>2025-10-19T07:56:24Z</time>
      </trkpt>
      <trkpt lat="43.22139" lon="5.50112">
        <ele>200.6</ele>
        <time>2025-10-19T07:56:25Z</time>
      </trkpt>
      <trkpt lat="43.22138" lon="5.50112">
        <ele>200.5</ele>
        <time>2025-10-19T07:56:26Z</time>
      </trkpt>
      <trkpt lat="43.22138" lon="5.50112">
        <ele>200.3</ele>
        <time>2025-10-19T07:56:27Z</time>
      </trkpt>
      <trkpt lat="43.22137" lon="5.50113">
        <ele>200.2</ele>
        <time>2025-10-19T07:56:28Z</time>
      </trkpt>
      <trkpt lat="43.22136" lon="5.50113">
        <ele>200.2</ele>
        <time>2025-10-19T07:56:29Z</time>
      </trkpt>
      <trkpt lat="43.22136" lon="5.50113">
        <ele>200</ele>
        <time>2025-10-19T07:56:30Z</time>
      </trkpt>
      <trkpt lat="43.22135" lon="5.50113">
        <ele>199.9</ele>
        <time>2025-10-19T07:56:31Z</time>
      </trkpt>
      <trkpt lat="43.22134" lon="5.50114">
        <ele>199.7</ele>
        <time>2025-10-19T07:56:32Z</time>
      </trkpt>
      <trkpt lat="43.22134" lon="5.50114">
        <ele>199.6</ele>
        <time>2025-10-19T07:56:33Z</time>
      </trkpt>
      <trkpt lat="43.22134" lon="5.50115">
        <ele>199.5</ele>
        <time>2025-10-19T07:56:34Z</time>
      </trkpt>
      <trkpt lat="43.22133" lon="5.50116">
        <ele>199.4</ele>
        <time>2025-10-19T07:56:35Z</time>
      </trkpt>
      <trkpt lat="43.22133" lon="5.50116">
        <ele>199.3</ele>
        <time>2025-10-19T07:56:36Z</time>
      </trkpt>
      <trkpt lat="43.22132" lon="5.50117">
        <ele>199.2</ele>
        <time>2025-10-19T07:56:37Z</time>
      </trkpt>
      <trkpt lat="43.22132" lon="5.50118">
        <ele>199.1</ele>
        <time>2025-10-19T07:56:38Z</time>
      </trkpt>
      <trkpt lat="43.22132" lon="5.50118">
        <ele>199</ele>
        <time>2025-10-19T07:56:39Z</time>
      </trkpt>
      <trkpt lat="43.22131" lon="5.50118">
        <ele>198.9</ele>
        <time>2025-10-19T07:56:40Z</time>
      </trkpt>
      <trkpt lat="43.22131" lon="5.50119">
        <ele>198.8</ele>
        <time>2025-10-19T07:56:41Z</time>
      </trkpt>
      <trkpt lat="43.22131" lon="5.5012">
        <ele>198.7</ele>
        <time>2025-10-19T07:56:42Z</time>
      </trkpt>
      <trkpt lat="43.22131" lon="5.50121">
        <ele>198.5</ele>
        <time>2025-10-19T07:56:43Z</time>
      </trkpt>
      <trkpt lat="43.2213" lon="5.50121">
        <ele>198.5</ele>
        <time>2025-10-19T07:56:44Z</time>
      </trkpt>
      <trkpt lat="43.2213" lon="5.50122">
        <ele>198.4</ele>
        <time>2025-10-19T07:56:45Z</time>
      </trkpt>
      <trkpt lat="43.22129" lon="5.50123">
        <ele>198.1</ele>
        <time>2025-10-19T07:56:46Z</time>
      </trkpt>
      <trkpt lat="43.22129" lon="5.50124">
        <ele>197.9</ele>
        <time>2025-10-19T07:56:47Z</time>
      </trkpt>
      <trkpt lat="43.22128" lon="5.50125">
        <ele>197.7</ele>
        <time>2025-10-19T07:56:48Z</time>
      </trkpt>
      <trkpt lat="43.22128" lon="5.50126">
        <ele>197.6</ele>
        <time>2025-10-19T07:56:49Z</time>
      </trkpt>
      <trkpt lat="43.22127" lon="5.50127">
        <ele>197.4</ele>
        <time>2025-10-19T07:56:50Z</time>
      </trkpt>
      <trkpt lat="43.22127" lon="5.50128">
        <ele>197.3</ele>
        <time>2025-10-19T07:56:51Z</time>
      </trkpt>
      <trkpt lat="43.22126" lon="5.50129">
        <ele>197.1</ele>
        <time>2025-10-19T07:56:52Z</time>
      </trkpt>
      <trkpt lat="43.22126" lon="5.5013">
        <ele>197</ele>
        <time>2025-10-19T07:56:53Z</time>
      </trkpt>
      <trkpt lat="43.22125" lon="5.50131">
        <ele>196.7</ele>
        <time>2025-10-19T07:56:54Z</time>
      </trkpt>
      <trkpt lat="43.22125" lon="5.50131">
        <ele>196.6</ele>
        <time>2025-10-19T07:56:55Z</time>
      </trkpt>
      <trkpt lat="43.22124" lon="5.50132">
        <ele>196.6</ele>
        <time>2025-10-19T07:56:56Z</time>
      </trkpt>
      <trkpt lat="43.22123" lon="5.50133">
        <ele>196.4</ele>
        <time>2025-10-19T07:56:57Z</time>
      </trkpt>
      <trkpt lat="43.22123" lon="5.50134">
        <ele>196.2</ele>
        <time>2025-10-19T07:56:58Z</time>
      </trkpt>
      <trkpt lat="43.22123" lon="5.50134">
        <ele>196.2</ele>
        <time>2025-10-19T07:56:59Z</time>
      </trkpt>
      <trkpt lat="43.22122" lon="5.50135">
        <ele>196.1</ele>
        <time>2025-10-19T07:57:00Z</time>
      </trkpt>
      <trkpt lat="43.22121" lon="5.50136">
        <ele>196</ele>
        <time>2025-10-19T07:57:01Z</time>
      </trkpt>
      <trkpt lat="43.22121" lon="5.50137">
        <ele>195.8</ele>
        <time>2025-10-19T07:57:02Z</time>
      </trkpt>
      <trkpt lat="43.2212" lon="5.50138">
        <ele>195.7</ele>
        <time>2025-10-19T07:57:03Z</time>
      </trkpt>
      <trkpt lat="43.22119" lon="5.50139">
        <ele>195.6</ele>
        <time>2025-10-19T07:57:04Z</time>
      </trkpt>
      <trkpt lat="43.22118" lon="5.5014">
        <ele>195.5</ele>
        <time>2025-10-19T07:57:05Z</time>
      </trkpt>
      <trkpt lat="43.22118" lon="5.50141">
        <ele>195.4</ele>
        <time>2025-10-19T07:57:06Z</time>
      </trkpt>
      <trkpt lat="43.22117" lon="5.50142">
        <ele>195.2</ele>
        <time>2025-10-19T07:57:07Z</time>
      </trkpt>
      <trkpt lat="43.22117" lon="5.50143">
        <ele>195.2</ele>
        <time>2025-10-19T07:57:08Z</time>
      </trkpt>
      <trkpt lat="43.22116" lon="5.50144">
        <ele>195</ele>
        <time>2025-10-19T07:57:09Z</time>
      </trkpt>
      <trkpt lat="43.22116" lon="5.50145">
        <ele>195.1</ele>
        <time>2025-10-19T07:57:10Z</time>
      </trkpt>
      <trkpt lat="43.22115" lon="5.50147">
        <ele>195</ele>
        <time>2025-10-19T07:57:11Z</time>
      </trkpt>
      <trkpt lat="43.22114" lon="5.50148">
        <ele>194.7</ele>
        <time>2025-10-19T07:57:12Z</time>
      </trkpt>
      <trkpt lat="43.22114" lon="5.50149">
        <ele>194.7</ele>
        <time>2025-10-19T07:57:13Z</time>
      </trkpt>
      <trkpt lat="43.22113" lon="5.50151">
        <ele>194.5</ele>
        <time>2025-10-19T07:57:14Z</time>
      </trkpt>
      <trkpt lat="43.22113" lon="5.50152">
        <ele>194.4</ele>
        <time>2025-10-19T07:57:15Z</time>
      </trkpt>
      <trkpt lat="43.22113" lon="5.50153">
        <ele>194.3</ele>
        <time>2025-10-19T07:57:16Z</time>
      </trkpt>
      <trkpt lat="43.22112" lon="5.50154">
        <ele>194</ele>
        <time>2025-10-19T07:57:17Z</time>
      </trkpt>
      <trkpt lat="43.22112" lon="5.50156">
        <ele>193.9</ele>
        <time>2025-10-19T07:57:18Z</time>
      </trkpt>
      <trkpt lat="43.22111" lon="5.50157">
        <ele>193.5</ele>
        <time>2025-10-19T07:57:19Z</time>
      </trkpt>
      <trkpt lat="43.22111" lon="5.50158">
        <ele>193.3</ele>
        <time>2025-10-19T07:57:20Z</time>
      </trkpt>
      <trkpt lat="43.22111" lon="5.50159">
        <ele>193.2</ele>
        <time>2025-10-19T07:57:21Z</time>
      </trkpt>
      <trkpt lat="43.2211" lon="5.5016">
        <ele>193</ele>
        <time>2025-10-19T07:57:22Z</time>
      </trkpt>
      <trkpt lat="43.2211" lon="5.50162">
        <ele>192.9</ele>
        <time>2025-10-19T07:57:23Z</time>
      </trkpt>
      <trkpt lat="43.2211" lon="5.50163">
        <ele>192.8</ele>
        <time>2025-10-19T07:57:24Z</time>
      </trkpt>
      <trkpt lat="43.22109" lon="5.50164">
        <ele>192.7</ele>
        <time>2025-10-19T07:57:25Z</time>
      </trkpt>
      <trkpt lat="43.22109" lon="5.50165">
        <ele>192.7</ele>
        <time>2025-10-19T07:57:26Z</time>
      </trkpt>
      <trkpt lat="43.22109" lon="5.50166">
        <ele>192.7</ele>
        <time>2025-10-19T07:57:27Z</time>
      </trkpt>
      <trkpt lat="43.22108" lon="5.50167">
        <ele>192.6</ele>
        <time>2025-10-19T07:57:28Z</time>
      </trkpt>
      <trkpt lat="43.22108" lon="5.50169">
        <ele>192.5</ele>
        <time>2025-10-19T07:57:29Z</time>
      </trkpt>
      <trkpt lat="43.22107" lon="5.5017">
        <ele>192.4</ele>
        <time>2025-10-19T07:57:30Z</time>
      </trkpt>
      <trkpt lat="43.22107" lon="5.50171">
        <ele>192.3</ele>
        <time>2025-10-19T07:57:31Z</time>
      </trkpt>
      <trkpt lat="43.22107" lon="5.50172">
        <ele>192.2</ele>
        <time>2025-10-19T07:57:32Z</time>
      </trkpt>
      <trkpt lat="43.22107" lon="5.50173">
        <ele>192</ele>
        <time>2025-10-19T07:57:33Z</time>
      </trkpt>
      <trkpt lat="43.22107" lon="5.50174">
        <ele>192</ele>
        <time>2025-10-19T07:57:34Z</time>
      </trkpt>
      <trkpt lat="43.22106" lon="5.50176">
        <ele>192</ele>
        <time>2025-10-19T07:57:35Z</time>
      </trkpt>
      <trkpt lat="43.22106" lon="5.50177">
        <ele>191.9</ele>
        <time>2025-10-19T07:57:36Z</time>
      </trkpt>
      <trkpt lat="43.22105" lon="5.50178">
        <ele>191.8</ele>
        <time>2025-10-19T07:57:37Z</time>
      </trkpt>
      <trkpt lat="43.22105" lon="5.5018">
        <ele>191.7</ele>
        <time>2025-10-19T07:57:38Z</time>
      </trkpt>
      <trkpt lat="43.22105" lon="5.50181">
        <ele>191.6</ele>
        <time>2025-10-19T07:57:39Z</time>
      </trkpt>
      <trkpt lat="43.22104" lon="5.50183">
        <ele>191.5</ele>
        <time>2025-10-19T07:57:40Z</time>
      </trkpt>
      <trkpt lat="43.22104" lon="5.50184">
        <ele>191.4</ele>
        <time>2025-10-19T07:57:41Z</time>
      </trkpt>
      <trkpt lat="43.22104" lon="5.50186">
        <ele>191.4</ele>
        <time>2025-10-19T07:57:42Z</time>
      </trkpt>
      <trkpt lat="43.22103" lon="5.50187">
        <ele>191.2</ele>
        <time>2025-10-19T07:57:43Z</time>
      </trkpt>
      <trkpt lat="43.22103" lon="5.50189">
        <ele>190.9</ele>
        <time>2025-10-19T07:57:44Z</time>
      </trkpt>
      <trkpt lat="43.22102" lon="5.5019">
        <ele>190.8</ele>
        <time>2025-10-19T07:57:45Z</time>
      </trkpt>
      <trkpt lat="43.22101" lon="5.50192">
        <ele>190.7</ele>
        <time>2025-10-19T07:57:46Z</time>
      </trkpt>
      <trkpt lat="43.221" lon="5.50193">
        <ele>190.6</ele>
        <time>2025-10-19T07:57:47Z</time>
      </trkpt>
      <trkpt lat="43.22099" lon="5.50194">
        <ele>190.6</ele>
        <time>2025-10-19T07:57:48Z</time>
      </trkpt>
      <trkpt lat="43.22099" lon="5.50196">
        <ele>190.6</ele>
        <time>2025-10-19T07:57:49Z</time>
      </trkpt>
      <trkpt lat="43.22098" lon="5.50197">
        <ele>190.6</ele>
        <time>2025-10-19T07:57:50Z</time>
      </trkpt>
      <trkpt lat="43.22098" lon="5.50198">
        <ele>190.6</ele>
        <time>2025-10-19T07:57:51Z</time>
      </trkpt>
      <trkpt lat="43.22098" lon="5.502">
        <ele>190.6</ele>
        <time>2025-10-19T07:57:52Z</time>
      </trkpt>
      <trkpt lat="43.22098" lon="5.50201">
        <ele>190.6</ele>
        <time>2025-10-19T07:57:53Z</time>
      </trkpt>
      <trkpt lat="43.22097" lon="5.50202">
        <ele>190.7</ele>
        <time>2025-10-19T07:57:54Z</time>
      </trkpt>
      <trkpt lat="43.22097" lon="5.50204">
        <ele>190.8</ele>
        <time>2025-10-19T07:57:55Z</time>
      </trkpt>
      <trkpt lat="43.22096" lon="5.50204">
        <ele>190.9</ele>
        <time>2025-10-19T07:57:56Z</time>
      </trkpt>
      <trkpt lat="43.22096" lon="5.50206">
        <ele>190.8</ele>
        <time>2025-10-19T07:57:57Z</time>
      </trkpt>
      <trkpt lat="43.22095" lon="5.50207">
        <ele>190.8</ele>
        <time>2025-10-19T07:57:58Z</time>
      </trkpt>
      <trkpt lat="43.22094" lon="5.50208">
        <ele>190.8</ele>
        <time>2025-10-19T07:57:59Z</time>
      </trkpt>
      <trkpt lat="43.22094" lon="5.5021">
        <ele>190.8</ele>
        <time>2025-10-19T07:58:00Z</time>
      </trkpt>
      <trkpt lat="43.22093" lon="5.50211">
        <ele>190.9</ele>
        <time>2025-10-19T07:58:01Z</time>
      </trkpt>
      <trkpt lat="43.22093" lon="5.50213">
        <ele>190.9</ele>
        <time>2025-10-19T07:58:02Z</time>
      </trkpt>
      <trkpt lat="43.22092" lon="5.50214">
        <ele>191</ele>
        <time>2025-10-19T07:58:03Z</time>
      </trkpt>
      <trkpt lat="43.22092" lon="5.50215">
        <ele>191.1</ele>
        <time>2025-10-19T07:58:04Z</time>
      </trkpt>
      <trkpt lat="43.22092" lon="5.50216">
        <ele>191.1</ele>
        <time>2025-10-19T07:58:05Z</time>
      </trkpt>
      <trkpt lat="43.22091" lon="5.50217">
        <ele>191.2</ele>
        <time>2025-10-19T07:58:06Z</time>
      </trkpt>
      <trkpt lat="43.2209" lon="5.50218">
        <ele>191.3</ele>
        <time>2025-10-19T07:58:07Z</time>
      </trkpt>
      <trkpt lat="43.2209" lon="5.50219">
        <ele>191.5</ele>
        <time>2025-10-19T07:58:08Z</time>
      </trkpt>
      <trkpt lat="43.22089" lon="5.50221">
        <ele>191.5</ele>
        <time>2025-10-19T07:58:09Z</time>
      </trkpt>
      <trkpt lat="43.22089" lon="5.50222">
        <ele>191.6</ele>
        <time>2025-10-19T07:58:10Z</time>
      </trkpt>
      <trkpt lat="43.22089" lon="5.50223">
        <ele>191.6</ele>
        <time>2025-10-19T07:58:11Z</time>
      </trkpt>
      <trkpt lat="43.22088" lon="5.50224">
        <ele>191.7</ele>
        <time>2025-10-19T07:58:12Z</time>
      </trkpt>
      <trkpt lat="43.22088" lon="5.50225">
        <ele>191.9</ele>
        <time>2025-10-19T07:58:13Z</time>
      </trkpt>
      <trkpt lat="43.22087" lon="5.50227">
        <ele>192</ele>
        <time>2025-10-19T07:58:14Z</time>
      </trkpt>
      <trkpt lat="43.22087" lon="5.50228">
        <ele>192</ele>
        <time>2025-10-19T07:58:15Z</time>
      </trkpt>
      <trkpt lat="43.22086" lon="5.5023">
        <ele>192.1</ele>
        <time>2025-10-19T07:58:16Z</time>
      </trkpt>
      <trkpt lat="43.22086" lon="5.50231">
        <ele>192.1</ele>
        <time>2025-10-19T07:58:17Z</time>
      </trkpt>
      <trkpt lat="43.22086" lon="5.50233">
        <ele>192.2</ele>
        <time>2025-10-19T07:58:18Z</time>
      </trkpt>
      <trkpt lat="43.22086" lon="5.50234">
        <ele>192.3</ele>
        <time>2025-10-19T07:58:19Z</time>
      </trkpt>
      <trkpt lat="43.22086" lon="5.50236">
        <ele>192.4</ele>
        <time>2025-10-19T07:58:20Z</time>
      </trkpt>
      <trkpt lat="43.22086" lon="5.50237">
        <ele>192.5</ele>
        <time>2025-10-19T07:58:21Z</time>
      </trkpt>
      <trkpt lat="43.22086" lon="5.50238">
        <ele>192.5</ele>
        <time>2025-10-19T07:58:22Z</time>
      </trkpt>
      <trkpt lat="43.22086" lon="5.5024">
        <ele>192.7</ele>
        <time>2025-10-19T07:58:23Z</time>
      </trkpt>
      <trkpt lat="43.22085" lon="5.50241">
        <ele>192.8</ele>
        <time>2025-10-19T07:58:24Z</time>
      </trkpt>
      <trkpt lat="43.22085" lon="5.50243">
        <ele>192.9</ele>
        <time>2025-10-19T07:58:25Z</time>
      </trkpt>
      <trkpt lat="43.22085" lon="5.50244">
        <ele>193</ele>
        <time>2025-10-19T07:58:26Z</time>
      </trkpt>
      <trkpt lat="43.22085" lon="5.50246">
        <ele>193.2</ele>
        <time>2025-10-19T07:58:27Z</time>
      </trkpt>
      <trkpt lat="43.22085" lon="5.50247">
        <ele>193.3</ele>
        <time>2025-10-19T07:58:28Z</time>
      </trkpt>
      <trkpt lat="43.22085" lon="5.50249">
        <ele>193.4</ele>
        <time>2025-10-19T07:58:29Z</time>
      </trkpt>
      <trkpt lat="43.22085" lon="5.50251">
        <ele>193.5</ele>
        <time>2025-10-19T07:58:30Z</time>
      </trkpt>
      <trkpt lat="43.22085" lon="5.50252">
        <ele>193.6</ele>
        <time>2025-10-19T07:58:31Z</time>
      </trkpt>
      <trkpt lat="43.22085" lon="5.50254">
        <ele>193.6</ele>
        <time>2025-10-19T07:58:32Z</time>
      </trkpt>
      <trkpt lat="43.22085" lon="5.50256">
        <ele>193.7</ele>
        <time>2025-10-19T07:58:33Z</time>
      </trkpt>
      <trkpt lat="43.22084" lon="5.50257">
        <ele>193.8</ele>
        <time>2025-10-19T07:58:34Z</time>
      </trkpt>
      <trkpt lat="43.22084" lon="5.50259">
        <ele>193.7</ele>
        <time>2025-10-19T07:58:35Z</time>
      </trkpt>
      <trkpt lat="43.22084" lon="5.50261">
        <ele>193.7</ele>
        <time>2025-10-19T07:58:36Z</time>
      </trkpt>
      <trkpt lat="43.22084" lon="5.50262">
        <ele>193.8</ele>
        <time>2025-10-19T07:58:37Z</time>
      </trkpt>
      <trkpt lat="43.22084" lon="5.50264">
        <ele>193.7</ele>
        <time>2025-10-19T07:58:38Z</time>
      </trkpt>
      <trkpt lat="43.22084" lon="5.50265">
        <ele>193.7</ele>
        <time>2025-10-19T07:58:39Z</time>
      </trkpt>
      <trkpt lat="43.22084" lon="5.50267">
        <ele>193.7</ele>
        <time>2025-10-19T07:58:40Z</time>
      </trkpt>
      <trkpt lat="43.22084" lon="5.50269">
        <ele>193.8</ele>
        <time>2025-10-19T07:58:41Z</time>
      </trkpt>
      <trkpt lat="43.22084" lon="5.5027">
        <ele>193.9</ele>
        <time>2025-10-19T07:58:42Z</time>
      </trkpt>
      <trkpt lat="43.22084" lon="5.50272">
        <ele>194</ele>
        <time>2025-10-19T07:58:43Z</time>
      </trkpt>
      <trkpt lat="43.22084" lon="5.50273">
        <ele>194.1</ele>
        <time>2025-10-19T07:58:44Z</time>
      </trkpt>
      <trkpt lat="43.22084" lon="5.50275">
        <ele>194.2</ele>
        <time>2025-10-19T07:58:45Z</time>
      </trkpt>
      <trkpt lat="43.22084" lon="5.50277">
        <ele>194.2</ele>
        <time>2025-10-19T07:58:46Z</time>
      </trkpt>
      <trkpt lat="43.22084" lon="5.50278">
        <ele>194.2</ele>
        <time>2025-10-19T07:58:47Z</time>
      </trkpt>
      <trkpt lat="43.22084" lon="5.50279">
        <ele>194.2</ele>
        <time>2025-10-19T07:58:48Z</time>
      </trkpt>
      <trkpt lat="43.22085" lon="5.50281">
        <ele>194.2</ele>
        <time>2025-10-19T07:58:49Z</time>
      </trkpt>
      <trkpt lat="43.22085" lon="5.50282">
        <ele>194.2</ele>
        <time>2025-10-19T07:58:50Z</time>
      </trkpt>
      <trkpt lat="43.22085" lon="5.50283">
        <ele>194.2</ele>
        <time>2025-10-19T07:58:51Z</time>
      </trkpt>
      <trkpt lat="43.22084" lon="5.50285">
        <ele>194.2</ele>
        <time>2025-10-19T07:58:52Z</time>
      </trkpt>
      <trkpt lat="43.22084" lon="5.50287">
        <ele>194.3</ele>
        <time>2025-10-19T07:58:53Z</time>
      </trkpt>
      <trkpt lat="43.22085" lon="5.50288">
        <ele>194.4</ele>
        <time>2025-10-19T07:58:54Z</time>
      </trkpt>
      <trkpt lat="43.22085" lon="5.50289">
        <ele>194.4</ele>
        <time>2025-10-19T07:58:55Z</time>
      </trkpt>
      <trkpt lat="43.22085" lon="5.50291">
        <ele>194.5</ele>
        <time>2025-10-19T07:58:56Z</time>
      </trkpt>
      <trkpt lat="43.22085" lon="5.50292">
        <ele>194.6</ele>
        <time>2025-10-19T07:58:57Z</time>
      </trkpt>
      <trkpt lat="43.22085" lon="5.50293">
        <ele>194.6</ele>
        <time>2025-10-19T07:58:58Z</time>
      </trkpt>
      <trkpt lat="43.22085" lon="5.50295">
        <ele>194.7</ele>
        <time>2025-10-19T07:58:59Z</time>
      </trkpt>
      <trkpt lat="43.22084" lon="5.50297">
        <ele>194.7</ele>
        <time>2025-10-19T07:59:00Z</time>
      </trkpt>
      <trkpt lat="43.22084" lon="5.50298">
        <ele>194.7</ele>
        <time>2025-10-19T07:59:01Z</time>
      </trkpt>
      <trkpt lat="43.22084" lon="5.503">
        <ele>194.6</ele>
        <time>2025-10-19T07:59:02Z</time>
      </trkpt>
      <trkpt lat="43.22083" lon="5.50301">
        <ele>194.6</ele>
        <time>2025-10-19T07:59:03Z</time>
      </trkpt>
      <trkpt lat="43.22083" lon="5.50302">
        <ele>194.6</ele>
        <time>2025-10-19T07:59:04Z</time>
      </trkpt>
      <trkpt lat="43.22083" lon="5.50304">
        <ele>194.6</ele>
        <time>2025-10-19T07:59:05Z</time>
      </trkpt>
      <trkpt lat="43.22082" lon="5.50305">
        <ele>194.6</ele>
        <time>2025-10-19T07:59:06Z</time>
      </trkpt>
      <trkpt lat="43.22082" lon="5.50306">
        <ele>194.5</ele>
        <time>2025-10-19T07:59:07Z</time>
      </trkpt>
      <trkpt lat="43.22081" lon="5.50307">
        <ele>194.5</ele>
        <time>2025-10-19T07:59:08Z</time>
      </trkpt>
      <trkpt lat="43.2208" lon="5.50309">
        <ele>194.5</ele>
        <time>2025-10-19T07:59:09Z</time>
      </trkpt>
      <trkpt lat="43.22079" lon="5.5031">
        <ele>194.5</ele>
        <time>2025-10-19T07:59:10Z</time>
      </trkpt>
      <trkpt lat="43.22079" lon="5.50311">
        <ele>194.3</ele>
        <time>2025-10-19T07:59:11Z</time>
      </trkpt>
      <trkpt lat="43.22078" lon="5.50312">
        <ele>194.1</ele>
        <time>2025-10-19T07:59:12Z</time>
      </trkpt>
      <trkpt lat="43.22077" lon="5.50313">
        <ele>194</ele>
        <time>2025-10-19T07:59:13Z</time>
      </trkpt>
      <trkpt lat="43.22077" lon="5.50314">
        <ele>194</ele>
        <time>2025-10-19T07:59:14Z</time>
      </trkpt>
      <trkpt lat="43.22076" lon="5.50315">
        <ele>193.9</ele>
        <time>2025-10-19T07:59:15Z</time>
      </trkpt>
      <trkpt lat="43.22075" lon="5.50316">
        <ele>193.8</ele>
        <time>2025-10-19T07:59:16Z</time>
      </trkpt>
      <trkpt lat="43.22075" lon="5.50317">
        <ele>193.8</ele>
        <time>2025-10-19T07:59:17Z</time>
      </trkpt>
      <trkpt lat="43.22074" lon="5.50318">
        <ele>193.7</ele>
        <time>2025-10-19T07:59:18Z</time>
      </trkpt>
      <trkpt lat="43.22073" lon="5.5032">
        <ele>193.7</ele>
        <time>2025-10-19T07:59:19Z</time>
      </trkpt>
      <trkpt lat="43.22072" lon="5.50321">
        <ele>193.7</ele>
        <time>2025-10-19T07:59:20Z</time>
      </trkpt>
      <trkpt lat="43.22071" lon="5.50322">
        <ele>193.7</ele>
        <time>2025-10-19T07:59:21Z</time>
      </trkpt>
      <trkpt lat="43.22071" lon="5.50323">
        <ele>193.6</ele>
        <time>2025-10-19T07:59:22Z</time>
      </trkpt>
      <trkpt lat="43.2207" lon="5.50324">
        <ele>193.6</ele>
        <time>2025-10-19T07:59:23Z</time>
      </trkpt>
      <trkpt lat="43.22069" lon="5.50325">
        <ele>193.6</ele>
        <time>2025-10-19T07:59:24Z</time>
      </trkpt>
      <trkpt lat="43.22068" lon="5.50327">
        <ele>193.5</ele>
        <time>2025-10-19T07:59:25Z</time>
      </trkpt>
      <trkpt lat="43.22068" lon="5.50328">
        <ele>193.5</ele>
        <time>2025-10-19T07:59:26Z</time>
      </trkpt>
      <trkpt lat="43.22067" lon="5.50329">
        <ele>193.4</ele>
        <time>2025-10-19T07:59:27Z</time>
      </trkpt>
      <trkpt lat="43.22066" lon="5.5033">
        <ele>193.4</ele>
        <time>2025-10-19T07:59:28Z</time>
      </trkpt>
      <trkpt lat="43.22065" lon="5.50331">
        <ele>193.3</ele>
        <time>2025-10-19T07:59:29Z</time>
      </trkpt>
      <trkpt lat="43.22064" lon="5.50332">
        <ele>193.3</ele>
        <time>2025-10-19T07:59:30Z</time>
      </trkpt>
      <trkpt lat="43.22064" lon="5.50334">
        <ele>193.2</ele>
        <time>2025-10-19T07:59:31Z</time>
      </trkpt>
      <trkpt lat="43.22063" lon="5.50335">
        <ele>193.1</ele>
        <time>2025-10-19T07:59:32Z</time>
      </trkpt>
      <trkpt lat="43.22062" lon="5.50336">
        <ele>193</ele>
        <time>2025-10-19T07:59:33Z</time>
      </trkpt>
      <trkpt lat="43.22062" lon="5.50338">
        <ele>192.9</ele>
        <time>2025-10-19T07:59:34Z</time>
      </trkpt>
      <trkpt lat="43.22061" lon="5.50339">
        <ele>192.8</ele>
        <time>2025-10-19T07:59:35Z</time>
      </trkpt>
      <trkpt lat="43.2206" lon="5.5034">
        <ele>192.9</ele>
        <time>2025-10-19T07:59:36Z</time>
      </trkpt>
      <trkpt lat="43.2206" lon="5.50341">
        <ele>192.8</ele>
        <time>2025-10-19T07:59:37Z</time>
      </trkpt>
      <trkpt lat="43.22059" lon="5.50342">
        <ele>192.8</ele>
        <time>2025-10-19T07:59:38Z</time>
      </trkpt>
      <trkpt lat="43.22058" lon="5.50344">
        <ele>192.7</ele>
        <time>2025-10-19T07:59:39Z</time>
      </trkpt>
      <trkpt lat="43.22057" lon="5.50345">
        <ele>192.6</ele>
        <time>2025-10-19T07:59:40Z</time>
      </trkpt>
      <trkpt lat="43.22057" lon="5.50346">
        <ele>192.6</ele>
        <time>2025-10-19T07:59:41Z</time>
      </trkpt>
      <trkpt lat="43.22056" lon="5.50347">
        <ele>192.6</ele>
        <time>2025-10-19T07:59:42Z</time>
      </trkpt>
      <trkpt lat="43.22056" lon="5.50348">
        <ele>192.5</ele>
        <time>2025-10-19T07:59:43Z</time>
      </trkpt>
      <trkpt lat="43.22055" lon="5.50349">
        <ele>192.5</ele>
        <time>2025-10-19T07:59:44Z</time>
      </trkpt>
      <trkpt lat="43.22054" lon="5.5035">
        <ele>192.5</ele>
        <time>2025-10-19T07:59:45Z</time>
      </trkpt>
      <trkpt lat="43.22053" lon="5.50351">
        <ele>192.5</ele>
        <time>2025-10-19T07:59:46Z</time>
      </trkpt>
      <trkpt lat="43.22052" lon="5.50352">
        <ele>192.4</ele>
        <time>2025-10-19T07:59:47Z</time>
      </trkpt>
      <trkpt lat="43.22051" lon="5.50353">
        <ele>192.4</ele>
        <time>2025-10-19T07:59:48Z</time>
      </trkpt>
      <trkpt lat="43.22051" lon="5.50354">
        <ele>192.3</ele>
        <time>2025-10-19T07:59:49Z</time>
      </trkpt>
      <trkpt lat="43.2205" lon="5.50356">
        <ele>192.3</ele>
        <time>2025-10-19T07:59:50Z</time>
      </trkpt>
      <trkpt lat="43.22049" lon="5.50357">
        <ele>192.2</ele>
        <time>2025-10-19T07:59:51Z</time>
      </trkpt>
      <trkpt lat="43.22049" lon="5.50358">
        <ele>192.2</ele>
        <time>2025-10-19T07:59:52Z</time>
      </trkpt>
      <trkpt lat="43.22048" lon="5.50359">
        <ele>192.2</ele>
        <time>2025-10-19T07:59:53Z</time>
      </trkpt>
      <trkpt lat="43.22047" lon="5.5036">
        <ele>192.1</ele>
        <time>2025-10-19T07:59:54Z</time>
      </trkpt>
      <trkpt lat="43.22046" lon="5.50362">
        <ele>192</ele>
        <time>2025-10-19T07:59:55Z</time>
      </trkpt>
      <trkpt lat="43.22045" lon="5.50363">
        <ele>191.9</ele>
        <time>2025-10-19T07:59:56Z</time>
      </trkpt>
      <trkpt lat="43.22044" lon="5.50364">
        <ele>191.8</ele>
        <time>2025-10-19T07:59:57Z</time>
      </trkpt>
      <trkpt lat="43.22044" lon="5.50365">
        <ele>191.7</ele>
        <time>2025-10-19T07:59:58Z</time>
      </trkpt>
      <trkpt lat="43.22043" lon="5.50366">
        <ele>191.6</ele>
        <time>2025-10-19T07:59:59Z</time>
      </trkpt>
      <trkpt lat="43.22042" lon="5.50367">
        <ele>191.6</ele>
        <time>2025-10-19T08:00:00Z</time>
      </trkpt>
      <trkpt lat="43.22042" lon="5.50368">
        <ele>191.5</ele>
        <time>2025-10-19T08:00:01Z</time>
      </trkpt>
      <trkpt lat="43.22041" lon="5.50369">
        <ele>191.3</ele>
        <time>2025-10-19T08:00:02Z</time>
      </trkpt>
      <trkpt lat="43.2204" lon="5.5037">
        <ele>191.2</ele>
        <time>2025-10-19T08:00:03Z</time>
      </trkpt>
      <trkpt lat="43.2204" lon="5.50371">
        <ele>191.1</ele>
        <time>2025-10-19T08:00:04Z</time>
      </trkpt>
      <trkpt lat="43.22039" lon="5.50372">
        <ele>191</ele>
        <time>2025-10-19T08:00:05Z</time>
      </trkpt>
      <trkpt lat="43.22038" lon="5.50373">
        <ele>190.7</ele>
        <time>2025-10-19T08:00:06Z</time>
      </trkpt>
      <trkpt lat="43.22037" lon="5.50374">
        <ele>190.6</ele>
        <time>2025-10-19T08:00:07Z</time>
      </trkpt>
      <trkpt lat="43.22037" lon="5.50375">
        <ele>190.5</ele>
        <time>2025-10-19T08:00:08Z</time>
      </trkpt>
      <trkpt lat="43.22036" lon="5.50376">
        <ele>190.4</ele>
        <time>2025-10-19T08:00:09Z</time>
      </trkpt>
      <trkpt lat="43.22035" lon="5.50377">
        <ele>190.3</ele>
        <time>2025-10-19T08:00:10Z</time>
      </trkpt>
      <trkpt lat="43.22035" lon="5.50378">
        <ele>190.2</ele>
        <time>2025-10-19T08:00:11Z</time>
      </trkpt>
      <trkpt lat="43.22034" lon="5.50379">
        <ele>190.2</ele>
        <time>2025-10-19T08:00:12Z</time>
      </trkpt>
      <trkpt lat="43.22033" lon="5.5038">
        <ele>190.1</ele>
        <time>2025-10-19T08:00:13Z</time>
      </trkpt>
      <trkpt lat="43.22032" lon="5.50381">
        <ele>190.1</ele>
        <time>2025-10-19T08:00:14Z</time>
      </trkpt>
      <trkpt lat="43.22031" lon="5.50382">
        <ele>190</ele>
        <time>2025-10-19T08:00:15Z</time>
      </trkpt>
      <trkpt lat="43.2203" lon="5.50383">
        <ele>189.9</ele>
        <time>2025-10-19T08:00:16Z</time>
      </trkpt>
      <trkpt lat="43.22029" lon="5.50384">
        <ele>189.7</ele>
        <time>2025-10-19T08:00:17Z</time>
      </trkpt>
      <trkpt lat="43.22028" lon="5.50384">
        <ele>189.6</ele>
        <time>2025-10-19T08:00:18Z</time>
      </trkpt>
      <trkpt lat="43.22028" lon="5.50385">
        <ele>189.4</ele>
        <time>2025-10-19T08:00:19Z</time>
      </trkpt>
      <trkpt lat="43.22027" lon="5.50387">
        <ele>189.3</ele>
        <time>2025-10-19T08:00:20Z</time>
      </trkpt>
      <trkpt lat="43.22026" lon="5.50388">
        <ele>189.2</ele>
        <time>2025-10-19T08:00:21Z</time>
      </trkpt>
      <trkpt lat="43.22026" lon="5.50388">
        <ele>188.9</ele>
        <time>2025-10-19T08:00:22Z</time>
      </trkpt>
      <trkpt lat="43.22025" lon="5.50389">
        <ele>188.8</ele>
        <time>2025-10-19T08:00:23Z</time>
      </trkpt>
      <trkpt lat="43.22024" lon="5.50389">
        <ele>188.7</ele>
        <time>2025-10-19T08:00:24Z</time>
      </trkpt>
      <trkpt lat="43.22023" lon="5.5039">
        <ele>188.7</ele>
        <time>2025-10-19T08:00:25Z</time>
      </trkpt>
      <trkpt lat="43.22022" lon="5.50391">
        <ele>188.7</ele>
        <time>2025-10-19T08:00:26Z</time>
      </trkpt>
      <trkpt lat="43.22021" lon="5.50392">
        <ele>188.5</ele>
        <time>2025-10-19T08:00:27Z</time>
      </trkpt>
      <trkpt lat="43.2202" lon="5.50393">
        <ele>188.4</ele>
        <time>2025-10-19T08:00:28Z</time>
      </trkpt>
      <trkpt lat="43.22019" lon="5.50394">
        <ele>188.3</ele>
        <time>2025-10-19T08:00:29Z</time>
      </trkpt>
      <trkpt lat="43.22019" lon="5.50395">
        <ele>188.2</ele>
        <time>2025-10-19T08:00:30Z</time>
      </trkpt>
      <trkpt lat="43.22018" lon="5.50396">
        <ele>188</ele>
        <time>2025-10-19T08:00:31Z</time>
      </trkpt>
      <trkpt lat="43.22017" lon="5.50397">
        <ele>187.9</ele>
        <time>2025-10-19T08:00:32Z</time>
      </trkpt>
      <trkpt lat="43.22016" lon="5.50398">
        <ele>187.8</ele>
        <time>2025-10-19T08:00:33Z</time>
      </trkpt>
      <trkpt lat="43.22016" lon="5.50399">
        <ele>187.7</ele>
        <time>2025-10-19T08:00:34Z</time>
      </trkpt>
      <trkpt lat="43.22015" lon="5.504">
        <ele>187.6</ele>
        <time>2025-10-19T08:00:35Z</time>
      </trkpt>
      <trkpt lat="43.22014" lon="5.50401">
        <ele>187.4</ele>
        <time>2025-10-19T08:00:36Z</time>
      </trkpt>
      <trkpt lat="43.22014" lon="5.50402">
        <ele>187.3</ele>
        <time>2025-10-19T08:00:37Z</time>
      </trkpt>
      <trkpt lat="43.22013" lon="5.50403">
        <ele>187.2</ele>
        <time>2025-10-19T08:00:38Z</time>
      </trkpt>
      <trkpt lat="43.22013" lon="5.50405">
        <ele>187.1</ele>
        <time>2025-10-19T08:00:39Z</time>
      </trkpt>
      <trkpt lat="43.22012" lon="5.50406">
        <ele>186.8</ele>
        <time>2025-10-19T08:00:40Z</time>
      </trkpt>
      <trkpt lat="43.22011" lon="5.50407">
        <ele>186.7</ele>
        <time>2025-10-19T08:00:41Z</time>
      </trkpt>
      <trkpt lat="43.2201" lon="5.50408">
        <ele>186.5</ele>
        <time>2025-10-19T08:00:42Z</time>
      </trkpt>
      <trkpt lat="43.2201" lon="5.50409">
        <ele>186.6</ele>
        <time>2025-10-19T08:00:43Z</time>
      </trkpt>
      <trkpt lat="43.22009" lon="5.5041">
        <ele>186.6</ele>
        <time>2025-10-19T08:00:44Z</time>
      </trkpt>
      <trkpt lat="43.22009" lon="5.50411">
        <ele>186.7</ele>
        <time>2025-10-19T08:00:45Z</time>
      </trkpt>
      <trkpt lat="43.22009" lon="5.50412">
        <ele>186.7</ele>
        <time>2025-10-19T08:00:46Z</time>
      </trkpt>
      <trkpt lat="43.2201" lon="5.50413">
        <ele>186.6</ele>
        <time>2025-10-19T08:00:47Z</time>
      </trkpt>
      <trkpt lat="43.2201" lon="5.50414">
        <ele>186.7</ele>
        <time>2025-10-19T08:00:48Z</time>
      </trkpt>
      <trkpt lat="43.22011" lon="5.50414">
        <ele>186.6</ele>
        <time>2025-10-19T08:00:49Z</time>
      </trkpt>
      <trkpt lat="43.22012" lon="5.50415">
        <ele>186.5</ele>
        <time>2025-10-19T08:00:50Z</time>
      </trkpt>
      <trkpt lat="43.22012" lon="5.50416">
        <ele>186.4</ele>
        <time>2025-10-19T08:00:51Z</time>
      </trkpt>
      <trkpt lat="43.22013" lon="5.50417">
        <ele>186.3</ele>
        <time>2025-10-19T08:00:52Z</time>
      </trkpt>
      <trkpt lat="43.22013" lon="5.50418">
        <ele>186.2</ele>
        <time>2025-10-19T08:00:53Z</time>
      </trkpt>
      <trkpt lat="43.22014" lon="5.50419">
        <ele>186.1</ele>
        <time>2025-10-19T08:00:54Z</time>
      </trkpt>
      <trkpt lat="43.22015" lon="5.5042">
        <ele>186.1</ele>
        <time>2025-10-19T08:00:55Z</time>
      </trkpt>
      <trkpt lat="43.22016" lon="5.5042">
        <ele>185.9</ele>
        <time>2025-10-19T08:00:56Z</time>
      </trkpt>
      <trkpt lat="43.22016" lon="5.5042">
        <ele>185.8</ele>
        <time>2025-10-19T08:00:57Z</time>
      </trkpt>
      <trkpt lat="43.22017" lon="5.50421">
        <ele>185.7</ele>
        <time>2025-10-19T08:00:58Z</time>
      </trkpt>
      <trkpt lat="43.22017" lon="5.50421">
        <ele>185.6</ele>
        <time>2025-10-19T08:00:59Z</time>
      </trkpt>
      <trkpt lat="43.22018" lon="5.50422">
        <ele>185.5</ele>
        <time>2025-10-19T08:01:00Z</time>
      </trkpt>
      <trkpt lat="43.22019" lon="5.50423">
        <ele>185.4</ele>
        <time>2025-10-19T08:01:01Z</time>
      </trkpt>
      <trkpt lat="43.22019" lon="5.50423">
        <ele>185.2</ele>
        <time>2025-10-19T08:01:02Z</time>
      </trkpt>
      <trkpt lat="43.2202" lon="5.50424">
        <ele>185.1</ele>
        <time>2025-10-19T08:01:03Z</time>
      </trkpt>
      <trkpt lat="43.22021" lon="5.50424">
        <ele>185.1</ele>
        <time>2025-10-19T08:01:04Z</time>
      </trkpt>
      <trkpt lat="43.22022" lon="5.50425">
        <ele>185</ele>
        <time>2025-10-19T08:01:05Z</time>
      </trkpt>
      <trkpt lat="43.22022" lon="5.50425">
        <ele>184.7</ele>
        <time>2025-10-19T08:01:06Z</time>
      </trkpt>
      <trkpt lat="43.22023" lon="5.50426">
        <ele>184.6</ele>
        <time>2025-10-19T08:01:07Z</time>
      </trkpt>
      <trkpt lat="43.22024" lon="5.50426">
        <ele>184.4</ele>
        <time>2025-10-19T08:01:08Z</time>
      </trkpt>
      <trkpt lat="43.22024" lon="5.50427">
        <ele>184.3</ele>
        <time>2025-10-19T08:01:09Z</time>
      </trkpt>
      <trkpt lat="43.22025" lon="5.50428">
        <ele>184.3</ele>
        <time>2025-10-19T08:01:10Z</time>
      </trkpt>
      <trkpt lat="43.22026" lon="5.50428">
        <ele>184.1</ele>
        <time>2025-10-19T08:01:11Z</time>
      </trkpt>
      <trkpt lat="43.22027" lon="5.50428">
        <ele>184</ele>
        <time>2025-10-19T08:01:12Z</time>
      </trkpt>
      <trkpt lat="43.22027" lon="5.50429">
        <ele>183.9</ele>
        <time>2025-10-19T08:01:13Z</time>
      </trkpt>
      <trkpt lat="43.22028" lon="5.50429">
        <ele>183.8</ele>
        <time>2025-10-19T08:01:14Z</time>
      </trkpt>
      <trkpt lat="43.22029" lon="5.5043">
        <ele>183.5</ele>
        <time>2025-10-19T08:01:15Z</time>
      </trkpt>
      <trkpt lat="43.2203" lon="5.5043">
        <ele>183.5</ele>
        <time>2025-10-19T08:01:16Z</time>
      </trkpt>
      <trkpt lat="43.22031" lon="5.5043">
        <ele>183.4</ele>
        <time>2025-10-19T08:01:17Z</time>
      </trkpt>
      <trkpt lat="43.22032" lon="5.50431">
        <ele>183.4</ele>
        <time>2025-10-19T08:01:18Z</time>
      </trkpt>
      <trkpt lat="43.22033" lon="5.50431">
        <ele>183.3</ele>
        <time>2025-10-19T08:01:19Z</time>
      </trkpt>
      <trkpt lat="43.22034" lon="5.50431">
        <ele>183.3</ele>
        <time>2025-10-19T08:01:20Z</time>
      </trkpt>
      <trkpt lat="43.22035" lon="5.50432">
        <ele>183.2</ele>
        <time>2025-10-19T08:01:21Z</time>
      </trkpt>
      <trkpt lat="43.22036" lon="5.50432">
        <ele>183.2</ele>
        <time>2025-10-19T08:01:22Z</time>
      </trkpt>
      <trkpt lat="43.22037" lon="5.50432">
        <ele>183.1</ele>
        <time>2025-10-19T08:01:23Z</time>
      </trkpt>
      <trkpt lat="43.22038" lon="5.50433">
        <ele>182.9</ele>
        <time>2025-10-19T08:01:24Z</time>
      </trkpt>
      <trkpt lat="43.22039" lon="5.50433">
        <ele>182.7</ele>
        <time>2025-10-19T08:01:25Z</time>
      </trkpt>
      <trkpt lat="43.2204" lon="5.50433">
        <ele>182.5</ele>
        <time>2025-10-19T08:01:26Z</time>
      </trkpt>
      <trkpt lat="43.22041" lon="5.50433">
        <ele>182.4</ele>
        <time>2025-10-19T08:01:27Z</time>
      </trkpt>
      <trkpt lat="43.22042" lon="5.50434">
        <ele>182.2</ele>
        <time>2025-10-19T08:01:28Z</time>
      </trkpt>
      <trkpt lat="43.22042" lon="5.50435">
        <ele>182.1</ele>
        <time>2025-10-19T08:01:29Z</time>
      </trkpt>
      <trkpt lat="43.22043" lon="5.50435">
        <ele>182</ele>
        <time>2025-10-19T08:01:30Z</time>
      </trkpt>
      <trkpt lat="43.22044" lon="5.50436">
        <ele>181.9</ele>
        <time>2025-10-19T08:01:31Z</time>
      </trkpt>
      <trkpt lat="43.22045" lon="5.50436">
        <ele>181.8</ele>
        <time>2025-10-19T08:01:32Z</time>
      </trkpt>
      <trkpt lat="43.22046" lon="5.50436">
        <ele>181.8</ele>
        <time>2025-10-19T08:01:33Z</time>
      </trkpt>
      <trkpt lat="43.22047" lon="5.50437">
        <ele>181.8</ele>
        <time>2025-10-19T08:01:34Z</time>
      </trkpt>
      <trkpt lat="43.22049" lon="5.50437">
        <ele>181.8</ele>
        <time>2025-10-19T08:01:35Z</time>
      </trkpt>
      <trkpt lat="43.22049" lon="5.50438">
        <ele>181.6</ele>
        <time>2025-10-19T08:01:36Z</time>
      </trkpt>
      <trkpt lat="43.2205" lon="5.50439">
        <ele>181.5</ele>
        <time>2025-10-19T08:01:37Z</time>
      </trkpt>
      <trkpt lat="43.22051" lon="5.50439">
        <ele>181.4</ele>
        <time>2025-10-19T08:01:38Z</time>
      </trkpt>
      <trkpt lat="43.22052" lon="5.5044">
        <ele>181.4</ele>
        <time>2025-10-19T08:01:39Z</time>
      </trkpt>
      <trkpt lat="43.22053" lon="5.5044">
        <ele>181.3</ele>
        <time>2025-10-19T08:01:40Z</time>
      </trkpt>
      <trkpt lat="43.22054" lon="5.50441">
        <ele>181.3</ele>
        <time>2025-10-19T08:01:41Z</time>
      </trkpt>
      <trkpt lat="43.22055" lon="5.50442">
        <ele>181.2</ele>
        <time>2025-10-19T08:01:42Z</time>
      </trkpt>
      <trkpt lat="43.22056" lon="5.50443">
        <ele>181.2</ele>
        <time>2025-10-19T08:01:43Z</time>
      </trkpt>
      <trkpt lat="43.22056" lon="5.50443">
        <ele>181.2</ele>
        <time>2025-10-19T08:01:44Z</time>
      </trkpt>
      <trkpt lat="43.22057" lon="5.50444">
        <ele>181.2</ele>
        <time>2025-10-19T08:01:45Z</time>
      </trkpt>
      <trkpt lat="43.22058" lon="5.50444">
        <ele>181.1</ele>
        <time>2025-10-19T08:01:46Z</time>
      </trkpt>
      <trkpt lat="43.22059" lon="5.50445">
        <ele>181</ele>
        <time>2025-10-19T08:01:47Z</time>
      </trkpt>
      <trkpt lat="43.22061" lon="5.50444">
        <ele>181</ele>
        <time>2025-10-19T08:01:48Z</time>
      </trkpt>
      <trkpt lat="43.22062" lon="5.50445">
        <ele>180.7</ele>
        <time>2025-10-19T08:01:49Z</time>
      </trkpt>
      <trkpt lat="43.22063" lon="5.50445">
        <ele>180.5</ele>
        <time>2025-10-19T08:01:50Z</time>
      </trkpt>
      <trkpt lat="43.22064" lon="5.50445">
        <ele>180.4</ele>
        <time>2025-10-19T08:01:51Z</time>
      </trkpt>
      <trkpt lat="43.22064" lon="5.50446">
        <ele>180.3</ele>
        <time>2025-10-19T08:01:52Z</time>
      </trkpt>
      <trkpt lat="43.22065" lon="5.50446">
        <ele>180.2</ele>
        <time>2025-10-19T08:01:53Z</time>
      </trkpt>
      <trkpt lat="43.22066" lon="5.50447">
        <ele>180.1</ele>
        <time>2025-10-19T08:01:54Z</time>
      </trkpt>
      <trkpt lat="43.22067" lon="5.50448">
        <ele>180</ele>
        <time>2025-10-19T08:01:55Z</time>
      </trkpt>
      <trkpt lat="43.22067" lon="5.50449">
        <ele>180</ele>
        <time>2025-10-19T08:01:56Z</time>
      </trkpt>
      <trkpt lat="43.22068" lon="5.50449">
        <ele>179.9</ele>
        <time>2025-10-19T08:01:57Z</time>
      </trkpt>
      <trkpt lat="43.22068" lon="5.5045">
        <ele>179.9</ele>
        <time>2025-10-19T08:01:58Z</time>
      </trkpt>
      <trkpt lat="43.22068" lon="5.5045">
        <ele>179.8</ele>
        <time>2025-10-19T08:01:59Z</time>
      </trkpt>
      <trkpt lat="43.22069" lon="5.50451">
        <ele>179.7</ele>
        <time>2025-10-19T08:02:00Z</time>
      </trkpt>
      <trkpt lat="43.22069" lon="5.50452">
        <ele>179.5</ele>
        <time>2025-10-19T08:02:01Z</time>
      </trkpt>
      <trkpt lat="43.22069" lon="5.50452">
        <ele>179.3</ele>
        <time>2025-10-19T08:02:02Z</time>
      </trkpt>
      <trkpt lat="43.22069" lon="5.50452">
        <ele>179</ele>
        <time>2025-10-19T08:02:03Z</time>
      </trkpt>
      <trkpt lat="43.22069" lon="5.50453">
        <ele>178.9</ele>
        <time>2025-10-19T08:02:04Z</time>
      </trkpt>
      <trkpt lat="43.22068" lon="5.50453">
        <ele>178.8</ele>
        <time>2025-10-19T08:02:05Z</time>
      </trkpt>
      <trkpt lat="43.22068" lon="5.50453">
        <ele>178.8</ele>
        <time>2025-10-19T08:02:06Z</time>
      </trkpt>
      <trkpt lat="43.22067" lon="5.50454">
        <ele>178.7</ele>
        <time>2025-10-19T08:02:07Z</time>
      </trkpt>
      <trkpt lat="43.22067" lon="5.50454">
        <ele>178.6</ele>
        <time>2025-10-19T08:02:08Z</time>
      </trkpt>
      <trkpt lat="43.22066" lon="5.50455">
        <ele>178.5</ele>
        <time>2025-10-19T08:02:09Z</time>
      </trkpt>
      <trkpt lat="43.22066" lon="5.50455">
        <ele>178.4</ele>
        <time>2025-10-19T08:02:10Z</time>
      </trkpt>
      <trkpt lat="43.22065" lon="5.50455">
        <ele>178.5</ele>
        <time>2025-10-19T08:02:11Z</time>
      </trkpt>
      <trkpt lat="43.22064" lon="5.50454">
        <ele>178.3</ele>
        <time>2025-10-19T08:02:12Z</time>
      </trkpt>
      <trkpt lat="43.22063" lon="5.50454">
        <ele>178</ele>
        <time>2025-10-19T08:02:13Z</time>
      </trkpt>
      <trkpt lat="43.22063" lon="5.50455">
        <ele>178</ele>
        <time>2025-10-19T08:02:14Z</time>
      </trkpt>
      <trkpt lat="43.22062" lon="5.50455">
        <ele>177.9</ele>
        <time>2025-10-19T08:02:15Z</time>
      </trkpt>
      <trkpt lat="43.22061" lon="5.50455">
        <ele>177.8</ele>
        <time>2025-10-19T08:02:16Z</time>
      </trkpt>
      <trkpt lat="43.2206" lon="5.50455">
        <ele>177.7</ele>
        <time>2025-10-19T08:02:17Z</time>
      </trkpt>
      <trkpt lat="43.2206" lon="5.50455">
        <ele>177.5</ele>
        <time>2025-10-19T08:02:18Z</time>
      </trkpt>
      <trkpt lat="43.22059" lon="5.50455">
        <ele>177.5</ele>
        <time>2025-10-19T08:02:19Z</time>
      </trkpt>
      <trkpt lat="43.22059" lon="5.50455">
        <ele>177.6</ele>
        <time>2025-10-19T08:02:20Z</time>
      </trkpt>
      <trkpt lat="43.22058" lon="5.50456">
        <ele>177.5</ele>
        <time>2025-10-19T08:02:21Z</time>
      </trkpt>
      <trkpt lat="43.22057" lon="5.50456">
        <ele>177.4</ele>
        <time>2025-10-19T08:02:22Z</time>
      </trkpt>
      <trkpt lat="43.22056" lon="5.50456">
        <ele>177.3</ele>
        <time>2025-10-19T08:02:23Z</time>
      </trkpt>
      <trkpt lat="43.22055" lon="5.50456">
        <ele>177.2</ele>
        <time>2025-10-19T08:02:24Z</time>
      </trkpt>
      <trkpt lat="43.22054" lon="5.50455">
        <ele>177</ele>
        <time>2025-10-19T08:02:25Z</time>
      </trkpt>
      <trkpt lat="43.22053" lon="5.50455">
        <ele>176.8</ele>
        <time>2025-10-19T08:02:26Z</time>
      </trkpt>
      <trkpt lat="43.22052" lon="5.50455">
        <ele>176.6</ele>
        <time>2025-10-19T08:02:27Z</time>
      </trkpt>
      <trkpt lat="43.22051" lon="5.50454">
        <ele>176.4</ele>
        <time>2025-10-19T08:02:28Z</time>
      </trkpt>
      <trkpt lat="43.2205" lon="5.50454">
        <ele>176.5</ele>
        <time>2025-10-19T08:02:29Z</time>
      </trkpt>
      <trkpt lat="43.22049" lon="5.50455">
        <ele>176.4</ele>
        <time>2025-10-19T08:02:30Z</time>
      </trkpt>
      <trkpt lat="43.22049" lon="5.50454">
        <ele>176.4</ele>
        <time>2025-10-19T08:02:31Z</time>
      </trkpt>
      <trkpt lat="43.22048" lon="5.50454">
        <ele>176.3</ele>
        <time>2025-10-19T08:02:32Z</time>
      </trkpt>
      <trkpt lat="43.22047" lon="5.50454">
        <ele>176.2</ele>
        <time>2025-10-19T08:02:33Z</time>
      </trkpt>
      <trkpt lat="43.22046" lon="5.50454">
        <ele>176.2</ele>
        <time>2025-10-19T08:02:34Z</time>
      </trkpt>
      <trkpt lat="43.22045" lon="5.50455">
        <ele>176.2</ele>
        <time>2025-10-19T08:02:35Z</time>
      </trkpt>
      <trkpt lat="43.22044" lon="5.50455">
        <ele>176.2</ele>
        <time>2025-10-19T08:02:36Z</time>
      </trkpt>
      <trkpt lat="43.22043" lon="5.50455">
        <ele>176.2</ele>
        <time>2025-10-19T08:02:37Z</time>
      </trkpt>
      <trkpt lat="43.22043" lon="5.50455">
        <ele>176.2</ele>
        <time>2025-10-19T08:02:38Z</time>
      </trkpt>
      <trkpt lat="43.22042" lon="5.50455">
        <ele>175.9</ele>
        <time>2025-10-19T08:02:39Z</time>
      </trkpt>
      <trkpt lat="43.22041" lon="5.50456">
        <ele>175.8</ele>
        <time>2025-10-19T08:02:40Z</time>
      </trkpt>
      <trkpt lat="43.2204" lon="5.50456">
        <ele>175.7</ele>
        <time>2025-10-19T08:02:41Z</time>
      </trkpt>
      <trkpt lat="43.2204" lon="5.50456">
        <ele>175.6</ele>
        <time>2025-10-19T08:02:42Z</time>
      </trkpt>
      <trkpt lat="43.22039" lon="5.50457">
        <ele>175.4</ele>
        <time>2025-10-19T08:02:43Z</time>
      </trkpt>
      <trkpt lat="43.22038" lon="5.50457">
        <ele>175.4</ele>
        <time>2025-10-19T08:02:44Z</time>
      </trkpt>
      <trkpt lat="43.22037" lon="5.50457">
        <ele>175.4</ele>
        <time>2025-10-19T08:02:45Z</time>
      </trkpt>
      <trkpt lat="43.22036" lon="5.50457">
        <ele>175.4</ele>
        <time>2025-10-19T08:02:46Z</time>
      </trkpt>
      <trkpt lat="43.22035" lon="5.50457">
        <ele>175.4</ele>
        <time>2025-10-19T08:02:47Z</time>
      </trkpt>
      <trkpt lat="43.22034" lon="5.50457">
        <ele>175.2</ele>
        <time>2025-10-19T08:02:48Z</time>
      </trkpt>
      <trkpt lat="43.22033" lon="5.50458">
        <ele>175.1</ele>
        <time>2025-10-19T08:02:49Z</time>
      </trkpt>
      <trkpt lat="43.22031" lon="5.50457">
        <ele>175</ele>
        <time>2025-10-19T08:02:50Z</time>
      </trkpt>
      <trkpt lat="43.22031" lon="5.50458">
        <ele>174.8</ele>
        <time>2025-10-19T08:02:51Z</time>
      </trkpt>
      <trkpt lat="43.2203" lon="5.50458">
        <ele>174.8</ele>
        <time>2025-10-19T08:02:52Z</time>
      </trkpt>
      <trkpt lat="43.22029" lon="5.50459">
        <ele>174.7</ele>
        <time>2025-10-19T08:02:53Z</time>
      </trkpt>
      <trkpt lat="43.22028" lon="5.50458">
        <ele>174.6</ele>
        <time>2025-10-19T08:02:54Z</time>
      </trkpt>
      <trkpt lat="43.22027" lon="5.50459">
        <ele>174.5</ele>
        <time>2025-10-19T08:02:55Z</time>
      </trkpt>
      <trkpt lat="43.22026" lon="5.50459">
        <ele>174.5</ele>
        <time>2025-10-19T08:02:56Z</time>
      </trkpt>
      <trkpt lat="43.22024" lon="5.50459">
        <ele>174.4</ele>
        <time>2025-10-19T08:02:57Z</time>
      </trkpt>
      <trkpt lat="43.22023" lon="5.50459">
        <ele>174.3</ele>
        <time>2025-10-19T08:02:58Z</time>
      </trkpt>
      <trkpt lat="43.22022" lon="5.5046">
        <ele>174.1</ele>
        <time>2025-10-19T08:02:59Z</time>
      </trkpt>
      <trkpt lat="43.22022" lon="5.5046">
        <ele>174.2</ele>
        <time>2025-10-19T08:03:00Z</time>
      </trkpt>
      <trkpt lat="43.22021" lon="5.50461">
        <ele>174</ele>
        <time>2025-10-19T08:03:01Z</time>
      </trkpt>
      <trkpt lat="43.2202" lon="5.5046">
        <ele>173.9</ele>
        <time>2025-10-19T08:03:02Z</time>
      </trkpt>
      <trkpt lat="43.22019" lon="5.50459">
        <ele>173.8</ele>
        <time>2025-10-19T08:03:03Z</time>
      </trkpt>
      <trkpt lat="43.22017" lon="5.50459">
        <ele>173.7</ele>
        <time>2025-10-19T08:03:04Z</time>
      </trkpt>
      <trkpt lat="43.22016" lon="5.50459">
        <ele>173.7</ele>
        <time>2025-10-19T08:03:05Z</time>
      </trkpt>
      <trkpt lat="43.22015" lon="5.50459">
        <ele>173.6</ele>
        <time>2025-10-19T08:03:06Z</time>
      </trkpt>
      <trkpt lat="43.22014" lon="5.5046">
        <ele>173.4</ele>
        <time>2025-10-19T08:03:07Z</time>
      </trkpt>
      <trkpt lat="43.22013" lon="5.5046">
        <ele>173.4</ele>
        <time>2025-10-19T08:03:08Z</time>
      </trkpt>
      <trkpt lat="43.22012" lon="5.5046">
        <ele>173.4</ele>
        <time>2025-10-19T08:03:09Z</time>
      </trkpt>
      <trkpt lat="43.2201" lon="5.5046">
        <ele>173.3</ele>
        <time>2025-10-19T08:03:10Z</time>
      </trkpt>
      <trkpt lat="43.22009" lon="5.50461">
        <ele>173.3</ele>
        <time>2025-10-19T08:03:11Z</time>
      </trkpt>
      <trkpt lat="43.22007" lon="5.50461">
        <ele>173.3</ele>
        <time>2025-10-19T08:03:12Z</time>
      </trkpt>
      <trkpt lat="43.22006" lon="5.50462">
        <ele>173.1</ele>
        <time>2025-10-19T08:03:13Z</time>
      </trkpt>
      <trkpt lat="43.22005" lon="5.50462">
        <ele>173</ele>
        <time>2025-10-19T08:03:14Z</time>
      </trkpt>
      <trkpt lat="43.22004" lon="5.50463">
        <ele>172.9</ele>
        <time>2025-10-19T08:03:15Z</time>
      </trkpt>
      <trkpt lat="43.22003" lon="5.50463">
        <ele>172.8</ele>
        <time>2025-10-19T08:03:16Z</time>
      </trkpt>
      <trkpt lat="43.22002" lon="5.50463">
        <ele>172.7</ele>
        <time>2025-10-19T08:03:17Z</time>
      </trkpt>
      <trkpt lat="43.22001" lon="5.50464">
        <ele>172.5</ele>
        <time>2025-10-19T08:03:18Z</time>
      </trkpt>
      <trkpt lat="43.22" lon="5.50465">
        <ele>172.4</ele>
        <time>2025-10-19T08:03:19Z</time>
      </trkpt>
      <trkpt lat="43.21998" lon="5.50465">
        <ele>172.3</ele>
        <time>2025-10-19T08:03:20Z</time>
      </trkpt>
      <trkpt lat="43.21997" lon="5.50466">
        <ele>172.2</ele>
        <time>2025-10-19T08:03:21Z</time>
      </trkpt>
      <trkpt lat="43.21997" lon="5.50467">
        <ele>172</ele>
        <time>2025-10-19T08:03:22Z</time>
      </trkpt>
      <trkpt lat="43.21995" lon="5.50467">
        <ele>171.9</ele>
        <time>2025-10-19T08:03:23Z</time>
      </trkpt>
      <trkpt lat="43.21995" lon="5.50468">
        <ele>171.7</ele>
        <time>2025-10-19T08:03:24Z</time>
      </trkpt>
      <trkpt lat="43.21993" lon="5.50469">
        <ele>171.7</ele>
        <time>2025-10-19T08:03:25Z</time>
      </trkpt>
      <trkpt lat="43.21993" lon="5.5047">
        <ele>171.5</ele>
        <time>2025-10-19T08:03:26Z</time>
      </trkpt>
      <trkpt lat="43.21992" lon="5.5047">
        <ele>171.5</ele>
        <time>2025-10-19T08:03:27Z</time>
      </trkpt>
      <trkpt lat="43.21991" lon="5.50472">
        <ele>171.6</ele>
        <time>2025-10-19T08:03:28Z</time>
      </trkpt>
      <trkpt lat="43.2199" lon="5.50472">
        <ele>171.6</ele>
        <time>2025-10-19T08:03:29Z</time>
      </trkpt>
      <trkpt lat="43.21989" lon="5.50473">
        <ele>171.6</ele>
        <time>2025-10-19T08:03:30Z</time>
      </trkpt>
      <trkpt lat="43.21988" lon="5.50474">
        <ele>171.6</ele>
        <time>2025-10-19T08:03:31Z</time>
      </trkpt>
      <trkpt lat="43.21987" lon="5.50474">
        <ele>171.6</ele>
        <time>2025-10-19T08:03:32Z</time>
      </trkpt>
      <trkpt lat="43.21986" lon="5.50475">
        <ele>171.5</ele>
        <time>2025-10-19T08:03:33Z</time>
      </trkpt>
      <trkpt lat="43.21985" lon="5.50476">
        <ele>171.5</ele>
        <time>2025-10-19T08:03:34Z</time>
      </trkpt>
      <trkpt lat="43.21984" lon="5.50477">
        <ele>171.4</ele>
        <time>2025-10-19T08:03:35Z</time>
      </trkpt>
      <trkpt lat="43.21984" lon="5.50479">
        <ele>171.4</ele>
        <time>2025-10-19T08:03:36Z</time>
      </trkpt>
      <trkpt lat="43.21983" lon="5.5048">
        <ele>171.3</ele>
        <time>2025-10-19T08:03:37Z</time>
      </trkpt>
      <trkpt lat="43.21982" lon="5.50481">
        <ele>171.2</ele>
        <time>2025-10-19T08:03:38Z</time>
      </trkpt>
      <trkpt lat="43.21982" lon="5.50482">
        <ele>171.2</ele>
        <time>2025-10-19T08:03:39Z</time>
      </trkpt>
      <trkpt lat="43.21981" lon="5.50483">
        <ele>171.1</ele>
        <time>2025-10-19T08:03:40Z</time>
      </trkpt>
      <trkpt lat="43.2198" lon="5.50484">
        <ele>171</ele>
        <time>2025-10-19T08:03:41Z</time>
      </trkpt>
      <trkpt lat="43.21979" lon="5.50485">
        <ele>170.9</ele>
        <time>2025-10-19T08:03:42Z</time>
      </trkpt>
      <trkpt lat="43.21978" lon="5.50486">
        <ele>170.9</ele>
        <time>2025-10-19T08:03:43Z</time>
      </trkpt>
      <trkpt lat="43.21977" lon="5.50486">
        <ele>170.8</ele>
        <time>2025-10-19T08:03:44Z</time>
      </trkpt>
      <trkpt lat="43.21976" lon="5.50487">
        <ele>170.6</ele>
        <time>2025-10-19T08:03:45Z</time>
      </trkpt>
      <trkpt lat="43.21975" lon="5.50488">
        <ele>170.6</ele>
        <time>2025-10-19T08:03:46Z</time>
      </trkpt>
      <trkpt lat="43.21974" lon="5.50488">
        <ele>170.6</ele>
        <time>2025-10-19T08:03:47Z</time>
      </trkpt>
      <trkpt lat="43.21973" lon="5.50489">
        <ele>170.5</ele>
        <time>2025-10-19T08:03:48Z</time>
      </trkpt>
      <trkpt lat="43.21972" lon="5.5049">
        <ele>170.5</ele>
        <time>2025-10-19T08:03:49Z</time>
      </trkpt>
      <trkpt lat="43.21971" lon="5.50491">
        <ele>170.4</ele>
        <time>2025-10-19T08:03:50Z</time>
      </trkpt>
      <trkpt lat="43.2197" lon="5.50492">
        <ele>170.2</ele>
        <time>2025-10-19T08:03:51Z</time>
      </trkpt>
      <trkpt lat="43.21969" lon="5.50492">
        <ele>170.3</ele>
        <time>2025-10-19T08:03:52Z</time>
      </trkpt>
      <trkpt lat="43.21968" lon="5.50492">
        <ele>170.2</ele>
        <time>2025-10-19T08:03:53Z</time>
      </trkpt>
      <trkpt lat="43.21967" lon="5.50493">
        <ele>170.1</ele>
        <time>2025-10-19T08:03:54Z</time>
      </trkpt>
      <trkpt lat="43.21966" lon="5.50493">
        <ele>169.9</ele>
        <time>2025-10-19T08:03:55Z</time>
      </trkpt>
      <trkpt lat="43.21965" lon="5.50494">
        <ele>169.9</ele>
        <time>2025-10-19T08:03:56Z</time>
      </trkpt>
      <trkpt lat="43.21965" lon="5.50495">
        <ele>169.8</ele>
        <time>2025-10-19T08:03:57Z</time>
      </trkpt>
      <trkpt lat="43.21964" lon="5.50496">
        <ele>169.8</ele>
        <time>2025-10-19T08:03:58Z</time>
      </trkpt>
      <trkpt lat="43.21963" lon="5.50497">
        <ele>169.6</ele>
        <time>2025-10-19T08:03:59Z</time>
      </trkpt>
      <trkpt lat="43.21963" lon="5.50498">
        <ele>169.5</ele>
        <time>2025-10-19T08:04:00Z</time>
      </trkpt>
      <trkpt lat="43.21962" lon="5.50499">
        <ele>169.5</ele>
        <time>2025-10-19T08:04:01Z</time>
      </trkpt>
      <trkpt lat="43.2196" lon="5.50499">
        <ele>169.4</ele>
        <time>2025-10-19T08:04:02Z</time>
      </trkpt>
      <trkpt lat="43.21959" lon="5.505">
        <ele>169.3</ele>
        <time>2025-10-19T08:04:03Z</time>
      </trkpt>
      <trkpt lat="43.21958" lon="5.50502">
        <ele>169.2</ele>
        <time>2025-10-19T08:04:04Z</time>
      </trkpt>
      <trkpt lat="43.21957" lon="5.50503">
        <ele>169.1</ele>
        <time>2025-10-19T08:04:05Z</time>
      </trkpt>
      <trkpt lat="43.21956" lon="5.50504">
        <ele>169</ele>
        <time>2025-10-19T08:04:06Z</time>
      </trkpt>
      <trkpt lat="43.21956" lon="5.50505">
        <ele>169.1</ele>
        <time>2025-10-19T08:04:07Z</time>
      </trkpt>
      <trkpt lat="43.21955" lon="5.50506">
        <ele>169.1</ele>
        <time>2025-10-19T08:04:08Z</time>
      </trkpt>
      <trkpt lat="43.21954" lon="5.50506">
        <ele>169</ele>
        <time>2025-10-19T08:04:09Z</time>
      </trkpt>
      <trkpt lat="43.21953" lon="5.50507">
        <ele>169</ele>
        <time>2025-10-19T08:04:10Z</time>
      </trkpt>
      <trkpt lat="43.21952" lon="5.50508">
        <ele>169</ele>
        <time>2025-10-19T08:04:11Z</time>
      </trkpt>
      <trkpt lat="43.21951" lon="5.50509">
        <ele>168.9</ele>
        <time>2025-10-19T08:04:12Z</time>
      </trkpt>
      <trkpt lat="43.2195" lon="5.50509">
        <ele>168.9</ele>
        <time>2025-10-19T08:04:13Z</time>
      </trkpt>
      <trkpt lat="43.21949" lon="5.5051">
        <ele>168.9</ele>
        <time>2025-10-19T08:04:14Z</time>
      </trkpt>
      <trkpt lat="43.21948" lon="5.5051">
        <ele>168.8</ele>
        <time>2025-10-19T08:04:15Z</time>
      </trkpt>
      <trkpt lat="43.21948" lon="5.50511">
        <ele>168.7</ele>
        <time>2025-10-19T08:04:16Z</time>
      </trkpt>
      <trkpt lat="43.21947" lon="5.50512">
        <ele>168.6</ele>
        <time>2025-10-19T08:04:17Z</time>
      </trkpt>
      <trkpt lat="43.21946" lon="5.50513">
        <ele>168.5</ele>
        <time>2025-10-19T08:04:18Z</time>
      </trkpt>
      <trkpt lat="43.21945" lon="5.50513">
        <ele>168.4</ele>
        <time>2025-10-19T08:04:19Z</time>
      </trkpt>
      <trkpt lat="43.21944" lon="5.50514">
        <ele>168.3</ele>
        <time>2025-10-19T08:04:20Z</time>
      </trkpt>
      <trkpt lat="43.21944" lon="5.50515">
        <ele>168.1</ele>
        <time>2025-10-19T08:04:21Z</time>
      </trkpt>
      <trkpt lat="43.21943" lon="5.50515">
        <ele>168</ele>
        <time>2025-10-19T08:04:22Z</time>
      </trkpt>
      <trkpt lat="43.21942" lon="5.50517">
        <ele>167.9</ele>
        <time>2025-10-19T08:04:23Z</time>
      </trkpt>
      <trkpt lat="43.21941" lon="5.50519">
        <ele>167.9</ele>
        <time>2025-10-19T08:04:24Z</time>
      </trkpt>
      <trkpt lat="43.2194" lon="5.5052">
        <ele>167.8</ele>
        <time>2025-10-19T08:04:25Z</time>
      </trkpt>
      <trkpt lat="43.21939" lon="5.50521">
        <ele>167.7</ele>
        <time>2025-10-19T08:04:26Z</time>
      </trkpt>
      <trkpt lat="43.21938" lon="5.50522">
        <ele>167.7</ele>
        <time>2025-10-19T08:04:27Z</time>
      </trkpt>
      <trkpt lat="43.21937" lon="5.50523">
        <ele>167.4</ele>
        <time>2025-10-19T08:04:28Z</time>
      </trkpt>
      <trkpt lat="43.21936" lon="5.50525">
        <ele>167.3</ele>
        <time>2025-10-19T08:04:29Z</time>
      </trkpt>
      <trkpt lat="43.21936" lon="5.50526">
        <ele>167.4</ele>
        <time>2025-10-19T08:04:30Z</time>
      </trkpt>
      <trkpt lat="43.21935" lon="5.50526">
        <ele>167.2</ele>
        <time>2025-10-19T08:04:31Z</time>
      </trkpt>
      <trkpt lat="43.21933" lon="5.50527">
        <ele>167.1</ele>
        <time>2025-10-19T08:04:32Z</time>
      </trkpt>
      <trkpt lat="43.21932" lon="5.50529">
        <ele>167.2</ele>
        <time>2025-10-19T08:04:33Z</time>
      </trkpt>
      <trkpt lat="43.21932" lon="5.5053">
        <ele>167.2</ele>
        <time>2025-10-19T08:04:34Z</time>
      </trkpt>
      <trkpt lat="43.2193" lon="5.5053">
        <ele>167.1</ele>
        <time>2025-10-19T08:04:35Z</time>
      </trkpt>
      <trkpt lat="43.2193" lon="5.50532">
        <ele>167</ele>
        <time>2025-10-19T08:04:36Z</time>
      </trkpt>
      <trkpt lat="43.21929" lon="5.50532">
        <ele>166.8</ele>
        <time>2025-10-19T08:04:37Z</time>
      </trkpt>
      <trkpt lat="43.21928" lon="5.50534">
        <ele>166.7</ele>
        <time>2025-10-19T08:04:38Z</time>
      </trkpt>
      <trkpt lat="43.21928" lon="5.50535">
        <ele>166.6</ele>
        <time>2025-10-19T08:04:39Z</time>
      </trkpt>
      <trkpt lat="43.21927" lon="5.50537">
        <ele>166.5</ele>
        <time>2025-10-19T08:04:40Z</time>
      </trkpt>
      <trkpt lat="43.21927" lon="5.50539">
        <ele>166.4</ele>
        <time>2025-10-19T08:04:41Z</time>
      </trkpt>
      <trkpt lat="43.21926" lon="5.50539">
        <ele>166.2</ele>
        <time>2025-10-19T08:04:42Z</time>
      </trkpt>
      <trkpt lat="43.21925" lon="5.5054">
        <ele>166.1</ele>
        <time>2025-10-19T08:04:43Z</time>
      </trkpt>
      <trkpt lat="43.21924" lon="5.50541">
        <ele>166</ele>
        <time>2025-10-19T08:04:44Z</time>
      </trkpt>
      <trkpt lat="43.21925" lon="5.50543">
        <ele>165.9</ele>
        <time>2025-10-19T08:04:45Z</time>
      </trkpt>
      <trkpt lat="43.21924" lon="5.50544">
        <ele>166</ele>
        <time>2025-10-19T08:04:46Z</time>
      </trkpt>
      <trkpt lat="43.21924" lon="5.50545">
        <ele>165.9</ele>
        <time>2025-10-19T08:04:47Z</time>
      </trkpt>
      <trkpt lat="43.21923" lon="5.50546">
        <ele>165.9</ele>
        <time>2025-10-19T08:04:48Z</time>
      </trkpt>
      <trkpt lat="43.21923" lon="5.50547">
        <ele>165.9</ele>
        <time>2025-10-19T08:04:49Z</time>
      </trkpt>
      <trkpt lat="43.21922" lon="5.50548">
        <ele>165.9</ele>
        <time>2025-10-19T08:04:50Z</time>
      </trkpt>
      <trkpt lat="43.2192" lon="5.50549">
        <ele>165.9</ele>
        <time>2025-10-19T08:04:51Z</time>
      </trkpt>
      <trkpt lat="43.2192" lon="5.50549">
        <ele>165.7</ele>
        <time>2025-10-19T08:04:52Z</time>
      </trkpt>
      <trkpt lat="43.21918" lon="5.5055">
        <ele>165.6</ele>
        <time>2025-10-19T08:04:53Z</time>
      </trkpt>
      <trkpt lat="43.21917" lon="5.50551">
        <ele>165.5</ele>
        <time>2025-10-19T08:04:54Z</time>
      </trkpt>
      <trkpt lat="43.21916" lon="5.50552">
        <ele>165.5</ele>
        <time>2025-10-19T08:04:55Z</time>
      </trkpt>
      <trkpt lat="43.21915" lon="5.50553">
        <ele>165.4</ele>
        <time>2025-10-19T08:04:56Z</time>
      </trkpt>
      <trkpt lat="43.21914" lon="5.50554">
        <ele>165.3</ele>
        <time>2025-10-19T08:04:57Z</time>
      </trkpt>
      <trkpt lat="43.21913" lon="5.50555">
        <ele>165.2</ele>
        <time>2025-10-19T08:04:58Z</time>
      </trkpt>
      <trkpt lat="43.21912" lon="5.50556">
        <ele>165.1</ele>
        <time>2025-10-19T08:04:59Z</time>
      </trkpt>
      <trkpt lat="43.21911" lon="5.50557">
        <ele>164.9</ele>
        <time>2025-10-19T08:05:00Z</time>
      </trkpt>
      <trkpt lat="43.2191" lon="5.50557">
        <ele>164.8</ele>
        <time>2025-10-19T08:05:01Z</time>
      </trkpt>
      <trkpt lat="43.21909" lon="5.50557">
        <ele>164.8</ele>
        <time>2025-10-19T08:05:02Z</time>
      </trkpt>
      <trkpt lat="43.21908" lon="5.50557">
        <ele>164.6</ele>
        <time>2025-10-19T08:05:03Z</time>
      </trkpt>
      <trkpt lat="43.21906" lon="5.50558">
        <ele>164.5</ele>
        <time>2025-10-19T08:05:04Z</time>
      </trkpt>
      <trkpt lat="43.21905" lon="5.50559">
        <ele>164.4</ele>
        <time>2025-10-19T08:05:05Z</time>
      </trkpt>
      <trkpt lat="43.21905" lon="5.5056">
        <ele>164.4</ele>
        <time>2025-10-19T08:05:06Z</time>
      </trkpt>
      <trkpt lat="43.21904" lon="5.5056">
        <ele>164.3</ele>
        <time>2025-10-19T08:05:07Z</time>
      </trkpt>
      <trkpt lat="43.21903" lon="5.5056">
        <ele>164.3</ele>
        <time>2025-10-19T08:05:08Z</time>
      </trkpt>
      <trkpt lat="43.21903" lon="5.5056">
        <ele>164.2</ele>
        <time>2025-10-19T08:05:09Z</time>
      </trkpt>
      <trkpt lat="43.21902" lon="5.5056">
        <ele>164.1</ele>
        <time>2025-10-19T08:05:10Z</time>
      </trkpt>
      <trkpt lat="43.21901" lon="5.5056">
        <ele>164</ele>
        <time>2025-10-19T08:05:11Z</time>
      </trkpt>
      <trkpt lat="43.21899" lon="5.50561">
        <ele>164</ele>
        <time>2025-10-19T08:05:12Z</time>
      </trkpt>
      <trkpt lat="43.21899" lon="5.50561">
        <ele>163.8</ele>
        <time>2025-10-19T08:05:13Z</time>
      </trkpt>
      <trkpt lat="43.21897" lon="5.50561">
        <ele>163.6</ele>
        <time>2025-10-19T08:05:14Z</time>
      </trkpt>
      <trkpt lat="43.21896" lon="5.50561">
        <ele>163.5</ele>
        <time>2025-10-19T08:05:15Z</time>
      </trkpt>
      <trkpt lat="43.21895" lon="5.50562">
        <ele>163.4</ele>
        <time>2025-10-19T08:05:16Z</time>
      </trkpt>
      <trkpt lat="43.21895" lon="5.50561">
        <ele>163.3</ele>
        <time>2025-10-19T08:05:17Z</time>
      </trkpt>
      <trkpt lat="43.21894" lon="5.50561">
        <ele>163.1</ele>
        <time>2025-10-19T08:05:18Z</time>
      </trkpt>
      <trkpt lat="43.21893" lon="5.50561">
        <ele>163</ele>
        <time>2025-10-19T08:05:19Z</time>
      </trkpt>
      <trkpt lat="43.21891" lon="5.50561">
        <ele>162.7</ele>
        <time>2025-10-19T08:05:20Z</time>
      </trkpt>
      <trkpt lat="43.2189" lon="5.50561">
        <ele>162.7</ele>
        <time>2025-10-19T08:05:21Z</time>
      </trkpt>
      <trkpt lat="43.21889" lon="5.50562">
        <ele>162.7</ele>
        <time>2025-10-19T08:05:22Z</time>
      </trkpt>
      <trkpt lat="43.21888" lon="5.50562">
        <ele>162.6</ele>
        <time>2025-10-19T08:05:23Z</time>
      </trkpt>
      <trkpt lat="43.21887" lon="5.50562">
        <ele>162.6</ele>
        <time>2025-10-19T08:05:24Z</time>
      </trkpt>
      <trkpt lat="43.21886" lon="5.50563">
        <ele>162.5</ele>
        <time>2025-10-19T08:05:25Z</time>
      </trkpt>
      <trkpt lat="43.21885" lon="5.50563">
        <ele>162.4</ele>
        <time>2025-10-19T08:05:26Z</time>
      </trkpt>
      <trkpt lat="43.21884" lon="5.50563">
        <ele>162.4</ele>
        <time>2025-10-19T08:05:27Z</time>
      </trkpt>
      <trkpt lat="43.21882" lon="5.50563">
        <ele>162.3</ele>
        <time>2025-10-19T08:05:28Z</time>
      </trkpt>
      <trkpt lat="43.21881" lon="5.50564">
        <ele>162.3</ele>
        <time>2025-10-19T08:05:29Z</time>
      </trkpt>
      <trkpt lat="43.2188" lon="5.50564">
        <ele>162.1</ele>
        <time>2025-10-19T08:05:30Z</time>
      </trkpt>
      <trkpt lat="43.21879" lon="5.50564">
        <ele>162</ele>
        <time>2025-10-19T08:05:31Z</time>
      </trkpt>
      <trkpt lat="43.21878" lon="5.50564">
        <ele>162</ele>
        <time>2025-10-19T08:05:32Z</time>
      </trkpt>
      <trkpt lat="43.21877" lon="5.50565">
        <ele>161.8</ele>
        <time>2025-10-19T08:05:33Z</time>
      </trkpt>
      <trkpt lat="43.21875" lon="5.50565">
        <ele>161.7</ele>
        <time>2025-10-19T08:05:34Z</time>
      </trkpt>
      <trkpt lat="43.21874" lon="5.50566">
        <ele>161.6</ele>
        <time>2025-10-19T08:05:35Z</time>
      </trkpt>
      <trkpt lat="43.21873" lon="5.50567">
        <ele>161.4</ele>
        <time>2025-10-19T08:05:36Z</time>
      </trkpt>
      <trkpt lat="43.21872" lon="5.50567">
        <ele>161.2</ele>
        <time>2025-10-19T08:05:37Z</time>
      </trkpt>
      <trkpt lat="43.21871" lon="5.50569">
        <ele>161.1</ele>
        <time>2025-10-19T08:05:38Z</time>
      </trkpt>
      <trkpt lat="43.2187" lon="5.5057">
        <ele>160.9</ele>
        <time>2025-10-19T08:05:39Z</time>
      </trkpt>
      <trkpt lat="43.21869" lon="5.50571">
        <ele>160.9</ele>
        <time>2025-10-19T08:05:40Z</time>
      </trkpt>
      <trkpt lat="43.21868" lon="5.50571">
        <ele>160.9</ele>
        <time>2025-10-19T08:05:41Z</time>
      </trkpt>
      <trkpt lat="43.21866" lon="5.50572">
        <ele>160.8</ele>
        <time>2025-10-19T08:05:42Z</time>
      </trkpt>
      <trkpt lat="43.21865" lon="5.50573">
        <ele>160.7</ele>
        <time>2025-10-19T08:05:43Z</time>
      </trkpt>
      <trkpt lat="43.21864" lon="5.50574">
        <ele>160.6</ele>
        <time>2025-10-19T08:05:44Z</time>
      </trkpt>
      <trkpt lat="43.21864" lon="5.50575">
        <ele>160.5</ele>
        <time>2025-10-19T08:05:45Z</time>
      </trkpt>
      <trkpt lat="43.21863" lon="5.50576">
        <ele>160.4</ele>
        <time>2025-10-19T08:05:46Z</time>
      </trkpt>
      <trkpt lat="43.21862" lon="5.50577">
        <ele>160.3</ele>
        <time>2025-10-19T08:05:47Z</time>
      </trkpt>
      <trkpt lat="43.21861" lon="5.50578">
        <ele>160.2</ele>
        <time>2025-10-19T08:05:48Z</time>
      </trkpt>
      <trkpt lat="43.21861" lon="5.50579">
        <ele>160.1</ele>
        <time>2025-10-19T08:05:49Z</time>
      </trkpt>
      <trkpt lat="43.2186" lon="5.5058">
        <ele>160</ele>
        <time>2025-10-19T08:05:50Z</time>
      </trkpt>
      <trkpt lat="43.21859" lon="5.50581">
        <ele>159.9</ele>
        <time>2025-10-19T08:05:51Z</time>
      </trkpt>
      <trkpt lat="43.21859" lon="5.50582">
        <ele>159.8</ele>
        <time>2025-10-19T08:05:52Z</time>
      </trkpt>
      <trkpt lat="43.21858" lon="5.50583">
        <ele>159.8</ele>
        <time>2025-10-19T08:05:53Z</time>
      </trkpt>
      <trkpt lat="43.21858" lon="5.50584">
        <ele>159.6</ele>
        <time>2025-10-19T08:05:54Z</time>
      </trkpt>
      <trkpt lat="43.21857" lon="5.50585">
        <ele>159.5</ele>
        <time>2025-10-19T08:05:55Z</time>
      </trkpt>
      <trkpt lat="43.21856" lon="5.50585">
        <ele>159.4</ele>
        <time>2025-10-19T08:05:56Z</time>
      </trkpt>
      <trkpt lat="43.21855" lon="5.50586">
        <ele>159.3</ele>
        <time>2025-10-19T08:05:57Z</time>
      </trkpt>
      <trkpt lat="43.21854" lon="5.50587">
        <ele>159.2</ele>
        <time>2025-10-19T08:05:58Z</time>
      </trkpt>
      <trkpt lat="43.21853" lon="5.50588">
        <ele>159.1</ele>
        <time>2025-10-19T08:05:59Z</time>
      </trkpt>
      <trkpt lat="43.21852" lon="5.50589">
        <ele>159</ele>
        <time>2025-10-19T08:06:00Z</time>
      </trkpt>
      <trkpt lat="43.21851" lon="5.5059">
        <ele>158.9</ele>
        <time>2025-10-19T08:06:01Z</time>
      </trkpt>
      <trkpt lat="43.2185" lon="5.50591">
        <ele>158.8</ele>
        <time>2025-10-19T08:06:02Z</time>
      </trkpt>
      <trkpt lat="43.21849" lon="5.50592">
        <ele>158.7</ele>
        <time>2025-10-19T08:06:03Z</time>
      </trkpt>
      <trkpt lat="43.21848" lon="5.50593">
        <ele>158.6</ele>
        <time>2025-10-19T08:06:04Z</time>
      </trkpt>
      <trkpt lat="43.21848" lon="5.50594">
        <ele>158.6</ele>
        <time>2025-10-19T08:06:05Z</time>
      </trkpt>
      <trkpt lat="43.21847" lon="5.50594">
        <ele>158.5</ele>
        <time>2025-10-19T08:06:06Z</time>
      </trkpt>
      <trkpt lat="43.21846" lon="5.50595">
        <ele>158.5</ele>
        <time>2025-10-19T08:06:07Z</time>
      </trkpt>
      <trkpt lat="43.21845" lon="5.50596">
        <ele>158.5</ele>
        <time>2025-10-19T08:06:08Z</time>
      </trkpt>
      <trkpt lat="43.21844" lon="5.50596">
        <ele>158.4</ele>
        <time>2025-10-19T08:06:09Z</time>
      </trkpt>
      <trkpt lat="43.21843" lon="5.50597">
        <ele>158.2</ele>
        <time>2025-10-19T08:06:10Z</time>
      </trkpt>
      <trkpt lat="43.21842" lon="5.50597">
        <ele>158.1</ele>
        <time>2025-10-19T08:06:11Z</time>
      </trkpt>
      <trkpt lat="43.2184" lon="5.50598">
        <ele>158</ele>
        <time>2025-10-19T08:06:12Z</time>
      </trkpt>
      <trkpt lat="43.21839" lon="5.50599">
        <ele>157.9</ele>
        <time>2025-10-19T08:06:13Z</time>
      </trkpt>
      <trkpt lat="43.21838" lon="5.506">
        <ele>157.9</ele>
        <time>2025-10-19T08:06:14Z</time>
      </trkpt>
      <trkpt lat="43.21837" lon="5.50601">
        <ele>157.9</ele>
        <time>2025-10-19T08:06:15Z</time>
      </trkpt>
      <trkpt lat="43.21836" lon="5.50601">
        <ele>157.9</ele>
        <time>2025-10-19T08:06:16Z</time>
      </trkpt>
      <trkpt lat="43.21835" lon="5.50602">
        <ele>157.9</ele>
        <time>2025-10-19T08:06:17Z</time>
      </trkpt>
      <trkpt lat="43.21834" lon="5.50603">
        <ele>157.7</ele>
        <time>2025-10-19T08:06:18Z</time>
      </trkpt>
      <trkpt lat="43.21833" lon="5.50603">
        <ele>157.7</ele>
        <time>2025-10-19T08:06:19Z</time>
      </trkpt>
      <trkpt lat="43.21832" lon="5.50604">
        <ele>157.6</ele>
        <time>2025-10-19T08:06:20Z</time>
      </trkpt>
      <trkpt lat="43.21831" lon="5.50604">
        <ele>157.6</ele>
        <time>2025-10-19T08:06:21Z</time>
      </trkpt>
      <trkpt lat="43.2183" lon="5.50605">
        <ele>157.6</ele>
        <time>2025-10-19T08:06:22Z</time>
      </trkpt>
      <trkpt lat="43.21829" lon="5.50606">
        <ele>157.5</ele>
        <time>2025-10-19T08:06:23Z</time>
      </trkpt>
      <trkpt lat="43.21828" lon="5.50607">
        <ele>157.4</ele>
        <time>2025-10-19T08:06:24Z</time>
      </trkpt>
      <trkpt lat="43.21826" lon="5.50608">
        <ele>157.3</ele>
        <time>2025-10-19T08:06:25Z</time>
      </trkpt>
      <trkpt lat="43.21825" lon="5.50608">
        <ele>157.2</ele>
        <time>2025-10-19T08:06:26Z</time>
      </trkpt>
      <trkpt lat="43.21824" lon="5.50609">
        <ele>157.1</ele>
        <time>2025-10-19T08:06:27Z</time>
      </trkpt>
      <trkpt lat="43.21822" lon="5.50609">
        <ele>157</ele>
        <time>2025-10-19T08:06:28Z</time>
      </trkpt>
      <trkpt lat="43.21821" lon="5.5061">
        <ele>157</ele>
        <time>2025-10-19T08:06:29Z</time>
      </trkpt>
      <trkpt lat="43.2182" lon="5.5061">
        <ele>156.9</ele>
        <time>2025-10-19T08:06:30Z</time>
      </trkpt>
      <trkpt lat="43.21819" lon="5.50611">
        <ele>156.8</ele>
        <time>2025-10-19T08:06:31Z</time>
      </trkpt>
      <trkpt lat="43.21818" lon="5.50613">
        <ele>156.7</ele>
        <time>2025-10-19T08:06:32Z</time>
      </trkpt>
      <trkpt lat="43.21817" lon="5.50613">
        <ele>156.6</ele>
        <time>2025-10-19T08:06:33Z</time>
      </trkpt>
      <trkpt lat="43.21817" lon="5.50614">
        <ele>156.5</ele>
        <time>2025-10-19T08:06:34Z</time>
      </trkpt>
      <trkpt lat="43.21817" lon="5.50615">
        <ele>156.5</ele>
        <time>2025-10-19T08:06:35Z</time>
      </trkpt>
      <trkpt lat="43.21816" lon="5.50616">
        <ele>156.4</ele>
        <time>2025-10-19T08:06:36Z</time>
      </trkpt>
      <trkpt lat="43.21815" lon="5.50616">
        <ele>156.4</ele>
        <time>2025-10-19T08:06:37Z</time>
      </trkpt>
      <trkpt lat="43.21814" lon="5.50616">
        <ele>156.4</ele>
        <time>2025-10-19T08:06:38Z</time>
      </trkpt>
      <trkpt lat="43.21814" lon="5.50617">
        <ele>156.3</ele>
        <time>2025-10-19T08:06:39Z</time>
      </trkpt>
      <trkpt lat="43.21813" lon="5.50618">
        <ele>156.3</ele>
        <time>2025-10-19T08:06:40Z</time>
      </trkpt>
      <trkpt lat="43.21813" lon="5.50619">
        <ele>156.3</ele>
        <time>2025-10-19T08:06:41Z</time>
      </trkpt>
      <trkpt lat="43.21812" lon="5.5062">
        <ele>156.3</ele>
        <time>2025-10-19T08:06:42Z</time>
      </trkpt>
      <trkpt lat="43.21811" lon="5.5062">
        <ele>156.3</ele>
        <time>2025-10-19T08:06:43Z</time>
      </trkpt>
      <trkpt lat="43.21811" lon="5.5062">
        <ele>156.2</ele>
        <time>2025-10-19T08:06:44Z</time>
      </trkpt>
      <trkpt lat="43.2181" lon="5.50621">
        <ele>156.2</ele>
        <time>2025-10-19T08:06:45Z</time>
      </trkpt>
      <trkpt lat="43.21811" lon="5.50622">
        <ele>156.1</ele>
        <time>2025-10-19T08:06:46Z</time>
      </trkpt>
      <trkpt lat="43.21811" lon="5.50622">
        <ele>156</ele>
        <time>2025-10-19T08:06:47Z</time>
      </trkpt>
      <trkpt lat="43.21811" lon="5.50623">
        <ele>155.9</ele>
        <time>2025-10-19T08:06:48Z</time>
      </trkpt>
      <trkpt lat="43.21811" lon="5.50624">
        <ele>155.9</ele>
        <time>2025-10-19T08:06:49Z</time>
      </trkpt>
      <trkpt lat="43.21811" lon="5.50625">
        <ele>155.9</ele>
        <time>2025-10-19T08:06:50Z</time>
      </trkpt>
      <trkpt lat="43.21812" lon="5.50626">
        <ele>155.9</ele>
        <time>2025-10-19T08:06:51Z</time>
      </trkpt>
      <trkpt lat="43.21812" lon="5.50627">
        <ele>155.9</ele>
        <time>2025-10-19T08:06:52Z</time>
      </trkpt>
      <trkpt lat="43.21812" lon="5.50628">
        <ele>156</ele>
        <time>2025-10-19T08:06:53Z</time>
      </trkpt>
      <trkpt lat="43.21812" lon="5.50629">
        <ele>156.1</ele>
        <time>2025-10-19T08:06:54Z</time>
      </trkpt>
      <trkpt lat="43.21813" lon="5.5063">
        <ele>156.1</ele>
        <time>2025-10-19T08:06:55Z</time>
      </trkpt>
      <trkpt lat="43.21813" lon="5.50631">
        <ele>156.1</ele>
        <time>2025-10-19T08:06:56Z</time>
      </trkpt>
      <trkpt lat="43.21813" lon="5.50633">
        <ele>156.2</ele>
        <time>2025-10-19T08:06:57Z</time>
      </trkpt>
      <trkpt lat="43.21813" lon="5.50634">
        <ele>156.2</ele>
        <time>2025-10-19T08:06:58Z</time>
      </trkpt>
      <trkpt lat="43.21814" lon="5.50635">
        <ele>156.2</ele>
        <time>2025-10-19T08:06:59Z</time>
      </trkpt>
      <trkpt lat="43.21814" lon="5.50636">
        <ele>156.2</ele>
        <time>2025-10-19T08:07:00Z</time>
      </trkpt>
      <trkpt lat="43.21814" lon="5.50636">
        <ele>156.1</ele>
        <time>2025-10-19T08:07:01Z</time>
      </trkpt>
      <trkpt lat="43.21814" lon="5.50637">
        <ele>156.1</ele>
        <time>2025-10-19T08:07:02Z</time>
      </trkpt>
      <trkpt lat="43.21815" lon="5.50637">
        <ele>156.2</ele>
        <time>2025-10-19T08:07:03Z</time>
      </trkpt>
      <trkpt lat="43.21815" lon="5.50638">
        <ele>156.3</ele>
        <time>2025-10-19T08:07:04Z</time>
      </trkpt>
      <trkpt lat="43.21815" lon="5.50638">
        <ele>156.4</ele>
        <time>2025-10-19T08:07:05Z</time>
      </trkpt>
      <trkpt lat="43.21816" lon="5.50639">
        <ele>156.4</ele>
        <time>2025-10-19T08:07:06Z</time>
      </trkpt>
      <trkpt lat="43.21816" lon="5.50639">
        <ele>156.5</ele>
        <time>2025-10-19T08:07:07Z</time>
      </trkpt>
      <trkpt lat="43.21816" lon="5.5064">
        <ele>156.6</ele>
        <time>2025-10-19T08:07:08Z</time>
      </trkpt>
      <trkpt lat="43.21817" lon="5.50642">
        <ele>156.6</ele>
        <time>2025-10-19T08:07:09Z</time>
      </trkpt>
      <trkpt lat="43.21817" lon="5.50642">
        <ele>156.7</ele>
        <time>2025-10-19T08:07:10Z</time>
      </trkpt>
      <trkpt lat="43.21819" lon="5.50644">
        <ele>156.8</ele>
        <time>2025-10-19T08:07:11Z</time>
      </trkpt>
      <trkpt lat="43.21819" lon="5.50645">
        <ele>156.9</ele>
        <time>2025-10-19T08:07:12Z</time>
      </trkpt>
      <trkpt lat="43.21821" lon="5.50647">
        <ele>157</ele>
        <time>2025-10-19T08:07:13Z</time>
      </trkpt>
      <trkpt lat="43.21821" lon="5.50647">
        <ele>157.1</ele>
        <time>2025-10-19T08:07:14Z</time>
      </trkpt>
      <trkpt lat="43.21822" lon="5.50649">
        <ele>157.1</ele>
        <time>2025-10-19T08:07:15Z</time>
      </trkpt>
      <trkpt lat="43.21824" lon="5.5065">
        <ele>157</ele>
        <time>2025-10-19T08:07:16Z</time>
      </trkpt>
      <trkpt lat="43.21824" lon="5.50651">
        <ele>157.1</ele>
        <time>2025-10-19T08:07:17Z</time>
      </trkpt>
      <trkpt lat="43.21825" lon="5.50652">
        <ele>157.3</ele>
        <time>2025-10-19T08:07:18Z</time>
      </trkpt>
      <trkpt lat="43.21826" lon="5.50652">
        <ele>157.5</ele>
        <time>2025-10-19T08:07:19Z</time>
      </trkpt>
      <trkpt lat="43.21827" lon="5.50654">
        <ele>157.6</ele>
        <time>2025-10-19T08:07:20Z</time>
      </trkpt>
      <trkpt lat="43.21828" lon="5.50654">
        <ele>157.8</ele>
        <time>2025-10-19T08:07:21Z</time>
      </trkpt>
      <trkpt lat="43.21829" lon="5.50655">
        <ele>157.8</ele>
        <time>2025-10-19T08:07:22Z</time>
      </trkpt>
      <trkpt lat="43.21831" lon="5.50656">
        <ele>157.9</ele>
        <time>2025-10-19T08:07:23Z</time>
      </trkpt>
      <trkpt lat="43.21832" lon="5.50657">
        <ele>158</ele>
        <time>2025-10-19T08:07:24Z</time>
      </trkpt>
      <trkpt lat="43.21833" lon="5.50658">
        <ele>158.1</ele>
        <time>2025-10-19T08:07:25Z</time>
      </trkpt>
      <trkpt lat="43.21834" lon="5.50659">
        <ele>158.2</ele>
        <time>2025-10-19T08:07:26Z</time>
      </trkpt>
      <trkpt lat="43.21835" lon="5.50659">
        <ele>158.3</ele>
        <time>2025-10-19T08:07:27Z</time>
      </trkpt>
      <trkpt lat="43.21837" lon="5.50659">
        <ele>158.5</ele>
        <time>2025-10-19T08:07:28Z</time>
      </trkpt>
      <trkpt lat="43.21838" lon="5.50659">
        <ele>158.4</ele>
        <time>2025-10-19T08:07:29Z</time>
      </trkpt>
      <trkpt lat="43.21839" lon="5.50659">
        <ele>158.4</ele>
        <time>2025-10-19T08:07:30Z</time>
      </trkpt>
      <trkpt lat="43.2184" lon="5.50659">
        <ele>158.5</ele>
        <time>2025-10-19T08:07:31Z</time>
      </trkpt>
      <trkpt lat="43.21841" lon="5.50659">
        <ele>158.6</ele>
        <time>2025-10-19T08:07:32Z</time>
      </trkpt>
      <trkpt lat="43.21841" lon="5.50659">
        <ele>158.7</ele>
        <time>2025-10-19T08:07:33Z</time>
      </trkpt>
      <trkpt lat="43.21842" lon="5.50659">
        <ele>158.9</ele>
        <time>2025-10-19T08:07:34Z</time>
      </trkpt>
      <trkpt lat="43.21843" lon="5.50659">
        <ele>159</ele>
        <time>2025-10-19T08:07:35Z</time>
      </trkpt>
      <trkpt lat="43.21844" lon="5.5066">
        <ele>159.2</ele>
        <time>2025-10-19T08:07:36Z</time>
      </trkpt>
      <trkpt lat="43.21845" lon="5.5066">
        <ele>159.3</ele>
        <time>2025-10-19T08:07:37Z</time>
      </trkpt>
      <trkpt lat="43.21846" lon="5.5066">
        <ele>159.4</ele>
        <time>2025-10-19T08:07:38Z</time>
      </trkpt>
      <trkpt lat="43.21846" lon="5.50661">
        <ele>159.4</ele>
        <time>2025-10-19T08:07:39Z</time>
      </trkpt>
      <trkpt lat="43.21847" lon="5.50661">
        <ele>159.5</ele>
        <time>2025-10-19T08:07:40Z</time>
      </trkpt>
      <trkpt lat="43.21848" lon="5.50662">
        <ele>159.6</ele>
        <time>2025-10-19T08:07:41Z</time>
      </trkpt>
      <trkpt lat="43.21849" lon="5.50662">
        <ele>159.7</ele>
        <time>2025-10-19T08:07:42Z</time>
      </trkpt>
      <trkpt lat="43.2185" lon="5.50663">
        <ele>159.8</ele>
        <time>2025-10-19T08:07:43Z</time>
      </trkpt>
      <trkpt lat="43.2185" lon="5.50663">
        <ele>159.9</ele>
        <time>2025-10-19T08:07:44Z</time>
      </trkpt>
      <trkpt lat="43.2185" lon="5.50663">
        <ele>160.1</ele>
        <time>2025-10-19T08:07:45Z</time>
      </trkpt>
      <trkpt lat="43.21851" lon="5.50664">
        <ele>160.3</ele>
        <time>2025-10-19T08:07:46Z</time>
      </trkpt>
      <trkpt lat="43.21851" lon="5.50664">
        <ele>160.3</ele>
        <time>2025-10-19T08:07:47Z</time>
      </trkpt>
      <trkpt lat="43.21851" lon="5.50663">
        <ele>160.4</ele>
        <time>2025-10-19T08:07:48Z</time>
      </trkpt>
      <trkpt lat="43.21852" lon="5.50663">
        <ele>160.6</ele>
        <time>2025-10-19T08:07:49Z</time>
      </trkpt>
      <trkpt lat="43.21852" lon="5.50663">
        <ele>160.8</ele>
        <time>2025-10-19T08:07:50Z</time>
      </trkpt>
      <trkpt lat="43.21852" lon="5.50662">
        <ele>160.9</ele>
        <time>2025-10-19T08:07:51Z</time>
      </trkpt>
      <trkpt lat="43.21852" lon="5.50662">
        <ele>161.2</ele>
        <time>2025-10-19T08:07:52Z</time>
      </trkpt>
      <trkpt lat="43.21852" lon="5.50663">
        <ele>161.2</ele>
        <time>2025-10-19T08:07:53Z</time>
      </trkpt>
      <trkpt lat="43.21851" lon="5.50663">
        <ele>161.2</ele>
        <time>2025-10-19T08:07:54Z</time>
      </trkpt>
      <trkpt lat="43.21851" lon="5.50664">
        <ele>161.4</ele>
        <time>2025-10-19T08:07:55Z</time>
      </trkpt>
      <trkpt lat="43.2185" lon="5.50665">
        <ele>161.4</ele>
        <time>2025-10-19T08:07:56Z</time>
      </trkpt>
      <trkpt lat="43.21849" lon="5.50665">
        <ele>161.5</ele>
        <time>2025-10-19T08:07:57Z</time>
      </trkpt>
      <trkpt lat="43.21848" lon="5.50665">
        <ele>161.7</ele>
        <time>2025-10-19T08:07:58Z</time>
      </trkpt>
      <trkpt lat="43.21848" lon="5.50665">
        <ele>161.7</ele>
        <time>2025-10-19T08:07:59Z</time>
      </trkpt>
      <trkpt lat="43.21848" lon="5.50666">
        <ele>161.8</ele>
        <time>2025-10-19T08:08:00Z</time>
      </trkpt>
      <trkpt lat="43.21846" lon="5.50666">
        <ele>161.9</ele>
        <time>2025-10-19T08:08:01Z</time>
      </trkpt>
      <trkpt lat="43.21846" lon="5.50668">
        <ele>162</ele>
        <time>2025-10-19T08:08:02Z</time>
      </trkpt>
      <trkpt lat="43.21845" lon="5.50669">
        <ele>162.2</ele>
        <time>2025-10-19T08:08:03Z</time>
      </trkpt>
      <trkpt lat="43.21845" lon="5.50671">
        <ele>162.3</ele>
        <time>2025-10-19T08:08:04Z</time>
      </trkpt>
      <trkpt lat="43.21844" lon="5.50672">
        <ele>162.4</ele>
        <time>2025-10-19T08:08:05Z</time>
      </trkpt>
      <trkpt lat="43.21843" lon="5.50672">
        <ele>162.5</ele>
        <time>2025-10-19T08:08:06Z</time>
      </trkpt>
      <trkpt lat="43.21843" lon="5.50674">
        <ele>162.6</ele>
        <time>2025-10-19T08:08:07Z</time>
      </trkpt>
      <trkpt lat="43.21843" lon="5.50675">
        <ele>162.6</ele>
        <time>2025-10-19T08:08:08Z</time>
      </trkpt>
      <trkpt lat="43.21842" lon="5.50676">
        <ele>162.7</ele>
        <time>2025-10-19T08:08:09Z</time>
      </trkpt>
      <trkpt lat="43.21842" lon="5.50676">
        <ele>162.9</ele>
        <time>2025-10-19T08:08:10Z</time>
      </trkpt>
      <trkpt lat="43.21841" lon="5.50677">
        <ele>163</ele>
        <time>2025-10-19T08:08:11Z</time>
      </trkpt>
      <trkpt lat="43.2184" lon="5.50677">
        <ele>163.1</ele>
        <time>2025-10-19T08:08:12Z</time>
      </trkpt>
      <trkpt lat="43.21839" lon="5.50678">
        <ele>163.2</ele>
        <time>2025-10-19T08:08:13Z</time>
      </trkpt>
      <trkpt lat="43.21838" lon="5.50679">
        <ele>163.4</ele>
        <time>2025-10-19T08:08:14Z</time>
      </trkpt>
      <trkpt lat="43.21837" lon="5.50679">
        <ele>163.5</ele>
        <time>2025-10-19T08:08:15Z</time>
      </trkpt>
      <trkpt lat="43.21837" lon="5.5068">
        <ele>163.7</ele>
        <time>2025-10-19T08:08:16Z</time>
      </trkpt>
      <trkpt lat="43.21836" lon="5.50681">
        <ele>163.8</ele>
        <time>2025-10-19T08:08:17Z</time>
      </trkpt>
      <trkpt lat="43.21835" lon="5.50682">
        <ele>163.9</ele>
        <time>2025-10-19T08:08:18Z</time>
      </trkpt>
      <trkpt lat="43.21834" lon="5.50682">
        <ele>164.1</ele>
        <time>2025-10-19T08:08:19Z</time>
      </trkpt>
      <trkpt lat="43.21834" lon="5.50683">
        <ele>164.2</ele>
        <time>2025-10-19T08:08:20Z</time>
      </trkpt>
      <trkpt lat="43.21833" lon="5.50683">
        <ele>164.3</ele>
        <time>2025-10-19T08:08:21Z</time>
      </trkpt>
      <trkpt lat="43.21833" lon="5.50683">
        <ele>164.3</ele>
        <time>2025-10-19T08:08:22Z</time>
      </trkpt>
      <trkpt lat="43.21833" lon="5.50684">
        <ele>164.5</ele>
        <time>2025-10-19T08:08:23Z</time>
      </trkpt>
      <trkpt lat="43.21832" lon="5.50684">
        <ele>164.6</ele>
        <time>2025-10-19T08:08:24Z</time>
      </trkpt>
      <trkpt lat="43.21832" lon="5.50684">
        <ele>164.8</ele>
        <time>2025-10-19T08:08:25Z</time>
      </trkpt>
      <trkpt lat="43.21831" lon="5.50685">
        <ele>164.9</ele>
        <time>2025-10-19T08:08:26Z</time>
      </trkpt>
      <trkpt lat="43.21831" lon="5.50685">
        <ele>165.2</ele>
        <time>2025-10-19T08:08:27Z</time>
      </trkpt>
      <trkpt lat="43.21829" lon="5.50686">
        <ele>165.4</ele>
        <time>2025-10-19T08:08:28Z</time>
      </trkpt>
      <trkpt lat="43.21828" lon="5.50687">
        <ele>165.5</ele>
        <time>2025-10-19T08:08:29Z</time>
      </trkpt>
      <trkpt lat="43.21827" lon="5.50688">
        <ele>165.7</ele>
        <time>2025-10-19T08:08:30Z</time>
      </trkpt>
      <trkpt lat="43.21826" lon="5.50688">
        <ele>165.8</ele>
        <time>2025-10-19T08:08:31Z</time>
      </trkpt>
      <trkpt lat="43.21825" lon="5.50688">
        <ele>166</ele>
        <time>2025-10-19T08:08:32Z</time>
      </trkpt>
      <trkpt lat="43.21824" lon="5.50688">
        <ele>166.2</ele>
        <time>2025-10-19T08:08:33Z</time>
      </trkpt>
      <trkpt lat="43.21823" lon="5.50688">
        <ele>166.3</ele>
        <time>2025-10-19T08:08:34Z</time>
      </trkpt>
      <trkpt lat="43.21823" lon="5.50688">
        <ele>166.4</ele>
        <time>2025-10-19T08:08:35Z</time>
      </trkpt>
      <trkpt lat="43.21823" lon="5.50688">
        <ele>166.6</ele>
        <time>2025-10-19T08:08:36Z</time>
      </trkpt>
      <trkpt lat="43.21822" lon="5.50687">
        <ele>166.7</ele>
        <time>2025-10-19T08:08:37Z</time>
      </trkpt>
      <trkpt lat="43.21821" lon="5.50687">
        <ele>166.8</ele>
        <time>2025-10-19T08:08:38Z</time>
      </trkpt>
      <trkpt lat="43.21821" lon="5.50687">
        <ele>167</ele>
        <time>2025-10-19T08:08:39Z</time>
      </trkpt>
      <trkpt lat="43.21819" lon="5.50685">
        <ele>167.1</ele>
        <time>2025-10-19T08:08:40Z</time>
      </trkpt>
      <trkpt lat="43.21819" lon="5.50685">
        <ele>167.1</ele>
        <time>2025-10-19T08:08:41Z</time>
      </trkpt>
      <trkpt lat="43.21818" lon="5.50684">
        <ele>167.2</ele>
        <time>2025-10-19T08:08:42Z</time>
      </trkpt>
      <trkpt lat="43.21818" lon="5.50684">
        <ele>167.4</ele>
        <time>2025-10-19T08:08:43Z</time>
      </trkpt>
      <trkpt lat="43.21817" lon="5.50683">
        <ele>167.7</ele>
        <time>2025-10-19T08:08:44Z</time>
      </trkpt>
      <trkpt lat="43.21816" lon="5.50682">
        <ele>167.7</ele>
        <time>2025-10-19T08:08:45Z</time>
      </trkpt>
      <trkpt lat="43.21816" lon="5.50682">
        <ele>167.8</ele>
        <time>2025-10-19T08:08:46Z</time>
      </trkpt>
      <trkpt lat="43.21815" lon="5.50682">
        <ele>168</ele>
        <time>2025-10-19T08:08:47Z</time>
      </trkpt>
      <trkpt lat="43.21814" lon="5.50682">
        <ele>168</ele>
        <time>2025-10-19T08:08:48Z</time>
      </trkpt>
      <trkpt lat="43.21812" lon="5.50681">
        <ele>168.1</ele>
        <time>2025-10-19T08:08:49Z</time>
      </trkpt>
      <trkpt lat="43.2181" lon="5.5068">
        <ele>168.3</ele>
        <time>2025-10-19T08:08:50Z</time>
      </trkpt>
      <trkpt lat="43.21809" lon="5.5068">
        <ele>168.4</ele>
        <time>2025-10-19T08:08:51Z</time>
      </trkpt>
      <trkpt lat="43.21808" lon="5.50681">
        <ele>168.5</ele>
        <time>2025-10-19T08:08:52Z</time>
      </trkpt>
      <trkpt lat="43.21807" lon="5.50682">
        <ele>168.5</ele>
        <time>2025-10-19T08:08:53Z</time>
      </trkpt>
      <trkpt lat="43.21806" lon="5.50683">
        <ele>168.6</ele>
        <time>2025-10-19T08:08:54Z</time>
      </trkpt>
      <trkpt lat="43.21806" lon="5.50684">
        <ele>168.7</ele>
        <time>2025-10-19T08:08:55Z</time>
      </trkpt>
      <trkpt lat="43.21806" lon="5.50685">
        <ele>168.8</ele>
        <time>2025-10-19T08:08:56Z</time>
      </trkpt>
      <trkpt lat="43.21806" lon="5.50686">
        <ele>169</ele>
        <time>2025-10-19T08:08:57Z</time>
      </trkpt>
      <trkpt lat="43.21806" lon="5.50687">
        <ele>169.2</ele>
        <time>2025-10-19T08:08:58Z</time>
      </trkpt>
      <trkpt lat="43.21806" lon="5.50688">
        <ele>169.3</ele>
        <time>2025-10-19T08:08:59Z</time>
      </trkpt>
      <trkpt lat="43.21806" lon="5.50689">
        <ele>169.5</ele>
        <time>2025-10-19T08:09:00Z</time>
      </trkpt>
      <trkpt lat="43.21806" lon="5.5069">
        <ele>169.6</ele>
        <time>2025-10-19T08:09:01Z</time>
      </trkpt>
      <trkpt lat="43.21806" lon="5.5069">
        <ele>169.7</ele>
        <time>2025-10-19T08:09:02Z</time>
      </trkpt>
      <trkpt lat="43.21806" lon="5.50691">
        <ele>169.8</ele>
        <time>2025-10-19T08:09:03Z</time>
      </trkpt>
      <trkpt lat="43.21806" lon="5.50692">
        <ele>169.9</ele>
        <time>2025-10-19T08:09:04Z</time>
      </trkpt>
      <trkpt lat="43.21806" lon="5.50693">
        <ele>170.1</ele>
        <time>2025-10-19T08:09:05Z</time>
      </trkpt>
      <trkpt lat="43.21806" lon="5.50694">
        <ele>170.2</ele>
        <time>2025-10-19T08:09:06Z</time>
      </trkpt>
      <trkpt lat="43.21807" lon="5.50696">
        <ele>170.3</ele>
        <time>2025-10-19T08:09:07Z</time>
      </trkpt>
      <trkpt lat="43.21807" lon="5.50697">
        <ele>170.4</ele>
        <time>2025-10-19T08:09:08Z</time>
      </trkpt>
      <trkpt lat="43.21807" lon="5.50699">
        <ele>170.5</ele>
        <time>2025-10-19T08:09:09Z</time>
      </trkpt>
      <trkpt lat="43.21807" lon="5.507">
        <ele>170.7</ele>
        <time>2025-10-19T08:09:10Z</time>
      </trkpt>
      <trkpt lat="43.21807" lon="5.507">
        <ele>170.8</ele>
        <time>2025-10-19T08:09:11Z</time>
      </trkpt>
      <trkpt lat="43.21807" lon="5.50701">
        <ele>171</ele>
        <time>2025-10-19T08:09:12Z</time>
      </trkpt>
      <trkpt lat="43.21806" lon="5.50702">
        <ele>171.1</ele>
        <time>2025-10-19T08:09:13Z</time>
      </trkpt>
      <trkpt lat="43.21806" lon="5.50703">
        <ele>171.3</ele>
        <time>2025-10-19T08:09:14Z</time>
      </trkpt>
      <trkpt lat="43.21806" lon="5.50704">
        <ele>171.4</ele>
        <time>2025-10-19T08:09:15Z</time>
      </trkpt>
      <trkpt lat="43.21806" lon="5.50706">
        <ele>171.5</ele>
        <time>2025-10-19T08:09:16Z</time>
      </trkpt>
      <trkpt lat="43.21806" lon="5.50707">
        <ele>171.5</ele>
        <time>2025-10-19T08:09:17Z</time>
      </trkpt>
      <trkpt lat="43.21806" lon="5.50708">
        <ele>171.7</ele>
        <time>2025-10-19T08:09:18Z</time>
      </trkpt>
      <trkpt lat="43.21806" lon="5.50709">
        <ele>171.8</ele>
        <time>2025-10-19T08:09:19Z</time>
      </trkpt>
      <trkpt lat="43.21806" lon="5.5071">
        <ele>172</ele>
        <time>2025-10-19T08:09:20Z</time>
      </trkpt>
      <trkpt lat="43.21806" lon="5.50712">
        <ele>172.1</ele>
        <time>2025-10-19T08:09:21Z</time>
      </trkpt>
      <trkpt lat="43.21806" lon="5.50713">
        <ele>172.3</ele>
        <time>2025-10-19T08:09:22Z</time>
      </trkpt>
      <trkpt lat="43.21806" lon="5.50714">
        <ele>172.5</ele>
        <time>2025-10-19T08:09:23Z</time>
      </trkpt>
      <trkpt lat="43.21806" lon="5.50715">
        <ele>172.6</ele>
        <time>2025-10-19T08:09:24Z</time>
      </trkpt>
      <trkpt lat="43.21807" lon="5.50716">
        <ele>172.8</ele>
        <time>2025-10-19T08:09:25Z</time>
      </trkpt>
      <trkpt lat="43.21806" lon="5.50717">
        <ele>172.9</ele>
        <time>2025-10-19T08:09:26Z</time>
      </trkpt>
      <trkpt lat="43.21806" lon="5.50719">
        <ele>173.2</ele>
        <time>2025-10-19T08:09:27Z</time>
      </trkpt>
      <trkpt lat="43.21806" lon="5.5072">
        <ele>173.4</ele>
        <time>2025-10-19T08:09:28Z</time>
      </trkpt>
      <trkpt lat="43.21806" lon="5.5072">
        <ele>173.6</ele>
        <time>2025-10-19T08:09:29Z</time>
      </trkpt>
      <trkpt lat="43.21806" lon="5.50722">
        <ele>173.7</ele>
        <time>2025-10-19T08:09:30Z</time>
      </trkpt>
      <trkpt lat="43.21806" lon="5.50722">
        <ele>173.8</ele>
        <time>2025-10-19T08:09:31Z</time>
      </trkpt>
      <trkpt lat="43.21806" lon="5.50723">
        <ele>173.9</ele>
        <time>2025-10-19T08:09:32Z</time>
      </trkpt>
      <trkpt lat="43.21806" lon="5.50724">
        <ele>174.3</ele>
        <time>2025-10-19T08:09:33Z</time>
      </trkpt>
      <trkpt lat="43.21805" lon="5.50725">
        <ele>174.4</ele>
        <time>2025-10-19T08:09:34Z</time>
      </trkpt>
      <trkpt lat="43.21805" lon="5.50726">
        <ele>174.6</ele>
        <time>2025-10-19T08:09:35Z</time>
      </trkpt>
      <trkpt lat="43.21805" lon="5.50727">
        <ele>174.7</ele>
        <time>2025-10-19T08:09:36Z</time>
      </trkpt>
      <trkpt lat="43.21805" lon="5.50727">
        <ele>174.9</ele>
        <time>2025-10-19T08:09:37Z</time>
      </trkpt>
      <trkpt lat="43.21805" lon="5.50728">
        <ele>175</ele>
        <time>2025-10-19T08:09:38Z</time>
      </trkpt>
      <trkpt lat="43.21804" lon="5.50728">
        <ele>175.1</ele>
        <time>2025-10-19T08:09:39Z</time>
      </trkpt>
      <trkpt lat="43.21804" lon="5.50729">
        <ele>175.2</ele>
        <time>2025-10-19T08:09:40Z</time>
      </trkpt>
      <trkpt lat="43.21804" lon="5.5073">
        <ele>175.3</ele>
        <time>2025-10-19T08:09:41Z</time>
      </trkpt>
      <trkpt lat="43.21804" lon="5.50731">
        <ele>175.5</ele>
        <time>2025-10-19T08:09:42Z</time>
      </trkpt>
      <trkpt lat="43.21803" lon="5.50731">
        <ele>175.7</ele>
        <time>2025-10-19T08:09:43Z</time>
      </trkpt>
      <trkpt lat="43.21802" lon="5.50732">
        <ele>175.8</ele>
        <time>2025-10-19T08:09:44Z</time>
      </trkpt>
      <trkpt lat="43.21801" lon="5.50732">
        <ele>176</ele>
        <time>2025-10-19T08:09:45Z</time>
      </trkpt>
      <trkpt lat="43.218" lon="5.50732">
        <ele>176.1</ele>
        <time>2025-10-19T08:09:46Z</time>
      </trkpt>
      <trkpt lat="43.21799" lon="5.50733">
        <ele>176.2</ele>
        <time>2025-10-19T08:09:47Z</time>
      </trkpt>
      <trkpt lat="43.21799" lon="5.50734">
        <ele>176.3</ele>
        <time>2025-10-19T08:09:48Z</time>
      </trkpt>
      <trkpt lat="43.21798" lon="5.50735">
        <ele>176.4</ele>
        <time>2025-10-19T08:09:49Z</time>
      </trkpt>
      <trkpt lat="43.21797" lon="5.50735">
        <ele>176.5</ele>
        <time>2025-10-19T08:09:50Z</time>
      </trkpt>
      <trkpt lat="43.21796" lon="5.50735">
        <ele>176.7</ele>
        <time>2025-10-19T08:09:51Z</time>
      </trkpt>
      <trkpt lat="43.21795" lon="5.50736">
        <ele>176.8</ele>
        <time>2025-10-19T08:09:52Z</time>
      </trkpt>
      <trkpt lat="43.21794" lon="5.50737">
        <ele>176.9</ele>
        <time>2025-10-19T08:09:53Z</time>
      </trkpt>
      <trkpt lat="43.21794" lon="5.50737">
        <ele>177</ele>
        <time>2025-10-19T08:09:54Z</time>
      </trkpt>
      <trkpt lat="43.21793" lon="5.50738">
        <ele>177.1</ele>
        <time>2025-10-19T08:09:55Z</time>
      </trkpt>
      <trkpt lat="43.21792" lon="5.50739">
        <ele>177.2</ele>
        <time>2025-10-19T08:09:56Z</time>
      </trkpt>
      <trkpt lat="43.21791" lon="5.5074">
        <ele>177.3</ele>
        <time>2025-10-19T08:09:57Z</time>
      </trkpt>
      <trkpt lat="43.21791" lon="5.50741">
        <ele>177.4</ele>
        <time>2025-10-19T08:09:58Z</time>
      </trkpt>
      <trkpt lat="43.2179" lon="5.50742">
        <ele>177.5</ele>
        <time>2025-10-19T08:09:59Z</time>
      </trkpt>
      <trkpt lat="43.21789" lon="5.50744">
        <ele>177.8</ele>
        <time>2025-10-19T08:10:00Z</time>
      </trkpt>
      <trkpt lat="43.21789" lon="5.50744">
        <ele>178</ele>
        <time>2025-10-19T08:10:01Z</time>
      </trkpt>
      <trkpt lat="43.21788" lon="5.50745">
        <ele>178.1</ele>
        <time>2025-10-19T08:10:02Z</time>
      </trkpt>
      <trkpt lat="43.21787" lon="5.50746">
        <ele>178.3</ele>
        <time>2025-10-19T08:10:03Z</time>
      </trkpt>
      <trkpt lat="43.21786" lon="5.50747">
        <ele>178.3</ele>
        <time>2025-10-19T08:10:04Z</time>
      </trkpt>
      <trkpt lat="43.21785" lon="5.50748">
        <ele>178.4</ele>
        <time>2025-10-19T08:10:05Z</time>
      </trkpt>
      <trkpt lat="43.21784" lon="5.50749">
        <ele>178.4</ele>
        <time>2025-10-19T08:10:06Z</time>
      </trkpt>
      <trkpt lat="43.21783" lon="5.5075">
        <ele>178.6</ele>
        <time>2025-10-19T08:10:07Z</time>
      </trkpt>
      <trkpt lat="43.21783" lon="5.50751">
        <ele>178.7</ele>
        <time>2025-10-19T08:10:08Z</time>
      </trkpt>
      <trkpt lat="43.21782" lon="5.50751">
        <ele>178.8</ele>
        <time>2025-10-19T08:10:09Z</time>
      </trkpt>
      <trkpt lat="43.21781" lon="5.50752">
        <ele>179</ele>
        <time>2025-10-19T08:10:10Z</time>
      </trkpt>
      <trkpt lat="43.21781" lon="5.50754">
        <ele>179.1</ele>
        <time>2025-10-19T08:10:11Z</time>
      </trkpt>
      <trkpt lat="43.2178" lon="5.50755">
        <ele>179.2</ele>
        <time>2025-10-19T08:10:12Z</time>
      </trkpt>
      <trkpt lat="43.21779" lon="5.50756">
        <ele>179.3</ele>
        <time>2025-10-19T08:10:13Z</time>
      </trkpt>
      <trkpt lat="43.21778" lon="5.50757">
        <ele>179.3</ele>
        <time>2025-10-19T08:10:14Z</time>
      </trkpt>
      <trkpt lat="43.21777" lon="5.50758">
        <ele>179.5</ele>
        <time>2025-10-19T08:10:15Z</time>
      </trkpt>
      <trkpt lat="43.21777" lon="5.50759">
        <ele>179.6</ele>
        <time>2025-10-19T08:10:16Z</time>
      </trkpt>
      <trkpt lat="43.21776" lon="5.5076">
        <ele>179.7</ele>
        <time>2025-10-19T08:10:17Z</time>
      </trkpt>
      <trkpt lat="43.21775" lon="5.50761">
        <ele>179.8</ele>
        <time>2025-10-19T08:10:18Z</time>
      </trkpt>
      <trkpt lat="43.21775" lon="5.50762">
        <ele>179.9</ele>
        <time>2025-10-19T08:10:19Z</time>
      </trkpt>
      <trkpt lat="43.21774" lon="5.50763">
        <ele>180</ele>
        <time>2025-10-19T08:10:20Z</time>
      </trkpt>
      <trkpt lat="43.21773" lon="5.50764">
        <ele>180.1</ele>
        <time>2025-10-19T08:10:21Z</time>
      </trkpt>
      <trkpt lat="43.21773" lon="5.50765">
        <ele>180.2</ele>
        <time>2025-10-19T08:10:22Z</time>
      </trkpt>
      <trkpt lat="43.21772" lon="5.50766">
        <ele>180.3</ele>
        <time>2025-10-19T08:10:23Z</time>
      </trkpt>
      <trkpt lat="43.21771" lon="5.50767">
        <ele>180.4</ele>
        <time>2025-10-19T08:10:24Z</time>
      </trkpt>
      <trkpt lat="43.21771" lon="5.50768">
        <ele>180.5</ele>
        <time>2025-10-19T08:10:25Z</time>
      </trkpt>
      <trkpt lat="43.2177" lon="5.5077">
        <ele>180.6</ele>
        <time>2025-10-19T08:10:26Z</time>
      </trkpt>
      <trkpt lat="43.21769" lon="5.50771">
        <ele>180.7</ele>
        <time>2025-10-19T08:10:27Z</time>
      </trkpt>
      <trkpt lat="43.21769" lon="5.50772">
        <ele>180.8</ele>
        <time>2025-10-19T08:10:28Z</time>
      </trkpt>
      <trkpt lat="43.21768" lon="5.50772">
        <ele>180.9</ele>
        <time>2025-10-19T08:10:29Z</time>
      </trkpt>
      <trkpt lat="43.21768" lon="5.50774">
        <ele>181.1</ele>
        <time>2025-10-19T08:10:30Z</time>
      </trkpt>
      <trkpt lat="43.21767" lon="5.50775">
        <ele>181</ele>
        <time>2025-10-19T08:10:31Z</time>
      </trkpt>
      <trkpt lat="43.21766" lon="5.50775">
        <ele>181.1</ele>
        <time>2025-10-19T08:10:32Z</time>
      </trkpt>
      <trkpt lat="43.21765" lon="5.50776">
        <ele>181.1</ele>
        <time>2025-10-19T08:10:33Z</time>
      </trkpt>
      <trkpt lat="43.21765" lon="5.50778">
        <ele>181.2</ele>
        <time>2025-10-19T08:10:34Z</time>
      </trkpt>
      <trkpt lat="43.21764" lon="5.50779">
        <ele>181.3</ele>
        <time>2025-10-19T08:10:35Z</time>
      </trkpt>
      <trkpt lat="43.21763" lon="5.5078">
        <ele>181.3</ele>
        <time>2025-10-19T08:10:36Z</time>
      </trkpt>
      <trkpt lat="43.21762" lon="5.50781">
        <ele>181.3</ele>
        <time>2025-10-19T08:10:37Z</time>
      </trkpt>
      <trkpt lat="43.21761" lon="5.50782">
        <ele>181.4</ele>
        <time>2025-10-19T08:10:38Z</time>
      </trkpt>
      <trkpt lat="43.2176" lon="5.50783">
        <ele>181.4</ele>
        <time>2025-10-19T08:10:39Z</time>
      </trkpt>
      <trkpt lat="43.21759" lon="5.50784">
        <ele>181.5</ele>
        <time>2025-10-19T08:10:40Z</time>
      </trkpt>
      <trkpt lat="43.21758" lon="5.50785">
        <ele>181.6</ele>
        <time>2025-10-19T08:10:41Z</time>
      </trkpt>
      <trkpt lat="43.21757" lon="5.50785">
        <ele>181.7</ele>
        <time>2025-10-19T08:10:42Z</time>
      </trkpt>
      <trkpt lat="43.21756" lon="5.50786">
        <ele>181.9</ele>
        <time>2025-10-19T08:10:43Z</time>
      </trkpt>
      <trkpt lat="43.21755" lon="5.50787">
        <ele>181.9</ele>
        <time>2025-10-19T08:10:44Z</time>
      </trkpt>
      <trkpt lat="43.21755" lon="5.50789">
        <ele>182</ele>
        <time>2025-10-19T08:10:45Z</time>
      </trkpt>
      <trkpt lat="43.21754" lon="5.5079">
        <ele>181.9</ele>
        <time>2025-10-19T08:10:46Z</time>
      </trkpt>
      <trkpt lat="43.21753" lon="5.50791">
        <ele>181.9</ele>
        <time>2025-10-19T08:10:47Z</time>
      </trkpt>
      <trkpt lat="43.21753" lon="5.50792">
        <ele>181.9</ele>
        <time>2025-10-19T08:10:48Z</time>
      </trkpt>
      <trkpt lat="43.21752" lon="5.50793">
        <ele>181.9</ele>
        <time>2025-10-19T08:10:49Z</time>
      </trkpt>
      <trkpt lat="43.21751" lon="5.50794">
        <ele>181.8</ele>
        <time>2025-10-19T08:10:50Z</time>
      </trkpt>
      <trkpt lat="43.2175" lon="5.50795">
        <ele>181.8</ele>
        <time>2025-10-19T08:10:51Z</time>
      </trkpt>
      <trkpt lat="43.2175" lon="5.50796">
        <ele>181.8</ele>
        <time>2025-10-19T08:10:52Z</time>
      </trkpt>
      <trkpt lat="43.21749" lon="5.50797">
        <ele>181.8</ele>
        <time>2025-10-19T08:10:53Z</time>
      </trkpt>
      <trkpt lat="43.21748" lon="5.50798">
        <ele>181.9</ele>
        <time>2025-10-19T08:10:54Z</time>
      </trkpt>
      <trkpt lat="43.21747" lon="5.50799">
        <ele>181.9</ele>
        <time>2025-10-19T08:10:55Z</time>
      </trkpt>
      <trkpt lat="43.21746" lon="5.50799">
        <ele>181.8</ele>
        <time>2025-10-19T08:10:56Z</time>
      </trkpt>
      <trkpt lat="43.21745" lon="5.508">
        <ele>181.8</ele>
        <time>2025-10-19T08:10:57Z</time>
      </trkpt>
      <trkpt lat="43.21744" lon="5.50801">
        <ele>181.9</ele>
        <time>2025-10-19T08:10:58Z</time>
      </trkpt>
      <trkpt lat="43.21743" lon="5.50801">
        <ele>181.9</ele>
        <time>2025-10-19T08:10:59Z</time>
      </trkpt>
      <trkpt lat="43.21743" lon="5.50803">
        <ele>181.9</ele>
        <time>2025-10-19T08:11:00Z</time>
      </trkpt>
      <trkpt lat="43.21742" lon="5.50803">
        <ele>182</ele>
        <time>2025-10-19T08:11:01Z</time>
      </trkpt>
      <trkpt lat="43.21741" lon="5.50803">
        <ele>182</ele>
        <time>2025-10-19T08:11:02Z</time>
      </trkpt>
      <trkpt lat="43.21741" lon="5.50803">
        <ele>182</ele>
        <time>2025-10-19T08:11:03Z</time>
      </trkpt>
      <trkpt lat="43.21741" lon="5.50803">
        <ele>182</ele>
        <time>2025-10-19T08:11:04Z</time>
      </trkpt>
      <trkpt lat="43.21741" lon="5.50803">
        <ele>182</ele>
        <time>2025-10-19T08:11:05Z</time>
      </trkpt>
      <trkpt lat="43.21741" lon="5.50803">
        <ele>182.1</ele>
        <time>2025-10-19T08:11:06Z</time>
      </trkpt>
      <trkpt lat="43.21741" lon="5.50803">
        <ele>182</ele>
        <time>2025-10-19T08:11:07Z</time>
      </trkpt>
      <trkpt lat="43.21741" lon="5.50803">
        <ele>182</ele>
        <time>2025-10-19T08:11:08Z</time>
      </trkpt>
      <trkpt lat="43.21741" lon="5.50803">
        <ele>181.9</ele>
        <time>2025-10-19T08:11:09Z</time>
      </trkpt>
      <trkpt lat="43.2174" lon="5.50803">
        <ele>181.9</ele>
        <time>2025-10-19T08:11:10Z</time>
      </trkpt>
      <trkpt lat="43.2174" lon="5.50804">
        <ele>181.9</ele>
        <time>2025-10-19T08:11:11Z</time>
      </trkpt>
      <trkpt lat="43.21739" lon="5.50806">
        <ele>181.8</ele>
        <time>2025-10-19T08:11:12Z</time>
      </trkpt>
      <trkpt lat="43.21739" lon="5.50808">
        <ele>181.8</ele>
        <time>2025-10-19T08:11:13Z</time>
      </trkpt>
      <trkpt lat="43.21739" lon="5.50809">
        <ele>181.8</ele>
        <time>2025-10-19T08:11:14Z</time>
      </trkpt>
      <trkpt lat="43.21738" lon="5.5081">
        <ele>181.8</ele>
        <time>2025-10-19T08:11:15Z</time>
      </trkpt>
      <trkpt lat="43.21737" lon="5.50811">
        <ele>181.8</ele>
        <time>2025-10-19T08:11:16Z</time>
      </trkpt>
      <trkpt lat="43.21737" lon="5.50812">
        <ele>181.8</ele>
        <time>2025-10-19T08:11:17Z</time>
      </trkpt>
      <trkpt lat="43.21736" lon="5.50813">
        <ele>181.8</ele>
        <time>2025-10-19T08:11:18Z</time>
      </trkpt>
      <trkpt lat="43.21736" lon="5.50813">
        <ele>181.9</ele>
        <time>2025-10-19T08:11:19Z</time>
      </trkpt>
      <trkpt lat="43.21735" lon="5.50814">
        <ele>181.9</ele>
        <time>2025-10-19T08:11:20Z</time>
      </trkpt>
      <trkpt lat="43.21734" lon="5.50815">
        <ele>181.9</ele>
        <time>2025-10-19T08:11:21Z</time>
      </trkpt>
      <trkpt lat="43.21734" lon="5.50816">
        <ele>181.9</ele>
        <time>2025-10-19T08:11:22Z</time>
      </trkpt>
      <trkpt lat="43.21733" lon="5.50817">
        <ele>181.9</ele>
        <time>2025-10-19T08:11:23Z</time>
      </trkpt>
      <trkpt lat="43.21733" lon="5.50818">
        <ele>181.8</ele>
        <time>2025-10-19T08:11:24Z</time>
      </trkpt>
      <trkpt lat="43.21732" lon="5.50819">
        <ele>181.8</ele>
        <time>2025-10-19T08:11:25Z</time>
      </trkpt>
      <trkpt lat="43.21731" lon="5.5082">
        <ele>181.8</ele>
        <time>2025-10-19T08:11:26Z</time>
      </trkpt>
      <trkpt lat="43.2173" lon="5.50821">
        <ele>181.8</ele>
        <time>2025-10-19T08:11:27Z</time>
      </trkpt>
      <trkpt lat="43.2173" lon="5.50822">
        <ele>181.8</ele>
        <time>2025-10-19T08:11:28Z</time>
      </trkpt>
      <trkpt lat="43.21729" lon="5.50823">
        <ele>181.8</ele>
        <time>2025-10-19T08:11:29Z</time>
      </trkpt>
      <trkpt lat="43.21728" lon="5.50823">
        <ele>181.9</ele>
        <time>2025-10-19T08:11:30Z</time>
      </trkpt>
      <trkpt lat="43.21728" lon="5.50824">
        <ele>182.1</ele>
        <time>2025-10-19T08:11:31Z</time>
      </trkpt>
      <trkpt lat="43.21727" lon="5.50825">
        <ele>182.1</ele>
        <time>2025-10-19T08:11:32Z</time>
      </trkpt>
      <trkpt lat="43.21727" lon="5.50827">
        <ele>182.1</ele>
        <time>2025-10-19T08:11:33Z</time>
      </trkpt>
      <trkpt lat="43.21726" lon="5.50828">
        <ele>182.1</ele>
        <time>2025-10-19T08:11:34Z</time>
      </trkpt>
      <trkpt lat="43.21726" lon="5.50829">
        <ele>182.1</ele>
        <time>2025-10-19T08:11:35Z</time>
      </trkpt>
      <trkpt lat="43.21725" lon="5.50831">
        <ele>182.1</ele>
        <time>2025-10-19T08:11:36Z</time>
      </trkpt>
      <trkpt lat="43.21725" lon="5.50832">
        <ele>182.1</ele>
        <time>2025-10-19T08:11:37Z</time>
      </trkpt>
      <trkpt lat="43.21724" lon="5.50834">
        <ele>182.1</ele>
        <time>2025-10-19T08:11:38Z</time>
      </trkpt>
      <trkpt lat="43.21724" lon="5.50835">
        <ele>182</ele>
        <time>2025-10-19T08:11:39Z</time>
      </trkpt>
      <trkpt lat="43.21723" lon="5.50836">
        <ele>182.1</ele>
        <time>2025-10-19T08:11:40Z</time>
      </trkpt>
      <trkpt lat="43.21723" lon="5.50837">
        <ele>182.1</ele>
        <time>2025-10-19T08:11:41Z</time>
      </trkpt>
      <trkpt lat="43.21722" lon="5.50838">
        <ele>182</ele>
        <time>2025-10-19T08:11:42Z</time>
      </trkpt>
      <trkpt lat="43.21721" lon="5.50839">
        <ele>182</ele>
        <time>2025-10-19T08:11:43Z</time>
      </trkpt>
      <trkpt lat="43.2172" lon="5.50841">
        <ele>181.9</ele>
        <time>2025-10-19T08:11:44Z</time>
      </trkpt>
      <trkpt lat="43.2172" lon="5.50843">
        <ele>182</ele>
        <time>2025-10-19T08:11:45Z</time>
      </trkpt>
      <trkpt lat="43.21719" lon="5.50844">
        <ele>182</ele>
        <time>2025-10-19T08:11:46Z</time>
      </trkpt>
      <trkpt lat="43.21718" lon="5.50845">
        <ele>182.1</ele>
        <time>2025-10-19T08:11:47Z</time>
      </trkpt>
      <trkpt lat="43.21718" lon="5.50846">
        <ele>182.1</ele>
        <time>2025-10-19T08:11:48Z</time>
      </trkpt>
      <trkpt lat="43.21717" lon="5.50847">
        <ele>182.1</ele>
        <time>2025-10-19T08:11:49Z</time>
      </trkpt>
      <trkpt lat="43.21716" lon="5.50848">
        <ele>182.1</ele>
        <time>2025-10-19T08:11:50Z</time>
      </trkpt>
      <trkpt lat="43.21715" lon="5.50848">
        <ele>182.1</ele>
        <time>2025-10-19T08:11:51Z</time>
      </trkpt>
      <trkpt lat="43.21714" lon="5.50849">
        <ele>182.1</ele>
        <time>2025-10-19T08:11:52Z</time>
      </trkpt>
      <trkpt lat="43.21714" lon="5.5085">
        <ele>182.1</ele>
        <time>2025-10-19T08:11:53Z</time>
      </trkpt>
      <trkpt lat="43.21713" lon="5.50851">
        <ele>182.1</ele>
        <time>2025-10-19T08:11:54Z</time>
      </trkpt>
      <trkpt lat="43.21712" lon="5.50851">
        <ele>182</ele>
        <time>2025-10-19T08:11:55Z</time>
      </trkpt>
      <trkpt lat="43.21711" lon="5.50852">
        <ele>182</ele>
        <time>2025-10-19T08:11:56Z</time>
      </trkpt>
      <trkpt lat="43.2171" lon="5.50853">
        <ele>182.1</ele>
        <time>2025-10-19T08:11:57Z</time>
      </trkpt>
      <trkpt lat="43.21709" lon="5.50854">
        <ele>182.2</ele>
        <time>2025-10-19T08:11:58Z</time>
      </trkpt>
      <trkpt lat="43.21708" lon="5.50855">
        <ele>182.1</ele>
        <time>2025-10-19T08:11:59Z</time>
      </trkpt>
      <trkpt lat="43.21707" lon="5.50855">
        <ele>182</ele>
        <time>2025-10-19T08:12:00Z</time>
      </trkpt>
      <trkpt lat="43.21706" lon="5.50856">
        <ele>181.9</ele>
        <time>2025-10-19T08:12:01Z</time>
      </trkpt>
      <trkpt lat="43.21706" lon="5.50858">
        <ele>181.8</ele>
        <time>2025-10-19T08:12:02Z</time>
      </trkpt>
      <trkpt lat="43.21705" lon="5.50859">
        <ele>181.9</ele>
        <time>2025-10-19T08:12:03Z</time>
      </trkpt>
      <trkpt lat="43.21705" lon="5.50859">
        <ele>181.8</ele>
        <time>2025-10-19T08:12:04Z</time>
      </trkpt>
      <trkpt lat="43.21704" lon="5.50861">
        <ele>181.7</ele>
        <time>2025-10-19T08:12:05Z</time>
      </trkpt>
      <trkpt lat="43.21703" lon="5.50862">
        <ele>181.7</ele>
        <time>2025-10-19T08:12:06Z</time>
      </trkpt>
      <trkpt lat="43.21702" lon="5.50863">
        <ele>181.7</ele>
        <time>2025-10-19T08:12:07Z</time>
      </trkpt>
      <trkpt lat="43.21701" lon="5.50864">
        <ele>181.7</ele>
        <time>2025-10-19T08:12:08Z</time>
      </trkpt>
      <trkpt lat="43.217" lon="5.50865">
        <ele>181.7</ele>
        <time>2025-10-19T08:12:09Z</time>
      </trkpt>
      <trkpt lat="43.217" lon="5.50866">
        <ele>181.6</ele>
        <time>2025-10-19T08:12:10Z</time>
      </trkpt>
      <trkpt lat="43.21699" lon="5.50866">
        <ele>181.6</ele>
        <time>2025-10-19T08:12:11Z</time>
      </trkpt>
      <trkpt lat="43.21699" lon="5.50867">
        <ele>181.6</ele>
        <time>2025-10-19T08:12:12Z</time>
      </trkpt>
      <trkpt lat="43.21698" lon="5.50867">
        <ele>181.5</ele>
        <time>2025-10-19T08:12:13Z</time>
      </trkpt>
      <trkpt lat="43.21697" lon="5.50868">
        <ele>181.4</ele>
        <time>2025-10-19T08:12:14Z</time>
      </trkpt>
      <trkpt lat="43.21696" lon="5.50868">
        <ele>181.3</ele>
        <time>2025-10-19T08:12:15Z</time>
      </trkpt>
      <trkpt lat="43.21696" lon="5.50869">
        <ele>181.2</ele>
        <time>2025-10-19T08:12:16Z</time>
      </trkpt>
      <trkpt lat="43.21696" lon="5.50871">
        <ele>181.1</ele>
        <time>2025-10-19T08:12:17Z</time>
      </trkpt>
      <trkpt lat="43.21696" lon="5.50873">
        <ele>181.1</ele>
        <time>2025-10-19T08:12:18Z</time>
      </trkpt>
      <trkpt lat="43.21696" lon="5.50873">
        <ele>181.1</ele>
        <time>2025-10-19T08:12:19Z</time>
      </trkpt>
      <trkpt lat="43.21696" lon="5.50873">
        <ele>181.1</ele>
        <time>2025-10-19T08:12:20Z</time>
      </trkpt>
      <trkpt lat="43.21696" lon="5.50874">
        <ele>181</ele>
        <time>2025-10-19T08:12:21Z</time>
      </trkpt>
      <trkpt lat="43.21697" lon="5.50875">
        <ele>181.1</ele>
        <time>2025-10-19T08:12:22Z</time>
      </trkpt>
      <trkpt lat="43.21697" lon="5.50875">
        <ele>181.1</ele>
        <time>2025-10-19T08:12:23Z</time>
      </trkpt>
      <trkpt lat="43.21697" lon="5.50876">
        <ele>181.2</ele>
        <time>2025-10-19T08:12:24Z</time>
      </trkpt>
      <trkpt lat="43.21697" lon="5.50876">
        <ele>181.1</ele>
        <time>2025-10-19T08:12:25Z</time>
      </trkpt>
      <trkpt lat="43.21697" lon="5.50876">
        <ele>181.1</ele>
        <time>2025-10-19T08:12:26Z</time>
      </trkpt>
      <trkpt lat="43.21697" lon="5.50877">
        <ele>181.1</ele>
        <time>2025-10-19T08:12:27Z</time>
      </trkpt>
      <trkpt lat="43.21698" lon="5.50877">
        <ele>181.2</ele>
        <time>2025-10-19T08:12:28Z</time>
      </trkpt>
      <trkpt lat="43.21698" lon="5.50877">
        <ele>181.3</ele>
        <time>2025-10-19T08:12:29Z</time>
      </trkpt>
      <trkpt lat="43.21698" lon="5.50878">
        <ele>181.3</ele>
        <time>2025-10-19T08:12:30Z</time>
      </trkpt>
      <trkpt lat="43.21698" lon="5.50878">
        <ele>181.4</ele>
        <time>2025-10-19T08:12:31Z</time>
      </trkpt>
      <trkpt lat="43.21698" lon="5.50878">
        <ele>181.4</ele>
        <time>2025-10-19T08:12:32Z</time>
      </trkpt>
      <trkpt lat="43.21698" lon="5.50878">
        <ele>181.4</ele>
        <time>2025-10-19T08:12:33Z</time>
      </trkpt>
      <trkpt lat="43.21698" lon="5.50878">
        <ele>181.4</ele>
        <time>2025-10-19T08:12:34Z</time>
      </trkpt>
      <trkpt lat="43.21698" lon="5.50878">
        <ele>181.5</ele>
        <time>2025-10-19T08:12:35Z</time>
      </trkpt>
      <trkpt lat="43.21698" lon="5.50879">
        <ele>181.5</ele>
        <time>2025-10-19T08:12:36Z</time>
      </trkpt>
      <trkpt lat="43.21698" lon="5.50879">
        <ele>181.4</ele>
        <time>2025-10-19T08:12:37Z</time>
      </trkpt>
      <trkpt lat="43.21697" lon="5.50879">
        <ele>181.3</ele>
        <time>2025-10-19T08:12:38Z</time>
      </trkpt>
      <trkpt lat="43.21697" lon="5.50879">
        <ele>181.4</ele>
        <time>2025-10-19T08:12:39Z</time>
      </trkpt>
      <trkpt lat="43.21696" lon="5.50879">
        <ele>181.5</ele>
        <time>2025-10-19T08:12:40Z</time>
      </trkpt>
      <trkpt lat="43.21696" lon="5.50879">
        <ele>181.4</ele>
        <time>2025-10-19T08:12:41Z</time>
      </trkpt>
      <trkpt lat="43.21695" lon="5.50878">
        <ele>181.5</ele>
        <time>2025-10-19T08:12:42Z</time>
      </trkpt>
      <trkpt lat="43.21694" lon="5.50878">
        <ele>181.4</ele>
        <time>2025-10-19T08:12:43Z</time>
      </trkpt>
      <trkpt lat="43.21693" lon="5.50878">
        <ele>181.4</ele>
        <time>2025-10-19T08:12:44Z</time>
      </trkpt>
      <trkpt lat="43.21693" lon="5.50877">
        <ele>181.3</ele>
        <time>2025-10-19T08:12:45Z</time>
      </trkpt>
      <trkpt lat="43.21692" lon="5.50876">
        <ele>181.3</ele>
        <time>2025-10-19T08:12:46Z</time>
      </trkpt>
      <trkpt lat="43.21691" lon="5.50876">
        <ele>181.2</ele>
        <time>2025-10-19T08:12:47Z</time>
      </trkpt>
      <trkpt lat="43.2169" lon="5.50875">
        <ele>181.1</ele>
        <time>2025-10-19T08:12:48Z</time>
      </trkpt>
      <trkpt lat="43.2169" lon="5.50875">
        <ele>181</ele>
        <time>2025-10-19T08:12:49Z</time>
      </trkpt>
      <trkpt lat="43.21689" lon="5.50874">
        <ele>181.1</ele>
        <time>2025-10-19T08:12:50Z</time>
      </trkpt>
      <trkpt lat="43.21688" lon="5.50873">
        <ele>181</ele>
        <time>2025-10-19T08:12:51Z</time>
      </trkpt>
      <trkpt lat="43.21688" lon="5.50872">
        <ele>181</ele>
        <time>2025-10-19T08:12:52Z</time>
      </trkpt>
      <trkpt lat="43.21687" lon="5.50871">
        <ele>181</ele>
        <time>2025-10-19T08:12:53Z</time>
      </trkpt>
      <trkpt lat="43.21686" lon="5.50871">
        <ele>180.9</ele>
        <time>2025-10-19T08:12:54Z</time>
      </trkpt>
      <trkpt lat="43.21686" lon="5.5087">
        <ele>180.8</ele>
        <time>2025-10-19T08:12:55Z</time>
      </trkpt>
      <trkpt lat="43.21685" lon="5.50869">
        <ele>180.8</ele>
        <time>2025-10-19T08:12:56Z</time>
      </trkpt>
      <trkpt lat="43.21684" lon="5.50867">
        <ele>180.7</ele>
        <time>2025-10-19T08:12:57Z</time>
      </trkpt>
      <trkpt lat="43.21684" lon="5.50866">
        <ele>180.6</ele>
        <time>2025-10-19T08:12:58Z</time>
      </trkpt>
      <trkpt lat="43.21683" lon="5.50866">
        <ele>180.5</ele>
        <time>2025-10-19T08:12:59Z</time>
      </trkpt>
      <trkpt lat="43.21682" lon="5.50865">
        <ele>180.5</ele>
        <time>2025-10-19T08:13:00Z</time>
      </trkpt>
      <trkpt lat="43.21681" lon="5.50864">
        <ele>180.4</ele>
        <time>2025-10-19T08:13:01Z</time>
      </trkpt>
      <trkpt lat="43.2168" lon="5.50863">
        <ele>180.4</ele>
        <time>2025-10-19T08:13:02Z</time>
      </trkpt>
      <trkpt lat="43.21679" lon="5.50862">
        <ele>180.4</ele>
        <time>2025-10-19T08:13:03Z</time>
      </trkpt>
      <trkpt lat="43.21678" lon="5.50861">
        <ele>180.4</ele>
        <time>2025-10-19T08:13:04Z</time>
      </trkpt>
      <trkpt lat="43.21677" lon="5.5086">
        <ele>180.3</ele>
        <time>2025-10-19T08:13:05Z</time>
      </trkpt>
      <trkpt lat="43.21677" lon="5.50859">
        <ele>180.3</ele>
        <time>2025-10-19T08:13:06Z</time>
      </trkpt>
      <trkpt lat="43.21676" lon="5.50858">
        <ele>180.3</ele>
        <time>2025-10-19T08:13:07Z</time>
      </trkpt>
      <trkpt lat="43.21676" lon="5.50857">
        <ele>180.2</ele>
        <time>2025-10-19T08:13:08Z</time>
      </trkpt>
      <trkpt lat="43.21675" lon="5.50856">
        <ele>180.2</ele>
        <time>2025-10-19T08:13:09Z</time>
      </trkpt>
      <trkpt lat="43.21674" lon="5.50855">
        <ele>180.2</ele>
        <time>2025-10-19T08:13:10Z</time>
      </trkpt>
      <trkpt lat="43.21673" lon="5.50854">
        <ele>180.1</ele>
        <time>2025-10-19T08:13:11Z</time>
      </trkpt>
      <trkpt lat="43.21673" lon="5.50852">
        <ele>180.2</ele>
        <time>2025-10-19T08:13:12Z</time>
      </trkpt>
      <trkpt lat="43.21672" lon="5.50851">
        <ele>180.2</ele>
        <time>2025-10-19T08:13:13Z</time>
      </trkpt>
      <trkpt lat="43.21672" lon="5.5085">
        <ele>180.1</ele>
        <time>2025-10-19T08:13:14Z</time>
      </trkpt>
      <trkpt lat="43.21671" lon="5.50849">
        <ele>180.1</ele>
        <time>2025-10-19T08:13:15Z</time>
      </trkpt>
      <trkpt lat="43.2167" lon="5.50848">
        <ele>180.2</ele>
        <time>2025-10-19T08:13:16Z</time>
      </trkpt>
      <trkpt lat="43.21669" lon="5.50847">
        <ele>180.2</ele>
        <time>2025-10-19T08:13:17Z</time>
      </trkpt>
      <trkpt lat="43.21669" lon="5.50846">
        <ele>180.2</ele>
        <time>2025-10-19T08:13:18Z</time>
      </trkpt>
      <trkpt lat="43.21668" lon="5.50845">
        <ele>180.3</ele>
        <time>2025-10-19T08:13:19Z</time>
      </trkpt>
      <trkpt lat="43.21668" lon="5.50844">
        <ele>180.2</ele>
        <time>2025-10-19T08:13:20Z</time>
      </trkpt>
      <trkpt lat="43.21667" lon="5.50843">
        <ele>180.2</ele>
        <time>2025-10-19T08:13:21Z</time>
      </trkpt>
      <trkpt lat="43.21666" lon="5.50842">
        <ele>180.1</ele>
        <time>2025-10-19T08:13:22Z</time>
      </trkpt>
      <trkpt lat="43.21666" lon="5.5084">
        <ele>180.1</ele>
        <time>2025-10-19T08:13:23Z</time>
      </trkpt>
      <trkpt lat="43.21665" lon="5.50839">
        <ele>180</ele>
        <time>2025-10-19T08:13:24Z</time>
      </trkpt>
      <trkpt lat="43.21664" lon="5.50838">
        <ele>179.9</ele>
        <time>2025-10-19T08:13:25Z</time>
      </trkpt>
      <trkpt lat="43.21663" lon="5.50837">
        <ele>179.9</ele>
        <time>2025-10-19T08:13:26Z</time>
      </trkpt>
      <trkpt lat="43.21663" lon="5.50836">
        <ele>179.9</ele>
        <time>2025-10-19T08:13:27Z</time>
      </trkpt>
      <trkpt lat="43.21662" lon="5.50835">
        <ele>179.9</ele>
        <time>2025-10-19T08:13:28Z</time>
      </trkpt>
      <trkpt lat="43.21661" lon="5.50834">
        <ele>179.9</ele>
        <time>2025-10-19T08:13:29Z</time>
      </trkpt>
      <trkpt lat="43.2166" lon="5.50833">
        <ele>179.9</ele>
        <time>2025-10-19T08:13:30Z</time>
      </trkpt>
      <trkpt lat="43.21659" lon="5.50832">
        <ele>179.9</ele>
        <time>2025-10-19T08:13:31Z</time>
      </trkpt>
      <trkpt lat="43.21659" lon="5.50831">
        <ele>179.9</ele>
        <time>2025-10-19T08:13:32Z</time>
      </trkpt>
      <trkpt lat="43.21658" lon="5.5083">
        <ele>179.9</ele>
        <time>2025-10-19T08:13:33Z</time>
      </trkpt>
      <trkpt lat="43.21657" lon="5.50829">
        <ele>179.8</ele>
        <time>2025-10-19T08:13:34Z</time>
      </trkpt>
      <trkpt lat="43.21657" lon="5.50828">
        <ele>179.7</ele>
        <time>2025-10-19T08:13:35Z</time>
      </trkpt>
      <trkpt lat="43.21657" lon="5.50827">
        <ele>179.7</ele>
        <time>2025-10-19T08:13:36Z</time>
      </trkpt>
      <trkpt lat="43.21657" lon="5.50826">
        <ele>179.7</ele>
        <time>2025-10-19T08:13:37Z</time>
      </trkpt>
      <trkpt lat="43.21656" lon="5.50825">
        <ele>179.7</ele>
        <time>2025-10-19T08:13:38Z</time>
      </trkpt>
      <trkpt lat="43.21655" lon="5.50824">
        <ele>179.8</ele>
        <time>2025-10-19T08:13:39Z</time>
      </trkpt>
      <trkpt lat="43.21654" lon="5.50823">
        <ele>179.8</ele>
        <time>2025-10-19T08:13:40Z</time>
      </trkpt>
      <trkpt lat="43.21654" lon="5.50822">
        <ele>179.8</ele>
        <time>2025-10-19T08:13:41Z</time>
      </trkpt>
      <trkpt lat="43.21653" lon="5.50821">
        <ele>179.8</ele>
        <time>2025-10-19T08:13:42Z</time>
      </trkpt>
      <trkpt lat="43.21651" lon="5.5082">
        <ele>179.9</ele>
        <time>2025-10-19T08:13:43Z</time>
      </trkpt>
      <trkpt lat="43.2165" lon="5.50819">
        <ele>179.9</ele>
        <time>2025-10-19T08:13:44Z</time>
      </trkpt>
      <trkpt lat="43.21649" lon="5.50818">
        <ele>179.9</ele>
        <time>2025-10-19T08:13:45Z</time>
      </trkpt>
      <trkpt lat="43.21648" lon="5.50818">
        <ele>179.9</ele>
        <time>2025-10-19T08:13:46Z</time>
      </trkpt>
      <trkpt lat="43.21647" lon="5.50817">
        <ele>179.8</ele>
        <time>2025-10-19T08:13:47Z</time>
      </trkpt>
      <trkpt lat="43.21646" lon="5.50817">
        <ele>179.8</ele>
        <time>2025-10-19T08:13:48Z</time>
      </trkpt>
      <trkpt lat="43.21645" lon="5.50816">
        <ele>179.9</ele>
        <time>2025-10-19T08:13:49Z</time>
      </trkpt>
      <trkpt lat="43.21644" lon="5.50816">
        <ele>180</ele>
        <time>2025-10-19T08:13:50Z</time>
      </trkpt>
      <trkpt lat="43.21642" lon="5.50814">
        <ele>179.9</ele>
        <time>2025-10-19T08:13:51Z</time>
      </trkpt>
      <trkpt lat="43.21641" lon="5.50814">
        <ele>179.9</ele>
        <time>2025-10-19T08:13:52Z</time>
      </trkpt>
      <trkpt lat="43.2164" lon="5.50813">
        <ele>179.9</ele>
        <time>2025-10-19T08:13:53Z</time>
      </trkpt>
      <trkpt lat="43.21639" lon="5.50812">
        <ele>179.9</ele>
        <time>2025-10-19T08:13:54Z</time>
      </trkpt>
      <trkpt lat="43.21638" lon="5.50811">
        <ele>180</ele>
        <time>2025-10-19T08:13:55Z</time>
      </trkpt>
      <trkpt lat="43.21637" lon="5.50811">
        <ele>180.1</ele>
        <time>2025-10-19T08:13:56Z</time>
      </trkpt>
      <trkpt lat="43.21637" lon="5.5081">
        <ele>180.1</ele>
        <time>2025-10-19T08:13:57Z</time>
      </trkpt>
      <trkpt lat="43.21636" lon="5.50809">
        <ele>180.1</ele>
        <time>2025-10-19T08:13:58Z</time>
      </trkpt>
      <trkpt lat="43.21634" lon="5.50808">
        <ele>180.3</ele>
        <time>2025-10-19T08:13:59Z</time>
      </trkpt>
      <trkpt lat="43.21634" lon="5.50808">
        <ele>180.3</ele>
        <time>2025-10-19T08:14:00Z</time>
      </trkpt>
      <trkpt lat="43.21633" lon="5.50807">
        <ele>180.3</ele>
        <time>2025-10-19T08:14:01Z</time>
      </trkpt>
      <trkpt lat="43.21633" lon="5.50806">
        <ele>180.3</ele>
        <time>2025-10-19T08:14:02Z</time>
      </trkpt>
      <trkpt lat="43.21631" lon="5.50804">
        <ele>180.3</ele>
        <time>2025-10-19T08:14:03Z</time>
      </trkpt>
      <trkpt lat="43.2163" lon="5.50804">
        <ele>180.3</ele>
        <time>2025-10-19T08:14:04Z</time>
      </trkpt>
      <trkpt lat="43.21629" lon="5.50803">
        <ele>180.4</ele>
        <time>2025-10-19T08:14:05Z</time>
      </trkpt>
      <trkpt lat="43.21629" lon="5.50803">
        <ele>180.4</ele>
        <time>2025-10-19T08:14:06Z</time>
      </trkpt>
      <trkpt lat="43.21628" lon="5.50802">
        <ele>180.4</ele>
        <time>2025-10-19T08:14:07Z</time>
      </trkpt>
      <trkpt lat="43.21628" lon="5.50801">
        <ele>180.4</ele>
        <time>2025-10-19T08:14:08Z</time>
      </trkpt>
      <trkpt lat="43.21627" lon="5.50801">
        <ele>180.5</ele>
        <time>2025-10-19T08:14:09Z</time>
      </trkpt>
      <trkpt lat="43.21626" lon="5.50798">
        <ele>180.5</ele>
        <time>2025-10-19T08:14:10Z</time>
      </trkpt>
      <trkpt lat="43.21625" lon="5.50797">
        <ele>180.6</ele>
        <time>2025-10-19T08:14:11Z</time>
      </trkpt>
      <trkpt lat="43.21624" lon="5.50797">
        <ele>180.6</ele>
        <time>2025-10-19T08:14:12Z</time>
      </trkpt>
      <trkpt lat="43.21623" lon="5.50796">
        <ele>180.7</ele>
        <time>2025-10-19T08:14:13Z</time>
      </trkpt>
      <trkpt lat="43.21622" lon="5.50795">
        <ele>180.7</ele>
        <time>2025-10-19T08:14:14Z</time>
      </trkpt>
      <trkpt lat="43.21621" lon="5.50795">
        <ele>180.7</ele>
        <time>2025-10-19T08:14:15Z</time>
      </trkpt>
      <trkpt lat="43.2162" lon="5.50794">
        <ele>180.7</ele>
        <time>2025-10-19T08:14:16Z</time>
      </trkpt>
      <trkpt lat="43.21619" lon="5.50793">
        <ele>180.8</ele>
        <time>2025-10-19T08:14:17Z</time>
      </trkpt>
      <trkpt lat="43.21618" lon="5.50791">
        <ele>180.7</ele>
        <time>2025-10-19T08:14:18Z</time>
      </trkpt>
      <trkpt lat="43.21617" lon="5.50791">
        <ele>180.8</ele>
        <time>2025-10-19T08:14:19Z</time>
      </trkpt>
      <trkpt lat="43.21616" lon="5.5079">
        <ele>181.1</ele>
        <time>2025-10-19T08:14:20Z</time>
      </trkpt>
      <trkpt lat="43.21615" lon="5.50789">
        <ele>181.1</ele>
        <time>2025-10-19T08:14:21Z</time>
      </trkpt>
      <trkpt lat="43.21613" lon="5.50788">
        <ele>181</ele>
        <time>2025-10-19T08:14:22Z</time>
      </trkpt>
      <trkpt lat="43.21612" lon="5.50788">
        <ele>181</ele>
        <time>2025-10-19T08:14:23Z</time>
      </trkpt>
      <trkpt lat="43.21611" lon="5.50787">
        <ele>181</ele>
        <time>2025-10-19T08:14:24Z</time>
      </trkpt>
      <trkpt lat="43.21609" lon="5.50786">
        <ele>181</ele>
        <time>2025-10-19T08:14:25Z</time>
      </trkpt>
      <trkpt lat="43.21608" lon="5.50785">
        <ele>181</ele>
        <time>2025-10-19T08:14:26Z</time>
      </trkpt>
      <trkpt lat="43.21607" lon="5.50785">
        <ele>181</ele>
        <time>2025-10-19T08:14:27Z</time>
      </trkpt>
      <trkpt lat="43.21605" lon="5.50784">
        <ele>181</ele>
        <time>2025-10-19T08:14:28Z</time>
      </trkpt>
      <trkpt lat="43.21604" lon="5.50783">
        <ele>181.1</ele>
        <time>2025-10-19T08:14:29Z</time>
      </trkpt>
      <trkpt lat="43.21603" lon="5.50783">
        <ele>181.1</ele>
        <time>2025-10-19T08:14:30Z</time>
      </trkpt>
      <trkpt lat="43.21601" lon="5.50782">
        <ele>181.1</ele>
        <time>2025-10-19T08:14:31Z</time>
      </trkpt>
      <trkpt lat="43.216" lon="5.50781">
        <ele>181.1</ele>
        <time>2025-10-19T08:14:32Z</time>
      </trkpt>
      <trkpt lat="43.21599" lon="5.5078">
        <ele>181</ele>
        <time>2025-10-19T08:14:33Z</time>
      </trkpt>
      <trkpt lat="43.21597" lon="5.50779">
        <ele>181</ele>
        <time>2025-10-19T08:14:34Z</time>
      </trkpt>
      <trkpt lat="43.21596" lon="5.50779">
        <ele>181.1</ele>
        <time>2025-10-19T08:14:35Z</time>
      </trkpt>
      <trkpt lat="43.21595" lon="5.50778">
        <ele>181.2</ele>
        <time>2025-10-19T08:14:36Z</time>
      </trkpt>
      <trkpt lat="43.21594" lon="5.50778">
        <ele>181.2</ele>
        <time>2025-10-19T08:14:37Z</time>
      </trkpt>
      <trkpt lat="43.21593" lon="5.50778">
        <ele>181.2</ele>
        <time>2025-10-19T08:14:38Z</time>
      </trkpt>
      <trkpt lat="43.21592" lon="5.50779">
        <ele>181.3</ele>
        <time>2025-10-19T08:14:39Z</time>
      </trkpt>
      <trkpt lat="43.2159" lon="5.50778">
        <ele>181.2</ele>
        <time>2025-10-19T08:14:40Z</time>
      </trkpt>
      <trkpt lat="43.21589" lon="5.50778">
        <ele>181.2</ele>
        <time>2025-10-19T08:14:41Z</time>
      </trkpt>
      <trkpt lat="43.21588" lon="5.50777">
        <ele>181.2</ele>
        <time>2025-10-19T08:14:42Z</time>
      </trkpt>
      <trkpt lat="43.21586" lon="5.50776">
        <ele>181.3</ele>
        <time>2025-10-19T08:14:43Z</time>
      </trkpt>
      <trkpt lat="43.21585" lon="5.50775">
        <ele>181.3</ele>
        <time>2025-10-19T08:14:44Z</time>
      </trkpt>
      <trkpt lat="43.21584" lon="5.50775">
        <ele>181.2</ele>
        <time>2025-10-19T08:14:45Z</time>
      </trkpt>
      <trkpt lat="43.21583" lon="5.50774">
        <ele>181.2</ele>
        <time>2025-10-19T08:14:46Z</time>
      </trkpt>
      <trkpt lat="43.21581" lon="5.50774">
        <ele>181.1</ele>
        <time>2025-10-19T08:14:47Z</time>
      </trkpt>
      <trkpt lat="43.2158" lon="5.50774">
        <ele>181.1</ele>
        <time>2025-10-19T08:14:48Z</time>
      </trkpt>
      <trkpt lat="43.21579" lon="5.50773">
        <ele>181.2</ele>
        <time>2025-10-19T08:14:49Z</time>
      </trkpt>
      <trkpt lat="43.21578" lon="5.50773">
        <ele>181.3</ele>
        <time>2025-10-19T08:14:50Z</time>
      </trkpt>
      <trkpt lat="43.21577" lon="5.50773">
        <ele>181.4</ele>
        <time>2025-10-19T08:14:51Z</time>
      </trkpt>
      <trkpt lat="43.21576" lon="5.50773">
        <ele>181.4</ele>
        <time>2025-10-19T08:14:52Z</time>
      </trkpt>
      <trkpt lat="43.21574" lon="5.50772">
        <ele>181.4</ele>
        <time>2025-10-19T08:14:53Z</time>
      </trkpt>
      <trkpt lat="43.21573" lon="5.50772">
        <ele>181.4</ele>
        <time>2025-10-19T08:14:54Z</time>
      </trkpt>
      <trkpt lat="43.21572" lon="5.50771">
        <ele>181.5</ele>
        <time>2025-10-19T08:14:55Z</time>
      </trkpt>
      <trkpt lat="43.21571" lon="5.50771">
        <ele>181.6</ele>
        <time>2025-10-19T08:14:56Z</time>
      </trkpt>
      <trkpt lat="43.2157" lon="5.5077">
        <ele>181.6</ele>
        <time>2025-10-19T08:14:57Z</time>
      </trkpt>
      <trkpt lat="43.21569" lon="5.5077">
        <ele>181.7</ele>
        <time>2025-10-19T08:14:58Z</time>
      </trkpt>
      <trkpt lat="43.21567" lon="5.50769">
        <ele>181.7</ele>
        <time>2025-10-19T08:14:59Z</time>
      </trkpt>
      <trkpt lat="43.21566" lon="5.50769">
        <ele>181.8</ele>
        <time>2025-10-19T08:15:00Z</time>
      </trkpt>
      <trkpt lat="43.21565" lon="5.50769">
        <ele>181.8</ele>
        <time>2025-10-19T08:15:01Z</time>
      </trkpt>
      <trkpt lat="43.21564" lon="5.50768">
        <ele>181.9</ele>
        <time>2025-10-19T08:15:02Z</time>
      </trkpt>
      <trkpt lat="43.21563" lon="5.50768">
        <ele>181.9</ele>
        <time>2025-10-19T08:15:03Z</time>
      </trkpt>
      <trkpt lat="43.21561" lon="5.50767">
        <ele>182</ele>
        <time>2025-10-19T08:15:04Z</time>
      </trkpt>
      <trkpt lat="43.2156" lon="5.50767">
        <ele>181.9</ele>
        <time>2025-10-19T08:15:05Z</time>
      </trkpt>
      <trkpt lat="43.21559" lon="5.50767">
        <ele>181.8</ele>
        <time>2025-10-19T08:15:06Z</time>
      </trkpt>
      <trkpt lat="43.21558" lon="5.50766">
        <ele>181.9</ele>
        <time>2025-10-19T08:15:07Z</time>
      </trkpt>
      <trkpt lat="43.21557" lon="5.50766">
        <ele>182</ele>
        <time>2025-10-19T08:15:08Z</time>
      </trkpt>
      <trkpt lat="43.21556" lon="5.50765">
        <ele>182.1</ele>
        <time>2025-10-19T08:15:09Z</time>
      </trkpt>
      <trkpt lat="43.21555" lon="5.50765">
        <ele>182.2</ele>
        <time>2025-10-19T08:15:10Z</time>
      </trkpt>
      <trkpt lat="43.21554" lon="5.50765">
        <ele>182.1</ele>
        <time>2025-10-19T08:15:11Z</time>
      </trkpt>
      <trkpt lat="43.21553" lon="5.50764">
        <ele>182.1</ele>
        <time>2025-10-19T08:15:12Z</time>
      </trkpt>
      <trkpt lat="43.21552" lon="5.50764">
        <ele>182.1</ele>
        <time>2025-10-19T08:15:13Z</time>
      </trkpt>
      <trkpt lat="43.21551" lon="5.50763">
        <ele>182.1</ele>
        <time>2025-10-19T08:15:14Z</time>
      </trkpt>
      <trkpt lat="43.2155" lon="5.50763">
        <ele>182.2</ele>
        <time>2025-10-19T08:15:15Z</time>
      </trkpt>
      <trkpt lat="43.21549" lon="5.50763">
        <ele>182.2</ele>
        <time>2025-10-19T08:15:16Z</time>
      </trkpt>
      <trkpt lat="43.21548" lon="5.50763">
        <ele>182.2</ele>
        <time>2025-10-19T08:15:17Z</time>
      </trkpt>
      <trkpt lat="43.21546" lon="5.50762">
        <ele>182.2</ele>
        <time>2025-10-19T08:15:18Z</time>
      </trkpt>
      <trkpt lat="43.21545" lon="5.50762">
        <ele>182.2</ele>
        <time>2025-10-19T08:15:19Z</time>
      </trkpt>
      <trkpt lat="43.21544" lon="5.50762">
        <ele>182.2</ele>
        <time>2025-10-19T08:15:20Z</time>
      </trkpt>
      <trkpt lat="43.21543" lon="5.50762">
        <ele>182.2</ele>
        <time>2025-10-19T08:15:21Z</time>
      </trkpt>
      <trkpt lat="43.21542" lon="5.50761">
        <ele>182.2</ele>
        <time>2025-10-19T08:15:22Z</time>
      </trkpt>
      <trkpt lat="43.21541" lon="5.50761">
        <ele>182.2</ele>
        <time>2025-10-19T08:15:23Z</time>
      </trkpt>
      <trkpt lat="43.2154" lon="5.5076">
        <ele>182.3</ele>
        <time>2025-10-19T08:15:24Z</time>
      </trkpt>
      <trkpt lat="43.21539" lon="5.5076">
        <ele>182.3</ele>
        <time>2025-10-19T08:15:25Z</time>
      </trkpt>
      <trkpt lat="43.21538" lon="5.5076">
        <ele>182.5</ele>
        <time>2025-10-19T08:15:26Z</time>
      </trkpt>
      <trkpt lat="43.21536" lon="5.50759">
        <ele>182.6</ele>
        <time>2025-10-19T08:15:27Z</time>
      </trkpt>
      <trkpt lat="43.21535" lon="5.50758">
        <ele>182.6</ele>
        <time>2025-10-19T08:15:28Z</time>
      </trkpt>
      <trkpt lat="43.21534" lon="5.50757">
        <ele>182.7</ele>
        <time>2025-10-19T08:15:29Z</time>
      </trkpt>
      <trkpt lat="43.21533" lon="5.50757">
        <ele>182.8</ele>
        <time>2025-10-19T08:15:30Z</time>
      </trkpt>
      <trkpt lat="43.21532" lon="5.50756">
        <ele>182.8</ele>
        <time>2025-10-19T08:15:31Z</time>
      </trkpt>
      <trkpt lat="43.2153" lon="5.50756">
        <ele>182.8</ele>
        <time>2025-10-19T08:15:32Z</time>
      </trkpt>
      <trkpt lat="43.21529" lon="5.50756">
        <ele>182.8</ele>
        <time>2025-10-19T08:15:33Z</time>
      </trkpt>
      <trkpt lat="43.21528" lon="5.50755">
        <ele>182.9</ele>
        <time>2025-10-19T08:15:34Z</time>
      </trkpt>
      <trkpt lat="43.21526" lon="5.50754">
        <ele>182.9</ele>
        <time>2025-10-19T08:15:35Z</time>
      </trkpt>
      <trkpt lat="43.21525" lon="5.50754">
        <ele>182.9</ele>
        <time>2025-10-19T08:15:36Z</time>
      </trkpt>
      <trkpt lat="43.21524" lon="5.50753">
        <ele>182.9</ele>
        <time>2025-10-19T08:15:37Z</time>
      </trkpt>
      <trkpt lat="43.21523" lon="5.50752">
        <ele>183</ele>
        <time>2025-10-19T08:15:38Z</time>
      </trkpt>
      <trkpt lat="43.21522" lon="5.50751">
        <ele>183.1</ele>
        <time>2025-10-19T08:15:39Z</time>
      </trkpt>
      <trkpt lat="43.21521" lon="5.50751">
        <ele>183</ele>
        <time>2025-10-19T08:15:40Z</time>
      </trkpt>
      <trkpt lat="43.2152" lon="5.5075">
        <ele>183.1</ele>
        <time>2025-10-19T08:15:41Z</time>
      </trkpt>
      <trkpt lat="43.21518" lon="5.50749">
        <ele>183.1</ele>
        <time>2025-10-19T08:15:42Z</time>
      </trkpt>
      <trkpt lat="43.21517" lon="5.50748">
        <ele>183.2</ele>
        <time>2025-10-19T08:15:43Z</time>
      </trkpt>
      <trkpt lat="43.21516" lon="5.50748">
        <ele>183.2</ele>
        <time>2025-10-19T08:15:44Z</time>
      </trkpt>
      <trkpt lat="43.21515" lon="5.50748">
        <ele>183.3</ele>
        <time>2025-10-19T08:15:45Z</time>
      </trkpt>
      <trkpt lat="43.21514" lon="5.50747">
        <ele>183.3</ele>
        <time>2025-10-19T08:15:46Z</time>
      </trkpt>
      <trkpt lat="43.21513" lon="5.50746">
        <ele>183.3</ele>
        <time>2025-10-19T08:15:47Z</time>
      </trkpt>
      <trkpt lat="43.21512" lon="5.50746">
        <ele>183.2</ele>
        <time>2025-10-19T08:15:48Z</time>
      </trkpt>
      <trkpt lat="43.21511" lon="5.50745">
        <ele>183.1</ele>
        <time>2025-10-19T08:15:49Z</time>
      </trkpt>
      <trkpt lat="43.2151" lon="5.50745">
        <ele>183.1</ele>
        <time>2025-10-19T08:15:50Z</time>
      </trkpt>
      <trkpt lat="43.21509" lon="5.50744">
        <ele>183.2</ele>
        <time>2025-10-19T08:15:51Z</time>
      </trkpt>
      <trkpt lat="43.21508" lon="5.50744">
        <ele>183.1</ele>
        <time>2025-10-19T08:15:52Z</time>
      </trkpt>
      <trkpt lat="43.21507" lon="5.50743">
        <ele>183.2</ele>
        <time>2025-10-19T08:15:53Z</time>
      </trkpt>
      <trkpt lat="43.21506" lon="5.50743">
        <ele>183.2</ele>
        <time>2025-10-19T08:15:54Z</time>
      </trkpt>
      <trkpt lat="43.21505" lon="5.50742">
        <ele>183.2</ele>
        <time>2025-10-19T08:15:55Z</time>
      </trkpt>
      <trkpt lat="43.21504" lon="5.50742">
        <ele>183.2</ele>
        <time>2025-10-19T08:15:56Z</time>
      </trkpt>
      <trkpt lat="43.21504" lon="5.50741">
        <ele>183.2</ele>
        <time>2025-10-19T08:15:57Z</time>
      </trkpt>
      <trkpt lat="43.21503" lon="5.5074">
        <ele>183.3</ele>
        <time>2025-10-19T08:15:58Z</time>
      </trkpt>
      <trkpt lat="43.21502" lon="5.50739">
        <ele>183.4</ele>
        <time>2025-10-19T08:15:59Z</time>
      </trkpt>
      <trkpt lat="43.21501" lon="5.50739">
        <ele>183.5</ele>
        <time>2025-10-19T08:16:00Z</time>
      </trkpt>
      <trkpt lat="43.21501" lon="5.50738">
        <ele>183.6</ele>
        <time>2025-10-19T08:16:01Z</time>
      </trkpt>
      <trkpt lat="43.215" lon="5.50737">
        <ele>183.5</ele>
        <time>2025-10-19T08:16:02Z</time>
      </trkpt>
      <trkpt lat="43.21499" lon="5.50737">
        <ele>183.4</ele>
        <time>2025-10-19T08:16:03Z</time>
      </trkpt>
      <trkpt lat="43.21498" lon="5.50736">
        <ele>183.5</ele>
        <time>2025-10-19T08:16:04Z</time>
      </trkpt>
      <trkpt lat="43.21498" lon="5.50736">
        <ele>183.6</ele>
        <time>2025-10-19T08:16:05Z</time>
      </trkpt>
      <trkpt lat="43.21497" lon="5.50735">
        <ele>183.6</ele>
        <time>2025-10-19T08:16:06Z</time>
      </trkpt>
      <trkpt lat="43.21496" lon="5.50734">
        <ele>183.6</ele>
        <time>2025-10-19T08:16:07Z</time>
      </trkpt>
      <trkpt lat="43.21495" lon="5.50733">
        <ele>183.7</ele>
        <time>2025-10-19T08:16:08Z</time>
      </trkpt>
      <trkpt lat="43.21494" lon="5.50733">
        <ele>183.7</ele>
        <time>2025-10-19T08:16:09Z</time>
      </trkpt>
      <trkpt lat="43.21493" lon="5.50732">
        <ele>183.6</ele>
        <time>2025-10-19T08:16:10Z</time>
      </trkpt>
      <trkpt lat="43.21492" lon="5.50731">
        <ele>183.6</ele>
        <time>2025-10-19T08:16:11Z</time>
      </trkpt>
      <trkpt lat="43.21491" lon="5.5073">
        <ele>183.6</ele>
        <time>2025-10-19T08:16:12Z</time>
      </trkpt>
      <trkpt lat="43.2149" lon="5.5073">
        <ele>183.6</ele>
        <time>2025-10-19T08:16:13Z</time>
      </trkpt>
      <trkpt lat="43.21489" lon="5.5073">
        <ele>183.7</ele>
        <time>2025-10-19T08:16:14Z</time>
      </trkpt>
      <trkpt lat="43.21488" lon="5.50729">
        <ele>183.7</ele>
        <time>2025-10-19T08:16:15Z</time>
      </trkpt>
      <trkpt lat="43.21487" lon="5.50729">
        <ele>183.7</ele>
        <time>2025-10-19T08:16:16Z</time>
      </trkpt>
      <trkpt lat="43.21486" lon="5.50728">
        <ele>183.8</ele>
        <time>2025-10-19T08:16:17Z</time>
      </trkpt>
      <trkpt lat="43.21484" lon="5.50728">
        <ele>183.8</ele>
        <time>2025-10-19T08:16:18Z</time>
      </trkpt>
      <trkpt lat="43.21482" lon="5.50727">
        <ele>183.9</ele>
        <time>2025-10-19T08:16:19Z</time>
      </trkpt>
      <trkpt lat="43.21481" lon="5.50727">
        <ele>183.9</ele>
        <time>2025-10-19T08:16:20Z</time>
      </trkpt>
      <trkpt lat="43.2148" lon="5.50726">
        <ele>184</ele>
        <time>2025-10-19T08:16:21Z</time>
      </trkpt>
      <trkpt lat="43.2148" lon="5.50726">
        <ele>184.1</ele>
        <time>2025-10-19T08:16:22Z</time>
      </trkpt>
      <trkpt lat="43.21478" lon="5.50725">
        <ele>184.1</ele>
        <time>2025-10-19T08:16:23Z</time>
      </trkpt>
      <trkpt lat="43.21478" lon="5.50724">
        <ele>184.2</ele>
        <time>2025-10-19T08:16:24Z</time>
      </trkpt>
      <trkpt lat="43.21477" lon="5.50723">
        <ele>184.1</ele>
        <time>2025-10-19T08:16:25Z</time>
      </trkpt>
      <trkpt lat="43.21476" lon="5.50722">
        <ele>184.1</ele>
        <time>2025-10-19T08:16:26Z</time>
      </trkpt>
      <trkpt lat="43.21474" lon="5.50721">
        <ele>184.1</ele>
        <time>2025-10-19T08:16:27Z</time>
      </trkpt>
      <trkpt lat="43.21474" lon="5.50721">
        <ele>184.2</ele>
        <time>2025-10-19T08:16:28Z</time>
      </trkpt>
      <trkpt lat="43.21473" lon="5.5072">
        <ele>184.2</ele>
        <time>2025-10-19T08:16:29Z</time>
      </trkpt>
      <trkpt lat="43.21472" lon="5.50719">
        <ele>184.2</ele>
        <time>2025-10-19T08:16:30Z</time>
      </trkpt>
      <trkpt lat="43.21471" lon="5.50718">
        <ele>184.2</ele>
        <time>2025-10-19T08:16:31Z</time>
      </trkpt>
      <trkpt lat="43.21471" lon="5.50718">
        <ele>184.1</ele>
        <time>2025-10-19T08:16:32Z</time>
      </trkpt>
      <trkpt lat="43.2147" lon="5.50717">
        <ele>184</ele>
        <time>2025-10-19T08:16:33Z</time>
      </trkpt>
      <trkpt lat="43.21469" lon="5.50716">
        <ele>184</ele>
        <time>2025-10-19T08:16:34Z</time>
      </trkpt>
      <trkpt lat="43.21469" lon="5.50715">
        <ele>184</ele>
        <time>2025-10-19T08:16:35Z</time>
      </trkpt>
      <trkpt lat="43.21469" lon="5.50714">
        <ele>183.9</ele>
        <time>2025-10-19T08:16:36Z</time>
      </trkpt>
      <trkpt lat="43.21468" lon="5.50713">
        <ele>184</ele>
        <time>2025-10-19T08:16:37Z</time>
      </trkpt>
      <trkpt lat="43.21467" lon="5.50712">
        <ele>184</ele>
        <time>2025-10-19T08:16:38Z</time>
      </trkpt>
      <trkpt lat="43.21467" lon="5.5071">
        <ele>184.1</ele>
        <time>2025-10-19T08:16:39Z</time>
      </trkpt>
      <trkpt lat="43.21467" lon="5.5071">
        <ele>184.1</ele>
        <time>2025-10-19T08:16:40Z</time>
      </trkpt>
      <trkpt lat="43.21467" lon="5.50709">
        <ele>184.1</ele>
        <time>2025-10-19T08:16:41Z</time>
      </trkpt>
      <trkpt lat="43.21467" lon="5.50708">
        <ele>184.1</ele>
        <time>2025-10-19T08:16:42Z</time>
      </trkpt>
      <trkpt lat="43.21466" lon="5.50707">
        <ele>184.1</ele>
        <time>2025-10-19T08:16:43Z</time>
      </trkpt>
      <trkpt lat="43.21465" lon="5.50706">
        <ele>184.3</ele>
        <time>2025-10-19T08:16:44Z</time>
      </trkpt>
      <trkpt lat="43.21465" lon="5.50705">
        <ele>184.4</ele>
        <time>2025-10-19T08:16:45Z</time>
      </trkpt>
      <trkpt lat="43.21464" lon="5.50704">
        <ele>184.3</ele>
        <time>2025-10-19T08:16:46Z</time>
      </trkpt>
      <trkpt lat="43.21463" lon="5.50704">
        <ele>184.3</ele>
        <time>2025-10-19T08:16:47Z</time>
      </trkpt>
      <trkpt lat="43.21462" lon="5.50703">
        <ele>184.3</ele>
        <time>2025-10-19T08:16:48Z</time>
      </trkpt>
      <trkpt lat="43.21462" lon="5.50702">
        <ele>184.3</ele>
        <time>2025-10-19T08:16:49Z</time>
      </trkpt>
      <trkpt lat="43.21462" lon="5.50702">
        <ele>184.3</ele>
        <time>2025-10-19T08:16:50Z</time>
      </trkpt>
      <trkpt lat="43.21461" lon="5.50701">
        <ele>184.4</ele>
        <time>2025-10-19T08:16:51Z</time>
      </trkpt>
      <trkpt lat="43.21461" lon="5.50701">
        <ele>184.5</ele>
        <time>2025-10-19T08:16:52Z</time>
      </trkpt>
      <trkpt lat="43.2146" lon="5.507">
        <ele>184.6</ele>
        <time>2025-10-19T08:16:53Z</time>
      </trkpt>
      <trkpt lat="43.2146" lon="5.50699">
        <ele>184.5</ele>
        <time>2025-10-19T08:16:54Z</time>
      </trkpt>
      <trkpt lat="43.21459" lon="5.50698">
        <ele>184.4</ele>
        <time>2025-10-19T08:16:55Z</time>
      </trkpt>
      <trkpt lat="43.21458" lon="5.50697">
        <ele>184.4</ele>
        <time>2025-10-19T08:16:56Z</time>
      </trkpt>
      <trkpt lat="43.21457" lon="5.50696">
        <ele>184.4</ele>
        <time>2025-10-19T08:16:57Z</time>
      </trkpt>
      <trkpt lat="43.21456" lon="5.50695">
        <ele>184.4</ele>
        <time>2025-10-19T08:16:58Z</time>
      </trkpt>
      <trkpt lat="43.21455" lon="5.50695">
        <ele>184.5</ele>
        <time>2025-10-19T08:16:59Z</time>
      </trkpt>
      <trkpt lat="43.21454" lon="5.50694">
        <ele>184.7</ele>
        <time>2025-10-19T08:17:00Z</time>
      </trkpt>
      <trkpt lat="43.21453" lon="5.50693">
        <ele>184.7</ele>
        <time>2025-10-19T08:17:01Z</time>
      </trkpt>
      <trkpt lat="43.21452" lon="5.50692">
        <ele>184.7</ele>
        <time>2025-10-19T08:17:02Z</time>
      </trkpt>
      <trkpt lat="43.21451" lon="5.5069">
        <ele>184.7</ele>
        <time>2025-10-19T08:17:03Z</time>
      </trkpt>
      <trkpt lat="43.21449" lon="5.5069">
        <ele>184.7</ele>
        <time>2025-10-19T08:17:04Z</time>
      </trkpt>
      <trkpt lat="43.21448" lon="5.50689">
        <ele>184.6</ele>
        <time>2025-10-19T08:17:05Z</time>
      </trkpt>
      <trkpt lat="43.21448" lon="5.50687">
        <ele>184.6</ele>
        <time>2025-10-19T08:17:06Z</time>
      </trkpt>
      <trkpt lat="43.21447" lon="5.50686">
        <ele>184.5</ele>
        <time>2025-10-19T08:17:07Z</time>
      </trkpt>
      <trkpt lat="43.21446" lon="5.50685">
        <ele>184.5</ele>
        <time>2025-10-19T08:17:08Z</time>
      </trkpt>
      <trkpt lat="43.21445" lon="5.50684">
        <ele>184.5</ele>
        <time>2025-10-19T08:17:09Z</time>
      </trkpt>
      <trkpt lat="43.21444" lon="5.50683">
        <ele>184.5</ele>
        <time>2025-10-19T08:17:10Z</time>
      </trkpt>
      <trkpt lat="43.21443" lon="5.50682">
        <ele>184.5</ele>
        <time>2025-10-19T08:17:11Z</time>
      </trkpt>
      <trkpt lat="43.21442" lon="5.5068">
        <ele>184.6</ele>
        <time>2025-10-19T08:17:12Z</time>
      </trkpt>
      <trkpt lat="43.21441" lon="5.50679">
        <ele>184.6</ele>
        <time>2025-10-19T08:17:13Z</time>
      </trkpt>
      <trkpt lat="43.2144" lon="5.50678">
        <ele>184.7</ele>
        <time>2025-10-19T08:17:14Z</time>
      </trkpt>
      <trkpt lat="43.21438" lon="5.50678">
        <ele>184.7</ele>
        <time>2025-10-19T08:17:15Z</time>
      </trkpt>
      <trkpt lat="43.21436" lon="5.50677">
        <ele>184.7</ele>
        <time>2025-10-19T08:17:16Z</time>
      </trkpt>
      <trkpt lat="43.21435" lon="5.50676">
        <ele>184.8</ele>
        <time>2025-10-19T08:17:17Z</time>
      </trkpt>
      <trkpt lat="43.21433" lon="5.50675">
        <ele>184.9</ele>
        <time>2025-10-19T08:17:18Z</time>
      </trkpt>
      <trkpt lat="43.21432" lon="5.50675">
        <ele>184.9</ele>
        <time>2025-10-19T08:17:19Z</time>
      </trkpt>
      <trkpt lat="43.21431" lon="5.50674">
        <ele>185</ele>
        <time>2025-10-19T08:17:20Z</time>
      </trkpt>
      <trkpt lat="43.2143" lon="5.50674">
        <ele>185</ele>
        <time>2025-10-19T08:17:21Z</time>
      </trkpt>
      <trkpt lat="43.21428" lon="5.50674">
        <ele>185</ele>
        <time>2025-10-19T08:17:22Z</time>
      </trkpt>
      <trkpt lat="43.21426" lon="5.50673">
        <ele>185.1</ele>
        <time>2025-10-19T08:17:23Z</time>
      </trkpt>
      <trkpt lat="43.21424" lon="5.50673">
        <ele>185.1</ele>
        <time>2025-10-19T08:17:24Z</time>
      </trkpt>
      <trkpt lat="43.21423" lon="5.50672">
        <ele>185</ele>
        <time>2025-10-19T08:17:25Z</time>
      </trkpt>
      <trkpt lat="43.21421" lon="5.50672">
        <ele>185</ele>
        <time>2025-10-19T08:17:26Z</time>
      </trkpt>
      <trkpt lat="43.2142" lon="5.50671">
        <ele>185</ele>
        <time>2025-10-19T08:17:27Z</time>
      </trkpt>
      <trkpt lat="43.21419" lon="5.5067">
        <ele>184.9</ele>
        <time>2025-10-19T08:17:28Z</time>
      </trkpt>
      <trkpt lat="43.21418" lon="5.50669">
        <ele>184.9</ele>
        <time>2025-10-19T08:17:29Z</time>
      </trkpt>
      <trkpt lat="43.21416" lon="5.50668">
        <ele>185</ele>
        <time>2025-10-19T08:17:30Z</time>
      </trkpt>
      <trkpt lat="43.21415" lon="5.50667">
        <ele>184.9</ele>
        <time>2025-10-19T08:17:31Z</time>
      </trkpt>
      <trkpt lat="43.21414" lon="5.50666">
        <ele>184.9</ele>
        <time>2025-10-19T08:17:32Z</time>
      </trkpt>
      <trkpt lat="43.21413" lon="5.50666">
        <ele>184.8</ele>
        <time>2025-10-19T08:17:33Z</time>
      </trkpt>
      <trkpt lat="43.21412" lon="5.50665">
        <ele>184.8</ele>
        <time>2025-10-19T08:17:34Z</time>
      </trkpt>
      <trkpt lat="43.21411" lon="5.50665">
        <ele>184.8</ele>
        <time>2025-10-19T08:17:35Z</time>
      </trkpt>
      <trkpt lat="43.2141" lon="5.50664">
        <ele>184.8</ele>
        <time>2025-10-19T08:17:36Z</time>
      </trkpt>
      <trkpt lat="43.21409" lon="5.50663">
        <ele>184.8</ele>
        <time>2025-10-19T08:17:37Z</time>
      </trkpt>
      <trkpt lat="43.21407" lon="5.50662">
        <ele>184.7</ele>
        <time>2025-10-19T08:17:38Z</time>
      </trkpt>
      <trkpt lat="43.21407" lon="5.50661">
        <ele>184.6</ele>
        <time>2025-10-19T08:17:39Z</time>
      </trkpt>
      <trkpt lat="43.21405" lon="5.5066">
        <ele>184.5</ele>
        <time>2025-10-19T08:17:40Z</time>
      </trkpt>
      <trkpt lat="43.21404" lon="5.5066">
        <ele>184.6</ele>
        <time>2025-10-19T08:17:41Z</time>
      </trkpt>
      <trkpt lat="43.21402" lon="5.50659">
        <ele>184.6</ele>
        <time>2025-10-19T08:17:42Z</time>
      </trkpt>
      <trkpt lat="43.21401" lon="5.50658">
        <ele>184.6</ele>
        <time>2025-10-19T08:17:43Z</time>
      </trkpt>
      <trkpt lat="43.214" lon="5.50658">
        <ele>184.6</ele>
        <time>2025-10-19T08:17:44Z</time>
      </trkpt>
      <trkpt lat="43.21398" lon="5.50657">
        <ele>184.5</ele>
        <time>2025-10-19T08:17:45Z</time>
      </trkpt>
      <trkpt lat="43.21397" lon="5.50657">
        <ele>184.5</ele>
        <time>2025-10-19T08:17:46Z</time>
      </trkpt>
      <trkpt lat="43.21396" lon="5.50656">
        <ele>184.5</ele>
        <time>2025-10-19T08:17:47Z</time>
      </trkpt>
      <trkpt lat="43.21395" lon="5.50655">
        <ele>184.5</ele>
        <time>2025-10-19T08:17:48Z</time>
      </trkpt>
      <trkpt lat="43.21394" lon="5.50654">
        <ele>184.5</ele>
        <time>2025-10-19T08:17:49Z</time>
      </trkpt>
      <trkpt lat="43.21393" lon="5.50653">
        <ele>184.5</ele>
        <time>2025-10-19T08:17:50Z</time>
      </trkpt>
      <trkpt lat="43.21391" lon="5.50652">
        <ele>184.5</ele>
        <time>2025-10-19T08:17:51Z</time>
      </trkpt>
      <trkpt lat="43.2139" lon="5.50652">
        <ele>184.4</ele>
        <time>2025-10-19T08:17:52Z</time>
      </trkpt>
      <trkpt lat="43.21389" lon="5.50651">
        <ele>184.5</ele>
        <time>2025-10-19T08:17:53Z</time>
      </trkpt>
      <trkpt lat="43.21388" lon="5.5065">
        <ele>184.4</ele>
        <time>2025-10-19T08:17:54Z</time>
      </trkpt>
      <trkpt lat="43.21387" lon="5.5065">
        <ele>184.4</ele>
        <time>2025-10-19T08:17:55Z</time>
      </trkpt>
      <trkpt lat="43.21385" lon="5.50649">
        <ele>184.4</ele>
        <time>2025-10-19T08:17:56Z</time>
      </trkpt>
      <trkpt lat="43.21384" lon="5.50648">
        <ele>184.3</ele>
        <time>2025-10-19T08:17:57Z</time>
      </trkpt>
      <trkpt lat="43.21383" lon="5.50647">
        <ele>184.3</ele>
        <time>2025-10-19T08:17:58Z</time>
      </trkpt>
      <trkpt lat="43.21382" lon="5.50646">
        <ele>184.2</ele>
        <time>2025-10-19T08:17:59Z</time>
      </trkpt>
      <trkpt lat="43.21381" lon="5.50645">
        <ele>184.3</ele>
        <time>2025-10-19T08:18:00Z</time>
      </trkpt>
      <trkpt lat="43.2138" lon="5.50645">
        <ele>184.3</ele>
        <time>2025-10-19T08:18:01Z</time>
      </trkpt>
      <trkpt lat="43.21379" lon="5.50645">
        <ele>184.2</ele>
        <time>2025-10-19T08:18:02Z</time>
      </trkpt>
      <trkpt lat="43.21378" lon="5.50644">
        <ele>184.1</ele>
        <time>2025-10-19T08:18:03Z</time>
      </trkpt>
      <trkpt lat="43.21377" lon="5.50644">
        <ele>184</ele>
        <time>2025-10-19T08:18:04Z</time>
      </trkpt>
      <trkpt lat="43.21376" lon="5.50643">
        <ele>183.9</ele>
        <time>2025-10-19T08:18:05Z</time>
      </trkpt>
      <trkpt lat="43.21375" lon="5.50643">
        <ele>183.9</ele>
        <time>2025-10-19T08:18:06Z</time>
      </trkpt>
      <trkpt lat="43.21373" lon="5.50642">
        <ele>183.9</ele>
        <time>2025-10-19T08:18:07Z</time>
      </trkpt>
      <trkpt lat="43.21372" lon="5.50641">
        <ele>183.6</ele>
        <time>2025-10-19T08:18:08Z</time>
      </trkpt>
      <trkpt lat="43.21371" lon="5.5064">
        <ele>183.7</ele>
        <time>2025-10-19T08:18:09Z</time>
      </trkpt>
      <trkpt lat="43.2137" lon="5.5064">
        <ele>183.8</ele>
        <time>2025-10-19T08:18:10Z</time>
      </trkpt>
      <trkpt lat="43.21369" lon="5.50639">
        <ele>183.8</ele>
        <time>2025-10-19T08:18:11Z</time>
      </trkpt>
      <trkpt lat="43.21367" lon="5.50639">
        <ele>183.7</ele>
        <time>2025-10-19T08:18:12Z</time>
      </trkpt>
      <trkpt lat="43.21366" lon="5.50638">
        <ele>183.7</ele>
        <time>2025-10-19T08:18:13Z</time>
      </trkpt>
      <trkpt lat="43.21365" lon="5.50638">
        <ele>183.7</ele>
        <time>2025-10-19T08:18:14Z</time>
      </trkpt>
      <trkpt lat="43.21364" lon="5.50637">
        <ele>183.6</ele>
        <time>2025-10-19T08:18:15Z</time>
      </trkpt>
      <trkpt lat="43.21362" lon="5.50637">
        <ele>183.6</ele>
        <time>2025-10-19T08:18:16Z</time>
      </trkpt>
      <trkpt lat="43.21361" lon="5.50637">
        <ele>183.5</ele>
        <time>2025-10-19T08:18:17Z</time>
      </trkpt>
      <trkpt lat="43.2136" lon="5.50636">
        <ele>183.5</ele>
        <time>2025-10-19T08:18:18Z</time>
      </trkpt>
      <trkpt lat="43.21359" lon="5.50636">
        <ele>183.4</ele>
        <time>2025-10-19T08:18:19Z</time>
      </trkpt>
      <trkpt lat="43.21358" lon="5.50635">
        <ele>183.4</ele>
        <time>2025-10-19T08:18:20Z</time>
      </trkpt>
      <trkpt lat="43.21356" lon="5.50634">
        <ele>183.4</ele>
        <time>2025-10-19T08:18:21Z</time>
      </trkpt>
      <trkpt lat="43.21355" lon="5.50633">
        <ele>183.3</ele>
        <time>2025-10-19T08:18:22Z</time>
      </trkpt>
      <trkpt lat="43.21354" lon="5.50633">
        <ele>183.2</ele>
        <time>2025-10-19T08:18:23Z</time>
      </trkpt>
      <trkpt lat="43.21353" lon="5.50632">
        <ele>183.2</ele>
        <time>2025-10-19T08:18:24Z</time>
      </trkpt>
      <trkpt lat="43.21352" lon="5.50632">
        <ele>183.1</ele>
        <time>2025-10-19T08:18:25Z</time>
      </trkpt>
      <trkpt lat="43.21351" lon="5.50632">
        <ele>183.1</ele>
        <time>2025-10-19T08:18:26Z</time>
      </trkpt>
      <trkpt lat="43.2135" lon="5.50631">
        <ele>183</ele>
        <time>2025-10-19T08:18:27Z</time>
      </trkpt>
      <trkpt lat="43.21348" lon="5.50631">
        <ele>182.9</ele>
        <time>2025-10-19T08:18:28Z</time>
      </trkpt>
      <trkpt lat="43.21347" lon="5.50631">
        <ele>182.7</ele>
        <time>2025-10-19T08:18:29Z</time>
      </trkpt>
      <trkpt lat="43.21346" lon="5.50631">
        <ele>182.8</ele>
        <time>2025-10-19T08:18:30Z</time>
      </trkpt>
      <trkpt lat="43.21345" lon="5.5063">
        <ele>182.7</ele>
        <time>2025-10-19T08:18:31Z</time>
      </trkpt>
      <trkpt lat="43.21344" lon="5.5063">
        <ele>182.6</ele>
        <time>2025-10-19T08:18:32Z</time>
      </trkpt>
      <trkpt lat="43.21343" lon="5.5063">
        <ele>182.6</ele>
        <time>2025-10-19T08:18:33Z</time>
      </trkpt>
      <trkpt lat="43.21342" lon="5.50629">
        <ele>182.6</ele>
        <time>2025-10-19T08:18:34Z</time>
      </trkpt>
      <trkpt lat="43.2134" lon="5.50628">
        <ele>182.6</ele>
        <time>2025-10-19T08:18:35Z</time>
      </trkpt>
      <trkpt lat="43.21339" lon="5.50628">
        <ele>182.4</ele>
        <time>2025-10-19T08:18:36Z</time>
      </trkpt>
      <trkpt lat="43.21337" lon="5.50628">
        <ele>182.3</ele>
        <time>2025-10-19T08:18:37Z</time>
      </trkpt>
      <trkpt lat="43.21336" lon="5.50628">
        <ele>182.2</ele>
        <time>2025-10-19T08:18:38Z</time>
      </trkpt>
      <trkpt lat="43.21336" lon="5.50629">
        <ele>182.1</ele>
        <time>2025-10-19T08:18:39Z</time>
      </trkpt>
      <trkpt lat="43.21334" lon="5.50629">
        <ele>182.1</ele>
        <time>2025-10-19T08:18:40Z</time>
      </trkpt>
      <trkpt lat="43.21333" lon="5.50629">
        <ele>182</ele>
        <time>2025-10-19T08:18:41Z</time>
      </trkpt>
      <trkpt lat="43.21332" lon="5.50629">
        <ele>182</ele>
        <time>2025-10-19T08:18:42Z</time>
      </trkpt>
      <trkpt lat="43.21331" lon="5.50629">
        <ele>182</ele>
        <time>2025-10-19T08:18:43Z</time>
      </trkpt>
      <trkpt lat="43.2133" lon="5.50629">
        <ele>181.9</ele>
        <time>2025-10-19T08:18:44Z</time>
      </trkpt>
      <trkpt lat="43.21329" lon="5.50629">
        <ele>181.8</ele>
        <time>2025-10-19T08:18:45Z</time>
      </trkpt>
      <trkpt lat="43.21328" lon="5.50629">
        <ele>181.7</ele>
        <time>2025-10-19T08:18:46Z</time>
      </trkpt>
      <trkpt lat="43.21327" lon="5.50629">
        <ele>181.6</ele>
        <time>2025-10-19T08:18:47Z</time>
      </trkpt>
      <trkpt lat="43.21326" lon="5.50628">
        <ele>181.5</ele>
        <time>2025-10-19T08:18:48Z</time>
      </trkpt>
      <trkpt lat="43.21325" lon="5.50628">
        <ele>181.4</ele>
        <time>2025-10-19T08:18:49Z</time>
      </trkpt>
      <trkpt lat="43.21324" lon="5.50628">
        <ele>181.4</ele>
        <time>2025-10-19T08:18:50Z</time>
      </trkpt>
      <trkpt lat="43.21323" lon="5.50627">
        <ele>181.3</ele>
        <time>2025-10-19T08:18:51Z</time>
      </trkpt>
      <trkpt lat="43.21322" lon="5.50627">
        <ele>181.2</ele>
        <time>2025-10-19T08:18:52Z</time>
      </trkpt>
      <trkpt lat="43.21321" lon="5.50628">
        <ele>181.2</ele>
        <time>2025-10-19T08:18:53Z</time>
      </trkpt>
      <trkpt lat="43.2132" lon="5.50628">
        <ele>181.1</ele>
        <time>2025-10-19T08:18:54Z</time>
      </trkpt>
      <trkpt lat="43.21319" lon="5.50627">
        <ele>181.1</ele>
        <time>2025-10-19T08:18:55Z</time>
      </trkpt>
      <trkpt lat="43.21318" lon="5.50627">
        <ele>181</ele>
        <time>2025-10-19T08:18:56Z</time>
      </trkpt>
      <trkpt lat="43.21316" lon="5.50627">
        <ele>181</ele>
        <time>2025-10-19T08:18:57Z</time>
      </trkpt>
      <trkpt lat="43.21315" lon="5.50627">
        <ele>180.9</ele>
        <time>2025-10-19T08:18:58Z</time>
      </trkpt>
      <trkpt lat="43.21314" lon="5.50627">
        <ele>180.8</ele>
        <time>2025-10-19T08:18:59Z</time>
      </trkpt>
      <trkpt lat="43.21313" lon="5.50626">
        <ele>180.7</ele>
        <time>2025-10-19T08:19:00Z</time>
      </trkpt>
      <trkpt lat="43.21312" lon="5.50626">
        <ele>180.6</ele>
        <time>2025-10-19T08:19:01Z</time>
      </trkpt>
      <trkpt lat="43.21311" lon="5.50625">
        <ele>180.5</ele>
        <time>2025-10-19T08:19:02Z</time>
      </trkpt>
      <trkpt lat="43.21309" lon="5.50625">
        <ele>180.4</ele>
        <time>2025-10-19T08:19:03Z</time>
      </trkpt>
      <trkpt lat="43.21308" lon="5.50624">
        <ele>180.4</ele>
        <time>2025-10-19T08:19:04Z</time>
      </trkpt>
      <trkpt lat="43.21307" lon="5.50624">
        <ele>180.3</ele>
        <time>2025-10-19T08:19:05Z</time>
      </trkpt>
      <trkpt lat="43.21306" lon="5.50624">
        <ele>180.2</ele>
        <time>2025-10-19T08:19:06Z</time>
      </trkpt>
      <trkpt lat="43.21305" lon="5.50623">
        <ele>180.1</ele>
        <time>2025-10-19T08:19:07Z</time>
      </trkpt>
      <trkpt lat="43.21304" lon="5.50623">
        <ele>180.1</ele>
        <time>2025-10-19T08:19:08Z</time>
      </trkpt>
      <trkpt lat="43.21303" lon="5.50622">
        <ele>180</ele>
        <time>2025-10-19T08:19:09Z</time>
      </trkpt>
      <trkpt lat="43.21301" lon="5.50621">
        <ele>180</ele>
        <time>2025-10-19T08:19:10Z</time>
      </trkpt>
      <trkpt lat="43.213" lon="5.5062">
        <ele>179.9</ele>
        <time>2025-10-19T08:19:11Z</time>
      </trkpt>
      <trkpt lat="43.21299" lon="5.5062">
        <ele>179.9</ele>
        <time>2025-10-19T08:19:12Z</time>
      </trkpt>
      <trkpt lat="43.21298" lon="5.50619">
        <ele>179.9</ele>
        <time>2025-10-19T08:19:13Z</time>
      </trkpt>
      <trkpt lat="43.21297" lon="5.50619">
        <ele>179.7</ele>
        <time>2025-10-19T08:19:14Z</time>
      </trkpt>
      <trkpt lat="43.21295" lon="5.50619">
        <ele>179.5</ele>
        <time>2025-10-19T08:19:15Z</time>
      </trkpt>
      <trkpt lat="43.21295" lon="5.50618">
        <ele>179.4</ele>
        <time>2025-10-19T08:19:16Z</time>
      </trkpt>
      <trkpt lat="43.21293" lon="5.50618">
        <ele>179.2</ele>
        <time>2025-10-19T08:19:17Z</time>
      </trkpt>
      <trkpt lat="43.21292" lon="5.50618">
        <ele>179.1</ele>
        <time>2025-10-19T08:19:18Z</time>
      </trkpt>
      <trkpt lat="43.21291" lon="5.50617">
        <ele>179.1</ele>
        <time>2025-10-19T08:19:19Z</time>
      </trkpt>
      <trkpt lat="43.2129" lon="5.50617">
        <ele>179.1</ele>
        <time>2025-10-19T08:19:20Z</time>
      </trkpt>
      <trkpt lat="43.21289" lon="5.50617">
        <ele>179</ele>
        <time>2025-10-19T08:19:21Z</time>
      </trkpt>
      <trkpt lat="43.21288" lon="5.50616">
        <ele>179.1</ele>
        <time>2025-10-19T08:19:22Z</time>
      </trkpt>
      <trkpt lat="43.21287" lon="5.50615">
        <ele>179</ele>
        <time>2025-10-19T08:19:23Z</time>
      </trkpt>
      <trkpt lat="43.21286" lon="5.50614">
        <ele>178.9</ele>
        <time>2025-10-19T08:19:24Z</time>
      </trkpt>
      <trkpt lat="43.21285" lon="5.50613">
        <ele>178.9</ele>
        <time>2025-10-19T08:19:25Z</time>
      </trkpt>
      <trkpt lat="43.21284" lon="5.50613">
        <ele>178.8</ele>
        <time>2025-10-19T08:19:26Z</time>
      </trkpt>
      <trkpt lat="43.21282" lon="5.50613">
        <ele>178.6</ele>
        <time>2025-10-19T08:19:27Z</time>
      </trkpt>
      <trkpt lat="43.21281" lon="5.50612">
        <ele>178.5</ele>
        <time>2025-10-19T08:19:28Z</time>
      </trkpt>
      <trkpt lat="43.2128" lon="5.50612">
        <ele>178.5</ele>
        <time>2025-10-19T08:19:29Z</time>
      </trkpt>
      <trkpt lat="43.21279" lon="5.50611">
        <ele>178.4</ele>
        <time>2025-10-19T08:19:30Z</time>
      </trkpt>
      <trkpt lat="43.21278" lon="5.50611">
        <ele>178.3</ele>
        <time>2025-10-19T08:19:31Z</time>
      </trkpt>
      <trkpt lat="43.21278" lon="5.50611">
        <ele>178.3</ele>
        <time>2025-10-19T08:19:32Z</time>
      </trkpt>
      <trkpt lat="43.21277" lon="5.5061">
        <ele>178.2</ele>
        <time>2025-10-19T08:19:33Z</time>
      </trkpt>
      <trkpt lat="43.21275" lon="5.5061">
        <ele>178.1</ele>
        <time>2025-10-19T08:19:34Z</time>
      </trkpt>
      <trkpt lat="43.21274" lon="5.5061">
        <ele>178.1</ele>
        <time>2025-10-19T08:19:35Z</time>
      </trkpt>
      <trkpt lat="43.21274" lon="5.5061">
        <ele>177.9</ele>
        <time>2025-10-19T08:19:36Z</time>
      </trkpt>
      <trkpt lat="43.21273" lon="5.50609">
        <ele>177.8</ele>
        <time>2025-10-19T08:19:37Z</time>
      </trkpt>
      <trkpt lat="43.21271" lon="5.50609">
        <ele>177.7</ele>
        <time>2025-10-19T08:19:38Z</time>
      </trkpt>
      <trkpt lat="43.2127" lon="5.50609">
        <ele>177.6</ele>
        <time>2025-10-19T08:19:39Z</time>
      </trkpt>
      <trkpt lat="43.21269" lon="5.50609">
        <ele>177.5</ele>
        <time>2025-10-19T08:19:40Z</time>
      </trkpt>
      <trkpt lat="43.21267" lon="5.50609">
        <ele>177.5</ele>
        <time>2025-10-19T08:19:41Z</time>
      </trkpt>
      <trkpt lat="43.21266" lon="5.50609">
        <ele>177.4</ele>
        <time>2025-10-19T08:19:42Z</time>
      </trkpt>
      <trkpt lat="43.21265" lon="5.50608">
        <ele>177.3</ele>
        <time>2025-10-19T08:19:43Z</time>
      </trkpt>
      <trkpt lat="43.21264" lon="5.50607">
        <ele>177.1</ele>
        <time>2025-10-19T08:19:44Z</time>
      </trkpt>
      <trkpt lat="43.21263" lon="5.50607">
        <ele>177</ele>
        <time>2025-10-19T08:19:45Z</time>
      </trkpt>
      <trkpt lat="43.21262" lon="5.50606">
        <ele>177</ele>
        <time>2025-10-19T08:19:46Z</time>
      </trkpt>
      <trkpt lat="43.21261" lon="5.50606">
        <ele>176.9</ele>
        <time>2025-10-19T08:19:47Z</time>
      </trkpt>
      <trkpt lat="43.21259" lon="5.50606">
        <ele>176.8</ele>
        <time>2025-10-19T08:19:48Z</time>
      </trkpt>
      <trkpt lat="43.21258" lon="5.50604">
        <ele>176.7</ele>
        <time>2025-10-19T08:19:49Z</time>
      </trkpt>
      <trkpt lat="43.21257" lon="5.50604">
        <ele>176.7</ele>
        <time>2025-10-19T08:19:50Z</time>
      </trkpt>
      <trkpt lat="43.21256" lon="5.50603">
        <ele>176.7</ele>
        <time>2025-10-19T08:19:51Z</time>
      </trkpt>
      <trkpt lat="43.21255" lon="5.50603">
        <ele>176.7</ele>
        <time>2025-10-19T08:19:52Z</time>
      </trkpt>
      <trkpt lat="43.21254" lon="5.50601">
        <ele>176.6</ele>
        <time>2025-10-19T08:19:53Z</time>
      </trkpt>
      <trkpt lat="43.21252" lon="5.506">
        <ele>176.3</ele>
        <time>2025-10-19T08:19:54Z</time>
      </trkpt>
      <trkpt lat="43.21251" lon="5.50599">
        <ele>176.2</ele>
        <time>2025-10-19T08:19:55Z</time>
      </trkpt>
      <trkpt lat="43.2125" lon="5.50598">
        <ele>176.1</ele>
        <time>2025-10-19T08:19:56Z</time>
      </trkpt>
      <trkpt lat="43.21249" lon="5.50598">
        <ele>176</ele>
        <time>2025-10-19T08:19:57Z</time>
      </trkpt>
      <trkpt lat="43.21248" lon="5.50597">
        <ele>175.9</ele>
        <time>2025-10-19T08:19:58Z</time>
      </trkpt>
      <trkpt lat="43.21247" lon="5.50597">
        <ele>175.8</ele>
        <time>2025-10-19T08:19:59Z</time>
      </trkpt>
      <trkpt lat="43.21246" lon="5.50596">
        <ele>175.8</ele>
        <time>2025-10-19T08:20:00Z</time>
      </trkpt>
      <trkpt lat="43.21246" lon="5.50596">
        <ele>175.7</ele>
        <time>2025-10-19T08:20:01Z</time>
      </trkpt>
      <trkpt lat="43.21245" lon="5.50595">
        <ele>175.7</ele>
        <time>2025-10-19T08:20:02Z</time>
      </trkpt>
      <trkpt lat="43.21244" lon="5.50595">
        <ele>175.7</ele>
        <time>2025-10-19T08:20:03Z</time>
      </trkpt>
      <trkpt lat="43.21243" lon="5.50594">
        <ele>175.7</ele>
        <time>2025-10-19T08:20:04Z</time>
      </trkpt>
      <trkpt lat="43.21242" lon="5.50593">
        <ele>175.7</ele>
        <time>2025-10-19T08:20:05Z</time>
      </trkpt>
      <trkpt lat="43.21242" lon="5.50593">
        <ele>175.7</ele>
        <time>2025-10-19T08:20:06Z</time>
      </trkpt>
      <trkpt lat="43.2124" lon="5.50591">
        <ele>175.6</ele>
        <time>2025-10-19T08:20:07Z</time>
      </trkpt>
      <trkpt lat="43.21239" lon="5.5059">
        <ele>175.5</ele>
        <time>2025-10-19T08:20:08Z</time>
      </trkpt>
      <trkpt lat="43.21238" lon="5.50589">
        <ele>175.5</ele>
        <time>2025-10-19T08:20:09Z</time>
      </trkpt>
      <trkpt lat="43.21238" lon="5.50588">
        <ele>175.5</ele>
        <time>2025-10-19T08:20:10Z</time>
      </trkpt>
      <trkpt lat="43.21237" lon="5.50587">
        <ele>175.4</ele>
        <time>2025-10-19T08:20:11Z</time>
      </trkpt>
      <trkpt lat="43.21236" lon="5.50586">
        <ele>175.3</ele>
        <time>2025-10-19T08:20:12Z</time>
      </trkpt>
      <trkpt lat="43.21236" lon="5.50585">
        <ele>175.2</ele>
        <time>2025-10-19T08:20:13Z</time>
      </trkpt>
      <trkpt lat="43.21235" lon="5.50584">
        <ele>175.2</ele>
        <time>2025-10-19T08:20:14Z</time>
      </trkpt>
      <trkpt lat="43.21235" lon="5.50583">
        <ele>175.1</ele>
        <time>2025-10-19T08:20:15Z</time>
      </trkpt>
      <trkpt lat="43.21234" lon="5.50582">
        <ele>175.1</ele>
        <time>2025-10-19T08:20:16Z</time>
      </trkpt>
      <trkpt lat="43.21233" lon="5.50581">
        <ele>175.1</ele>
        <time>2025-10-19T08:20:17Z</time>
      </trkpt>
      <trkpt lat="43.21232" lon="5.5058">
        <ele>175</ele>
        <time>2025-10-19T08:20:18Z</time>
      </trkpt>
      <trkpt lat="43.21231" lon="5.50579">
        <ele>175</ele>
        <time>2025-10-19T08:20:19Z</time>
      </trkpt>
      <trkpt lat="43.2123" lon="5.50578">
        <ele>174.9</ele>
        <time>2025-10-19T08:20:20Z</time>
      </trkpt>
      <trkpt lat="43.21229" lon="5.50577">
        <ele>174.8</ele>
        <time>2025-10-19T08:20:21Z</time>
      </trkpt>
      <trkpt lat="43.21228" lon="5.50576">
        <ele>174.8</ele>
        <time>2025-10-19T08:20:22Z</time>
      </trkpt>
      <trkpt lat="43.21228" lon="5.50575">
        <ele>174.7</ele>
        <time>2025-10-19T08:20:23Z</time>
      </trkpt>
      <trkpt lat="43.21227" lon="5.50574">
        <ele>174.7</ele>
        <time>2025-10-19T08:20:24Z</time>
      </trkpt>
      <trkpt lat="43.21227" lon="5.50573">
        <ele>174.7</ele>
        <time>2025-10-19T08:20:25Z</time>
      </trkpt>
      <trkpt lat="43.21226" lon="5.50573">
        <ele>174.8</ele>
        <time>2025-10-19T08:20:26Z</time>
      </trkpt>
      <trkpt lat="43.21226" lon="5.50572">
        <ele>174.6</ele>
        <time>2025-10-19T08:20:27Z</time>
      </trkpt>
      <trkpt lat="43.21225" lon="5.50571">
        <ele>174.5</ele>
        <time>2025-10-19T08:20:28Z</time>
      </trkpt>
      <trkpt lat="43.21224" lon="5.50571">
        <ele>174.5</ele>
        <time>2025-10-19T08:20:29Z</time>
      </trkpt>
      <trkpt lat="43.21223" lon="5.50569">
        <ele>174.4</ele>
        <time>2025-10-19T08:20:30Z</time>
      </trkpt>
      <trkpt lat="43.21222" lon="5.50568">
        <ele>174.5</ele>
        <time>2025-10-19T08:20:31Z</time>
      </trkpt>
      <trkpt lat="43.21221" lon="5.50568">
        <ele>174.3</ele>
        <time>2025-10-19T08:20:32Z</time>
      </trkpt>
      <trkpt lat="43.2122" lon="5.50567">
        <ele>174.2</ele>
        <time>2025-10-19T08:20:33Z</time>
      </trkpt>
      <trkpt lat="43.21219" lon="5.50567">
        <ele>174.2</ele>
        <time>2025-10-19T08:20:34Z</time>
      </trkpt>
      <trkpt lat="43.21218" lon="5.50566">
        <ele>174.3</ele>
        <time>2025-10-19T08:20:35Z</time>
      </trkpt>
      <trkpt lat="43.21217" lon="5.50565">
        <ele>174.4</ele>
        <time>2025-10-19T08:20:36Z</time>
      </trkpt>
      <trkpt lat="43.21216" lon="5.50565">
        <ele>174.3</ele>
        <time>2025-10-19T08:20:37Z</time>
      </trkpt>
      <trkpt lat="43.21214" lon="5.50564">
        <ele>174.3</ele>
        <time>2025-10-19T08:20:38Z</time>
      </trkpt>
      <trkpt lat="43.21213" lon="5.50563">
        <ele>174.2</ele>
        <time>2025-10-19T08:20:39Z</time>
      </trkpt>
      <trkpt lat="43.21212" lon="5.50563">
        <ele>174.1</ele>
        <time>2025-10-19T08:20:40Z</time>
      </trkpt>
      <trkpt lat="43.2121" lon="5.50563">
        <ele>174</ele>
        <time>2025-10-19T08:20:41Z</time>
      </trkpt>
      <trkpt lat="43.21209" lon="5.50563">
        <ele>174.1</ele>
        <time>2025-10-19T08:20:42Z</time>
      </trkpt>
      <trkpt lat="43.21208" lon="5.50562">
        <ele>174</ele>
        <time>2025-10-19T08:20:43Z</time>
      </trkpt>
      <trkpt lat="43.21207" lon="5.50562">
        <ele>174</ele>
        <time>2025-10-19T08:20:44Z</time>
      </trkpt>
      <trkpt lat="43.21205" lon="5.50561">
        <ele>173.6</ele>
        <time>2025-10-19T08:20:45Z</time>
      </trkpt>
      <trkpt lat="43.21204" lon="5.5056">
        <ele>173.5</ele>
        <time>2025-10-19T08:20:46Z</time>
      </trkpt>
      <trkpt lat="43.21202" lon="5.50559">
        <ele>173.5</ele>
        <time>2025-10-19T08:20:47Z</time>
      </trkpt>
      <trkpt lat="43.21201" lon="5.50558">
        <ele>173.4</ele>
        <time>2025-10-19T08:20:48Z</time>
      </trkpt>
      <trkpt lat="43.212" lon="5.50558">
        <ele>173.4</ele>
        <time>2025-10-19T08:20:49Z</time>
      </trkpt>
      <trkpt lat="43.21199" lon="5.50557">
        <ele>173.2</ele>
        <time>2025-10-19T08:20:50Z</time>
      </trkpt>
      <trkpt lat="43.21198" lon="5.50557">
        <ele>173.1</ele>
        <time>2025-10-19T08:20:51Z</time>
      </trkpt>
      <trkpt lat="43.21196" lon="5.50556">
        <ele>173.1</ele>
        <time>2025-10-19T08:20:52Z</time>
      </trkpt>
      <trkpt lat="43.21195" lon="5.50555">
        <ele>173</ele>
        <time>2025-10-19T08:20:53Z</time>
      </trkpt>
      <trkpt lat="43.21194" lon="5.50555">
        <ele>173</ele>
        <time>2025-10-19T08:20:54Z</time>
      </trkpt>
      <trkpt lat="43.21192" lon="5.50553">
        <ele>172.9</ele>
        <time>2025-10-19T08:20:55Z</time>
      </trkpt>
      <trkpt lat="43.21191" lon="5.50552">
        <ele>172.9</ele>
        <time>2025-10-19T08:20:56Z</time>
      </trkpt>
      <trkpt lat="43.2119" lon="5.50551">
        <ele>172.8</ele>
        <time>2025-10-19T08:20:57Z</time>
      </trkpt>
      <trkpt lat="43.21189" lon="5.5055">
        <ele>173</ele>
        <time>2025-10-19T08:20:58Z</time>
      </trkpt>
      <trkpt lat="43.21188" lon="5.50549">
        <ele>172.9</ele>
        <time>2025-10-19T08:20:59Z</time>
      </trkpt>
      <trkpt lat="43.21187" lon="5.50547">
        <ele>172.8</ele>
        <time>2025-10-19T08:21:00Z</time>
      </trkpt>
      <trkpt lat="43.21186" lon="5.50547">
        <ele>172.8</ele>
        <time>2025-10-19T08:21:01Z</time>
      </trkpt>
      <trkpt lat="43.21185" lon="5.50546">
        <ele>172.7</ele>
        <time>2025-10-19T08:21:02Z</time>
      </trkpt>
      <trkpt lat="43.21184" lon="5.50545">
        <ele>172.6</ele>
        <time>2025-10-19T08:21:03Z</time>
      </trkpt>
      <trkpt lat="43.21183" lon="5.50544">
        <ele>172.5</ele>
        <time>2025-10-19T08:21:04Z</time>
      </trkpt>
      <trkpt lat="43.21182" lon="5.50543">
        <ele>172.4</ele>
        <time>2025-10-19T08:21:05Z</time>
      </trkpt>
      <trkpt lat="43.21181" lon="5.50543">
        <ele>172.4</ele>
        <time>2025-10-19T08:21:06Z</time>
      </trkpt>
      <trkpt lat="43.2118" lon="5.50542">
        <ele>172.3</ele>
        <time>2025-10-19T08:21:07Z</time>
      </trkpt>
      <trkpt lat="43.21179" lon="5.50541">
        <ele>172.2</ele>
        <time>2025-10-19T08:21:08Z</time>
      </trkpt>
      <trkpt lat="43.21178" lon="5.50541">
        <ele>172.1</ele>
        <time>2025-10-19T08:21:09Z</time>
      </trkpt>
      <trkpt lat="43.21177" lon="5.5054">
        <ele>172</ele>
        <time>2025-10-19T08:21:10Z</time>
      </trkpt>
      <trkpt lat="43.21176" lon="5.50539">
        <ele>172</ele>
        <time>2025-10-19T08:21:11Z</time>
      </trkpt>
      <trkpt lat="43.21174" lon="5.50538">
        <ele>171.9</ele>
        <time>2025-10-19T08:21:12Z</time>
      </trkpt>
      <trkpt lat="43.21173" lon="5.50537">
        <ele>171.9</ele>
        <time>2025-10-19T08:21:13Z</time>
      </trkpt>
      <trkpt lat="43.21172" lon="5.50536">
        <ele>171.9</ele>
        <time>2025-10-19T08:21:14Z</time>
      </trkpt>
      <trkpt lat="43.21171" lon="5.50535">
        <ele>171.9</ele>
        <time>2025-10-19T08:21:15Z</time>
      </trkpt>
      <trkpt lat="43.21169" lon="5.50535">
        <ele>171.9</ele>
        <time>2025-10-19T08:21:16Z</time>
      </trkpt>
      <trkpt lat="43.21168" lon="5.50534">
        <ele>171.9</ele>
        <time>2025-10-19T08:21:17Z</time>
      </trkpt>
      <trkpt lat="43.21167" lon="5.50533">
        <ele>171.8</ele>
        <time>2025-10-19T08:21:18Z</time>
      </trkpt>
      <trkpt lat="43.21166" lon="5.50533">
        <ele>171.8</ele>
        <time>2025-10-19T08:21:19Z</time>
      </trkpt>
      <trkpt lat="43.21165" lon="5.50533">
        <ele>171.7</ele>
        <time>2025-10-19T08:21:20Z</time>
      </trkpt>
      <trkpt lat="43.21164" lon="5.50532">
        <ele>171.6</ele>
        <time>2025-10-19T08:21:21Z</time>
      </trkpt>
      <trkpt lat="43.21163" lon="5.50531">
        <ele>171.5</ele>
        <time>2025-10-19T08:21:22Z</time>
      </trkpt>
      <trkpt lat="43.21162" lon="5.50531">
        <ele>171.3</ele>
        <time>2025-10-19T08:21:23Z</time>
      </trkpt>
      <trkpt lat="43.21161" lon="5.50531">
        <ele>171.3</ele>
        <time>2025-10-19T08:21:24Z</time>
      </trkpt>
      <trkpt lat="43.2116" lon="5.5053">
        <ele>171.2</ele>
        <time>2025-10-19T08:21:25Z</time>
      </trkpt>
      <trkpt lat="43.21159" lon="5.5053">
        <ele>171.1</ele>
        <time>2025-10-19T08:21:26Z</time>
      </trkpt>
      <trkpt lat="43.21158" lon="5.50529">
        <ele>171.1</ele>
        <time>2025-10-19T08:21:27Z</time>
      </trkpt>
      <trkpt lat="43.21158" lon="5.50529">
        <ele>171</ele>
        <time>2025-10-19T08:21:28Z</time>
      </trkpt>
      <trkpt lat="43.21157" lon="5.50528">
        <ele>170.9</ele>
        <time>2025-10-19T08:21:29Z</time>
      </trkpt>
      <trkpt lat="43.21156" lon="5.50528">
        <ele>171</ele>
        <time>2025-10-19T08:21:30Z</time>
      </trkpt>
      <trkpt lat="43.21155" lon="5.50527">
        <ele>170.9</ele>
        <time>2025-10-19T08:21:31Z</time>
      </trkpt>
      <trkpt lat="43.21154" lon="5.50526">
        <ele>170.7</ele>
        <time>2025-10-19T08:21:32Z</time>
      </trkpt>
      <trkpt lat="43.21153" lon="5.50526">
        <ele>170.8</ele>
        <time>2025-10-19T08:21:33Z</time>
      </trkpt>
      <trkpt lat="43.21152" lon="5.50525">
        <ele>170.8</ele>
        <time>2025-10-19T08:21:34Z</time>
      </trkpt>
      <trkpt lat="43.21151" lon="5.50525">
        <ele>170.8</ele>
        <time>2025-10-19T08:21:35Z</time>
      </trkpt>
      <trkpt lat="43.2115" lon="5.50524">
        <ele>170.9</ele>
        <time>2025-10-19T08:21:36Z</time>
      </trkpt>
      <trkpt lat="43.21149" lon="5.50523">
        <ele>170.9</ele>
        <time>2025-10-19T08:21:37Z</time>
      </trkpt>
      <trkpt lat="43.21148" lon="5.50523">
        <ele>170.7</ele>
        <time>2025-10-19T08:21:38Z</time>
      </trkpt>
      <trkpt lat="43.21147" lon="5.50522">
        <ele>170.6</ele>
        <time>2025-10-19T08:21:39Z</time>
      </trkpt>
      <trkpt lat="43.21146" lon="5.50521">
        <ele>170.5</ele>
        <time>2025-10-19T08:21:40Z</time>
      </trkpt>
      <trkpt lat="43.21146" lon="5.5052">
        <ele>170.3</ele>
        <time>2025-10-19T08:21:41Z</time>
      </trkpt>
      <trkpt lat="43.21145" lon="5.50519">
        <ele>170.2</ele>
        <time>2025-10-19T08:21:42Z</time>
      </trkpt>
      <trkpt lat="43.21144" lon="5.50519">
        <ele>170</ele>
        <time>2025-10-19T08:21:43Z</time>
      </trkpt>
      <trkpt lat="43.21144" lon="5.50518">
        <ele>169.9</ele>
        <time>2025-10-19T08:21:44Z</time>
      </trkpt>
      <trkpt lat="43.21142" lon="5.50517">
        <ele>169.8</ele>
        <time>2025-10-19T08:21:45Z</time>
      </trkpt>
      <trkpt lat="43.21141" lon="5.50516">
        <ele>169.8</ele>
        <time>2025-10-19T08:21:46Z</time>
      </trkpt>
      <trkpt lat="43.2114" lon="5.50515">
        <ele>169.7</ele>
        <time>2025-10-19T08:21:47Z</time>
      </trkpt>
      <trkpt lat="43.21139" lon="5.50515">
        <ele>169.7</ele>
        <time>2025-10-19T08:21:48Z</time>
      </trkpt>
      <trkpt lat="43.21139" lon="5.50514">
        <ele>169.7</ele>
        <time>2025-10-19T08:21:49Z</time>
      </trkpt>
      <trkpt lat="43.21138" lon="5.50513">
        <ele>169.5</ele>
        <time>2025-10-19T08:21:50Z</time>
      </trkpt>
      <trkpt lat="43.21137" lon="5.50512">
        <ele>169.4</ele>
        <time>2025-10-19T08:21:51Z</time>
      </trkpt>
      <trkpt lat="43.21137" lon="5.50512">
        <ele>169.4</ele>
        <time>2025-10-19T08:21:52Z</time>
      </trkpt>
      <trkpt lat="43.21136" lon="5.50511">
        <ele>169.3</ele>
        <time>2025-10-19T08:21:53Z</time>
      </trkpt>
      <trkpt lat="43.21135" lon="5.50511">
        <ele>169.1</ele>
        <time>2025-10-19T08:21:54Z</time>
      </trkpt>
      <trkpt lat="43.21134" lon="5.5051">
        <ele>169.1</ele>
        <time>2025-10-19T08:21:55Z</time>
      </trkpt>
      <trkpt lat="43.21133" lon="5.50509">
        <ele>168.9</ele>
        <time>2025-10-19T08:21:56Z</time>
      </trkpt>
      <trkpt lat="43.21131" lon="5.50509">
        <ele>168.8</ele>
        <time>2025-10-19T08:21:57Z</time>
      </trkpt>
      <trkpt lat="43.2113" lon="5.50508">
        <ele>168.7</ele>
        <time>2025-10-19T08:21:58Z</time>
      </trkpt>
      <trkpt lat="43.21129" lon="5.50507">
        <ele>168.5</ele>
        <time>2025-10-19T08:21:59Z</time>
      </trkpt>
      <trkpt lat="43.21128" lon="5.50506">
        <ele>168.4</ele>
        <time>2025-10-19T08:22:00Z</time>
      </trkpt>
      <trkpt lat="43.21127" lon="5.50506">
        <ele>168.3</ele>
        <time>2025-10-19T08:22:01Z</time>
      </trkpt>
      <trkpt lat="43.21125" lon="5.50506">
        <ele>168.2</ele>
        <time>2025-10-19T08:22:02Z</time>
      </trkpt>
      <trkpt lat="43.21124" lon="5.50505">
        <ele>168.2</ele>
        <time>2025-10-19T08:22:03Z</time>
      </trkpt>
      <trkpt lat="43.21123" lon="5.50505">
        <ele>168.2</ele>
        <time>2025-10-19T08:22:04Z</time>
      </trkpt>
      <trkpt lat="43.21122" lon="5.50504">
        <ele>168.2</ele>
        <time>2025-10-19T08:22:05Z</time>
      </trkpt>
      <trkpt lat="43.21121" lon="5.50504">
        <ele>168.3</ele>
        <time>2025-10-19T08:22:06Z</time>
      </trkpt>
      <trkpt lat="43.2112" lon="5.50503">
        <ele>168.4</ele>
        <time>2025-10-19T08:22:07Z</time>
      </trkpt>
      <trkpt lat="43.21119" lon="5.50502">
        <ele>168.4</ele>
        <time>2025-10-19T08:22:08Z</time>
      </trkpt>
      <trkpt lat="43.21118" lon="5.50501">
        <ele>168.4</ele>
        <time>2025-10-19T08:22:09Z</time>
      </trkpt>
      <trkpt lat="43.21117" lon="5.505">
        <ele>168.4</ele>
        <time>2025-10-19T08:22:10Z</time>
      </trkpt>
      <trkpt lat="43.21116" lon="5.50499">
        <ele>168.3</ele>
        <time>2025-10-19T08:22:11Z</time>
      </trkpt>
      <trkpt lat="43.21115" lon="5.50498">
        <ele>168.3</ele>
        <time>2025-10-19T08:22:12Z</time>
      </trkpt>
      <trkpt lat="43.21114" lon="5.50497">
        <ele>168.2</ele>
        <time>2025-10-19T08:22:13Z</time>
      </trkpt>
      <trkpt lat="43.21112" lon="5.50495">
        <ele>168.1</ele>
        <time>2025-10-19T08:22:14Z</time>
      </trkpt>
      <trkpt lat="43.21112" lon="5.50494">
        <ele>168.1</ele>
        <time>2025-10-19T08:22:15Z</time>
      </trkpt>
      <trkpt lat="43.21111" lon="5.50494">
        <ele>168</ele>
        <time>2025-10-19T08:22:16Z</time>
      </trkpt>
      <trkpt lat="43.21111" lon="5.50493">
        <ele>167.9</ele>
        <time>2025-10-19T08:22:17Z</time>
      </trkpt>
      <trkpt lat="43.2111" lon="5.50492">
        <ele>167.9</ele>
        <time>2025-10-19T08:22:18Z</time>
      </trkpt>
      <trkpt lat="43.21109" lon="5.50491">
        <ele>167.8</ele>
        <time>2025-10-19T08:22:19Z</time>
      </trkpt>
      <trkpt lat="43.21108" lon="5.50491">
        <ele>167.7</ele>
        <time>2025-10-19T08:22:20Z</time>
      </trkpt>
      <trkpt lat="43.21107" lon="5.5049">
        <ele>167.5</ele>
        <time>2025-10-19T08:22:21Z</time>
      </trkpt>
      <trkpt lat="43.21106" lon="5.50489">
        <ele>167.4</ele>
        <time>2025-10-19T08:22:22Z</time>
      </trkpt>
      <trkpt lat="43.21105" lon="5.50488">
        <ele>167.4</ele>
        <time>2025-10-19T08:22:23Z</time>
      </trkpt>
      <trkpt lat="43.21104" lon="5.50487">
        <ele>167.4</ele>
        <time>2025-10-19T08:22:24Z</time>
      </trkpt>
      <trkpt lat="43.21103" lon="5.50486">
        <ele>167.4</ele>
        <time>2025-10-19T08:22:25Z</time>
      </trkpt>
      <trkpt lat="43.21101" lon="5.50485">
        <ele>167.2</ele>
        <time>2025-10-19T08:22:26Z</time>
      </trkpt>
      <trkpt lat="43.211" lon="5.50484">
        <ele>167</ele>
        <time>2025-10-19T08:22:27Z</time>
      </trkpt>
      <trkpt lat="43.21099" lon="5.50484">
        <ele>166.9</ele>
        <time>2025-10-19T08:22:28Z</time>
      </trkpt>
      <trkpt lat="43.21098" lon="5.50483">
        <ele>166.8</ele>
        <time>2025-10-19T08:22:29Z</time>
      </trkpt>
      <trkpt lat="43.21097" lon="5.50483">
        <ele>166.8</ele>
        <time>2025-10-19T08:22:30Z</time>
      </trkpt>
      <trkpt lat="43.21096" lon="5.50482">
        <ele>166.7</ele>
        <time>2025-10-19T08:22:31Z</time>
      </trkpt>
      <trkpt lat="43.21095" lon="5.50482">
        <ele>166.4</ele>
        <time>2025-10-19T08:22:32Z</time>
      </trkpt>
      <trkpt lat="43.21094" lon="5.50481">
        <ele>166.3</ele>
        <time>2025-10-19T08:22:33Z</time>
      </trkpt>
      <trkpt lat="43.21094" lon="5.5048">
        <ele>166.3</ele>
        <time>2025-10-19T08:22:34Z</time>
      </trkpt>
      <trkpt lat="43.21093" lon="5.5048">
        <ele>166.3</ele>
        <time>2025-10-19T08:22:35Z</time>
      </trkpt>
      <trkpt lat="43.21092" lon="5.50479">
        <ele>166.3</ele>
        <time>2025-10-19T08:22:36Z</time>
      </trkpt>
      <trkpt lat="43.21091" lon="5.50479">
        <ele>166.3</ele>
        <time>2025-10-19T08:22:37Z</time>
      </trkpt>
      <trkpt lat="43.2109" lon="5.50478">
        <ele>166.3</ele>
        <time>2025-10-19T08:22:38Z</time>
      </trkpt>
      <trkpt lat="43.21089" lon="5.50477">
        <ele>166.3</ele>
        <time>2025-10-19T08:22:39Z</time>
      </trkpt>
      <trkpt lat="43.21089" lon="5.50475">
        <ele>166.1</ele>
        <time>2025-10-19T08:22:40Z</time>
      </trkpt>
      <trkpt lat="43.21088" lon="5.50474">
        <ele>166</ele>
        <time>2025-10-19T08:22:41Z</time>
      </trkpt>
      <trkpt lat="43.21088" lon="5.50474">
        <ele>165.9</ele>
        <time>2025-10-19T08:22:42Z</time>
      </trkpt>
      <trkpt lat="43.21087" lon="5.50473">
        <ele>165.8</ele>
        <time>2025-10-19T08:22:43Z</time>
      </trkpt>
      <trkpt lat="43.21086" lon="5.50471">
        <ele>165.7</ele>
        <time>2025-10-19T08:22:44Z</time>
      </trkpt>
      <trkpt lat="43.21085" lon="5.5047">
        <ele>165.6</ele>
        <time>2025-10-19T08:22:45Z</time>
      </trkpt>
      <trkpt lat="43.21084" lon="5.5047">
        <ele>165.6</ele>
        <time>2025-10-19T08:22:46Z</time>
      </trkpt>
      <trkpt lat="43.21083" lon="5.50469">
        <ele>165.5</ele>
        <time>2025-10-19T08:22:47Z</time>
      </trkpt>
      <trkpt lat="43.21083" lon="5.50468">
        <ele>165.5</ele>
        <time>2025-10-19T08:22:48Z</time>
      </trkpt>
      <trkpt lat="43.21082" lon="5.50467">
        <ele>165.4</ele>
        <time>2025-10-19T08:22:49Z</time>
      </trkpt>
      <trkpt lat="43.21082" lon="5.50467">
        <ele>165.3</ele>
        <time>2025-10-19T08:22:50Z</time>
      </trkpt>
      <trkpt lat="43.21081" lon="5.50466">
        <ele>165.2</ele>
        <time>2025-10-19T08:22:51Z</time>
      </trkpt>
      <trkpt lat="43.2108" lon="5.50465">
        <ele>165.1</ele>
        <time>2025-10-19T08:22:52Z</time>
      </trkpt>
      <trkpt lat="43.21079" lon="5.50464">
        <ele>165</ele>
        <time>2025-10-19T08:22:53Z</time>
      </trkpt>
      <trkpt lat="43.21078" lon="5.50463">
        <ele>164.9</ele>
        <time>2025-10-19T08:22:54Z</time>
      </trkpt>
      <trkpt lat="43.21078" lon="5.50463">
        <ele>164.9</ele>
        <time>2025-10-19T08:22:55Z</time>
      </trkpt>
      <trkpt lat="43.21077" lon="5.50461">
        <ele>164.8</ele>
        <time>2025-10-19T08:22:56Z</time>
      </trkpt>
      <trkpt lat="43.21076" lon="5.50461">
        <ele>164.8</ele>
        <time>2025-10-19T08:22:57Z</time>
      </trkpt>
      <trkpt lat="43.21075" lon="5.5046">
        <ele>164.6</ele>
        <time>2025-10-19T08:22:58Z</time>
      </trkpt>
      <trkpt lat="43.21074" lon="5.50459">
        <ele>164.6</ele>
        <time>2025-10-19T08:22:59Z</time>
      </trkpt>
      <trkpt lat="43.21073" lon="5.50459">
        <ele>164.6</ele>
        <time>2025-10-19T08:23:00Z</time>
      </trkpt>
      <trkpt lat="43.21072" lon="5.50458">
        <ele>164.6</ele>
        <time>2025-10-19T08:23:01Z</time>
      </trkpt>
      <trkpt lat="43.21071" lon="5.50457">
        <ele>164.5</ele>
        <time>2025-10-19T08:23:02Z</time>
      </trkpt>
      <trkpt lat="43.2107" lon="5.50455">
        <ele>164.4</ele>
        <time>2025-10-19T08:23:03Z</time>
      </trkpt>
      <trkpt lat="43.21069" lon="5.50455">
        <ele>164.3</ele>
        <time>2025-10-19T08:23:04Z</time>
      </trkpt>
      <trkpt lat="43.21069" lon="5.50454">
        <ele>164.3</ele>
        <time>2025-10-19T08:23:05Z</time>
      </trkpt>
      <trkpt lat="43.21068" lon="5.50454">
        <ele>164.3</ele>
        <time>2025-10-19T08:23:06Z</time>
      </trkpt>
      <trkpt lat="43.21066" lon="5.50453">
        <ele>164.2</ele>
        <time>2025-10-19T08:23:07Z</time>
      </trkpt>
      <trkpt lat="43.21066" lon="5.50453">
        <ele>164.2</ele>
        <time>2025-10-19T08:23:08Z</time>
      </trkpt>
      <trkpt lat="43.21064" lon="5.50452">
        <ele>164.1</ele>
        <time>2025-10-19T08:23:09Z</time>
      </trkpt>
      <trkpt lat="43.21063" lon="5.50451">
        <ele>164</ele>
        <time>2025-10-19T08:23:10Z</time>
      </trkpt>
      <trkpt lat="43.21062" lon="5.5045">
        <ele>163.9</ele>
        <time>2025-10-19T08:23:11Z</time>
      </trkpt>
      <trkpt lat="43.21061" lon="5.50449">
        <ele>163.9</ele>
        <time>2025-10-19T08:23:12Z</time>
      </trkpt>
      <trkpt lat="43.21061" lon="5.50447">
        <ele>163.8</ele>
        <time>2025-10-19T08:23:13Z</time>
      </trkpt>
      <trkpt lat="43.21061" lon="5.50446">
        <ele>163.7</ele>
        <time>2025-10-19T08:23:14Z</time>
      </trkpt>
      <trkpt lat="43.2106" lon="5.50446">
        <ele>163.6</ele>
        <time>2025-10-19T08:23:15Z</time>
      </trkpt>
      <trkpt lat="43.2106" lon="5.50445">
        <ele>163.5</ele>
        <time>2025-10-19T08:23:16Z</time>
      </trkpt>
      <trkpt lat="43.2106" lon="5.50444">
        <ele>163.3</ele>
        <time>2025-10-19T08:23:17Z</time>
      </trkpt>
      <trkpt lat="43.21059" lon="5.50443">
        <ele>163.3</ele>
        <time>2025-10-19T08:23:18Z</time>
      </trkpt>
      <trkpt lat="43.21058" lon="5.50442">
        <ele>163.2</ele>
        <time>2025-10-19T08:23:19Z</time>
      </trkpt>
      <trkpt lat="43.21058" lon="5.50441">
        <ele>163.2</ele>
        <time>2025-10-19T08:23:20Z</time>
      </trkpt>
      <trkpt lat="43.21058" lon="5.5044">
        <ele>163.2</ele>
        <time>2025-10-19T08:23:21Z</time>
      </trkpt>
      <trkpt lat="43.21057" lon="5.50438">
        <ele>163</ele>
        <time>2025-10-19T08:23:22Z</time>
      </trkpt>
      <trkpt lat="43.21057" lon="5.50436">
        <ele>162.9</ele>
        <time>2025-10-19T08:23:23Z</time>
      </trkpt>
      <trkpt lat="43.21057" lon="5.50435">
        <ele>162.8</ele>
        <time>2025-10-19T08:23:24Z</time>
      </trkpt>
      <trkpt lat="43.21056" lon="5.50434">
        <ele>162.8</ele>
        <time>2025-10-19T08:23:25Z</time>
      </trkpt>
      <trkpt lat="43.21056" lon="5.50432">
        <ele>162.8</ele>
        <time>2025-10-19T08:23:26Z</time>
      </trkpt>
      <trkpt lat="43.21056" lon="5.50429">
        <ele>162.7</ele>
        <time>2025-10-19T08:23:27Z</time>
      </trkpt>
      <trkpt lat="43.21056" lon="5.50428">
        <ele>162.6</ele>
        <time>2025-10-19T08:23:28Z</time>
      </trkpt>
      <trkpt lat="43.21055" lon="5.50427">
        <ele>162.5</ele>
        <time>2025-10-19T08:23:29Z</time>
      </trkpt>
      <trkpt lat="43.21055" lon="5.50425">
        <ele>162.3</ele>
        <time>2025-10-19T08:23:30Z</time>
      </trkpt>
      <trkpt lat="43.21054" lon="5.50424">
        <ele>162.3</ele>
        <time>2025-10-19T08:23:31Z</time>
      </trkpt>
      <trkpt lat="43.21053" lon="5.50423">
        <ele>162</ele>
        <time>2025-10-19T08:23:32Z</time>
      </trkpt>
      <trkpt lat="43.21052" lon="5.50421">
        <ele>161.9</ele>
        <time>2025-10-19T08:23:33Z</time>
      </trkpt>
      <trkpt lat="43.21051" lon="5.5042">
        <ele>161.7</ele>
        <time>2025-10-19T08:23:34Z</time>
      </trkpt>
      <trkpt lat="43.21051" lon="5.50418">
        <ele>161.5</ele>
        <time>2025-10-19T08:23:35Z</time>
      </trkpt>
      <trkpt lat="43.2105" lon="5.50416">
        <ele>161.4</ele>
        <time>2025-10-19T08:23:36Z</time>
      </trkpt>
      <trkpt lat="43.21049" lon="5.50414">
        <ele>161.5</ele>
        <time>2025-10-19T08:23:37Z</time>
      </trkpt>
      <trkpt lat="43.21049" lon="5.50411">
        <ele>161.4</ele>
        <time>2025-10-19T08:23:38Z</time>
      </trkpt>
      <trkpt lat="43.21049" lon="5.5041">
        <ele>161.3</ele>
        <time>2025-10-19T08:23:39Z</time>
      </trkpt>
      <trkpt lat="43.21048" lon="5.50408">
        <ele>161.2</ele>
        <time>2025-10-19T08:23:40Z</time>
      </trkpt>
      <trkpt lat="43.21047" lon="5.50408">
        <ele>161.2</ele>
        <time>2025-10-19T08:23:41Z</time>
      </trkpt>
      <trkpt lat="43.21047" lon="5.50407">
        <ele>161.2</ele>
        <time>2025-10-19T08:23:42Z</time>
      </trkpt>
      <trkpt lat="43.21047" lon="5.50405">
        <ele>161.1</ele>
        <time>2025-10-19T08:23:43Z</time>
      </trkpt>
      <trkpt lat="43.21047" lon="5.50404">
        <ele>161.1</ele>
        <time>2025-10-19T08:23:44Z</time>
      </trkpt>
      <trkpt lat="43.21046" lon="5.50402">
        <ele>161.1</ele>
        <time>2025-10-19T08:23:45Z</time>
      </trkpt>
      <trkpt lat="43.21045" lon="5.50401">
        <ele>161</ele>
        <time>2025-10-19T08:23:46Z</time>
      </trkpt>
      <trkpt lat="43.21044" lon="5.50399">
        <ele>161</ele>
        <time>2025-10-19T08:23:47Z</time>
      </trkpt>
      <trkpt lat="43.21043" lon="5.50397">
        <ele>160.9</ele>
        <time>2025-10-19T08:23:48Z</time>
      </trkpt>
      <trkpt lat="43.21043" lon="5.50396">
        <ele>160.8</ele>
        <time>2025-10-19T08:23:49Z</time>
      </trkpt>
      <trkpt lat="43.21043" lon="5.50395">
        <ele>160.8</ele>
        <time>2025-10-19T08:23:50Z</time>
      </trkpt>
      <trkpt lat="43.21042" lon="5.50394">
        <ele>160.8</ele>
        <time>2025-10-19T08:23:51Z</time>
      </trkpt>
      <trkpt lat="43.21042" lon="5.50393">
        <ele>160.8</ele>
        <time>2025-10-19T08:23:52Z</time>
      </trkpt>
      <trkpt lat="43.21041" lon="5.50391">
        <ele>160.8</ele>
        <time>2025-10-19T08:23:53Z</time>
      </trkpt>
      <trkpt lat="43.21041" lon="5.5039">
        <ele>160.7</ele>
        <time>2025-10-19T08:23:54Z</time>
      </trkpt>
      <trkpt lat="43.21041" lon="5.50389">
        <ele>160.7</ele>
        <time>2025-10-19T08:23:55Z</time>
      </trkpt>
      <trkpt lat="43.21041" lon="5.50388">
        <ele>160.6</ele>
        <time>2025-10-19T08:23:56Z</time>
      </trkpt>
      <trkpt lat="43.21042" lon="5.50388">
        <ele>160.5</ele>
        <time>2025-10-19T08:23:57Z</time>
      </trkpt>
      <trkpt lat="43.21042" lon="5.50387">
        <ele>160.4</ele>
        <time>2025-10-19T08:23:58Z</time>
      </trkpt>
      <trkpt lat="43.21041" lon="5.50385">
        <ele>160.4</ele>
        <time>2025-10-19T08:23:59Z</time>
      </trkpt>
      <trkpt lat="43.21041" lon="5.50384">
        <ele>160.3</ele>
        <time>2025-10-19T08:24:00Z</time>
      </trkpt>
      <trkpt lat="43.21041" lon="5.50381">
        <ele>160.3</ele>
        <time>2025-10-19T08:24:01Z</time>
      </trkpt>
      <trkpt lat="43.2104" lon="5.5038">
        <ele>160.2</ele>
        <time>2025-10-19T08:24:02Z</time>
      </trkpt>
      <trkpt lat="43.2104" lon="5.50377">
        <ele>160.2</ele>
        <time>2025-10-19T08:24:03Z</time>
      </trkpt>
      <trkpt lat="43.2104" lon="5.50375">
        <ele>160.1</ele>
        <time>2025-10-19T08:24:04Z</time>
      </trkpt>
      <trkpt lat="43.2104" lon="5.50374">
        <ele>160.1</ele>
        <time>2025-10-19T08:24:05Z</time>
      </trkpt>
      <trkpt lat="43.2104" lon="5.50373">
        <ele>160.1</ele>
        <time>2025-10-19T08:24:06Z</time>
      </trkpt>
      <trkpt lat="43.2104" lon="5.50372">
        <ele>159.9</ele>
        <time>2025-10-19T08:24:07Z</time>
      </trkpt>
      <trkpt lat="43.2104" lon="5.50369">
        <ele>159.9</ele>
        <time>2025-10-19T08:24:08Z</time>
      </trkpt>
      <trkpt lat="43.2104" lon="5.50367">
        <ele>159.9</ele>
        <time>2025-10-19T08:24:09Z</time>
      </trkpt>
      <trkpt lat="43.2104" lon="5.50365">
        <ele>159.9</ele>
        <time>2025-10-19T08:24:10Z</time>
      </trkpt>
      <trkpt lat="43.21039" lon="5.50363">
        <ele>159.8</ele>
        <time>2025-10-19T08:24:11Z</time>
      </trkpt>
      <trkpt lat="43.21039" lon="5.50362">
        <ele>159.8</ele>
        <time>2025-10-19T08:24:12Z</time>
      </trkpt>
      <trkpt lat="43.21039" lon="5.50361">
        <ele>159.8</ele>
        <time>2025-10-19T08:24:13Z</time>
      </trkpt>
      <trkpt lat="43.21038" lon="5.50359">
        <ele>159.7</ele>
        <time>2025-10-19T08:24:14Z</time>
      </trkpt>
      <trkpt lat="43.21038" lon="5.50357">
        <ele>159.6</ele>
        <time>2025-10-19T08:24:15Z</time>
      </trkpt>
      <trkpt lat="43.21038" lon="5.50355">
        <ele>159.6</ele>
        <time>2025-10-19T08:24:16Z</time>
      </trkpt>
      <trkpt lat="43.21037" lon="5.50354">
        <ele>159.5</ele>
        <time>2025-10-19T08:24:17Z</time>
      </trkpt>
      <trkpt lat="43.21037" lon="5.50352">
        <ele>159.5</ele>
        <time>2025-10-19T08:24:18Z</time>
      </trkpt>
      <trkpt lat="43.21036" lon="5.50351">
        <ele>159.5</ele>
        <time>2025-10-19T08:24:19Z</time>
      </trkpt>
      <trkpt lat="43.21036" lon="5.50349">
        <ele>159.5</ele>
        <time>2025-10-19T08:24:20Z</time>
      </trkpt>
      <trkpt lat="43.21035" lon="5.50348">
        <ele>159.5</ele>
        <time>2025-10-19T08:24:21Z</time>
      </trkpt>
      <trkpt lat="43.21035" lon="5.50346">
        <ele>159.4</ele>
        <time>2025-10-19T08:24:22Z</time>
      </trkpt>
      <trkpt lat="43.21034" lon="5.50344">
        <ele>159.5</ele>
        <time>2025-10-19T08:24:23Z</time>
      </trkpt>
      <trkpt lat="43.21034" lon="5.50342">
        <ele>159.4</ele>
        <time>2025-10-19T08:24:24Z</time>
      </trkpt>
      <trkpt lat="43.21033" lon="5.50341">
        <ele>159.4</ele>
        <time>2025-10-19T08:24:25Z</time>
      </trkpt>
      <trkpt lat="43.21032" lon="5.50339">
        <ele>159.3</ele>
        <time>2025-10-19T08:24:26Z</time>
      </trkpt>
      <trkpt lat="43.21031" lon="5.50337">
        <ele>159.3</ele>
        <time>2025-10-19T08:24:27Z</time>
      </trkpt>
      <trkpt lat="43.21032" lon="5.50335">
        <ele>159.4</ele>
        <time>2025-10-19T08:24:28Z</time>
      </trkpt>
      <trkpt lat="43.21031" lon="5.50333">
        <ele>159.1</ele>
        <time>2025-10-19T08:24:29Z</time>
      </trkpt>
      <trkpt lat="43.2103" lon="5.50332">
        <ele>159</ele>
        <time>2025-10-19T08:24:30Z</time>
      </trkpt>
      <trkpt lat="43.21029" lon="5.5033">
        <ele>158.9</ele>
        <time>2025-10-19T08:24:31Z</time>
      </trkpt>
      <trkpt lat="43.21029" lon="5.50329">
        <ele>158.8</ele>
        <time>2025-10-19T08:24:32Z</time>
      </trkpt>
      <trkpt lat="43.21028" lon="5.50328">
        <ele>158.7</ele>
        <time>2025-10-19T08:24:33Z</time>
      </trkpt>
      <trkpt lat="43.21028" lon="5.50327">
        <ele>158.6</ele>
        <time>2025-10-19T08:24:34Z</time>
      </trkpt>
      <trkpt lat="43.21027" lon="5.50325">
        <ele>158.6</ele>
        <time>2025-10-19T08:24:35Z</time>
      </trkpt>
      <trkpt lat="43.21027" lon="5.50324">
        <ele>158.5</ele>
        <time>2025-10-19T08:24:36Z</time>
      </trkpt>
      <trkpt lat="43.21026" lon="5.50322">
        <ele>158.3</ele>
        <time>2025-10-19T08:24:37Z</time>
      </trkpt>
      <trkpt lat="43.21026" lon="5.50321">
        <ele>158.3</ele>
        <time>2025-10-19T08:24:38Z</time>
      </trkpt>
      <trkpt lat="43.21026" lon="5.50319">
        <ele>158.3</ele>
        <time>2025-10-19T08:24:39Z</time>
      </trkpt>
      <trkpt lat="43.21025" lon="5.50318">
        <ele>158.3</ele>
        <time>2025-10-19T08:24:40Z</time>
      </trkpt>
      <trkpt lat="43.21025" lon="5.50315">
        <ele>158.3</ele>
        <time>2025-10-19T08:24:41Z</time>
      </trkpt>
      <trkpt lat="43.21024" lon="5.50314">
        <ele>158.1</ele>
        <time>2025-10-19T08:24:42Z</time>
      </trkpt>
      <trkpt lat="43.21024" lon="5.50313">
        <ele>157.9</ele>
        <time>2025-10-19T08:24:43Z</time>
      </trkpt>
      <trkpt lat="43.21024" lon="5.50311">
        <ele>157.8</ele>
        <time>2025-10-19T08:24:44Z</time>
      </trkpt>
      <trkpt lat="43.21023" lon="5.5031">
        <ele>157.7</ele>
        <time>2025-10-19T08:24:45Z</time>
      </trkpt>
      <trkpt lat="43.21023" lon="5.50308">
        <ele>157.6</ele>
        <time>2025-10-19T08:24:46Z</time>
      </trkpt>
      <trkpt lat="43.21022" lon="5.50307">
        <ele>157.6</ele>
        <time>2025-10-19T08:24:47Z</time>
      </trkpt>
      <trkpt lat="43.21021" lon="5.50305">
        <ele>157.5</ele>
        <time>2025-10-19T08:24:48Z</time>
      </trkpt>
      <trkpt lat="43.21021" lon="5.50304">
        <ele>157.4</ele>
        <time>2025-10-19T08:24:49Z</time>
      </trkpt>
      <trkpt lat="43.21021" lon="5.50302">
        <ele>157.3</ele>
        <time>2025-10-19T08:24:50Z</time>
      </trkpt>
      <trkpt lat="43.21021" lon="5.50301">
        <ele>157.3</ele>
        <time>2025-10-19T08:24:51Z</time>
      </trkpt>
      <trkpt lat="43.2102" lon="5.503">
        <ele>157.3</ele>
        <time>2025-10-19T08:24:52Z</time>
      </trkpt>
      <trkpt lat="43.21019" lon="5.50298">
        <ele>157.3</ele>
        <time>2025-10-19T08:24:53Z</time>
      </trkpt>
      <trkpt lat="43.21019" lon="5.50297">
        <ele>157.2</ele>
        <time>2025-10-19T08:24:54Z</time>
      </trkpt>
      <trkpt lat="43.21018" lon="5.50295">
        <ele>157.2</ele>
        <time>2025-10-19T08:24:55Z</time>
      </trkpt>
      <trkpt lat="43.21018" lon="5.50294">
        <ele>157.1</ele>
        <time>2025-10-19T08:24:56Z</time>
      </trkpt>
      <trkpt lat="43.21017" lon="5.50292">
        <ele>157.1</ele>
        <time>2025-10-19T08:24:57Z</time>
      </trkpt>
      <trkpt lat="43.21017" lon="5.50291">
        <ele>157.1</ele>
        <time>2025-10-19T08:24:58Z</time>
      </trkpt>
      <trkpt lat="43.21016" lon="5.50289">
        <ele>157.1</ele>
        <time>2025-10-19T08:24:59Z</time>
      </trkpt>
      <trkpt lat="43.21016" lon="5.50287">
        <ele>157.1</ele>
        <time>2025-10-19T08:25:00Z</time>
      </trkpt>
      <trkpt lat="43.21015" lon="5.50285">
        <ele>157</ele>
        <time>2025-10-19T08:25:01Z</time>
      </trkpt>
      <trkpt lat="43.21015" lon="5.50284">
        <ele>157</ele>
        <time>2025-10-19T08:25:02Z</time>
      </trkpt>
      <trkpt lat="43.21014" lon="5.50282">
        <ele>157</ele>
        <time>2025-10-19T08:25:03Z</time>
      </trkpt>
      <trkpt lat="43.21014" lon="5.50281">
        <ele>157</ele>
        <time>2025-10-19T08:25:04Z</time>
      </trkpt>
      <trkpt lat="43.21014" lon="5.5028">
        <ele>156.9</ele>
        <time>2025-10-19T08:25:05Z</time>
      </trkpt>
      <trkpt lat="43.21014" lon="5.50278">
        <ele>156.7</ele>
        <time>2025-10-19T08:25:06Z</time>
      </trkpt>
      <trkpt lat="43.21014" lon="5.50276">
        <ele>156.6</ele>
        <time>2025-10-19T08:25:07Z</time>
      </trkpt>
      <trkpt lat="43.21013" lon="5.50275">
        <ele>156.6</ele>
        <time>2025-10-19T08:25:08Z</time>
      </trkpt>
      <trkpt lat="43.21013" lon="5.50273">
        <ele>156.6</ele>
        <time>2025-10-19T08:25:09Z</time>
      </trkpt>
      <trkpt lat="43.21013" lon="5.50271">
        <ele>156.5</ele>
        <time>2025-10-19T08:25:10Z</time>
      </trkpt>
      <trkpt lat="43.21013" lon="5.50269">
        <ele>156.4</ele>
        <time>2025-10-19T08:25:11Z</time>
      </trkpt>
      <trkpt lat="43.21013" lon="5.50267">
        <ele>156.3</ele>
        <time>2025-10-19T08:25:12Z</time>
      </trkpt>
      <trkpt lat="43.21013" lon="5.50266">
        <ele>156.2</ele>
        <time>2025-10-19T08:25:13Z</time>
      </trkpt>
      <trkpt lat="43.21013" lon="5.50264">
        <ele>156.1</ele>
        <time>2025-10-19T08:25:14Z</time>
      </trkpt>
      <trkpt lat="43.21013" lon="5.50263">
        <ele>156</ele>
        <time>2025-10-19T08:25:15Z</time>
      </trkpt>
      <trkpt lat="43.21013" lon="5.50261">
        <ele>155.8</ele>
        <time>2025-10-19T08:25:16Z</time>
      </trkpt>
      <trkpt lat="43.21013" lon="5.50259">
        <ele>155.8</ele>
        <time>2025-10-19T08:25:17Z</time>
      </trkpt>
      <trkpt lat="43.21013" lon="5.50258">
        <ele>156</ele>
        <time>2025-10-19T08:25:18Z</time>
      </trkpt>
      <trkpt lat="43.21012" lon="5.50256">
        <ele>155.9</ele>
        <time>2025-10-19T08:25:19Z</time>
      </trkpt>
      <trkpt lat="43.21013" lon="5.50255">
        <ele>155.8</ele>
        <time>2025-10-19T08:25:20Z</time>
      </trkpt>
      <trkpt lat="43.21013" lon="5.50253">
        <ele>155.6</ele>
        <time>2025-10-19T08:25:21Z</time>
      </trkpt>
      <trkpt lat="43.21013" lon="5.50251">
        <ele>155.5</ele>
        <time>2025-10-19T08:25:22Z</time>
      </trkpt>
      <trkpt lat="43.21013" lon="5.50249">
        <ele>155.5</ele>
        <time>2025-10-19T08:25:23Z</time>
      </trkpt>
      <trkpt lat="43.21012" lon="5.50247">
        <ele>155.4</ele>
        <time>2025-10-19T08:25:24Z</time>
      </trkpt>
      <trkpt lat="43.21012" lon="5.50246">
        <ele>155.4</ele>
        <time>2025-10-19T08:25:25Z</time>
      </trkpt>
      <trkpt lat="43.21012" lon="5.50244">
        <ele>155.4</ele>
        <time>2025-10-19T08:25:26Z</time>
      </trkpt>
      <trkpt lat="43.21011" lon="5.50242">
        <ele>155.3</ele>
        <time>2025-10-19T08:25:27Z</time>
      </trkpt>
      <trkpt lat="43.21011" lon="5.50241">
        <ele>155.2</ele>
        <time>2025-10-19T08:25:28Z</time>
      </trkpt>
      <trkpt lat="43.2101" lon="5.50239">
        <ele>155.2</ele>
        <time>2025-10-19T08:25:29Z</time>
      </trkpt>
      <trkpt lat="43.2101" lon="5.50238">
        <ele>155.1</ele>
        <time>2025-10-19T08:25:30Z</time>
      </trkpt>
      <trkpt lat="43.2101" lon="5.50236">
        <ele>155.1</ele>
        <time>2025-10-19T08:25:31Z</time>
      </trkpt>
      <trkpt lat="43.21009" lon="5.50235">
        <ele>155.1</ele>
        <time>2025-10-19T08:25:32Z</time>
      </trkpt>
      <trkpt lat="43.21009" lon="5.50233">
        <ele>155</ele>
        <time>2025-10-19T08:25:33Z</time>
      </trkpt>
      <trkpt lat="43.21008" lon="5.50232">
        <ele>154.9</ele>
        <time>2025-10-19T08:25:34Z</time>
      </trkpt>
      <trkpt lat="43.21007" lon="5.50231">
        <ele>154.8</ele>
        <time>2025-10-19T08:25:35Z</time>
      </trkpt>
      <trkpt lat="43.21006" lon="5.5023">
        <ele>154.8</ele>
        <time>2025-10-19T08:25:36Z</time>
      </trkpt>
      <trkpt lat="43.21006" lon="5.50229">
        <ele>154.7</ele>
        <time>2025-10-19T08:25:37Z</time>
      </trkpt>
      <trkpt lat="43.21005" lon="5.50227">
        <ele>154.6</ele>
        <time>2025-10-19T08:25:38Z</time>
      </trkpt>
      <trkpt lat="43.21004" lon="5.50226">
        <ele>154.5</ele>
        <time>2025-10-19T08:25:39Z</time>
      </trkpt>
      <trkpt lat="43.21003" lon="5.50225">
        <ele>154.3</ele>
        <time>2025-10-19T08:25:40Z</time>
      </trkpt>
      <trkpt lat="43.21002" lon="5.50224">
        <ele>154.2</ele>
        <time>2025-10-19T08:25:41Z</time>
      </trkpt>
      <trkpt lat="43.21001" lon="5.50223">
        <ele>154.2</ele>
        <time>2025-10-19T08:25:42Z</time>
      </trkpt>
      <trkpt lat="43.21001" lon="5.50222">
        <ele>154</ele>
        <time>2025-10-19T08:25:43Z</time>
      </trkpt>
      <trkpt lat="43.21" lon="5.50221">
        <ele>153.9</ele>
        <time>2025-10-19T08:25:44Z</time>
      </trkpt>
      <trkpt lat="43.20999" lon="5.5022">
        <ele>153.7</ele>
        <time>2025-10-19T08:25:45Z</time>
      </trkpt>
      <trkpt lat="43.20999" lon="5.50219">
        <ele>153.7</ele>
        <time>2025-10-19T08:25:46Z</time>
      </trkpt>
      <trkpt lat="43.20998" lon="5.50218">
        <ele>153.7</ele>
        <time>2025-10-19T08:25:47Z</time>
      </trkpt>
      <trkpt lat="43.20997" lon="5.50216">
        <ele>153.6</ele>
        <time>2025-10-19T08:25:48Z</time>
      </trkpt>
      <trkpt lat="43.20997" lon="5.50216">
        <ele>153.5</ele>
        <time>2025-10-19T08:25:49Z</time>
      </trkpt>
      <trkpt lat="43.20996" lon="5.50215">
        <ele>153.5</ele>
        <time>2025-10-19T08:25:50Z</time>
      </trkpt>
      <trkpt lat="43.20995" lon="5.50214">
        <ele>153.5</ele>
        <time>2025-10-19T08:25:51Z</time>
      </trkpt>
      <trkpt lat="43.20994" lon="5.50213">
        <ele>153.4</ele>
        <time>2025-10-19T08:25:52Z</time>
      </trkpt>
      <trkpt lat="43.20994" lon="5.50213">
        <ele>153.4</ele>
        <time>2025-10-19T08:25:53Z</time>
      </trkpt>
      <trkpt lat="43.20993" lon="5.50212">
        <ele>153.1</ele>
        <time>2025-10-19T08:25:54Z</time>
      </trkpt>
      <trkpt lat="43.20993" lon="5.50211">
        <ele>153</ele>
        <time>2025-10-19T08:25:55Z</time>
      </trkpt>
      <trkpt lat="43.20992" lon="5.50211">
        <ele>153</ele>
        <time>2025-10-19T08:25:56Z</time>
      </trkpt>
      <trkpt lat="43.20991" lon="5.5021">
        <ele>152.9</ele>
        <time>2025-10-19T08:25:57Z</time>
      </trkpt>
      <trkpt lat="43.20991" lon="5.5021">
        <ele>152.8</ele>
        <time>2025-10-19T08:25:58Z</time>
      </trkpt>
      <trkpt lat="43.2099" lon="5.5021">
        <ele>152.8</ele>
        <time>2025-10-19T08:25:59Z</time>
      </trkpt>
      <trkpt lat="43.2099" lon="5.5021">
        <ele>152.8</ele>
        <time>2025-10-19T08:26:00Z</time>
      </trkpt>
      <trkpt lat="43.2099" lon="5.5021">
        <ele>152.8</ele>
        <time>2025-10-19T08:26:01Z</time>
      </trkpt>
      <trkpt lat="43.2099" lon="5.5021">
        <ele>152.8</ele>
        <time>2025-10-19T08:26:02Z</time>
      </trkpt>
      <trkpt lat="43.2099" lon="5.5021">
        <ele>152.8</ele>
        <time>2025-10-19T08:26:03Z</time>
      </trkpt>
      <trkpt lat="43.2099" lon="5.5021">
        <ele>152.7</ele>
        <time>2025-10-19T08:26:04Z</time>
      </trkpt>
      <trkpt lat="43.2099" lon="5.50209">
        <ele>152.7</ele>
        <time>2025-10-19T08:26:05Z</time>
      </trkpt>
      <trkpt lat="43.2099" lon="5.50209">
        <ele>152.8</ele>
        <time>2025-10-19T08:26:06Z</time>
      </trkpt>
      <trkpt lat="43.2099" lon="5.50209">
        <ele>152.8</ele>
        <time>2025-10-19T08:26:07Z</time>
      </trkpt>
      <trkpt lat="43.2099" lon="5.50209">
        <ele>152.7</ele>
        <time>2025-10-19T08:26:08Z</time>
      </trkpt>
      <trkpt lat="43.20989" lon="5.50209">
        <ele>152.8</ele>
        <time>2025-10-19T08:26:09Z</time>
      </trkpt>
      <trkpt lat="43.20989" lon="5.50209">
        <ele>152.8</ele>
        <time>2025-10-19T08:26:10Z</time>
      </trkpt>
      <trkpt lat="43.20989" lon="5.5021">
        <ele>152.9</ele>
        <time>2025-10-19T08:26:11Z</time>
      </trkpt>
      <trkpt lat="43.20989" lon="5.5021">
        <ele>152.9</ele>
        <time>2025-10-19T08:26:12Z</time>
      </trkpt>
      <trkpt lat="43.20989" lon="5.5021">
        <ele>152.9</ele>
        <time>2025-10-19T08:26:13Z</time>
      </trkpt>
      <trkpt lat="43.20989" lon="5.5021">
        <ele>152.9</ele>
        <time>2025-10-19T08:26:14Z</time>
      </trkpt>
      <trkpt lat="43.20989" lon="5.5021">
        <ele>152.8</ele>
        <time>2025-10-19T08:26:15Z</time>
      </trkpt>
      <trkpt lat="43.20989" lon="5.5021">
        <ele>152.9</ele>
        <time>2025-10-19T08:26:16Z</time>
      </trkpt>
      <trkpt lat="43.20988" lon="5.5021">
        <ele>152.9</ele>
        <time>2025-10-19T08:26:17Z</time>
      </trkpt>
      <trkpt lat="43.20988" lon="5.50211">
        <ele>152.8</ele>
        <time>2025-10-19T08:26:18Z</time>
      </trkpt>
      <trkpt lat="43.20988" lon="5.50211">
        <ele>152.7</ele>
        <time>2025-10-19T08:26:19Z</time>
      </trkpt>
      <trkpt lat="43.20988" lon="5.50211">
        <ele>152.7</ele>
        <time>2025-10-19T08:26:20Z</time>
      </trkpt>
      <trkpt lat="43.20988" lon="5.50211">
        <ele>152.7</ele>
        <time>2025-10-19T08:26:21Z</time>
      </trkpt>
      <trkpt lat="43.20988" lon="5.50211">
        <ele>152.7</ele>
        <time>2025-10-19T08:26:22Z</time>
      </trkpt>
      <trkpt lat="43.20988" lon="5.50211">
        <ele>152.7</ele>
        <time>2025-10-19T08:26:23Z</time>
      </trkpt>
      <trkpt lat="43.20988" lon="5.50211">
        <ele>152.6</ele>
        <time>2025-10-19T08:26:24Z</time>
      </trkpt>
      <trkpt lat="43.20988" lon="5.50211">
        <ele>152.6</ele>
        <time>2025-10-19T08:26:25Z</time>
      </trkpt>
      <trkpt lat="43.20988" lon="5.50211">
        <ele>152.6</ele>
        <time>2025-10-19T08:26:26Z</time>
      </trkpt>
      <trkpt lat="43.20988" lon="5.50211">
        <ele>152.6</ele>
        <time>2025-10-19T08:26:27Z</time>
      </trkpt>
      <trkpt lat="43.20988" lon="5.50211">
        <ele>152.7</ele>
        <time>2025-10-19T08:26:28Z</time>
      </trkpt>
      <trkpt lat="43.20988" lon="5.50211">
        <ele>152.7</ele>
        <time>2025-10-19T08:26:29Z</time>
      </trkpt>
      <trkpt lat="43.20988" lon="5.50211">
        <ele>152.7</ele>
        <time>2025-10-19T08:26:30Z</time>
      </trkpt>
      <trkpt lat="43.20988" lon="5.50211">
        <ele>152.7</ele>
        <time>2025-10-19T08:26:31Z</time>
      </trkpt>
      <trkpt lat="43.20988" lon="5.50211">
        <ele>152.8</ele>
        <time>2025-10-19T08:26:32Z</time>
      </trkpt>
      <trkpt lat="43.20988" lon="5.50211">
        <ele>152.8</ele>
        <time>2025-10-19T08:26:33Z</time>
      </trkpt>
      <trkpt lat="43.20988" lon="5.50211">
        <ele>152.8</ele>
        <time>2025-10-19T08:26:34Z</time>
      </trkpt>
      <trkpt lat="43.20988" lon="5.50211">
        <ele>152.7</ele>
        <time>2025-10-19T08:26:35Z</time>
      </trkpt>
      <trkpt lat="43.20988" lon="5.50211">
        <ele>152.6</ele>
        <time>2025-10-19T08:26:36Z</time>
      </trkpt>
      <trkpt lat="43.20988" lon="5.50211">
        <ele>152.5</ele>
        <time>2025-10-19T08:26:37Z</time>
      </trkpt>
      <trkpt lat="43.20988" lon="5.50211">
        <ele>152.6</ele>
        <time>2025-10-19T08:26:38Z</time>
      </trkpt>
      <trkpt lat="43.20988" lon="5.50211">
        <ele>152.6</ele>
        <time>2025-10-19T08:26:39Z</time>
      </trkpt>
      <trkpt lat="43.20988" lon="5.50211">
        <ele>152.6</ele>
        <time>2025-10-19T08:26:40Z</time>
      </trkpt>
      <trkpt lat="43.20988" lon="5.50211">
        <ele>152.6</ele>
        <time>2025-10-19T08:26:41Z</time>
      </trkpt>
      <trkpt lat="43.20988" lon="5.50211">
        <ele>152.6</ele>
        <time>2025-10-19T08:26:42Z</time>
      </trkpt>
      <trkpt lat="43.20988" lon="5.50211">
        <ele>152.6</ele>
        <time>2025-10-19T08:26:43Z</time>
      </trkpt>
      <trkpt lat="43.20988" lon="5.50211">
        <ele>152.7</ele>
        <time>2025-10-19T08:26:44Z</time>
      </trkpt>
      <trkpt lat="43.20988" lon="5.50211">
        <ele>152.7</ele>
        <time>2025-10-19T08:26:45Z</time>
      </trkpt>
      <trkpt lat="43.20988" lon="5.50211">
        <ele>152.7</ele>
        <time>2025-10-19T08:26:46Z</time>
      </trkpt>
      <trkpt lat="43.20988" lon="5.50211">
        <ele>152.7</ele>
        <time>2025-10-19T08:26:47Z</time>
      </trkpt>
      <trkpt lat="43.20988" lon="5.50211">
        <ele>152.7</ele>
        <time>2025-10-19T08:26:48Z</time>
      </trkpt>
      <trkpt lat="43.20988" lon="5.50211">
        <ele>152.7</ele>
        <time>2025-10-19T08:26:49Z</time>
      </trkpt>
      <trkpt lat="43.20988" lon="5.50211">
        <ele>152.7</ele>
        <time>2025-10-19T08:26:50Z</time>
      </trkpt>
      <trkpt lat="43.20988" lon="5.50211">
        <ele>152.7</ele>
        <time>2025-10-19T08:26:51Z</time>
      </trkpt>
      <trkpt lat="43.20988" lon="5.50211">
        <ele>152.8</ele>
        <time>2025-10-19T08:26:52Z</time>
      </trkpt>
      <trkpt lat="43.20988" lon="5.50211">
        <ele>152.8</ele>
        <time>2025-10-19T08:26:53Z</time>
      </trkpt>
      <trkpt lat="43.20988" lon="5.50211">
        <ele>152.8</ele>
        <time>2025-10-19T08:26:54Z</time>
      </trkpt>
      <trkpt lat="43.20988" lon="5.5021">
        <ele>152.8</ele>
        <time>2025-10-19T08:26:55Z</time>
      </trkpt>
      <trkpt lat="43.20988" lon="5.50211">
        <ele>152.9</ele>
        <time>2025-10-19T08:26:56Z</time>
      </trkpt>
      <trkpt lat="43.20988" lon="5.5021">
        <ele>152.9</ele>
        <time>2025-10-19T08:26:57Z</time>
      </trkpt>
      <trkpt lat="43.20988" lon="5.5021">
        <ele>152.9</ele>
        <time>2025-10-19T08:26:58Z</time>
      </trkpt>
      <trkpt lat="43.20988" lon="5.5021">
        <ele>152.9</ele>
        <time>2025-10-19T08:26:59Z</time>
      </trkpt>
      <trkpt lat="43.20988" lon="5.5021">
        <ele>152.9</ele>
        <time>2025-10-19T08:27:00Z</time>
      </trkpt>
      <trkpt lat="43.20987" lon="5.5021">
        <ele>152.9</ele>
        <time>2025-10-19T08:27:01Z</time>
      </trkpt>
      <trkpt lat="43.20987" lon="5.50209">
        <ele>153</ele>
        <time>2025-10-19T08:27:02Z</time>
      </trkpt>
      <trkpt lat="43.20987" lon="5.50209">
        <ele>153</ele>
        <time>2025-10-19T08:27:03Z</time>
      </trkpt>
      <trkpt lat="43.20987" lon="5.50209">
        <ele>153</ele>
        <time>2025-10-19T08:27:04Z</time>
      </trkpt>
      <trkpt lat="43.20987" lon="5.50209">
        <ele>153.1</ele>
        <time>2025-10-19T08:27:05Z</time>
      </trkpt>
      <trkpt lat="43.20987" lon="5.50209">
        <ele>153.1</ele>
        <time>2025-10-19T08:27:06Z</time>
      </trkpt>
      <trkpt lat="43.20987" lon="5.50209">
        <ele>153.2</ele>
        <time>2025-10-19T08:27:07Z</time>
      </trkpt>
      <trkpt lat="43.20987" lon="5.50209">
        <ele>153.1</ele>
        <time>2025-10-19T08:27:08Z</time>
      </trkpt>
      <trkpt lat="43.20987" lon="5.50208">
        <ele>153.1</ele>
        <time>2025-10-19T08:27:09Z</time>
      </trkpt>
      <trkpt lat="43.20987" lon="5.50208">
        <ele>153.1</ele>
        <time>2025-10-19T08:27:10Z</time>
      </trkpt>
      <trkpt lat="43.20987" lon="5.50208">
        <ele>153.1</ele>
        <time>2025-10-19T08:27:11Z</time>
      </trkpt>
      <trkpt lat="43.20987" lon="5.50208">
        <ele>153.1</ele>
        <time>2025-10-19T08:27:12Z</time>
      </trkpt>
      <trkpt lat="43.20986" lon="5.50208">
        <ele>153.1</ele>
        <time>2025-10-19T08:27:13Z</time>
      </trkpt>
      <trkpt lat="43.20986" lon="5.50208">
        <ele>153</ele>
        <time>2025-10-19T08:27:14Z</time>
      </trkpt>
      <trkpt lat="43.20986" lon="5.50208">
        <ele>153</ele>
        <time>2025-10-19T08:27:15Z</time>
      </trkpt>
      <trkpt lat="43.20986" lon="5.50208">
        <ele>153</ele>
        <time>2025-10-19T08:27:16Z</time>
      </trkpt>
      <trkpt lat="43.20986" lon="5.50208">
        <ele>153</ele>
        <time>2025-10-19T08:27:17Z</time>
      </trkpt>
      <trkpt lat="43.20986" lon="5.50207">
        <ele>153</ele>
        <time>2025-10-19T08:27:18Z</time>
      </trkpt>
      <trkpt lat="43.20986" lon="5.50207">
        <ele>153</ele>
        <time>2025-10-19T08:27:19Z</time>
      </trkpt>
      <trkpt lat="43.20986" lon="5.50207">
        <ele>153</ele>
        <time>2025-10-19T08:27:20Z</time>
      </trkpt>
      <trkpt lat="43.20986" lon="5.50207">
        <ele>153.1</ele>
        <time>2025-10-19T08:27:21Z</time>
      </trkpt>
      <trkpt lat="43.20986" lon="5.50207">
        <ele>153.2</ele>
        <time>2025-10-19T08:27:22Z</time>
      </trkpt>
      <trkpt lat="43.20986" lon="5.50207">
        <ele>153.2</ele>
        <time>2025-10-19T08:27:23Z</time>
      </trkpt>
      <trkpt lat="43.20986" lon="5.50207">
        <ele>153.2</ele>
        <time>2025-10-19T08:27:24Z</time>
      </trkpt>
      <trkpt lat="43.20986" lon="5.50207">
        <ele>153.3</ele>
        <time>2025-10-19T08:27:25Z</time>
      </trkpt>
      <trkpt lat="43.20986" lon="5.50207">
        <ele>153.4</ele>
        <time>2025-10-19T08:27:26Z</time>
      </trkpt>
      <trkpt lat="43.20986" lon="5.50207">
        <ele>153.5</ele>
        <time>2025-10-19T08:27:27Z</time>
      </trkpt>
      <trkpt lat="43.20986" lon="5.50207">
        <ele>153.5</ele>
        <time>2025-10-19T08:27:28Z</time>
      </trkpt>
      <trkpt lat="43.20986" lon="5.50207">
        <ele>153.5</ele>
        <time>2025-10-19T08:27:29Z</time>
      </trkpt>
      <trkpt lat="43.20986" lon="5.50207">
        <ele>153.4</ele>
        <time>2025-10-19T08:27:30Z</time>
      </trkpt>
      <trkpt lat="43.20986" lon="5.50207">
        <ele>153.4</ele>
        <time>2025-10-19T08:27:31Z</time>
      </trkpt>
      <trkpt lat="43.20986" lon="5.50207">
        <ele>153.4</ele>
        <time>2025-10-19T08:27:32Z</time>
      </trkpt>
      <trkpt lat="43.20986" lon="5.50206">
        <ele>153.4</ele>
        <time>2025-10-19T08:27:33Z</time>
      </trkpt>
      <trkpt lat="43.20986" lon="5.50206">
        <ele>153.4</ele>
        <time>2025-10-19T08:27:34Z</time>
      </trkpt>
      <trkpt lat="43.20986" lon="5.50206">
        <ele>153.5</ele>
        <time>2025-10-19T08:27:35Z</time>
      </trkpt>
      <trkpt lat="43.20986" lon="5.50206">
        <ele>153.5</ele>
        <time>2025-10-19T08:27:36Z</time>
      </trkpt>
      <trkpt lat="43.20986" lon="5.50206">
        <ele>153.5</ele>
        <time>2025-10-19T08:27:37Z</time>
      </trkpt>
      <trkpt lat="43.20986" lon="5.50205">
        <ele>153.4</ele>
        <time>2025-10-19T08:27:38Z</time>
      </trkpt>
      <trkpt lat="43.20986" lon="5.50205">
        <ele>153.4</ele>
        <time>2025-10-19T08:27:39Z</time>
      </trkpt>
      <trkpt lat="43.20986" lon="5.50205">
        <ele>153.4</ele>
        <time>2025-10-19T08:27:40Z</time>
      </trkpt>
      <trkpt lat="43.20986" lon="5.50205">
        <ele>153.3</ele>
        <time>2025-10-19T08:27:41Z</time>
      </trkpt>
      <trkpt lat="43.20986" lon="5.50205">
        <ele>153.3</ele>
        <time>2025-10-19T08:27:42Z</time>
      </trkpt>
      <trkpt lat="43.20986" lon="5.50205">
        <ele>153.3</ele>
        <time>2025-10-19T08:27:43Z</time>
      </trkpt>
      <trkpt lat="43.20986" lon="5.50205">
        <ele>153.2</ele>
        <time>2025-10-19T08:27:44Z</time>
      </trkpt>
      <trkpt lat="43.20985" lon="5.50205">
        <ele>153.2</ele>
        <time>2025-10-19T08:27:45Z</time>
      </trkpt>
      <trkpt lat="43.20985" lon="5.50205">
        <ele>153.2</ele>
        <time>2025-10-19T08:27:46Z</time>
      </trkpt>
      <trkpt lat="43.20985" lon="5.50204">
        <ele>153.2</ele>
        <time>2025-10-19T08:27:47Z</time>
      </trkpt>
      <trkpt lat="43.20985" lon="5.50204">
        <ele>153.2</ele>
        <time>2025-10-19T08:27:48Z</time>
      </trkpt>
      <trkpt lat="43.20985" lon="5.50204">
        <ele>153.2</ele>
        <time>2025-10-19T08:27:49Z</time>
      </trkpt>
      <trkpt lat="43.20985" lon="5.50204">
        <ele>153.2</ele>
        <time>2025-10-19T08:27:50Z</time>
      </trkpt>
      <trkpt lat="43.20985" lon="5.50204">
        <ele>153.2</ele>
        <time>2025-10-19T08:27:51Z</time>
      </trkpt>
      <trkpt lat="43.20985" lon="5.50204">
        <ele>153.2</ele>
        <time>2025-10-19T08:27:52Z</time>
      </trkpt>
      <trkpt lat="43.20985" lon="5.50204">
        <ele>153.2</ele>
        <time>2025-10-19T08:27:53Z</time>
      </trkpt>
      <trkpt lat="43.20985" lon="5.50204">
        <ele>153.2</ele>
        <time>2025-10-19T08:27:54Z</time>
      </trkpt>
      <trkpt lat="43.20985" lon="5.50204">
        <ele>153.2</ele>
        <time>2025-10-19T08:27:55Z</time>
      </trkpt>
      <trkpt lat="43.20985" lon="5.50204">
        <ele>153.2</ele>
        <time>2025-10-19T08:27:56Z</time>
      </trkpt>
      <trkpt lat="43.20985" lon="5.50204">
        <ele>153.2</ele>
        <time>2025-10-19T08:27:57Z</time>
      </trkpt>
      <trkpt lat="43.20986" lon="5.50205">
        <ele>153.1</ele>
        <time>2025-10-19T08:27:58Z</time>
      </trkpt>
      <trkpt lat="43.20986" lon="5.50205">
        <ele>153.1</ele>
        <time>2025-10-19T08:27:59Z</time>
      </trkpt>
      <trkpt lat="43.20986" lon="5.50205">
        <ele>153.1</ele>
        <time>2025-10-19T08:28:00Z</time>
      </trkpt>
      <trkpt lat="43.20986" lon="5.50205">
        <ele>153.1</ele>
        <time>2025-10-19T08:28:01Z</time>
      </trkpt>
      <trkpt lat="43.20986" lon="5.50204">
        <ele>153.1</ele>
        <time>2025-10-19T08:28:02Z</time>
      </trkpt>
      <trkpt lat="43.20986" lon="5.50203">
        <ele>153.2</ele>
        <time>2025-10-19T08:28:03Z</time>
      </trkpt>
      <trkpt lat="43.20986" lon="5.50202">
        <ele>153.1</ele>
        <time>2025-10-19T08:28:04Z</time>
      </trkpt>
      <trkpt lat="43.20987" lon="5.50201">
        <ele>153.1</ele>
        <time>2025-10-19T08:28:05Z</time>
      </trkpt>
      <trkpt lat="43.20987" lon="5.502">
        <ele>153.2</ele>
        <time>2025-10-19T08:28:06Z</time>
      </trkpt>
      <trkpt lat="43.20988" lon="5.50199">
        <ele>153.2</ele>
        <time>2025-10-19T08:28:07Z</time>
      </trkpt>
      <trkpt lat="43.20989" lon="5.50198">
        <ele>153.2</ele>
        <time>2025-10-19T08:28:08Z</time>
      </trkpt>
      <trkpt lat="43.20989" lon="5.50197">
        <ele>153.1</ele>
        <time>2025-10-19T08:28:09Z</time>
      </trkpt>
      <trkpt lat="43.2099" lon="5.50196">
        <ele>153.1</ele>
        <time>2025-10-19T08:28:10Z</time>
      </trkpt>
      <trkpt lat="43.2099" lon="5.50195">
        <ele>153.1</ele>
        <time>2025-10-19T08:28:11Z</time>
      </trkpt>
      <trkpt lat="43.2099" lon="5.50194">
        <ele>153</ele>
        <time>2025-10-19T08:28:12Z</time>
      </trkpt>
      <trkpt lat="43.2099" lon="5.50193">
        <ele>153</ele>
        <time>2025-10-19T08:28:13Z</time>
      </trkpt>
      <trkpt lat="43.20989" lon="5.50193">
        <ele>153</ele>
        <time>2025-10-19T08:28:14Z</time>
      </trkpt>
      <trkpt lat="43.20989" lon="5.50193">
        <ele>152.9</ele>
        <time>2025-10-19T08:28:15Z</time>
      </trkpt>
      <trkpt lat="43.20989" lon="5.50193">
        <ele>152.8</ele>
        <time>2025-10-19T08:28:16Z</time>
      </trkpt>
      <trkpt lat="43.20989" lon="5.50193">
        <ele>152.6</ele>
        <time>2025-10-19T08:28:17Z</time>
      </trkpt>
      <trkpt lat="43.20989" lon="5.50192">
        <ele>152.6</ele>
        <time>2025-10-19T08:28:18Z</time>
      </trkpt>
      <trkpt lat="43.2099" lon="5.50192">
        <ele>152.6</ele>
        <time>2025-10-19T08:28:19Z</time>
      </trkpt>
      <trkpt lat="43.2099" lon="5.50192">
        <ele>152.5</ele>
        <time>2025-10-19T08:28:20Z</time>
      </trkpt>
      <trkpt lat="43.2099" lon="5.50192">
        <ele>152.5</ele>
        <time>2025-10-19T08:28:21Z</time>
      </trkpt>
      <trkpt lat="43.2099" lon="5.50192">
        <ele>152.5</ele>
        <time>2025-10-19T08:28:22Z</time>
      </trkpt>
      <trkpt lat="43.2099" lon="5.50192">
        <ele>152.6</ele>
        <time>2025-10-19T08:28:23Z</time>
      </trkpt>
      <trkpt lat="43.2099" lon="5.50192">
        <ele>152.7</ele>
        <time>2025-10-19T08:28:24Z</time>
      </trkpt>
      <trkpt lat="43.20991" lon="5.50192">
        <ele>152.7</ele>
        <time>2025-10-19T08:28:25Z</time>
      </trkpt>
      <trkpt lat="43.20991" lon="5.50192">
        <ele>152.6</ele>
        <time>2025-10-19T08:28:26Z</time>
      </trkpt>
      <trkpt lat="43.20991" lon="5.50192">
        <ele>152.6</ele>
        <time>2025-10-19T08:28:27Z</time>
      </trkpt>
      <trkpt lat="43.20991" lon="5.50193">
        <ele>152.5</ele>
        <time>2025-10-19T08:28:28Z</time>
      </trkpt>
      <trkpt lat="43.20992" lon="5.50193">
        <ele>152.6</ele>
        <time>2025-10-19T08:28:29Z</time>
      </trkpt>
      <trkpt lat="43.20992" lon="5.50193">
        <ele>152.7</ele>
        <time>2025-10-19T08:28:30Z</time>
      </trkpt>
      <trkpt lat="43.20992" lon="5.50193">
        <ele>152.7</ele>
        <time>2025-10-19T08:28:31Z</time>
      </trkpt>
      <trkpt lat="43.20992" lon="5.50193">
        <ele>152.7</ele>
        <time>2025-10-19T08:28:32Z</time>
      </trkpt>
      <trkpt lat="43.20992" lon="5.50193">
        <ele>152.8</ele>
        <time>2025-10-19T08:28:33Z</time>
      </trkpt>
      <trkpt lat="43.20992" lon="5.50193">
        <ele>152.7</ele>
        <time>2025-10-19T08:28:34Z</time>
      </trkpt>
      <trkpt lat="43.20991" lon="5.50193">
        <ele>152.7</ele>
        <time>2025-10-19T08:28:35Z</time>
      </trkpt>
      <trkpt lat="43.2099" lon="5.50193">
        <ele>152.7</ele>
        <time>2025-10-19T08:28:36Z</time>
      </trkpt>
      <trkpt lat="43.20989" lon="5.50193">
        <ele>152.6</ele>
        <time>2025-10-19T08:28:37Z</time>
      </trkpt>
      <trkpt lat="43.20989" lon="5.50193">
        <ele>152.6</ele>
        <time>2025-10-19T08:28:38Z</time>
      </trkpt>
      <trkpt lat="43.20987" lon="5.50194">
        <ele>152.7</ele>
        <time>2025-10-19T08:28:39Z</time>
      </trkpt>
      <trkpt lat="43.20986" lon="5.50194">
        <ele>152.7</ele>
        <time>2025-10-19T08:28:40Z</time>
      </trkpt>
      <trkpt lat="43.20986" lon="5.50195">
        <ele>152.7</ele>
        <time>2025-10-19T08:28:41Z</time>
      </trkpt>
      <trkpt lat="43.20985" lon="5.50196">
        <ele>152.8</ele>
        <time>2025-10-19T08:28:42Z</time>
      </trkpt>
      <trkpt lat="43.20985" lon="5.50197">
        <ele>152.7</ele>
        <time>2025-10-19T08:28:43Z</time>
      </trkpt>
      <trkpt lat="43.20984" lon="5.50199">
        <ele>152.7</ele>
        <time>2025-10-19T08:28:44Z</time>
      </trkpt>
      <trkpt lat="43.20984" lon="5.502">
        <ele>152.7</ele>
        <time>2025-10-19T08:28:45Z</time>
      </trkpt>
      <trkpt lat="43.20984" lon="5.50201">
        <ele>152.7</ele>
        <time>2025-10-19T08:28:46Z</time>
      </trkpt>
      <trkpt lat="43.20984" lon="5.50201">
        <ele>152.7</ele>
        <time>2025-10-19T08:28:47Z</time>
      </trkpt>
      <trkpt lat="43.20984" lon="5.50202">
        <ele>152.7</ele>
        <time>2025-10-19T08:28:48Z</time>
      </trkpt>
      <trkpt lat="43.20984" lon="5.50202">
        <ele>152.7</ele>
        <time>2025-10-19T08:28:49Z</time>
      </trkpt>
      <trkpt lat="43.20984" lon="5.50202">
        <ele>152.7</ele>
        <time>2025-10-19T08:28:50Z</time>
      </trkpt>
      <trkpt lat="43.20984" lon="5.50202">
        <ele>152.6</ele>
        <time>2025-10-19T08:28:51Z</time>
      </trkpt>
      <trkpt lat="43.20984" lon="5.50202">
        <ele>152.6</ele>
        <time>2025-10-19T08:28:52Z</time>
      </trkpt>
      <trkpt lat="43.20984" lon="5.50202">
        <ele>152.7</ele>
        <time>2025-10-19T08:28:53Z</time>
      </trkpt>
      <trkpt lat="43.20983" lon="5.50203">
        <ele>152.7</ele>
        <time>2025-10-19T08:28:54Z</time>
      </trkpt>
      <trkpt lat="43.20983" lon="5.50203">
        <ele>152.6</ele>
        <time>2025-10-19T08:28:55Z</time>
      </trkpt>
      <trkpt lat="43.20982" lon="5.50204">
        <ele>152.7</ele>
        <time>2025-10-19T08:28:56Z</time>
      </trkpt>
      <trkpt lat="43.20981" lon="5.50204">
        <ele>152.7</ele>
        <time>2025-10-19T08:28:57Z</time>
      </trkpt>
      <trkpt lat="43.2098" lon="5.50203">
        <ele>152.7</ele>
        <time>2025-10-19T08:28:58Z</time>
      </trkpt>
      <trkpt lat="43.20979" lon="5.50203">
        <ele>152.7</ele>
        <time>2025-10-19T08:28:59Z</time>
      </trkpt>
      <trkpt lat="43.20978" lon="5.50203">
        <ele>152.6</ele>
        <time>2025-10-19T08:29:00Z</time>
      </trkpt>
      <trkpt lat="43.20977" lon="5.50203">
        <ele>152.5</ele>
        <time>2025-10-19T08:29:01Z</time>
      </trkpt>
      <trkpt lat="43.20975" lon="5.50203">
        <ele>152.5</ele>
        <time>2025-10-19T08:29:02Z</time>
      </trkpt>
      <trkpt lat="43.20974" lon="5.50202">
        <ele>152.6</ele>
        <time>2025-10-19T08:29:03Z</time>
      </trkpt>
      <trkpt lat="43.20973" lon="5.50201">
        <ele>152.5</ele>
        <time>2025-10-19T08:29:04Z</time>
      </trkpt>
      <trkpt lat="43.20972" lon="5.50201">
        <ele>152.5</ele>
        <time>2025-10-19T08:29:05Z</time>
      </trkpt>
      <trkpt lat="43.20971" lon="5.502">
        <ele>152.5</ele>
        <time>2025-10-19T08:29:06Z</time>
      </trkpt>
      <trkpt lat="43.2097" lon="5.50199">
        <ele>152.4</ele>
        <time>2025-10-19T08:29:07Z</time>
      </trkpt>
      <trkpt lat="43.20969" lon="5.50199">
        <ele>152.3</ele>
        <time>2025-10-19T08:29:08Z</time>
      </trkpt>
      <trkpt lat="43.20968" lon="5.50199">
        <ele>152.2</ele>
        <time>2025-10-19T08:29:09Z</time>
      </trkpt>
      <trkpt lat="43.20967" lon="5.50198">
        <ele>152.2</ele>
        <time>2025-10-19T08:29:10Z</time>
      </trkpt>
      <trkpt lat="43.20966" lon="5.50198">
        <ele>152.2</ele>
        <time>2025-10-19T08:29:11Z</time>
      </trkpt>
      <trkpt lat="43.20965" lon="5.50198">
        <ele>152.2</ele>
        <time>2025-10-19T08:29:12Z</time>
      </trkpt>
      <trkpt lat="43.20964" lon="5.50198">
        <ele>152.2</ele>
        <time>2025-10-19T08:29:13Z</time>
      </trkpt>
      <trkpt lat="43.20963" lon="5.50198">
        <ele>152.3</ele>
        <time>2025-10-19T08:29:14Z</time>
      </trkpt>
      <trkpt lat="43.20962" lon="5.50198">
        <ele>152.2</ele>
        <time>2025-10-19T08:29:15Z</time>
      </trkpt>
      <trkpt lat="43.20961" lon="5.50198">
        <ele>152.2</ele>
        <time>2025-10-19T08:29:16Z</time>
      </trkpt>
      <trkpt lat="43.2096" lon="5.50197">
        <ele>152.2</ele>
        <time>2025-10-19T08:29:17Z</time>
      </trkpt>
      <trkpt lat="43.20959" lon="5.50196">
        <ele>152.1</ele>
        <time>2025-10-19T08:29:18Z</time>
      </trkpt>
      <trkpt lat="43.20958" lon="5.50195">
        <ele>152.1</ele>
        <time>2025-10-19T08:29:19Z</time>
      </trkpt>
      <trkpt lat="43.20957" lon="5.50195">
        <ele>152.1</ele>
        <time>2025-10-19T08:29:20Z</time>
      </trkpt>
      <trkpt lat="43.20955" lon="5.50194">
        <ele>152</ele>
        <time>2025-10-19T08:29:21Z</time>
      </trkpt>
      <trkpt lat="43.20954" lon="5.50194">
        <ele>152</ele>
        <time>2025-10-19T08:29:22Z</time>
      </trkpt>
      <trkpt lat="43.20953" lon="5.50193">
        <ele>151.9</ele>
        <time>2025-10-19T08:29:23Z</time>
      </trkpt>
      <trkpt lat="43.20952" lon="5.50193">
        <ele>151.9</ele>
        <time>2025-10-19T08:29:24Z</time>
      </trkpt>
      <trkpt lat="43.20951" lon="5.50193">
        <ele>151.8</ele>
        <time>2025-10-19T08:29:25Z</time>
      </trkpt>
      <trkpt lat="43.2095" lon="5.50192">
        <ele>151.6</ele>
        <time>2025-10-19T08:29:26Z</time>
      </trkpt>
      <trkpt lat="43.20949" lon="5.50192">
        <ele>151.5</ele>
        <time>2025-10-19T08:29:27Z</time>
      </trkpt>
      <trkpt lat="43.20948" lon="5.50191">
        <ele>151.6</ele>
        <time>2025-10-19T08:29:28Z</time>
      </trkpt>
      <trkpt lat="43.20947" lon="5.50191">
        <ele>151.6</ele>
        <time>2025-10-19T08:29:29Z</time>
      </trkpt>
      <trkpt lat="43.20946" lon="5.5019">
        <ele>151.5</ele>
        <time>2025-10-19T08:29:30Z</time>
      </trkpt>
      <trkpt lat="43.20945" lon="5.5019">
        <ele>151.4</ele>
        <time>2025-10-19T08:29:31Z</time>
      </trkpt>
      <trkpt lat="43.20944" lon="5.5019">
        <ele>151.3</ele>
        <time>2025-10-19T08:29:32Z</time>
      </trkpt>
      <trkpt lat="43.20942" lon="5.5019">
        <ele>151.2</ele>
        <time>2025-10-19T08:29:33Z</time>
      </trkpt>
      <trkpt lat="43.20942" lon="5.50189">
        <ele>151.1</ele>
        <time>2025-10-19T08:29:34Z</time>
      </trkpt>
      <trkpt lat="43.2094" lon="5.50189">
        <ele>151.1</ele>
        <time>2025-10-19T08:29:35Z</time>
      </trkpt>
      <trkpt lat="43.20939" lon="5.50188">
        <ele>151</ele>
        <time>2025-10-19T08:29:36Z</time>
      </trkpt>
      <trkpt lat="43.20938" lon="5.50188">
        <ele>150.9</ele>
        <time>2025-10-19T08:29:37Z</time>
      </trkpt>
      <trkpt lat="43.20937" lon="5.50187">
        <ele>150.9</ele>
        <time>2025-10-19T08:29:38Z</time>
      </trkpt>
      <trkpt lat="43.20936" lon="5.50187">
        <ele>150.9</ele>
        <time>2025-10-19T08:29:39Z</time>
      </trkpt>
      <trkpt lat="43.20935" lon="5.50186">
        <ele>151</ele>
        <time>2025-10-19T08:29:40Z</time>
      </trkpt>
      <trkpt lat="43.20934" lon="5.50186">
        <ele>150.9</ele>
        <time>2025-10-19T08:29:41Z</time>
      </trkpt>
      <trkpt lat="43.20933" lon="5.50185">
        <ele>151</ele>
        <time>2025-10-19T08:29:42Z</time>
      </trkpt>
      <trkpt lat="43.20932" lon="5.50185">
        <ele>150.9</ele>
        <time>2025-10-19T08:29:43Z</time>
      </trkpt>
      <trkpt lat="43.20931" lon="5.50184">
        <ele>150.8</ele>
        <time>2025-10-19T08:29:44Z</time>
      </trkpt>
      <trkpt lat="43.20929" lon="5.50184">
        <ele>150.7</ele>
        <time>2025-10-19T08:29:45Z</time>
      </trkpt>
      <trkpt lat="43.20928" lon="5.50183">
        <ele>150.6</ele>
        <time>2025-10-19T08:29:46Z</time>
      </trkpt>
      <trkpt lat="43.20927" lon="5.50183">
        <ele>150.6</ele>
        <time>2025-10-19T08:29:47Z</time>
      </trkpt>
      <trkpt lat="43.20926" lon="5.50182">
        <ele>150.5</ele>
        <time>2025-10-19T08:29:48Z</time>
      </trkpt>
      <trkpt lat="43.20925" lon="5.50182">
        <ele>150.5</ele>
        <time>2025-10-19T08:29:49Z</time>
      </trkpt>
      <trkpt lat="43.20924" lon="5.50182">
        <ele>150.4</ele>
        <time>2025-10-19T08:29:50Z</time>
      </trkpt>
      <trkpt lat="43.20922" lon="5.50181">
        <ele>150.4</ele>
        <time>2025-10-19T08:29:51Z</time>
      </trkpt>
      <trkpt lat="43.20921" lon="5.5018">
        <ele>150.4</ele>
        <time>2025-10-19T08:29:52Z</time>
      </trkpt>
      <trkpt lat="43.2092" lon="5.5018">
        <ele>150.3</ele>
        <time>2025-10-19T08:29:53Z</time>
      </trkpt>
      <trkpt lat="43.20919" lon="5.5018">
        <ele>150.2</ele>
        <time>2025-10-19T08:29:54Z</time>
      </trkpt>
      <trkpt lat="43.20918" lon="5.50179">
        <ele>150.1</ele>
        <time>2025-10-19T08:29:55Z</time>
      </trkpt>
      <trkpt lat="43.20917" lon="5.50179">
        <ele>150.1</ele>
        <time>2025-10-19T08:29:56Z</time>
      </trkpt>
      <trkpt lat="43.20916" lon="5.50178">
        <ele>150.1</ele>
        <time>2025-10-19T08:29:57Z</time>
      </trkpt>
      <trkpt lat="43.20915" lon="5.50178">
        <ele>150</ele>
        <time>2025-10-19T08:29:58Z</time>
      </trkpt>
      <trkpt lat="43.20913" lon="5.50178">
        <ele>149.9</ele>
        <time>2025-10-19T08:29:59Z</time>
      </trkpt>
      <trkpt lat="43.20912" lon="5.50178">
        <ele>149.9</ele>
        <time>2025-10-19T08:30:00Z</time>
      </trkpt>
      <trkpt lat="43.20911" lon="5.50177">
        <ele>149.9</ele>
        <time>2025-10-19T08:30:01Z</time>
      </trkpt>
      <trkpt lat="43.2091" lon="5.50177">
        <ele>149.9</ele>
        <time>2025-10-19T08:30:02Z</time>
      </trkpt>
      <trkpt lat="43.20908" lon="5.50177">
        <ele>149.9</ele>
        <time>2025-10-19T08:30:03Z</time>
      </trkpt>
      <trkpt lat="43.20907" lon="5.50177">
        <ele>149.8</ele>
        <time>2025-10-19T08:30:04Z</time>
      </trkpt>
      <trkpt lat="43.20906" lon="5.50177">
        <ele>149.7</ele>
        <time>2025-10-19T08:30:05Z</time>
      </trkpt>
      <trkpt lat="43.20905" lon="5.50177">
        <ele>149.7</ele>
        <time>2025-10-19T08:30:06Z</time>
      </trkpt>
      <trkpt lat="43.20904" lon="5.50177">
        <ele>149.6</ele>
        <time>2025-10-19T08:30:07Z</time>
      </trkpt>
      <trkpt lat="43.20903" lon="5.50177">
        <ele>149.6</ele>
        <time>2025-10-19T08:30:08Z</time>
      </trkpt>
      <trkpt lat="43.20902" lon="5.50177">
        <ele>149.4</ele>
        <time>2025-10-19T08:30:09Z</time>
      </trkpt>
      <trkpt lat="43.209" lon="5.50177">
        <ele>149.4</ele>
        <time>2025-10-19T08:30:10Z</time>
      </trkpt>
      <trkpt lat="43.20899" lon="5.50177">
        <ele>149.3</ele>
        <time>2025-10-19T08:30:11Z</time>
      </trkpt>
      <trkpt lat="43.20898" lon="5.50177">
        <ele>149.3</ele>
        <time>2025-10-19T08:30:12Z</time>
      </trkpt>
      <trkpt lat="43.20897" lon="5.50177">
        <ele>149.2</ele>
        <time>2025-10-19T08:30:13Z</time>
      </trkpt>
      <trkpt lat="43.20896" lon="5.50177">
        <ele>149.1</ele>
        <time>2025-10-19T08:30:14Z</time>
      </trkpt>
      <trkpt lat="43.20895" lon="5.50176">
        <ele>149</ele>
        <time>2025-10-19T08:30:15Z</time>
      </trkpt>
      <trkpt lat="43.20893" lon="5.50176">
        <ele>149</ele>
        <time>2025-10-19T08:30:16Z</time>
      </trkpt>
      <trkpt lat="43.20892" lon="5.50176">
        <ele>148.9</ele>
        <time>2025-10-19T08:30:17Z</time>
      </trkpt>
      <trkpt lat="43.20891" lon="5.50176">
        <ele>148.9</ele>
        <time>2025-10-19T08:30:18Z</time>
      </trkpt>
      <trkpt lat="43.20889" lon="5.50175">
        <ele>148.8</ele>
        <time>2025-10-19T08:30:19Z</time>
      </trkpt>
      <trkpt lat="43.20888" lon="5.50175">
        <ele>148.7</ele>
        <time>2025-10-19T08:30:20Z</time>
      </trkpt>
      <trkpt lat="43.20887" lon="5.50175">
        <ele>148.7</ele>
        <time>2025-10-19T08:30:21Z</time>
      </trkpt>
      <trkpt lat="43.20885" lon="5.50174">
        <ele>148.8</ele>
        <time>2025-10-19T08:30:22Z</time>
      </trkpt>
      <trkpt lat="43.20884" lon="5.50174">
        <ele>148.7</ele>
        <time>2025-10-19T08:30:23Z</time>
      </trkpt>
      <trkpt lat="43.20883" lon="5.50174">
        <ele>148.7</ele>
        <time>2025-10-19T08:30:24Z</time>
      </trkpt>
      <trkpt lat="43.20881" lon="5.50173">
        <ele>148.6</ele>
        <time>2025-10-19T08:30:25Z</time>
      </trkpt>
      <trkpt lat="43.2088" lon="5.50173">
        <ele>148.6</ele>
        <time>2025-10-19T08:30:26Z</time>
      </trkpt>
      <trkpt lat="43.20879" lon="5.50173">
        <ele>148.6</ele>
        <time>2025-10-19T08:30:27Z</time>
      </trkpt>
      <trkpt lat="43.20877" lon="5.50173">
        <ele>148.6</ele>
        <time>2025-10-19T08:30:28Z</time>
      </trkpt>
      <trkpt lat="43.20876" lon="5.50173">
        <ele>148.5</ele>
        <time>2025-10-19T08:30:29Z</time>
      </trkpt>
      <trkpt lat="43.20875" lon="5.50173">
        <ele>148.5</ele>
        <time>2025-10-19T08:30:30Z</time>
      </trkpt>
      <trkpt lat="43.20873" lon="5.50173">
        <ele>148.3</ele>
        <time>2025-10-19T08:30:31Z</time>
      </trkpt>
      <trkpt lat="43.20873" lon="5.50173">
        <ele>148.2</ele>
        <time>2025-10-19T08:30:32Z</time>
      </trkpt>
      <trkpt lat="43.20872" lon="5.50173">
        <ele>148.1</ele>
        <time>2025-10-19T08:30:33Z</time>
      </trkpt>
      <trkpt lat="43.20871" lon="5.50174">
        <ele>148</ele>
        <time>2025-10-19T08:30:34Z</time>
      </trkpt>
      <trkpt lat="43.2087" lon="5.50174">
        <ele>147.9</ele>
        <time>2025-10-19T08:30:35Z</time>
      </trkpt>
      <trkpt lat="43.20868" lon="5.50175">
        <ele>147.9</ele>
        <time>2025-10-19T08:30:36Z</time>
      </trkpt>
      <trkpt lat="43.20867" lon="5.50176">
        <ele>147.9</ele>
        <time>2025-10-19T08:30:37Z</time>
      </trkpt>
      <trkpt lat="43.20866" lon="5.50176">
        <ele>147.9</ele>
        <time>2025-10-19T08:30:38Z</time>
      </trkpt>
      <trkpt lat="43.20865" lon="5.50176">
        <ele>147.9</ele>
        <time>2025-10-19T08:30:39Z</time>
      </trkpt>
      <trkpt lat="43.20863" lon="5.50177">
        <ele>147.7</ele>
        <time>2025-10-19T08:30:40Z</time>
      </trkpt>
      <trkpt lat="43.20862" lon="5.50177">
        <ele>147.7</ele>
        <time>2025-10-19T08:30:41Z</time>
      </trkpt>
      <trkpt lat="43.20861" lon="5.50178">
        <ele>147.7</ele>
        <time>2025-10-19T08:30:42Z</time>
      </trkpt>
      <trkpt lat="43.2086" lon="5.50179">
        <ele>147.6</ele>
        <time>2025-10-19T08:30:43Z</time>
      </trkpt>
      <trkpt lat="43.20858" lon="5.50179">
        <ele>147.6</ele>
        <time>2025-10-19T08:30:44Z</time>
      </trkpt>
      <trkpt lat="43.20857" lon="5.5018">
        <ele>147.5</ele>
        <time>2025-10-19T08:30:45Z</time>
      </trkpt>
      <trkpt lat="43.20856" lon="5.5018">
        <ele>147.5</ele>
        <time>2025-10-19T08:30:46Z</time>
      </trkpt>
      <trkpt lat="43.20855" lon="5.50181">
        <ele>147.4</ele>
        <time>2025-10-19T08:30:47Z</time>
      </trkpt>
      <trkpt lat="43.20854" lon="5.50181">
        <ele>147.4</ele>
        <time>2025-10-19T08:30:48Z</time>
      </trkpt>
      <trkpt lat="43.20853" lon="5.50182">
        <ele>147.3</ele>
        <time>2025-10-19T08:30:49Z</time>
      </trkpt>
      <trkpt lat="43.20852" lon="5.50182">
        <ele>147.3</ele>
        <time>2025-10-19T08:30:50Z</time>
      </trkpt>
      <trkpt lat="43.2085" lon="5.50183">
        <ele>147.2</ele>
        <time>2025-10-19T08:30:51Z</time>
      </trkpt>
      <trkpt lat="43.20849" lon="5.50184">
        <ele>147.1</ele>
        <time>2025-10-19T08:30:52Z</time>
      </trkpt>
      <trkpt lat="43.20848" lon="5.50184">
        <ele>147</ele>
        <time>2025-10-19T08:30:53Z</time>
      </trkpt>
      <trkpt lat="43.20847" lon="5.50185">
        <ele>146.9</ele>
        <time>2025-10-19T08:30:54Z</time>
      </trkpt>
      <trkpt lat="43.20846" lon="5.50186">
        <ele>146.8</ele>
        <time>2025-10-19T08:30:55Z</time>
      </trkpt>
      <trkpt lat="43.20845" lon="5.50187">
        <ele>146.7</ele>
        <time>2025-10-19T08:30:56Z</time>
      </trkpt>
      <trkpt lat="43.20844" lon="5.50188">
        <ele>146.6</ele>
        <time>2025-10-19T08:30:57Z</time>
      </trkpt>
      <trkpt lat="43.20843" lon="5.50189">
        <ele>146.5</ele>
        <time>2025-10-19T08:30:58Z</time>
      </trkpt>
      <trkpt lat="43.20842" lon="5.5019">
        <ele>146.4</ele>
        <time>2025-10-19T08:30:59Z</time>
      </trkpt>
      <trkpt lat="43.20842" lon="5.50191">
        <ele>146.6</ele>
        <time>2025-10-19T08:31:00Z</time>
      </trkpt>
      <trkpt lat="43.20841" lon="5.50191">
        <ele>146.6</ele>
        <time>2025-10-19T08:31:01Z</time>
      </trkpt>
      <trkpt lat="43.2084" lon="5.50192">
        <ele>146.6</ele>
        <time>2025-10-19T08:31:02Z</time>
      </trkpt>
      <trkpt lat="43.20839" lon="5.50193">
        <ele>146.5</ele>
        <time>2025-10-19T08:31:03Z</time>
      </trkpt>
      <trkpt lat="43.20838" lon="5.50194">
        <ele>146.5</ele>
        <time>2025-10-19T08:31:04Z</time>
      </trkpt>
      <trkpt lat="43.20836" lon="5.50195">
        <ele>146.4</ele>
        <time>2025-10-19T08:31:05Z</time>
      </trkpt>
      <trkpt lat="43.20835" lon="5.50196">
        <ele>146.3</ele>
        <time>2025-10-19T08:31:06Z</time>
      </trkpt>
      <trkpt lat="43.20834" lon="5.50196">
        <ele>146.3</ele>
        <time>2025-10-19T08:31:07Z</time>
      </trkpt>
      <trkpt lat="43.20833" lon="5.50197">
        <ele>146.2</ele>
        <time>2025-10-19T08:31:08Z</time>
      </trkpt>
      <trkpt lat="43.20832" lon="5.50198">
        <ele>146.1</ele>
        <time>2025-10-19T08:31:09Z</time>
      </trkpt>
      <trkpt lat="43.20831" lon="5.50199">
        <ele>146</ele>
        <time>2025-10-19T08:31:10Z</time>
      </trkpt>
      <trkpt lat="43.2083" lon="5.502">
        <ele>146</ele>
        <time>2025-10-19T08:31:11Z</time>
      </trkpt>
      <trkpt lat="43.20829" lon="5.50201">
        <ele>146.1</ele>
        <time>2025-10-19T08:31:12Z</time>
      </trkpt>
      <trkpt lat="43.20828" lon="5.50201">
        <ele>146</ele>
        <time>2025-10-19T08:31:13Z</time>
      </trkpt>
      <trkpt lat="43.20827" lon="5.50201">
        <ele>145.8</ele>
        <time>2025-10-19T08:31:14Z</time>
      </trkpt>
      <trkpt lat="43.20826" lon="5.50202">
        <ele>145.6</ele>
        <time>2025-10-19T08:31:15Z</time>
      </trkpt>
      <trkpt lat="43.20825" lon="5.50202">
        <ele>145.5</ele>
        <time>2025-10-19T08:31:16Z</time>
      </trkpt>
      <trkpt lat="43.20824" lon="5.50203">
        <ele>145.4</ele>
        <time>2025-10-19T08:31:17Z</time>
      </trkpt>
      <trkpt lat="43.20823" lon="5.50204">
        <ele>145.3</ele>
        <time>2025-10-19T08:31:18Z</time>
      </trkpt>
      <trkpt lat="43.20822" lon="5.50205">
        <ele>145.2</ele>
        <time>2025-10-19T08:31:19Z</time>
      </trkpt>
      <trkpt lat="43.20821" lon="5.50205">
        <ele>145</ele>
        <time>2025-10-19T08:31:20Z</time>
      </trkpt>
      <trkpt lat="43.2082" lon="5.50206">
        <ele>144.9</ele>
        <time>2025-10-19T08:31:21Z</time>
      </trkpt>
      <trkpt lat="43.20819" lon="5.50207">
        <ele>144.7</ele>
        <time>2025-10-19T08:31:22Z</time>
      </trkpt>
      <trkpt lat="43.20818" lon="5.50207">
        <ele>144.7</ele>
        <time>2025-10-19T08:31:23Z</time>
      </trkpt>
      <trkpt lat="43.20817" lon="5.50208">
        <ele>144.6</ele>
        <time>2025-10-19T08:31:24Z</time>
      </trkpt>
      <trkpt lat="43.20815" lon="5.50208">
        <ele>144.5</ele>
        <time>2025-10-19T08:31:25Z</time>
      </trkpt>
      <trkpt lat="43.20814" lon="5.50209">
        <ele>144.5</ele>
        <time>2025-10-19T08:31:26Z</time>
      </trkpt>
      <trkpt lat="43.20813" lon="5.50209">
        <ele>144.3</ele>
        <time>2025-10-19T08:31:27Z</time>
      </trkpt>
      <trkpt lat="43.20812" lon="5.5021">
        <ele>144.1</ele>
        <time>2025-10-19T08:31:28Z</time>
      </trkpt>
      <trkpt lat="43.20811" lon="5.50211">
        <ele>144</ele>
        <time>2025-10-19T08:31:29Z</time>
      </trkpt>
      <trkpt lat="43.2081" lon="5.50212">
        <ele>144</ele>
        <time>2025-10-19T08:31:30Z</time>
      </trkpt>
      <trkpt lat="43.20809" lon="5.50212">
        <ele>143.9</ele>
        <time>2025-10-19T08:31:31Z</time>
      </trkpt>
      <trkpt lat="43.20808" lon="5.50212">
        <ele>143.9</ele>
        <time>2025-10-19T08:31:32Z</time>
      </trkpt>
      <trkpt lat="43.20807" lon="5.50212">
        <ele>144</ele>
        <time>2025-10-19T08:31:33Z</time>
      </trkpt>
      <trkpt lat="43.20806" lon="5.50212">
        <ele>143.9</ele>
        <time>2025-10-19T08:31:34Z</time>
      </trkpt>
      <trkpt lat="43.20805" lon="5.50213">
        <ele>143.8</ele>
        <time>2025-10-19T08:31:35Z</time>
      </trkpt>
      <trkpt lat="43.20804" lon="5.50213">
        <ele>143.8</ele>
        <time>2025-10-19T08:31:36Z</time>
      </trkpt>
      <trkpt lat="43.20802" lon="5.50213">
        <ele>143.7</ele>
        <time>2025-10-19T08:31:37Z</time>
      </trkpt>
      <trkpt lat="43.20801" lon="5.50213">
        <ele>143.6</ele>
        <time>2025-10-19T08:31:38Z</time>
      </trkpt>
      <trkpt lat="43.208" lon="5.50214">
        <ele>143.5</ele>
        <time>2025-10-19T08:31:39Z</time>
      </trkpt>
      <trkpt lat="43.20799" lon="5.50214">
        <ele>143.4</ele>
        <time>2025-10-19T08:31:40Z</time>
      </trkpt>
      <trkpt lat="43.20798" lon="5.50214">
        <ele>143.2</ele>
        <time>2025-10-19T08:31:41Z</time>
      </trkpt>
      <trkpt lat="43.20797" lon="5.50214">
        <ele>143</ele>
        <time>2025-10-19T08:31:42Z</time>
      </trkpt>
      <trkpt lat="43.20796" lon="5.50214">
        <ele>143</ele>
        <time>2025-10-19T08:31:43Z</time>
      </trkpt>
      <trkpt lat="43.20796" lon="5.50214">
        <ele>142.8</ele>
        <time>2025-10-19T08:31:44Z</time>
      </trkpt>
      <trkpt lat="43.20795" lon="5.50214">
        <ele>142.7</ele>
        <time>2025-10-19T08:31:45Z</time>
      </trkpt>
      <trkpt lat="43.20794" lon="5.50214">
        <ele>142.6</ele>
        <time>2025-10-19T08:31:46Z</time>
      </trkpt>
      <trkpt lat="43.20793" lon="5.50214">
        <ele>142.5</ele>
        <time>2025-10-19T08:31:47Z</time>
      </trkpt>
      <trkpt lat="43.20792" lon="5.50214">
        <ele>142.5</ele>
        <time>2025-10-19T08:31:48Z</time>
      </trkpt>
      <trkpt lat="43.20791" lon="5.50215">
        <ele>142.5</ele>
        <time>2025-10-19T08:31:49Z</time>
      </trkpt>
      <trkpt lat="43.2079" lon="5.50215">
        <ele>142.2</ele>
        <time>2025-10-19T08:31:50Z</time>
      </trkpt>
      <trkpt lat="43.20789" lon="5.50215">
        <ele>142.1</ele>
        <time>2025-10-19T08:31:51Z</time>
      </trkpt>
      <trkpt lat="43.20788" lon="5.50215">
        <ele>142</ele>
        <time>2025-10-19T08:31:52Z</time>
      </trkpt>
      <trkpt lat="43.20786" lon="5.50215">
        <ele>142</ele>
        <time>2025-10-19T08:31:53Z</time>
      </trkpt>
      <trkpt lat="43.20785" lon="5.50215">
        <ele>141.9</ele>
        <time>2025-10-19T08:31:54Z</time>
      </trkpt>
      <trkpt lat="43.20784" lon="5.50215">
        <ele>141.8</ele>
        <time>2025-10-19T08:31:55Z</time>
      </trkpt>
      <trkpt lat="43.20783" lon="5.50215">
        <ele>141.7</ele>
        <time>2025-10-19T08:31:56Z</time>
      </trkpt>
      <trkpt lat="43.20782" lon="5.50215">
        <ele>141.6</ele>
        <time>2025-10-19T08:31:57Z</time>
      </trkpt>
      <trkpt lat="43.20781" lon="5.50215">
        <ele>141.5</ele>
        <time>2025-10-19T08:31:58Z</time>
      </trkpt>
      <trkpt lat="43.20779" lon="5.50215">
        <ele>141.5</ele>
        <time>2025-10-19T08:31:59Z</time>
      </trkpt>
      <trkpt lat="43.20778" lon="5.50215">
        <ele>141.5</ele>
        <time>2025-10-19T08:32:00Z</time>
      </trkpt>
      <trkpt lat="43.20777" lon="5.50214">
        <ele>141.4</ele>
        <time>2025-10-19T08:32:01Z</time>
      </trkpt>
      <trkpt lat="43.20776" lon="5.50214">
        <ele>141.4</ele>
        <time>2025-10-19T08:32:02Z</time>
      </trkpt>
      <trkpt lat="43.20775" lon="5.50214">
        <ele>141.3</ele>
        <time>2025-10-19T08:32:03Z</time>
      </trkpt>
      <trkpt lat="43.20774" lon="5.50214">
        <ele>141.2</ele>
        <time>2025-10-19T08:32:04Z</time>
      </trkpt>
      <trkpt lat="43.20773" lon="5.50213">
        <ele>141.1</ele>
        <time>2025-10-19T08:32:05Z</time>
      </trkpt>
      <trkpt lat="43.20772" lon="5.50213">
        <ele>141</ele>
        <time>2025-10-19T08:32:06Z</time>
      </trkpt>
      <trkpt lat="43.2077" lon="5.50213">
        <ele>140.9</ele>
        <time>2025-10-19T08:32:07Z</time>
      </trkpt>
      <trkpt lat="43.20769" lon="5.50213">
        <ele>140.8</ele>
        <time>2025-10-19T08:32:08Z</time>
      </trkpt>
      <trkpt lat="43.20768" lon="5.50213">
        <ele>140.7</ele>
        <time>2025-10-19T08:32:09Z</time>
      </trkpt>
      <trkpt lat="43.20767" lon="5.50213">
        <ele>140.6</ele>
        <time>2025-10-19T08:32:10Z</time>
      </trkpt>
      <trkpt lat="43.20766" lon="5.50213">
        <ele>140.3</ele>
        <time>2025-10-19T08:32:11Z</time>
      </trkpt>
      <trkpt lat="43.20766" lon="5.50213">
        <ele>140.2</ele>
        <time>2025-10-19T08:32:12Z</time>
      </trkpt>
      <trkpt lat="43.20764" lon="5.50213">
        <ele>140.1</ele>
        <time>2025-10-19T08:32:13Z</time>
      </trkpt>
      <trkpt lat="43.20763" lon="5.50213">
        <ele>140.1</ele>
        <time>2025-10-19T08:32:14Z</time>
      </trkpt>
      <trkpt lat="43.20762" lon="5.50213">
        <ele>139.9</ele>
        <time>2025-10-19T08:32:15Z</time>
      </trkpt>
      <trkpt lat="43.20761" lon="5.50213">
        <ele>139.8</ele>
        <time>2025-10-19T08:32:16Z</time>
      </trkpt>
      <trkpt lat="43.2076" lon="5.50213">
        <ele>139.7</ele>
        <time>2025-10-19T08:32:17Z</time>
      </trkpt>
      <trkpt lat="43.20759" lon="5.50213">
        <ele>139.6</ele>
        <time>2025-10-19T08:32:18Z</time>
      </trkpt>
      <trkpt lat="43.20758" lon="5.50213">
        <ele>139.5</ele>
        <time>2025-10-19T08:32:19Z</time>
      </trkpt>
      <trkpt lat="43.20757" lon="5.50213">
        <ele>139.4</ele>
        <time>2025-10-19T08:32:20Z</time>
      </trkpt>
      <trkpt lat="43.20756" lon="5.50214">
        <ele>139.3</ele>
        <time>2025-10-19T08:32:21Z</time>
      </trkpt>
      <trkpt lat="43.20755" lon="5.50215">
        <ele>139.2</ele>
        <time>2025-10-19T08:32:22Z</time>
      </trkpt>
      <trkpt lat="43.20754" lon="5.50215">
        <ele>139.1</ele>
        <time>2025-10-19T08:32:23Z</time>
      </trkpt>
      <trkpt lat="43.20753" lon="5.50215">
        <ele>139.1</ele>
        <time>2025-10-19T08:32:24Z</time>
      </trkpt>
      <trkpt lat="43.20752" lon="5.50215">
        <ele>139</ele>
        <time>2025-10-19T08:32:25Z</time>
      </trkpt>
      <trkpt lat="43.20751" lon="5.50214">
        <ele>138.8</ele>
        <time>2025-10-19T08:32:26Z</time>
      </trkpt>
      <trkpt lat="43.2075" lon="5.50214">
        <ele>138.7</ele>
        <time>2025-10-19T08:32:27Z</time>
      </trkpt>
      <trkpt lat="43.20749" lon="5.50214">
        <ele>138.6</ele>
        <time>2025-10-19T08:32:28Z</time>
      </trkpt>
      <trkpt lat="43.20748" lon="5.50214">
        <ele>138.5</ele>
        <time>2025-10-19T08:32:29Z</time>
      </trkpt>
      <trkpt lat="43.20747" lon="5.50215">
        <ele>138.5</ele>
        <time>2025-10-19T08:32:30Z</time>
      </trkpt>
      <trkpt lat="43.20746" lon="5.50215">
        <ele>138.4</ele>
        <time>2025-10-19T08:32:31Z</time>
      </trkpt>
      <trkpt lat="43.20745" lon="5.50215">
        <ele>138.4</ele>
        <time>2025-10-19T08:32:32Z</time>
      </trkpt>
      <trkpt lat="43.20744" lon="5.50215">
        <ele>138.3</ele>
        <time>2025-10-19T08:32:33Z</time>
      </trkpt>
      <trkpt lat="43.20743" lon="5.50215">
        <ele>138.3</ele>
        <time>2025-10-19T08:32:34Z</time>
      </trkpt>
      <trkpt lat="43.20742" lon="5.50215">
        <ele>138.2</ele>
        <time>2025-10-19T08:32:35Z</time>
      </trkpt>
      <trkpt lat="43.20741" lon="5.50214">
        <ele>138.1</ele>
        <time>2025-10-19T08:32:36Z</time>
      </trkpt>
      <trkpt lat="43.2074" lon="5.50214">
        <ele>138.1</ele>
        <time>2025-10-19T08:32:37Z</time>
      </trkpt>
      <trkpt lat="43.20739" lon="5.50214">
        <ele>138.1</ele>
        <time>2025-10-19T08:32:38Z</time>
      </trkpt>
      <trkpt lat="43.20737" lon="5.50214">
        <ele>138</ele>
        <time>2025-10-19T08:32:39Z</time>
      </trkpt>
      <trkpt lat="43.20736" lon="5.50214">
        <ele>138</ele>
        <time>2025-10-19T08:32:40Z</time>
      </trkpt>
      <trkpt lat="43.20735" lon="5.50214">
        <ele>137.8</ele>
        <time>2025-10-19T08:32:41Z</time>
      </trkpt>
      <trkpt lat="43.20734" lon="5.50214">
        <ele>137.7</ele>
        <time>2025-10-19T08:32:42Z</time>
      </trkpt>
      <trkpt lat="43.20733" lon="5.50214">
        <ele>137.7</ele>
        <time>2025-10-19T08:32:43Z</time>
      </trkpt>
      <trkpt lat="43.20732" lon="5.50214">
        <ele>137.6</ele>
        <time>2025-10-19T08:32:44Z</time>
      </trkpt>
      <trkpt lat="43.20731" lon="5.50214">
        <ele>137.7</ele>
        <time>2025-10-19T08:32:45Z</time>
      </trkpt>
      <trkpt lat="43.2073" lon="5.50214">
        <ele>137.7</ele>
        <time>2025-10-19T08:32:46Z</time>
      </trkpt>
      <trkpt lat="43.20729" lon="5.50213">
        <ele>137.7</ele>
        <time>2025-10-19T08:32:47Z</time>
      </trkpt>
      <trkpt lat="43.20727" lon="5.50213">
        <ele>137.5</ele>
        <time>2025-10-19T08:32:48Z</time>
      </trkpt>
      <trkpt lat="43.20726" lon="5.50213">
        <ele>137.5</ele>
        <time>2025-10-19T08:32:49Z</time>
      </trkpt>
      <trkpt lat="43.20725" lon="5.50213">
        <ele>137.4</ele>
        <time>2025-10-19T08:32:50Z</time>
      </trkpt>
      <trkpt lat="43.20723" lon="5.50213">
        <ele>137.3</ele>
        <time>2025-10-19T08:32:51Z</time>
      </trkpt>
      <trkpt lat="43.20722" lon="5.50213">
        <ele>137.2</ele>
        <time>2025-10-19T08:32:52Z</time>
      </trkpt>
      <trkpt lat="43.20721" lon="5.50212">
        <ele>137.1</ele>
        <time>2025-10-19T08:32:53Z</time>
      </trkpt>
      <trkpt lat="43.2072" lon="5.50212">
        <ele>136.9</ele>
        <time>2025-10-19T08:32:54Z</time>
      </trkpt>
      <trkpt lat="43.20719" lon="5.50212">
        <ele>136.8</ele>
        <time>2025-10-19T08:32:55Z</time>
      </trkpt>
      <trkpt lat="43.20718" lon="5.50212">
        <ele>136.8</ele>
        <time>2025-10-19T08:32:56Z</time>
      </trkpt>
      <trkpt lat="43.20716" lon="5.50211">
        <ele>136.7</ele>
        <time>2025-10-19T08:32:57Z</time>
      </trkpt>
      <trkpt lat="43.20715" lon="5.50211">
        <ele>136.7</ele>
        <time>2025-10-19T08:32:58Z</time>
      </trkpt>
      <trkpt lat="43.20714" lon="5.50211">
        <ele>136.7</ele>
        <time>2025-10-19T08:32:59Z</time>
      </trkpt>
      <trkpt lat="43.20713" lon="5.5021">
        <ele>136.6</ele>
        <time>2025-10-19T08:33:00Z</time>
      </trkpt>
      <trkpt lat="43.20712" lon="5.5021">
        <ele>136.5</ele>
        <time>2025-10-19T08:33:01Z</time>
      </trkpt>
      <trkpt lat="43.20711" lon="5.5021">
        <ele>136.5</ele>
        <time>2025-10-19T08:33:02Z</time>
      </trkpt>
      <trkpt lat="43.2071" lon="5.50209">
        <ele>136.4</ele>
        <time>2025-10-19T08:33:03Z</time>
      </trkpt>
      <trkpt lat="43.20709" lon="5.50209">
        <ele>136.3</ele>
        <time>2025-10-19T08:33:04Z</time>
      </trkpt>
      <trkpt lat="43.20708" lon="5.50208">
        <ele>136.1</ele>
        <time>2025-10-19T08:33:05Z</time>
      </trkpt>
      <trkpt lat="43.20707" lon="5.50207">
        <ele>136</ele>
        <time>2025-10-19T08:33:06Z</time>
      </trkpt>
      <trkpt lat="43.20706" lon="5.50206">
        <ele>136</ele>
        <time>2025-10-19T08:33:07Z</time>
      </trkpt>
      <trkpt lat="43.20705" lon="5.50205">
        <ele>135.9</ele>
        <time>2025-10-19T08:33:08Z</time>
      </trkpt>
      <trkpt lat="43.20704" lon="5.50204">
        <ele>135.9</ele>
        <time>2025-10-19T08:33:09Z</time>
      </trkpt>
      <trkpt lat="43.20703" lon="5.50203">
        <ele>135.8</ele>
        <time>2025-10-19T08:33:10Z</time>
      </trkpt>
      <trkpt lat="43.20702" lon="5.50203">
        <ele>135.7</ele>
        <time>2025-10-19T08:33:11Z</time>
      </trkpt>
      <trkpt lat="43.20701" lon="5.50203">
        <ele>135.7</ele>
        <time>2025-10-19T08:33:12Z</time>
      </trkpt>
      <trkpt lat="43.207" lon="5.50201">
        <ele>135.8</ele>
        <time>2025-10-19T08:33:13Z</time>
      </trkpt>
      <trkpt lat="43.20699" lon="5.50201">
        <ele>135.8</ele>
        <time>2025-10-19T08:33:14Z</time>
      </trkpt>
      <trkpt lat="43.20698" lon="5.502">
        <ele>135.9</ele>
        <time>2025-10-19T08:33:15Z</time>
      </trkpt>
      <trkpt lat="43.20698" lon="5.50199">
        <ele>135.9</ele>
        <time>2025-10-19T08:33:16Z</time>
      </trkpt>
      <trkpt lat="43.20697" lon="5.50199">
        <ele>135.9</ele>
        <time>2025-10-19T08:33:17Z</time>
      </trkpt>
      <trkpt lat="43.20696" lon="5.50198">
        <ele>135.7</ele>
        <time>2025-10-19T08:33:18Z</time>
      </trkpt>
      <trkpt lat="43.20695" lon="5.50198">
        <ele>135.5</ele>
        <time>2025-10-19T08:33:19Z</time>
      </trkpt>
      <trkpt lat="43.20695" lon="5.50197">
        <ele>135.4</ele>
        <time>2025-10-19T08:33:20Z</time>
      </trkpt>
      <trkpt lat="43.20694" lon="5.50196">
        <ele>135.3</ele>
        <time>2025-10-19T08:33:21Z</time>
      </trkpt>
      <trkpt lat="43.20693" lon="5.50196">
        <ele>135.1</ele>
        <time>2025-10-19T08:33:22Z</time>
      </trkpt>
      <trkpt lat="43.20692" lon="5.50196">
        <ele>135</ele>
        <time>2025-10-19T08:33:23Z</time>
      </trkpt>
      <trkpt lat="43.20691" lon="5.50195">
        <ele>134.8</ele>
        <time>2025-10-19T08:33:24Z</time>
      </trkpt>
      <trkpt lat="43.2069" lon="5.50194">
        <ele>134.7</ele>
        <time>2025-10-19T08:33:25Z</time>
      </trkpt>
      <trkpt lat="43.20689" lon="5.50194">
        <ele>134.6</ele>
        <time>2025-10-19T08:33:26Z</time>
      </trkpt>
      <trkpt lat="43.20688" lon="5.50193">
        <ele>134.5</ele>
        <time>2025-10-19T08:33:27Z</time>
      </trkpt>
      <trkpt lat="43.20687" lon="5.50193">
        <ele>134.4</ele>
        <time>2025-10-19T08:33:28Z</time>
      </trkpt>
      <trkpt lat="43.20686" lon="5.50193">
        <ele>134.3</ele>
        <time>2025-10-19T08:33:29Z</time>
      </trkpt>
      <trkpt lat="43.20684" lon="5.50193">
        <ele>134.2</ele>
        <time>2025-10-19T08:33:30Z</time>
      </trkpt>
      <trkpt lat="43.20683" lon="5.50193">
        <ele>134.1</ele>
        <time>2025-10-19T08:33:31Z</time>
      </trkpt>
      <trkpt lat="43.20682" lon="5.50193">
        <ele>133.9</ele>
        <time>2025-10-19T08:33:32Z</time>
      </trkpt>
      <trkpt lat="43.20681" lon="5.50193">
        <ele>133.8</ele>
        <time>2025-10-19T08:33:33Z</time>
      </trkpt>
      <trkpt lat="43.2068" lon="5.50193">
        <ele>133.6</ele>
        <time>2025-10-19T08:33:34Z</time>
      </trkpt>
      <trkpt lat="43.20679" lon="5.50193">
        <ele>133.5</ele>
        <time>2025-10-19T08:33:35Z</time>
      </trkpt>
      <trkpt lat="43.20678" lon="5.50195">
        <ele>133.4</ele>
        <time>2025-10-19T08:33:36Z</time>
      </trkpt>
      <trkpt lat="43.20677" lon="5.50195">
        <ele>133.4</ele>
        <time>2025-10-19T08:33:37Z</time>
      </trkpt>
      <trkpt lat="43.20676" lon="5.50195">
        <ele>133.4</ele>
        <time>2025-10-19T08:33:38Z</time>
      </trkpt>
      <trkpt lat="43.20675" lon="5.50196">
        <ele>133.3</ele>
        <time>2025-10-19T08:33:39Z</time>
      </trkpt>
      <trkpt lat="43.20674" lon="5.50196">
        <ele>133.3</ele>
        <time>2025-10-19T08:33:40Z</time>
      </trkpt>
      <trkpt lat="43.20673" lon="5.50196">
        <ele>133.2</ele>
        <time>2025-10-19T08:33:41Z</time>
      </trkpt>
      <trkpt lat="43.20672" lon="5.50197">
        <ele>133.1</ele>
        <time>2025-10-19T08:33:42Z</time>
      </trkpt>
      <trkpt lat="43.20671" lon="5.50198">
        <ele>133</ele>
        <time>2025-10-19T08:33:43Z</time>
      </trkpt>
      <trkpt lat="43.2067" lon="5.50198">
        <ele>132.9</ele>
        <time>2025-10-19T08:33:44Z</time>
      </trkpt>
      <trkpt lat="43.20669" lon="5.50199">
        <ele>132.8</ele>
        <time>2025-10-19T08:33:45Z</time>
      </trkpt>
      <trkpt lat="43.20668" lon="5.50199">
        <ele>132.7</ele>
        <time>2025-10-19T08:33:46Z</time>
      </trkpt>
      <trkpt lat="43.20666" lon="5.50199">
        <ele>132.6</ele>
        <time>2025-10-19T08:33:47Z</time>
      </trkpt>
      <trkpt lat="43.20666" lon="5.502">
        <ele>132.5</ele>
        <time>2025-10-19T08:33:48Z</time>
      </trkpt>
      <trkpt lat="43.20664" lon="5.502">
        <ele>132.5</ele>
        <time>2025-10-19T08:33:49Z</time>
      </trkpt>
      <trkpt lat="43.20663" lon="5.50201">
        <ele>132.3</ele>
        <time>2025-10-19T08:33:50Z</time>
      </trkpt>
      <trkpt lat="43.20662" lon="5.50201">
        <ele>132.3</ele>
        <time>2025-10-19T08:33:51Z</time>
      </trkpt>
      <trkpt lat="43.20662" lon="5.50202">
        <ele>132.2</ele>
        <time>2025-10-19T08:33:52Z</time>
      </trkpt>
      <trkpt lat="43.20661" lon="5.50202">
        <ele>132.2</ele>
        <time>2025-10-19T08:33:53Z</time>
      </trkpt>
      <trkpt lat="43.2066" lon="5.50202">
        <ele>132</ele>
        <time>2025-10-19T08:33:54Z</time>
      </trkpt>
      <trkpt lat="43.20659" lon="5.50203">
        <ele>132</ele>
        <time>2025-10-19T08:33:55Z</time>
      </trkpt>
      <trkpt lat="43.20658" lon="5.50203">
        <ele>131.9</ele>
        <time>2025-10-19T08:33:56Z</time>
      </trkpt>
      <trkpt lat="43.20657" lon="5.50203">
        <ele>131.8</ele>
        <time>2025-10-19T08:33:57Z</time>
      </trkpt>
      <trkpt lat="43.20655" lon="5.50203">
        <ele>131.6</ele>
        <time>2025-10-19T08:33:58Z</time>
      </trkpt>
      <trkpt lat="43.20654" lon="5.50204">
        <ele>131.5</ele>
        <time>2025-10-19T08:33:59Z</time>
      </trkpt>
      <trkpt lat="43.20652" lon="5.50203">
        <ele>131.5</ele>
        <time>2025-10-19T08:34:00Z</time>
      </trkpt>
      <trkpt lat="43.20651" lon="5.50204">
        <ele>131.3</ele>
        <time>2025-10-19T08:34:01Z</time>
      </trkpt>
      <trkpt lat="43.2065" lon="5.50204">
        <ele>131.2</ele>
        <time>2025-10-19T08:34:02Z</time>
      </trkpt>
      <trkpt lat="43.20649" lon="5.50204">
        <ele>131.1</ele>
        <time>2025-10-19T08:34:03Z</time>
      </trkpt>
      <trkpt lat="43.20648" lon="5.50204">
        <ele>131</ele>
        <time>2025-10-19T08:34:04Z</time>
      </trkpt>
      <trkpt lat="43.20647" lon="5.50205">
        <ele>131</ele>
        <time>2025-10-19T08:34:05Z</time>
      </trkpt>
      <trkpt lat="43.20646" lon="5.50205">
        <ele>130.9</ele>
        <time>2025-10-19T08:34:06Z</time>
      </trkpt>
      <trkpt lat="43.20646" lon="5.50206">
        <ele>130.8</ele>
        <time>2025-10-19T08:34:07Z</time>
      </trkpt>
      <trkpt lat="43.20645" lon="5.50206">
        <ele>130.8</ele>
        <time>2025-10-19T08:34:08Z</time>
      </trkpt>
      <trkpt lat="43.20644" lon="5.50207">
        <ele>130.6</ele>
        <time>2025-10-19T08:34:09Z</time>
      </trkpt>
      <trkpt lat="43.20643" lon="5.50207">
        <ele>130.5</ele>
        <time>2025-10-19T08:34:10Z</time>
      </trkpt>
      <trkpt lat="43.20642" lon="5.50207">
        <ele>130.4</ele>
        <time>2025-10-19T08:34:11Z</time>
      </trkpt>
      <trkpt lat="43.20641" lon="5.50208">
        <ele>130.4</ele>
        <time>2025-10-19T08:34:12Z</time>
      </trkpt>
      <trkpt lat="43.2064" lon="5.50208">
        <ele>130.4</ele>
        <time>2025-10-19T08:34:13Z</time>
      </trkpt>
      <trkpt lat="43.20639" lon="5.50208">
        <ele>130.4</ele>
        <time>2025-10-19T08:34:14Z</time>
      </trkpt>
      <trkpt lat="43.20638" lon="5.50209">
        <ele>130.3</ele>
        <time>2025-10-19T08:34:15Z</time>
      </trkpt>
      <trkpt lat="43.20638" lon="5.5021">
        <ele>130.3</ele>
        <time>2025-10-19T08:34:16Z</time>
      </trkpt>
      <trkpt lat="43.20637" lon="5.50209">
        <ele>130.2</ele>
        <time>2025-10-19T08:34:17Z</time>
      </trkpt>
      <trkpt lat="43.20637" lon="5.5021">
        <ele>130.1</ele>
        <time>2025-10-19T08:34:18Z</time>
      </trkpt>
      <trkpt lat="43.20636" lon="5.50209">
        <ele>130</ele>
        <time>2025-10-19T08:34:19Z</time>
      </trkpt>
      <trkpt lat="43.20636" lon="5.50208">
        <ele>130</ele>
        <time>2025-10-19T08:34:20Z</time>
      </trkpt>
      <trkpt lat="43.20636" lon="5.50208">
        <ele>130</ele>
        <time>2025-10-19T08:34:21Z</time>
      </trkpt>
      <trkpt lat="43.20635" lon="5.50207">
        <ele>129.9</ele>
        <time>2025-10-19T08:34:22Z</time>
      </trkpt>
      <trkpt lat="43.20635" lon="5.50206">
        <ele>130</ele>
        <time>2025-10-19T08:34:23Z</time>
      </trkpt>
      <trkpt lat="43.20635" lon="5.50206">
        <ele>130</ele>
        <time>2025-10-19T08:34:24Z</time>
      </trkpt>
      <trkpt lat="43.20635" lon="5.50206">
        <ele>130</ele>
        <time>2025-10-19T08:34:25Z</time>
      </trkpt>
      <trkpt lat="43.20635" lon="5.50206">
        <ele>130</ele>
        <time>2025-10-19T08:34:26Z</time>
      </trkpt>
      <trkpt lat="43.20636" lon="5.50207">
        <ele>130.1</ele>
        <time>2025-10-19T08:34:27Z</time>
      </trkpt>
      <trkpt lat="43.20636" lon="5.50207">
        <ele>130.1</ele>
        <time>2025-10-19T08:34:28Z</time>
      </trkpt>
      <trkpt lat="43.20636" lon="5.50207">
        <ele>130.1</ele>
        <time>2025-10-19T08:34:29Z</time>
      </trkpt>
      <trkpt lat="43.20636" lon="5.50207">
        <ele>130.1</ele>
        <time>2025-10-19T08:34:30Z</time>
      </trkpt>
      <trkpt lat="43.20636" lon="5.50208">
        <ele>130.1</ele>
        <time>2025-10-19T08:34:31Z</time>
      </trkpt>
      <trkpt lat="43.20636" lon="5.50208">
        <ele>130.1</ele>
        <time>2025-10-19T08:34:32Z</time>
      </trkpt>
      <trkpt lat="43.20636" lon="5.50208">
        <ele>130.1</ele>
        <time>2025-10-19T08:34:33Z</time>
      </trkpt>
      <trkpt lat="43.20635" lon="5.50208">
        <ele>130.1</ele>
        <time>2025-10-19T08:34:34Z</time>
      </trkpt>
      <trkpt lat="43.20635" lon="5.50207">
        <ele>130.1</ele>
        <time>2025-10-19T08:34:35Z</time>
      </trkpt>
      <trkpt lat="43.20635" lon="5.50207">
        <ele>130.2</ele>
        <time>2025-10-19T08:34:36Z</time>
      </trkpt>
      <trkpt lat="43.20635" lon="5.50207">
        <ele>130.2</ele>
        <time>2025-10-19T08:34:37Z</time>
      </trkpt>
      <trkpt lat="43.20635" lon="5.50206">
        <ele>130.2</ele>
        <time>2025-10-19T08:34:38Z</time>
      </trkpt>
      <trkpt lat="43.20635" lon="5.50206">
        <ele>130.1</ele>
        <time>2025-10-19T08:34:39Z</time>
      </trkpt>
      <trkpt lat="43.20635" lon="5.50206">
        <ele>130.2</ele>
        <time>2025-10-19T08:34:40Z</time>
      </trkpt>
      <trkpt lat="43.20635" lon="5.50206">
        <ele>130.2</ele>
        <time>2025-10-19T08:34:41Z</time>
      </trkpt>
      <trkpt lat="43.20635" lon="5.50206">
        <ele>130.1</ele>
        <time>2025-10-19T08:34:42Z</time>
      </trkpt>
      <trkpt lat="43.20635" lon="5.50205">
        <ele>130</ele>
        <time>2025-10-19T08:34:43Z</time>
      </trkpt>
      <trkpt lat="43.20634" lon="5.50205">
        <ele>130.1</ele>
        <time>2025-10-19T08:34:44Z</time>
      </trkpt>
      <trkpt lat="43.20634" lon="5.50205">
        <ele>130.1</ele>
        <time>2025-10-19T08:34:45Z</time>
      </trkpt>
      <trkpt lat="43.20633" lon="5.50206">
        <ele>130.1</ele>
        <time>2025-10-19T08:34:46Z</time>
      </trkpt>
      <trkpt lat="43.20633" lon="5.50206">
        <ele>130.1</ele>
        <time>2025-10-19T08:34:47Z</time>
      </trkpt>
      <trkpt lat="43.20633" lon="5.50205">
        <ele>130</ele>
        <time>2025-10-19T08:34:48Z</time>
      </trkpt>
      <trkpt lat="43.20632" lon="5.50205">
        <ele>130</ele>
        <time>2025-10-19T08:34:49Z</time>
      </trkpt>
      <trkpt lat="43.20632" lon="5.50205">
        <ele>129.9</ele>
        <time>2025-10-19T08:34:50Z</time>
      </trkpt>
      <trkpt lat="43.20632" lon="5.50205">
        <ele>129.9</ele>
        <time>2025-10-19T08:34:51Z</time>
      </trkpt>
      <trkpt lat="43.20632" lon="5.50204">
        <ele>129.9</ele>
        <time>2025-10-19T08:34:52Z</time>
      </trkpt>
      <trkpt lat="43.20632" lon="5.50204">
        <ele>129.8</ele>
        <time>2025-10-19T08:34:53Z</time>
      </trkpt>
      <trkpt lat="43.20632" lon="5.50203">
        <ele>128</ele>
        <time>2025-10-19T08:34:54Z</time>
      </trkpt>
      <trkpt lat="43.20632" lon="5.50201">
        <ele>128.3</ele>
        <time>2025-10-19T08:34:55Z</time>
      </trkpt>
      <trkpt lat="43.20632" lon="5.502">
        <ele>128.5</ele>
        <time>2025-10-19T08:34:56Z</time>
      </trkpt>
      <trkpt lat="43.20632" lon="5.502">
        <ele>128.7</ele>
        <time>2025-10-19T08:34:57Z</time>
      </trkpt>
      <trkpt lat="43.20632" lon="5.50199">
        <ele>128.9</ele>
        <time>2025-10-19T08:34:58Z</time>
      </trkpt>
      <trkpt lat="43.20631" lon="5.50198">
        <ele>129</ele>
        <time>2025-10-19T08:34:59Z</time>
      </trkpt>
      <trkpt lat="43.20631" lon="5.50198">
        <ele>129.2</ele>
        <time>2025-10-19T08:35:00Z</time>
      </trkpt>
      <trkpt lat="43.20631" lon="5.50197">
        <ele>129.3</ele>
        <time>2025-10-19T08:35:01Z</time>
      </trkpt>
      <trkpt lat="43.20631" lon="5.50197">
        <ele>129.5</ele>
        <time>2025-10-19T08:35:02Z</time>
      </trkpt>
      <trkpt lat="43.20632" lon="5.50197">
        <ele>129.6</ele>
        <time>2025-10-19T08:35:03Z</time>
      </trkpt>
      <trkpt lat="43.20631" lon="5.50197">
        <ele>129.7</ele>
        <time>2025-10-19T08:35:04Z</time>
      </trkpt>
      <trkpt lat="43.20631" lon="5.50197">
        <ele>129.7</ele>
        <time>2025-10-19T08:35:05Z</time>
      </trkpt>
      <trkpt lat="43.20631" lon="5.50197">
        <ele>129.7</ele>
        <time>2025-10-19T08:35:06Z</time>
      </trkpt>
      <trkpt lat="43.20631" lon="5.50197">
        <ele>129.7</ele>
        <time>2025-10-19T08:35:07Z</time>
      </trkpt>
      <trkpt lat="43.20631" lon="5.50197">
        <ele>129.7</ele>
        <time>2025-10-19T08:35:08Z</time>
      </trkpt>
      <trkpt lat="43.20632" lon="5.50197">
        <ele>129.7</ele>
        <time>2025-10-19T08:35:09Z</time>
      </trkpt>
      <trkpt lat="43.20632" lon="5.50197">
        <ele>129.7</ele>
        <time>2025-10-19T08:35:10Z</time>
      </trkpt>
      <trkpt lat="43.20632" lon="5.50197">
        <ele>129.8</ele>
        <time>2025-10-19T08:35:11Z</time>
      </trkpt>
      <trkpt lat="43.20632" lon="5.50197">
        <ele>129.6</ele>
        <time>2025-10-19T08:35:12Z</time>
      </trkpt>
      <trkpt lat="43.20632" lon="5.50197">
        <ele>129.6</ele>
        <time>2025-10-19T08:35:13Z</time>
      </trkpt>
      <trkpt lat="43.20632" lon="5.50196">
        <ele>129.6</ele>
        <time>2025-10-19T08:35:14Z</time>
      </trkpt>
      <trkpt lat="43.20632" lon="5.50195">
        <ele>129.7</ele>
        <time>2025-10-19T08:35:15Z</time>
      </trkpt>
      <trkpt lat="43.20632" lon="5.50195">
        <ele>129.7</ele>
        <time>2025-10-19T08:35:16Z</time>
      </trkpt>
      <trkpt lat="43.20631" lon="5.50194">
        <ele>129.7</ele>
        <time>2025-10-19T08:35:17Z</time>
      </trkpt>
      <trkpt lat="43.2063" lon="5.50193">
        <ele>129.8</ele>
        <time>2025-10-19T08:35:18Z</time>
      </trkpt>
      <trkpt lat="43.20629" lon="5.50193">
        <ele>129.8</ele>
        <time>2025-10-19T08:35:19Z</time>
      </trkpt>
      <trkpt lat="43.2063" lon="5.50192">
        <ele>129.9</ele>
        <time>2025-10-19T08:35:20Z</time>
      </trkpt>
      <trkpt lat="43.2063" lon="5.50191">
        <ele>129.9</ele>
        <time>2025-10-19T08:35:21Z</time>
      </trkpt>
      <trkpt lat="43.2063" lon="5.5019">
        <ele>129.9</ele>
        <time>2025-10-19T08:35:22Z</time>
      </trkpt>
      <trkpt lat="43.2063" lon="5.50189">
        <ele>129.9</ele>
        <time>2025-10-19T08:35:23Z</time>
      </trkpt>
      <trkpt lat="43.2063" lon="5.50188">
        <ele>129.9</ele>
        <time>2025-10-19T08:35:24Z</time>
      </trkpt>
      <trkpt lat="43.2063" lon="5.50187">
        <ele>130</ele>
        <time>2025-10-19T08:35:25Z</time>
      </trkpt>
      <trkpt lat="43.2063" lon="5.50186">
        <ele>129.9</ele>
        <time>2025-10-19T08:35:26Z</time>
      </trkpt>
      <trkpt lat="43.20631" lon="5.50185">
        <ele>129.9</ele>
        <time>2025-10-19T08:35:27Z</time>
      </trkpt>
      <trkpt lat="43.20631" lon="5.50184">
        <ele>129.9</ele>
        <time>2025-10-19T08:35:28Z</time>
      </trkpt>
      <trkpt lat="43.20631" lon="5.50183">
        <ele>129.9</ele>
        <time>2025-10-19T08:35:29Z</time>
      </trkpt>
      <trkpt lat="43.20632" lon="5.50183">
        <ele>129.9</ele>
        <time>2025-10-19T08:35:30Z</time>
      </trkpt>
      <trkpt lat="43.20632" lon="5.50182">
        <ele>129.9</ele>
        <time>2025-10-19T08:35:31Z</time>
      </trkpt>
      <trkpt lat="43.20633" lon="5.50181">
        <ele>129.9</ele>
        <time>2025-10-19T08:35:32Z</time>
      </trkpt>
      <trkpt lat="43.20633" lon="5.50181">
        <ele>129.9</ele>
        <time>2025-10-19T08:35:33Z</time>
      </trkpt>
      <trkpt lat="43.20634" lon="5.50181">
        <ele>129.9</ele>
        <time>2025-10-19T08:35:34Z</time>
      </trkpt>
      <trkpt lat="43.20634" lon="5.5018">
        <ele>129.9</ele>
        <time>2025-10-19T08:35:35Z</time>
      </trkpt>
      <trkpt lat="43.20635" lon="5.5018">
        <ele>129.8</ele>
        <time>2025-10-19T08:35:36Z</time>
      </trkpt>
      <trkpt lat="43.20635" lon="5.50179">
        <ele>129.8</ele>
        <time>2025-10-19T08:35:37Z</time>
      </trkpt>
      <trkpt lat="43.20636" lon="5.50178">
        <ele>129.7</ele>
        <time>2025-10-19T08:35:38Z</time>
      </trkpt>
      <trkpt lat="43.20636" lon="5.50177">
        <ele>129.7</ele>
        <time>2025-10-19T08:35:39Z</time>
      </trkpt>
      <trkpt lat="43.20636" lon="5.50176">
        <ele>129.5</ele>
        <time>2025-10-19T08:35:40Z</time>
      </trkpt>
      <trkpt lat="43.20637" lon="5.50176">
        <ele>129.4</ele>
        <time>2025-10-19T08:35:41Z</time>
      </trkpt>
      <trkpt lat="43.20637" lon="5.50175">
        <ele>129.4</ele>
        <time>2025-10-19T08:35:42Z</time>
      </trkpt>
      <trkpt lat="43.20637" lon="5.50175">
        <ele>129.4</ele>
        <time>2025-10-19T08:35:43Z</time>
      </trkpt>
      <trkpt lat="43.20637" lon="5.50174">
        <ele>129.3</ele>
        <time>2025-10-19T08:35:44Z</time>
      </trkpt>
      <trkpt lat="43.20637" lon="5.50173">
        <ele>129.1</ele>
        <time>2025-10-19T08:35:45Z</time>
      </trkpt>
      <trkpt lat="43.20637" lon="5.50173">
        <ele>128.9</ele>
        <time>2025-10-19T08:35:46Z</time>
      </trkpt>
      <trkpt lat="43.20638" lon="5.50172">
        <ele>128.8</ele>
        <time>2025-10-19T08:35:47Z</time>
      </trkpt>
      <trkpt lat="43.20638" lon="5.50172">
        <ele>128.7</ele>
        <time>2025-10-19T08:35:48Z</time>
      </trkpt>
      <trkpt lat="43.20638" lon="5.50172">
        <ele>128.5</ele>
        <time>2025-10-19T08:35:49Z</time>
      </trkpt>
      <trkpt lat="43.20638" lon="5.50172">
        <ele>128.3</ele>
        <time>2025-10-19T08:35:50Z</time>
      </trkpt>
      <trkpt lat="43.20638" lon="5.50172">
        <ele>128.2</ele>
        <time>2025-10-19T08:35:51Z</time>
      </trkpt>
      <trkpt lat="43.20638" lon="5.50172">
        <ele>128.1</ele>
        <time>2025-10-19T08:35:52Z</time>
      </trkpt>
      <trkpt lat="43.20638" lon="5.50172">
        <ele>128</ele>
        <time>2025-10-19T08:35:53Z</time>
      </trkpt>
      <trkpt lat="43.20638" lon="5.50172">
        <ele>127.9</ele>
        <time>2025-10-19T08:35:54Z</time>
      </trkpt>
      <trkpt lat="43.20639" lon="5.50172">
        <ele>127.9</ele>
        <time>2025-10-19T08:35:55Z</time>
      </trkpt>
      <trkpt lat="43.20639" lon="5.50172">
        <ele>127.8</ele>
        <time>2025-10-19T08:35:56Z</time>
      </trkpt>
      <trkpt lat="43.20639" lon="5.50171">
        <ele>127.7</ele>
        <time>2025-10-19T08:35:57Z</time>
      </trkpt>
      <trkpt lat="43.20639" lon="5.50171">
        <ele>127.6</ele>
        <time>2025-10-19T08:35:58Z</time>
      </trkpt>
      <trkpt lat="43.20639" lon="5.50171">
        <ele>127.6</ele>
        <time>2025-10-19T08:35:59Z</time>
      </trkpt>
      <trkpt lat="43.20639" lon="5.50171">
        <ele>127.5</ele>
        <time>2025-10-19T08:36:00Z</time>
      </trkpt>
      <trkpt lat="43.2064" lon="5.50171">
        <ele>127.5</ele>
        <time>2025-10-19T08:36:01Z</time>
      </trkpt>
      <trkpt lat="43.2064" lon="5.50171">
        <ele>127.5</ele>
        <time>2025-10-19T08:36:02Z</time>
      </trkpt>
      <trkpt lat="43.2064" lon="5.50171">
        <ele>127.4</ele>
        <time>2025-10-19T08:36:03Z</time>
      </trkpt>
      <trkpt lat="43.2064" lon="5.50171">
        <ele>127.4</ele>
        <time>2025-10-19T08:36:04Z</time>
      </trkpt>
      <trkpt lat="43.20641" lon="5.50171">
        <ele>127.4</ele>
        <time>2025-10-19T08:36:05Z</time>
      </trkpt>
      <trkpt lat="43.20641" lon="5.50171">
        <ele>127.4</ele>
        <time>2025-10-19T08:36:06Z</time>
      </trkpt>
      <trkpt lat="43.20641" lon="5.50171">
        <ele>127.5</ele>
        <time>2025-10-19T08:36:07Z</time>
      </trkpt>
      <trkpt lat="43.20641" lon="5.50171">
        <ele>127.5</ele>
        <time>2025-10-19T08:36:08Z</time>
      </trkpt>
      <trkpt lat="43.20641" lon="5.5017">
        <ele>127.6</ele>
        <time>2025-10-19T08:36:09Z</time>
      </trkpt>
      <trkpt lat="43.20641" lon="5.5017">
        <ele>127.6</ele>
        <time>2025-10-19T08:36:10Z</time>
      </trkpt>
      <trkpt lat="43.20641" lon="5.5017">
        <ele>127.6</ele>
        <time>2025-10-19T08:36:11Z</time>
      </trkpt>
      <trkpt lat="43.20641" lon="5.5017">
        <ele>127.6</ele>
        <time>2025-10-19T08:36:12Z</time>
      </trkpt>
      <trkpt lat="43.20641" lon="5.5017">
        <ele>127.6</ele>
        <time>2025-10-19T08:36:13Z</time>
      </trkpt>
      <trkpt lat="43.20641" lon="5.5017">
        <ele>127.6</ele>
        <time>2025-10-19T08:36:14Z</time>
      </trkpt>
      <trkpt lat="43.20641" lon="5.5017">
        <ele>127.6</ele>
        <time>2025-10-19T08:36:15Z</time>
      </trkpt>
      <trkpt lat="43.20641" lon="5.5017">
        <ele>127.4</ele>
        <time>2025-10-19T08:36:16Z</time>
      </trkpt>
      <trkpt lat="43.20641" lon="5.5017">
        <ele>127.4</ele>
        <time>2025-10-19T08:36:17Z</time>
      </trkpt>
      <trkpt lat="43.20641" lon="5.5017">
        <ele>127.4</ele>
        <time>2025-10-19T08:36:18Z</time>
      </trkpt>
      <trkpt lat="43.20641" lon="5.5017">
        <ele>127.5</ele>
        <time>2025-10-19T08:36:19Z</time>
      </trkpt>
      <trkpt lat="43.20642" lon="5.5017">
        <ele>127.4</ele>
        <time>2025-10-19T08:36:20Z</time>
      </trkpt>
      <trkpt lat="43.20642" lon="5.5017">
        <ele>127.3</ele>
        <time>2025-10-19T08:36:21Z</time>
      </trkpt>
      <trkpt lat="43.20642" lon="5.5017">
        <ele>127.2</ele>
        <time>2025-10-19T08:36:22Z</time>
      </trkpt>
      <trkpt lat="43.20642" lon="5.50169">
        <ele>127.3</ele>
        <time>2025-10-19T08:36:23Z</time>
      </trkpt>
      <trkpt lat="43.20642" lon="5.50169">
        <ele>127.2</ele>
        <time>2025-10-19T08:36:24Z</time>
      </trkpt>
      <trkpt lat="43.20641" lon="5.50168">
        <ele>127.2</ele>
        <time>2025-10-19T08:36:25Z</time>
      </trkpt>
      <trkpt lat="43.20641" lon="5.50168">
        <ele>127.1</ele>
        <time>2025-10-19T08:36:26Z</time>
      </trkpt>
      <trkpt lat="43.20641" lon="5.50168">
        <ele>127.1</ele>
        <time>2025-10-19T08:36:27Z</time>
      </trkpt>
      <trkpt lat="43.20641" lon="5.50167">
        <ele>126.9</ele>
        <time>2025-10-19T08:36:28Z</time>
      </trkpt>
      <trkpt lat="43.20641" lon="5.50167">
        <ele>126.8</ele>
        <time>2025-10-19T08:36:29Z</time>
      </trkpt>
      <trkpt lat="43.20641" lon="5.50167">
        <ele>126.7</ele>
        <time>2025-10-19T08:36:30Z</time>
      </trkpt>
      <trkpt lat="43.20641" lon="5.50167">
        <ele>126.8</ele>
        <time>2025-10-19T08:36:31Z</time>
      </trkpt>
      <trkpt lat="43.20641" lon="5.50167">
        <ele>126.9</ele>
        <time>2025-10-19T08:36:32Z</time>
      </trkpt>
      <trkpt lat="43.2064" lon="5.50167">
        <ele>126.9</ele>
        <time>2025-10-19T08:36:33Z</time>
      </trkpt>
      <trkpt lat="43.2064" lon="5.50167">
        <ele>127</ele>
        <time>2025-10-19T08:36:34Z</time>
      </trkpt>
      <trkpt lat="43.2064" lon="5.50167">
        <ele>127.1</ele>
        <time>2025-10-19T08:36:35Z</time>
      </trkpt>
      <trkpt lat="43.2064" lon="5.50167">
        <ele>127.1</ele>
        <time>2025-10-19T08:36:36Z</time>
      </trkpt>
      <trkpt lat="43.2064" lon="5.50167">
        <ele>127.1</ele>
        <time>2025-10-19T08:36:37Z</time>
      </trkpt>
      <trkpt lat="43.2064" lon="5.50166">
        <ele>127.1</ele>
        <time>2025-10-19T08:36:38Z</time>
      </trkpt>
      <trkpt lat="43.20641" lon="5.50166">
        <ele>127.1</ele>
        <time>2025-10-19T08:36:39Z</time>
      </trkpt>
      <trkpt lat="43.2064" lon="5.50165">
        <ele>127.1</ele>
        <time>2025-10-19T08:36:40Z</time>
      </trkpt>
      <trkpt lat="43.2064" lon="5.50165">
        <ele>127.1</ele>
        <time>2025-10-19T08:36:41Z</time>
      </trkpt>
      <trkpt lat="43.2064" lon="5.50165">
        <ele>127.1</ele>
        <time>2025-10-19T08:36:42Z</time>
      </trkpt>
      <trkpt lat="43.2064" lon="5.50165">
        <ele>127.1</ele>
        <time>2025-10-19T08:36:43Z</time>
      </trkpt>
      <trkpt lat="43.2064" lon="5.50164">
        <ele>127</ele>
        <time>2025-10-19T08:36:44Z</time>
      </trkpt>
      <trkpt lat="43.2064" lon="5.50163">
        <ele>127</ele>
        <time>2025-10-19T08:36:45Z</time>
      </trkpt>
      <trkpt lat="43.20641" lon="5.50163">
        <ele>126.9</ele>
        <time>2025-10-19T08:36:46Z</time>
      </trkpt>
      <trkpt lat="43.2064" lon="5.50163">
        <ele>126.9</ele>
        <time>2025-10-19T08:36:47Z</time>
      </trkpt>
      <trkpt lat="43.2064" lon="5.50163">
        <ele>126.8</ele>
        <time>2025-10-19T08:36:48Z</time>
      </trkpt>
      <trkpt lat="43.2064" lon="5.50162">
        <ele>126.7</ele>
        <time>2025-10-19T08:36:49Z</time>
      </trkpt>
      <trkpt lat="43.2064" lon="5.50162">
        <ele>126.7</ele>
        <time>2025-10-19T08:36:50Z</time>
      </trkpt>
      <trkpt lat="43.2064" lon="5.50162">
        <ele>126.6</ele>
        <time>2025-10-19T08:36:51Z</time>
      </trkpt>
      <trkpt lat="43.20641" lon="5.50161">
        <ele>126.5</ele>
        <time>2025-10-19T08:36:52Z</time>
      </trkpt>
      <trkpt lat="43.20641" lon="5.50161">
        <ele>126.4</ele>
        <time>2025-10-19T08:36:53Z</time>
      </trkpt>
      <trkpt lat="43.20641" lon="5.50161">
        <ele>126.3</ele>
        <time>2025-10-19T08:36:54Z</time>
      </trkpt>
      <trkpt lat="43.20641" lon="5.50161">
        <ele>126.2</ele>
        <time>2025-10-19T08:36:55Z</time>
      </trkpt>
      <trkpt lat="43.20641" lon="5.50161">
        <ele>126.1</ele>
        <time>2025-10-19T08:36:56Z</time>
      </trkpt>
      <trkpt lat="43.20641" lon="5.50161">
        <ele>126.1</ele>
        <time>2025-10-19T08:36:57Z</time>
      </trkpt>
      <trkpt lat="43.20642" lon="5.50161">
        <ele>126.1</ele>
        <time>2025-10-19T08:36:58Z</time>
      </trkpt>
      <trkpt lat="43.20642" lon="5.50161">
        <ele>126.2</ele>
        <time>2025-10-19T08:36:59Z</time>
      </trkpt>
      <trkpt lat="43.20642" lon="5.50161">
        <ele>126.3</ele>
        <time>2025-10-19T08:37:00Z</time>
      </trkpt>
      <trkpt lat="43.20642" lon="5.5016">
        <ele>126.3</ele>
        <time>2025-10-19T08:37:01Z</time>
      </trkpt>
      <trkpt lat="43.20642" lon="5.5016">
        <ele>126.3</ele>
        <time>2025-10-19T08:37:02Z</time>
      </trkpt>
      <trkpt lat="43.20642" lon="5.5016">
        <ele>126.2</ele>
        <time>2025-10-19T08:37:03Z</time>
      </trkpt>
      <trkpt lat="43.20642" lon="5.50159">
        <ele>126.2</ele>
        <time>2025-10-19T08:37:04Z</time>
      </trkpt>
      <trkpt lat="43.20642" lon="5.50159">
        <ele>126.2</ele>
        <time>2025-10-19T08:37:05Z</time>
      </trkpt>
      <trkpt lat="43.20642" lon="5.50159">
        <ele>126.2</ele>
        <time>2025-10-19T08:37:06Z</time>
      </trkpt>
      <trkpt lat="43.20642" lon="5.50159">
        <ele>126.3</ele>
        <time>2025-10-19T08:37:07Z</time>
      </trkpt>
      <trkpt lat="43.20641" lon="5.50159">
        <ele>126.4</ele>
        <time>2025-10-19T08:37:08Z</time>
      </trkpt>
      <trkpt lat="43.20641" lon="5.50159">
        <ele>126.4</ele>
        <time>2025-10-19T08:37:09Z</time>
      </trkpt>
      <trkpt lat="43.20641" lon="5.50159">
        <ele>126.5</ele>
        <time>2025-10-19T08:37:10Z</time>
      </trkpt>
      <trkpt lat="43.20641" lon="5.50159">
        <ele>126.4</ele>
        <time>2025-10-19T08:37:11Z</time>
      </trkpt>
      <trkpt lat="43.20641" lon="5.50159">
        <ele>126.4</ele>
        <time>2025-10-19T08:37:12Z</time>
      </trkpt>
      <trkpt lat="43.20641" lon="5.50158">
        <ele>126.4</ele>
        <time>2025-10-19T08:37:13Z</time>
      </trkpt>
      <trkpt lat="43.20642" lon="5.50158">
        <ele>126.5</ele>
        <time>2025-10-19T08:37:14Z</time>
      </trkpt>
      <trkpt lat="43.20642" lon="5.50158">
        <ele>126.5</ele>
        <time>2025-10-19T08:37:15Z</time>
      </trkpt>
      <trkpt lat="43.20642" lon="5.50158">
        <ele>126.5</ele>
        <time>2025-10-19T08:37:16Z</time>
      </trkpt>
      <trkpt lat="43.20642" lon="5.50159">
        <ele>126.5</ele>
        <time>2025-10-19T08:37:17Z</time>
      </trkpt>
      <trkpt lat="43.20642" lon="5.50159">
        <ele>126.5</ele>
        <time>2025-10-19T08:37:18Z</time>
      </trkpt>
      <trkpt lat="43.20642" lon="5.50159">
        <ele>126.5</ele>
        <time>2025-10-19T08:37:19Z</time>
      </trkpt>
      <trkpt lat="43.20642" lon="5.50159">
        <ele>126.5</ele>
        <time>2025-10-19T08:37:20Z</time>
      </trkpt>
      <trkpt lat="43.20642" lon="5.50159">
        <ele>126.4</ele>
        <time>2025-10-19T08:37:21Z</time>
      </trkpt>
      <trkpt lat="43.20642" lon="5.50159">
        <ele>126.4</ele>
        <time>2025-10-19T08:37:22Z</time>
      </trkpt>
      <trkpt lat="43.20642" lon="5.50159">
        <ele>126.5</ele>
        <time>2025-10-19T08:37:23Z</time>
      </trkpt>
      <trkpt lat="43.20642" lon="5.50159">
        <ele>126.5</ele>
        <time>2025-10-19T08:37:24Z</time>
      </trkpt>
      <trkpt lat="43.20642" lon="5.50159">
        <ele>126.5</ele>
        <time>2025-10-19T08:37:25Z</time>
      </trkpt>
      <trkpt lat="43.20643" lon="5.50159">
        <ele>126.6</ele>
        <time>2025-10-19T08:37:26Z</time>
      </trkpt>
      <trkpt lat="43.20643" lon="5.50159">
        <ele>126.4</ele>
        <time>2025-10-19T08:37:27Z</time>
      </trkpt>
      <trkpt lat="43.20643" lon="5.50159">
        <ele>126.3</ele>
        <time>2025-10-19T08:37:28Z</time>
      </trkpt>
      <trkpt lat="43.20643" lon="5.50159">
        <ele>126.3</ele>
        <time>2025-10-19T08:37:29Z</time>
      </trkpt>
      <trkpt lat="43.20643" lon="5.50159">
        <ele>126.3</ele>
        <time>2025-10-19T08:37:30Z</time>
      </trkpt>
      <trkpt lat="43.20643" lon="5.50159">
        <ele>126.1</ele>
        <time>2025-10-19T08:37:31Z</time>
      </trkpt>
      <trkpt lat="43.20643" lon="5.50159">
        <ele>126.2</ele>
        <time>2025-10-19T08:37:32Z</time>
      </trkpt>
      <trkpt lat="43.20642" lon="5.50159">
        <ele>126.3</ele>
        <time>2025-10-19T08:37:33Z</time>
      </trkpt>
      <trkpt lat="43.20642" lon="5.5016">
        <ele>126.3</ele>
        <time>2025-10-19T08:37:34Z</time>
      </trkpt>
      <trkpt lat="43.20642" lon="5.50161">
        <ele>126.2</ele>
        <time>2025-10-19T08:37:35Z</time>
      </trkpt>
      <trkpt lat="43.20642" lon="5.50162">
        <ele>126.3</ele>
        <time>2025-10-19T08:37:36Z</time>
      </trkpt>
      <trkpt lat="43.20642" lon="5.50163">
        <ele>126.4</ele>
        <time>2025-10-19T08:37:37Z</time>
      </trkpt>
      <trkpt lat="43.20642" lon="5.50163">
        <ele>126.6</ele>
        <time>2025-10-19T08:37:38Z</time>
      </trkpt>
      <trkpt lat="43.20642" lon="5.50164">
        <ele>126.7</ele>
        <time>2025-10-19T08:37:39Z</time>
      </trkpt>
      <trkpt lat="43.20642" lon="5.50164">
        <ele>127</ele>
        <time>2025-10-19T08:37:40Z</time>
      </trkpt>
      <trkpt lat="43.20642" lon="5.50165">
        <ele>127.1</ele>
        <time>2025-10-19T08:37:41Z</time>
      </trkpt>
      <trkpt lat="43.20643" lon="5.50165">
        <ele>127.4</ele>
        <time>2025-10-19T08:37:42Z</time>
      </trkpt>
      <trkpt lat="43.20643" lon="5.50166">
        <ele>127.6</ele>
        <time>2025-10-19T08:37:43Z</time>
      </trkpt>
      <trkpt lat="43.20643" lon="5.50166">
        <ele>127.7</ele>
        <time>2025-10-19T08:37:44Z</time>
      </trkpt>
      <trkpt lat="43.20643" lon="5.50166">
        <ele>127.9</ele>
        <time>2025-10-19T08:37:45Z</time>
      </trkpt>
      <trkpt lat="43.20643" lon="5.50166">
        <ele>127.9</ele>
        <time>2025-10-19T08:37:46Z</time>
      </trkpt>
      <trkpt lat="43.20643" lon="5.50166">
        <ele>128</ele>
        <time>2025-10-19T08:37:47Z</time>
      </trkpt>
      <trkpt lat="43.20643" lon="5.50166">
        <ele>128</ele>
        <time>2025-10-19T08:37:48Z</time>
      </trkpt>
      <trkpt lat="43.20643" lon="5.50167">
        <ele>128.1</ele>
        <time>2025-10-19T08:37:49Z</time>
      </trkpt>
      <trkpt lat="43.20643" lon="5.50167">
        <ele>128.1</ele>
        <time>2025-10-19T08:37:50Z</time>
      </trkpt>
      <trkpt lat="43.20643" lon="5.50167">
        <ele>128</ele>
        <time>2025-10-19T08:37:51Z</time>
      </trkpt>
      <trkpt lat="43.20643" lon="5.50167">
        <ele>127.9</ele>
        <time>2025-10-19T08:37:52Z</time>
      </trkpt>
      <trkpt lat="43.20643" lon="5.50168">
        <ele>127.9</ele>
        <time>2025-10-19T08:37:53Z</time>
      </trkpt>
      <trkpt lat="43.20643" lon="5.50168">
        <ele>127.9</ele>
        <time>2025-10-19T08:37:54Z</time>
      </trkpt>
      <trkpt lat="43.20644" lon="5.50168">
        <ele>127.9</ele>
        <time>2025-10-19T08:37:55Z</time>
      </trkpt>
      <trkpt lat="43.20643" lon="5.50168">
        <ele>127.8</ele>
        <time>2025-10-19T08:37:56Z</time>
      </trkpt>
      <trkpt lat="43.20643" lon="5.50168">
        <ele>127.8</ele>
        <time>2025-10-19T08:37:57Z</time>
      </trkpt>
      <trkpt lat="43.20643" lon="5.50168">
        <ele>127.8</ele>
        <time>2025-10-19T08:37:58Z</time>
      </trkpt>
      <trkpt lat="43.20643" lon="5.50168">
        <ele>127.9</ele>
        <time>2025-10-19T08:37:59Z</time>
      </trkpt>
      <trkpt lat="43.20643" lon="5.50168">
        <ele>127.9</ele>
        <time>2025-10-19T08:38:00Z</time>
      </trkpt>
      <trkpt lat="43.20643" lon="5.50168">
        <ele>128.1</ele>
        <time>2025-10-19T08:38:01Z</time>
      </trkpt>
      <trkpt lat="43.20644" lon="5.50168">
        <ele>128.1</ele>
        <time>2025-10-19T08:38:02Z</time>
      </trkpt>
      <trkpt lat="43.20644" lon="5.50168">
        <ele>128.1</ele>
        <time>2025-10-19T08:38:03Z</time>
      </trkpt>
      <trkpt lat="43.20643" lon="5.50168">
        <ele>128.2</ele>
        <time>2025-10-19T08:38:04Z</time>
      </trkpt>
      <trkpt lat="43.20643" lon="5.50168">
        <ele>128.3</ele>
        <time>2025-10-19T08:38:05Z</time>
      </trkpt>
      <trkpt lat="43.20643" lon="5.50168">
        <ele>128.3</ele>
        <time>2025-10-19T08:38:06Z</time>
      </trkpt>
      <trkpt lat="43.20643" lon="5.50168">
        <ele>128.3</ele>
        <time>2025-10-19T08:38:07Z</time>
      </trkpt>
      <trkpt lat="43.20643" lon="5.50168">
        <ele>128.3</ele>
        <time>2025-10-19T08:38:08Z</time>
      </trkpt>
      <trkpt lat="43.20643" lon="5.50168">
        <ele>128.2</ele>
        <time>2025-10-19T08:38:09Z</time>
      </trkpt>
      <trkpt lat="43.20643" lon="5.50168">
        <ele>128.3</ele>
        <time>2025-10-19T08:38:10Z</time>
      </trkpt>
      <trkpt lat="43.20643" lon="5.50168">
        <ele>128.4</ele>
        <time>2025-10-19T08:38:11Z</time>
      </trkpt>
      <trkpt lat="43.20643" lon="5.50168">
        <ele>128.5</ele>
        <time>2025-10-19T08:38:12Z</time>
      </trkpt>
      <trkpt lat="43.20643" lon="5.50168">
        <ele>128.5</ele>
        <time>2025-10-19T08:38:13Z</time>
      </trkpt>
      <trkpt lat="43.20643" lon="5.50169">
        <ele>128.5</ele>
        <time>2025-10-19T08:38:14Z</time>
      </trkpt>
      <trkpt lat="43.20642" lon="5.5017">
        <ele>128.5</ele>
        <time>2025-10-19T08:38:15Z</time>
      </trkpt>
      <trkpt lat="43.20642" lon="5.50171">
        <ele>128.5</ele>
        <time>2025-10-19T08:38:16Z</time>
      </trkpt>
      <trkpt lat="43.20642" lon="5.50171">
        <ele>128.5</ele>
        <time>2025-10-19T08:38:17Z</time>
      </trkpt>
      <trkpt lat="43.20642" lon="5.50172">
        <ele>128.6</ele>
        <time>2025-10-19T08:38:18Z</time>
      </trkpt>
      <trkpt lat="43.20642" lon="5.50172">
        <ele>128.7</ele>
        <time>2025-10-19T08:38:19Z</time>
      </trkpt>
      <trkpt lat="43.20642" lon="5.50173">
        <ele>128.8</ele>
        <time>2025-10-19T08:38:20Z</time>
      </trkpt>
      <trkpt lat="43.20641" lon="5.50174">
        <ele>128.9</ele>
        <time>2025-10-19T08:38:21Z</time>
      </trkpt>
      <trkpt lat="43.2064" lon="5.50174">
        <ele>128.9</ele>
        <time>2025-10-19T08:38:22Z</time>
      </trkpt>
      <trkpt lat="43.2064" lon="5.50175">
        <ele>128.9</ele>
        <time>2025-10-19T08:38:23Z</time>
      </trkpt>
      <trkpt lat="43.20639" lon="5.50175">
        <ele>128.9</ele>
        <time>2025-10-19T08:38:24Z</time>
      </trkpt>
      <trkpt lat="43.20639" lon="5.50176">
        <ele>128.9</ele>
        <time>2025-10-19T08:38:25Z</time>
      </trkpt>
      <trkpt lat="43.20638" lon="5.50176">
        <ele>128.9</ele>
        <time>2025-10-19T08:38:26Z</time>
      </trkpt>
      <trkpt lat="43.20638" lon="5.50177">
        <ele>128.9</ele>
        <time>2025-10-19T08:38:27Z</time>
      </trkpt>
      <trkpt lat="43.20638" lon="5.50177">
        <ele>129</ele>
        <time>2025-10-19T08:38:28Z</time>
      </trkpt>
      <trkpt lat="43.20638" lon="5.50177">
        <ele>129</ele>
        <time>2025-10-19T08:38:29Z</time>
      </trkpt>
      <trkpt lat="43.20638" lon="5.50177">
        <ele>129</ele>
        <time>2025-10-19T08:38:30Z</time>
      </trkpt>
      <trkpt lat="43.20637" lon="5.50177">
        <ele>129</ele>
        <time>2025-10-19T08:38:31Z</time>
      </trkpt>
      <trkpt lat="43.20637" lon="5.50178">
        <ele>129</ele>
        <time>2025-10-19T08:38:32Z</time>
      </trkpt>
      <trkpt lat="43.20637" lon="5.50178">
        <ele>129</ele>
        <time>2025-10-19T08:38:33Z</time>
      </trkpt>
      <trkpt lat="43.20637" lon="5.50178">
        <ele>129</ele>
        <time>2025-10-19T08:38:34Z</time>
      </trkpt>
      <trkpt lat="43.20637" lon="5.50177">
        <ele>129.1</ele>
        <time>2025-10-19T08:38:35Z</time>
      </trkpt>
      <trkpt lat="43.20637" lon="5.50177">
        <ele>129.1</ele>
        <time>2025-10-19T08:38:36Z</time>
      </trkpt>
      <trkpt lat="43.20636" lon="5.50178">
        <ele>129.1</ele>
        <time>2025-10-19T08:38:37Z</time>
      </trkpt>
      <trkpt lat="43.20636" lon="5.50178">
        <ele>129.3</ele>
        <time>2025-10-19T08:38:38Z</time>
      </trkpt>
      <trkpt lat="43.20636" lon="5.50178">
        <ele>129.2</ele>
        <time>2025-10-19T08:38:39Z</time>
      </trkpt>
      <trkpt lat="43.20636" lon="5.50178">
        <ele>129.2</ele>
        <time>2025-10-19T08:38:40Z</time>
      </trkpt>
      <trkpt lat="43.20636" lon="5.50178">
        <ele>129.2</ele>
        <time>2025-10-19T08:38:41Z</time>
      </trkpt>
      <trkpt lat="43.20635" lon="5.50179">
        <ele>129.2</ele>
        <time>2025-10-19T08:38:42Z</time>
      </trkpt>
      <trkpt lat="43.20635" lon="5.5018">
        <ele>129.2</ele>
        <time>2025-10-19T08:38:43Z</time>
      </trkpt>
      <trkpt lat="43.20635" lon="5.50181">
        <ele>129.2</ele>
        <time>2025-10-19T08:38:44Z</time>
      </trkpt>
      <trkpt lat="43.20635" lon="5.50182">
        <ele>129.2</ele>
        <time>2025-10-19T08:38:45Z</time>
      </trkpt>
      <trkpt lat="43.20635" lon="5.50182">
        <ele>129.2</ele>
        <time>2025-10-19T08:38:46Z</time>
      </trkpt>
      <trkpt lat="43.20635" lon="5.50183">
        <ele>129.2</ele>
        <time>2025-10-19T08:38:47Z</time>
      </trkpt>
      <trkpt lat="43.20635" lon="5.50184">
        <ele>129.2</ele>
        <time>2025-10-19T08:38:48Z</time>
      </trkpt>
      <trkpt lat="43.20634" lon="5.50185">
        <ele>129.4</ele>
        <time>2025-10-19T08:38:49Z</time>
      </trkpt>
      <trkpt lat="43.20634" lon="5.50186">
        <ele>129.5</ele>
        <time>2025-10-19T08:38:50Z</time>
      </trkpt>
      <trkpt lat="43.20634" lon="5.50187">
        <ele>129.4</ele>
        <time>2025-10-19T08:38:51Z</time>
      </trkpt>
      <trkpt lat="43.20633" lon="5.50188">
        <ele>129.5</ele>
        <time>2025-10-19T08:38:52Z</time>
      </trkpt>
      <trkpt lat="43.20633" lon="5.50188">
        <ele>129.5</ele>
        <time>2025-10-19T08:38:53Z</time>
      </trkpt>
      <trkpt lat="43.20632" lon="5.50188">
        <ele>129.5</ele>
        <time>2025-10-19T08:38:54Z</time>
      </trkpt>
      <trkpt lat="43.20632" lon="5.50189">
        <ele>129.5</ele>
        <time>2025-10-19T08:38:55Z</time>
      </trkpt>
      <trkpt lat="43.20632" lon="5.50189">
        <ele>129.5</ele>
        <time>2025-10-19T08:38:56Z</time>
      </trkpt>
      <trkpt lat="43.20632" lon="5.50189">
        <ele>129.5</ele>
        <time>2025-10-19T08:38:57Z</time>
      </trkpt>
      <trkpt lat="43.20633" lon="5.50189">
        <ele>129.4</ele>
        <time>2025-10-19T08:38:58Z</time>
      </trkpt>
      <trkpt lat="43.20633" lon="5.50189">
        <ele>129.3</ele>
        <time>2025-10-19T08:38:59Z</time>
      </trkpt>
      <trkpt lat="43.20632" lon="5.5019">
        <ele>129.3</ele>
        <time>2025-10-19T08:39:00Z</time>
      </trkpt>
      <trkpt lat="43.20632" lon="5.5019">
        <ele>129.3</ele>
        <time>2025-10-19T08:39:01Z</time>
      </trkpt>
      <trkpt lat="43.20632" lon="5.5019">
        <ele>129.3</ele>
        <time>2025-10-19T08:39:02Z</time>
      </trkpt>
      <trkpt lat="43.20631" lon="5.50191">
        <ele>129.4</ele>
        <time>2025-10-19T08:39:03Z</time>
      </trkpt>
      <trkpt lat="43.2063" lon="5.50191">
        <ele>129.4</ele>
        <time>2025-10-19T08:39:04Z</time>
      </trkpt>
      <trkpt lat="43.2063" lon="5.50191">
        <ele>129.4</ele>
        <time>2025-10-19T08:39:05Z</time>
      </trkpt>
      <trkpt lat="43.2063" lon="5.50191">
        <ele>129.4</ele>
        <time>2025-10-19T08:39:06Z</time>
      </trkpt>
      <trkpt lat="43.2063" lon="5.50191">
        <ele>129.4</ele>
        <time>2025-10-19T08:39:07Z</time>
      </trkpt>
      <trkpt lat="43.2063" lon="5.50191">
        <ele>129.3</ele>
        <time>2025-10-19T08:39:08Z</time>
      </trkpt>
      <trkpt lat="43.2063" lon="5.50191">
        <ele>129.3</ele>
        <time>2025-10-19T08:39:09Z</time>
      </trkpt>
      <trkpt lat="43.2063" lon="5.50191">
        <ele>129.3</ele>
        <time>2025-10-19T08:39:10Z</time>
      </trkpt>
      <trkpt lat="43.2063" lon="5.50191">
        <ele>129.4</ele>
        <time>2025-10-19T08:39:11Z</time>
      </trkpt>
      <trkpt lat="43.20631" lon="5.50192">
        <ele>129.4</ele>
        <time>2025-10-19T08:39:12Z</time>
      </trkpt>
      <trkpt lat="43.2063" lon="5.50193">
        <ele>129.5</ele>
        <time>2025-10-19T08:39:13Z</time>
      </trkpt>
      <trkpt lat="43.2063" lon="5.50194">
        <ele>129.5</ele>
        <time>2025-10-19T08:39:14Z</time>
      </trkpt>
      <trkpt lat="43.2063" lon="5.50194">
        <ele>129.5</ele>
        <time>2025-10-19T08:39:15Z</time>
      </trkpt>
      <trkpt lat="43.20629" lon="5.50195">
        <ele>129.5</ele>
        <time>2025-10-19T08:39:16Z</time>
      </trkpt>
      <trkpt lat="43.20629" lon="5.50195">
        <ele>129.5</ele>
        <time>2025-10-19T08:39:17Z</time>
      </trkpt>
      <trkpt lat="43.20629" lon="5.50195">
        <ele>129.4</ele>
        <time>2025-10-19T08:39:18Z</time>
      </trkpt>
      <trkpt lat="43.20629" lon="5.50195">
        <ele>129.4</ele>
        <time>2025-10-19T08:39:19Z</time>
      </trkpt>
      <trkpt lat="43.20629" lon="5.50195">
        <ele>129.4</ele>
        <time>2025-10-19T08:39:20Z</time>
      </trkpt>
      <trkpt lat="43.20629" lon="5.50196">
        <ele>129.4</ele>
        <time>2025-10-19T08:39:21Z</time>
      </trkpt>
      <trkpt lat="43.20629" lon="5.50196">
        <ele>129.4</ele>
        <time>2025-10-19T08:39:22Z</time>
      </trkpt>
      <trkpt lat="43.20629" lon="5.50196">
        <ele>129.4</ele>
        <time>2025-10-19T08:39:23Z</time>
      </trkpt>
      <trkpt lat="43.20629" lon="5.50197">
        <ele>129.4</ele>
        <time>2025-10-19T08:39:24Z</time>
      </trkpt>
      <trkpt lat="43.2063" lon="5.50198">
        <ele>129.4</ele>
        <time>2025-10-19T08:39:25Z</time>
      </trkpt>
      <trkpt lat="43.2063" lon="5.50198">
        <ele>129.5</ele>
        <time>2025-10-19T08:39:26Z</time>
      </trkpt>
      <trkpt lat="43.2063" lon="5.50199">
        <ele>129.6</ele>
        <time>2025-10-19T08:39:27Z</time>
      </trkpt>
      <trkpt lat="43.2063" lon="5.50199">
        <ele>129.6</ele>
        <time>2025-10-19T08:39:28Z</time>
      </trkpt>
      <trkpt lat="43.2063" lon="5.50199">
        <ele>129.7</ele>
        <time>2025-10-19T08:39:29Z</time>
      </trkpt>
      <trkpt lat="43.2063" lon="5.50199">
        <ele>129.6</ele>
        <time>2025-10-19T08:39:30Z</time>
      </trkpt>
      <trkpt lat="43.2063" lon="5.50199">
        <ele>129.6</ele>
        <time>2025-10-19T08:39:31Z</time>
      </trkpt>
      <trkpt lat="43.2063" lon="5.502">
        <ele>129.7</ele>
        <time>2025-10-19T08:39:32Z</time>
      </trkpt>
      <trkpt lat="43.2063" lon="5.502">
        <ele>129.6</ele>
        <time>2025-10-19T08:39:33Z</time>
      </trkpt>
      <trkpt lat="43.20629" lon="5.502">
        <ele>129.6</ele>
        <time>2025-10-19T08:39:34Z</time>
      </trkpt>
      <trkpt lat="43.20629" lon="5.502">
        <ele>129.6</ele>
        <time>2025-10-19T08:39:35Z</time>
      </trkpt>
      <trkpt lat="43.20629" lon="5.502">
        <ele>129.6</ele>
        <time>2025-10-19T08:39:36Z</time>
      </trkpt>
      <trkpt lat="43.20629" lon="5.502">
        <ele>129.6</ele>
        <time>2025-10-19T08:39:37Z</time>
      </trkpt>
      <trkpt lat="43.20629" lon="5.50201">
        <ele>129.5</ele>
        <time>2025-10-19T08:39:38Z</time>
      </trkpt>
      <trkpt lat="43.20629" lon="5.50201">
        <ele>129.5</ele>
        <time>2025-10-19T08:39:39Z</time>
      </trkpt>
      <trkpt lat="43.20629" lon="5.50201">
        <ele>129.6</ele>
        <time>2025-10-19T08:39:40Z</time>
      </trkpt>
      <trkpt lat="43.20629" lon="5.50202">
        <ele>129.6</ele>
        <time>2025-10-19T08:39:41Z</time>
      </trkpt>
      <trkpt lat="43.20629" lon="5.50202">
        <ele>129.6</ele>
        <time>2025-10-19T08:39:42Z</time>
      </trkpt>
      <trkpt lat="43.20629" lon="5.50202">
        <ele>129.5</ele>
        <time>2025-10-19T08:39:43Z</time>
      </trkpt>
      <trkpt lat="43.20628" lon="5.50202">
        <ele>129.5</ele>
        <time>2025-10-19T08:39:44Z</time>
      </trkpt>
      <trkpt lat="43.20628" lon="5.50202">
        <ele>129.5</ele>
        <time>2025-10-19T08:39:45Z</time>
      </trkpt>
      <trkpt lat="43.20628" lon="5.50202">
        <ele>129.5</ele>
        <time>2025-10-19T08:39:46Z</time>
      </trkpt>
      <trkpt lat="43.20628" lon="5.50203">
        <ele>129.5</ele>
        <time>2025-10-19T08:39:47Z</time>
      </trkpt>
      <trkpt lat="43.20628" lon="5.50203">
        <ele>129.4</ele>
        <time>2025-10-19T08:39:48Z</time>
      </trkpt>
      <trkpt lat="43.20628" lon="5.50203">
        <ele>129.4</ele>
        <time>2025-10-19T08:39:49Z</time>
      </trkpt>
      <trkpt lat="43.20629" lon="5.50204">
        <ele>129.4</ele>
        <time>2025-10-19T08:39:50Z</time>
      </trkpt>
      <trkpt lat="43.20629" lon="5.50203">
        <ele>129.4</ele>
        <time>2025-10-19T08:39:51Z</time>
      </trkpt>
      <trkpt lat="43.20629" lon="5.50203">
        <ele>129.5</ele>
        <time>2025-10-19T08:39:52Z</time>
      </trkpt>
      <trkpt lat="43.20628" lon="5.50204">
        <ele>129.5</ele>
        <time>2025-10-19T08:39:53Z</time>
      </trkpt>
      <trkpt lat="43.20628" lon="5.50204">
        <ele>129.5</ele>
        <time>2025-10-19T08:39:54Z</time>
      </trkpt>
      <trkpt lat="43.20628" lon="5.50203">
        <ele>129.5</ele>
        <time>2025-10-19T08:39:55Z</time>
      </trkpt>
      <trkpt lat="43.20629" lon="5.50203">
        <ele>129.6</ele>
        <time>2025-10-19T08:39:56Z</time>
      </trkpt>
      <trkpt lat="43.20629" lon="5.50203">
        <ele>129.6</ele>
        <time>2025-10-19T08:39:57Z</time>
      </trkpt>
      <trkpt lat="43.20629" lon="5.50203">
        <ele>129.6</ele>
        <time>2025-10-19T08:39:58Z</time>
      </trkpt>
      <trkpt lat="43.20629" lon="5.50203">
        <ele>129.7</ele>
        <time>2025-10-19T08:39:59Z</time>
      </trkpt>
      <trkpt lat="43.20629" lon="5.50203">
        <ele>129.7</ele>
        <time>2025-10-19T08:40:00Z</time>
      </trkpt>
      <trkpt lat="43.20629" lon="5.50202">
        <ele>129.7</ele>
        <time>2025-10-19T08:40:01Z</time>
      </trkpt>
      <trkpt lat="43.20629" lon="5.50202">
        <ele>129.7</ele>
        <time>2025-10-19T08:40:02Z</time>
      </trkpt>
      <trkpt lat="43.2063" lon="5.50202">
        <ele>129.7</ele>
        <time>2025-10-19T08:40:03Z</time>
      </trkpt>
      <trkpt lat="43.2063" lon="5.50202">
        <ele>129.7</ele>
        <time>2025-10-19T08:40:04Z</time>
      </trkpt>
      <trkpt lat="43.2063" lon="5.50201">
        <ele>129.6</ele>
        <time>2025-10-19T08:40:05Z</time>
      </trkpt>
      <trkpt lat="43.2063" lon="5.50201">
        <ele>129.6</ele>
        <time>2025-10-19T08:40:06Z</time>
      </trkpt>
      <trkpt lat="43.2063" lon="5.502">
        <ele>129.5</ele>
        <time>2025-10-19T08:40:07Z</time>
      </trkpt>
      <trkpt lat="43.2063" lon="5.50201">
        <ele>129.6</ele>
        <time>2025-10-19T08:40:08Z</time>
      </trkpt>
      <trkpt lat="43.2063" lon="5.50201">
        <ele>129.6</ele>
        <time>2025-10-19T08:40:09Z</time>
      </trkpt>
      <trkpt lat="43.20629" lon="5.50201">
        <ele>129.7</ele>
        <time>2025-10-19T08:40:10Z</time>
      </trkpt>
      <trkpt lat="43.20629" lon="5.50201">
        <ele>129.7</ele>
        <time>2025-10-19T08:40:11Z</time>
      </trkpt>
      <trkpt lat="43.20629" lon="5.50201">
        <ele>129.8</ele>
        <time>2025-10-19T08:40:12Z</time>
      </trkpt>
      <trkpt lat="43.20629" lon="5.50201">
        <ele>129.8</ele>
        <time>2025-10-19T08:40:13Z</time>
      </trkpt>
      <trkpt lat="43.20629" lon="5.50201">
        <ele>129.8</ele>
        <time>2025-10-19T08:40:14Z</time>
      </trkpt>
      <trkpt lat="43.20629" lon="5.50201">
        <ele>129.7</ele>
        <time>2025-10-19T08:40:15Z</time>
      </trkpt>
      <trkpt lat="43.20629" lon="5.50201">
        <ele>129.7</ele>
        <time>2025-10-19T08:40:16Z</time>
      </trkpt>
      <trkpt lat="43.20629" lon="5.50201">
        <ele>129.6</ele>
        <time>2025-10-19T08:40:17Z</time>
      </trkpt>
      <trkpt lat="43.20629" lon="5.50201">
        <ele>129.6</ele>
        <time>2025-10-19T08:40:18Z</time>
      </trkpt>
      <trkpt lat="43.20629" lon="5.50201">
        <ele>129.6</ele>
        <time>2025-10-19T08:40:19Z</time>
      </trkpt>
      <trkpt lat="43.20629" lon="5.50202">
        <ele>129.6</ele>
        <time>2025-10-19T08:40:20Z</time>
      </trkpt>
      <trkpt lat="43.2063" lon="5.50202">
        <ele>129.6</ele>
        <time>2025-10-19T08:40:21Z</time>
      </trkpt>
      <trkpt lat="43.20631" lon="5.50203">
        <ele>129.6</ele>
        <time>2025-10-19T08:40:22Z</time>
      </trkpt>
      <trkpt lat="43.20631" lon="5.50203">
        <ele>129.6</ele>
        <time>2025-10-19T08:40:23Z</time>
      </trkpt>
      <trkpt lat="43.20631" lon="5.50203">
        <ele>129.6</ele>
        <time>2025-10-19T08:40:24Z</time>
      </trkpt>
      <trkpt lat="43.20631" lon="5.50203">
        <ele>129.6</ele>
        <time>2025-10-19T08:40:25Z</time>
      </trkpt>
      <trkpt lat="43.20631" lon="5.50203">
        <ele>129.5</ele>
        <time>2025-10-19T08:40:26Z</time>
      </trkpt>
      <trkpt lat="43.20631" lon="5.50203">
        <ele>129.5</ele>
        <time>2025-10-19T08:40:27Z</time>
      </trkpt>
      <trkpt lat="43.20631" lon="5.50203">
        <ele>129.5</ele>
        <time>2025-10-19T08:40:28Z</time>
      </trkpt>
      <trkpt lat="43.20632" lon="5.50203">
        <ele>129.5</ele>
        <time>2025-10-19T08:40:29Z</time>
      </trkpt>
      <trkpt lat="43.20632" lon="5.50203">
        <ele>129.5</ele>
        <time>2025-10-19T08:40:30Z</time>
      </trkpt>
      <trkpt lat="43.20632" lon="5.50203">
        <ele>129.4</ele>
        <time>2025-10-19T08:40:31Z</time>
      </trkpt>
      <trkpt lat="43.20632" lon="5.50203">
        <ele>129.4</ele>
        <time>2025-10-19T08:40:32Z</time>
      </trkpt>
      <trkpt lat="43.20632" lon="5.50203">
        <ele>129.3</ele>
        <time>2025-10-19T08:40:33Z</time>
      </trkpt>
      <trkpt lat="43.20632" lon="5.50203">
        <ele>129.3</ele>
        <time>2025-10-19T08:40:34Z</time>
      </trkpt>
      <trkpt lat="43.20632" lon="5.50203">
        <ele>129.3</ele>
        <time>2025-10-19T08:40:35Z</time>
      </trkpt>
      <trkpt lat="43.20633" lon="5.50203">
        <ele>129.3</ele>
        <time>2025-10-19T08:40:36Z</time>
      </trkpt>
      <trkpt lat="43.20633" lon="5.50204">
        <ele>129.3</ele>
        <time>2025-10-19T08:40:37Z</time>
      </trkpt>
      <trkpt lat="43.20633" lon="5.50204">
        <ele>129.3</ele>
        <time>2025-10-19T08:40:38Z</time>
      </trkpt>
      <trkpt lat="43.20633" lon="5.50204">
        <ele>129.2</ele>
        <time>2025-10-19T08:40:39Z</time>
      </trkpt>
      <trkpt lat="43.20633" lon="5.50204">
        <ele>129.2</ele>
        <time>2025-10-19T08:40:40Z</time>
      </trkpt>
      <trkpt lat="43.20633" lon="5.50204">
        <ele>129.3</ele>
        <time>2025-10-19T08:40:41Z</time>
      </trkpt>
      <trkpt lat="43.20633" lon="5.50204">
        <ele>129.3</ele>
        <time>2025-10-19T08:40:42Z</time>
      </trkpt>
      <trkpt lat="43.20633" lon="5.50204">
        <ele>129.3</ele>
        <time>2025-10-19T08:40:43Z</time>
      </trkpt>
      <trkpt lat="43.20633" lon="5.50204">
        <ele>129.3</ele>
        <time>2025-10-19T08:40:44Z</time>
      </trkpt>
      <trkpt lat="43.20634" lon="5.50204">
        <ele>129.3</ele>
        <time>2025-10-19T08:40:45Z</time>
      </trkpt>
      <trkpt lat="43.20634" lon="5.50204">
        <ele>129.3</ele>
        <time>2025-10-19T08:40:46Z</time>
      </trkpt>
      <trkpt lat="43.20634" lon="5.50204">
        <ele>129.3</ele>
        <time>2025-10-19T08:40:47Z</time>
      </trkpt>
      <trkpt lat="43.20634" lon="5.50204">
        <ele>129.3</ele>
        <time>2025-10-19T08:40:48Z</time>
      </trkpt>
      <trkpt lat="43.20634" lon="5.50204">
        <ele>129.3</ele>
        <time>2025-10-19T08:40:49Z</time>
      </trkpt>
      <trkpt lat="43.20634" lon="5.50204">
        <ele>129.3</ele>
        <time>2025-10-19T08:40:50Z</time>
      </trkpt>
      <trkpt lat="43.20634" lon="5.50204">
        <ele>129.2</ele>
        <time>2025-10-19T08:40:51Z</time>
      </trkpt>
      <trkpt lat="43.20634" lon="5.50203">
        <ele>129.3</ele>
        <time>2025-10-19T08:40:52Z</time>
      </trkpt>
      <trkpt lat="43.20634" lon="5.50203">
        <ele>129.3</ele>
        <time>2025-10-19T08:40:53Z</time>
      </trkpt>
      <trkpt lat="43.20634" lon="5.50203">
        <ele>129.3</ele>
        <time>2025-10-19T08:40:54Z</time>
      </trkpt>
      <trkpt lat="43.20634" lon="5.50203">
        <ele>129.4</ele>
        <time>2025-10-19T08:40:55Z</time>
      </trkpt>
      <trkpt lat="43.20634" lon="5.50203">
        <ele>129.3</ele>
        <time>2025-10-19T08:40:56Z</time>
      </trkpt>
      <trkpt lat="43.20634" lon="5.50203">
        <ele>129.3</ele>
        <time>2025-10-19T08:40:57Z</time>
      </trkpt>
      <trkpt lat="43.20634" lon="5.50203">
        <ele>129.3</ele>
        <time>2025-10-19T08:40:58Z</time>
      </trkpt>
      <trkpt lat="43.20634" lon="5.50203">
        <ele>129.2</ele>
        <time>2025-10-19T08:40:59Z</time>
      </trkpt>
      <trkpt lat="43.20634" lon="5.50203">
        <ele>129.1</ele>
        <time>2025-10-19T08:41:00Z</time>
      </trkpt>
      <trkpt lat="43.20633" lon="5.50203">
        <ele>129.1</ele>
        <time>2025-10-19T08:41:01Z</time>
      </trkpt>
      <trkpt lat="43.20633" lon="5.50203">
        <ele>129.1</ele>
        <time>2025-10-19T08:41:02Z</time>
      </trkpt>
      <trkpt lat="43.20633" lon="5.50203">
        <ele>129.1</ele>
        <time>2025-10-19T08:41:03Z</time>
      </trkpt>
      <trkpt lat="43.20633" lon="5.50203">
        <ele>129.1</ele>
        <time>2025-10-19T08:41:04Z</time>
      </trkpt>
      <trkpt lat="43.20633" lon="5.50203">
        <ele>129</ele>
        <time>2025-10-19T08:41:05Z</time>
      </trkpt>
      <trkpt lat="43.20633" lon="5.50203">
        <ele>129</ele>
        <time>2025-10-19T08:41:06Z</time>
      </trkpt>
      <trkpt lat="43.20633" lon="5.50203">
        <ele>129.1</ele>
        <time>2025-10-19T08:41:07Z</time>
      </trkpt>
      <trkpt lat="43.20633" lon="5.50203">
        <ele>129.1</ele>
        <time>2025-10-19T08:41:08Z</time>
      </trkpt>
      <trkpt lat="43.20633" lon="5.50203">
        <ele>129.2</ele>
        <time>2025-10-19T08:41:09Z</time>
      </trkpt>
      <trkpt lat="43.20633" lon="5.50203">
        <ele>129.2</ele>
        <time>2025-10-19T08:41:10Z</time>
      </trkpt>
      <trkpt lat="43.20633" lon="5.50203">
        <ele>129.3</ele>
        <time>2025-10-19T08:41:11Z</time>
      </trkpt>
      <trkpt lat="43.20633" lon="5.50204">
        <ele>129.3</ele>
        <time>2025-10-19T08:41:12Z</time>
      </trkpt>
      <trkpt lat="43.20634" lon="5.50204">
        <ele>129.3</ele>
        <time>2025-10-19T08:41:13Z</time>
      </trkpt>
      <trkpt lat="43.20634" lon="5.50204">
        <ele>129.2</ele>
        <time>2025-10-19T08:41:14Z</time>
      </trkpt>
      <trkpt lat="43.20634" lon="5.50204">
        <ele>129.2</ele>
        <time>2025-10-19T08:41:15Z</time>
      </trkpt>
      <trkpt lat="43.20634" lon="5.50204">
        <ele>129.2</ele>
        <time>2025-10-19T08:41:16Z</time>
      </trkpt>
      <trkpt lat="43.20634" lon="5.50204">
        <ele>129.2</ele>
        <time>2025-10-19T08:41:17Z</time>
      </trkpt>
      <trkpt lat="43.20634" lon="5.50204">
        <ele>129.3</ele>
        <time>2025-10-19T08:41:18Z</time>
      </trkpt>
      <trkpt lat="43.20634" lon="5.50204">
        <ele>129.2</ele>
        <time>2025-10-19T08:41:19Z</time>
      </trkpt>
      <trkpt lat="43.20634" lon="5.50204">
        <ele>129.2</ele>
        <time>2025-10-19T08:41:20Z</time>
      </trkpt>
      <trkpt lat="43.20634" lon="5.50204">
        <ele>129.2</ele>
        <time>2025-10-19T08:41:21Z</time>
      </trkpt>
      <trkpt lat="43.20634" lon="5.50204">
        <ele>129.2</ele>
        <time>2025-10-19T08:41:22Z</time>
      </trkpt>
      <trkpt lat="43.20634" lon="5.50204">
        <ele>129.3</ele>
        <time>2025-10-19T08:41:23Z</time>
      </trkpt>
      <trkpt lat="43.20634" lon="5.50204">
        <ele>129.3</ele>
        <time>2025-10-19T08:41:24Z</time>
      </trkpt>
      <trkpt lat="43.20633" lon="5.50203">
        <ele>129.3</ele>
        <time>2025-10-19T08:41:25Z</time>
      </trkpt>
      <trkpt lat="43.20633" lon="5.50203">
        <ele>129.3</ele>
        <time>2025-10-19T08:41:26Z</time>
      </trkpt>
      <trkpt lat="43.20633" lon="5.50203">
        <ele>129.4</ele>
        <time>2025-10-19T08:41:27Z</time>
      </trkpt>
      <trkpt lat="43.20633" lon="5.50202">
        <ele>129.4</ele>
        <time>2025-10-19T08:41:28Z</time>
      </trkpt>
      <trkpt lat="43.20633" lon="5.50202">
        <ele>129.4</ele>
        <time>2025-10-19T08:41:29Z</time>
      </trkpt>
      <trkpt lat="43.20633" lon="5.50202">
        <ele>129.5</ele>
        <time>2025-10-19T08:41:30Z</time>
      </trkpt>
      <trkpt lat="43.20632" lon="5.50202">
        <ele>129.6</ele>
        <time>2025-10-19T08:41:31Z</time>
      </trkpt>
      <trkpt lat="43.20632" lon="5.50202">
        <ele>129.6</ele>
        <time>2025-10-19T08:41:32Z</time>
      </trkpt>
      <trkpt lat="43.20632" lon="5.50202">
        <ele>129.6</ele>
        <time>2025-10-19T08:41:33Z</time>
      </trkpt>
      <trkpt lat="43.20632" lon="5.50203">
        <ele>129.6</ele>
        <time>2025-10-19T08:41:34Z</time>
      </trkpt>
      <trkpt lat="43.20632" lon="5.50203">
        <ele>129.6</ele>
        <time>2025-10-19T08:41:35Z</time>
      </trkpt>
      <trkpt lat="43.20632" lon="5.50203">
        <ele>129.7</ele>
        <time>2025-10-19T08:41:36Z</time>
      </trkpt>
      <trkpt lat="43.20632" lon="5.50203">
        <ele>129.7</ele>
        <time>2025-10-19T08:41:37Z</time>
      </trkpt>
      <trkpt lat="43.20631" lon="5.50203">
        <ele>129.7</ele>
        <time>2025-10-19T08:41:38Z</time>
      </trkpt>
      <trkpt lat="43.20631" lon="5.50203">
        <ele>129.7</ele>
        <time>2025-10-19T08:41:39Z</time>
      </trkpt>
      <trkpt lat="43.20631" lon="5.50203">
        <ele>129.7</ele>
        <time>2025-10-19T08:41:40Z</time>
      </trkpt>
      <trkpt lat="43.20631" lon="5.50203">
        <ele>129.7</ele>
        <time>2025-10-19T08:41:41Z</time>
      </trkpt>
      <trkpt lat="43.20631" lon="5.50202">
        <ele>129.7</ele>
        <time>2025-10-19T08:41:42Z</time>
      </trkpt>
      <trkpt lat="43.20631" lon="5.50202">
        <ele>129.7</ele>
        <time>2025-10-19T08:41:43Z</time>
      </trkpt>
      <trkpt lat="43.20631" lon="5.50202">
        <ele>129.7</ele>
        <time>2025-10-19T08:41:44Z</time>
      </trkpt>
      <trkpt lat="43.20631" lon="5.50202">
        <ele>129.7</ele>
        <time>2025-10-19T08:41:45Z</time>
      </trkpt>
      <trkpt lat="43.20631" lon="5.50202">
        <ele>129.7</ele>
        <time>2025-10-19T08:41:46Z</time>
      </trkpt>
      <trkpt lat="43.20631" lon="5.50203">
        <ele>129.9</ele>
        <time>2025-10-19T08:41:47Z</time>
      </trkpt>
      <trkpt lat="43.20631" lon="5.50203">
        <ele>129.9</ele>
        <time>2025-10-19T08:41:48Z</time>
      </trkpt>
      <trkpt lat="43.20631" lon="5.50203">
        <ele>129.9</ele>
        <time>2025-10-19T08:41:49Z</time>
      </trkpt>
      <trkpt lat="43.20631" lon="5.50203">
        <ele>129.8</ele>
        <time>2025-10-19T08:41:50Z</time>
      </trkpt>
      <trkpt lat="43.20631" lon="5.50203">
        <ele>129.7</ele>
        <time>2025-10-19T08:41:51Z</time>
      </trkpt>
      <trkpt lat="43.20631" lon="5.50203">
        <ele>129.7</ele>
        <time>2025-10-19T08:41:52Z</time>
      </trkpt>
      <trkpt lat="43.20631" lon="5.50203">
        <ele>129.6</ele>
        <time>2025-10-19T08:41:53Z</time>
      </trkpt>
      <trkpt lat="43.20631" lon="5.50203">
        <ele>129.6</ele>
        <time>2025-10-19T08:41:54Z</time>
      </trkpt>
      <trkpt lat="43.20631" lon="5.50203">
        <ele>129.6</ele>
        <time>2025-10-19T08:41:55Z</time>
      </trkpt>
      <trkpt lat="43.20631" lon="5.50203">
        <ele>129.6</ele>
        <time>2025-10-19T08:41:56Z</time>
      </trkpt>
      <trkpt lat="43.20631" lon="5.50203">
        <ele>129.5</ele>
        <time>2025-10-19T08:41:57Z</time>
      </trkpt>
      <trkpt lat="43.20631" lon="5.50203">
        <ele>129.5</ele>
        <time>2025-10-19T08:41:58Z</time>
      </trkpt>
      <trkpt lat="43.20631" lon="5.50203">
        <ele>129.4</ele>
        <time>2025-10-19T08:41:59Z</time>
      </trkpt>
      <trkpt lat="43.20631" lon="5.50204">
        <ele>129.4</ele>
        <time>2025-10-19T08:42:00Z</time>
      </trkpt>
      <trkpt lat="43.20631" lon="5.50204">
        <ele>129.4</ele>
        <time>2025-10-19T08:42:01Z</time>
      </trkpt>
      <trkpt lat="43.20631" lon="5.50204">
        <ele>129.5</ele>
        <time>2025-10-19T08:42:02Z</time>
      </trkpt>
      <trkpt lat="43.20631" lon="5.50204">
        <ele>129.5</ele>
        <time>2025-10-19T08:42:03Z</time>
      </trkpt>
      <trkpt lat="43.20631" lon="5.50204">
        <ele>129.5</ele>
        <time>2025-10-19T08:42:04Z</time>
      </trkpt>
      <trkpt lat="43.20631" lon="5.50204">
        <ele>129.5</ele>
        <time>2025-10-19T08:42:05Z</time>
      </trkpt>
      <trkpt lat="43.20631" lon="5.50204">
        <ele>129.5</ele>
        <time>2025-10-19T08:42:06Z</time>
      </trkpt>
      <trkpt lat="43.2063" lon="5.50204">
        <ele>129.5</ele>
        <time>2025-10-19T08:42:07Z</time>
      </trkpt>
      <trkpt lat="43.2063" lon="5.50204">
        <ele>129.6</ele>
        <time>2025-10-19T08:42:08Z</time>
      </trkpt>
      <trkpt lat="43.2063" lon="5.50205">
        <ele>129.5</ele>
        <time>2025-10-19T08:42:09Z</time>
      </trkpt>
      <trkpt lat="43.2063" lon="5.50205">
        <ele>129.4</ele>
        <time>2025-10-19T08:42:10Z</time>
      </trkpt>
      <trkpt lat="43.2063" lon="5.50205">
        <ele>129.4</ele>
        <time>2025-10-19T08:42:11Z</time>
      </trkpt>
      <trkpt lat="43.2063" lon="5.50205">
        <ele>129.4</ele>
        <time>2025-10-19T08:42:12Z</time>
      </trkpt>
      <trkpt lat="43.2063" lon="5.50206">
        <ele>129.4</ele>
        <time>2025-10-19T08:42:13Z</time>
      </trkpt>
      <trkpt lat="43.2063" lon="5.50206">
        <ele>129.4</ele>
        <time>2025-10-19T08:42:14Z</time>
      </trkpt>
      <trkpt lat="43.2063" lon="5.50206">
        <ele>129.3</ele>
        <time>2025-10-19T08:42:15Z</time>
      </trkpt>
      <trkpt lat="43.2063" lon="5.50205">
        <ele>129.3</ele>
        <time>2025-10-19T08:42:16Z</time>
      </trkpt>
      <trkpt lat="43.2063" lon="5.50205">
        <ele>129.3</ele>
        <time>2025-10-19T08:42:17Z</time>
      </trkpt>
      <trkpt lat="43.2063" lon="5.50205">
        <ele>129.3</ele>
        <time>2025-10-19T08:42:18Z</time>
      </trkpt>
      <trkpt lat="43.2063" lon="5.50205">
        <ele>129.3</ele>
        <time>2025-10-19T08:42:19Z</time>
      </trkpt>
      <trkpt lat="43.2063" lon="5.50205">
        <ele>129.3</ele>
        <time>2025-10-19T08:42:20Z</time>
      </trkpt>
      <trkpt lat="43.2063" lon="5.50205">
        <ele>129.3</ele>
        <time>2025-10-19T08:42:21Z</time>
      </trkpt>
      <trkpt lat="43.2063" lon="5.50205">
        <ele>129.3</ele>
        <time>2025-10-19T08:42:22Z</time>
      </trkpt>
      <trkpt lat="43.2063" lon="5.50205">
        <ele>129.3</ele>
        <time>2025-10-19T08:42:23Z</time>
      </trkpt>
      <trkpt lat="43.2063" lon="5.50204">
        <ele>129.3</ele>
        <time>2025-10-19T08:42:24Z</time>
      </trkpt>
      <trkpt lat="43.2063" lon="5.50204">
        <ele>129.3</ele>
        <time>2025-10-19T08:42:25Z</time>
      </trkpt>
      <trkpt lat="43.2063" lon="5.50204">
        <ele>129.3</ele>
        <time>2025-10-19T08:42:26Z</time>
      </trkpt>
      <trkpt lat="43.20631" lon="5.50204">
        <ele>129.2</ele>
        <time>2025-10-19T08:42:27Z</time>
      </trkpt>
      <trkpt lat="43.20631" lon="5.50203">
        <ele>129.2</ele>
        <time>2025-10-19T08:42:28Z</time>
      </trkpt>
      <trkpt lat="43.20631" lon="5.50203">
        <ele>129.3</ele>
        <time>2025-10-19T08:42:29Z</time>
      </trkpt>
      <trkpt lat="43.20631" lon="5.50202">
        <ele>129.4</ele>
        <time>2025-10-19T08:42:30Z</time>
      </trkpt>
      <trkpt lat="43.20631" lon="5.50202">
        <ele>129.5</ele>
        <time>2025-10-19T08:42:31Z</time>
      </trkpt>
      <trkpt lat="43.20632" lon="5.50202">
        <ele>129.5</ele>
        <time>2025-10-19T08:42:32Z</time>
      </trkpt>
      <trkpt lat="43.20632" lon="5.50202">
        <ele>129.6</ele>
        <time>2025-10-19T08:42:33Z</time>
      </trkpt>
      <trkpt lat="43.20632" lon="5.50202">
        <ele>129.6</ele>
        <time>2025-10-19T08:42:34Z</time>
      </trkpt>
      <trkpt lat="43.20632" lon="5.50201">
        <ele>129.7</ele>
        <time>2025-10-19T08:42:35Z</time>
      </trkpt>
      <trkpt lat="43.20632" lon="5.50201">
        <ele>129.7</ele>
        <time>2025-10-19T08:42:36Z</time>
      </trkpt>
      <trkpt lat="43.20632" lon="5.50201">
        <ele>129.7</ele>
        <time>2025-10-19T08:42:37Z</time>
      </trkpt>
      <trkpt lat="43.20632" lon="5.50201">
        <ele>129.7</ele>
        <time>2025-10-19T08:42:38Z</time>
      </trkpt>
      <trkpt lat="43.20632" lon="5.50201">
        <ele>129.7</ele>
        <time>2025-10-19T08:42:39Z</time>
      </trkpt>
      <trkpt lat="43.20632" lon="5.50201">
        <ele>129.7</ele>
        <time>2025-10-19T08:42:40Z</time>
      </trkpt>
      <trkpt lat="43.20632" lon="5.50201">
        <ele>129.6</ele>
        <time>2025-10-19T08:42:41Z</time>
      </trkpt>
      <trkpt lat="43.20632" lon="5.50201">
        <ele>129.7</ele>
        <time>2025-10-19T08:42:42Z</time>
      </trkpt>
      <trkpt lat="43.20632" lon="5.50201">
        <ele>129.6</ele>
        <time>2025-10-19T08:42:43Z</time>
      </trkpt>
      <trkpt lat="43.20633" lon="5.50201">
        <ele>129.5</ele>
        <time>2025-10-19T08:42:44Z</time>
      </trkpt>
      <trkpt lat="43.20633" lon="5.50201">
        <ele>129.6</ele>
        <time>2025-10-19T08:42:45Z</time>
      </trkpt>
      <trkpt lat="43.20633" lon="5.50201">
        <ele>129.6</ele>
        <time>2025-10-19T08:42:46Z</time>
      </trkpt>
      <trkpt lat="43.20633" lon="5.50201">
        <ele>129.5</ele>
        <time>2025-10-19T08:42:47Z</time>
      </trkpt>
      <trkpt lat="43.20633" lon="5.50201">
        <ele>129.5</ele>
        <time>2025-10-19T08:42:48Z</time>
      </trkpt>
      <trkpt lat="43.20633" lon="5.50201">
        <ele>129.5</ele>
        <time>2025-10-19T08:42:49Z</time>
      </trkpt>
      <trkpt lat="43.20633" lon="5.50201">
        <ele>129.5</ele>
        <time>2025-10-19T08:42:50Z</time>
      </trkpt>
      <trkpt lat="43.20633" lon="5.50201">
        <ele>129.5</ele>
        <time>2025-10-19T08:42:51Z</time>
      </trkpt>
      <trkpt lat="43.20633" lon="5.50201">
        <ele>129.5</ele>
        <time>2025-10-19T08:42:52Z</time>
      </trkpt>
      <trkpt lat="43.20633" lon="5.50201">
        <ele>129.4</ele>
        <time>2025-10-19T08:42:53Z</time>
      </trkpt>
      <trkpt lat="43.20633" lon="5.50201">
        <ele>129.4</ele>
        <time>2025-10-19T08:42:54Z</time>
      </trkpt>
      <trkpt lat="43.20634" lon="5.50201">
        <ele>129.4</ele>
        <time>2025-10-19T08:42:55Z</time>
      </trkpt>
      <trkpt lat="43.20634" lon="5.50201">
        <ele>129.4</ele>
        <time>2025-10-19T08:42:56Z</time>
      </trkpt>
      <trkpt lat="43.20634" lon="5.50201">
        <ele>129.4</ele>
        <time>2025-10-19T08:42:57Z</time>
      </trkpt>
      <trkpt lat="43.20634" lon="5.50201">
        <ele>129.4</ele>
        <time>2025-10-19T08:42:58Z</time>
      </trkpt>
      <trkpt lat="43.20634" lon="5.50201">
        <ele>129.3</ele>
        <time>2025-10-19T08:42:59Z</time>
      </trkpt>
      <trkpt lat="43.20634" lon="5.502">
        <ele>129.3</ele>
        <time>2025-10-19T08:43:00Z</time>
      </trkpt>
      <trkpt lat="43.20634" lon="5.502">
        <ele>129.3</ele>
        <time>2025-10-19T08:43:01Z</time>
      </trkpt>
      <trkpt lat="43.20634" lon="5.502">
        <ele>129.3</ele>
        <time>2025-10-19T08:43:02Z</time>
      </trkpt>
      <trkpt lat="43.20634" lon="5.502">
        <ele>129.3</ele>
        <time>2025-10-19T08:43:03Z</time>
      </trkpt>
      <trkpt lat="43.20634" lon="5.502">
        <ele>129.3</ele>
        <time>2025-10-19T08:43:04Z</time>
      </trkpt>
      <trkpt lat="43.20634" lon="5.502">
        <ele>129.4</ele>
        <time>2025-10-19T08:43:05Z</time>
      </trkpt>
      <trkpt lat="43.20634" lon="5.502">
        <ele>129.4</ele>
        <time>2025-10-19T08:43:06Z</time>
      </trkpt>
      <trkpt lat="43.20634" lon="5.502">
        <ele>129.4</ele>
        <time>2025-10-19T08:43:07Z</time>
      </trkpt>
      <trkpt lat="43.20634" lon="5.502">
        <ele>129.4</ele>
        <time>2025-10-19T08:43:08Z</time>
      </trkpt>
      <trkpt lat="43.20634" lon="5.502">
        <ele>129.3</ele>
        <time>2025-10-19T08:43:09Z</time>
      </trkpt>
      <trkpt lat="43.20634" lon="5.502">
        <ele>129.2</ele>
        <time>2025-10-19T08:43:10Z</time>
      </trkpt>
      <trkpt lat="43.20634" lon="5.502">
        <ele>129.2</ele>
        <time>2025-10-19T08:43:11Z</time>
      </trkpt>
      <trkpt lat="43.20634" lon="5.50199">
        <ele>129.2</ele>
        <time>2025-10-19T08:43:12Z</time>
      </trkpt>
      <trkpt lat="43.20634" lon="5.50199">
        <ele>129.2</ele>
        <time>2025-10-19T08:43:13Z</time>
      </trkpt>
      <trkpt lat="43.20634" lon="5.50199">
        <ele>129.1</ele>
        <time>2025-10-19T08:43:14Z</time>
      </trkpt>
      <trkpt lat="43.20633" lon="5.50199">
        <ele>129.2</ele>
        <time>2025-10-19T08:43:15Z</time>
      </trkpt>
      <trkpt lat="43.20633" lon="5.50199">
        <ele>129.2</ele>
        <time>2025-10-19T08:43:16Z</time>
      </trkpt>
      <trkpt lat="43.20633" lon="5.50199">
        <ele>129.2</ele>
        <time>2025-10-19T08:43:17Z</time>
      </trkpt>
      <trkpt lat="43.20633" lon="5.50199">
        <ele>129.2</ele>
        <time>2025-10-19T08:43:18Z</time>
      </trkpt>
      <trkpt lat="43.20633" lon="5.50198">
        <ele>129.2</ele>
        <time>2025-10-19T08:43:19Z</time>
      </trkpt>
      <trkpt lat="43.20633" lon="5.50198">
        <ele>129.2</ele>
        <time>2025-10-19T08:43:20Z</time>
      </trkpt>
      <trkpt lat="43.20633" lon="5.50198">
        <ele>129.1</ele>
        <time>2025-10-19T08:43:21Z</time>
      </trkpt>
      <trkpt lat="43.20633" lon="5.50198">
        <ele>129.1</ele>
        <time>2025-10-19T08:43:22Z</time>
      </trkpt>
      <trkpt lat="43.20633" lon="5.50198">
        <ele>129.1</ele>
        <time>2025-10-19T08:43:23Z</time>
      </trkpt>
      <trkpt lat="43.20633" lon="5.50198">
        <ele>129.1</ele>
        <time>2025-10-19T08:43:24Z</time>
      </trkpt>
      <trkpt lat="43.20633" lon="5.50198">
        <ele>129.1</ele>
        <time>2025-10-19T08:43:25Z</time>
      </trkpt>
      <trkpt lat="43.20634" lon="5.50198">
        <ele>129.1</ele>
        <time>2025-10-19T08:43:26Z</time>
      </trkpt>
      <trkpt lat="43.20634" lon="5.50198">
        <ele>129.2</ele>
        <time>2025-10-19T08:43:27Z</time>
      </trkpt>
      <trkpt lat="43.20634" lon="5.50198">
        <ele>129.3</ele>
        <time>2025-10-19T08:43:28Z</time>
      </trkpt>
      <trkpt lat="43.20634" lon="5.50198">
        <ele>129.4</ele>
        <time>2025-10-19T08:43:29Z</time>
      </trkpt>
      <trkpt lat="43.20634" lon="5.50198">
        <ele>129.4</ele>
        <time>2025-10-19T08:43:30Z</time>
      </trkpt>
      <trkpt lat="43.20634" lon="5.50199">
        <ele>129.4</ele>
        <time>2025-10-19T08:43:31Z</time>
      </trkpt>
      <trkpt lat="43.20634" lon="5.50199">
        <ele>129.4</ele>
        <time>2025-10-19T08:43:32Z</time>
      </trkpt>
      <trkpt lat="43.20634" lon="5.50199">
        <ele>129.4</ele>
        <time>2025-10-19T08:43:33Z</time>
      </trkpt>
      <trkpt lat="43.20634" lon="5.50199">
        <ele>129.3</ele>
        <time>2025-10-19T08:43:34Z</time>
      </trkpt>
      <trkpt lat="43.20634" lon="5.50199">
        <ele>129.3</ele>
        <time>2025-10-19T08:43:35Z</time>
      </trkpt>
      <trkpt lat="43.20634" lon="5.50199">
        <ele>129.2</ele>
        <time>2025-10-19T08:43:36Z</time>
      </trkpt>
      <trkpt lat="43.20634" lon="5.50199">
        <ele>129.2</ele>
        <time>2025-10-19T08:43:37Z</time>
      </trkpt>
      <trkpt lat="43.20634" lon="5.50199">
        <ele>129.2</ele>
        <time>2025-10-19T08:43:38Z</time>
      </trkpt>
      <trkpt lat="43.20634" lon="5.50199">
        <ele>129.1</ele>
        <time>2025-10-19T08:43:39Z</time>
      </trkpt>
      <trkpt lat="43.20634" lon="5.502">
        <ele>129.1</ele>
        <time>2025-10-19T08:43:40Z</time>
      </trkpt>
      <trkpt lat="43.20634" lon="5.502">
        <ele>129.1</ele>
        <time>2025-10-19T08:43:41Z</time>
      </trkpt>
      <trkpt lat="43.20635" lon="5.502">
        <ele>129.1</ele>
        <time>2025-10-19T08:43:42Z</time>
      </trkpt>
      <trkpt lat="43.20635" lon="5.502">
        <ele>129.1</ele>
        <time>2025-10-19T08:43:43Z</time>
      </trkpt>
      <trkpt lat="43.20635" lon="5.502">
        <ele>129.1</ele>
        <time>2025-10-19T08:43:44Z</time>
      </trkpt>
      <trkpt lat="43.20635" lon="5.502">
        <ele>129.1</ele>
        <time>2025-10-19T08:43:45Z</time>
      </trkpt>
      <trkpt lat="43.20634" lon="5.50199">
        <ele>129</ele>
        <time>2025-10-19T08:43:46Z</time>
      </trkpt>
      <trkpt lat="43.20634" lon="5.50199">
        <ele>129</ele>
        <time>2025-10-19T08:43:47Z</time>
      </trkpt>
      <trkpt lat="43.20634" lon="5.502">
        <ele>129</ele>
        <time>2025-10-19T08:43:48Z</time>
      </trkpt>
      <trkpt lat="43.20634" lon="5.502">
        <ele>129</ele>
        <time>2025-10-19T08:43:49Z</time>
      </trkpt>
      <trkpt lat="43.20634" lon="5.502">
        <ele>129</ele>
        <time>2025-10-19T08:43:50Z</time>
      </trkpt>
      <trkpt lat="43.20635" lon="5.502">
        <ele>128.9</ele>
        <time>2025-10-19T08:43:51Z</time>
      </trkpt>
      <trkpt lat="43.20635" lon="5.502">
        <ele>128.9</ele>
        <time>2025-10-19T08:43:52Z</time>
      </trkpt>
      <trkpt lat="43.20634" lon="5.502">
        <ele>128.9</ele>
        <time>2025-10-19T08:43:53Z</time>
      </trkpt>
      <trkpt lat="43.20634" lon="5.502">
        <ele>129</ele>
        <time>2025-10-19T08:43:54Z</time>
      </trkpt>
      <trkpt lat="43.20633" lon="5.502">
        <ele>129</ele>
        <time>2025-10-19T08:43:55Z</time>
      </trkpt>
      <trkpt lat="43.20634" lon="5.502">
        <ele>128.9</ele>
        <time>2025-10-19T08:43:56Z</time>
      </trkpt>
      <trkpt lat="43.20633" lon="5.502">
        <ele>129</ele>
        <time>2025-10-19T08:43:57Z</time>
      </trkpt>
      <trkpt lat="43.20633" lon="5.502">
        <ele>129</ele>
        <time>2025-10-19T08:43:58Z</time>
      </trkpt>
      <trkpt lat="43.20633" lon="5.50199">
        <ele>129.1</ele>
        <time>2025-10-19T08:43:59Z</time>
      </trkpt>
      <trkpt lat="43.20633" lon="5.502">
        <ele>129.1</ele>
        <time>2025-10-19T08:44:00Z</time>
      </trkpt>
      <trkpt lat="43.20633" lon="5.502">
        <ele>129.1</ele>
        <time>2025-10-19T08:44:01Z</time>
      </trkpt>
      <trkpt lat="43.20633" lon="5.502">
        <ele>129.1</ele>
        <time>2025-10-19T08:44:02Z</time>
      </trkpt>
      <trkpt lat="43.20633" lon="5.502">
        <ele>129.1</ele>
        <time>2025-10-19T08:44:03Z</time>
      </trkpt>
      <trkpt lat="43.20633" lon="5.502">
        <ele>129.1</ele>
        <time>2025-10-19T08:44:04Z</time>
      </trkpt>
      <trkpt lat="43.20633" lon="5.502">
        <ele>129</ele>
        <time>2025-10-19T08:44:05Z</time>
      </trkpt>
      <trkpt lat="43.20633" lon="5.502">
        <ele>129.1</ele>
        <time>2025-10-19T08:44:06Z</time>
      </trkpt>
      <trkpt lat="43.20632" lon="5.502">
        <ele>129.2</ele>
        <time>2025-10-19T08:44:07Z</time>
      </trkpt>
      <trkpt lat="43.20632" lon="5.502">
        <ele>129.2</ele>
        <time>2025-10-19T08:44:08Z</time>
      </trkpt>
      <trkpt lat="43.20633" lon="5.502">
        <ele>129.2</ele>
        <time>2025-10-19T08:44:09Z</time>
      </trkpt>
      <trkpt lat="43.20633" lon="5.50201">
        <ele>129.1</ele>
        <time>2025-10-19T08:44:10Z</time>
      </trkpt>
      <trkpt lat="43.20634" lon="5.502">
        <ele>129.1</ele>
        <time>2025-10-19T08:44:11Z</time>
      </trkpt>
      <trkpt lat="43.20634" lon="5.502">
        <ele>129.1</ele>
        <time>2025-10-19T08:44:12Z</time>
      </trkpt>
      <trkpt lat="43.20634" lon="5.50199">
        <ele>129.1</ele>
        <time>2025-10-19T08:44:13Z</time>
      </trkpt>
      <trkpt lat="43.20634" lon="5.50199">
        <ele>129.2</ele>
        <time>2025-10-19T08:44:14Z</time>
      </trkpt>
      <trkpt lat="43.20635" lon="5.50199">
        <ele>129.2</ele>
        <time>2025-10-19T08:44:15Z</time>
      </trkpt>
      <trkpt lat="43.20635" lon="5.50199">
        <ele>129.2</ele>
        <time>2025-10-19T08:44:16Z</time>
      </trkpt>
      <trkpt lat="43.20635" lon="5.50198">
        <ele>129.2</ele>
        <time>2025-10-19T08:44:17Z</time>
      </trkpt>
      <trkpt lat="43.20635" lon="5.50198">
        <ele>129.1</ele>
        <time>2025-10-19T08:44:18Z</time>
      </trkpt>
      <trkpt lat="43.20635" lon="5.50198">
        <ele>129.2</ele>
        <time>2025-10-19T08:44:19Z</time>
      </trkpt>
      <trkpt lat="43.20635" lon="5.50197">
        <ele>129.2</ele>
        <time>2025-10-19T08:44:20Z</time>
      </trkpt>
      <trkpt lat="43.20635" lon="5.50196">
        <ele>129.2</ele>
        <time>2025-10-19T08:44:21Z</time>
      </trkpt>
      <trkpt lat="43.20635" lon="5.50196">
        <ele>129.2</ele>
        <time>2025-10-19T08:44:22Z</time>
      </trkpt>
      <trkpt lat="43.20634" lon="5.50196">
        <ele>129.2</ele>
        <time>2025-10-19T08:44:23Z</time>
      </trkpt>
      <trkpt lat="43.20635" lon="5.50196">
        <ele>129.2</ele>
        <time>2025-10-19T08:44:24Z</time>
      </trkpt>
      <trkpt lat="43.20635" lon="5.50196">
        <ele>129.1</ele>
        <time>2025-10-19T08:44:25Z</time>
      </trkpt>
      <trkpt lat="43.20634" lon="5.50196">
        <ele>129.1</ele>
        <time>2025-10-19T08:44:26Z</time>
      </trkpt>
      <trkpt lat="43.20635" lon="5.50196">
        <ele>129.1</ele>
        <time>2025-10-19T08:44:27Z</time>
      </trkpt>
      <trkpt lat="43.20635" lon="5.50196">
        <ele>129.1</ele>
        <time>2025-10-19T08:44:28Z</time>
      </trkpt>
      <trkpt lat="43.20635" lon="5.50196">
        <ele>129.2</ele>
        <time>2025-10-19T08:44:29Z</time>
      </trkpt>
      <trkpt lat="43.20635" lon="5.50196">
        <ele>129.3</ele>
        <time>2025-10-19T08:44:30Z</time>
      </trkpt>
      <trkpt lat="43.20635" lon="5.50197">
        <ele>129.3</ele>
        <time>2025-10-19T08:44:31Z</time>
      </trkpt>
      <trkpt lat="43.20635" lon="5.50196">
        <ele>129.3</ele>
        <time>2025-10-19T08:44:32Z</time>
      </trkpt>
      <trkpt lat="43.20635" lon="5.50195">
        <ele>129.3</ele>
        <time>2025-10-19T08:44:33Z</time>
      </trkpt>
      <trkpt lat="43.20635" lon="5.50194">
        <ele>129.4</ele>
        <time>2025-10-19T08:44:34Z</time>
      </trkpt>
      <trkpt lat="43.20635" lon="5.50193">
        <ele>129.4</ele>
        <time>2025-10-19T08:44:35Z</time>
      </trkpt>
      <trkpt lat="43.20635" lon="5.50192">
        <ele>129.4</ele>
        <time>2025-10-19T08:44:36Z</time>
      </trkpt>
      <trkpt lat="43.20634" lon="5.50191">
        <ele>129.4</ele>
        <time>2025-10-19T08:44:37Z</time>
      </trkpt>
      <trkpt lat="43.20633" lon="5.5019">
        <ele>129.4</ele>
        <time>2025-10-19T08:44:38Z</time>
      </trkpt>
      <trkpt lat="43.20632" lon="5.50189">
        <ele>129.4</ele>
        <time>2025-10-19T08:44:39Z</time>
      </trkpt>
      <trkpt lat="43.20632" lon="5.50189">
        <ele>129.3</ele>
        <time>2025-10-19T08:44:40Z</time>
      </trkpt>
      <trkpt lat="43.20632" lon="5.50189">
        <ele>129.2</ele>
        <time>2025-10-19T08:44:41Z</time>
      </trkpt>
      <trkpt lat="43.20632" lon="5.50188">
        <ele>129.2</ele>
        <time>2025-10-19T08:44:42Z</time>
      </trkpt>
      <trkpt lat="43.20633" lon="5.50188">
        <ele>129.1</ele>
        <time>2025-10-19T08:44:43Z</time>
      </trkpt>
      <trkpt lat="43.20633" lon="5.50187">
        <ele>129.1</ele>
        <time>2025-10-19T08:44:44Z</time>
      </trkpt>
      <trkpt lat="43.20633" lon="5.50186">
        <ele>129.1</ele>
        <time>2025-10-19T08:44:45Z</time>
      </trkpt>
      <trkpt lat="43.20634" lon="5.50185">
        <ele>129.1</ele>
        <time>2025-10-19T08:44:46Z</time>
      </trkpt>
      <trkpt lat="43.20634" lon="5.50184">
        <ele>129.1</ele>
        <time>2025-10-19T08:44:47Z</time>
      </trkpt>
      <trkpt lat="43.20634" lon="5.50184">
        <ele>129.1</ele>
        <time>2025-10-19T08:44:48Z</time>
      </trkpt>
      <trkpt lat="43.20633" lon="5.50184">
        <ele>129</ele>
        <time>2025-10-19T08:44:49Z</time>
      </trkpt>
      <trkpt lat="43.20634" lon="5.50183">
        <ele>129</ele>
        <time>2025-10-19T08:44:50Z</time>
      </trkpt>
      <trkpt lat="43.20634" lon="5.50183">
        <ele>128.9</ele>
        <time>2025-10-19T08:44:51Z</time>
      </trkpt>
      <trkpt lat="43.20634" lon="5.50182">
        <ele>128.9</ele>
        <time>2025-10-19T08:44:52Z</time>
      </trkpt>
      <trkpt lat="43.20635" lon="5.50182">
        <ele>128.8</ele>
        <time>2025-10-19T08:44:53Z</time>
      </trkpt>
      <trkpt lat="43.20635" lon="5.50182">
        <ele>128.8</ele>
        <time>2025-10-19T08:44:54Z</time>
      </trkpt>
      <trkpt lat="43.20635" lon="5.50182">
        <ele>128.8</ele>
        <time>2025-10-19T08:44:55Z</time>
      </trkpt>
      <trkpt lat="43.20635" lon="5.50182">
        <ele>128.7</ele>
        <time>2025-10-19T08:44:56Z</time>
      </trkpt>
      <trkpt lat="43.20635" lon="5.50182">
        <ele>128.7</ele>
        <time>2025-10-19T08:44:57Z</time>
      </trkpt>
      <trkpt lat="43.20635" lon="5.50182">
        <ele>128.6</ele>
        <time>2025-10-19T08:44:58Z</time>
      </trkpt>
      <trkpt lat="43.20635" lon="5.50182">
        <ele>128.6</ele>
        <time>2025-10-19T08:44:59Z</time>
      </trkpt>
      <trkpt lat="43.20635" lon="5.50182">
        <ele>128.6</ele>
        <time>2025-10-19T08:45:00Z</time>
      </trkpt>
      <trkpt lat="43.20635" lon="5.50182">
        <ele>128.6</ele>
        <time>2025-10-19T08:45:01Z</time>
      </trkpt>
      <trkpt lat="43.20635" lon="5.50182">
        <ele>128.5</ele>
        <time>2025-10-19T08:45:02Z</time>
      </trkpt>
      <trkpt lat="43.20634" lon="5.50182">
        <ele>128.5</ele>
        <time>2025-10-19T08:45:03Z</time>
      </trkpt>
      <trkpt lat="43.20635" lon="5.50182">
        <ele>128.5</ele>
        <time>2025-10-19T08:45:04Z</time>
      </trkpt>
      <trkpt lat="43.20635" lon="5.50182">
        <ele>128.6</ele>
        <time>2025-10-19T08:45:05Z</time>
      </trkpt>
      <trkpt lat="43.20634" lon="5.50182">
        <ele>128.6</ele>
        <time>2025-10-19T08:45:06Z</time>
      </trkpt>
      <trkpt lat="43.20635" lon="5.50182">
        <ele>128.6</ele>
        <time>2025-10-19T08:45:07Z</time>
      </trkpt>
      <trkpt lat="43.20635" lon="5.50182">
        <ele>128.6</ele>
        <time>2025-10-19T08:45:08Z</time>
      </trkpt>
      <trkpt lat="43.20635" lon="5.50182">
        <ele>128.6</ele>
        <time>2025-10-19T08:45:09Z</time>
      </trkpt>
      <trkpt lat="43.20635" lon="5.50182">
        <ele>128.6</ele>
        <time>2025-10-19T08:45:10Z</time>
      </trkpt>
      <trkpt lat="43.20635" lon="5.50181">
        <ele>128.7</ele>
        <time>2025-10-19T08:45:11Z</time>
      </trkpt>
      <trkpt lat="43.20635" lon="5.50182">
        <ele>128.6</ele>
        <time>2025-10-19T08:45:12Z</time>
      </trkpt>
      <trkpt lat="43.20635" lon="5.50182">
        <ele>128.5</ele>
        <time>2025-10-19T08:45:13Z</time>
      </trkpt>
      <trkpt lat="43.20635" lon="5.50182">
        <ele>128.6</ele>
        <time>2025-10-19T08:45:14Z</time>
      </trkpt>
      <trkpt lat="43.20635" lon="5.50182">
        <ele>128.6</ele>
        <time>2025-10-19T08:45:15Z</time>
      </trkpt>
      <trkpt lat="43.20634" lon="5.50182">
        <ele>128.6</ele>
        <time>2025-10-19T08:45:16Z</time>
      </trkpt>
      <trkpt lat="43.20634" lon="5.50182">
        <ele>128.6</ele>
        <time>2025-10-19T08:45:17Z</time>
      </trkpt>
      <trkpt lat="43.20634" lon="5.50182">
        <ele>128.7</ele>
        <time>2025-10-19T08:45:18Z</time>
      </trkpt>
      <trkpt lat="43.20634" lon="5.50182">
        <ele>128.6</ele>
        <time>2025-10-19T08:45:19Z</time>
      </trkpt>
      <trkpt lat="43.20634" lon="5.50182">
        <ele>128.6</ele>
        <time>2025-10-19T08:45:20Z</time>
      </trkpt>
      <trkpt lat="43.20634" lon="5.50182">
        <ele>128.6</ele>
        <time>2025-10-19T08:45:21Z</time>
      </trkpt>
      <trkpt lat="43.20634" lon="5.50182">
        <ele>128.6</ele>
        <time>2025-10-19T08:45:22Z</time>
      </trkpt>
      <trkpt lat="43.20634" lon="5.50182">
        <ele>128.5</ele>
        <time>2025-10-19T08:45:23Z</time>
      </trkpt>
      <trkpt lat="43.20635" lon="5.50181">
        <ele>128.4</ele>
        <time>2025-10-19T08:45:24Z</time>
      </trkpt>
      <trkpt lat="43.20635" lon="5.5018">
        <ele>128.4</ele>
        <time>2025-10-19T08:45:25Z</time>
      </trkpt>
      <trkpt lat="43.20635" lon="5.50179">
        <ele>128.5</ele>
        <time>2025-10-19T08:45:26Z</time>
      </trkpt>
      <trkpt lat="43.20634" lon="5.50178">
        <ele>128.5</ele>
        <time>2025-10-19T08:45:27Z</time>
      </trkpt>
      <trkpt lat="43.20634" lon="5.50178">
        <ele>128.5</ele>
        <time>2025-10-19T08:45:28Z</time>
      </trkpt>
      <trkpt lat="43.20634" lon="5.50178">
        <ele>128.6</ele>
        <time>2025-10-19T08:45:29Z</time>
      </trkpt>
      <trkpt lat="43.20634" lon="5.50177">
        <ele>128.6</ele>
        <time>2025-10-19T08:45:30Z</time>
      </trkpt>
      <trkpt lat="43.20634" lon="5.50177">
        <ele>128.6</ele>
        <time>2025-10-19T08:45:31Z</time>
      </trkpt>
      <trkpt lat="43.20634" lon="5.50177">
        <ele>128.6</ele>
        <time>2025-10-19T08:45:32Z</time>
      </trkpt>
      <trkpt lat="43.20634" lon="5.50177">
        <ele>128.6</ele>
        <time>2025-10-19T08:45:33Z</time>
      </trkpt>
      <trkpt lat="43.20634" lon="5.50177">
        <ele>128.6</ele>
        <time>2025-10-19T08:45:34Z</time>
      </trkpt>
      <trkpt lat="43.20634" lon="5.50177">
        <ele>128.6</ele>
        <time>2025-10-19T08:45:35Z</time>
      </trkpt>
      <trkpt lat="43.20634" lon="5.50177">
        <ele>128.6</ele>
        <time>2025-10-19T08:45:36Z</time>
      </trkpt>
      <trkpt lat="43.20634" lon="5.50177">
        <ele>128.6</ele>
        <time>2025-10-19T08:45:37Z</time>
      </trkpt>
      <trkpt lat="43.20634" lon="5.50177">
        <ele>128.6</ele>
        <time>2025-10-19T08:45:38Z</time>
      </trkpt>
      <trkpt lat="43.20634" lon="5.50177">
        <ele>128.6</ele>
        <time>2025-10-19T08:45:39Z</time>
      </trkpt>
      <trkpt lat="43.20634" lon="5.50177">
        <ele>128.7</ele>
        <time>2025-10-19T08:45:40Z</time>
      </trkpt>
      <trkpt lat="43.20634" lon="5.50177">
        <ele>128.7</ele>
        <time>2025-10-19T08:45:41Z</time>
      </trkpt>
      <trkpt lat="43.20634" lon="5.50177">
        <ele>128.7</ele>
        <time>2025-10-19T08:45:42Z</time>
      </trkpt>
      <trkpt lat="43.20634" lon="5.50176">
        <ele>128.6</ele>
        <time>2025-10-19T08:45:43Z</time>
      </trkpt>
      <trkpt lat="43.20634" lon="5.50176">
        <ele>128.6</ele>
        <time>2025-10-19T08:45:44Z</time>
      </trkpt>
      <trkpt lat="43.20634" lon="5.50176">
        <ele>128.5</ele>
        <time>2025-10-19T08:45:45Z</time>
      </trkpt>
      <trkpt lat="43.20634" lon="5.50176">
        <ele>128.6</ele>
        <time>2025-10-19T08:45:46Z</time>
      </trkpt>
      <trkpt lat="43.20634" lon="5.50176">
        <ele>128.6</ele>
        <time>2025-10-19T08:45:47Z</time>
      </trkpt>
      <trkpt lat="43.20634" lon="5.50176">
        <ele>128.7</ele>
        <time>2025-10-19T08:45:48Z</time>
      </trkpt>
      <trkpt lat="43.20634" lon="5.50176">
        <ele>128.7</ele>
        <time>2025-10-19T08:45:49Z</time>
      </trkpt>
      <trkpt lat="43.20634" lon="5.50177">
        <ele>128.6</ele>
        <time>2025-10-19T08:45:50Z</time>
      </trkpt>
      <trkpt lat="43.20634" lon="5.50177">
        <ele>128.6</ele>
        <time>2025-10-19T08:45:51Z</time>
      </trkpt>
      <trkpt lat="43.20634" lon="5.50177">
        <ele>128.7</ele>
        <time>2025-10-19T08:45:52Z</time>
      </trkpt>
      <trkpt lat="43.20634" lon="5.50177">
        <ele>128.6</ele>
        <time>2025-10-19T08:45:53Z</time>
      </trkpt>
      <trkpt lat="43.20634" lon="5.50177">
        <ele>128.6</ele>
        <time>2025-10-19T08:45:54Z</time>
      </trkpt>
      <trkpt lat="43.20634" lon="5.50177">
        <ele>128.6</ele>
        <time>2025-10-19T08:45:55Z</time>
      </trkpt>
      <trkpt lat="43.20634" lon="5.50176">
        <ele>128.6</ele>
        <time>2025-10-19T08:45:56Z</time>
      </trkpt>
      <trkpt lat="43.20634" lon="5.50176">
        <ele>128.6</ele>
        <time>2025-10-19T08:45:57Z</time>
      </trkpt>
      <trkpt lat="43.20633" lon="5.50176">
        <ele>128.7</ele>
        <time>2025-10-19T08:45:58Z</time>
      </trkpt>
      <trkpt lat="43.20633" lon="5.50176">
        <ele>128.7</ele>
        <time>2025-10-19T08:45:59Z</time>
      </trkpt>
      <trkpt lat="43.20633" lon="5.50176">
        <ele>128.7</ele>
        <time>2025-10-19T08:46:00Z</time>
      </trkpt>
      <trkpt lat="43.20634" lon="5.50176">
        <ele>128.7</ele>
        <time>2025-10-19T08:46:01Z</time>
      </trkpt>
      <trkpt lat="43.20634" lon="5.50176">
        <ele>128.6</ele>
        <time>2025-10-19T08:46:02Z</time>
      </trkpt>
      <trkpt lat="43.20634" lon="5.50175">
        <ele>128.6</ele>
        <time>2025-10-19T08:46:03Z</time>
      </trkpt>
      <trkpt lat="43.20635" lon="5.50175">
        <ele>128.5</ele>
        <time>2025-10-19T08:46:04Z</time>
      </trkpt>
      <trkpt lat="43.20635" lon="5.50174">
        <ele>128.4</ele>
        <time>2025-10-19T08:46:05Z</time>
      </trkpt>
      <trkpt lat="43.20635" lon="5.50174">
        <ele>128.3</ele>
        <time>2025-10-19T08:46:06Z</time>
      </trkpt>
      <trkpt lat="43.20635" lon="5.50173">
        <ele>128.2</ele>
        <time>2025-10-19T08:46:07Z</time>
      </trkpt>
      <trkpt lat="43.20635" lon="5.50172">
        <ele>128.1</ele>
        <time>2025-10-19T08:46:08Z</time>
      </trkpt>
      <trkpt lat="43.20636" lon="5.50172">
        <ele>128</ele>
        <time>2025-10-19T08:46:09Z</time>
      </trkpt>
      <trkpt lat="43.20636" lon="5.50172">
        <ele>128</ele>
        <time>2025-10-19T08:46:10Z</time>
      </trkpt>
      <trkpt lat="43.20636" lon="5.50171">
        <ele>127.9</ele>
        <time>2025-10-19T08:46:11Z</time>
      </trkpt>
      <trkpt lat="43.20636" lon="5.50171">
        <ele>127.9</ele>
        <time>2025-10-19T08:46:12Z</time>
      </trkpt>
      <trkpt lat="43.20636" lon="5.5017">
        <ele>127.9</ele>
        <time>2025-10-19T08:46:13Z</time>
      </trkpt>
      <trkpt lat="43.20636" lon="5.50169">
        <ele>127.7</ele>
        <time>2025-10-19T08:46:14Z</time>
      </trkpt>
      <trkpt lat="43.20636" lon="5.50168">
        <ele>127.5</ele>
        <time>2025-10-19T08:46:15Z</time>
      </trkpt>
      <trkpt lat="43.20637" lon="5.50168">
        <ele>127.4</ele>
        <time>2025-10-19T08:46:16Z</time>
      </trkpt>
      <trkpt lat="43.20636" lon="5.50167">
        <ele>127.3</ele>
        <time>2025-10-19T08:46:17Z</time>
      </trkpt>
      <trkpt lat="43.20636" lon="5.50166">
        <ele>127.2</ele>
        <time>2025-10-19T08:46:18Z</time>
      </trkpt>
      <trkpt lat="43.20637" lon="5.50165">
        <ele>127.2</ele>
        <time>2025-10-19T08:46:19Z</time>
      </trkpt>
      <trkpt lat="43.20637" lon="5.50165">
        <ele>127.1</ele>
        <time>2025-10-19T08:46:20Z</time>
      </trkpt>
      <trkpt lat="43.20638" lon="5.50164">
        <ele>127</ele>
        <time>2025-10-19T08:46:21Z</time>
      </trkpt>
      <trkpt lat="43.20638" lon="5.50164">
        <ele>126.8</ele>
        <time>2025-10-19T08:46:22Z</time>
      </trkpt>
      <trkpt lat="43.20639" lon="5.50163">
        <ele>126.6</ele>
        <time>2025-10-19T08:46:23Z</time>
      </trkpt>
      <trkpt lat="43.20639" lon="5.50162">
        <ele>126.4</ele>
        <time>2025-10-19T08:46:24Z</time>
      </trkpt>
      <trkpt lat="43.2064" lon="5.50162">
        <ele>126.2</ele>
        <time>2025-10-19T08:46:25Z</time>
      </trkpt>
      <trkpt lat="43.20641" lon="5.50161">
        <ele>126.1</ele>
        <time>2025-10-19T08:46:26Z</time>
      </trkpt>
      <trkpt lat="43.20641" lon="5.5016">
        <ele>126</ele>
        <time>2025-10-19T08:46:27Z</time>
      </trkpt>
      <trkpt lat="43.20641" lon="5.5016">
        <ele>125.8</ele>
        <time>2025-10-19T08:46:28Z</time>
      </trkpt>
      <trkpt lat="43.20642" lon="5.50159">
        <ele>125.6</ele>
        <time>2025-10-19T08:46:29Z</time>
      </trkpt>
      <trkpt lat="43.20642" lon="5.50159">
        <ele>125.5</ele>
        <time>2025-10-19T08:46:30Z</time>
      </trkpt>
      <trkpt lat="43.20642" lon="5.50158">
        <ele>125.3</ele>
        <time>2025-10-19T08:46:31Z</time>
      </trkpt>
      <trkpt lat="43.20642" lon="5.50158">
        <ele>125.3</ele>
        <time>2025-10-19T08:46:32Z</time>
      </trkpt>
      <trkpt lat="43.20643" lon="5.50158">
        <ele>125.2</ele>
        <time>2025-10-19T08:46:33Z</time>
      </trkpt>
      <trkpt lat="43.20643" lon="5.50158">
        <ele>125.1</ele>
        <time>2025-10-19T08:46:34Z</time>
      </trkpt>
      <trkpt lat="43.20643" lon="5.50157">
        <ele>125</ele>
        <time>2025-10-19T08:46:35Z</time>
      </trkpt>
      <trkpt lat="43.20643" lon="5.50157">
        <ele>125</ele>
        <time>2025-10-19T08:46:36Z</time>
      </trkpt>
      <trkpt lat="43.20643" lon="5.50157">
        <ele>124.9</ele>
        <time>2025-10-19T08:46:37Z</time>
      </trkpt>
      <trkpt lat="43.20644" lon="5.50157">
        <ele>124.8</ele>
        <time>2025-10-19T08:46:38Z</time>
      </trkpt>
      <trkpt lat="43.20645" lon="5.50157">
        <ele>124.7</ele>
        <time>2025-10-19T08:46:39Z</time>
      </trkpt>
      <trkpt lat="43.20645" lon="5.50156">
        <ele>124.7</ele>
        <time>2025-10-19T08:46:40Z</time>
      </trkpt>
      <trkpt lat="43.20646" lon="5.50156">
        <ele>124.6</ele>
        <time>2025-10-19T08:46:41Z</time>
      </trkpt>
      <trkpt lat="43.20646" lon="5.50155">
        <ele>124.4</ele>
        <time>2025-10-19T08:46:42Z</time>
      </trkpt>
      <trkpt lat="43.20647" lon="5.50155">
        <ele>124.2</ele>
        <time>2025-10-19T08:46:43Z</time>
      </trkpt>
      <trkpt lat="43.20647" lon="5.50154">
        <ele>124</ele>
        <time>2025-10-19T08:46:44Z</time>
      </trkpt>
      <trkpt lat="43.20647" lon="5.50153">
        <ele>124</ele>
        <time>2025-10-19T08:46:45Z</time>
      </trkpt>
      <trkpt lat="43.20647" lon="5.50152">
        <ele>123.9</ele>
        <time>2025-10-19T08:46:46Z</time>
      </trkpt>
      <trkpt lat="43.20648" lon="5.50152">
        <ele>123.8</ele>
        <time>2025-10-19T08:46:47Z</time>
      </trkpt>
      <trkpt lat="43.20649" lon="5.50152">
        <ele>123.7</ele>
        <time>2025-10-19T08:46:48Z</time>
      </trkpt>
      <trkpt lat="43.20649" lon="5.50152">
        <ele>123.6</ele>
        <time>2025-10-19T08:46:49Z</time>
      </trkpt>
      <trkpt lat="43.2065" lon="5.50151">
        <ele>123.5</ele>
        <time>2025-10-19T08:46:50Z</time>
      </trkpt>
      <trkpt lat="43.2065" lon="5.5015">
        <ele>123.4</ele>
        <time>2025-10-19T08:46:51Z</time>
      </trkpt>
      <trkpt lat="43.2065" lon="5.5015">
        <ele>123.3</ele>
        <time>2025-10-19T08:46:52Z</time>
      </trkpt>
      <trkpt lat="43.20651" lon="5.5015">
        <ele>123.2</ele>
        <time>2025-10-19T08:46:53Z</time>
      </trkpt>
      <trkpt lat="43.20651" lon="5.5015">
        <ele>123.1</ele>
        <time>2025-10-19T08:46:54Z</time>
      </trkpt>
      <trkpt lat="43.20652" lon="5.50149">
        <ele>123.1</ele>
        <time>2025-10-19T08:46:55Z</time>
      </trkpt>
      <trkpt lat="43.20652" lon="5.50149">
        <ele>122.9</ele>
        <time>2025-10-19T08:46:56Z</time>
      </trkpt>
      <trkpt lat="43.20652" lon="5.50149">
        <ele>122.8</ele>
        <time>2025-10-19T08:46:57Z</time>
      </trkpt>
      <trkpt lat="43.20652" lon="5.50149">
        <ele>122.7</ele>
        <time>2025-10-19T08:46:58Z</time>
      </trkpt>
      <trkpt lat="43.20653" lon="5.50149">
        <ele>122.6</ele>
        <time>2025-10-19T08:46:59Z</time>
      </trkpt>
      <trkpt lat="43.20653" lon="5.50149">
        <ele>122.5</ele>
        <time>2025-10-19T08:47:00Z</time>
      </trkpt>
      <trkpt lat="43.20653" lon="5.5015">
        <ele>122.4</ele>
        <time>2025-10-19T08:47:01Z</time>
      </trkpt>
      <trkpt lat="43.20653" lon="5.5015">
        <ele>122.3</ele>
        <time>2025-10-19T08:47:02Z</time>
      </trkpt>
      <trkpt lat="43.20653" lon="5.50149">
        <ele>122.3</ele>
        <time>2025-10-19T08:47:03Z</time>
      </trkpt>
      <trkpt lat="43.20653" lon="5.50149">
        <ele>122.3</ele>
        <time>2025-10-19T08:47:04Z</time>
      </trkpt>
      <trkpt lat="43.20653" lon="5.50149">
        <ele>122.2</ele>
        <time>2025-10-19T08:47:05Z</time>
      </trkpt>
      <trkpt lat="43.20653" lon="5.50149">
        <ele>122.1</ele>
        <time>2025-10-19T08:47:06Z</time>
      </trkpt>
      <trkpt lat="43.20653" lon="5.50149">
        <ele>122.1</ele>
        <time>2025-10-19T08:47:07Z</time>
      </trkpt>
      <trkpt lat="43.20653" lon="5.50149">
        <ele>122.1</ele>
        <time>2025-10-19T08:47:08Z</time>
      </trkpt>
      <trkpt lat="43.20653" lon="5.50148">
        <ele>122.1</ele>
        <time>2025-10-19T08:47:09Z</time>
      </trkpt>
      <trkpt lat="43.20653" lon="5.50148">
        <ele>122.1</ele>
        <time>2025-10-19T08:47:10Z</time>
      </trkpt>
      <trkpt lat="43.20653" lon="5.50148">
        <ele>122.1</ele>
        <time>2025-10-19T08:47:11Z</time>
      </trkpt>
      <trkpt lat="43.20654" lon="5.50148">
        <ele>122.2</ele>
        <time>2025-10-19T08:47:12Z</time>
      </trkpt>
      <trkpt lat="43.20654" lon="5.50148">
        <ele>122.1</ele>
        <time>2025-10-19T08:47:13Z</time>
      </trkpt>
      <trkpt lat="43.20654" lon="5.50148">
        <ele>122</ele>
        <time>2025-10-19T08:47:14Z</time>
      </trkpt>
      <trkpt lat="43.20655" lon="5.50147">
        <ele>122.1</ele>
        <time>2025-10-19T08:47:15Z</time>
      </trkpt>
      <trkpt lat="43.20655" lon="5.50147">
        <ele>122.1</ele>
        <time>2025-10-19T08:47:16Z</time>
      </trkpt>
      <trkpt lat="43.20656" lon="5.50147">
        <ele>122</ele>
        <time>2025-10-19T08:47:17Z</time>
      </trkpt>
      <trkpt lat="43.20656" lon="5.50147">
        <ele>121.9</ele>
        <time>2025-10-19T08:47:18Z</time>
      </trkpt>
      <trkpt lat="43.20657" lon="5.50147">
        <ele>121.9</ele>
        <time>2025-10-19T08:47:19Z</time>
      </trkpt>
      <trkpt lat="43.20657" lon="5.50147">
        <ele>121.7</ele>
        <time>2025-10-19T08:47:20Z</time>
      </trkpt>
      <trkpt lat="43.20658" lon="5.50147">
        <ele>121.6</ele>
        <time>2025-10-19T08:47:21Z</time>
      </trkpt>
      <trkpt lat="43.20658" lon="5.50147">
        <ele>121.4</ele>
        <time>2025-10-19T08:47:22Z</time>
      </trkpt>
      <trkpt lat="43.20658" lon="5.50147">
        <ele>121.2</ele>
        <time>2025-10-19T08:47:23Z</time>
      </trkpt>
      <trkpt lat="43.20659" lon="5.50147">
        <ele>121</ele>
        <time>2025-10-19T08:47:24Z</time>
      </trkpt>
      <trkpt lat="43.20659" lon="5.50147">
        <ele>120.8</ele>
        <time>2025-10-19T08:47:25Z</time>
      </trkpt>
      <trkpt lat="43.2066" lon="5.50147">
        <ele>120.7</ele>
        <time>2025-10-19T08:47:26Z</time>
      </trkpt>
      <trkpt lat="43.2066" lon="5.50147">
        <ele>120.5</ele>
        <time>2025-10-19T08:47:27Z</time>
      </trkpt>
      <trkpt lat="43.20659" lon="5.50146">
        <ele>120.4</ele>
        <time>2025-10-19T08:47:28Z</time>
      </trkpt>
      <trkpt lat="43.20659" lon="5.50146">
        <ele>120.3</ele>
        <time>2025-10-19T08:47:29Z</time>
      </trkpt>
      <trkpt lat="43.20659" lon="5.50146">
        <ele>120.2</ele>
        <time>2025-10-19T08:47:30Z</time>
      </trkpt>
      <trkpt lat="43.20659" lon="5.50146">
        <ele>120.1</ele>
        <time>2025-10-19T08:47:31Z</time>
      </trkpt>
      <trkpt lat="43.20659" lon="5.50146">
        <ele>120.1</ele>
        <time>2025-10-19T08:47:32Z</time>
      </trkpt>
      <trkpt lat="43.20659" lon="5.50145">
        <ele>120.1</ele>
        <time>2025-10-19T08:47:33Z</time>
      </trkpt>
      <trkpt lat="43.2066" lon="5.50145">
        <ele>120.1</ele>
        <time>2025-10-19T08:47:34Z</time>
      </trkpt>
      <trkpt lat="43.2066" lon="5.50145">
        <ele>120</ele>
        <time>2025-10-19T08:47:35Z</time>
      </trkpt>
      <trkpt lat="43.2066" lon="5.50145">
        <ele>120</ele>
        <time>2025-10-19T08:47:36Z</time>
      </trkpt>
      <trkpt lat="43.2066" lon="5.50145">
        <ele>119.9</ele>
        <time>2025-10-19T08:47:37Z</time>
      </trkpt>
      <trkpt lat="43.2066" lon="5.50145">
        <ele>119.8</ele>
        <time>2025-10-19T08:47:38Z</time>
      </trkpt>
      <trkpt lat="43.2066" lon="5.50145">
        <ele>119.8</ele>
        <time>2025-10-19T08:47:39Z</time>
      </trkpt>
      <trkpt lat="43.2066" lon="5.50145">
        <ele>119.7</ele>
        <time>2025-10-19T08:47:40Z</time>
      </trkpt>
      <trkpt lat="43.20661" lon="5.50146">
        <ele>119.7</ele>
        <time>2025-10-19T08:47:41Z</time>
      </trkpt>
      <trkpt lat="43.20661" lon="5.50146">
        <ele>119.6</ele>
        <time>2025-10-19T08:47:42Z</time>
      </trkpt>
      <trkpt lat="43.20661" lon="5.50146">
        <ele>119.5</ele>
        <time>2025-10-19T08:47:43Z</time>
      </trkpt>
      <trkpt lat="43.20662" lon="5.50146">
        <ele>119.3</ele>
        <time>2025-10-19T08:47:44Z</time>
      </trkpt>
      <trkpt lat="43.20662" lon="5.50146">
        <ele>119.1</ele>
        <time>2025-10-19T08:47:45Z</time>
      </trkpt>
      <trkpt lat="43.20663" lon="5.50146">
        <ele>118.9</ele>
        <time>2025-10-19T08:47:46Z</time>
      </trkpt>
      <trkpt lat="43.20663" lon="5.50146">
        <ele>118.8</ele>
        <time>2025-10-19T08:47:47Z</time>
      </trkpt>
      <trkpt lat="43.20664" lon="5.50146">
        <ele>118.6</ele>
        <time>2025-10-19T08:47:48Z</time>
      </trkpt>
      <trkpt lat="43.20664" lon="5.50146">
        <ele>118.5</ele>
        <time>2025-10-19T08:47:49Z</time>
      </trkpt>
      <trkpt lat="43.20664" lon="5.50146">
        <ele>118.3</ele>
        <time>2025-10-19T08:47:50Z</time>
      </trkpt>
      <trkpt lat="43.20664" lon="5.50146">
        <ele>118.3</ele>
        <time>2025-10-19T08:47:51Z</time>
      </trkpt>
      <trkpt lat="43.20665" lon="5.50147">
        <ele>118.3</ele>
        <time>2025-10-19T08:47:52Z</time>
      </trkpt>
      <trkpt lat="43.20665" lon="5.50147">
        <ele>118.2</ele>
        <time>2025-10-19T08:47:53Z</time>
      </trkpt>
      <trkpt lat="43.20665" lon="5.50147">
        <ele>118.2</ele>
        <time>2025-10-19T08:47:54Z</time>
      </trkpt>
      <trkpt lat="43.20665" lon="5.50147">
        <ele>118.2</ele>
        <time>2025-10-19T08:47:55Z</time>
      </trkpt>
      <trkpt lat="43.20666" lon="5.50148">
        <ele>118.2</ele>
        <time>2025-10-19T08:47:56Z</time>
      </trkpt>
      <trkpt lat="43.20666" lon="5.50148">
        <ele>118.2</ele>
        <time>2025-10-19T08:47:57Z</time>
      </trkpt>
      <trkpt lat="43.20666" lon="5.50148">
        <ele>118.2</ele>
        <time>2025-10-19T08:47:58Z</time>
      </trkpt>
      <trkpt lat="43.20666" lon="5.50148">
        <ele>118.2</ele>
        <time>2025-10-19T08:47:59Z</time>
      </trkpt>
      <trkpt lat="43.20667" lon="5.50148">
        <ele>118.2</ele>
        <time>2025-10-19T08:48:00Z</time>
      </trkpt>
      <trkpt lat="43.20667" lon="5.50149">
        <ele>118.2</ele>
        <time>2025-10-19T08:48:01Z</time>
      </trkpt>
      <trkpt lat="43.20667" lon="5.50149">
        <ele>118.3</ele>
        <time>2025-10-19T08:48:02Z</time>
      </trkpt>
      <trkpt lat="43.20667" lon="5.50149">
        <ele>118.3</ele>
        <time>2025-10-19T08:48:03Z</time>
      </trkpt>
      <trkpt lat="43.20667" lon="5.50149">
        <ele>118.3</ele>
        <time>2025-10-19T08:48:04Z</time>
      </trkpt>
      <trkpt lat="43.20667" lon="5.50149">
        <ele>118.3</ele>
        <time>2025-10-19T08:48:05Z</time>
      </trkpt>
      <trkpt lat="43.20667" lon="5.50149">
        <ele>118.3</ele>
        <time>2025-10-19T08:48:06Z</time>
      </trkpt>
      <trkpt lat="43.20667" lon="5.50149">
        <ele>118.2</ele>
        <time>2025-10-19T08:48:07Z</time>
      </trkpt>
      <trkpt lat="43.20667" lon="5.50149">
        <ele>118.2</ele>
        <time>2025-10-19T08:48:08Z</time>
      </trkpt>
      <trkpt lat="43.20667" lon="5.50149">
        <ele>118.2</ele>
        <time>2025-10-19T08:48:09Z</time>
      </trkpt>
      <trkpt lat="43.20668" lon="5.50149">
        <ele>118.2</ele>
        <time>2025-10-19T08:48:10Z</time>
      </trkpt>
      <trkpt lat="43.20668" lon="5.50149">
        <ele>118.2</ele>
        <time>2025-10-19T08:48:11Z</time>
      </trkpt>
      <trkpt lat="43.20668" lon="5.50149">
        <ele>118.2</ele>
        <time>2025-10-19T08:48:12Z</time>
      </trkpt>
      <trkpt lat="43.20668" lon="5.50149">
        <ele>118.2</ele>
        <time>2025-10-19T08:48:13Z</time>
      </trkpt>
      <trkpt lat="43.20668" lon="5.50149">
        <ele>118.2</ele>
        <time>2025-10-19T08:48:14Z</time>
      </trkpt>
      <trkpt lat="43.20668" lon="5.50149">
        <ele>118.2</ele>
        <time>2025-10-19T08:48:15Z</time>
      </trkpt>
      <trkpt lat="43.20668" lon="5.50149">
        <ele>118.2</ele>
        <time>2025-10-19T08:48:16Z</time>
      </trkpt>
      <trkpt lat="43.20668" lon="5.50148">
        <ele>118.2</ele>
        <time>2025-10-19T08:48:17Z</time>
      </trkpt>
      <trkpt lat="43.20668" lon="5.50148">
        <ele>118.1</ele>
        <time>2025-10-19T08:48:18Z</time>
      </trkpt>
      <trkpt lat="43.20668" lon="5.50148">
        <ele>118</ele>
        <time>2025-10-19T08:48:19Z</time>
      </trkpt>
      <trkpt lat="43.20668" lon="5.50148">
        <ele>117.8</ele>
        <time>2025-10-19T08:48:20Z</time>
      </trkpt>
      <trkpt lat="43.20668" lon="5.50148">
        <ele>117.6</ele>
        <time>2025-10-19T08:48:21Z</time>
      </trkpt>
      <trkpt lat="43.20668" lon="5.50148">
        <ele>117.5</ele>
        <time>2025-10-19T08:48:22Z</time>
      </trkpt>
      <trkpt lat="43.20669" lon="5.50148">
        <ele>117.4</ele>
        <time>2025-10-19T08:48:23Z</time>
      </trkpt>
      <trkpt lat="43.20669" lon="5.50148">
        <ele>117.3</ele>
        <time>2025-10-19T08:48:24Z</time>
      </trkpt>
      <trkpt lat="43.2067" lon="5.50147">
        <ele>117.2</ele>
        <time>2025-10-19T08:48:25Z</time>
      </trkpt>
      <trkpt lat="43.2067" lon="5.50146">
        <ele>117</ele>
        <time>2025-10-19T08:48:26Z</time>
      </trkpt>
      <trkpt lat="43.2067" lon="5.50146">
        <ele>116.9</ele>
        <time>2025-10-19T08:48:27Z</time>
      </trkpt>
      <trkpt lat="43.20669" lon="5.50145">
        <ele>116.8</ele>
        <time>2025-10-19T08:48:28Z</time>
      </trkpt>
      <trkpt lat="43.20669" lon="5.50145">
        <ele>116.6</ele>
        <time>2025-10-19T08:48:29Z</time>
      </trkpt>
      <trkpt lat="43.20669" lon="5.50144">
        <ele>116.4</ele>
        <time>2025-10-19T08:48:30Z</time>
      </trkpt>
      <trkpt lat="43.20669" lon="5.50144">
        <ele>116.2</ele>
        <time>2025-10-19T08:48:31Z</time>
      </trkpt>
      <trkpt lat="43.20668" lon="5.50143">
        <ele>116</ele>
        <time>2025-10-19T08:48:32Z</time>
      </trkpt>
      <trkpt lat="43.20668" lon="5.50142">
        <ele>115.7</ele>
        <time>2025-10-19T08:48:33Z</time>
      </trkpt>
      <trkpt lat="43.20668" lon="5.50142">
        <ele>115.5</ele>
        <time>2025-10-19T08:48:34Z</time>
      </trkpt>
      <trkpt lat="43.20668" lon="5.50142">
        <ele>115.3</ele>
        <time>2025-10-19T08:48:35Z</time>
      </trkpt>
      <trkpt lat="43.20667" lon="5.50141">
        <ele>115.2</ele>
        <time>2025-10-19T08:48:36Z</time>
      </trkpt>
      <trkpt lat="43.20667" lon="5.50141">
        <ele>115</ele>
        <time>2025-10-19T08:48:37Z</time>
      </trkpt>
      <trkpt lat="43.20667" lon="5.50141">
        <ele>114.9</ele>
        <time>2025-10-19T08:48:38Z</time>
      </trkpt>
      <trkpt lat="43.20667" lon="5.50141">
        <ele>114.8</ele>
        <time>2025-10-19T08:48:39Z</time>
      </trkpt>
      <trkpt lat="43.20667" lon="5.50141">
        <ele>114.7</ele>
        <time>2025-10-19T08:48:40Z</time>
      </trkpt>
      <trkpt lat="43.20667" lon="5.50141">
        <ele>114.6</ele>
        <time>2025-10-19T08:48:41Z</time>
      </trkpt>
      <trkpt lat="43.20667" lon="5.50141">
        <ele>114.4</ele>
        <time>2025-10-19T08:48:42Z</time>
      </trkpt>
      <trkpt lat="43.20668" lon="5.5014">
        <ele>114.2</ele>
        <time>2025-10-19T08:48:43Z</time>
      </trkpt>
      <trkpt lat="43.20669" lon="5.50141">
        <ele>114</ele>
        <time>2025-10-19T08:48:44Z</time>
      </trkpt>
      <trkpt lat="43.20669" lon="5.50141">
        <ele>113.9</ele>
        <time>2025-10-19T08:48:45Z</time>
      </trkpt>
      <trkpt lat="43.20669" lon="5.5014">
        <ele>113.7</ele>
        <time>2025-10-19T08:48:46Z</time>
      </trkpt>
      <trkpt lat="43.20669" lon="5.5014">
        <ele>113.6</ele>
        <time>2025-10-19T08:48:47Z</time>
      </trkpt>
      <trkpt lat="43.20669" lon="5.5014">
        <ele>113.5</ele>
        <time>2025-10-19T08:48:48Z</time>
      </trkpt>
      <trkpt lat="43.20669" lon="5.50139">
        <ele>113.4</ele>
        <time>2025-10-19T08:48:49Z</time>
      </trkpt>
      <trkpt lat="43.20669" lon="5.50139">
        <ele>113.2</ele>
        <time>2025-10-19T08:48:50Z</time>
      </trkpt>
      <trkpt lat="43.20669" lon="5.50138">
        <ele>113</ele>
        <time>2025-10-19T08:48:51Z</time>
      </trkpt>
      <trkpt lat="43.2067" lon="5.50138">
        <ele>112.8</ele>
        <time>2025-10-19T08:48:52Z</time>
      </trkpt>
      <trkpt lat="43.2067" lon="5.50138">
        <ele>112.7</ele>
        <time>2025-10-19T08:48:53Z</time>
      </trkpt>
      <trkpt lat="43.2067" lon="5.50138">
        <ele>112.5</ele>
        <time>2025-10-19T08:48:54Z</time>
      </trkpt>
      <trkpt lat="43.2067" lon="5.50138">
        <ele>112.3</ele>
        <time>2025-10-19T08:48:55Z</time>
      </trkpt>
      <trkpt lat="43.2067" lon="5.50138">
        <ele>112.1</ele>
        <time>2025-10-19T08:48:56Z</time>
      </trkpt>
      <trkpt lat="43.2067" lon="5.50138">
        <ele>112</ele>
        <time>2025-10-19T08:48:57Z</time>
      </trkpt>
      <trkpt lat="43.20671" lon="5.50138">
        <ele>111.9</ele>
        <time>2025-10-19T08:48:58Z</time>
      </trkpt>
      <trkpt lat="43.20671" lon="5.50138">
        <ele>111.8</ele>
        <time>2025-10-19T08:48:59Z</time>
      </trkpt>
      <trkpt lat="43.20671" lon="5.50138">
        <ele>111.7</ele>
        <time>2025-10-19T08:49:00Z</time>
      </trkpt>
      <trkpt lat="43.20671" lon="5.50138">
        <ele>111.5</ele>
        <time>2025-10-19T08:49:01Z</time>
      </trkpt>
      <trkpt lat="43.20671" lon="5.50138">
        <ele>111.5</ele>
        <time>2025-10-19T08:49:02Z</time>
      </trkpt>
      <trkpt lat="43.20671" lon="5.50137">
        <ele>111.4</ele>
        <time>2025-10-19T08:49:03Z</time>
      </trkpt>
      <trkpt lat="43.20671" lon="5.50136">
        <ele>111.4</ele>
        <time>2025-10-19T08:49:04Z</time>
      </trkpt>
      <trkpt lat="43.20671" lon="5.50136">
        <ele>111.2</ele>
        <time>2025-10-19T08:49:05Z</time>
      </trkpt>
      <trkpt lat="43.20671" lon="5.50137">
        <ele>111.1</ele>
        <time>2025-10-19T08:49:06Z</time>
      </trkpt>
      <trkpt lat="43.20671" lon="5.50137">
        <ele>111</ele>
        <time>2025-10-19T08:49:07Z</time>
      </trkpt>
      <trkpt lat="43.20671" lon="5.50137">
        <ele>110.9</ele>
        <time>2025-10-19T08:49:08Z</time>
      </trkpt>
      <trkpt lat="43.20671" lon="5.50137">
        <ele>110.8</ele>
        <time>2025-10-19T08:49:09Z</time>
      </trkpt>
      <trkpt lat="43.20671" lon="5.50137">
        <ele>110.8</ele>
        <time>2025-10-19T08:49:10Z</time>
      </trkpt>
      <trkpt lat="43.20671" lon="5.50137">
        <ele>110.7</ele>
        <time>2025-10-19T08:49:11Z</time>
      </trkpt>
      <trkpt lat="43.20672" lon="5.50137">
        <ele>110.6</ele>
        <time>2025-10-19T08:49:12Z</time>
      </trkpt>
      <trkpt lat="43.20672" lon="5.50137">
        <ele>110.6</ele>
        <time>2025-10-19T08:49:13Z</time>
      </trkpt>
      <trkpt lat="43.20672" lon="5.50136">
        <ele>110.5</ele>
        <time>2025-10-19T08:49:14Z</time>
      </trkpt>
      <trkpt lat="43.20672" lon="5.50136">
        <ele>110.5</ele>
        <time>2025-10-19T08:49:15Z</time>
      </trkpt>
      <trkpt lat="43.20672" lon="5.50135">
        <ele>110.3</ele>
        <time>2025-10-19T08:49:16Z</time>
      </trkpt>
      <trkpt lat="43.20672" lon="5.50135">
        <ele>110.2</ele>
        <time>2025-10-19T08:49:17Z</time>
      </trkpt>
      <trkpt lat="43.20672" lon="5.50135">
        <ele>110.1</ele>
        <time>2025-10-19T08:49:18Z</time>
      </trkpt>
      <trkpt lat="43.20672" lon="5.50135">
        <ele>109.9</ele>
        <time>2025-10-19T08:49:19Z</time>
      </trkpt>
      <trkpt lat="43.20672" lon="5.50135">
        <ele>109.7</ele>
        <time>2025-10-19T08:49:20Z</time>
      </trkpt>
      <trkpt lat="43.20672" lon="5.50135">
        <ele>109.6</ele>
        <time>2025-10-19T08:49:21Z</time>
      </trkpt>
      <trkpt lat="43.20673" lon="5.50134">
        <ele>109.4</ele>
        <time>2025-10-19T08:49:22Z</time>
      </trkpt>
      <trkpt lat="43.20673" lon="5.50134">
        <ele>109.2</ele>
        <time>2025-10-19T08:49:23Z</time>
      </trkpt>
      <trkpt lat="43.20672" lon="5.50133">
        <ele>109</ele>
        <time>2025-10-19T08:49:24Z</time>
      </trkpt>
      <trkpt lat="43.20673" lon="5.50132">
        <ele>108.9</ele>
        <time>2025-10-19T08:49:25Z</time>
      </trkpt>
      <trkpt lat="43.20672" lon="5.50132">
        <ele>108.7</ele>
        <time>2025-10-19T08:49:26Z</time>
      </trkpt>
      <trkpt lat="43.20672" lon="5.50132">
        <ele>108.5</ele>
        <time>2025-10-19T08:49:27Z</time>
      </trkpt>
      <trkpt lat="43.20671" lon="5.50131">
        <ele>108.3</ele>
        <time>2025-10-19T08:49:28Z</time>
      </trkpt>
      <trkpt lat="43.20671" lon="5.50131">
        <ele>108.2</ele>
        <time>2025-10-19T08:49:29Z</time>
      </trkpt>
      <trkpt lat="43.20671" lon="5.50131">
        <ele>108</ele>
        <time>2025-10-19T08:49:30Z</time>
      </trkpt>
      <trkpt lat="43.2067" lon="5.5013">
        <ele>107.9</ele>
        <time>2025-10-19T08:49:31Z</time>
      </trkpt>
      <trkpt lat="43.2067" lon="5.5013">
        <ele>107.8</ele>
        <time>2025-10-19T08:49:32Z</time>
      </trkpt>
      <trkpt lat="43.2067" lon="5.50129">
        <ele>107.6</ele>
        <time>2025-10-19T08:49:33Z</time>
      </trkpt>
      <trkpt lat="43.2067" lon="5.50128">
        <ele>107.4</ele>
        <time>2025-10-19T08:49:34Z</time>
      </trkpt>
      <trkpt lat="43.2067" lon="5.50128">
        <ele>107.2</ele>
        <time>2025-10-19T08:49:35Z</time>
      </trkpt>
      <trkpt lat="43.2067" lon="5.50127">
        <ele>107.1</ele>
        <time>2025-10-19T08:49:36Z</time>
      </trkpt>
      <trkpt lat="43.2067" lon="5.50127">
        <ele>107</ele>
        <time>2025-10-19T08:49:37Z</time>
      </trkpt>
      <trkpt lat="43.20669" lon="5.50128">
        <ele>106.8</ele>
        <time>2025-10-19T08:49:38Z</time>
      </trkpt>
      <trkpt lat="43.20669" lon="5.50128">
        <ele>106.7</ele>
        <time>2025-10-19T08:49:39Z</time>
      </trkpt>
      <trkpt lat="43.20669" lon="5.50128">
        <ele>106.6</ele>
        <time>2025-10-19T08:49:40Z</time>
      </trkpt>
      <trkpt lat="43.20669" lon="5.50128">
        <ele>106.5</ele>
        <time>2025-10-19T08:49:41Z</time>
      </trkpt>
      <trkpt lat="43.20669" lon="5.50128">
        <ele>106.5</ele>
        <time>2025-10-19T08:49:42Z</time>
      </trkpt>
      <trkpt lat="43.20668" lon="5.50128">
        <ele>106.3</ele>
        <time>2025-10-19T08:49:43Z</time>
      </trkpt>
      <trkpt lat="43.20668" lon="5.50127">
        <ele>106.2</ele>
        <time>2025-10-19T08:49:44Z</time>
      </trkpt>
      <trkpt lat="43.20667" lon="5.50127">
        <ele>106.1</ele>
        <time>2025-10-19T08:49:45Z</time>
      </trkpt>
      <trkpt lat="43.20667" lon="5.50127">
        <ele>106.1</ele>
        <time>2025-10-19T08:49:46Z</time>
      </trkpt>
      <trkpt lat="43.20667" lon="5.50127">
        <ele>106</ele>
        <time>2025-10-19T08:49:47Z</time>
      </trkpt>
      <trkpt lat="43.20667" lon="5.50126">
        <ele>106</ele>
        <time>2025-10-19T08:49:48Z</time>
      </trkpt>
      <trkpt lat="43.20667" lon="5.50126">
        <ele>106</ele>
        <time>2025-10-19T08:49:49Z</time>
      </trkpt>
      <trkpt lat="43.20667" lon="5.50126">
        <ele>106</ele>
        <time>2025-10-19T08:49:50Z</time>
      </trkpt>
      <trkpt lat="43.20667" lon="5.50126">
        <ele>106</ele>
        <time>2025-10-19T08:49:51Z</time>
      </trkpt>
      <trkpt lat="43.20667" lon="5.50126">
        <ele>106</ele>
        <time>2025-10-19T08:49:52Z</time>
      </trkpt>
      <trkpt lat="43.20667" lon="5.50125">
        <ele>106.1</ele>
        <time>2025-10-19T08:49:53Z</time>
      </trkpt>
      <trkpt lat="43.20666" lon="5.50125">
        <ele>106</ele>
        <time>2025-10-19T08:49:54Z</time>
      </trkpt>
      <trkpt lat="43.20666" lon="5.50124">
        <ele>105.9</ele>
        <time>2025-10-19T08:49:55Z</time>
      </trkpt>
      <trkpt lat="43.20666" lon="5.50123">
        <ele>105.9</ele>
        <time>2025-10-19T08:49:56Z</time>
      </trkpt>
      <trkpt lat="43.20666" lon="5.50123">
        <ele>105.8</ele>
        <time>2025-10-19T08:49:57Z</time>
      </trkpt>
      <trkpt lat="43.20666" lon="5.50122">
        <ele>105.7</ele>
        <time>2025-10-19T08:49:58Z</time>
      </trkpt>
      <trkpt lat="43.20666" lon="5.50123">
        <ele>105.6</ele>
        <time>2025-10-19T08:49:59Z</time>
      </trkpt>
      <trkpt lat="43.20666" lon="5.50123">
        <ele>105.5</ele>
        <time>2025-10-19T08:50:00Z</time>
      </trkpt>
      <trkpt lat="43.20666" lon="5.50123">
        <ele>105.4</ele>
        <time>2025-10-19T08:50:01Z</time>
      </trkpt>
      <trkpt lat="43.20666" lon="5.50123">
        <ele>105.3</ele>
        <time>2025-10-19T08:50:02Z</time>
      </trkpt>
      <trkpt lat="43.20666" lon="5.50123">
        <ele>105.2</ele>
        <time>2025-10-19T08:50:03Z</time>
      </trkpt>
      <trkpt lat="43.20666" lon="5.50123">
        <ele>105.1</ele>
        <time>2025-10-19T08:50:04Z</time>
      </trkpt>
      <trkpt lat="43.20666" lon="5.50123">
        <ele>104.9</ele>
        <time>2025-10-19T08:50:05Z</time>
      </trkpt>
      <trkpt lat="43.20666" lon="5.50123">
        <ele>104.7</ele>
        <time>2025-10-19T08:50:06Z</time>
      </trkpt>
      <trkpt lat="43.20666" lon="5.50122">
        <ele>104.6</ele>
        <time>2025-10-19T08:50:07Z</time>
      </trkpt>
      <trkpt lat="43.20666" lon="5.50122">
        <ele>104.5</ele>
        <time>2025-10-19T08:50:08Z</time>
      </trkpt>
      <trkpt lat="43.20666" lon="5.50122">
        <ele>104.3</ele>
        <time>2025-10-19T08:50:09Z</time>
      </trkpt>
      <trkpt lat="43.20666" lon="5.50121">
        <ele>104.1</ele>
        <time>2025-10-19T08:50:10Z</time>
      </trkpt>
      <trkpt lat="43.20666" lon="5.50121">
        <ele>104</ele>
        <time>2025-10-19T08:50:11Z</time>
      </trkpt>
      <trkpt lat="43.20665" lon="5.50121">
        <ele>103.8</ele>
        <time>2025-10-19T08:50:12Z</time>
      </trkpt>
      <trkpt lat="43.20665" lon="5.5012">
        <ele>103.5</ele>
        <time>2025-10-19T08:50:13Z</time>
      </trkpt>
      <trkpt lat="43.20665" lon="5.5012">
        <ele>103.3</ele>
        <time>2025-10-19T08:50:14Z</time>
      </trkpt>
      <trkpt lat="43.20665" lon="5.50119">
        <ele>103.1</ele>
        <time>2025-10-19T08:50:15Z</time>
      </trkpt>
      <trkpt lat="43.20665" lon="5.50118">
        <ele>102.9</ele>
        <time>2025-10-19T08:50:16Z</time>
      </trkpt>
      <trkpt lat="43.20665" lon="5.50118">
        <ele>102.5</ele>
        <time>2025-10-19T08:50:17Z</time>
      </trkpt>
      <trkpt lat="43.20665" lon="5.50118">
        <ele>102.3</ele>
        <time>2025-10-19T08:50:18Z</time>
      </trkpt>
      <trkpt lat="43.20665" lon="5.50117">
        <ele>102.2</ele>
        <time>2025-10-19T08:50:19Z</time>
      </trkpt>
      <trkpt lat="43.20665" lon="5.50118">
        <ele>102.1</ele>
        <time>2025-10-19T08:50:20Z</time>
      </trkpt>
      <trkpt lat="43.20665" lon="5.50118">
        <ele>102</ele>
        <time>2025-10-19T08:50:21Z</time>
      </trkpt>
      <trkpt lat="43.20665" lon="5.50118">
        <ele>102</ele>
        <time>2025-10-19T08:50:22Z</time>
      </trkpt>
      <trkpt lat="43.20664" lon="5.50118">
        <ele>101.8</ele>
        <time>2025-10-19T08:50:23Z</time>
      </trkpt>
      <trkpt lat="43.20664" lon="5.50118">
        <ele>101.7</ele>
        <time>2025-10-19T08:50:24Z</time>
      </trkpt>
      <trkpt lat="43.20664" lon="5.50117">
        <ele>101.6</ele>
        <time>2025-10-19T08:50:25Z</time>
      </trkpt>
      <trkpt lat="43.20665" lon="5.50117">
        <ele>101.7</ele>
        <time>2025-10-19T08:50:26Z</time>
      </trkpt>
      <trkpt lat="43.20665" lon="5.50117">
        <ele>101.6</ele>
        <time>2025-10-19T08:50:27Z</time>
      </trkpt>
      <trkpt lat="43.20665" lon="5.50116">
        <ele>101.5</ele>
        <time>2025-10-19T08:50:28Z</time>
      </trkpt>
      <trkpt lat="43.20665" lon="5.50116">
        <ele>101.4</ele>
        <time>2025-10-19T08:50:29Z</time>
      </trkpt>
      <trkpt lat="43.20665" lon="5.50116">
        <ele>101.3</ele>
        <time>2025-10-19T08:50:30Z</time>
      </trkpt>
      <trkpt lat="43.20665" lon="5.50115">
        <ele>101.2</ele>
        <time>2025-10-19T08:50:31Z</time>
      </trkpt>
      <trkpt lat="43.20665" lon="5.50116">
        <ele>101.2</ele>
        <time>2025-10-19T08:50:32Z</time>
      </trkpt>
      <trkpt lat="43.20665" lon="5.50115">
        <ele>101.1</ele>
        <time>2025-10-19T08:50:33Z</time>
      </trkpt>
      <trkpt lat="43.20666" lon="5.50115">
        <ele>101</ele>
        <time>2025-10-19T08:50:34Z</time>
      </trkpt>
      <trkpt lat="43.20666" lon="5.50115">
        <ele>100.9</ele>
        <time>2025-10-19T08:50:35Z</time>
      </trkpt>
      <trkpt lat="43.20667" lon="5.50114">
        <ele>100.8</ele>
        <time>2025-10-19T08:50:36Z</time>
      </trkpt>
      <trkpt lat="43.20668" lon="5.50114">
        <ele>100.7</ele>
        <time>2025-10-19T08:50:37Z</time>
      </trkpt>
      <trkpt lat="43.20668" lon="5.50115">
        <ele>100.6</ele>
        <time>2025-10-19T08:50:38Z</time>
      </trkpt>
      <trkpt lat="43.20668" lon="5.50114">
        <ele>100.5</ele>
        <time>2025-10-19T08:50:39Z</time>
      </trkpt>
      <trkpt lat="43.20668" lon="5.50113">
        <ele>100.4</ele>
        <time>2025-10-19T08:50:40Z</time>
      </trkpt>
      <trkpt lat="43.20668" lon="5.50113">
        <ele>100.2</ele>
        <time>2025-10-19T08:50:41Z</time>
      </trkpt>
      <trkpt lat="43.20668" lon="5.50112">
        <ele>100.1</ele>
        <time>2025-10-19T08:50:42Z</time>
      </trkpt>
      <trkpt lat="43.20667" lon="5.50111">
        <ele>99.9</ele>
        <time>2025-10-19T08:50:43Z</time>
      </trkpt>
      <trkpt lat="43.20668" lon="5.50111">
        <ele>99.7</ele>
        <time>2025-10-19T08:50:44Z</time>
      </trkpt>
      <trkpt lat="43.20668" lon="5.5011">
        <ele>99.3</ele>
        <time>2025-10-19T08:50:45Z</time>
      </trkpt>
      <trkpt lat="43.20669" lon="5.50109">
        <ele>99.1</ele>
        <time>2025-10-19T08:50:46Z</time>
      </trkpt>
      <trkpt lat="43.20669" lon="5.50109">
        <ele>99</ele>
        <time>2025-10-19T08:50:47Z</time>
      </trkpt>
      <trkpt lat="43.2067" lon="5.50109">
        <ele>98.8</ele>
        <time>2025-10-19T08:50:48Z</time>
      </trkpt>
      <trkpt lat="43.2067" lon="5.50109">
        <ele>98.6</ele>
        <time>2025-10-19T08:50:49Z</time>
      </trkpt>
      <trkpt lat="43.2067" lon="5.50109">
        <ele>98.5</ele>
        <time>2025-10-19T08:50:50Z</time>
      </trkpt>
      <trkpt lat="43.20671" lon="5.50108">
        <ele>98.4</ele>
        <time>2025-10-19T08:50:51Z</time>
      </trkpt>
      <trkpt lat="43.20671" lon="5.50108">
        <ele>98.2</ele>
        <time>2025-10-19T08:50:52Z</time>
      </trkpt>
      <trkpt lat="43.20671" lon="5.50107">
        <ele>98</ele>
        <time>2025-10-19T08:50:53Z</time>
      </trkpt>
      <trkpt lat="43.20672" lon="5.50106">
        <ele>97.9</ele>
        <time>2025-10-19T08:50:54Z</time>
      </trkpt>
      <trkpt lat="43.20672" lon="5.50107">
        <ele>97.8</ele>
        <time>2025-10-19T08:50:55Z</time>
      </trkpt>
      <trkpt lat="43.20673" lon="5.50107">
        <ele>97.7</ele>
        <time>2025-10-19T08:50:56Z</time>
      </trkpt>
      <trkpt lat="43.20673" lon="5.50106">
        <ele>97.5</ele>
        <time>2025-10-19T08:50:57Z</time>
      </trkpt>
      <trkpt lat="43.20673" lon="5.50106">
        <ele>97.4</ele>
        <time>2025-10-19T08:50:58Z</time>
      </trkpt>
      <trkpt lat="43.20673" lon="5.50105">
        <ele>97.1</ele>
        <time>2025-10-19T08:50:59Z</time>
      </trkpt>
      <trkpt lat="43.20673" lon="5.50105">
        <ele>96.9</ele>
        <time>2025-10-19T08:51:00Z</time>
      </trkpt>
      <trkpt lat="43.20673" lon="5.50105">
        <ele>96.8</ele>
        <time>2025-10-19T08:51:01Z</time>
      </trkpt>
      <trkpt lat="43.20673" lon="5.50104">
        <ele>96.5</ele>
        <time>2025-10-19T08:51:02Z</time>
      </trkpt>
      <trkpt lat="43.20674" lon="5.50104">
        <ele>96.3</ele>
        <time>2025-10-19T08:51:03Z</time>
      </trkpt>
      <trkpt lat="43.20674" lon="5.50104">
        <ele>96.1</ele>
        <time>2025-10-19T08:51:04Z</time>
      </trkpt>
      <trkpt lat="43.20674" lon="5.50104">
        <ele>96</ele>
        <time>2025-10-19T08:51:05Z</time>
      </trkpt>
      <trkpt lat="43.20674" lon="5.50104">
        <ele>95.8</ele>
        <time>2025-10-19T08:51:06Z</time>
      </trkpt>
      <trkpt lat="43.20675" lon="5.50103">
        <ele>95.7</ele>
        <time>2025-10-19T08:51:07Z</time>
      </trkpt>
      <trkpt lat="43.20675" lon="5.50103">
        <ele>95.6</ele>
        <time>2025-10-19T08:51:08Z</time>
      </trkpt>
      <trkpt lat="43.20675" lon="5.50104">
        <ele>95.4</ele>
        <time>2025-10-19T08:51:09Z</time>
      </trkpt>
      <trkpt lat="43.20676" lon="5.50105">
        <ele>95.4</ele>
        <time>2025-10-19T08:51:10Z</time>
      </trkpt>
      <trkpt lat="43.20676" lon="5.50105">
        <ele>95.3</ele>
        <time>2025-10-19T08:51:11Z</time>
      </trkpt>
      <trkpt lat="43.20676" lon="5.50104">
        <ele>95.3</ele>
        <time>2025-10-19T08:51:12Z</time>
      </trkpt>
      <trkpt lat="43.20676" lon="5.50104">
        <ele>95.2</ele>
        <time>2025-10-19T08:51:13Z</time>
      </trkpt>
      <trkpt lat="43.20677" lon="5.50103">
        <ele>95</ele>
        <time>2025-10-19T08:51:14Z</time>
      </trkpt>
      <trkpt lat="43.20677" lon="5.50103">
        <ele>94.9</ele>
        <time>2025-10-19T08:51:15Z</time>
      </trkpt>
      <trkpt lat="43.20678" lon="5.50102">
        <ele>94.8</ele>
        <time>2025-10-19T08:51:16Z</time>
      </trkpt>
      <trkpt lat="43.20678" lon="5.50102">
        <ele>94.6</ele>
        <time>2025-10-19T08:51:17Z</time>
      </trkpt>
      <trkpt lat="43.20678" lon="5.50102">
        <ele>94.3</ele>
        <time>2025-10-19T08:51:18Z</time>
      </trkpt>
      <trkpt lat="43.20678" lon="5.50101">
        <ele>94.1</ele>
        <time>2025-10-19T08:51:19Z</time>
      </trkpt>
      <trkpt lat="43.20678" lon="5.501">
        <ele>93.8</ele>
        <time>2025-10-19T08:51:20Z</time>
      </trkpt>
      <trkpt lat="43.20679" lon="5.50099">
        <ele>93.5</ele>
        <time>2025-10-19T08:51:21Z</time>
      </trkpt>
      <trkpt lat="43.20679" lon="5.50098">
        <ele>93.3</ele>
        <time>2025-10-19T08:51:22Z</time>
      </trkpt>
      <trkpt lat="43.2068" lon="5.50097">
        <ele>93</ele>
        <time>2025-10-19T08:51:23Z</time>
      </trkpt>
      <trkpt lat="43.2068" lon="5.50096">
        <ele>92.9</ele>
        <time>2025-10-19T08:51:24Z</time>
      </trkpt>
      <trkpt lat="43.2068" lon="5.50095">
        <ele>92.7</ele>
        <time>2025-10-19T08:51:25Z</time>
      </trkpt>
      <trkpt lat="43.20681" lon="5.50095">
        <ele>92.6</ele>
        <time>2025-10-19T08:51:26Z</time>
      </trkpt>
      <trkpt lat="43.20681" lon="5.50095">
        <ele>92.3</ele>
        <time>2025-10-19T08:51:27Z</time>
      </trkpt>
      <trkpt lat="43.20681" lon="5.50095">
        <ele>92.1</ele>
        <time>2025-10-19T08:51:28Z</time>
      </trkpt>
      <trkpt lat="43.20681" lon="5.50094">
        <ele>91.9</ele>
        <time>2025-10-19T08:51:29Z</time>
      </trkpt>
      <trkpt lat="43.20682" lon="5.50094">
        <ele>91.7</ele>
        <time>2025-10-19T08:51:30Z</time>
      </trkpt>
      <trkpt lat="43.20682" lon="5.50093">
        <ele>91.6</ele>
        <time>2025-10-19T08:51:31Z</time>
      </trkpt>
      <trkpt lat="43.20682" lon="5.50093">
        <ele>91.3</ele>
        <time>2025-10-19T08:51:32Z</time>
      </trkpt>
      <trkpt lat="43.20682" lon="5.50093">
        <ele>91.2</ele>
        <time>2025-10-19T08:51:33Z</time>
      </trkpt>
      <trkpt lat="43.20682" lon="5.50092">
        <ele>91</ele>
        <time>2025-10-19T08:51:34Z</time>
      </trkpt>
      <trkpt lat="43.20682" lon="5.50092">
        <ele>90.9</ele>
        <time>2025-10-19T08:51:35Z</time>
      </trkpt>
      <trkpt lat="43.20683" lon="5.50092">
        <ele>90.8</ele>
        <time>2025-10-19T08:51:36Z</time>
      </trkpt>
      <trkpt lat="43.20683" lon="5.50093">
        <ele>90.7</ele>
        <time>2025-10-19T08:51:37Z</time>
      </trkpt>
      <trkpt lat="43.20684" lon="5.50093">
        <ele>90.5</ele>
        <time>2025-10-19T08:51:38Z</time>
      </trkpt>
      <trkpt lat="43.20684" lon="5.50092">
        <ele>90.4</ele>
        <time>2025-10-19T08:51:39Z</time>
      </trkpt>
      <trkpt lat="43.20684" lon="5.50092">
        <ele>90.3</ele>
        <time>2025-10-19T08:51:40Z</time>
      </trkpt>
      <trkpt lat="43.20684" lon="5.50092">
        <ele>90.2</ele>
        <time>2025-10-19T08:51:41Z</time>
      </trkpt>
      <trkpt lat="43.20684" lon="5.50092">
        <ele>90.1</ele>
        <time>2025-10-19T08:51:42Z</time>
      </trkpt>
      <trkpt lat="43.20684" lon="5.50091">
        <ele>90</ele>
        <time>2025-10-19T08:51:43Z</time>
      </trkpt>
      <trkpt lat="43.20685" lon="5.50091">
        <ele>89.8</ele>
        <time>2025-10-19T08:51:44Z</time>
      </trkpt>
      <trkpt lat="43.20685" lon="5.50091">
        <ele>89.5</ele>
        <time>2025-10-19T08:51:45Z</time>
      </trkpt>
      <trkpt lat="43.20685" lon="5.5009">
        <ele>89.3</ele>
        <time>2025-10-19T08:51:46Z</time>
      </trkpt>
      <trkpt lat="43.20685" lon="5.50089">
        <ele>89</ele>
        <time>2025-10-19T08:51:47Z</time>
      </trkpt>
      <trkpt lat="43.20685" lon="5.50089">
        <ele>88.8</ele>
        <time>2025-10-19T08:51:48Z</time>
      </trkpt>
      <trkpt lat="43.20686" lon="5.50089">
        <ele>88.5</ele>
        <time>2025-10-19T08:51:49Z</time>
      </trkpt>
      <trkpt lat="43.20686" lon="5.50089">
        <ele>88.2</ele>
        <time>2025-10-19T08:51:50Z</time>
      </trkpt>
      <trkpt lat="43.20686" lon="5.50088">
        <ele>87.9</ele>
        <time>2025-10-19T08:51:51Z</time>
      </trkpt>
      <trkpt lat="43.20686" lon="5.50087">
        <ele>87.6</ele>
        <time>2025-10-19T08:51:52Z</time>
      </trkpt>
      <trkpt lat="43.20686" lon="5.50087">
        <ele>87.4</ele>
        <time>2025-10-19T08:51:53Z</time>
      </trkpt>
      <trkpt lat="43.20686" lon="5.50086">
        <ele>87.2</ele>
        <time>2025-10-19T08:51:54Z</time>
      </trkpt>
      <trkpt lat="43.20686" lon="5.50086">
        <ele>87.1</ele>
        <time>2025-10-19T08:51:55Z</time>
      </trkpt>
      <trkpt lat="43.20685" lon="5.50086">
        <ele>87</ele>
        <time>2025-10-19T08:51:56Z</time>
      </trkpt>
      <trkpt lat="43.20685" lon="5.50086">
        <ele>86.9</ele>
        <time>2025-10-19T08:51:57Z</time>
      </trkpt>
      <trkpt lat="43.20686" lon="5.50086">
        <ele>86.8</ele>
        <time>2025-10-19T08:51:58Z</time>
      </trkpt>
      <trkpt lat="43.20686" lon="5.50084">
        <ele>86.7</ele>
        <time>2025-10-19T08:51:59Z</time>
      </trkpt>
      <trkpt lat="43.20687" lon="5.50084">
        <ele>86.4</ele>
        <time>2025-10-19T08:52:00Z</time>
      </trkpt>
      <trkpt lat="43.20688" lon="5.50084">
        <ele>86.3</ele>
        <time>2025-10-19T08:52:01Z</time>
      </trkpt>
      <trkpt lat="43.20689" lon="5.50085">
        <ele>86.2</ele>
        <time>2025-10-19T08:52:02Z</time>
      </trkpt>
      <trkpt lat="43.2069" lon="5.50085">
        <ele>86.1</ele>
        <time>2025-10-19T08:52:03Z</time>
      </trkpt>
      <trkpt lat="43.2069" lon="5.50086">
        <ele>86.1</ele>
        <time>2025-10-19T08:52:04Z</time>
      </trkpt>
      <trkpt lat="43.20691" lon="5.50086">
        <ele>86.1</ele>
        <time>2025-10-19T08:52:05Z</time>
      </trkpt>
      <trkpt lat="43.20691" lon="5.50086">
        <ele>86.1</ele>
        <time>2025-10-19T08:52:06Z</time>
      </trkpt>
      <trkpt lat="43.20691" lon="5.50085">
        <ele>86</ele>
        <time>2025-10-19T08:52:07Z</time>
      </trkpt>
      <trkpt lat="43.20691" lon="5.50085">
        <ele>85.9</ele>
        <time>2025-10-19T08:52:08Z</time>
      </trkpt>
      <trkpt lat="43.20692" lon="5.50084">
        <ele>85.8</ele>
        <time>2025-10-19T08:52:09Z</time>
      </trkpt>
      <trkpt lat="43.20692" lon="5.50084">
        <ele>85.8</ele>
        <time>2025-10-19T08:52:10Z</time>
      </trkpt>
      <trkpt lat="43.20692" lon="5.50085">
        <ele>85.6</ele>
        <time>2025-10-19T08:52:11Z</time>
      </trkpt>
      <trkpt lat="43.20692" lon="5.50085">
        <ele>85.4</ele>
        <time>2025-10-19T08:52:12Z</time>
      </trkpt>
      <trkpt lat="43.20692" lon="5.50085">
        <ele>85.3</ele>
        <time>2025-10-19T08:52:13Z</time>
      </trkpt>
      <trkpt lat="43.20692" lon="5.50085">
        <ele>85.2</ele>
        <time>2025-10-19T08:52:14Z</time>
      </trkpt>
      <trkpt lat="43.20692" lon="5.50085">
        <ele>85.1</ele>
        <time>2025-10-19T08:52:15Z</time>
      </trkpt>
      <trkpt lat="43.20692" lon="5.50085">
        <ele>85.2</ele>
        <time>2025-10-19T08:52:16Z</time>
      </trkpt>
      <trkpt lat="43.20692" lon="5.50085">
        <ele>85.2</ele>
        <time>2025-10-19T08:52:17Z</time>
      </trkpt>
      <trkpt lat="43.20692" lon="5.50085">
        <ele>85.3</ele>
        <time>2025-10-19T08:52:18Z</time>
      </trkpt>
      <trkpt lat="43.20692" lon="5.50086">
        <ele>85.4</ele>
        <time>2025-10-19T08:52:19Z</time>
      </trkpt>
      <trkpt lat="43.20693" lon="5.50086">
        <ele>85.6</ele>
        <time>2025-10-19T08:52:20Z</time>
      </trkpt>
      <trkpt lat="43.20693" lon="5.50086">
        <ele>85.8</ele>
        <time>2025-10-19T08:52:21Z</time>
      </trkpt>
      <trkpt lat="43.20694" lon="5.50087">
        <ele>85.9</ele>
        <time>2025-10-19T08:52:22Z</time>
      </trkpt>
      <trkpt lat="43.20694" lon="5.50087">
        <ele>86</ele>
        <time>2025-10-19T08:52:23Z</time>
      </trkpt>
      <trkpt lat="43.20694" lon="5.50087">
        <ele>86.1</ele>
        <time>2025-10-19T08:52:24Z</time>
      </trkpt>
      <trkpt lat="43.20694" lon="5.50086">
        <ele>86.2</ele>
        <time>2025-10-19T08:52:25Z</time>
      </trkpt>
      <trkpt lat="43.20694" lon="5.50086">
        <ele>86.2</ele>
        <time>2025-10-19T08:52:26Z</time>
      </trkpt>
      <trkpt lat="43.20694" lon="5.50086">
        <ele>86.3</ele>
        <time>2025-10-19T08:52:27Z</time>
      </trkpt>
      <trkpt lat="43.20694" lon="5.50085">
        <ele>86.2</ele>
        <time>2025-10-19T08:52:28Z</time>
      </trkpt>
      <trkpt lat="43.20695" lon="5.50085">
        <ele>86.3</ele>
        <time>2025-10-19T08:52:29Z</time>
      </trkpt>
      <trkpt lat="43.20694" lon="5.50085">
        <ele>86.2</ele>
        <time>2025-10-19T08:52:30Z</time>
      </trkpt>
      <trkpt lat="43.20694" lon="5.50084">
        <ele>86.1</ele>
        <time>2025-10-19T08:52:31Z</time>
      </trkpt>
      <trkpt lat="43.20694" lon="5.50083">
        <ele>86</ele>
        <time>2025-10-19T08:52:32Z</time>
      </trkpt>
      <trkpt lat="43.20694" lon="5.50083">
        <ele>85.9</ele>
        <time>2025-10-19T08:52:33Z</time>
      </trkpt>
      <trkpt lat="43.20694" lon="5.50083">
        <ele>85.8</ele>
        <time>2025-10-19T08:52:34Z</time>
      </trkpt>
      <trkpt lat="43.20694" lon="5.50082">
        <ele>85.7</ele>
        <time>2025-10-19T08:52:35Z</time>
      </trkpt>
      <trkpt lat="43.20694" lon="5.50082">
        <ele>85.4</ele>
        <time>2025-10-19T08:52:36Z</time>
      </trkpt>
      <trkpt lat="43.20694" lon="5.50082">
        <ele>85.1</ele>
        <time>2025-10-19T08:52:37Z</time>
      </trkpt>
      <trkpt lat="43.20694" lon="5.50082">
        <ele>85</ele>
        <time>2025-10-19T08:52:38Z</time>
      </trkpt>
      <trkpt lat="43.20694" lon="5.50081">
        <ele>84.8</ele>
        <time>2025-10-19T08:52:39Z</time>
      </trkpt>
      <trkpt lat="43.20694" lon="5.50081">
        <ele>84.7</ele>
        <time>2025-10-19T08:52:40Z</time>
      </trkpt>
      <trkpt lat="43.20694" lon="5.5008">
        <ele>84.4</ele>
        <time>2025-10-19T08:52:41Z</time>
      </trkpt>
      <trkpt lat="43.20694" lon="5.5008">
        <ele>84.2</ele>
        <time>2025-10-19T08:52:42Z</time>
      </trkpt>
      <trkpt lat="43.20694" lon="5.5008">
        <ele>83.9</ele>
        <time>2025-10-19T08:52:43Z</time>
      </trkpt>
      <trkpt lat="43.20694" lon="5.50079">
        <ele>83.7</ele>
        <time>2025-10-19T08:52:44Z</time>
      </trkpt>
      <trkpt lat="43.20694" lon="5.50079">
        <ele>83.5</ele>
        <time>2025-10-19T08:52:45Z</time>
      </trkpt>
      <trkpt lat="43.20693" lon="5.50079">
        <ele>83.3</ele>
        <time>2025-10-19T08:52:46Z</time>
      </trkpt>
      <trkpt lat="43.20693" lon="5.50078">
        <ele>83.1</ele>
        <time>2025-10-19T08:52:47Z</time>
      </trkpt>
      <trkpt lat="43.20693" lon="5.50078">
        <ele>82.8</ele>
        <time>2025-10-19T08:52:48Z</time>
      </trkpt>
      <trkpt lat="43.20693" lon="5.50078">
        <ele>82.6</ele>
        <time>2025-10-19T08:52:49Z</time>
      </trkpt>
      <trkpt lat="43.20693" lon="5.50077">
        <ele>82.3</ele>
        <time>2025-10-19T08:52:50Z</time>
      </trkpt>
      <trkpt lat="43.20693" lon="5.50075">
        <ele>82.1</ele>
        <time>2025-10-19T08:52:51Z</time>
      </trkpt>
      <trkpt lat="43.20694" lon="5.50075">
        <ele>81.8</ele>
        <time>2025-10-19T08:52:52Z</time>
      </trkpt>
      <trkpt lat="43.20694" lon="5.50074">
        <ele>81.6</ele>
        <time>2025-10-19T08:52:53Z</time>
      </trkpt>
      <trkpt lat="43.20694" lon="5.50074">
        <ele>81.3</ele>
        <time>2025-10-19T08:52:54Z</time>
      </trkpt>
      <trkpt lat="43.20694" lon="5.50074">
        <ele>81.1</ele>
        <time>2025-10-19T08:52:55Z</time>
      </trkpt>
      <trkpt lat="43.20694" lon="5.50074">
        <ele>80.9</ele>
        <time>2025-10-19T08:52:56Z</time>
      </trkpt>
      <trkpt lat="43.20694" lon="5.50073">
        <ele>80.8</ele>
        <time>2025-10-19T08:52:57Z</time>
      </trkpt>
      <trkpt lat="43.20694" lon="5.50073">
        <ele>80.7</ele>
        <time>2025-10-19T08:52:58Z</time>
      </trkpt>
      <trkpt lat="43.20694" lon="5.50073">
        <ele>80.6</ele>
        <time>2025-10-19T08:52:59Z</time>
      </trkpt>
      <trkpt lat="43.20695" lon="5.50073">
        <ele>80.4</ele>
        <time>2025-10-19T08:53:00Z</time>
      </trkpt>
      <trkpt lat="43.20695" lon="5.50074">
        <ele>80.2</ele>
        <time>2025-10-19T08:53:01Z</time>
      </trkpt>
      <trkpt lat="43.20695" lon="5.50074">
        <ele>80.2</ele>
        <time>2025-10-19T08:53:02Z</time>
      </trkpt>
      <trkpt lat="43.20694" lon="5.50073">
        <ele>80.1</ele>
        <time>2025-10-19T08:53:03Z</time>
      </trkpt>
      <trkpt lat="43.20694" lon="5.50073">
        <ele>79.9</ele>
        <time>2025-10-19T08:53:04Z</time>
      </trkpt>
      <trkpt lat="43.20694" lon="5.50073">
        <ele>79.8</ele>
        <time>2025-10-19T08:53:05Z</time>
      </trkpt>
      <trkpt lat="43.20694" lon="5.50073">
        <ele>79.7</ele>
        <time>2025-10-19T08:53:06Z</time>
      </trkpt>
      <trkpt lat="43.20694" lon="5.50073">
        <ele>79.6</ele>
        <time>2025-10-19T08:53:07Z</time>
      </trkpt>
      <trkpt lat="43.20694" lon="5.50073">
        <ele>79.6</ele>
        <time>2025-10-19T08:53:08Z</time>
      </trkpt>
      <trkpt lat="43.20693" lon="5.50073">
        <ele>79.4</ele>
        <time>2025-10-19T08:53:09Z</time>
      </trkpt>
      <trkpt lat="43.20693" lon="5.50073">
        <ele>79.2</ele>
        <time>2025-10-19T08:53:10Z</time>
      </trkpt>
      <trkpt lat="43.20693" lon="5.50073">
        <ele>79.1</ele>
        <time>2025-10-19T08:53:11Z</time>
      </trkpt>
      <trkpt lat="43.20693" lon="5.50073">
        <ele>78.9</ele>
        <time>2025-10-19T08:53:12Z</time>
      </trkpt>
      <trkpt lat="43.20693" lon="5.50074">
        <ele>78.8</ele>
        <time>2025-10-19T08:53:13Z</time>
      </trkpt>
      <trkpt lat="43.20693" lon="5.50073">
        <ele>78.8</ele>
        <time>2025-10-19T08:53:14Z</time>
      </trkpt>
      <trkpt lat="43.20693" lon="5.50073">
        <ele>78.8</ele>
        <time>2025-10-19T08:53:15Z</time>
      </trkpt>
      <trkpt lat="43.20693" lon="5.50073">
        <ele>78.8</ele>
        <time>2025-10-19T08:53:16Z</time>
      </trkpt>
      <trkpt lat="43.20693" lon="5.50073">
        <ele>78.8</ele>
        <time>2025-10-19T08:53:17Z</time>
      </trkpt>
      <trkpt lat="43.20693" lon="5.50073">
        <ele>78.7</ele>
        <time>2025-10-19T08:53:18Z</time>
      </trkpt>
      <trkpt lat="43.20693" lon="5.50072">
        <ele>78.5</ele>
        <time>2025-10-19T08:53:19Z</time>
      </trkpt>
      <trkpt lat="43.20693" lon="5.50073">
        <ele>78.3</ele>
        <time>2025-10-19T08:53:20Z</time>
      </trkpt>
      <trkpt lat="43.20693" lon="5.50073">
        <ele>78.4</ele>
        <time>2025-10-19T08:53:21Z</time>
      </trkpt>
      <trkpt lat="43.20693" lon="5.50072">
        <ele>78.1</ele>
        <time>2025-10-19T08:53:22Z</time>
      </trkpt>
      <trkpt lat="43.20693" lon="5.50072">
        <ele>77.9</ele>
        <time>2025-10-19T08:53:23Z</time>
      </trkpt>
      <trkpt lat="43.20693" lon="5.50072">
        <ele>77.6</ele>
        <time>2025-10-19T08:53:24Z</time>
      </trkpt>
      <trkpt lat="43.20694" lon="5.50071">
        <ele>77.5</ele>
        <time>2025-10-19T08:53:25Z</time>
      </trkpt>
      <trkpt lat="43.20694" lon="5.5007">
        <ele>77.3</ele>
        <time>2025-10-19T08:53:26Z</time>
      </trkpt>
      <trkpt lat="43.20693" lon="5.5007">
        <ele>77.2</ele>
        <time>2025-10-19T08:53:27Z</time>
      </trkpt>
      <trkpt lat="43.20692" lon="5.5007">
        <ele>77</ele>
        <time>2025-10-19T08:53:28Z</time>
      </trkpt>
      <trkpt lat="43.20692" lon="5.5007">
        <ele>76.8</ele>
        <time>2025-10-19T08:53:29Z</time>
      </trkpt>
      <trkpt lat="43.20692" lon="5.5007">
        <ele>76.6</ele>
        <time>2025-10-19T08:53:30Z</time>
      </trkpt>
      <trkpt lat="43.20692" lon="5.5007">
        <ele>76.7</ele>
        <time>2025-10-19T08:53:31Z</time>
      </trkpt>
      <trkpt lat="43.20692" lon="5.5007">
        <ele>76.6</ele>
        <time>2025-10-19T08:53:32Z</time>
      </trkpt>
      <trkpt lat="43.20692" lon="5.5007">
        <ele>76.5</ele>
        <time>2025-10-19T08:53:33Z</time>
      </trkpt>
      <trkpt lat="43.20692" lon="5.5007">
        <ele>76.5</ele>
        <time>2025-10-19T08:53:34Z</time>
      </trkpt>
      <trkpt lat="43.20692" lon="5.5007">
        <ele>76.4</ele>
        <time>2025-10-19T08:53:35Z</time>
      </trkpt>
      <trkpt lat="43.20692" lon="5.50069">
        <ele>76.3</ele>
        <time>2025-10-19T08:53:36Z</time>
      </trkpt>
      <trkpt lat="43.20691" lon="5.50068">
        <ele>76.2</ele>
        <time>2025-10-19T08:53:37Z</time>
      </trkpt>
      <trkpt lat="43.20691" lon="5.50068">
        <ele>76.1</ele>
        <time>2025-10-19T08:53:38Z</time>
      </trkpt>
      <trkpt lat="43.20692" lon="5.50067">
        <ele>76</ele>
        <time>2025-10-19T08:53:39Z</time>
      </trkpt>
      <trkpt lat="43.20692" lon="5.50067">
        <ele>75.9</ele>
        <time>2025-10-19T08:53:40Z</time>
      </trkpt>
      <trkpt lat="43.20691" lon="5.50067">
        <ele>75.8</ele>
        <time>2025-10-19T08:53:41Z</time>
      </trkpt>
      <trkpt lat="43.20691" lon="5.50067">
        <ele>75.6</ele>
        <time>2025-10-19T08:53:42Z</time>
      </trkpt>
      <trkpt lat="43.20691" lon="5.50067">
        <ele>75.5</ele>
        <time>2025-10-19T08:53:43Z</time>
      </trkpt>
      <trkpt lat="43.2069" lon="5.50067">
        <ele>75.4</ele>
        <time>2025-10-19T08:53:44Z</time>
      </trkpt>
      <trkpt lat="43.2069" lon="5.50067">
        <ele>75.2</ele>
        <time>2025-10-19T08:53:45Z</time>
      </trkpt>
      <trkpt lat="43.2069" lon="5.50068">
        <ele>75.1</ele>
        <time>2025-10-19T08:53:46Z</time>
      </trkpt>
      <trkpt lat="43.20689" lon="5.50067">
        <ele>74.9</ele>
        <time>2025-10-19T08:53:47Z</time>
      </trkpt>
      <trkpt lat="43.20689" lon="5.50067">
        <ele>74.8</ele>
        <time>2025-10-19T08:53:48Z</time>
      </trkpt>
      <trkpt lat="43.20689" lon="5.50067">
        <ele>74.7</ele>
        <time>2025-10-19T08:53:49Z</time>
      </trkpt>
      <trkpt lat="43.20688" lon="5.50066">
        <ele>74.6</ele>
        <time>2025-10-19T08:53:50Z</time>
      </trkpt>
      <trkpt lat="43.20688" lon="5.50066">
        <ele>74.4</ele>
        <time>2025-10-19T08:53:51Z</time>
      </trkpt>
      <trkpt lat="43.20688" lon="5.50066">
        <ele>74.2</ele>
        <time>2025-10-19T08:53:52Z</time>
      </trkpt>
      <trkpt lat="43.20688" lon="5.50067">
        <ele>74.1</ele>
        <time>2025-10-19T08:53:53Z</time>
      </trkpt>
      <trkpt lat="43.20687" lon="5.50067">
        <ele>73.8</ele>
        <time>2025-10-19T08:53:54Z</time>
      </trkpt>
      <trkpt lat="43.20687" lon="5.50068">
        <ele>73.7</ele>
        <time>2025-10-19T08:53:55Z</time>
      </trkpt>
      <trkpt lat="43.20687" lon="5.50068">
        <ele>73.5</ele>
        <time>2025-10-19T08:53:56Z</time>
      </trkpt>
      <trkpt lat="43.20687" lon="5.50068">
        <ele>73.2</ele>
        <time>2025-10-19T08:53:57Z</time>
      </trkpt>
      <trkpt lat="43.20687" lon="5.50068">
        <ele>73.1</ele>
        <time>2025-10-19T08:53:58Z</time>
      </trkpt>
      <trkpt lat="43.20688" lon="5.50068">
        <ele>73</ele>
        <time>2025-10-19T08:53:59Z</time>
      </trkpt>
      <trkpt lat="43.20687" lon="5.50068">
        <ele>73</ele>
        <time>2025-10-19T08:54:00Z</time>
      </trkpt>
      <trkpt lat="43.20687" lon="5.50068">
        <ele>73</ele>
        <time>2025-10-19T08:54:01Z</time>
      </trkpt>
      <trkpt lat="43.20687" lon="5.50068">
        <ele>72.9</ele>
        <time>2025-10-19T08:54:02Z</time>
      </trkpt>
      <trkpt lat="43.20687" lon="5.50068">
        <ele>72.9</ele>
        <time>2025-10-19T08:54:03Z</time>
      </trkpt>
      <trkpt lat="43.20686" lon="5.50069">
        <ele>72.9</ele>
        <time>2025-10-19T08:54:04Z</time>
      </trkpt>
      <trkpt lat="43.20686" lon="5.50069">
        <ele>72.8</ele>
        <time>2025-10-19T08:54:05Z</time>
      </trkpt>
      <trkpt lat="43.20686" lon="5.50069">
        <ele>72.7</ele>
        <time>2025-10-19T08:54:06Z</time>
      </trkpt>
      <trkpt lat="43.20686" lon="5.50069">
        <ele>72.6</ele>
        <time>2025-10-19T08:54:07Z</time>
      </trkpt>
      <trkpt lat="43.20686" lon="5.50069">
        <ele>72.5</ele>
        <time>2025-10-19T08:54:08Z</time>
      </trkpt>
      <trkpt lat="43.20685" lon="5.50069">
        <ele>72.4</ele>
        <time>2025-10-19T08:54:09Z</time>
      </trkpt>
      <trkpt lat="43.20685" lon="5.50069">
        <ele>72.3</ele>
        <time>2025-10-19T08:54:10Z</time>
      </trkpt>
      <trkpt lat="43.20685" lon="5.50068">
        <ele>72.1</ele>
        <time>2025-10-19T08:54:11Z</time>
      </trkpt>
      <trkpt lat="43.20685" lon="5.50067">
        <ele>71.9</ele>
        <time>2025-10-19T08:54:12Z</time>
      </trkpt>
      <trkpt lat="43.20685" lon="5.50067">
        <ele>71.7</ele>
        <time>2025-10-19T08:54:13Z</time>
      </trkpt>
      <trkpt lat="43.20685" lon="5.50066">
        <ele>71.5</ele>
        <time>2025-10-19T08:54:14Z</time>
      </trkpt>
      <trkpt lat="43.20685" lon="5.50064">
        <ele>71.4</ele>
        <time>2025-10-19T08:54:15Z</time>
      </trkpt>
      <trkpt lat="43.20684" lon="5.50064">
        <ele>71.4</ele>
        <time>2025-10-19T08:54:16Z</time>
      </trkpt>
      <trkpt lat="43.20684" lon="5.50063">
        <ele>71.3</ele>
        <time>2025-10-19T08:54:17Z</time>
      </trkpt>
      <trkpt lat="43.20683" lon="5.50063">
        <ele>71.2</ele>
        <time>2025-10-19T08:54:18Z</time>
      </trkpt>
      <trkpt lat="43.20683" lon="5.50063">
        <ele>71</ele>
        <time>2025-10-19T08:54:19Z</time>
      </trkpt>
      <trkpt lat="43.20683" lon="5.50063">
        <ele>70.8</ele>
        <time>2025-10-19T08:54:20Z</time>
      </trkpt>
      <trkpt lat="43.20682" lon="5.50062">
        <ele>70.7</ele>
        <time>2025-10-19T08:54:21Z</time>
      </trkpt>
      <trkpt lat="43.20682" lon="5.50062">
        <ele>70.6</ele>
        <time>2025-10-19T08:54:22Z</time>
      </trkpt>
      <trkpt lat="43.20682" lon="5.50062">
        <ele>70.4</ele>
        <time>2025-10-19T08:54:23Z</time>
      </trkpt>
      <trkpt lat="43.20681" lon="5.50063">
        <ele>70.4</ele>
        <time>2025-10-19T08:54:24Z</time>
      </trkpt>
      <trkpt lat="43.20681" lon="5.50063">
        <ele>70.2</ele>
        <time>2025-10-19T08:54:25Z</time>
      </trkpt>
      <trkpt lat="43.20681" lon="5.50063">
        <ele>70.1</ele>
        <time>2025-10-19T08:54:26Z</time>
      </trkpt>
      <trkpt lat="43.20681" lon="5.50063">
        <ele>70</ele>
        <time>2025-10-19T08:54:27Z</time>
      </trkpt>
      <trkpt lat="43.20681" lon="5.50063">
        <ele>69.8</ele>
        <time>2025-10-19T08:54:28Z</time>
      </trkpt>
      <trkpt lat="43.2068" lon="5.50063">
        <ele>69.7</ele>
        <time>2025-10-19T08:54:29Z</time>
      </trkpt>
      <trkpt lat="43.2068" lon="5.50063">
        <ele>69.6</ele>
        <time>2025-10-19T08:54:30Z</time>
      </trkpt>
      <trkpt lat="43.2068" lon="5.50062">
        <ele>69.3</ele>
        <time>2025-10-19T08:54:31Z</time>
      </trkpt>
      <trkpt lat="43.2068" lon="5.50062">
        <ele>69.3</ele>
        <time>2025-10-19T08:54:32Z</time>
      </trkpt>
      <trkpt lat="43.20679" lon="5.50062">
        <ele>69.3</ele>
        <time>2025-10-19T08:54:33Z</time>
      </trkpt>
      <trkpt lat="43.20679" lon="5.50062">
        <ele>69.1</ele>
        <time>2025-10-19T08:54:34Z</time>
      </trkpt>
      <trkpt lat="43.20679" lon="5.50062">
        <ele>68.8</ele>
        <time>2025-10-19T08:54:35Z</time>
      </trkpt>
      <trkpt lat="43.20679" lon="5.50062">
        <ele>68.7</ele>
        <time>2025-10-19T08:54:36Z</time>
      </trkpt>
      <trkpt lat="43.20679" lon="5.50062">
        <ele>68.6</ele>
        <time>2025-10-19T08:54:37Z</time>
      </trkpt>
      <trkpt lat="43.20679" lon="5.50062">
        <ele>68.5</ele>
        <time>2025-10-19T08:54:38Z</time>
      </trkpt>
      <trkpt lat="43.20678" lon="5.50061">
        <ele>68.4</ele>
        <time>2025-10-19T08:54:39Z</time>
      </trkpt>
      <trkpt lat="43.20678" lon="5.50061">
        <ele>68.3</ele>
        <time>2025-10-19T08:54:40Z</time>
      </trkpt>
      <trkpt lat="43.20678" lon="5.50061">
        <ele>68.3</ele>
        <time>2025-10-19T08:54:41Z</time>
      </trkpt>
      <trkpt lat="43.20678" lon="5.50061">
        <ele>68.2</ele>
        <time>2025-10-19T08:54:42Z</time>
      </trkpt>
      <trkpt lat="43.20678" lon="5.5006">
        <ele>68</ele>
        <time>2025-10-19T08:54:43Z</time>
      </trkpt>
      <trkpt lat="43.20677" lon="5.5006">
        <ele>67.9</ele>
        <time>2025-10-19T08:54:44Z</time>
      </trkpt>
      <trkpt lat="43.20677" lon="5.50061">
        <ele>67.8</ele>
        <time>2025-10-19T08:54:45Z</time>
      </trkpt>
      <trkpt lat="43.20677" lon="5.50061">
        <ele>67.6</ele>
        <time>2025-10-19T08:54:46Z</time>
      </trkpt>
      <trkpt lat="43.20677" lon="5.5006">
        <ele>67.6</ele>
        <time>2025-10-19T08:54:47Z</time>
      </trkpt>
      <trkpt lat="43.20677" lon="5.5006">
        <ele>67.4</ele>
        <time>2025-10-19T08:54:48Z</time>
      </trkpt>
      <trkpt lat="43.20677" lon="5.5006">
        <ele>67.2</ele>
        <time>2025-10-19T08:54:49Z</time>
      </trkpt>
      <trkpt lat="43.20676" lon="5.50061">
        <ele>66.7</ele>
        <time>2025-10-19T08:54:50Z</time>
      </trkpt>
      <trkpt lat="43.20676" lon="5.5006">
        <ele>66.7</ele>
        <time>2025-10-19T08:54:51Z</time>
      </trkpt>
      <trkpt lat="43.20676" lon="5.5006">
        <ele>66.7</ele>
        <time>2025-10-19T08:54:52Z</time>
      </trkpt>
      <trkpt lat="43.20675" lon="5.50059">
        <ele>66.7</ele>
        <time>2025-10-19T08:54:53Z</time>
      </trkpt>
      <trkpt lat="43.20675" lon="5.50059">
        <ele>66.7</ele>
        <time>2025-10-19T08:54:54Z</time>
      </trkpt>
      <trkpt lat="43.20675" lon="5.50059">
        <ele>66.6</ele>
        <time>2025-10-19T08:54:55Z</time>
      </trkpt>
      <trkpt lat="43.20675" lon="5.50059">
        <ele>66.4</ele>
        <time>2025-10-19T08:54:56Z</time>
      </trkpt>
      <trkpt lat="43.20675" lon="5.50058">
        <ele>66.3</ele>
        <time>2025-10-19T08:54:57Z</time>
      </trkpt>
      <trkpt lat="43.20675" lon="5.50058">
        <ele>66.2</ele>
        <time>2025-10-19T08:54:58Z</time>
      </trkpt>
      <trkpt lat="43.20675" lon="5.50058">
        <ele>66</ele>
        <time>2025-10-19T08:54:59Z</time>
      </trkpt>
      <trkpt lat="43.20675" lon="5.50058">
        <ele>65.8</ele>
        <time>2025-10-19T08:55:00Z</time>
      </trkpt>
      <trkpt lat="43.20675" lon="5.50058">
        <ele>65.7</ele>
        <time>2025-10-19T08:55:01Z</time>
      </trkpt>
      <trkpt lat="43.20676" lon="5.50058">
        <ele>65.6</ele>
        <time>2025-10-19T08:55:02Z</time>
      </trkpt>
      <trkpt lat="43.20676" lon="5.50057">
        <ele>65.5</ele>
        <time>2025-10-19T08:55:03Z</time>
      </trkpt>
      <trkpt lat="43.20676" lon="5.50057">
        <ele>65.5</ele>
        <time>2025-10-19T08:55:04Z</time>
      </trkpt>
      <trkpt lat="43.20676" lon="5.50057">
        <ele>65.5</ele>
        <time>2025-10-19T08:55:05Z</time>
      </trkpt>
      <trkpt lat="43.20677" lon="5.50057">
        <ele>65.4</ele>
        <time>2025-10-19T08:55:06Z</time>
      </trkpt>
      <trkpt lat="43.20677" lon="5.50057">
        <ele>65.4</ele>
        <time>2025-10-19T08:55:07Z</time>
      </trkpt>
      <trkpt lat="43.20677" lon="5.50057">
        <ele>65.4</ele>
        <time>2025-10-19T08:55:08Z</time>
      </trkpt>
      <trkpt lat="43.20677" lon="5.50057">
        <ele>65.4</ele>
        <time>2025-10-19T08:55:09Z</time>
      </trkpt>
      <trkpt lat="43.20677" lon="5.50057">
        <ele>65.4</ele>
        <time>2025-10-19T08:55:10Z</time>
      </trkpt>
      <trkpt lat="43.20677" lon="5.50057">
        <ele>65.3</ele>
        <time>2025-10-19T08:55:11Z</time>
      </trkpt>
      <trkpt lat="43.20677" lon="5.50057">
        <ele>65.3</ele>
        <time>2025-10-19T08:55:12Z</time>
      </trkpt>
      <trkpt lat="43.20677" lon="5.50056">
        <ele>65.3</ele>
        <time>2025-10-19T08:55:13Z</time>
      </trkpt>
      <trkpt lat="43.20677" lon="5.50056">
        <ele>65.3</ele>
        <time>2025-10-19T08:55:14Z</time>
      </trkpt>
      <trkpt lat="43.20677" lon="5.50056">
        <ele>65.4</ele>
        <time>2025-10-19T08:55:15Z</time>
      </trkpt>
      <trkpt lat="43.20678" lon="5.50056">
        <ele>65.4</ele>
        <time>2025-10-19T08:55:16Z</time>
      </trkpt>
      <trkpt lat="43.20678" lon="5.50056">
        <ele>65.4</ele>
        <time>2025-10-19T08:55:17Z</time>
      </trkpt>
      <trkpt lat="43.20678" lon="5.50056">
        <ele>65.4</ele>
        <time>2025-10-19T08:55:18Z</time>
      </trkpt>
      <trkpt lat="43.20678" lon="5.50056">
        <ele>65.4</ele>
        <time>2025-10-19T08:55:19Z</time>
      </trkpt>
      <trkpt lat="43.20678" lon="5.50056">
        <ele>65.4</ele>
        <time>2025-10-19T08:55:20Z</time>
      </trkpt>
      <trkpt lat="43.20678" lon="5.50056">
        <ele>65.4</ele>
        <time>2025-10-19T08:55:21Z</time>
      </trkpt>
      <trkpt lat="43.20678" lon="5.50056">
        <ele>65.4</ele>
        <time>2025-10-19T08:55:22Z</time>
      </trkpt>
      <trkpt lat="43.20678" lon="5.50056">
        <ele>65.4</ele>
        <time>2025-10-19T08:55:23Z</time>
      </trkpt>
      <trkpt lat="43.20678" lon="5.50056">
        <ele>65.4</ele>
        <time>2025-10-19T08:55:24Z</time>
      </trkpt>
      <trkpt lat="43.20678" lon="5.50056">
        <ele>65.5</ele>
        <time>2025-10-19T08:55:25Z</time>
      </trkpt>
      <trkpt lat="43.20678" lon="5.50056">
        <ele>65.5</ele>
        <time>2025-10-19T08:55:26Z</time>
      </trkpt>
      <trkpt lat="43.20677" lon="5.50056">
        <ele>65.5</ele>
        <time>2025-10-19T08:55:27Z</time>
      </trkpt>
      <trkpt lat="43.20678" lon="5.50056">
        <ele>65.5</ele>
        <time>2025-10-19T08:55:28Z</time>
      </trkpt>
      <trkpt lat="43.20678" lon="5.50056">
        <ele>65.4</ele>
        <time>2025-10-19T08:55:29Z</time>
      </trkpt>
      <trkpt lat="43.20678" lon="5.50056">
        <ele>65.5</ele>
        <time>2025-10-19T08:55:30Z</time>
      </trkpt>
      <trkpt lat="43.20678" lon="5.50056">
        <ele>65.4</ele>
        <time>2025-10-19T08:55:31Z</time>
      </trkpt>
      <trkpt lat="43.20678" lon="5.50056">
        <ele>65.4</ele>
        <time>2025-10-19T08:55:32Z</time>
      </trkpt>
      <trkpt lat="43.20678" lon="5.50056">
        <ele>65.4</ele>
        <time>2025-10-19T08:55:33Z</time>
      </trkpt>
      <trkpt lat="43.20678" lon="5.50056">
        <ele>65.4</ele>
        <time>2025-10-19T08:55:34Z</time>
      </trkpt>
      <trkpt lat="43.20678" lon="5.50056">
        <ele>65.4</ele>
        <time>2025-10-19T08:55:35Z</time>
      </trkpt>
      <trkpt lat="43.20678" lon="5.50056">
        <ele>65.3</ele>
        <time>2025-10-19T08:55:36Z</time>
      </trkpt>
      <trkpt lat="43.20678" lon="5.50056">
        <ele>65.3</ele>
        <time>2025-10-19T08:55:37Z</time>
      </trkpt>
      <trkpt lat="43.20678" lon="5.50056">
        <ele>65.2</ele>
        <time>2025-10-19T08:55:38Z</time>
      </trkpt>
      <trkpt lat="43.20678" lon="5.50056">
        <ele>65.2</ele>
        <time>2025-10-19T08:55:39Z</time>
      </trkpt>
      <trkpt lat="43.20678" lon="5.50056">
        <ele>65.1</ele>
        <time>2025-10-19T08:55:40Z</time>
      </trkpt>
      <trkpt lat="43.20678" lon="5.50056">
        <ele>65.2</ele>
        <time>2025-10-19T08:55:41Z</time>
      </trkpt>
      <trkpt lat="43.20678" lon="5.50056">
        <ele>65.2</ele>
        <time>2025-10-19T08:55:42Z</time>
      </trkpt>
      <trkpt lat="43.20678" lon="5.50056">
        <ele>65.2</ele>
        <time>2025-10-19T08:55:43Z</time>
      </trkpt>
      <trkpt lat="43.20678" lon="5.50056">
        <ele>65.2</ele>
        <time>2025-10-19T08:55:44Z</time>
      </trkpt>
      <trkpt lat="43.20678" lon="5.50056">
        <ele>65.3</ele>
        <time>2025-10-19T08:55:45Z</time>
      </trkpt>
      <trkpt lat="43.20678" lon="5.50056">
        <ele>65.3</ele>
        <time>2025-10-19T08:55:46Z</time>
      </trkpt>
      <trkpt lat="43.20678" lon="5.50056">
        <ele>65.3</ele>
        <time>2025-10-19T08:55:47Z</time>
      </trkpt>
      <trkpt lat="43.20678" lon="5.50056">
        <ele>65.4</ele>
        <time>2025-10-19T08:55:48Z</time>
      </trkpt>
      <trkpt lat="43.20678" lon="5.50056">
        <ele>65.4</ele>
        <time>2025-10-19T08:55:49Z</time>
      </trkpt>
      <trkpt lat="43.20678" lon="5.50056">
        <ele>65.4</ele>
        <time>2025-10-19T08:55:50Z</time>
      </trkpt>
      <trkpt lat="43.20678" lon="5.50056">
        <ele>65.4</ele>
        <time>2025-10-19T08:55:51Z</time>
      </trkpt>
      <trkpt lat="43.20678" lon="5.50056">
        <ele>65.4</ele>
        <time>2025-10-19T08:55:52Z</time>
      </trkpt>
      <trkpt lat="43.20677" lon="5.50056">
        <ele>65.3</ele>
        <time>2025-10-19T08:55:53Z</time>
      </trkpt>
      <trkpt lat="43.20677" lon="5.50056">
        <ele>65.3</ele>
        <time>2025-10-19T08:55:54Z</time>
      </trkpt>
      <trkpt lat="43.20678" lon="5.50056">
        <ele>65.2</ele>
        <time>2025-10-19T08:55:55Z</time>
      </trkpt>
      <trkpt lat="43.20678" lon="5.50057">
        <ele>65.2</ele>
        <time>2025-10-19T08:55:56Z</time>
      </trkpt>
      <trkpt lat="43.20678" lon="5.50057">
        <ele>65.1</ele>
        <time>2025-10-19T08:55:57Z</time>
      </trkpt>
      <trkpt lat="43.20678" lon="5.50057">
        <ele>65.1</ele>
        <time>2025-10-19T08:55:58Z</time>
      </trkpt>
      <trkpt lat="43.20678" lon="5.50057">
        <ele>65.1</ele>
        <time>2025-10-19T08:55:59Z</time>
      </trkpt>
      <trkpt lat="43.20678" lon="5.50057">
        <ele>65.1</ele>
        <time>2025-10-19T08:56:00Z</time>
      </trkpt>
      <trkpt lat="43.20678" lon="5.50057">
        <ele>65.1</ele>
        <time>2025-10-19T08:56:01Z</time>
      </trkpt>
      <trkpt lat="43.20678" lon="5.50058">
        <ele>65.1</ele>
        <time>2025-10-19T08:56:02Z</time>
      </trkpt>
      <trkpt lat="43.20678" lon="5.50058">
        <ele>65</ele>
        <time>2025-10-19T08:56:03Z</time>
      </trkpt>
      <trkpt lat="43.20678" lon="5.50059">
        <ele>65.1</ele>
        <time>2025-10-19T08:56:04Z</time>
      </trkpt>
      <trkpt lat="43.20678" lon="5.50059">
        <ele>65</ele>
        <time>2025-10-19T08:56:05Z</time>
      </trkpt>
      <trkpt lat="43.20678" lon="5.50059">
        <ele>65.1</ele>
        <time>2025-10-19T08:56:06Z</time>
      </trkpt>
      <trkpt lat="43.20679" lon="5.5006">
        <ele>65.1</ele>
        <time>2025-10-19T08:56:07Z</time>
      </trkpt>
      <trkpt lat="43.20679" lon="5.5006">
        <ele>65.1</ele>
        <time>2025-10-19T08:56:08Z</time>
      </trkpt>
      <trkpt lat="43.20679" lon="5.5006">
        <ele>65.1</ele>
        <time>2025-10-19T08:56:09Z</time>
      </trkpt>
      <trkpt lat="43.20679" lon="5.5006">
        <ele>65.1</ele>
        <time>2025-10-19T08:56:10Z</time>
      </trkpt>
      <trkpt lat="43.20679" lon="5.5006">
        <ele>65.1</ele>
        <time>2025-10-19T08:56:11Z</time>
      </trkpt>
      <trkpt lat="43.2068" lon="5.5006">
        <ele>65.1</ele>
        <time>2025-10-19T08:56:12Z</time>
      </trkpt>
      <trkpt lat="43.2068" lon="5.5006">
        <ele>65.1</ele>
        <time>2025-10-19T08:56:13Z</time>
      </trkpt>
      <trkpt lat="43.2068" lon="5.5006">
        <ele>65.1</ele>
        <time>2025-10-19T08:56:14Z</time>
      </trkpt>
      <trkpt lat="43.2068" lon="5.5006">
        <ele>65.2</ele>
        <time>2025-10-19T08:56:15Z</time>
      </trkpt>
      <trkpt lat="43.2068" lon="5.5006">
        <ele>65.2</ele>
        <time>2025-10-19T08:56:16Z</time>
      </trkpt>
      <trkpt lat="43.2068" lon="5.5006">
        <ele>65.2</ele>
        <time>2025-10-19T08:56:17Z</time>
      </trkpt>
      <trkpt lat="43.2068" lon="5.5006">
        <ele>65.2</ele>
        <time>2025-10-19T08:56:18Z</time>
      </trkpt>
      <trkpt lat="43.20681" lon="5.5006">
        <ele>65.2</ele>
        <time>2025-10-19T08:56:19Z</time>
      </trkpt>
      <trkpt lat="43.20681" lon="5.5006">
        <ele>65.3</ele>
        <time>2025-10-19T08:56:20Z</time>
      </trkpt>
      <trkpt lat="43.20681" lon="5.5006">
        <ele>65.3</ele>
        <time>2025-10-19T08:56:21Z</time>
      </trkpt>
      <trkpt lat="43.20681" lon="5.5006">
        <ele>65.4</ele>
        <time>2025-10-19T08:56:22Z</time>
      </trkpt>
      <trkpt lat="43.20681" lon="5.5006">
        <ele>65.4</ele>
        <time>2025-10-19T08:56:23Z</time>
      </trkpt>
      <trkpt lat="43.20681" lon="5.5006">
        <ele>65.3</ele>
        <time>2025-10-19T08:56:24Z</time>
      </trkpt>
      <trkpt lat="43.20681" lon="5.5006">
        <ele>65.4</ele>
        <time>2025-10-19T08:56:25Z</time>
      </trkpt>
      <trkpt lat="43.20681" lon="5.5006">
        <ele>65.3</ele>
        <time>2025-10-19T08:56:26Z</time>
      </trkpt>
      <trkpt lat="43.20681" lon="5.5006">
        <ele>65.2</ele>
        <time>2025-10-19T08:56:27Z</time>
      </trkpt>
      <trkpt lat="43.20681" lon="5.5006">
        <ele>65.2</ele>
        <time>2025-10-19T08:56:28Z</time>
      </trkpt>
      <trkpt lat="43.20681" lon="5.5006">
        <ele>65.2</ele>
        <time>2025-10-19T08:56:29Z</time>
      </trkpt>
      <trkpt lat="43.20681" lon="5.5006">
        <ele>65.4</ele>
        <time>2025-10-19T08:56:30Z</time>
      </trkpt>
      <trkpt lat="43.20681" lon="5.50059">
        <ele>65.5</ele>
        <time>2025-10-19T08:56:31Z</time>
      </trkpt>
      <trkpt lat="43.20681" lon="5.50059">
        <ele>65.5</ele>
        <time>2025-10-19T08:56:32Z</time>
      </trkpt>
      <trkpt lat="43.2068" lon="5.50058">
        <ele>65.5</ele>
        <time>2025-10-19T08:56:33Z</time>
      </trkpt>
      <trkpt lat="43.2068" lon="5.50058">
        <ele>65.4</ele>
        <time>2025-10-19T08:56:34Z</time>
      </trkpt>
      <trkpt lat="43.2068" lon="5.50057">
        <ele>65.2</ele>
        <time>2025-10-19T08:56:35Z</time>
      </trkpt>
      <trkpt lat="43.2068" lon="5.50056">
        <ele>65</ele>
        <time>2025-10-19T08:56:36Z</time>
      </trkpt>
      <trkpt lat="43.2068" lon="5.50055">
        <ele>64.8</ele>
        <time>2025-10-19T08:56:37Z</time>
      </trkpt>
      <trkpt lat="43.2068" lon="5.50054">
        <ele>64.7</ele>
        <time>2025-10-19T08:56:38Z</time>
      </trkpt>
      <trkpt lat="43.20679" lon="5.50054">
        <ele>64.7</ele>
        <time>2025-10-19T08:56:39Z</time>
      </trkpt>
      <trkpt lat="43.20679" lon="5.50053">
        <ele>64.6</ele>
        <time>2025-10-19T08:56:40Z</time>
      </trkpt>
      <trkpt lat="43.20678" lon="5.50053">
        <ele>64.5</ele>
        <time>2025-10-19T08:56:41Z</time>
      </trkpt>
      <trkpt lat="43.20677" lon="5.50053">
        <ele>64.3</ele>
        <time>2025-10-19T08:56:42Z</time>
      </trkpt>
      <trkpt lat="43.20677" lon="5.50052">
        <ele>64.2</ele>
        <time>2025-10-19T08:56:43Z</time>
      </trkpt>
      <trkpt lat="43.20676" lon="5.50051">
        <ele>64.1</ele>
        <time>2025-10-19T08:56:44Z</time>
      </trkpt>
      <trkpt lat="43.20676" lon="5.50051">
        <ele>64</ele>
        <time>2025-10-19T08:56:45Z</time>
      </trkpt>
      <trkpt lat="43.20676" lon="5.50051">
        <ele>64</ele>
        <time>2025-10-19T08:56:46Z</time>
      </trkpt>
      <trkpt lat="43.20676" lon="5.5005">
        <ele>63.9</ele>
        <time>2025-10-19T08:56:47Z</time>
      </trkpt>
      <trkpt lat="43.20676" lon="5.5005">
        <ele>63.8</ele>
        <time>2025-10-19T08:56:48Z</time>
      </trkpt>
      <trkpt lat="43.20676" lon="5.5005">
        <ele>63.7</ele>
        <time>2025-10-19T08:56:49Z</time>
      </trkpt>
      <trkpt lat="43.20675" lon="5.5005">
        <ele>63.6</ele>
        <time>2025-10-19T08:56:50Z</time>
      </trkpt>
      <trkpt lat="43.20675" lon="5.50049">
        <ele>63.6</ele>
        <time>2025-10-19T08:56:51Z</time>
      </trkpt>
      <trkpt lat="43.20675" lon="5.50049">
        <ele>63.5</ele>
        <time>2025-10-19T08:56:52Z</time>
      </trkpt>
      <trkpt lat="43.20675" lon="5.50049">
        <ele>63.5</ele>
        <time>2025-10-19T08:56:53Z</time>
      </trkpt>
      <trkpt lat="43.20675" lon="5.50049">
        <ele>63.5</ele>
        <time>2025-10-19T08:56:54Z</time>
      </trkpt>
      <trkpt lat="43.20675" lon="5.50049">
        <ele>63.5</ele>
        <time>2025-10-19T08:56:55Z</time>
      </trkpt>
      <trkpt lat="43.20675" lon="5.50048">
        <ele>63.5</ele>
        <time>2025-10-19T08:56:56Z</time>
      </trkpt>
      <trkpt lat="43.20675" lon="5.50048">
        <ele>63.5</ele>
        <time>2025-10-19T08:56:57Z</time>
      </trkpt>
      <trkpt lat="43.20675" lon="5.50048">
        <ele>63.5</ele>
        <time>2025-10-19T08:56:58Z</time>
      </trkpt>
      <trkpt lat="43.20675" lon="5.50048">
        <ele>63.5</ele>
        <time>2025-10-19T08:56:59Z</time>
      </trkpt>
      <trkpt lat="43.20675" lon="5.50048">
        <ele>63.5</ele>
        <time>2025-10-19T08:57:00Z</time>
      </trkpt>
      <trkpt lat="43.20674" lon="5.50048">
        <ele>63.5</ele>
        <time>2025-10-19T08:57:01Z</time>
      </trkpt>
      <trkpt lat="43.20674" lon="5.50048">
        <ele>63.5</ele>
        <time>2025-10-19T08:57:02Z</time>
      </trkpt>
      <trkpt lat="43.20674" lon="5.50048">
        <ele>63.5</ele>
        <time>2025-10-19T08:57:03Z</time>
      </trkpt>
      <trkpt lat="43.20674" lon="5.50048">
        <ele>63.5</ele>
        <time>2025-10-19T08:57:04Z</time>
      </trkpt>
      <trkpt lat="43.20675" lon="5.50048">
        <ele>63.5</ele>
        <time>2025-10-19T08:57:05Z</time>
      </trkpt>
      <trkpt lat="43.20675" lon="5.50048">
        <ele>63.5</ele>
        <time>2025-10-19T08:57:06Z</time>
      </trkpt>
      <trkpt lat="43.20675" lon="5.50048">
        <ele>63.5</ele>
        <time>2025-10-19T08:57:07Z</time>
      </trkpt>
      <trkpt lat="43.20675" lon="5.50048">
        <ele>63.5</ele>
        <time>2025-10-19T08:57:08Z</time>
      </trkpt>
      <trkpt lat="43.20675" lon="5.50048">
        <ele>63.5</ele>
        <time>2025-10-19T08:57:09Z</time>
      </trkpt>
      <trkpt lat="43.20675" lon="5.50048">
        <ele>63.5</ele>
        <time>2025-10-19T08:57:10Z</time>
      </trkpt>
      <trkpt lat="43.20675" lon="5.50047">
        <ele>63.5</ele>
        <time>2025-10-19T08:57:11Z</time>
      </trkpt>
      <trkpt lat="43.20675" lon="5.50048">
        <ele>63.5</ele>
        <time>2025-10-19T08:57:12Z</time>
      </trkpt>
      <trkpt lat="43.20676" lon="5.50048">
        <ele>63.5</ele>
        <time>2025-10-19T08:57:13Z</time>
      </trkpt>
      <trkpt lat="43.20676" lon="5.50048">
        <ele>63.5</ele>
        <time>2025-10-19T08:57:14Z</time>
      </trkpt>
      <trkpt lat="43.20676" lon="5.50048">
        <ele>63.4</ele>
        <time>2025-10-19T08:57:15Z</time>
      </trkpt>
      <trkpt lat="43.20676" lon="5.50049">
        <ele>63.5</ele>
        <time>2025-10-19T08:57:16Z</time>
      </trkpt>
      <trkpt lat="43.20676" lon="5.50048">
        <ele>63.5</ele>
        <time>2025-10-19T08:57:17Z</time>
      </trkpt>
      <trkpt lat="43.20676" lon="5.50048">
        <ele>63.6</ele>
        <time>2025-10-19T08:57:18Z</time>
      </trkpt>
      <trkpt lat="43.20676" lon="5.50048">
        <ele>63.6</ele>
        <time>2025-10-19T08:57:19Z</time>
      </trkpt>
      <trkpt lat="43.20676" lon="5.50048">
        <ele>63.5</ele>
        <time>2025-10-19T08:57:20Z</time>
      </trkpt>
      <trkpt lat="43.20676" lon="5.50047">
        <ele>63.5</ele>
        <time>2025-10-19T08:57:21Z</time>
      </trkpt>
      <trkpt lat="43.20676" lon="5.50048">
        <ele>63.4</ele>
        <time>2025-10-19T08:57:22Z</time>
      </trkpt>
      <trkpt lat="43.20676" lon="5.50048">
        <ele>63.4</ele>
        <time>2025-10-19T08:57:23Z</time>
      </trkpt>
      <trkpt lat="43.20676" lon="5.50048">
        <ele>63.4</ele>
        <time>2025-10-19T08:57:24Z</time>
      </trkpt>
      <trkpt lat="43.20676" lon="5.50047">
        <ele>63.5</ele>
        <time>2025-10-19T08:57:25Z</time>
      </trkpt>
      <trkpt lat="43.20676" lon="5.50047">
        <ele>63.4</ele>
        <time>2025-10-19T08:57:26Z</time>
      </trkpt>
      <trkpt lat="43.20676" lon="5.50047">
        <ele>63.4</ele>
        <time>2025-10-19T08:57:27Z</time>
      </trkpt>
      <trkpt lat="43.20676" lon="5.50047">
        <ele>63.3</ele>
        <time>2025-10-19T08:57:28Z</time>
      </trkpt>
      <trkpt lat="43.20676" lon="5.50048">
        <ele>63.3</ele>
        <time>2025-10-19T08:57:29Z</time>
      </trkpt>
      <trkpt lat="43.20676" lon="5.50048">
        <ele>63.3</ele>
        <time>2025-10-19T08:57:30Z</time>
      </trkpt>
      <trkpt lat="43.20675" lon="5.50048">
        <ele>63.3</ele>
        <time>2025-10-19T08:57:31Z</time>
      </trkpt>
      <trkpt lat="43.20675" lon="5.50047">
        <ele>63.3</ele>
        <time>2025-10-19T08:57:32Z</time>
      </trkpt>
      <trkpt lat="43.20675" lon="5.50047">
        <ele>63.3</ele>
        <time>2025-10-19T08:57:33Z</time>
      </trkpt>
      <trkpt lat="43.20675" lon="5.50047">
        <ele>63.2</ele>
        <time>2025-10-19T08:57:34Z</time>
      </trkpt>
      <trkpt lat="43.20675" lon="5.50047">
        <ele>63.1</ele>
        <time>2025-10-19T08:57:35Z</time>
      </trkpt>
      <trkpt lat="43.20675" lon="5.50047">
        <ele>63</ele>
        <time>2025-10-19T08:57:36Z</time>
      </trkpt>
      <trkpt lat="43.20675" lon="5.50047">
        <ele>62.9</ele>
        <time>2025-10-19T08:57:37Z</time>
      </trkpt>
      <trkpt lat="43.20674" lon="5.50047">
        <ele>62.8</ele>
        <time>2025-10-19T08:57:38Z</time>
      </trkpt>
      <trkpt lat="43.20674" lon="5.50047">
        <ele>62.6</ele>
        <time>2025-10-19T08:57:39Z</time>
      </trkpt>
      <trkpt lat="43.20674" lon="5.50046">
        <ele>62.5</ele>
        <time>2025-10-19T08:57:40Z</time>
      </trkpt>
      <trkpt lat="43.20673" lon="5.50046">
        <ele>62.4</ele>
        <time>2025-10-19T08:57:41Z</time>
      </trkpt>
      <trkpt lat="43.20672" lon="5.50045">
        <ele>62.2</ele>
        <time>2025-10-19T08:57:42Z</time>
      </trkpt>
      <trkpt lat="43.20672" lon="5.50046">
        <ele>62</ele>
        <time>2025-10-19T08:57:43Z</time>
      </trkpt>
      <trkpt lat="43.20672" lon="5.50046">
        <ele>61.9</ele>
        <time>2025-10-19T08:57:44Z</time>
      </trkpt>
      <trkpt lat="43.20672" lon="5.50046">
        <ele>61.8</ele>
        <time>2025-10-19T08:57:45Z</time>
      </trkpt>
      <trkpt lat="43.20671" lon="5.50045">
        <ele>61.7</ele>
        <time>2025-10-19T08:57:46Z</time>
      </trkpt>
      <trkpt lat="43.20671" lon="5.50046">
        <ele>61.6</ele>
        <time>2025-10-19T08:57:47Z</time>
      </trkpt>
      <trkpt lat="43.20671" lon="5.50046">
        <ele>61.5</ele>
        <time>2025-10-19T08:57:48Z</time>
      </trkpt>
      <trkpt lat="43.20671" lon="5.50046">
        <ele>61.4</ele>
        <time>2025-10-19T08:57:49Z</time>
      </trkpt>
      <trkpt lat="43.2067" lon="5.50046">
        <ele>61.4</ele>
        <time>2025-10-19T08:57:50Z</time>
      </trkpt>
      <trkpt lat="43.2067" lon="5.50045">
        <ele>61.3</ele>
        <time>2025-10-19T08:57:51Z</time>
      </trkpt>
      <trkpt lat="43.2067" lon="5.50045">
        <ele>61.3</ele>
        <time>2025-10-19T08:57:52Z</time>
      </trkpt>
      <trkpt lat="43.2067" lon="5.50045">
        <ele>61.3</ele>
        <time>2025-10-19T08:57:53Z</time>
      </trkpt>
      <trkpt lat="43.2067" lon="5.50045">
        <ele>61.2</ele>
        <time>2025-10-19T08:57:54Z</time>
      </trkpt>
      <trkpt lat="43.2067" lon="5.50045">
        <ele>61.2</ele>
        <time>2025-10-19T08:57:55Z</time>
      </trkpt>
      <trkpt lat="43.2067" lon="5.50045">
        <ele>61.1</ele>
        <time>2025-10-19T08:57:56Z</time>
      </trkpt>
      <trkpt lat="43.2067" lon="5.50045">
        <ele>61</ele>
        <time>2025-10-19T08:57:57Z</time>
      </trkpt>
      <trkpt lat="43.2067" lon="5.50044">
        <ele>60.8</ele>
        <time>2025-10-19T08:57:58Z</time>
      </trkpt>
      <trkpt lat="43.20669" lon="5.50044">
        <ele>60.8</ele>
        <time>2025-10-19T08:57:59Z</time>
      </trkpt>
      <trkpt lat="43.20669" lon="5.50043">
        <ele>60.7</ele>
        <time>2025-10-19T08:58:00Z</time>
      </trkpt>
      <trkpt lat="43.20669" lon="5.50043">
        <ele>60.5</ele>
        <time>2025-10-19T08:58:01Z</time>
      </trkpt>
      <trkpt lat="43.20669" lon="5.50043">
        <ele>60.4</ele>
        <time>2025-10-19T08:58:02Z</time>
      </trkpt>
      <trkpt lat="43.20669" lon="5.50042">
        <ele>60.2</ele>
        <time>2025-10-19T08:58:03Z</time>
      </trkpt>
      <trkpt lat="43.20669" lon="5.50042">
        <ele>60</ele>
        <time>2025-10-19T08:58:04Z</time>
      </trkpt>
      <trkpt lat="43.20668" lon="5.50041">
        <ele>59.9</ele>
        <time>2025-10-19T08:58:05Z</time>
      </trkpt>
      <trkpt lat="43.20668" lon="5.50041">
        <ele>59.7</ele>
        <time>2025-10-19T08:58:06Z</time>
      </trkpt>
      <trkpt lat="43.20668" lon="5.50041">
        <ele>59.5</ele>
        <time>2025-10-19T08:58:07Z</time>
      </trkpt>
      <trkpt lat="43.20668" lon="5.50041">
        <ele>59.4</ele>
        <time>2025-10-19T08:58:08Z</time>
      </trkpt>
      <trkpt lat="43.20668" lon="5.50041">
        <ele>59.3</ele>
        <time>2025-10-19T08:58:09Z</time>
      </trkpt>
      <trkpt lat="43.20668" lon="5.5004">
        <ele>59.2</ele>
        <time>2025-10-19T08:58:10Z</time>
      </trkpt>
      <trkpt lat="43.20668" lon="5.5004">
        <ele>59.1</ele>
        <time>2025-10-19T08:58:11Z</time>
      </trkpt>
      <trkpt lat="43.20668" lon="5.5004">
        <ele>59</ele>
        <time>2025-10-19T08:58:12Z</time>
      </trkpt>
      <trkpt lat="43.20668" lon="5.5004">
        <ele>59</ele>
        <time>2025-10-19T08:58:13Z</time>
      </trkpt>
      <trkpt lat="43.20668" lon="5.5004">
        <ele>58.9</ele>
        <time>2025-10-19T08:58:14Z</time>
      </trkpt>
      <trkpt lat="43.20667" lon="5.5004">
        <ele>58.9</ele>
        <time>2025-10-19T08:58:15Z</time>
      </trkpt>
      <trkpt lat="43.20666" lon="5.5004">
        <ele>58.8</ele>
        <time>2025-10-19T08:58:16Z</time>
      </trkpt>
      <trkpt lat="43.20666" lon="5.5004">
        <ele>58.8</ele>
        <time>2025-10-19T08:58:17Z</time>
      </trkpt>
      <trkpt lat="43.20665" lon="5.5004">
        <ele>58.8</ele>
        <time>2025-10-19T08:58:18Z</time>
      </trkpt>
      <trkpt lat="43.20665" lon="5.5004">
        <ele>58.7</ele>
        <time>2025-10-19T08:58:19Z</time>
      </trkpt>
      <trkpt lat="43.20664" lon="5.50039">
        <ele>58.6</ele>
        <time>2025-10-19T08:58:20Z</time>
      </trkpt>
      <trkpt lat="43.20664" lon="5.50038">
        <ele>58.5</ele>
        <time>2025-10-19T08:58:21Z</time>
      </trkpt>
      <trkpt lat="43.20664" lon="5.50037">
        <ele>58.5</ele>
        <time>2025-10-19T08:58:22Z</time>
      </trkpt>
      <trkpt lat="43.20664" lon="5.50037">
        <ele>58.4</ele>
        <time>2025-10-19T08:58:23Z</time>
      </trkpt>
      <trkpt lat="43.20665" lon="5.50037">
        <ele>58.3</ele>
        <time>2025-10-19T08:58:24Z</time>
      </trkpt>
      <trkpt lat="43.20665" lon="5.50036">
        <ele>58.2</ele>
        <time>2025-10-19T08:58:25Z</time>
      </trkpt>
      <trkpt lat="43.20665" lon="5.50036">
        <ele>58.1</ele>
        <time>2025-10-19T08:58:26Z</time>
      </trkpt>
      <trkpt lat="43.20664" lon="5.50036">
        <ele>58</ele>
        <time>2025-10-19T08:58:27Z</time>
      </trkpt>
      <trkpt lat="43.20664" lon="5.50035">
        <ele>57.8</ele>
        <time>2025-10-19T08:58:28Z</time>
      </trkpt>
      <trkpt lat="43.20664" lon="5.50035">
        <ele>57.6</ele>
        <time>2025-10-19T08:58:29Z</time>
      </trkpt>
      <trkpt lat="43.20664" lon="5.50034">
        <ele>57.5</ele>
        <time>2025-10-19T08:58:30Z</time>
      </trkpt>
      <trkpt lat="43.20664" lon="5.50034">
        <ele>57.4</ele>
        <time>2025-10-19T08:58:31Z</time>
      </trkpt>
      <trkpt lat="43.20664" lon="5.50034">
        <ele>57.3</ele>
        <time>2025-10-19T08:58:32Z</time>
      </trkpt>
      <trkpt lat="43.20664" lon="5.50034">
        <ele>57.2</ele>
        <time>2025-10-19T08:58:33Z</time>
      </trkpt>
      <trkpt lat="43.20664" lon="5.50034">
        <ele>57.1</ele>
        <time>2025-10-19T08:58:34Z</time>
      </trkpt>
      <trkpt lat="43.20664" lon="5.50034">
        <ele>57.1</ele>
        <time>2025-10-19T08:58:35Z</time>
      </trkpt>
      <trkpt lat="43.20664" lon="5.50034">
        <ele>57.1</ele>
        <time>2025-10-19T08:58:36Z</time>
      </trkpt>
      <trkpt lat="43.20664" lon="5.50033">
        <ele>57.1</ele>
        <time>2025-10-19T08:58:37Z</time>
      </trkpt>
      <trkpt lat="43.20664" lon="5.50033">
        <ele>57.1</ele>
        <time>2025-10-19T08:58:38Z</time>
      </trkpt>
      <trkpt lat="43.20664" lon="5.50032">
        <ele>57</ele>
        <time>2025-10-19T08:58:39Z</time>
      </trkpt>
      <trkpt lat="43.20663" lon="5.50031">
        <ele>56.8</ele>
        <time>2025-10-19T08:58:40Z</time>
      </trkpt>
      <trkpt lat="43.20663" lon="5.5003">
        <ele>56.6</ele>
        <time>2025-10-19T08:58:41Z</time>
      </trkpt>
      <trkpt lat="43.20663" lon="5.5003">
        <ele>56.4</ele>
        <time>2025-10-19T08:58:42Z</time>
      </trkpt>
      <trkpt lat="43.20662" lon="5.5003">
        <ele>56</ele>
        <time>2025-10-19T08:58:43Z</time>
      </trkpt>
      <trkpt lat="43.20661" lon="5.50029">
        <ele>55.9</ele>
        <time>2025-10-19T08:58:44Z</time>
      </trkpt>
      <trkpt lat="43.20661" lon="5.50029">
        <ele>55.7</ele>
        <time>2025-10-19T08:58:45Z</time>
      </trkpt>
      <trkpt lat="43.20661" lon="5.50028">
        <ele>55.5</ele>
        <time>2025-10-19T08:58:46Z</time>
      </trkpt>
      <trkpt lat="43.2066" lon="5.50028">
        <ele>55.3</ele>
        <time>2025-10-19T08:58:47Z</time>
      </trkpt>
      <trkpt lat="43.2066" lon="5.50027">
        <ele>55.1</ele>
        <time>2025-10-19T08:58:48Z</time>
      </trkpt>
      <trkpt lat="43.2066" lon="5.50027">
        <ele>55</ele>
        <time>2025-10-19T08:58:49Z</time>
      </trkpt>
      <trkpt lat="43.2066" lon="5.50026">
        <ele>54.8</ele>
        <time>2025-10-19T08:58:50Z</time>
      </trkpt>
      <trkpt lat="43.2066" lon="5.50026">
        <ele>54.5</ele>
        <time>2025-10-19T08:58:51Z</time>
      </trkpt>
      <trkpt lat="43.2066" lon="5.50025">
        <ele>54.4</ele>
        <time>2025-10-19T08:58:52Z</time>
      </trkpt>
      <trkpt lat="43.2066" lon="5.50025">
        <ele>54.2</ele>
        <time>2025-10-19T08:58:53Z</time>
      </trkpt>
      <trkpt lat="43.2066" lon="5.50025">
        <ele>54.1</ele>
        <time>2025-10-19T08:58:54Z</time>
      </trkpt>
      <trkpt lat="43.2066" lon="5.50024">
        <ele>54</ele>
        <time>2025-10-19T08:58:55Z</time>
      </trkpt>
      <trkpt lat="43.20659" lon="5.50023">
        <ele>53.8</ele>
        <time>2025-10-19T08:58:56Z</time>
      </trkpt>
      <trkpt lat="43.20659" lon="5.50023">
        <ele>53.6</ele>
        <time>2025-10-19T08:58:57Z</time>
      </trkpt>
      <trkpt lat="43.20659" lon="5.50023">
        <ele>53.5</ele>
        <time>2025-10-19T08:58:58Z</time>
      </trkpt>
      <trkpt lat="43.20659" lon="5.50024">
        <ele>53.4</ele>
        <time>2025-10-19T08:58:59Z</time>
      </trkpt>
      <trkpt lat="43.20659" lon="5.50024">
        <ele>53.3</ele>
        <time>2025-10-19T08:59:00Z</time>
      </trkpt>
      <trkpt lat="43.20659" lon="5.50024">
        <ele>53.2</ele>
        <time>2025-10-19T08:59:01Z</time>
      </trkpt>
      <trkpt lat="43.20659" lon="5.50023">
        <ele>53.1</ele>
        <time>2025-10-19T08:59:02Z</time>
      </trkpt>
      <trkpt lat="43.20658" lon="5.50023">
        <ele>53</ele>
        <time>2025-10-19T08:59:03Z</time>
      </trkpt>
      <trkpt lat="43.20658" lon="5.50022">
        <ele>52.9</ele>
        <time>2025-10-19T08:59:04Z</time>
      </trkpt>
      <trkpt lat="43.20658" lon="5.50022">
        <ele>52.8</ele>
        <time>2025-10-19T08:59:05Z</time>
      </trkpt>
      <trkpt lat="43.20658" lon="5.50021">
        <ele>52.7</ele>
        <time>2025-10-19T08:59:06Z</time>
      </trkpt>
      <trkpt lat="43.20657" lon="5.5002">
        <ele>52.5</ele>
        <time>2025-10-19T08:59:07Z</time>
      </trkpt>
      <trkpt lat="43.20657" lon="5.5002">
        <ele>52.3</ele>
        <time>2025-10-19T08:59:08Z</time>
      </trkpt>
      <trkpt lat="43.20656" lon="5.5002">
        <ele>52.2</ele>
        <time>2025-10-19T08:59:09Z</time>
      </trkpt>
      <trkpt lat="43.20656" lon="5.50019">
        <ele>52.1</ele>
        <time>2025-10-19T08:59:10Z</time>
      </trkpt>
      <trkpt lat="43.20656" lon="5.5002">
        <ele>52</ele>
        <time>2025-10-19T08:59:11Z</time>
      </trkpt>
      <trkpt lat="43.20656" lon="5.50019">
        <ele>52</ele>
        <time>2025-10-19T08:59:12Z</time>
      </trkpt>
      <trkpt lat="43.20656" lon="5.50018">
        <ele>51.9</ele>
        <time>2025-10-19T08:59:13Z</time>
      </trkpt>
      <trkpt lat="43.20656" lon="5.50017">
        <ele>51.8</ele>
        <time>2025-10-19T08:59:14Z</time>
      </trkpt>
      <trkpt lat="43.20656" lon="5.50016">
        <ele>51.7</ele>
        <time>2025-10-19T08:59:15Z</time>
      </trkpt>
      <trkpt lat="43.20655" lon="5.50015">
        <ele>51.4</ele>
        <time>2025-10-19T08:59:16Z</time>
      </trkpt>
      <trkpt lat="43.20655" lon="5.50014">
        <ele>51.2</ele>
        <time>2025-10-19T08:59:17Z</time>
      </trkpt>
      <trkpt lat="43.20655" lon="5.50014">
        <ele>51.1</ele>
        <time>2025-10-19T08:59:18Z</time>
      </trkpt>
      <trkpt lat="43.20654" lon="5.50014">
        <ele>51</ele>
        <time>2025-10-19T08:59:19Z</time>
      </trkpt>
      <trkpt lat="43.20654" lon="5.50013">
        <ele>50.7</ele>
        <time>2025-10-19T08:59:20Z</time>
      </trkpt>
      <trkpt lat="43.20654" lon="5.50013">
        <ele>50.5</ele>
        <time>2025-10-19T08:59:21Z</time>
      </trkpt>
      <trkpt lat="43.20654" lon="5.50013">
        <ele>50.3</ele>
        <time>2025-10-19T08:59:22Z</time>
      </trkpt>
      <trkpt lat="43.20654" lon="5.50014">
        <ele>50</ele>
        <time>2025-10-19T08:59:23Z</time>
      </trkpt>
      <trkpt lat="43.20653" lon="5.50014">
        <ele>49.9</ele>
        <time>2025-10-19T08:59:24Z</time>
      </trkpt>
      <trkpt lat="43.20653" lon="5.50014">
        <ele>49.9</ele>
        <time>2025-10-19T08:59:25Z</time>
      </trkpt>
      <trkpt lat="43.20653" lon="5.50014">
        <ele>49.8</ele>
        <time>2025-10-19T08:59:26Z</time>
      </trkpt>
      <trkpt lat="43.20652" lon="5.50013">
        <ele>49.8</ele>
        <time>2025-10-19T08:59:27Z</time>
      </trkpt>
      <trkpt lat="43.20652" lon="5.50014">
        <ele>49.7</ele>
        <time>2025-10-19T08:59:28Z</time>
      </trkpt>
      <trkpt lat="43.20652" lon="5.50014">
        <ele>49.6</ele>
        <time>2025-10-19T08:59:29Z</time>
      </trkpt>
      <trkpt lat="43.20651" lon="5.50014">
        <ele>49.5</ele>
        <time>2025-10-19T08:59:30Z</time>
      </trkpt>
      <trkpt lat="43.20651" lon="5.50013">
        <ele>49.4</ele>
        <time>2025-10-19T08:59:31Z</time>
      </trkpt>
      <trkpt lat="43.20651" lon="5.50013">
        <ele>49.4</ele>
        <time>2025-10-19T08:59:32Z</time>
      </trkpt>
      <trkpt lat="43.20651" lon="5.50013">
        <ele>49.3</ele>
        <time>2025-10-19T08:59:33Z</time>
      </trkpt>
      <trkpt lat="43.2065" lon="5.50013">
        <ele>49.3</ele>
        <time>2025-10-19T08:59:34Z</time>
      </trkpt>
      <trkpt lat="43.2065" lon="5.50013">
        <ele>49.2</ele>
        <time>2025-10-19T08:59:35Z</time>
      </trkpt>
      <trkpt lat="43.2065" lon="5.50013">
        <ele>49.2</ele>
        <time>2025-10-19T08:59:36Z</time>
      </trkpt>
      <trkpt lat="43.2065" lon="5.50012">
        <ele>49.2</ele>
        <time>2025-10-19T08:59:37Z</time>
      </trkpt>
      <trkpt lat="43.2065" lon="5.50012">
        <ele>49.2</ele>
        <time>2025-10-19T08:59:38Z</time>
      </trkpt>
      <trkpt lat="43.2065" lon="5.50011">
        <ele>49</ele>
        <time>2025-10-19T08:59:39Z</time>
      </trkpt>
      <trkpt lat="43.2065" lon="5.50011">
        <ele>48.9</ele>
        <time>2025-10-19T08:59:40Z</time>
      </trkpt>
      <trkpt lat="43.2065" lon="5.50011">
        <ele>48.8</ele>
        <time>2025-10-19T08:59:41Z</time>
      </trkpt>
      <trkpt lat="43.2065" lon="5.50011">
        <ele>48.7</ele>
        <time>2025-10-19T08:59:42Z</time>
      </trkpt>
      <trkpt lat="43.20649" lon="5.50011">
        <ele>48.6</ele>
        <time>2025-10-19T08:59:43Z</time>
      </trkpt>
      <trkpt lat="43.20649" lon="5.5001">
        <ele>48.6</ele>
        <time>2025-10-19T08:59:44Z</time>
      </trkpt>
      <trkpt lat="43.20649" lon="5.5001">
        <ele>48.4</ele>
        <time>2025-10-19T08:59:45Z</time>
      </trkpt>
      <trkpt lat="43.20649" lon="5.50009">
        <ele>48.2</ele>
        <time>2025-10-19T08:59:46Z</time>
      </trkpt>
      <trkpt lat="43.20648" lon="5.50008">
        <ele>48.1</ele>
        <time>2025-10-19T08:59:47Z</time>
      </trkpt>
      <trkpt lat="43.20648" lon="5.50008">
        <ele>48</ele>
        <time>2025-10-19T08:59:48Z</time>
      </trkpt>
      <trkpt lat="43.20648" lon="5.50007">
        <ele>47.8</ele>
        <time>2025-10-19T08:59:49Z</time>
      </trkpt>
      <trkpt lat="43.20648" lon="5.50007">
        <ele>47.7</ele>
        <time>2025-10-19T08:59:50Z</time>
      </trkpt>
      <trkpt lat="43.20648" lon="5.50006">
        <ele>47.5</ele>
        <time>2025-10-19T08:59:51Z</time>
      </trkpt>
      <trkpt lat="43.20648" lon="5.50005">
        <ele>47.3</ele>
        <time>2025-10-19T08:59:52Z</time>
      </trkpt>
      <trkpt lat="43.20647" lon="5.50005">
        <ele>47.1</ele>
        <time>2025-10-19T08:59:53Z</time>
      </trkpt>
      <trkpt lat="43.20647" lon="5.50005">
        <ele>47</ele>
        <time>2025-10-19T08:59:54Z</time>
      </trkpt>
      <trkpt lat="43.20647" lon="5.50004">
        <ele>46.8</ele>
        <time>2025-10-19T08:59:55Z</time>
      </trkpt>
      <trkpt lat="43.20647" lon="5.50004">
        <ele>46.5</ele>
        <time>2025-10-19T08:59:56Z</time>
      </trkpt>
      <trkpt lat="43.20646" lon="5.50004">
        <ele>46.4</ele>
        <time>2025-10-19T08:59:57Z</time>
      </trkpt>
      <trkpt lat="43.20646" lon="5.50004">
        <ele>46.2</ele>
        <time>2025-10-19T08:59:58Z</time>
      </trkpt>
      <trkpt lat="43.20646" lon="5.50004">
        <ele>46.1</ele>
        <time>2025-10-19T08:59:59Z</time>
      </trkpt>
      <trkpt lat="43.20646" lon="5.50004">
        <ele>45.9</ele>
        <time>2025-10-19T09:00:00Z</time>
      </trkpt>
      <trkpt lat="43.20645" lon="5.50004">
        <ele>45.7</ele>
        <time>2025-10-19T09:00:01Z</time>
      </trkpt>
      <trkpt lat="43.20645" lon="5.50004">
        <ele>45.5</ele>
        <time>2025-10-19T09:00:02Z</time>
      </trkpt>
      <trkpt lat="43.20644" lon="5.50003">
        <ele>45.3</ele>
        <time>2025-10-19T09:00:03Z</time>
      </trkpt>
      <trkpt lat="43.20643" lon="5.50002">
        <ele>45.1</ele>
        <time>2025-10-19T09:00:04Z</time>
      </trkpt>
      <trkpt lat="43.20643" lon="5.50002">
        <ele>44.9</ele>
        <time>2025-10-19T09:00:05Z</time>
      </trkpt>
      <trkpt lat="43.20643" lon="5.50002">
        <ele>44.7</ele>
        <time>2025-10-19T09:00:06Z</time>
      </trkpt>
      <trkpt lat="43.20643" lon="5.50002">
        <ele>44.6</ele>
        <time>2025-10-19T09:00:07Z</time>
      </trkpt>
      <trkpt lat="43.20643" lon="5.50002">
        <ele>44.4</ele>
        <time>2025-10-19T09:00:08Z</time>
      </trkpt>
      <trkpt lat="43.20642" lon="5.50001">
        <ele>44.4</ele>
        <time>2025-10-19T09:00:09Z</time>
      </trkpt>
      <trkpt lat="43.20642" lon="5.50001">
        <ele>44.3</ele>
        <time>2025-10-19T09:00:10Z</time>
      </trkpt>
      <trkpt lat="43.20642" lon="5.50002">
        <ele>44.3</ele>
        <time>2025-10-19T09:00:11Z</time>
      </trkpt>
      <trkpt lat="43.20642" lon="5.50002">
        <ele>44.2</ele>
        <time>2025-10-19T09:00:12Z</time>
      </trkpt>
      <trkpt lat="43.20642" lon="5.50002">
        <ele>44.1</ele>
        <time>2025-10-19T09:00:13Z</time>
      </trkpt>
      <trkpt lat="43.20642" lon="5.50002">
        <ele>44</ele>
        <time>2025-10-19T09:00:14Z</time>
      </trkpt>
      <trkpt lat="43.20641" lon="5.50001">
        <ele>43.9</ele>
        <time>2025-10-19T09:00:15Z</time>
      </trkpt>
      <trkpt lat="43.20641" lon="5.5">
        <ele>43.8</ele>
        <time>2025-10-19T09:00:16Z</time>
      </trkpt>
      <trkpt lat="43.20641" lon="5.49999">
        <ele>43.5</ele>
        <time>2025-10-19T09:00:17Z</time>
      </trkpt>
      <trkpt lat="43.2064" lon="5.49999">
        <ele>43.3</ele>
        <time>2025-10-19T09:00:18Z</time>
      </trkpt>
      <trkpt lat="43.2064" lon="5.49998">
        <ele>43</ele>
        <time>2025-10-19T09:00:19Z</time>
      </trkpt>
      <trkpt lat="43.2064" lon="5.49997">
        <ele>42.8</ele>
        <time>2025-10-19T09:00:20Z</time>
      </trkpt>
      <trkpt lat="43.20639" lon="5.49996">
        <ele>42.6</ele>
        <time>2025-10-19T09:00:21Z</time>
      </trkpt>
      <trkpt lat="43.20639" lon="5.49996">
        <ele>42.3</ele>
        <time>2025-10-19T09:00:22Z</time>
      </trkpt>
      <trkpt lat="43.20638" lon="5.49996">
        <ele>42.1</ele>
        <time>2025-10-19T09:00:23Z</time>
      </trkpt>
      <trkpt lat="43.20638" lon="5.49997">
        <ele>42</ele>
        <time>2025-10-19T09:00:24Z</time>
      </trkpt>
      <trkpt lat="43.20638" lon="5.49997">
        <ele>41.8</ele>
        <time>2025-10-19T09:00:25Z</time>
      </trkpt>
      <trkpt lat="43.20637" lon="5.49996">
        <ele>41.7</ele>
        <time>2025-10-19T09:00:26Z</time>
      </trkpt>
      <trkpt lat="43.20637" lon="5.49996">
        <ele>41.5</ele>
        <time>2025-10-19T09:00:27Z</time>
      </trkpt>
      <trkpt lat="43.20636" lon="5.49996">
        <ele>41.3</ele>
        <time>2025-10-19T09:00:28Z</time>
      </trkpt>
      <trkpt lat="43.20636" lon="5.49995">
        <ele>41.2</ele>
        <time>2025-10-19T09:00:29Z</time>
      </trkpt>
      <trkpt lat="43.20636" lon="5.49994">
        <ele>41.1</ele>
        <time>2025-10-19T09:00:30Z</time>
      </trkpt>
      <trkpt lat="43.20636" lon="5.49995">
        <ele>40.9</ele>
        <time>2025-10-19T09:00:31Z</time>
      </trkpt>
      <trkpt lat="43.20636" lon="5.49995">
        <ele>40.7</ele>
        <time>2025-10-19T09:00:32Z</time>
      </trkpt>
      <trkpt lat="43.20636" lon="5.49995">
        <ele>40.5</ele>
        <time>2025-10-19T09:00:33Z</time>
      </trkpt>
      <trkpt lat="43.20636" lon="5.49994">
        <ele>40.4</ele>
        <time>2025-10-19T09:00:34Z</time>
      </trkpt>
      <trkpt lat="43.20636" lon="5.49994">
        <ele>40.1</ele>
        <time>2025-10-19T09:00:35Z</time>
      </trkpt>
      <trkpt lat="43.20636" lon="5.49994">
        <ele>39.9</ele>
        <time>2025-10-19T09:00:36Z</time>
      </trkpt>
      <trkpt lat="43.20636" lon="5.49993">
        <ele>39.8</ele>
        <time>2025-10-19T09:00:37Z</time>
      </trkpt>
      <trkpt lat="43.20635" lon="5.49993">
        <ele>39.6</ele>
        <time>2025-10-19T09:00:38Z</time>
      </trkpt>
      <trkpt lat="43.20635" lon="5.49993">
        <ele>39.3</ele>
        <time>2025-10-19T09:00:39Z</time>
      </trkpt>
      <trkpt lat="43.20635" lon="5.49992">
        <ele>39.1</ele>
        <time>2025-10-19T09:00:40Z</time>
      </trkpt>
      <trkpt lat="43.20635" lon="5.49992">
        <ele>39</ele>
        <time>2025-10-19T09:00:41Z</time>
      </trkpt>
      <trkpt lat="43.20635" lon="5.4999">
        <ele>38.8</ele>
        <time>2025-10-19T09:00:42Z</time>
      </trkpt>
      <trkpt lat="43.20635" lon="5.4999">
        <ele>38.6</ele>
        <time>2025-10-19T09:00:43Z</time>
      </trkpt>
      <trkpt lat="43.20635" lon="5.49989">
        <ele>38.5</ele>
        <time>2025-10-19T09:00:44Z</time>
      </trkpt>
      <trkpt lat="43.20636" lon="5.49989">
        <ele>38.3</ele>
        <time>2025-10-19T09:00:45Z</time>
      </trkpt>
      <trkpt lat="43.20636" lon="5.49988">
        <ele>38</ele>
        <time>2025-10-19T09:00:46Z</time>
      </trkpt>
      <trkpt lat="43.20636" lon="5.49987">
        <ele>37.9</ele>
        <time>2025-10-19T09:00:47Z</time>
      </trkpt>
      <trkpt lat="43.20636" lon="5.49986">
        <ele>37.7</ele>
        <time>2025-10-19T09:00:48Z</time>
      </trkpt>
      <trkpt lat="43.20635" lon="5.49985">
        <ele>37.6</ele>
        <time>2025-10-19T09:00:49Z</time>
      </trkpt>
      <trkpt lat="43.20635" lon="5.49985">
        <ele>37.3</ele>
        <time>2025-10-19T09:00:50Z</time>
      </trkpt>
      <trkpt lat="43.20635" lon="5.49985">
        <ele>37</ele>
        <time>2025-10-19T09:00:51Z</time>
      </trkpt>
      <trkpt lat="43.20635" lon="5.49984">
        <ele>36.9</ele>
        <time>2025-10-19T09:00:52Z</time>
      </trkpt>
      <trkpt lat="43.20635" lon="5.49984">
        <ele>36.7</ele>
        <time>2025-10-19T09:00:53Z</time>
      </trkpt>
      <trkpt lat="43.20635" lon="5.49983">
        <ele>36.5</ele>
        <time>2025-10-19T09:00:54Z</time>
      </trkpt>
      <trkpt lat="43.20635" lon="5.49983">
        <ele>36.4</ele>
        <time>2025-10-19T09:00:55Z</time>
      </trkpt>
      <trkpt lat="43.20635" lon="5.49983">
        <ele>36.3</ele>
        <time>2025-10-19T09:00:56Z</time>
      </trkpt>
      <trkpt lat="43.20636" lon="5.49982">
        <ele>36.2</ele>
        <time>2025-10-19T09:00:57Z</time>
      </trkpt>
      <trkpt lat="43.20636" lon="5.49982">
        <ele>36.1</ele>
        <time>2025-10-19T09:00:58Z</time>
      </trkpt>
      <trkpt lat="43.20636" lon="5.49982">
        <ele>36</ele>
        <time>2025-10-19T09:00:59Z</time>
      </trkpt>
      <trkpt lat="43.20636" lon="5.49982">
        <ele>35.9</ele>
        <time>2025-10-19T09:01:00Z</time>
      </trkpt>
      <trkpt lat="43.20636" lon="5.49982">
        <ele>35.8</ele>
        <time>2025-10-19T09:01:01Z</time>
      </trkpt>
      <trkpt lat="43.20636" lon="5.49982">
        <ele>35.8</ele>
        <time>2025-10-19T09:01:02Z</time>
      </trkpt>
      <trkpt lat="43.20636" lon="5.49982">
        <ele>35.7</ele>
        <time>2025-10-19T09:01:03Z</time>
      </trkpt>
      <trkpt lat="43.20636" lon="5.49982">
        <ele>35.6</ele>
        <time>2025-10-19T09:01:04Z</time>
      </trkpt>
      <trkpt lat="43.20636" lon="5.49981">
        <ele>35.5</ele>
        <time>2025-10-19T09:01:05Z</time>
      </trkpt>
      <trkpt lat="43.20636" lon="5.49981">
        <ele>35.4</ele>
        <time>2025-10-19T09:01:06Z</time>
      </trkpt>
      <trkpt lat="43.20636" lon="5.4998">
        <ele>35.2</ele>
        <time>2025-10-19T09:01:07Z</time>
      </trkpt>
      <trkpt lat="43.20636" lon="5.4998">
        <ele>35.1</ele>
        <time>2025-10-19T09:01:08Z</time>
      </trkpt>
      <trkpt lat="43.20636" lon="5.4998">
        <ele>35</ele>
        <time>2025-10-19T09:01:09Z</time>
      </trkpt>
      <trkpt lat="43.20636" lon="5.49979">
        <ele>34.7</ele>
        <time>2025-10-19T09:01:10Z</time>
      </trkpt>
      <trkpt lat="43.20637" lon="5.49978">
        <ele>34.6</ele>
        <time>2025-10-19T09:01:11Z</time>
      </trkpt>
      <trkpt lat="43.20637" lon="5.49978">
        <ele>34.6</ele>
        <time>2025-10-19T09:01:12Z</time>
      </trkpt>
      <trkpt lat="43.20637" lon="5.49977">
        <ele>34.5</ele>
        <time>2025-10-19T09:01:13Z</time>
      </trkpt>
      <trkpt lat="43.20637" lon="5.49976">
        <ele>34.3</ele>
        <time>2025-10-19T09:01:14Z</time>
      </trkpt>
      <trkpt lat="43.20636" lon="5.49976">
        <ele>34.1</ele>
        <time>2025-10-19T09:01:15Z</time>
      </trkpt>
      <trkpt lat="43.20636" lon="5.49976">
        <ele>33.9</ele>
        <time>2025-10-19T09:01:16Z</time>
      </trkpt>
      <trkpt lat="43.20636" lon="5.49975">
        <ele>33.7</ele>
        <time>2025-10-19T09:01:17Z</time>
      </trkpt>
      <trkpt lat="43.20636" lon="5.49975">
        <ele>33.6</ele>
        <time>2025-10-19T09:01:18Z</time>
      </trkpt>
      <trkpt lat="43.20636" lon="5.49974">
        <ele>33.4</ele>
        <time>2025-10-19T09:01:19Z</time>
      </trkpt>
      <trkpt lat="43.20636" lon="5.49973">
        <ele>33.2</ele>
        <time>2025-10-19T09:01:20Z</time>
      </trkpt>
      <trkpt lat="43.20636" lon="5.49973">
        <ele>33</ele>
        <time>2025-10-19T09:01:21Z</time>
      </trkpt>
      <trkpt lat="43.20636" lon="5.49971">
        <ele>32.8</ele>
        <time>2025-10-19T09:01:22Z</time>
      </trkpt>
      <trkpt lat="43.20636" lon="5.4997">
        <ele>32.7</ele>
        <time>2025-10-19T09:01:23Z</time>
      </trkpt>
      <trkpt lat="43.20636" lon="5.49969">
        <ele>32.5</ele>
        <time>2025-10-19T09:01:24Z</time>
      </trkpt>
      <trkpt lat="43.20636" lon="5.49969">
        <ele>32.4</ele>
        <time>2025-10-19T09:01:25Z</time>
      </trkpt>
      <trkpt lat="43.20636" lon="5.49968">
        <ele>32.3</ele>
        <time>2025-10-19T09:01:26Z</time>
      </trkpt>
      <trkpt lat="43.20636" lon="5.49967">
        <ele>32.1</ele>
        <time>2025-10-19T09:01:27Z</time>
      </trkpt>
      <trkpt lat="43.20636" lon="5.49966">
        <ele>32</ele>
        <time>2025-10-19T09:01:28Z</time>
      </trkpt>
      <trkpt lat="43.20635" lon="5.49965">
        <ele>31.8</ele>
        <time>2025-10-19T09:01:29Z</time>
      </trkpt>
      <trkpt lat="43.20635" lon="5.49965">
        <ele>31.7</ele>
        <time>2025-10-19T09:01:30Z</time>
      </trkpt>
      <trkpt lat="43.20635" lon="5.49965">
        <ele>31.6</ele>
        <time>2025-10-19T09:01:31Z</time>
      </trkpt>
      <trkpt lat="43.20635" lon="5.49965">
        <ele>31.5</ele>
        <time>2025-10-19T09:01:32Z</time>
      </trkpt>
      <trkpt lat="43.20635" lon="5.49965">
        <ele>31.4</ele>
        <time>2025-10-19T09:01:33Z</time>
      </trkpt>
      <trkpt lat="43.20635" lon="5.49965">
        <ele>31.3</ele>
        <time>2025-10-19T09:01:34Z</time>
      </trkpt>
      <trkpt lat="43.20635" lon="5.49965">
        <ele>31.3</ele>
        <time>2025-10-19T09:01:35Z</time>
      </trkpt>
      <trkpt lat="43.20636" lon="5.49965">
        <ele>31.2</ele>
        <time>2025-10-19T09:01:36Z</time>
      </trkpt>
      <trkpt lat="43.20636" lon="5.49965">
        <ele>31.2</ele>
        <time>2025-10-19T09:01:37Z</time>
      </trkpt>
      <trkpt lat="43.20635" lon="5.49964">
        <ele>31.2</ele>
        <time>2025-10-19T09:01:38Z</time>
      </trkpt>
      <trkpt lat="43.20635" lon="5.49964">
        <ele>31.1</ele>
        <time>2025-10-19T09:01:39Z</time>
      </trkpt>
      <trkpt lat="43.20635" lon="5.49963">
        <ele>31.1</ele>
        <time>2025-10-19T09:01:40Z</time>
      </trkpt>
      <trkpt lat="43.20634" lon="5.49963">
        <ele>31.1</ele>
        <time>2025-10-19T09:01:41Z</time>
      </trkpt>
      <trkpt lat="43.20634" lon="5.49963">
        <ele>31.1</ele>
        <time>2025-10-19T09:01:42Z</time>
      </trkpt>
      <trkpt lat="43.20634" lon="5.49963">
        <ele>31.1</ele>
        <time>2025-10-19T09:01:43Z</time>
      </trkpt>
      <trkpt lat="43.20634" lon="5.49962">
        <ele>31.1</ele>
        <time>2025-10-19T09:01:44Z</time>
      </trkpt>
      <trkpt lat="43.20634" lon="5.49963">
        <ele>31.1</ele>
        <time>2025-10-19T09:01:45Z</time>
      </trkpt>
      <trkpt lat="43.20634" lon="5.49962">
        <ele>31.1</ele>
        <time>2025-10-19T09:01:46Z</time>
      </trkpt>
      <trkpt lat="43.20634" lon="5.49961">
        <ele>31.1</ele>
        <time>2025-10-19T09:01:47Z</time>
      </trkpt>
      <trkpt lat="43.20633" lon="5.49961">
        <ele>31.1</ele>
        <time>2025-10-19T09:01:48Z</time>
      </trkpt>
      <trkpt lat="43.20633" lon="5.4996">
        <ele>31</ele>
        <time>2025-10-19T09:01:49Z</time>
      </trkpt>
      <trkpt lat="43.20632" lon="5.49959">
        <ele>30.9</ele>
        <time>2025-10-19T09:01:50Z</time>
      </trkpt>
      <trkpt lat="43.20631" lon="5.49958">
        <ele>30.7</ele>
        <time>2025-10-19T09:01:51Z</time>
      </trkpt>
      <trkpt lat="43.20631" lon="5.49957">
        <ele>30.6</ele>
        <time>2025-10-19T09:01:52Z</time>
      </trkpt>
      <trkpt lat="43.20631" lon="5.49956">
        <ele>30.4</ele>
        <time>2025-10-19T09:01:53Z</time>
      </trkpt>
      <trkpt lat="43.20631" lon="5.49954">
        <ele>30.1</ele>
        <time>2025-10-19T09:01:54Z</time>
      </trkpt>
      <trkpt lat="43.20631" lon="5.49954">
        <ele>29.8</ele>
        <time>2025-10-19T09:01:55Z</time>
      </trkpt>
      <trkpt lat="43.20631" lon="5.49953">
        <ele>29.6</ele>
        <time>2025-10-19T09:01:56Z</time>
      </trkpt>
      <trkpt lat="43.20631" lon="5.49952">
        <ele>29.3</ele>
        <time>2025-10-19T09:01:57Z</time>
      </trkpt>
      <trkpt lat="43.2063" lon="5.49951">
        <ele>29.1</ele>
        <time>2025-10-19T09:01:58Z</time>
      </trkpt>
      <trkpt lat="43.2063" lon="5.4995">
        <ele>28.9</ele>
        <time>2025-10-19T09:01:59Z</time>
      </trkpt>
      <trkpt lat="43.2063" lon="5.49948">
        <ele>28.6</ele>
        <time>2025-10-19T09:02:00Z</time>
      </trkpt>
      <trkpt lat="43.2063" lon="5.49947">
        <ele>28.4</ele>
        <time>2025-10-19T09:02:01Z</time>
      </trkpt>
      <trkpt lat="43.2063" lon="5.49946">
        <ele>28.2</ele>
        <time>2025-10-19T09:02:02Z</time>
      </trkpt>
      <trkpt lat="43.2063" lon="5.49944">
        <ele>27.9</ele>
        <time>2025-10-19T09:02:03Z</time>
      </trkpt>
      <trkpt lat="43.2063" lon="5.49943">
        <ele>27.6</ele>
        <time>2025-10-19T09:02:04Z</time>
      </trkpt>
      <trkpt lat="43.2063" lon="5.49941">
        <ele>27.4</ele>
        <time>2025-10-19T09:02:05Z</time>
      </trkpt>
      <trkpt lat="43.20629" lon="5.4994">
        <ele>27.1</ele>
        <time>2025-10-19T09:02:06Z</time>
      </trkpt>
      <trkpt lat="43.20629" lon="5.49938">
        <ele>26.9</ele>
        <time>2025-10-19T09:02:07Z</time>
      </trkpt>
      <trkpt lat="43.20628" lon="5.49936">
        <ele>26.5</ele>
        <time>2025-10-19T09:02:08Z</time>
      </trkpt>
      <trkpt lat="43.20627" lon="5.49935">
        <ele>26.2</ele>
        <time>2025-10-19T09:02:09Z</time>
      </trkpt>
      <trkpt lat="43.20627" lon="5.49933">
        <ele>25.9</ele>
        <time>2025-10-19T09:02:10Z</time>
      </trkpt>
      <trkpt lat="43.20627" lon="5.49932">
        <ele>25.6</ele>
        <time>2025-10-19T09:02:11Z</time>
      </trkpt>
      <trkpt lat="43.20626" lon="5.49931">
        <ele>25.3</ele>
        <time>2025-10-19T09:02:12Z</time>
      </trkpt>
      <trkpt lat="43.20626" lon="5.4993">
        <ele>25.1</ele>
        <time>2025-10-19T09:02:13Z</time>
      </trkpt>
      <trkpt lat="43.20625" lon="5.49929">
        <ele>24.8</ele>
        <time>2025-10-19T09:02:14Z</time>
      </trkpt>
      <trkpt lat="43.20625" lon="5.49927">
        <ele>24.6</ele>
        <time>2025-10-19T09:02:15Z</time>
      </trkpt>
      <trkpt lat="43.20624" lon="5.49927">
        <ele>24.4</ele>
        <time>2025-10-19T09:02:16Z</time>
      </trkpt>
      <trkpt lat="43.20624" lon="5.49926">
        <ele>24.2</ele>
        <time>2025-10-19T09:02:17Z</time>
      </trkpt>
      <trkpt lat="43.20623" lon="5.49925">
        <ele>23.9</ele>
        <time>2025-10-19T09:02:18Z</time>
      </trkpt>
      <trkpt lat="43.20622" lon="5.49924">
        <ele>23.6</ele>
        <time>2025-10-19T09:02:19Z</time>
      </trkpt>
      <trkpt lat="43.20622" lon="5.49924">
        <ele>23.4</ele>
        <time>2025-10-19T09:02:20Z</time>
      </trkpt>
      <trkpt lat="43.20621" lon="5.49923">
        <ele>23.2</ele>
        <time>2025-10-19T09:02:21Z</time>
      </trkpt>
      <trkpt lat="43.20621" lon="5.49922">
        <ele>22.9</ele>
        <time>2025-10-19T09:02:22Z</time>
      </trkpt>
      <trkpt lat="43.2062" lon="5.49921">
        <ele>22.8</ele>
        <time>2025-10-19T09:02:23Z</time>
      </trkpt>
      <trkpt lat="43.2062" lon="5.49919">
        <ele>22.7</ele>
        <time>2025-10-19T09:02:24Z</time>
      </trkpt>
      <trkpt lat="43.2062" lon="5.49918">
        <ele>22.5</ele>
        <time>2025-10-19T09:02:25Z</time>
      </trkpt>
      <trkpt lat="43.2062" lon="5.49917">
        <ele>22.4</ele>
        <time>2025-10-19T09:02:26Z</time>
      </trkpt>
      <trkpt lat="43.2062" lon="5.49915">
        <ele>22.2</ele>
        <time>2025-10-19T09:02:27Z</time>
      </trkpt>
      <trkpt lat="43.2062" lon="5.49914">
        <ele>22</ele>
        <time>2025-10-19T09:02:28Z</time>
      </trkpt>
      <trkpt lat="43.2062" lon="5.49913">
        <ele>21.8</ele>
        <time>2025-10-19T09:02:29Z</time>
      </trkpt>
      <trkpt lat="43.2062" lon="5.49912">
        <ele>21.7</ele>
        <time>2025-10-19T09:02:30Z</time>
      </trkpt>
      <trkpt lat="43.20619" lon="5.49911">
        <ele>21.5</ele>
        <time>2025-10-19T09:02:31Z</time>
      </trkpt>
      <trkpt lat="43.20618" lon="5.49911">
        <ele>21.4</ele>
        <time>2025-10-19T09:02:32Z</time>
      </trkpt>
      <trkpt lat="43.20617" lon="5.4991">
        <ele>21.3</ele>
        <time>2025-10-19T09:02:33Z</time>
      </trkpt>
      <trkpt lat="43.20617" lon="5.49911">
        <ele>21.2</ele>
        <time>2025-10-19T09:02:34Z</time>
      </trkpt>
      <trkpt lat="43.20616" lon="5.49911">
        <ele>21.1</ele>
        <time>2025-10-19T09:02:35Z</time>
      </trkpt>
      <trkpt lat="43.20616" lon="5.4991">
        <ele>21.1</ele>
        <time>2025-10-19T09:02:36Z</time>
      </trkpt>
      <trkpt lat="43.20616" lon="5.49909">
        <ele>21</ele>
        <time>2025-10-19T09:02:37Z</time>
      </trkpt>
      <trkpt lat="43.20616" lon="5.49909">
        <ele>21.1</ele>
        <time>2025-10-19T09:02:38Z</time>
      </trkpt>
      <trkpt lat="43.20616" lon="5.49909">
        <ele>21</ele>
        <time>2025-10-19T09:02:39Z</time>
      </trkpt>
      <trkpt lat="43.20616" lon="5.49908">
        <ele>21</ele>
        <time>2025-10-19T09:02:40Z</time>
      </trkpt>
      <trkpt lat="43.20616" lon="5.49908">
        <ele>20.9</ele>
        <time>2025-10-19T09:02:41Z</time>
      </trkpt>
      <trkpt lat="43.20616" lon="5.49907">
        <ele>20.9</ele>
        <time>2025-10-19T09:02:42Z</time>
      </trkpt>
      <trkpt lat="43.20616" lon="5.49907">
        <ele>20.9</ele>
        <time>2025-10-19T09:02:43Z</time>
      </trkpt>
      <trkpt lat="43.20616" lon="5.49907">
        <ele>20.9</ele>
        <time>2025-10-19T09:02:44Z</time>
      </trkpt>
      <trkpt lat="43.20616" lon="5.49907">
        <ele>20.9</ele>
        <time>2025-10-19T09:02:45Z</time>
      </trkpt>
      <trkpt lat="43.20616" lon="5.49908">
        <ele>20.9</ele>
        <time>2025-10-19T09:02:46Z</time>
      </trkpt>
      <trkpt lat="43.20616" lon="5.49908">
        <ele>20.8</ele>
        <time>2025-10-19T09:02:47Z</time>
      </trkpt>
      <trkpt lat="43.20616" lon="5.49907">
        <ele>20.9</ele>
        <time>2025-10-19T09:02:48Z</time>
      </trkpt>
      <trkpt lat="43.20616" lon="5.49907">
        <ele>20.9</ele>
        <time>2025-10-19T09:02:49Z</time>
      </trkpt>
      <trkpt lat="43.20616" lon="5.49907">
        <ele>20.9</ele>
        <time>2025-10-19T09:02:50Z</time>
      </trkpt>
      <trkpt lat="43.20616" lon="5.49908">
        <ele>20.9</ele>
        <time>2025-10-19T09:02:51Z</time>
      </trkpt>
      <trkpt lat="43.20616" lon="5.49907">
        <ele>20.9</ele>
        <time>2025-10-19T09:02:52Z</time>
      </trkpt>
      <trkpt lat="43.20616" lon="5.49907">
        <ele>20.9</ele>
        <time>2025-10-19T09:02:53Z</time>
      </trkpt>
      <trkpt lat="43.20616" lon="5.49907">
        <ele>20.8</ele>
        <time>2025-10-19T09:02:54Z</time>
      </trkpt>
      <trkpt lat="43.20616" lon="5.49907">
        <ele>20.9</ele>
        <time>2025-10-19T09:02:55Z</time>
      </trkpt>
      <trkpt lat="43.20616" lon="5.49907">
        <ele>20.9</ele>
        <time>2025-10-19T09:02:56Z</time>
      </trkpt>
      <trkpt lat="43.20616" lon="5.49907">
        <ele>20.8</ele>
        <time>2025-10-19T09:02:57Z</time>
      </trkpt>
      <trkpt lat="43.20616" lon="5.49907">
        <ele>20.9</ele>
        <time>2025-10-19T09:02:58Z</time>
      </trkpt>
      <trkpt lat="43.20616" lon="5.49907">
        <ele>20.8</ele>
        <time>2025-10-19T09:02:59Z</time>
      </trkpt>
      <trkpt lat="43.20616" lon="5.49907">
        <ele>20.8</ele>
        <time>2025-10-19T09:03:00Z</time>
      </trkpt>
      <trkpt lat="43.20616" lon="5.49906">
        <ele>20.8</ele>
        <time>2025-10-19T09:03:01Z</time>
      </trkpt>
      <trkpt lat="43.20616" lon="5.49906">
        <ele>20.8</ele>
        <time>2025-10-19T09:03:02Z</time>
      </trkpt>
      <trkpt lat="43.20616" lon="5.49905">
        <ele>20.8</ele>
        <time>2025-10-19T09:03:03Z</time>
      </trkpt>
      <trkpt lat="43.20616" lon="5.49905">
        <ele>20.8</ele>
        <time>2025-10-19T09:03:04Z</time>
      </trkpt>
      <trkpt lat="43.20616" lon="5.49905">
        <ele>20.9</ele>
        <time>2025-10-19T09:03:05Z</time>
      </trkpt>
      <trkpt lat="43.20616" lon="5.49904">
        <ele>20.9</ele>
        <time>2025-10-19T09:03:06Z</time>
      </trkpt>
      <trkpt lat="43.20616" lon="5.49904">
        <ele>20.8</ele>
        <time>2025-10-19T09:03:07Z</time>
      </trkpt>
      <trkpt lat="43.20616" lon="5.49904">
        <ele>20.8</ele>
        <time>2025-10-19T09:03:08Z</time>
      </trkpt>
      <trkpt lat="43.20616" lon="5.49904">
        <ele>20.8</ele>
        <time>2025-10-19T09:03:09Z</time>
      </trkpt>
      <trkpt lat="43.20616" lon="5.49904">
        <ele>20.8</ele>
        <time>2025-10-19T09:03:10Z</time>
      </trkpt>
      <trkpt lat="43.20616" lon="5.49904">
        <ele>20.9</ele>
        <time>2025-10-19T09:03:11Z</time>
      </trkpt>
      <trkpt lat="43.20616" lon="5.49903">
        <ele>20.9</ele>
        <time>2025-10-19T09:03:12Z</time>
      </trkpt>
      <trkpt lat="43.20616" lon="5.49903">
        <ele>20.9</ele>
        <time>2025-10-19T09:03:13Z</time>
      </trkpt>
      <trkpt lat="43.20616" lon="5.49902">
        <ele>20.9</ele>
        <time>2025-10-19T09:03:14Z</time>
      </trkpt>
      <trkpt lat="43.20616" lon="5.49902">
        <ele>20.8</ele>
        <time>2025-10-19T09:03:15Z</time>
      </trkpt>
      <trkpt lat="43.20615" lon="5.49901">
        <ele>20.8</ele>
        <time>2025-10-19T09:03:16Z</time>
      </trkpt>
      <trkpt lat="43.20615" lon="5.49901">
        <ele>20.8</ele>
        <time>2025-10-19T09:03:17Z</time>
      </trkpt>
      <trkpt lat="43.20615" lon="5.49901">
        <ele>20.8</ele>
        <time>2025-10-19T09:03:18Z</time>
      </trkpt>
      <trkpt lat="43.20615" lon="5.49901">
        <ele>20.7</ele>
        <time>2025-10-19T09:03:19Z</time>
      </trkpt>
      <trkpt lat="43.20615" lon="5.49901">
        <ele>20.6</ele>
        <time>2025-10-19T09:03:20Z</time>
      </trkpt>
      <trkpt lat="43.20614" lon="5.499">
        <ele>20.6</ele>
        <time>2025-10-19T09:03:21Z</time>
      </trkpt>
      <trkpt lat="43.20614" lon="5.499">
        <ele>20.6</ele>
        <time>2025-10-19T09:03:22Z</time>
      </trkpt>
      <trkpt lat="43.20614" lon="5.499">
        <ele>20.6</ele>
        <time>2025-10-19T09:03:23Z</time>
      </trkpt>
      <trkpt lat="43.20614" lon="5.49899">
        <ele>20.6</ele>
        <time>2025-10-19T09:03:24Z</time>
      </trkpt>
      <trkpt lat="43.20614" lon="5.49899">
        <ele>20.6</ele>
        <time>2025-10-19T09:03:25Z</time>
      </trkpt>
      <trkpt lat="43.20613" lon="5.49898">
        <ele>20.5</ele>
        <time>2025-10-19T09:03:26Z</time>
      </trkpt>
      <trkpt lat="43.20613" lon="5.49897">
        <ele>20.5</ele>
        <time>2025-10-19T09:03:27Z</time>
      </trkpt>
      <trkpt lat="43.20613" lon="5.49897">
        <ele>20.5</ele>
        <time>2025-10-19T09:03:28Z</time>
      </trkpt>
      <trkpt lat="43.20613" lon="5.49897">
        <ele>20.5</ele>
        <time>2025-10-19T09:03:29Z</time>
      </trkpt>
      <trkpt lat="43.20613" lon="5.49897">
        <ele>20.5</ele>
        <time>2025-10-19T09:03:30Z</time>
      </trkpt>
      <trkpt lat="43.20613" lon="5.49896">
        <ele>20.5</ele>
        <time>2025-10-19T09:03:31Z</time>
      </trkpt>
      <trkpt lat="43.20613" lon="5.49896">
        <ele>20.5</ele>
        <time>2025-10-19T09:03:32Z</time>
      </trkpt>
      <trkpt lat="43.20613" lon="5.49897">
        <ele>20.5</ele>
        <time>2025-10-19T09:03:33Z</time>
      </trkpt>
      <trkpt lat="43.20613" lon="5.49898">
        <ele>20.5</ele>
        <time>2025-10-19T09:03:34Z</time>
      </trkpt>
      <trkpt lat="43.20613" lon="5.49898">
        <ele>20.5</ele>
        <time>2025-10-19T09:03:35Z</time>
      </trkpt>
      <trkpt lat="43.20613" lon="5.49898">
        <ele>20.6</ele>
        <time>2025-10-19T09:03:36Z</time>
      </trkpt>
      <trkpt lat="43.20613" lon="5.499">
        <ele>20.6</ele>
        <time>2025-10-19T09:03:37Z</time>
      </trkpt>
      <trkpt lat="43.20613" lon="5.49901">
        <ele>20.7</ele>
        <time>2025-10-19T09:03:38Z</time>
      </trkpt>
      <trkpt lat="43.20612" lon="5.49901">
        <ele>20.7</ele>
        <time>2025-10-19T09:03:39Z</time>
      </trkpt>
      <trkpt lat="43.20612" lon="5.49902">
        <ele>20.8</ele>
        <time>2025-10-19T09:03:40Z</time>
      </trkpt>
      <trkpt lat="43.20612" lon="5.49902">
        <ele>20.8</ele>
        <time>2025-10-19T09:03:41Z</time>
      </trkpt>
      <trkpt lat="43.20613" lon="5.49902">
        <ele>21</ele>
        <time>2025-10-19T09:03:42Z</time>
      </trkpt>
      <trkpt lat="43.20613" lon="5.49903">
        <ele>21.1</ele>
        <time>2025-10-19T09:03:43Z</time>
      </trkpt>
      <trkpt lat="43.20613" lon="5.49903">
        <ele>21.1</ele>
        <time>2025-10-19T09:03:44Z</time>
      </trkpt>
      <trkpt lat="43.20613" lon="5.49903">
        <ele>21.2</ele>
        <time>2025-10-19T09:03:45Z</time>
      </trkpt>
      <trkpt lat="43.20613" lon="5.49903">
        <ele>21.2</ele>
        <time>2025-10-19T09:03:46Z</time>
      </trkpt>
      <trkpt lat="43.20613" lon="5.49903">
        <ele>21.1</ele>
        <time>2025-10-19T09:03:47Z</time>
      </trkpt>
      <trkpt lat="43.20613" lon="5.49904">
        <ele>21.1</ele>
        <time>2025-10-19T09:03:48Z</time>
      </trkpt>
      <trkpt lat="43.20613" lon="5.49904">
        <ele>21.1</ele>
        <time>2025-10-19T09:03:49Z</time>
      </trkpt>
      <trkpt lat="43.20613" lon="5.49905">
        <ele>21.1</ele>
        <time>2025-10-19T09:03:50Z</time>
      </trkpt>
      <trkpt lat="43.20613" lon="5.49905">
        <ele>21.1</ele>
        <time>2025-10-19T09:03:51Z</time>
      </trkpt>
      <trkpt lat="43.20614" lon="5.49905">
        <ele>21</ele>
        <time>2025-10-19T09:03:52Z</time>
      </trkpt>
      <trkpt lat="43.20613" lon="5.49905">
        <ele>21</ele>
        <time>2025-10-19T09:03:53Z</time>
      </trkpt>
      <trkpt lat="43.20613" lon="5.49904">
        <ele>21</ele>
        <time>2025-10-19T09:03:54Z</time>
      </trkpt>
      <trkpt lat="43.20613" lon="5.49904">
        <ele>21</ele>
        <time>2025-10-19T09:03:55Z</time>
      </trkpt>
      <trkpt lat="43.20613" lon="5.49903">
        <ele>20.9</ele>
        <time>2025-10-19T09:03:56Z</time>
      </trkpt>
      <trkpt lat="43.20613" lon="5.49903">
        <ele>20.8</ele>
        <time>2025-10-19T09:03:57Z</time>
      </trkpt>
      <trkpt lat="43.20613" lon="5.49903">
        <ele>20.8</ele>
        <time>2025-10-19T09:03:58Z</time>
      </trkpt>
      <trkpt lat="43.20613" lon="5.49902">
        <ele>20.7</ele>
        <time>2025-10-19T09:03:59Z</time>
      </trkpt>
      <trkpt lat="43.20613" lon="5.49903">
        <ele>20.7</ele>
        <time>2025-10-19T09:04:00Z</time>
      </trkpt>
      <trkpt lat="43.20613" lon="5.49903">
        <ele>20.7</ele>
        <time>2025-10-19T09:04:01Z</time>
      </trkpt>
      <trkpt lat="43.20613" lon="5.49903">
        <ele>20.8</ele>
        <time>2025-10-19T09:04:02Z</time>
      </trkpt>
      <trkpt lat="43.20613" lon="5.49903">
        <ele>20.8</ele>
        <time>2025-10-19T09:04:03Z</time>
      </trkpt>
      <trkpt lat="43.20613" lon="5.49903">
        <ele>20.8</ele>
        <time>2025-10-19T09:04:04Z</time>
      </trkpt>
      <trkpt lat="43.20613" lon="5.49904">
        <ele>20.8</ele>
        <time>2025-10-19T09:04:05Z</time>
      </trkpt>
      <trkpt lat="43.20614" lon="5.49904">
        <ele>20.8</ele>
        <time>2025-10-19T09:04:06Z</time>
      </trkpt>
      <trkpt lat="43.20614" lon="5.49905">
        <ele>20.8</ele>
        <time>2025-10-19T09:04:07Z</time>
      </trkpt>
      <trkpt lat="43.20613" lon="5.49904">
        <ele>20.7</ele>
        <time>2025-10-19T09:04:08Z</time>
      </trkpt>
      <trkpt lat="43.20613" lon="5.49904">
        <ele>20.8</ele>
        <time>2025-10-19T09:04:09Z</time>
      </trkpt>
      <trkpt lat="43.20613" lon="5.49904">
        <ele>20.8</ele>
        <time>2025-10-19T09:04:10Z</time>
      </trkpt>
      <trkpt lat="43.20613" lon="5.49905">
        <ele>20.8</ele>
        <time>2025-10-19T09:04:11Z</time>
      </trkpt>
      <trkpt lat="43.20613" lon="5.49905">
        <ele>21</ele>
        <time>2025-10-19T09:04:12Z</time>
      </trkpt>
      <trkpt lat="43.20613" lon="5.49906">
        <ele>21</ele>
        <time>2025-10-19T09:04:13Z</time>
      </trkpt>
      <trkpt lat="43.20613" lon="5.49906">
        <ele>21</ele>
        <time>2025-10-19T09:04:14Z</time>
      </trkpt>
      <trkpt lat="43.20614" lon="5.49907">
        <ele>21</ele>
        <time>2025-10-19T09:04:15Z</time>
      </trkpt>
      <trkpt lat="43.20614" lon="5.49907">
        <ele>21</ele>
        <time>2025-10-19T09:04:16Z</time>
      </trkpt>
      <trkpt lat="43.20614" lon="5.49907">
        <ele>21</ele>
        <time>2025-10-19T09:04:17Z</time>
      </trkpt>
      <trkpt lat="43.20614" lon="5.49907">
        <ele>21</ele>
        <time>2025-10-19T09:04:18Z</time>
      </trkpt>
      <trkpt lat="43.20613" lon="5.49906">
        <ele>20.9</ele>
        <time>2025-10-19T09:04:19Z</time>
      </trkpt>
      <trkpt lat="43.20613" lon="5.49906">
        <ele>20.9</ele>
        <time>2025-10-19T09:04:20Z</time>
      </trkpt>
      <trkpt lat="43.20613" lon="5.49905">
        <ele>20.9</ele>
        <time>2025-10-19T09:04:21Z</time>
      </trkpt>
      <trkpt lat="43.20613" lon="5.49905">
        <ele>20.9</ele>
        <time>2025-10-19T09:04:22Z</time>
      </trkpt>
      <trkpt lat="43.20613" lon="5.49904">
        <ele>20.9</ele>
        <time>2025-10-19T09:04:23Z</time>
      </trkpt>
      <trkpt lat="43.20613" lon="5.49904">
        <ele>20.9</ele>
        <time>2025-10-19T09:04:24Z</time>
      </trkpt>
      <trkpt lat="43.20613" lon="5.49904">
        <ele>20.9</ele>
        <time>2025-10-19T09:04:25Z</time>
      </trkpt>
      <trkpt lat="43.20613" lon="5.49904">
        <ele>20.9</ele>
        <time>2025-10-19T09:04:26Z</time>
      </trkpt>
      <trkpt lat="43.20613" lon="5.49903">
        <ele>20.8</ele>
        <time>2025-10-19T09:04:27Z</time>
      </trkpt>
      <trkpt lat="43.20612" lon="5.49902">
        <ele>20.8</ele>
        <time>2025-10-19T09:04:28Z</time>
      </trkpt>
      <trkpt lat="43.20612" lon="5.49902">
        <ele>20.8</ele>
        <time>2025-10-19T09:04:29Z</time>
      </trkpt>
      <trkpt lat="43.20612" lon="5.49902">
        <ele>20.8</ele>
        <time>2025-10-19T09:04:30Z</time>
      </trkpt>
      <trkpt lat="43.20612" lon="5.49901">
        <ele>20.8</ele>
        <time>2025-10-19T09:04:31Z</time>
      </trkpt>
      <trkpt lat="43.20612" lon="5.49901">
        <ele>20.8</ele>
        <time>2025-10-19T09:04:32Z</time>
      </trkpt>
      <trkpt lat="43.20612" lon="5.49901">
        <ele>20.8</ele>
        <time>2025-10-19T09:04:33Z</time>
      </trkpt>
      <trkpt lat="43.20612" lon="5.49901">
        <ele>20.8</ele>
        <time>2025-10-19T09:04:34Z</time>
      </trkpt>
      <trkpt lat="43.20612" lon="5.49901">
        <ele>20.8</ele>
        <time>2025-10-19T09:04:35Z</time>
      </trkpt>
      <trkpt lat="43.20612" lon="5.499">
        <ele>20.8</ele>
        <time>2025-10-19T09:04:36Z</time>
      </trkpt>
      <trkpt lat="43.20612" lon="5.499">
        <ele>20.8</ele>
        <time>2025-10-19T09:04:37Z</time>
      </trkpt>
      <trkpt lat="43.20612" lon="5.499">
        <ele>20.8</ele>
        <time>2025-10-19T09:04:38Z</time>
      </trkpt>
      <trkpt lat="43.20612" lon="5.49899">
        <ele>20.7</ele>
        <time>2025-10-19T09:04:39Z</time>
      </trkpt>
      <trkpt lat="43.20612" lon="5.49899">
        <ele>20.8</ele>
        <time>2025-10-19T09:04:40Z</time>
      </trkpt>
      <trkpt lat="43.20612" lon="5.49899">
        <ele>20.8</ele>
        <time>2025-10-19T09:04:41Z</time>
      </trkpt>
      <trkpt lat="43.20612" lon="5.49899">
        <ele>20.8</ele>
        <time>2025-10-19T09:04:42Z</time>
      </trkpt>
      <trkpt lat="43.20612" lon="5.49899">
        <ele>20.8</ele>
        <time>2025-10-19T09:04:43Z</time>
      </trkpt>
      <trkpt lat="43.20612" lon="5.49899">
        <ele>20.8</ele>
        <time>2025-10-19T09:04:44Z</time>
      </trkpt>
      <trkpt lat="43.20612" lon="5.49899">
        <ele>20.8</ele>
        <time>2025-10-19T09:04:45Z</time>
      </trkpt>
      <trkpt lat="43.20612" lon="5.49899">
        <ele>20.9</ele>
        <time>2025-10-19T09:04:46Z</time>
      </trkpt>
      <trkpt lat="43.20612" lon="5.49899">
        <ele>20.9</ele>
        <time>2025-10-19T09:04:47Z</time>
      </trkpt>
      <trkpt lat="43.20613" lon="5.49899">
        <ele>20.9</ele>
        <time>2025-10-19T09:04:48Z</time>
      </trkpt>
      <trkpt lat="43.20613" lon="5.49899">
        <ele>20.9</ele>
        <time>2025-10-19T09:04:49Z</time>
      </trkpt>
      <trkpt lat="43.20613" lon="5.49898">
        <ele>20.9</ele>
        <time>2025-10-19T09:04:50Z</time>
      </trkpt>
      <trkpt lat="43.20613" lon="5.49898">
        <ele>20.8</ele>
        <time>2025-10-19T09:04:51Z</time>
      </trkpt>
      <trkpt lat="43.20613" lon="5.49898">
        <ele>20.8</ele>
        <time>2025-10-19T09:04:52Z</time>
      </trkpt>
      <trkpt lat="43.20612" lon="5.49898">
        <ele>20.8</ele>
        <time>2025-10-19T09:04:53Z</time>
      </trkpt>
      <trkpt lat="43.20612" lon="5.49897">
        <ele>20.8</ele>
        <time>2025-10-19T09:04:54Z</time>
      </trkpt>
      <trkpt lat="43.20612" lon="5.49897">
        <ele>20.7</ele>
        <time>2025-10-19T09:04:55Z</time>
      </trkpt>
      <trkpt lat="43.20612" lon="5.49897">
        <ele>20.7</ele>
        <time>2025-10-19T09:04:56Z</time>
      </trkpt>
      <trkpt lat="43.20612" lon="5.49896">
        <ele>20.7</ele>
        <time>2025-10-19T09:04:57Z</time>
      </trkpt>
      <trkpt lat="43.20612" lon="5.49896">
        <ele>20.6</ele>
        <time>2025-10-19T09:04:58Z</time>
      </trkpt>
      <trkpt lat="43.20611" lon="5.49896">
        <ele>20.6</ele>
        <time>2025-10-19T09:04:59Z</time>
      </trkpt>
      <trkpt lat="43.20611" lon="5.49896">
        <ele>20.6</ele>
        <time>2025-10-19T09:05:00Z</time>
      </trkpt>
      <trkpt lat="43.20611" lon="5.49896">
        <ele>20.6</ele>
        <time>2025-10-19T09:05:01Z</time>
      </trkpt>
      <trkpt lat="43.20611" lon="5.49896">
        <ele>20.6</ele>
        <time>2025-10-19T09:05:02Z</time>
      </trkpt>
      <trkpt lat="43.20611" lon="5.49896">
        <ele>20.6</ele>
        <time>2025-10-19T09:05:03Z</time>
      </trkpt>
      <trkpt lat="43.20611" lon="5.49896">
        <ele>20.5</ele>
        <time>2025-10-19T09:05:04Z</time>
      </trkpt>
      <trkpt lat="43.20611" lon="5.49895">
        <ele>20.6</ele>
        <time>2025-10-19T09:05:05Z</time>
      </trkpt>
      <trkpt lat="43.20611" lon="5.49895">
        <ele>20.6</ele>
        <time>2025-10-19T09:05:06Z</time>
      </trkpt>
      <trkpt lat="43.20611" lon="5.49895">
        <ele>20.6</ele>
        <time>2025-10-19T09:05:07Z</time>
      </trkpt>
      <trkpt lat="43.20611" lon="5.49895">
        <ele>20.5</ele>
        <time>2025-10-19T09:05:08Z</time>
      </trkpt>
      <trkpt lat="43.20611" lon="5.49895">
        <ele>20.6</ele>
        <time>2025-10-19T09:05:09Z</time>
      </trkpt>
      <trkpt lat="43.20611" lon="5.49895">
        <ele>20.6</ele>
        <time>2025-10-19T09:05:10Z</time>
      </trkpt>
      <trkpt lat="43.2061" lon="5.49894">
        <ele>20.5</ele>
        <time>2025-10-19T09:05:11Z</time>
      </trkpt>
      <trkpt lat="43.2061" lon="5.49895">
        <ele>20.5</ele>
        <time>2025-10-19T09:05:12Z</time>
      </trkpt>
      <trkpt lat="43.2061" lon="5.49894">
        <ele>20.5</ele>
        <time>2025-10-19T09:05:13Z</time>
      </trkpt>
      <trkpt lat="43.2061" lon="5.49894">
        <ele>20.5</ele>
        <time>2025-10-19T09:05:14Z</time>
      </trkpt>
      <trkpt lat="43.20609" lon="5.49894">
        <ele>20.5</ele>
        <time>2025-10-19T09:05:15Z</time>
      </trkpt>
      <trkpt lat="43.20609" lon="5.49894">
        <ele>20.6</ele>
        <time>2025-10-19T09:05:16Z</time>
      </trkpt>
      <trkpt lat="43.20609" lon="5.49894">
        <ele>20.6</ele>
        <time>2025-10-19T09:05:17Z</time>
      </trkpt>
      <trkpt lat="43.20609" lon="5.49894">
        <ele>20.7</ele>
        <time>2025-10-19T09:05:18Z</time>
      </trkpt>
      <trkpt lat="43.20609" lon="5.49894">
        <ele>20.7</ele>
        <time>2025-10-19T09:05:19Z</time>
      </trkpt>
      <trkpt lat="43.20609" lon="5.49894">
        <ele>20.7</ele>
        <time>2025-10-19T09:05:20Z</time>
      </trkpt>
      <trkpt lat="43.20609" lon="5.49894">
        <ele>20.7</ele>
        <time>2025-10-19T09:05:21Z</time>
      </trkpt>
      <trkpt lat="43.20609" lon="5.49894">
        <ele>20.7</ele>
        <time>2025-10-19T09:05:22Z</time>
      </trkpt>
      <trkpt lat="43.20609" lon="5.49894">
        <ele>20.8</ele>
        <time>2025-10-19T09:05:23Z</time>
      </trkpt>
      <trkpt lat="43.20609" lon="5.49895">
        <ele>20.7</ele>
        <time>2025-10-19T09:05:24Z</time>
      </trkpt>
      <trkpt lat="43.20609" lon="5.49895">
        <ele>20.7</ele>
        <time>2025-10-19T09:05:25Z</time>
      </trkpt>
      <trkpt lat="43.2061" lon="5.49896">
        <ele>20.7</ele>
        <time>2025-10-19T09:05:26Z</time>
      </trkpt>
      <trkpt lat="43.2061" lon="5.49897">
        <ele>20.8</ele>
        <time>2025-10-19T09:05:27Z</time>
      </trkpt>
      <trkpt lat="43.2061" lon="5.49898">
        <ele>20.8</ele>
        <time>2025-10-19T09:05:28Z</time>
      </trkpt>
      <trkpt lat="43.20611" lon="5.49898">
        <ele>20.8</ele>
        <time>2025-10-19T09:05:29Z</time>
      </trkpt>
      <trkpt lat="43.20611" lon="5.49898">
        <ele>20.8</ele>
        <time>2025-10-19T09:05:30Z</time>
      </trkpt>
      <trkpt lat="43.20611" lon="5.49899">
        <ele>20.8</ele>
        <time>2025-10-19T09:05:31Z</time>
      </trkpt>
      <trkpt lat="43.20611" lon="5.499">
        <ele>20.8</ele>
        <time>2025-10-19T09:05:32Z</time>
      </trkpt>
      <trkpt lat="43.20611" lon="5.49901">
        <ele>20.9</ele>
        <time>2025-10-19T09:05:33Z</time>
      </trkpt>
      <trkpt lat="43.20611" lon="5.49901">
        <ele>20.9</ele>
        <time>2025-10-19T09:05:34Z</time>
      </trkpt>
      <trkpt lat="43.20611" lon="5.49901">
        <ele>21</ele>
        <time>2025-10-19T09:05:35Z</time>
      </trkpt>
      <trkpt lat="43.20612" lon="5.49902">
        <ele>21</ele>
        <time>2025-10-19T09:05:36Z</time>
      </trkpt>
      <trkpt lat="43.20612" lon="5.49903">
        <ele>21</ele>
        <time>2025-10-19T09:05:37Z</time>
      </trkpt>
      <trkpt lat="43.20612" lon="5.49903">
        <ele>21.1</ele>
        <time>2025-10-19T09:05:38Z</time>
      </trkpt>
      <trkpt lat="43.20612" lon="5.49904">
        <ele>21.1</ele>
        <time>2025-10-19T09:05:39Z</time>
      </trkpt>
      <trkpt lat="43.20612" lon="5.49904">
        <ele>21.1</ele>
        <time>2025-10-19T09:05:40Z</time>
      </trkpt>
      <trkpt lat="43.20612" lon="5.49905">
        <ele>21.2</ele>
        <time>2025-10-19T09:05:41Z</time>
      </trkpt>
      <trkpt lat="43.20612" lon="5.49905">
        <ele>21.2</ele>
        <time>2025-10-19T09:05:42Z</time>
      </trkpt>
      <trkpt lat="43.20612" lon="5.49905">
        <ele>21.2</ele>
        <time>2025-10-19T09:05:43Z</time>
      </trkpt>
      <trkpt lat="43.20612" lon="5.49906">
        <ele>21.3</ele>
        <time>2025-10-19T09:05:44Z</time>
      </trkpt>
      <trkpt lat="43.20612" lon="5.49906">
        <ele>21.3</ele>
        <time>2025-10-19T09:05:45Z</time>
      </trkpt>
      <trkpt lat="43.20612" lon="5.49906">
        <ele>21.3</ele>
        <time>2025-10-19T09:05:46Z</time>
      </trkpt>
      <trkpt lat="43.20612" lon="5.49907">
        <ele>21.2</ele>
        <time>2025-10-19T09:05:47Z</time>
      </trkpt>
      <trkpt lat="43.20613" lon="5.49907">
        <ele>21.2</ele>
        <time>2025-10-19T09:05:48Z</time>
      </trkpt>
      <trkpt lat="43.20613" lon="5.49907">
        <ele>21.2</ele>
        <time>2025-10-19T09:05:49Z</time>
      </trkpt>
      <trkpt lat="43.20614" lon="5.49908">
        <ele>21.2</ele>
        <time>2025-10-19T09:05:50Z</time>
      </trkpt>
      <trkpt lat="43.20615" lon="5.49909">
        <ele>21.1</ele>
        <time>2025-10-19T09:05:51Z</time>
      </trkpt>
      <trkpt lat="43.20615" lon="5.49909">
        <ele>21.1</ele>
        <time>2025-10-19T09:05:52Z</time>
      </trkpt>
      <trkpt lat="43.20615" lon="5.49909">
        <ele>21</ele>
        <time>2025-10-19T09:05:53Z</time>
      </trkpt>
      <trkpt lat="43.20615" lon="5.49909">
        <ele>21</ele>
        <time>2025-10-19T09:05:54Z</time>
      </trkpt>
      <trkpt lat="43.20616" lon="5.4991">
        <ele>21</ele>
        <time>2025-10-19T09:05:55Z</time>
      </trkpt>
      <trkpt lat="43.20617" lon="5.49909">
        <ele>21.1</ele>
        <time>2025-10-19T09:05:56Z</time>
      </trkpt>
      <trkpt lat="43.20617" lon="5.49909">
        <ele>21.1</ele>
        <time>2025-10-19T09:05:57Z</time>
      </trkpt>
      <trkpt lat="43.20618" lon="5.4991">
        <ele>21.1</ele>
        <time>2025-10-19T09:05:58Z</time>
      </trkpt>
      <trkpt lat="43.20619" lon="5.4991">
        <ele>21.1</ele>
        <time>2025-10-19T09:05:59Z</time>
      </trkpt>
      <trkpt lat="43.2062" lon="5.49911">
        <ele>21.2</ele>
        <time>2025-10-19T09:06:00Z</time>
      </trkpt>
      <trkpt lat="43.2062" lon="5.49911">
        <ele>21.3</ele>
        <time>2025-10-19T09:06:01Z</time>
      </trkpt>
      <trkpt lat="43.20621" lon="5.49911">
        <ele>21.3</ele>
        <time>2025-10-19T09:06:02Z</time>
      </trkpt>
      <trkpt lat="43.20621" lon="5.49911">
        <ele>21.4</ele>
        <time>2025-10-19T09:06:03Z</time>
      </trkpt>
      <trkpt lat="43.20622" lon="5.49911">
        <ele>21.5</ele>
        <time>2025-10-19T09:06:04Z</time>
      </trkpt>
      <trkpt lat="43.20623" lon="5.49912">
        <ele>21.7</ele>
        <time>2025-10-19T09:06:05Z</time>
      </trkpt>
      <trkpt lat="43.20623" lon="5.49913">
        <ele>21.9</ele>
        <time>2025-10-19T09:06:06Z</time>
      </trkpt>
      <trkpt lat="43.20625" lon="5.49913">
        <ele>22</ele>
        <time>2025-10-19T09:06:07Z</time>
      </trkpt>
      <trkpt lat="43.20626" lon="5.49912">
        <ele>22</ele>
        <time>2025-10-19T09:06:08Z</time>
      </trkpt>
      <trkpt lat="43.20626" lon="5.49912">
        <ele>22.1</ele>
        <time>2025-10-19T09:06:09Z</time>
      </trkpt>
      <trkpt lat="43.20627" lon="5.49912">
        <ele>22</ele>
        <time>2025-10-19T09:06:10Z</time>
      </trkpt>
      <trkpt lat="43.20629" lon="5.49912">
        <ele>22.1</ele>
        <time>2025-10-19T09:06:11Z</time>
      </trkpt>
      <trkpt lat="43.2063" lon="5.49911">
        <ele>22.1</ele>
        <time>2025-10-19T09:06:12Z</time>
      </trkpt>
      <trkpt lat="43.20631" lon="5.4991">
        <ele>22.1</ele>
        <time>2025-10-19T09:06:13Z</time>
      </trkpt>
      <trkpt lat="43.20633" lon="5.49909">
        <ele>22.2</ele>
        <time>2025-10-19T09:06:14Z</time>
      </trkpt>
      <trkpt lat="43.20634" lon="5.4991">
        <ele>22.3</ele>
        <time>2025-10-19T09:06:15Z</time>
      </trkpt>
      <trkpt lat="43.20635" lon="5.4991">
        <ele>22.2</ele>
        <time>2025-10-19T09:06:16Z</time>
      </trkpt>
      <trkpt lat="43.20636" lon="5.49911">
        <ele>22.2</ele>
        <time>2025-10-19T09:06:17Z</time>
      </trkpt>
      <trkpt lat="43.20637" lon="5.49911">
        <ele>22.4</ele>
        <time>2025-10-19T09:06:18Z</time>
      </trkpt>
      <trkpt lat="43.20638" lon="5.49912">
        <ele>22.4</ele>
        <time>2025-10-19T09:06:19Z</time>
      </trkpt>
      <trkpt lat="43.2064" lon="5.49911">
        <ele>22.5</ele>
        <time>2025-10-19T09:06:20Z</time>
      </trkpt>
      <trkpt lat="43.20641" lon="5.4991">
        <ele>22.5</ele>
        <time>2025-10-19T09:06:21Z</time>
      </trkpt>
      <trkpt lat="43.20641" lon="5.49909">
        <ele>22.7</ele>
        <time>2025-10-19T09:06:22Z</time>
      </trkpt>
      <trkpt lat="43.20643" lon="5.49909">
        <ele>22.9</ele>
        <time>2025-10-19T09:06:23Z</time>
      </trkpt>
      <trkpt lat="43.20644" lon="5.49907">
        <ele>23</ele>
        <time>2025-10-19T09:06:24Z</time>
      </trkpt>
      <trkpt lat="43.20645" lon="5.49907">
        <ele>23.1</ele>
        <time>2025-10-19T09:06:25Z</time>
      </trkpt>
      <trkpt lat="43.20646" lon="5.49907">
        <ele>23.2</ele>
        <time>2025-10-19T09:06:26Z</time>
      </trkpt>
      <trkpt lat="43.20647" lon="5.49906">
        <ele>23.3</ele>
        <time>2025-10-19T09:06:27Z</time>
      </trkpt>
      <trkpt lat="43.20648" lon="5.49906">
        <ele>23.4</ele>
        <time>2025-10-19T09:06:28Z</time>
      </trkpt>
      <trkpt lat="43.20649" lon="5.49906">
        <ele>23.5</ele>
        <time>2025-10-19T09:06:29Z</time>
      </trkpt>
      <trkpt lat="43.2065" lon="5.49906">
        <ele>23.6</ele>
        <time>2025-10-19T09:06:30Z</time>
      </trkpt>
      <trkpt lat="43.20651" lon="5.49906">
        <ele>23.8</ele>
        <time>2025-10-19T09:06:31Z</time>
      </trkpt>
      <trkpt lat="43.20652" lon="5.49906">
        <ele>23.9</ele>
        <time>2025-10-19T09:06:32Z</time>
      </trkpt>
      <trkpt lat="43.20653" lon="5.49906">
        <ele>24.1</ele>
        <time>2025-10-19T09:06:33Z</time>
      </trkpt>
      <trkpt lat="43.20654" lon="5.49905">
        <ele>24.3</ele>
        <time>2025-10-19T09:06:34Z</time>
      </trkpt>
      <trkpt lat="43.20655" lon="5.49903">
        <ele>24.5</ele>
        <time>2025-10-19T09:06:35Z</time>
      </trkpt>
      <trkpt lat="43.20656" lon="5.49903">
        <ele>24.6</ele>
        <time>2025-10-19T09:06:36Z</time>
      </trkpt>
      <trkpt lat="43.20657" lon="5.49903">
        <ele>24.7</ele>
        <time>2025-10-19T09:06:37Z</time>
      </trkpt>
      <trkpt lat="43.20657" lon="5.49902">
        <ele>24.8</ele>
        <time>2025-10-19T09:06:38Z</time>
      </trkpt>
      <trkpt lat="43.20658" lon="5.49902">
        <ele>25</ele>
        <time>2025-10-19T09:06:39Z</time>
      </trkpt>
      <trkpt lat="43.20659" lon="5.499">
        <ele>25.1</ele>
        <time>2025-10-19T09:06:40Z</time>
      </trkpt>
      <trkpt lat="43.2066" lon="5.499">
        <ele>25.2</ele>
        <time>2025-10-19T09:06:41Z</time>
      </trkpt>
      <trkpt lat="43.20661" lon="5.49899">
        <ele>25.3</ele>
        <time>2025-10-19T09:06:42Z</time>
      </trkpt>
      <trkpt lat="43.20663" lon="5.49899">
        <ele>25.4</ele>
        <time>2025-10-19T09:06:43Z</time>
      </trkpt>
      <trkpt lat="43.20663" lon="5.49898">
        <ele>25.5</ele>
        <time>2025-10-19T09:06:44Z</time>
      </trkpt>
      <trkpt lat="43.20664" lon="5.49898">
        <ele>25.6</ele>
        <time>2025-10-19T09:06:45Z</time>
      </trkpt>
      <trkpt lat="43.20665" lon="5.49897">
        <ele>25.6</ele>
        <time>2025-10-19T09:06:46Z</time>
      </trkpt>
      <trkpt lat="43.20666" lon="5.49896">
        <ele>25.7</ele>
        <time>2025-10-19T09:06:47Z</time>
      </trkpt>
      <trkpt lat="43.20667" lon="5.49895">
        <ele>25.8</ele>
        <time>2025-10-19T09:06:48Z</time>
      </trkpt>
      <trkpt lat="43.20667" lon="5.49894">
        <ele>25.9</ele>
        <time>2025-10-19T09:06:49Z</time>
      </trkpt>
      <trkpt lat="43.20668" lon="5.49893">
        <ele>26</ele>
        <time>2025-10-19T09:06:50Z</time>
      </trkpt>
      <trkpt lat="43.20669" lon="5.49892">
        <ele>26.1</ele>
        <time>2025-10-19T09:06:51Z</time>
      </trkpt>
      <trkpt lat="43.2067" lon="5.49892">
        <ele>26.2</ele>
        <time>2025-10-19T09:06:52Z</time>
      </trkpt>
      <trkpt lat="43.20672" lon="5.49892">
        <ele>26.3</ele>
        <time>2025-10-19T09:06:53Z</time>
      </trkpt>
      <trkpt lat="43.20673" lon="5.4989">
        <ele>26.4</ele>
        <time>2025-10-19T09:06:54Z</time>
      </trkpt>
      <trkpt lat="43.20674" lon="5.49889">
        <ele>26.5</ele>
        <time>2025-10-19T09:06:55Z</time>
      </trkpt>
      <trkpt lat="43.20675" lon="5.49888">
        <ele>26.5</ele>
        <time>2025-10-19T09:06:56Z</time>
      </trkpt>
      <trkpt lat="43.20675" lon="5.49886">
        <ele>26.5</ele>
        <time>2025-10-19T09:06:57Z</time>
      </trkpt>
      <trkpt lat="43.20676" lon="5.49885">
        <ele>26.5</ele>
        <time>2025-10-19T09:06:58Z</time>
      </trkpt>
      <trkpt lat="43.20677" lon="5.49884">
        <ele>26.6</ele>
        <time>2025-10-19T09:06:59Z</time>
      </trkpt>
      <trkpt lat="43.20678" lon="5.49882">
        <ele>26.7</ele>
        <time>2025-10-19T09:07:00Z</time>
      </trkpt>
      <trkpt lat="43.20679" lon="5.49882">
        <ele>26.8</ele>
        <time>2025-10-19T09:07:01Z</time>
      </trkpt>
      <trkpt lat="43.2068" lon="5.49881">
        <ele>26.9</ele>
        <time>2025-10-19T09:07:02Z</time>
      </trkpt>
      <trkpt lat="43.20681" lon="5.4988">
        <ele>26.9</ele>
        <time>2025-10-19T09:07:03Z</time>
      </trkpt>
      <trkpt lat="43.20682" lon="5.49879">
        <ele>27</ele>
        <time>2025-10-19T09:07:04Z</time>
      </trkpt>
      <trkpt lat="43.20682" lon="5.49879">
        <ele>27.1</ele>
        <time>2025-10-19T09:07:05Z</time>
      </trkpt>
      <trkpt lat="43.20682" lon="5.49878">
        <ele>27.2</ele>
        <time>2025-10-19T09:07:06Z</time>
      </trkpt>
      <trkpt lat="43.20683" lon="5.49877">
        <ele>27.3</ele>
        <time>2025-10-19T09:07:07Z</time>
      </trkpt>
      <trkpt lat="43.20683" lon="5.49876">
        <ele>27.3</ele>
        <time>2025-10-19T09:07:08Z</time>
      </trkpt>
      <trkpt lat="43.20685" lon="5.49874">
        <ele>27.4</ele>
        <time>2025-10-19T09:07:09Z</time>
      </trkpt>
      <trkpt lat="43.20685" lon="5.49872">
        <ele>27.4</ele>
        <time>2025-10-19T09:07:10Z</time>
      </trkpt>
      <trkpt lat="43.20685" lon="5.49872">
        <ele>27.5</ele>
        <time>2025-10-19T09:07:11Z</time>
      </trkpt>
      <trkpt lat="43.20686" lon="5.49871">
        <ele>27.6</ele>
        <time>2025-10-19T09:07:12Z</time>
      </trkpt>
      <trkpt lat="43.20687" lon="5.4987">
        <ele>27.6</ele>
        <time>2025-10-19T09:07:13Z</time>
      </trkpt>
      <trkpt lat="43.20687" lon="5.49869">
        <ele>27.7</ele>
        <time>2025-10-19T09:07:14Z</time>
      </trkpt>
      <trkpt lat="43.20688" lon="5.49868">
        <ele>27.8</ele>
        <time>2025-10-19T09:07:15Z</time>
      </trkpt>
      <trkpt lat="43.20689" lon="5.49868">
        <ele>27.9</ele>
        <time>2025-10-19T09:07:16Z</time>
      </trkpt>
      <trkpt lat="43.20689" lon="5.49867">
        <ele>28</ele>
        <time>2025-10-19T09:07:17Z</time>
      </trkpt>
      <trkpt lat="43.2069" lon="5.49867">
        <ele>28.1</ele>
        <time>2025-10-19T09:07:18Z</time>
      </trkpt>
      <trkpt lat="43.20691" lon="5.49865">
        <ele>28.3</ele>
        <time>2025-10-19T09:07:19Z</time>
      </trkpt>
      <trkpt lat="43.20692" lon="5.49865">
        <ele>28.4</ele>
        <time>2025-10-19T09:07:20Z</time>
      </trkpt>
      <trkpt lat="43.20694" lon="5.49865">
        <ele>28.6</ele>
        <time>2025-10-19T09:07:21Z</time>
      </trkpt>
      <trkpt lat="43.20694" lon="5.49865">
        <ele>28.7</ele>
        <time>2025-10-19T09:07:22Z</time>
      </trkpt>
      <trkpt lat="43.20695" lon="5.49863">
        <ele>28.8</ele>
        <time>2025-10-19T09:07:23Z</time>
      </trkpt>
      <trkpt lat="43.20696" lon="5.49862">
        <ele>28.9</ele>
        <time>2025-10-19T09:07:24Z</time>
      </trkpt>
      <trkpt lat="43.20697" lon="5.49861">
        <ele>29</ele>
        <time>2025-10-19T09:07:25Z</time>
      </trkpt>
      <trkpt lat="43.20698" lon="5.49861">
        <ele>29.1</ele>
        <time>2025-10-19T09:07:26Z</time>
      </trkpt>
      <trkpt lat="43.20699" lon="5.49861">
        <ele>29.2</ele>
        <time>2025-10-19T09:07:27Z</time>
      </trkpt>
      <trkpt lat="43.20699" lon="5.49861">
        <ele>29.4</ele>
        <time>2025-10-19T09:07:28Z</time>
      </trkpt>
      <trkpt lat="43.207" lon="5.4986">
        <ele>29.5</ele>
        <time>2025-10-19T09:07:29Z</time>
      </trkpt>
      <trkpt lat="43.20701" lon="5.49859">
        <ele>29.6</ele>
        <time>2025-10-19T09:07:30Z</time>
      </trkpt>
      <trkpt lat="43.20702" lon="5.49859">
        <ele>29.6</ele>
        <time>2025-10-19T09:07:31Z</time>
      </trkpt>
      <trkpt lat="43.20702" lon="5.49858">
        <ele>29.6</ele>
        <time>2025-10-19T09:07:32Z</time>
      </trkpt>
      <trkpt lat="43.20703" lon="5.49858">
        <ele>29.7</ele>
        <time>2025-10-19T09:07:33Z</time>
      </trkpt>
      <trkpt lat="43.20704" lon="5.49858">
        <ele>29.8</ele>
        <time>2025-10-19T09:07:34Z</time>
      </trkpt>
      <trkpt lat="43.20705" lon="5.49858">
        <ele>29.8</ele>
        <time>2025-10-19T09:07:35Z</time>
      </trkpt>
      <trkpt lat="43.20706" lon="5.49858">
        <ele>30.1</ele>
        <time>2025-10-19T09:07:36Z</time>
      </trkpt>
      <trkpt lat="43.20707" lon="5.49857">
        <ele>30.1</ele>
        <time>2025-10-19T09:07:37Z</time>
      </trkpt>
      <trkpt lat="43.20707" lon="5.49857">
        <ele>30.1</ele>
        <time>2025-10-19T09:07:38Z</time>
      </trkpt>
      <trkpt lat="43.20708" lon="5.49857">
        <ele>30.1</ele>
        <time>2025-10-19T09:07:39Z</time>
      </trkpt>
      <trkpt lat="43.20709" lon="5.49856">
        <ele>30.2</ele>
        <time>2025-10-19T09:07:40Z</time>
      </trkpt>
      <trkpt lat="43.2071" lon="5.49856">
        <ele>30.2</ele>
        <time>2025-10-19T09:07:41Z</time>
      </trkpt>
      <trkpt lat="43.20712" lon="5.49856">
        <ele>30.3</ele>
        <time>2025-10-19T09:07:42Z</time>
      </trkpt>
      <trkpt lat="43.20713" lon="5.49856">
        <ele>30.4</ele>
        <time>2025-10-19T09:07:43Z</time>
      </trkpt>
      <trkpt lat="43.20713" lon="5.49855">
        <ele>30.4</ele>
        <time>2025-10-19T09:07:44Z</time>
      </trkpt>
      <trkpt lat="43.20714" lon="5.49854">
        <ele>30.5</ele>
        <time>2025-10-19T09:07:45Z</time>
      </trkpt>
      <trkpt lat="43.20716" lon="5.49852">
        <ele>30.5</ele>
        <time>2025-10-19T09:07:46Z</time>
      </trkpt>
      <trkpt lat="43.20717" lon="5.49851">
        <ele>30.6</ele>
        <time>2025-10-19T09:07:47Z</time>
      </trkpt>
      <trkpt lat="43.20718" lon="5.4985">
        <ele>30.7</ele>
        <time>2025-10-19T09:07:48Z</time>
      </trkpt>
      <trkpt lat="43.20719" lon="5.4985">
        <ele>30.7</ele>
        <time>2025-10-19T09:07:49Z</time>
      </trkpt>
      <trkpt lat="43.2072" lon="5.49849">
        <ele>30.8</ele>
        <time>2025-10-19T09:07:50Z</time>
      </trkpt>
      <trkpt lat="43.20721" lon="5.49849">
        <ele>30.9</ele>
        <time>2025-10-19T09:07:51Z</time>
      </trkpt>
      <trkpt lat="43.20722" lon="5.49848">
        <ele>31.1</ele>
        <time>2025-10-19T09:07:52Z</time>
      </trkpt>
      <trkpt lat="43.20723" lon="5.49847">
        <ele>31.2</ele>
        <time>2025-10-19T09:07:53Z</time>
      </trkpt>
      <trkpt lat="43.20724" lon="5.49845">
        <ele>31.4</ele>
        <time>2025-10-19T09:07:54Z</time>
      </trkpt>
      <trkpt lat="43.20725" lon="5.49844">
        <ele>31.5</ele>
        <time>2025-10-19T09:07:55Z</time>
      </trkpt>
      <trkpt lat="43.20726" lon="5.49844">
        <ele>31.6</ele>
        <time>2025-10-19T09:07:56Z</time>
      </trkpt>
      <trkpt lat="43.20727" lon="5.49844">
        <ele>31.7</ele>
        <time>2025-10-19T09:07:57Z</time>
      </trkpt>
      <trkpt lat="43.20728" lon="5.49843">
        <ele>31.9</ele>
        <time>2025-10-19T09:07:58Z</time>
      </trkpt>
      <trkpt lat="43.20728" lon="5.49843">
        <ele>32</ele>
        <time>2025-10-19T09:07:59Z</time>
      </trkpt>
      <trkpt lat="43.20729" lon="5.49841">
        <ele>32.1</ele>
        <time>2025-10-19T09:08:00Z</time>
      </trkpt>
      <trkpt lat="43.20729" lon="5.4984">
        <ele>32.2</ele>
        <time>2025-10-19T09:08:01Z</time>
      </trkpt>
      <trkpt lat="43.2073" lon="5.4984">
        <ele>32.3</ele>
        <time>2025-10-19T09:08:02Z</time>
      </trkpt>
      <trkpt lat="43.2073" lon="5.4984">
        <ele>32.6</ele>
        <time>2025-10-19T09:08:03Z</time>
      </trkpt>
      <trkpt lat="43.20731" lon="5.49839">
        <ele>32.7</ele>
        <time>2025-10-19T09:08:04Z</time>
      </trkpt>
      <trkpt lat="43.20732" lon="5.49838">
        <ele>32.8</ele>
        <time>2025-10-19T09:08:05Z</time>
      </trkpt>
      <trkpt lat="43.20733" lon="5.49837">
        <ele>32.9</ele>
        <time>2025-10-19T09:08:06Z</time>
      </trkpt>
      <trkpt lat="43.20733" lon="5.49837">
        <ele>33</ele>
        <time>2025-10-19T09:08:07Z</time>
      </trkpt>
      <trkpt lat="43.20734" lon="5.49835">
        <ele>33.1</ele>
        <time>2025-10-19T09:08:08Z</time>
      </trkpt>
      <trkpt lat="43.20735" lon="5.49835">
        <ele>33.3</ele>
        <time>2025-10-19T09:08:09Z</time>
      </trkpt>
      <trkpt lat="43.20736" lon="5.49834">
        <ele>33.3</ele>
        <time>2025-10-19T09:08:10Z</time>
      </trkpt>
      <trkpt lat="43.20737" lon="5.49834">
        <ele>33.3</ele>
        <time>2025-10-19T09:08:11Z</time>
      </trkpt>
      <trkpt lat="43.20738" lon="5.49832">
        <ele>33.3</ele>
        <time>2025-10-19T09:08:12Z</time>
      </trkpt>
      <trkpt lat="43.20739" lon="5.49831">
        <ele>33.5</ele>
        <time>2025-10-19T09:08:13Z</time>
      </trkpt>
      <trkpt lat="43.20741" lon="5.4983">
        <ele>33.6</ele>
        <time>2025-10-19T09:08:14Z</time>
      </trkpt>
      <trkpt lat="43.20742" lon="5.4983">
        <ele>33.8</ele>
        <time>2025-10-19T09:08:15Z</time>
      </trkpt>
      <trkpt lat="43.20742" lon="5.4983">
        <ele>33.9</ele>
        <time>2025-10-19T09:08:16Z</time>
      </trkpt>
      <trkpt lat="43.20743" lon="5.49829">
        <ele>34</ele>
        <time>2025-10-19T09:08:17Z</time>
      </trkpt>
      <trkpt lat="43.20744" lon="5.49829">
        <ele>34.1</ele>
        <time>2025-10-19T09:08:18Z</time>
      </trkpt>
      <trkpt lat="43.20744" lon="5.49829">
        <ele>34.2</ele>
        <time>2025-10-19T09:08:19Z</time>
      </trkpt>
      <trkpt lat="43.20745" lon="5.49828">
        <ele>34.2</ele>
        <time>2025-10-19T09:08:20Z</time>
      </trkpt>
      <trkpt lat="43.20745" lon="5.49827">
        <ele>34.4</ele>
        <time>2025-10-19T09:08:21Z</time>
      </trkpt>
      <trkpt lat="43.20746" lon="5.49827">
        <ele>34.4</ele>
        <time>2025-10-19T09:08:22Z</time>
      </trkpt>
      <trkpt lat="43.20748" lon="5.49826">
        <ele>34.5</ele>
        <time>2025-10-19T09:08:23Z</time>
      </trkpt>
      <trkpt lat="43.20749" lon="5.49824">
        <ele>34.6</ele>
        <time>2025-10-19T09:08:24Z</time>
      </trkpt>
      <trkpt lat="43.2075" lon="5.49823">
        <ele>34.7</ele>
        <time>2025-10-19T09:08:25Z</time>
      </trkpt>
      <trkpt lat="43.20752" lon="5.49822">
        <ele>34.8</ele>
        <time>2025-10-19T09:08:26Z</time>
      </trkpt>
      <trkpt lat="43.20754" lon="5.49821">
        <ele>34.9</ele>
        <time>2025-10-19T09:08:27Z</time>
      </trkpt>
      <trkpt lat="43.20755" lon="5.4982">
        <ele>35.1</ele>
        <time>2025-10-19T09:08:28Z</time>
      </trkpt>
      <trkpt lat="43.20756" lon="5.49819">
        <ele>35.1</ele>
        <time>2025-10-19T09:08:29Z</time>
      </trkpt>
      <trkpt lat="43.20756" lon="5.49818">
        <ele>35.3</ele>
        <time>2025-10-19T09:08:30Z</time>
      </trkpt>
      <trkpt lat="43.20757" lon="5.49817">
        <ele>35.3</ele>
        <time>2025-10-19T09:08:31Z</time>
      </trkpt>
      <trkpt lat="43.20757" lon="5.49815">
        <ele>35.3</ele>
        <time>2025-10-19T09:08:32Z</time>
      </trkpt>
      <trkpt lat="43.20758" lon="5.49814">
        <ele>35.4</ele>
        <time>2025-10-19T09:08:33Z</time>
      </trkpt>
      <trkpt lat="43.20758" lon="5.49813">
        <ele>35.4</ele>
        <time>2025-10-19T09:08:34Z</time>
      </trkpt>
      <trkpt lat="43.20759" lon="5.49813">
        <ele>35.4</ele>
        <time>2025-10-19T09:08:35Z</time>
      </trkpt>
      <trkpt lat="43.20759" lon="5.49815">
        <ele>35.5</ele>
        <time>2025-10-19T09:08:36Z</time>
      </trkpt>
      <trkpt lat="43.2076" lon="5.49814">
        <ele>35.7</ele>
        <time>2025-10-19T09:08:37Z</time>
      </trkpt>
      <trkpt lat="43.2076" lon="5.49814">
        <ele>35.7</ele>
        <time>2025-10-19T09:08:38Z</time>
      </trkpt>
      <trkpt lat="43.20761" lon="5.49814">
        <ele>35.8</ele>
        <time>2025-10-19T09:08:39Z</time>
      </trkpt>
      <trkpt lat="43.20761" lon="5.49814">
        <ele>35.9</ele>
        <time>2025-10-19T09:08:40Z</time>
      </trkpt>
      <trkpt lat="43.20762" lon="5.49813">
        <ele>35.9</ele>
        <time>2025-10-19T09:08:41Z</time>
      </trkpt>
      <trkpt lat="43.20764" lon="5.49812">
        <ele>36</ele>
        <time>2025-10-19T09:08:42Z</time>
      </trkpt>
      <trkpt lat="43.20765" lon="5.49811">
        <ele>36</ele>
        <time>2025-10-19T09:08:43Z</time>
      </trkpt>
      <trkpt lat="43.20765" lon="5.4981">
        <ele>35.9</ele>
        <time>2025-10-19T09:08:44Z</time>
      </trkpt>
      <trkpt lat="43.20766" lon="5.49808">
        <ele>35.9</ele>
        <time>2025-10-19T09:08:45Z</time>
      </trkpt>
      <trkpt lat="43.20767" lon="5.49807">
        <ele>35.9</ele>
        <time>2025-10-19T09:08:46Z</time>
      </trkpt>
      <trkpt lat="43.20768" lon="5.49806">
        <ele>35.8</ele>
        <time>2025-10-19T09:08:47Z</time>
      </trkpt>
      <trkpt lat="43.20769" lon="5.49804">
        <ele>35.9</ele>
        <time>2025-10-19T09:08:48Z</time>
      </trkpt>
      <trkpt lat="43.2077" lon="5.49803">
        <ele>35.9</ele>
        <time>2025-10-19T09:08:49Z</time>
      </trkpt>
      <trkpt lat="43.20772" lon="5.49802">
        <ele>35.9</ele>
        <time>2025-10-19T09:08:50Z</time>
      </trkpt>
      <trkpt lat="43.20773" lon="5.49801">
        <ele>36</ele>
        <time>2025-10-19T09:08:51Z</time>
      </trkpt>
      <trkpt lat="43.20774" lon="5.49799">
        <ele>36</ele>
        <time>2025-10-19T09:08:52Z</time>
      </trkpt>
      <trkpt lat="43.20776" lon="5.49797">
        <ele>36</ele>
        <time>2025-10-19T09:08:53Z</time>
      </trkpt>
      <trkpt lat="43.20778" lon="5.49795">
        <ele>36</ele>
        <time>2025-10-19T09:08:54Z</time>
      </trkpt>
      <trkpt lat="43.2078" lon="5.49793">
        <ele>36</ele>
        <time>2025-10-19T09:08:55Z</time>
      </trkpt>
      <trkpt lat="43.20781" lon="5.49791">
        <ele>35.9</ele>
        <time>2025-10-19T09:08:56Z</time>
      </trkpt>
      <trkpt lat="43.20783" lon="5.49791">
        <ele>35.9</ele>
        <time>2025-10-19T09:08:57Z</time>
      </trkpt>
      <trkpt lat="43.20784" lon="5.49789">
        <ele>35.8</ele>
        <time>2025-10-19T09:08:58Z</time>
      </trkpt>
      <trkpt lat="43.20785" lon="5.49787">
        <ele>35.7</ele>
        <time>2025-10-19T09:08:59Z</time>
      </trkpt>
      <trkpt lat="43.20786" lon="5.49786">
        <ele>35.7</ele>
        <time>2025-10-19T09:09:00Z</time>
      </trkpt>
      <trkpt lat="43.20787" lon="5.49785">
        <ele>35.7</ele>
        <time>2025-10-19T09:09:01Z</time>
      </trkpt>
      <trkpt lat="43.20787" lon="5.49784">
        <ele>35.7</ele>
        <time>2025-10-19T09:09:02Z</time>
      </trkpt>
      <trkpt lat="43.20788" lon="5.49783">
        <ele>35.7</ele>
        <time>2025-10-19T09:09:03Z</time>
      </trkpt>
      <trkpt lat="43.20789" lon="5.49781">
        <ele>35.9</ele>
        <time>2025-10-19T09:09:04Z</time>
      </trkpt>
      <trkpt lat="43.2079" lon="5.49779">
        <ele>36</ele>
        <time>2025-10-19T09:09:05Z</time>
      </trkpt>
      <trkpt lat="43.20792" lon="5.49778">
        <ele>36.1</ele>
        <time>2025-10-19T09:09:06Z</time>
      </trkpt>
      <trkpt lat="43.20793" lon="5.49777">
        <ele>36</ele>
        <time>2025-10-19T09:09:07Z</time>
      </trkpt>
      <trkpt lat="43.20794" lon="5.49776">
        <ele>36</ele>
        <time>2025-10-19T09:09:08Z</time>
      </trkpt>
      <trkpt lat="43.20796" lon="5.49775">
        <ele>36.2</ele>
        <time>2025-10-19T09:09:09Z</time>
      </trkpt>
      <trkpt lat="43.20797" lon="5.49774">
        <ele>36.3</ele>
        <time>2025-10-19T09:09:10Z</time>
      </trkpt>
      <trkpt lat="43.20798" lon="5.49772">
        <ele>36.4</ele>
        <time>2025-10-19T09:09:11Z</time>
      </trkpt>
      <trkpt lat="43.20799" lon="5.49771">
        <ele>36.5</ele>
        <time>2025-10-19T09:09:12Z</time>
      </trkpt>
      <trkpt lat="43.208" lon="5.4977">
        <ele>36.6</ele>
        <time>2025-10-19T09:09:13Z</time>
      </trkpt>
      <trkpt lat="43.20801" lon="5.49769">
        <ele>36.6</ele>
        <time>2025-10-19T09:09:14Z</time>
      </trkpt>
      <trkpt lat="43.20802" lon="5.49768">
        <ele>36.7</ele>
        <time>2025-10-19T09:09:15Z</time>
      </trkpt>
      <trkpt lat="43.20803" lon="5.49767">
        <ele>36.7</ele>
        <time>2025-10-19T09:09:16Z</time>
      </trkpt>
      <trkpt lat="43.20804" lon="5.49766">
        <ele>36.7</ele>
        <time>2025-10-19T09:09:17Z</time>
      </trkpt>
      <trkpt lat="43.20805" lon="5.49765">
        <ele>36.8</ele>
        <time>2025-10-19T09:09:18Z</time>
      </trkpt>
      <trkpt lat="43.20806" lon="5.49764">
        <ele>36.8</ele>
        <time>2025-10-19T09:09:19Z</time>
      </trkpt>
      <trkpt lat="43.20806" lon="5.49762">
        <ele>36.8</ele>
        <time>2025-10-19T09:09:20Z</time>
      </trkpt>
      <trkpt lat="43.20808" lon="5.4976">
        <ele>36.9</ele>
        <time>2025-10-19T09:09:21Z</time>
      </trkpt>
      <trkpt lat="43.20809" lon="5.4976">
        <ele>37</ele>
        <time>2025-10-19T09:09:22Z</time>
      </trkpt>
      <trkpt lat="43.20809" lon="5.49759">
        <ele>37.1</ele>
        <time>2025-10-19T09:09:23Z</time>
      </trkpt>
      <trkpt lat="43.2081" lon="5.49758">
        <ele>37.1</ele>
        <time>2025-10-19T09:09:24Z</time>
      </trkpt>
      <trkpt lat="43.20811" lon="5.49756">
        <ele>37.1</ele>
        <time>2025-10-19T09:09:25Z</time>
      </trkpt>
      <trkpt lat="43.20813" lon="5.49755">
        <ele>37.1</ele>
        <time>2025-10-19T09:09:26Z</time>
      </trkpt>
      <trkpt lat="43.20814" lon="5.49754">
        <ele>37.2</ele>
        <time>2025-10-19T09:09:27Z</time>
      </trkpt>
      <trkpt lat="43.20815" lon="5.49753">
        <ele>37.4</ele>
        <time>2025-10-19T09:09:28Z</time>
      </trkpt>
      <trkpt lat="43.20816" lon="5.49752">
        <ele>37.5</ele>
        <time>2025-10-19T09:09:29Z</time>
      </trkpt>
      <trkpt lat="43.20817" lon="5.49752">
        <ele>37.6</ele>
        <time>2025-10-19T09:09:30Z</time>
      </trkpt>
      <trkpt lat="43.20818" lon="5.49751">
        <ele>37.6</ele>
        <time>2025-10-19T09:09:31Z</time>
      </trkpt>
      <trkpt lat="43.20819" lon="5.49751">
        <ele>37.6</ele>
        <time>2025-10-19T09:09:32Z</time>
      </trkpt>
      <trkpt lat="43.2082" lon="5.4975">
        <ele>37.7</ele>
        <time>2025-10-19T09:09:33Z</time>
      </trkpt>
      <trkpt lat="43.20821" lon="5.49749">
        <ele>37.7</ele>
        <time>2025-10-19T09:09:34Z</time>
      </trkpt>
      <trkpt lat="43.20822" lon="5.49748">
        <ele>37.8</ele>
        <time>2025-10-19T09:09:35Z</time>
      </trkpt>
      <trkpt lat="43.20823" lon="5.49747">
        <ele>37.8</ele>
        <time>2025-10-19T09:09:36Z</time>
      </trkpt>
      <trkpt lat="43.20824" lon="5.49746">
        <ele>37.9</ele>
        <time>2025-10-19T09:09:37Z</time>
      </trkpt>
      <trkpt lat="43.20825" lon="5.49745">
        <ele>37.9</ele>
        <time>2025-10-19T09:09:38Z</time>
      </trkpt>
      <trkpt lat="43.20826" lon="5.49745">
        <ele>38.1</ele>
        <time>2025-10-19T09:09:39Z</time>
      </trkpt>
      <trkpt lat="43.20827" lon="5.49744">
        <ele>38.2</ele>
        <time>2025-10-19T09:09:40Z</time>
      </trkpt>
      <trkpt lat="43.20828" lon="5.49743">
        <ele>38.3</ele>
        <time>2025-10-19T09:09:41Z</time>
      </trkpt>
      <trkpt lat="43.20829" lon="5.49743">
        <ele>38.4</ele>
        <time>2025-10-19T09:09:42Z</time>
      </trkpt>
      <trkpt lat="43.2083" lon="5.49742">
        <ele>38.6</ele>
        <time>2025-10-19T09:09:43Z</time>
      </trkpt>
      <trkpt lat="43.20831" lon="5.49742">
        <ele>38.8</ele>
        <time>2025-10-19T09:09:44Z</time>
      </trkpt>
      <trkpt lat="43.20832" lon="5.49741">
        <ele>38.9</ele>
        <time>2025-10-19T09:09:45Z</time>
      </trkpt>
      <trkpt lat="43.20833" lon="5.4974">
        <ele>39</ele>
        <time>2025-10-19T09:09:46Z</time>
      </trkpt>
      <trkpt lat="43.20834" lon="5.49739">
        <ele>39.1</ele>
        <time>2025-10-19T09:09:47Z</time>
      </trkpt>
      <trkpt lat="43.20835" lon="5.49738">
        <ele>39.2</ele>
        <time>2025-10-19T09:09:48Z</time>
      </trkpt>
      <trkpt lat="43.20836" lon="5.49738">
        <ele>39.3</ele>
        <time>2025-10-19T09:09:49Z</time>
      </trkpt>
      <trkpt lat="43.20837" lon="5.49738">
        <ele>39.4</ele>
        <time>2025-10-19T09:09:50Z</time>
      </trkpt>
      <trkpt lat="43.20838" lon="5.49737">
        <ele>39.5</ele>
        <time>2025-10-19T09:09:51Z</time>
      </trkpt>
      <trkpt lat="43.20839" lon="5.49737">
        <ele>39.6</ele>
        <time>2025-10-19T09:09:52Z</time>
      </trkpt>
      <trkpt lat="43.2084" lon="5.49736">
        <ele>39.6</ele>
        <time>2025-10-19T09:09:53Z</time>
      </trkpt>
      <trkpt lat="43.20841" lon="5.49735">
        <ele>39.7</ele>
        <time>2025-10-19T09:09:54Z</time>
      </trkpt>
      <trkpt lat="43.20842" lon="5.49735">
        <ele>39.7</ele>
        <time>2025-10-19T09:09:55Z</time>
      </trkpt>
      <trkpt lat="43.20843" lon="5.49735">
        <ele>39.8</ele>
        <time>2025-10-19T09:09:56Z</time>
      </trkpt>
      <trkpt lat="43.20843" lon="5.49734">
        <ele>39.8</ele>
        <time>2025-10-19T09:09:57Z</time>
      </trkpt>
      <trkpt lat="43.20844" lon="5.49733">
        <ele>39.8</ele>
        <time>2025-10-19T09:09:58Z</time>
      </trkpt>
      <trkpt lat="43.20845" lon="5.49733">
        <ele>39.9</ele>
        <time>2025-10-19T09:09:59Z</time>
      </trkpt>
      <trkpt lat="43.20846" lon="5.49733">
        <ele>40.1</ele>
        <time>2025-10-19T09:10:00Z</time>
      </trkpt>
      <trkpt lat="43.20846" lon="5.49733">
        <ele>40.2</ele>
        <time>2025-10-19T09:10:01Z</time>
      </trkpt>
      <trkpt lat="43.20847" lon="5.49733">
        <ele>40.2</ele>
        <time>2025-10-19T09:10:02Z</time>
      </trkpt>
      <trkpt lat="43.20848" lon="5.49732">
        <ele>40.3</ele>
        <time>2025-10-19T09:10:03Z</time>
      </trkpt>
      <trkpt lat="43.20849" lon="5.49731">
        <ele>40.3</ele>
        <time>2025-10-19T09:10:04Z</time>
      </trkpt>
      <trkpt lat="43.20851" lon="5.4973">
        <ele>40.4</ele>
        <time>2025-10-19T09:10:05Z</time>
      </trkpt>
      <trkpt lat="43.20852" lon="5.49729">
        <ele>40.4</ele>
        <time>2025-10-19T09:10:06Z</time>
      </trkpt>
      <trkpt lat="43.20853" lon="5.49728">
        <ele>40.4</ele>
        <time>2025-10-19T09:10:07Z</time>
      </trkpt>
      <trkpt lat="43.20854" lon="5.49728">
        <ele>40.5</ele>
        <time>2025-10-19T09:10:08Z</time>
      </trkpt>
      <trkpt lat="43.20855" lon="5.49727">
        <ele>40.6</ele>
        <time>2025-10-19T09:10:09Z</time>
      </trkpt>
      <trkpt lat="43.20856" lon="5.49727">
        <ele>40.6</ele>
        <time>2025-10-19T09:10:10Z</time>
      </trkpt>
      <trkpt lat="43.20857" lon="5.49727">
        <ele>40.8</ele>
        <time>2025-10-19T09:10:11Z</time>
      </trkpt>
      <trkpt lat="43.20858" lon="5.49726">
        <ele>41</ele>
        <time>2025-10-19T09:10:12Z</time>
      </trkpt>
      <trkpt lat="43.2086" lon="5.49726">
        <ele>41.1</ele>
        <time>2025-10-19T09:10:13Z</time>
      </trkpt>
      <trkpt lat="43.20861" lon="5.49725">
        <ele>41.3</ele>
        <time>2025-10-19T09:10:14Z</time>
      </trkpt>
      <trkpt lat="43.20862" lon="5.49725">
        <ele>41.5</ele>
        <time>2025-10-19T09:10:15Z</time>
      </trkpt>
      <trkpt lat="43.20863" lon="5.49724">
        <ele>41.6</ele>
        <time>2025-10-19T09:10:16Z</time>
      </trkpt>
      <trkpt lat="43.20864" lon="5.49723">
        <ele>41.8</ele>
        <time>2025-10-19T09:10:17Z</time>
      </trkpt>
      <trkpt lat="43.20865" lon="5.49723">
        <ele>41.9</ele>
        <time>2025-10-19T09:10:18Z</time>
      </trkpt>
      <trkpt lat="43.20866" lon="5.49722">
        <ele>42.1</ele>
        <time>2025-10-19T09:10:19Z</time>
      </trkpt>
      <trkpt lat="43.20867" lon="5.49722">
        <ele>42.2</ele>
        <time>2025-10-19T09:10:20Z</time>
      </trkpt>
      <trkpt lat="43.20868" lon="5.49721">
        <ele>42.3</ele>
        <time>2025-10-19T09:10:21Z</time>
      </trkpt>
      <trkpt lat="43.20869" lon="5.4972">
        <ele>42.3</ele>
        <time>2025-10-19T09:10:22Z</time>
      </trkpt>
      <trkpt lat="43.2087" lon="5.4972">
        <ele>42.4</ele>
        <time>2025-10-19T09:10:23Z</time>
      </trkpt>
      <trkpt lat="43.2087" lon="5.49719">
        <ele>42.4</ele>
        <time>2025-10-19T09:10:24Z</time>
      </trkpt>
      <trkpt lat="43.20871" lon="5.49719">
        <ele>42.5</ele>
        <time>2025-10-19T09:10:25Z</time>
      </trkpt>
      <trkpt lat="43.20872" lon="5.49718">
        <ele>42.7</ele>
        <time>2025-10-19T09:10:26Z</time>
      </trkpt>
      <trkpt lat="43.20873" lon="5.49718">
        <ele>42.7</ele>
        <time>2025-10-19T09:10:27Z</time>
      </trkpt>
      <trkpt lat="43.20874" lon="5.49717">
        <ele>42.7</ele>
        <time>2025-10-19T09:10:28Z</time>
      </trkpt>
      <trkpt lat="43.20875" lon="5.49716">
        <ele>42.8</ele>
        <time>2025-10-19T09:10:29Z</time>
      </trkpt>
      <trkpt lat="43.20876" lon="5.49716">
        <ele>42.8</ele>
        <time>2025-10-19T09:10:30Z</time>
      </trkpt>
      <trkpt lat="43.20877" lon="5.49715">
        <ele>42.8</ele>
        <time>2025-10-19T09:10:31Z</time>
      </trkpt>
      <trkpt lat="43.20878" lon="5.49715">
        <ele>42.9</ele>
        <time>2025-10-19T09:10:32Z</time>
      </trkpt>
      <trkpt lat="43.20879" lon="5.49715">
        <ele>43</ele>
        <time>2025-10-19T09:10:33Z</time>
      </trkpt>
      <trkpt lat="43.2088" lon="5.49714">
        <ele>43.1</ele>
        <time>2025-10-19T09:10:34Z</time>
      </trkpt>
      <trkpt lat="43.20881" lon="5.49714">
        <ele>43.2</ele>
        <time>2025-10-19T09:10:35Z</time>
      </trkpt>
      <trkpt lat="43.20881" lon="5.49714">
        <ele>43.2</ele>
        <time>2025-10-19T09:10:36Z</time>
      </trkpt>
      <trkpt lat="43.20883" lon="5.49714">
        <ele>43.3</ele>
        <time>2025-10-19T09:10:37Z</time>
      </trkpt>
      <trkpt lat="43.20883" lon="5.49714">
        <ele>43.4</ele>
        <time>2025-10-19T09:10:38Z</time>
      </trkpt>
      <trkpt lat="43.20885" lon="5.49714">
        <ele>43.5</ele>
        <time>2025-10-19T09:10:39Z</time>
      </trkpt>
      <trkpt lat="43.20886" lon="5.49713">
        <ele>43.7</ele>
        <time>2025-10-19T09:10:40Z</time>
      </trkpt>
      <trkpt lat="43.20887" lon="5.49713">
        <ele>43.9</ele>
        <time>2025-10-19T09:10:41Z</time>
      </trkpt>
      <trkpt lat="43.20888" lon="5.49712">
        <ele>44</ele>
        <time>2025-10-19T09:10:42Z</time>
      </trkpt>
      <trkpt lat="43.20889" lon="5.49712">
        <ele>44.1</ele>
        <time>2025-10-19T09:10:43Z</time>
      </trkpt>
      <trkpt lat="43.2089" lon="5.49712">
        <ele>44.2</ele>
        <time>2025-10-19T09:10:44Z</time>
      </trkpt>
      <trkpt lat="43.20891" lon="5.49712">
        <ele>44.3</ele>
        <time>2025-10-19T09:10:45Z</time>
      </trkpt>
      <trkpt lat="43.20891" lon="5.49711">
        <ele>44.3</ele>
        <time>2025-10-19T09:10:46Z</time>
      </trkpt>
      <trkpt lat="43.20892" lon="5.49711">
        <ele>44.4</ele>
        <time>2025-10-19T09:10:47Z</time>
      </trkpt>
      <trkpt lat="43.20893" lon="5.4971">
        <ele>44.5</ele>
        <time>2025-10-19T09:10:48Z</time>
      </trkpt>
      <trkpt lat="43.20894" lon="5.49711">
        <ele>44.5</ele>
        <time>2025-10-19T09:10:49Z</time>
      </trkpt>
      <trkpt lat="43.20894" lon="5.49711">
        <ele>44.6</ele>
        <time>2025-10-19T09:10:50Z</time>
      </trkpt>
      <trkpt lat="43.20895" lon="5.4971">
        <ele>44.7</ele>
        <time>2025-10-19T09:10:51Z</time>
      </trkpt>
      <trkpt lat="43.20895" lon="5.49711">
        <ele>44.7</ele>
        <time>2025-10-19T09:10:52Z</time>
      </trkpt>
      <trkpt lat="43.20895" lon="5.49711">
        <ele>44.9</ele>
        <time>2025-10-19T09:10:53Z</time>
      </trkpt>
      <trkpt lat="43.20896" lon="5.49712">
        <ele>44.9</ele>
        <time>2025-10-19T09:10:54Z</time>
      </trkpt>
      <trkpt lat="43.20896" lon="5.49713">
        <ele>45</ele>
        <time>2025-10-19T09:10:55Z</time>
      </trkpt>
      <trkpt lat="43.20897" lon="5.49713">
        <ele>45</ele>
        <time>2025-10-19T09:10:56Z</time>
      </trkpt>
      <trkpt lat="43.20897" lon="5.49714">
        <ele>45.1</ele>
        <time>2025-10-19T09:10:57Z</time>
      </trkpt>
      <trkpt lat="43.20898" lon="5.49714">
        <ele>45.1</ele>
        <time>2025-10-19T09:10:58Z</time>
      </trkpt>
      <trkpt lat="43.20899" lon="5.49714">
        <ele>45.2</ele>
        <time>2025-10-19T09:10:59Z</time>
      </trkpt>
      <trkpt lat="43.209" lon="5.49714">
        <ele>45.3</ele>
        <time>2025-10-19T09:11:00Z</time>
      </trkpt>
      <trkpt lat="43.20901" lon="5.49714">
        <ele>45.5</ele>
        <time>2025-10-19T09:11:01Z</time>
      </trkpt>
      <trkpt lat="43.20902" lon="5.49714">
        <ele>45.7</ele>
        <time>2025-10-19T09:11:02Z</time>
      </trkpt>
      <trkpt lat="43.20903" lon="5.49714">
        <ele>45.8</ele>
        <time>2025-10-19T09:11:03Z</time>
      </trkpt>
      <trkpt lat="43.20904" lon="5.49714">
        <ele>45.9</ele>
        <time>2025-10-19T09:11:04Z</time>
      </trkpt>
      <trkpt lat="43.20905" lon="5.49714">
        <ele>46.1</ele>
        <time>2025-10-19T09:11:05Z</time>
      </trkpt>
      <trkpt lat="43.20906" lon="5.49714">
        <ele>46.2</ele>
        <time>2025-10-19T09:11:06Z</time>
      </trkpt>
      <trkpt lat="43.20907" lon="5.49714">
        <ele>46.3</ele>
        <time>2025-10-19T09:11:07Z</time>
      </trkpt>
      <trkpt lat="43.20908" lon="5.49714">
        <ele>46.5</ele>
        <time>2025-10-19T09:11:08Z</time>
      </trkpt>
      <trkpt lat="43.20908" lon="5.49714">
        <ele>46.6</ele>
        <time>2025-10-19T09:11:09Z</time>
      </trkpt>
      <trkpt lat="43.20909" lon="5.49714">
        <ele>46.8</ele>
        <time>2025-10-19T09:11:10Z</time>
      </trkpt>
      <trkpt lat="43.2091" lon="5.49714">
        <ele>46.8</ele>
        <time>2025-10-19T09:11:11Z</time>
      </trkpt>
      <trkpt lat="43.20911" lon="5.49713">
        <ele>47</ele>
        <time>2025-10-19T09:11:12Z</time>
      </trkpt>
      <trkpt lat="43.20911" lon="5.49714">
        <ele>47.1</ele>
        <time>2025-10-19T09:11:13Z</time>
      </trkpt>
      <trkpt lat="43.20912" lon="5.49714">
        <ele>47.3</ele>
        <time>2025-10-19T09:11:14Z</time>
      </trkpt>
      <trkpt lat="43.20912" lon="5.49715">
        <ele>47.4</ele>
        <time>2025-10-19T09:11:15Z</time>
      </trkpt>
      <trkpt lat="43.20914" lon="5.49714">
        <ele>47.4</ele>
        <time>2025-10-19T09:11:16Z</time>
      </trkpt>
      <trkpt lat="43.20915" lon="5.49714">
        <ele>47.4</ele>
        <time>2025-10-19T09:11:17Z</time>
      </trkpt>
      <trkpt lat="43.20916" lon="5.49715">
        <ele>47.5</ele>
        <time>2025-10-19T09:11:18Z</time>
      </trkpt>
      <trkpt lat="43.20917" lon="5.49715">
        <ele>47.6</ele>
        <time>2025-10-19T09:11:19Z</time>
      </trkpt>
      <trkpt lat="43.20918" lon="5.49714">
        <ele>47.7</ele>
        <time>2025-10-19T09:11:20Z</time>
      </trkpt>
      <trkpt lat="43.20919" lon="5.49713">
        <ele>47.8</ele>
        <time>2025-10-19T09:11:21Z</time>
      </trkpt>
      <trkpt lat="43.2092" lon="5.49713">
        <ele>47.9</ele>
        <time>2025-10-19T09:11:22Z</time>
      </trkpt>
      <trkpt lat="43.20921" lon="5.49713">
        <ele>48</ele>
        <time>2025-10-19T09:11:23Z</time>
      </trkpt>
      <trkpt lat="43.20921" lon="5.49714">
        <ele>48.1</ele>
        <time>2025-10-19T09:11:24Z</time>
      </trkpt>
      <trkpt lat="43.20922" lon="5.49714">
        <ele>48.2</ele>
        <time>2025-10-19T09:11:25Z</time>
      </trkpt>
      <trkpt lat="43.20923" lon="5.49713">
        <ele>48.3</ele>
        <time>2025-10-19T09:11:26Z</time>
      </trkpt>
      <trkpt lat="43.20925" lon="5.49713">
        <ele>48.3</ele>
        <time>2025-10-19T09:11:27Z</time>
      </trkpt>
      <trkpt lat="43.20925" lon="5.49712">
        <ele>48.5</ele>
        <time>2025-10-19T09:11:28Z</time>
      </trkpt>
      <trkpt lat="43.20927" lon="5.49711">
        <ele>48.5</ele>
        <time>2025-10-19T09:11:29Z</time>
      </trkpt>
      <trkpt lat="43.20927" lon="5.49711">
        <ele>48.6</ele>
        <time>2025-10-19T09:11:30Z</time>
      </trkpt>
      <trkpt lat="43.20929" lon="5.4971">
        <ele>48.6</ele>
        <time>2025-10-19T09:11:31Z</time>
      </trkpt>
      <trkpt lat="43.20931" lon="5.49708">
        <ele>48.7</ele>
        <time>2025-10-19T09:11:32Z</time>
      </trkpt>
      <trkpt lat="43.20932" lon="5.49708">
        <ele>48.8</ele>
        <time>2025-10-19T09:11:33Z</time>
      </trkpt>
      <trkpt lat="43.20934" lon="5.49708">
        <ele>48.8</ele>
        <time>2025-10-19T09:11:34Z</time>
      </trkpt>
      <trkpt lat="43.20935" lon="5.49707">
        <ele>48.9</ele>
        <time>2025-10-19T09:11:35Z</time>
      </trkpt>
      <trkpt lat="43.20935" lon="5.49706">
        <ele>48.9</ele>
        <time>2025-10-19T09:11:36Z</time>
      </trkpt>
      <trkpt lat="43.20936" lon="5.49706">
        <ele>48.9</ele>
        <time>2025-10-19T09:11:37Z</time>
      </trkpt>
      <trkpt lat="43.20937" lon="5.49706">
        <ele>49</ele>
        <time>2025-10-19T09:11:38Z</time>
      </trkpt>
      <trkpt lat="43.20937" lon="5.49706">
        <ele>49</ele>
        <time>2025-10-19T09:11:39Z</time>
      </trkpt>
      <trkpt lat="43.20938" lon="5.49706">
        <ele>49.1</ele>
        <time>2025-10-19T09:11:40Z</time>
      </trkpt>
      <trkpt lat="43.20939" lon="5.49705">
        <ele>49.2</ele>
        <time>2025-10-19T09:11:41Z</time>
      </trkpt>
      <trkpt lat="43.2094" lon="5.49704">
        <ele>49.3</ele>
        <time>2025-10-19T09:11:42Z</time>
      </trkpt>
      <trkpt lat="43.20941" lon="5.49703">
        <ele>49.4</ele>
        <time>2025-10-19T09:11:43Z</time>
      </trkpt>
      <trkpt lat="43.20941" lon="5.49704">
        <ele>49.5</ele>
        <time>2025-10-19T09:11:44Z</time>
      </trkpt>
      <trkpt lat="43.20942" lon="5.49704">
        <ele>49.5</ele>
        <time>2025-10-19T09:11:45Z</time>
      </trkpt>
      <trkpt lat="43.20943" lon="5.49702">
        <ele>49.6</ele>
        <time>2025-10-19T09:11:46Z</time>
      </trkpt>
      <trkpt lat="43.20944" lon="5.49702">
        <ele>49.7</ele>
        <time>2025-10-19T09:11:47Z</time>
      </trkpt>
      <trkpt lat="43.20944" lon="5.49702">
        <ele>49.7</ele>
        <time>2025-10-19T09:11:48Z</time>
      </trkpt>
      <trkpt lat="43.20945" lon="5.49701">
        <ele>49.8</ele>
        <time>2025-10-19T09:11:49Z</time>
      </trkpt>
      <trkpt lat="43.20946" lon="5.497">
        <ele>50</ele>
        <time>2025-10-19T09:11:50Z</time>
      </trkpt>
      <trkpt lat="43.20946" lon="5.497">
        <ele>50.1</ele>
        <time>2025-10-19T09:11:51Z</time>
      </trkpt>
      <trkpt lat="43.20947" lon="5.497">
        <ele>50.2</ele>
        <time>2025-10-19T09:11:52Z</time>
      </trkpt>
      <trkpt lat="43.20948" lon="5.49699">
        <ele>50.3</ele>
        <time>2025-10-19T09:11:53Z</time>
      </trkpt>
      <trkpt lat="43.20949" lon="5.49698">
        <ele>50.3</ele>
        <time>2025-10-19T09:11:54Z</time>
      </trkpt>
      <trkpt lat="43.2095" lon="5.49698">
        <ele>50.3</ele>
        <time>2025-10-19T09:11:55Z</time>
      </trkpt>
      <trkpt lat="43.20952" lon="5.49698">
        <ele>50.3</ele>
        <time>2025-10-19T09:11:56Z</time>
      </trkpt>
      <trkpt lat="43.20953" lon="5.49698">
        <ele>50.4</ele>
        <time>2025-10-19T09:11:57Z</time>
      </trkpt>
      <trkpt lat="43.20954" lon="5.49698">
        <ele>50.4</ele>
        <time>2025-10-19T09:11:58Z</time>
      </trkpt>
      <trkpt lat="43.20955" lon="5.49698">
        <ele>50.4</ele>
        <time>2025-10-19T09:11:59Z</time>
      </trkpt>
      <trkpt lat="43.20955" lon="5.49698">
        <ele>50.4</ele>
        <time>2025-10-19T09:12:00Z</time>
      </trkpt>
      <trkpt lat="43.20956" lon="5.49697">
        <ele>50.4</ele>
        <time>2025-10-19T09:12:01Z</time>
      </trkpt>
      <trkpt lat="43.20957" lon="5.49697">
        <ele>50.5</ele>
        <time>2025-10-19T09:12:02Z</time>
      </trkpt>
      <trkpt lat="43.20957" lon="5.49698">
        <ele>50.6</ele>
        <time>2025-10-19T09:12:03Z</time>
      </trkpt>
      <trkpt lat="43.20959" lon="5.49698">
        <ele>50.7</ele>
        <time>2025-10-19T09:12:04Z</time>
      </trkpt>
      <trkpt lat="43.2096" lon="5.49698">
        <ele>50.8</ele>
        <time>2025-10-19T09:12:05Z</time>
      </trkpt>
      <trkpt lat="43.20961" lon="5.49698">
        <ele>51</ele>
        <time>2025-10-19T09:12:06Z</time>
      </trkpt>
      <trkpt lat="43.20961" lon="5.49699">
        <ele>51.1</ele>
        <time>2025-10-19T09:12:07Z</time>
      </trkpt>
      <trkpt lat="43.20962" lon="5.49699">
        <ele>51.2</ele>
        <time>2025-10-19T09:12:08Z</time>
      </trkpt>
      <trkpt lat="43.20964" lon="5.49701">
        <ele>51.3</ele>
        <time>2025-10-19T09:12:09Z</time>
      </trkpt>
      <trkpt lat="43.20965" lon="5.49702">
        <ele>51.4</ele>
        <time>2025-10-19T09:12:10Z</time>
      </trkpt>
      <trkpt lat="43.20966" lon="5.49703">
        <ele>51.5</ele>
        <time>2025-10-19T09:12:11Z</time>
      </trkpt>
      <trkpt lat="43.20967" lon="5.49703">
        <ele>51.6</ele>
        <time>2025-10-19T09:12:12Z</time>
      </trkpt>
      <trkpt lat="43.20968" lon="5.49703">
        <ele>51.7</ele>
        <time>2025-10-19T09:12:13Z</time>
      </trkpt>
      <trkpt lat="43.2097" lon="5.49702">
        <ele>51.8</ele>
        <time>2025-10-19T09:12:14Z</time>
      </trkpt>
      <trkpt lat="43.20971" lon="5.49701">
        <ele>51.8</ele>
        <time>2025-10-19T09:12:15Z</time>
      </trkpt>
      <trkpt lat="43.20972" lon="5.49701">
        <ele>51.9</ele>
        <time>2025-10-19T09:12:16Z</time>
      </trkpt>
      <trkpt lat="43.20974" lon="5.49699">
        <ele>51.9</ele>
        <time>2025-10-19T09:12:17Z</time>
      </trkpt>
      <trkpt lat="43.20976" lon="5.49699">
        <ele>51.9</ele>
        <time>2025-10-19T09:12:18Z</time>
      </trkpt>
      <trkpt lat="43.20978" lon="5.49698">
        <ele>51.9</ele>
        <time>2025-10-19T09:12:19Z</time>
      </trkpt>
      <trkpt lat="43.20978" lon="5.49698">
        <ele>52</ele>
        <time>2025-10-19T09:12:20Z</time>
      </trkpt>
      <trkpt lat="43.2098" lon="5.49696">
        <ele>52</ele>
        <time>2025-10-19T09:12:21Z</time>
      </trkpt>
      <trkpt lat="43.20981" lon="5.49696">
        <ele>52.1</ele>
        <time>2025-10-19T09:12:22Z</time>
      </trkpt>
      <trkpt lat="43.20982" lon="5.49696">
        <ele>52.2</ele>
        <time>2025-10-19T09:12:23Z</time>
      </trkpt>
      <trkpt lat="43.20982" lon="5.49695">
        <ele>52.4</ele>
        <time>2025-10-19T09:12:24Z</time>
      </trkpt>
      <trkpt lat="43.20983" lon="5.49696">
        <ele>52.5</ele>
        <time>2025-10-19T09:12:25Z</time>
      </trkpt>
      <trkpt lat="43.20984" lon="5.49695">
        <ele>52.5</ele>
        <time>2025-10-19T09:12:26Z</time>
      </trkpt>
      <trkpt lat="43.20985" lon="5.49695">
        <ele>52.6</ele>
        <time>2025-10-19T09:12:27Z</time>
      </trkpt>
      <trkpt lat="43.20985" lon="5.49694">
        <ele>52.6</ele>
        <time>2025-10-19T09:12:28Z</time>
      </trkpt>
      <trkpt lat="43.20987" lon="5.49694">
        <ele>52.8</ele>
        <time>2025-10-19T09:12:29Z</time>
      </trkpt>
      <trkpt lat="43.20988" lon="5.49694">
        <ele>52.9</ele>
        <time>2025-10-19T09:12:30Z</time>
      </trkpt>
      <trkpt lat="43.20989" lon="5.49693">
        <ele>53</ele>
        <time>2025-10-19T09:12:31Z</time>
      </trkpt>
      <trkpt lat="43.20991" lon="5.49693">
        <ele>53.1</ele>
        <time>2025-10-19T09:12:32Z</time>
      </trkpt>
      <trkpt lat="43.20992" lon="5.49692">
        <ele>53.2</ele>
        <time>2025-10-19T09:12:33Z</time>
      </trkpt>
      <trkpt lat="43.20995" lon="5.4969">
        <ele>53.3</ele>
        <time>2025-10-19T09:12:34Z</time>
      </trkpt>
      <trkpt lat="43.20997" lon="5.49689">
        <ele>53.4</ele>
        <time>2025-10-19T09:12:35Z</time>
      </trkpt>
      <trkpt lat="43.20999" lon="5.49689">
        <ele>53.5</ele>
        <time>2025-10-19T09:12:36Z</time>
      </trkpt>
      <trkpt lat="43.21" lon="5.49688">
        <ele>53.5</ele>
        <time>2025-10-19T09:12:37Z</time>
      </trkpt>
      <trkpt lat="43.21002" lon="5.49688">
        <ele>53.6</ele>
        <time>2025-10-19T09:12:38Z</time>
      </trkpt>
      <trkpt lat="43.21003" lon="5.49686">
        <ele>53.6</ele>
        <time>2025-10-19T09:12:39Z</time>
      </trkpt>
      <trkpt lat="43.21005" lon="5.49685">
        <ele>53.6</ele>
        <time>2025-10-19T09:12:40Z</time>
      </trkpt>
      <trkpt lat="43.21007" lon="5.49684">
        <ele>53.6</ele>
        <time>2025-10-19T09:12:41Z</time>
      </trkpt>
      <trkpt lat="43.21008" lon="5.49684">
        <ele>53.7</ele>
        <time>2025-10-19T09:12:42Z</time>
      </trkpt>
      <trkpt lat="43.21009" lon="5.49683">
        <ele>53.9</ele>
        <time>2025-10-19T09:12:43Z</time>
      </trkpt>
      <trkpt lat="43.2101" lon="5.49682">
        <ele>54</ele>
        <time>2025-10-19T09:12:44Z</time>
      </trkpt>
      <trkpt lat="43.21012" lon="5.49681">
        <ele>54.1</ele>
        <time>2025-10-19T09:12:45Z</time>
      </trkpt>
      <trkpt lat="43.21014" lon="5.4968">
        <ele>54.2</ele>
        <time>2025-10-19T09:12:46Z</time>
      </trkpt>
      <trkpt lat="43.21014" lon="5.49678">
        <ele>54.4</ele>
        <time>2025-10-19T09:12:47Z</time>
      </trkpt>
      <trkpt lat="43.21016" lon="5.49678">
        <ele>54.4</ele>
        <time>2025-10-19T09:12:48Z</time>
      </trkpt>
      <trkpt lat="43.21017" lon="5.49678">
        <ele>54.4</ele>
        <time>2025-10-19T09:12:49Z</time>
      </trkpt>
      <trkpt lat="43.21018" lon="5.49678">
        <ele>54.5</ele>
        <time>2025-10-19T09:12:50Z</time>
      </trkpt>
      <trkpt lat="43.21019" lon="5.49677">
        <ele>54.6</ele>
        <time>2025-10-19T09:12:51Z</time>
      </trkpt>
      <trkpt lat="43.21021" lon="5.49676">
        <ele>54.6</ele>
        <time>2025-10-19T09:12:52Z</time>
      </trkpt>
      <trkpt lat="43.21022" lon="5.49675">
        <ele>54.7</ele>
        <time>2025-10-19T09:12:53Z</time>
      </trkpt>
      <trkpt lat="43.21024" lon="5.49675">
        <ele>54.7</ele>
        <time>2025-10-19T09:12:54Z</time>
      </trkpt>
      <trkpt lat="43.21025" lon="5.49675">
        <ele>54.7</ele>
        <time>2025-10-19T09:12:55Z</time>
      </trkpt>
      <trkpt lat="43.21026" lon="5.49675">
        <ele>54.9</ele>
        <time>2025-10-19T09:12:56Z</time>
      </trkpt>
      <trkpt lat="43.21027" lon="5.49675">
        <ele>55.1</ele>
        <time>2025-10-19T09:12:57Z</time>
      </trkpt>
      <trkpt lat="43.21028" lon="5.49675">
        <ele>55.3</ele>
        <time>2025-10-19T09:12:58Z</time>
      </trkpt>
      <trkpt lat="43.2103" lon="5.49675">
        <ele>55.5</ele>
        <time>2025-10-19T09:12:59Z</time>
      </trkpt>
      <trkpt lat="43.21031" lon="5.49674">
        <ele>55.6</ele>
        <time>2025-10-19T09:13:00Z</time>
      </trkpt>
      <trkpt lat="43.21032" lon="5.49674">
        <ele>55.6</ele>
        <time>2025-10-19T09:13:01Z</time>
      </trkpt>
      <trkpt lat="43.21033" lon="5.49674">
        <ele>55.6</ele>
        <time>2025-10-19T09:13:02Z</time>
      </trkpt>
      <trkpt lat="43.21035" lon="5.49674">
        <ele>55.6</ele>
        <time>2025-10-19T09:13:03Z</time>
      </trkpt>
      <trkpt lat="43.21036" lon="5.49674">
        <ele>55.6</ele>
        <time>2025-10-19T09:13:04Z</time>
      </trkpt>
      <trkpt lat="43.21038" lon="5.49675">
        <ele>55.6</ele>
        <time>2025-10-19T09:13:05Z</time>
      </trkpt>
      <trkpt lat="43.21039" lon="5.49674">
        <ele>55.5</ele>
        <time>2025-10-19T09:13:06Z</time>
      </trkpt>
      <trkpt lat="43.2104" lon="5.49675">
        <ele>55.5</ele>
        <time>2025-10-19T09:13:07Z</time>
      </trkpt>
      <trkpt lat="43.21041" lon="5.49675">
        <ele>55.6</ele>
        <time>2025-10-19T09:13:08Z</time>
      </trkpt>
      <trkpt lat="43.21042" lon="5.49676">
        <ele>55.6</ele>
        <time>2025-10-19T09:13:09Z</time>
      </trkpt>
      <trkpt lat="43.21044" lon="5.49675">
        <ele>55.6</ele>
        <time>2025-10-19T09:13:10Z</time>
      </trkpt>
      <trkpt lat="43.21045" lon="5.49675">
        <ele>55.7</ele>
        <time>2025-10-19T09:13:11Z</time>
      </trkpt>
      <trkpt lat="43.21046" lon="5.49674">
        <ele>55.8</ele>
        <time>2025-10-19T09:13:12Z</time>
      </trkpt>
      <trkpt lat="43.21047" lon="5.49674">
        <ele>55.9</ele>
        <time>2025-10-19T09:13:13Z</time>
      </trkpt>
      <trkpt lat="43.21048" lon="5.49673">
        <ele>56</ele>
        <time>2025-10-19T09:13:14Z</time>
      </trkpt>
      <trkpt lat="43.21049" lon="5.49673">
        <ele>56.1</ele>
        <time>2025-10-19T09:13:15Z</time>
      </trkpt>
      <trkpt lat="43.2105" lon="5.49674">
        <ele>56.2</ele>
        <time>2025-10-19T09:13:16Z</time>
      </trkpt>
      <trkpt lat="43.21051" lon="5.49675">
        <ele>56.3</ele>
        <time>2025-10-19T09:13:17Z</time>
      </trkpt>
      <trkpt lat="43.21053" lon="5.49675">
        <ele>56.2</ele>
        <time>2025-10-19T09:13:18Z</time>
      </trkpt>
      <trkpt lat="43.21054" lon="5.49676">
        <ele>56.2</ele>
        <time>2025-10-19T09:13:19Z</time>
      </trkpt>
      <trkpt lat="43.21054" lon="5.49676">
        <ele>56.3</ele>
        <time>2025-10-19T09:13:20Z</time>
      </trkpt>
      <trkpt lat="43.21055" lon="5.49676">
        <ele>56.3</ele>
        <time>2025-10-19T09:13:21Z</time>
      </trkpt>
      <trkpt lat="43.21056" lon="5.49675">
        <ele>56.3</ele>
        <time>2025-10-19T09:13:22Z</time>
      </trkpt>
      <trkpt lat="43.21057" lon="5.49676">
        <ele>56.4</ele>
        <time>2025-10-19T09:13:23Z</time>
      </trkpt>
      <trkpt lat="43.21058" lon="5.49677">
        <ele>56.6</ele>
        <time>2025-10-19T09:13:24Z</time>
      </trkpt>
      <trkpt lat="43.21058" lon="5.49677">
        <ele>56.7</ele>
        <time>2025-10-19T09:13:25Z</time>
      </trkpt>
      <trkpt lat="43.21059" lon="5.49678">
        <ele>56.8</ele>
        <time>2025-10-19T09:13:26Z</time>
      </trkpt>
      <trkpt lat="43.2106" lon="5.49678">
        <ele>56.8</ele>
        <time>2025-10-19T09:13:27Z</time>
      </trkpt>
      <trkpt lat="43.21061" lon="5.49678">
        <ele>56.9</ele>
        <time>2025-10-19T09:13:28Z</time>
      </trkpt>
      <trkpt lat="43.21062" lon="5.49679">
        <ele>57</ele>
        <time>2025-10-19T09:13:29Z</time>
      </trkpt>
      <trkpt lat="43.21063" lon="5.4968">
        <ele>57</ele>
        <time>2025-10-19T09:13:30Z</time>
      </trkpt>
      <trkpt lat="43.21064" lon="5.49681">
        <ele>57.1</ele>
        <time>2025-10-19T09:13:31Z</time>
      </trkpt>
      <trkpt lat="43.21065" lon="5.49682">
        <ele>57</ele>
        <time>2025-10-19T09:13:32Z</time>
      </trkpt>
      <trkpt lat="43.21066" lon="5.49682">
        <ele>57</ele>
        <time>2025-10-19T09:13:33Z</time>
      </trkpt>
      <trkpt lat="43.21066" lon="5.49683">
        <ele>57.1</ele>
        <time>2025-10-19T09:13:34Z</time>
      </trkpt>
      <trkpt lat="43.21067" lon="5.49683">
        <ele>57.2</ele>
        <time>2025-10-19T09:13:35Z</time>
      </trkpt>
      <trkpt lat="43.21068" lon="5.49682">
        <ele>57.3</ele>
        <time>2025-10-19T09:13:36Z</time>
      </trkpt>
      <trkpt lat="43.21068" lon="5.49682">
        <ele>57.3</ele>
        <time>2025-10-19T09:13:37Z</time>
      </trkpt>
      <trkpt lat="43.21069" lon="5.49682">
        <ele>57.3</ele>
        <time>2025-10-19T09:13:38Z</time>
      </trkpt>
      <trkpt lat="43.21069" lon="5.49682">
        <ele>57.5</ele>
        <time>2025-10-19T09:13:39Z</time>
      </trkpt>
      <trkpt lat="43.2107" lon="5.49682">
        <ele>57.6</ele>
        <time>2025-10-19T09:13:40Z</time>
      </trkpt>
      <trkpt lat="43.21071" lon="5.49683">
        <ele>57.7</ele>
        <time>2025-10-19T09:13:41Z</time>
      </trkpt>
      <trkpt lat="43.21071" lon="5.49683">
        <ele>57.8</ele>
        <time>2025-10-19T09:13:42Z</time>
      </trkpt>
      <trkpt lat="43.21073" lon="5.49683">
        <ele>57.8</ele>
        <time>2025-10-19T09:13:43Z</time>
      </trkpt>
      <trkpt lat="43.21074" lon="5.49684">
        <ele>57.7</ele>
        <time>2025-10-19T09:13:44Z</time>
      </trkpt>
      <trkpt lat="43.21075" lon="5.49685">
        <ele>57.7</ele>
        <time>2025-10-19T09:13:45Z</time>
      </trkpt>
      <trkpt lat="43.21076" lon="5.49686">
        <ele>57.7</ele>
        <time>2025-10-19T09:13:46Z</time>
      </trkpt>
      <trkpt lat="43.21077" lon="5.49687">
        <ele>57.7</ele>
        <time>2025-10-19T09:13:47Z</time>
      </trkpt>
      <trkpt lat="43.21078" lon="5.49688">
        <ele>57.8</ele>
        <time>2025-10-19T09:13:48Z</time>
      </trkpt>
      <trkpt lat="43.21079" lon="5.4969">
        <ele>57.8</ele>
        <time>2025-10-19T09:13:49Z</time>
      </trkpt>
      <trkpt lat="43.2108" lon="5.49692">
        <ele>57.8</ele>
        <time>2025-10-19T09:13:50Z</time>
      </trkpt>
      <trkpt lat="43.21081" lon="5.49693">
        <ele>57.9</ele>
        <time>2025-10-19T09:13:51Z</time>
      </trkpt>
      <trkpt lat="43.21082" lon="5.49694">
        <ele>57.9</ele>
        <time>2025-10-19T09:13:52Z</time>
      </trkpt>
      <trkpt lat="43.21083" lon="5.49696">
        <ele>57.9</ele>
        <time>2025-10-19T09:13:53Z</time>
      </trkpt>
      <trkpt lat="43.21084" lon="5.49697">
        <ele>57.9</ele>
        <time>2025-10-19T09:13:54Z</time>
      </trkpt>
      <trkpt lat="43.21084" lon="5.49698">
        <ele>58</ele>
        <time>2025-10-19T09:13:55Z</time>
      </trkpt>
      <trkpt lat="43.21086" lon="5.49699">
        <ele>58.1</ele>
        <time>2025-10-19T09:13:56Z</time>
      </trkpt>
      <trkpt lat="43.21087" lon="5.497">
        <ele>58.2</ele>
        <time>2025-10-19T09:13:57Z</time>
      </trkpt>
      <trkpt lat="43.21088" lon="5.49702">
        <ele>58.3</ele>
        <time>2025-10-19T09:13:58Z</time>
      </trkpt>
      <trkpt lat="43.21089" lon="5.49703">
        <ele>58.4</ele>
        <time>2025-10-19T09:13:59Z</time>
      </trkpt>
      <trkpt lat="43.2109" lon="5.49704">
        <ele>58.5</ele>
        <time>2025-10-19T09:14:00Z</time>
      </trkpt>
      <trkpt lat="43.21091" lon="5.49706">
        <ele>58.7</ele>
        <time>2025-10-19T09:14:01Z</time>
      </trkpt>
      <trkpt lat="43.21091" lon="5.49706">
        <ele>58.8</ele>
        <time>2025-10-19T09:14:02Z</time>
      </trkpt>
      <trkpt lat="43.21092" lon="5.49707">
        <ele>58.9</ele>
        <time>2025-10-19T09:14:03Z</time>
      </trkpt>
      <trkpt lat="43.21093" lon="5.49707">
        <ele>59</ele>
        <time>2025-10-19T09:14:04Z</time>
      </trkpt>
      <trkpt lat="43.21094" lon="5.49708">
        <ele>59.2</ele>
        <time>2025-10-19T09:14:05Z</time>
      </trkpt>
      <trkpt lat="43.21095" lon="5.49709">
        <ele>59.4</ele>
        <time>2025-10-19T09:14:06Z</time>
      </trkpt>
      <trkpt lat="43.21096" lon="5.49709">
        <ele>59.5</ele>
        <time>2025-10-19T09:14:07Z</time>
      </trkpt>
      <trkpt lat="43.21097" lon="5.4971">
        <ele>59.5</ele>
        <time>2025-10-19T09:14:08Z</time>
      </trkpt>
      <trkpt lat="43.21098" lon="5.4971">
        <ele>59.6</ele>
        <time>2025-10-19T09:14:09Z</time>
      </trkpt>
      <trkpt lat="43.211" lon="5.49711">
        <ele>59.7</ele>
        <time>2025-10-19T09:14:10Z</time>
      </trkpt>
      <trkpt lat="43.21101" lon="5.49711">
        <ele>59.8</ele>
        <time>2025-10-19T09:14:11Z</time>
      </trkpt>
      <trkpt lat="43.21102" lon="5.49711">
        <ele>59.8</ele>
        <time>2025-10-19T09:14:12Z</time>
      </trkpt>
      <trkpt lat="43.21103" lon="5.49712">
        <ele>59.9</ele>
        <time>2025-10-19T09:14:13Z</time>
      </trkpt>
      <trkpt lat="43.21104" lon="5.49713">
        <ele>60</ele>
        <time>2025-10-19T09:14:14Z</time>
      </trkpt>
      <trkpt lat="43.21105" lon="5.49713">
        <ele>60</ele>
        <time>2025-10-19T09:14:15Z</time>
      </trkpt>
      <trkpt lat="43.21106" lon="5.49713">
        <ele>60.1</ele>
        <time>2025-10-19T09:14:16Z</time>
      </trkpt>
      <trkpt lat="43.21108" lon="5.49713">
        <ele>60.2</ele>
        <time>2025-10-19T09:14:17Z</time>
      </trkpt>
      <trkpt lat="43.21109" lon="5.49714">
        <ele>60.3</ele>
        <time>2025-10-19T09:14:18Z</time>
      </trkpt>
      <trkpt lat="43.21109" lon="5.49715">
        <ele>60.3</ele>
        <time>2025-10-19T09:14:19Z</time>
      </trkpt>
      <trkpt lat="43.2111" lon="5.49715">
        <ele>60.4</ele>
        <time>2025-10-19T09:14:20Z</time>
      </trkpt>
      <trkpt lat="43.21111" lon="5.49715">
        <ele>60.5</ele>
        <time>2025-10-19T09:14:21Z</time>
      </trkpt>
      <trkpt lat="43.21112" lon="5.49715">
        <ele>60.6</ele>
        <time>2025-10-19T09:14:22Z</time>
      </trkpt>
      <trkpt lat="43.21113" lon="5.49714">
        <ele>60.6</ele>
        <time>2025-10-19T09:14:23Z</time>
      </trkpt>
      <trkpt lat="43.21114" lon="5.49715">
        <ele>60.7</ele>
        <time>2025-10-19T09:14:24Z</time>
      </trkpt>
      <trkpt lat="43.21115" lon="5.49715">
        <ele>60.8</ele>
        <time>2025-10-19T09:14:25Z</time>
      </trkpt>
      <trkpt lat="43.21116" lon="5.49714">
        <ele>60.8</ele>
        <time>2025-10-19T09:14:26Z</time>
      </trkpt>
      <trkpt lat="43.21117" lon="5.49714">
        <ele>60.9</ele>
        <time>2025-10-19T09:14:27Z</time>
      </trkpt>
      <trkpt lat="43.21117" lon="5.49714">
        <ele>60.9</ele>
        <time>2025-10-19T09:14:28Z</time>
      </trkpt>
      <trkpt lat="43.21119" lon="5.49713">
        <ele>61</ele>
        <time>2025-10-19T09:14:29Z</time>
      </trkpt>
      <trkpt lat="43.2112" lon="5.49713">
        <ele>61.1</ele>
        <time>2025-10-19T09:14:30Z</time>
      </trkpt>
      <trkpt lat="43.2112" lon="5.49712">
        <ele>61.2</ele>
        <time>2025-10-19T09:14:31Z</time>
      </trkpt>
      <trkpt lat="43.21122" lon="5.49711">
        <ele>61.3</ele>
        <time>2025-10-19T09:14:32Z</time>
      </trkpt>
      <trkpt lat="43.21122" lon="5.49711">
        <ele>61.3</ele>
        <time>2025-10-19T09:14:33Z</time>
      </trkpt>
      <trkpt lat="43.21125" lon="5.4971">
        <ele>61.4</ele>
        <time>2025-10-19T09:14:34Z</time>
      </trkpt>
      <trkpt lat="43.21127" lon="5.49708">
        <ele>61.4</ele>
        <time>2025-10-19T09:14:35Z</time>
      </trkpt>
      <trkpt lat="43.21128" lon="5.49708">
        <ele>61.5</ele>
        <time>2025-10-19T09:14:36Z</time>
      </trkpt>
      <trkpt lat="43.2113" lon="5.49707">
        <ele>61.6</ele>
        <time>2025-10-19T09:14:37Z</time>
      </trkpt>
      <trkpt lat="43.21132" lon="5.49707">
        <ele>61.7</ele>
        <time>2025-10-19T09:14:38Z</time>
      </trkpt>
      <trkpt lat="43.21132" lon="5.49707">
        <ele>61.7</ele>
        <time>2025-10-19T09:14:39Z</time>
      </trkpt>
      <trkpt lat="43.21133" lon="5.49706">
        <ele>61.8</ele>
        <time>2025-10-19T09:14:40Z</time>
      </trkpt>
      <trkpt lat="43.21134" lon="5.49704">
        <ele>61.9</ele>
        <time>2025-10-19T09:14:41Z</time>
      </trkpt>
      <trkpt lat="43.21135" lon="5.49703">
        <ele>61.9</ele>
        <time>2025-10-19T09:14:42Z</time>
      </trkpt>
      <trkpt lat="43.21136" lon="5.49702">
        <ele>62.1</ele>
        <time>2025-10-19T09:14:43Z</time>
      </trkpt>
      <trkpt lat="43.21136" lon="5.49702">
        <ele>62.3</ele>
        <time>2025-10-19T09:14:44Z</time>
      </trkpt>
      <trkpt lat="43.21138" lon="5.49702">
        <ele>62.5</ele>
        <time>2025-10-19T09:14:45Z</time>
      </trkpt>
      <trkpt lat="43.21139" lon="5.49701">
        <ele>62.6</ele>
        <time>2025-10-19T09:14:46Z</time>
      </trkpt>
      <trkpt lat="43.2114" lon="5.497">
        <ele>62.7</ele>
        <time>2025-10-19T09:14:47Z</time>
      </trkpt>
      <trkpt lat="43.21141" lon="5.49699">
        <ele>62.9</ele>
        <time>2025-10-19T09:14:48Z</time>
      </trkpt>
      <trkpt lat="43.21141" lon="5.49698">
        <ele>63.1</ele>
        <time>2025-10-19T09:14:49Z</time>
      </trkpt>
      <trkpt lat="43.21142" lon="5.49698">
        <ele>63.3</ele>
        <time>2025-10-19T09:14:50Z</time>
      </trkpt>
      <trkpt lat="43.21142" lon="5.49697">
        <ele>63.5</ele>
        <time>2025-10-19T09:14:51Z</time>
      </trkpt>
      <trkpt lat="43.21143" lon="5.49696">
        <ele>63.6</ele>
        <time>2025-10-19T09:14:52Z</time>
      </trkpt>
      <trkpt lat="43.21144" lon="5.49696">
        <ele>63.8</ele>
        <time>2025-10-19T09:14:53Z</time>
      </trkpt>
      <trkpt lat="43.21145" lon="5.49695">
        <ele>63.9</ele>
        <time>2025-10-19T09:14:54Z</time>
      </trkpt>
      <trkpt lat="43.21146" lon="5.49694">
        <ele>64.1</ele>
        <time>2025-10-19T09:14:55Z</time>
      </trkpt>
      <trkpt lat="43.21146" lon="5.49693">
        <ele>64.2</ele>
        <time>2025-10-19T09:14:56Z</time>
      </trkpt>
      <trkpt lat="43.21147" lon="5.49692">
        <ele>64.5</ele>
        <time>2025-10-19T09:14:57Z</time>
      </trkpt>
      <trkpt lat="43.21148" lon="5.49692">
        <ele>64.6</ele>
        <time>2025-10-19T09:14:58Z</time>
      </trkpt>
      <trkpt lat="43.21149" lon="5.49692">
        <ele>64.8</ele>
        <time>2025-10-19T09:14:59Z</time>
      </trkpt>
      <trkpt lat="43.2115" lon="5.49693">
        <ele>64.9</ele>
        <time>2025-10-19T09:15:00Z</time>
      </trkpt>
      <trkpt lat="43.21151" lon="5.49693">
        <ele>65</ele>
        <time>2025-10-19T09:15:01Z</time>
      </trkpt>
      <trkpt lat="43.21151" lon="5.49694">
        <ele>65.3</ele>
        <time>2025-10-19T09:15:02Z</time>
      </trkpt>
      <trkpt lat="43.21152" lon="5.49694">
        <ele>65.4</ele>
        <time>2025-10-19T09:15:03Z</time>
      </trkpt>
      <trkpt lat="43.21153" lon="5.49692">
        <ele>65.5</ele>
        <time>2025-10-19T09:15:04Z</time>
      </trkpt>
      <trkpt lat="43.21153" lon="5.49692">
        <ele>65.7</ele>
        <time>2025-10-19T09:15:05Z</time>
      </trkpt>
      <trkpt lat="43.21154" lon="5.49691">
        <ele>65.9</ele>
        <time>2025-10-19T09:15:06Z</time>
      </trkpt>
      <trkpt lat="43.21155" lon="5.49691">
        <ele>66</ele>
        <time>2025-10-19T09:15:07Z</time>
      </trkpt>
      <trkpt lat="43.21156" lon="5.4969">
        <ele>66.1</ele>
        <time>2025-10-19T09:15:08Z</time>
      </trkpt>
      <trkpt lat="43.21157" lon="5.4969">
        <ele>66.2</ele>
        <time>2025-10-19T09:15:09Z</time>
      </trkpt>
      <trkpt lat="43.21158" lon="5.49689">
        <ele>66.4</ele>
        <time>2025-10-19T09:15:10Z</time>
      </trkpt>
      <trkpt lat="43.21158" lon="5.49688">
        <ele>66.5</ele>
        <time>2025-10-19T09:15:11Z</time>
      </trkpt>
      <trkpt lat="43.21159" lon="5.49688">
        <ele>66.6</ele>
        <time>2025-10-19T09:15:12Z</time>
      </trkpt>
      <trkpt lat="43.2116" lon="5.49687">
        <ele>66.7</ele>
        <time>2025-10-19T09:15:13Z</time>
      </trkpt>
      <trkpt lat="43.21161" lon="5.49686">
        <ele>66.8</ele>
        <time>2025-10-19T09:15:14Z</time>
      </trkpt>
      <trkpt lat="43.21161" lon="5.49685">
        <ele>66.9</ele>
        <time>2025-10-19T09:15:15Z</time>
      </trkpt>
      <trkpt lat="43.21161" lon="5.49685">
        <ele>67</ele>
        <time>2025-10-19T09:15:16Z</time>
      </trkpt>
      <trkpt lat="43.21162" lon="5.49684">
        <ele>67.2</ele>
        <time>2025-10-19T09:15:17Z</time>
      </trkpt>
      <trkpt lat="43.21162" lon="5.49683">
        <ele>67.3</ele>
        <time>2025-10-19T09:15:18Z</time>
      </trkpt>
      <trkpt lat="43.21162" lon="5.49683">
        <ele>67.4</ele>
        <time>2025-10-19T09:15:19Z</time>
      </trkpt>
      <trkpt lat="43.21162" lon="5.49682">
        <ele>67.5</ele>
        <time>2025-10-19T09:15:20Z</time>
      </trkpt>
      <trkpt lat="43.21162" lon="5.49682">
        <ele>67.6</ele>
        <time>2025-10-19T09:15:21Z</time>
      </trkpt>
      <trkpt lat="43.21163" lon="5.49682">
        <ele>67.7</ele>
        <time>2025-10-19T09:15:22Z</time>
      </trkpt>
      <trkpt lat="43.21163" lon="5.49682">
        <ele>67.7</ele>
        <time>2025-10-19T09:15:23Z</time>
      </trkpt>
      <trkpt lat="43.21163" lon="5.49681">
        <ele>67.7</ele>
        <time>2025-10-19T09:15:24Z</time>
      </trkpt>
      <trkpt lat="43.21163" lon="5.49681">
        <ele>67.8</ele>
        <time>2025-10-19T09:15:25Z</time>
      </trkpt>
      <trkpt lat="43.21164" lon="5.4968">
        <ele>67.8</ele>
        <time>2025-10-19T09:15:26Z</time>
      </trkpt>
      <trkpt lat="43.21163" lon="5.4968">
        <ele>67.7</ele>
        <time>2025-10-19T09:15:27Z</time>
      </trkpt>
      <trkpt lat="43.21164" lon="5.4968">
        <ele>67.7</ele>
        <time>2025-10-19T09:15:28Z</time>
      </trkpt>
      <trkpt lat="43.21164" lon="5.4968">
        <ele>67.7</ele>
        <time>2025-10-19T09:15:29Z</time>
      </trkpt>
      <trkpt lat="43.21163" lon="5.4968">
        <ele>67.7</ele>
        <time>2025-10-19T09:15:30Z</time>
      </trkpt>
      <trkpt lat="43.21163" lon="5.49679">
        <ele>67.7</ele>
        <time>2025-10-19T09:15:31Z</time>
      </trkpt>
      <trkpt lat="43.21163" lon="5.49679">
        <ele>67.8</ele>
        <time>2025-10-19T09:15:32Z</time>
      </trkpt>
      <trkpt lat="43.21164" lon="5.49679">
        <ele>67.9</ele>
        <time>2025-10-19T09:15:33Z</time>
      </trkpt>
      <trkpt lat="43.21164" lon="5.49679">
        <ele>67.9</ele>
        <time>2025-10-19T09:15:34Z</time>
      </trkpt>
      <trkpt lat="43.21164" lon="5.49679">
        <ele>67.9</ele>
        <time>2025-10-19T09:15:35Z</time>
      </trkpt>
      <trkpt lat="43.21164" lon="5.49679">
        <ele>67.9</ele>
        <time>2025-10-19T09:15:36Z</time>
      </trkpt>
      <trkpt lat="43.21164" lon="5.49678">
        <ele>67.9</ele>
        <time>2025-10-19T09:15:37Z</time>
      </trkpt>
      <trkpt lat="43.21164" lon="5.49678">
        <ele>68</ele>
        <time>2025-10-19T09:15:38Z</time>
      </trkpt>
      <trkpt lat="43.21165" lon="5.49678">
        <ele>68</ele>
        <time>2025-10-19T09:15:39Z</time>
      </trkpt>
      <trkpt lat="43.21165" lon="5.49678">
        <ele>68</ele>
        <time>2025-10-19T09:15:40Z</time>
      </trkpt>
      <trkpt lat="43.21164" lon="5.49678">
        <ele>68</ele>
        <time>2025-10-19T09:15:41Z</time>
      </trkpt>
      <trkpt lat="43.21164" lon="5.49678">
        <ele>68</ele>
        <time>2025-10-19T09:15:42Z</time>
      </trkpt>
      <trkpt lat="43.21163" lon="5.49677">
        <ele>68</ele>
        <time>2025-10-19T09:15:43Z</time>
      </trkpt>
      <trkpt lat="43.21163" lon="5.49677">
        <ele>68</ele>
        <time>2025-10-19T09:15:44Z</time>
      </trkpt>
      <trkpt lat="43.21163" lon="5.49676">
        <ele>68.2</ele>
        <time>2025-10-19T09:15:45Z</time>
      </trkpt>
      <trkpt lat="43.21163" lon="5.49675">
        <ele>68.3</ele>
        <time>2025-10-19T09:15:46Z</time>
      </trkpt>
      <trkpt lat="43.21163" lon="5.49675">
        <ele>68.5</ele>
        <time>2025-10-19T09:15:47Z</time>
      </trkpt>
      <trkpt lat="43.21163" lon="5.49674">
        <ele>68.6</ele>
        <time>2025-10-19T09:15:48Z</time>
      </trkpt>
      <trkpt lat="43.21162" lon="5.49673">
        <ele>68.8</ele>
        <time>2025-10-19T09:15:49Z</time>
      </trkpt>
      <trkpt lat="43.21162" lon="5.49672">
        <ele>69</ele>
        <time>2025-10-19T09:15:50Z</time>
      </trkpt>
      <trkpt lat="43.21161" lon="5.49672">
        <ele>69.1</ele>
        <time>2025-10-19T09:15:51Z</time>
      </trkpt>
      <trkpt lat="43.21161" lon="5.49673">
        <ele>69.2</ele>
        <time>2025-10-19T09:15:52Z</time>
      </trkpt>
      <trkpt lat="43.2116" lon="5.49672">
        <ele>69.3</ele>
        <time>2025-10-19T09:15:53Z</time>
      </trkpt>
      <trkpt lat="43.21159" lon="5.49671">
        <ele>69.4</ele>
        <time>2025-10-19T09:15:54Z</time>
      </trkpt>
      <trkpt lat="43.21159" lon="5.49671">
        <ele>69.7</ele>
        <time>2025-10-19T09:15:55Z</time>
      </trkpt>
      <trkpt lat="43.21158" lon="5.49671">
        <ele>69.9</ele>
        <time>2025-10-19T09:15:56Z</time>
      </trkpt>
      <trkpt lat="43.21157" lon="5.4967">
        <ele>70.2</ele>
        <time>2025-10-19T09:15:57Z</time>
      </trkpt>
      <trkpt lat="43.21156" lon="5.4967">
        <ele>70.4</ele>
        <time>2025-10-19T09:15:58Z</time>
      </trkpt>
      <trkpt lat="43.21156" lon="5.49669">
        <ele>70.5</ele>
        <time>2025-10-19T09:15:59Z</time>
      </trkpt>
      <trkpt lat="43.21155" lon="5.49668">
        <ele>70.7</ele>
        <time>2025-10-19T09:16:00Z</time>
      </trkpt>
      <trkpt lat="43.21155" lon="5.49667">
        <ele>70.9</ele>
        <time>2025-10-19T09:16:01Z</time>
      </trkpt>
      <trkpt lat="43.21154" lon="5.49665">
        <ele>71.1</ele>
        <time>2025-10-19T09:16:02Z</time>
      </trkpt>
      <trkpt lat="43.21154" lon="5.49664">
        <ele>71.2</ele>
        <time>2025-10-19T09:16:03Z</time>
      </trkpt>
      <trkpt lat="43.21154" lon="5.49663">
        <ele>71.3</ele>
        <time>2025-10-19T09:16:04Z</time>
      </trkpt>
      <trkpt lat="43.21154" lon="5.49662">
        <ele>71.4</ele>
        <time>2025-10-19T09:16:05Z</time>
      </trkpt>
      <trkpt lat="43.21154" lon="5.49661">
        <ele>71.6</ele>
        <time>2025-10-19T09:16:06Z</time>
      </trkpt>
      <trkpt lat="43.21153" lon="5.4966">
        <ele>71.7</ele>
        <time>2025-10-19T09:16:07Z</time>
      </trkpt>
      <trkpt lat="43.21153" lon="5.4966">
        <ele>71.8</ele>
        <time>2025-10-19T09:16:08Z</time>
      </trkpt>
      <trkpt lat="43.21153" lon="5.49659">
        <ele>71.9</ele>
        <time>2025-10-19T09:16:09Z</time>
      </trkpt>
      <trkpt lat="43.21152" lon="5.49658">
        <ele>72.1</ele>
        <time>2025-10-19T09:16:10Z</time>
      </trkpt>
      <trkpt lat="43.21152" lon="5.49657">
        <ele>72.3</ele>
        <time>2025-10-19T09:16:11Z</time>
      </trkpt>
      <trkpt lat="43.21151" lon="5.49657">
        <ele>72.5</ele>
        <time>2025-10-19T09:16:12Z</time>
      </trkpt>
      <trkpt lat="43.2115" lon="5.49656">
        <ele>72.8</ele>
        <time>2025-10-19T09:16:13Z</time>
      </trkpt>
      <trkpt lat="43.21149" lon="5.49655">
        <ele>73</ele>
        <time>2025-10-19T09:16:14Z</time>
      </trkpt>
      <trkpt lat="43.21149" lon="5.49654">
        <ele>73.2</ele>
        <time>2025-10-19T09:16:15Z</time>
      </trkpt>
      <trkpt lat="43.21149" lon="5.49653">
        <ele>73.4</ele>
        <time>2025-10-19T09:16:16Z</time>
      </trkpt>
      <trkpt lat="43.21149" lon="5.49652">
        <ele>73.6</ele>
        <time>2025-10-19T09:16:17Z</time>
      </trkpt>
      <trkpt lat="43.21148" lon="5.49651">
        <ele>73.8</ele>
        <time>2025-10-19T09:16:18Z</time>
      </trkpt>
      <trkpt lat="43.21148" lon="5.49651">
        <ele>74</ele>
        <time>2025-10-19T09:16:19Z</time>
      </trkpt>
      <trkpt lat="43.21148" lon="5.4965">
        <ele>74.2</ele>
        <time>2025-10-19T09:16:20Z</time>
      </trkpt>
      <trkpt lat="43.21147" lon="5.49649">
        <ele>74.3</ele>
        <time>2025-10-19T09:16:21Z</time>
      </trkpt>
      <trkpt lat="43.21146" lon="5.49649">
        <ele>74.5</ele>
        <time>2025-10-19T09:16:22Z</time>
      </trkpt>
      <trkpt lat="43.21146" lon="5.49648">
        <ele>74.7</ele>
        <time>2025-10-19T09:16:23Z</time>
      </trkpt>
      <trkpt lat="43.21145" lon="5.49648">
        <ele>74.9</ele>
        <time>2025-10-19T09:16:24Z</time>
      </trkpt>
      <trkpt lat="43.21145" lon="5.49647">
        <ele>75.1</ele>
        <time>2025-10-19T09:16:25Z</time>
      </trkpt>
      <trkpt lat="43.21144" lon="5.49647">
        <ele>75.3</ele>
        <time>2025-10-19T09:16:26Z</time>
      </trkpt>
      <trkpt lat="43.21144" lon="5.49646">
        <ele>75.4</ele>
        <time>2025-10-19T09:16:27Z</time>
      </trkpt>
      <trkpt lat="43.21143" lon="5.49646">
        <ele>75.5</ele>
        <time>2025-10-19T09:16:28Z</time>
      </trkpt>
      <trkpt lat="43.21143" lon="5.49645">
        <ele>75.8</ele>
        <time>2025-10-19T09:16:29Z</time>
      </trkpt>
      <trkpt lat="43.21143" lon="5.49644">
        <ele>76.1</ele>
        <time>2025-10-19T09:16:30Z</time>
      </trkpt>
      <trkpt lat="43.21143" lon="5.49643">
        <ele>76.3</ele>
        <time>2025-10-19T09:16:31Z</time>
      </trkpt>
      <trkpt lat="43.21142" lon="5.49643">
        <ele>76.4</ele>
        <time>2025-10-19T09:16:32Z</time>
      </trkpt>
      <trkpt lat="43.21142" lon="5.49642">
        <ele>76.6</ele>
        <time>2025-10-19T09:16:33Z</time>
      </trkpt>
      <trkpt lat="43.21142" lon="5.49641">
        <ele>76.7</ele>
        <time>2025-10-19T09:16:34Z</time>
      </trkpt>
      <trkpt lat="43.21141" lon="5.4964">
        <ele>76.8</ele>
        <time>2025-10-19T09:16:35Z</time>
      </trkpt>
      <trkpt lat="43.21141" lon="5.49639">
        <ele>77</ele>
        <time>2025-10-19T09:16:36Z</time>
      </trkpt>
      <trkpt lat="43.21141" lon="5.49638">
        <ele>77.2</ele>
        <time>2025-10-19T09:16:37Z</time>
      </trkpt>
      <trkpt lat="43.2114" lon="5.49637">
        <ele>77.3</ele>
        <time>2025-10-19T09:16:38Z</time>
      </trkpt>
      <trkpt lat="43.2114" lon="5.49637">
        <ele>77.6</ele>
        <time>2025-10-19T09:16:39Z</time>
      </trkpt>
      <trkpt lat="43.2114" lon="5.49635">
        <ele>77.8</ele>
        <time>2025-10-19T09:16:40Z</time>
      </trkpt>
      <trkpt lat="43.2114" lon="5.49634">
        <ele>77.9</ele>
        <time>2025-10-19T09:16:41Z</time>
      </trkpt>
      <trkpt lat="43.2114" lon="5.49634">
        <ele>78.3</ele>
        <time>2025-10-19T09:16:42Z</time>
      </trkpt>
      <trkpt lat="43.21139" lon="5.49633">
        <ele>78.5</ele>
        <time>2025-10-19T09:16:43Z</time>
      </trkpt>
      <trkpt lat="43.21139" lon="5.49632">
        <ele>78.6</ele>
        <time>2025-10-19T09:16:44Z</time>
      </trkpt>
      <trkpt lat="43.21139" lon="5.49631">
        <ele>78.8</ele>
        <time>2025-10-19T09:16:45Z</time>
      </trkpt>
      <trkpt lat="43.21139" lon="5.4963">
        <ele>78.9</ele>
        <time>2025-10-19T09:16:46Z</time>
      </trkpt>
      <trkpt lat="43.21139" lon="5.49629">
        <ele>79</ele>
        <time>2025-10-19T09:16:47Z</time>
      </trkpt>
      <trkpt lat="43.21139" lon="5.49628">
        <ele>79.2</ele>
        <time>2025-10-19T09:16:48Z</time>
      </trkpt>
      <trkpt lat="43.21138" lon="5.49627">
        <ele>79.4</ele>
        <time>2025-10-19T09:16:49Z</time>
      </trkpt>
      <trkpt lat="43.21138" lon="5.49627">
        <ele>79.6</ele>
        <time>2025-10-19T09:16:50Z</time>
      </trkpt>
      <trkpt lat="43.21137" lon="5.49626">
        <ele>79.7</ele>
        <time>2025-10-19T09:16:51Z</time>
      </trkpt>
      <trkpt lat="43.21137" lon="5.49626">
        <ele>79.8</ele>
        <time>2025-10-19T09:16:52Z</time>
      </trkpt>
      <trkpt lat="43.21137" lon="5.49625">
        <ele>79.9</ele>
        <time>2025-10-19T09:16:53Z</time>
      </trkpt>
      <trkpt lat="43.21137" lon="5.49624">
        <ele>80.1</ele>
        <time>2025-10-19T09:16:54Z</time>
      </trkpt>
      <trkpt lat="43.21137" lon="5.49623">
        <ele>80.2</ele>
        <time>2025-10-19T09:16:55Z</time>
      </trkpt>
      <trkpt lat="43.21137" lon="5.49623">
        <ele>80.3</ele>
        <time>2025-10-19T09:16:56Z</time>
      </trkpt>
      <trkpt lat="43.21137" lon="5.49622">
        <ele>80.4</ele>
        <time>2025-10-19T09:16:57Z</time>
      </trkpt>
      <trkpt lat="43.21137" lon="5.49621">
        <ele>80.7</ele>
        <time>2025-10-19T09:16:58Z</time>
      </trkpt>
      <trkpt lat="43.21137" lon="5.4962">
        <ele>80.9</ele>
        <time>2025-10-19T09:16:59Z</time>
      </trkpt>
      <trkpt lat="43.21137" lon="5.49618">
        <ele>81.1</ele>
        <time>2025-10-19T09:17:00Z</time>
      </trkpt>
      <trkpt lat="43.21137" lon="5.49617">
        <ele>81.2</ele>
        <time>2025-10-19T09:17:01Z</time>
      </trkpt>
      <trkpt lat="43.21136" lon="5.49616">
        <ele>81.4</ele>
        <time>2025-10-19T09:17:02Z</time>
      </trkpt>
      <trkpt lat="43.21136" lon="5.49616">
        <ele>81.5</ele>
        <time>2025-10-19T09:17:03Z</time>
      </trkpt>
      <trkpt lat="43.21136" lon="5.49615">
        <ele>81.7</ele>
        <time>2025-10-19T09:17:04Z</time>
      </trkpt>
      <trkpt lat="43.21136" lon="5.49614">
        <ele>81.8</ele>
        <time>2025-10-19T09:17:05Z</time>
      </trkpt>
      <trkpt lat="43.21136" lon="5.49613">
        <ele>82.1</ele>
        <time>2025-10-19T09:17:06Z</time>
      </trkpt>
      <trkpt lat="43.21136" lon="5.49612">
        <ele>82.3</ele>
        <time>2025-10-19T09:17:07Z</time>
      </trkpt>
      <trkpt lat="43.21137" lon="5.49611">
        <ele>82.4</ele>
        <time>2025-10-19T09:17:08Z</time>
      </trkpt>
      <trkpt lat="43.21137" lon="5.4961">
        <ele>82.5</ele>
        <time>2025-10-19T09:17:09Z</time>
      </trkpt>
      <trkpt lat="43.21138" lon="5.49609">
        <ele>82.7</ele>
        <time>2025-10-19T09:17:10Z</time>
      </trkpt>
      <trkpt lat="43.21138" lon="5.49608">
        <ele>82.8</ele>
        <time>2025-10-19T09:17:11Z</time>
      </trkpt>
      <trkpt lat="43.21138" lon="5.49608">
        <ele>83</ele>
        <time>2025-10-19T09:17:12Z</time>
      </trkpt>
      <trkpt lat="43.21139" lon="5.49607">
        <ele>83.3</ele>
        <time>2025-10-19T09:17:13Z</time>
      </trkpt>
      <trkpt lat="43.21139" lon="5.49606">
        <ele>83.5</ele>
        <time>2025-10-19T09:17:14Z</time>
      </trkpt>
      <trkpt lat="43.21139" lon="5.49605">
        <ele>83.7</ele>
        <time>2025-10-19T09:17:15Z</time>
      </trkpt>
      <trkpt lat="43.2114" lon="5.49604">
        <ele>83.9</ele>
        <time>2025-10-19T09:17:16Z</time>
      </trkpt>
      <trkpt lat="43.2114" lon="5.49604">
        <ele>84.1</ele>
        <time>2025-10-19T09:17:17Z</time>
      </trkpt>
      <trkpt lat="43.2114" lon="5.49603">
        <ele>84.3</ele>
        <time>2025-10-19T09:17:18Z</time>
      </trkpt>
      <trkpt lat="43.2114" lon="5.49602">
        <ele>84.5</ele>
        <time>2025-10-19T09:17:19Z</time>
      </trkpt>
      <trkpt lat="43.2114" lon="5.49601">
        <ele>84.6</ele>
        <time>2025-10-19T09:17:20Z</time>
      </trkpt>
      <trkpt lat="43.21141" lon="5.496">
        <ele>84.7</ele>
        <time>2025-10-19T09:17:21Z</time>
      </trkpt>
      <trkpt lat="43.21141" lon="5.496">
        <ele>84.8</ele>
        <time>2025-10-19T09:17:22Z</time>
      </trkpt>
      <trkpt lat="43.21141" lon="5.49599">
        <ele>85</ele>
        <time>2025-10-19T09:17:23Z</time>
      </trkpt>
      <trkpt lat="43.21141" lon="5.49598">
        <ele>85.1</ele>
        <time>2025-10-19T09:17:24Z</time>
      </trkpt>
      <trkpt lat="43.21141" lon="5.49598">
        <ele>85.3</ele>
        <time>2025-10-19T09:17:25Z</time>
      </trkpt>
      <trkpt lat="43.21141" lon="5.49597">
        <ele>85.5</ele>
        <time>2025-10-19T09:17:26Z</time>
      </trkpt>
      <trkpt lat="43.21141" lon="5.49596">
        <ele>85.6</ele>
        <time>2025-10-19T09:17:27Z</time>
      </trkpt>
      <trkpt lat="43.21141" lon="5.49595">
        <ele>85.8</ele>
        <time>2025-10-19T09:17:28Z</time>
      </trkpt>
      <trkpt lat="43.21141" lon="5.49595">
        <ele>86</ele>
        <time>2025-10-19T09:17:29Z</time>
      </trkpt>
      <trkpt lat="43.21141" lon="5.49594">
        <ele>86.2</ele>
        <time>2025-10-19T09:17:30Z</time>
      </trkpt>
      <trkpt lat="43.21141" lon="5.49593">
        <ele>86.3</ele>
        <time>2025-10-19T09:17:31Z</time>
      </trkpt>
      <trkpt lat="43.21141" lon="5.49592">
        <ele>86.4</ele>
        <time>2025-10-19T09:17:32Z</time>
      </trkpt>
      <trkpt lat="43.21141" lon="5.49591">
        <ele>86.6</ele>
        <time>2025-10-19T09:17:33Z</time>
      </trkpt>
      <trkpt lat="43.21141" lon="5.4959">
        <ele>86.8</ele>
        <time>2025-10-19T09:17:34Z</time>
      </trkpt>
      <trkpt lat="43.21141" lon="5.49589">
        <ele>87</ele>
        <time>2025-10-19T09:17:35Z</time>
      </trkpt>
      <trkpt lat="43.21142" lon="5.49588">
        <ele>87.1</ele>
        <time>2025-10-19T09:17:36Z</time>
      </trkpt>
      <trkpt lat="43.21142" lon="5.49587">
        <ele>87.3</ele>
        <time>2025-10-19T09:17:37Z</time>
      </trkpt>
      <trkpt lat="43.21142" lon="5.49586">
        <ele>87.4</ele>
        <time>2025-10-19T09:17:38Z</time>
      </trkpt>
      <trkpt lat="43.21142" lon="5.49585">
        <ele>87.6</ele>
        <time>2025-10-19T09:17:39Z</time>
      </trkpt>
      <trkpt lat="43.21142" lon="5.49584">
        <ele>87.8</ele>
        <time>2025-10-19T09:17:40Z</time>
      </trkpt>
      <trkpt lat="43.21142" lon="5.49583">
        <ele>88</ele>
        <time>2025-10-19T09:17:41Z</time>
      </trkpt>
      <trkpt lat="43.21142" lon="5.49582">
        <ele>88.3</ele>
        <time>2025-10-19T09:17:42Z</time>
      </trkpt>
      <trkpt lat="43.21141" lon="5.4958">
        <ele>88.5</ele>
        <time>2025-10-19T09:17:43Z</time>
      </trkpt>
      <trkpt lat="43.2114" lon="5.49579">
        <ele>88.8</ele>
        <time>2025-10-19T09:17:44Z</time>
      </trkpt>
      <trkpt lat="43.21139" lon="5.49578">
        <ele>88.9</ele>
        <time>2025-10-19T09:17:45Z</time>
      </trkpt>
      <trkpt lat="43.21138" lon="5.49578">
        <ele>89.1</ele>
        <time>2025-10-19T09:17:46Z</time>
      </trkpt>
      <trkpt lat="43.21137" lon="5.49577">
        <ele>89.4</ele>
        <time>2025-10-19T09:17:47Z</time>
      </trkpt>
      <trkpt lat="43.21137" lon="5.49576">
        <ele>89.6</ele>
        <time>2025-10-19T09:17:48Z</time>
      </trkpt>
      <trkpt lat="43.21137" lon="5.49576">
        <ele>89.7</ele>
        <time>2025-10-19T09:17:49Z</time>
      </trkpt>
      <trkpt lat="43.21137" lon="5.49574">
        <ele>89.8</ele>
        <time>2025-10-19T09:17:50Z</time>
      </trkpt>
      <trkpt lat="43.21136" lon="5.49574">
        <ele>89.9</ele>
        <time>2025-10-19T09:17:51Z</time>
      </trkpt>
      <trkpt lat="43.21136" lon="5.49573">
        <ele>90</ele>
        <time>2025-10-19T09:17:52Z</time>
      </trkpt>
      <trkpt lat="43.21136" lon="5.49572">
        <ele>90.1</ele>
        <time>2025-10-19T09:17:53Z</time>
      </trkpt>
      <trkpt lat="43.21135" lon="5.49571">
        <ele>90.3</ele>
        <time>2025-10-19T09:17:54Z</time>
      </trkpt>
      <trkpt lat="43.21134" lon="5.49571">
        <ele>90.3</ele>
        <time>2025-10-19T09:17:55Z</time>
      </trkpt>
      <trkpt lat="43.21134" lon="5.4957">
        <ele>90.4</ele>
        <time>2025-10-19T09:17:56Z</time>
      </trkpt>
      <trkpt lat="43.21134" lon="5.49569">
        <ele>90.4</ele>
        <time>2025-10-19T09:17:57Z</time>
      </trkpt>
      <trkpt lat="43.21134" lon="5.49568">
        <ele>90.5</ele>
        <time>2025-10-19T09:17:58Z</time>
      </trkpt>
      <trkpt lat="43.21133" lon="5.49566">
        <ele>90.7</ele>
        <time>2025-10-19T09:17:59Z</time>
      </trkpt>
      <trkpt lat="43.21133" lon="5.49565">
        <ele>91</ele>
        <time>2025-10-19T09:18:00Z</time>
      </trkpt>
      <trkpt lat="43.21133" lon="5.49564">
        <ele>91.1</ele>
        <time>2025-10-19T09:18:01Z</time>
      </trkpt>
      <trkpt lat="43.21133" lon="5.49564">
        <ele>91.3</ele>
        <time>2025-10-19T09:18:02Z</time>
      </trkpt>
      <trkpt lat="43.21132" lon="5.49563">
        <ele>91.5</ele>
        <time>2025-10-19T09:18:03Z</time>
      </trkpt>
      <trkpt lat="43.21132" lon="5.49563">
        <ele>91.6</ele>
        <time>2025-10-19T09:18:04Z</time>
      </trkpt>
      <trkpt lat="43.21132" lon="5.49562">
        <ele>91.7</ele>
        <time>2025-10-19T09:18:05Z</time>
      </trkpt>
      <trkpt lat="43.21131" lon="5.49561">
        <ele>91.8</ele>
        <time>2025-10-19T09:18:06Z</time>
      </trkpt>
      <trkpt lat="43.21131" lon="5.49561">
        <ele>92</ele>
        <time>2025-10-19T09:18:07Z</time>
      </trkpt>
      <trkpt lat="43.21131" lon="5.4956">
        <ele>92.2</ele>
        <time>2025-10-19T09:18:08Z</time>
      </trkpt>
      <trkpt lat="43.21131" lon="5.4956">
        <ele>92.3</ele>
        <time>2025-10-19T09:18:09Z</time>
      </trkpt>
      <trkpt lat="43.21131" lon="5.49559">
        <ele>92.5</ele>
        <time>2025-10-19T09:18:10Z</time>
      </trkpt>
      <trkpt lat="43.2113" lon="5.49558">
        <ele>92.7</ele>
        <time>2025-10-19T09:18:11Z</time>
      </trkpt>
      <trkpt lat="43.2113" lon="5.49558">
        <ele>92.9</ele>
        <time>2025-10-19T09:18:12Z</time>
      </trkpt>
      <trkpt lat="43.2113" lon="5.49557">
        <ele>93</ele>
        <time>2025-10-19T09:18:13Z</time>
      </trkpt>
      <trkpt lat="43.2113" lon="5.49556">
        <ele>93.1</ele>
        <time>2025-10-19T09:18:14Z</time>
      </trkpt>
      <trkpt lat="43.21129" lon="5.49555">
        <ele>93.3</ele>
        <time>2025-10-19T09:18:15Z</time>
      </trkpt>
      <trkpt lat="43.21129" lon="5.49554">
        <ele>93.4</ele>
        <time>2025-10-19T09:18:16Z</time>
      </trkpt>
      <trkpt lat="43.21128" lon="5.49554">
        <ele>93.5</ele>
        <time>2025-10-19T09:18:17Z</time>
      </trkpt>
      <trkpt lat="43.21128" lon="5.49553">
        <ele>93.8</ele>
        <time>2025-10-19T09:18:18Z</time>
      </trkpt>
      <trkpt lat="43.21128" lon="5.49552">
        <ele>94</ele>
        <time>2025-10-19T09:18:19Z</time>
      </trkpt>
      <trkpt lat="43.21128" lon="5.49551">
        <ele>94.1</ele>
        <time>2025-10-19T09:18:20Z</time>
      </trkpt>
      <trkpt lat="43.21128" lon="5.4955">
        <ele>94.3</ele>
        <time>2025-10-19T09:18:21Z</time>
      </trkpt>
      <trkpt lat="43.21128" lon="5.49549">
        <ele>94.5</ele>
        <time>2025-10-19T09:18:22Z</time>
      </trkpt>
      <trkpt lat="43.21127" lon="5.49548">
        <ele>94.6</ele>
        <time>2025-10-19T09:18:23Z</time>
      </trkpt>
      <trkpt lat="43.21126" lon="5.49548">
        <ele>94.8</ele>
        <time>2025-10-19T09:18:24Z</time>
      </trkpt>
      <trkpt lat="43.21126" lon="5.49546">
        <ele>94.9</ele>
        <time>2025-10-19T09:18:25Z</time>
      </trkpt>
      <trkpt lat="43.21126" lon="5.49545">
        <ele>95.1</ele>
        <time>2025-10-19T09:18:26Z</time>
      </trkpt>
      <trkpt lat="43.21125" lon="5.49544">
        <ele>95.2</ele>
        <time>2025-10-19T09:18:27Z</time>
      </trkpt>
      <trkpt lat="43.21125" lon="5.49543">
        <ele>95.4</ele>
        <time>2025-10-19T09:18:28Z</time>
      </trkpt>
      <trkpt lat="43.21125" lon="5.49542">
        <ele>95.5</ele>
        <time>2025-10-19T09:18:29Z</time>
      </trkpt>
      <trkpt lat="43.21125" lon="5.49541">
        <ele>95.7</ele>
        <time>2025-10-19T09:18:30Z</time>
      </trkpt>
      <trkpt lat="43.21125" lon="5.4954">
        <ele>95.9</ele>
        <time>2025-10-19T09:18:31Z</time>
      </trkpt>
      <trkpt lat="43.21125" lon="5.49539">
        <ele>96</ele>
        <time>2025-10-19T09:18:32Z</time>
      </trkpt>
      <trkpt lat="43.21125" lon="5.49538">
        <ele>96.1</ele>
        <time>2025-10-19T09:18:33Z</time>
      </trkpt>
      <trkpt lat="43.21125" lon="5.49537">
        <ele>96.3</ele>
        <time>2025-10-19T09:18:34Z</time>
      </trkpt>
      <trkpt lat="43.21125" lon="5.49535">
        <ele>96.4</ele>
        <time>2025-10-19T09:18:35Z</time>
      </trkpt>
      <trkpt lat="43.21124" lon="5.49534">
        <ele>96.5</ele>
        <time>2025-10-19T09:18:36Z</time>
      </trkpt>
      <trkpt lat="43.21124" lon="5.49533">
        <ele>96.6</ele>
        <time>2025-10-19T09:18:37Z</time>
      </trkpt>
      <trkpt lat="43.21124" lon="5.49532">
        <ele>96.6</ele>
        <time>2025-10-19T09:18:38Z</time>
      </trkpt>
      <trkpt lat="43.21124" lon="5.49532">
        <ele>96.8</ele>
        <time>2025-10-19T09:18:39Z</time>
      </trkpt>
      <trkpt lat="43.21124" lon="5.4953">
        <ele>96.9</ele>
        <time>2025-10-19T09:18:40Z</time>
      </trkpt>
      <trkpt lat="43.21124" lon="5.49529">
        <ele>97.1</ele>
        <time>2025-10-19T09:18:41Z</time>
      </trkpt>
      <trkpt lat="43.21124" lon="5.49529">
        <ele>97.3</ele>
        <time>2025-10-19T09:18:42Z</time>
      </trkpt>
      <trkpt lat="43.21123" lon="5.49528">
        <ele>97.5</ele>
        <time>2025-10-19T09:18:43Z</time>
      </trkpt>
      <trkpt lat="43.21124" lon="5.49527">
        <ele>97.7</ele>
        <time>2025-10-19T09:18:44Z</time>
      </trkpt>
      <trkpt lat="43.21124" lon="5.49526">
        <ele>97.8</ele>
        <time>2025-10-19T09:18:45Z</time>
      </trkpt>
      <trkpt lat="43.21123" lon="5.49525">
        <ele>98</ele>
        <time>2025-10-19T09:18:46Z</time>
      </trkpt>
      <trkpt lat="43.21123" lon="5.49524">
        <ele>98.1</ele>
        <time>2025-10-19T09:18:47Z</time>
      </trkpt>
      <trkpt lat="43.21123" lon="5.49523">
        <ele>98.2</ele>
        <time>2025-10-19T09:18:48Z</time>
      </trkpt>
      <trkpt lat="43.21123" lon="5.49522">
        <ele>98.4</ele>
        <time>2025-10-19T09:18:49Z</time>
      </trkpt>
      <trkpt lat="43.21124" lon="5.49521">
        <ele>98.5</ele>
        <time>2025-10-19T09:18:50Z</time>
      </trkpt>
      <trkpt lat="43.21124" lon="5.4952">
        <ele>98.7</ele>
        <time>2025-10-19T09:18:51Z</time>
      </trkpt>
      <trkpt lat="43.21124" lon="5.49519">
        <ele>98.9</ele>
        <time>2025-10-19T09:18:52Z</time>
      </trkpt>
      <trkpt lat="43.21124" lon="5.49518">
        <ele>99</ele>
        <time>2025-10-19T09:18:53Z</time>
      </trkpt>
      <trkpt lat="43.21124" lon="5.49518">
        <ele>99.2</ele>
        <time>2025-10-19T09:18:54Z</time>
      </trkpt>
      <trkpt lat="43.21124" lon="5.49517">
        <ele>99.4</ele>
        <time>2025-10-19T09:18:55Z</time>
      </trkpt>
      <trkpt lat="43.21124" lon="5.49516">
        <ele>99.6</ele>
        <time>2025-10-19T09:18:56Z</time>
      </trkpt>
      <trkpt lat="43.21124" lon="5.49515">
        <ele>99.8</ele>
        <time>2025-10-19T09:18:57Z</time>
      </trkpt>
      <trkpt lat="43.21124" lon="5.49515">
        <ele>100</ele>
        <time>2025-10-19T09:18:58Z</time>
      </trkpt>
      <trkpt lat="43.21124" lon="5.49515">
        <ele>100.1</ele>
        <time>2025-10-19T09:18:59Z</time>
      </trkpt>
      <trkpt lat="43.21124" lon="5.49515">
        <ele>100.3</ele>
        <time>2025-10-19T09:19:00Z</time>
      </trkpt>
      <trkpt lat="43.21124" lon="5.49514">
        <ele>100.4</ele>
        <time>2025-10-19T09:19:01Z</time>
      </trkpt>
      <trkpt lat="43.21124" lon="5.49513">
        <ele>100.6</ele>
        <time>2025-10-19T09:19:02Z</time>
      </trkpt>
      <trkpt lat="43.21125" lon="5.49512">
        <ele>100.7</ele>
        <time>2025-10-19T09:19:03Z</time>
      </trkpt>
      <trkpt lat="43.21124" lon="5.49511">
        <ele>100.9</ele>
        <time>2025-10-19T09:19:04Z</time>
      </trkpt>
      <trkpt lat="43.21124" lon="5.4951">
        <ele>101.1</ele>
        <time>2025-10-19T09:19:05Z</time>
      </trkpt>
      <trkpt lat="43.21124" lon="5.49509">
        <ele>101.3</ele>
        <time>2025-10-19T09:19:06Z</time>
      </trkpt>
      <trkpt lat="43.21125" lon="5.49508">
        <ele>101.5</ele>
        <time>2025-10-19T09:19:07Z</time>
      </trkpt>
      <trkpt lat="43.21125" lon="5.49507">
        <ele>101.6</ele>
        <time>2025-10-19T09:19:08Z</time>
      </trkpt>
      <trkpt lat="43.21125" lon="5.49506">
        <ele>101.9</ele>
        <time>2025-10-19T09:19:09Z</time>
      </trkpt>
      <trkpt lat="43.21125" lon="5.49504">
        <ele>102.1</ele>
        <time>2025-10-19T09:19:10Z</time>
      </trkpt>
      <trkpt lat="43.21126" lon="5.49503">
        <ele>102.2</ele>
        <time>2025-10-19T09:19:11Z</time>
      </trkpt>
      <trkpt lat="43.21126" lon="5.49502">
        <ele>102.4</ele>
        <time>2025-10-19T09:19:12Z</time>
      </trkpt>
      <trkpt lat="43.21126" lon="5.49501">
        <ele>102.5</ele>
        <time>2025-10-19T09:19:13Z</time>
      </trkpt>
      <trkpt lat="43.21126" lon="5.495">
        <ele>102.7</ele>
        <time>2025-10-19T09:19:14Z</time>
      </trkpt>
      <trkpt lat="43.21126" lon="5.49499">
        <ele>102.8</ele>
        <time>2025-10-19T09:19:15Z</time>
      </trkpt>
      <trkpt lat="43.21126" lon="5.49498">
        <ele>102.8</ele>
        <time>2025-10-19T09:19:16Z</time>
      </trkpt>
      <trkpt lat="43.21126" lon="5.49496">
        <ele>103</ele>
        <time>2025-10-19T09:19:17Z</time>
      </trkpt>
      <trkpt lat="43.21126" lon="5.49495">
        <ele>103.2</ele>
        <time>2025-10-19T09:19:18Z</time>
      </trkpt>
      <trkpt lat="43.21126" lon="5.49494">
        <ele>103.3</ele>
        <time>2025-10-19T09:19:19Z</time>
      </trkpt>
      <trkpt lat="43.21127" lon="5.49493">
        <ele>103.4</ele>
        <time>2025-10-19T09:19:20Z</time>
      </trkpt>
      <trkpt lat="43.21127" lon="5.49492">
        <ele>103.5</ele>
        <time>2025-10-19T09:19:21Z</time>
      </trkpt>
      <trkpt lat="43.21127" lon="5.49491">
        <ele>103.7</ele>
        <time>2025-10-19T09:19:22Z</time>
      </trkpt>
      <trkpt lat="43.21127" lon="5.49491">
        <ele>103.9</ele>
        <time>2025-10-19T09:19:23Z</time>
      </trkpt>
      <trkpt lat="43.21126" lon="5.4949">
        <ele>104</ele>
        <time>2025-10-19T09:19:24Z</time>
      </trkpt>
      <trkpt lat="43.21126" lon="5.4949">
        <ele>104.1</ele>
        <time>2025-10-19T09:19:25Z</time>
      </trkpt>
      <trkpt lat="43.21127" lon="5.49489">
        <ele>104.3</ele>
        <time>2025-10-19T09:19:26Z</time>
      </trkpt>
      <trkpt lat="43.21127" lon="5.49488">
        <ele>104.5</ele>
        <time>2025-10-19T09:19:27Z</time>
      </trkpt>
      <trkpt lat="43.21127" lon="5.49487">
        <ele>104.6</ele>
        <time>2025-10-19T09:19:28Z</time>
      </trkpt>
      <trkpt lat="43.21127" lon="5.49486">
        <ele>104.7</ele>
        <time>2025-10-19T09:19:29Z</time>
      </trkpt>
      <trkpt lat="43.21127" lon="5.49485">
        <ele>104.9</ele>
        <time>2025-10-19T09:19:30Z</time>
      </trkpt>
      <trkpt lat="43.21127" lon="5.49484">
        <ele>105.1</ele>
        <time>2025-10-19T09:19:31Z</time>
      </trkpt>
      <trkpt lat="43.21127" lon="5.49483">
        <ele>105.2</ele>
        <time>2025-10-19T09:19:32Z</time>
      </trkpt>
      <trkpt lat="43.21127" lon="5.49481">
        <ele>105.3</ele>
        <time>2025-10-19T09:19:33Z</time>
      </trkpt>
      <trkpt lat="43.21127" lon="5.4948">
        <ele>105.4</ele>
        <time>2025-10-19T09:19:34Z</time>
      </trkpt>
      <trkpt lat="43.21127" lon="5.49479">
        <ele>105.5</ele>
        <time>2025-10-19T09:19:35Z</time>
      </trkpt>
      <trkpt lat="43.21127" lon="5.49477">
        <ele>105.7</ele>
        <time>2025-10-19T09:19:36Z</time>
      </trkpt>
      <trkpt lat="43.21127" lon="5.49475">
        <ele>105.8</ele>
        <time>2025-10-19T09:19:37Z</time>
      </trkpt>
      <trkpt lat="43.21127" lon="5.49474">
        <ele>105.9</ele>
        <time>2025-10-19T09:19:38Z</time>
      </trkpt>
      <trkpt lat="43.21126" lon="5.49473">
        <ele>106.1</ele>
        <time>2025-10-19T09:19:39Z</time>
      </trkpt>
      <trkpt lat="43.21126" lon="5.49471">
        <ele>106.2</ele>
        <time>2025-10-19T09:19:40Z</time>
      </trkpt>
      <trkpt lat="43.21126" lon="5.4947">
        <ele>106.2</ele>
        <time>2025-10-19T09:19:41Z</time>
      </trkpt>
      <trkpt lat="43.21126" lon="5.49469">
        <ele>106.4</ele>
        <time>2025-10-19T09:19:42Z</time>
      </trkpt>
      <trkpt lat="43.21126" lon="5.49468">
        <ele>106.6</ele>
        <time>2025-10-19T09:19:43Z</time>
      </trkpt>
      <trkpt lat="43.21126" lon="5.49466">
        <ele>106.8</ele>
        <time>2025-10-19T09:19:44Z</time>
      </trkpt>
      <trkpt lat="43.21126" lon="5.49465">
        <ele>107</ele>
        <time>2025-10-19T09:19:45Z</time>
      </trkpt>
      <trkpt lat="43.21126" lon="5.49464">
        <ele>107.1</ele>
        <time>2025-10-19T09:19:46Z</time>
      </trkpt>
      <trkpt lat="43.21126" lon="5.49464">
        <ele>107.2</ele>
        <time>2025-10-19T09:19:47Z</time>
      </trkpt>
      <trkpt lat="43.21126" lon="5.49463">
        <ele>107.3</ele>
        <time>2025-10-19T09:19:48Z</time>
      </trkpt>
      <trkpt lat="43.21126" lon="5.49461">
        <ele>107.5</ele>
        <time>2025-10-19T09:19:49Z</time>
      </trkpt>
      <trkpt lat="43.21126" lon="5.4946">
        <ele>107.7</ele>
        <time>2025-10-19T09:19:50Z</time>
      </trkpt>
      <trkpt lat="43.21126" lon="5.4946">
        <ele>107.8</ele>
        <time>2025-10-19T09:19:51Z</time>
      </trkpt>
      <trkpt lat="43.21126" lon="5.49459">
        <ele>107.9</ele>
        <time>2025-10-19T09:19:52Z</time>
      </trkpt>
      <trkpt lat="43.21126" lon="5.49458">
        <ele>108</ele>
        <time>2025-10-19T09:19:53Z</time>
      </trkpt>
      <trkpt lat="43.21126" lon="5.49457">
        <ele>108.1</ele>
        <time>2025-10-19T09:19:54Z</time>
      </trkpt>
      <trkpt lat="43.21126" lon="5.49456">
        <ele>108.4</ele>
        <time>2025-10-19T09:19:55Z</time>
      </trkpt>
      <trkpt lat="43.21126" lon="5.49454">
        <ele>108.5</ele>
        <time>2025-10-19T09:19:56Z</time>
      </trkpt>
      <trkpt lat="43.21126" lon="5.49453">
        <ele>108.7</ele>
        <time>2025-10-19T09:19:57Z</time>
      </trkpt>
      <trkpt lat="43.21126" lon="5.49452">
        <ele>108.8</ele>
        <time>2025-10-19T09:19:58Z</time>
      </trkpt>
      <trkpt lat="43.21126" lon="5.4945">
        <ele>108.9</ele>
        <time>2025-10-19T09:19:59Z</time>
      </trkpt>
      <trkpt lat="43.21127" lon="5.49449">
        <ele>109</ele>
        <time>2025-10-19T09:20:00Z</time>
      </trkpt>
      <trkpt lat="43.21126" lon="5.49448">
        <ele>109.1</ele>
        <time>2025-10-19T09:20:01Z</time>
      </trkpt>
      <trkpt lat="43.21126" lon="5.49447">
        <ele>109.1</ele>
        <time>2025-10-19T09:20:02Z</time>
      </trkpt>
      <trkpt lat="43.21126" lon="5.49446">
        <ele>109.3</ele>
        <time>2025-10-19T09:20:03Z</time>
      </trkpt>
      <trkpt lat="43.21126" lon="5.49444">
        <ele>109.4</ele>
        <time>2025-10-19T09:20:04Z</time>
      </trkpt>
      <trkpt lat="43.21126" lon="5.49443">
        <ele>109.5</ele>
        <time>2025-10-19T09:20:05Z</time>
      </trkpt>
      <trkpt lat="43.21125" lon="5.49442">
        <ele>109.7</ele>
        <time>2025-10-19T09:20:06Z</time>
      </trkpt>
      <trkpt lat="43.21125" lon="5.4944">
        <ele>109.7</ele>
        <time>2025-10-19T09:20:07Z</time>
      </trkpt>
      <trkpt lat="43.21125" lon="5.49439">
        <ele>109.8</ele>
        <time>2025-10-19T09:20:08Z</time>
      </trkpt>
      <trkpt lat="43.21124" lon="5.49438">
        <ele>109.9</ele>
        <time>2025-10-19T09:20:09Z</time>
      </trkpt>
      <trkpt lat="43.21124" lon="5.49436">
        <ele>109.9</ele>
        <time>2025-10-19T09:20:10Z</time>
      </trkpt>
      <trkpt lat="43.21124" lon="5.49435">
        <ele>110</ele>
        <time>2025-10-19T09:20:11Z</time>
      </trkpt>
      <trkpt lat="43.21124" lon="5.49434">
        <ele>110.1</ele>
        <time>2025-10-19T09:20:12Z</time>
      </trkpt>
      <trkpt lat="43.21124" lon="5.49433">
        <ele>110.2</ele>
        <time>2025-10-19T09:20:13Z</time>
      </trkpt>
      <trkpt lat="43.21124" lon="5.49431">
        <ele>110.3</ele>
        <time>2025-10-19T09:20:14Z</time>
      </trkpt>
      <trkpt lat="43.21124" lon="5.4943">
        <ele>110.4</ele>
        <time>2025-10-19T09:20:15Z</time>
      </trkpt>
      <trkpt lat="43.21124" lon="5.49429">
        <ele>110.5</ele>
        <time>2025-10-19T09:20:16Z</time>
      </trkpt>
      <trkpt lat="43.21124" lon="5.49428">
        <ele>110.5</ele>
        <time>2025-10-19T09:20:17Z</time>
      </trkpt>
      <trkpt lat="43.21124" lon="5.49427">
        <ele>110.6</ele>
        <time>2025-10-19T09:20:18Z</time>
      </trkpt>
      <trkpt lat="43.21124" lon="5.49425">
        <ele>110.7</ele>
        <time>2025-10-19T09:20:19Z</time>
      </trkpt>
      <trkpt lat="43.21124" lon="5.49424">
        <ele>110.8</ele>
        <time>2025-10-19T09:20:20Z</time>
      </trkpt>
      <trkpt lat="43.21123" lon="5.49423">
        <ele>110.8</ele>
        <time>2025-10-19T09:20:21Z</time>
      </trkpt>
      <trkpt lat="43.21123" lon="5.49422">
        <ele>111</ele>
        <time>2025-10-19T09:20:22Z</time>
      </trkpt>
      <trkpt lat="43.21123" lon="5.49421">
        <ele>111.2</ele>
        <time>2025-10-19T09:20:23Z</time>
      </trkpt>
      <trkpt lat="43.21122" lon="5.4942">
        <ele>111.3</ele>
        <time>2025-10-19T09:20:24Z</time>
      </trkpt>
      <trkpt lat="43.21122" lon="5.49419">
        <ele>111.4</ele>
        <time>2025-10-19T09:20:25Z</time>
      </trkpt>
      <trkpt lat="43.21122" lon="5.49418">
        <ele>111.5</ele>
        <time>2025-10-19T09:20:26Z</time>
      </trkpt>
      <trkpt lat="43.21121" lon="5.49417">
        <ele>111.6</ele>
        <time>2025-10-19T09:20:27Z</time>
      </trkpt>
      <trkpt lat="43.21121" lon="5.49416">
        <ele>111.8</ele>
        <time>2025-10-19T09:20:28Z</time>
      </trkpt>
      <trkpt lat="43.21121" lon="5.49415">
        <ele>111.9</ele>
        <time>2025-10-19T09:20:29Z</time>
      </trkpt>
      <trkpt lat="43.21121" lon="5.49414">
        <ele>112</ele>
        <time>2025-10-19T09:20:30Z</time>
      </trkpt>
      <trkpt lat="43.2112" lon="5.49413">
        <ele>111.9</ele>
        <time>2025-10-19T09:20:31Z</time>
      </trkpt>
      <trkpt lat="43.21119" lon="5.49413">
        <ele>112</ele>
        <time>2025-10-19T09:20:32Z</time>
      </trkpt>
      <trkpt lat="43.21119" lon="5.49412">
        <ele>112.1</ele>
        <time>2025-10-19T09:20:33Z</time>
      </trkpt>
      <trkpt lat="43.21118" lon="5.49412">
        <ele>112.3</ele>
        <time>2025-10-19T09:20:34Z</time>
      </trkpt>
      <trkpt lat="43.21117" lon="5.4941">
        <ele>112.5</ele>
        <time>2025-10-19T09:20:35Z</time>
      </trkpt>
      <trkpt lat="43.21117" lon="5.49409">
        <ele>112.6</ele>
        <time>2025-10-19T09:20:36Z</time>
      </trkpt>
      <trkpt lat="43.21116" lon="5.49408">
        <ele>112.8</ele>
        <time>2025-10-19T09:20:37Z</time>
      </trkpt>
      <trkpt lat="43.21115" lon="5.49407">
        <ele>112.9</ele>
        <time>2025-10-19T09:20:38Z</time>
      </trkpt>
      <trkpt lat="43.21114" lon="5.49406">
        <ele>113.1</ele>
        <time>2025-10-19T09:20:39Z</time>
      </trkpt>
      <trkpt lat="43.21114" lon="5.49404">
        <ele>113.3</ele>
        <time>2025-10-19T09:20:40Z</time>
      </trkpt>
      <trkpt lat="43.21113" lon="5.49403">
        <ele>113.4</ele>
        <time>2025-10-19T09:20:41Z</time>
      </trkpt>
      <trkpt lat="43.21112" lon="5.49402">
        <ele>113.6</ele>
        <time>2025-10-19T09:20:42Z</time>
      </trkpt>
      <trkpt lat="43.21112" lon="5.49401">
        <ele>113.8</ele>
        <time>2025-10-19T09:20:43Z</time>
      </trkpt>
      <trkpt lat="43.21111" lon="5.494">
        <ele>114</ele>
        <time>2025-10-19T09:20:44Z</time>
      </trkpt>
      <trkpt lat="43.21111" lon="5.49399">
        <ele>114.2</ele>
        <time>2025-10-19T09:20:45Z</time>
      </trkpt>
      <trkpt lat="43.21111" lon="5.49399">
        <ele>114.4</ele>
        <time>2025-10-19T09:20:46Z</time>
      </trkpt>
      <trkpt lat="43.21111" lon="5.49397">
        <ele>114.5</ele>
        <time>2025-10-19T09:20:47Z</time>
      </trkpt>
      <trkpt lat="43.2111" lon="5.49396">
        <ele>114.6</ele>
        <time>2025-10-19T09:20:48Z</time>
      </trkpt>
      <trkpt lat="43.2111" lon="5.49395">
        <ele>114.7</ele>
        <time>2025-10-19T09:20:49Z</time>
      </trkpt>
      <trkpt lat="43.2111" lon="5.49394">
        <ele>114.8</ele>
        <time>2025-10-19T09:20:50Z</time>
      </trkpt>
      <trkpt lat="43.21109" lon="5.49393">
        <ele>114.9</ele>
        <time>2025-10-19T09:20:51Z</time>
      </trkpt>
      <trkpt lat="43.21109" lon="5.49391">
        <ele>115</ele>
        <time>2025-10-19T09:20:52Z</time>
      </trkpt>
      <trkpt lat="43.21109" lon="5.4939">
        <ele>115.1</ele>
        <time>2025-10-19T09:20:53Z</time>
      </trkpt>
      <trkpt lat="43.21108" lon="5.49389">
        <ele>115.3</ele>
        <time>2025-10-19T09:20:54Z</time>
      </trkpt>
      <trkpt lat="43.21108" lon="5.49388">
        <ele>115.4</ele>
        <time>2025-10-19T09:20:55Z</time>
      </trkpt>
      <trkpt lat="43.21108" lon="5.49387">
        <ele>115.6</ele>
        <time>2025-10-19T09:20:56Z</time>
      </trkpt>
      <trkpt lat="43.21107" lon="5.49386">
        <ele>115.6</ele>
        <time>2025-10-19T09:20:57Z</time>
      </trkpt>
      <trkpt lat="43.21107" lon="5.49385">
        <ele>115.7</ele>
        <time>2025-10-19T09:20:58Z</time>
      </trkpt>
      <trkpt lat="43.21107" lon="5.49384">
        <ele>115.8</ele>
        <time>2025-10-19T09:20:59Z</time>
      </trkpt>
      <trkpt lat="43.21106" lon="5.49383">
        <ele>115.9</ele>
        <time>2025-10-19T09:21:00Z</time>
      </trkpt>
      <trkpt lat="43.21106" lon="5.49382">
        <ele>116</ele>
        <time>2025-10-19T09:21:01Z</time>
      </trkpt>
      <trkpt lat="43.21106" lon="5.49381">
        <ele>116.2</ele>
        <time>2025-10-19T09:21:02Z</time>
      </trkpt>
      <trkpt lat="43.21105" lon="5.49379">
        <ele>116.3</ele>
        <time>2025-10-19T09:21:03Z</time>
      </trkpt>
      <trkpt lat="43.21105" lon="5.49378">
        <ele>116.4</ele>
        <time>2025-10-19T09:21:04Z</time>
      </trkpt>
      <trkpt lat="43.21104" lon="5.49377">
        <ele>116.5</ele>
        <time>2025-10-19T09:21:05Z</time>
      </trkpt>
      <trkpt lat="43.21103" lon="5.49375">
        <ele>116.7</ele>
        <time>2025-10-19T09:21:06Z</time>
      </trkpt>
      <trkpt lat="43.21103" lon="5.49374">
        <ele>116.8</ele>
        <time>2025-10-19T09:21:07Z</time>
      </trkpt>
      <trkpt lat="43.21102" lon="5.49373">
        <ele>116.9</ele>
        <time>2025-10-19T09:21:08Z</time>
      </trkpt>
      <trkpt lat="43.21101" lon="5.49372">
        <ele>117</ele>
        <time>2025-10-19T09:21:09Z</time>
      </trkpt>
      <trkpt lat="43.21101" lon="5.49371">
        <ele>117.1</ele>
        <time>2025-10-19T09:21:10Z</time>
      </trkpt>
      <trkpt lat="43.211" lon="5.4937">
        <ele>117.2</ele>
        <time>2025-10-19T09:21:11Z</time>
      </trkpt>
      <trkpt lat="43.211" lon="5.49369">
        <ele>117.3</ele>
        <time>2025-10-19T09:21:12Z</time>
      </trkpt>
      <trkpt lat="43.211" lon="5.49368">
        <ele>117.4</ele>
        <time>2025-10-19T09:21:13Z</time>
      </trkpt>
      <trkpt lat="43.21099" lon="5.49367">
        <ele>117.5</ele>
        <time>2025-10-19T09:21:14Z</time>
      </trkpt>
      <trkpt lat="43.21099" lon="5.49366">
        <ele>117.5</ele>
        <time>2025-10-19T09:21:15Z</time>
      </trkpt>
      <trkpt lat="43.21099" lon="5.49365">
        <ele>117.6</ele>
        <time>2025-10-19T09:21:16Z</time>
      </trkpt>
      <trkpt lat="43.21099" lon="5.49364">
        <ele>117.7</ele>
        <time>2025-10-19T09:21:17Z</time>
      </trkpt>
      <trkpt lat="43.21098" lon="5.49363">
        <ele>117.9</ele>
        <time>2025-10-19T09:21:18Z</time>
      </trkpt>
      <trkpt lat="43.21098" lon="5.49361">
        <ele>118</ele>
        <time>2025-10-19T09:21:19Z</time>
      </trkpt>
      <trkpt lat="43.21098" lon="5.49361">
        <ele>118.1</ele>
        <time>2025-10-19T09:21:20Z</time>
      </trkpt>
      <trkpt lat="43.21098" lon="5.4936">
        <ele>118.2</ele>
        <time>2025-10-19T09:21:21Z</time>
      </trkpt>
      <trkpt lat="43.21097" lon="5.49359">
        <ele>118.4</ele>
        <time>2025-10-19T09:21:22Z</time>
      </trkpt>
      <trkpt lat="43.21097" lon="5.49357">
        <ele>118.5</ele>
        <time>2025-10-19T09:21:23Z</time>
      </trkpt>
      <trkpt lat="43.21097" lon="5.49356">
        <ele>118.6</ele>
        <time>2025-10-19T09:21:24Z</time>
      </trkpt>
      <trkpt lat="43.21097" lon="5.49355">
        <ele>118.8</ele>
        <time>2025-10-19T09:21:25Z</time>
      </trkpt>
      <trkpt lat="43.21097" lon="5.49354">
        <ele>119</ele>
        <time>2025-10-19T09:21:26Z</time>
      </trkpt>
      <trkpt lat="43.21096" lon="5.49353">
        <ele>119.1</ele>
        <time>2025-10-19T09:21:27Z</time>
      </trkpt>
      <trkpt lat="43.21096" lon="5.49352">
        <ele>119.3</ele>
        <time>2025-10-19T09:21:28Z</time>
      </trkpt>
      <trkpt lat="43.21096" lon="5.4935">
        <ele>119.5</ele>
        <time>2025-10-19T09:21:29Z</time>
      </trkpt>
      <trkpt lat="43.21095" lon="5.4935">
        <ele>119.6</ele>
        <time>2025-10-19T09:21:30Z</time>
      </trkpt>
      <trkpt lat="43.21095" lon="5.49349">
        <ele>119.9</ele>
        <time>2025-10-19T09:21:31Z</time>
      </trkpt>
      <trkpt lat="43.21095" lon="5.49348">
        <ele>120.1</ele>
        <time>2025-10-19T09:21:32Z</time>
      </trkpt>
      <trkpt lat="43.21094" lon="5.49348">
        <ele>120.2</ele>
        <time>2025-10-19T09:21:33Z</time>
      </trkpt>
      <trkpt lat="43.21094" lon="5.49347">
        <ele>120.3</ele>
        <time>2025-10-19T09:21:34Z</time>
      </trkpt>
      <trkpt lat="43.21094" lon="5.49346">
        <ele>120.5</ele>
        <time>2025-10-19T09:21:35Z</time>
      </trkpt>
      <trkpt lat="43.21094" lon="5.49345">
        <ele>120.7</ele>
        <time>2025-10-19T09:21:36Z</time>
      </trkpt>
      <trkpt lat="43.21093" lon="5.49344">
        <ele>120.8</ele>
        <time>2025-10-19T09:21:37Z</time>
      </trkpt>
      <trkpt lat="43.21093" lon="5.49343">
        <ele>120.9</ele>
        <time>2025-10-19T09:21:38Z</time>
      </trkpt>
      <trkpt lat="43.21093" lon="5.49342">
        <ele>121</ele>
        <time>2025-10-19T09:21:39Z</time>
      </trkpt>
      <trkpt lat="43.21092" lon="5.49341">
        <ele>121.2</ele>
        <time>2025-10-19T09:21:40Z</time>
      </trkpt>
      <trkpt lat="43.21092" lon="5.4934">
        <ele>121.4</ele>
        <time>2025-10-19T09:21:41Z</time>
      </trkpt>
      <trkpt lat="43.21092" lon="5.49339">
        <ele>121.6</ele>
        <time>2025-10-19T09:21:42Z</time>
      </trkpt>
      <trkpt lat="43.21091" lon="5.49338">
        <ele>121.8</ele>
        <time>2025-10-19T09:21:43Z</time>
      </trkpt>
      <trkpt lat="43.2109" lon="5.49337">
        <ele>121.9</ele>
        <time>2025-10-19T09:21:44Z</time>
      </trkpt>
      <trkpt lat="43.21088" lon="5.49336">
        <ele>122.1</ele>
        <time>2025-10-19T09:21:45Z</time>
      </trkpt>
      <trkpt lat="43.21088" lon="5.49335">
        <ele>122.2</ele>
        <time>2025-10-19T09:21:46Z</time>
      </trkpt>
      <trkpt lat="43.21088" lon="5.49335">
        <ele>122.4</ele>
        <time>2025-10-19T09:21:47Z</time>
      </trkpt>
      <trkpt lat="43.21088" lon="5.49333">
        <ele>122.5</ele>
        <time>2025-10-19T09:21:48Z</time>
      </trkpt>
      <trkpt lat="43.21088" lon="5.49332">
        <ele>122.6</ele>
        <time>2025-10-19T09:21:49Z</time>
      </trkpt>
      <trkpt lat="43.21088" lon="5.49332">
        <ele>122.7</ele>
        <time>2025-10-19T09:21:50Z</time>
      </trkpt>
      <trkpt lat="43.21088" lon="5.4933">
        <ele>122.9</ele>
        <time>2025-10-19T09:21:51Z</time>
      </trkpt>
      <trkpt lat="43.21088" lon="5.49328">
        <ele>123.1</ele>
        <time>2025-10-19T09:21:52Z</time>
      </trkpt>
      <trkpt lat="43.21088" lon="5.49327">
        <ele>123.2</ele>
        <time>2025-10-19T09:21:53Z</time>
      </trkpt>
      <trkpt lat="43.21088" lon="5.49325">
        <ele>123.5</ele>
        <time>2025-10-19T09:21:54Z</time>
      </trkpt>
      <trkpt lat="43.21088" lon="5.49324">
        <ele>123.7</ele>
        <time>2025-10-19T09:21:55Z</time>
      </trkpt>
      <trkpt lat="43.21088" lon="5.49322">
        <ele>123.9</ele>
        <time>2025-10-19T09:21:56Z</time>
      </trkpt>
      <trkpt lat="43.21088" lon="5.49321">
        <ele>124.1</ele>
        <time>2025-10-19T09:21:57Z</time>
      </trkpt>
      <trkpt lat="43.21087" lon="5.4932">
        <ele>124.2</ele>
        <time>2025-10-19T09:21:58Z</time>
      </trkpt>
      <trkpt lat="43.21088" lon="5.49318">
        <ele>124.3</ele>
        <time>2025-10-19T09:21:59Z</time>
      </trkpt>
      <trkpt lat="43.21088" lon="5.49317">
        <ele>124.4</ele>
        <time>2025-10-19T09:22:00Z</time>
      </trkpt>
      <trkpt lat="43.21088" lon="5.49315">
        <ele>124.5</ele>
        <time>2025-10-19T09:22:01Z</time>
      </trkpt>
      <trkpt lat="43.21087" lon="5.49314">
        <ele>124.6</ele>
        <time>2025-10-19T09:22:02Z</time>
      </trkpt>
      <trkpt lat="43.21087" lon="5.49313">
        <ele>124.7</ele>
        <time>2025-10-19T09:22:03Z</time>
      </trkpt>
      <trkpt lat="43.21087" lon="5.49311">
        <ele>124.7</ele>
        <time>2025-10-19T09:22:04Z</time>
      </trkpt>
      <trkpt lat="43.21086" lon="5.4931">
        <ele>124.8</ele>
        <time>2025-10-19T09:22:05Z</time>
      </trkpt>
      <trkpt lat="43.21086" lon="5.49309">
        <ele>125</ele>
        <time>2025-10-19T09:22:06Z</time>
      </trkpt>
      <trkpt lat="43.21086" lon="5.49308">
        <ele>125.1</ele>
        <time>2025-10-19T09:22:07Z</time>
      </trkpt>
      <trkpt lat="43.21086" lon="5.49307">
        <ele>125.2</ele>
        <time>2025-10-19T09:22:08Z</time>
      </trkpt>
      <trkpt lat="43.21086" lon="5.49305">
        <ele>125.3</ele>
        <time>2025-10-19T09:22:09Z</time>
      </trkpt>
      <trkpt lat="43.21086" lon="5.49303">
        <ele>125.4</ele>
        <time>2025-10-19T09:22:10Z</time>
      </trkpt>
      <trkpt lat="43.21085" lon="5.49302">
        <ele>125.6</ele>
        <time>2025-10-19T09:22:11Z</time>
      </trkpt>
      <trkpt lat="43.21085" lon="5.493">
        <ele>125.6</ele>
        <time>2025-10-19T09:22:12Z</time>
      </trkpt>
      <trkpt lat="43.21084" lon="5.493">
        <ele>125.8</ele>
        <time>2025-10-19T09:22:13Z</time>
      </trkpt>
      <trkpt lat="43.21084" lon="5.49298">
        <ele>125.9</ele>
        <time>2025-10-19T09:22:14Z</time>
      </trkpt>
      <trkpt lat="43.21085" lon="5.49297">
        <ele>126.1</ele>
        <time>2025-10-19T09:22:15Z</time>
      </trkpt>
      <trkpt lat="43.21085" lon="5.49296">
        <ele>126.3</ele>
        <time>2025-10-19T09:22:16Z</time>
      </trkpt>
      <trkpt lat="43.21085" lon="5.49295">
        <ele>126.4</ele>
        <time>2025-10-19T09:22:17Z</time>
      </trkpt>
      <trkpt lat="43.21085" lon="5.49293">
        <ele>126.6</ele>
        <time>2025-10-19T09:22:18Z</time>
      </trkpt>
      <trkpt lat="43.21085" lon="5.49292">
        <ele>126.8</ele>
        <time>2025-10-19T09:22:19Z</time>
      </trkpt>
      <trkpt lat="43.21085" lon="5.49291">
        <ele>126.9</ele>
        <time>2025-10-19T09:22:20Z</time>
      </trkpt>
      <trkpt lat="43.21085" lon="5.4929">
        <ele>127.1</ele>
        <time>2025-10-19T09:22:21Z</time>
      </trkpt>
      <trkpt lat="43.21084" lon="5.49288">
        <ele>127.2</ele>
        <time>2025-10-19T09:22:22Z</time>
      </trkpt>
      <trkpt lat="43.21084" lon="5.49288">
        <ele>127.3</ele>
        <time>2025-10-19T09:22:23Z</time>
      </trkpt>
      <trkpt lat="43.21083" lon="5.49287">
        <ele>127.5</ele>
        <time>2025-10-19T09:22:24Z</time>
      </trkpt>
      <trkpt lat="43.21082" lon="5.49286">
        <ele>127.7</ele>
        <time>2025-10-19T09:22:25Z</time>
      </trkpt>
      <trkpt lat="43.21082" lon="5.49285">
        <ele>127.9</ele>
        <time>2025-10-19T09:22:26Z</time>
      </trkpt>
      <trkpt lat="43.21081" lon="5.49284">
        <ele>128.2</ele>
        <time>2025-10-19T09:22:27Z</time>
      </trkpt>
      <trkpt lat="43.21081" lon="5.49282">
        <ele>128.3</ele>
        <time>2025-10-19T09:22:28Z</time>
      </trkpt>
      <trkpt lat="43.21081" lon="5.49281">
        <ele>128.4</ele>
        <time>2025-10-19T09:22:29Z</time>
      </trkpt>
      <trkpt lat="43.2108" lon="5.4928">
        <ele>128.6</ele>
        <time>2025-10-19T09:22:30Z</time>
      </trkpt>
      <trkpt lat="43.21079" lon="5.49279">
        <ele>128.8</ele>
        <time>2025-10-19T09:22:31Z</time>
      </trkpt>
      <trkpt lat="43.2108" lon="5.49278">
        <ele>129</ele>
        <time>2025-10-19T09:22:32Z</time>
      </trkpt>
      <trkpt lat="43.2108" lon="5.49276">
        <ele>129.2</ele>
        <time>2025-10-19T09:22:33Z</time>
      </trkpt>
      <trkpt lat="43.2108" lon="5.49275">
        <ele>129.4</ele>
        <time>2025-10-19T09:22:34Z</time>
      </trkpt>
      <trkpt lat="43.21079" lon="5.49273">
        <ele>129.6</ele>
        <time>2025-10-19T09:22:35Z</time>
      </trkpt>
      <trkpt lat="43.21079" lon="5.49273">
        <ele>129.7</ele>
        <time>2025-10-19T09:22:36Z</time>
      </trkpt>
      <trkpt lat="43.21079" lon="5.49272">
        <ele>129.9</ele>
        <time>2025-10-19T09:22:37Z</time>
      </trkpt>
      <trkpt lat="43.21077" lon="5.49271">
        <ele>130.1</ele>
        <time>2025-10-19T09:22:38Z</time>
      </trkpt>
      <trkpt lat="43.21077" lon="5.4927">
        <ele>130.2</ele>
        <time>2025-10-19T09:22:39Z</time>
      </trkpt>
      <trkpt lat="43.21077" lon="5.49268">
        <ele>130.2</ele>
        <time>2025-10-19T09:22:40Z</time>
      </trkpt>
      <trkpt lat="43.21077" lon="5.49267">
        <ele>130.3</ele>
        <time>2025-10-19T09:22:41Z</time>
      </trkpt>
      <trkpt lat="43.21076" lon="5.49266">
        <ele>130.5</ele>
        <time>2025-10-19T09:22:42Z</time>
      </trkpt>
      <trkpt lat="43.21076" lon="5.49265">
        <ele>130.7</ele>
        <time>2025-10-19T09:22:43Z</time>
      </trkpt>
      <trkpt lat="43.21075" lon="5.49264">
        <ele>130.8</ele>
        <time>2025-10-19T09:22:44Z</time>
      </trkpt>
      <trkpt lat="43.21076" lon="5.49263">
        <ele>130.8</ele>
        <time>2025-10-19T09:22:45Z</time>
      </trkpt>
      <trkpt lat="43.21075" lon="5.49262">
        <ele>130.9</ele>
        <time>2025-10-19T09:22:46Z</time>
      </trkpt>
      <trkpt lat="43.21075" lon="5.49261">
        <ele>131</ele>
        <time>2025-10-19T09:22:47Z</time>
      </trkpt>
      <trkpt lat="43.21075" lon="5.49259">
        <ele>131.1</ele>
        <time>2025-10-19T09:22:48Z</time>
      </trkpt>
      <trkpt lat="43.21075" lon="5.49258">
        <ele>131.2</ele>
        <time>2025-10-19T09:22:49Z</time>
      </trkpt>
      <trkpt lat="43.21074" lon="5.49257">
        <ele>131.4</ele>
        <time>2025-10-19T09:22:50Z</time>
      </trkpt>
      <trkpt lat="43.21074" lon="5.49256">
        <ele>131.5</ele>
        <time>2025-10-19T09:22:51Z</time>
      </trkpt>
      <trkpt lat="43.21074" lon="5.49256">
        <ele>131.7</ele>
        <time>2025-10-19T09:22:52Z</time>
      </trkpt>
      <trkpt lat="43.21073" lon="5.49255">
        <ele>131.9</ele>
        <time>2025-10-19T09:22:53Z</time>
      </trkpt>
      <trkpt lat="43.21073" lon="5.49253">
        <ele>132</ele>
        <time>2025-10-19T09:22:54Z</time>
      </trkpt>
      <trkpt lat="43.21073" lon="5.49252">
        <ele>132.2</ele>
        <time>2025-10-19T09:22:55Z</time>
      </trkpt>
      <trkpt lat="43.21073" lon="5.49251">
        <ele>132.3</ele>
        <time>2025-10-19T09:22:56Z</time>
      </trkpt>
      <trkpt lat="43.21072" lon="5.49249">
        <ele>132.4</ele>
        <time>2025-10-19T09:22:57Z</time>
      </trkpt>
      <trkpt lat="43.21072" lon="5.49248">
        <ele>132.5</ele>
        <time>2025-10-19T09:22:58Z</time>
      </trkpt>
      <trkpt lat="43.21072" lon="5.49247">
        <ele>132.6</ele>
        <time>2025-10-19T09:22:59Z</time>
      </trkpt>
      <trkpt lat="43.21072" lon="5.49245">
        <ele>132.7</ele>
        <time>2025-10-19T09:23:00Z</time>
      </trkpt>
      <trkpt lat="43.21072" lon="5.49244">
        <ele>132.8</ele>
        <time>2025-10-19T09:23:01Z</time>
      </trkpt>
      <trkpt lat="43.21073" lon="5.49243">
        <ele>132.9</ele>
        <time>2025-10-19T09:23:02Z</time>
      </trkpt>
      <trkpt lat="43.21073" lon="5.49243">
        <ele>133</ele>
        <time>2025-10-19T09:23:03Z</time>
      </trkpt>
      <trkpt lat="43.21072" lon="5.49242">
        <ele>133.2</ele>
        <time>2025-10-19T09:23:04Z</time>
      </trkpt>
      <trkpt lat="43.21072" lon="5.49241">
        <ele>133.4</ele>
        <time>2025-10-19T09:23:05Z</time>
      </trkpt>
      <trkpt lat="43.21072" lon="5.49239">
        <ele>133.6</ele>
        <time>2025-10-19T09:23:06Z</time>
      </trkpt>
      <trkpt lat="43.21072" lon="5.49238">
        <ele>133.7</ele>
        <time>2025-10-19T09:23:07Z</time>
      </trkpt>
      <trkpt lat="43.21073" lon="5.49236">
        <ele>134</ele>
        <time>2025-10-19T09:23:08Z</time>
      </trkpt>
      <trkpt lat="43.21073" lon="5.49235">
        <ele>134.2</ele>
        <time>2025-10-19T09:23:09Z</time>
      </trkpt>
      <trkpt lat="43.21073" lon="5.49233">
        <ele>134.4</ele>
        <time>2025-10-19T09:23:10Z</time>
      </trkpt>
      <trkpt lat="43.21072" lon="5.49233">
        <ele>134.6</ele>
        <time>2025-10-19T09:23:11Z</time>
      </trkpt>
      <trkpt lat="43.21073" lon="5.49232">
        <ele>134.7</ele>
        <time>2025-10-19T09:23:12Z</time>
      </trkpt>
      <trkpt lat="43.21074" lon="5.4923">
        <ele>134.9</ele>
        <time>2025-10-19T09:23:13Z</time>
      </trkpt>
      <trkpt lat="43.21074" lon="5.4923">
        <ele>135</ele>
        <time>2025-10-19T09:23:14Z</time>
      </trkpt>
      <trkpt lat="43.21073" lon="5.49228">
        <ele>135.1</ele>
        <time>2025-10-19T09:23:15Z</time>
      </trkpt>
      <trkpt lat="43.21073" lon="5.49227">
        <ele>135.3</ele>
        <time>2025-10-19T09:23:16Z</time>
      </trkpt>
      <trkpt lat="43.21073" lon="5.49227">
        <ele>135.4</ele>
        <time>2025-10-19T09:23:17Z</time>
      </trkpt>
      <trkpt lat="43.21073" lon="5.49225">
        <ele>135.5</ele>
        <time>2025-10-19T09:23:18Z</time>
      </trkpt>
      <trkpt lat="43.21073" lon="5.49224">
        <ele>135.6</ele>
        <time>2025-10-19T09:23:19Z</time>
      </trkpt>
      <trkpt lat="43.21073" lon="5.49223">
        <ele>135.8</ele>
        <time>2025-10-19T09:23:20Z</time>
      </trkpt>
      <trkpt lat="43.21073" lon="5.49223">
        <ele>136</ele>
        <time>2025-10-19T09:23:21Z</time>
      </trkpt>
      <trkpt lat="43.21073" lon="5.49222">
        <ele>136.2</ele>
        <time>2025-10-19T09:23:22Z</time>
      </trkpt>
      <trkpt lat="43.21073" lon="5.49221">
        <ele>136.3</ele>
        <time>2025-10-19T09:23:23Z</time>
      </trkpt>
      <trkpt lat="43.21073" lon="5.4922">
        <ele>136.4</ele>
        <time>2025-10-19T09:23:24Z</time>
      </trkpt>
      <trkpt lat="43.21073" lon="5.49219">
        <ele>136.5</ele>
        <time>2025-10-19T09:23:25Z</time>
      </trkpt>
      <trkpt lat="43.21073" lon="5.49219">
        <ele>136.6</ele>
        <time>2025-10-19T09:23:26Z</time>
      </trkpt>
      <trkpt lat="43.21074" lon="5.49218">
        <ele>136.8</ele>
        <time>2025-10-19T09:23:27Z</time>
      </trkpt>
      <trkpt lat="43.21074" lon="5.49217">
        <ele>137</ele>
        <time>2025-10-19T09:23:28Z</time>
      </trkpt>
      <trkpt lat="43.21074" lon="5.49216">
        <ele>137.2</ele>
        <time>2025-10-19T09:23:29Z</time>
      </trkpt>
      <trkpt lat="43.21074" lon="5.49214">
        <ele>137.3</ele>
        <time>2025-10-19T09:23:30Z</time>
      </trkpt>
      <trkpt lat="43.21074" lon="5.49213">
        <ele>137.5</ele>
        <time>2025-10-19T09:23:31Z</time>
      </trkpt>
      <trkpt lat="43.21074" lon="5.49212">
        <ele>137.7</ele>
        <time>2025-10-19T09:23:32Z</time>
      </trkpt>
      <trkpt lat="43.21074" lon="5.49211">
        <ele>137.9</ele>
        <time>2025-10-19T09:23:33Z</time>
      </trkpt>
      <trkpt lat="43.21075" lon="5.49211">
        <ele>138</ele>
        <time>2025-10-19T09:23:34Z</time>
      </trkpt>
      <trkpt lat="43.21075" lon="5.49209">
        <ele>138.2</ele>
        <time>2025-10-19T09:23:35Z</time>
      </trkpt>
      <trkpt lat="43.21075" lon="5.49208">
        <ele>138.4</ele>
        <time>2025-10-19T09:23:36Z</time>
      </trkpt>
      <trkpt lat="43.21076" lon="5.49208">
        <ele>138.6</ele>
        <time>2025-10-19T09:23:37Z</time>
      </trkpt>
      <trkpt lat="43.21076" lon="5.49207">
        <ele>138.8</ele>
        <time>2025-10-19T09:23:38Z</time>
      </trkpt>
      <trkpt lat="43.21077" lon="5.49206">
        <ele>138.9</ele>
        <time>2025-10-19T09:23:39Z</time>
      </trkpt>
      <trkpt lat="43.21077" lon="5.49205">
        <ele>139</ele>
        <time>2025-10-19T09:23:40Z</time>
      </trkpt>
      <trkpt lat="43.21077" lon="5.49205">
        <ele>139.2</ele>
        <time>2025-10-19T09:23:41Z</time>
      </trkpt>
      <trkpt lat="43.21077" lon="5.49204">
        <ele>139.2</ele>
        <time>2025-10-19T09:23:42Z</time>
      </trkpt>
      <trkpt lat="43.21078" lon="5.49203">
        <ele>139.3</ele>
        <time>2025-10-19T09:23:43Z</time>
      </trkpt>
      <trkpt lat="43.21078" lon="5.49203">
        <ele>139.5</ele>
        <time>2025-10-19T09:23:44Z</time>
      </trkpt>
      <trkpt lat="43.21078" lon="5.49202">
        <ele>139.6</ele>
        <time>2025-10-19T09:23:45Z</time>
      </trkpt>
      <trkpt lat="43.21078" lon="5.49201">
        <ele>139.8</ele>
        <time>2025-10-19T09:23:46Z</time>
      </trkpt>
      <trkpt lat="43.21079" lon="5.492">
        <ele>139.9</ele>
        <time>2025-10-19T09:23:47Z</time>
      </trkpt>
      <trkpt lat="43.21079" lon="5.492">
        <ele>140</ele>
        <time>2025-10-19T09:23:48Z</time>
      </trkpt>
      <trkpt lat="43.2108" lon="5.49199">
        <ele>140.1</ele>
        <time>2025-10-19T09:23:49Z</time>
      </trkpt>
      <trkpt lat="43.2108" lon="5.49198">
        <ele>140.1</ele>
        <time>2025-10-19T09:23:50Z</time>
      </trkpt>
      <trkpt lat="43.21081" lon="5.49197">
        <ele>140.3</ele>
        <time>2025-10-19T09:23:51Z</time>
      </trkpt>
      <trkpt lat="43.21082" lon="5.49196">
        <ele>140.4</ele>
        <time>2025-10-19T09:23:52Z</time>
      </trkpt>
      <trkpt lat="43.21083" lon="5.49196">
        <ele>140.5</ele>
        <time>2025-10-19T09:23:53Z</time>
      </trkpt>
      <trkpt lat="43.21083" lon="5.49195">
        <ele>140.7</ele>
        <time>2025-10-19T09:23:54Z</time>
      </trkpt>
      <trkpt lat="43.21084" lon="5.49193">
        <ele>140.9</ele>
        <time>2025-10-19T09:23:55Z</time>
      </trkpt>
      <trkpt lat="43.21084" lon="5.49192">
        <ele>141.1</ele>
        <time>2025-10-19T09:23:56Z</time>
      </trkpt>
      <trkpt lat="43.21085" lon="5.4919">
        <ele>141.2</ele>
        <time>2025-10-19T09:23:57Z</time>
      </trkpt>
      <trkpt lat="43.21086" lon="5.4919">
        <ele>141.3</ele>
        <time>2025-10-19T09:23:58Z</time>
      </trkpt>
      <trkpt lat="43.21087" lon="5.49189">
        <ele>141.4</ele>
        <time>2025-10-19T09:23:59Z</time>
      </trkpt>
      <trkpt lat="43.21088" lon="5.49187">
        <ele>141.6</ele>
        <time>2025-10-19T09:24:00Z</time>
      </trkpt>
      <trkpt lat="43.21088" lon="5.49187">
        <ele>141.7</ele>
        <time>2025-10-19T09:24:01Z</time>
      </trkpt>
      <trkpt lat="43.21089" lon="5.49186">
        <ele>141.9</ele>
        <time>2025-10-19T09:24:02Z</time>
      </trkpt>
      <trkpt lat="43.21089" lon="5.49186">
        <ele>142</ele>
        <time>2025-10-19T09:24:03Z</time>
      </trkpt>
      <trkpt lat="43.2109" lon="5.49185">
        <ele>142.2</ele>
        <time>2025-10-19T09:24:04Z</time>
      </trkpt>
      <trkpt lat="43.2109" lon="5.49185">
        <ele>142.4</ele>
        <time>2025-10-19T09:24:05Z</time>
      </trkpt>
      <trkpt lat="43.21091" lon="5.49184">
        <ele>142.5</ele>
        <time>2025-10-19T09:24:06Z</time>
      </trkpt>
      <trkpt lat="43.21092" lon="5.49184">
        <ele>142.7</ele>
        <time>2025-10-19T09:24:07Z</time>
      </trkpt>
      <trkpt lat="43.21092" lon="5.49184">
        <ele>142.9</ele>
        <time>2025-10-19T09:24:08Z</time>
      </trkpt>
      <trkpt lat="43.21093" lon="5.49183">
        <ele>143.1</ele>
        <time>2025-10-19T09:24:09Z</time>
      </trkpt>
      <trkpt lat="43.21093" lon="5.49182">
        <ele>143.2</ele>
        <time>2025-10-19T09:24:10Z</time>
      </trkpt>
      <trkpt lat="43.21094" lon="5.49181">
        <ele>143.4</ele>
        <time>2025-10-19T09:24:11Z</time>
      </trkpt>
      <trkpt lat="43.21095" lon="5.4918">
        <ele>143.5</ele>
        <time>2025-10-19T09:24:12Z</time>
      </trkpt>
      <trkpt lat="43.21095" lon="5.49179">
        <ele>143.6</ele>
        <time>2025-10-19T09:24:13Z</time>
      </trkpt>
      <trkpt lat="43.21096" lon="5.49179">
        <ele>143.7</ele>
        <time>2025-10-19T09:24:14Z</time>
      </trkpt>
      <trkpt lat="43.21097" lon="5.49178">
        <ele>143.8</ele>
        <time>2025-10-19T09:24:15Z</time>
      </trkpt>
      <trkpt lat="43.21097" lon="5.49177">
        <ele>143.9</ele>
        <time>2025-10-19T09:24:16Z</time>
      </trkpt>
      <trkpt lat="43.21097" lon="5.49177">
        <ele>144</ele>
        <time>2025-10-19T09:24:17Z</time>
      </trkpt>
      <trkpt lat="43.21098" lon="5.49175">
        <ele>144.1</ele>
        <time>2025-10-19T09:24:18Z</time>
      </trkpt>
      <trkpt lat="43.21099" lon="5.49175">
        <ele>144.1</ele>
        <time>2025-10-19T09:24:19Z</time>
      </trkpt>
      <trkpt lat="43.21099" lon="5.49174">
        <ele>144.2</ele>
        <time>2025-10-19T09:24:20Z</time>
      </trkpt>
      <trkpt lat="43.211" lon="5.49174">
        <ele>144.3</ele>
        <time>2025-10-19T09:24:21Z</time>
      </trkpt>
      <trkpt lat="43.211" lon="5.49173">
        <ele>144.5</ele>
        <time>2025-10-19T09:24:22Z</time>
      </trkpt>
      <trkpt lat="43.211" lon="5.49173">
        <ele>144.6</ele>
        <time>2025-10-19T09:24:23Z</time>
      </trkpt>
      <trkpt lat="43.211" lon="5.49173">
        <ele>144.6</ele>
        <time>2025-10-19T09:24:24Z</time>
      </trkpt>
      <trkpt lat="43.21101" lon="5.49173">
        <ele>144.6</ele>
        <time>2025-10-19T09:24:25Z</time>
      </trkpt>
      <trkpt lat="43.21101" lon="5.49172">
        <ele>144.6</ele>
        <time>2025-10-19T09:24:26Z</time>
      </trkpt>
      <trkpt lat="43.21102" lon="5.49172">
        <ele>144.7</ele>
        <time>2025-10-19T09:24:27Z</time>
      </trkpt>
      <trkpt lat="43.21103" lon="5.49171">
        <ele>144.8</ele>
        <time>2025-10-19T09:24:28Z</time>
      </trkpt>
      <trkpt lat="43.21103" lon="5.4917">
        <ele>145</ele>
        <time>2025-10-19T09:24:29Z</time>
      </trkpt>
      <trkpt lat="43.21103" lon="5.49168">
        <ele>145</ele>
        <time>2025-10-19T09:24:30Z</time>
      </trkpt>
      <trkpt lat="43.21104" lon="5.49167">
        <ele>145.2</ele>
        <time>2025-10-19T09:24:31Z</time>
      </trkpt>
      <trkpt lat="43.21105" lon="5.49166">
        <ele>145.4</ele>
        <time>2025-10-19T09:24:32Z</time>
      </trkpt>
      <trkpt lat="43.21106" lon="5.49165">
        <ele>145.6</ele>
        <time>2025-10-19T09:24:33Z</time>
      </trkpt>
      <trkpt lat="43.21106" lon="5.49164">
        <ele>145.8</ele>
        <time>2025-10-19T09:24:34Z</time>
      </trkpt>
      <trkpt lat="43.21107" lon="5.49164">
        <ele>145.9</ele>
        <time>2025-10-19T09:24:35Z</time>
      </trkpt>
      <trkpt lat="43.21108" lon="5.49163">
        <ele>146</ele>
        <time>2025-10-19T09:24:36Z</time>
      </trkpt>
      <trkpt lat="43.2111" lon="5.49161">
        <ele>146.2</ele>
        <time>2025-10-19T09:24:37Z</time>
      </trkpt>
      <trkpt lat="43.21111" lon="5.4916">
        <ele>146.4</ele>
        <time>2025-10-19T09:24:38Z</time>
      </trkpt>
      <trkpt lat="43.21113" lon="5.49158">
        <ele>146.5</ele>
        <time>2025-10-19T09:24:39Z</time>
      </trkpt>
      <trkpt lat="43.21113" lon="5.49157">
        <ele>146.6</ele>
        <time>2025-10-19T09:24:40Z</time>
      </trkpt>
      <trkpt lat="43.21114" lon="5.49156">
        <ele>146.9</ele>
        <time>2025-10-19T09:24:41Z</time>
      </trkpt>
      <trkpt lat="43.21115" lon="5.49154">
        <ele>147</ele>
        <time>2025-10-19T09:24:42Z</time>
      </trkpt>
      <trkpt lat="43.21116" lon="5.49154">
        <ele>147.1</ele>
        <time>2025-10-19T09:24:43Z</time>
      </trkpt>
      <trkpt lat="43.21117" lon="5.49153">
        <ele>147.3</ele>
        <time>2025-10-19T09:24:44Z</time>
      </trkpt>
      <trkpt lat="43.21118" lon="5.49152">
        <ele>147.5</ele>
        <time>2025-10-19T09:24:45Z</time>
      </trkpt>
      <trkpt lat="43.21118" lon="5.49151">
        <ele>147.6</ele>
        <time>2025-10-19T09:24:46Z</time>
      </trkpt>
      <trkpt lat="43.21119" lon="5.49151">
        <ele>147.7</ele>
        <time>2025-10-19T09:24:47Z</time>
      </trkpt>
      <trkpt lat="43.21119" lon="5.4915">
        <ele>147.8</ele>
        <time>2025-10-19T09:24:48Z</time>
      </trkpt>
      <trkpt lat="43.2112" lon="5.49149">
        <ele>147.9</ele>
        <time>2025-10-19T09:24:49Z</time>
      </trkpt>
      <trkpt lat="43.21121" lon="5.49147">
        <ele>148</ele>
        <time>2025-10-19T09:24:50Z</time>
      </trkpt>
      <trkpt lat="43.21122" lon="5.49145">
        <ele>148.1</ele>
        <time>2025-10-19T09:24:51Z</time>
      </trkpt>
      <trkpt lat="43.21122" lon="5.49144">
        <ele>148.2</ele>
        <time>2025-10-19T09:24:52Z</time>
      </trkpt>
      <trkpt lat="43.21123" lon="5.49143">
        <ele>148.3</ele>
        <time>2025-10-19T09:24:53Z</time>
      </trkpt>
      <trkpt lat="43.21124" lon="5.49142">
        <ele>148.4</ele>
        <time>2025-10-19T09:24:54Z</time>
      </trkpt>
      <trkpt lat="43.21124" lon="5.49141">
        <ele>148.5</ele>
        <time>2025-10-19T09:24:55Z</time>
      </trkpt>
      <trkpt lat="43.21124" lon="5.4914">
        <ele>148.6</ele>
        <time>2025-10-19T09:24:56Z</time>
      </trkpt>
      <trkpt lat="43.21125" lon="5.4914">
        <ele>148.7</ele>
        <time>2025-10-19T09:24:57Z</time>
      </trkpt>
      <trkpt lat="43.21126" lon="5.49139">
        <ele>148.9</ele>
        <time>2025-10-19T09:24:58Z</time>
      </trkpt>
      <trkpt lat="43.21126" lon="5.49138">
        <ele>149.1</ele>
        <time>2025-10-19T09:24:59Z</time>
      </trkpt>
      <trkpt lat="43.21127" lon="5.49137">
        <ele>149.4</ele>
        <time>2025-10-19T09:25:00Z</time>
      </trkpt>
      <trkpt lat="43.21128" lon="5.49136">
        <ele>149.6</ele>
        <time>2025-10-19T09:25:01Z</time>
      </trkpt>
      <trkpt lat="43.21128" lon="5.49136">
        <ele>149.8</ele>
        <time>2025-10-19T09:25:02Z</time>
      </trkpt>
      <trkpt lat="43.21128" lon="5.49136">
        <ele>150</ele>
        <time>2025-10-19T09:25:03Z</time>
      </trkpt>
      <trkpt lat="43.21128" lon="5.49135">
        <ele>150.1</ele>
        <time>2025-10-19T09:25:04Z</time>
      </trkpt>
      <trkpt lat="43.21128" lon="5.49136">
        <ele>150.2</ele>
        <time>2025-10-19T09:25:05Z</time>
      </trkpt>
      <trkpt lat="43.21129" lon="5.49135">
        <ele>150.2</ele>
        <time>2025-10-19T09:25:06Z</time>
      </trkpt>
      <trkpt lat="43.21129" lon="5.49134">
        <ele>150.3</ele>
        <time>2025-10-19T09:25:07Z</time>
      </trkpt>
      <trkpt lat="43.2113" lon="5.49133">
        <ele>150.5</ele>
        <time>2025-10-19T09:25:08Z</time>
      </trkpt>
      <trkpt lat="43.21132" lon="5.49129">
        <ele>150.6</ele>
        <time>2025-10-19T09:25:09Z</time>
      </trkpt>
      <trkpt lat="43.21133" lon="5.49127">
        <ele>150.7</ele>
        <time>2025-10-19T09:25:10Z</time>
      </trkpt>
      <trkpt lat="43.21134" lon="5.49126">
        <ele>150.8</ele>
        <time>2025-10-19T09:25:11Z</time>
      </trkpt>
      <trkpt lat="43.21134" lon="5.49125">
        <ele>150.9</ele>
        <time>2025-10-19T09:25:12Z</time>
      </trkpt>
      <trkpt lat="43.21135" lon="5.49124">
        <ele>151</ele>
        <time>2025-10-19T09:25:13Z</time>
      </trkpt>
      <trkpt lat="43.21136" lon="5.49122">
        <ele>151.1</ele>
        <time>2025-10-19T09:25:14Z</time>
      </trkpt>
      <trkpt lat="43.21137" lon="5.49121">
        <ele>151.3</ele>
        <time>2025-10-19T09:25:15Z</time>
      </trkpt>
      <trkpt lat="43.21138" lon="5.49119">
        <ele>151.4</ele>
        <time>2025-10-19T09:25:16Z</time>
      </trkpt>
      <trkpt lat="43.21139" lon="5.49117">
        <ele>151.6</ele>
        <time>2025-10-19T09:25:17Z</time>
      </trkpt>
      <trkpt lat="43.21138" lon="5.49116">
        <ele>151.8</ele>
        <time>2025-10-19T09:25:18Z</time>
      </trkpt>
      <trkpt lat="43.21138" lon="5.49115">
        <ele>151.9</ele>
        <time>2025-10-19T09:25:19Z</time>
      </trkpt>
      <trkpt lat="43.21138" lon="5.49113">
        <ele>152.1</ele>
        <time>2025-10-19T09:25:20Z</time>
      </trkpt>
      <trkpt lat="43.21138" lon="5.49112">
        <ele>152.2</ele>
        <time>2025-10-19T09:25:21Z</time>
      </trkpt>
      <trkpt lat="43.21138" lon="5.49111">
        <ele>152.4</ele>
        <time>2025-10-19T09:25:22Z</time>
      </trkpt>
      <trkpt lat="43.21137" lon="5.4911">
        <ele>152.6</ele>
        <time>2025-10-19T09:25:23Z</time>
      </trkpt>
      <trkpt lat="43.21136" lon="5.49109">
        <ele>152.8</ele>
        <time>2025-10-19T09:25:24Z</time>
      </trkpt>
      <trkpt lat="43.21135" lon="5.49109">
        <ele>153</ele>
        <time>2025-10-19T09:25:25Z</time>
      </trkpt>
      <trkpt lat="43.21135" lon="5.49108">
        <ele>153.2</ele>
        <time>2025-10-19T09:25:26Z</time>
      </trkpt>
      <trkpt lat="43.21134" lon="5.49107">
        <ele>153.3</ele>
        <time>2025-10-19T09:25:27Z</time>
      </trkpt>
      <trkpt lat="43.21133" lon="5.49106">
        <ele>153.6</ele>
        <time>2025-10-19T09:25:28Z</time>
      </trkpt>
      <trkpt lat="43.21133" lon="5.49105">
        <ele>153.7</ele>
        <time>2025-10-19T09:25:29Z</time>
      </trkpt>
      <trkpt lat="43.21132" lon="5.49106">
        <ele>153.9</ele>
        <time>2025-10-19T09:25:30Z</time>
      </trkpt>
      <trkpt lat="43.21131" lon="5.49105">
        <ele>154.1</ele>
        <time>2025-10-19T09:25:31Z</time>
      </trkpt>
      <trkpt lat="43.2113" lon="5.49105">
        <ele>154.2</ele>
        <time>2025-10-19T09:25:32Z</time>
      </trkpt>
      <trkpt lat="43.21129" lon="5.49105">
        <ele>154.4</ele>
        <time>2025-10-19T09:25:33Z</time>
      </trkpt>
      <trkpt lat="43.21129" lon="5.49105">
        <ele>154.5</ele>
        <time>2025-10-19T09:25:34Z</time>
      </trkpt>
      <trkpt lat="43.21129" lon="5.49105">
        <ele>154.6</ele>
        <time>2025-10-19T09:25:35Z</time>
      </trkpt>
      <trkpt lat="43.21128" lon="5.49105">
        <ele>154.8</ele>
        <time>2025-10-19T09:25:36Z</time>
      </trkpt>
      <trkpt lat="43.21127" lon="5.49105">
        <ele>154.9</ele>
        <time>2025-10-19T09:25:37Z</time>
      </trkpt>
      <trkpt lat="43.21127" lon="5.49105">
        <ele>155.1</ele>
        <time>2025-10-19T09:25:38Z</time>
      </trkpt>
      <trkpt lat="43.21126" lon="5.49105">
        <ele>155.2</ele>
        <time>2025-10-19T09:25:39Z</time>
      </trkpt>
      <trkpt lat="43.21126" lon="5.49105">
        <ele>155.3</ele>
        <time>2025-10-19T09:25:40Z</time>
      </trkpt>
      <trkpt lat="43.21125" lon="5.49105">
        <ele>155.6</ele>
        <time>2025-10-19T09:25:41Z</time>
      </trkpt>
      <trkpt lat="43.21124" lon="5.49105">
        <ele>155.8</ele>
        <time>2025-10-19T09:25:42Z</time>
      </trkpt>
      <trkpt lat="43.21123" lon="5.49104">
        <ele>155.8</ele>
        <time>2025-10-19T09:25:43Z</time>
      </trkpt>
      <trkpt lat="43.21122" lon="5.49104">
        <ele>156.1</ele>
        <time>2025-10-19T09:25:44Z</time>
      </trkpt>
      <trkpt lat="43.21121" lon="5.49104">
        <ele>156.1</ele>
        <time>2025-10-19T09:25:45Z</time>
      </trkpt>
      <trkpt lat="43.21121" lon="5.49104">
        <ele>156.3</ele>
        <time>2025-10-19T09:25:46Z</time>
      </trkpt>
      <trkpt lat="43.2112" lon="5.49104">
        <ele>156.5</ele>
        <time>2025-10-19T09:25:47Z</time>
      </trkpt>
      <trkpt lat="43.2112" lon="5.49104">
        <ele>156.5</ele>
        <time>2025-10-19T09:25:48Z</time>
      </trkpt>
      <trkpt lat="43.21119" lon="5.49105">
        <ele>156.6</ele>
        <time>2025-10-19T09:25:49Z</time>
      </trkpt>
      <trkpt lat="43.21118" lon="5.49105">
        <ele>156.7</ele>
        <time>2025-10-19T09:25:50Z</time>
      </trkpt>
      <trkpt lat="43.21118" lon="5.49106">
        <ele>156.8</ele>
        <time>2025-10-19T09:25:51Z</time>
      </trkpt>
      <trkpt lat="43.21117" lon="5.49105">
        <ele>157.1</ele>
        <time>2025-10-19T09:25:52Z</time>
      </trkpt>
      <trkpt lat="43.21116" lon="5.49105">
        <ele>157.2</ele>
        <time>2025-10-19T09:25:53Z</time>
      </trkpt>
      <trkpt lat="43.21115" lon="5.49105">
        <ele>157.4</ele>
        <time>2025-10-19T09:25:54Z</time>
      </trkpt>
      <trkpt lat="43.21114" lon="5.49105">
        <ele>157.6</ele>
        <time>2025-10-19T09:25:55Z</time>
      </trkpt>
      <trkpt lat="43.21113" lon="5.49105">
        <ele>157.8</ele>
        <time>2025-10-19T09:25:56Z</time>
      </trkpt>
      <trkpt lat="43.21113" lon="5.49106">
        <ele>158</ele>
        <time>2025-10-19T09:25:57Z</time>
      </trkpt>
      <trkpt lat="43.21112" lon="5.49105">
        <ele>158.1</ele>
        <time>2025-10-19T09:25:58Z</time>
      </trkpt>
      <trkpt lat="43.21111" lon="5.49105">
        <ele>158.2</ele>
        <time>2025-10-19T09:25:59Z</time>
      </trkpt>
      <trkpt lat="43.2111" lon="5.49105">
        <ele>158.3</ele>
        <time>2025-10-19T09:26:00Z</time>
      </trkpt>
      <trkpt lat="43.21109" lon="5.49106">
        <ele>158.5</ele>
        <time>2025-10-19T09:26:01Z</time>
      </trkpt>
      <trkpt lat="43.21108" lon="5.49106">
        <ele>158.5</ele>
        <time>2025-10-19T09:26:02Z</time>
      </trkpt>
      <trkpt lat="43.21108" lon="5.49106">
        <ele>158.6</ele>
        <time>2025-10-19T09:26:03Z</time>
      </trkpt>
      <trkpt lat="43.21107" lon="5.49106">
        <ele>158.8</ele>
        <time>2025-10-19T09:26:04Z</time>
      </trkpt>
      <trkpt lat="43.21106" lon="5.49105">
        <ele>158.9</ele>
        <time>2025-10-19T09:26:05Z</time>
      </trkpt>
      <trkpt lat="43.21105" lon="5.49105">
        <ele>159.1</ele>
        <time>2025-10-19T09:26:06Z</time>
      </trkpt>
      <trkpt lat="43.21105" lon="5.49105">
        <ele>159.2</ele>
        <time>2025-10-19T09:26:07Z</time>
      </trkpt>
      <trkpt lat="43.21104" lon="5.49106">
        <ele>159.3</ele>
        <time>2025-10-19T09:26:08Z</time>
      </trkpt>
      <trkpt lat="43.21103" lon="5.49106">
        <ele>159.5</ele>
        <time>2025-10-19T09:26:09Z</time>
      </trkpt>
      <trkpt lat="43.21102" lon="5.49106">
        <ele>159.5</ele>
        <time>2025-10-19T09:26:10Z</time>
      </trkpt>
      <trkpt lat="43.21101" lon="5.49106">
        <ele>159.7</ele>
        <time>2025-10-19T09:26:11Z</time>
      </trkpt>
      <trkpt lat="43.211" lon="5.49106">
        <ele>159.8</ele>
        <time>2025-10-19T09:26:12Z</time>
      </trkpt>
      <trkpt lat="43.21099" lon="5.49107">
        <ele>159.9</ele>
        <time>2025-10-19T09:26:13Z</time>
      </trkpt>
      <trkpt lat="43.21098" lon="5.49107">
        <ele>160.1</ele>
        <time>2025-10-19T09:26:14Z</time>
      </trkpt>
      <trkpt lat="43.21097" lon="5.49107">
        <ele>160.2</ele>
        <time>2025-10-19T09:26:15Z</time>
      </trkpt>
      <trkpt lat="43.21096" lon="5.49107">
        <ele>160.3</ele>
        <time>2025-10-19T09:26:16Z</time>
      </trkpt>
      <trkpt lat="43.21095" lon="5.49108">
        <ele>160.4</ele>
        <time>2025-10-19T09:26:17Z</time>
      </trkpt>
      <trkpt lat="43.21093" lon="5.49108">
        <ele>160.5</ele>
        <time>2025-10-19T09:26:18Z</time>
      </trkpt>
      <trkpt lat="43.21092" lon="5.49109">
        <ele>160.8</ele>
        <time>2025-10-19T09:26:19Z</time>
      </trkpt>
      <trkpt lat="43.21092" lon="5.49109">
        <ele>160.9</ele>
        <time>2025-10-19T09:26:20Z</time>
      </trkpt>
      <trkpt lat="43.21091" lon="5.49108">
        <ele>161.1</ele>
        <time>2025-10-19T09:26:21Z</time>
      </trkpt>
      <trkpt lat="43.2109" lon="5.49108">
        <ele>161.2</ele>
        <time>2025-10-19T09:26:22Z</time>
      </trkpt>
      <trkpt lat="43.21089" lon="5.49108">
        <ele>161.3</ele>
        <time>2025-10-19T09:26:23Z</time>
      </trkpt>
      <trkpt lat="43.21088" lon="5.49108">
        <ele>161.4</ele>
        <time>2025-10-19T09:26:24Z</time>
      </trkpt>
      <trkpt lat="43.21087" lon="5.49108">
        <ele>161.4</ele>
        <time>2025-10-19T09:26:25Z</time>
      </trkpt>
      <trkpt lat="43.21086" lon="5.49108">
        <ele>161.5</ele>
        <time>2025-10-19T09:26:26Z</time>
      </trkpt>
      <trkpt lat="43.21085" lon="5.49108">
        <ele>161.6</ele>
        <time>2025-10-19T09:26:27Z</time>
      </trkpt>
      <trkpt lat="43.21084" lon="5.49108">
        <ele>161.7</ele>
        <time>2025-10-19T09:26:28Z</time>
      </trkpt>
      <trkpt lat="43.21083" lon="5.49108">
        <ele>161.8</ele>
        <time>2025-10-19T09:26:29Z</time>
      </trkpt>
      <trkpt lat="43.21081" lon="5.49108">
        <ele>161.9</ele>
        <time>2025-10-19T09:26:30Z</time>
      </trkpt>
      <trkpt lat="43.2108" lon="5.49108">
        <ele>162</ele>
        <time>2025-10-19T09:26:31Z</time>
      </trkpt>
      <trkpt lat="43.21079" lon="5.49109">
        <ele>162.2</ele>
        <time>2025-10-19T09:26:32Z</time>
      </trkpt>
      <trkpt lat="43.21077" lon="5.49109">
        <ele>162.3</ele>
        <time>2025-10-19T09:26:33Z</time>
      </trkpt>
      <trkpt lat="43.21076" lon="5.49109">
        <ele>162.4</ele>
        <time>2025-10-19T09:26:34Z</time>
      </trkpt>
      <trkpt lat="43.21074" lon="5.49109">
        <ele>162.5</ele>
        <time>2025-10-19T09:26:35Z</time>
      </trkpt>
      <trkpt lat="43.21073" lon="5.49108">
        <ele>162.7</ele>
        <time>2025-10-19T09:26:36Z</time>
      </trkpt>
      <trkpt lat="43.21073" lon="5.49108">
        <ele>162.9</ele>
        <time>2025-10-19T09:26:37Z</time>
      </trkpt>
      <trkpt lat="43.21072" lon="5.49108">
        <ele>163</ele>
        <time>2025-10-19T09:26:38Z</time>
      </trkpt>
      <trkpt lat="43.21071" lon="5.49108">
        <ele>163.2</ele>
        <time>2025-10-19T09:26:39Z</time>
      </trkpt>
      <trkpt lat="43.2107" lon="5.49108">
        <ele>163.3</ele>
        <time>2025-10-19T09:26:40Z</time>
      </trkpt>
      <trkpt lat="43.21069" lon="5.49109">
        <ele>163.3</ele>
        <time>2025-10-19T09:26:41Z</time>
      </trkpt>
      <trkpt lat="43.21069" lon="5.49108">
        <ele>163.4</ele>
        <time>2025-10-19T09:26:42Z</time>
      </trkpt>
      <trkpt lat="43.21068" lon="5.49108">
        <ele>163.5</ele>
        <time>2025-10-19T09:26:43Z</time>
      </trkpt>
      <trkpt lat="43.21067" lon="5.49108">
        <ele>163.6</ele>
        <time>2025-10-19T09:26:44Z</time>
      </trkpt>
      <trkpt lat="43.21066" lon="5.49108">
        <ele>163.7</ele>
        <time>2025-10-19T09:26:45Z</time>
      </trkpt>
      <trkpt lat="43.21065" lon="5.49108">
        <ele>163.7</ele>
        <time>2025-10-19T09:26:46Z</time>
      </trkpt>
      <trkpt lat="43.21064" lon="5.49109">
        <ele>163.8</ele>
        <time>2025-10-19T09:26:47Z</time>
      </trkpt>
      <trkpt lat="43.21063" lon="5.49109">
        <ele>163.9</ele>
        <time>2025-10-19T09:26:48Z</time>
      </trkpt>
      <trkpt lat="43.21062" lon="5.49109">
        <ele>164</ele>
        <time>2025-10-19T09:26:49Z</time>
      </trkpt>
      <trkpt lat="43.21061" lon="5.49109">
        <ele>164.1</ele>
        <time>2025-10-19T09:26:50Z</time>
      </trkpt>
      <trkpt lat="43.2106" lon="5.49109">
        <ele>164.3</ele>
        <time>2025-10-19T09:26:51Z</time>
      </trkpt>
      <trkpt lat="43.21059" lon="5.49109">
        <ele>164.4</ele>
        <time>2025-10-19T09:26:52Z</time>
      </trkpt>
      <trkpt lat="43.21058" lon="5.49109">
        <ele>164.5</ele>
        <time>2025-10-19T09:26:53Z</time>
      </trkpt>
      <trkpt lat="43.21057" lon="5.49109">
        <ele>164.6</ele>
        <time>2025-10-19T09:26:54Z</time>
      </trkpt>
      <trkpt lat="43.21056" lon="5.49109">
        <ele>164.8</ele>
        <time>2025-10-19T09:26:55Z</time>
      </trkpt>
      <trkpt lat="43.21055" lon="5.49109">
        <ele>164.8</ele>
        <time>2025-10-19T09:26:56Z</time>
      </trkpt>
      <trkpt lat="43.21053" lon="5.49109">
        <ele>164.8</ele>
        <time>2025-10-19T09:26:57Z</time>
      </trkpt>
      <trkpt lat="43.21052" lon="5.4911">
        <ele>164.9</ele>
        <time>2025-10-19T09:26:58Z</time>
      </trkpt>
      <trkpt lat="43.21051" lon="5.4911">
        <ele>165</ele>
        <time>2025-10-19T09:26:59Z</time>
      </trkpt>
      <trkpt lat="43.2105" lon="5.49111">
        <ele>165.1</ele>
        <time>2025-10-19T09:27:00Z</time>
      </trkpt>
      <trkpt lat="43.21048" lon="5.49111">
        <ele>165.2</ele>
        <time>2025-10-19T09:27:01Z</time>
      </trkpt>
      <trkpt lat="43.21048" lon="5.49111">
        <ele>165.4</ele>
        <time>2025-10-19T09:27:02Z</time>
      </trkpt>
      <trkpt lat="43.21047" lon="5.4911">
        <ele>165.5</ele>
        <time>2025-10-19T09:27:03Z</time>
      </trkpt>
      <trkpt lat="43.21046" lon="5.49111">
        <ele>165.6</ele>
        <time>2025-10-19T09:27:04Z</time>
      </trkpt>
      <trkpt lat="43.21045" lon="5.49111">
        <ele>165.6</ele>
        <time>2025-10-19T09:27:05Z</time>
      </trkpt>
      <trkpt lat="43.21044" lon="5.49112">
        <ele>165.6</ele>
        <time>2025-10-19T09:27:06Z</time>
      </trkpt>
      <trkpt lat="43.21043" lon="5.49112">
        <ele>165.7</ele>
        <time>2025-10-19T09:27:07Z</time>
      </trkpt>
      <trkpt lat="43.21042" lon="5.49112">
        <ele>165.7</ele>
        <time>2025-10-19T09:27:08Z</time>
      </trkpt>
      <trkpt lat="43.21042" lon="5.49112">
        <ele>165.8</ele>
        <time>2025-10-19T09:27:09Z</time>
      </trkpt>
      <trkpt lat="43.2104" lon="5.49112">
        <ele>165.8</ele>
        <time>2025-10-19T09:27:10Z</time>
      </trkpt>
      <trkpt lat="43.21039" lon="5.49112">
        <ele>166</ele>
        <time>2025-10-19T09:27:11Z</time>
      </trkpt>
      <trkpt lat="43.21039" lon="5.49112">
        <ele>166.1</ele>
        <time>2025-10-19T09:27:12Z</time>
      </trkpt>
      <trkpt lat="43.21038" lon="5.49113">
        <ele>166.2</ele>
        <time>2025-10-19T09:27:13Z</time>
      </trkpt>
      <trkpt lat="43.21037" lon="5.49113">
        <ele>166.4</ele>
        <time>2025-10-19T09:27:14Z</time>
      </trkpt>
      <trkpt lat="43.21036" lon="5.49113">
        <ele>166.6</ele>
        <time>2025-10-19T09:27:15Z</time>
      </trkpt>
      <trkpt lat="43.21035" lon="5.49113">
        <ele>166.6</ele>
        <time>2025-10-19T09:27:16Z</time>
      </trkpt>
      <trkpt lat="43.21034" lon="5.49114">
        <ele>166.7</ele>
        <time>2025-10-19T09:27:17Z</time>
      </trkpt>
      <trkpt lat="43.21033" lon="5.49115">
        <ele>166.6</ele>
        <time>2025-10-19T09:27:18Z</time>
      </trkpt>
      <trkpt lat="43.21032" lon="5.49115">
        <ele>166.6</ele>
        <time>2025-10-19T09:27:19Z</time>
      </trkpt>
      <trkpt lat="43.21031" lon="5.49116">
        <ele>166.6</ele>
        <time>2025-10-19T09:27:20Z</time>
      </trkpt>
      <trkpt lat="43.2103" lon="5.49116">
        <ele>166.6</ele>
        <time>2025-10-19T09:27:21Z</time>
      </trkpt>
      <trkpt lat="43.21029" lon="5.49116">
        <ele>166.6</ele>
        <time>2025-10-19T09:27:22Z</time>
      </trkpt>
      <trkpt lat="43.21028" lon="5.49117">
        <ele>166.5</ele>
        <time>2025-10-19T09:27:23Z</time>
      </trkpt>
      <trkpt lat="43.21028" lon="5.49117">
        <ele>166.5</ele>
        <time>2025-10-19T09:27:24Z</time>
      </trkpt>
      <trkpt lat="43.21027" lon="5.49117">
        <ele>166.5</ele>
        <time>2025-10-19T09:27:25Z</time>
      </trkpt>
      <trkpt lat="43.21026" lon="5.49118">
        <ele>166.5</ele>
        <time>2025-10-19T09:27:26Z</time>
      </trkpt>
      <trkpt lat="43.21026" lon="5.49119">
        <ele>166.5</ele>
        <time>2025-10-19T09:27:27Z</time>
      </trkpt>
      <trkpt lat="43.21026" lon="5.4912">
        <ele>166.7</ele>
        <time>2025-10-19T09:27:28Z</time>
      </trkpt>
      <trkpt lat="43.21025" lon="5.4912">
        <ele>166.8</ele>
        <time>2025-10-19T09:27:29Z</time>
      </trkpt>
      <trkpt lat="43.21025" lon="5.49121">
        <ele>166.8</ele>
        <time>2025-10-19T09:27:30Z</time>
      </trkpt>
      <trkpt lat="43.21025" lon="5.49122">
        <ele>166.7</ele>
        <time>2025-10-19T09:27:31Z</time>
      </trkpt>
      <trkpt lat="43.21025" lon="5.49123">
        <ele>166.7</ele>
        <time>2025-10-19T09:27:32Z</time>
      </trkpt>
      <trkpt lat="43.21024" lon="5.49124">
        <ele>166.6</ele>
        <time>2025-10-19T09:27:33Z</time>
      </trkpt>
      <trkpt lat="43.21024" lon="5.49124">
        <ele>166.6</ele>
        <time>2025-10-19T09:27:34Z</time>
      </trkpt>
      <trkpt lat="43.21024" lon="5.49125">
        <ele>166.5</ele>
        <time>2025-10-19T09:27:35Z</time>
      </trkpt>
      <trkpt lat="43.21023" lon="5.49125">
        <ele>166.5</ele>
        <time>2025-10-19T09:27:36Z</time>
      </trkpt>
      <trkpt lat="43.21023" lon="5.49125">
        <ele>166.4</ele>
        <time>2025-10-19T09:27:37Z</time>
      </trkpt>
      <trkpt lat="43.21023" lon="5.49125">
        <ele>166.3</ele>
        <time>2025-10-19T09:27:38Z</time>
      </trkpt>
      <trkpt lat="43.21023" lon="5.49125">
        <ele>166.3</ele>
        <time>2025-10-19T09:27:39Z</time>
      </trkpt>
      <trkpt lat="43.21023" lon="5.49125">
        <ele>166.2</ele>
        <time>2025-10-19T09:27:40Z</time>
      </trkpt>
      <trkpt lat="43.21023" lon="5.49126">
        <ele>166.2</ele>
        <time>2025-10-19T09:27:41Z</time>
      </trkpt>
      <trkpt lat="43.21023" lon="5.49126">
        <ele>166.2</ele>
        <time>2025-10-19T09:27:42Z</time>
      </trkpt>
      <trkpt lat="43.21023" lon="5.49126">
        <ele>166.2</ele>
        <time>2025-10-19T09:27:43Z</time>
      </trkpt>
      <trkpt lat="43.21023" lon="5.49126">
        <ele>166.2</ele>
        <time>2025-10-19T09:27:44Z</time>
      </trkpt>
      <trkpt lat="43.21023" lon="5.49126">
        <ele>166.2</ele>
        <time>2025-10-19T09:27:45Z</time>
      </trkpt>
      <trkpt lat="43.21023" lon="5.49126">
        <ele>166.2</ele>
        <time>2025-10-19T09:27:46Z</time>
      </trkpt>
      <trkpt lat="43.21023" lon="5.49127">
        <ele>166.2</ele>
        <time>2025-10-19T09:27:47Z</time>
      </trkpt>
      <trkpt lat="43.21023" lon="5.49127">
        <ele>166.3</ele>
        <time>2025-10-19T09:27:48Z</time>
      </trkpt>
      <trkpt lat="43.21023" lon="5.49127">
        <ele>166.3</ele>
        <time>2025-10-19T09:27:49Z</time>
      </trkpt>
      <trkpt lat="43.21023" lon="5.49127">
        <ele>166.3</ele>
        <time>2025-10-19T09:27:50Z</time>
      </trkpt>
      <trkpt lat="43.21023" lon="5.49127">
        <ele>166.2</ele>
        <time>2025-10-19T09:27:51Z</time>
      </trkpt>
      <trkpt lat="43.21024" lon="5.49127">
        <ele>166.2</ele>
        <time>2025-10-19T09:27:52Z</time>
      </trkpt>
      <trkpt lat="43.21024" lon="5.49126">
        <ele>166.3</ele>
        <time>2025-10-19T09:27:53Z</time>
      </trkpt>
      <trkpt lat="43.21024" lon="5.49126">
        <ele>166.2</ele>
        <time>2025-10-19T09:27:54Z</time>
      </trkpt>
      <trkpt lat="43.21023" lon="5.49126">
        <ele>166.2</ele>
        <time>2025-10-19T09:27:55Z</time>
      </trkpt>
      <trkpt lat="43.21023" lon="5.49126">
        <ele>166.2</ele>
        <time>2025-10-19T09:27:56Z</time>
      </trkpt>
      <trkpt lat="43.21023" lon="5.49126">
        <ele>166.2</ele>
        <time>2025-10-19T09:27:57Z</time>
      </trkpt>
      <trkpt lat="43.21024" lon="5.49125">
        <ele>166.2</ele>
        <time>2025-10-19T09:27:58Z</time>
      </trkpt>
      <trkpt lat="43.21024" lon="5.49125">
        <ele>166.2</ele>
        <time>2025-10-19T09:27:59Z</time>
      </trkpt>
      <trkpt lat="43.21023" lon="5.49125">
        <ele>166.2</ele>
        <time>2025-10-19T09:28:00Z</time>
      </trkpt>
      <trkpt lat="43.21023" lon="5.49124">
        <ele>166.2</ele>
        <time>2025-10-19T09:28:01Z</time>
      </trkpt>
      <trkpt lat="43.21023" lon="5.49124">
        <ele>166.3</ele>
        <time>2025-10-19T09:28:02Z</time>
      </trkpt>
      <trkpt lat="43.21023" lon="5.49124">
        <ele>166.3</ele>
        <time>2025-10-19T09:28:03Z</time>
      </trkpt>
      <trkpt lat="43.21022" lon="5.49123">
        <ele>166.3</ele>
        <time>2025-10-19T09:28:04Z</time>
      </trkpt>
      <trkpt lat="43.21022" lon="5.49123">
        <ele>166.3</ele>
        <time>2025-10-19T09:28:05Z</time>
      </trkpt>
      <trkpt lat="43.21022" lon="5.49122">
        <ele>166.2</ele>
        <time>2025-10-19T09:28:06Z</time>
      </trkpt>
      <trkpt lat="43.21022" lon="5.49122">
        <ele>166.2</ele>
        <time>2025-10-19T09:28:07Z</time>
      </trkpt>
      <trkpt lat="43.21022" lon="5.49123">
        <ele>166.2</ele>
        <time>2025-10-19T09:28:08Z</time>
      </trkpt>
      <trkpt lat="43.21022" lon="5.49123">
        <ele>166.2</ele>
        <time>2025-10-19T09:28:09Z</time>
      </trkpt>
      <trkpt lat="43.21022" lon="5.49123">
        <ele>166.3</ele>
        <time>2025-10-19T09:28:10Z</time>
      </trkpt>
      <trkpt lat="43.21022" lon="5.49123">
        <ele>166.3</ele>
        <time>2025-10-19T09:28:11Z</time>
      </trkpt>
      <trkpt lat="43.21022" lon="5.49124">
        <ele>166.3</ele>
        <time>2025-10-19T09:28:12Z</time>
      </trkpt>
      <trkpt lat="43.21022" lon="5.49124">
        <ele>166.3</ele>
        <time>2025-10-19T09:28:13Z</time>
      </trkpt>
      <trkpt lat="43.21022" lon="5.49124">
        <ele>166.3</ele>
        <time>2025-10-19T09:28:14Z</time>
      </trkpt>
      <trkpt lat="43.21022" lon="5.49124">
        <ele>166.3</ele>
        <time>2025-10-19T09:28:15Z</time>
      </trkpt>
      <trkpt lat="43.21022" lon="5.49124">
        <ele>166.3</ele>
        <time>2025-10-19T09:28:16Z</time>
      </trkpt>
      <trkpt lat="43.21022" lon="5.49124">
        <ele>166.3</ele>
        <time>2025-10-19T09:28:17Z</time>
      </trkpt>
      <trkpt lat="43.21021" lon="5.49124">
        <ele>166.3</ele>
        <time>2025-10-19T09:28:18Z</time>
      </trkpt>
      <trkpt lat="43.21021" lon="5.49124">
        <ele>166.4</ele>
        <time>2025-10-19T09:28:19Z</time>
      </trkpt>
      <trkpt lat="43.21021" lon="5.49124">
        <ele>166.4</ele>
        <time>2025-10-19T09:28:20Z</time>
      </trkpt>
      <trkpt lat="43.21021" lon="5.49125">
        <ele>166.5</ele>
        <time>2025-10-19T09:28:21Z</time>
      </trkpt>
      <trkpt lat="43.21021" lon="5.49125">
        <ele>166.6</ele>
        <time>2025-10-19T09:28:22Z</time>
      </trkpt>
      <trkpt lat="43.21021" lon="5.49125">
        <ele>166.6</ele>
        <time>2025-10-19T09:28:23Z</time>
      </trkpt>
      <trkpt lat="43.2102" lon="5.49125">
        <ele>166.6</ele>
        <time>2025-10-19T09:28:24Z</time>
      </trkpt>
      <trkpt lat="43.2102" lon="5.49125">
        <ele>166.6</ele>
        <time>2025-10-19T09:28:25Z</time>
      </trkpt>
      <trkpt lat="43.2102" lon="5.49125">
        <ele>166.6</ele>
        <time>2025-10-19T09:28:26Z</time>
      </trkpt>
      <trkpt lat="43.21019" lon="5.49125">
        <ele>166.6</ele>
        <time>2025-10-19T09:28:27Z</time>
      </trkpt>
      <trkpt lat="43.21019" lon="5.49125">
        <ele>166.7</ele>
        <time>2025-10-19T09:28:28Z</time>
      </trkpt>
      <trkpt lat="43.21019" lon="5.49125">
        <ele>166.6</ele>
        <time>2025-10-19T09:28:29Z</time>
      </trkpt>
      <trkpt lat="43.21019" lon="5.49125">
        <ele>166.7</ele>
        <time>2025-10-19T09:28:30Z</time>
      </trkpt>
      <trkpt lat="43.21019" lon="5.49125">
        <ele>166.7</ele>
        <time>2025-10-19T09:28:31Z</time>
      </trkpt>
      <trkpt lat="43.21019" lon="5.49126">
        <ele>166.7</ele>
        <time>2025-10-19T09:28:32Z</time>
      </trkpt>
      <trkpt lat="43.21019" lon="5.49126">
        <ele>166.6</ele>
        <time>2025-10-19T09:28:33Z</time>
      </trkpt>
      <trkpt lat="43.21019" lon="5.49126">
        <ele>166.5</ele>
        <time>2025-10-19T09:28:34Z</time>
      </trkpt>
      <trkpt lat="43.21019" lon="5.49126">
        <ele>166.5</ele>
        <time>2025-10-19T09:28:35Z</time>
      </trkpt>
      <trkpt lat="43.21019" lon="5.49126">
        <ele>166.5</ele>
        <time>2025-10-19T09:28:36Z</time>
      </trkpt>
      <trkpt lat="43.21019" lon="5.49126">
        <ele>166.5</ele>
        <time>2025-10-19T09:28:37Z</time>
      </trkpt>
      <trkpt lat="43.21019" lon="5.49127">
        <ele>166.6</ele>
        <time>2025-10-19T09:28:38Z</time>
      </trkpt>
      <trkpt lat="43.21019" lon="5.49127">
        <ele>166.6</ele>
        <time>2025-10-19T09:28:39Z</time>
      </trkpt>
      <trkpt lat="43.21019" lon="5.49126">
        <ele>166.6</ele>
        <time>2025-10-19T09:28:40Z</time>
      </trkpt>
      <trkpt lat="43.21019" lon="5.49126">
        <ele>166.6</ele>
        <time>2025-10-19T09:28:41Z</time>
      </trkpt>
      <trkpt lat="43.21019" lon="5.49126">
        <ele>166.6</ele>
        <time>2025-10-19T09:28:42Z</time>
      </trkpt>
      <trkpt lat="43.21019" lon="5.49126">
        <ele>166.6</ele>
        <time>2025-10-19T09:28:43Z</time>
      </trkpt>
      <trkpt lat="43.21019" lon="5.49126">
        <ele>166.6</ele>
        <time>2025-10-19T09:28:44Z</time>
      </trkpt>
      <trkpt lat="43.21019" lon="5.49126">
        <ele>166.6</ele>
        <time>2025-10-19T09:28:45Z</time>
      </trkpt>
      <trkpt lat="43.21019" lon="5.49126">
        <ele>166.7</ele>
        <time>2025-10-19T09:28:46Z</time>
      </trkpt>
      <trkpt lat="43.21019" lon="5.49126">
        <ele>166.7</ele>
        <time>2025-10-19T09:28:47Z</time>
      </trkpt>
      <trkpt lat="43.21019" lon="5.49126">
        <ele>166.8</ele>
        <time>2025-10-19T09:28:48Z</time>
      </trkpt>
      <trkpt lat="43.21019" lon="5.49126">
        <ele>166.7</ele>
        <time>2025-10-19T09:28:49Z</time>
      </trkpt>
      <trkpt lat="43.21019" lon="5.49126">
        <ele>166.7</ele>
        <time>2025-10-19T09:28:50Z</time>
      </trkpt>
      <trkpt lat="43.21019" lon="5.49126">
        <ele>166.8</ele>
        <time>2025-10-19T09:28:51Z</time>
      </trkpt>
      <trkpt lat="43.21019" lon="5.49126">
        <ele>166.8</ele>
        <time>2025-10-19T09:28:52Z</time>
      </trkpt>
      <trkpt lat="43.21019" lon="5.49126">
        <ele>166.8</ele>
        <time>2025-10-19T09:28:53Z</time>
      </trkpt>
      <trkpt lat="43.21019" lon="5.49126">
        <ele>166.7</ele>
        <time>2025-10-19T09:28:54Z</time>
      </trkpt>
      <trkpt lat="43.21019" lon="5.49126">
        <ele>166.7</ele>
        <time>2025-10-19T09:28:55Z</time>
      </trkpt>
      <trkpt lat="43.21019" lon="5.49126">
        <ele>166.7</ele>
        <time>2025-10-19T09:28:56Z</time>
      </trkpt>
      <trkpt lat="43.21019" lon="5.49126">
        <ele>166.7</ele>
        <time>2025-10-19T09:28:57Z</time>
      </trkpt>
      <trkpt lat="43.21019" lon="5.49126">
        <ele>166.7</ele>
        <time>2025-10-19T09:28:58Z</time>
      </trkpt>
      <trkpt lat="43.21019" lon="5.49126">
        <ele>166.7</ele>
        <time>2025-10-19T09:28:59Z</time>
      </trkpt>
      <trkpt lat="43.21019" lon="5.49126">
        <ele>166.7</ele>
        <time>2025-10-19T09:29:00Z</time>
      </trkpt>
      <trkpt lat="43.21019" lon="5.49127">
        <ele>166.8</ele>
        <time>2025-10-19T09:29:01Z</time>
      </trkpt>
      <trkpt lat="43.21019" lon="5.49127">
        <ele>166.8</ele>
        <time>2025-10-19T09:29:02Z</time>
      </trkpt>
      <trkpt lat="43.21019" lon="5.49127">
        <ele>166.7</ele>
        <time>2025-10-19T09:29:03Z</time>
      </trkpt>
      <trkpt lat="43.21018" lon="5.49127">
        <ele>166.7</ele>
        <time>2025-10-19T09:29:04Z</time>
      </trkpt>
      <trkpt lat="43.21018" lon="5.49127">
        <ele>166.6</ele>
        <time>2025-10-19T09:29:05Z</time>
      </trkpt>
      <trkpt lat="43.21018" lon="5.49127">
        <ele>166.5</ele>
        <time>2025-10-19T09:29:06Z</time>
      </trkpt>
      <trkpt lat="43.21019" lon="5.49126">
        <ele>166.5</ele>
        <time>2025-10-19T09:29:07Z</time>
      </trkpt>
      <trkpt lat="43.21018" lon="5.49126">
        <ele>166.5</ele>
        <time>2025-10-19T09:29:08Z</time>
      </trkpt>
      <trkpt lat="43.21018" lon="5.49127">
        <ele>166.5</ele>
        <time>2025-10-19T09:29:09Z</time>
      </trkpt>
      <trkpt lat="43.21018" lon="5.49127">
        <ele>166.5</ele>
        <time>2025-10-19T09:29:10Z</time>
      </trkpt>
      <trkpt lat="43.21018" lon="5.49127">
        <ele>166.5</ele>
        <time>2025-10-19T09:29:11Z</time>
      </trkpt>
      <trkpt lat="43.21018" lon="5.49128">
        <ele>166.4</ele>
        <time>2025-10-19T09:29:12Z</time>
      </trkpt>
      <trkpt lat="43.21018" lon="5.49128">
        <ele>166.3</ele>
        <time>2025-10-19T09:29:13Z</time>
      </trkpt>
      <trkpt lat="43.21018" lon="5.49128">
        <ele>166.2</ele>
        <time>2025-10-19T09:29:14Z</time>
      </trkpt>
      <trkpt lat="43.21018" lon="5.49128">
        <ele>166.2</ele>
        <time>2025-10-19T09:29:15Z</time>
      </trkpt>
      <trkpt lat="43.21018" lon="5.49128">
        <ele>166.1</ele>
        <time>2025-10-19T09:29:16Z</time>
      </trkpt>
      <trkpt lat="43.21018" lon="5.49128">
        <ele>166</ele>
        <time>2025-10-19T09:29:17Z</time>
      </trkpt>
      <trkpt lat="43.21019" lon="5.49128">
        <ele>166</ele>
        <time>2025-10-19T09:29:18Z</time>
      </trkpt>
      <trkpt lat="43.21019" lon="5.49127">
        <ele>166</ele>
        <time>2025-10-19T09:29:19Z</time>
      </trkpt>
      <trkpt lat="43.21019" lon="5.49127">
        <ele>166</ele>
        <time>2025-10-19T09:29:20Z</time>
      </trkpt>
      <trkpt lat="43.2102" lon="5.49127">
        <ele>166</ele>
        <time>2025-10-19T09:29:21Z</time>
      </trkpt>
      <trkpt lat="43.2102" lon="5.49127">
        <ele>166</ele>
        <time>2025-10-19T09:29:22Z</time>
      </trkpt>
      <trkpt lat="43.2102" lon="5.49127">
        <ele>166</ele>
        <time>2025-10-19T09:29:23Z</time>
      </trkpt>
      <trkpt lat="43.2102" lon="5.49127">
        <ele>166</ele>
        <time>2025-10-19T09:29:24Z</time>
      </trkpt>
      <trkpt lat="43.2102" lon="5.49127">
        <ele>165.9</ele>
        <time>2025-10-19T09:29:25Z</time>
      </trkpt>
      <trkpt lat="43.2102" lon="5.49127">
        <ele>165.9</ele>
        <time>2025-10-19T09:29:26Z</time>
      </trkpt>
      <trkpt lat="43.2102" lon="5.49126">
        <ele>166</ele>
        <time>2025-10-19T09:29:27Z</time>
      </trkpt>
      <trkpt lat="43.21021" lon="5.49126">
        <ele>166</ele>
        <time>2025-10-19T09:29:28Z</time>
      </trkpt>
      <trkpt lat="43.21021" lon="5.49126">
        <ele>166</ele>
        <time>2025-10-19T09:29:29Z</time>
      </trkpt>
      <trkpt lat="43.21021" lon="5.49126">
        <ele>166</ele>
        <time>2025-10-19T09:29:30Z</time>
      </trkpt>
      <trkpt lat="43.21021" lon="5.49126">
        <ele>166.1</ele>
        <time>2025-10-19T09:29:31Z</time>
      </trkpt>
      <trkpt lat="43.21021" lon="5.49126">
        <ele>166.2</ele>
        <time>2025-10-19T09:29:32Z</time>
      </trkpt>
      <trkpt lat="43.21021" lon="5.49126">
        <ele>166.2</ele>
        <time>2025-10-19T09:29:33Z</time>
      </trkpt>
      <trkpt lat="43.21021" lon="5.49126">
        <ele>166.3</ele>
        <time>2025-10-19T09:29:34Z</time>
      </trkpt>
      <trkpt lat="43.21021" lon="5.49126">
        <ele>166.3</ele>
        <time>2025-10-19T09:29:35Z</time>
      </trkpt>
      <trkpt lat="43.21021" lon="5.49126">
        <ele>166.3</ele>
        <time>2025-10-19T09:29:36Z</time>
      </trkpt>
      <trkpt lat="43.21021" lon="5.49126">
        <ele>166.3</ele>
        <time>2025-10-19T09:29:37Z</time>
      </trkpt>
      <trkpt lat="43.21021" lon="5.49126">
        <ele>166.2</ele>
        <time>2025-10-19T09:29:38Z</time>
      </trkpt>
      <trkpt lat="43.21021" lon="5.49126">
        <ele>166.2</ele>
        <time>2025-10-19T09:29:39Z</time>
      </trkpt>
      <trkpt lat="43.2102" lon="5.49126">
        <ele>166.2</ele>
        <time>2025-10-19T09:29:40Z</time>
      </trkpt>
      <trkpt lat="43.21019" lon="5.49127">
        <ele>166.2</ele>
        <time>2025-10-19T09:29:41Z</time>
      </trkpt>
      <trkpt lat="43.21019" lon="5.49127">
        <ele>166.2</ele>
        <time>2025-10-19T09:29:42Z</time>
      </trkpt>
      <trkpt lat="43.21019" lon="5.49127">
        <ele>166.2</ele>
        <time>2025-10-19T09:29:43Z</time>
      </trkpt>
      <trkpt lat="43.21019" lon="5.49127">
        <ele>166.3</ele>
        <time>2025-10-19T09:29:44Z</time>
      </trkpt>
      <trkpt lat="43.21019" lon="5.49127">
        <ele>166.3</ele>
        <time>2025-10-19T09:29:45Z</time>
      </trkpt>
      <trkpt lat="43.21019" lon="5.49128">
        <ele>166.4</ele>
        <time>2025-10-19T09:29:46Z</time>
      </trkpt>
      <trkpt lat="43.21019" lon="5.49128">
        <ele>166.5</ele>
        <time>2025-10-19T09:29:47Z</time>
      </trkpt>
      <trkpt lat="43.21018" lon="5.49129">
        <ele>166.5</ele>
        <time>2025-10-19T09:29:48Z</time>
      </trkpt>
      <trkpt lat="43.21018" lon="5.49128">
        <ele>166.6</ele>
        <time>2025-10-19T09:29:49Z</time>
      </trkpt>
      <trkpt lat="43.21018" lon="5.49129">
        <ele>166.5</ele>
        <time>2025-10-19T09:29:50Z</time>
      </trkpt>
      <trkpt lat="43.21018" lon="5.49128">
        <ele>166.5</ele>
        <time>2025-10-19T09:29:51Z</time>
      </trkpt>
      <trkpt lat="43.21018" lon="5.49128">
        <ele>166.4</ele>
        <time>2025-10-19T09:29:52Z</time>
      </trkpt>
      <trkpt lat="43.21018" lon="5.49128">
        <ele>166.3</ele>
        <time>2025-10-19T09:29:53Z</time>
      </trkpt>
      <trkpt lat="43.21018" lon="5.49127">
        <ele>166.3</ele>
        <time>2025-10-19T09:29:54Z</time>
      </trkpt>
      <trkpt lat="43.21018" lon="5.49127">
        <ele>166.3</ele>
        <time>2025-10-19T09:29:55Z</time>
      </trkpt>
      <trkpt lat="43.21018" lon="5.49127">
        <ele>166.3</ele>
        <time>2025-10-19T09:29:56Z</time>
      </trkpt>
      <trkpt lat="43.21018" lon="5.49127">
        <ele>166.3</ele>
        <time>2025-10-19T09:29:57Z</time>
      </trkpt>
      <trkpt lat="43.21018" lon="5.49127">
        <ele>166.3</ele>
        <time>2025-10-19T09:29:58Z</time>
      </trkpt>
      <trkpt lat="43.21018" lon="5.49127">
        <ele>166.2</ele>
        <time>2025-10-19T09:29:59Z</time>
      </trkpt>
      <trkpt lat="43.21018" lon="5.49127">
        <ele>166.3</ele>
        <time>2025-10-19T09:30:00Z</time>
      </trkpt>
      <trkpt lat="43.21019" lon="5.49127">
        <ele>166.2</ele>
        <time>2025-10-19T09:30:01Z</time>
      </trkpt>
      <trkpt lat="43.21019" lon="5.49127">
        <ele>166.1</ele>
        <time>2025-10-19T09:30:02Z</time>
      </trkpt>
      <trkpt lat="43.21019" lon="5.49127">
        <ele>166.1</ele>
        <time>2025-10-19T09:30:03Z</time>
      </trkpt>
      <trkpt lat="43.21019" lon="5.49126">
        <ele>166.1</ele>
        <time>2025-10-19T09:30:04Z</time>
      </trkpt>
      <trkpt lat="43.21019" lon="5.49126">
        <ele>166.1</ele>
        <time>2025-10-19T09:30:05Z</time>
      </trkpt>
      <trkpt lat="43.21019" lon="5.49126">
        <ele>166</ele>
        <time>2025-10-19T09:30:06Z</time>
      </trkpt>
      <trkpt lat="43.21019" lon="5.49126">
        <ele>166.1</ele>
        <time>2025-10-19T09:30:07Z</time>
      </trkpt>
      <trkpt lat="43.21019" lon="5.49126">
        <ele>166.1</ele>
        <time>2025-10-19T09:30:08Z</time>
      </trkpt>
      <trkpt lat="43.21019" lon="5.49126">
        <ele>166.1</ele>
        <time>2025-10-19T09:30:09Z</time>
      </trkpt>
      <trkpt lat="43.21019" lon="5.49125">
        <ele>166.2</ele>
        <time>2025-10-19T09:30:10Z</time>
      </trkpt>
      <trkpt lat="43.21019" lon="5.49125">
        <ele>166.3</ele>
        <time>2025-10-19T09:30:11Z</time>
      </trkpt>
      <trkpt lat="43.21019" lon="5.49125">
        <ele>166.4</ele>
        <time>2025-10-19T09:30:12Z</time>
      </trkpt>
      <trkpt lat="43.21019" lon="5.49125">
        <ele>166.6</ele>
        <time>2025-10-19T09:30:13Z</time>
      </trkpt>
      <trkpt lat="43.21019" lon="5.49125">
        <ele>166.5</ele>
        <time>2025-10-19T09:30:14Z</time>
      </trkpt>
      <trkpt lat="43.21019" lon="5.49125">
        <ele>166.5</ele>
        <time>2025-10-19T09:30:15Z</time>
      </trkpt>
      <trkpt lat="43.21019" lon="5.49125">
        <ele>166.4</ele>
        <time>2025-10-19T09:30:16Z</time>
      </trkpt>
      <trkpt lat="43.21019" lon="5.49125">
        <ele>166.6</ele>
        <time>2025-10-19T09:30:17Z</time>
      </trkpt>
      <trkpt lat="43.21019" lon="5.49125">
        <ele>166.6</ele>
        <time>2025-10-19T09:30:18Z</time>
      </trkpt>
      <trkpt lat="43.21019" lon="5.49125">
        <ele>166.7</ele>
        <time>2025-10-19T09:30:19Z</time>
      </trkpt>
      <trkpt lat="43.21019" lon="5.49125">
        <ele>166.8</ele>
        <time>2025-10-19T09:30:20Z</time>
      </trkpt>
      <trkpt lat="43.21019" lon="5.49125">
        <ele>166.7</ele>
        <time>2025-10-19T09:30:21Z</time>
      </trkpt>
      <trkpt lat="43.21019" lon="5.49125">
        <ele>166.8</ele>
        <time>2025-10-19T09:30:22Z</time>
      </trkpt>
      <trkpt lat="43.21019" lon="5.49125">
        <ele>166.8</ele>
        <time>2025-10-19T09:30:23Z</time>
      </trkpt>
      <trkpt lat="43.21019" lon="5.49125">
        <ele>166.8</ele>
        <time>2025-10-19T09:30:24Z</time>
      </trkpt>
      <trkpt lat="43.21019" lon="5.49125">
        <ele>166.9</ele>
        <time>2025-10-19T09:30:25Z</time>
      </trkpt>
      <trkpt lat="43.21019" lon="5.49125">
        <ele>166.8</ele>
        <time>2025-10-19T09:30:26Z</time>
      </trkpt>
      <trkpt lat="43.21019" lon="5.49125">
        <ele>166.8</ele>
        <time>2025-10-19T09:30:27Z</time>
      </trkpt>
      <trkpt lat="43.21019" lon="5.49125">
        <ele>166.8</ele>
        <time>2025-10-19T09:30:28Z</time>
      </trkpt>
      <trkpt lat="43.21019" lon="5.49125">
        <ele>166.8</ele>
        <time>2025-10-19T09:30:29Z</time>
      </trkpt>
      <trkpt lat="43.21019" lon="5.49125">
        <ele>166.8</ele>
        <time>2025-10-19T09:30:30Z</time>
      </trkpt>
      <trkpt lat="43.21019" lon="5.49125">
        <ele>166.7</ele>
        <time>2025-10-19T09:30:31Z</time>
      </trkpt>
      <trkpt lat="43.21019" lon="5.49125">
        <ele>166.7</ele>
        <time>2025-10-19T09:30:32Z</time>
      </trkpt>
      <trkpt lat="43.21019" lon="5.49125">
        <ele>166.7</ele>
        <time>2025-10-19T09:30:33Z</time>
      </trkpt>
      <trkpt lat="43.21019" lon="5.49125">
        <ele>166.7</ele>
        <time>2025-10-19T09:30:34Z</time>
      </trkpt>
      <trkpt lat="43.21019" lon="5.49125">
        <ele>166.8</ele>
        <time>2025-10-19T09:30:35Z</time>
      </trkpt>
      <trkpt lat="43.21018" lon="5.49125">
        <ele>166.9</ele>
        <time>2025-10-19T09:30:36Z</time>
      </trkpt>
      <trkpt lat="43.21018" lon="5.49125">
        <ele>166.9</ele>
        <time>2025-10-19T09:30:37Z</time>
      </trkpt>
      <trkpt lat="43.21017" lon="5.49126">
        <ele>166.9</ele>
        <time>2025-10-19T09:30:38Z</time>
      </trkpt>
      <trkpt lat="43.21017" lon="5.49127">
        <ele>166.8</ele>
        <time>2025-10-19T09:30:39Z</time>
      </trkpt>
      <trkpt lat="43.21017" lon="5.49128">
        <ele>166.7</ele>
        <time>2025-10-19T09:30:40Z</time>
      </trkpt>
      <trkpt lat="43.21016" lon="5.49128">
        <ele>166.6</ele>
        <time>2025-10-19T09:30:41Z</time>
      </trkpt>
      <trkpt lat="43.21015" lon="5.49128">
        <ele>166.6</ele>
        <time>2025-10-19T09:30:42Z</time>
      </trkpt>
      <trkpt lat="43.21015" lon="5.49129">
        <ele>166.5</ele>
        <time>2025-10-19T09:30:43Z</time>
      </trkpt>
      <trkpt lat="43.21014" lon="5.49129">
        <ele>166.5</ele>
        <time>2025-10-19T09:30:44Z</time>
      </trkpt>
      <trkpt lat="43.21014" lon="5.4913">
        <ele>166.4</ele>
        <time>2025-10-19T09:30:45Z</time>
      </trkpt>
      <trkpt lat="43.21013" lon="5.49131">
        <ele>166.4</ele>
        <time>2025-10-19T09:30:46Z</time>
      </trkpt>
      <trkpt lat="43.21013" lon="5.49132">
        <ele>166.4</ele>
        <time>2025-10-19T09:30:47Z</time>
      </trkpt>
      <trkpt lat="43.21012" lon="5.49132">
        <ele>166.4</ele>
        <time>2025-10-19T09:30:48Z</time>
      </trkpt>
      <trkpt lat="43.21011" lon="5.49133">
        <ele>166.6</ele>
        <time>2025-10-19T09:30:49Z</time>
      </trkpt>
      <trkpt lat="43.21011" lon="5.49133">
        <ele>166.6</ele>
        <time>2025-10-19T09:30:50Z</time>
      </trkpt>
      <trkpt lat="43.2101" lon="5.49135">
        <ele>166.7</ele>
        <time>2025-10-19T09:30:51Z</time>
      </trkpt>
      <trkpt lat="43.2101" lon="5.49135">
        <ele>166.7</ele>
        <time>2025-10-19T09:30:52Z</time>
      </trkpt>
      <trkpt lat="43.21009" lon="5.49137">
        <ele>166.7</ele>
        <time>2025-10-19T09:30:53Z</time>
      </trkpt>
      <trkpt lat="43.21009" lon="5.49138">
        <ele>166.7</ele>
        <time>2025-10-19T09:30:54Z</time>
      </trkpt>
      <trkpt lat="43.21008" lon="5.49139">
        <ele>166.8</ele>
        <time>2025-10-19T09:30:55Z</time>
      </trkpt>
      <trkpt lat="43.21008" lon="5.4914">
        <ele>166.9</ele>
        <time>2025-10-19T09:30:56Z</time>
      </trkpt>
      <trkpt lat="43.21007" lon="5.49142">
        <ele>166.9</ele>
        <time>2025-10-19T09:30:57Z</time>
      </trkpt>
      <trkpt lat="43.21006" lon="5.49143">
        <ele>166.9</ele>
        <time>2025-10-19T09:30:58Z</time>
      </trkpt>
      <trkpt lat="43.21006" lon="5.49143">
        <ele>167</ele>
        <time>2025-10-19T09:30:59Z</time>
      </trkpt>
      <trkpt lat="43.21005" lon="5.49144">
        <ele>167.1</ele>
        <time>2025-10-19T09:31:00Z</time>
      </trkpt>
      <trkpt lat="43.21004" lon="5.49145">
        <ele>167.1</ele>
        <time>2025-10-19T09:31:01Z</time>
      </trkpt>
      <trkpt lat="43.21004" lon="5.49146">
        <ele>167.1</ele>
        <time>2025-10-19T09:31:02Z</time>
      </trkpt>
      <trkpt lat="43.21003" lon="5.49147">
        <ele>167.1</ele>
        <time>2025-10-19T09:31:03Z</time>
      </trkpt>
      <trkpt lat="43.21002" lon="5.49148">
        <ele>167.3</ele>
        <time>2025-10-19T09:31:04Z</time>
      </trkpt>
      <trkpt lat="43.21002" lon="5.49149">
        <ele>167.4</ele>
        <time>2025-10-19T09:31:05Z</time>
      </trkpt>
      <trkpt lat="43.21001" lon="5.4915">
        <ele>167.4</ele>
        <time>2025-10-19T09:31:06Z</time>
      </trkpt>
      <trkpt lat="43.21" lon="5.49151">
        <ele>167.5</ele>
        <time>2025-10-19T09:31:07Z</time>
      </trkpt>
      <trkpt lat="43.21" lon="5.49151">
        <ele>167.5</ele>
        <time>2025-10-19T09:31:08Z</time>
      </trkpt>
      <trkpt lat="43.20999" lon="5.49152">
        <ele>167.6</ele>
        <time>2025-10-19T09:31:09Z</time>
      </trkpt>
      <trkpt lat="43.20999" lon="5.49153">
        <ele>167.6</ele>
        <time>2025-10-19T09:31:10Z</time>
      </trkpt>
      <trkpt lat="43.20998" lon="5.49154">
        <ele>167.7</ele>
        <time>2025-10-19T09:31:11Z</time>
      </trkpt>
      <trkpt lat="43.20998" lon="5.49155">
        <ele>167.8</ele>
        <time>2025-10-19T09:31:12Z</time>
      </trkpt>
      <trkpt lat="43.20997" lon="5.49156">
        <ele>167.8</ele>
        <time>2025-10-19T09:31:13Z</time>
      </trkpt>
      <trkpt lat="43.20997" lon="5.49156">
        <ele>167.9</ele>
        <time>2025-10-19T09:31:14Z</time>
      </trkpt>
      <trkpt lat="43.20996" lon="5.49157">
        <ele>168</ele>
        <time>2025-10-19T09:31:15Z</time>
      </trkpt>
      <trkpt lat="43.20996" lon="5.49158">
        <ele>168</ele>
        <time>2025-10-19T09:31:16Z</time>
      </trkpt>
      <trkpt lat="43.20995" lon="5.49159">
        <ele>168.1</ele>
        <time>2025-10-19T09:31:17Z</time>
      </trkpt>
      <trkpt lat="43.20994" lon="5.4916">
        <ele>168.2</ele>
        <time>2025-10-19T09:31:18Z</time>
      </trkpt>
      <trkpt lat="43.20994" lon="5.49161">
        <ele>168.3</ele>
        <time>2025-10-19T09:31:19Z</time>
      </trkpt>
      <trkpt lat="43.20994" lon="5.49162">
        <ele>168.3</ele>
        <time>2025-10-19T09:31:20Z</time>
      </trkpt>
      <trkpt lat="43.20993" lon="5.49163">
        <ele>168.4</ele>
        <time>2025-10-19T09:31:21Z</time>
      </trkpt>
      <trkpt lat="43.20993" lon="5.49164">
        <ele>168.5</ele>
        <time>2025-10-19T09:31:22Z</time>
      </trkpt>
      <trkpt lat="43.20992" lon="5.49164">
        <ele>168.5</ele>
        <time>2025-10-19T09:31:23Z</time>
      </trkpt>
      <trkpt lat="43.20992" lon="5.49164">
        <ele>168.6</ele>
        <time>2025-10-19T09:31:24Z</time>
      </trkpt>
      <trkpt lat="43.20991" lon="5.49165">
        <ele>168.8</ele>
        <time>2025-10-19T09:31:25Z</time>
      </trkpt>
      <trkpt lat="43.20991" lon="5.49166">
        <ele>169</ele>
        <time>2025-10-19T09:31:26Z</time>
      </trkpt>
      <trkpt lat="43.2099" lon="5.49167">
        <ele>169.1</ele>
        <time>2025-10-19T09:31:27Z</time>
      </trkpt>
      <trkpt lat="43.2099" lon="5.49167">
        <ele>169.3</ele>
        <time>2025-10-19T09:31:28Z</time>
      </trkpt>
      <trkpt lat="43.20989" lon="5.49168">
        <ele>169.4</ele>
        <time>2025-10-19T09:31:29Z</time>
      </trkpt>
      <trkpt lat="43.20988" lon="5.49169">
        <ele>169.5</ele>
        <time>2025-10-19T09:31:30Z</time>
      </trkpt>
      <trkpt lat="43.20988" lon="5.4917">
        <ele>169.6</ele>
        <time>2025-10-19T09:31:31Z</time>
      </trkpt>
      <trkpt lat="43.20988" lon="5.49171">
        <ele>169.7</ele>
        <time>2025-10-19T09:31:32Z</time>
      </trkpt>
      <trkpt lat="43.20987" lon="5.49172">
        <ele>169.8</ele>
        <time>2025-10-19T09:31:33Z</time>
      </trkpt>
      <trkpt lat="43.20986" lon="5.49173">
        <ele>169.8</ele>
        <time>2025-10-19T09:31:34Z</time>
      </trkpt>
      <trkpt lat="43.20986" lon="5.49173">
        <ele>169.9</ele>
        <time>2025-10-19T09:31:35Z</time>
      </trkpt>
      <trkpt lat="43.20985" lon="5.49174">
        <ele>169.9</ele>
        <time>2025-10-19T09:31:36Z</time>
      </trkpt>
      <trkpt lat="43.20985" lon="5.49175">
        <ele>170</ele>
        <time>2025-10-19T09:31:37Z</time>
      </trkpt>
      <trkpt lat="43.20984" lon="5.49176">
        <ele>170.1</ele>
        <time>2025-10-19T09:31:38Z</time>
      </trkpt>
      <trkpt lat="43.20983" lon="5.49177">
        <ele>170.2</ele>
        <time>2025-10-19T09:31:39Z</time>
      </trkpt>
      <trkpt lat="43.20983" lon="5.49178">
        <ele>170.3</ele>
        <time>2025-10-19T09:31:40Z</time>
      </trkpt>
      <trkpt lat="43.20983" lon="5.49179">
        <ele>170.6</ele>
        <time>2025-10-19T09:31:41Z</time>
      </trkpt>
      <trkpt lat="43.20982" lon="5.4918">
        <ele>170.7</ele>
        <time>2025-10-19T09:31:42Z</time>
      </trkpt>
      <trkpt lat="43.20982" lon="5.49181">
        <ele>170.9</ele>
        <time>2025-10-19T09:31:43Z</time>
      </trkpt>
      <trkpt lat="43.20981" lon="5.49182">
        <ele>171</ele>
        <time>2025-10-19T09:31:44Z</time>
      </trkpt>
      <trkpt lat="43.20981" lon="5.49183">
        <ele>171.2</ele>
        <time>2025-10-19T09:31:45Z</time>
      </trkpt>
      <trkpt lat="43.2098" lon="5.49183">
        <ele>171.4</ele>
        <time>2025-10-19T09:31:46Z</time>
      </trkpt>
      <trkpt lat="43.2098" lon="5.49184">
        <ele>171.6</ele>
        <time>2025-10-19T09:31:47Z</time>
      </trkpt>
      <trkpt lat="43.20979" lon="5.49184">
        <ele>171.7</ele>
        <time>2025-10-19T09:31:48Z</time>
      </trkpt>
      <trkpt lat="43.20978" lon="5.49185">
        <ele>171.9</ele>
        <time>2025-10-19T09:31:49Z</time>
      </trkpt>
      <trkpt lat="43.20978" lon="5.49186">
        <ele>172.1</ele>
        <time>2025-10-19T09:31:50Z</time>
      </trkpt>
      <trkpt lat="43.20978" lon="5.49187">
        <ele>172.2</ele>
        <time>2025-10-19T09:31:51Z</time>
      </trkpt>
      <trkpt lat="43.20977" lon="5.49187">
        <ele>172.3</ele>
        <time>2025-10-19T09:31:52Z</time>
      </trkpt>
      <trkpt lat="43.20977" lon="5.49188">
        <ele>172.4</ele>
        <time>2025-10-19T09:31:53Z</time>
      </trkpt>
      <trkpt lat="43.20976" lon="5.49189">
        <ele>172.5</ele>
        <time>2025-10-19T09:31:54Z</time>
      </trkpt>
      <trkpt lat="43.20976" lon="5.4919">
        <ele>172.6</ele>
        <time>2025-10-19T09:31:55Z</time>
      </trkpt>
      <trkpt lat="43.20975" lon="5.49191">
        <ele>172.7</ele>
        <time>2025-10-19T09:31:56Z</time>
      </trkpt>
      <trkpt lat="43.20974" lon="5.49192">
        <ele>172.8</ele>
        <time>2025-10-19T09:31:57Z</time>
      </trkpt>
      <trkpt lat="43.20974" lon="5.49192">
        <ele>172.9</ele>
        <time>2025-10-19T09:31:58Z</time>
      </trkpt>
      <trkpt lat="43.20974" lon="5.49193">
        <ele>173.1</ele>
        <time>2025-10-19T09:31:59Z</time>
      </trkpt>
      <trkpt lat="43.20973" lon="5.49194">
        <ele>173.2</ele>
        <time>2025-10-19T09:32:00Z</time>
      </trkpt>
      <trkpt lat="43.20973" lon="5.49195">
        <ele>173.4</ele>
        <time>2025-10-19T09:32:01Z</time>
      </trkpt>
      <trkpt lat="43.20972" lon="5.49196">
        <ele>173.5</ele>
        <time>2025-10-19T09:32:02Z</time>
      </trkpt>
      <trkpt lat="43.20972" lon="5.49197">
        <ele>173.8</ele>
        <time>2025-10-19T09:32:03Z</time>
      </trkpt>
      <trkpt lat="43.20971" lon="5.49198">
        <ele>173.8</ele>
        <time>2025-10-19T09:32:04Z</time>
      </trkpt>
      <trkpt lat="43.20971" lon="5.49198">
        <ele>173.9</ele>
        <time>2025-10-19T09:32:05Z</time>
      </trkpt>
      <trkpt lat="43.2097" lon="5.49199">
        <ele>174</ele>
        <time>2025-10-19T09:32:06Z</time>
      </trkpt>
      <trkpt lat="43.2097" lon="5.492">
        <ele>174.3</ele>
        <time>2025-10-19T09:32:07Z</time>
      </trkpt>
      <trkpt lat="43.2097" lon="5.49201">
        <ele>174.4</ele>
        <time>2025-10-19T09:32:08Z</time>
      </trkpt>
      <trkpt lat="43.20969" lon="5.49201">
        <ele>174.6</ele>
        <time>2025-10-19T09:32:09Z</time>
      </trkpt>
      <trkpt lat="43.20969" lon="5.49202">
        <ele>174.8</ele>
        <time>2025-10-19T09:32:10Z</time>
      </trkpt>
      <trkpt lat="43.20969" lon="5.49202">
        <ele>174.9</ele>
        <time>2025-10-19T09:32:11Z</time>
      </trkpt>
      <trkpt lat="43.20968" lon="5.49203">
        <ele>175.1</ele>
        <time>2025-10-19T09:32:12Z</time>
      </trkpt>
      <trkpt lat="43.20968" lon="5.49204">
        <ele>175.3</ele>
        <time>2025-10-19T09:32:13Z</time>
      </trkpt>
      <trkpt lat="43.20967" lon="5.49205">
        <ele>175.3</ele>
        <time>2025-10-19T09:32:14Z</time>
      </trkpt>
      <trkpt lat="43.20967" lon="5.49206">
        <ele>175.4</ele>
        <time>2025-10-19T09:32:15Z</time>
      </trkpt>
      <trkpt lat="43.20966" lon="5.49207">
        <ele>175.5</ele>
        <time>2025-10-19T09:32:16Z</time>
      </trkpt>
      <trkpt lat="43.20966" lon="5.49208">
        <ele>175.6</ele>
        <time>2025-10-19T09:32:17Z</time>
      </trkpt>
      <trkpt lat="43.20966" lon="5.49209">
        <ele>175.7</ele>
        <time>2025-10-19T09:32:18Z</time>
      </trkpt>
      <trkpt lat="43.20965" lon="5.4921">
        <ele>175.8</ele>
        <time>2025-10-19T09:32:19Z</time>
      </trkpt>
      <trkpt lat="43.20965" lon="5.49211">
        <ele>175.8</ele>
        <time>2025-10-19T09:32:20Z</time>
      </trkpt>
      <trkpt lat="43.20965" lon="5.49212">
        <ele>176</ele>
        <time>2025-10-19T09:32:21Z</time>
      </trkpt>
      <trkpt lat="43.20964" lon="5.49213">
        <ele>176.2</ele>
        <time>2025-10-19T09:32:22Z</time>
      </trkpt>
      <trkpt lat="43.20964" lon="5.49214">
        <ele>176.3</ele>
        <time>2025-10-19T09:32:23Z</time>
      </trkpt>
      <trkpt lat="43.20963" lon="5.49216">
        <ele>176.4</ele>
        <time>2025-10-19T09:32:24Z</time>
      </trkpt>
      <trkpt lat="43.20963" lon="5.49216">
        <ele>176.6</ele>
        <time>2025-10-19T09:32:25Z</time>
      </trkpt>
      <trkpt lat="43.20963" lon="5.49218">
        <ele>176.7</ele>
        <time>2025-10-19T09:32:26Z</time>
      </trkpt>
      <trkpt lat="43.20962" lon="5.4922">
        <ele>176.8</ele>
        <time>2025-10-19T09:32:27Z</time>
      </trkpt>
      <trkpt lat="43.20962" lon="5.49221">
        <ele>176.9</ele>
        <time>2025-10-19T09:32:28Z</time>
      </trkpt>
      <trkpt lat="43.20962" lon="5.49222">
        <ele>177</ele>
        <time>2025-10-19T09:32:29Z</time>
      </trkpt>
      <trkpt lat="43.20962" lon="5.49222">
        <ele>177.1</ele>
        <time>2025-10-19T09:32:30Z</time>
      </trkpt>
      <trkpt lat="43.20962" lon="5.49223">
        <ele>177.3</ele>
        <time>2025-10-19T09:32:31Z</time>
      </trkpt>
      <trkpt lat="43.20961" lon="5.49224">
        <ele>177.3</ele>
        <time>2025-10-19T09:32:32Z</time>
      </trkpt>
      <trkpt lat="43.20961" lon="5.49225">
        <ele>177.5</ele>
        <time>2025-10-19T09:32:33Z</time>
      </trkpt>
      <trkpt lat="43.20961" lon="5.49226">
        <ele>177.7</ele>
        <time>2025-10-19T09:32:34Z</time>
      </trkpt>
      <trkpt lat="43.20961" lon="5.49227">
        <ele>177.8</ele>
        <time>2025-10-19T09:32:35Z</time>
      </trkpt>
      <trkpt lat="43.20961" lon="5.49228">
        <ele>177.9</ele>
        <time>2025-10-19T09:32:36Z</time>
      </trkpt>
      <trkpt lat="43.20961" lon="5.49228">
        <ele>178.1</ele>
        <time>2025-10-19T09:32:37Z</time>
      </trkpt>
      <trkpt lat="43.2096" lon="5.49229">
        <ele>178.2</ele>
        <time>2025-10-19T09:32:38Z</time>
      </trkpt>
      <trkpt lat="43.2096" lon="5.4923">
        <ele>178.3</ele>
        <time>2025-10-19T09:32:39Z</time>
      </trkpt>
      <trkpt lat="43.20959" lon="5.49231">
        <ele>178.5</ele>
        <time>2025-10-19T09:32:40Z</time>
      </trkpt>
      <trkpt lat="43.20959" lon="5.49232">
        <ele>178.6</ele>
        <time>2025-10-19T09:32:41Z</time>
      </trkpt>
      <trkpt lat="43.20959" lon="5.49232">
        <ele>178.8</ele>
        <time>2025-10-19T09:32:42Z</time>
      </trkpt>
      <trkpt lat="43.20958" lon="5.49233">
        <ele>178.9</ele>
        <time>2025-10-19T09:32:43Z</time>
      </trkpt>
      <trkpt lat="43.20958" lon="5.49234">
        <ele>178.9</ele>
        <time>2025-10-19T09:32:44Z</time>
      </trkpt>
      <trkpt lat="43.20958" lon="5.49235">
        <ele>179</ele>
        <time>2025-10-19T09:32:45Z</time>
      </trkpt>
      <trkpt lat="43.20958" lon="5.49236">
        <ele>179.1</ele>
        <time>2025-10-19T09:32:46Z</time>
      </trkpt>
      <trkpt lat="43.20958" lon="5.49237">
        <ele>179.1</ele>
        <time>2025-10-19T09:32:47Z</time>
      </trkpt>
      <trkpt lat="43.20958" lon="5.49237">
        <ele>179.2</ele>
        <time>2025-10-19T09:32:48Z</time>
      </trkpt>
      <trkpt lat="43.20957" lon="5.49238">
        <ele>179.3</ele>
        <time>2025-10-19T09:32:49Z</time>
      </trkpt>
      <trkpt lat="43.20957" lon="5.49239">
        <ele>179.5</ele>
        <time>2025-10-19T09:32:50Z</time>
      </trkpt>
      <trkpt lat="43.20956" lon="5.4924">
        <ele>179.6</ele>
        <time>2025-10-19T09:32:51Z</time>
      </trkpt>
      <trkpt lat="43.20956" lon="5.4924">
        <ele>179.6</ele>
        <time>2025-10-19T09:32:52Z</time>
      </trkpt>
      <trkpt lat="43.20955" lon="5.49241">
        <ele>179.7</ele>
        <time>2025-10-19T09:32:53Z</time>
      </trkpt>
      <trkpt lat="43.20955" lon="5.49242">
        <ele>179.8</ele>
        <time>2025-10-19T09:32:54Z</time>
      </trkpt>
      <trkpt lat="43.20954" lon="5.49243">
        <ele>179.9</ele>
        <time>2025-10-19T09:32:55Z</time>
      </trkpt>
      <trkpt lat="43.20954" lon="5.49244">
        <ele>180</ele>
        <time>2025-10-19T09:32:56Z</time>
      </trkpt>
      <trkpt lat="43.20954" lon="5.49245">
        <ele>180.1</ele>
        <time>2025-10-19T09:32:57Z</time>
      </trkpt>
      <trkpt lat="43.20953" lon="5.49246">
        <ele>180.2</ele>
        <time>2025-10-19T09:32:58Z</time>
      </trkpt>
      <trkpt lat="43.20952" lon="5.49247">
        <ele>180.3</ele>
        <time>2025-10-19T09:32:59Z</time>
      </trkpt>
      <trkpt lat="43.20952" lon="5.49248">
        <ele>180.3</ele>
        <time>2025-10-19T09:33:00Z</time>
      </trkpt>
      <trkpt lat="43.20951" lon="5.49249">
        <ele>180.3</ele>
        <time>2025-10-19T09:33:01Z</time>
      </trkpt>
      <trkpt lat="43.20951" lon="5.4925">
        <ele>180.3</ele>
        <time>2025-10-19T09:33:02Z</time>
      </trkpt>
      <trkpt lat="43.2095" lon="5.49251">
        <ele>180.4</ele>
        <time>2025-10-19T09:33:03Z</time>
      </trkpt>
      <trkpt lat="43.2095" lon="5.49252">
        <ele>180.4</ele>
        <time>2025-10-19T09:33:04Z</time>
      </trkpt>
      <trkpt lat="43.2095" lon="5.49252">
        <ele>180.4</ele>
        <time>2025-10-19T09:33:05Z</time>
      </trkpt>
      <trkpt lat="43.20949" lon="5.49253">
        <ele>180.5</ele>
        <time>2025-10-19T09:33:06Z</time>
      </trkpt>
      <trkpt lat="43.20948" lon="5.49254">
        <ele>180.7</ele>
        <time>2025-10-19T09:33:07Z</time>
      </trkpt>
      <trkpt lat="43.20948" lon="5.49255">
        <ele>180.7</ele>
        <time>2025-10-19T09:33:08Z</time>
      </trkpt>
      <trkpt lat="43.20947" lon="5.49256">
        <ele>180.8</ele>
        <time>2025-10-19T09:33:09Z</time>
      </trkpt>
      <trkpt lat="43.20946" lon="5.49257">
        <ele>180.8</ele>
        <time>2025-10-19T09:33:10Z</time>
      </trkpt>
      <trkpt lat="43.20946" lon="5.49257">
        <ele>180.7</ele>
        <time>2025-10-19T09:33:11Z</time>
      </trkpt>
      <trkpt lat="43.20945" lon="5.49258">
        <ele>180.6</ele>
        <time>2025-10-19T09:33:12Z</time>
      </trkpt>
      <trkpt lat="43.20944" lon="5.49259">
        <ele>180.6</ele>
        <time>2025-10-19T09:33:13Z</time>
      </trkpt>
      <trkpt lat="43.20944" lon="5.4926">
        <ele>180.6</ele>
        <time>2025-10-19T09:33:14Z</time>
      </trkpt>
      <trkpt lat="43.20943" lon="5.49261">
        <ele>180.5</ele>
        <time>2025-10-19T09:33:15Z</time>
      </trkpt>
      <trkpt lat="43.20943" lon="5.49261">
        <ele>180.6</ele>
        <time>2025-10-19T09:33:16Z</time>
      </trkpt>
      <trkpt lat="43.20942" lon="5.49262">
        <ele>180.7</ele>
        <time>2025-10-19T09:33:17Z</time>
      </trkpt>
      <trkpt lat="43.20942" lon="5.49262">
        <ele>180.8</ele>
        <time>2025-10-19T09:33:18Z</time>
      </trkpt>
      <trkpt lat="43.20941" lon="5.49263">
        <ele>180.8</ele>
        <time>2025-10-19T09:33:19Z</time>
      </trkpt>
      <trkpt lat="43.2094" lon="5.49264">
        <ele>180.9</ele>
        <time>2025-10-19T09:33:20Z</time>
      </trkpt>
      <trkpt lat="43.20939" lon="5.49265">
        <ele>181.1</ele>
        <time>2025-10-19T09:33:21Z</time>
      </trkpt>
      <trkpt lat="43.20939" lon="5.49265">
        <ele>181.1</ele>
        <time>2025-10-19T09:33:22Z</time>
      </trkpt>
      <trkpt lat="43.20938" lon="5.49266">
        <ele>181</ele>
        <time>2025-10-19T09:33:23Z</time>
      </trkpt>
      <trkpt lat="43.20937" lon="5.49267">
        <ele>181</ele>
        <time>2025-10-19T09:33:24Z</time>
      </trkpt>
      <trkpt lat="43.20936" lon="5.49267">
        <ele>181</ele>
        <time>2025-10-19T09:33:25Z</time>
      </trkpt>
      <trkpt lat="43.20935" lon="5.49267">
        <ele>181</ele>
        <time>2025-10-19T09:33:26Z</time>
      </trkpt>
      <trkpt lat="43.20934" lon="5.49268">
        <ele>181</ele>
        <time>2025-10-19T09:33:27Z</time>
      </trkpt>
      <trkpt lat="43.20933" lon="5.49268">
        <ele>181.1</ele>
        <time>2025-10-19T09:33:28Z</time>
      </trkpt>
      <trkpt lat="43.20932" lon="5.49269">
        <ele>181.1</ele>
        <time>2025-10-19T09:33:29Z</time>
      </trkpt>
      <trkpt lat="43.20931" lon="5.49269">
        <ele>181.1</ele>
        <time>2025-10-19T09:33:30Z</time>
      </trkpt>
      <trkpt lat="43.2093" lon="5.4927">
        <ele>181.2</ele>
        <time>2025-10-19T09:33:31Z</time>
      </trkpt>
      <trkpt lat="43.2093" lon="5.4927">
        <ele>181.1</ele>
        <time>2025-10-19T09:33:32Z</time>
      </trkpt>
      <trkpt lat="43.20929" lon="5.49271">
        <ele>181.1</ele>
        <time>2025-10-19T09:33:33Z</time>
      </trkpt>
      <trkpt lat="43.20928" lon="5.49271">
        <ele>181</ele>
        <time>2025-10-19T09:33:34Z</time>
      </trkpt>
      <trkpt lat="43.20927" lon="5.49272">
        <ele>180.9</ele>
        <time>2025-10-19T09:33:35Z</time>
      </trkpt>
      <trkpt lat="43.20926" lon="5.49272">
        <ele>180.9</ele>
        <time>2025-10-19T09:33:36Z</time>
      </trkpt>
      <trkpt lat="43.20926" lon="5.49272">
        <ele>180.9</ele>
        <time>2025-10-19T09:33:37Z</time>
      </trkpt>
      <trkpt lat="43.20925" lon="5.49273">
        <ele>181</ele>
        <time>2025-10-19T09:33:38Z</time>
      </trkpt>
      <trkpt lat="43.20924" lon="5.49273">
        <ele>181</ele>
        <time>2025-10-19T09:33:39Z</time>
      </trkpt>
      <trkpt lat="43.20923" lon="5.49274">
        <ele>181.1</ele>
        <time>2025-10-19T09:33:40Z</time>
      </trkpt>
      <trkpt lat="43.20922" lon="5.49274">
        <ele>181.1</ele>
        <time>2025-10-19T09:33:41Z</time>
      </trkpt>
      <trkpt lat="43.20921" lon="5.49275">
        <ele>181.1</ele>
        <time>2025-10-19T09:33:42Z</time>
      </trkpt>
      <trkpt lat="43.2092" lon="5.49276">
        <ele>181.2</ele>
        <time>2025-10-19T09:33:43Z</time>
      </trkpt>
      <trkpt lat="43.20919" lon="5.49276">
        <ele>181.2</ele>
        <time>2025-10-19T09:33:44Z</time>
      </trkpt>
      <trkpt lat="43.20918" lon="5.49277">
        <ele>181.1</ele>
        <time>2025-10-19T09:33:45Z</time>
      </trkpt>
      <trkpt lat="43.20917" lon="5.49278">
        <ele>181.1</ele>
        <time>2025-10-19T09:33:46Z</time>
      </trkpt>
      <trkpt lat="43.20916" lon="5.49279">
        <ele>180.9</ele>
        <time>2025-10-19T09:33:47Z</time>
      </trkpt>
      <trkpt lat="43.20915" lon="5.49279">
        <ele>180.8</ele>
        <time>2025-10-19T09:33:48Z</time>
      </trkpt>
      <trkpt lat="43.20914" lon="5.4928">
        <ele>180.8</ele>
        <time>2025-10-19T09:33:49Z</time>
      </trkpt>
      <trkpt lat="43.20913" lon="5.4928">
        <ele>180.7</ele>
        <time>2025-10-19T09:33:50Z</time>
      </trkpt>
      <trkpt lat="43.20912" lon="5.4928">
        <ele>180.7</ele>
        <time>2025-10-19T09:33:51Z</time>
      </trkpt>
      <trkpt lat="43.20911" lon="5.4928">
        <ele>180.7</ele>
        <time>2025-10-19T09:33:52Z</time>
      </trkpt>
      <trkpt lat="43.20911" lon="5.49281">
        <ele>180.7</ele>
        <time>2025-10-19T09:33:53Z</time>
      </trkpt>
      <trkpt lat="43.2091" lon="5.49281">
        <ele>180.6</ele>
        <time>2025-10-19T09:33:54Z</time>
      </trkpt>
      <trkpt lat="43.20909" lon="5.49281">
        <ele>180.5</ele>
        <time>2025-10-19T09:33:55Z</time>
      </trkpt>
      <trkpt lat="43.20908" lon="5.49282">
        <ele>180.4</ele>
        <time>2025-10-19T09:33:56Z</time>
      </trkpt>
      <trkpt lat="43.20907" lon="5.49282">
        <ele>180.3</ele>
        <time>2025-10-19T09:33:57Z</time>
      </trkpt>
      <trkpt lat="43.20906" lon="5.49283">
        <ele>180.3</ele>
        <time>2025-10-19T09:33:58Z</time>
      </trkpt>
      <trkpt lat="43.20905" lon="5.49283">
        <ele>180.3</ele>
        <time>2025-10-19T09:33:59Z</time>
      </trkpt>
      <trkpt lat="43.20904" lon="5.49284">
        <ele>180.3</ele>
        <time>2025-10-19T09:34:00Z</time>
      </trkpt>
      <trkpt lat="43.20904" lon="5.49284">
        <ele>180.2</ele>
        <time>2025-10-19T09:34:01Z</time>
      </trkpt>
      <trkpt lat="43.20903" lon="5.49284">
        <ele>180.2</ele>
        <time>2025-10-19T09:34:02Z</time>
      </trkpt>
      <trkpt lat="43.20902" lon="5.49285">
        <ele>180.1</ele>
        <time>2025-10-19T09:34:03Z</time>
      </trkpt>
      <trkpt lat="43.20901" lon="5.49285">
        <ele>180.1</ele>
        <time>2025-10-19T09:34:04Z</time>
      </trkpt>
      <trkpt lat="43.209" lon="5.49286">
        <ele>180.1</ele>
        <time>2025-10-19T09:34:05Z</time>
      </trkpt>
      <trkpt lat="43.20899" lon="5.49286">
        <ele>179.9</ele>
        <time>2025-10-19T09:34:06Z</time>
      </trkpt>
      <trkpt lat="43.20898" lon="5.49286">
        <ele>180</ele>
        <time>2025-10-19T09:34:07Z</time>
      </trkpt>
      <trkpt lat="43.20897" lon="5.49286">
        <ele>180</ele>
        <time>2025-10-19T09:34:08Z</time>
      </trkpt>
      <trkpt lat="43.20896" lon="5.49286">
        <ele>179.9</ele>
        <time>2025-10-19T09:34:09Z</time>
      </trkpt>
      <trkpt lat="43.20895" lon="5.49287">
        <ele>179.9</ele>
        <time>2025-10-19T09:34:10Z</time>
      </trkpt>
      <trkpt lat="43.20894" lon="5.49287">
        <ele>179.8</ele>
        <time>2025-10-19T09:34:11Z</time>
      </trkpt>
      <trkpt lat="43.20893" lon="5.49287">
        <ele>179.6</ele>
        <time>2025-10-19T09:34:12Z</time>
      </trkpt>
      <trkpt lat="43.20892" lon="5.49288">
        <ele>179.6</ele>
        <time>2025-10-19T09:34:13Z</time>
      </trkpt>
      <trkpt lat="43.20891" lon="5.49288">
        <ele>179.5</ele>
        <time>2025-10-19T09:34:14Z</time>
      </trkpt>
      <trkpt lat="43.2089" lon="5.49288">
        <ele>179.5</ele>
        <time>2025-10-19T09:34:15Z</time>
      </trkpt>
      <trkpt lat="43.20889" lon="5.49289">
        <ele>179.4</ele>
        <time>2025-10-19T09:34:16Z</time>
      </trkpt>
      <trkpt lat="43.20888" lon="5.49289">
        <ele>179.4</ele>
        <time>2025-10-19T09:34:17Z</time>
      </trkpt>
      <trkpt lat="43.20887" lon="5.49289">
        <ele>179.3</ele>
        <time>2025-10-19T09:34:18Z</time>
      </trkpt>
      <trkpt lat="43.20886" lon="5.4929">
        <ele>179.2</ele>
        <time>2025-10-19T09:34:19Z</time>
      </trkpt>
      <trkpt lat="43.20885" lon="5.4929">
        <ele>179.1</ele>
        <time>2025-10-19T09:34:20Z</time>
      </trkpt>
      <trkpt lat="43.20884" lon="5.4929">
        <ele>178.9</ele>
        <time>2025-10-19T09:34:21Z</time>
      </trkpt>
      <trkpt lat="43.20883" lon="5.4929">
        <ele>178.8</ele>
        <time>2025-10-19T09:34:22Z</time>
      </trkpt>
      <trkpt lat="43.20882" lon="5.4929">
        <ele>178.7</ele>
        <time>2025-10-19T09:34:23Z</time>
      </trkpt>
      <trkpt lat="43.20881" lon="5.49291">
        <ele>178.6</ele>
        <time>2025-10-19T09:34:24Z</time>
      </trkpt>
      <trkpt lat="43.2088" lon="5.49291">
        <ele>178.6</ele>
        <time>2025-10-19T09:34:25Z</time>
      </trkpt>
      <trkpt lat="43.20879" lon="5.49291">
        <ele>178.6</ele>
        <time>2025-10-19T09:34:26Z</time>
      </trkpt>
      <trkpt lat="43.20878" lon="5.49292">
        <ele>178.5</ele>
        <time>2025-10-19T09:34:27Z</time>
      </trkpt>
      <trkpt lat="43.20877" lon="5.49291">
        <ele>178.5</ele>
        <time>2025-10-19T09:34:28Z</time>
      </trkpt>
      <trkpt lat="43.20876" lon="5.49292">
        <ele>178.4</ele>
        <time>2025-10-19T09:34:29Z</time>
      </trkpt>
      <trkpt lat="43.20875" lon="5.49292">
        <ele>178.3</ele>
        <time>2025-10-19T09:34:30Z</time>
      </trkpt>
      <trkpt lat="43.20874" lon="5.49292">
        <ele>178.2</ele>
        <time>2025-10-19T09:34:31Z</time>
      </trkpt>
      <trkpt lat="43.20873" lon="5.49293">
        <ele>178.1</ele>
        <time>2025-10-19T09:34:32Z</time>
      </trkpt>
      <trkpt lat="43.20873" lon="5.49293">
        <ele>178.1</ele>
        <time>2025-10-19T09:34:33Z</time>
      </trkpt>
      <trkpt lat="43.20872" lon="5.49295">
        <ele>178</ele>
        <time>2025-10-19T09:34:34Z</time>
      </trkpt>
      <trkpt lat="43.20871" lon="5.49295">
        <ele>178</ele>
        <time>2025-10-19T09:34:35Z</time>
      </trkpt>
      <trkpt lat="43.2087" lon="5.49296">
        <ele>177.9</ele>
        <time>2025-10-19T09:34:36Z</time>
      </trkpt>
      <trkpt lat="43.20869" lon="5.49296">
        <ele>177.8</ele>
        <time>2025-10-19T09:34:37Z</time>
      </trkpt>
      <trkpt lat="43.20868" lon="5.49296">
        <ele>177.7</ele>
        <time>2025-10-19T09:34:38Z</time>
      </trkpt>
      <trkpt lat="43.20867" lon="5.49297">
        <ele>177.6</ele>
        <time>2025-10-19T09:34:39Z</time>
      </trkpt>
      <trkpt lat="43.20866" lon="5.49297">
        <ele>177.5</ele>
        <time>2025-10-19T09:34:40Z</time>
      </trkpt>
      <trkpt lat="43.20866" lon="5.49298">
        <ele>177.4</ele>
        <time>2025-10-19T09:34:41Z</time>
      </trkpt>
      <trkpt lat="43.20865" lon="5.49299">
        <ele>177.3</ele>
        <time>2025-10-19T09:34:42Z</time>
      </trkpt>
      <trkpt lat="43.20864" lon="5.49299">
        <ele>177.1</ele>
        <time>2025-10-19T09:34:43Z</time>
      </trkpt>
      <trkpt lat="43.20863" lon="5.49299">
        <ele>177.1</ele>
        <time>2025-10-19T09:34:44Z</time>
      </trkpt>
      <trkpt lat="43.20862" lon="5.493">
        <ele>177</ele>
        <time>2025-10-19T09:34:45Z</time>
      </trkpt>
      <trkpt lat="43.20861" lon="5.49301">
        <ele>176.9</ele>
        <time>2025-10-19T09:34:46Z</time>
      </trkpt>
      <trkpt lat="43.2086" lon="5.49301">
        <ele>176.9</ele>
        <time>2025-10-19T09:34:47Z</time>
      </trkpt>
      <trkpt lat="43.20859" lon="5.49302">
        <ele>176.8</ele>
        <time>2025-10-19T09:34:48Z</time>
      </trkpt>
      <trkpt lat="43.20859" lon="5.49302">
        <ele>176.8</ele>
        <time>2025-10-19T09:34:49Z</time>
      </trkpt>
      <trkpt lat="43.20858" lon="5.49303">
        <ele>176.8</ele>
        <time>2025-10-19T09:34:50Z</time>
      </trkpt>
      <trkpt lat="43.20857" lon="5.49303">
        <ele>176.7</ele>
        <time>2025-10-19T09:34:51Z</time>
      </trkpt>
      <trkpt lat="43.20856" lon="5.49304">
        <ele>176.7</ele>
        <time>2025-10-19T09:34:52Z</time>
      </trkpt>
      <trkpt lat="43.20856" lon="5.49304">
        <ele>176.5</ele>
        <time>2025-10-19T09:34:53Z</time>
      </trkpt>
      <trkpt lat="43.20855" lon="5.49304">
        <ele>176.4</ele>
        <time>2025-10-19T09:34:54Z</time>
      </trkpt>
      <trkpt lat="43.20854" lon="5.49304">
        <ele>176.3</ele>
        <time>2025-10-19T09:34:55Z</time>
      </trkpt>
      <trkpt lat="43.20853" lon="5.49305">
        <ele>176.2</ele>
        <time>2025-10-19T09:34:56Z</time>
      </trkpt>
      <trkpt lat="43.20852" lon="5.49305">
        <ele>176.1</ele>
        <time>2025-10-19T09:34:57Z</time>
      </trkpt>
      <trkpt lat="43.20851" lon="5.49306">
        <ele>176</ele>
        <time>2025-10-19T09:34:58Z</time>
      </trkpt>
      <trkpt lat="43.2085" lon="5.49306">
        <ele>176</ele>
        <time>2025-10-19T09:34:59Z</time>
      </trkpt>
      <trkpt lat="43.2085" lon="5.49307">
        <ele>175.9</ele>
        <time>2025-10-19T09:35:00Z</time>
      </trkpt>
      <trkpt lat="43.20849" lon="5.49308">
        <ele>175.8</ele>
        <time>2025-10-19T09:35:01Z</time>
      </trkpt>
      <trkpt lat="43.20848" lon="5.49308">
        <ele>175.8</ele>
        <time>2025-10-19T09:35:02Z</time>
      </trkpt>
      <trkpt lat="43.20847" lon="5.49308">
        <ele>175.7</ele>
        <time>2025-10-19T09:35:03Z</time>
      </trkpt>
      <trkpt lat="43.20846" lon="5.49308">
        <ele>175.7</ele>
        <time>2025-10-19T09:35:04Z</time>
      </trkpt>
      <trkpt lat="43.20845" lon="5.49308">
        <ele>175.6</ele>
        <time>2025-10-19T09:35:05Z</time>
      </trkpt>
      <trkpt lat="43.20844" lon="5.49309">
        <ele>175.5</ele>
        <time>2025-10-19T09:35:06Z</time>
      </trkpt>
      <trkpt lat="43.20843" lon="5.49309">
        <ele>175.5</ele>
        <time>2025-10-19T09:35:07Z</time>
      </trkpt>
      <trkpt lat="43.20842" lon="5.49309">
        <ele>175.4</ele>
        <time>2025-10-19T09:35:08Z</time>
      </trkpt>
      <trkpt lat="43.20841" lon="5.49309">
        <ele>175.3</ele>
        <time>2025-10-19T09:35:09Z</time>
      </trkpt>
      <trkpt lat="43.2084" lon="5.4931">
        <ele>175.2</ele>
        <time>2025-10-19T09:35:10Z</time>
      </trkpt>
      <trkpt lat="43.20839" lon="5.4931">
        <ele>175.1</ele>
        <time>2025-10-19T09:35:11Z</time>
      </trkpt>
      <trkpt lat="43.20838" lon="5.4931">
        <ele>175</ele>
        <time>2025-10-19T09:35:12Z</time>
      </trkpt>
      <trkpt lat="43.20837" lon="5.4931">
        <ele>174.9</ele>
        <time>2025-10-19T09:35:13Z</time>
      </trkpt>
      <trkpt lat="43.20836" lon="5.49311">
        <ele>174.7</ele>
        <time>2025-10-19T09:35:14Z</time>
      </trkpt>
      <trkpt lat="43.20835" lon="5.49311">
        <ele>174.7</ele>
        <time>2025-10-19T09:35:15Z</time>
      </trkpt>
      <trkpt lat="43.20834" lon="5.49311">
        <ele>174.7</ele>
        <time>2025-10-19T09:35:16Z</time>
      </trkpt>
      <trkpt lat="43.20833" lon="5.49311">
        <ele>174.6</ele>
        <time>2025-10-19T09:35:17Z</time>
      </trkpt>
      <trkpt lat="43.20833" lon="5.49311">
        <ele>174.5</ele>
        <time>2025-10-19T09:35:18Z</time>
      </trkpt>
      <trkpt lat="43.20832" lon="5.49311">
        <ele>174.5</ele>
        <time>2025-10-19T09:35:19Z</time>
      </trkpt>
      <trkpt lat="43.20831" lon="5.49311">
        <ele>174.3</ele>
        <time>2025-10-19T09:35:20Z</time>
      </trkpt>
      <trkpt lat="43.2083" lon="5.49311">
        <ele>174.3</ele>
        <time>2025-10-19T09:35:21Z</time>
      </trkpt>
      <trkpt lat="43.20829" lon="5.49311">
        <ele>174.3</ele>
        <time>2025-10-19T09:35:22Z</time>
      </trkpt>
      <trkpt lat="43.20828" lon="5.49312">
        <ele>174.1</ele>
        <time>2025-10-19T09:35:23Z</time>
      </trkpt>
      <trkpt lat="43.20827" lon="5.49312">
        <ele>174.1</ele>
        <time>2025-10-19T09:35:24Z</time>
      </trkpt>
      <trkpt lat="43.20826" lon="5.49312">
        <ele>174</ele>
        <time>2025-10-19T09:35:25Z</time>
      </trkpt>
      <trkpt lat="43.20825" lon="5.49312">
        <ele>173.9</ele>
        <time>2025-10-19T09:35:26Z</time>
      </trkpt>
      <trkpt lat="43.20825" lon="5.49312">
        <ele>173.8</ele>
        <time>2025-10-19T09:35:27Z</time>
      </trkpt>
      <trkpt lat="43.20824" lon="5.49312">
        <ele>173.7</ele>
        <time>2025-10-19T09:35:28Z</time>
      </trkpt>
      <trkpt lat="43.20823" lon="5.49313">
        <ele>173.7</ele>
        <time>2025-10-19T09:35:29Z</time>
      </trkpt>
      <trkpt lat="43.20822" lon="5.49313">
        <ele>173.6</ele>
        <time>2025-10-19T09:35:30Z</time>
      </trkpt>
      <trkpt lat="43.20821" lon="5.49313">
        <ele>173.5</ele>
        <time>2025-10-19T09:35:31Z</time>
      </trkpt>
      <trkpt lat="43.2082" lon="5.49313">
        <ele>173.4</ele>
        <time>2025-10-19T09:35:32Z</time>
      </trkpt>
      <trkpt lat="43.2082" lon="5.49314">
        <ele>173.2</ele>
        <time>2025-10-19T09:35:33Z</time>
      </trkpt>
      <trkpt lat="43.20819" lon="5.49314">
        <ele>173.1</ele>
        <time>2025-10-19T09:35:34Z</time>
      </trkpt>
      <trkpt lat="43.20818" lon="5.49315">
        <ele>173</ele>
        <time>2025-10-19T09:35:35Z</time>
      </trkpt>
      <trkpt lat="43.20817" lon="5.49315">
        <ele>172.9</ele>
        <time>2025-10-19T09:35:36Z</time>
      </trkpt>
      <trkpt lat="43.20816" lon="5.49315">
        <ele>172.9</ele>
        <time>2025-10-19T09:35:37Z</time>
      </trkpt>
      <trkpt lat="43.20814" lon="5.49316">
        <ele>172.8</ele>
        <time>2025-10-19T09:35:38Z</time>
      </trkpt>
      <trkpt lat="43.20813" lon="5.49316">
        <ele>172.7</ele>
        <time>2025-10-19T09:35:39Z</time>
      </trkpt>
      <trkpt lat="43.20812" lon="5.49317">
        <ele>172.6</ele>
        <time>2025-10-19T09:35:40Z</time>
      </trkpt>
      <trkpt lat="43.20811" lon="5.49317">
        <ele>172.5</ele>
        <time>2025-10-19T09:35:41Z</time>
      </trkpt>
      <trkpt lat="43.2081" lon="5.49318">
        <ele>172.4</ele>
        <time>2025-10-19T09:35:42Z</time>
      </trkpt>
      <trkpt lat="43.20809" lon="5.49318">
        <ele>172.2</ele>
        <time>2025-10-19T09:35:43Z</time>
      </trkpt>
      <trkpt lat="43.20808" lon="5.49319">
        <ele>172.1</ele>
        <time>2025-10-19T09:35:44Z</time>
      </trkpt>
      <trkpt lat="43.20807" lon="5.49319">
        <ele>172</ele>
        <time>2025-10-19T09:35:45Z</time>
      </trkpt>
      <trkpt lat="43.20806" lon="5.49319">
        <ele>172</ele>
        <time>2025-10-19T09:35:46Z</time>
      </trkpt>
      <trkpt lat="43.20806" lon="5.4932">
        <ele>171.9</ele>
        <time>2025-10-19T09:35:47Z</time>
      </trkpt>
      <trkpt lat="43.20805" lon="5.4932">
        <ele>171.8</ele>
        <time>2025-10-19T09:35:48Z</time>
      </trkpt>
      <trkpt lat="43.20804" lon="5.4932">
        <ele>171.7</ele>
        <time>2025-10-19T09:35:49Z</time>
      </trkpt>
      <trkpt lat="43.20803" lon="5.4932">
        <ele>171.6</ele>
        <time>2025-10-19T09:35:50Z</time>
      </trkpt>
      <trkpt lat="43.20802" lon="5.49321">
        <ele>171.5</ele>
        <time>2025-10-19T09:35:51Z</time>
      </trkpt>
      <trkpt lat="43.20802" lon="5.49321">
        <ele>171.3</ele>
        <time>2025-10-19T09:35:52Z</time>
      </trkpt>
      <trkpt lat="43.20801" lon="5.49322">
        <ele>171.4</ele>
        <time>2025-10-19T09:35:53Z</time>
      </trkpt>
      <trkpt lat="43.208" lon="5.49322">
        <ele>171.3</ele>
        <time>2025-10-19T09:35:54Z</time>
      </trkpt>
      <trkpt lat="43.20799" lon="5.49323">
        <ele>171.2</ele>
        <time>2025-10-19T09:35:55Z</time>
      </trkpt>
      <trkpt lat="43.20798" lon="5.49323">
        <ele>171.1</ele>
        <time>2025-10-19T09:35:56Z</time>
      </trkpt>
      <trkpt lat="43.20797" lon="5.49323">
        <ele>171</ele>
        <time>2025-10-19T09:35:57Z</time>
      </trkpt>
      <trkpt lat="43.20796" lon="5.49324">
        <ele>171</ele>
        <time>2025-10-19T09:35:58Z</time>
      </trkpt>
      <trkpt lat="43.20795" lon="5.49323">
        <ele>170.9</ele>
        <time>2025-10-19T09:35:59Z</time>
      </trkpt>
      <trkpt lat="43.20794" lon="5.49323">
        <ele>170.8</ele>
        <time>2025-10-19T09:36:00Z</time>
      </trkpt>
      <trkpt lat="43.20793" lon="5.49323">
        <ele>170.8</ele>
        <time>2025-10-19T09:36:01Z</time>
      </trkpt>
      <trkpt lat="43.20792" lon="5.49323">
        <ele>170.7</ele>
        <time>2025-10-19T09:36:02Z</time>
      </trkpt>
      <trkpt lat="43.20791" lon="5.49323">
        <ele>170.7</ele>
        <time>2025-10-19T09:36:03Z</time>
      </trkpt>
      <trkpt lat="43.2079" lon="5.49324">
        <ele>170.7</ele>
        <time>2025-10-19T09:36:04Z</time>
      </trkpt>
      <trkpt lat="43.20789" lon="5.49324">
        <ele>170.6</ele>
        <time>2025-10-19T09:36:05Z</time>
      </trkpt>
      <trkpt lat="43.20788" lon="5.49324">
        <ele>170.6</ele>
        <time>2025-10-19T09:36:06Z</time>
      </trkpt>
      <trkpt lat="43.20787" lon="5.49324">
        <ele>170.4</ele>
        <time>2025-10-19T09:36:07Z</time>
      </trkpt>
      <trkpt lat="43.20786" lon="5.49324">
        <ele>170.3</ele>
        <time>2025-10-19T09:36:08Z</time>
      </trkpt>
      <trkpt lat="43.20785" lon="5.49325">
        <ele>170.2</ele>
        <time>2025-10-19T09:36:09Z</time>
      </trkpt>
      <trkpt lat="43.20784" lon="5.49325">
        <ele>170.1</ele>
        <time>2025-10-19T09:36:10Z</time>
      </trkpt>
      <trkpt lat="43.20783" lon="5.49326">
        <ele>170.1</ele>
        <time>2025-10-19T09:36:11Z</time>
      </trkpt>
      <trkpt lat="43.20782" lon="5.49326">
        <ele>170.1</ele>
        <time>2025-10-19T09:36:12Z</time>
      </trkpt>
      <trkpt lat="43.20781" lon="5.49327">
        <ele>170</ele>
        <time>2025-10-19T09:36:13Z</time>
      </trkpt>
      <trkpt lat="43.20781" lon="5.49327">
        <ele>170.1</ele>
        <time>2025-10-19T09:36:14Z</time>
      </trkpt>
      <trkpt lat="43.2078" lon="5.49327">
        <ele>170.1</ele>
        <time>2025-10-19T09:36:15Z</time>
      </trkpt>
      <trkpt lat="43.20779" lon="5.49328">
        <ele>169.9</ele>
        <time>2025-10-19T09:36:16Z</time>
      </trkpt>
      <trkpt lat="43.20778" lon="5.49328">
        <ele>169.8</ele>
        <time>2025-10-19T09:36:17Z</time>
      </trkpt>
      <trkpt lat="43.20777" lon="5.49328">
        <ele>169.7</ele>
        <time>2025-10-19T09:36:18Z</time>
      </trkpt>
      <trkpt lat="43.20776" lon="5.49328">
        <ele>169.6</ele>
        <time>2025-10-19T09:36:19Z</time>
      </trkpt>
      <trkpt lat="43.20775" lon="5.49328">
        <ele>169.5</ele>
        <time>2025-10-19T09:36:20Z</time>
      </trkpt>
      <trkpt lat="43.20774" lon="5.49328">
        <ele>169.4</ele>
        <time>2025-10-19T09:36:21Z</time>
      </trkpt>
      <trkpt lat="43.20773" lon="5.49329">
        <ele>169.3</ele>
        <time>2025-10-19T09:36:22Z</time>
      </trkpt>
      <trkpt lat="43.20772" lon="5.49329">
        <ele>169.2</ele>
        <time>2025-10-19T09:36:23Z</time>
      </trkpt>
      <trkpt lat="43.20771" lon="5.49329">
        <ele>169</ele>
        <time>2025-10-19T09:36:24Z</time>
      </trkpt>
      <trkpt lat="43.2077" lon="5.4933">
        <ele>168.8</ele>
        <time>2025-10-19T09:36:25Z</time>
      </trkpt>
      <trkpt lat="43.20769" lon="5.4933">
        <ele>168.7</ele>
        <time>2025-10-19T09:36:26Z</time>
      </trkpt>
      <trkpt lat="43.20768" lon="5.4933">
        <ele>168.5</ele>
        <time>2025-10-19T09:36:27Z</time>
      </trkpt>
      <trkpt lat="43.20767" lon="5.49331">
        <ele>168.4</ele>
        <time>2025-10-19T09:36:28Z</time>
      </trkpt>
      <trkpt lat="43.20766" lon="5.49331">
        <ele>168.2</ele>
        <time>2025-10-19T09:36:29Z</time>
      </trkpt>
      <trkpt lat="43.20765" lon="5.49331">
        <ele>168.1</ele>
        <time>2025-10-19T09:36:30Z</time>
      </trkpt>
      <trkpt lat="43.20764" lon="5.49331">
        <ele>168</ele>
        <time>2025-10-19T09:36:31Z</time>
      </trkpt>
      <trkpt lat="43.20763" lon="5.49331">
        <ele>167.9</ele>
        <time>2025-10-19T09:36:32Z</time>
      </trkpt>
      <trkpt lat="43.20762" lon="5.49331">
        <ele>167.8</ele>
        <time>2025-10-19T09:36:33Z</time>
      </trkpt>
      <trkpt lat="43.20761" lon="5.49331">
        <ele>167.7</ele>
        <time>2025-10-19T09:36:34Z</time>
      </trkpt>
      <trkpt lat="43.2076" lon="5.49331">
        <ele>167.6</ele>
        <time>2025-10-19T09:36:35Z</time>
      </trkpt>
      <trkpt lat="43.20759" lon="5.49331">
        <ele>167.6</ele>
        <time>2025-10-19T09:36:36Z</time>
      </trkpt>
      <trkpt lat="43.20758" lon="5.49331">
        <ele>167.5</ele>
        <time>2025-10-19T09:36:37Z</time>
      </trkpt>
      <trkpt lat="43.20757" lon="5.49331">
        <ele>167.4</ele>
        <time>2025-10-19T09:36:38Z</time>
      </trkpt>
      <trkpt lat="43.20756" lon="5.49331">
        <ele>167.3</ele>
        <time>2025-10-19T09:36:39Z</time>
      </trkpt>
      <trkpt lat="43.20755" lon="5.49331">
        <ele>167.2</ele>
        <time>2025-10-19T09:36:40Z</time>
      </trkpt>
      <trkpt lat="43.20754" lon="5.49331">
        <ele>167.1</ele>
        <time>2025-10-19T09:36:41Z</time>
      </trkpt>
      <trkpt lat="43.20753" lon="5.49332">
        <ele>166.9</ele>
        <time>2025-10-19T09:36:42Z</time>
      </trkpt>
      <trkpt lat="43.20752" lon="5.49332">
        <ele>166.8</ele>
        <time>2025-10-19T09:36:43Z</time>
      </trkpt>
      <trkpt lat="43.20751" lon="5.49332">
        <ele>166.7</ele>
        <time>2025-10-19T09:36:44Z</time>
      </trkpt>
      <trkpt lat="43.2075" lon="5.49332">
        <ele>166.6</ele>
        <time>2025-10-19T09:36:45Z</time>
      </trkpt>
      <trkpt lat="43.20749" lon="5.49332">
        <ele>166.4</ele>
        <time>2025-10-19T09:36:46Z</time>
      </trkpt>
      <trkpt lat="43.20748" lon="5.49332">
        <ele>166.3</ele>
        <time>2025-10-19T09:36:47Z</time>
      </trkpt>
      <trkpt lat="43.20747" lon="5.49332">
        <ele>166.2</ele>
        <time>2025-10-19T09:36:48Z</time>
      </trkpt>
      <trkpt lat="43.20746" lon="5.49332">
        <ele>166.2</ele>
        <time>2025-10-19T09:36:49Z</time>
      </trkpt>
      <trkpt lat="43.20745" lon="5.49332">
        <ele>166</ele>
        <time>2025-10-19T09:36:50Z</time>
      </trkpt>
      <trkpt lat="43.20744" lon="5.49332">
        <ele>165.8</ele>
        <time>2025-10-19T09:36:51Z</time>
      </trkpt>
      <trkpt lat="43.20743" lon="5.49333">
        <ele>165.7</ele>
        <time>2025-10-19T09:36:52Z</time>
      </trkpt>
      <trkpt lat="43.20742" lon="5.49333">
        <ele>165.6</ele>
        <time>2025-10-19T09:36:53Z</time>
      </trkpt>
      <trkpt lat="43.20741" lon="5.49333">
        <ele>165.5</ele>
        <time>2025-10-19T09:36:54Z</time>
      </trkpt>
      <trkpt lat="43.2074" lon="5.49333">
        <ele>165.3</ele>
        <time>2025-10-19T09:36:55Z</time>
      </trkpt>
      <trkpt lat="43.20738" lon="5.49333">
        <ele>165.1</ele>
        <time>2025-10-19T09:36:56Z</time>
      </trkpt>
      <trkpt lat="43.20737" lon="5.49333">
        <ele>165</ele>
        <time>2025-10-19T09:36:57Z</time>
      </trkpt>
      <trkpt lat="43.20736" lon="5.49334">
        <ele>165</ele>
        <time>2025-10-19T09:36:58Z</time>
      </trkpt>
      <trkpt lat="43.20735" lon="5.49334">
        <ele>164.9</ele>
        <time>2025-10-19T09:36:59Z</time>
      </trkpt>
      <trkpt lat="43.20734" lon="5.49334">
        <ele>164.8</ele>
        <time>2025-10-19T09:37:00Z</time>
      </trkpt>
      <trkpt lat="43.20733" lon="5.49334">
        <ele>164.8</ele>
        <time>2025-10-19T09:37:01Z</time>
      </trkpt>
      <trkpt lat="43.20732" lon="5.49335">
        <ele>164.7</ele>
        <time>2025-10-19T09:37:02Z</time>
      </trkpt>
      <trkpt lat="43.20732" lon="5.49335">
        <ele>164.6</ele>
        <time>2025-10-19T09:37:03Z</time>
      </trkpt>
      <trkpt lat="43.20731" lon="5.49335">
        <ele>164.5</ele>
        <time>2025-10-19T09:37:04Z</time>
      </trkpt>
      <trkpt lat="43.2073" lon="5.49335">
        <ele>164.5</ele>
        <time>2025-10-19T09:37:05Z</time>
      </trkpt>
      <trkpt lat="43.20729" lon="5.49336">
        <ele>164.5</ele>
        <time>2025-10-19T09:37:06Z</time>
      </trkpt>
      <trkpt lat="43.20728" lon="5.49336">
        <ele>164.5</ele>
        <time>2025-10-19T09:37:07Z</time>
      </trkpt>
      <trkpt lat="43.20727" lon="5.49336">
        <ele>164.3</ele>
        <time>2025-10-19T09:37:08Z</time>
      </trkpt>
      <trkpt lat="43.20726" lon="5.49336">
        <ele>164.2</ele>
        <time>2025-10-19T09:37:09Z</time>
      </trkpt>
      <trkpt lat="43.20725" lon="5.49336">
        <ele>164.1</ele>
        <time>2025-10-19T09:37:10Z</time>
      </trkpt>
      <trkpt lat="43.20724" lon="5.49337">
        <ele>163.9</ele>
        <time>2025-10-19T09:37:11Z</time>
      </trkpt>
      <trkpt lat="43.20723" lon="5.49337">
        <ele>163.9</ele>
        <time>2025-10-19T09:37:12Z</time>
      </trkpt>
      <trkpt lat="43.20722" lon="5.49337">
        <ele>163.8</ele>
        <time>2025-10-19T09:37:13Z</time>
      </trkpt>
      <trkpt lat="43.20721" lon="5.49337">
        <ele>163.5</ele>
        <time>2025-10-19T09:37:14Z</time>
      </trkpt>
      <trkpt lat="43.2072" lon="5.49337">
        <ele>163.3</ele>
        <time>2025-10-19T09:37:15Z</time>
      </trkpt>
      <trkpt lat="43.20719" lon="5.49337">
        <ele>163.2</ele>
        <time>2025-10-19T09:37:16Z</time>
      </trkpt>
      <trkpt lat="43.20718" lon="5.49337">
        <ele>163.1</ele>
        <time>2025-10-19T09:37:17Z</time>
      </trkpt>
      <trkpt lat="43.20717" lon="5.49337">
        <ele>163.1</ele>
        <time>2025-10-19T09:37:18Z</time>
      </trkpt>
      <trkpt lat="43.20716" lon="5.49337">
        <ele>163</ele>
        <time>2025-10-19T09:37:19Z</time>
      </trkpt>
      <trkpt lat="43.20715" lon="5.49338">
        <ele>163.1</ele>
        <time>2025-10-19T09:37:20Z</time>
      </trkpt>
      <trkpt lat="43.20714" lon="5.49338">
        <ele>163.1</ele>
        <time>2025-10-19T09:37:21Z</time>
      </trkpt>
      <trkpt lat="43.20713" lon="5.49338">
        <ele>163.1</ele>
        <time>2025-10-19T09:37:22Z</time>
      </trkpt>
      <trkpt lat="43.20712" lon="5.49339">
        <ele>163</ele>
        <time>2025-10-19T09:37:23Z</time>
      </trkpt>
      <trkpt lat="43.20711" lon="5.49339">
        <ele>162.9</ele>
        <time>2025-10-19T09:37:24Z</time>
      </trkpt>
      <trkpt lat="43.2071" lon="5.49339">
        <ele>162.8</ele>
        <time>2025-10-19T09:37:25Z</time>
      </trkpt>
      <trkpt lat="43.20709" lon="5.4934">
        <ele>162.7</ele>
        <time>2025-10-19T09:37:26Z</time>
      </trkpt>
      <trkpt lat="43.20708" lon="5.4934">
        <ele>162.7</ele>
        <time>2025-10-19T09:37:27Z</time>
      </trkpt>
      <trkpt lat="43.20707" lon="5.4934">
        <ele>162.7</ele>
        <time>2025-10-19T09:37:28Z</time>
      </trkpt>
      <trkpt lat="43.20706" lon="5.4934">
        <ele>162.7</ele>
        <time>2025-10-19T09:37:29Z</time>
      </trkpt>
      <trkpt lat="43.20705" lon="5.4934">
        <ele>162.8</ele>
        <time>2025-10-19T09:37:30Z</time>
      </trkpt>
      <trkpt lat="43.20704" lon="5.4934">
        <ele>162.8</ele>
        <time>2025-10-19T09:37:31Z</time>
      </trkpt>
      <trkpt lat="43.20703" lon="5.4934">
        <ele>162.8</ele>
        <time>2025-10-19T09:37:32Z</time>
      </trkpt>
      <trkpt lat="43.20701" lon="5.4934">
        <ele>162.7</ele>
        <time>2025-10-19T09:37:33Z</time>
      </trkpt>
      <trkpt lat="43.207" lon="5.49341">
        <ele>162.7</ele>
        <time>2025-10-19T09:37:34Z</time>
      </trkpt>
      <trkpt lat="43.20699" lon="5.49341">
        <ele>162.7</ele>
        <time>2025-10-19T09:37:35Z</time>
      </trkpt>
      <trkpt lat="43.20698" lon="5.49341">
        <ele>162.7</ele>
        <time>2025-10-19T09:37:36Z</time>
      </trkpt>
      <trkpt lat="43.20697" lon="5.49341">
        <ele>162.8</ele>
        <time>2025-10-19T09:37:37Z</time>
      </trkpt>
      <trkpt lat="43.20696" lon="5.49342">
        <ele>162.7</ele>
        <time>2025-10-19T09:37:38Z</time>
      </trkpt>
      <trkpt lat="43.20694" lon="5.49342">
        <ele>162.7</ele>
        <time>2025-10-19T09:37:39Z</time>
      </trkpt>
      <trkpt lat="43.20694" lon="5.49342">
        <ele>162.7</ele>
        <time>2025-10-19T09:37:40Z</time>
      </trkpt>
      <trkpt lat="43.20693" lon="5.49342">
        <ele>162.7</ele>
        <time>2025-10-19T09:37:41Z</time>
      </trkpt>
      <trkpt lat="43.20692" lon="5.49342">
        <ele>162.7</ele>
        <time>2025-10-19T09:37:42Z</time>
      </trkpt>
      <trkpt lat="43.20691" lon="5.49342">
        <ele>162.7</ele>
        <time>2025-10-19T09:37:43Z</time>
      </trkpt>
      <trkpt lat="43.2069" lon="5.49343">
        <ele>162.7</ele>
        <time>2025-10-19T09:37:44Z</time>
      </trkpt>
      <trkpt lat="43.20689" lon="5.49343">
        <ele>162.7</ele>
        <time>2025-10-19T09:37:45Z</time>
      </trkpt>
      <trkpt lat="43.20688" lon="5.49342">
        <ele>162.7</ele>
        <time>2025-10-19T09:37:46Z</time>
      </trkpt>
      <trkpt lat="43.20687" lon="5.49343">
        <ele>162.7</ele>
        <time>2025-10-19T09:37:47Z</time>
      </trkpt>
      <trkpt lat="43.20686" lon="5.49343">
        <ele>162.6</ele>
        <time>2025-10-19T09:37:48Z</time>
      </trkpt>
      <trkpt lat="43.20685" lon="5.49343">
        <ele>162.5</ele>
        <time>2025-10-19T09:37:49Z</time>
      </trkpt>
      <trkpt lat="43.20684" lon="5.49343">
        <ele>162.5</ele>
        <time>2025-10-19T09:37:50Z</time>
      </trkpt>
      <trkpt lat="43.20683" lon="5.49343">
        <ele>162.6</ele>
        <time>2025-10-19T09:37:51Z</time>
      </trkpt>
      <trkpt lat="43.20681" lon="5.49343">
        <ele>162.5</ele>
        <time>2025-10-19T09:37:52Z</time>
      </trkpt>
      <trkpt lat="43.2068" lon="5.49344">
        <ele>162.6</ele>
        <time>2025-10-19T09:37:53Z</time>
      </trkpt>
      <trkpt lat="43.2068" lon="5.49344">
        <ele>162.6</ele>
        <time>2025-10-19T09:37:54Z</time>
      </trkpt>
      <trkpt lat="43.20679" lon="5.49343">
        <ele>162.6</ele>
        <time>2025-10-19T09:37:55Z</time>
      </trkpt>
      <trkpt lat="43.20678" lon="5.49343">
        <ele>162.6</ele>
        <time>2025-10-19T09:37:56Z</time>
      </trkpt>
      <trkpt lat="43.20676" lon="5.49343">
        <ele>162.8</ele>
        <time>2025-10-19T09:37:57Z</time>
      </trkpt>
      <trkpt lat="43.20675" lon="5.49343">
        <ele>162.6</ele>
        <time>2025-10-19T09:37:58Z</time>
      </trkpt>
      <trkpt lat="43.20674" lon="5.49343">
        <ele>162.7</ele>
        <time>2025-10-19T09:37:59Z</time>
      </trkpt>
      <trkpt lat="43.20673" lon="5.49343">
        <ele>162.8</ele>
        <time>2025-10-19T09:38:00Z</time>
      </trkpt>
      <trkpt lat="43.20672" lon="5.49343">
        <ele>162.8</ele>
        <time>2025-10-19T09:38:01Z</time>
      </trkpt>
      <trkpt lat="43.20671" lon="5.49343">
        <ele>162.8</ele>
        <time>2025-10-19T09:38:02Z</time>
      </trkpt>
      <trkpt lat="43.2067" lon="5.49343">
        <ele>162.9</ele>
        <time>2025-10-19T09:38:03Z</time>
      </trkpt>
      <trkpt lat="43.20668" lon="5.49344">
        <ele>162.9</ele>
        <time>2025-10-19T09:38:04Z</time>
      </trkpt>
      <trkpt lat="43.20667" lon="5.49344">
        <ele>163</ele>
        <time>2025-10-19T09:38:05Z</time>
      </trkpt>
      <trkpt lat="43.20666" lon="5.49344">
        <ele>163.1</ele>
        <time>2025-10-19T09:38:06Z</time>
      </trkpt>
      <trkpt lat="43.20665" lon="5.49344">
        <ele>163.2</ele>
        <time>2025-10-19T09:38:07Z</time>
      </trkpt>
      <trkpt lat="43.20664" lon="5.49344">
        <ele>163.3</ele>
        <time>2025-10-19T09:38:08Z</time>
      </trkpt>
      <trkpt lat="43.20663" lon="5.49344">
        <ele>163.3</ele>
        <time>2025-10-19T09:38:09Z</time>
      </trkpt>
      <trkpt lat="43.20662" lon="5.49344">
        <ele>163.4</ele>
        <time>2025-10-19T09:38:10Z</time>
      </trkpt>
      <trkpt lat="43.20661" lon="5.49344">
        <ele>163.4</ele>
        <time>2025-10-19T09:38:11Z</time>
      </trkpt>
      <trkpt lat="43.2066" lon="5.49344">
        <ele>163.4</ele>
        <time>2025-10-19T09:38:12Z</time>
      </trkpt>
      <trkpt lat="43.20659" lon="5.49344">
        <ele>163.5</ele>
        <time>2025-10-19T09:38:13Z</time>
      </trkpt>
      <trkpt lat="43.20658" lon="5.49344">
        <ele>163.6</ele>
        <time>2025-10-19T09:38:14Z</time>
      </trkpt>
      <trkpt lat="43.20656" lon="5.49345">
        <ele>163.7</ele>
        <time>2025-10-19T09:38:15Z</time>
      </trkpt>
      <trkpt lat="43.20655" lon="5.49345">
        <ele>163.7</ele>
        <time>2025-10-19T09:38:16Z</time>
      </trkpt>
      <trkpt lat="43.20655" lon="5.49344">
        <ele>163.7</ele>
        <time>2025-10-19T09:38:17Z</time>
      </trkpt>
      <trkpt lat="43.20654" lon="5.49344">
        <ele>163.7</ele>
        <time>2025-10-19T09:38:18Z</time>
      </trkpt>
      <trkpt lat="43.20653" lon="5.49344">
        <ele>163.8</ele>
        <time>2025-10-19T09:38:19Z</time>
      </trkpt>
      <trkpt lat="43.20652" lon="5.49343">
        <ele>163.9</ele>
        <time>2025-10-19T09:38:20Z</time>
      </trkpt>
      <trkpt lat="43.20651" lon="5.49343">
        <ele>163.9</ele>
        <time>2025-10-19T09:38:21Z</time>
      </trkpt>
      <trkpt lat="43.2065" lon="5.49343">
        <ele>164</ele>
        <time>2025-10-19T09:38:22Z</time>
      </trkpt>
      <trkpt lat="43.20649" lon="5.49343">
        <ele>164.1</ele>
        <time>2025-10-19T09:38:23Z</time>
      </trkpt>
      <trkpt lat="43.20648" lon="5.49343">
        <ele>164.2</ele>
        <time>2025-10-19T09:38:24Z</time>
      </trkpt>
      <trkpt lat="43.20647" lon="5.49342">
        <ele>164.3</ele>
        <time>2025-10-19T09:38:25Z</time>
      </trkpt>
      <trkpt lat="43.20645" lon="5.49342">
        <ele>164.6</ele>
        <time>2025-10-19T09:38:26Z</time>
      </trkpt>
      <trkpt lat="43.20645" lon="5.49341">
        <ele>164.7</ele>
        <time>2025-10-19T09:38:27Z</time>
      </trkpt>
      <trkpt lat="43.20644" lon="5.49342">
        <ele>164.8</ele>
        <time>2025-10-19T09:38:28Z</time>
      </trkpt>
      <trkpt lat="43.20643" lon="5.49342">
        <ele>164.9</ele>
        <time>2025-10-19T09:38:29Z</time>
      </trkpt>
      <trkpt lat="43.20642" lon="5.49342">
        <ele>165.1</ele>
        <time>2025-10-19T09:38:30Z</time>
      </trkpt>
      <trkpt lat="43.20641" lon="5.49342">
        <ele>165.3</ele>
        <time>2025-10-19T09:38:31Z</time>
      </trkpt>
      <trkpt lat="43.2064" lon="5.49342">
        <ele>165.5</ele>
        <time>2025-10-19T09:38:32Z</time>
      </trkpt>
      <trkpt lat="43.20639" lon="5.49341">
        <ele>165.7</ele>
        <time>2025-10-19T09:38:33Z</time>
      </trkpt>
      <trkpt lat="43.20638" lon="5.49342">
        <ele>165.8</ele>
        <time>2025-10-19T09:38:34Z</time>
      </trkpt>
      <trkpt lat="43.20637" lon="5.49342">
        <ele>165.9</ele>
        <time>2025-10-19T09:38:35Z</time>
      </trkpt>
      <trkpt lat="43.20636" lon="5.49341">
        <ele>166</ele>
        <time>2025-10-19T09:38:36Z</time>
      </trkpt>
      <trkpt lat="43.20635" lon="5.49341">
        <ele>166</ele>
        <time>2025-10-19T09:38:37Z</time>
      </trkpt>
      <trkpt lat="43.20634" lon="5.49341">
        <ele>166.1</ele>
        <time>2025-10-19T09:38:38Z</time>
      </trkpt>
      <trkpt lat="43.20633" lon="5.49341">
        <ele>166.2</ele>
        <time>2025-10-19T09:38:39Z</time>
      </trkpt>
      <trkpt lat="43.20632" lon="5.49341">
        <ele>166.2</ele>
        <time>2025-10-19T09:38:40Z</time>
      </trkpt>
      <trkpt lat="43.2063" lon="5.49341">
        <ele>166.4</ele>
        <time>2025-10-19T09:38:41Z</time>
      </trkpt>
      <trkpt lat="43.20629" lon="5.49341">
        <ele>166.4</ele>
        <time>2025-10-19T09:38:42Z</time>
      </trkpt>
      <trkpt lat="43.20629" lon="5.49341">
        <ele>166.5</ele>
        <time>2025-10-19T09:38:43Z</time>
      </trkpt>
      <trkpt lat="43.20628" lon="5.49341">
        <ele>166.6</ele>
        <time>2025-10-19T09:38:44Z</time>
      </trkpt>
      <trkpt lat="43.20627" lon="5.49341">
        <ele>166.7</ele>
        <time>2025-10-19T09:38:45Z</time>
      </trkpt>
      <trkpt lat="43.20626" lon="5.49342">
        <ele>166.8</ele>
        <time>2025-10-19T09:38:46Z</time>
      </trkpt>
      <trkpt lat="43.20625" lon="5.49342">
        <ele>166.7</ele>
        <time>2025-10-19T09:38:47Z</time>
      </trkpt>
      <trkpt lat="43.20624" lon="5.49342">
        <ele>166.8</ele>
        <time>2025-10-19T09:38:48Z</time>
      </trkpt>
      <trkpt lat="43.20623" lon="5.49343">
        <ele>166.9</ele>
        <time>2025-10-19T09:38:49Z</time>
      </trkpt>
      <trkpt lat="43.20622" lon="5.49343">
        <ele>167</ele>
        <time>2025-10-19T09:38:50Z</time>
      </trkpt>
      <trkpt lat="43.20621" lon="5.49343">
        <ele>167.2</ele>
        <time>2025-10-19T09:38:51Z</time>
      </trkpt>
      <trkpt lat="43.2062" lon="5.49343">
        <ele>167.3</ele>
        <time>2025-10-19T09:38:52Z</time>
      </trkpt>
      <trkpt lat="43.20619" lon="5.49344">
        <ele>167.4</ele>
        <time>2025-10-19T09:38:53Z</time>
      </trkpt>
      <trkpt lat="43.20618" lon="5.49345">
        <ele>167.5</ele>
        <time>2025-10-19T09:38:54Z</time>
      </trkpt>
      <trkpt lat="43.20617" lon="5.49345">
        <ele>167.7</ele>
        <time>2025-10-19T09:38:55Z</time>
      </trkpt>
      <trkpt lat="43.20616" lon="5.49345">
        <ele>167.9</ele>
        <time>2025-10-19T09:38:56Z</time>
      </trkpt>
      <trkpt lat="43.20615" lon="5.49345">
        <ele>168</ele>
        <time>2025-10-19T09:38:57Z</time>
      </trkpt>
      <trkpt lat="43.20613" lon="5.49345">
        <ele>168.2</ele>
        <time>2025-10-19T09:38:58Z</time>
      </trkpt>
      <trkpt lat="43.20612" lon="5.49345">
        <ele>168.3</ele>
        <time>2025-10-19T09:38:59Z</time>
      </trkpt>
      <trkpt lat="43.20611" lon="5.49345">
        <ele>168.3</ele>
        <time>2025-10-19T09:39:00Z</time>
      </trkpt>
      <trkpt lat="43.2061" lon="5.49344">
        <ele>168.3</ele>
        <time>2025-10-19T09:39:01Z</time>
      </trkpt>
      <trkpt lat="43.20609" lon="5.49344">
        <ele>168.3</ele>
        <time>2025-10-19T09:39:02Z</time>
      </trkpt>
      <trkpt lat="43.20609" lon="5.49344">
        <ele>168.4</ele>
        <time>2025-10-19T09:39:03Z</time>
      </trkpt>
      <trkpt lat="43.20609" lon="5.49345">
        <ele>168.5</ele>
        <time>2025-10-19T09:39:04Z</time>
      </trkpt>
      <trkpt lat="43.20608" lon="5.49346">
        <ele>168.6</ele>
        <time>2025-10-19T09:39:05Z</time>
      </trkpt>
      <trkpt lat="43.20607" lon="5.49346">
        <ele>168.6</ele>
        <time>2025-10-19T09:39:06Z</time>
      </trkpt>
      <trkpt lat="43.20606" lon="5.49347">
        <ele>168.7</ele>
        <time>2025-10-19T09:39:07Z</time>
      </trkpt>
      <trkpt lat="43.20605" lon="5.49348">
        <ele>168.8</ele>
        <time>2025-10-19T09:39:08Z</time>
      </trkpt>
      <trkpt lat="43.20604" lon="5.49348">
        <ele>168.9</ele>
        <time>2025-10-19T09:39:09Z</time>
      </trkpt>
      <trkpt lat="43.20603" lon="5.49349">
        <ele>169</ele>
        <time>2025-10-19T09:39:10Z</time>
      </trkpt>
      <trkpt lat="43.20602" lon="5.49349">
        <ele>169.1</ele>
        <time>2025-10-19T09:39:11Z</time>
      </trkpt>
      <trkpt lat="43.20601" lon="5.49349">
        <ele>169.2</ele>
        <time>2025-10-19T09:39:12Z</time>
      </trkpt>
      <trkpt lat="43.206" lon="5.49349">
        <ele>169.2</ele>
        <time>2025-10-19T09:39:13Z</time>
      </trkpt>
      <trkpt lat="43.20599" lon="5.4935">
        <ele>169.3</ele>
        <time>2025-10-19T09:39:14Z</time>
      </trkpt>
      <trkpt lat="43.20597" lon="5.4935">
        <ele>169.4</ele>
        <time>2025-10-19T09:39:15Z</time>
      </trkpt>
      <trkpt lat="43.20596" lon="5.4935">
        <ele>169.4</ele>
        <time>2025-10-19T09:39:16Z</time>
      </trkpt>
      <trkpt lat="43.20595" lon="5.49351">
        <ele>169.5</ele>
        <time>2025-10-19T09:39:17Z</time>
      </trkpt>
      <trkpt lat="43.20594" lon="5.49351">
        <ele>169.6</ele>
        <time>2025-10-19T09:39:18Z</time>
      </trkpt>
      <trkpt lat="43.20593" lon="5.49351">
        <ele>169.6</ele>
        <time>2025-10-19T09:39:19Z</time>
      </trkpt>
      <trkpt lat="43.20591" lon="5.49351">
        <ele>169.6</ele>
        <time>2025-10-19T09:39:20Z</time>
      </trkpt>
      <trkpt lat="43.2059" lon="5.49351">
        <ele>169.7</ele>
        <time>2025-10-19T09:39:21Z</time>
      </trkpt>
      <trkpt lat="43.20589" lon="5.49351">
        <ele>169.7</ele>
        <time>2025-10-19T09:39:22Z</time>
      </trkpt>
      <trkpt lat="43.20588" lon="5.49351">
        <ele>169.7</ele>
        <time>2025-10-19T09:39:23Z</time>
      </trkpt>
      <trkpt lat="43.20587" lon="5.49351">
        <ele>169.7</ele>
        <time>2025-10-19T09:39:24Z</time>
      </trkpt>
      <trkpt lat="43.20586" lon="5.49351">
        <ele>169.8</ele>
        <time>2025-10-19T09:39:25Z</time>
      </trkpt>
      <trkpt lat="43.20585" lon="5.49352">
        <ele>169.9</ele>
        <time>2025-10-19T09:39:26Z</time>
      </trkpt>
      <trkpt lat="43.20583" lon="5.49352">
        <ele>169.9</ele>
        <time>2025-10-19T09:39:27Z</time>
      </trkpt>
      <trkpt lat="43.20582" lon="5.49352">
        <ele>169.9</ele>
        <time>2025-10-19T09:39:28Z</time>
      </trkpt>
      <trkpt lat="43.20581" lon="5.49352">
        <ele>169.9</ele>
        <time>2025-10-19T09:39:29Z</time>
      </trkpt>
      <trkpt lat="43.2058" lon="5.49352">
        <ele>170</ele>
        <time>2025-10-19T09:39:30Z</time>
      </trkpt>
      <trkpt lat="43.20579" lon="5.49352">
        <ele>170</ele>
        <time>2025-10-19T09:39:31Z</time>
      </trkpt>
      <trkpt lat="43.20578" lon="5.49352">
        <ele>170</ele>
        <time>2025-10-19T09:39:32Z</time>
      </trkpt>
      <trkpt lat="43.20577" lon="5.49352">
        <ele>170</ele>
        <time>2025-10-19T09:39:33Z</time>
      </trkpt>
      <trkpt lat="43.20576" lon="5.49353">
        <ele>170</ele>
        <time>2025-10-19T09:39:34Z</time>
      </trkpt>
      <trkpt lat="43.20575" lon="5.49353">
        <ele>170</ele>
        <time>2025-10-19T09:39:35Z</time>
      </trkpt>
      <trkpt lat="43.20574" lon="5.49353">
        <ele>170</ele>
        <time>2025-10-19T09:39:36Z</time>
      </trkpt>
      <trkpt lat="43.20573" lon="5.49353">
        <ele>169.9</ele>
        <time>2025-10-19T09:39:37Z</time>
      </trkpt>
      <trkpt lat="43.20572" lon="5.49353">
        <ele>170</ele>
        <time>2025-10-19T09:39:38Z</time>
      </trkpt>
      <trkpt lat="43.20571" lon="5.49353">
        <ele>170.1</ele>
        <time>2025-10-19T09:39:39Z</time>
      </trkpt>
      <trkpt lat="43.20569" lon="5.49353">
        <ele>170.2</ele>
        <time>2025-10-19T09:39:40Z</time>
      </trkpt>
      <trkpt lat="43.20568" lon="5.49354">
        <ele>170.3</ele>
        <time>2025-10-19T09:39:41Z</time>
      </trkpt>
      <trkpt lat="43.20568" lon="5.49354">
        <ele>170.3</ele>
        <time>2025-10-19T09:39:42Z</time>
      </trkpt>
      <trkpt lat="43.20567" lon="5.49354">
        <ele>170.4</ele>
        <time>2025-10-19T09:39:43Z</time>
      </trkpt>
      <trkpt lat="43.20566" lon="5.49354">
        <ele>170.5</ele>
        <time>2025-10-19T09:39:44Z</time>
      </trkpt>
      <trkpt lat="43.20564" lon="5.49355">
        <ele>170.6</ele>
        <time>2025-10-19T09:39:45Z</time>
      </trkpt>
      <trkpt lat="43.20563" lon="5.49355">
        <ele>170.7</ele>
        <time>2025-10-19T09:39:46Z</time>
      </trkpt>
      <trkpt lat="43.20562" lon="5.49355">
        <ele>170.7</ele>
        <time>2025-10-19T09:39:47Z</time>
      </trkpt>
      <trkpt lat="43.20561" lon="5.49355">
        <ele>170.9</ele>
        <time>2025-10-19T09:39:48Z</time>
      </trkpt>
      <trkpt lat="43.2056" lon="5.49355">
        <ele>170.9</ele>
        <time>2025-10-19T09:39:49Z</time>
      </trkpt>
      <trkpt lat="43.20559" lon="5.49355">
        <ele>170.9</ele>
        <time>2025-10-19T09:39:50Z</time>
      </trkpt>
      <trkpt lat="43.20558" lon="5.49355">
        <ele>171</ele>
        <time>2025-10-19T09:39:51Z</time>
      </trkpt>
      <trkpt lat="43.20557" lon="5.49355">
        <ele>171</ele>
        <time>2025-10-19T09:39:52Z</time>
      </trkpt>
      <trkpt lat="43.20555" lon="5.49355">
        <ele>171</ele>
        <time>2025-10-19T09:39:53Z</time>
      </trkpt>
      <trkpt lat="43.20554" lon="5.49355">
        <ele>171.1</ele>
        <time>2025-10-19T09:39:54Z</time>
      </trkpt>
      <trkpt lat="43.20553" lon="5.49355">
        <ele>171.1</ele>
        <time>2025-10-19T09:39:55Z</time>
      </trkpt>
      <trkpt lat="43.20552" lon="5.49355">
        <ele>171.1</ele>
        <time>2025-10-19T09:39:56Z</time>
      </trkpt>
      <trkpt lat="43.20551" lon="5.49355">
        <ele>171.1</ele>
        <time>2025-10-19T09:39:57Z</time>
      </trkpt>
      <trkpt lat="43.2055" lon="5.49355">
        <ele>171.1</ele>
        <time>2025-10-19T09:39:58Z</time>
      </trkpt>
      <trkpt lat="43.20549" lon="5.49355">
        <ele>171</ele>
        <time>2025-10-19T09:39:59Z</time>
      </trkpt>
      <trkpt lat="43.20548" lon="5.49355">
        <ele>171</ele>
        <time>2025-10-19T09:40:00Z</time>
      </trkpt>
      <trkpt lat="43.20547" lon="5.49355">
        <ele>171.1</ele>
        <time>2025-10-19T09:40:01Z</time>
      </trkpt>
      <trkpt lat="43.20546" lon="5.49355">
        <ele>171.1</ele>
        <time>2025-10-19T09:40:02Z</time>
      </trkpt>
      <trkpt lat="43.20545" lon="5.49355">
        <ele>171.2</ele>
        <time>2025-10-19T09:40:03Z</time>
      </trkpt>
      <trkpt lat="43.20544" lon="5.49356">
        <ele>171.2</ele>
        <time>2025-10-19T09:40:04Z</time>
      </trkpt>
      <trkpt lat="43.20543" lon="5.49356">
        <ele>171.3</ele>
        <time>2025-10-19T09:40:05Z</time>
      </trkpt>
      <trkpt lat="43.20542" lon="5.49356">
        <ele>171.3</ele>
        <time>2025-10-19T09:40:06Z</time>
      </trkpt>
      <trkpt lat="43.20541" lon="5.49356">
        <ele>171.4</ele>
        <time>2025-10-19T09:40:07Z</time>
      </trkpt>
      <trkpt lat="43.2054" lon="5.49356">
        <ele>171.4</ele>
        <time>2025-10-19T09:40:08Z</time>
      </trkpt>
      <trkpt lat="43.20539" lon="5.49356">
        <ele>171.4</ele>
        <time>2025-10-19T09:40:09Z</time>
      </trkpt>
      <trkpt lat="43.20538" lon="5.49356">
        <ele>171.3</ele>
        <time>2025-10-19T09:40:10Z</time>
      </trkpt>
      <trkpt lat="43.20537" lon="5.49355">
        <ele>171.2</ele>
        <time>2025-10-19T09:40:11Z</time>
      </trkpt>
      <trkpt lat="43.20536" lon="5.49355">
        <ele>171.2</ele>
        <time>2025-10-19T09:40:12Z</time>
      </trkpt>
      <trkpt lat="43.20535" lon="5.49355">
        <ele>171.2</ele>
        <time>2025-10-19T09:40:13Z</time>
      </trkpt>
      <trkpt lat="43.20534" lon="5.49354">
        <ele>171.2</ele>
        <time>2025-10-19T09:40:14Z</time>
      </trkpt>
      <trkpt lat="43.20533" lon="5.49354">
        <ele>171.2</ele>
        <time>2025-10-19T09:40:15Z</time>
      </trkpt>
      <trkpt lat="43.20531" lon="5.49354">
        <ele>171.2</ele>
        <time>2025-10-19T09:40:16Z</time>
      </trkpt>
      <trkpt lat="43.2053" lon="5.49354">
        <ele>171.3</ele>
        <time>2025-10-19T09:40:17Z</time>
      </trkpt>
      <trkpt lat="43.20529" lon="5.49354">
        <ele>171.3</ele>
        <time>2025-10-19T09:40:18Z</time>
      </trkpt>
      <trkpt lat="43.20528" lon="5.49354">
        <ele>171.3</ele>
        <time>2025-10-19T09:40:19Z</time>
      </trkpt>
      <trkpt lat="43.20527" lon="5.49354">
        <ele>171.3</ele>
        <time>2025-10-19T09:40:20Z</time>
      </trkpt>
      <trkpt lat="43.20526" lon="5.49353">
        <ele>171.4</ele>
        <time>2025-10-19T09:40:21Z</time>
      </trkpt>
      <trkpt lat="43.20525" lon="5.49353">
        <ele>171.5</ele>
        <time>2025-10-19T09:40:22Z</time>
      </trkpt>
      <trkpt lat="43.20524" lon="5.49352">
        <ele>171.5</ele>
        <time>2025-10-19T09:40:23Z</time>
      </trkpt>
      <trkpt lat="43.20523" lon="5.49352">
        <ele>171.5</ele>
        <time>2025-10-19T09:40:24Z</time>
      </trkpt>
      <trkpt lat="43.20522" lon="5.49352">
        <ele>171.4</ele>
        <time>2025-10-19T09:40:25Z</time>
      </trkpt>
      <trkpt lat="43.2052" lon="5.49352">
        <ele>171.4</ele>
        <time>2025-10-19T09:40:26Z</time>
      </trkpt>
      <trkpt lat="43.20519" lon="5.49352">
        <ele>171.3</ele>
        <time>2025-10-19T09:40:27Z</time>
      </trkpt>
      <trkpt lat="43.20518" lon="5.49352">
        <ele>171.4</ele>
        <time>2025-10-19T09:40:28Z</time>
      </trkpt>
      <trkpt lat="43.20517" lon="5.49352">
        <ele>171.5</ele>
        <time>2025-10-19T09:40:29Z</time>
      </trkpt>
      <trkpt lat="43.20516" lon="5.49351">
        <ele>171.5</ele>
        <time>2025-10-19T09:40:30Z</time>
      </trkpt>
      <trkpt lat="43.20516" lon="5.49351">
        <ele>171.6</ele>
        <time>2025-10-19T09:40:31Z</time>
      </trkpt>
      <trkpt lat="43.20515" lon="5.4935">
        <ele>171.6</ele>
        <time>2025-10-19T09:40:32Z</time>
      </trkpt>
      <trkpt lat="43.20513" lon="5.4935">
        <ele>171.6</ele>
        <time>2025-10-19T09:40:33Z</time>
      </trkpt>
      <trkpt lat="43.20512" lon="5.4935">
        <ele>171.7</ele>
        <time>2025-10-19T09:40:34Z</time>
      </trkpt>
      <trkpt lat="43.20511" lon="5.4935">
        <ele>171.7</ele>
        <time>2025-10-19T09:40:35Z</time>
      </trkpt>
      <trkpt lat="43.2051" lon="5.4935">
        <ele>171.7</ele>
        <time>2025-10-19T09:40:36Z</time>
      </trkpt>
      <trkpt lat="43.20509" lon="5.49349">
        <ele>171.7</ele>
        <time>2025-10-19T09:40:37Z</time>
      </trkpt>
      <trkpt lat="43.20509" lon="5.49349">
        <ele>171.7</ele>
        <time>2025-10-19T09:40:38Z</time>
      </trkpt>
      <trkpt lat="43.20508" lon="5.49348">
        <ele>171.7</ele>
        <time>2025-10-19T09:40:39Z</time>
      </trkpt>
      <trkpt lat="43.20507" lon="5.49348">
        <ele>171.7</ele>
        <time>2025-10-19T09:40:40Z</time>
      </trkpt>
      <trkpt lat="43.20506" lon="5.49347">
        <ele>171.7</ele>
        <time>2025-10-19T09:40:41Z</time>
      </trkpt>
      <trkpt lat="43.20506" lon="5.49347">
        <ele>171.6</ele>
        <time>2025-10-19T09:40:42Z</time>
      </trkpt>
      <trkpt lat="43.20506" lon="5.49345">
        <ele>171.4</ele>
        <time>2025-10-19T09:40:43Z</time>
      </trkpt>
      <trkpt lat="43.20506" lon="5.49344">
        <ele>171.3</ele>
        <time>2025-10-19T09:40:44Z</time>
      </trkpt>
      <trkpt lat="43.20505" lon="5.49343">
        <ele>171.2</ele>
        <time>2025-10-19T09:40:45Z</time>
      </trkpt>
      <trkpt lat="43.20505" lon="5.49343">
        <ele>171.1</ele>
        <time>2025-10-19T09:40:46Z</time>
      </trkpt>
      <trkpt lat="43.20505" lon="5.49342">
        <ele>170.9</ele>
        <time>2025-10-19T09:40:47Z</time>
      </trkpt>
      <trkpt lat="43.20504" lon="5.49341">
        <ele>170.9</ele>
        <time>2025-10-19T09:40:48Z</time>
      </trkpt>
      <trkpt lat="43.20503" lon="5.49341">
        <ele>170.9</ele>
        <time>2025-10-19T09:40:49Z</time>
      </trkpt>
      <trkpt lat="43.20503" lon="5.49341">
        <ele>170.9</ele>
        <time>2025-10-19T09:40:50Z</time>
      </trkpt>
      <trkpt lat="43.20503" lon="5.4934">
        <ele>170.9</ele>
        <time>2025-10-19T09:40:51Z</time>
      </trkpt>
      <trkpt lat="43.20502" lon="5.4934">
        <ele>170.8</ele>
        <time>2025-10-19T09:40:52Z</time>
      </trkpt>
      <trkpt lat="43.20502" lon="5.49339">
        <ele>170.8</ele>
        <time>2025-10-19T09:40:53Z</time>
      </trkpt>
      <trkpt lat="43.20502" lon="5.49338">
        <ele>170.7</ele>
        <time>2025-10-19T09:40:54Z</time>
      </trkpt>
      <trkpt lat="43.20501" lon="5.49338">
        <ele>170.6</ele>
        <time>2025-10-19T09:40:55Z</time>
      </trkpt>
      <trkpt lat="43.20501" lon="5.49337">
        <ele>170.4</ele>
        <time>2025-10-19T09:40:56Z</time>
      </trkpt>
      <trkpt lat="43.205" lon="5.49336">
        <ele>170.3</ele>
        <time>2025-10-19T09:40:57Z</time>
      </trkpt>
      <trkpt lat="43.205" lon="5.49335">
        <ele>170.2</ele>
        <time>2025-10-19T09:40:58Z</time>
      </trkpt>
      <trkpt lat="43.20499" lon="5.49334">
        <ele>170.1</ele>
        <time>2025-10-19T09:40:59Z</time>
      </trkpt>
      <trkpt lat="43.20499" lon="5.49333">
        <ele>169.9</ele>
        <time>2025-10-19T09:41:00Z</time>
      </trkpt>
      <trkpt lat="43.20498" lon="5.49333">
        <ele>169.8</ele>
        <time>2025-10-19T09:41:01Z</time>
      </trkpt>
      <trkpt lat="43.20498" lon="5.49332">
        <ele>169.8</ele>
        <time>2025-10-19T09:41:02Z</time>
      </trkpt>
      <trkpt lat="43.20497" lon="5.49331">
        <ele>169.8</ele>
        <time>2025-10-19T09:41:03Z</time>
      </trkpt>
      <trkpt lat="43.20497" lon="5.49331">
        <ele>169.7</ele>
        <time>2025-10-19T09:41:04Z</time>
      </trkpt>
      <trkpt lat="43.20497" lon="5.4933">
        <ele>169.6</ele>
        <time>2025-10-19T09:41:05Z</time>
      </trkpt>
      <trkpt lat="43.20497" lon="5.4933">
        <ele>169.6</ele>
        <time>2025-10-19T09:41:06Z</time>
      </trkpt>
      <trkpt lat="43.20497" lon="5.49329">
        <ele>169.5</ele>
        <time>2025-10-19T09:41:07Z</time>
      </trkpt>
      <trkpt lat="43.20497" lon="5.49329">
        <ele>169.4</ele>
        <time>2025-10-19T09:41:08Z</time>
      </trkpt>
      <trkpt lat="43.20497" lon="5.49329">
        <ele>169.4</ele>
        <time>2025-10-19T09:41:09Z</time>
      </trkpt>
      <trkpt lat="43.20497" lon="5.49329">
        <ele>169.3</ele>
        <time>2025-10-19T09:41:10Z</time>
      </trkpt>
      <trkpt lat="43.20497" lon="5.49328">
        <ele>169.3</ele>
        <time>2025-10-19T09:41:11Z</time>
      </trkpt>
      <trkpt lat="43.20496" lon="5.49328">
        <ele>169.3</ele>
        <time>2025-10-19T09:41:12Z</time>
      </trkpt>
      <trkpt lat="43.20496" lon="5.49327">
        <ele>169.3</ele>
        <time>2025-10-19T09:41:13Z</time>
      </trkpt>
      <trkpt lat="43.20496" lon="5.49327">
        <ele>169.4</ele>
        <time>2025-10-19T09:41:14Z</time>
      </trkpt>
      <trkpt lat="43.20496" lon="5.49327">
        <ele>169.4</ele>
        <time>2025-10-19T09:41:15Z</time>
      </trkpt>
      <trkpt lat="43.20496" lon="5.49328">
        <ele>169.5</ele>
        <time>2025-10-19T09:41:16Z</time>
      </trkpt>
      <trkpt lat="43.20496" lon="5.49327">
        <ele>169.6</ele>
        <time>2025-10-19T09:41:17Z</time>
      </trkpt>
      <trkpt lat="43.20496" lon="5.49327">
        <ele>169.6</ele>
        <time>2025-10-19T09:41:18Z</time>
      </trkpt>
      <trkpt lat="43.20496" lon="5.49327">
        <ele>169.7</ele>
        <time>2025-10-19T09:41:19Z</time>
      </trkpt>
      <trkpt lat="43.20496" lon="5.49327">
        <ele>169.7</ele>
        <time>2025-10-19T09:41:20Z</time>
      </trkpt>
      <trkpt lat="43.20496" lon="5.49327">
        <ele>169.7</ele>
        <time>2025-10-19T09:41:21Z</time>
      </trkpt>
      <trkpt lat="43.20495" lon="5.49327">
        <ele>169.6</ele>
        <time>2025-10-19T09:41:22Z</time>
      </trkpt>
      <trkpt lat="43.20495" lon="5.49327">
        <ele>169.7</ele>
        <time>2025-10-19T09:41:23Z</time>
      </trkpt>
      <trkpt lat="43.20494" lon="5.49327">
        <ele>169.7</ele>
        <time>2025-10-19T09:41:24Z</time>
      </trkpt>
      <trkpt lat="43.20493" lon="5.49327">
        <ele>169.6</ele>
        <time>2025-10-19T09:41:25Z</time>
      </trkpt>
      <trkpt lat="43.20493" lon="5.49326">
        <ele>169.5</ele>
        <time>2025-10-19T09:41:26Z</time>
      </trkpt>
      <trkpt lat="43.20493" lon="5.49326">
        <ele>169.4</ele>
        <time>2025-10-19T09:41:27Z</time>
      </trkpt>
      <trkpt lat="43.20492" lon="5.49326">
        <ele>169.3</ele>
        <time>2025-10-19T09:41:28Z</time>
      </trkpt>
      <trkpt lat="43.20492" lon="5.49326">
        <ele>169.2</ele>
        <time>2025-10-19T09:41:29Z</time>
      </trkpt>
      <trkpt lat="43.20492" lon="5.49325">
        <ele>169.1</ele>
        <time>2025-10-19T09:41:30Z</time>
      </trkpt>
      <trkpt lat="43.20492" lon="5.49325">
        <ele>169.1</ele>
        <time>2025-10-19T09:41:31Z</time>
      </trkpt>
      <trkpt lat="43.20492" lon="5.49324">
        <ele>169.1</ele>
        <time>2025-10-19T09:41:32Z</time>
      </trkpt>
      <trkpt lat="43.20493" lon="5.49323">
        <ele>169.1</ele>
        <time>2025-10-19T09:41:33Z</time>
      </trkpt>
      <trkpt lat="43.20493" lon="5.49323">
        <ele>169.1</ele>
        <time>2025-10-19T09:41:34Z</time>
      </trkpt>
      <trkpt lat="43.20493" lon="5.49323">
        <ele>169.2</ele>
        <time>2025-10-19T09:41:35Z</time>
      </trkpt>
      <trkpt lat="43.20493" lon="5.49323">
        <ele>169.3</ele>
        <time>2025-10-19T09:41:36Z</time>
      </trkpt>
      <trkpt lat="43.20493" lon="5.49323">
        <ele>169.3</ele>
        <time>2025-10-19T09:41:37Z</time>
      </trkpt>
      <trkpt lat="43.20493" lon="5.49323">
        <ele>169.3</ele>
        <time>2025-10-19T09:41:38Z</time>
      </trkpt>
      <trkpt lat="43.20493" lon="5.49323">
        <ele>169.3</ele>
        <time>2025-10-19T09:41:39Z</time>
      </trkpt>
      <trkpt lat="43.20493" lon="5.49323">
        <ele>169.3</ele>
        <time>2025-10-19T09:41:40Z</time>
      </trkpt>
      <trkpt lat="43.20493" lon="5.49323">
        <ele>169.3</ele>
        <time>2025-10-19T09:41:41Z</time>
      </trkpt>
      <trkpt lat="43.20493" lon="5.49323">
        <ele>169.3</ele>
        <time>2025-10-19T09:41:42Z</time>
      </trkpt>
      <trkpt lat="43.20493" lon="5.49323">
        <ele>169.2</ele>
        <time>2025-10-19T09:41:43Z</time>
      </trkpt>
      <trkpt lat="43.20493" lon="5.49323">
        <ele>169.1</ele>
        <time>2025-10-19T09:41:44Z</time>
      </trkpt>
      <trkpt lat="43.20493" lon="5.49323">
        <ele>169.1</ele>
        <time>2025-10-19T09:41:45Z</time>
      </trkpt>
      <trkpt lat="43.20493" lon="5.49324">
        <ele>169.1</ele>
        <time>2025-10-19T09:41:46Z</time>
      </trkpt>
      <trkpt lat="43.20493" lon="5.49324">
        <ele>169.1</ele>
        <time>2025-10-19T09:41:47Z</time>
      </trkpt>
      <trkpt lat="43.20493" lon="5.49324">
        <ele>169.1</ele>
        <time>2025-10-19T09:41:48Z</time>
      </trkpt>
      <trkpt lat="43.20493" lon="5.49324">
        <ele>169.1</ele>
        <time>2025-10-19T09:41:49Z</time>
      </trkpt>
      <trkpt lat="43.20493" lon="5.49324">
        <ele>169</ele>
        <time>2025-10-19T09:41:50Z</time>
      </trkpt>
      <trkpt lat="43.20493" lon="5.49324">
        <ele>169</ele>
        <time>2025-10-19T09:41:51Z</time>
      </trkpt>
      <trkpt lat="43.20493" lon="5.49324">
        <ele>169</ele>
        <time>2025-10-19T09:41:52Z</time>
      </trkpt>
      <trkpt lat="43.20493" lon="5.49324">
        <ele>169.1</ele>
        <time>2025-10-19T09:41:53Z</time>
      </trkpt>
      <trkpt lat="43.20493" lon="5.49324">
        <ele>169.1</ele>
        <time>2025-10-19T09:41:54Z</time>
      </trkpt>
      <trkpt lat="43.20493" lon="5.49324">
        <ele>169.1</ele>
        <time>2025-10-19T09:41:55Z</time>
      </trkpt>
      <trkpt lat="43.20493" lon="5.49324">
        <ele>169.1</ele>
        <time>2025-10-19T09:41:56Z</time>
      </trkpt>
      <trkpt lat="43.20493" lon="5.49324">
        <ele>169.1</ele>
        <time>2025-10-19T09:41:57Z</time>
      </trkpt>
      <trkpt lat="43.20493" lon="5.49324">
        <ele>169.1</ele>
        <time>2025-10-19T09:41:58Z</time>
      </trkpt>
      <trkpt lat="43.20493" lon="5.49324">
        <ele>169.1</ele>
        <time>2025-10-19T09:41:59Z</time>
      </trkpt>
      <trkpt lat="43.20493" lon="5.49324">
        <ele>169.1</ele>
        <time>2025-10-19T09:42:00Z</time>
      </trkpt>
      <trkpt lat="43.20493" lon="5.49324">
        <ele>169</ele>
        <time>2025-10-19T09:42:01Z</time>
      </trkpt>
      <trkpt lat="43.20493" lon="5.49324">
        <ele>169</ele>
        <time>2025-10-19T09:42:02Z</time>
      </trkpt>
      <trkpt lat="43.20493" lon="5.49324">
        <ele>169</ele>
        <time>2025-10-19T09:42:03Z</time>
      </trkpt>
      <trkpt lat="43.20493" lon="5.49324">
        <ele>168.9</ele>
        <time>2025-10-19T09:42:04Z</time>
      </trkpt>
      <trkpt lat="43.20493" lon="5.49324">
        <ele>168.9</ele>
        <time>2025-10-19T09:42:05Z</time>
      </trkpt>
      <trkpt lat="43.20493" lon="5.49324">
        <ele>169</ele>
        <time>2025-10-19T09:42:06Z</time>
      </trkpt>
      <trkpt lat="43.20493" lon="5.49324">
        <ele>169.2</ele>
        <time>2025-10-19T09:42:07Z</time>
      </trkpt>
      <trkpt lat="43.20493" lon="5.49324">
        <ele>169.2</ele>
        <time>2025-10-19T09:42:08Z</time>
      </trkpt>
      <trkpt lat="43.20493" lon="5.49324">
        <ele>169.2</ele>
        <time>2025-10-19T09:42:09Z</time>
      </trkpt>
      <trkpt lat="43.20493" lon="5.49324">
        <ele>169.3</ele>
        <time>2025-10-19T09:42:10Z</time>
      </trkpt>
      <trkpt lat="43.20493" lon="5.49324">
        <ele>169.3</ele>
        <time>2025-10-19T09:42:11Z</time>
      </trkpt>
      <trkpt lat="43.20493" lon="5.49324">
        <ele>169.4</ele>
        <time>2025-10-19T09:42:12Z</time>
      </trkpt>
      <trkpt lat="43.20493" lon="5.49324">
        <ele>169.4</ele>
        <time>2025-10-19T09:42:13Z</time>
      </trkpt>
      <trkpt lat="43.20493" lon="5.49324">
        <ele>169.5</ele>
        <time>2025-10-19T09:42:14Z</time>
      </trkpt>
      <trkpt lat="43.20493" lon="5.49325">
        <ele>169.5</ele>
        <time>2025-10-19T09:42:15Z</time>
      </trkpt>
      <trkpt lat="43.20493" lon="5.49324">
        <ele>169.6</ele>
        <time>2025-10-19T09:42:16Z</time>
      </trkpt>
      <trkpt lat="43.20493" lon="5.49325">
        <ele>169.6</ele>
        <time>2025-10-19T09:42:17Z</time>
      </trkpt>
      <trkpt lat="43.20493" lon="5.49325">
        <ele>169.7</ele>
        <time>2025-10-19T09:42:18Z</time>
      </trkpt>
      <trkpt lat="43.20493" lon="5.49325">
        <ele>169.7</ele>
        <time>2025-10-19T09:42:19Z</time>
      </trkpt>
      <trkpt lat="43.20493" lon="5.49325">
        <ele>169.6</ele>
        <time>2025-10-19T09:42:20Z</time>
      </trkpt>
      <trkpt lat="43.20493" lon="5.49325">
        <ele>169.6</ele>
        <time>2025-10-19T09:42:21Z</time>
      </trkpt>
      <trkpt lat="43.20493" lon="5.49324">
        <ele>169.6</ele>
        <time>2025-10-19T09:42:22Z</time>
      </trkpt>
      <trkpt lat="43.20493" lon="5.49324">
        <ele>169.5</ele>
        <time>2025-10-19T09:42:23Z</time>
      </trkpt>
      <trkpt lat="43.20493" lon="5.49324">
        <ele>169.4</ele>
        <time>2025-10-19T09:42:24Z</time>
      </trkpt>
      <trkpt lat="43.20493" lon="5.49324">
        <ele>169.4</ele>
        <time>2025-10-19T09:42:25Z</time>
      </trkpt>
      <trkpt lat="43.20493" lon="5.49324">
        <ele>169.3</ele>
        <time>2025-10-19T09:42:26Z</time>
      </trkpt>
      <trkpt lat="43.20493" lon="5.49324">
        <ele>169.3</ele>
        <time>2025-10-19T09:42:27Z</time>
      </trkpt>
      <trkpt lat="43.20493" lon="5.49324">
        <ele>169.3</ele>
        <time>2025-10-19T09:42:28Z</time>
      </trkpt>
      <trkpt lat="43.20493" lon="5.49324">
        <ele>169.3</ele>
        <time>2025-10-19T09:42:29Z</time>
      </trkpt>
      <trkpt lat="43.20493" lon="5.49324">
        <ele>169.3</ele>
        <time>2025-10-19T09:42:30Z</time>
      </trkpt>
      <trkpt lat="43.20493" lon="5.49324">
        <ele>169.4</ele>
        <time>2025-10-19T09:42:31Z</time>
      </trkpt>
      <trkpt lat="43.20493" lon="5.49324">
        <ele>169.4</ele>
        <time>2025-10-19T09:42:32Z</time>
      </trkpt>
      <trkpt lat="43.20493" lon="5.49324">
        <ele>169.4</ele>
        <time>2025-10-19T09:42:33Z</time>
      </trkpt>
      <trkpt lat="43.20493" lon="5.49324">
        <ele>169.4</ele>
        <time>2025-10-19T09:42:34Z</time>
      </trkpt>
      <trkpt lat="43.20493" lon="5.49324">
        <ele>169.5</ele>
        <time>2025-10-19T09:42:35Z</time>
      </trkpt>
      <trkpt lat="43.20493" lon="5.49324">
        <ele>169.6</ele>
        <time>2025-10-19T09:42:36Z</time>
      </trkpt>
      <trkpt lat="43.20492" lon="5.49325">
        <ele>169.5</ele>
        <time>2025-10-19T09:42:37Z</time>
      </trkpt>
      <trkpt lat="43.20492" lon="5.49325">
        <ele>169.4</ele>
        <time>2025-10-19T09:42:38Z</time>
      </trkpt>
      <trkpt lat="43.20491" lon="5.49325">
        <ele>169.6</ele>
        <time>2025-10-19T09:42:39Z</time>
      </trkpt>
      <trkpt lat="43.20491" lon="5.49324">
        <ele>169.6</ele>
        <time>2025-10-19T09:42:40Z</time>
      </trkpt>
      <trkpt lat="43.20491" lon="5.49324">
        <ele>169.4</ele>
        <time>2025-10-19T09:42:41Z</time>
      </trkpt>
      <trkpt lat="43.20491" lon="5.49323">
        <ele>169.3</ele>
        <time>2025-10-19T09:42:42Z</time>
      </trkpt>
      <trkpt lat="43.20492" lon="5.49322">
        <ele>169.2</ele>
        <time>2025-10-19T09:42:43Z</time>
      </trkpt>
      <trkpt lat="43.20491" lon="5.49321">
        <ele>169.1</ele>
        <time>2025-10-19T09:42:44Z</time>
      </trkpt>
      <trkpt lat="43.20491" lon="5.49321">
        <ele>168.9</ele>
        <time>2025-10-19T09:42:45Z</time>
      </trkpt>
      <trkpt lat="43.20491" lon="5.49321">
        <ele>168.8</ele>
        <time>2025-10-19T09:42:46Z</time>
      </trkpt>
      <trkpt lat="43.2049" lon="5.4932">
        <ele>168.7</ele>
        <time>2025-10-19T09:42:47Z</time>
      </trkpt>
      <trkpt lat="43.2049" lon="5.4932">
        <ele>168.6</ele>
        <time>2025-10-19T09:42:48Z</time>
      </trkpt>
      <trkpt lat="43.2049" lon="5.4932">
        <ele>168.6</ele>
        <time>2025-10-19T09:42:49Z</time>
      </trkpt>
      <trkpt lat="43.2049" lon="5.49319">
        <ele>168.6</ele>
        <time>2025-10-19T09:42:50Z</time>
      </trkpt>
      <trkpt lat="43.2049" lon="5.49319">
        <ele>168.6</ele>
        <time>2025-10-19T09:42:51Z</time>
      </trkpt>
      <trkpt lat="43.2049" lon="5.49319">
        <ele>168.5</ele>
        <time>2025-10-19T09:42:52Z</time>
      </trkpt>
      <trkpt lat="43.2049" lon="5.49319">
        <ele>168.3</ele>
        <time>2025-10-19T09:42:53Z</time>
      </trkpt>
      <trkpt lat="43.20489" lon="5.49319">
        <ele>168.2</ele>
        <time>2025-10-19T09:42:54Z</time>
      </trkpt>
      <trkpt lat="43.20489" lon="5.49319">
        <ele>168.3</ele>
        <time>2025-10-19T09:42:55Z</time>
      </trkpt>
      <trkpt lat="43.20489" lon="5.49319">
        <ele>168.3</ele>
        <time>2025-10-19T09:42:56Z</time>
      </trkpt>
      <trkpt lat="43.20489" lon="5.49319">
        <ele>168.4</ele>
        <time>2025-10-19T09:42:57Z</time>
      </trkpt>
      <trkpt lat="43.20489" lon="5.49319">
        <ele>168.4</ele>
        <time>2025-10-19T09:42:58Z</time>
      </trkpt>
      <trkpt lat="43.20489" lon="5.49319">
        <ele>168.4</ele>
        <time>2025-10-19T09:42:59Z</time>
      </trkpt>
      <trkpt lat="43.20489" lon="5.49319">
        <ele>168.4</ele>
        <time>2025-10-19T09:43:00Z</time>
      </trkpt>
      <trkpt lat="43.20489" lon="5.49319">
        <ele>168.4</ele>
        <time>2025-10-19T09:43:01Z</time>
      </trkpt>
      <trkpt lat="43.20489" lon="5.4932">
        <ele>168.5</ele>
        <time>2025-10-19T09:43:02Z</time>
      </trkpt>
      <trkpt lat="43.20489" lon="5.4932">
        <ele>168.5</ele>
        <time>2025-10-19T09:43:03Z</time>
      </trkpt>
      <trkpt lat="43.20489" lon="5.4932">
        <ele>168.5</ele>
        <time>2025-10-19T09:43:04Z</time>
      </trkpt>
      <trkpt lat="43.20489" lon="5.4932">
        <ele>168.5</ele>
        <time>2025-10-19T09:43:05Z</time>
      </trkpt>
      <trkpt lat="43.20488" lon="5.4932">
        <ele>168.5</ele>
        <time>2025-10-19T09:43:06Z</time>
      </trkpt>
      <trkpt lat="43.20488" lon="5.4932">
        <ele>168.5</ele>
        <time>2025-10-19T09:43:07Z</time>
      </trkpt>
      <trkpt lat="43.20488" lon="5.49319">
        <ele>168.7</ele>
        <time>2025-10-19T09:43:08Z</time>
      </trkpt>
      <trkpt lat="43.20488" lon="5.49319">
        <ele>168.6</ele>
        <time>2025-10-19T09:43:09Z</time>
      </trkpt>
      <trkpt lat="43.20487" lon="5.49319">
        <ele>168.6</ele>
        <time>2025-10-19T09:43:10Z</time>
      </trkpt>
      <trkpt lat="43.20487" lon="5.49319">
        <ele>168.6</ele>
        <time>2025-10-19T09:43:11Z</time>
      </trkpt>
      <trkpt lat="43.20487" lon="5.49319">
        <ele>168.6</ele>
        <time>2025-10-19T09:43:12Z</time>
      </trkpt>
      <trkpt lat="43.20487" lon="5.49319">
        <ele>168.6</ele>
        <time>2025-10-19T09:43:13Z</time>
      </trkpt>
      <trkpt lat="43.20487" lon="5.49319">
        <ele>168.6</ele>
        <time>2025-10-19T09:43:14Z</time>
      </trkpt>
      <trkpt lat="43.20487" lon="5.49318">
        <ele>168.6</ele>
        <time>2025-10-19T09:43:15Z</time>
      </trkpt>
      <trkpt lat="43.20487" lon="5.49318">
        <ele>168.6</ele>
        <time>2025-10-19T09:43:16Z</time>
      </trkpt>
      <trkpt lat="43.20487" lon="5.49318">
        <ele>168.6</ele>
        <time>2025-10-19T09:43:17Z</time>
      </trkpt>
      <trkpt lat="43.20487" lon="5.49318">
        <ele>168.5</ele>
        <time>2025-10-19T09:43:18Z</time>
      </trkpt>
      <trkpt lat="43.20487" lon="5.49317">
        <ele>168.4</ele>
        <time>2025-10-19T09:43:19Z</time>
      </trkpt>
      <trkpt lat="43.20486" lon="5.49316">
        <ele>168.4</ele>
        <time>2025-10-19T09:43:20Z</time>
      </trkpt>
      <trkpt lat="43.20486" lon="5.49316">
        <ele>168.4</ele>
        <time>2025-10-19T09:43:21Z</time>
      </trkpt>
      <trkpt lat="43.20486" lon="5.49316">
        <ele>168.3</ele>
        <time>2025-10-19T09:43:22Z</time>
      </trkpt>
      <trkpt lat="43.20486" lon="5.49315">
        <ele>168.3</ele>
        <time>2025-10-19T09:43:23Z</time>
      </trkpt>
      <trkpt lat="43.20486" lon="5.49315">
        <ele>168.3</ele>
        <time>2025-10-19T09:43:24Z</time>
      </trkpt>
      <trkpt lat="43.20486" lon="5.49315">
        <ele>168.3</ele>
        <time>2025-10-19T09:43:25Z</time>
      </trkpt>
      <trkpt lat="43.20486" lon="5.49316">
        <ele>168.3</ele>
        <time>2025-10-19T09:43:26Z</time>
      </trkpt>
      <trkpt lat="43.20486" lon="5.49316">
        <ele>168.4</ele>
        <time>2025-10-19T09:43:27Z</time>
      </trkpt>
      <trkpt lat="43.20486" lon="5.49316">
        <ele>168.4</ele>
        <time>2025-10-19T09:43:28Z</time>
      </trkpt>
      <trkpt lat="43.20486" lon="5.49316">
        <ele>168.4</ele>
        <time>2025-10-19T09:43:29Z</time>
      </trkpt>
      <trkpt lat="43.20486" lon="5.49316">
        <ele>168.5</ele>
        <time>2025-10-19T09:43:30Z</time>
      </trkpt>
      <trkpt lat="43.20486" lon="5.49316">
        <ele>168.5</ele>
        <time>2025-10-19T09:43:31Z</time>
      </trkpt>
      <trkpt lat="43.20486" lon="5.49316">
        <ele>168.6</ele>
        <time>2025-10-19T09:43:32Z</time>
      </trkpt>
      <trkpt lat="43.20486" lon="5.49316">
        <ele>168.6</ele>
        <time>2025-10-19T09:43:33Z</time>
      </trkpt>
      <trkpt lat="43.20486" lon="5.49316">
        <ele>168.7</ele>
        <time>2025-10-19T09:43:34Z</time>
      </trkpt>
      <trkpt lat="43.20486" lon="5.49316">
        <ele>168.7</ele>
        <time>2025-10-19T09:43:35Z</time>
      </trkpt>
      <trkpt lat="43.20486" lon="5.49316">
        <ele>168.7</ele>
        <time>2025-10-19T09:43:36Z</time>
      </trkpt>
      <trkpt lat="43.20486" lon="5.49316">
        <ele>168.6</ele>
        <time>2025-10-19T09:43:37Z</time>
      </trkpt>
      <trkpt lat="43.20486" lon="5.49317">
        <ele>168.7</ele>
        <time>2025-10-19T09:43:38Z</time>
      </trkpt>
      <trkpt lat="43.20486" lon="5.49317">
        <ele>168.7</ele>
        <time>2025-10-19T09:43:39Z</time>
      </trkpt>
      <trkpt lat="43.20486" lon="5.49317">
        <ele>168.7</ele>
        <time>2025-10-19T09:43:40Z</time>
      </trkpt>
      <trkpt lat="43.20486" lon="5.49317">
        <ele>168.6</ele>
        <time>2025-10-19T09:43:41Z</time>
      </trkpt>
      <trkpt lat="43.20486" lon="5.49317">
        <ele>168.6</ele>
        <time>2025-10-19T09:43:42Z</time>
      </trkpt>
      <trkpt lat="43.20486" lon="5.49317">
        <ele>168.5</ele>
        <time>2025-10-19T09:43:43Z</time>
      </trkpt>
      <trkpt lat="43.20486" lon="5.49317">
        <ele>168.4</ele>
        <time>2025-10-19T09:43:44Z</time>
      </trkpt>
      <trkpt lat="43.20486" lon="5.49317">
        <ele>168.4</ele>
        <time>2025-10-19T09:43:45Z</time>
      </trkpt>
      <trkpt lat="43.20486" lon="5.49317">
        <ele>168.5</ele>
        <time>2025-10-19T09:43:46Z</time>
      </trkpt>
      <trkpt lat="43.20486" lon="5.49317">
        <ele>168.4</ele>
        <time>2025-10-19T09:43:47Z</time>
      </trkpt>
      <trkpt lat="43.20487" lon="5.49317">
        <ele>168.5</ele>
        <time>2025-10-19T09:43:48Z</time>
      </trkpt>
      <trkpt lat="43.20487" lon="5.49317">
        <ele>168.4</ele>
        <time>2025-10-19T09:43:49Z</time>
      </trkpt>
      <trkpt lat="43.20487" lon="5.49317">
        <ele>168.4</ele>
        <time>2025-10-19T09:43:50Z</time>
      </trkpt>
      <trkpt lat="43.20487" lon="5.49317">
        <ele>168.4</ele>
        <time>2025-10-19T09:43:51Z</time>
      </trkpt>
      <trkpt lat="43.20487" lon="5.49316">
        <ele>168.4</ele>
        <time>2025-10-19T09:43:52Z</time>
      </trkpt>
      <trkpt lat="43.20487" lon="5.49316">
        <ele>168.4</ele>
        <time>2025-10-19T09:43:53Z</time>
      </trkpt>
      <trkpt lat="43.20487" lon="5.49316">
        <ele>168.4</ele>
        <time>2025-10-19T09:43:54Z</time>
      </trkpt>
      <trkpt lat="43.20487" lon="5.49316">
        <ele>168.5</ele>
        <time>2025-10-19T09:43:55Z</time>
      </trkpt>
      <trkpt lat="43.20487" lon="5.49316">
        <ele>168.5</ele>
        <time>2025-10-19T09:43:56Z</time>
      </trkpt>
      <trkpt lat="43.20487" lon="5.49316">
        <ele>168.6</ele>
        <time>2025-10-19T09:43:57Z</time>
      </trkpt>
      <trkpt lat="43.20487" lon="5.49316">
        <ele>168.6</ele>
        <time>2025-10-19T09:43:58Z</time>
      </trkpt>
      <trkpt lat="43.20487" lon="5.49316">
        <ele>168.6</ele>
        <time>2025-10-19T09:43:59Z</time>
      </trkpt>
      <trkpt lat="43.20487" lon="5.49316">
        <ele>168.6</ele>
        <time>2025-10-19T09:44:00Z</time>
      </trkpt>
      <trkpt lat="43.20487" lon="5.49317">
        <ele>168.5</ele>
        <time>2025-10-19T09:44:01Z</time>
      </trkpt>
      <trkpt lat="43.20487" lon="5.49318">
        <ele>168.3</ele>
        <time>2025-10-19T09:44:02Z</time>
      </trkpt>
      <trkpt lat="43.20487" lon="5.49319">
        <ele>168.3</ele>
        <time>2025-10-19T09:44:03Z</time>
      </trkpt>
      <trkpt lat="43.20488" lon="5.49319">
        <ele>168.3</ele>
        <time>2025-10-19T09:44:04Z</time>
      </trkpt>
      <trkpt lat="43.20488" lon="5.4932">
        <ele>168.2</ele>
        <time>2025-10-19T09:44:05Z</time>
      </trkpt>
      <trkpt lat="43.20489" lon="5.49319">
        <ele>168.2</ele>
        <time>2025-10-19T09:44:06Z</time>
      </trkpt>
      <trkpt lat="43.20489" lon="5.49319">
        <ele>168.2</ele>
        <time>2025-10-19T09:44:07Z</time>
      </trkpt>
      <trkpt lat="43.20489" lon="5.49319">
        <ele>168.2</ele>
        <time>2025-10-19T09:44:08Z</time>
      </trkpt>
      <trkpt lat="43.20489" lon="5.49318">
        <ele>168.3</ele>
        <time>2025-10-19T09:44:09Z</time>
      </trkpt>
      <trkpt lat="43.20488" lon="5.49318">
        <ele>168.3</ele>
        <time>2025-10-19T09:44:10Z</time>
      </trkpt>
      <trkpt lat="43.20488" lon="5.49318">
        <ele>168.4</ele>
        <time>2025-10-19T09:44:11Z</time>
      </trkpt>
      <trkpt lat="43.20489" lon="5.49319">
        <ele>168.4</ele>
        <time>2025-10-19T09:44:12Z</time>
      </trkpt>
      <trkpt lat="43.20489" lon="5.49319">
        <ele>168.3</ele>
        <time>2025-10-19T09:44:13Z</time>
      </trkpt>
      <trkpt lat="43.2049" lon="5.49319">
        <ele>168.2</ele>
        <time>2025-10-19T09:44:14Z</time>
      </trkpt>
      <trkpt lat="43.2049" lon="5.4932">
        <ele>168.2</ele>
        <time>2025-10-19T09:44:15Z</time>
      </trkpt>
      <trkpt lat="43.20491" lon="5.4932">
        <ele>168.2</ele>
        <time>2025-10-19T09:44:16Z</time>
      </trkpt>
      <trkpt lat="43.20492" lon="5.49321">
        <ele>168.3</ele>
        <time>2025-10-19T09:44:17Z</time>
      </trkpt>
      <trkpt lat="43.20492" lon="5.49321">
        <ele>168.4</ele>
        <time>2025-10-19T09:44:18Z</time>
      </trkpt>
      <trkpt lat="43.20492" lon="5.49321">
        <ele>168.4</ele>
        <time>2025-10-19T09:44:19Z</time>
      </trkpt>
      <trkpt lat="43.20492" lon="5.49321">
        <ele>168.5</ele>
        <time>2025-10-19T09:44:20Z</time>
      </trkpt>
      <trkpt lat="43.20492" lon="5.4932">
        <ele>168.5</ele>
        <time>2025-10-19T09:44:21Z</time>
      </trkpt>
      <trkpt lat="43.20492" lon="5.4932">
        <ele>168.5</ele>
        <time>2025-10-19T09:44:22Z</time>
      </trkpt>
      <trkpt lat="43.20491" lon="5.49321">
        <ele>168.6</ele>
        <time>2025-10-19T09:44:23Z</time>
      </trkpt>
      <trkpt lat="43.20491" lon="5.49321">
        <ele>168.7</ele>
        <time>2025-10-19T09:44:24Z</time>
      </trkpt>
      <trkpt lat="43.20491" lon="5.49322">
        <ele>168.7</ele>
        <time>2025-10-19T09:44:25Z</time>
      </trkpt>
      <trkpt lat="43.20491" lon="5.49322">
        <ele>168.7</ele>
        <time>2025-10-19T09:44:26Z</time>
      </trkpt>
      <trkpt lat="43.20491" lon="5.49322">
        <ele>168.8</ele>
        <time>2025-10-19T09:44:27Z</time>
      </trkpt>
      <trkpt lat="43.20492" lon="5.49322">
        <ele>168.8</ele>
        <time>2025-10-19T09:44:28Z</time>
      </trkpt>
      <trkpt lat="43.20492" lon="5.49322">
        <ele>168.9</ele>
        <time>2025-10-19T09:44:29Z</time>
      </trkpt>
      <trkpt lat="43.20492" lon="5.49322">
        <ele>168.9</ele>
        <time>2025-10-19T09:44:30Z</time>
      </trkpt>
      <trkpt lat="43.20492" lon="5.49322">
        <ele>168.9</ele>
        <time>2025-10-19T09:44:31Z</time>
      </trkpt>
      <trkpt lat="43.20492" lon="5.49321">
        <ele>168.9</ele>
        <time>2025-10-19T09:44:32Z</time>
      </trkpt>
      <trkpt lat="43.20492" lon="5.49321">
        <ele>168.8</ele>
        <time>2025-10-19T09:44:33Z</time>
      </trkpt>
      <trkpt lat="43.20493" lon="5.49321">
        <ele>168.9</ele>
        <time>2025-10-19T09:44:34Z</time>
      </trkpt>
      <trkpt lat="43.20493" lon="5.49321">
        <ele>168.8</ele>
        <time>2025-10-19T09:44:35Z</time>
      </trkpt>
      <trkpt lat="43.20493" lon="5.49321">
        <ele>168.8</ele>
        <time>2025-10-19T09:44:36Z</time>
      </trkpt>
      <trkpt lat="43.20493" lon="5.49321">
        <ele>168.9</ele>
        <time>2025-10-19T09:44:37Z</time>
      </trkpt>
      <trkpt lat="43.20493" lon="5.49321">
        <ele>168.9</ele>
        <time>2025-10-19T09:44:38Z</time>
      </trkpt>
      <trkpt lat="43.20493" lon="5.49321">
        <ele>168.9</ele>
        <time>2025-10-19T09:44:39Z</time>
      </trkpt>
      <trkpt lat="43.20493" lon="5.49321">
        <ele>169</ele>
        <time>2025-10-19T09:44:40Z</time>
      </trkpt>
      <trkpt lat="43.20493" lon="5.49321">
        <ele>169</ele>
        <time>2025-10-19T09:44:41Z</time>
      </trkpt>
      <trkpt lat="43.20494" lon="5.49321">
        <ele>169</ele>
        <time>2025-10-19T09:44:42Z</time>
      </trkpt>
      <trkpt lat="43.20494" lon="5.49321">
        <ele>169.2</ele>
        <time>2025-10-19T09:44:43Z</time>
      </trkpt>
      <trkpt lat="43.20494" lon="5.49321">
        <ele>169.1</ele>
        <time>2025-10-19T09:44:44Z</time>
      </trkpt>
      <trkpt lat="43.20494" lon="5.49321">
        <ele>169.1</ele>
        <time>2025-10-19T09:44:45Z</time>
      </trkpt>
      <trkpt lat="43.20494" lon="5.49321">
        <ele>169.1</ele>
        <time>2025-10-19T09:44:46Z</time>
      </trkpt>
      <trkpt lat="43.20494" lon="5.4932">
        <ele>169.1</ele>
        <time>2025-10-19T09:44:47Z</time>
      </trkpt>
      <trkpt lat="43.20494" lon="5.4932">
        <ele>169.1</ele>
        <time>2025-10-19T09:44:48Z</time>
      </trkpt>
      <trkpt lat="43.20494" lon="5.4932">
        <ele>169.1</ele>
        <time>2025-10-19T09:44:49Z</time>
      </trkpt>
      <trkpt lat="43.20494" lon="5.4932">
        <ele>169.2</ele>
        <time>2025-10-19T09:44:50Z</time>
      </trkpt>
      <trkpt lat="43.20495" lon="5.49319">
        <ele>169.1</ele>
        <time>2025-10-19T09:44:51Z</time>
      </trkpt>
      <trkpt lat="43.20495" lon="5.49319">
        <ele>169.2</ele>
        <time>2025-10-19T09:44:52Z</time>
      </trkpt>
      <trkpt lat="43.20495" lon="5.49319">
        <ele>169.2</ele>
        <time>2025-10-19T09:44:53Z</time>
      </trkpt>
      <trkpt lat="43.20495" lon="5.49319">
        <ele>169.2</ele>
        <time>2025-10-19T09:44:54Z</time>
      </trkpt>
      <trkpt lat="43.20495" lon="5.49319">
        <ele>169.3</ele>
        <time>2025-10-19T09:44:55Z</time>
      </trkpt>
      <trkpt lat="43.20495" lon="5.49319">
        <ele>169.4</ele>
        <time>2025-10-19T09:44:56Z</time>
      </trkpt>
      <trkpt lat="43.20495" lon="5.49319">
        <ele>169.5</ele>
        <time>2025-10-19T09:44:57Z</time>
      </trkpt>
      <trkpt lat="43.20495" lon="5.49319">
        <ele>169.5</ele>
        <time>2025-10-19T09:44:58Z</time>
      </trkpt>
      <trkpt lat="43.20495" lon="5.49319">
        <ele>169.5</ele>
        <time>2025-10-19T09:44:59Z</time>
      </trkpt>
      <trkpt lat="43.20495" lon="5.49319">
        <ele>169.5</ele>
        <time>2025-10-19T09:45:00Z</time>
      </trkpt>
      <trkpt lat="43.20495" lon="5.49319">
        <ele>169.4</ele>
        <time>2025-10-19T09:45:01Z</time>
      </trkpt>
      <trkpt lat="43.20495" lon="5.49319">
        <ele>169.4</ele>
        <time>2025-10-19T09:45:02Z</time>
      </trkpt>
      <trkpt lat="43.20495" lon="5.49319">
        <ele>169.4</ele>
        <time>2025-10-19T09:45:03Z</time>
      </trkpt>
      <trkpt lat="43.20495" lon="5.49319">
        <ele>169.5</ele>
        <time>2025-10-19T09:45:04Z</time>
      </trkpt>
      <trkpt lat="43.20495" lon="5.49319">
        <ele>169.4</ele>
        <time>2025-10-19T09:45:05Z</time>
      </trkpt>
      <trkpt lat="43.20495" lon="5.4932">
        <ele>169.3</ele>
        <time>2025-10-19T09:45:06Z</time>
      </trkpt>
      <trkpt lat="43.20495" lon="5.4932">
        <ele>169.4</ele>
        <time>2025-10-19T09:45:07Z</time>
      </trkpt>
      <trkpt lat="43.20495" lon="5.49321">
        <ele>169.5</ele>
        <time>2025-10-19T09:45:08Z</time>
      </trkpt>
      <trkpt lat="43.20496" lon="5.49321">
        <ele>169.6</ele>
        <time>2025-10-19T09:45:09Z</time>
      </trkpt>
      <trkpt lat="43.20496" lon="5.49321">
        <ele>169.7</ele>
        <time>2025-10-19T09:45:10Z</time>
      </trkpt>
      <trkpt lat="43.20496" lon="5.49322">
        <ele>169.9</ele>
        <time>2025-10-19T09:45:11Z</time>
      </trkpt>
      <trkpt lat="43.20496" lon="5.49321">
        <ele>170</ele>
        <time>2025-10-19T09:45:12Z</time>
      </trkpt>
      <trkpt lat="43.20496" lon="5.49321">
        <ele>170.1</ele>
        <time>2025-10-19T09:45:13Z</time>
      </trkpt>
      <trkpt lat="43.20496" lon="5.49321">
        <ele>170.1</ele>
        <time>2025-10-19T09:45:14Z</time>
      </trkpt>
      <trkpt lat="43.20496" lon="5.49321">
        <ele>170.1</ele>
        <time>2025-10-19T09:45:15Z</time>
      </trkpt>
      <trkpt lat="43.20496" lon="5.49322">
        <ele>170.1</ele>
        <time>2025-10-19T09:45:16Z</time>
      </trkpt>
      <trkpt lat="43.20496" lon="5.49322">
        <ele>170.1</ele>
        <time>2025-10-19T09:45:17Z</time>
      </trkpt>
      <trkpt lat="43.20496" lon="5.49322">
        <ele>170.1</ele>
        <time>2025-10-19T09:45:18Z</time>
      </trkpt>
      <trkpt lat="43.20496" lon="5.49322">
        <ele>170.1</ele>
        <time>2025-10-19T09:45:19Z</time>
      </trkpt>
      <trkpt lat="43.20496" lon="5.49322">
        <ele>170.1</ele>
        <time>2025-10-19T09:45:20Z</time>
      </trkpt>
      <trkpt lat="43.20496" lon="5.49322">
        <ele>170</ele>
        <time>2025-10-19T09:45:21Z</time>
      </trkpt>
      <trkpt lat="43.20496" lon="5.49322">
        <ele>169.9</ele>
        <time>2025-10-19T09:45:22Z</time>
      </trkpt>
      <trkpt lat="43.20496" lon="5.49322">
        <ele>169.9</ele>
        <time>2025-10-19T09:45:23Z</time>
      </trkpt>
      <trkpt lat="43.20496" lon="5.49322">
        <ele>169.9</ele>
        <time>2025-10-19T09:45:24Z</time>
      </trkpt>
      <trkpt lat="43.20496" lon="5.49322">
        <ele>169.9</ele>
        <time>2025-10-19T09:45:25Z</time>
      </trkpt>
      <trkpt lat="43.20496" lon="5.49322">
        <ele>170</ele>
        <time>2025-10-19T09:45:26Z</time>
      </trkpt>
      <trkpt lat="43.20496" lon="5.49322">
        <ele>170</ele>
        <time>2025-10-19T09:45:27Z</time>
      </trkpt>
      <trkpt lat="43.20496" lon="5.49322">
        <ele>170.2</ele>
        <time>2025-10-19T09:45:28Z</time>
      </trkpt>
      <trkpt lat="43.20496" lon="5.49322">
        <ele>170.1</ele>
        <time>2025-10-19T09:45:29Z</time>
      </trkpt>
      <trkpt lat="43.20496" lon="5.49322">
        <ele>170.1</ele>
        <time>2025-10-19T09:45:30Z</time>
      </trkpt>
      <trkpt lat="43.20496" lon="5.49322">
        <ele>170.1</ele>
        <time>2025-10-19T09:45:31Z</time>
      </trkpt>
      <trkpt lat="43.20496" lon="5.49322">
        <ele>170</ele>
        <time>2025-10-19T09:45:32Z</time>
      </trkpt>
      <trkpt lat="43.20496" lon="5.49322">
        <ele>170</ele>
        <time>2025-10-19T09:45:33Z</time>
      </trkpt>
      <trkpt lat="43.20495" lon="5.49323">
        <ele>169.9</ele>
        <time>2025-10-19T09:45:34Z</time>
      </trkpt>
      <trkpt lat="43.20495" lon="5.49323">
        <ele>169.9</ele>
        <time>2025-10-19T09:45:35Z</time>
      </trkpt>
      <trkpt lat="43.20495" lon="5.49324">
        <ele>170</ele>
        <time>2025-10-19T09:45:36Z</time>
      </trkpt>
      <trkpt lat="43.20494" lon="5.49324">
        <ele>170</ele>
        <time>2025-10-19T09:45:37Z</time>
      </trkpt>
      <trkpt lat="43.20495" lon="5.49325">
        <ele>170</ele>
        <time>2025-10-19T09:45:38Z</time>
      </trkpt>
      <trkpt lat="43.20495" lon="5.49325">
        <ele>170.1</ele>
        <time>2025-10-19T09:45:39Z</time>
      </trkpt>
      <trkpt lat="43.20495" lon="5.49325">
        <ele>170.2</ele>
        <time>2025-10-19T09:45:40Z</time>
      </trkpt>
      <trkpt lat="43.20495" lon="5.49325">
        <ele>170.2</ele>
        <time>2025-10-19T09:45:41Z</time>
      </trkpt>
      <trkpt lat="43.20495" lon="5.49325">
        <ele>170.3</ele>
        <time>2025-10-19T09:45:42Z</time>
      </trkpt>
      <trkpt lat="43.20495" lon="5.49325">
        <ele>170.3</ele>
        <time>2025-10-19T09:45:43Z</time>
      </trkpt>
      <trkpt lat="43.20495" lon="5.49326">
        <ele>170.4</ele>
        <time>2025-10-19T09:45:44Z</time>
      </trkpt>
      <trkpt lat="43.20495" lon="5.49326">
        <ele>170.4</ele>
        <time>2025-10-19T09:45:45Z</time>
      </trkpt>
      <trkpt lat="43.20495" lon="5.49326">
        <ele>170.4</ele>
        <time>2025-10-19T09:45:46Z</time>
      </trkpt>
      <trkpt lat="43.20495" lon="5.49326">
        <ele>170.5</ele>
        <time>2025-10-19T09:45:47Z</time>
      </trkpt>
      <trkpt lat="43.20495" lon="5.49325">
        <ele>170.5</ele>
        <time>2025-10-19T09:45:48Z</time>
      </trkpt>
      <trkpt lat="43.20495" lon="5.49326">
        <ele>170.5</ele>
        <time>2025-10-19T09:45:49Z</time>
      </trkpt>
      <trkpt lat="43.20495" lon="5.49325">
        <ele>170.5</ele>
        <time>2025-10-19T09:45:50Z</time>
      </trkpt>
      <trkpt lat="43.20495" lon="5.49325">
        <ele>170.4</ele>
        <time>2025-10-19T09:45:51Z</time>
      </trkpt>
      <trkpt lat="43.20495" lon="5.49326">
        <ele>170.4</ele>
        <time>2025-10-19T09:45:52Z</time>
      </trkpt>
      <trkpt lat="43.20495" lon="5.49326">
        <ele>170.3</ele>
        <time>2025-10-19T09:45:53Z</time>
      </trkpt>
      <trkpt lat="43.20495" lon="5.49325">
        <ele>170.3</ele>
        <time>2025-10-19T09:45:54Z</time>
      </trkpt>
      <trkpt lat="43.20495" lon="5.49325">
        <ele>170.3</ele>
        <time>2025-10-19T09:45:55Z</time>
      </trkpt>
      <trkpt lat="43.20495" lon="5.49325">
        <ele>170.3</ele>
        <time>2025-10-19T09:45:56Z</time>
      </trkpt>
      <trkpt lat="43.20495" lon="5.49325">
        <ele>170.2</ele>
        <time>2025-10-19T09:45:57Z</time>
      </trkpt>
      <trkpt lat="43.20495" lon="5.49325">
        <ele>170.2</ele>
        <time>2025-10-19T09:45:58Z</time>
      </trkpt>
      <trkpt lat="43.20495" lon="5.49325">
        <ele>170.1</ele>
        <time>2025-10-19T09:45:59Z</time>
      </trkpt>
      <trkpt lat="43.20495" lon="5.49325">
        <ele>170.1</ele>
        <time>2025-10-19T09:46:00Z</time>
      </trkpt>
      <trkpt lat="43.20495" lon="5.49325">
        <ele>170</ele>
        <time>2025-10-19T09:46:01Z</time>
      </trkpt>
      <trkpt lat="43.20495" lon="5.49325">
        <ele>170</ele>
        <time>2025-10-19T09:46:02Z</time>
      </trkpt>
      <trkpt lat="43.20495" lon="5.49325">
        <ele>169.8</ele>
        <time>2025-10-19T09:46:03Z</time>
      </trkpt>
      <trkpt lat="43.20495" lon="5.49325">
        <ele>169.8</ele>
        <time>2025-10-19T09:46:04Z</time>
      </trkpt>
      <trkpt lat="43.20495" lon="5.49325">
        <ele>169.9</ele>
        <time>2025-10-19T09:46:05Z</time>
      </trkpt>
      <trkpt lat="43.20495" lon="5.49325">
        <ele>169.9</ele>
        <time>2025-10-19T09:46:06Z</time>
      </trkpt>
      <trkpt lat="43.20495" lon="5.49325">
        <ele>169.9</ele>
        <time>2025-10-19T09:46:07Z</time>
      </trkpt>
      <trkpt lat="43.20495" lon="5.49325">
        <ele>170</ele>
        <time>2025-10-19T09:46:08Z</time>
      </trkpt>
      <trkpt lat="43.20495" lon="5.49326">
        <ele>169.9</ele>
        <time>2025-10-19T09:46:09Z</time>
      </trkpt>
      <trkpt lat="43.20495" lon="5.49326">
        <ele>170</ele>
        <time>2025-10-19T09:46:10Z</time>
      </trkpt>
      <trkpt lat="43.20495" lon="5.49326">
        <ele>170</ele>
        <time>2025-10-19T09:46:11Z</time>
      </trkpt>
      <trkpt lat="43.20495" lon="5.49326">
        <ele>170.1</ele>
        <time>2025-10-19T09:46:12Z</time>
      </trkpt>
      <trkpt lat="43.20495" lon="5.49326">
        <ele>170.2</ele>
        <time>2025-10-19T09:46:13Z</time>
      </trkpt>
      <trkpt lat="43.20495" lon="5.49326">
        <ele>170.3</ele>
        <time>2025-10-19T09:46:14Z</time>
      </trkpt>
      <trkpt lat="43.20495" lon="5.49326">
        <ele>170.4</ele>
        <time>2025-10-19T09:46:15Z</time>
      </trkpt>
      <trkpt lat="43.20495" lon="5.49326">
        <ele>170.4</ele>
        <time>2025-10-19T09:46:16Z</time>
      </trkpt>
      <trkpt lat="43.20495" lon="5.49326">
        <ele>170.4</ele>
        <time>2025-10-19T09:46:17Z</time>
      </trkpt>
      <trkpt lat="43.20495" lon="5.49327">
        <ele>170.5</ele>
        <time>2025-10-19T09:46:18Z</time>
      </trkpt>
      <trkpt lat="43.20495" lon="5.49327">
        <ele>170.5</ele>
        <time>2025-10-19T09:46:19Z</time>
      </trkpt>
      <trkpt lat="43.20495" lon="5.49327">
        <ele>170.5</ele>
        <time>2025-10-19T09:46:20Z</time>
      </trkpt>
      <trkpt lat="43.20495" lon="5.49327">
        <ele>170.5</ele>
        <time>2025-10-19T09:46:21Z</time>
      </trkpt>
      <trkpt lat="43.20495" lon="5.49327">
        <ele>170.5</ele>
        <time>2025-10-19T09:46:22Z</time>
      </trkpt>
      <trkpt lat="43.20495" lon="5.49327">
        <ele>170.4</ele>
        <time>2025-10-19T09:46:23Z</time>
      </trkpt>
      <trkpt lat="43.20495" lon="5.49328">
        <ele>170.4</ele>
        <time>2025-10-19T09:46:24Z</time>
      </trkpt>
      <trkpt lat="43.20495" lon="5.49328">
        <ele>170.4</ele>
        <time>2025-10-19T09:46:25Z</time>
      </trkpt>
      <trkpt lat="43.20495" lon="5.49328">
        <ele>170.5</ele>
        <time>2025-10-19T09:46:26Z</time>
      </trkpt>
      <trkpt lat="43.20494" lon="5.49328">
        <ele>170.6</ele>
        <time>2025-10-19T09:46:27Z</time>
      </trkpt>
      <trkpt lat="43.20494" lon="5.49328">
        <ele>170.7</ele>
        <time>2025-10-19T09:46:28Z</time>
      </trkpt>
      <trkpt lat="43.20494" lon="5.49329">
        <ele>170.8</ele>
        <time>2025-10-19T09:46:29Z</time>
      </trkpt>
      <trkpt lat="43.20494" lon="5.49329">
        <ele>170.8</ele>
        <time>2025-10-19T09:46:30Z</time>
      </trkpt>
      <trkpt lat="43.20494" lon="5.49329">
        <ele>170.8</ele>
        <time>2025-10-19T09:46:31Z</time>
      </trkpt>
      <trkpt lat="43.20494" lon="5.49329">
        <ele>170.8</ele>
        <time>2025-10-19T09:46:32Z</time>
      </trkpt>
      <trkpt lat="43.20494" lon="5.49329">
        <ele>170.8</ele>
        <time>2025-10-19T09:46:33Z</time>
      </trkpt>
      <trkpt lat="43.20494" lon="5.49329">
        <ele>170.8</ele>
        <time>2025-10-19T09:46:34Z</time>
      </trkpt>
      <trkpt lat="43.20493" lon="5.49329">
        <ele>170.8</ele>
        <time>2025-10-19T09:46:35Z</time>
      </trkpt>
      <trkpt lat="43.20493" lon="5.49329">
        <ele>170.8</ele>
        <time>2025-10-19T09:46:36Z</time>
      </trkpt>
      <trkpt lat="43.20493" lon="5.49329">
        <ele>170.7</ele>
        <time>2025-10-19T09:46:37Z</time>
      </trkpt>
      <trkpt lat="43.20493" lon="5.49329">
        <ele>170.7</ele>
        <time>2025-10-19T09:46:38Z</time>
      </trkpt>
      <trkpt lat="43.20493" lon="5.49329">
        <ele>170.7</ele>
        <time>2025-10-19T09:46:39Z</time>
      </trkpt>
      <trkpt lat="43.20493" lon="5.49329">
        <ele>170.7</ele>
        <time>2025-10-19T09:46:40Z</time>
      </trkpt>
      <trkpt lat="43.20493" lon="5.4933">
        <ele>170.7</ele>
        <time>2025-10-19T09:46:41Z</time>
      </trkpt>
      <trkpt lat="43.20493" lon="5.4933">
        <ele>170.7</ele>
        <time>2025-10-19T09:46:42Z</time>
      </trkpt>
      <trkpt lat="43.20493" lon="5.4933">
        <ele>170.7</ele>
        <time>2025-10-19T09:46:43Z</time>
      </trkpt>
      <trkpt lat="43.20493" lon="5.4933">
        <ele>170.7</ele>
        <time>2025-10-19T09:46:44Z</time>
      </trkpt>
      <trkpt lat="43.20493" lon="5.4933">
        <ele>170.7</ele>
        <time>2025-10-19T09:46:45Z</time>
      </trkpt>
      <trkpt lat="43.20493" lon="5.4933">
        <ele>170.6</ele>
        <time>2025-10-19T09:46:46Z</time>
      </trkpt>
      <trkpt lat="43.20493" lon="5.4933">
        <ele>170.7</ele>
        <time>2025-10-19T09:46:47Z</time>
      </trkpt>
      <trkpt lat="43.20493" lon="5.49331">
        <ele>170.7</ele>
        <time>2025-10-19T09:46:48Z</time>
      </trkpt>
      <trkpt lat="43.20493" lon="5.49331">
        <ele>170.7</ele>
        <time>2025-10-19T09:46:49Z</time>
      </trkpt>
      <trkpt lat="43.20493" lon="5.49331">
        <ele>170.6</ele>
        <time>2025-10-19T09:46:50Z</time>
      </trkpt>
      <trkpt lat="43.20493" lon="5.49331">
        <ele>170.6</ele>
        <time>2025-10-19T09:46:51Z</time>
      </trkpt>
      <trkpt lat="43.20493" lon="5.49331">
        <ele>170.4</ele>
        <time>2025-10-19T09:46:52Z</time>
      </trkpt>
      <trkpt lat="43.20493" lon="5.49331">
        <ele>170.3</ele>
        <time>2025-10-19T09:46:53Z</time>
      </trkpt>
      <trkpt lat="43.20493" lon="5.49331">
        <ele>170.2</ele>
        <time>2025-10-19T09:46:54Z</time>
      </trkpt>
      <trkpt lat="43.20493" lon="5.49331">
        <ele>170.1</ele>
        <time>2025-10-19T09:46:55Z</time>
      </trkpt>
      <trkpt lat="43.20493" lon="5.49331">
        <ele>170.1</ele>
        <time>2025-10-19T09:46:56Z</time>
      </trkpt>
      <trkpt lat="43.20493" lon="5.49331">
        <ele>170.2</ele>
        <time>2025-10-19T09:46:57Z</time>
      </trkpt>
      <trkpt lat="43.20492" lon="5.49331">
        <ele>170.3</ele>
        <time>2025-10-19T09:46:58Z</time>
      </trkpt>
      <trkpt lat="43.20492" lon="5.49331">
        <ele>170.3</ele>
        <time>2025-10-19T09:46:59Z</time>
      </trkpt>
      <trkpt lat="43.20492" lon="5.49331">
        <ele>170.3</ele>
        <time>2025-10-19T09:47:00Z</time>
      </trkpt>
      <trkpt lat="43.20492" lon="5.49331">
        <ele>170.3</ele>
        <time>2025-10-19T09:47:01Z</time>
      </trkpt>
      <trkpt lat="43.20492" lon="5.49331">
        <ele>170.2</ele>
        <time>2025-10-19T09:47:02Z</time>
      </trkpt>
      <trkpt lat="43.20492" lon="5.49331">
        <ele>170.1</ele>
        <time>2025-10-19T09:47:03Z</time>
      </trkpt>
      <trkpt lat="43.20492" lon="5.49331">
        <ele>170</ele>
        <time>2025-10-19T09:47:04Z</time>
      </trkpt>
      <trkpt lat="43.20492" lon="5.49331">
        <ele>170</ele>
        <time>2025-10-19T09:47:05Z</time>
      </trkpt>
      <trkpt lat="43.20492" lon="5.49331">
        <ele>170</ele>
        <time>2025-10-19T09:47:06Z</time>
      </trkpt>
      <trkpt lat="43.20492" lon="5.49332">
        <ele>170</ele>
        <time>2025-10-19T09:47:07Z</time>
      </trkpt>
      <trkpt lat="43.20492" lon="5.49332">
        <ele>170</ele>
        <time>2025-10-19T09:47:08Z</time>
      </trkpt>
      <trkpt lat="43.20492" lon="5.49332">
        <ele>170.1</ele>
        <time>2025-10-19T09:47:09Z</time>
      </trkpt>
      <trkpt lat="43.20492" lon="5.49332">
        <ele>170</ele>
        <time>2025-10-19T09:47:10Z</time>
      </trkpt>
      <trkpt lat="43.20492" lon="5.49332">
        <ele>170</ele>
        <time>2025-10-19T09:47:11Z</time>
      </trkpt>
      <trkpt lat="43.20492" lon="5.49332">
        <ele>170</ele>
        <time>2025-10-19T09:47:12Z</time>
      </trkpt>
      <trkpt lat="43.20491" lon="5.49332">
        <ele>170</ele>
        <time>2025-10-19T09:47:13Z</time>
      </trkpt>
      <trkpt lat="43.20491" lon="5.49331">
        <ele>170</ele>
        <time>2025-10-19T09:47:14Z</time>
      </trkpt>
      <trkpt lat="43.20491" lon="5.49331">
        <ele>170.1</ele>
        <time>2025-10-19T09:47:15Z</time>
      </trkpt>
      <trkpt lat="43.20491" lon="5.49331">
        <ele>170</ele>
        <time>2025-10-19T09:47:16Z</time>
      </trkpt>
      <trkpt lat="43.20491" lon="5.49331">
        <ele>170</ele>
        <time>2025-10-19T09:47:17Z</time>
      </trkpt>
      <trkpt lat="43.20491" lon="5.49331">
        <ele>170</ele>
        <time>2025-10-19T09:47:18Z</time>
      </trkpt>
      <trkpt lat="43.20491" lon="5.49331">
        <ele>170</ele>
        <time>2025-10-19T09:47:19Z</time>
      </trkpt>
      <trkpt lat="43.20491" lon="5.49331">
        <ele>170.1</ele>
        <time>2025-10-19T09:47:20Z</time>
      </trkpt>
      <trkpt lat="43.20491" lon="5.49331">
        <ele>170.1</ele>
        <time>2025-10-19T09:47:21Z</time>
      </trkpt>
      <trkpt lat="43.20491" lon="5.49331">
        <ele>170.2</ele>
        <time>2025-10-19T09:47:22Z</time>
      </trkpt>
      <trkpt lat="43.20491" lon="5.49331">
        <ele>170.2</ele>
        <time>2025-10-19T09:47:23Z</time>
      </trkpt>
      <trkpt lat="43.20491" lon="5.49331">
        <ele>170.3</ele>
        <time>2025-10-19T09:47:24Z</time>
      </trkpt>
      <trkpt lat="43.20491" lon="5.49331">
        <ele>170.2</ele>
        <time>2025-10-19T09:47:25Z</time>
      </trkpt>
      <trkpt lat="43.20491" lon="5.49331">
        <ele>170.2</ele>
        <time>2025-10-19T09:47:26Z</time>
      </trkpt>
      <trkpt lat="43.20491" lon="5.49332">
        <ele>170.2</ele>
        <time>2025-10-19T09:47:27Z</time>
      </trkpt>
      <trkpt lat="43.20491" lon="5.49332">
        <ele>170.4</ele>
        <time>2025-10-19T09:47:28Z</time>
      </trkpt>
      <trkpt lat="43.20491" lon="5.49333">
        <ele>170.4</ele>
        <time>2025-10-19T09:47:29Z</time>
      </trkpt>
      <trkpt lat="43.20492" lon="5.49333">
        <ele>170.4</ele>
        <time>2025-10-19T09:47:30Z</time>
      </trkpt>
      <trkpt lat="43.20492" lon="5.49334">
        <ele>170.4</ele>
        <time>2025-10-19T09:47:31Z</time>
      </trkpt>
      <trkpt lat="43.20492" lon="5.49335">
        <ele>170.4</ele>
        <time>2025-10-19T09:47:32Z</time>
      </trkpt>
      <trkpt lat="43.20493" lon="5.49336">
        <ele>170.4</ele>
        <time>2025-10-19T09:47:33Z</time>
      </trkpt>
      <trkpt lat="43.20493" lon="5.49337">
        <ele>170.5</ele>
        <time>2025-10-19T09:47:34Z</time>
      </trkpt>
      <trkpt lat="43.20493" lon="5.49338">
        <ele>170.7</ele>
        <time>2025-10-19T09:47:35Z</time>
      </trkpt>
      <trkpt lat="43.20494" lon="5.49339">
        <ele>170.8</ele>
        <time>2025-10-19T09:47:36Z</time>
      </trkpt>
      <trkpt lat="43.20494" lon="5.4934">
        <ele>170.8</ele>
        <time>2025-10-19T09:47:37Z</time>
      </trkpt>
      <trkpt lat="43.20494" lon="5.49341">
        <ele>170.8</ele>
        <time>2025-10-19T09:47:38Z</time>
      </trkpt>
      <trkpt lat="43.20495" lon="5.49342">
        <ele>170.9</ele>
        <time>2025-10-19T09:47:39Z</time>
      </trkpt>
      <trkpt lat="43.20495" lon="5.49343">
        <ele>171</ele>
        <time>2025-10-19T09:47:40Z</time>
      </trkpt>
      <trkpt lat="43.20496" lon="5.49344">
        <ele>171.1</ele>
        <time>2025-10-19T09:47:41Z</time>
      </trkpt>
      <trkpt lat="43.20496" lon="5.49345">
        <ele>171.2</ele>
        <time>2025-10-19T09:47:42Z</time>
      </trkpt>
      <trkpt lat="43.20497" lon="5.49346">
        <ele>171.2</ele>
        <time>2025-10-19T09:47:43Z</time>
      </trkpt>
      <trkpt lat="43.20497" lon="5.49347">
        <ele>171.3</ele>
        <time>2025-10-19T09:47:44Z</time>
      </trkpt>
      <trkpt lat="43.20497" lon="5.49348">
        <ele>171.4</ele>
        <time>2025-10-19T09:47:45Z</time>
      </trkpt>
      <trkpt lat="43.20498" lon="5.49349">
        <ele>171.5</ele>
        <time>2025-10-19T09:47:46Z</time>
      </trkpt>
      <trkpt lat="43.20497" lon="5.49349">
        <ele>171.6</ele>
        <time>2025-10-19T09:47:47Z</time>
      </trkpt>
      <trkpt lat="43.20497" lon="5.4935">
        <ele>171.7</ele>
        <time>2025-10-19T09:47:48Z</time>
      </trkpt>
      <trkpt lat="43.20497" lon="5.49351">
        <ele>171.7</ele>
        <time>2025-10-19T09:47:49Z</time>
      </trkpt>
      <trkpt lat="43.20496" lon="5.49351">
        <ele>171.7</ele>
        <time>2025-10-19T09:47:50Z</time>
      </trkpt>
      <trkpt lat="43.20496" lon="5.49352">
        <ele>171.6</ele>
        <time>2025-10-19T09:47:51Z</time>
      </trkpt>
      <trkpt lat="43.20495" lon="5.49352">
        <ele>171.6</ele>
        <time>2025-10-19T09:47:52Z</time>
      </trkpt>
      <trkpt lat="43.20495" lon="5.49352">
        <ele>171.6</ele>
        <time>2025-10-19T09:47:53Z</time>
      </trkpt>
      <trkpt lat="43.20494" lon="5.49353">
        <ele>171.6</ele>
        <time>2025-10-19T09:47:54Z</time>
      </trkpt>
      <trkpt lat="43.20494" lon="5.49353">
        <ele>171.5</ele>
        <time>2025-10-19T09:47:55Z</time>
      </trkpt>
      <trkpt lat="43.20493" lon="5.49353">
        <ele>171.5</ele>
        <time>2025-10-19T09:47:56Z</time>
      </trkpt>
      <trkpt lat="43.20492" lon="5.49353">
        <ele>171.5</ele>
        <time>2025-10-19T09:47:57Z</time>
      </trkpt>
      <trkpt lat="43.20491" lon="5.49353">
        <ele>171.5</ele>
        <time>2025-10-19T09:47:58Z</time>
      </trkpt>
      <trkpt lat="43.20491" lon="5.49353">
        <ele>171.5</ele>
        <time>2025-10-19T09:47:59Z</time>
      </trkpt>
      <trkpt lat="43.2049" lon="5.49353">
        <ele>171.4</ele>
        <time>2025-10-19T09:48:00Z</time>
      </trkpt>
      <trkpt lat="43.20489" lon="5.49352">
        <ele>171.3</ele>
        <time>2025-10-19T09:48:01Z</time>
      </trkpt>
      <trkpt lat="43.20489" lon="5.49352">
        <ele>171.2</ele>
        <time>2025-10-19T09:48:02Z</time>
      </trkpt>
      <trkpt lat="43.20488" lon="5.49352">
        <ele>171.2</ele>
        <time>2025-10-19T09:48:03Z</time>
      </trkpt>
      <trkpt lat="43.20487" lon="5.49351">
        <ele>171.1</ele>
        <time>2025-10-19T09:48:04Z</time>
      </trkpt>
      <trkpt lat="43.20487" lon="5.49351">
        <ele>170.9</ele>
        <time>2025-10-19T09:48:05Z</time>
      </trkpt>
      <trkpt lat="43.20487" lon="5.49351">
        <ele>170.8</ele>
        <time>2025-10-19T09:48:06Z</time>
      </trkpt>
      <trkpt lat="43.20486" lon="5.4935">
        <ele>170.7</ele>
        <time>2025-10-19T09:48:07Z</time>
      </trkpt>
      <trkpt lat="43.20485" lon="5.49351">
        <ele>170.6</ele>
        <time>2025-10-19T09:48:08Z</time>
      </trkpt>
      <trkpt lat="43.20485" lon="5.49351">
        <ele>170.4</ele>
        <time>2025-10-19T09:48:09Z</time>
      </trkpt>
      <trkpt lat="43.20484" lon="5.4935">
        <ele>170.3</ele>
        <time>2025-10-19T09:48:10Z</time>
      </trkpt>
      <trkpt lat="43.20483" lon="5.4935">
        <ele>170.1</ele>
        <time>2025-10-19T09:48:11Z</time>
      </trkpt>
      <trkpt lat="43.20483" lon="5.49351">
        <ele>169.9</ele>
        <time>2025-10-19T09:48:12Z</time>
      </trkpt>
      <trkpt lat="43.20482" lon="5.49351">
        <ele>169.7</ele>
        <time>2025-10-19T09:48:13Z</time>
      </trkpt>
      <trkpt lat="43.20482" lon="5.49352">
        <ele>169.6</ele>
        <time>2025-10-19T09:48:14Z</time>
      </trkpt>
      <trkpt lat="43.20482" lon="5.49352">
        <ele>169.5</ele>
        <time>2025-10-19T09:48:15Z</time>
      </trkpt>
      <trkpt lat="43.20481" lon="5.49353">
        <ele>169.5</ele>
        <time>2025-10-19T09:48:16Z</time>
      </trkpt>
      <trkpt lat="43.2048" lon="5.49353">
        <ele>169.5</ele>
        <time>2025-10-19T09:48:17Z</time>
      </trkpt>
      <trkpt lat="43.2048" lon="5.49353">
        <ele>169.5</ele>
        <time>2025-10-19T09:48:18Z</time>
      </trkpt>
      <trkpt lat="43.20479" lon="5.49353">
        <ele>169.5</ele>
        <time>2025-10-19T09:48:19Z</time>
      </trkpt>
      <trkpt lat="43.20478" lon="5.49353">
        <ele>169.4</ele>
        <time>2025-10-19T09:48:20Z</time>
      </trkpt>
      <trkpt lat="43.20478" lon="5.49353">
        <ele>169.3</ele>
        <time>2025-10-19T09:48:21Z</time>
      </trkpt>
      <trkpt lat="43.20477" lon="5.49353">
        <ele>169.1</ele>
        <time>2025-10-19T09:48:22Z</time>
      </trkpt>
      <trkpt lat="43.20476" lon="5.49353">
        <ele>169</ele>
        <time>2025-10-19T09:48:23Z</time>
      </trkpt>
      <trkpt lat="43.20475" lon="5.49353">
        <ele>168.9</ele>
        <time>2025-10-19T09:48:24Z</time>
      </trkpt>
      <trkpt lat="43.20475" lon="5.49354">
        <ele>168.8</ele>
        <time>2025-10-19T09:48:25Z</time>
      </trkpt>
      <trkpt lat="43.20474" lon="5.49356">
        <ele>168.8</ele>
        <time>2025-10-19T09:48:26Z</time>
      </trkpt>
      <trkpt lat="43.20473" lon="5.49356">
        <ele>168.7</ele>
        <time>2025-10-19T09:48:27Z</time>
      </trkpt>
      <trkpt lat="43.20473" lon="5.49357">
        <ele>168.5</ele>
        <time>2025-10-19T09:48:28Z</time>
      </trkpt>
      <trkpt lat="43.20472" lon="5.49357">
        <ele>168.4</ele>
        <time>2025-10-19T09:48:29Z</time>
      </trkpt>
      <trkpt lat="43.20471" lon="5.49358">
        <ele>168.2</ele>
        <time>2025-10-19T09:48:30Z</time>
      </trkpt>
      <trkpt lat="43.2047" lon="5.49359">
        <ele>168.1</ele>
        <time>2025-10-19T09:48:31Z</time>
      </trkpt>
      <trkpt lat="43.2047" lon="5.49359">
        <ele>168.1</ele>
        <time>2025-10-19T09:48:32Z</time>
      </trkpt>
      <trkpt lat="43.20469" lon="5.4936">
        <ele>168.1</ele>
        <time>2025-10-19T09:48:33Z</time>
      </trkpt>
      <trkpt lat="43.20468" lon="5.4936">
        <ele>168.1</ele>
        <time>2025-10-19T09:48:34Z</time>
      </trkpt>
      <trkpt lat="43.20468" lon="5.49361">
        <ele>168</ele>
        <time>2025-10-19T09:48:35Z</time>
      </trkpt>
      <trkpt lat="43.20467" lon="5.49362">
        <ele>168</ele>
        <time>2025-10-19T09:48:36Z</time>
      </trkpt>
      <trkpt lat="43.20467" lon="5.49363">
        <ele>167.9</ele>
        <time>2025-10-19T09:48:37Z</time>
      </trkpt>
      <trkpt lat="43.20467" lon="5.49363">
        <ele>167.8</ele>
        <time>2025-10-19T09:48:38Z</time>
      </trkpt>
      <trkpt lat="43.20466" lon="5.49363">
        <ele>167.7</ele>
        <time>2025-10-19T09:48:39Z</time>
      </trkpt>
      <trkpt lat="43.20465" lon="5.49363">
        <ele>167.7</ele>
        <time>2025-10-19T09:48:40Z</time>
      </trkpt>
      <trkpt lat="43.20465" lon="5.49364">
        <ele>167.6</ele>
        <time>2025-10-19T09:48:41Z</time>
      </trkpt>
      <trkpt lat="43.20464" lon="5.49364">
        <ele>167.4</ele>
        <time>2025-10-19T09:48:42Z</time>
      </trkpt>
      <trkpt lat="43.20464" lon="5.49365">
        <ele>167.4</ele>
        <time>2025-10-19T09:48:43Z</time>
      </trkpt>
      <trkpt lat="43.20463" lon="5.49366">
        <ele>167.3</ele>
        <time>2025-10-19T09:48:44Z</time>
      </trkpt>
      <trkpt lat="43.20463" lon="5.49366">
        <ele>167.2</ele>
        <time>2025-10-19T09:48:45Z</time>
      </trkpt>
      <trkpt lat="43.20462" lon="5.49367">
        <ele>167.2</ele>
        <time>2025-10-19T09:48:46Z</time>
      </trkpt>
      <trkpt lat="43.20461" lon="5.49368">
        <ele>167.2</ele>
        <time>2025-10-19T09:48:47Z</time>
      </trkpt>
      <trkpt lat="43.2046" lon="5.49369">
        <ele>167.1</ele>
        <time>2025-10-19T09:48:48Z</time>
      </trkpt>
      <trkpt lat="43.2046" lon="5.4937">
        <ele>167</ele>
        <time>2025-10-19T09:48:49Z</time>
      </trkpt>
      <trkpt lat="43.20459" lon="5.4937">
        <ele>166.9</ele>
        <time>2025-10-19T09:48:50Z</time>
      </trkpt>
      <trkpt lat="43.20458" lon="5.49371">
        <ele>166.9</ele>
        <time>2025-10-19T09:48:51Z</time>
      </trkpt>
      <trkpt lat="43.20457" lon="5.49371">
        <ele>166.8</ele>
        <time>2025-10-19T09:48:52Z</time>
      </trkpt>
      <trkpt lat="43.20456" lon="5.49371">
        <ele>166.7</ele>
        <time>2025-10-19T09:48:53Z</time>
      </trkpt>
      <trkpt lat="43.20456" lon="5.49372">
        <ele>166.7</ele>
        <time>2025-10-19T09:48:54Z</time>
      </trkpt>
      <trkpt lat="43.20455" lon="5.49372">
        <ele>166.6</ele>
        <time>2025-10-19T09:48:55Z</time>
      </trkpt>
      <trkpt lat="43.20454" lon="5.49372">
        <ele>166.5</ele>
        <time>2025-10-19T09:48:56Z</time>
      </trkpt>
      <trkpt lat="43.20453" lon="5.49372">
        <ele>166.5</ele>
        <time>2025-10-19T09:48:57Z</time>
      </trkpt>
      <trkpt lat="43.20452" lon="5.49373">
        <ele>166.4</ele>
        <time>2025-10-19T09:48:58Z</time>
      </trkpt>
      <trkpt lat="43.20451" lon="5.49374">
        <ele>166.4</ele>
        <time>2025-10-19T09:48:59Z</time>
      </trkpt>
      <trkpt lat="43.2045" lon="5.49375">
        <ele>166.3</ele>
        <time>2025-10-19T09:49:00Z</time>
      </trkpt>
      <trkpt lat="43.20449" lon="5.49375">
        <ele>166.3</ele>
        <time>2025-10-19T09:49:01Z</time>
      </trkpt>
      <trkpt lat="43.20449" lon="5.49375">
        <ele>166.2</ele>
        <time>2025-10-19T09:49:02Z</time>
      </trkpt>
      <trkpt lat="43.20448" lon="5.49375">
        <ele>166.1</ele>
        <time>2025-10-19T09:49:03Z</time>
      </trkpt>
      <trkpt lat="43.20448" lon="5.49375">
        <ele>165.9</ele>
        <time>2025-10-19T09:49:04Z</time>
      </trkpt>
      <trkpt lat="43.20448" lon="5.49375">
        <ele>165.9</ele>
        <time>2025-10-19T09:49:05Z</time>
      </trkpt>
      <trkpt lat="43.20447" lon="5.49374">
        <ele>165.7</ele>
        <time>2025-10-19T09:49:06Z</time>
      </trkpt>
      <trkpt lat="43.20446" lon="5.49374">
        <ele>165.6</ele>
        <time>2025-10-19T09:49:07Z</time>
      </trkpt>
      <trkpt lat="43.20445" lon="5.49374">
        <ele>165.5</ele>
        <time>2025-10-19T09:49:08Z</time>
      </trkpt>
      <trkpt lat="43.20445" lon="5.49374">
        <ele>165.5</ele>
        <time>2025-10-19T09:49:09Z</time>
      </trkpt>
      <trkpt lat="43.20444" lon="5.49373">
        <ele>165.4</ele>
        <time>2025-10-19T09:49:10Z</time>
      </trkpt>
      <trkpt lat="43.20443" lon="5.49373">
        <ele>165.4</ele>
        <time>2025-10-19T09:49:11Z</time>
      </trkpt>
      <trkpt lat="43.20443" lon="5.49372">
        <ele>165.3</ele>
        <time>2025-10-19T09:49:12Z</time>
      </trkpt>
      <trkpt lat="43.20442" lon="5.49372">
        <ele>165.2</ele>
        <time>2025-10-19T09:49:13Z</time>
      </trkpt>
      <trkpt lat="43.20441" lon="5.49372">
        <ele>165</ele>
        <time>2025-10-19T09:49:14Z</time>
      </trkpt>
      <trkpt lat="43.2044" lon="5.49371">
        <ele>164.9</ele>
        <time>2025-10-19T09:49:15Z</time>
      </trkpt>
      <trkpt lat="43.20439" lon="5.4937">
        <ele>164.9</ele>
        <time>2025-10-19T09:49:16Z</time>
      </trkpt>
      <trkpt lat="43.20438" lon="5.4937">
        <ele>164.8</ele>
        <time>2025-10-19T09:49:17Z</time>
      </trkpt>
      <trkpt lat="43.20437" lon="5.49369">
        <ele>164.7</ele>
        <time>2025-10-19T09:49:18Z</time>
      </trkpt>
      <trkpt lat="43.20436" lon="5.49369">
        <ele>164.7</ele>
        <time>2025-10-19T09:49:19Z</time>
      </trkpt>
      <trkpt lat="43.20436" lon="5.49369">
        <ele>164.6</ele>
        <time>2025-10-19T09:49:20Z</time>
      </trkpt>
      <trkpt lat="43.20435" lon="5.49369">
        <ele>164.6</ele>
        <time>2025-10-19T09:49:21Z</time>
      </trkpt>
      <trkpt lat="43.20434" lon="5.49369">
        <ele>164.5</ele>
        <time>2025-10-19T09:49:22Z</time>
      </trkpt>
      <trkpt lat="43.20433" lon="5.49369">
        <ele>164.5</ele>
        <time>2025-10-19T09:49:23Z</time>
      </trkpt>
      <trkpt lat="43.20432" lon="5.49369">
        <ele>164.5</ele>
        <time>2025-10-19T09:49:24Z</time>
      </trkpt>
      <trkpt lat="43.20431" lon="5.49369">
        <ele>164.5</ele>
        <time>2025-10-19T09:49:25Z</time>
      </trkpt>
      <trkpt lat="43.2043" lon="5.49368">
        <ele>164.5</ele>
        <time>2025-10-19T09:49:26Z</time>
      </trkpt>
      <trkpt lat="43.20429" lon="5.49368">
        <ele>164.5</ele>
        <time>2025-10-19T09:49:27Z</time>
      </trkpt>
      <trkpt lat="43.20428" lon="5.49368">
        <ele>164.4</ele>
        <time>2025-10-19T09:49:28Z</time>
      </trkpt>
      <trkpt lat="43.20427" lon="5.49369">
        <ele>164.3</ele>
        <time>2025-10-19T09:49:29Z</time>
      </trkpt>
      <trkpt lat="43.20426" lon="5.4937">
        <ele>164.3</ele>
        <time>2025-10-19T09:49:30Z</time>
      </trkpt>
      <trkpt lat="43.20426" lon="5.4937">
        <ele>164.2</ele>
        <time>2025-10-19T09:49:31Z</time>
      </trkpt>
      <trkpt lat="43.20425" lon="5.49371">
        <ele>164.1</ele>
        <time>2025-10-19T09:49:32Z</time>
      </trkpt>
      <trkpt lat="43.20424" lon="5.49371">
        <ele>164</ele>
        <time>2025-10-19T09:49:33Z</time>
      </trkpt>
      <trkpt lat="43.20424" lon="5.49372">
        <ele>163.9</ele>
        <time>2025-10-19T09:49:34Z</time>
      </trkpt>
      <trkpt lat="43.20423" lon="5.49373">
        <ele>163.9</ele>
        <time>2025-10-19T09:49:35Z</time>
      </trkpt>
      <trkpt lat="43.20422" lon="5.49374">
        <ele>163.8</ele>
        <time>2025-10-19T09:49:36Z</time>
      </trkpt>
      <trkpt lat="43.20421" lon="5.49375">
        <ele>163.8</ele>
        <time>2025-10-19T09:49:37Z</time>
      </trkpt>
      <trkpt lat="43.2042" lon="5.49376">
        <ele>163.8</ele>
        <time>2025-10-19T09:49:38Z</time>
      </trkpt>
      <trkpt lat="43.2042" lon="5.49377">
        <ele>163.8</ele>
        <time>2025-10-19T09:49:39Z</time>
      </trkpt>
      <trkpt lat="43.20419" lon="5.49377">
        <ele>163.8</ele>
        <time>2025-10-19T09:49:40Z</time>
      </trkpt>
      <trkpt lat="43.20418" lon="5.49378">
        <ele>163.8</ele>
        <time>2025-10-19T09:49:41Z</time>
      </trkpt>
      <trkpt lat="43.20418" lon="5.49379">
        <ele>163.7</ele>
        <time>2025-10-19T09:49:42Z</time>
      </trkpt>
      <trkpt lat="43.20417" lon="5.4938">
        <ele>163.6</ele>
        <time>2025-10-19T09:49:43Z</time>
      </trkpt>
      <trkpt lat="43.20417" lon="5.49381">
        <ele>163.6</ele>
        <time>2025-10-19T09:49:44Z</time>
      </trkpt>
      <trkpt lat="43.20417" lon="5.49382">
        <ele>163.4</ele>
        <time>2025-10-19T09:49:45Z</time>
      </trkpt>
      <trkpt lat="43.20417" lon="5.49383">
        <ele>163.4</ele>
        <time>2025-10-19T09:49:46Z</time>
      </trkpt>
      <trkpt lat="43.20418" lon="5.49385">
        <ele>163.3</ele>
        <time>2025-10-19T09:49:47Z</time>
      </trkpt>
      <trkpt lat="43.20418" lon="5.49386">
        <ele>163.2</ele>
        <time>2025-10-19T09:49:48Z</time>
      </trkpt>
      <trkpt lat="43.20419" lon="5.49387">
        <ele>163.2</ele>
        <time>2025-10-19T09:49:49Z</time>
      </trkpt>
      <trkpt lat="43.2042" lon="5.49388">
        <ele>163.1</ele>
        <time>2025-10-19T09:49:50Z</time>
      </trkpt>
      <trkpt lat="43.2042" lon="5.49389">
        <ele>163.2</ele>
        <time>2025-10-19T09:49:51Z</time>
      </trkpt>
      <trkpt lat="43.2042" lon="5.4939">
        <ele>163.2</ele>
        <time>2025-10-19T09:49:52Z</time>
      </trkpt>
      <trkpt lat="43.20421" lon="5.49391">
        <ele>163.2</ele>
        <time>2025-10-19T09:49:53Z</time>
      </trkpt>
      <trkpt lat="43.20421" lon="5.49391">
        <ele>163.3</ele>
        <time>2025-10-19T09:49:54Z</time>
      </trkpt>
      <trkpt lat="43.20422" lon="5.49392">
        <ele>163.3</ele>
        <time>2025-10-19T09:49:55Z</time>
      </trkpt>
      <trkpt lat="43.20423" lon="5.49393">
        <ele>163.3</ele>
        <time>2025-10-19T09:49:56Z</time>
      </trkpt>
      <trkpt lat="43.20423" lon="5.49394">
        <ele>163.2</ele>
        <time>2025-10-19T09:49:57Z</time>
      </trkpt>
      <trkpt lat="43.20424" lon="5.49395">
        <ele>163.1</ele>
        <time>2025-10-19T09:49:58Z</time>
      </trkpt>
      <trkpt lat="43.20425" lon="5.49395">
        <ele>163.1</ele>
        <time>2025-10-19T09:49:59Z</time>
      </trkpt>
      <trkpt lat="43.20425" lon="5.49396">
        <ele>163</ele>
        <time>2025-10-19T09:50:00Z</time>
      </trkpt>
      <trkpt lat="43.20426" lon="5.49397">
        <ele>163</ele>
        <time>2025-10-19T09:50:01Z</time>
      </trkpt>
      <trkpt lat="43.20426" lon="5.49398">
        <ele>163</ele>
        <time>2025-10-19T09:50:02Z</time>
      </trkpt>
      <trkpt lat="43.20427" lon="5.49398">
        <ele>162.8</ele>
        <time>2025-10-19T09:50:03Z</time>
      </trkpt>
      <trkpt lat="43.20427" lon="5.49399">
        <ele>162.7</ele>
        <time>2025-10-19T09:50:04Z</time>
      </trkpt>
      <trkpt lat="43.20427" lon="5.49398">
        <ele>162.7</ele>
        <time>2025-10-19T09:50:05Z</time>
      </trkpt>
      <trkpt lat="43.20426" lon="5.49398">
        <ele>162.8</ele>
        <time>2025-10-19T09:50:06Z</time>
      </trkpt>
      <trkpt lat="43.20426" lon="5.49399">
        <ele>162.8</ele>
        <time>2025-10-19T09:50:07Z</time>
      </trkpt>
      <trkpt lat="43.20425" lon="5.49399">
        <ele>162.8</ele>
        <time>2025-10-19T09:50:08Z</time>
      </trkpt>
      <trkpt lat="43.20425" lon="5.49399">
        <ele>162.6</ele>
        <time>2025-10-19T09:50:09Z</time>
      </trkpt>
      <trkpt lat="43.20424" lon="5.49399">
        <ele>162.6</ele>
        <time>2025-10-19T09:50:10Z</time>
      </trkpt>
      <trkpt lat="43.20424" lon="5.49399">
        <ele>162.6</ele>
        <time>2025-10-19T09:50:11Z</time>
      </trkpt>
      <trkpt lat="43.20423" lon="5.49398">
        <ele>162.6</ele>
        <time>2025-10-19T09:50:12Z</time>
      </trkpt>
      <trkpt lat="43.20423" lon="5.49397">
        <ele>162.6</ele>
        <time>2025-10-19T09:50:13Z</time>
      </trkpt>
      <trkpt lat="43.20422" lon="5.49396">
        <ele>162.7</ele>
        <time>2025-10-19T09:50:14Z</time>
      </trkpt>
      <trkpt lat="43.20422" lon="5.49395">
        <ele>162.7</ele>
        <time>2025-10-19T09:50:15Z</time>
      </trkpt>
      <trkpt lat="43.20421" lon="5.49395">
        <ele>162.7</ele>
        <time>2025-10-19T09:50:16Z</time>
      </trkpt>
      <trkpt lat="43.20421" lon="5.49394">
        <ele>162.7</ele>
        <time>2025-10-19T09:50:17Z</time>
      </trkpt>
      <trkpt lat="43.20421" lon="5.49392">
        <ele>162.8</ele>
        <time>2025-10-19T09:50:18Z</time>
      </trkpt>
      <trkpt lat="43.20421" lon="5.49391">
        <ele>162.9</ele>
        <time>2025-10-19T09:50:19Z</time>
      </trkpt>
      <trkpt lat="43.2042" lon="5.4939">
        <ele>162.9</ele>
        <time>2025-10-19T09:50:20Z</time>
      </trkpt>
      <trkpt lat="43.2042" lon="5.49389">
        <ele>162.9</ele>
        <time>2025-10-19T09:50:21Z</time>
      </trkpt>
      <trkpt lat="43.2042" lon="5.49388">
        <ele>162.8</ele>
        <time>2025-10-19T09:50:22Z</time>
      </trkpt>
      <trkpt lat="43.20419" lon="5.49387">
        <ele>162.8</ele>
        <time>2025-10-19T09:50:23Z</time>
      </trkpt>
      <trkpt lat="43.20419" lon="5.49385">
        <ele>162.8</ele>
        <time>2025-10-19T09:50:24Z</time>
      </trkpt>
      <trkpt lat="43.20418" lon="5.49384">
        <ele>162.7</ele>
        <time>2025-10-19T09:50:25Z</time>
      </trkpt>
      <trkpt lat="43.20417" lon="5.49384">
        <ele>162.7</ele>
        <time>2025-10-19T09:50:26Z</time>
      </trkpt>
      <trkpt lat="43.20416" lon="5.49383">
        <ele>162.6</ele>
        <time>2025-10-19T09:50:27Z</time>
      </trkpt>
      <trkpt lat="43.20415" lon="5.49384">
        <ele>162.6</ele>
        <time>2025-10-19T09:50:28Z</time>
      </trkpt>
      <trkpt lat="43.20415" lon="5.49384">
        <ele>162.6</ele>
        <time>2025-10-19T09:50:29Z</time>
      </trkpt>
      <trkpt lat="43.20414" lon="5.49385">
        <ele>162.6</ele>
        <time>2025-10-19T09:50:30Z</time>
      </trkpt>
      <trkpt lat="43.20414" lon="5.49386">
        <ele>162.6</ele>
        <time>2025-10-19T09:50:31Z</time>
      </trkpt>
      <trkpt lat="43.20413" lon="5.49387">
        <ele>162.5</ele>
        <time>2025-10-19T09:50:32Z</time>
      </trkpt>
      <trkpt lat="43.20412" lon="5.49388">
        <ele>162.4</ele>
        <time>2025-10-19T09:50:33Z</time>
      </trkpt>
      <trkpt lat="43.20412" lon="5.49389">
        <ele>162.3</ele>
        <time>2025-10-19T09:50:34Z</time>
      </trkpt>
      <trkpt lat="43.20411" lon="5.4939">
        <ele>162.3</ele>
        <time>2025-10-19T09:50:35Z</time>
      </trkpt>
      <trkpt lat="43.20411" lon="5.49392">
        <ele>162.4</ele>
        <time>2025-10-19T09:50:36Z</time>
      </trkpt>
      <trkpt lat="43.20411" lon="5.49393">
        <ele>162.3</ele>
        <time>2025-10-19T09:50:37Z</time>
      </trkpt>
      <trkpt lat="43.20411" lon="5.49395">
        <ele>162.3</ele>
        <time>2025-10-19T09:50:38Z</time>
      </trkpt>
      <trkpt lat="43.20411" lon="5.49396">
        <ele>162.4</ele>
        <time>2025-10-19T09:50:39Z</time>
      </trkpt>
      <trkpt lat="43.20411" lon="5.49397">
        <ele>162.4</ele>
        <time>2025-10-19T09:50:40Z</time>
      </trkpt>
      <trkpt lat="43.20411" lon="5.49399">
        <ele>162.4</ele>
        <time>2025-10-19T09:50:41Z</time>
      </trkpt>
      <trkpt lat="43.20411" lon="5.494">
        <ele>162.3</ele>
        <time>2025-10-19T09:50:42Z</time>
      </trkpt>
      <trkpt lat="43.20411" lon="5.49401">
        <ele>162.4</ele>
        <time>2025-10-19T09:50:43Z</time>
      </trkpt>
      <trkpt lat="43.2041" lon="5.49402">
        <ele>162.4</ele>
        <time>2025-10-19T09:50:44Z</time>
      </trkpt>
      <trkpt lat="43.20409" lon="5.49402">
        <ele>162.5</ele>
        <time>2025-10-19T09:50:45Z</time>
      </trkpt>
      <trkpt lat="43.20409" lon="5.49403">
        <ele>162.4</ele>
        <time>2025-10-19T09:50:46Z</time>
      </trkpt>
      <trkpt lat="43.20409" lon="5.49404">
        <ele>162.2</ele>
        <time>2025-10-19T09:50:47Z</time>
      </trkpt>
      <trkpt lat="43.20409" lon="5.49405">
        <ele>162.1</ele>
        <time>2025-10-19T09:50:48Z</time>
      </trkpt>
      <trkpt lat="43.20409" lon="5.49405">
        <ele>162.1</ele>
        <time>2025-10-19T09:50:49Z</time>
      </trkpt>
      <trkpt lat="43.20408" lon="5.49406">
        <ele>162</ele>
        <time>2025-10-19T09:50:50Z</time>
      </trkpt>
      <trkpt lat="43.20407" lon="5.49406">
        <ele>162</ele>
        <time>2025-10-19T09:50:51Z</time>
      </trkpt>
      <trkpt lat="43.20407" lon="5.49406">
        <ele>161.9</ele>
        <time>2025-10-19T09:50:52Z</time>
      </trkpt>
      <trkpt lat="43.20405" lon="5.49406">
        <ele>161.8</ele>
        <time>2025-10-19T09:50:53Z</time>
      </trkpt>
      <trkpt lat="43.20405" lon="5.49406">
        <ele>161.8</ele>
        <time>2025-10-19T09:50:54Z</time>
      </trkpt>
      <trkpt lat="43.20404" lon="5.49407">
        <ele>161.7</ele>
        <time>2025-10-19T09:50:55Z</time>
      </trkpt>
      <trkpt lat="43.20403" lon="5.49407">
        <ele>161.7</ele>
        <time>2025-10-19T09:50:56Z</time>
      </trkpt>
      <trkpt lat="43.20402" lon="5.49407">
        <ele>161.7</ele>
        <time>2025-10-19T09:50:57Z</time>
      </trkpt>
      <trkpt lat="43.20401" lon="5.49407">
        <ele>161.8</ele>
        <time>2025-10-19T09:50:58Z</time>
      </trkpt>
      <trkpt lat="43.204" lon="5.49407">
        <ele>161.8</ele>
        <time>2025-10-19T09:50:59Z</time>
      </trkpt>
      <trkpt lat="43.20399" lon="5.49407">
        <ele>161.6</ele>
        <time>2025-10-19T09:51:00Z</time>
      </trkpt>
      <trkpt lat="43.20398" lon="5.49408">
        <ele>161.5</ele>
        <time>2025-10-19T09:51:01Z</time>
      </trkpt>
      <trkpt lat="43.20397" lon="5.49408">
        <ele>161.4</ele>
        <time>2025-10-19T09:51:02Z</time>
      </trkpt>
      <trkpt lat="43.20396" lon="5.49408">
        <ele>161.2</ele>
        <time>2025-10-19T09:51:03Z</time>
      </trkpt>
      <trkpt lat="43.20395" lon="5.49409">
        <ele>161.1</ele>
        <time>2025-10-19T09:51:04Z</time>
      </trkpt>
      <trkpt lat="43.20394" lon="5.49409">
        <ele>161.1</ele>
        <time>2025-10-19T09:51:05Z</time>
      </trkpt>
      <trkpt lat="43.20394" lon="5.4941">
        <ele>161.1</ele>
        <time>2025-10-19T09:51:06Z</time>
      </trkpt>
      <trkpt lat="43.20393" lon="5.4941">
        <ele>161.1</ele>
        <time>2025-10-19T09:51:07Z</time>
      </trkpt>
      <trkpt lat="43.20392" lon="5.4941">
        <ele>161.1</ele>
        <time>2025-10-19T09:51:08Z</time>
      </trkpt>
      <trkpt lat="43.20392" lon="5.49411">
        <ele>161.1</ele>
        <time>2025-10-19T09:51:09Z</time>
      </trkpt>
      <trkpt lat="43.20391" lon="5.49412">
        <ele>161.2</ele>
        <time>2025-10-19T09:51:10Z</time>
      </trkpt>
      <trkpt lat="43.20391" lon="5.49413">
        <ele>161.2</ele>
        <time>2025-10-19T09:51:11Z</time>
      </trkpt>
      <trkpt lat="43.20391" lon="5.49413">
        <ele>161.1</ele>
        <time>2025-10-19T09:51:12Z</time>
      </trkpt>
      <trkpt lat="43.20392" lon="5.49414">
        <ele>161.1</ele>
        <time>2025-10-19T09:51:13Z</time>
      </trkpt>
      <trkpt lat="43.20393" lon="5.49414">
        <ele>160.9</ele>
        <time>2025-10-19T09:51:14Z</time>
      </trkpt>
      <trkpt lat="43.20393" lon="5.49415">
        <ele>160.8</ele>
        <time>2025-10-19T09:51:15Z</time>
      </trkpt>
      <trkpt lat="43.20393" lon="5.49416">
        <ele>160.8</ele>
        <time>2025-10-19T09:51:16Z</time>
      </trkpt>
      <trkpt lat="43.20393" lon="5.49417">
        <ele>160.6</ele>
        <time>2025-10-19T09:51:17Z</time>
      </trkpt>
      <trkpt lat="43.20394" lon="5.49418">
        <ele>160.5</ele>
        <time>2025-10-19T09:51:18Z</time>
      </trkpt>
      <trkpt lat="43.20393" lon="5.49419">
        <ele>160.3</ele>
        <time>2025-10-19T09:51:19Z</time>
      </trkpt>
      <trkpt lat="43.20393" lon="5.4942">
        <ele>160</ele>
        <time>2025-10-19T09:51:20Z</time>
      </trkpt>
      <trkpt lat="43.20393" lon="5.4942">
        <ele>159.8</ele>
        <time>2025-10-19T09:51:21Z</time>
      </trkpt>
      <trkpt lat="43.20393" lon="5.49421">
        <ele>159.6</ele>
        <time>2025-10-19T09:51:22Z</time>
      </trkpt>
      <trkpt lat="43.20393" lon="5.49421">
        <ele>159.5</ele>
        <time>2025-10-19T09:51:23Z</time>
      </trkpt>
      <trkpt lat="43.20393" lon="5.49422">
        <ele>159.4</ele>
        <time>2025-10-19T09:51:24Z</time>
      </trkpt>
      <trkpt lat="43.20393" lon="5.49422">
        <ele>159.3</ele>
        <time>2025-10-19T09:51:25Z</time>
      </trkpt>
      <trkpt lat="43.20393" lon="5.49422">
        <ele>159.2</ele>
        <time>2025-10-19T09:51:26Z</time>
      </trkpt>
      <trkpt lat="43.20393" lon="5.49422">
        <ele>159.1</ele>
        <time>2025-10-19T09:51:27Z</time>
      </trkpt>
      <trkpt lat="43.20393" lon="5.49423">
        <ele>159.1</ele>
        <time>2025-10-19T09:51:28Z</time>
      </trkpt>
      <trkpt lat="43.20393" lon="5.49423">
        <ele>159.2</ele>
        <time>2025-10-19T09:51:29Z</time>
      </trkpt>
      <trkpt lat="43.20393" lon="5.49423">
        <ele>159.2</ele>
        <time>2025-10-19T09:51:30Z</time>
      </trkpt>
      <trkpt lat="43.20392" lon="5.49423">
        <ele>159.1</ele>
        <time>2025-10-19T09:51:31Z</time>
      </trkpt>
      <trkpt lat="43.20392" lon="5.49423">
        <ele>159.1</ele>
        <time>2025-10-19T09:51:32Z</time>
      </trkpt>
      <trkpt lat="43.20392" lon="5.49423">
        <ele>159.1</ele>
        <time>2025-10-19T09:51:33Z</time>
      </trkpt>
      <trkpt lat="43.20393" lon="5.49423">
        <ele>159.1</ele>
        <time>2025-10-19T09:51:34Z</time>
      </trkpt>
      <trkpt lat="43.20393" lon="5.49423">
        <ele>159.1</ele>
        <time>2025-10-19T09:51:35Z</time>
      </trkpt>
      <trkpt lat="43.20393" lon="5.49423">
        <ele>159.2</ele>
        <time>2025-10-19T09:51:36Z</time>
      </trkpt>
      <trkpt lat="43.20393" lon="5.49423">
        <ele>159.2</ele>
        <time>2025-10-19T09:51:37Z</time>
      </trkpt>
      <trkpt lat="43.20393" lon="5.49423">
        <ele>159.2</ele>
        <time>2025-10-19T09:51:38Z</time>
      </trkpt>
      <trkpt lat="43.20393" lon="5.49423">
        <ele>159.2</ele>
        <time>2025-10-19T09:51:39Z</time>
      </trkpt>
      <trkpt lat="43.20393" lon="5.49423">
        <ele>159.2</ele>
        <time>2025-10-19T09:51:40Z</time>
      </trkpt>
      <trkpt lat="43.20393" lon="5.49423">
        <ele>159.2</ele>
        <time>2025-10-19T09:51:41Z</time>
      </trkpt>
      <trkpt lat="43.20393" lon="5.49423">
        <ele>159.2</ele>
        <time>2025-10-19T09:51:42Z</time>
      </trkpt>
      <trkpt lat="43.20393" lon="5.49423">
        <ele>159.3</ele>
        <time>2025-10-19T09:51:43Z</time>
      </trkpt>
      <trkpt lat="43.20393" lon="5.49423">
        <ele>159.3</ele>
        <time>2025-10-19T09:51:44Z</time>
      </trkpt>
      <trkpt lat="43.20393" lon="5.49423">
        <ele>159.4</ele>
        <time>2025-10-19T09:51:45Z</time>
      </trkpt>
      <trkpt lat="43.20393" lon="5.49423">
        <ele>159.4</ele>
        <time>2025-10-19T09:51:46Z</time>
      </trkpt>
      <trkpt lat="43.20393" lon="5.49423">
        <ele>159.4</ele>
        <time>2025-10-19T09:51:47Z</time>
      </trkpt>
      <trkpt lat="43.20393" lon="5.49423">
        <ele>159.4</ele>
        <time>2025-10-19T09:51:48Z</time>
      </trkpt>
      <trkpt lat="43.20394" lon="5.49423">
        <ele>159.4</ele>
        <time>2025-10-19T09:51:49Z</time>
      </trkpt>
      <trkpt lat="43.20393" lon="5.49423">
        <ele>159.4</ele>
        <time>2025-10-19T09:51:50Z</time>
      </trkpt>
      <trkpt lat="43.20393" lon="5.49423">
        <ele>159.4</ele>
        <time>2025-10-19T09:51:51Z</time>
      </trkpt>
      <trkpt lat="43.20393" lon="5.49423">
        <ele>159.4</ele>
        <time>2025-10-19T09:51:52Z</time>
      </trkpt>
      <trkpt lat="43.20393" lon="5.49423">
        <ele>159.4</ele>
        <time>2025-10-19T09:51:53Z</time>
      </trkpt>
      <trkpt lat="43.20393" lon="5.49423">
        <ele>159.2</ele>
        <time>2025-10-19T09:51:54Z</time>
      </trkpt>
      <trkpt lat="43.20393" lon="5.49423">
        <ele>159.2</ele>
        <time>2025-10-19T09:51:55Z</time>
      </trkpt>
      <trkpt lat="43.20393" lon="5.49423">
        <ele>159.1</ele>
        <time>2025-10-19T09:51:56Z</time>
      </trkpt>
      <trkpt lat="43.20393" lon="5.49423">
        <ele>159</ele>
        <time>2025-10-19T09:51:57Z</time>
      </trkpt>
      <trkpt lat="43.20393" lon="5.49423">
        <ele>159</ele>
        <time>2025-10-19T09:51:58Z</time>
      </trkpt>
      <trkpt lat="43.20393" lon="5.49423">
        <ele>159.1</ele>
        <time>2025-10-19T09:51:59Z</time>
      </trkpt>
      <trkpt lat="43.20393" lon="5.49424">
        <ele>159</ele>
        <time>2025-10-19T09:52:00Z</time>
      </trkpt>
      <trkpt lat="43.20393" lon="5.49424">
        <ele>159</ele>
        <time>2025-10-19T09:52:01Z</time>
      </trkpt>
      <trkpt lat="43.20393" lon="5.49424">
        <ele>159</ele>
        <time>2025-10-19T09:52:02Z</time>
      </trkpt>
      <trkpt lat="43.20393" lon="5.49423">
        <ele>159.1</ele>
        <time>2025-10-19T09:52:03Z</time>
      </trkpt>
      <trkpt lat="43.20393" lon="5.49423">
        <ele>159.2</ele>
        <time>2025-10-19T09:52:04Z</time>
      </trkpt>
      <trkpt lat="43.20393" lon="5.49424">
        <ele>159.2</ele>
        <time>2025-10-19T09:52:05Z</time>
      </trkpt>
      <trkpt lat="43.20393" lon="5.49424">
        <ele>159.3</ele>
        <time>2025-10-19T09:52:06Z</time>
      </trkpt>
      <trkpt lat="43.20394" lon="5.49424">
        <ele>159.3</ele>
        <time>2025-10-19T09:52:07Z</time>
      </trkpt>
      <trkpt lat="43.20394" lon="5.49424">
        <ele>159.4</ele>
        <time>2025-10-19T09:52:08Z</time>
      </trkpt>
      <trkpt lat="43.20394" lon="5.49424">
        <ele>159.6</ele>
        <time>2025-10-19T09:52:09Z</time>
      </trkpt>
      <trkpt lat="43.20394" lon="5.49424">
        <ele>159.6</ele>
        <time>2025-10-19T09:52:10Z</time>
      </trkpt>
      <trkpt lat="43.20394" lon="5.49424">
        <ele>159.5</ele>
        <time>2025-10-19T09:52:11Z</time>
      </trkpt>
      <trkpt lat="43.20394" lon="5.49424">
        <ele>159.4</ele>
        <time>2025-10-19T09:52:12Z</time>
      </trkpt>
      <trkpt lat="43.20394" lon="5.49424">
        <ele>159.4</ele>
        <time>2025-10-19T09:52:13Z</time>
      </trkpt>
      <trkpt lat="43.20394" lon="5.49424">
        <ele>159.4</ele>
        <time>2025-10-19T09:52:14Z</time>
      </trkpt>
      <trkpt lat="43.20394" lon="5.49424">
        <ele>159.4</ele>
        <time>2025-10-19T09:52:15Z</time>
      </trkpt>
      <trkpt lat="43.20394" lon="5.49424">
        <ele>159.4</ele>
        <time>2025-10-19T09:52:16Z</time>
      </trkpt>
      <trkpt lat="43.20394" lon="5.49424">
        <ele>159.4</ele>
        <time>2025-10-19T09:52:17Z</time>
      </trkpt>
      <trkpt lat="43.20393" lon="5.49425">
        <ele>159.5</ele>
        <time>2025-10-19T09:52:18Z</time>
      </trkpt>
      <trkpt lat="43.20393" lon="5.49425">
        <ele>159.5</ele>
        <time>2025-10-19T09:52:19Z</time>
      </trkpt>
      <trkpt lat="43.20393" lon="5.49425">
        <ele>159.4</ele>
        <time>2025-10-19T09:52:20Z</time>
      </trkpt>
      <trkpt lat="43.20393" lon="5.49425">
        <ele>159.4</ele>
        <time>2025-10-19T09:52:21Z</time>
      </trkpt>
      <trkpt lat="43.20393" lon="5.49425">
        <ele>159.5</ele>
        <time>2025-10-19T09:52:22Z</time>
      </trkpt>
      <trkpt lat="43.20393" lon="5.49424">
        <ele>159.6</ele>
        <time>2025-10-19T09:52:23Z</time>
      </trkpt>
      <trkpt lat="43.20393" lon="5.49424">
        <ele>159.6</ele>
        <time>2025-10-19T09:52:24Z</time>
      </trkpt>
      <trkpt lat="43.20393" lon="5.49424">
        <ele>159.7</ele>
        <time>2025-10-19T09:52:25Z</time>
      </trkpt>
      <trkpt lat="43.20394" lon="5.49424">
        <ele>159.8</ele>
        <time>2025-10-19T09:52:26Z</time>
      </trkpt>
      <trkpt lat="43.20394" lon="5.49424">
        <ele>159.8</ele>
        <time>2025-10-19T09:52:27Z</time>
      </trkpt>
      <trkpt lat="43.20394" lon="5.49424">
        <ele>159.8</ele>
        <time>2025-10-19T09:52:28Z</time>
      </trkpt>
      <trkpt lat="43.20394" lon="5.49424">
        <ele>159.8</ele>
        <time>2025-10-19T09:52:29Z</time>
      </trkpt>
      <trkpt lat="43.20394" lon="5.49424">
        <ele>159.6</ele>
        <time>2025-10-19T09:52:30Z</time>
      </trkpt>
      <trkpt lat="43.20394" lon="5.49424">
        <ele>159.6</ele>
        <time>2025-10-19T09:52:31Z</time>
      </trkpt>
      <trkpt lat="43.20394" lon="5.49425">
        <ele>159.5</ele>
        <time>2025-10-19T09:52:32Z</time>
      </trkpt>
      <trkpt lat="43.20394" lon="5.49425">
        <ele>159.5</ele>
        <time>2025-10-19T09:52:33Z</time>
      </trkpt>
      <trkpt lat="43.20394" lon="5.49425">
        <ele>159.4</ele>
        <time>2025-10-19T09:52:34Z</time>
      </trkpt>
      <trkpt lat="43.20394" lon="5.49425">
        <ele>159.4</ele>
        <time>2025-10-19T09:52:35Z</time>
      </trkpt>
      <trkpt lat="43.20394" lon="5.49425">
        <ele>159.4</ele>
        <time>2025-10-19T09:52:36Z</time>
      </trkpt>
      <trkpt lat="43.20393" lon="5.49425">
        <ele>159.5</ele>
        <time>2025-10-19T09:52:37Z</time>
      </trkpt>
      <trkpt lat="43.20393" lon="5.49425">
        <ele>159.5</ele>
        <time>2025-10-19T09:52:38Z</time>
      </trkpt>
      <trkpt lat="43.20394" lon="5.49425">
        <ele>159.5</ele>
        <time>2025-10-19T09:52:39Z</time>
      </trkpt>
      <trkpt lat="43.20394" lon="5.49425">
        <ele>159.5</ele>
        <time>2025-10-19T09:52:40Z</time>
      </trkpt>
      <trkpt lat="43.20394" lon="5.49425">
        <ele>159.6</ele>
        <time>2025-10-19T09:52:41Z</time>
      </trkpt>
      <trkpt lat="43.20394" lon="5.49425">
        <ele>159.7</ele>
        <time>2025-10-19T09:52:42Z</time>
      </trkpt>
      <trkpt lat="43.20393" lon="5.49424">
        <ele>159.7</ele>
        <time>2025-10-19T09:52:43Z</time>
      </trkpt>
      <trkpt lat="43.20393" lon="5.49424">
        <ele>159.7</ele>
        <time>2025-10-19T09:52:44Z</time>
      </trkpt>
      <trkpt lat="43.20393" lon="5.49424">
        <ele>159.8</ele>
        <time>2025-10-19T09:52:45Z</time>
      </trkpt>
      <trkpt lat="43.20394" lon="5.49424">
        <ele>159.7</ele>
        <time>2025-10-19T09:52:46Z</time>
      </trkpt>
      <trkpt lat="43.20394" lon="5.49424">
        <ele>159.6</ele>
        <time>2025-10-19T09:52:47Z</time>
      </trkpt>
      <trkpt lat="43.20394" lon="5.49424">
        <ele>159.6</ele>
        <time>2025-10-19T09:52:48Z</time>
      </trkpt>
      <trkpt lat="43.20394" lon="5.49425">
        <ele>159.5</ele>
        <time>2025-10-19T09:52:49Z</time>
      </trkpt>
      <trkpt lat="43.20394" lon="5.49425">
        <ele>159.5</ele>
        <time>2025-10-19T09:52:50Z</time>
      </trkpt>
      <trkpt lat="43.20394" lon="5.49424">
        <ele>159.4</ele>
        <time>2025-10-19T09:52:51Z</time>
      </trkpt>
      <trkpt lat="43.20393" lon="5.49424">
        <ele>159.5</ele>
        <time>2025-10-19T09:52:52Z</time>
      </trkpt>
      <trkpt lat="43.20393" lon="5.49424">
        <ele>159.6</ele>
        <time>2025-10-19T09:52:53Z</time>
      </trkpt>
      <trkpt lat="43.20393" lon="5.49424">
        <ele>159.7</ele>
        <time>2025-10-19T09:52:54Z</time>
      </trkpt>
      <trkpt lat="43.20393" lon="5.49424">
        <ele>159.8</ele>
        <time>2025-10-19T09:52:55Z</time>
      </trkpt>
      <trkpt lat="43.20393" lon="5.49424">
        <ele>159.8</ele>
        <time>2025-10-19T09:52:56Z</time>
      </trkpt>
      <trkpt lat="43.20393" lon="5.49424">
        <ele>159.8</ele>
        <time>2025-10-19T09:52:57Z</time>
      </trkpt>
      <trkpt lat="43.20393" lon="5.49424">
        <ele>159.8</ele>
        <time>2025-10-19T09:52:58Z</time>
      </trkpt>
      <trkpt lat="43.20393" lon="5.49423">
        <ele>159.8</ele>
        <time>2025-10-19T09:52:59Z</time>
      </trkpt>
      <trkpt lat="43.20393" lon="5.49423">
        <ele>159.8</ele>
        <time>2025-10-19T09:53:00Z</time>
      </trkpt>
      <trkpt lat="43.20393" lon="5.49423">
        <ele>159.8</ele>
        <time>2025-10-19T09:53:01Z</time>
      </trkpt>
      <trkpt lat="43.20393" lon="5.49423">
        <ele>159.8</ele>
        <time>2025-10-19T09:53:02Z</time>
      </trkpt>
      <trkpt lat="43.20393" lon="5.49423">
        <ele>159.8</ele>
        <time>2025-10-19T09:53:03Z</time>
      </trkpt>
      <trkpt lat="43.20393" lon="5.49423">
        <ele>159.6</ele>
        <time>2025-10-19T09:53:04Z</time>
      </trkpt>
      <trkpt lat="43.20393" lon="5.49423">
        <ele>159.7</ele>
        <time>2025-10-19T09:53:05Z</time>
      </trkpt>
      <trkpt lat="43.20393" lon="5.49423">
        <ele>159.8</ele>
        <time>2025-10-19T09:53:06Z</time>
      </trkpt>
      <trkpt lat="43.20393" lon="5.49423">
        <ele>159.8</ele>
        <time>2025-10-19T09:53:07Z</time>
      </trkpt>
      <trkpt lat="43.20393" lon="5.49423">
        <ele>159.8</ele>
        <time>2025-10-19T09:53:08Z</time>
      </trkpt>
      <trkpt lat="43.20393" lon="5.49423">
        <ele>159.8</ele>
        <time>2025-10-19T09:53:09Z</time>
      </trkpt>
      <trkpt lat="43.20393" lon="5.49423">
        <ele>159.8</ele>
        <time>2025-10-19T09:53:10Z</time>
      </trkpt>
      <trkpt lat="43.20393" lon="5.49423">
        <ele>159.8</ele>
        <time>2025-10-19T09:53:11Z</time>
      </trkpt>
      <trkpt lat="43.20393" lon="5.49423">
        <ele>159.9</ele>
        <time>2025-10-19T09:53:12Z</time>
      </trkpt>
      <trkpt lat="43.20393" lon="5.49422">
        <ele>159.8</ele>
        <time>2025-10-19T09:53:13Z</time>
      </trkpt>
      <trkpt lat="43.20393" lon="5.49422">
        <ele>159.7</ele>
        <time>2025-10-19T09:53:14Z</time>
      </trkpt>
      <trkpt lat="43.20393" lon="5.49422">
        <ele>159.7</ele>
        <time>2025-10-19T09:53:15Z</time>
      </trkpt>
      <trkpt lat="43.20393" lon="5.49422">
        <ele>159.7</ele>
        <time>2025-10-19T09:53:16Z</time>
      </trkpt>
      <trkpt lat="43.20393" lon="5.49422">
        <ele>159.6</ele>
        <time>2025-10-19T09:53:17Z</time>
      </trkpt>
      <trkpt lat="43.20393" lon="5.49422">
        <ele>159.5</ele>
        <time>2025-10-19T09:53:18Z</time>
      </trkpt>
      <trkpt lat="43.20393" lon="5.49422">
        <ele>159.5</ele>
        <time>2025-10-19T09:53:19Z</time>
      </trkpt>
      <trkpt lat="43.20393" lon="5.49422">
        <ele>159.5</ele>
        <time>2025-10-19T09:53:20Z</time>
      </trkpt>
      <trkpt lat="43.20393" lon="5.49422">
        <ele>159.5</ele>
        <time>2025-10-19T09:53:21Z</time>
      </trkpt>
      <trkpt lat="43.20393" lon="5.49422">
        <ele>159.5</ele>
        <time>2025-10-19T09:53:22Z</time>
      </trkpt>
      <trkpt lat="43.20393" lon="5.49422">
        <ele>159.5</ele>
        <time>2025-10-19T09:53:23Z</time>
      </trkpt>
      <trkpt lat="43.20393" lon="5.49422">
        <ele>159.5</ele>
        <time>2025-10-19T09:53:24Z</time>
      </trkpt>
      <trkpt lat="43.20393" lon="5.49422">
        <ele>159.5</ele>
        <time>2025-10-19T09:53:25Z</time>
      </trkpt>
      <trkpt lat="43.20393" lon="5.49422">
        <ele>159.5</ele>
        <time>2025-10-19T09:53:26Z</time>
      </trkpt>
      <trkpt lat="43.20393" lon="5.49422">
        <ele>159.5</ele>
        <time>2025-10-19T09:53:27Z</time>
      </trkpt>
      <trkpt lat="43.20393" lon="5.49422">
        <ele>159.5</ele>
        <time>2025-10-19T09:53:28Z</time>
      </trkpt>
      <trkpt lat="43.20393" lon="5.49422">
        <ele>159.7</ele>
        <time>2025-10-19T09:53:29Z</time>
      </trkpt>
      <trkpt lat="43.20393" lon="5.49422">
        <ele>159.7</ele>
        <time>2025-10-19T09:53:30Z</time>
      </trkpt>
      <trkpt lat="43.20393" lon="5.49422">
        <ele>159.8</ele>
        <time>2025-10-19T09:53:31Z</time>
      </trkpt>
      <trkpt lat="43.20393" lon="5.49422">
        <ele>159.8</ele>
        <time>2025-10-19T09:53:32Z</time>
      </trkpt>
      <trkpt lat="43.20393" lon="5.49422">
        <ele>159.7</ele>
        <time>2025-10-19T09:53:33Z</time>
      </trkpt>
      <trkpt lat="43.20393" lon="5.49422">
        <ele>159.6</ele>
        <time>2025-10-19T09:53:34Z</time>
      </trkpt>
      <trkpt lat="43.20393" lon="5.49422">
        <ele>159.6</ele>
        <time>2025-10-19T09:53:35Z</time>
      </trkpt>
      <trkpt lat="43.20393" lon="5.49422">
        <ele>159.7</ele>
        <time>2025-10-19T09:53:36Z</time>
      </trkpt>
      <trkpt lat="43.20393" lon="5.49422">
        <ele>159.6</ele>
        <time>2025-10-19T09:53:37Z</time>
      </trkpt>
      <trkpt lat="43.20393" lon="5.49422">
        <ele>159.6</ele>
        <time>2025-10-19T09:53:38Z</time>
      </trkpt>
      <trkpt lat="43.20393" lon="5.49422">
        <ele>159.6</ele>
        <time>2025-10-19T09:53:39Z</time>
      </trkpt>
      <trkpt lat="43.20393" lon="5.49422">
        <ele>159.6</ele>
        <time>2025-10-19T09:53:40Z</time>
      </trkpt>
      <trkpt lat="43.20393" lon="5.49422">
        <ele>159.7</ele>
        <time>2025-10-19T09:53:41Z</time>
      </trkpt>
      <trkpt lat="43.20393" lon="5.49422">
        <ele>159.8</ele>
        <time>2025-10-19T09:53:42Z</time>
      </trkpt>
      <trkpt lat="43.20393" lon="5.49421">
        <ele>159.7</ele>
        <time>2025-10-19T09:53:43Z</time>
      </trkpt>
      <trkpt lat="43.20393" lon="5.49421">
        <ele>159.7</ele>
        <time>2025-10-19T09:53:44Z</time>
      </trkpt>
      <trkpt lat="43.20393" lon="5.49421">
        <ele>159.7</ele>
        <time>2025-10-19T09:53:45Z</time>
      </trkpt>
      <trkpt lat="43.20393" lon="5.49421">
        <ele>159.7</ele>
        <time>2025-10-19T09:53:46Z</time>
      </trkpt>
      <trkpt lat="43.20393" lon="5.49421">
        <ele>159.7</ele>
        <time>2025-10-19T09:53:47Z</time>
      </trkpt>
      <trkpt lat="43.20393" lon="5.49421">
        <ele>159.7</ele>
        <time>2025-10-19T09:53:48Z</time>
      </trkpt>
      <trkpt lat="43.20393" lon="5.49421">
        <ele>159.7</ele>
        <time>2025-10-19T09:53:49Z</time>
      </trkpt>
      <trkpt lat="43.20393" lon="5.49421">
        <ele>159.9</ele>
        <time>2025-10-19T09:53:50Z</time>
      </trkpt>
      <trkpt lat="43.20393" lon="5.49421">
        <ele>159.8</ele>
        <time>2025-10-19T09:53:51Z</time>
      </trkpt>
      <trkpt lat="43.20393" lon="5.49421">
        <ele>159.7</ele>
        <time>2025-10-19T09:53:52Z</time>
      </trkpt>
      <trkpt lat="43.20393" lon="5.49421">
        <ele>159.6</ele>
        <time>2025-10-19T09:53:53Z</time>
      </trkpt>
      <trkpt lat="43.20393" lon="5.49421">
        <ele>159.5</ele>
        <time>2025-10-19T09:53:54Z</time>
      </trkpt>
      <trkpt lat="43.20393" lon="5.49421">
        <ele>159.5</ele>
        <time>2025-10-19T09:53:55Z</time>
      </trkpt>
      <trkpt lat="43.20393" lon="5.49421">
        <ele>159.5</ele>
        <time>2025-10-19T09:53:56Z</time>
      </trkpt>
      <trkpt lat="43.20393" lon="5.49421">
        <ele>159.5</ele>
        <time>2025-10-19T09:53:57Z</time>
      </trkpt>
      <trkpt lat="43.20393" lon="5.49421">
        <ele>159.5</ele>
        <time>2025-10-19T09:53:58Z</time>
      </trkpt>
      <trkpt lat="43.20393" lon="5.49421">
        <ele>159.5</ele>
        <time>2025-10-19T09:53:59Z</time>
      </trkpt>
      <trkpt lat="43.20393" lon="5.49421">
        <ele>159.5</ele>
        <time>2025-10-19T09:54:00Z</time>
      </trkpt>
      <trkpt lat="43.20393" lon="5.49421">
        <ele>159.5</ele>
        <time>2025-10-19T09:54:01Z</time>
      </trkpt>
      <trkpt lat="43.20393" lon="5.49421">
        <ele>159.5</ele>
        <time>2025-10-19T09:54:02Z</time>
      </trkpt>
      <trkpt lat="43.20393" lon="5.49421">
        <ele>159.5</ele>
        <time>2025-10-19T09:54:03Z</time>
      </trkpt>
      <trkpt lat="43.20393" lon="5.49421">
        <ele>159.5</ele>
        <time>2025-10-19T09:54:04Z</time>
      </trkpt>
      <trkpt lat="43.20393" lon="5.49421">
        <ele>159.5</ele>
        <time>2025-10-19T09:54:05Z</time>
      </trkpt>
      <trkpt lat="43.20393" lon="5.49421">
        <ele>159.5</ele>
        <time>2025-10-19T09:54:06Z</time>
      </trkpt>
      <trkpt lat="43.20393" lon="5.49421">
        <ele>159.6</ele>
        <time>2025-10-19T09:54:07Z</time>
      </trkpt>
      <trkpt lat="43.20393" lon="5.49421">
        <ele>159.7</ele>
        <time>2025-10-19T09:54:08Z</time>
      </trkpt>
      <trkpt lat="43.20393" lon="5.49421">
        <ele>159.7</ele>
        <time>2025-10-19T09:54:09Z</time>
      </trkpt>
      <trkpt lat="43.20393" lon="5.49421">
        <ele>159.8</ele>
        <time>2025-10-19T09:54:10Z</time>
      </trkpt>
      <trkpt lat="43.20393" lon="5.49421">
        <ele>159.8</ele>
        <time>2025-10-19T09:54:11Z</time>
      </trkpt>
      <trkpt lat="43.20393" lon="5.49421">
        <ele>159.8</ele>
        <time>2025-10-19T09:54:12Z</time>
      </trkpt>
      <trkpt lat="43.20394" lon="5.49421">
        <ele>159.8</ele>
        <time>2025-10-19T09:54:13Z</time>
      </trkpt>
      <trkpt lat="43.20394" lon="5.49421">
        <ele>159.9</ele>
        <time>2025-10-19T09:54:14Z</time>
      </trkpt>
      <trkpt lat="43.20394" lon="5.4942">
        <ele>159.9</ele>
        <time>2025-10-19T09:54:15Z</time>
      </trkpt>
      <trkpt lat="43.20394" lon="5.49421">
        <ele>160</ele>
        <time>2025-10-19T09:54:16Z</time>
      </trkpt>
      <trkpt lat="43.20394" lon="5.49421">
        <ele>160</ele>
        <time>2025-10-19T09:54:17Z</time>
      </trkpt>
      <trkpt lat="43.20394" lon="5.49421">
        <ele>160</ele>
        <time>2025-10-19T09:54:18Z</time>
      </trkpt>
      <trkpt lat="43.20394" lon="5.49421">
        <ele>159.9</ele>
        <time>2025-10-19T09:54:19Z</time>
      </trkpt>
      <trkpt lat="43.20394" lon="5.49421">
        <ele>159.9</ele>
        <time>2025-10-19T09:54:20Z</time>
      </trkpt>
      <trkpt lat="43.20393" lon="5.49421">
        <ele>160</ele>
        <time>2025-10-19T09:54:21Z</time>
      </trkpt>
      <trkpt lat="43.20393" lon="5.49421">
        <ele>160.1</ele>
        <time>2025-10-19T09:54:22Z</time>
      </trkpt>
      <trkpt lat="43.20393" lon="5.49421">
        <ele>160</ele>
        <time>2025-10-19T09:54:23Z</time>
      </trkpt>
      <trkpt lat="43.20393" lon="5.49421">
        <ele>160</ele>
        <time>2025-10-19T09:54:24Z</time>
      </trkpt>
      <trkpt lat="43.20393" lon="5.49421">
        <ele>160</ele>
        <time>2025-10-19T09:54:25Z</time>
      </trkpt>
      <trkpt lat="43.20393" lon="5.49421">
        <ele>160</ele>
        <time>2025-10-19T09:54:26Z</time>
      </trkpt>
      <trkpt lat="43.20393" lon="5.49421">
        <ele>160</ele>
        <time>2025-10-19T09:54:27Z</time>
      </trkpt>
      <trkpt lat="43.20393" lon="5.49421">
        <ele>160</ele>
        <time>2025-10-19T09:54:28Z</time>
      </trkpt>
      <trkpt lat="43.20393" lon="5.4942">
        <ele>160</ele>
        <time>2025-10-19T09:54:29Z</time>
      </trkpt>
      <trkpt lat="43.20393" lon="5.4942">
        <ele>160</ele>
        <time>2025-10-19T09:54:30Z</time>
      </trkpt>
      <trkpt lat="43.20393" lon="5.4942">
        <ele>160</ele>
        <time>2025-10-19T09:54:31Z</time>
      </trkpt>
      <trkpt lat="43.20393" lon="5.49421">
        <ele>160</ele>
        <time>2025-10-19T09:54:32Z</time>
      </trkpt>
      <trkpt lat="43.20393" lon="5.49421">
        <ele>160</ele>
        <time>2025-10-19T09:54:33Z</time>
      </trkpt>
      <trkpt lat="43.20393" lon="5.49421">
        <ele>160.1</ele>
        <time>2025-10-19T09:54:34Z</time>
      </trkpt>
      <trkpt lat="43.20393" lon="5.49421">
        <ele>160.1</ele>
        <time>2025-10-19T09:54:35Z</time>
      </trkpt>
      <trkpt lat="43.20393" lon="5.49421">
        <ele>160.2</ele>
        <time>2025-10-19T09:54:36Z</time>
      </trkpt>
      <trkpt lat="43.20393" lon="5.49421">
        <ele>160.2</ele>
        <time>2025-10-19T09:54:37Z</time>
      </trkpt>
      <trkpt lat="43.20393" lon="5.49421">
        <ele>160.2</ele>
        <time>2025-10-19T09:54:38Z</time>
      </trkpt>
      <trkpt lat="43.20393" lon="5.49421">
        <ele>160.2</ele>
        <time>2025-10-19T09:54:39Z</time>
      </trkpt>
      <trkpt lat="43.20393" lon="5.49421">
        <ele>160.2</ele>
        <time>2025-10-19T09:54:40Z</time>
      </trkpt>
      <trkpt lat="43.20393" lon="5.49421">
        <ele>160</ele>
        <time>2025-10-19T09:54:41Z</time>
      </trkpt>
      <trkpt lat="43.20393" lon="5.49421">
        <ele>159.9</ele>
        <time>2025-10-19T09:54:42Z</time>
      </trkpt>
      <trkpt lat="43.20393" lon="5.49421">
        <ele>159.8</ele>
        <time>2025-10-19T09:54:43Z</time>
      </trkpt>
      <trkpt lat="43.20393" lon="5.49421">
        <ele>159.8</ele>
        <time>2025-10-19T09:54:44Z</time>
      </trkpt>
      <trkpt lat="43.20393" lon="5.49421">
        <ele>159.8</ele>
        <time>2025-10-19T09:54:45Z</time>
      </trkpt>
      <trkpt lat="43.20393" lon="5.49421">
        <ele>159.6</ele>
        <time>2025-10-19T09:54:46Z</time>
      </trkpt>
      <trkpt lat="43.20393" lon="5.49421">
        <ele>159.5</ele>
        <time>2025-10-19T09:54:47Z</time>
      </trkpt>
      <trkpt lat="43.20393" lon="5.49421">
        <ele>159.4</ele>
        <time>2025-10-19T09:54:48Z</time>
      </trkpt>
      <trkpt lat="43.20393" lon="5.49421">
        <ele>159.5</ele>
        <time>2025-10-19T09:54:49Z</time>
      </trkpt>
      <trkpt lat="43.20393" lon="5.49421">
        <ele>159.5</ele>
        <time>2025-10-19T09:54:50Z</time>
      </trkpt>
      <trkpt lat="43.20393" lon="5.49421">
        <ele>159.5</ele>
        <time>2025-10-19T09:54:51Z</time>
      </trkpt>
      <trkpt lat="43.20393" lon="5.49421">
        <ele>159.5</ele>
        <time>2025-10-19T09:54:52Z</time>
      </trkpt>
      <trkpt lat="43.20393" lon="5.49421">
        <ele>159.5</ele>
        <time>2025-10-19T09:54:53Z</time>
      </trkpt>
      <trkpt lat="43.20393" lon="5.49421">
        <ele>159.5</ele>
        <time>2025-10-19T09:54:54Z</time>
      </trkpt>
      <trkpt lat="43.20393" lon="5.49421">
        <ele>159.4</ele>
        <time>2025-10-19T09:54:55Z</time>
      </trkpt>
      <trkpt lat="43.20393" lon="5.49421">
        <ele>159.5</ele>
        <time>2025-10-19T09:54:56Z</time>
      </trkpt>
      <trkpt lat="43.20393" lon="5.49421">
        <ele>159.5</ele>
        <time>2025-10-19T09:54:57Z</time>
      </trkpt>
      <trkpt lat="43.20393" lon="5.49421">
        <ele>159.6</ele>
        <time>2025-10-19T09:54:58Z</time>
      </trkpt>
      <trkpt lat="43.20393" lon="5.49421">
        <ele>159.6</ele>
        <time>2025-10-19T09:54:59Z</time>
      </trkpt>
      <trkpt lat="43.20393" lon="5.49421">
        <ele>159.6</ele>
        <time>2025-10-19T09:55:00Z</time>
      </trkpt>
      <trkpt lat="43.20393" lon="5.49421">
        <ele>159.6</ele>
        <time>2025-10-19T09:55:01Z</time>
      </trkpt>
      <trkpt lat="43.20393" lon="5.49421">
        <ele>159.5</ele>
        <time>2025-10-19T09:55:02Z</time>
      </trkpt>
      <trkpt lat="43.20393" lon="5.49421">
        <ele>159.6</ele>
        <time>2025-10-19T09:55:03Z</time>
      </trkpt>
      <trkpt lat="43.20393" lon="5.49421">
        <ele>159.6</ele>
        <time>2025-10-19T09:55:04Z</time>
      </trkpt>
      <trkpt lat="43.20393" lon="5.49421">
        <ele>159.7</ele>
        <time>2025-10-19T09:55:05Z</time>
      </trkpt>
      <trkpt lat="43.20393" lon="5.49421">
        <ele>159.6</ele>
        <time>2025-10-19T09:55:06Z</time>
      </trkpt>
      <trkpt lat="43.20393" lon="5.49421">
        <ele>159.6</ele>
        <time>2025-10-19T09:55:07Z</time>
      </trkpt>
      <trkpt lat="43.20393" lon="5.49421">
        <ele>159.6</ele>
        <time>2025-10-19T09:55:08Z</time>
      </trkpt>
      <trkpt lat="43.20393" lon="5.49421">
        <ele>159.5</ele>
        <time>2025-10-19T09:55:09Z</time>
      </trkpt>
      <trkpt lat="43.20393" lon="5.49421">
        <ele>159.5</ele>
        <time>2025-10-19T09:55:10Z</time>
      </trkpt>
      <trkpt lat="43.20393" lon="5.49421">
        <ele>159.5</ele>
        <time>2025-10-19T09:55:11Z</time>
      </trkpt>
      <trkpt lat="43.20393" lon="5.49421">
        <ele>159.4</ele>
        <time>2025-10-19T09:55:12Z</time>
      </trkpt>
      <trkpt lat="43.20393" lon="5.49421">
        <ele>159.4</ele>
        <time>2025-10-19T09:55:13Z</time>
      </trkpt>
      <trkpt lat="43.20393" lon="5.49421">
        <ele>159.4</ele>
        <time>2025-10-19T09:55:14Z</time>
      </trkpt>
      <trkpt lat="43.20393" lon="5.49421">
        <ele>159.4</ele>
        <time>2025-10-19T09:55:15Z</time>
      </trkpt>
      <trkpt lat="43.20393" lon="5.49421">
        <ele>159.4</ele>
        <time>2025-10-19T09:55:16Z</time>
      </trkpt>
      <trkpt lat="43.20393" lon="5.49421">
        <ele>159.4</ele>
        <time>2025-10-19T09:55:17Z</time>
      </trkpt>
      <trkpt lat="43.20393" lon="5.49421">
        <ele>159.5</ele>
        <time>2025-10-19T09:55:18Z</time>
      </trkpt>
      <trkpt lat="43.20393" lon="5.49421">
        <ele>159.6</ele>
        <time>2025-10-19T09:55:19Z</time>
      </trkpt>
      <trkpt lat="43.20394" lon="5.49421">
        <ele>159.7</ele>
        <time>2025-10-19T09:55:20Z</time>
      </trkpt>
      <trkpt lat="43.20394" lon="5.49421">
        <ele>159.7</ele>
        <time>2025-10-19T09:55:21Z</time>
      </trkpt>
      <trkpt lat="43.20394" lon="5.49421">
        <ele>159.7</ele>
        <time>2025-10-19T09:55:22Z</time>
      </trkpt>
      <trkpt lat="43.20394" lon="5.49421">
        <ele>159.7</ele>
        <time>2025-10-19T09:55:23Z</time>
      </trkpt>
      <trkpt lat="43.20394" lon="5.49421">
        <ele>159.7</ele>
        <time>2025-10-19T09:55:24Z</time>
      </trkpt>
      <trkpt lat="43.20394" lon="5.49421">
        <ele>159.7</ele>
        <time>2025-10-19T09:55:25Z</time>
      </trkpt>
      <trkpt lat="43.20394" lon="5.49421">
        <ele>159.7</ele>
        <time>2025-10-19T09:55:26Z</time>
      </trkpt>
      <trkpt lat="43.20394" lon="5.49421">
        <ele>159.7</ele>
        <time>2025-10-19T09:55:27Z</time>
      </trkpt>
      <trkpt lat="43.20394" lon="5.49421">
        <ele>159.7</ele>
        <time>2025-10-19T09:55:28Z</time>
      </trkpt>
      <trkpt lat="43.20394" lon="5.49421">
        <ele>159.6</ele>
        <time>2025-10-19T09:55:29Z</time>
      </trkpt>
      <trkpt lat="43.20394" lon="5.49421">
        <ele>159.5</ele>
        <time>2025-10-19T09:55:30Z</time>
      </trkpt>
      <trkpt lat="43.20394" lon="5.49421">
        <ele>159.5</ele>
        <time>2025-10-19T09:55:31Z</time>
      </trkpt>
      <trkpt lat="43.20394" lon="5.49421">
        <ele>159.5</ele>
        <time>2025-10-19T09:55:32Z</time>
      </trkpt>
      <trkpt lat="43.20394" lon="5.49421">
        <ele>159.4</ele>
        <time>2025-10-19T09:55:33Z</time>
      </trkpt>
      <trkpt lat="43.20394" lon="5.49421">
        <ele>159.4</ele>
        <time>2025-10-19T09:55:34Z</time>
      </trkpt>
      <trkpt lat="43.20394" lon="5.49421">
        <ele>159.4</ele>
        <time>2025-10-19T09:55:35Z</time>
      </trkpt>
      <trkpt lat="43.20394" lon="5.49421">
        <ele>159.3</ele>
        <time>2025-10-19T09:55:36Z</time>
      </trkpt>
      <trkpt lat="43.20394" lon="5.49421">
        <ele>159.3</ele>
        <time>2025-10-19T09:55:37Z</time>
      </trkpt>
      <trkpt lat="43.20394" lon="5.49421">
        <ele>159.3</ele>
        <time>2025-10-19T09:55:38Z</time>
      </trkpt>
      <trkpt lat="43.20394" lon="5.49421">
        <ele>159.4</ele>
        <time>2025-10-19T09:55:39Z</time>
      </trkpt>
      <trkpt lat="43.20394" lon="5.49421">
        <ele>159.3</ele>
        <time>2025-10-19T09:55:40Z</time>
      </trkpt>
      <trkpt lat="43.20394" lon="5.49422">
        <ele>159.2</ele>
        <time>2025-10-19T09:55:41Z</time>
      </trkpt>
      <trkpt lat="43.20394" lon="5.49422">
        <ele>159.2</ele>
        <time>2025-10-19T09:55:42Z</time>
      </trkpt>
      <trkpt lat="43.20394" lon="5.49423">
        <ele>159.2</ele>
        <time>2025-10-19T09:55:43Z</time>
      </trkpt>
      <trkpt lat="43.20394" lon="5.49423">
        <ele>159.2</ele>
        <time>2025-10-19T09:55:44Z</time>
      </trkpt>
      <trkpt lat="43.20394" lon="5.49423">
        <ele>159.3</ele>
        <time>2025-10-19T09:55:45Z</time>
      </trkpt>
      <trkpt lat="43.20394" lon="5.49423">
        <ele>159.4</ele>
        <time>2025-10-19T09:55:46Z</time>
      </trkpt>
      <trkpt lat="43.20394" lon="5.49423">
        <ele>159.3</ele>
        <time>2025-10-19T09:55:47Z</time>
      </trkpt>
      <trkpt lat="43.20395" lon="5.49423">
        <ele>159.2</ele>
        <time>2025-10-19T09:55:48Z</time>
      </trkpt>
      <trkpt lat="43.20395" lon="5.49424">
        <ele>159.1</ele>
        <time>2025-10-19T09:55:49Z</time>
      </trkpt>
      <trkpt lat="43.20395" lon="5.49424">
        <ele>159</ele>
        <time>2025-10-19T09:55:50Z</time>
      </trkpt>
      <trkpt lat="43.20395" lon="5.49424">
        <ele>159</ele>
        <time>2025-10-19T09:55:51Z</time>
      </trkpt>
      <trkpt lat="43.20395" lon="5.49424">
        <ele>158.9</ele>
        <time>2025-10-19T09:55:52Z</time>
      </trkpt>
      <trkpt lat="43.20395" lon="5.49424">
        <ele>158.9</ele>
        <time>2025-10-19T09:55:53Z</time>
      </trkpt>
      <trkpt lat="43.20394" lon="5.49423">
        <ele>158.9</ele>
        <time>2025-10-19T09:55:54Z</time>
      </trkpt>
      <trkpt lat="43.20394" lon="5.49422">
        <ele>159</ele>
        <time>2025-10-19T09:55:55Z</time>
      </trkpt>
      <trkpt lat="43.20394" lon="5.49421">
        <ele>159.1</ele>
        <time>2025-10-19T09:55:56Z</time>
      </trkpt>
      <trkpt lat="43.20394" lon="5.49421">
        <ele>159.2</ele>
        <time>2025-10-19T09:55:57Z</time>
      </trkpt>
      <trkpt lat="43.20394" lon="5.49421">
        <ele>159.3</ele>
        <time>2025-10-19T09:55:58Z</time>
      </trkpt>
      <trkpt lat="43.20394" lon="5.4942">
        <ele>159.3</ele>
        <time>2025-10-19T09:55:59Z</time>
      </trkpt>
      <trkpt lat="43.20394" lon="5.4942">
        <ele>159.3</ele>
        <time>2025-10-19T09:56:00Z</time>
      </trkpt>
      <trkpt lat="43.20394" lon="5.49421">
        <ele>159.4</ele>
        <time>2025-10-19T09:56:01Z</time>
      </trkpt>
      <trkpt lat="43.20394" lon="5.49421">
        <ele>159.4</ele>
        <time>2025-10-19T09:56:02Z</time>
      </trkpt>
      <trkpt lat="43.20394" lon="5.49421">
        <ele>159.4</ele>
        <time>2025-10-19T09:56:03Z</time>
      </trkpt>
      <trkpt lat="43.20394" lon="5.4942">
        <ele>159.5</ele>
        <time>2025-10-19T09:56:04Z</time>
      </trkpt>
      <trkpt lat="43.20394" lon="5.4942">
        <ele>159.5</ele>
        <time>2025-10-19T09:56:05Z</time>
      </trkpt>
      <trkpt lat="43.20394" lon="5.49419">
        <ele>159.6</ele>
        <time>2025-10-19T09:56:06Z</time>
      </trkpt>
      <trkpt lat="43.20393" lon="5.49419">
        <ele>159.6</ele>
        <time>2025-10-19T09:56:07Z</time>
      </trkpt>
      <trkpt lat="43.20393" lon="5.49418">
        <ele>159.7</ele>
        <time>2025-10-19T09:56:08Z</time>
      </trkpt>
      <trkpt lat="43.20392" lon="5.49417">
        <ele>159.7</ele>
        <time>2025-10-19T09:56:09Z</time>
      </trkpt>
      <trkpt lat="43.20392" lon="5.49417">
        <ele>159.8</ele>
        <time>2025-10-19T09:56:10Z</time>
      </trkpt>
      <trkpt lat="43.20392" lon="5.49417">
        <ele>160</ele>
        <time>2025-10-19T09:56:11Z</time>
      </trkpt>
      <trkpt lat="43.20391" lon="5.49416">
        <ele>160.1</ele>
        <time>2025-10-19T09:56:12Z</time>
      </trkpt>
      <trkpt lat="43.20391" lon="5.49416">
        <ele>160.3</ele>
        <time>2025-10-19T09:56:13Z</time>
      </trkpt>
      <trkpt lat="43.20391" lon="5.49415">
        <ele>160.4</ele>
        <time>2025-10-19T09:56:14Z</time>
      </trkpt>
      <trkpt lat="43.20391" lon="5.49415">
        <ele>160.5</ele>
        <time>2025-10-19T09:56:15Z</time>
      </trkpt>
      <trkpt lat="43.20391" lon="5.49414">
        <ele>160.6</ele>
        <time>2025-10-19T09:56:16Z</time>
      </trkpt>
      <trkpt lat="43.20391" lon="5.49414">
        <ele>160.6</ele>
        <time>2025-10-19T09:56:17Z</time>
      </trkpt>
      <trkpt lat="43.20391" lon="5.49413">
        <ele>160.7</ele>
        <time>2025-10-19T09:56:18Z</time>
      </trkpt>
      <trkpt lat="43.20391" lon="5.49413">
        <ele>160.7</ele>
        <time>2025-10-19T09:56:19Z</time>
      </trkpt>
      <trkpt lat="43.20392" lon="5.49413">
        <ele>160.6</ele>
        <time>2025-10-19T09:56:20Z</time>
      </trkpt>
      <trkpt lat="43.20392" lon="5.49414">
        <ele>160.6</ele>
        <time>2025-10-19T09:56:21Z</time>
      </trkpt>
      <trkpt lat="43.20392" lon="5.49414">
        <ele>160.5</ele>
        <time>2025-10-19T09:56:22Z</time>
      </trkpt>
      <trkpt lat="43.20392" lon="5.49414">
        <ele>160.5</ele>
        <time>2025-10-19T09:56:23Z</time>
      </trkpt>
      <trkpt lat="43.20392" lon="5.49414">
        <ele>160.5</ele>
        <time>2025-10-19T09:56:24Z</time>
      </trkpt>
      <trkpt lat="43.20392" lon="5.49414">
        <ele>160.6</ele>
        <time>2025-10-19T09:56:25Z</time>
      </trkpt>
      <trkpt lat="43.20392" lon="5.49414">
        <ele>160.7</ele>
        <time>2025-10-19T09:56:26Z</time>
      </trkpt>
      <trkpt lat="43.20392" lon="5.49414">
        <ele>160.7</ele>
        <time>2025-10-19T09:56:27Z</time>
      </trkpt>
      <trkpt lat="43.20393" lon="5.49414">
        <ele>160.7</ele>
        <time>2025-10-19T09:56:28Z</time>
      </trkpt>
      <trkpt lat="43.20393" lon="5.49413">
        <ele>160.8</ele>
        <time>2025-10-19T09:56:29Z</time>
      </trkpt>
      <trkpt lat="43.20394" lon="5.49413">
        <ele>160.8</ele>
        <time>2025-10-19T09:56:30Z</time>
      </trkpt>
      <trkpt lat="43.20394" lon="5.49412">
        <ele>160.9</ele>
        <time>2025-10-19T09:56:31Z</time>
      </trkpt>
      <trkpt lat="43.20394" lon="5.49411">
        <ele>161.1</ele>
        <time>2025-10-19T09:56:32Z</time>
      </trkpt>
      <trkpt lat="43.20394" lon="5.49409">
        <ele>161.3</ele>
        <time>2025-10-19T09:56:33Z</time>
      </trkpt>
      <trkpt lat="43.20394" lon="5.49408">
        <ele>161.3</ele>
        <time>2025-10-19T09:56:34Z</time>
      </trkpt>
      <trkpt lat="43.20394" lon="5.49407">
        <ele>161.4</ele>
        <time>2025-10-19T09:56:35Z</time>
      </trkpt>
      <trkpt lat="43.20393" lon="5.49406">
        <ele>161.4</ele>
        <time>2025-10-19T09:56:36Z</time>
      </trkpt>
      <trkpt lat="43.20393" lon="5.49406">
        <ele>161.4</ele>
        <time>2025-10-19T09:56:37Z</time>
      </trkpt>
      <trkpt lat="43.20392" lon="5.49405">
        <ele>161.4</ele>
        <time>2025-10-19T09:56:38Z</time>
      </trkpt>
      <trkpt lat="43.20392" lon="5.49405">
        <ele>161.3</ele>
        <time>2025-10-19T09:56:39Z</time>
      </trkpt>
      <trkpt lat="43.20391" lon="5.49404">
        <ele>161.2</ele>
        <time>2025-10-19T09:56:40Z</time>
      </trkpt>
      <trkpt lat="43.20391" lon="5.49403">
        <ele>161.1</ele>
        <time>2025-10-19T09:56:41Z</time>
      </trkpt>
      <trkpt lat="43.20391" lon="5.49402">
        <ele>161</ele>
        <time>2025-10-19T09:56:42Z</time>
      </trkpt>
      <trkpt lat="43.20391" lon="5.49402">
        <ele>160.9</ele>
        <time>2025-10-19T09:56:43Z</time>
      </trkpt>
      <trkpt lat="43.20391" lon="5.49401">
        <ele>160.8</ele>
        <time>2025-10-19T09:56:44Z</time>
      </trkpt>
      <trkpt lat="43.20391" lon="5.49401">
        <ele>160.8</ele>
        <time>2025-10-19T09:56:45Z</time>
      </trkpt>
      <trkpt lat="43.20391" lon="5.49401">
        <ele>160.9</ele>
        <time>2025-10-19T09:56:46Z</time>
      </trkpt>
      <trkpt lat="43.20391" lon="5.49401">
        <ele>160.8</ele>
        <time>2025-10-19T09:56:47Z</time>
      </trkpt>
      <trkpt lat="43.20391" lon="5.49401">
        <ele>160.8</ele>
        <time>2025-10-19T09:56:48Z</time>
      </trkpt>
      <trkpt lat="43.20391" lon="5.49401">
        <ele>160.8</ele>
        <time>2025-10-19T09:56:49Z</time>
      </trkpt>
      <trkpt lat="43.20391" lon="5.49401">
        <ele>160.7</ele>
        <time>2025-10-19T09:56:50Z</time>
      </trkpt>
      <trkpt lat="43.20391" lon="5.49401">
        <ele>160.6</ele>
        <time>2025-10-19T09:56:51Z</time>
      </trkpt>
      <trkpt lat="43.20391" lon="5.49402">
        <ele>160.6</ele>
        <time>2025-10-19T09:56:52Z</time>
      </trkpt>
      <trkpt lat="43.20391" lon="5.49402">
        <ele>160.6</ele>
        <time>2025-10-19T09:56:53Z</time>
      </trkpt>
      <trkpt lat="43.20391" lon="5.49402">
        <ele>160.6</ele>
        <time>2025-10-19T09:56:54Z</time>
      </trkpt>
      <trkpt lat="43.20391" lon="5.49402">
        <ele>160.6</ele>
        <time>2025-10-19T09:56:55Z</time>
      </trkpt>
      <trkpt lat="43.20392" lon="5.49401">
        <ele>160.6</ele>
        <time>2025-10-19T09:56:56Z</time>
      </trkpt>
      <trkpt lat="43.20392" lon="5.49401">
        <ele>160.5</ele>
        <time>2025-10-19T09:56:57Z</time>
      </trkpt>
      <trkpt lat="43.20392" lon="5.494">
        <ele>160.4</ele>
        <time>2025-10-19T09:56:58Z</time>
      </trkpt>
      <trkpt lat="43.20392" lon="5.49399">
        <ele>160.4</ele>
        <time>2025-10-19T09:56:59Z</time>
      </trkpt>
      <trkpt lat="43.20392" lon="5.49399">
        <ele>160.4</ele>
        <time>2025-10-19T09:57:00Z</time>
      </trkpt>
      <trkpt lat="43.20392" lon="5.49399">
        <ele>160.4</ele>
        <time>2025-10-19T09:57:01Z</time>
      </trkpt>
      <trkpt lat="43.20391" lon="5.49399">
        <ele>160.4</ele>
        <time>2025-10-19T09:57:02Z</time>
      </trkpt>
      <trkpt lat="43.20391" lon="5.49399">
        <ele>160.4</ele>
        <time>2025-10-19T09:57:03Z</time>
      </trkpt>
      <trkpt lat="43.20392" lon="5.49399">
        <ele>160.3</ele>
        <time>2025-10-19T09:57:04Z</time>
      </trkpt>
      <trkpt lat="43.20392" lon="5.49399">
        <ele>160.3</ele>
        <time>2025-10-19T09:57:05Z</time>
      </trkpt>
      <trkpt lat="43.20391" lon="5.49399">
        <ele>160.3</ele>
        <time>2025-10-19T09:57:06Z</time>
      </trkpt>
      <trkpt lat="43.20391" lon="5.49399">
        <ele>160.1</ele>
        <time>2025-10-19T09:57:07Z</time>
      </trkpt>
      <trkpt lat="43.20391" lon="5.49399">
        <ele>160.1</ele>
        <time>2025-10-19T09:57:08Z</time>
      </trkpt>
      <trkpt lat="43.20391" lon="5.49399">
        <ele>160.1</ele>
        <time>2025-10-19T09:57:09Z</time>
      </trkpt>
      <trkpt lat="43.20391" lon="5.49399">
        <ele>160.1</ele>
        <time>2025-10-19T09:57:10Z</time>
      </trkpt>
      <trkpt lat="43.20391" lon="5.49399">
        <ele>160.2</ele>
        <time>2025-10-19T09:57:11Z</time>
      </trkpt>
      <trkpt lat="43.20391" lon="5.49399">
        <ele>160.2</ele>
        <time>2025-10-19T09:57:12Z</time>
      </trkpt>
      <trkpt lat="43.20391" lon="5.49399">
        <ele>160.2</ele>
        <time>2025-10-19T09:57:13Z</time>
      </trkpt>
      <trkpt lat="43.20391" lon="5.49399">
        <ele>160.2</ele>
        <time>2025-10-19T09:57:14Z</time>
      </trkpt>
      <trkpt lat="43.20391" lon="5.49399">
        <ele>160.2</ele>
        <time>2025-10-19T09:57:15Z</time>
      </trkpt>
      <trkpt lat="43.20391" lon="5.49399">
        <ele>160.2</ele>
        <time>2025-10-19T09:57:16Z</time>
      </trkpt>
      <trkpt lat="43.20391" lon="5.49399">
        <ele>160.1</ele>
        <time>2025-10-19T09:57:17Z</time>
      </trkpt>
      <trkpt lat="43.20391" lon="5.494">
        <ele>160.1</ele>
        <time>2025-10-19T09:57:18Z</time>
      </trkpt>
      <trkpt lat="43.20391" lon="5.494">
        <ele>160</ele>
        <time>2025-10-19T09:57:19Z</time>
      </trkpt>
      <trkpt lat="43.20391" lon="5.494">
        <ele>160</ele>
        <time>2025-10-19T09:57:20Z</time>
      </trkpt>
      <trkpt lat="43.20391" lon="5.494">
        <ele>160</ele>
        <time>2025-10-19T09:57:21Z</time>
      </trkpt>
      <trkpt lat="43.20391" lon="5.494">
        <ele>160.1</ele>
        <time>2025-10-19T09:57:22Z</time>
      </trkpt>
      <trkpt lat="43.20391" lon="5.494">
        <ele>160.1</ele>
        <time>2025-10-19T09:57:23Z</time>
      </trkpt>
      <trkpt lat="43.20391" lon="5.494">
        <ele>160.1</ele>
        <time>2025-10-19T09:57:24Z</time>
      </trkpt>
      <trkpt lat="43.20391" lon="5.494">
        <ele>160.1</ele>
        <time>2025-10-19T09:57:25Z</time>
      </trkpt>
      <trkpt lat="43.20391" lon="5.494">
        <ele>160</ele>
        <time>2025-10-19T09:57:26Z</time>
      </trkpt>
      <trkpt lat="43.20391" lon="5.494">
        <ele>160</ele>
        <time>2025-10-19T09:57:27Z</time>
      </trkpt>
      <trkpt lat="43.20391" lon="5.494">
        <ele>159.9</ele>
        <time>2025-10-19T09:57:28Z</time>
      </trkpt>
      <trkpt lat="43.20391" lon="5.494">
        <ele>159.9</ele>
        <time>2025-10-19T09:57:29Z</time>
      </trkpt>
      <trkpt lat="43.20391" lon="5.49401">
        <ele>159.9</ele>
        <time>2025-10-19T09:57:30Z</time>
      </trkpt>
      <trkpt lat="43.20391" lon="5.49402">
        <ele>159.9</ele>
        <time>2025-10-19T09:57:31Z</time>
      </trkpt>
      <trkpt lat="43.20391" lon="5.49402">
        <ele>160</ele>
        <time>2025-10-19T09:57:32Z</time>
      </trkpt>
      <trkpt lat="43.20392" lon="5.49402">
        <ele>160</ele>
        <time>2025-10-19T09:57:33Z</time>
      </trkpt>
      <trkpt lat="43.20392" lon="5.49403">
        <ele>160.1</ele>
        <time>2025-10-19T09:57:34Z</time>
      </trkpt>
      <trkpt lat="43.20392" lon="5.49404">
        <ele>160.3</ele>
        <time>2025-10-19T09:57:35Z</time>
      </trkpt>
      <trkpt lat="43.20392" lon="5.49404">
        <ele>160.4</ele>
        <time>2025-10-19T09:57:36Z</time>
      </trkpt>
      <trkpt lat="43.20392" lon="5.49405">
        <ele>160.5</ele>
        <time>2025-10-19T09:57:37Z</time>
      </trkpt>
      <trkpt lat="43.20392" lon="5.49406">
        <ele>160.5</ele>
        <time>2025-10-19T09:57:38Z</time>
      </trkpt>
      <trkpt lat="43.20392" lon="5.49406">
        <ele>160.6</ele>
        <time>2025-10-19T09:57:39Z</time>
      </trkpt>
      <trkpt lat="43.20393" lon="5.49407">
        <ele>160.6</ele>
        <time>2025-10-19T09:57:40Z</time>
      </trkpt>
      <trkpt lat="43.20393" lon="5.49407">
        <ele>160.8</ele>
        <time>2025-10-19T09:57:41Z</time>
      </trkpt>
      <trkpt lat="43.20393" lon="5.49408">
        <ele>160.9</ele>
        <time>2025-10-19T09:57:42Z</time>
      </trkpt>
      <trkpt lat="43.20394" lon="5.49409">
        <ele>161.1</ele>
        <time>2025-10-19T09:57:43Z</time>
      </trkpt>
      <trkpt lat="43.20394" lon="5.4941">
        <ele>161.2</ele>
        <time>2025-10-19T09:57:44Z</time>
      </trkpt>
      <trkpt lat="43.20395" lon="5.49411">
        <ele>161.3</ele>
        <time>2025-10-19T09:57:45Z</time>
      </trkpt>
      <trkpt lat="43.20395" lon="5.49412">
        <ele>161.4</ele>
        <time>2025-10-19T09:57:46Z</time>
      </trkpt>
      <trkpt lat="43.20396" lon="5.49412">
        <ele>161.5</ele>
        <time>2025-10-19T09:57:47Z</time>
      </trkpt>
      <trkpt lat="43.20396" lon="5.49412">
        <ele>161.6</ele>
        <time>2025-10-19T09:57:48Z</time>
      </trkpt>
      <trkpt lat="43.20397" lon="5.49412">
        <ele>161.7</ele>
        <time>2025-10-19T09:57:49Z</time>
      </trkpt>
      <trkpt lat="43.20398" lon="5.49412">
        <ele>161.6</ele>
        <time>2025-10-19T09:57:50Z</time>
      </trkpt>
      <trkpt lat="43.20398" lon="5.49412">
        <ele>161.7</ele>
        <time>2025-10-19T09:57:51Z</time>
      </trkpt>
      <trkpt lat="43.20398" lon="5.49412">
        <ele>161.7</ele>
        <time>2025-10-19T09:57:52Z</time>
      </trkpt>
      <trkpt lat="43.20398" lon="5.49412">
        <ele>161.9</ele>
        <time>2025-10-19T09:57:53Z</time>
      </trkpt>
      <trkpt lat="43.20398" lon="5.49412">
        <ele>162</ele>
        <time>2025-10-19T09:57:54Z</time>
      </trkpt>
      <trkpt lat="43.20398" lon="5.49412">
        <ele>162.1</ele>
        <time>2025-10-19T09:57:55Z</time>
      </trkpt>
      <trkpt lat="43.20398" lon="5.49411">
        <ele>162.1</ele>
        <time>2025-10-19T09:57:56Z</time>
      </trkpt>
      <trkpt lat="43.20398" lon="5.49411">
        <ele>162.1</ele>
        <time>2025-10-19T09:57:57Z</time>
      </trkpt>
      <trkpt lat="43.20398" lon="5.49411">
        <ele>162.1</ele>
        <time>2025-10-19T09:57:58Z</time>
      </trkpt>
      <trkpt lat="43.20398" lon="5.49411">
        <ele>162.2</ele>
        <time>2025-10-19T09:57:59Z</time>
      </trkpt>
      <trkpt lat="43.20399" lon="5.49411">
        <ele>162.2</ele>
        <time>2025-10-19T09:58:00Z</time>
      </trkpt>
      <trkpt lat="43.20399" lon="5.4941">
        <ele>162.3</ele>
        <time>2025-10-19T09:58:01Z</time>
      </trkpt>
      <trkpt lat="43.20399" lon="5.4941">
        <ele>162.3</ele>
        <time>2025-10-19T09:58:02Z</time>
      </trkpt>
      <trkpt lat="43.20399" lon="5.4941">
        <ele>162.2</ele>
        <time>2025-10-19T09:58:03Z</time>
      </trkpt>
      <trkpt lat="43.20399" lon="5.4941">
        <ele>162.2</ele>
        <time>2025-10-19T09:58:04Z</time>
      </trkpt>
      <trkpt lat="43.20399" lon="5.4941">
        <ele>162.2</ele>
        <time>2025-10-19T09:58:05Z</time>
      </trkpt>
      <trkpt lat="43.20399" lon="5.4941">
        <ele>162.1</ele>
        <time>2025-10-19T09:58:06Z</time>
      </trkpt>
      <trkpt lat="43.20399" lon="5.4941">
        <ele>162.1</ele>
        <time>2025-10-19T09:58:07Z</time>
      </trkpt>
      <trkpt lat="43.20399" lon="5.49409">
        <ele>162.1</ele>
        <time>2025-10-19T09:58:08Z</time>
      </trkpt>
      <trkpt lat="43.20399" lon="5.49409">
        <ele>162</ele>
        <time>2025-10-19T09:58:09Z</time>
      </trkpt>
      <trkpt lat="43.20399" lon="5.49409">
        <ele>162</ele>
        <time>2025-10-19T09:58:10Z</time>
      </trkpt>
      <trkpt lat="43.20399" lon="5.49409">
        <ele>162</ele>
        <time>2025-10-19T09:58:11Z</time>
      </trkpt>
      <trkpt lat="43.20399" lon="5.49409">
        <ele>162</ele>
        <time>2025-10-19T09:58:12Z</time>
      </trkpt>
      <trkpt lat="43.204" lon="5.49409">
        <ele>162</ele>
        <time>2025-10-19T09:58:13Z</time>
      </trkpt>
      <trkpt lat="43.204" lon="5.49409">
        <ele>162</ele>
        <time>2025-10-19T09:58:14Z</time>
      </trkpt>
      <trkpt lat="43.204" lon="5.49409">
        <ele>162</ele>
        <time>2025-10-19T09:58:15Z</time>
      </trkpt>
      <trkpt lat="43.204" lon="5.49409">
        <ele>162</ele>
        <time>2025-10-19T09:58:16Z</time>
      </trkpt>
      <trkpt lat="43.204" lon="5.49409">
        <ele>162</ele>
        <time>2025-10-19T09:58:17Z</time>
      </trkpt>
      <trkpt lat="43.204" lon="5.49409">
        <ele>162</ele>
        <time>2025-10-19T09:58:18Z</time>
      </trkpt>
      <trkpt lat="43.204" lon="5.49409">
        <ele>162</ele>
        <time>2025-10-19T09:58:19Z</time>
      </trkpt>
      <trkpt lat="43.204" lon="5.49409">
        <ele>162</ele>
        <time>2025-10-19T09:58:20Z</time>
      </trkpt>
      <trkpt lat="43.204" lon="5.49409">
        <ele>162</ele>
        <time>2025-10-19T09:58:21Z</time>
      </trkpt>
      <trkpt lat="43.204" lon="5.49409">
        <ele>162</ele>
        <time>2025-10-19T09:58:22Z</time>
      </trkpt>
      <trkpt lat="43.204" lon="5.49409">
        <ele>162.1</ele>
        <time>2025-10-19T09:58:23Z</time>
      </trkpt>
      <trkpt lat="43.204" lon="5.49409">
        <ele>162.1</ele>
        <time>2025-10-19T09:58:24Z</time>
      </trkpt>
      <trkpt lat="43.204" lon="5.49409">
        <ele>162.1</ele>
        <time>2025-10-19T09:58:25Z</time>
      </trkpt>
      <trkpt lat="43.204" lon="5.49409">
        <ele>162.1</ele>
        <time>2025-10-19T09:58:26Z</time>
      </trkpt>
      <trkpt lat="43.204" lon="5.49409">
        <ele>162.2</ele>
        <time>2025-10-19T09:58:27Z</time>
      </trkpt>
      <trkpt lat="43.204" lon="5.49408">
        <ele>162.2</ele>
        <time>2025-10-19T09:58:28Z</time>
      </trkpt>
      <trkpt lat="43.204" lon="5.49408">
        <ele>162.3</ele>
        <time>2025-10-19T09:58:29Z</time>
      </trkpt>
      <trkpt lat="43.204" lon="5.49408">
        <ele>162.2</ele>
        <time>2025-10-19T09:58:30Z</time>
      </trkpt>
      <trkpt lat="43.204" lon="5.49409">
        <ele>162.3</ele>
        <time>2025-10-19T09:58:31Z</time>
      </trkpt>
      <trkpt lat="43.204" lon="5.49409">
        <ele>162.4</ele>
        <time>2025-10-19T09:58:32Z</time>
      </trkpt>
      <trkpt lat="43.204" lon="5.49409">
        <ele>162.4</ele>
        <time>2025-10-19T09:58:33Z</time>
      </trkpt>
      <trkpt lat="43.204" lon="5.49408">
        <ele>162.3</ele>
        <time>2025-10-19T09:58:34Z</time>
      </trkpt>
      <trkpt lat="43.204" lon="5.49408">
        <ele>162.3</ele>
        <time>2025-10-19T09:58:35Z</time>
      </trkpt>
      <trkpt lat="43.204" lon="5.49408">
        <ele>162.2</ele>
        <time>2025-10-19T09:58:36Z</time>
      </trkpt>
      <trkpt lat="43.204" lon="5.49408">
        <ele>162.2</ele>
        <time>2025-10-19T09:58:37Z</time>
      </trkpt>
      <trkpt lat="43.204" lon="5.49408">
        <ele>162.2</ele>
        <time>2025-10-19T09:58:38Z</time>
      </trkpt>
      <trkpt lat="43.204" lon="5.49408">
        <ele>162.2</ele>
        <time>2025-10-19T09:58:39Z</time>
      </trkpt>
      <trkpt lat="43.204" lon="5.49408">
        <ele>162.3</ele>
        <time>2025-10-19T09:58:40Z</time>
      </trkpt>
      <trkpt lat="43.204" lon="5.49408">
        <ele>162.3</ele>
        <time>2025-10-19T09:58:41Z</time>
      </trkpt>
      <trkpt lat="43.20399" lon="5.49408">
        <ele>162.3</ele>
        <time>2025-10-19T09:58:42Z</time>
      </trkpt>
      <trkpt lat="43.20399" lon="5.49408">
        <ele>162.2</ele>
        <time>2025-10-19T09:58:43Z</time>
      </trkpt>
      <trkpt lat="43.20399" lon="5.49408">
        <ele>162.2</ele>
        <time>2025-10-19T09:58:44Z</time>
      </trkpt>
      <trkpt lat="43.20399" lon="5.49409">
        <ele>162.1</ele>
        <time>2025-10-19T09:58:45Z</time>
      </trkpt>
      <trkpt lat="43.20399" lon="5.49409">
        <ele>162</ele>
        <time>2025-10-19T09:58:46Z</time>
      </trkpt>
      <trkpt lat="43.20399" lon="5.49409">
        <ele>161.8</ele>
        <time>2025-10-19T09:58:47Z</time>
      </trkpt>
      <trkpt lat="43.20399" lon="5.49409">
        <ele>161.8</ele>
        <time>2025-10-19T09:58:48Z</time>
      </trkpt>
      <trkpt lat="43.20399" lon="5.49409">
        <ele>161.8</ele>
        <time>2025-10-19T09:58:49Z</time>
      </trkpt>
      <trkpt lat="43.20399" lon="5.49409">
        <ele>161.9</ele>
        <time>2025-10-19T09:58:50Z</time>
      </trkpt>
      <trkpt lat="43.20399" lon="5.49409">
        <ele>161.9</ele>
        <time>2025-10-19T09:58:51Z</time>
      </trkpt>
      <trkpt lat="43.20399" lon="5.49409">
        <ele>161.8</ele>
        <time>2025-10-19T09:58:52Z</time>
      </trkpt>
      <trkpt lat="43.20399" lon="5.49409">
        <ele>161.8</ele>
        <time>2025-10-19T09:58:53Z</time>
      </trkpt>
      <trkpt lat="43.20399" lon="5.49409">
        <ele>161.9</ele>
        <time>2025-10-19T09:58:54Z</time>
      </trkpt>
      <trkpt lat="43.20399" lon="5.4941">
        <ele>161.9</ele>
        <time>2025-10-19T09:58:55Z</time>
      </trkpt>
      <trkpt lat="43.20399" lon="5.4941">
        <ele>161.8</ele>
        <time>2025-10-19T09:58:56Z</time>
      </trkpt>
      <trkpt lat="43.20399" lon="5.4941">
        <ele>161.7</ele>
        <time>2025-10-19T09:58:57Z</time>
      </trkpt>
      <trkpt lat="43.20399" lon="5.4941">
        <ele>161.8</ele>
        <time>2025-10-19T09:58:58Z</time>
      </trkpt>
      <trkpt lat="43.20399" lon="5.49409">
        <ele>161.9</ele>
        <time>2025-10-19T09:58:59Z</time>
      </trkpt>
      <trkpt lat="43.20398" lon="5.49409">
        <ele>161.9</ele>
        <time>2025-10-19T09:59:00Z</time>
      </trkpt>
      <trkpt lat="43.20398" lon="5.49409">
        <ele>161.8</ele>
        <time>2025-10-19T09:59:01Z</time>
      </trkpt>
      <trkpt lat="43.20398" lon="5.49409">
        <ele>161.9</ele>
        <time>2025-10-19T09:59:02Z</time>
      </trkpt>
      <trkpt lat="43.20398" lon="5.49409">
        <ele>161.9</ele>
        <time>2025-10-19T09:59:03Z</time>
      </trkpt>
      <trkpt lat="43.20398" lon="5.49409">
        <ele>162</ele>
        <time>2025-10-19T09:59:04Z</time>
      </trkpt>
      <trkpt lat="43.20398" lon="5.49409">
        <ele>162</ele>
        <time>2025-10-19T09:59:05Z</time>
      </trkpt>
      <trkpt lat="43.20398" lon="5.49409">
        <ele>162</ele>
        <time>2025-10-19T09:59:06Z</time>
      </trkpt>
      <trkpt lat="43.20398" lon="5.49409">
        <ele>162</ele>
        <time>2025-10-19T09:59:07Z</time>
      </trkpt>
      <trkpt lat="43.20398" lon="5.49409">
        <ele>162</ele>
        <time>2025-10-19T09:59:08Z</time>
      </trkpt>
      <trkpt lat="43.20398" lon="5.49409">
        <ele>162.1</ele>
        <time>2025-10-19T09:59:09Z</time>
      </trkpt>
      <trkpt lat="43.20398" lon="5.49409">
        <ele>162</ele>
        <time>2025-10-19T09:59:10Z</time>
      </trkpt>
      <trkpt lat="43.20398" lon="5.49409">
        <ele>161.9</ele>
        <time>2025-10-19T09:59:11Z</time>
      </trkpt>
      <trkpt lat="43.20398" lon="5.49409">
        <ele>161.9</ele>
        <time>2025-10-19T09:59:12Z</time>
      </trkpt>
      <trkpt lat="43.20397" lon="5.49409">
        <ele>161.9</ele>
        <time>2025-10-19T09:59:13Z</time>
      </trkpt>
      <trkpt lat="43.20397" lon="5.49409">
        <ele>162</ele>
        <time>2025-10-19T09:59:14Z</time>
      </trkpt>
      <trkpt lat="43.20398" lon="5.49409">
        <ele>162</ele>
        <time>2025-10-19T09:59:15Z</time>
      </trkpt>
      <trkpt lat="43.20398" lon="5.49409">
        <ele>162</ele>
        <time>2025-10-19T09:59:16Z</time>
      </trkpt>
      <trkpt lat="43.20398" lon="5.49409">
        <ele>162.1</ele>
        <time>2025-10-19T09:59:17Z</time>
      </trkpt>
      <trkpt lat="43.20398" lon="5.49409">
        <ele>162.1</ele>
        <time>2025-10-19T09:59:18Z</time>
      </trkpt>
      <trkpt lat="43.20398" lon="5.49409">
        <ele>162.1</ele>
        <time>2025-10-19T09:59:19Z</time>
      </trkpt>
      <trkpt lat="43.20398" lon="5.49409">
        <ele>162.1</ele>
        <time>2025-10-19T09:59:20Z</time>
      </trkpt>
      <trkpt lat="43.20398" lon="5.49409">
        <ele>162.1</ele>
        <time>2025-10-19T09:59:21Z</time>
      </trkpt>
      <trkpt lat="43.20397" lon="5.49409">
        <ele>162</ele>
        <time>2025-10-19T09:59:22Z</time>
      </trkpt>
      <trkpt lat="43.20397" lon="5.49409">
        <ele>161.9</ele>
        <time>2025-10-19T09:59:23Z</time>
      </trkpt>
      <trkpt lat="43.20398" lon="5.49409">
        <ele>161.9</ele>
        <time>2025-10-19T09:59:24Z</time>
      </trkpt>
      <trkpt lat="43.20398" lon="5.49409">
        <ele>161.9</ele>
        <time>2025-10-19T09:59:25Z</time>
      </trkpt>
      <trkpt lat="43.20398" lon="5.49409">
        <ele>161.9</ele>
        <time>2025-10-19T09:59:26Z</time>
      </trkpt>
      <trkpt lat="43.20398" lon="5.49409">
        <ele>161.9</ele>
        <time>2025-10-19T09:59:27Z</time>
      </trkpt>
      <trkpt lat="43.20398" lon="5.49409">
        <ele>162</ele>
        <time>2025-10-19T09:59:28Z</time>
      </trkpt>
      <trkpt lat="43.20398" lon="5.49409">
        <ele>162.1</ele>
        <time>2025-10-19T09:59:29Z</time>
      </trkpt>
      <trkpt lat="43.20398" lon="5.49409">
        <ele>162.1</ele>
        <time>2025-10-19T09:59:30Z</time>
      </trkpt>
      <trkpt lat="43.20398" lon="5.49409">
        <ele>162.1</ele>
        <time>2025-10-19T09:59:31Z</time>
      </trkpt>
      <trkpt lat="43.20398" lon="5.49409">
        <ele>162.2</ele>
        <time>2025-10-19T09:59:32Z</time>
      </trkpt>
      <trkpt lat="43.20398" lon="5.49409">
        <ele>162.2</ele>
        <time>2025-10-19T09:59:33Z</time>
      </trkpt>
      <trkpt lat="43.20398" lon="5.49409">
        <ele>162.2</ele>
        <time>2025-10-19T09:59:34Z</time>
      </trkpt>
      <trkpt lat="43.20398" lon="5.49409">
        <ele>162.2</ele>
        <time>2025-10-19T09:59:35Z</time>
      </trkpt>
      <trkpt lat="43.20398" lon="5.49409">
        <ele>162.2</ele>
        <time>2025-10-19T09:59:36Z</time>
      </trkpt>
      <trkpt lat="43.20398" lon="5.49409">
        <ele>162.2</ele>
        <time>2025-10-19T09:59:37Z</time>
      </trkpt>
      <trkpt lat="43.20398" lon="5.49409">
        <ele>162.1</ele>
        <time>2025-10-19T09:59:38Z</time>
      </trkpt>
      <trkpt lat="43.20398" lon="5.49409">
        <ele>162.1</ele>
        <time>2025-10-19T09:59:39Z</time>
      </trkpt>
      <trkpt lat="43.20398" lon="5.49408">
        <ele>162.3</ele>
        <time>2025-10-19T09:59:40Z</time>
      </trkpt>
      <trkpt lat="43.20398" lon="5.49408">
        <ele>162.4</ele>
        <time>2025-10-19T09:59:41Z</time>
      </trkpt>
      <trkpt lat="43.20397" lon="5.49409">
        <ele>162.5</ele>
        <time>2025-10-19T09:59:42Z</time>
      </trkpt>
      <trkpt lat="43.20398" lon="5.49409">
        <ele>162.6</ele>
        <time>2025-10-19T09:59:43Z</time>
      </trkpt>
      <trkpt lat="43.20398" lon="5.49408">
        <ele>162.6</ele>
        <time>2025-10-19T09:59:44Z</time>
      </trkpt>
      <trkpt lat="43.20398" lon="5.49409">
        <ele>162.8</ele>
        <time>2025-10-19T09:59:45Z</time>
      </trkpt>
      <trkpt lat="43.20398" lon="5.49409">
        <ele>162.7</ele>
        <time>2025-10-19T09:59:46Z</time>
      </trkpt>
      <trkpt lat="43.20398" lon="5.49409">
        <ele>162.7</ele>
        <time>2025-10-19T09:59:47Z</time>
      </trkpt>
      <trkpt lat="43.20398" lon="5.49409">
        <ele>162.8</ele>
        <time>2025-10-19T09:59:48Z</time>
      </trkpt>
      <trkpt lat="43.20398" lon="5.49409">
        <ele>162.9</ele>
        <time>2025-10-19T09:59:49Z</time>
      </trkpt>
      <trkpt lat="43.20398" lon="5.49409">
        <ele>162.8</ele>
        <time>2025-10-19T09:59:50Z</time>
      </trkpt>
      <trkpt lat="43.20398" lon="5.49409">
        <ele>162.8</ele>
        <time>2025-10-19T09:59:51Z</time>
      </trkpt>
      <trkpt lat="43.20398" lon="5.49409">
        <ele>162.8</ele>
        <time>2025-10-19T09:59:52Z</time>
      </trkpt>
      <trkpt lat="43.20398" lon="5.49409">
        <ele>162.7</ele>
        <time>2025-10-19T09:59:53Z</time>
      </trkpt>
      <trkpt lat="43.20399" lon="5.4941">
        <ele>162.6</ele>
        <time>2025-10-19T09:59:54Z</time>
      </trkpt>
      <trkpt lat="43.20398" lon="5.4941">
        <ele>162.6</ele>
        <time>2025-10-19T09:59:55Z</time>
      </trkpt>
      <trkpt lat="43.20399" lon="5.4941">
        <ele>162.5</ele>
        <time>2025-10-19T09:59:56Z</time>
      </trkpt>
      <trkpt lat="43.20399" lon="5.4941">
        <ele>162.4</ele>
        <time>2025-10-19T09:59:57Z</time>
      </trkpt>
      <trkpt lat="43.20399" lon="5.4941">
        <ele>162.4</ele>
        <time>2025-10-19T09:59:58Z</time>
      </trkpt>
      <trkpt lat="43.20399" lon="5.4941">
        <ele>162.5</ele>
        <time>2025-10-19T09:59:59Z</time>
      </trkpt>
      <trkpt lat="43.20399" lon="5.4941">
        <ele>162.4</ele>
        <time>2025-10-19T10:00:00Z</time>
      </trkpt>
      <trkpt lat="43.20399" lon="5.4941">
        <ele>162.3</ele>
        <time>2025-10-19T10:00:01Z</time>
      </trkpt>
      <trkpt lat="43.204" lon="5.4941">
        <ele>162.2</ele>
        <time>2025-10-19T10:00:02Z</time>
      </trkpt>
      <trkpt lat="43.20401" lon="5.4941">
        <ele>162.1</ele>
        <time>2025-10-19T10:00:03Z</time>
      </trkpt>
      <trkpt lat="43.20402" lon="5.49409">
        <ele>162.1</ele>
        <time>2025-10-19T10:00:04Z</time>
      </trkpt>
      <trkpt lat="43.20403" lon="5.49409">
        <ele>162.2</ele>
        <time>2025-10-19T10:00:05Z</time>
      </trkpt>
      <trkpt lat="43.20403" lon="5.49409">
        <ele>162.2</ele>
        <time>2025-10-19T10:00:06Z</time>
      </trkpt>
      <trkpt lat="43.20404" lon="5.49408">
        <ele>162.2</ele>
        <time>2025-10-19T10:00:07Z</time>
      </trkpt>
      <trkpt lat="43.20404" lon="5.49408">
        <ele>162.2</ele>
        <time>2025-10-19T10:00:08Z</time>
      </trkpt>
      <trkpt lat="43.20404" lon="5.49408">
        <ele>162.2</ele>
        <time>2025-10-19T10:00:09Z</time>
      </trkpt>
      <trkpt lat="43.20404" lon="5.49408">
        <ele>162.3</ele>
        <time>2025-10-19T10:00:10Z</time>
      </trkpt>
      <trkpt lat="43.20405" lon="5.49408">
        <ele>162.3</ele>
        <time>2025-10-19T10:00:11Z</time>
      </trkpt>
      <trkpt lat="43.20406" lon="5.49407">
        <ele>162.4</ele>
        <time>2025-10-19T10:00:12Z</time>
      </trkpt>
      <trkpt lat="43.20407" lon="5.49406">
        <ele>162.4</ele>
        <time>2025-10-19T10:00:13Z</time>
      </trkpt>
      <trkpt lat="43.20407" lon="5.49406">
        <ele>162.4</ele>
        <time>2025-10-19T10:00:14Z</time>
      </trkpt>
      <trkpt lat="43.20407" lon="5.49405">
        <ele>162.5</ele>
        <time>2025-10-19T10:00:15Z</time>
      </trkpt>
      <trkpt lat="43.20408" lon="5.49405">
        <ele>162.5</ele>
        <time>2025-10-19T10:00:16Z</time>
      </trkpt>
      <trkpt lat="43.20408" lon="5.49404">
        <ele>162.5</ele>
        <time>2025-10-19T10:00:17Z</time>
      </trkpt>
      <trkpt lat="43.20408" lon="5.49403">
        <ele>162.5</ele>
        <time>2025-10-19T10:00:18Z</time>
      </trkpt>
      <trkpt lat="43.20408" lon="5.49403">
        <ele>162.5</ele>
        <time>2025-10-19T10:00:19Z</time>
      </trkpt>
      <trkpt lat="43.20409" lon="5.49402">
        <ele>162.5</ele>
        <time>2025-10-19T10:00:20Z</time>
      </trkpt>
      <trkpt lat="43.20409" lon="5.49402">
        <ele>162.5</ele>
        <time>2025-10-19T10:00:21Z</time>
      </trkpt>
      <trkpt lat="43.20409" lon="5.49402">
        <ele>162.5</ele>
        <time>2025-10-19T10:00:22Z</time>
      </trkpt>
      <trkpt lat="43.20409" lon="5.49401">
        <ele>162.4</ele>
        <time>2025-10-19T10:00:23Z</time>
      </trkpt>
      <trkpt lat="43.20409" lon="5.494">
        <ele>162.4</ele>
        <time>2025-10-19T10:00:24Z</time>
      </trkpt>
      <trkpt lat="43.20409" lon="5.49399">
        <ele>162.4</ele>
        <time>2025-10-19T10:00:25Z</time>
      </trkpt>
      <trkpt lat="43.20409" lon="5.49399">
        <ele>162.5</ele>
        <time>2025-10-19T10:00:26Z</time>
      </trkpt>
      <trkpt lat="43.20409" lon="5.49398">
        <ele>162.5</ele>
        <time>2025-10-19T10:00:27Z</time>
      </trkpt>
      <trkpt lat="43.2041" lon="5.49397">
        <ele>162.5</ele>
        <time>2025-10-19T10:00:28Z</time>
      </trkpt>
      <trkpt lat="43.2041" lon="5.49396">
        <ele>162.5</ele>
        <time>2025-10-19T10:00:29Z</time>
      </trkpt>
      <trkpt lat="43.2041" lon="5.49395">
        <ele>162.6</ele>
        <time>2025-10-19T10:00:30Z</time>
      </trkpt>
      <trkpt lat="43.2041" lon="5.49395">
        <ele>162.6</ele>
        <time>2025-10-19T10:00:31Z</time>
      </trkpt>
      <trkpt lat="43.20411" lon="5.49394">
        <ele>162.7</ele>
        <time>2025-10-19T10:00:32Z</time>
      </trkpt>
      <trkpt lat="43.20411" lon="5.49393">
        <ele>162.7</ele>
        <time>2025-10-19T10:00:33Z</time>
      </trkpt>
      <trkpt lat="43.20411" lon="5.49393">
        <ele>162.6</ele>
        <time>2025-10-19T10:00:34Z</time>
      </trkpt>
      <trkpt lat="43.20412" lon="5.49392">
        <ele>162.7</ele>
        <time>2025-10-19T10:00:35Z</time>
      </trkpt>
      <trkpt lat="43.20412" lon="5.49391">
        <ele>162.7</ele>
        <time>2025-10-19T10:00:36Z</time>
      </trkpt>
      <trkpt lat="43.20412" lon="5.4939">
        <ele>162.8</ele>
        <time>2025-10-19T10:00:37Z</time>
      </trkpt>
      <trkpt lat="43.20413" lon="5.4939">
        <ele>162.8</ele>
        <time>2025-10-19T10:00:38Z</time>
      </trkpt>
      <trkpt lat="43.20413" lon="5.49389">
        <ele>162.9</ele>
        <time>2025-10-19T10:00:39Z</time>
      </trkpt>
      <trkpt lat="43.20413" lon="5.49389">
        <ele>163</ele>
        <time>2025-10-19T10:00:40Z</time>
      </trkpt>
      <trkpt lat="43.20414" lon="5.49389">
        <ele>163.1</ele>
        <time>2025-10-19T10:00:41Z</time>
      </trkpt>
      <trkpt lat="43.20414" lon="5.49388">
        <ele>163.2</ele>
        <time>2025-10-19T10:00:42Z</time>
      </trkpt>
      <trkpt lat="43.20415" lon="5.49388">
        <ele>163.2</ele>
        <time>2025-10-19T10:00:43Z</time>
      </trkpt>
      <trkpt lat="43.20415" lon="5.49388">
        <ele>163.3</ele>
        <time>2025-10-19T10:00:44Z</time>
      </trkpt>
      <trkpt lat="43.20415" lon="5.49388">
        <ele>163.3</ele>
        <time>2025-10-19T10:00:45Z</time>
      </trkpt>
      <trkpt lat="43.20415" lon="5.49388">
        <ele>163.4</ele>
        <time>2025-10-19T10:00:46Z</time>
      </trkpt>
      <trkpt lat="43.20415" lon="5.49388">
        <ele>163.4</ele>
        <time>2025-10-19T10:00:47Z</time>
      </trkpt>
      <trkpt lat="43.20415" lon="5.49388">
        <ele>163.4</ele>
        <time>2025-10-19T10:00:48Z</time>
      </trkpt>
      <trkpt lat="43.20415" lon="5.49388">
        <ele>163.4</ele>
        <time>2025-10-19T10:00:49Z</time>
      </trkpt>
      <trkpt lat="43.20415" lon="5.49388">
        <ele>163.4</ele>
        <time>2025-10-19T10:00:50Z</time>
      </trkpt>
      <trkpt lat="43.20415" lon="5.49388">
        <ele>163.5</ele>
        <time>2025-10-19T10:00:51Z</time>
      </trkpt>
      <trkpt lat="43.20415" lon="5.49388">
        <ele>163.5</ele>
        <time>2025-10-19T10:00:52Z</time>
      </trkpt>
      <trkpt lat="43.20415" lon="5.49388">
        <ele>163.4</ele>
        <time>2025-10-19T10:00:53Z</time>
      </trkpt>
      <trkpt lat="43.20415" lon="5.49388">
        <ele>163.4</ele>
        <time>2025-10-19T10:00:54Z</time>
      </trkpt>
      <trkpt lat="43.20415" lon="5.49388">
        <ele>163.4</ele>
        <time>2025-10-19T10:00:55Z</time>
      </trkpt>
      <trkpt lat="43.20415" lon="5.49388">
        <ele>163.3</ele>
        <time>2025-10-19T10:00:56Z</time>
      </trkpt>
      <trkpt lat="43.20415" lon="5.49388">
        <ele>163.3</ele>
        <time>2025-10-19T10:00:57Z</time>
      </trkpt>
      <trkpt lat="43.20414" lon="5.49388">
        <ele>163.3</ele>
        <time>2025-10-19T10:00:58Z</time>
      </trkpt>
      <trkpt lat="43.20414" lon="5.49388">
        <ele>163.3</ele>
        <time>2025-10-19T10:00:59Z</time>
      </trkpt>
      <trkpt lat="43.20414" lon="5.49387">
        <ele>163.3</ele>
        <time>2025-10-19T10:01:00Z</time>
      </trkpt>
      <trkpt lat="43.20414" lon="5.49387">
        <ele>163.3</ele>
        <time>2025-10-19T10:01:01Z</time>
      </trkpt>
      <trkpt lat="43.20414" lon="5.49387">
        <ele>163.2</ele>
        <time>2025-10-19T10:01:02Z</time>
      </trkpt>
      <trkpt lat="43.20414" lon="5.49387">
        <ele>163.2</ele>
        <time>2025-10-19T10:01:03Z</time>
      </trkpt>
      <trkpt lat="43.20414" lon="5.49387">
        <ele>163.2</ele>
        <time>2025-10-19T10:01:04Z</time>
      </trkpt>
      <trkpt lat="43.20414" lon="5.49387">
        <ele>163.2</ele>
        <time>2025-10-19T10:01:05Z</time>
      </trkpt>
      <trkpt lat="43.20415" lon="5.49386">
        <ele>163.2</ele>
        <time>2025-10-19T10:01:06Z</time>
      </trkpt>
      <trkpt lat="43.20415" lon="5.49386">
        <ele>163.2</ele>
        <time>2025-10-19T10:01:07Z</time>
      </trkpt>
      <trkpt lat="43.20415" lon="5.49385">
        <ele>163.2</ele>
        <time>2025-10-19T10:01:08Z</time>
      </trkpt>
      <trkpt lat="43.20416" lon="5.49384">
        <ele>163.2</ele>
        <time>2025-10-19T10:01:09Z</time>
      </trkpt>
      <trkpt lat="43.20416" lon="5.49383">
        <ele>163.2</ele>
        <time>2025-10-19T10:01:10Z</time>
      </trkpt>
      <trkpt lat="43.20417" lon="5.49382">
        <ele>163.2</ele>
        <time>2025-10-19T10:01:11Z</time>
      </trkpt>
      <trkpt lat="43.20417" lon="5.49381">
        <ele>163.3</ele>
        <time>2025-10-19T10:01:12Z</time>
      </trkpt>
      <trkpt lat="43.20418" lon="5.4938">
        <ele>163.3</ele>
        <time>2025-10-19T10:01:13Z</time>
      </trkpt>
      <trkpt lat="43.20419" lon="5.49379">
        <ele>163.3</ele>
        <time>2025-10-19T10:01:14Z</time>
      </trkpt>
      <trkpt lat="43.20419" lon="5.49379">
        <ele>163.3</ele>
        <time>2025-10-19T10:01:15Z</time>
      </trkpt>
      <trkpt lat="43.2042" lon="5.49378">
        <ele>163.3</ele>
        <time>2025-10-19T10:01:16Z</time>
      </trkpt>
      <trkpt lat="43.2042" lon="5.49377">
        <ele>163.3</ele>
        <time>2025-10-19T10:01:17Z</time>
      </trkpt>
      <trkpt lat="43.20421" lon="5.49376">
        <ele>163.3</ele>
        <time>2025-10-19T10:01:18Z</time>
      </trkpt>
      <trkpt lat="43.20421" lon="5.49374">
        <ele>163.4</ele>
        <time>2025-10-19T10:01:19Z</time>
      </trkpt>
      <trkpt lat="43.20421" lon="5.49373">
        <ele>163.3</ele>
        <time>2025-10-19T10:01:20Z</time>
      </trkpt>
      <trkpt lat="43.20422" lon="5.49372">
        <ele>163.3</ele>
        <time>2025-10-19T10:01:21Z</time>
      </trkpt>
      <trkpt lat="43.20422" lon="5.49371">
        <ele>163.4</ele>
        <time>2025-10-19T10:01:22Z</time>
      </trkpt>
      <trkpt lat="43.20422" lon="5.4937">
        <ele>163.4</ele>
        <time>2025-10-19T10:01:23Z</time>
      </trkpt>
      <trkpt lat="43.20422" lon="5.49368">
        <ele>163.3</ele>
        <time>2025-10-19T10:01:24Z</time>
      </trkpt>
      <trkpt lat="43.20422" lon="5.49367">
        <ele>163.3</ele>
        <time>2025-10-19T10:01:25Z</time>
      </trkpt>
      <trkpt lat="43.20422" lon="5.49366">
        <ele>163.2</ele>
        <time>2025-10-19T10:01:26Z</time>
      </trkpt>
      <trkpt lat="43.20422" lon="5.49365">
        <ele>163.1</ele>
        <time>2025-10-19T10:01:27Z</time>
      </trkpt>
      <trkpt lat="43.20422" lon="5.49364">
        <ele>163</ele>
        <time>2025-10-19T10:01:28Z</time>
      </trkpt>
      <trkpt lat="43.20422" lon="5.49362">
        <ele>163</ele>
        <time>2025-10-19T10:01:29Z</time>
      </trkpt>
      <trkpt lat="43.20422" lon="5.49361">
        <ele>162.9</ele>
        <time>2025-10-19T10:01:30Z</time>
      </trkpt>
      <trkpt lat="43.20421" lon="5.49361">
        <ele>162.8</ele>
        <time>2025-10-19T10:01:31Z</time>
      </trkpt>
      <trkpt lat="43.20421" lon="5.4936">
        <ele>162.7</ele>
        <time>2025-10-19T10:01:32Z</time>
      </trkpt>
      <trkpt lat="43.20421" lon="5.49359">
        <ele>162.2</ele>
        <time>2025-10-19T10:01:33Z</time>
      </trkpt>
      <trkpt lat="43.20421" lon="5.49358">
        <ele>162.1</ele>
        <time>2025-10-19T10:01:34Z</time>
      </trkpt>
      <trkpt lat="43.20421" lon="5.49357">
        <ele>162.1</ele>
        <time>2025-10-19T10:01:35Z</time>
      </trkpt>
      <trkpt lat="43.20422" lon="5.49356">
        <ele>162</ele>
        <time>2025-10-19T10:01:36Z</time>
      </trkpt>
      <trkpt lat="43.20422" lon="5.49355">
        <ele>161.9</ele>
        <time>2025-10-19T10:01:37Z</time>
      </trkpt>
      <trkpt lat="43.20422" lon="5.49355">
        <ele>161.9</ele>
        <time>2025-10-19T10:01:38Z</time>
      </trkpt>
      <trkpt lat="43.20423" lon="5.49354">
        <ele>161.8</ele>
        <time>2025-10-19T10:01:39Z</time>
      </trkpt>
      <trkpt lat="43.20424" lon="5.49353">
        <ele>161.8</ele>
        <time>2025-10-19T10:01:40Z</time>
      </trkpt>
      <trkpt lat="43.20424" lon="5.49353">
        <ele>161.7</ele>
        <time>2025-10-19T10:01:41Z</time>
      </trkpt>
      <trkpt lat="43.20425" lon="5.49352">
        <ele>161.7</ele>
        <time>2025-10-19T10:01:42Z</time>
      </trkpt>
      <trkpt lat="43.20425" lon="5.49352">
        <ele>161.6</ele>
        <time>2025-10-19T10:01:43Z</time>
      </trkpt>
      <trkpt lat="43.20426" lon="5.49351">
        <ele>161.6</ele>
        <time>2025-10-19T10:01:44Z</time>
      </trkpt>
      <trkpt lat="43.20426" lon="5.4935">
        <ele>161.5</ele>
        <time>2025-10-19T10:01:45Z</time>
      </trkpt>
      <trkpt lat="43.20426" lon="5.49349">
        <ele>161.4</ele>
        <time>2025-10-19T10:01:46Z</time>
      </trkpt>
      <trkpt lat="43.20427" lon="5.49348">
        <ele>161.3</ele>
        <time>2025-10-19T10:01:47Z</time>
      </trkpt>
      <trkpt lat="43.20427" lon="5.49347">
        <ele>161.2</ele>
        <time>2025-10-19T10:01:48Z</time>
      </trkpt>
      <trkpt lat="43.20427" lon="5.49346">
        <ele>161.1</ele>
        <time>2025-10-19T10:01:49Z</time>
      </trkpt>
      <trkpt lat="43.20426" lon="5.49345">
        <ele>160.9</ele>
        <time>2025-10-19T10:01:50Z</time>
      </trkpt>
      <trkpt lat="43.20426" lon="5.49345">
        <ele>160.9</ele>
        <time>2025-10-19T10:01:51Z</time>
      </trkpt>
      <trkpt lat="43.20426" lon="5.49344">
        <ele>160.5</ele>
        <time>2025-10-19T10:01:52Z</time>
      </trkpt>
      <trkpt lat="43.20425" lon="5.49344">
        <ele>160.4</ele>
        <time>2025-10-19T10:01:53Z</time>
      </trkpt>
      <trkpt lat="43.20425" lon="5.49343">
        <ele>160.4</ele>
        <time>2025-10-19T10:01:54Z</time>
      </trkpt>
      <trkpt lat="43.20425" lon="5.49343">
        <ele>160.3</ele>
        <time>2025-10-19T10:01:55Z</time>
      </trkpt>
      <trkpt lat="43.20425" lon="5.49343">
        <ele>160.3</ele>
        <time>2025-10-19T10:01:56Z</time>
      </trkpt>
      <trkpt lat="43.20425" lon="5.49343">
        <ele>160.3</ele>
        <time>2025-10-19T10:01:57Z</time>
      </trkpt>
      <trkpt lat="43.20425" lon="5.49343">
        <ele>160.4</ele>
        <time>2025-10-19T10:01:58Z</time>
      </trkpt>
      <trkpt lat="43.20425" lon="5.49343">
        <ele>160.4</ele>
        <time>2025-10-19T10:01:59Z</time>
      </trkpt>
      <trkpt lat="43.20425" lon="5.49343">
        <ele>160.4</ele>
        <time>2025-10-19T10:02:00Z</time>
      </trkpt>
      <trkpt lat="43.20425" lon="5.49343">
        <ele>160.4</ele>
        <time>2025-10-19T10:02:01Z</time>
      </trkpt>
      <trkpt lat="43.20425" lon="5.49343">
        <ele>160.4</ele>
        <time>2025-10-19T10:02:02Z</time>
      </trkpt>
      <trkpt lat="43.20425" lon="5.49343">
        <ele>160.4</ele>
        <time>2025-10-19T10:02:03Z</time>
      </trkpt>
      <trkpt lat="43.20425" lon="5.49343">
        <ele>160.5</ele>
        <time>2025-10-19T10:02:04Z</time>
      </trkpt>
      <trkpt lat="43.20425" lon="5.49342">
        <ele>160.4</ele>
        <time>2025-10-19T10:02:05Z</time>
      </trkpt>
      <trkpt lat="43.20424" lon="5.49342">
        <ele>160.4</ele>
        <time>2025-10-19T10:02:06Z</time>
      </trkpt>
      <trkpt lat="43.20424" lon="5.49342">
        <ele>160.3</ele>
        <time>2025-10-19T10:02:07Z</time>
      </trkpt>
      <trkpt lat="43.20424" lon="5.49342">
        <ele>160.3</ele>
        <time>2025-10-19T10:02:08Z</time>
      </trkpt>
      <trkpt lat="43.20424" lon="5.49342">
        <ele>160.2</ele>
        <time>2025-10-19T10:02:09Z</time>
      </trkpt>
      <trkpt lat="43.20424" lon="5.49342">
        <ele>160.3</ele>
        <time>2025-10-19T10:02:10Z</time>
      </trkpt>
      <trkpt lat="43.20424" lon="5.49342">
        <ele>160.3</ele>
        <time>2025-10-19T10:02:11Z</time>
      </trkpt>
      <trkpt lat="43.20424" lon="5.49342">
        <ele>160.4</ele>
        <time>2025-10-19T10:02:12Z</time>
      </trkpt>
      <trkpt lat="43.20424" lon="5.49342">
        <ele>160.5</ele>
        <time>2025-10-19T10:02:13Z</time>
      </trkpt>
      <trkpt lat="43.20424" lon="5.49342">
        <ele>160.5</ele>
        <time>2025-10-19T10:02:14Z</time>
      </trkpt>
      <trkpt lat="43.20424" lon="5.49342">
        <ele>160.6</ele>
        <time>2025-10-19T10:02:15Z</time>
      </trkpt>
      <trkpt lat="43.20424" lon="5.49342">
        <ele>160.7</ele>
        <time>2025-10-19T10:02:16Z</time>
      </trkpt>
      <trkpt lat="43.20424" lon="5.49342">
        <ele>160.7</ele>
        <time>2025-10-19T10:02:17Z</time>
      </trkpt>
      <trkpt lat="43.20424" lon="5.49342">
        <ele>160.7</ele>
        <time>2025-10-19T10:02:18Z</time>
      </trkpt>
      <trkpt lat="43.20424" lon="5.49342">
        <ele>160.7</ele>
        <time>2025-10-19T10:02:19Z</time>
      </trkpt>
      <trkpt lat="43.20424" lon="5.49342">
        <ele>160.7</ele>
        <time>2025-10-19T10:02:20Z</time>
      </trkpt>
      <trkpt lat="43.20424" lon="5.49342">
        <ele>160.7</ele>
        <time>2025-10-19T10:02:21Z</time>
      </trkpt>
      <trkpt lat="43.20424" lon="5.49343">
        <ele>160.7</ele>
        <time>2025-10-19T10:02:22Z</time>
      </trkpt>
      <trkpt lat="43.20424" lon="5.49343">
        <ele>160.7</ele>
        <time>2025-10-19T10:02:23Z</time>
      </trkpt>
      <trkpt lat="43.20424" lon="5.49343">
        <ele>160.7</ele>
        <time>2025-10-19T10:02:24Z</time>
      </trkpt>
      <trkpt lat="43.20424" lon="5.49343">
        <ele>160.7</ele>
        <time>2025-10-19T10:02:25Z</time>
      </trkpt>
      <trkpt lat="43.20424" lon="5.49343">
        <ele>160.6</ele>
        <time>2025-10-19T10:02:26Z</time>
      </trkpt>
      <trkpt lat="43.20424" lon="5.49343">
        <ele>160.7</ele>
        <time>2025-10-19T10:02:27Z</time>
      </trkpt>
      <trkpt lat="43.20424" lon="5.49343">
        <ele>160.7</ele>
        <time>2025-10-19T10:02:28Z</time>
      </trkpt>
      <trkpt lat="43.20424" lon="5.49343">
        <ele>160.6</ele>
        <time>2025-10-19T10:02:29Z</time>
      </trkpt>
      <trkpt lat="43.20424" lon="5.49343">
        <ele>160.6</ele>
        <time>2025-10-19T10:02:30Z</time>
      </trkpt>
      <trkpt lat="43.20424" lon="5.49343">
        <ele>160.6</ele>
        <time>2025-10-19T10:02:31Z</time>
      </trkpt>
      <trkpt lat="43.20424" lon="5.49343">
        <ele>160.6</ele>
        <time>2025-10-19T10:02:32Z</time>
      </trkpt>
      <trkpt lat="43.20424" lon="5.49343">
        <ele>160.6</ele>
        <time>2025-10-19T10:02:33Z</time>
      </trkpt>
      <trkpt lat="43.20424" lon="5.49343">
        <ele>160.6</ele>
        <time>2025-10-19T10:02:34Z</time>
      </trkpt>
      <trkpt lat="43.20424" lon="5.49343">
        <ele>160.6</ele>
        <time>2025-10-19T10:02:35Z</time>
      </trkpt>
      <trkpt lat="43.20424" lon="5.49343">
        <ele>160.6</ele>
        <time>2025-10-19T10:02:36Z</time>
      </trkpt>
      <trkpt lat="43.20424" lon="5.49343">
        <ele>160.6</ele>
        <time>2025-10-19T10:02:37Z</time>
      </trkpt>
      <trkpt lat="43.20424" lon="5.49343">
        <ele>160.6</ele>
        <time>2025-10-19T10:02:38Z</time>
      </trkpt>
      <trkpt lat="43.20424" lon="5.49343">
        <ele>160.7</ele>
        <time>2025-10-19T10:02:39Z</time>
      </trkpt>
      <trkpt lat="43.20424" lon="5.49343">
        <ele>160.6</ele>
        <time>2025-10-19T10:02:40Z</time>
      </trkpt>
      <trkpt lat="43.20424" lon="5.49344">
        <ele>160.7</ele>
        <time>2025-10-19T10:02:41Z</time>
      </trkpt>
      <trkpt lat="43.20424" lon="5.49344">
        <ele>160.7</ele>
        <time>2025-10-19T10:02:42Z</time>
      </trkpt>
      <trkpt lat="43.20424" lon="5.49344">
        <ele>160.6</ele>
        <time>2025-10-19T10:02:43Z</time>
      </trkpt>
      <trkpt lat="43.20424" lon="5.49343">
        <ele>160.6</ele>
        <time>2025-10-19T10:02:44Z</time>
      </trkpt>
      <trkpt lat="43.20424" lon="5.49343">
        <ele>160.7</ele>
        <time>2025-10-19T10:02:45Z</time>
      </trkpt>
      <trkpt lat="43.20424" lon="5.49343">
        <ele>160.8</ele>
        <time>2025-10-19T10:02:46Z</time>
      </trkpt>
      <trkpt lat="43.20424" lon="5.49343">
        <ele>160.8</ele>
        <time>2025-10-19T10:02:47Z</time>
      </trkpt>
      <trkpt lat="43.20424" lon="5.49342">
        <ele>160.8</ele>
        <time>2025-10-19T10:02:48Z</time>
      </trkpt>
      <trkpt lat="43.20424" lon="5.49343">
        <ele>160.8</ele>
        <time>2025-10-19T10:02:49Z</time>
      </trkpt>
      <trkpt lat="43.20424" lon="5.49343">
        <ele>160.8</ele>
        <time>2025-10-19T10:02:50Z</time>
      </trkpt>
      <trkpt lat="43.20425" lon="5.49343">
        <ele>160.8</ele>
        <time>2025-10-19T10:02:51Z</time>
      </trkpt>
      <trkpt lat="43.20425" lon="5.49342">
        <ele>160.8</ele>
        <time>2025-10-19T10:02:52Z</time>
      </trkpt>
      <trkpt lat="43.20424" lon="5.49343">
        <ele>160.7</ele>
        <time>2025-10-19T10:02:53Z</time>
      </trkpt>
      <trkpt lat="43.20424" lon="5.49343">
        <ele>160.7</ele>
        <time>2025-10-19T10:02:54Z</time>
      </trkpt>
      <trkpt lat="43.20424" lon="5.49343">
        <ele>160.7</ele>
        <time>2025-10-19T10:02:55Z</time>
      </trkpt>
      <trkpt lat="43.20424" lon="5.49343">
        <ele>160.7</ele>
        <time>2025-10-19T10:02:56Z</time>
      </trkpt>
      <trkpt lat="43.20424" lon="5.49343">
        <ele>160.8</ele>
        <time>2025-10-19T10:02:57Z</time>
      </trkpt>
      <trkpt lat="43.20424" lon="5.49343">
        <ele>160.8</ele>
        <time>2025-10-19T10:02:58Z</time>
      </trkpt>
      <trkpt lat="43.20424" lon="5.49343">
        <ele>160.8</ele>
        <time>2025-10-19T10:02:59Z</time>
      </trkpt>
      <trkpt lat="43.20424" lon="5.49344">
        <ele>160.8</ele>
        <time>2025-10-19T10:03:00Z</time>
      </trkpt>
      <trkpt lat="43.20424" lon="5.49343">
        <ele>160.7</ele>
        <time>2025-10-19T10:03:01Z</time>
      </trkpt>
      <trkpt lat="43.20424" lon="5.49343">
        <ele>160.6</ele>
        <time>2025-10-19T10:03:02Z</time>
      </trkpt>
      <trkpt lat="43.20424" lon="5.49343">
        <ele>160.6</ele>
        <time>2025-10-19T10:03:03Z</time>
      </trkpt>
      <trkpt lat="43.20424" lon="5.49343">
        <ele>160.6</ele>
        <time>2025-10-19T10:03:04Z</time>
      </trkpt>
      <trkpt lat="43.20424" lon="5.49343">
        <ele>160.6</ele>
        <time>2025-10-19T10:03:05Z</time>
      </trkpt>
      <trkpt lat="43.20424" lon="5.49343">
        <ele>160.6</ele>
        <time>2025-10-19T10:03:06Z</time>
      </trkpt>
      <trkpt lat="43.20424" lon="5.49343">
        <ele>160.7</ele>
        <time>2025-10-19T10:03:07Z</time>
      </trkpt>
      <trkpt lat="43.20425" lon="5.49343">
        <ele>160.7</ele>
        <time>2025-10-19T10:03:08Z</time>
      </trkpt>
      <trkpt lat="43.20425" lon="5.49342">
        <ele>160.6</ele>
        <time>2025-10-19T10:03:09Z</time>
      </trkpt>
      <trkpt lat="43.20424" lon="5.49342">
        <ele>160.6</ele>
        <time>2025-10-19T10:03:10Z</time>
      </trkpt>
      <trkpt lat="43.20424" lon="5.49342">
        <ele>160.6</ele>
        <time>2025-10-19T10:03:11Z</time>
      </trkpt>
      <trkpt lat="43.20425" lon="5.49342">
        <ele>160.5</ele>
        <time>2025-10-19T10:03:12Z</time>
      </trkpt>
      <trkpt lat="43.20425" lon="5.49342">
        <ele>160.5</ele>
        <time>2025-10-19T10:03:13Z</time>
      </trkpt>
      <trkpt lat="43.20425" lon="5.49342">
        <ele>160.6</ele>
        <time>2025-10-19T10:03:14Z</time>
      </trkpt>
      <trkpt lat="43.20425" lon="5.49341">
        <ele>160.6</ele>
        <time>2025-10-19T10:03:15Z</time>
      </trkpt>
      <trkpt lat="43.20426" lon="5.49342">
        <ele>160.6</ele>
        <time>2025-10-19T10:03:16Z</time>
      </trkpt>
      <trkpt lat="43.20426" lon="5.49342">
        <ele>160.6</ele>
        <time>2025-10-19T10:03:17Z</time>
      </trkpt>
      <trkpt lat="43.20426" lon="5.49342">
        <ele>160.7</ele>
        <time>2025-10-19T10:03:18Z</time>
      </trkpt>
      <trkpt lat="43.20426" lon="5.49342">
        <ele>160.7</ele>
        <time>2025-10-19T10:03:19Z</time>
      </trkpt>
      <trkpt lat="43.20427" lon="5.49343">
        <ele>160.7</ele>
        <time>2025-10-19T10:03:20Z</time>
      </trkpt>
      <trkpt lat="43.20428" lon="5.49343">
        <ele>160.6</ele>
        <time>2025-10-19T10:03:21Z</time>
      </trkpt>
      <trkpt lat="43.20428" lon="5.49343">
        <ele>160.6</ele>
        <time>2025-10-19T10:03:22Z</time>
      </trkpt>
      <trkpt lat="43.20429" lon="5.49343">
        <ele>160.7</ele>
        <time>2025-10-19T10:03:23Z</time>
      </trkpt>
      <trkpt lat="43.20429" lon="5.49342">
        <ele>160.8</ele>
        <time>2025-10-19T10:03:24Z</time>
      </trkpt>
      <trkpt lat="43.20429" lon="5.49341">
        <ele>160.8</ele>
        <time>2025-10-19T10:03:25Z</time>
      </trkpt>
      <trkpt lat="43.20429" lon="5.4934">
        <ele>160.9</ele>
        <time>2025-10-19T10:03:26Z</time>
      </trkpt>
      <trkpt lat="43.20429" lon="5.4934">
        <ele>160.8</ele>
        <time>2025-10-19T10:03:27Z</time>
      </trkpt>
      <trkpt lat="43.20429" lon="5.4934">
        <ele>160.6</ele>
        <time>2025-10-19T10:03:28Z</time>
      </trkpt>
      <trkpt lat="43.20429" lon="5.4934">
        <ele>160.7</ele>
        <time>2025-10-19T10:03:29Z</time>
      </trkpt>
      <trkpt lat="43.20429" lon="5.4934">
        <ele>160.7</ele>
        <time>2025-10-19T10:03:30Z</time>
      </trkpt>
      <trkpt lat="43.20429" lon="5.4934">
        <ele>160.6</ele>
        <time>2025-10-19T10:03:31Z</time>
      </trkpt>
      <trkpt lat="43.20429" lon="5.4934">
        <ele>160.6</ele>
        <time>2025-10-19T10:03:32Z</time>
      </trkpt>
      <trkpt lat="43.20429" lon="5.4934">
        <ele>160.7</ele>
        <time>2025-10-19T10:03:33Z</time>
      </trkpt>
      <trkpt lat="43.20429" lon="5.49341">
        <ele>160.7</ele>
        <time>2025-10-19T10:03:34Z</time>
      </trkpt>
      <trkpt lat="43.20429" lon="5.49342">
        <ele>160.8</ele>
        <time>2025-10-19T10:03:35Z</time>
      </trkpt>
      <trkpt lat="43.20428" lon="5.49342">
        <ele>160.9</ele>
        <time>2025-10-19T10:03:36Z</time>
      </trkpt>
      <trkpt lat="43.20428" lon="5.49343">
        <ele>160.8</ele>
        <time>2025-10-19T10:03:37Z</time>
      </trkpt>
      <trkpt lat="43.20427" lon="5.49343">
        <ele>160.8</ele>
        <time>2025-10-19T10:03:38Z</time>
      </trkpt>
      <trkpt lat="43.20427" lon="5.49342">
        <ele>160.7</ele>
        <time>2025-10-19T10:03:39Z</time>
      </trkpt>
      <trkpt lat="43.20426" lon="5.49342">
        <ele>160.7</ele>
        <time>2025-10-19T10:03:40Z</time>
      </trkpt>
      <trkpt lat="43.20426" lon="5.49341">
        <ele>160.7</ele>
        <time>2025-10-19T10:03:41Z</time>
      </trkpt>
      <trkpt lat="43.20426" lon="5.49341">
        <ele>160.6</ele>
        <time>2025-10-19T10:03:42Z</time>
      </trkpt>
      <trkpt lat="43.20426" lon="5.4934">
        <ele>160.6</ele>
        <time>2025-10-19T10:03:43Z</time>
      </trkpt>
      <trkpt lat="43.20426" lon="5.4934">
        <ele>160.5</ele>
        <time>2025-10-19T10:03:44Z</time>
      </trkpt>
      <trkpt lat="43.20426" lon="5.4934">
        <ele>160.5</ele>
        <time>2025-10-19T10:03:45Z</time>
      </trkpt>
      <trkpt lat="43.20426" lon="5.4934">
        <ele>160.4</ele>
        <time>2025-10-19T10:03:46Z</time>
      </trkpt>
      <trkpt lat="43.20426" lon="5.4934">
        <ele>160.4</ele>
        <time>2025-10-19T10:03:47Z</time>
      </trkpt>
      <trkpt lat="43.20426" lon="5.4934">
        <ele>160.5</ele>
        <time>2025-10-19T10:03:48Z</time>
      </trkpt>
      <trkpt lat="43.20426" lon="5.4934">
        <ele>160.5</ele>
        <time>2025-10-19T10:03:49Z</time>
      </trkpt>
      <trkpt lat="43.20426" lon="5.4934">
        <ele>160.5</ele>
        <time>2025-10-19T10:03:50Z</time>
      </trkpt>
      <trkpt lat="43.20427" lon="5.4934">
        <ele>160.5</ele>
        <time>2025-10-19T10:03:51Z</time>
      </trkpt>
      <trkpt lat="43.20427" lon="5.4934">
        <ele>160.5</ele>
        <time>2025-10-19T10:03:52Z</time>
      </trkpt>
      <trkpt lat="43.20427" lon="5.4934">
        <ele>160.5</ele>
        <time>2025-10-19T10:03:53Z</time>
      </trkpt>
      <trkpt lat="43.20426" lon="5.4934">
        <ele>160.5</ele>
        <time>2025-10-19T10:03:54Z</time>
      </trkpt>
      <trkpt lat="43.20426" lon="5.49341">
        <ele>160.5</ele>
        <time>2025-10-19T10:03:55Z</time>
      </trkpt>
      <trkpt lat="43.20426" lon="5.49341">
        <ele>160.3</ele>
        <time>2025-10-19T10:03:56Z</time>
      </trkpt>
      <trkpt lat="43.20426" lon="5.49341">
        <ele>160.3</ele>
        <time>2025-10-19T10:03:57Z</time>
      </trkpt>
      <trkpt lat="43.20425" lon="5.49341">
        <ele>160.3</ele>
        <time>2025-10-19T10:03:58Z</time>
      </trkpt>
      <trkpt lat="43.20425" lon="5.49341">
        <ele>160.3</ele>
        <time>2025-10-19T10:03:59Z</time>
      </trkpt>
      <trkpt lat="43.20425" lon="5.49342">
        <ele>160.4</ele>
        <time>2025-10-19T10:04:00Z</time>
      </trkpt>
      <trkpt lat="43.20425" lon="5.49342">
        <ele>160.4</ele>
        <time>2025-10-19T10:04:01Z</time>
      </trkpt>
      <trkpt lat="43.20425" lon="5.49342">
        <ele>160.4</ele>
        <time>2025-10-19T10:04:02Z</time>
      </trkpt>
      <trkpt lat="43.20425" lon="5.49342">
        <ele>160.4</ele>
        <time>2025-10-19T10:04:03Z</time>
      </trkpt>
      <trkpt lat="43.20425" lon="5.49342">
        <ele>160.3</ele>
        <time>2025-10-19T10:04:04Z</time>
      </trkpt>
      <trkpt lat="43.20425" lon="5.49342">
        <ele>160.2</ele>
        <time>2025-10-19T10:04:05Z</time>
      </trkpt>
      <trkpt lat="43.20425" lon="5.49342">
        <ele>160.3</ele>
        <time>2025-10-19T10:04:06Z</time>
      </trkpt>
      <trkpt lat="43.20425" lon="5.49342">
        <ele>160.4</ele>
        <time>2025-10-19T10:04:07Z</time>
      </trkpt>
      <trkpt lat="43.20425" lon="5.49342">
        <ele>160.5</ele>
        <time>2025-10-19T10:04:08Z</time>
      </trkpt>
      <trkpt lat="43.20425" lon="5.49341">
        <ele>160.4</ele>
        <time>2025-10-19T10:04:09Z</time>
      </trkpt>
      <trkpt lat="43.20425" lon="5.49341">
        <ele>160.3</ele>
        <time>2025-10-19T10:04:10Z</time>
      </trkpt>
      <trkpt lat="43.20424" lon="5.4934">
        <ele>160.1</ele>
        <time>2025-10-19T10:04:11Z</time>
      </trkpt>
      <trkpt lat="43.20424" lon="5.4934">
        <ele>160</ele>
        <time>2025-10-19T10:04:12Z</time>
      </trkpt>
      <trkpt lat="43.20424" lon="5.4934">
        <ele>159.7</ele>
        <time>2025-10-19T10:04:13Z</time>
      </trkpt>
      <trkpt lat="43.20424" lon="5.49339">
        <ele>159.5</ele>
        <time>2025-10-19T10:04:14Z</time>
      </trkpt>
      <trkpt lat="43.20423" lon="5.49339">
        <ele>159.2</ele>
        <time>2025-10-19T10:04:15Z</time>
      </trkpt>
      <trkpt lat="43.20423" lon="5.49338">
        <ele>158.9</ele>
        <time>2025-10-19T10:04:16Z</time>
      </trkpt>
      <trkpt lat="43.20423" lon="5.49338">
        <ele>158.7</ele>
        <time>2025-10-19T10:04:17Z</time>
      </trkpt>
      <trkpt lat="43.20423" lon="5.49338">
        <ele>158.4</ele>
        <time>2025-10-19T10:04:18Z</time>
      </trkpt>
      <trkpt lat="43.20422" lon="5.49338">
        <ele>158.1</ele>
        <time>2025-10-19T10:04:19Z</time>
      </trkpt>
      <trkpt lat="43.20422" lon="5.49338">
        <ele>157.9</ele>
        <time>2025-10-19T10:04:20Z</time>
      </trkpt>
      <trkpt lat="43.20422" lon="5.49338">
        <ele>157.6</ele>
        <time>2025-10-19T10:04:21Z</time>
      </trkpt>
      <trkpt lat="43.20422" lon="5.49337">
        <ele>157.4</ele>
        <time>2025-10-19T10:04:22Z</time>
      </trkpt>
      <trkpt lat="43.20422" lon="5.49337">
        <ele>157.2</ele>
        <time>2025-10-19T10:04:23Z</time>
      </trkpt>
      <trkpt lat="43.20422" lon="5.49337">
        <ele>157</ele>
        <time>2025-10-19T10:04:24Z</time>
      </trkpt>
      <trkpt lat="43.20421" lon="5.49337">
        <ele>156.8</ele>
        <time>2025-10-19T10:04:25Z</time>
      </trkpt>
      <trkpt lat="43.20421" lon="5.49338">
        <ele>156.6</ele>
        <time>2025-10-19T10:04:26Z</time>
      </trkpt>
      <trkpt lat="43.20421" lon="5.49338">
        <ele>156.5</ele>
        <time>2025-10-19T10:04:27Z</time>
      </trkpt>
      <trkpt lat="43.2042" lon="5.49338">
        <ele>156.4</ele>
        <time>2025-10-19T10:04:28Z</time>
      </trkpt>
      <trkpt lat="43.20419" lon="5.49338">
        <ele>156.4</ele>
        <time>2025-10-19T10:04:29Z</time>
      </trkpt>
      <trkpt lat="43.20419" lon="5.49338">
        <ele>156.3</ele>
        <time>2025-10-19T10:04:30Z</time>
      </trkpt>
      <trkpt lat="43.20418" lon="5.49338">
        <ele>156.2</ele>
        <time>2025-10-19T10:04:31Z</time>
      </trkpt>
      <trkpt lat="43.20417" lon="5.49337">
        <ele>156.1</ele>
        <time>2025-10-19T10:04:32Z</time>
      </trkpt>
      <trkpt lat="43.20416" lon="5.49338">
        <ele>155.9</ele>
        <time>2025-10-19T10:04:33Z</time>
      </trkpt>
      <trkpt lat="43.20416" lon="5.49338">
        <ele>155.7</ele>
        <time>2025-10-19T10:04:34Z</time>
      </trkpt>
      <trkpt lat="43.20415" lon="5.49337">
        <ele>155.7</ele>
        <time>2025-10-19T10:04:35Z</time>
      </trkpt>
      <trkpt lat="43.20415" lon="5.49337">
        <ele>155.6</ele>
        <time>2025-10-19T10:04:36Z</time>
      </trkpt>
      <trkpt lat="43.20415" lon="5.49337">
        <ele>155.7</ele>
        <time>2025-10-19T10:04:37Z</time>
      </trkpt>
      <trkpt lat="43.20416" lon="5.49337">
        <ele>155.7</ele>
        <time>2025-10-19T10:04:38Z</time>
      </trkpt>
      <trkpt lat="43.20416" lon="5.49337">
        <ele>155.7</ele>
        <time>2025-10-19T10:04:39Z</time>
      </trkpt>
      <trkpt lat="43.20416" lon="5.49337">
        <ele>155.6</ele>
        <time>2025-10-19T10:04:40Z</time>
      </trkpt>
      <trkpt lat="43.20415" lon="5.49337">
        <ele>155.5</ele>
        <time>2025-10-19T10:04:41Z</time>
      </trkpt>
      <trkpt lat="43.20415" lon="5.49337">
        <ele>155.4</ele>
        <time>2025-10-19T10:04:42Z</time>
      </trkpt>
      <trkpt lat="43.20415" lon="5.49337">
        <ele>155.4</ele>
        <time>2025-10-19T10:04:43Z</time>
      </trkpt>
      <trkpt lat="43.20415" lon="5.49337">
        <ele>155.4</ele>
        <time>2025-10-19T10:04:44Z</time>
      </trkpt>
      <trkpt lat="43.20415" lon="5.49336">
        <ele>155.4</ele>
        <time>2025-10-19T10:04:45Z</time>
      </trkpt>
      <trkpt lat="43.20415" lon="5.49336">
        <ele>155.4</ele>
        <time>2025-10-19T10:04:46Z</time>
      </trkpt>
      <trkpt lat="43.20415" lon="5.49336">
        <ele>155.3</ele>
        <time>2025-10-19T10:04:47Z</time>
      </trkpt>
      <trkpt lat="43.20415" lon="5.49336">
        <ele>155.3</ele>
        <time>2025-10-19T10:04:48Z</time>
      </trkpt>
      <trkpt lat="43.20415" lon="5.49336">
        <ele>155.2</ele>
        <time>2025-10-19T10:04:49Z</time>
      </trkpt>
      <trkpt lat="43.20415" lon="5.49336">
        <ele>155.2</ele>
        <time>2025-10-19T10:04:50Z</time>
      </trkpt>
      <trkpt lat="43.20415" lon="5.49336">
        <ele>155.1</ele>
        <time>2025-10-19T10:04:51Z</time>
      </trkpt>
      <trkpt lat="43.20415" lon="5.49336">
        <ele>155.1</ele>
        <time>2025-10-19T10:04:52Z</time>
      </trkpt>
      <trkpt lat="43.20415" lon="5.49336">
        <ele>155</ele>
        <time>2025-10-19T10:04:53Z</time>
      </trkpt>
      <trkpt lat="43.20414" lon="5.49336">
        <ele>155</ele>
        <time>2025-10-19T10:04:54Z</time>
      </trkpt>
      <trkpt lat="43.20414" lon="5.49336">
        <ele>155.1</ele>
        <time>2025-10-19T10:04:55Z</time>
      </trkpt>
      <trkpt lat="43.20414" lon="5.49335">
        <ele>154.9</ele>
        <time>2025-10-19T10:04:56Z</time>
      </trkpt>
      <trkpt lat="43.20414" lon="5.49335">
        <ele>154.9</ele>
        <time>2025-10-19T10:04:57Z</time>
      </trkpt>
      <trkpt lat="43.20414" lon="5.49335">
        <ele>154.9</ele>
        <time>2025-10-19T10:04:58Z</time>
      </trkpt>
      <trkpt lat="43.20414" lon="5.49336">
        <ele>154.9</ele>
        <time>2025-10-19T10:04:59Z</time>
      </trkpt>
      <trkpt lat="43.20414" lon="5.49335">
        <ele>155</ele>
        <time>2025-10-19T10:05:00Z</time>
      </trkpt>
      <trkpt lat="43.20414" lon="5.49336">
        <ele>155</ele>
        <time>2025-10-19T10:05:01Z</time>
      </trkpt>
      <trkpt lat="43.20414" lon="5.49336">
        <ele>154.9</ele>
        <time>2025-10-19T10:05:02Z</time>
      </trkpt>
      <trkpt lat="43.20414" lon="5.49336">
        <ele>154.9</ele>
        <time>2025-10-19T10:05:03Z</time>
      </trkpt>
      <trkpt lat="43.20414" lon="5.49336">
        <ele>155</ele>
        <time>2025-10-19T10:05:04Z</time>
      </trkpt>
      <trkpt lat="43.20413" lon="5.49337">
        <ele>155.1</ele>
        <time>2025-10-19T10:05:05Z</time>
      </trkpt>
      <trkpt lat="43.20413" lon="5.49337">
        <ele>155.1</ele>
        <time>2025-10-19T10:05:06Z</time>
      </trkpt>
      <trkpt lat="43.20413" lon="5.49337">
        <ele>155.1</ele>
        <time>2025-10-19T10:05:07Z</time>
      </trkpt>
      <trkpt lat="43.20413" lon="5.49337">
        <ele>155.1</ele>
        <time>2025-10-19T10:05:08Z</time>
      </trkpt>
      <trkpt lat="43.20414" lon="5.49337">
        <ele>155.1</ele>
        <time>2025-10-19T10:05:09Z</time>
      </trkpt>
      <trkpt lat="43.20414" lon="5.49337">
        <ele>155.1</ele>
        <time>2025-10-19T10:05:10Z</time>
      </trkpt>
      <trkpt lat="43.20414" lon="5.49336">
        <ele>155.1</ele>
        <time>2025-10-19T10:05:11Z</time>
      </trkpt>
      <trkpt lat="43.20414" lon="5.49336">
        <ele>155.1</ele>
        <time>2025-10-19T10:05:12Z</time>
      </trkpt>
      <trkpt lat="43.20414" lon="5.49336">
        <ele>155</ele>
        <time>2025-10-19T10:05:13Z</time>
      </trkpt>
      <trkpt lat="43.20414" lon="5.49335">
        <ele>155.1</ele>
        <time>2025-10-19T10:05:14Z</time>
      </trkpt>
      <trkpt lat="43.20414" lon="5.49335">
        <ele>155.1</ele>
        <time>2025-10-19T10:05:15Z</time>
      </trkpt>
      <trkpt lat="43.20414" lon="5.49335">
        <ele>155</ele>
        <time>2025-10-19T10:05:16Z</time>
      </trkpt>
      <trkpt lat="43.20414" lon="5.49335">
        <ele>154.9</ele>
        <time>2025-10-19T10:05:17Z</time>
      </trkpt>
      <trkpt lat="43.20414" lon="5.49336">
        <ele>154.9</ele>
        <time>2025-10-19T10:05:18Z</time>
      </trkpt>
      <trkpt lat="43.20414" lon="5.49336">
        <ele>154.9</ele>
        <time>2025-10-19T10:05:19Z</time>
      </trkpt>
      <trkpt lat="43.20413" lon="5.49337">
        <ele>154.9</ele>
        <time>2025-10-19T10:05:20Z</time>
      </trkpt>
      <trkpt lat="43.20413" lon="5.49338">
        <ele>155.1</ele>
        <time>2025-10-19T10:05:21Z</time>
      </trkpt>
      <trkpt lat="43.20414" lon="5.49338">
        <ele>155.1</ele>
        <time>2025-10-19T10:05:22Z</time>
      </trkpt>
      <trkpt lat="43.20414" lon="5.49339">
        <ele>155.2</ele>
        <time>2025-10-19T10:05:23Z</time>
      </trkpt>
      <trkpt lat="43.20414" lon="5.49338">
        <ele>155.2</ele>
        <time>2025-10-19T10:05:24Z</time>
      </trkpt>
      <trkpt lat="43.20413" lon="5.49338">
        <ele>155.1</ele>
        <time>2025-10-19T10:05:25Z</time>
      </trkpt>
      <trkpt lat="43.20413" lon="5.49338">
        <ele>155.1</ele>
        <time>2025-10-19T10:05:26Z</time>
      </trkpt>
      <trkpt lat="43.20413" lon="5.49338">
        <ele>155</ele>
        <time>2025-10-19T10:05:27Z</time>
      </trkpt>
      <trkpt lat="43.20413" lon="5.49338">
        <ele>154.9</ele>
        <time>2025-10-19T10:05:28Z</time>
      </trkpt>
      <trkpt lat="43.20413" lon="5.49338">
        <ele>155</ele>
        <time>2025-10-19T10:05:29Z</time>
      </trkpt>
      <trkpt lat="43.20413" lon="5.49338">
        <ele>155</ele>
        <time>2025-10-19T10:05:30Z</time>
      </trkpt>
      <trkpt lat="43.20412" lon="5.49338">
        <ele>155</ele>
        <time>2025-10-19T10:05:31Z</time>
      </trkpt>
      <trkpt lat="43.20412" lon="5.49338">
        <ele>154.9</ele>
        <time>2025-10-19T10:05:32Z</time>
      </trkpt>
      <trkpt lat="43.20412" lon="5.49338">
        <ele>154.8</ele>
        <time>2025-10-19T10:05:33Z</time>
      </trkpt>
      <trkpt lat="43.20412" lon="5.49338">
        <ele>154.8</ele>
        <time>2025-10-19T10:05:34Z</time>
      </trkpt>
      <trkpt lat="43.20411" lon="5.49337">
        <ele>154.8</ele>
        <time>2025-10-19T10:05:35Z</time>
      </trkpt>
      <trkpt lat="43.20411" lon="5.49337">
        <ele>154.8</ele>
        <time>2025-10-19T10:05:36Z</time>
      </trkpt>
      <trkpt lat="43.20412" lon="5.49338">
        <ele>154.8</ele>
        <time>2025-10-19T10:05:37Z</time>
      </trkpt>
      <trkpt lat="43.20412" lon="5.49337">
        <ele>154.8</ele>
        <time>2025-10-19T10:05:38Z</time>
      </trkpt>
      <trkpt lat="43.20412" lon="5.49336">
        <ele>154.8</ele>
        <time>2025-10-19T10:05:39Z</time>
      </trkpt>
      <trkpt lat="43.20412" lon="5.49337">
        <ele>154.8</ele>
        <time>2025-10-19T10:05:40Z</time>
      </trkpt>
      <trkpt lat="43.20413" lon="5.49337">
        <ele>154.9</ele>
        <time>2025-10-19T10:05:41Z</time>
      </trkpt>
      <trkpt lat="43.20414" lon="5.49337">
        <ele>154.9</ele>
        <time>2025-10-19T10:05:42Z</time>
      </trkpt>
      <trkpt lat="43.20415" lon="5.49336">
        <ele>154.9</ele>
        <time>2025-10-19T10:05:43Z</time>
      </trkpt>
      <trkpt lat="43.20416" lon="5.49337">
        <ele>154.9</ele>
        <time>2025-10-19T10:05:44Z</time>
      </trkpt>
      <trkpt lat="43.20416" lon="5.49336">
        <ele>155</ele>
        <time>2025-10-19T10:05:45Z</time>
      </trkpt>
      <trkpt lat="43.20418" lon="5.49337">
        <ele>155</ele>
        <time>2025-10-19T10:05:46Z</time>
      </trkpt>
      <trkpt lat="43.20418" lon="5.49337">
        <ele>155</ele>
        <time>2025-10-19T10:05:47Z</time>
      </trkpt>
      <trkpt lat="43.20417" lon="5.49336">
        <ele>155.1</ele>
        <time>2025-10-19T10:05:48Z</time>
      </trkpt>
      <trkpt lat="43.20417" lon="5.49337">
        <ele>155.2</ele>
        <time>2025-10-19T10:05:49Z</time>
      </trkpt>
      <trkpt lat="43.20419" lon="5.49337">
        <ele>155.3</ele>
        <time>2025-10-19T10:05:50Z</time>
      </trkpt>
      <trkpt lat="43.20418" lon="5.49337">
        <ele>155.5</ele>
        <time>2025-10-19T10:05:51Z</time>
      </trkpt>
      <trkpt lat="43.20419" lon="5.49338">
        <ele>155.5</ele>
        <time>2025-10-19T10:05:52Z</time>
      </trkpt>
      <trkpt lat="43.2042" lon="5.49338">
        <ele>155.6</ele>
        <time>2025-10-19T10:05:53Z</time>
      </trkpt>
      <trkpt lat="43.20421" lon="5.49339">
        <ele>155.6</ele>
        <time>2025-10-19T10:05:54Z</time>
      </trkpt>
      <trkpt lat="43.20422" lon="5.4934">
        <ele>155.7</ele>
        <time>2025-10-19T10:05:55Z</time>
      </trkpt>
      <trkpt lat="43.20423" lon="5.4934">
        <ele>155.7</ele>
        <time>2025-10-19T10:05:56Z</time>
      </trkpt>
      <trkpt lat="43.20421" lon="5.49338">
        <ele>155.6</ele>
        <time>2025-10-19T10:05:57Z</time>
      </trkpt>
      <trkpt lat="43.2042" lon="5.49336">
        <ele>155.7</ele>
        <time>2025-10-19T10:05:58Z</time>
      </trkpt>
      <trkpt lat="43.20419" lon="5.49336">
        <ele>155.6</ele>
        <time>2025-10-19T10:05:59Z</time>
      </trkpt>
      <trkpt lat="43.20417" lon="5.49335">
        <ele>155.5</ele>
        <time>2025-10-19T10:06:00Z</time>
      </trkpt>
      <trkpt lat="43.20416" lon="5.49334">
        <ele>155.5</ele>
        <time>2025-10-19T10:06:01Z</time>
      </trkpt>
      <trkpt lat="43.20415" lon="5.49334">
        <ele>155.5</ele>
        <time>2025-10-19T10:06:02Z</time>
      </trkpt>
      <trkpt lat="43.20415" lon="5.49334">
        <ele>155.5</ele>
        <time>2025-10-19T10:06:03Z</time>
      </trkpt>
      <trkpt lat="43.20415" lon="5.49334">
        <ele>155.4</ele>
        <time>2025-10-19T10:06:04Z</time>
      </trkpt>
      <trkpt lat="43.20415" lon="5.49334">
        <ele>155.4</ele>
        <time>2025-10-19T10:06:05Z</time>
      </trkpt>
      <trkpt lat="43.20415" lon="5.49334">
        <ele>155.3</ele>
        <time>2025-10-19T10:06:06Z</time>
      </trkpt>
      <trkpt lat="43.20414" lon="5.49334">
        <ele>155.2</ele>
        <time>2025-10-19T10:06:07Z</time>
      </trkpt>
      <trkpt lat="43.20414" lon="5.49334">
        <ele>155.3</ele>
        <time>2025-10-19T10:06:08Z</time>
      </trkpt>
      <trkpt lat="43.20414" lon="5.49334">
        <ele>155.3</ele>
        <time>2025-10-19T10:06:09Z</time>
      </trkpt>
      <trkpt lat="43.20414" lon="5.49334">
        <ele>155.2</ele>
        <time>2025-10-19T10:06:10Z</time>
      </trkpt>
      <trkpt lat="43.20413" lon="5.49334">
        <ele>155.2</ele>
        <time>2025-10-19T10:06:11Z</time>
      </trkpt>
      <trkpt lat="43.20413" lon="5.49334">
        <ele>155.2</ele>
        <time>2025-10-19T10:06:12Z</time>
      </trkpt>
      <trkpt lat="43.20413" lon="5.49334">
        <ele>155.2</ele>
        <time>2025-10-19T10:06:13Z</time>
      </trkpt>
      <trkpt lat="43.20413" lon="5.49334">
        <ele>155.2</ele>
        <time>2025-10-19T10:06:14Z</time>
      </trkpt>
      <trkpt lat="43.20413" lon="5.49334">
        <ele>155.2</ele>
        <time>2025-10-19T10:06:15Z</time>
      </trkpt>
      <trkpt lat="43.20413" lon="5.49334">
        <ele>155.1</ele>
        <time>2025-10-19T10:06:16Z</time>
      </trkpt>
      <trkpt lat="43.20413" lon="5.49334">
        <ele>155.1</ele>
        <time>2025-10-19T10:06:17Z</time>
      </trkpt>
      <trkpt lat="43.20413" lon="5.49334">
        <ele>155</ele>
        <time>2025-10-19T10:06:18Z</time>
      </trkpt>
      <trkpt lat="43.20413" lon="5.49334">
        <ele>155</ele>
        <time>2025-10-19T10:06:19Z</time>
      </trkpt>
      <trkpt lat="43.20413" lon="5.49334">
        <ele>155</ele>
        <time>2025-10-19T10:06:20Z</time>
      </trkpt>
      <trkpt lat="43.20413" lon="5.49335">
        <ele>155</ele>
        <time>2025-10-19T10:06:21Z</time>
      </trkpt>
      <trkpt lat="43.20412" lon="5.49335">
        <ele>155</ele>
        <time>2025-10-19T10:06:22Z</time>
      </trkpt>
      <trkpt lat="43.20412" lon="5.49335">
        <ele>155</ele>
        <time>2025-10-19T10:06:23Z</time>
      </trkpt>
      <trkpt lat="43.20412" lon="5.49335">
        <ele>155</ele>
        <time>2025-10-19T10:06:24Z</time>
      </trkpt>
      <trkpt lat="43.20412" lon="5.49335">
        <ele>155.1</ele>
        <time>2025-10-19T10:06:25Z</time>
      </trkpt>
      <trkpt lat="43.20412" lon="5.49335">
        <ele>155.1</ele>
        <time>2025-10-19T10:06:26Z</time>
      </trkpt>
      <trkpt lat="43.20412" lon="5.49335">
        <ele>155</ele>
        <time>2025-10-19T10:06:27Z</time>
      </trkpt>
      <trkpt lat="43.20412" lon="5.49336">
        <ele>155</ele>
        <time>2025-10-19T10:06:28Z</time>
      </trkpt>
      <trkpt lat="43.20412" lon="5.49335">
        <ele>155</ele>
        <time>2025-10-19T10:06:29Z</time>
      </trkpt>
      <trkpt lat="43.20412" lon="5.49335">
        <ele>155</ele>
        <time>2025-10-19T10:06:30Z</time>
      </trkpt>
      <trkpt lat="43.20412" lon="5.49335">
        <ele>155</ele>
        <time>2025-10-19T10:06:31Z</time>
      </trkpt>
      <trkpt lat="43.20412" lon="5.49335">
        <ele>155</ele>
        <time>2025-10-19T10:06:32Z</time>
      </trkpt>
      <trkpt lat="43.20412" lon="5.49335">
        <ele>155</ele>
        <time>2025-10-19T10:06:33Z</time>
      </trkpt>
      <trkpt lat="43.20412" lon="5.49335">
        <ele>155</ele>
        <time>2025-10-19T10:06:34Z</time>
      </trkpt>
      <trkpt lat="43.20412" lon="5.49335">
        <ele>155</ele>
        <time>2025-10-19T10:06:35Z</time>
      </trkpt>
      <trkpt lat="43.20412" lon="5.49335">
        <ele>155</ele>
        <time>2025-10-19T10:06:36Z</time>
      </trkpt>
      <trkpt lat="43.20412" lon="5.49335">
        <ele>155</ele>
        <time>2025-10-19T10:06:37Z</time>
      </trkpt>
      <trkpt lat="43.20412" lon="5.49335">
        <ele>155.1</ele>
        <time>2025-10-19T10:06:38Z</time>
      </trkpt>
      <trkpt lat="43.20412" lon="5.49335">
        <ele>155.2</ele>
        <time>2025-10-19T10:06:39Z</time>
      </trkpt>
      <trkpt lat="43.20412" lon="5.49335">
        <ele>155.3</ele>
        <time>2025-10-19T10:06:40Z</time>
      </trkpt>
      <trkpt lat="43.20412" lon="5.49335">
        <ele>155.4</ele>
        <time>2025-10-19T10:06:41Z</time>
      </trkpt>
      <trkpt lat="43.20413" lon="5.49336">
        <ele>155.5</ele>
        <time>2025-10-19T10:06:42Z</time>
      </trkpt>
      <trkpt lat="43.20413" lon="5.49336">
        <ele>155.5</ele>
        <time>2025-10-19T10:06:43Z</time>
      </trkpt>
      <trkpt lat="43.20413" lon="5.49336">
        <ele>155.5</ele>
        <time>2025-10-19T10:06:44Z</time>
      </trkpt>
      <trkpt lat="43.20413" lon="5.49336">
        <ele>155.5</ele>
        <time>2025-10-19T10:06:45Z</time>
      </trkpt>
      <trkpt lat="43.20413" lon="5.49336">
        <ele>155.4</ele>
        <time>2025-10-19T10:06:46Z</time>
      </trkpt>
      <trkpt lat="43.20413" lon="5.49336">
        <ele>155.4</ele>
        <time>2025-10-19T10:06:47Z</time>
      </trkpt>
      <trkpt lat="43.20413" lon="5.49336">
        <ele>155.4</ele>
        <time>2025-10-19T10:06:48Z</time>
      </trkpt>
      <trkpt lat="43.20413" lon="5.49336">
        <ele>155.4</ele>
        <time>2025-10-19T10:06:49Z</time>
      </trkpt>
      <trkpt lat="43.20413" lon="5.49336">
        <ele>155.4</ele>
        <time>2025-10-19T10:06:50Z</time>
      </trkpt>
      <trkpt lat="43.20413" lon="5.49337">
        <ele>155.4</ele>
        <time>2025-10-19T10:06:51Z</time>
      </trkpt>
      <trkpt lat="43.20413" lon="5.49337">
        <ele>155.3</ele>
        <time>2025-10-19T10:06:52Z</time>
      </trkpt>
      <trkpt lat="43.20413" lon="5.49337">
        <ele>155.3</ele>
        <time>2025-10-19T10:06:53Z</time>
      </trkpt>
      <trkpt lat="43.20413" lon="5.49337">
        <ele>155.4</ele>
        <time>2025-10-19T10:06:54Z</time>
      </trkpt>
      <trkpt lat="43.20413" lon="5.49337">
        <ele>155.3</ele>
        <time>2025-10-19T10:06:55Z</time>
      </trkpt>
      <trkpt lat="43.20413" lon="5.49337">
        <ele>155.3</ele>
        <time>2025-10-19T10:06:56Z</time>
      </trkpt>
      <trkpt lat="43.20413" lon="5.49337">
        <ele>155.2</ele>
        <time>2025-10-19T10:06:57Z</time>
      </trkpt>
      <trkpt lat="43.20413" lon="5.49337">
        <ele>155.2</ele>
        <time>2025-10-19T10:06:58Z</time>
      </trkpt>
      <trkpt lat="43.20413" lon="5.49337">
        <ele>155.2</ele>
        <time>2025-10-19T10:06:59Z</time>
      </trkpt>
      <trkpt lat="43.20413" lon="5.49337">
        <ele>155.3</ele>
        <time>2025-10-19T10:07:00Z</time>
      </trkpt>
      <trkpt lat="43.20413" lon="5.49337">
        <ele>155.3</ele>
        <time>2025-10-19T10:07:01Z</time>
      </trkpt>
      <trkpt lat="43.20413" lon="5.49337">
        <ele>155.3</ele>
        <time>2025-10-19T10:07:02Z</time>
      </trkpt>
      <trkpt lat="43.20413" lon="5.49337">
        <ele>155.3</ele>
        <time>2025-10-19T10:07:03Z</time>
      </trkpt>
      <trkpt lat="43.20414" lon="5.49337">
        <ele>155.3</ele>
        <time>2025-10-19T10:07:04Z</time>
      </trkpt>
      <trkpt lat="43.20414" lon="5.49337">
        <ele>155.3</ele>
        <time>2025-10-19T10:07:05Z</time>
      </trkpt>
      <trkpt lat="43.20414" lon="5.49337">
        <ele>155.3</ele>
        <time>2025-10-19T10:07:06Z</time>
      </trkpt>
      <trkpt lat="43.20414" lon="5.49337">
        <ele>155.3</ele>
        <time>2025-10-19T10:07:07Z</time>
      </trkpt>
      <trkpt lat="43.20414" lon="5.49337">
        <ele>155.2</ele>
        <time>2025-10-19T10:07:08Z</time>
      </trkpt>
      <trkpt lat="43.20414" lon="5.49337">
        <ele>155.2</ele>
        <time>2025-10-19T10:07:09Z</time>
      </trkpt>
      <trkpt lat="43.20414" lon="5.49337">
        <ele>155.1</ele>
        <time>2025-10-19T10:07:10Z</time>
      </trkpt>
      <trkpt lat="43.20414" lon="5.49337">
        <ele>155.2</ele>
        <time>2025-10-19T10:07:11Z</time>
      </trkpt>
      <trkpt lat="43.20414" lon="5.49337">
        <ele>155.2</ele>
        <time>2025-10-19T10:07:12Z</time>
      </trkpt>
      <trkpt lat="43.20414" lon="5.49337">
        <ele>155.3</ele>
        <time>2025-10-19T10:07:13Z</time>
      </trkpt>
      <trkpt lat="43.20414" lon="5.49337">
        <ele>155.3</ele>
        <time>2025-10-19T10:07:14Z</time>
      </trkpt>
      <trkpt lat="43.20414" lon="5.49337">
        <ele>155.4</ele>
        <time>2025-10-19T10:07:15Z</time>
      </trkpt>
      <trkpt lat="43.20414" lon="5.49337">
        <ele>155.4</ele>
        <time>2025-10-19T10:07:16Z</time>
      </trkpt>
      <trkpt lat="43.20414" lon="5.49337">
        <ele>155.4</ele>
        <time>2025-10-19T10:07:17Z</time>
      </trkpt>
      <trkpt lat="43.20414" lon="5.49337">
        <ele>155.3</ele>
        <time>2025-10-19T10:07:18Z</time>
      </trkpt>
      <trkpt lat="43.20414" lon="5.49337">
        <ele>155.4</ele>
        <time>2025-10-19T10:07:19Z</time>
      </trkpt>
      <trkpt lat="43.20414" lon="5.49337">
        <ele>155.4</ele>
        <time>2025-10-19T10:07:20Z</time>
      </trkpt>
      <trkpt lat="43.20414" lon="5.49337">
        <ele>155.4</ele>
        <time>2025-10-19T10:07:21Z</time>
      </trkpt>
      <trkpt lat="43.20414" lon="5.49337">
        <ele>155.4</ele>
        <time>2025-10-19T10:07:22Z</time>
      </trkpt>
      <trkpt lat="43.20414" lon="5.49338">
        <ele>155.4</ele>
        <time>2025-10-19T10:07:23Z</time>
      </trkpt>
      <trkpt lat="43.20414" lon="5.49338">
        <ele>155.5</ele>
        <time>2025-10-19T10:07:24Z</time>
      </trkpt>
      <trkpt lat="43.20414" lon="5.49337">
        <ele>155.5</ele>
        <time>2025-10-19T10:07:25Z</time>
      </trkpt>
      <trkpt lat="43.20414" lon="5.49338">
        <ele>155.5</ele>
        <time>2025-10-19T10:07:26Z</time>
      </trkpt>
      <trkpt lat="43.20414" lon="5.49338">
        <ele>155.5</ele>
        <time>2025-10-19T10:07:27Z</time>
      </trkpt>
      <trkpt lat="43.20414" lon="5.49337">
        <ele>155.4</ele>
        <time>2025-10-19T10:07:28Z</time>
      </trkpt>
      <trkpt lat="43.20414" lon="5.49338">
        <ele>155.4</ele>
        <time>2025-10-19T10:07:29Z</time>
      </trkpt>
      <trkpt lat="43.20414" lon="5.49338">
        <ele>155.3</ele>
        <time>2025-10-19T10:07:30Z</time>
      </trkpt>
      <trkpt lat="43.20414" lon="5.49338">
        <ele>155.3</ele>
        <time>2025-10-19T10:07:31Z</time>
      </trkpt>
      <trkpt lat="43.20414" lon="5.49337">
        <ele>155.4</ele>
        <time>2025-10-19T10:07:32Z</time>
      </trkpt>
      <trkpt lat="43.20414" lon="5.49337">
        <ele>155.3</ele>
        <time>2025-10-19T10:07:33Z</time>
      </trkpt>
      <trkpt lat="43.20414" lon="5.49338">
        <ele>155.3</ele>
        <time>2025-10-19T10:07:34Z</time>
      </trkpt>
      <trkpt lat="43.20414" lon="5.49338">
        <ele>155.3</ele>
        <time>2025-10-19T10:07:35Z</time>
      </trkpt>
      <trkpt lat="43.20414" lon="5.49338">
        <ele>155.3</ele>
        <time>2025-10-19T10:07:36Z</time>
      </trkpt>
      <trkpt lat="43.20414" lon="5.49338">
        <ele>155.3</ele>
        <time>2025-10-19T10:07:37Z</time>
      </trkpt>
      <trkpt lat="43.20414" lon="5.49338">
        <ele>155.3</ele>
        <time>2025-10-19T10:07:38Z</time>
      </trkpt>
      <trkpt lat="43.20415" lon="5.49338">
        <ele>155.3</ele>
        <time>2025-10-19T10:07:39Z</time>
      </trkpt>
      <trkpt lat="43.20414" lon="5.49338">
        <ele>155.3</ele>
        <time>2025-10-19T10:07:40Z</time>
      </trkpt>
      <trkpt lat="43.20414" lon="5.49338">
        <ele>155.3</ele>
        <time>2025-10-19T10:07:41Z</time>
      </trkpt>
      <trkpt lat="43.20414" lon="5.49338">
        <ele>155.3</ele>
        <time>2025-10-19T10:07:42Z</time>
      </trkpt>
      <trkpt lat="43.20414" lon="5.49338">
        <ele>155.3</ele>
        <time>2025-10-19T10:07:43Z</time>
      </trkpt>
      <trkpt lat="43.20414" lon="5.49338">
        <ele>155.3</ele>
        <time>2025-10-19T10:07:44Z</time>
      </trkpt>
      <trkpt lat="43.20414" lon="5.49338">
        <ele>155.3</ele>
        <time>2025-10-19T10:07:45Z</time>
      </trkpt>
      <trkpt lat="43.20414" lon="5.49338">
        <ele>155.2</ele>
        <time>2025-10-19T10:07:46Z</time>
      </trkpt>
      <trkpt lat="43.20414" lon="5.49337">
        <ele>155.2</ele>
        <time>2025-10-19T10:07:47Z</time>
      </trkpt>
      <trkpt lat="43.20414" lon="5.49337">
        <ele>155.1</ele>
        <time>2025-10-19T10:07:48Z</time>
      </trkpt>
      <trkpt lat="43.20414" lon="5.49337">
        <ele>155</ele>
        <time>2025-10-19T10:07:49Z</time>
      </trkpt>
      <trkpt lat="43.20413" lon="5.49337">
        <ele>154.9</ele>
        <time>2025-10-19T10:07:50Z</time>
      </trkpt>
      <trkpt lat="43.20413" lon="5.49337">
        <ele>154.9</ele>
        <time>2025-10-19T10:07:51Z</time>
      </trkpt>
      <trkpt lat="43.20413" lon="5.49337">
        <ele>154.8</ele>
        <time>2025-10-19T10:07:52Z</time>
      </trkpt>
      <trkpt lat="43.20413" lon="5.49337">
        <ele>154.8</ele>
        <time>2025-10-19T10:07:53Z</time>
      </trkpt>
      <trkpt lat="43.20413" lon="5.49337">
        <ele>154.8</ele>
        <time>2025-10-19T10:07:54Z</time>
      </trkpt>
      <trkpt lat="43.20413" lon="5.49337">
        <ele>154.7</ele>
        <time>2025-10-19T10:07:55Z</time>
      </trkpt>
      <trkpt lat="43.20413" lon="5.49337">
        <ele>154.6</ele>
        <time>2025-10-19T10:07:56Z</time>
      </trkpt>
      <trkpt lat="43.20413" lon="5.49336">
        <ele>154.6</ele>
        <time>2025-10-19T10:07:57Z</time>
      </trkpt>
      <trkpt lat="43.20413" lon="5.49337">
        <ele>154.5</ele>
        <time>2025-10-19T10:07:58Z</time>
      </trkpt>
      <trkpt lat="43.20413" lon="5.49336">
        <ele>154.6</ele>
        <time>2025-10-19T10:07:59Z</time>
      </trkpt>
      <trkpt lat="43.20413" lon="5.49336">
        <ele>154.7</ele>
        <time>2025-10-19T10:08:00Z</time>
      </trkpt>
      <trkpt lat="43.20413" lon="5.49336">
        <ele>154.7</ele>
        <time>2025-10-19T10:08:01Z</time>
      </trkpt>
      <trkpt lat="43.20413" lon="5.49336">
        <ele>154.8</ele>
        <time>2025-10-19T10:08:02Z</time>
      </trkpt>
      <trkpt lat="43.20413" lon="5.49337">
        <ele>154.8</ele>
        <time>2025-10-19T10:08:03Z</time>
      </trkpt>
      <trkpt lat="43.20414" lon="5.49338">
        <ele>154.8</ele>
        <time>2025-10-19T10:08:04Z</time>
      </trkpt>
      <trkpt lat="43.20414" lon="5.49337">
        <ele>154.9</ele>
        <time>2025-10-19T10:08:05Z</time>
      </trkpt>
      <trkpt lat="43.20415" lon="5.49338">
        <ele>154.9</ele>
        <time>2025-10-19T10:08:06Z</time>
      </trkpt>
      <trkpt lat="43.20416" lon="5.49338">
        <ele>155</ele>
        <time>2025-10-19T10:08:07Z</time>
      </trkpt>
      <trkpt lat="43.20417" lon="5.49338">
        <ele>155</ele>
        <time>2025-10-19T10:08:08Z</time>
      </trkpt>
      <trkpt lat="43.20417" lon="5.49338">
        <ele>155.1</ele>
        <time>2025-10-19T10:08:09Z</time>
      </trkpt>
      <trkpt lat="43.20417" lon="5.49338">
        <ele>155.3</ele>
        <time>2025-10-19T10:08:10Z</time>
      </trkpt>
      <trkpt lat="43.20417" lon="5.49337">
        <ele>155.4</ele>
        <time>2025-10-19T10:08:11Z</time>
      </trkpt>
      <trkpt lat="43.20418" lon="5.49338">
        <ele>155.5</ele>
        <time>2025-10-19T10:08:12Z</time>
      </trkpt>
      <trkpt lat="43.20418" lon="5.49337">
        <ele>155.6</ele>
        <time>2025-10-19T10:08:13Z</time>
      </trkpt>
      <trkpt lat="43.20418" lon="5.49338">
        <ele>155.7</ele>
        <time>2025-10-19T10:08:14Z</time>
      </trkpt>
      <trkpt lat="43.20418" lon="5.49338">
        <ele>156</ele>
        <time>2025-10-19T10:08:15Z</time>
      </trkpt>
      <trkpt lat="43.20419" lon="5.49338">
        <ele>156.2</ele>
        <time>2025-10-19T10:08:16Z</time>
      </trkpt>
      <trkpt lat="43.20419" lon="5.49338">
        <ele>156.3</ele>
        <time>2025-10-19T10:08:17Z</time>
      </trkpt>
      <trkpt lat="43.2042" lon="5.49338">
        <ele>156.6</ele>
        <time>2025-10-19T10:08:18Z</time>
      </trkpt>
      <trkpt lat="43.2042" lon="5.49338">
        <ele>156.8</ele>
        <time>2025-10-19T10:08:19Z</time>
      </trkpt>
      <trkpt lat="43.2042" lon="5.49339">
        <ele>157</ele>
        <time>2025-10-19T10:08:20Z</time>
      </trkpt>
      <trkpt lat="43.20421" lon="5.49339">
        <ele>157.2</ele>
        <time>2025-10-19T10:08:21Z</time>
      </trkpt>
      <trkpt lat="43.20421" lon="5.49339">
        <ele>157.5</ele>
        <time>2025-10-19T10:08:22Z</time>
      </trkpt>
      <trkpt lat="43.20421" lon="5.49339">
        <ele>157.8</ele>
        <time>2025-10-19T10:08:23Z</time>
      </trkpt>
      <trkpt lat="43.20421" lon="5.49339">
        <ele>158.1</ele>
        <time>2025-10-19T10:08:24Z</time>
      </trkpt>
      <trkpt lat="43.20421" lon="5.49339">
        <ele>158.5</ele>
        <time>2025-10-19T10:08:25Z</time>
      </trkpt>
      <trkpt lat="43.20421" lon="5.4934">
        <ele>158.8</ele>
        <time>2025-10-19T10:08:26Z</time>
      </trkpt>
      <trkpt lat="43.20421" lon="5.4934">
        <ele>159.1</ele>
        <time>2025-10-19T10:08:27Z</time>
      </trkpt>
      <trkpt lat="43.20421" lon="5.49339">
        <ele>159.4</ele>
        <time>2025-10-19T10:08:28Z</time>
      </trkpt>
      <trkpt lat="43.20422" lon="5.49339">
        <ele>159.7</ele>
        <time>2025-10-19T10:08:29Z</time>
      </trkpt>
      <trkpt lat="43.20422" lon="5.49339">
        <ele>159.8</ele>
        <time>2025-10-19T10:08:30Z</time>
      </trkpt>
      <trkpt lat="43.20423" lon="5.4934">
        <ele>160</ele>
        <time>2025-10-19T10:08:31Z</time>
      </trkpt>
      <trkpt lat="43.20423" lon="5.49341">
        <ele>160.1</ele>
        <time>2025-10-19T10:08:32Z</time>
      </trkpt>
      <trkpt lat="43.20423" lon="5.49342">
        <ele>160.2</ele>
        <time>2025-10-19T10:08:33Z</time>
      </trkpt>
      <trkpt lat="43.20424" lon="5.49343">
        <ele>160.4</ele>
        <time>2025-10-19T10:08:34Z</time>
      </trkpt>
      <trkpt lat="43.20424" lon="5.49343">
        <ele>160.5</ele>
        <time>2025-10-19T10:08:35Z</time>
      </trkpt>
      <trkpt lat="43.20424" lon="5.49344">
        <ele>160.6</ele>
        <time>2025-10-19T10:08:36Z</time>
      </trkpt>
      <trkpt lat="43.20424" lon="5.49345">
        <ele>160.8</ele>
        <time>2025-10-19T10:08:37Z</time>
      </trkpt>
      <trkpt lat="43.20424" lon="5.49345">
        <ele>160.8</ele>
        <time>2025-10-19T10:08:38Z</time>
      </trkpt>
      <trkpt lat="43.20423" lon="5.49346">
        <ele>160.9</ele>
        <time>2025-10-19T10:08:39Z</time>
      </trkpt>
      <trkpt lat="43.20423" lon="5.49347">
        <ele>161</ele>
        <time>2025-10-19T10:08:40Z</time>
      </trkpt>
      <trkpt lat="43.20422" lon="5.49347">
        <ele>161</ele>
        <time>2025-10-19T10:08:41Z</time>
      </trkpt>
      <trkpt lat="43.20422" lon="5.49348">
        <ele>160.9</ele>
        <time>2025-10-19T10:08:42Z</time>
      </trkpt>
      <trkpt lat="43.20421" lon="5.49349">
        <ele>161.1</ele>
        <time>2025-10-19T10:08:43Z</time>
      </trkpt>
      <trkpt lat="43.20421" lon="5.4935">
        <ele>161.2</ele>
        <time>2025-10-19T10:08:44Z</time>
      </trkpt>
      <trkpt lat="43.20421" lon="5.4935">
        <ele>161.3</ele>
        <time>2025-10-19T10:08:45Z</time>
      </trkpt>
      <trkpt lat="43.20421" lon="5.49351">
        <ele>161.4</ele>
        <time>2025-10-19T10:08:46Z</time>
      </trkpt>
      <trkpt lat="43.20421" lon="5.49352">
        <ele>161.5</ele>
        <time>2025-10-19T10:08:47Z</time>
      </trkpt>
      <trkpt lat="43.20421" lon="5.49353">
        <ele>161.5</ele>
        <time>2025-10-19T10:08:48Z</time>
      </trkpt>
      <trkpt lat="43.20421" lon="5.49353">
        <ele>161.6</ele>
        <time>2025-10-19T10:08:49Z</time>
      </trkpt>
      <trkpt lat="43.20421" lon="5.49354">
        <ele>161.7</ele>
        <time>2025-10-19T10:08:50Z</time>
      </trkpt>
      <trkpt lat="43.2042" lon="5.49355">
        <ele>161.8</ele>
        <time>2025-10-19T10:08:51Z</time>
      </trkpt>
      <trkpt lat="43.2042" lon="5.49356">
        <ele>161.9</ele>
        <time>2025-10-19T10:08:52Z</time>
      </trkpt>
      <trkpt lat="43.2042" lon="5.49357">
        <ele>162</ele>
        <time>2025-10-19T10:08:53Z</time>
      </trkpt>
      <trkpt lat="43.20421" lon="5.49358">
        <ele>162.2</ele>
        <time>2025-10-19T10:08:54Z</time>
      </trkpt>
      <trkpt lat="43.20421" lon="5.49359">
        <ele>162.4</ele>
        <time>2025-10-19T10:08:55Z</time>
      </trkpt>
      <trkpt lat="43.20422" lon="5.4936">
        <ele>162.5</ele>
        <time>2025-10-19T10:08:56Z</time>
      </trkpt>
      <trkpt lat="43.20422" lon="5.49361">
        <ele>162.7</ele>
        <time>2025-10-19T10:08:57Z</time>
      </trkpt>
      <trkpt lat="43.20422" lon="5.49362">
        <ele>162.8</ele>
        <time>2025-10-19T10:08:58Z</time>
      </trkpt>
      <trkpt lat="43.20422" lon="5.49363">
        <ele>162.9</ele>
        <time>2025-10-19T10:08:59Z</time>
      </trkpt>
      <trkpt lat="43.20422" lon="5.49364">
        <ele>163</ele>
        <time>2025-10-19T10:09:00Z</time>
      </trkpt>
      <trkpt lat="43.20423" lon="5.49365">
        <ele>163.1</ele>
        <time>2025-10-19T10:09:01Z</time>
      </trkpt>
      <trkpt lat="43.20423" lon="5.49366">
        <ele>163.2</ele>
        <time>2025-10-19T10:09:02Z</time>
      </trkpt>
      <trkpt lat="43.20423" lon="5.49367">
        <ele>163.3</ele>
        <time>2025-10-19T10:09:03Z</time>
      </trkpt>
      <trkpt lat="43.20423" lon="5.49367">
        <ele>163.4</ele>
        <time>2025-10-19T10:09:04Z</time>
      </trkpt>
      <trkpt lat="43.20424" lon="5.49368">
        <ele>163.4</ele>
        <time>2025-10-19T10:09:05Z</time>
      </trkpt>
      <trkpt lat="43.20424" lon="5.49368">
        <ele>163.5</ele>
        <time>2025-10-19T10:09:06Z</time>
      </trkpt>
      <trkpt lat="43.20424" lon="5.49369">
        <ele>163.6</ele>
        <time>2025-10-19T10:09:07Z</time>
      </trkpt>
      <trkpt lat="43.20424" lon="5.49369">
        <ele>163.7</ele>
        <time>2025-10-19T10:09:08Z</time>
      </trkpt>
      <trkpt lat="43.20424" lon="5.4937">
        <ele>163.7</ele>
        <time>2025-10-19T10:09:09Z</time>
      </trkpt>
      <trkpt lat="43.20425" lon="5.4937">
        <ele>163.8</ele>
        <time>2025-10-19T10:09:10Z</time>
      </trkpt>
      <trkpt lat="43.20424" lon="5.4937">
        <ele>163.7</ele>
        <time>2025-10-19T10:09:11Z</time>
      </trkpt>
      <trkpt lat="43.20424" lon="5.4937">
        <ele>163.7</ele>
        <time>2025-10-19T10:09:12Z</time>
      </trkpt>
      <trkpt lat="43.20424" lon="5.4937">
        <ele>163.6</ele>
        <time>2025-10-19T10:09:13Z</time>
      </trkpt>
      <trkpt lat="43.20424" lon="5.4937">
        <ele>163.5</ele>
        <time>2025-10-19T10:09:14Z</time>
      </trkpt>
      <trkpt lat="43.20424" lon="5.49371">
        <ele>163.4</ele>
        <time>2025-10-19T10:09:15Z</time>
      </trkpt>
      <trkpt lat="43.20424" lon="5.4937">
        <ele>163.4</ele>
        <time>2025-10-19T10:09:16Z</time>
      </trkpt>
      <trkpt lat="43.20424" lon="5.4937">
        <ele>163.4</ele>
        <time>2025-10-19T10:09:17Z</time>
      </trkpt>
      <trkpt lat="43.20424" lon="5.4937">
        <ele>163.4</ele>
        <time>2025-10-19T10:09:18Z</time>
      </trkpt>
      <trkpt lat="43.20424" lon="5.49371">
        <ele>163.4</ele>
        <time>2025-10-19T10:09:19Z</time>
      </trkpt>
      <trkpt lat="43.20424" lon="5.49371">
        <ele>163.4</ele>
        <time>2025-10-19T10:09:20Z</time>
      </trkpt>
      <trkpt lat="43.20424" lon="5.49371">
        <ele>163.5</ele>
        <time>2025-10-19T10:09:21Z</time>
      </trkpt>
      <trkpt lat="43.20425" lon="5.49371">
        <ele>163.5</ele>
        <time>2025-10-19T10:09:22Z</time>
      </trkpt>
      <trkpt lat="43.20425" lon="5.49371">
        <ele>163.4</ele>
        <time>2025-10-19T10:09:23Z</time>
      </trkpt>
      <trkpt lat="43.20425" lon="5.49371">
        <ele>163.4</ele>
        <time>2025-10-19T10:09:24Z</time>
      </trkpt>
      <trkpt lat="43.20425" lon="5.49371">
        <ele>163.3</ele>
        <time>2025-10-19T10:09:25Z</time>
      </trkpt>
      <trkpt lat="43.20425" lon="5.49372">
        <ele>163.2</ele>
        <time>2025-10-19T10:09:26Z</time>
      </trkpt>
      <trkpt lat="43.20425" lon="5.49372">
        <ele>163.3</ele>
        <time>2025-10-19T10:09:27Z</time>
      </trkpt>
      <trkpt lat="43.20425" lon="5.49372">
        <ele>163.4</ele>
        <time>2025-10-19T10:09:28Z</time>
      </trkpt>
      <trkpt lat="43.20425" lon="5.49372">
        <ele>163.4</ele>
        <time>2025-10-19T10:09:29Z</time>
      </trkpt>
      <trkpt lat="43.20425" lon="5.49372">
        <ele>163.3</ele>
        <time>2025-10-19T10:09:30Z</time>
      </trkpt>
      <trkpt lat="43.20425" lon="5.49372">
        <ele>163.3</ele>
        <time>2025-10-19T10:09:31Z</time>
      </trkpt>
      <trkpt lat="43.20425" lon="5.49372">
        <ele>163.3</ele>
        <time>2025-10-19T10:09:32Z</time>
      </trkpt>
      <trkpt lat="43.20425" lon="5.49372">
        <ele>163.3</ele>
        <time>2025-10-19T10:09:33Z</time>
      </trkpt>
      <trkpt lat="43.20425" lon="5.49372">
        <ele>163.4</ele>
        <time>2025-10-19T10:09:34Z</time>
      </trkpt>
      <trkpt lat="43.20425" lon="5.49372">
        <ele>163.5</ele>
        <time>2025-10-19T10:09:35Z</time>
      </trkpt>
      <trkpt lat="43.20425" lon="5.49372">
        <ele>163.6</ele>
        <time>2025-10-19T10:09:36Z</time>
      </trkpt>
      <trkpt lat="43.20426" lon="5.49373">
        <ele>163.6</ele>
        <time>2025-10-19T10:09:37Z</time>
      </trkpt>
      <trkpt lat="43.20426" lon="5.49373">
        <ele>163.6</ele>
        <time>2025-10-19T10:09:38Z</time>
      </trkpt>
      <trkpt lat="43.20426" lon="5.49373">
        <ele>163.6</ele>
        <time>2025-10-19T10:09:39Z</time>
      </trkpt>
      <trkpt lat="43.20426" lon="5.49373">
        <ele>163.5</ele>
        <time>2025-10-19T10:09:40Z</time>
      </trkpt>
      <trkpt lat="43.20426" lon="5.49373">
        <ele>163.6</ele>
        <time>2025-10-19T10:09:41Z</time>
      </trkpt>
      <trkpt lat="43.20425" lon="5.49373">
        <ele>163.5</ele>
        <time>2025-10-19T10:09:42Z</time>
      </trkpt>
      <trkpt lat="43.20425" lon="5.49373">
        <ele>163.5</ele>
        <time>2025-10-19T10:09:43Z</time>
      </trkpt>
      <trkpt lat="43.20425" lon="5.49373">
        <ele>163.6</ele>
        <time>2025-10-19T10:09:44Z</time>
      </trkpt>
      <trkpt lat="43.20425" lon="5.49373">
        <ele>163.6</ele>
        <time>2025-10-19T10:09:45Z</time>
      </trkpt>
      <trkpt lat="43.20425" lon="5.49373">
        <ele>163.7</ele>
        <time>2025-10-19T10:09:46Z</time>
      </trkpt>
      <trkpt lat="43.20425" lon="5.49373">
        <ele>163.7</ele>
        <time>2025-10-19T10:09:47Z</time>
      </trkpt>
      <trkpt lat="43.20425" lon="5.49373">
        <ele>163.7</ele>
        <time>2025-10-19T10:09:48Z</time>
      </trkpt>
      <trkpt lat="43.20425" lon="5.49373">
        <ele>163.7</ele>
        <time>2025-10-19T10:09:49Z</time>
      </trkpt>
      <trkpt lat="43.20425" lon="5.49373">
        <ele>163.6</ele>
        <time>2025-10-19T10:09:50Z</time>
      </trkpt>
      <trkpt lat="43.20426" lon="5.49373">
        <ele>163.5</ele>
        <time>2025-10-19T10:09:51Z</time>
      </trkpt>
      <trkpt lat="43.20426" lon="5.49373">
        <ele>163.4</ele>
        <time>2025-10-19T10:09:52Z</time>
      </trkpt>
      <trkpt lat="43.20426" lon="5.49373">
        <ele>163.3</ele>
        <time>2025-10-19T10:09:53Z</time>
      </trkpt>
      <trkpt lat="43.20426" lon="5.49373">
        <ele>163.3</ele>
        <time>2025-10-19T10:09:54Z</time>
      </trkpt>
      <trkpt lat="43.20426" lon="5.49373">
        <ele>163.3</ele>
        <time>2025-10-19T10:09:55Z</time>
      </trkpt>
      <trkpt lat="43.20426" lon="5.49373">
        <ele>163.2</ele>
        <time>2025-10-19T10:09:56Z</time>
      </trkpt>
      <trkpt lat="43.20426" lon="5.49374">
        <ele>163.2</ele>
        <time>2025-10-19T10:09:57Z</time>
      </trkpt>
      <trkpt lat="43.20426" lon="5.49374">
        <ele>163.1</ele>
        <time>2025-10-19T10:09:58Z</time>
      </trkpt>
      <trkpt lat="43.20426" lon="5.49374">
        <ele>163.1</ele>
        <time>2025-10-19T10:09:59Z</time>
      </trkpt>
      <trkpt lat="43.20426" lon="5.49374">
        <ele>163.1</ele>
        <time>2025-10-19T10:10:00Z</time>
      </trkpt>
      <trkpt lat="43.20426" lon="5.49374">
        <ele>163.2</ele>
        <time>2025-10-19T10:10:01Z</time>
      </trkpt>
      <trkpt lat="43.20426" lon="5.49373">
        <ele>163.3</ele>
        <time>2025-10-19T10:10:02Z</time>
      </trkpt>
      <trkpt lat="43.20426" lon="5.49373">
        <ele>163.3</ele>
        <time>2025-10-19T10:10:03Z</time>
      </trkpt>
      <trkpt lat="43.20426" lon="5.49373">
        <ele>163.4</ele>
        <time>2025-10-19T10:10:04Z</time>
      </trkpt>
      <trkpt lat="43.20426" lon="5.49373">
        <ele>163.4</ele>
        <time>2025-10-19T10:10:05Z</time>
      </trkpt>
      <trkpt lat="43.20426" lon="5.49373">
        <ele>163.4</ele>
        <time>2025-10-19T10:10:06Z</time>
      </trkpt>
      <trkpt lat="43.20426" lon="5.49373">
        <ele>163.4</ele>
        <time>2025-10-19T10:10:07Z</time>
      </trkpt>
      <trkpt lat="43.20426" lon="5.49373">
        <ele>163.5</ele>
        <time>2025-10-19T10:10:08Z</time>
      </trkpt>
      <trkpt lat="43.20426" lon="5.49373">
        <ele>163.5</ele>
        <time>2025-10-19T10:10:09Z</time>
      </trkpt>
      <trkpt lat="43.20426" lon="5.49373">
        <ele>163.5</ele>
        <time>2025-10-19T10:10:10Z</time>
      </trkpt>
      <trkpt lat="43.20426" lon="5.49373">
        <ele>163.4</ele>
        <time>2025-10-19T10:10:11Z</time>
      </trkpt>
      <trkpt lat="43.20426" lon="5.49373">
        <ele>163.3</ele>
        <time>2025-10-19T10:10:12Z</time>
      </trkpt>
      <trkpt lat="43.20426" lon="5.49373">
        <ele>163.3</ele>
        <time>2025-10-19T10:10:13Z</time>
      </trkpt>
      <trkpt lat="43.20427" lon="5.49373">
        <ele>163.3</ele>
        <time>2025-10-19T10:10:14Z</time>
      </trkpt>
      <trkpt lat="43.20427" lon="5.49373">
        <ele>163.3</ele>
        <time>2025-10-19T10:10:15Z</time>
      </trkpt>
      <trkpt lat="43.20426" lon="5.49373">
        <ele>163.3</ele>
        <time>2025-10-19T10:10:16Z</time>
      </trkpt>
      <trkpt lat="43.20426" lon="5.49373">
        <ele>163.3</ele>
        <time>2025-10-19T10:10:17Z</time>
      </trkpt>
      <trkpt lat="43.20427" lon="5.49372">
        <ele>163.2</ele>
        <time>2025-10-19T10:10:18Z</time>
      </trkpt>
      <trkpt lat="43.20427" lon="5.49372">
        <ele>163.2</ele>
        <time>2025-10-19T10:10:19Z</time>
      </trkpt>
      <trkpt lat="43.20427" lon="5.49371">
        <ele>163.1</ele>
        <time>2025-10-19T10:10:20Z</time>
      </trkpt>
      <trkpt lat="43.20427" lon="5.4937">
        <ele>163.1</ele>
        <time>2025-10-19T10:10:21Z</time>
      </trkpt>
      <trkpt lat="43.20426" lon="5.4937">
        <ele>163.1</ele>
        <time>2025-10-19T10:10:22Z</time>
      </trkpt>
      <trkpt lat="43.20426" lon="5.4937">
        <ele>163.1</ele>
        <time>2025-10-19T10:10:23Z</time>
      </trkpt>
      <trkpt lat="43.20426" lon="5.4937">
        <ele>163.1</ele>
        <time>2025-10-19T10:10:24Z</time>
      </trkpt>
      <trkpt lat="43.20426" lon="5.4937">
        <ele>163.1</ele>
        <time>2025-10-19T10:10:25Z</time>
      </trkpt>
      <trkpt lat="43.20426" lon="5.4937">
        <ele>163.1</ele>
        <time>2025-10-19T10:10:26Z</time>
      </trkpt>
      <trkpt lat="43.20426" lon="5.49369">
        <ele>163.2</ele>
        <time>2025-10-19T10:10:27Z</time>
      </trkpt>
      <trkpt lat="43.20426" lon="5.49369">
        <ele>163.3</ele>
        <time>2025-10-19T10:10:28Z</time>
      </trkpt>
      <trkpt lat="43.20426" lon="5.49369">
        <ele>163.3</ele>
        <time>2025-10-19T10:10:29Z</time>
      </trkpt>
      <trkpt lat="43.20426" lon="5.49369">
        <ele>163.3</ele>
        <time>2025-10-19T10:10:30Z</time>
      </trkpt>
      <trkpt lat="43.20425" lon="5.49369">
        <ele>163.2</ele>
        <time>2025-10-19T10:10:31Z</time>
      </trkpt>
      <trkpt lat="43.20425" lon="5.49369">
        <ele>163.2</ele>
        <time>2025-10-19T10:10:32Z</time>
      </trkpt>
      <trkpt lat="43.20425" lon="5.49369">
        <ele>163.2</ele>
        <time>2025-10-19T10:10:33Z</time>
      </trkpt>
      <trkpt lat="43.20425" lon="5.49369">
        <ele>163.2</ele>
        <time>2025-10-19T10:10:34Z</time>
      </trkpt>
      <trkpt lat="43.20425" lon="5.49369">
        <ele>163.2</ele>
        <time>2025-10-19T10:10:35Z</time>
      </trkpt>
      <trkpt lat="43.20425" lon="5.49369">
        <ele>163.3</ele>
        <time>2025-10-19T10:10:36Z</time>
      </trkpt>
      <trkpt lat="43.20425" lon="5.49369">
        <ele>163.3</ele>
        <time>2025-10-19T10:10:37Z</time>
      </trkpt>
      <trkpt lat="43.20425" lon="5.49369">
        <ele>163.3</ele>
        <time>2025-10-19T10:10:38Z</time>
      </trkpt>
      <trkpt lat="43.20425" lon="5.49369">
        <ele>163.3</ele>
        <time>2025-10-19T10:10:39Z</time>
      </trkpt>
      <trkpt lat="43.20425" lon="5.49369">
        <ele>163.4</ele>
        <time>2025-10-19T10:10:40Z</time>
      </trkpt>
      <trkpt lat="43.20425" lon="5.49369">
        <ele>163.5</ele>
        <time>2025-10-19T10:10:41Z</time>
      </trkpt>
      <trkpt lat="43.20425" lon="5.49369">
        <ele>163.5</ele>
        <time>2025-10-19T10:10:42Z</time>
      </trkpt>
      <trkpt lat="43.20425" lon="5.49369">
        <ele>163.6</ele>
        <time>2025-10-19T10:10:43Z</time>
      </trkpt>
      <trkpt lat="43.20425" lon="5.49369">
        <ele>163.6</ele>
        <time>2025-10-19T10:10:44Z</time>
      </trkpt>
      <trkpt lat="43.20425" lon="5.49369">
        <ele>163.6</ele>
        <time>2025-10-19T10:10:45Z</time>
      </trkpt>
      <trkpt lat="43.20425" lon="5.49369">
        <ele>163.6</ele>
        <time>2025-10-19T10:10:46Z</time>
      </trkpt>
      <trkpt lat="43.20425" lon="5.49369">
        <ele>163.5</ele>
        <time>2025-10-19T10:10:47Z</time>
      </trkpt>
      <trkpt lat="43.20425" lon="5.49369">
        <ele>163.4</ele>
        <time>2025-10-19T10:10:48Z</time>
      </trkpt>
      <trkpt lat="43.20425" lon="5.49369">
        <ele>163.4</ele>
        <time>2025-10-19T10:10:49Z</time>
      </trkpt>
      <trkpt lat="43.20425" lon="5.49368">
        <ele>163.4</ele>
        <time>2025-10-19T10:10:50Z</time>
      </trkpt>
      <trkpt lat="43.20425" lon="5.49369">
        <ele>163.4</ele>
        <time>2025-10-19T10:10:51Z</time>
      </trkpt>
      <trkpt lat="43.20425" lon="5.49369">
        <ele>163.4</ele>
        <time>2025-10-19T10:10:52Z</time>
      </trkpt>
      <trkpt lat="43.20425" lon="5.49369">
        <ele>163.3</ele>
        <time>2025-10-19T10:10:53Z</time>
      </trkpt>
      <trkpt lat="43.20425" lon="5.49369">
        <ele>163.2</ele>
        <time>2025-10-19T10:10:54Z</time>
      </trkpt>
      <trkpt lat="43.20425" lon="5.49369">
        <ele>163.2</ele>
        <time>2025-10-19T10:10:55Z</time>
      </trkpt>
      <trkpt lat="43.20425" lon="5.49369">
        <ele>163.3</ele>
        <time>2025-10-19T10:10:56Z</time>
      </trkpt>
      <trkpt lat="43.20425" lon="5.49369">
        <ele>163.3</ele>
        <time>2025-10-19T10:10:57Z</time>
      </trkpt>
      <trkpt lat="43.20425" lon="5.49369">
        <ele>163.4</ele>
        <time>2025-10-19T10:10:58Z</time>
      </trkpt>
      <trkpt lat="43.20425" lon="5.49369">
        <ele>163.4</ele>
        <time>2025-10-19T10:10:59Z</time>
      </trkpt>
      <trkpt lat="43.20425" lon="5.49369">
        <ele>163.4</ele>
        <time>2025-10-19T10:11:00Z</time>
      </trkpt>
      <trkpt lat="43.20425" lon="5.49368">
        <ele>163.5</ele>
        <time>2025-10-19T10:11:01Z</time>
      </trkpt>
      <trkpt lat="43.20425" lon="5.49368">
        <ele>163.5</ele>
        <time>2025-10-19T10:11:02Z</time>
      </trkpt>
      <trkpt lat="43.20425" lon="5.49369">
        <ele>163.6</ele>
        <time>2025-10-19T10:11:03Z</time>
      </trkpt>
      <trkpt lat="43.20424" lon="5.49369">
        <ele>163.7</ele>
        <time>2025-10-19T10:11:04Z</time>
      </trkpt>
      <trkpt lat="43.20425" lon="5.49368">
        <ele>163.7</ele>
        <time>2025-10-19T10:11:05Z</time>
      </trkpt>
      <trkpt lat="43.20425" lon="5.49368">
        <ele>163.7</ele>
        <time>2025-10-19T10:11:06Z</time>
      </trkpt>
      <trkpt lat="43.20425" lon="5.49368">
        <ele>163.7</ele>
        <time>2025-10-19T10:11:07Z</time>
      </trkpt>
      <trkpt lat="43.20425" lon="5.49368">
        <ele>163.6</ele>
        <time>2025-10-19T10:11:08Z</time>
      </trkpt>
      <trkpt lat="43.20425" lon="5.49368">
        <ele>163.6</ele>
        <time>2025-10-19T10:11:09Z</time>
      </trkpt>
      <trkpt lat="43.20425" lon="5.49368">
        <ele>163.6</ele>
        <time>2025-10-19T10:11:10Z</time>
      </trkpt>
      <trkpt lat="43.20425" lon="5.49368">
        <ele>163.7</ele>
        <time>2025-10-19T10:11:11Z</time>
      </trkpt>
      <trkpt lat="43.20425" lon="5.49368">
        <ele>163.7</ele>
        <time>2025-10-19T10:11:12Z</time>
      </trkpt>
      <trkpt lat="43.20425" lon="5.49368">
        <ele>163.7</ele>
        <time>2025-10-19T10:11:13Z</time>
      </trkpt>
      <trkpt lat="43.20425" lon="5.49368">
        <ele>163.7</ele>
        <time>2025-10-19T10:11:14Z</time>
      </trkpt>
      <trkpt lat="43.20425" lon="5.49368">
        <ele>163.7</ele>
        <time>2025-10-19T10:11:15Z</time>
      </trkpt>
      <trkpt lat="43.20426" lon="5.49369">
        <ele>163.8</ele>
        <time>2025-10-19T10:11:16Z</time>
      </trkpt>
      <trkpt lat="43.20426" lon="5.49369">
        <ele>163.7</ele>
        <time>2025-10-19T10:11:17Z</time>
      </trkpt>
      <trkpt lat="43.20427" lon="5.49369">
        <ele>163.7</ele>
        <time>2025-10-19T10:11:18Z</time>
      </trkpt>
      <trkpt lat="43.20427" lon="5.49369">
        <ele>163.7</ele>
        <time>2025-10-19T10:11:19Z</time>
      </trkpt>
      <trkpt lat="43.20427" lon="5.49369">
        <ele>163.7</ele>
        <time>2025-10-19T10:11:20Z</time>
      </trkpt>
      <trkpt lat="43.20427" lon="5.49369">
        <ele>163.7</ele>
        <time>2025-10-19T10:11:21Z</time>
      </trkpt>
      <trkpt lat="43.20427" lon="5.49369">
        <ele>163.6</ele>
        <time>2025-10-19T10:11:22Z</time>
      </trkpt>
      <trkpt lat="43.20427" lon="5.4937">
        <ele>163.5</ele>
        <time>2025-10-19T10:11:23Z</time>
      </trkpt>
      <trkpt lat="43.20427" lon="5.4937">
        <ele>163.5</ele>
        <time>2025-10-19T10:11:24Z</time>
      </trkpt>
      <trkpt lat="43.20427" lon="5.4937">
        <ele>163.4</ele>
        <time>2025-10-19T10:11:25Z</time>
      </trkpt>
      <trkpt lat="43.20427" lon="5.4937">
        <ele>163.4</ele>
        <time>2025-10-19T10:11:26Z</time>
      </trkpt>
      <trkpt lat="43.20427" lon="5.4937">
        <ele>163.3</ele>
        <time>2025-10-19T10:11:27Z</time>
      </trkpt>
      <trkpt lat="43.20427" lon="5.4937">
        <ele>163.3</ele>
        <time>2025-10-19T10:11:28Z</time>
      </trkpt>
      <trkpt lat="43.20427" lon="5.4937">
        <ele>163.3</ele>
        <time>2025-10-19T10:11:29Z</time>
      </trkpt>
      <trkpt lat="43.20427" lon="5.4937">
        <ele>163.2</ele>
        <time>2025-10-19T10:11:30Z</time>
      </trkpt>
      <trkpt lat="43.20428" lon="5.49369">
        <ele>163.2</ele>
        <time>2025-10-19T10:11:31Z</time>
      </trkpt>
      <trkpt lat="43.20428" lon="5.49369">
        <ele>163.2</ele>
        <time>2025-10-19T10:11:32Z</time>
      </trkpt>
      <trkpt lat="43.20429" lon="5.49368">
        <ele>163.2</ele>
        <time>2025-10-19T10:11:33Z</time>
      </trkpt>
      <trkpt lat="43.20429" lon="5.49368">
        <ele>163.1</ele>
        <time>2025-10-19T10:11:34Z</time>
      </trkpt>
      <trkpt lat="43.20429" lon="5.49368">
        <ele>163.1</ele>
        <time>2025-10-19T10:11:35Z</time>
      </trkpt>
      <trkpt lat="43.2043" lon="5.49368">
        <ele>163.2</ele>
        <time>2025-10-19T10:11:36Z</time>
      </trkpt>
      <trkpt lat="43.2043" lon="5.49368">
        <ele>163.3</ele>
        <time>2025-10-19T10:11:37Z</time>
      </trkpt>
      <trkpt lat="43.2043" lon="5.49368">
        <ele>163.4</ele>
        <time>2025-10-19T10:11:38Z</time>
      </trkpt>
      <trkpt lat="43.2043" lon="5.49368">
        <ele>163.4</ele>
        <time>2025-10-19T10:11:39Z</time>
      </trkpt>
      <trkpt lat="43.2043" lon="5.49368">
        <ele>163.5</ele>
        <time>2025-10-19T10:11:40Z</time>
      </trkpt>
      <trkpt lat="43.2043" lon="5.49368">
        <ele>163.5</ele>
        <time>2025-10-19T10:11:41Z</time>
      </trkpt>
      <trkpt lat="43.20431" lon="5.49369">
        <ele>163.6</ele>
        <time>2025-10-19T10:11:42Z</time>
      </trkpt>
      <trkpt lat="43.20431" lon="5.49369">
        <ele>163.7</ele>
        <time>2025-10-19T10:11:43Z</time>
      </trkpt>
      <trkpt lat="43.20431" lon="5.49368">
        <ele>163.8</ele>
        <time>2025-10-19T10:11:44Z</time>
      </trkpt>
      <trkpt lat="43.20431" lon="5.49368">
        <ele>163.7</ele>
        <time>2025-10-19T10:11:45Z</time>
      </trkpt>
      <trkpt lat="43.20431" lon="5.49368">
        <ele>163.7</ele>
        <time>2025-10-19T10:11:46Z</time>
      </trkpt>
      <trkpt lat="43.20432" lon="5.49369">
        <ele>163.5</ele>
        <time>2025-10-19T10:11:47Z</time>
      </trkpt>
      <trkpt lat="43.20433" lon="5.49369">
        <ele>163.5</ele>
        <time>2025-10-19T10:11:48Z</time>
      </trkpt>
      <trkpt lat="43.20433" lon="5.49368">
        <ele>163.7</ele>
        <time>2025-10-19T10:11:49Z</time>
      </trkpt>
      <trkpt lat="43.20434" lon="5.49368">
        <ele>163.7</ele>
        <time>2025-10-19T10:11:50Z</time>
      </trkpt>
      <trkpt lat="43.20434" lon="5.49368">
        <ele>163.7</ele>
        <time>2025-10-19T10:11:51Z</time>
      </trkpt>
      <trkpt lat="43.20434" lon="5.49368">
        <ele>163.7</ele>
        <time>2025-10-19T10:11:52Z</time>
      </trkpt>
      <trkpt lat="43.20435" lon="5.49368">
        <ele>163.8</ele>
        <time>2025-10-19T10:11:53Z</time>
      </trkpt>
      <trkpt lat="43.20436" lon="5.49368">
        <ele>163.8</ele>
        <time>2025-10-19T10:11:54Z</time>
      </trkpt>
      <trkpt lat="43.20436" lon="5.49369">
        <ele>163.8</ele>
        <time>2025-10-19T10:11:55Z</time>
      </trkpt>
      <trkpt lat="43.20437" lon="5.49369">
        <ele>163.9</ele>
        <time>2025-10-19T10:11:56Z</time>
      </trkpt>
      <trkpt lat="43.20437" lon="5.49369">
        <ele>164</ele>
        <time>2025-10-19T10:11:57Z</time>
      </trkpt>
      <trkpt lat="43.20438" lon="5.4937">
        <ele>164</ele>
        <time>2025-10-19T10:11:58Z</time>
      </trkpt>
      <trkpt lat="43.20438" lon="5.4937">
        <ele>164.1</ele>
        <time>2025-10-19T10:11:59Z</time>
      </trkpt>
      <trkpt lat="43.20439" lon="5.49371">
        <ele>164.1</ele>
        <time>2025-10-19T10:12:00Z</time>
      </trkpt>
      <trkpt lat="43.2044" lon="5.49371">
        <ele>164.2</ele>
        <time>2025-10-19T10:12:01Z</time>
      </trkpt>
      <trkpt lat="43.2044" lon="5.49372">
        <ele>164.3</ele>
        <time>2025-10-19T10:12:02Z</time>
      </trkpt>
      <trkpt lat="43.20441" lon="5.49372">
        <ele>164.4</ele>
        <time>2025-10-19T10:12:03Z</time>
      </trkpt>
      <trkpt lat="43.20441" lon="5.49372">
        <ele>164.5</ele>
        <time>2025-10-19T10:12:04Z</time>
      </trkpt>
      <trkpt lat="43.20442" lon="5.49373">
        <ele>164.7</ele>
        <time>2025-10-19T10:12:05Z</time>
      </trkpt>
      <trkpt lat="43.20443" lon="5.49373">
        <ele>164.8</ele>
        <time>2025-10-19T10:12:06Z</time>
      </trkpt>
      <trkpt lat="43.20443" lon="5.49374">
        <ele>164.9</ele>
        <time>2025-10-19T10:12:07Z</time>
      </trkpt>
      <trkpt lat="43.20444" lon="5.49374">
        <ele>164.9</ele>
        <time>2025-10-19T10:12:08Z</time>
      </trkpt>
      <trkpt lat="43.20444" lon="5.49374">
        <ele>165</ele>
        <time>2025-10-19T10:12:09Z</time>
      </trkpt>
      <trkpt lat="43.20445" lon="5.49375">
        <ele>165.1</ele>
        <time>2025-10-19T10:12:10Z</time>
      </trkpt>
      <trkpt lat="43.20446" lon="5.49375">
        <ele>165.2</ele>
        <time>2025-10-19T10:12:11Z</time>
      </trkpt>
      <trkpt lat="43.20446" lon="5.49374">
        <ele>165.4</ele>
        <time>2025-10-19T10:12:12Z</time>
      </trkpt>
      <trkpt lat="43.20447" lon="5.49374">
        <ele>165.5</ele>
        <time>2025-10-19T10:12:13Z</time>
      </trkpt>
      <trkpt lat="43.20447" lon="5.49374">
        <ele>165.6</ele>
        <time>2025-10-19T10:12:14Z</time>
      </trkpt>
      <trkpt lat="43.20448" lon="5.49374">
        <ele>165.6</ele>
        <time>2025-10-19T10:12:15Z</time>
      </trkpt>
      <trkpt lat="43.20448" lon="5.49373">
        <ele>165.7</ele>
        <time>2025-10-19T10:12:16Z</time>
      </trkpt>
      <trkpt lat="43.20448" lon="5.49373">
        <ele>165.7</ele>
        <time>2025-10-19T10:12:17Z</time>
      </trkpt>
      <trkpt lat="43.20449" lon="5.49373">
        <ele>165.8</ele>
        <time>2025-10-19T10:12:18Z</time>
      </trkpt>
      <trkpt lat="43.20449" lon="5.49373">
        <ele>165.9</ele>
        <time>2025-10-19T10:12:19Z</time>
      </trkpt>
      <trkpt lat="43.2045" lon="5.49373">
        <ele>165.9</ele>
        <time>2025-10-19T10:12:20Z</time>
      </trkpt>
      <trkpt lat="43.2045" lon="5.49372">
        <ele>166</ele>
        <time>2025-10-19T10:12:21Z</time>
      </trkpt>
      <trkpt lat="43.20451" lon="5.49372">
        <ele>166.1</ele>
        <time>2025-10-19T10:12:22Z</time>
      </trkpt>
      <trkpt lat="43.20451" lon="5.49372">
        <ele>166.2</ele>
        <time>2025-10-19T10:12:23Z</time>
      </trkpt>
      <trkpt lat="43.20452" lon="5.49372">
        <ele>166.3</ele>
        <time>2025-10-19T10:12:24Z</time>
      </trkpt>
      <trkpt lat="43.20453" lon="5.49371">
        <ele>166.4</ele>
        <time>2025-10-19T10:12:25Z</time>
      </trkpt>
      <trkpt lat="43.20453" lon="5.49371">
        <ele>166.6</ele>
        <time>2025-10-19T10:12:26Z</time>
      </trkpt>
      <trkpt lat="43.20454" lon="5.49371">
        <ele>166.7</ele>
        <time>2025-10-19T10:12:27Z</time>
      </trkpt>
      <trkpt lat="43.20454" lon="5.49371">
        <ele>166.8</ele>
        <time>2025-10-19T10:12:28Z</time>
      </trkpt>
      <trkpt lat="43.20455" lon="5.49371">
        <ele>166.9</ele>
        <time>2025-10-19T10:12:29Z</time>
      </trkpt>
      <trkpt lat="43.20456" lon="5.4937">
        <ele>167</ele>
        <time>2025-10-19T10:12:30Z</time>
      </trkpt>
      <trkpt lat="43.20456" lon="5.49369">
        <ele>167.1</ele>
        <time>2025-10-19T10:12:31Z</time>
      </trkpt>
      <trkpt lat="43.20457" lon="5.49368">
        <ele>167.1</ele>
        <time>2025-10-19T10:12:32Z</time>
      </trkpt>
      <trkpt lat="43.20457" lon="5.49368">
        <ele>167.2</ele>
        <time>2025-10-19T10:12:33Z</time>
      </trkpt>
      <trkpt lat="43.20458" lon="5.49367">
        <ele>167.3</ele>
        <time>2025-10-19T10:12:34Z</time>
      </trkpt>
      <trkpt lat="43.20458" lon="5.49367">
        <ele>167.4</ele>
        <time>2025-10-19T10:12:35Z</time>
      </trkpt>
      <trkpt lat="43.20459" lon="5.49366">
        <ele>167.5</ele>
        <time>2025-10-19T10:12:36Z</time>
      </trkpt>
      <trkpt lat="43.2046" lon="5.49365">
        <ele>167.6</ele>
        <time>2025-10-19T10:12:37Z</time>
      </trkpt>
      <trkpt lat="43.2046" lon="5.49364">
        <ele>167.7</ele>
        <time>2025-10-19T10:12:38Z</time>
      </trkpt>
      <trkpt lat="43.20461" lon="5.49364">
        <ele>167.8</ele>
        <time>2025-10-19T10:12:39Z</time>
      </trkpt>
      <trkpt lat="43.20461" lon="5.49364">
        <ele>167.8</ele>
        <time>2025-10-19T10:12:40Z</time>
      </trkpt>
      <trkpt lat="43.20462" lon="5.49363">
        <ele>168</ele>
        <time>2025-10-19T10:12:41Z</time>
      </trkpt>
      <trkpt lat="43.20463" lon="5.49363">
        <ele>168.2</ele>
        <time>2025-10-19T10:12:42Z</time>
      </trkpt>
      <trkpt lat="43.20464" lon="5.49362">
        <ele>168.2</ele>
        <time>2025-10-19T10:12:43Z</time>
      </trkpt>
      <trkpt lat="43.20464" lon="5.49361">
        <ele>168.3</ele>
        <time>2025-10-19T10:12:44Z</time>
      </trkpt>
      <trkpt lat="43.20465" lon="5.49361">
        <ele>168.3</ele>
        <time>2025-10-19T10:12:45Z</time>
      </trkpt>
      <trkpt lat="43.20466" lon="5.49361">
        <ele>168.3</ele>
        <time>2025-10-19T10:12:46Z</time>
      </trkpt>
      <trkpt lat="43.20466" lon="5.4936">
        <ele>168.4</ele>
        <time>2025-10-19T10:12:47Z</time>
      </trkpt>
      <trkpt lat="43.20467" lon="5.4936">
        <ele>168.5</ele>
        <time>2025-10-19T10:12:48Z</time>
      </trkpt>
      <trkpt lat="43.20468" lon="5.49359">
        <ele>168.6</ele>
        <time>2025-10-19T10:12:49Z</time>
      </trkpt>
      <trkpt lat="43.20469" lon="5.49358">
        <ele>168.7</ele>
        <time>2025-10-19T10:12:50Z</time>
      </trkpt>
      <trkpt lat="43.20469" lon="5.49358">
        <ele>168.8</ele>
        <time>2025-10-19T10:12:51Z</time>
      </trkpt>
      <trkpt lat="43.2047" lon="5.49357">
        <ele>168.9</ele>
        <time>2025-10-19T10:12:52Z</time>
      </trkpt>
      <trkpt lat="43.20471" lon="5.49357">
        <ele>169</ele>
        <time>2025-10-19T10:12:53Z</time>
      </trkpt>
      <trkpt lat="43.20472" lon="5.49357">
        <ele>169.1</ele>
        <time>2025-10-19T10:12:54Z</time>
      </trkpt>
      <trkpt lat="43.20473" lon="5.49357">
        <ele>169.2</ele>
        <time>2025-10-19T10:12:55Z</time>
      </trkpt>
      <trkpt lat="43.20473" lon="5.49357">
        <ele>169.2</ele>
        <time>2025-10-19T10:12:56Z</time>
      </trkpt>
      <trkpt lat="43.20474" lon="5.49357">
        <ele>169.4</ele>
        <time>2025-10-19T10:12:57Z</time>
      </trkpt>
      <trkpt lat="43.20475" lon="5.49357">
        <ele>169.7</ele>
        <time>2025-10-19T10:12:58Z</time>
      </trkpt>
      <trkpt lat="43.20476" lon="5.49357">
        <ele>169.8</ele>
        <time>2025-10-19T10:12:59Z</time>
      </trkpt>
      <trkpt lat="43.20477" lon="5.49356">
        <ele>170</ele>
        <time>2025-10-19T10:13:00Z</time>
      </trkpt>
      <trkpt lat="43.20477" lon="5.49356">
        <ele>170.1</ele>
        <time>2025-10-19T10:13:01Z</time>
      </trkpt>
      <trkpt lat="43.20478" lon="5.49355">
        <ele>170.3</ele>
        <time>2025-10-19T10:13:02Z</time>
      </trkpt>
      <trkpt lat="43.20479" lon="5.49355">
        <ele>170.3</ele>
        <time>2025-10-19T10:13:03Z</time>
      </trkpt>
      <trkpt lat="43.20479" lon="5.49355">
        <ele>170.4</ele>
        <time>2025-10-19T10:13:04Z</time>
      </trkpt>
      <trkpt lat="43.2048" lon="5.49355">
        <ele>170.4</ele>
        <time>2025-10-19T10:13:05Z</time>
      </trkpt>
      <trkpt lat="43.20481" lon="5.49355">
        <ele>170.5</ele>
        <time>2025-10-19T10:13:06Z</time>
      </trkpt>
      <trkpt lat="43.20482" lon="5.49354">
        <ele>170.6</ele>
        <time>2025-10-19T10:13:07Z</time>
      </trkpt>
      <trkpt lat="43.20482" lon="5.49354">
        <ele>170.7</ele>
        <time>2025-10-19T10:13:08Z</time>
      </trkpt>
      <trkpt lat="43.20483" lon="5.49354">
        <ele>170.8</ele>
        <time>2025-10-19T10:13:09Z</time>
      </trkpt>
      <trkpt lat="43.20484" lon="5.49354">
        <ele>170.9</ele>
        <time>2025-10-19T10:13:10Z</time>
      </trkpt>
      <trkpt lat="43.20485" lon="5.49355">
        <ele>171.1</ele>
        <time>2025-10-19T10:13:11Z</time>
      </trkpt>
      <trkpt lat="43.20485" lon="5.49355">
        <ele>171.1</ele>
        <time>2025-10-19T10:13:12Z</time>
      </trkpt>
      <trkpt lat="43.20486" lon="5.49356">
        <ele>171.2</ele>
        <time>2025-10-19T10:13:13Z</time>
      </trkpt>
      <trkpt lat="43.20487" lon="5.49356">
        <ele>171.3</ele>
        <time>2025-10-19T10:13:14Z</time>
      </trkpt>
      <trkpt lat="43.20488" lon="5.49357">
        <ele>171.3</ele>
        <time>2025-10-19T10:13:15Z</time>
      </trkpt>
      <trkpt lat="43.20488" lon="5.49357">
        <ele>171.5</ele>
        <time>2025-10-19T10:13:16Z</time>
      </trkpt>
      <trkpt lat="43.20489" lon="5.49357">
        <ele>171.5</ele>
        <time>2025-10-19T10:13:17Z</time>
      </trkpt>
      <trkpt lat="43.20489" lon="5.49357">
        <ele>171.6</ele>
        <time>2025-10-19T10:13:18Z</time>
      </trkpt>
      <trkpt lat="43.2049" lon="5.49357">
        <ele>171.6</ele>
        <time>2025-10-19T10:13:19Z</time>
      </trkpt>
      <trkpt lat="43.20491" lon="5.49357">
        <ele>171.7</ele>
        <time>2025-10-19T10:13:20Z</time>
      </trkpt>
      <trkpt lat="43.20492" lon="5.49357">
        <ele>171.8</ele>
        <time>2025-10-19T10:13:21Z</time>
      </trkpt>
      <trkpt lat="43.20492" lon="5.49356">
        <ele>172</ele>
        <time>2025-10-19T10:13:22Z</time>
      </trkpt>
      <trkpt lat="43.20493" lon="5.49356">
        <ele>172</ele>
        <time>2025-10-19T10:13:23Z</time>
      </trkpt>
      <trkpt lat="43.20494" lon="5.49356">
        <ele>172.1</ele>
        <time>2025-10-19T10:13:24Z</time>
      </trkpt>
      <trkpt lat="43.20495" lon="5.49355">
        <ele>172.1</ele>
        <time>2025-10-19T10:13:25Z</time>
      </trkpt>
      <trkpt lat="43.20496" lon="5.49355">
        <ele>172.1</ele>
        <time>2025-10-19T10:13:26Z</time>
      </trkpt>
      <trkpt lat="43.20497" lon="5.49355">
        <ele>172.1</ele>
        <time>2025-10-19T10:13:27Z</time>
      </trkpt>
      <trkpt lat="43.20497" lon="5.49355">
        <ele>172.2</ele>
        <time>2025-10-19T10:13:28Z</time>
      </trkpt>
      <trkpt lat="43.20498" lon="5.49355">
        <ele>172.2</ele>
        <time>2025-10-19T10:13:29Z</time>
      </trkpt>
      <trkpt lat="43.20499" lon="5.49356">
        <ele>172.3</ele>
        <time>2025-10-19T10:13:30Z</time>
      </trkpt>
      <trkpt lat="43.205" lon="5.49356">
        <ele>172.3</ele>
        <time>2025-10-19T10:13:31Z</time>
      </trkpt>
      <trkpt lat="43.20501" lon="5.49356">
        <ele>172.3</ele>
        <time>2025-10-19T10:13:32Z</time>
      </trkpt>
      <trkpt lat="43.20502" lon="5.49357">
        <ele>172.3</ele>
        <time>2025-10-19T10:13:33Z</time>
      </trkpt>
      <trkpt lat="43.20503" lon="5.49357">
        <ele>172.2</ele>
        <time>2025-10-19T10:13:34Z</time>
      </trkpt>
      <trkpt lat="43.20504" lon="5.49357">
        <ele>172.2</ele>
        <time>2025-10-19T10:13:35Z</time>
      </trkpt>
      <trkpt lat="43.20505" lon="5.49357">
        <ele>172.1</ele>
        <time>2025-10-19T10:13:36Z</time>
      </trkpt>
      <trkpt lat="43.20505" lon="5.49357">
        <ele>172.1</ele>
        <time>2025-10-19T10:13:37Z</time>
      </trkpt>
      <trkpt lat="43.20506" lon="5.49358">
        <ele>172.1</ele>
        <time>2025-10-19T10:13:38Z</time>
      </trkpt>
      <trkpt lat="43.20507" lon="5.49358">
        <ele>172.1</ele>
        <time>2025-10-19T10:13:39Z</time>
      </trkpt>
      <trkpt lat="43.20508" lon="5.49358">
        <ele>172.1</ele>
        <time>2025-10-19T10:13:40Z</time>
      </trkpt>
      <trkpt lat="43.20509" lon="5.49358">
        <ele>172.1</ele>
        <time>2025-10-19T10:13:41Z</time>
      </trkpt>
      <trkpt lat="43.2051" lon="5.49359">
        <ele>172.2</ele>
        <time>2025-10-19T10:13:42Z</time>
      </trkpt>
      <trkpt lat="43.20511" lon="5.49359">
        <ele>172.2</ele>
        <time>2025-10-19T10:13:43Z</time>
      </trkpt>
      <trkpt lat="43.20511" lon="5.49359">
        <ele>172.2</ele>
        <time>2025-10-19T10:13:44Z</time>
      </trkpt>
      <trkpt lat="43.20512" lon="5.4936">
        <ele>172.2</ele>
        <time>2025-10-19T10:13:45Z</time>
      </trkpt>
      <trkpt lat="43.20513" lon="5.4936">
        <ele>172.1</ele>
        <time>2025-10-19T10:13:46Z</time>
      </trkpt>
      <trkpt lat="43.20514" lon="5.4936">
        <ele>172.1</ele>
        <time>2025-10-19T10:13:47Z</time>
      </trkpt>
      <trkpt lat="43.20515" lon="5.4936">
        <ele>172.1</ele>
        <time>2025-10-19T10:13:48Z</time>
      </trkpt>
      <trkpt lat="43.20516" lon="5.4936">
        <ele>172.1</ele>
        <time>2025-10-19T10:13:49Z</time>
      </trkpt>
      <trkpt lat="43.20517" lon="5.49361">
        <ele>172.2</ele>
        <time>2025-10-19T10:13:50Z</time>
      </trkpt>
      <trkpt lat="43.20518" lon="5.49361">
        <ele>172.2</ele>
        <time>2025-10-19T10:13:51Z</time>
      </trkpt>
      <trkpt lat="43.2052" lon="5.49361">
        <ele>172.2</ele>
        <time>2025-10-19T10:13:52Z</time>
      </trkpt>
      <trkpt lat="43.20521" lon="5.49361">
        <ele>172.2</ele>
        <time>2025-10-19T10:13:53Z</time>
      </trkpt>
      <trkpt lat="43.20522" lon="5.49361">
        <ele>172.2</ele>
        <time>2025-10-19T10:13:54Z</time>
      </trkpt>
      <trkpt lat="43.20523" lon="5.49361">
        <ele>172.2</ele>
        <time>2025-10-19T10:13:55Z</time>
      </trkpt>
      <trkpt lat="43.20524" lon="5.49362">
        <ele>172.3</ele>
        <time>2025-10-19T10:13:56Z</time>
      </trkpt>
      <trkpt lat="43.20525" lon="5.49362">
        <ele>172.3</ele>
        <time>2025-10-19T10:13:57Z</time>
      </trkpt>
      <trkpt lat="43.20526" lon="5.49362">
        <ele>172.4</ele>
        <time>2025-10-19T10:13:58Z</time>
      </trkpt>
      <trkpt lat="43.20527" lon="5.49362">
        <ele>172.4</ele>
        <time>2025-10-19T10:13:59Z</time>
      </trkpt>
      <trkpt lat="43.20529" lon="5.49362">
        <ele>172.4</ele>
        <time>2025-10-19T10:14:00Z</time>
      </trkpt>
      <trkpt lat="43.2053" lon="5.49362">
        <ele>172.4</ele>
        <time>2025-10-19T10:14:01Z</time>
      </trkpt>
      <trkpt lat="43.20531" lon="5.49362">
        <ele>172.4</ele>
        <time>2025-10-19T10:14:02Z</time>
      </trkpt>
      <trkpt lat="43.20532" lon="5.49362">
        <ele>172.4</ele>
        <time>2025-10-19T10:14:03Z</time>
      </trkpt>
      <trkpt lat="43.20533" lon="5.49362">
        <ele>172.4</ele>
        <time>2025-10-19T10:14:04Z</time>
      </trkpt>
      <trkpt lat="43.20534" lon="5.49362">
        <ele>172.4</ele>
        <time>2025-10-19T10:14:05Z</time>
      </trkpt>
      <trkpt lat="43.20534" lon="5.49363">
        <ele>172.4</ele>
        <time>2025-10-19T10:14:06Z</time>
      </trkpt>
      <trkpt lat="43.20535" lon="5.49363">
        <ele>172.4</ele>
        <time>2025-10-19T10:14:07Z</time>
      </trkpt>
      <trkpt lat="43.20536" lon="5.49363">
        <ele>172.4</ele>
        <time>2025-10-19T10:14:08Z</time>
      </trkpt>
      <trkpt lat="43.20537" lon="5.49363">
        <ele>172.3</ele>
        <time>2025-10-19T10:14:09Z</time>
      </trkpt>
      <trkpt lat="43.20538" lon="5.49363">
        <ele>172.2</ele>
        <time>2025-10-19T10:14:10Z</time>
      </trkpt>
      <trkpt lat="43.20539" lon="5.49363">
        <ele>172.2</ele>
        <time>2025-10-19T10:14:11Z</time>
      </trkpt>
      <trkpt lat="43.2054" lon="5.49363">
        <ele>172.1</ele>
        <time>2025-10-19T10:14:12Z</time>
      </trkpt>
      <trkpt lat="43.20541" lon="5.49363">
        <ele>172.2</ele>
        <time>2025-10-19T10:14:13Z</time>
      </trkpt>
      <trkpt lat="43.20542" lon="5.49362">
        <ele>172.2</ele>
        <time>2025-10-19T10:14:14Z</time>
      </trkpt>
      <trkpt lat="43.20543" lon="5.49362">
        <ele>172.1</ele>
        <time>2025-10-19T10:14:15Z</time>
      </trkpt>
      <trkpt lat="43.20544" lon="5.49362">
        <ele>172.1</ele>
        <time>2025-10-19T10:14:16Z</time>
      </trkpt>
      <trkpt lat="43.20545" lon="5.49362">
        <ele>172.1</ele>
        <time>2025-10-19T10:14:17Z</time>
      </trkpt>
      <trkpt lat="43.20546" lon="5.49362">
        <ele>172.2</ele>
        <time>2025-10-19T10:14:18Z</time>
      </trkpt>
      <trkpt lat="43.20547" lon="5.49362">
        <ele>172.1</ele>
        <time>2025-10-19T10:14:19Z</time>
      </trkpt>
      <trkpt lat="43.20548" lon="5.49362">
        <ele>171.9</ele>
        <time>2025-10-19T10:14:20Z</time>
      </trkpt>
      <trkpt lat="43.20549" lon="5.49362">
        <ele>171.8</ele>
        <time>2025-10-19T10:14:21Z</time>
      </trkpt>
      <trkpt lat="43.2055" lon="5.49362">
        <ele>171.8</ele>
        <time>2025-10-19T10:14:22Z</time>
      </trkpt>
      <trkpt lat="43.2055" lon="5.49361">
        <ele>171.7</ele>
        <time>2025-10-19T10:14:23Z</time>
      </trkpt>
      <trkpt lat="43.20551" lon="5.49361">
        <ele>171.7</ele>
        <time>2025-10-19T10:14:24Z</time>
      </trkpt>
      <trkpt lat="43.20552" lon="5.49361">
        <ele>171.7</ele>
        <time>2025-10-19T10:14:25Z</time>
      </trkpt>
      <trkpt lat="43.20553" lon="5.49361">
        <ele>171.8</ele>
        <time>2025-10-19T10:14:26Z</time>
      </trkpt>
      <trkpt lat="43.20554" lon="5.49361">
        <ele>171.8</ele>
        <time>2025-10-19T10:14:27Z</time>
      </trkpt>
      <trkpt lat="43.20555" lon="5.49361">
        <ele>171.8</ele>
        <time>2025-10-19T10:14:28Z</time>
      </trkpt>
      <trkpt lat="43.20556" lon="5.49361">
        <ele>171.9</ele>
        <time>2025-10-19T10:14:29Z</time>
      </trkpt>
      <trkpt lat="43.20556" lon="5.49361">
        <ele>171.9</ele>
        <time>2025-10-19T10:14:30Z</time>
      </trkpt>
      <trkpt lat="43.20558" lon="5.49362">
        <ele>171.9</ele>
        <time>2025-10-19T10:14:31Z</time>
      </trkpt>
      <trkpt lat="43.20559" lon="5.49362">
        <ele>171.9</ele>
        <time>2025-10-19T10:14:32Z</time>
      </trkpt>
      <trkpt lat="43.20559" lon="5.49362">
        <ele>171.9</ele>
        <time>2025-10-19T10:14:33Z</time>
      </trkpt>
      <trkpt lat="43.2056" lon="5.49361">
        <ele>172</ele>
        <time>2025-10-19T10:14:34Z</time>
      </trkpt>
      <trkpt lat="43.20561" lon="5.49361">
        <ele>172</ele>
        <time>2025-10-19T10:14:35Z</time>
      </trkpt>
      <trkpt lat="43.20562" lon="5.49361">
        <ele>171.9</ele>
        <time>2025-10-19T10:14:36Z</time>
      </trkpt>
      <trkpt lat="43.20562" lon="5.49361">
        <ele>171.9</ele>
        <time>2025-10-19T10:14:37Z</time>
      </trkpt>
      <trkpt lat="43.20563" lon="5.49361">
        <ele>171.9</ele>
        <time>2025-10-19T10:14:38Z</time>
      </trkpt>
      <trkpt lat="43.20564" lon="5.49361">
        <ele>171.9</ele>
        <time>2025-10-19T10:14:39Z</time>
      </trkpt>
      <trkpt lat="43.20565" lon="5.49361">
        <ele>171.9</ele>
        <time>2025-10-19T10:14:40Z</time>
      </trkpt>
      <trkpt lat="43.20566" lon="5.49361">
        <ele>171.9</ele>
        <time>2025-10-19T10:14:41Z</time>
      </trkpt>
      <trkpt lat="43.20567" lon="5.4936">
        <ele>171.9</ele>
        <time>2025-10-19T10:14:42Z</time>
      </trkpt>
      <trkpt lat="43.20568" lon="5.4936">
        <ele>171.9</ele>
        <time>2025-10-19T10:14:43Z</time>
      </trkpt>
      <trkpt lat="43.20569" lon="5.4936">
        <ele>171.9</ele>
        <time>2025-10-19T10:14:44Z</time>
      </trkpt>
      <trkpt lat="43.20569" lon="5.4936">
        <ele>171.8</ele>
        <time>2025-10-19T10:14:45Z</time>
      </trkpt>
      <trkpt lat="43.2057" lon="5.4936">
        <ele>171.8</ele>
        <time>2025-10-19T10:14:46Z</time>
      </trkpt>
      <trkpt lat="43.20571" lon="5.4936">
        <ele>171.8</ele>
        <time>2025-10-19T10:14:47Z</time>
      </trkpt>
      <trkpt lat="43.20572" lon="5.4936">
        <ele>171.8</ele>
        <time>2025-10-19T10:14:48Z</time>
      </trkpt>
      <trkpt lat="43.20573" lon="5.4936">
        <ele>171.7</ele>
        <time>2025-10-19T10:14:49Z</time>
      </trkpt>
      <trkpt lat="43.20574" lon="5.4936">
        <ele>171.7</ele>
        <time>2025-10-19T10:14:50Z</time>
      </trkpt>
      <trkpt lat="43.20575" lon="5.49359">
        <ele>171.6</ele>
        <time>2025-10-19T10:14:51Z</time>
      </trkpt>
      <trkpt lat="43.20576" lon="5.49359">
        <ele>171.6</ele>
        <time>2025-10-19T10:14:52Z</time>
      </trkpt>
      <trkpt lat="43.20576" lon="5.49359">
        <ele>171.6</ele>
        <time>2025-10-19T10:14:53Z</time>
      </trkpt>
      <trkpt lat="43.20577" lon="5.49359">
        <ele>171.5</ele>
        <time>2025-10-19T10:14:54Z</time>
      </trkpt>
      <trkpt lat="43.20578" lon="5.49359">
        <ele>171.5</ele>
        <time>2025-10-19T10:14:55Z</time>
      </trkpt>
      <trkpt lat="43.20579" lon="5.49359">
        <ele>171.5</ele>
        <time>2025-10-19T10:14:56Z</time>
      </trkpt>
      <trkpt lat="43.2058" lon="5.49359">
        <ele>171.5</ele>
        <time>2025-10-19T10:14:57Z</time>
      </trkpt>
      <trkpt lat="43.20581" lon="5.49358">
        <ele>171.5</ele>
        <time>2025-10-19T10:14:58Z</time>
      </trkpt>
      <trkpt lat="43.20583" lon="5.49358">
        <ele>171.4</ele>
        <time>2025-10-19T10:14:59Z</time>
      </trkpt>
      <trkpt lat="43.20584" lon="5.49358">
        <ele>171.3</ele>
        <time>2025-10-19T10:15:00Z</time>
      </trkpt>
      <trkpt lat="43.20585" lon="5.49358">
        <ele>171.2</ele>
        <time>2025-10-19T10:15:01Z</time>
      </trkpt>
      <trkpt lat="43.20586" lon="5.49357">
        <ele>171</ele>
        <time>2025-10-19T10:15:02Z</time>
      </trkpt>
      <trkpt lat="43.20587" lon="5.49357">
        <ele>170.9</ele>
        <time>2025-10-19T10:15:03Z</time>
      </trkpt>
      <trkpt lat="43.20588" lon="5.49357">
        <ele>170.8</ele>
        <time>2025-10-19T10:15:04Z</time>
      </trkpt>
      <trkpt lat="43.20589" lon="5.49356">
        <ele>170.8</ele>
        <time>2025-10-19T10:15:05Z</time>
      </trkpt>
      <trkpt lat="43.2059" lon="5.49355">
        <ele>170.7</ele>
        <time>2025-10-19T10:15:06Z</time>
      </trkpt>
      <trkpt lat="43.20591" lon="5.49355">
        <ele>170.7</ele>
        <time>2025-10-19T10:15:07Z</time>
      </trkpt>
      <trkpt lat="43.20591" lon="5.49355">
        <ele>170.6</ele>
        <time>2025-10-19T10:15:08Z</time>
      </trkpt>
      <trkpt lat="43.20592" lon="5.49355">
        <ele>170.6</ele>
        <time>2025-10-19T10:15:09Z</time>
      </trkpt>
      <trkpt lat="43.20593" lon="5.49355">
        <ele>170.6</ele>
        <time>2025-10-19T10:15:10Z</time>
      </trkpt>
      <trkpt lat="43.20594" lon="5.49354">
        <ele>170.5</ele>
        <time>2025-10-19T10:15:11Z</time>
      </trkpt>
      <trkpt lat="43.20595" lon="5.49354">
        <ele>170.4</ele>
        <time>2025-10-19T10:15:12Z</time>
      </trkpt>
      <trkpt lat="43.20595" lon="5.49354">
        <ele>170.3</ele>
        <time>2025-10-19T10:15:13Z</time>
      </trkpt>
      <trkpt lat="43.20596" lon="5.49354">
        <ele>170.2</ele>
        <time>2025-10-19T10:15:14Z</time>
      </trkpt>
      <trkpt lat="43.20597" lon="5.49353">
        <ele>170.1</ele>
        <time>2025-10-19T10:15:15Z</time>
      </trkpt>
      <trkpt lat="43.20598" lon="5.49353">
        <ele>170.1</ele>
        <time>2025-10-19T10:15:16Z</time>
      </trkpt>
      <trkpt lat="43.20599" lon="5.49352">
        <ele>170</ele>
        <time>2025-10-19T10:15:17Z</time>
      </trkpt>
      <trkpt lat="43.206" lon="5.49352">
        <ele>169.9</ele>
        <time>2025-10-19T10:15:18Z</time>
      </trkpt>
      <trkpt lat="43.206" lon="5.49352">
        <ele>169.8</ele>
        <time>2025-10-19T10:15:19Z</time>
      </trkpt>
      <trkpt lat="43.20601" lon="5.49351">
        <ele>169.7</ele>
        <time>2025-10-19T10:15:20Z</time>
      </trkpt>
      <trkpt lat="43.20602" lon="5.49351">
        <ele>169.7</ele>
        <time>2025-10-19T10:15:21Z</time>
      </trkpt>
      <trkpt lat="43.20603" lon="5.4935">
        <ele>169.6</ele>
        <time>2025-10-19T10:15:22Z</time>
      </trkpt>
      <trkpt lat="43.20604" lon="5.4935">
        <ele>169.5</ele>
        <time>2025-10-19T10:15:23Z</time>
      </trkpt>
      <trkpt lat="43.20605" lon="5.4935">
        <ele>169.5</ele>
        <time>2025-10-19T10:15:24Z</time>
      </trkpt>
      <trkpt lat="43.20606" lon="5.49349">
        <ele>169.5</ele>
        <time>2025-10-19T10:15:25Z</time>
      </trkpt>
      <trkpt lat="43.20606" lon="5.49349">
        <ele>169.4</ele>
        <time>2025-10-19T10:15:26Z</time>
      </trkpt>
      <trkpt lat="43.20607" lon="5.49349">
        <ele>169.4</ele>
        <time>2025-10-19T10:15:27Z</time>
      </trkpt>
      <trkpt lat="43.20608" lon="5.49349">
        <ele>169.2</ele>
        <time>2025-10-19T10:15:28Z</time>
      </trkpt>
      <trkpt lat="43.20609" lon="5.49349">
        <ele>169.1</ele>
        <time>2025-10-19T10:15:29Z</time>
      </trkpt>
      <trkpt lat="43.2061" lon="5.49348">
        <ele>169.1</ele>
        <time>2025-10-19T10:15:30Z</time>
      </trkpt>
      <trkpt lat="43.20611" lon="5.49348">
        <ele>169</ele>
        <time>2025-10-19T10:15:31Z</time>
      </trkpt>
      <trkpt lat="43.20611" lon="5.49347">
        <ele>168.9</ele>
        <time>2025-10-19T10:15:32Z</time>
      </trkpt>
      <trkpt lat="43.20612" lon="5.49348">
        <ele>168.9</ele>
        <time>2025-10-19T10:15:33Z</time>
      </trkpt>
      <trkpt lat="43.20614" lon="5.49348">
        <ele>168.8</ele>
        <time>2025-10-19T10:15:34Z</time>
      </trkpt>
      <trkpt lat="43.20615" lon="5.49348">
        <ele>168.7</ele>
        <time>2025-10-19T10:15:35Z</time>
      </trkpt>
      <trkpt lat="43.20616" lon="5.49348">
        <ele>168.7</ele>
        <time>2025-10-19T10:15:36Z</time>
      </trkpt>
      <trkpt lat="43.20617" lon="5.49348">
        <ele>168.7</ele>
        <time>2025-10-19T10:15:37Z</time>
      </trkpt>
      <trkpt lat="43.20618" lon="5.49348">
        <ele>168.7</ele>
        <time>2025-10-19T10:15:38Z</time>
      </trkpt>
      <trkpt lat="43.20619" lon="5.49348">
        <ele>168.7</ele>
        <time>2025-10-19T10:15:39Z</time>
      </trkpt>
      <trkpt lat="43.2062" lon="5.49349">
        <ele>168.6</ele>
        <time>2025-10-19T10:15:40Z</time>
      </trkpt>
      <trkpt lat="43.20621" lon="5.49349">
        <ele>168.6</ele>
        <time>2025-10-19T10:15:41Z</time>
      </trkpt>
      <trkpt lat="43.20621" lon="5.49349">
        <ele>168.5</ele>
        <time>2025-10-19T10:15:42Z</time>
      </trkpt>
      <trkpt lat="43.20622" lon="5.49349">
        <ele>168.4</ele>
        <time>2025-10-19T10:15:43Z</time>
      </trkpt>
      <trkpt lat="43.20622" lon="5.49349">
        <ele>168.4</ele>
        <time>2025-10-19T10:15:44Z</time>
      </trkpt>
      <trkpt lat="43.20623" lon="5.49349">
        <ele>168.3</ele>
        <time>2025-10-19T10:15:45Z</time>
      </trkpt>
      <trkpt lat="43.20623" lon="5.49348">
        <ele>168.2</ele>
        <time>2025-10-19T10:15:46Z</time>
      </trkpt>
      <trkpt lat="43.20624" lon="5.49348">
        <ele>168.2</ele>
        <time>2025-10-19T10:15:47Z</time>
      </trkpt>
      <trkpt lat="43.20625" lon="5.49348">
        <ele>168.1</ele>
        <time>2025-10-19T10:15:48Z</time>
      </trkpt>
      <trkpt lat="43.20626" lon="5.49349">
        <ele>168.1</ele>
        <time>2025-10-19T10:15:49Z</time>
      </trkpt>
      <trkpt lat="43.20627" lon="5.49349">
        <ele>167.9</ele>
        <time>2025-10-19T10:15:50Z</time>
      </trkpt>
      <trkpt lat="43.20628" lon="5.49349">
        <ele>167.9</ele>
        <time>2025-10-19T10:15:51Z</time>
      </trkpt>
      <trkpt lat="43.20629" lon="5.49348">
        <ele>167.9</ele>
        <time>2025-10-19T10:15:52Z</time>
      </trkpt>
      <trkpt lat="43.2063" lon="5.49348">
        <ele>167.8</ele>
        <time>2025-10-19T10:15:53Z</time>
      </trkpt>
      <trkpt lat="43.20631" lon="5.49348">
        <ele>167.7</ele>
        <time>2025-10-19T10:15:54Z</time>
      </trkpt>
      <trkpt lat="43.20632" lon="5.49348">
        <ele>167.6</ele>
        <time>2025-10-19T10:15:55Z</time>
      </trkpt>
      <trkpt lat="43.20633" lon="5.49349">
        <ele>167.5</ele>
        <time>2025-10-19T10:15:56Z</time>
      </trkpt>
      <trkpt lat="43.20634" lon="5.49349">
        <ele>167.4</ele>
        <time>2025-10-19T10:15:57Z</time>
      </trkpt>
      <trkpt lat="43.20635" lon="5.49349">
        <ele>167.3</ele>
        <time>2025-10-19T10:15:58Z</time>
      </trkpt>
      <trkpt lat="43.20636" lon="5.49349">
        <ele>167.2</ele>
        <time>2025-10-19T10:15:59Z</time>
      </trkpt>
      <trkpt lat="43.20637" lon="5.49348">
        <ele>167.2</ele>
        <time>2025-10-19T10:16:00Z</time>
      </trkpt>
      <trkpt lat="43.20638" lon="5.49348">
        <ele>167</ele>
        <time>2025-10-19T10:16:01Z</time>
      </trkpt>
      <trkpt lat="43.2064" lon="5.49348">
        <ele>166.8</ele>
        <time>2025-10-19T10:16:02Z</time>
      </trkpt>
      <trkpt lat="43.20641" lon="5.49348">
        <ele>166.7</ele>
        <time>2025-10-19T10:16:03Z</time>
      </trkpt>
      <trkpt lat="43.20642" lon="5.49349">
        <ele>166.6</ele>
        <time>2025-10-19T10:16:04Z</time>
      </trkpt>
      <trkpt lat="43.20643" lon="5.49349">
        <ele>166.5</ele>
        <time>2025-10-19T10:16:05Z</time>
      </trkpt>
      <trkpt lat="43.20644" lon="5.49349">
        <ele>166.4</ele>
        <time>2025-10-19T10:16:06Z</time>
      </trkpt>
      <trkpt lat="43.20645" lon="5.49349">
        <ele>166.3</ele>
        <time>2025-10-19T10:16:07Z</time>
      </trkpt>
      <trkpt lat="43.20646" lon="5.49349">
        <ele>166.3</ele>
        <time>2025-10-19T10:16:08Z</time>
      </trkpt>
      <trkpt lat="43.20646" lon="5.49349">
        <ele>166.1</ele>
        <time>2025-10-19T10:16:09Z</time>
      </trkpt>
      <trkpt lat="43.20647" lon="5.49349">
        <ele>165.9</ele>
        <time>2025-10-19T10:16:10Z</time>
      </trkpt>
      <trkpt lat="43.20648" lon="5.4935">
        <ele>165.9</ele>
        <time>2025-10-19T10:16:11Z</time>
      </trkpt>
      <trkpt lat="43.2065" lon="5.49349">
        <ele>165.8</ele>
        <time>2025-10-19T10:16:12Z</time>
      </trkpt>
      <trkpt lat="43.20651" lon="5.49349">
        <ele>165.7</ele>
        <time>2025-10-19T10:16:13Z</time>
      </trkpt>
      <trkpt lat="43.20652" lon="5.49349">
        <ele>165.7</ele>
        <time>2025-10-19T10:16:14Z</time>
      </trkpt>
      <trkpt lat="43.20654" lon="5.4935">
        <ele>165.7</ele>
        <time>2025-10-19T10:16:15Z</time>
      </trkpt>
      <trkpt lat="43.20654" lon="5.4935">
        <ele>165.7</ele>
        <time>2025-10-19T10:16:16Z</time>
      </trkpt>
      <trkpt lat="43.20655" lon="5.4935">
        <ele>165.6</ele>
        <time>2025-10-19T10:16:17Z</time>
      </trkpt>
      <trkpt lat="43.20656" lon="5.49349">
        <ele>165.6</ele>
        <time>2025-10-19T10:16:18Z</time>
      </trkpt>
      <trkpt lat="43.20657" lon="5.49349">
        <ele>165.5</ele>
        <time>2025-10-19T10:16:19Z</time>
      </trkpt>
      <trkpt lat="43.20658" lon="5.49349">
        <ele>165.5</ele>
        <time>2025-10-19T10:16:20Z</time>
      </trkpt>
      <trkpt lat="43.2066" lon="5.49349">
        <ele>165.4</ele>
        <time>2025-10-19T10:16:21Z</time>
      </trkpt>
      <trkpt lat="43.20661" lon="5.49349">
        <ele>165.3</ele>
        <time>2025-10-19T10:16:22Z</time>
      </trkpt>
      <trkpt lat="43.20662" lon="5.49349">
        <ele>165.2</ele>
        <time>2025-10-19T10:16:23Z</time>
      </trkpt>
      <trkpt lat="43.20663" lon="5.49349">
        <ele>165.1</ele>
        <time>2025-10-19T10:16:24Z</time>
      </trkpt>
      <trkpt lat="43.20664" lon="5.49349">
        <ele>165.1</ele>
        <time>2025-10-19T10:16:25Z</time>
      </trkpt>
      <trkpt lat="43.20665" lon="5.49349">
        <ele>165.1</ele>
        <time>2025-10-19T10:16:26Z</time>
      </trkpt>
      <trkpt lat="43.20666" lon="5.49349">
        <ele>165.1</ele>
        <time>2025-10-19T10:16:27Z</time>
      </trkpt>
      <trkpt lat="43.20668" lon="5.49349">
        <ele>165</ele>
        <time>2025-10-19T10:16:28Z</time>
      </trkpt>
      <trkpt lat="43.20669" lon="5.49349">
        <ele>164.9</ele>
        <time>2025-10-19T10:16:29Z</time>
      </trkpt>
      <trkpt lat="43.2067" lon="5.49349">
        <ele>164.9</ele>
        <time>2025-10-19T10:16:30Z</time>
      </trkpt>
      <trkpt lat="43.20672" lon="5.49348">
        <ele>164.8</ele>
        <time>2025-10-19T10:16:31Z</time>
      </trkpt>
      <trkpt lat="43.20673" lon="5.49348">
        <ele>164.7</ele>
        <time>2025-10-19T10:16:32Z</time>
      </trkpt>
      <trkpt lat="43.20674" lon="5.49348">
        <ele>164.7</ele>
        <time>2025-10-19T10:16:33Z</time>
      </trkpt>
      <trkpt lat="43.20676" lon="5.49348">
        <ele>164.6</ele>
        <time>2025-10-19T10:16:34Z</time>
      </trkpt>
      <trkpt lat="43.20677" lon="5.49348">
        <ele>164.5</ele>
        <time>2025-10-19T10:16:35Z</time>
      </trkpt>
      <trkpt lat="43.20678" lon="5.49348">
        <ele>164.5</ele>
        <time>2025-10-19T10:16:36Z</time>
      </trkpt>
      <trkpt lat="43.20679" lon="5.49348">
        <ele>164.4</ele>
        <time>2025-10-19T10:16:37Z</time>
      </trkpt>
      <trkpt lat="43.20681" lon="5.49348">
        <ele>164.2</ele>
        <time>2025-10-19T10:16:38Z</time>
      </trkpt>
      <trkpt lat="43.20681" lon="5.49348">
        <ele>164.2</ele>
        <time>2025-10-19T10:16:39Z</time>
      </trkpt>
      <trkpt lat="43.20682" lon="5.49348">
        <ele>164.1</ele>
        <time>2025-10-19T10:16:40Z</time>
      </trkpt>
      <trkpt lat="43.20683" lon="5.49348">
        <ele>164.1</ele>
        <time>2025-10-19T10:16:41Z</time>
      </trkpt>
      <trkpt lat="43.20684" lon="5.49347">
        <ele>164.1</ele>
        <time>2025-10-19T10:16:42Z</time>
      </trkpt>
      <trkpt lat="43.20685" lon="5.49347">
        <ele>164.1</ele>
        <time>2025-10-19T10:16:43Z</time>
      </trkpt>
      <trkpt lat="43.20686" lon="5.49347">
        <ele>164.1</ele>
        <time>2025-10-19T10:16:44Z</time>
      </trkpt>
      <trkpt lat="43.20688" lon="5.49347">
        <ele>164.1</ele>
        <time>2025-10-19T10:16:45Z</time>
      </trkpt>
      <trkpt lat="43.20689" lon="5.49347">
        <ele>164.1</ele>
        <time>2025-10-19T10:16:46Z</time>
      </trkpt>
      <trkpt lat="43.20689" lon="5.49347">
        <ele>164.1</ele>
        <time>2025-10-19T10:16:47Z</time>
      </trkpt>
      <trkpt lat="43.2069" lon="5.49347">
        <ele>164.2</ele>
        <time>2025-10-19T10:16:48Z</time>
      </trkpt>
      <trkpt lat="43.20691" lon="5.49346">
        <ele>164.3</ele>
        <time>2025-10-19T10:16:49Z</time>
      </trkpt>
      <trkpt lat="43.20692" lon="5.49346">
        <ele>164.4</ele>
        <time>2025-10-19T10:16:50Z</time>
      </trkpt>
      <trkpt lat="43.20694" lon="5.49346">
        <ele>164.5</ele>
        <time>2025-10-19T10:16:51Z</time>
      </trkpt>
      <trkpt lat="43.20695" lon="5.49346">
        <ele>164.5</ele>
        <time>2025-10-19T10:16:52Z</time>
      </trkpt>
      <trkpt lat="43.20697" lon="5.49345">
        <ele>164.5</ele>
        <time>2025-10-19T10:16:53Z</time>
      </trkpt>
      <trkpt lat="43.20697" lon="5.49345">
        <ele>164.6</ele>
        <time>2025-10-19T10:16:54Z</time>
      </trkpt>
      <trkpt lat="43.20699" lon="5.49344">
        <ele>164.6</ele>
        <time>2025-10-19T10:16:55Z</time>
      </trkpt>
      <trkpt lat="43.207" lon="5.49343">
        <ele>164.6</ele>
        <time>2025-10-19T10:16:56Z</time>
      </trkpt>
      <trkpt lat="43.20701" lon="5.49343">
        <ele>164.6</ele>
        <time>2025-10-19T10:16:57Z</time>
      </trkpt>
      <trkpt lat="43.20702" lon="5.49343">
        <ele>164.7</ele>
        <time>2025-10-19T10:16:58Z</time>
      </trkpt>
      <trkpt lat="43.20703" lon="5.49343">
        <ele>164.7</ele>
        <time>2025-10-19T10:16:59Z</time>
      </trkpt>
      <trkpt lat="43.20704" lon="5.49343">
        <ele>164.8</ele>
        <time>2025-10-19T10:17:00Z</time>
      </trkpt>
      <trkpt lat="43.20705" lon="5.49343">
        <ele>164.8</ele>
        <time>2025-10-19T10:17:01Z</time>
      </trkpt>
      <trkpt lat="43.20705" lon="5.49343">
        <ele>164.9</ele>
        <time>2025-10-19T10:17:02Z</time>
      </trkpt>
      <trkpt lat="43.20706" lon="5.49343">
        <ele>165</ele>
        <time>2025-10-19T10:17:03Z</time>
      </trkpt>
      <trkpt lat="43.20707" lon="5.49343">
        <ele>165.1</ele>
        <time>2025-10-19T10:17:04Z</time>
      </trkpt>
      <trkpt lat="43.20708" lon="5.49343">
        <ele>165.1</ele>
        <time>2025-10-19T10:17:05Z</time>
      </trkpt>
      <trkpt lat="43.20709" lon="5.49343">
        <ele>165.1</ele>
        <time>2025-10-19T10:17:06Z</time>
      </trkpt>
      <trkpt lat="43.2071" lon="5.49343">
        <ele>165.1</ele>
        <time>2025-10-19T10:17:07Z</time>
      </trkpt>
      <trkpt lat="43.20712" lon="5.49343">
        <ele>165.1</ele>
        <time>2025-10-19T10:17:08Z</time>
      </trkpt>
      <trkpt lat="43.20713" lon="5.49342">
        <ele>165</ele>
        <time>2025-10-19T10:17:09Z</time>
      </trkpt>
      <trkpt lat="43.20714" lon="5.49342">
        <ele>165.1</ele>
        <time>2025-10-19T10:17:10Z</time>
      </trkpt>
      <trkpt lat="43.20716" lon="5.49341">
        <ele>165.2</ele>
        <time>2025-10-19T10:17:11Z</time>
      </trkpt>
      <trkpt lat="43.20717" lon="5.49341">
        <ele>165.3</ele>
        <time>2025-10-19T10:17:12Z</time>
      </trkpt>
      <trkpt lat="43.20718" lon="5.49341">
        <ele>165.4</ele>
        <time>2025-10-19T10:17:13Z</time>
      </trkpt>
      <trkpt lat="43.20719" lon="5.49341">
        <ele>165.5</ele>
        <time>2025-10-19T10:17:14Z</time>
      </trkpt>
      <trkpt lat="43.2072" lon="5.49341">
        <ele>165.7</ele>
        <time>2025-10-19T10:17:15Z</time>
      </trkpt>
      <trkpt lat="43.20721" lon="5.49341">
        <ele>165.7</ele>
        <time>2025-10-19T10:17:16Z</time>
      </trkpt>
      <trkpt lat="43.20722" lon="5.4934">
        <ele>165.8</ele>
        <time>2025-10-19T10:17:17Z</time>
      </trkpt>
      <trkpt lat="43.20723" lon="5.4934">
        <ele>165.9</ele>
        <time>2025-10-19T10:17:18Z</time>
      </trkpt>
      <trkpt lat="43.20724" lon="5.49341">
        <ele>166</ele>
        <time>2025-10-19T10:17:19Z</time>
      </trkpt>
      <trkpt lat="43.20725" lon="5.4934">
        <ele>166.1</ele>
        <time>2025-10-19T10:17:20Z</time>
      </trkpt>
      <trkpt lat="43.20726" lon="5.4934">
        <ele>166.3</ele>
        <time>2025-10-19T10:17:21Z</time>
      </trkpt>
      <trkpt lat="43.20727" lon="5.4934">
        <ele>166.4</ele>
        <time>2025-10-19T10:17:22Z</time>
      </trkpt>
      <trkpt lat="43.20728" lon="5.4934">
        <ele>166.6</ele>
        <time>2025-10-19T10:17:23Z</time>
      </trkpt>
      <trkpt lat="43.20728" lon="5.4934">
        <ele>166.7</ele>
        <time>2025-10-19T10:17:24Z</time>
      </trkpt>
      <trkpt lat="43.2073" lon="5.4934">
        <ele>166.8</ele>
        <time>2025-10-19T10:17:25Z</time>
      </trkpt>
      <trkpt lat="43.20731" lon="5.49339">
        <ele>166.9</ele>
        <time>2025-10-19T10:17:26Z</time>
      </trkpt>
      <trkpt lat="43.20732" lon="5.49339">
        <ele>167</ele>
        <time>2025-10-19T10:17:27Z</time>
      </trkpt>
      <trkpt lat="43.20733" lon="5.49339">
        <ele>167</ele>
        <time>2025-10-19T10:17:28Z</time>
      </trkpt>
      <trkpt lat="43.20733" lon="5.49339">
        <ele>167.1</ele>
        <time>2025-10-19T10:17:29Z</time>
      </trkpt>
      <trkpt lat="43.20734" lon="5.49339">
        <ele>167.1</ele>
        <time>2025-10-19T10:17:30Z</time>
      </trkpt>
      <trkpt lat="43.20735" lon="5.49338">
        <ele>167.2</ele>
        <time>2025-10-19T10:17:31Z</time>
      </trkpt>
      <trkpt lat="43.20736" lon="5.49338">
        <ele>167.2</ele>
        <time>2025-10-19T10:17:32Z</time>
      </trkpt>
      <trkpt lat="43.20737" lon="5.49338">
        <ele>167.3</ele>
        <time>2025-10-19T10:17:33Z</time>
      </trkpt>
      <trkpt lat="43.20738" lon="5.49338">
        <ele>167.4</ele>
        <time>2025-10-19T10:17:34Z</time>
      </trkpt>
      <trkpt lat="43.20739" lon="5.49338">
        <ele>167.4</ele>
        <time>2025-10-19T10:17:35Z</time>
      </trkpt>
      <trkpt lat="43.20739" lon="5.49338">
        <ele>167.4</ele>
        <time>2025-10-19T10:17:36Z</time>
      </trkpt>
      <trkpt lat="43.2074" lon="5.49338">
        <ele>167.6</ele>
        <time>2025-10-19T10:17:37Z</time>
      </trkpt>
      <trkpt lat="43.20742" lon="5.49338">
        <ele>167.8</ele>
        <time>2025-10-19T10:17:38Z</time>
      </trkpt>
      <trkpt lat="43.20742" lon="5.49338">
        <ele>167.9</ele>
        <time>2025-10-19T10:17:39Z</time>
      </trkpt>
      <trkpt lat="43.20744" lon="5.49338">
        <ele>168</ele>
        <time>2025-10-19T10:17:40Z</time>
      </trkpt>
      <trkpt lat="43.20745" lon="5.49337">
        <ele>168.1</ele>
        <time>2025-10-19T10:17:41Z</time>
      </trkpt>
      <trkpt lat="43.20746" lon="5.49337">
        <ele>168.2</ele>
        <time>2025-10-19T10:17:42Z</time>
      </trkpt>
      <trkpt lat="43.20748" lon="5.49337">
        <ele>168.2</ele>
        <time>2025-10-19T10:17:43Z</time>
      </trkpt>
      <trkpt lat="43.20749" lon="5.49337">
        <ele>168.2</ele>
        <time>2025-10-19T10:17:44Z</time>
      </trkpt>
      <trkpt lat="43.2075" lon="5.49337">
        <ele>168.2</ele>
        <time>2025-10-19T10:17:45Z</time>
      </trkpt>
      <trkpt lat="43.20751" lon="5.49337">
        <ele>168.2</ele>
        <time>2025-10-19T10:17:46Z</time>
      </trkpt>
      <trkpt lat="43.20752" lon="5.49337">
        <ele>168.3</ele>
        <time>2025-10-19T10:17:47Z</time>
      </trkpt>
      <trkpt lat="43.20753" lon="5.49337">
        <ele>168.3</ele>
        <time>2025-10-19T10:17:48Z</time>
      </trkpt>
      <trkpt lat="43.20754" lon="5.49337">
        <ele>168.4</ele>
        <time>2025-10-19T10:17:49Z</time>
      </trkpt>
      <trkpt lat="43.20755" lon="5.49337">
        <ele>168.5</ele>
        <time>2025-10-19T10:17:50Z</time>
      </trkpt>
      <trkpt lat="43.20756" lon="5.49337">
        <ele>168.6</ele>
        <time>2025-10-19T10:17:51Z</time>
      </trkpt>
      <trkpt lat="43.20757" lon="5.49336">
        <ele>168.6</ele>
        <time>2025-10-19T10:17:52Z</time>
      </trkpt>
      <trkpt lat="43.20758" lon="5.49336">
        <ele>168.7</ele>
        <time>2025-10-19T10:17:53Z</time>
      </trkpt>
      <trkpt lat="43.20759" lon="5.49335">
        <ele>168.8</ele>
        <time>2025-10-19T10:17:54Z</time>
      </trkpt>
      <trkpt lat="43.2076" lon="5.49335">
        <ele>168.9</ele>
        <time>2025-10-19T10:17:55Z</time>
      </trkpt>
      <trkpt lat="43.20761" lon="5.49335">
        <ele>169</ele>
        <time>2025-10-19T10:17:56Z</time>
      </trkpt>
      <trkpt lat="43.20762" lon="5.49335">
        <ele>169</ele>
        <time>2025-10-19T10:17:57Z</time>
      </trkpt>
      <trkpt lat="43.20762" lon="5.49335">
        <ele>169.2</ele>
        <time>2025-10-19T10:17:58Z</time>
      </trkpt>
      <trkpt lat="43.20763" lon="5.49335">
        <ele>169.2</ele>
        <time>2025-10-19T10:17:59Z</time>
      </trkpt>
      <trkpt lat="43.20764" lon="5.49335">
        <ele>169.3</ele>
        <time>2025-10-19T10:18:00Z</time>
      </trkpt>
      <trkpt lat="43.20766" lon="5.49335">
        <ele>169.4</ele>
        <time>2025-10-19T10:18:01Z</time>
      </trkpt>
      <trkpt lat="43.20766" lon="5.49334">
        <ele>169.5</ele>
        <time>2025-10-19T10:18:02Z</time>
      </trkpt>
      <trkpt lat="43.20768" lon="5.49334">
        <ele>169.6</ele>
        <time>2025-10-19T10:18:03Z</time>
      </trkpt>
      <trkpt lat="43.20769" lon="5.49333">
        <ele>169.7</ele>
        <time>2025-10-19T10:18:04Z</time>
      </trkpt>
      <trkpt lat="43.2077" lon="5.49333">
        <ele>169.8</ele>
        <time>2025-10-19T10:18:05Z</time>
      </trkpt>
      <trkpt lat="43.20771" lon="5.49333">
        <ele>169.9</ele>
        <time>2025-10-19T10:18:06Z</time>
      </trkpt>
      <trkpt lat="43.20772" lon="5.49332">
        <ele>170.1</ele>
        <time>2025-10-19T10:18:07Z</time>
      </trkpt>
      <trkpt lat="43.20773" lon="5.49332">
        <ele>170.2</ele>
        <time>2025-10-19T10:18:08Z</time>
      </trkpt>
      <trkpt lat="43.20774" lon="5.49332">
        <ele>170.3</ele>
        <time>2025-10-19T10:18:09Z</time>
      </trkpt>
      <trkpt lat="43.20775" lon="5.49332">
        <ele>170.5</ele>
        <time>2025-10-19T10:18:10Z</time>
      </trkpt>
      <trkpt lat="43.20775" lon="5.49332">
        <ele>170.6</ele>
        <time>2025-10-19T10:18:11Z</time>
      </trkpt>
      <trkpt lat="43.20776" lon="5.49331">
        <ele>170.7</ele>
        <time>2025-10-19T10:18:12Z</time>
      </trkpt>
      <trkpt lat="43.20777" lon="5.49331">
        <ele>170.8</ele>
        <time>2025-10-19T10:18:13Z</time>
      </trkpt>
      <trkpt lat="43.20778" lon="5.49331">
        <ele>170.9</ele>
        <time>2025-10-19T10:18:14Z</time>
      </trkpt>
      <trkpt lat="43.20779" lon="5.49331">
        <ele>171</ele>
        <time>2025-10-19T10:18:15Z</time>
      </trkpt>
      <trkpt lat="43.2078" lon="5.4933">
        <ele>171.2</ele>
        <time>2025-10-19T10:18:16Z</time>
      </trkpt>
      <trkpt lat="43.20781" lon="5.4933">
        <ele>171.3</ele>
        <time>2025-10-19T10:18:17Z</time>
      </trkpt>
      <trkpt lat="43.20782" lon="5.4933">
        <ele>171.4</ele>
        <time>2025-10-19T10:18:18Z</time>
      </trkpt>
      <trkpt lat="43.20784" lon="5.4933">
        <ele>171.5</ele>
        <time>2025-10-19T10:18:19Z</time>
      </trkpt>
      <trkpt lat="43.20784" lon="5.4933">
        <ele>171.6</ele>
        <time>2025-10-19T10:18:20Z</time>
      </trkpt>
      <trkpt lat="43.20785" lon="5.4933">
        <ele>171.6</ele>
        <time>2025-10-19T10:18:21Z</time>
      </trkpt>
      <trkpt lat="43.20786" lon="5.49329">
        <ele>171.7</ele>
        <time>2025-10-19T10:18:22Z</time>
      </trkpt>
      <trkpt lat="43.20787" lon="5.49329">
        <ele>171.7</ele>
        <time>2025-10-19T10:18:23Z</time>
      </trkpt>
      <trkpt lat="43.20788" lon="5.49329">
        <ele>171.9</ele>
        <time>2025-10-19T10:18:24Z</time>
      </trkpt>
      <trkpt lat="43.20789" lon="5.49329">
        <ele>172</ele>
        <time>2025-10-19T10:18:25Z</time>
      </trkpt>
      <trkpt lat="43.2079" lon="5.49328">
        <ele>172.1</ele>
        <time>2025-10-19T10:18:26Z</time>
      </trkpt>
      <trkpt lat="43.2079" lon="5.49328">
        <ele>172.1</ele>
        <time>2025-10-19T10:18:27Z</time>
      </trkpt>
      <trkpt lat="43.20791" lon="5.49328">
        <ele>172.2</ele>
        <time>2025-10-19T10:18:28Z</time>
      </trkpt>
      <trkpt lat="43.20792" lon="5.49328">
        <ele>172.2</ele>
        <time>2025-10-19T10:18:29Z</time>
      </trkpt>
      <trkpt lat="43.20793" lon="5.49328">
        <ele>172.2</ele>
        <time>2025-10-19T10:18:30Z</time>
      </trkpt>
      <trkpt lat="43.20793" lon="5.49328">
        <ele>172.2</ele>
        <time>2025-10-19T10:18:31Z</time>
      </trkpt>
      <trkpt lat="43.20794" lon="5.49327">
        <ele>172.2</ele>
        <time>2025-10-19T10:18:32Z</time>
      </trkpt>
      <trkpt lat="43.20795" lon="5.49327">
        <ele>172.3</ele>
        <time>2025-10-19T10:18:33Z</time>
      </trkpt>
      <trkpt lat="43.20796" lon="5.49326">
        <ele>172.4</ele>
        <time>2025-10-19T10:18:34Z</time>
      </trkpt>
      <trkpt lat="43.20797" lon="5.49325">
        <ele>172.4</ele>
        <time>2025-10-19T10:18:35Z</time>
      </trkpt>
      <trkpt lat="43.20799" lon="5.49325">
        <ele>172.6</ele>
        <time>2025-10-19T10:18:36Z</time>
      </trkpt>
      <trkpt lat="43.208" lon="5.49324">
        <ele>172.6</ele>
        <time>2025-10-19T10:18:37Z</time>
      </trkpt>
      <trkpt lat="43.208" lon="5.49324">
        <ele>172.8</ele>
        <time>2025-10-19T10:18:38Z</time>
      </trkpt>
      <trkpt lat="43.20801" lon="5.49323">
        <ele>172.9</ele>
        <time>2025-10-19T10:18:39Z</time>
      </trkpt>
      <trkpt lat="43.20802" lon="5.49323">
        <ele>172.9</ele>
        <time>2025-10-19T10:18:40Z</time>
      </trkpt>
      <trkpt lat="43.20803" lon="5.49322">
        <ele>172.9</ele>
        <time>2025-10-19T10:18:41Z</time>
      </trkpt>
      <trkpt lat="43.20804" lon="5.49322">
        <ele>172.9</ele>
        <time>2025-10-19T10:18:42Z</time>
      </trkpt>
      <trkpt lat="43.20805" lon="5.49322">
        <ele>173.1</ele>
        <time>2025-10-19T10:18:43Z</time>
      </trkpt>
      <trkpt lat="43.20806" lon="5.49322">
        <ele>173.2</ele>
        <time>2025-10-19T10:18:44Z</time>
      </trkpt>
      <trkpt lat="43.20807" lon="5.49321">
        <ele>173.3</ele>
        <time>2025-10-19T10:18:45Z</time>
      </trkpt>
      <trkpt lat="43.20807" lon="5.49321">
        <ele>173.4</ele>
        <time>2025-10-19T10:18:46Z</time>
      </trkpt>
      <trkpt lat="43.20808" lon="5.49321">
        <ele>173.5</ele>
        <time>2025-10-19T10:18:47Z</time>
      </trkpt>
      <trkpt lat="43.20809" lon="5.49321">
        <ele>173.5</ele>
        <time>2025-10-19T10:18:48Z</time>
      </trkpt>
      <trkpt lat="43.2081" lon="5.49321">
        <ele>173.6</ele>
        <time>2025-10-19T10:18:49Z</time>
      </trkpt>
      <trkpt lat="43.20811" lon="5.49321">
        <ele>173.6</ele>
        <time>2025-10-19T10:18:50Z</time>
      </trkpt>
      <trkpt lat="43.20811" lon="5.4932">
        <ele>173.7</ele>
        <time>2025-10-19T10:18:51Z</time>
      </trkpt>
      <trkpt lat="43.20813" lon="5.4932">
        <ele>173.8</ele>
        <time>2025-10-19T10:18:52Z</time>
      </trkpt>
      <trkpt lat="43.20814" lon="5.49319">
        <ele>173.9</ele>
        <time>2025-10-19T10:18:53Z</time>
      </trkpt>
      <trkpt lat="43.20815" lon="5.49319">
        <ele>174</ele>
        <time>2025-10-19T10:18:54Z</time>
      </trkpt>
      <trkpt lat="43.20816" lon="5.49318">
        <ele>174.1</ele>
        <time>2025-10-19T10:18:55Z</time>
      </trkpt>
      <trkpt lat="43.20817" lon="5.49318">
        <ele>174.2</ele>
        <time>2025-10-19T10:18:56Z</time>
      </trkpt>
      <trkpt lat="43.20818" lon="5.49317">
        <ele>174.3</ele>
        <time>2025-10-19T10:18:57Z</time>
      </trkpt>
      <trkpt lat="43.20819" lon="5.49317">
        <ele>174.4</ele>
        <time>2025-10-19T10:18:58Z</time>
      </trkpt>
      <trkpt lat="43.2082" lon="5.49316">
        <ele>174.5</ele>
        <time>2025-10-19T10:18:59Z</time>
      </trkpt>
      <trkpt lat="43.20821" lon="5.49315">
        <ele>174.6</ele>
        <time>2025-10-19T10:19:00Z</time>
      </trkpt>
      <trkpt lat="43.20822" lon="5.49315">
        <ele>174.9</ele>
        <time>2025-10-19T10:19:01Z</time>
      </trkpt>
      <trkpt lat="43.20823" lon="5.49315">
        <ele>175</ele>
        <time>2025-10-19T10:19:02Z</time>
      </trkpt>
      <trkpt lat="43.20824" lon="5.49315">
        <ele>175.1</ele>
        <time>2025-10-19T10:19:03Z</time>
      </trkpt>
      <trkpt lat="43.20825" lon="5.49314">
        <ele>175.2</ele>
        <time>2025-10-19T10:19:04Z</time>
      </trkpt>
      <trkpt lat="43.20826" lon="5.49314">
        <ele>175.3</ele>
        <time>2025-10-19T10:19:05Z</time>
      </trkpt>
      <trkpt lat="43.20827" lon="5.49314">
        <ele>175.4</ele>
        <time>2025-10-19T10:19:06Z</time>
      </trkpt>
      <trkpt lat="43.20828" lon="5.49314">
        <ele>175.4</ele>
        <time>2025-10-19T10:19:07Z</time>
      </trkpt>
      <trkpt lat="43.20829" lon="5.49314">
        <ele>175.5</ele>
        <time>2025-10-19T10:19:08Z</time>
      </trkpt>
      <trkpt lat="43.2083" lon="5.49313">
        <ele>175.7</ele>
        <time>2025-10-19T10:19:09Z</time>
      </trkpt>
      <trkpt lat="43.20831" lon="5.49313">
        <ele>175.8</ele>
        <time>2025-10-19T10:19:10Z</time>
      </trkpt>
      <trkpt lat="43.20832" lon="5.49313">
        <ele>175.9</ele>
        <time>2025-10-19T10:19:11Z</time>
      </trkpt>
      <trkpt lat="43.20832" lon="5.49313">
        <ele>176</ele>
        <time>2025-10-19T10:19:12Z</time>
      </trkpt>
      <trkpt lat="43.20833" lon="5.49313">
        <ele>175.9</ele>
        <time>2025-10-19T10:19:13Z</time>
      </trkpt>
      <trkpt lat="43.20834" lon="5.49313">
        <ele>176</ele>
        <time>2025-10-19T10:19:14Z</time>
      </trkpt>
      <trkpt lat="43.20835" lon="5.49313">
        <ele>176.1</ele>
        <time>2025-10-19T10:19:15Z</time>
      </trkpt>
      <trkpt lat="43.20836" lon="5.49313">
        <ele>176.2</ele>
        <time>2025-10-19T10:19:16Z</time>
      </trkpt>
      <trkpt lat="43.20837" lon="5.49312">
        <ele>176.2</ele>
        <time>2025-10-19T10:19:17Z</time>
      </trkpt>
      <trkpt lat="43.20837" lon="5.49312">
        <ele>176.4</ele>
        <time>2025-10-19T10:19:18Z</time>
      </trkpt>
      <trkpt lat="43.20838" lon="5.49312">
        <ele>176.5</ele>
        <time>2025-10-19T10:19:19Z</time>
      </trkpt>
      <trkpt lat="43.20839" lon="5.49312">
        <ele>176.6</ele>
        <time>2025-10-19T10:19:20Z</time>
      </trkpt>
      <trkpt lat="43.2084" lon="5.49312">
        <ele>176.7</ele>
        <time>2025-10-19T10:19:21Z</time>
      </trkpt>
      <trkpt lat="43.2084" lon="5.49312">
        <ele>176.7</ele>
        <time>2025-10-19T10:19:22Z</time>
      </trkpt>
      <trkpt lat="43.20841" lon="5.49312">
        <ele>176.8</ele>
        <time>2025-10-19T10:19:23Z</time>
      </trkpt>
      <trkpt lat="43.20842" lon="5.49312">
        <ele>176.8</ele>
        <time>2025-10-19T10:19:24Z</time>
      </trkpt>
      <trkpt lat="43.20843" lon="5.49311">
        <ele>176.9</ele>
        <time>2025-10-19T10:19:25Z</time>
      </trkpt>
      <trkpt lat="43.20844" lon="5.49311">
        <ele>177</ele>
        <time>2025-10-19T10:19:26Z</time>
      </trkpt>
      <trkpt lat="43.20845" lon="5.49311">
        <ele>177.2</ele>
        <time>2025-10-19T10:19:27Z</time>
      </trkpt>
      <trkpt lat="43.20846" lon="5.4931">
        <ele>177.3</ele>
        <time>2025-10-19T10:19:28Z</time>
      </trkpt>
      <trkpt lat="43.20847" lon="5.4931">
        <ele>177.4</ele>
        <time>2025-10-19T10:19:29Z</time>
      </trkpt>
      <trkpt lat="43.20848" lon="5.49309">
        <ele>177.6</ele>
        <time>2025-10-19T10:19:30Z</time>
      </trkpt>
      <trkpt lat="43.20849" lon="5.49309">
        <ele>177.7</ele>
        <time>2025-10-19T10:19:31Z</time>
      </trkpt>
      <trkpt lat="43.2085" lon="5.49309">
        <ele>177.7</ele>
        <time>2025-10-19T10:19:32Z</time>
      </trkpt>
      <trkpt lat="43.2085" lon="5.49309">
        <ele>177.8</ele>
        <time>2025-10-19T10:19:33Z</time>
      </trkpt>
      <trkpt lat="43.20851" lon="5.49309">
        <ele>177.8</ele>
        <time>2025-10-19T10:19:34Z</time>
      </trkpt>
      <trkpt lat="43.20852" lon="5.49309">
        <ele>177.8</ele>
        <time>2025-10-19T10:19:35Z</time>
      </trkpt>
      <trkpt lat="43.20853" lon="5.49308">
        <ele>177.8</ele>
        <time>2025-10-19T10:19:36Z</time>
      </trkpt>
      <trkpt lat="43.20854" lon="5.49308">
        <ele>177.8</ele>
        <time>2025-10-19T10:19:37Z</time>
      </trkpt>
      <trkpt lat="43.20855" lon="5.49308">
        <ele>177.9</ele>
        <time>2025-10-19T10:19:38Z</time>
      </trkpt>
      <trkpt lat="43.20855" lon="5.49307">
        <ele>178</ele>
        <time>2025-10-19T10:19:39Z</time>
      </trkpt>
      <trkpt lat="43.20857" lon="5.49307">
        <ele>178</ele>
        <time>2025-10-19T10:19:40Z</time>
      </trkpt>
      <trkpt lat="43.20857" lon="5.49306">
        <ele>178</ele>
        <time>2025-10-19T10:19:41Z</time>
      </trkpt>
      <trkpt lat="43.20858" lon="5.49306">
        <ele>178</ele>
        <time>2025-10-19T10:19:42Z</time>
      </trkpt>
      <trkpt lat="43.20859" lon="5.49305">
        <ele>178.1</ele>
        <time>2025-10-19T10:19:43Z</time>
      </trkpt>
      <trkpt lat="43.2086" lon="5.49305">
        <ele>178.2</ele>
        <time>2025-10-19T10:19:44Z</time>
      </trkpt>
      <trkpt lat="43.20861" lon="5.49304">
        <ele>178.3</ele>
        <time>2025-10-19T10:19:45Z</time>
      </trkpt>
      <trkpt lat="43.20862" lon="5.49303">
        <ele>178.3</ele>
        <time>2025-10-19T10:19:46Z</time>
      </trkpt>
      <trkpt lat="43.20863" lon="5.49303">
        <ele>178.5</ele>
        <time>2025-10-19T10:19:47Z</time>
      </trkpt>
      <trkpt lat="43.20864" lon="5.49302">
        <ele>178.5</ele>
        <time>2025-10-19T10:19:48Z</time>
      </trkpt>
      <trkpt lat="43.20865" lon="5.49302">
        <ele>178.5</ele>
        <time>2025-10-19T10:19:49Z</time>
      </trkpt>
      <trkpt lat="43.20866" lon="5.49302">
        <ele>178.5</ele>
        <time>2025-10-19T10:19:50Z</time>
      </trkpt>
      <trkpt lat="43.20867" lon="5.49301">
        <ele>178.6</ele>
        <time>2025-10-19T10:19:51Z</time>
      </trkpt>
      <trkpt lat="43.20868" lon="5.49301">
        <ele>178.7</ele>
        <time>2025-10-19T10:19:52Z</time>
      </trkpt>
      <trkpt lat="43.20869" lon="5.493">
        <ele>178.8</ele>
        <time>2025-10-19T10:19:53Z</time>
      </trkpt>
      <trkpt lat="43.2087" lon="5.493">
        <ele>178.9</ele>
        <time>2025-10-19T10:19:54Z</time>
      </trkpt>
      <trkpt lat="43.20871" lon="5.493">
        <ele>179.1</ele>
        <time>2025-10-19T10:19:55Z</time>
      </trkpt>
      <trkpt lat="43.20872" lon="5.49299">
        <ele>179.2</ele>
        <time>2025-10-19T10:19:56Z</time>
      </trkpt>
      <trkpt lat="43.20872" lon="5.49299">
        <ele>179.2</ele>
        <time>2025-10-19T10:19:57Z</time>
      </trkpt>
      <trkpt lat="43.20873" lon="5.49299">
        <ele>179.3</ele>
        <time>2025-10-19T10:19:58Z</time>
      </trkpt>
      <trkpt lat="43.20874" lon="5.49299">
        <ele>179.3</ele>
        <time>2025-10-19T10:19:59Z</time>
      </trkpt>
      <trkpt lat="43.20875" lon="5.49298">
        <ele>179.4</ele>
        <time>2025-10-19T10:20:00Z</time>
      </trkpt>
      <trkpt lat="43.20876" lon="5.49298">
        <ele>179.5</ele>
        <time>2025-10-19T10:20:01Z</time>
      </trkpt>
      <trkpt lat="43.20877" lon="5.49298">
        <ele>179.5</ele>
        <time>2025-10-19T10:20:02Z</time>
      </trkpt>
      <trkpt lat="43.20878" lon="5.49297">
        <ele>179.6</ele>
        <time>2025-10-19T10:20:03Z</time>
      </trkpt>
      <trkpt lat="43.20879" lon="5.49297">
        <ele>179.6</ele>
        <time>2025-10-19T10:20:04Z</time>
      </trkpt>
      <trkpt lat="43.2088" lon="5.49297">
        <ele>179.7</ele>
        <time>2025-10-19T10:20:05Z</time>
      </trkpt>
      <trkpt lat="43.20881" lon="5.49297">
        <ele>179.8</ele>
        <time>2025-10-19T10:20:06Z</time>
      </trkpt>
      <trkpt lat="43.20882" lon="5.49297">
        <ele>179.8</ele>
        <time>2025-10-19T10:20:07Z</time>
      </trkpt>
      <trkpt lat="43.20883" lon="5.49296">
        <ele>179.8</ele>
        <time>2025-10-19T10:20:08Z</time>
      </trkpt>
      <trkpt lat="43.20883" lon="5.49296">
        <ele>180</ele>
        <time>2025-10-19T10:20:09Z</time>
      </trkpt>
      <trkpt lat="43.20884" lon="5.49296">
        <ele>180</ele>
        <time>2025-10-19T10:20:10Z</time>
      </trkpt>
      <trkpt lat="43.20885" lon="5.49295">
        <ele>180.2</ele>
        <time>2025-10-19T10:20:11Z</time>
      </trkpt>
      <trkpt lat="43.20886" lon="5.49295">
        <ele>180.2</ele>
        <time>2025-10-19T10:20:12Z</time>
      </trkpt>
      <trkpt lat="43.20887" lon="5.49295">
        <ele>180.3</ele>
        <time>2025-10-19T10:20:13Z</time>
      </trkpt>
      <trkpt lat="43.20887" lon="5.49295">
        <ele>180.4</ele>
        <time>2025-10-19T10:20:14Z</time>
      </trkpt>
      <trkpt lat="43.20888" lon="5.49295">
        <ele>180.4</ele>
        <time>2025-10-19T10:20:15Z</time>
      </trkpt>
      <trkpt lat="43.20889" lon="5.49295">
        <ele>180.5</ele>
        <time>2025-10-19T10:20:16Z</time>
      </trkpt>
      <trkpt lat="43.20889" lon="5.49295">
        <ele>180.6</ele>
        <time>2025-10-19T10:20:17Z</time>
      </trkpt>
      <trkpt lat="43.20891" lon="5.49295">
        <ele>180.7</ele>
        <time>2025-10-19T10:20:18Z</time>
      </trkpt>
      <trkpt lat="43.20891" lon="5.49294">
        <ele>180.8</ele>
        <time>2025-10-19T10:20:19Z</time>
      </trkpt>
      <trkpt lat="43.20892" lon="5.49294">
        <ele>180.9</ele>
        <time>2025-10-19T10:20:20Z</time>
      </trkpt>
      <trkpt lat="43.20893" lon="5.49294">
        <ele>181</ele>
        <time>2025-10-19T10:20:21Z</time>
      </trkpt>
      <trkpt lat="43.20894" lon="5.49294">
        <ele>181.1</ele>
        <time>2025-10-19T10:20:22Z</time>
      </trkpt>
      <trkpt lat="43.20894" lon="5.49294">
        <ele>181.1</ele>
        <time>2025-10-19T10:20:23Z</time>
      </trkpt>
      <trkpt lat="43.20895" lon="5.49293">
        <ele>181.1</ele>
        <time>2025-10-19T10:20:24Z</time>
      </trkpt>
      <trkpt lat="43.20896" lon="5.49293">
        <ele>181.1</ele>
        <time>2025-10-19T10:20:25Z</time>
      </trkpt>
      <trkpt lat="43.20896" lon="5.49293">
        <ele>181.2</ele>
        <time>2025-10-19T10:20:26Z</time>
      </trkpt>
      <trkpt lat="43.20898" lon="5.49292">
        <ele>181.2</ele>
        <time>2025-10-19T10:20:27Z</time>
      </trkpt>
      <trkpt lat="43.20898" lon="5.49292">
        <ele>181.3</ele>
        <time>2025-10-19T10:20:28Z</time>
      </trkpt>
      <trkpt lat="43.20899" lon="5.49292">
        <ele>181.3</ele>
        <time>2025-10-19T10:20:29Z</time>
      </trkpt>
      <trkpt lat="43.209" lon="5.49291">
        <ele>181.4</ele>
        <time>2025-10-19T10:20:30Z</time>
      </trkpt>
      <trkpt lat="43.20901" lon="5.49291">
        <ele>181.4</ele>
        <time>2025-10-19T10:20:31Z</time>
      </trkpt>
      <trkpt lat="43.20902" lon="5.4929">
        <ele>181.5</ele>
        <time>2025-10-19T10:20:32Z</time>
      </trkpt>
      <trkpt lat="43.20903" lon="5.4929">
        <ele>181.5</ele>
        <time>2025-10-19T10:20:33Z</time>
      </trkpt>
      <trkpt lat="43.20904" lon="5.49289">
        <ele>181.6</ele>
        <time>2025-10-19T10:20:34Z</time>
      </trkpt>
      <trkpt lat="43.20905" lon="5.49289">
        <ele>181.7</ele>
        <time>2025-10-19T10:20:35Z</time>
      </trkpt>
      <trkpt lat="43.20906" lon="5.49288">
        <ele>181.7</ele>
        <time>2025-10-19T10:20:36Z</time>
      </trkpt>
      <trkpt lat="43.20907" lon="5.49288">
        <ele>181.7</ele>
        <time>2025-10-19T10:20:37Z</time>
      </trkpt>
      <trkpt lat="43.20908" lon="5.49287">
        <ele>181.7</ele>
        <time>2025-10-19T10:20:38Z</time>
      </trkpt>
      <trkpt lat="43.20909" lon="5.49287">
        <ele>181.7</ele>
        <time>2025-10-19T10:20:39Z</time>
      </trkpt>
      <trkpt lat="43.2091" lon="5.49286">
        <ele>181.7</ele>
        <time>2025-10-19T10:20:40Z</time>
      </trkpt>
      <trkpt lat="43.20912" lon="5.49285">
        <ele>181.8</ele>
        <time>2025-10-19T10:20:41Z</time>
      </trkpt>
      <trkpt lat="43.20913" lon="5.49285">
        <ele>181.8</ele>
        <time>2025-10-19T10:20:42Z</time>
      </trkpt>
      <trkpt lat="43.20914" lon="5.49284">
        <ele>181.8</ele>
        <time>2025-10-19T10:20:43Z</time>
      </trkpt>
      <trkpt lat="43.20914" lon="5.49284">
        <ele>181.8</ele>
        <time>2025-10-19T10:20:44Z</time>
      </trkpt>
      <trkpt lat="43.20915" lon="5.49283">
        <ele>181.9</ele>
        <time>2025-10-19T10:20:45Z</time>
      </trkpt>
      <trkpt lat="43.20916" lon="5.49283">
        <ele>181.9</ele>
        <time>2025-10-19T10:20:46Z</time>
      </trkpt>
      <trkpt lat="43.20918" lon="5.49282">
        <ele>182</ele>
        <time>2025-10-19T10:20:47Z</time>
      </trkpt>
      <trkpt lat="43.20918" lon="5.49282">
        <ele>182.1</ele>
        <time>2025-10-19T10:20:48Z</time>
      </trkpt>
      <trkpt lat="43.2092" lon="5.49281">
        <ele>182.2</ele>
        <time>2025-10-19T10:20:49Z</time>
      </trkpt>
      <trkpt lat="43.20921" lon="5.49281">
        <ele>182.3</ele>
        <time>2025-10-19T10:20:50Z</time>
      </trkpt>
      <trkpt lat="43.20922" lon="5.4928">
        <ele>182.3</ele>
        <time>2025-10-19T10:20:51Z</time>
      </trkpt>
      <trkpt lat="43.20922" lon="5.4928">
        <ele>182.4</ele>
        <time>2025-10-19T10:20:52Z</time>
      </trkpt>
      <trkpt lat="43.20923" lon="5.4928">
        <ele>182.4</ele>
        <time>2025-10-19T10:20:53Z</time>
      </trkpt>
      <trkpt lat="43.20924" lon="5.4928">
        <ele>182.5</ele>
        <time>2025-10-19T10:20:54Z</time>
      </trkpt>
      <trkpt lat="43.20925" lon="5.49279">
        <ele>182.5</ele>
        <time>2025-10-19T10:20:55Z</time>
      </trkpt>
      <trkpt lat="43.20926" lon="5.49278">
        <ele>182.5</ele>
        <time>2025-10-19T10:20:56Z</time>
      </trkpt>
      <trkpt lat="43.20927" lon="5.49278">
        <ele>182.5</ele>
        <time>2025-10-19T10:20:57Z</time>
      </trkpt>
      <trkpt lat="43.20928" lon="5.49277">
        <ele>182.6</ele>
        <time>2025-10-19T10:20:58Z</time>
      </trkpt>
      <trkpt lat="43.20929" lon="5.49276">
        <ele>182.6</ele>
        <time>2025-10-19T10:20:59Z</time>
      </trkpt>
      <trkpt lat="43.2093" lon="5.49276">
        <ele>182.6</ele>
        <time>2025-10-19T10:21:00Z</time>
      </trkpt>
      <trkpt lat="43.20931" lon="5.49275">
        <ele>182.6</ele>
        <time>2025-10-19T10:21:01Z</time>
      </trkpt>
      <trkpt lat="43.20932" lon="5.49274">
        <ele>182.5</ele>
        <time>2025-10-19T10:21:02Z</time>
      </trkpt>
      <trkpt lat="43.20933" lon="5.49274">
        <ele>182.4</ele>
        <time>2025-10-19T10:21:03Z</time>
      </trkpt>
      <trkpt lat="43.20934" lon="5.49273">
        <ele>182.5</ele>
        <time>2025-10-19T10:21:04Z</time>
      </trkpt>
      <trkpt lat="43.20934" lon="5.49274">
        <ele>182.5</ele>
        <time>2025-10-19T10:21:05Z</time>
      </trkpt>
      <trkpt lat="43.20935" lon="5.49273">
        <ele>182.5</ele>
        <time>2025-10-19T10:21:06Z</time>
      </trkpt>
      <trkpt lat="43.20937" lon="5.49272">
        <ele>182.6</ele>
        <time>2025-10-19T10:21:07Z</time>
      </trkpt>
      <trkpt lat="43.20938" lon="5.49272">
        <ele>182.6</ele>
        <time>2025-10-19T10:21:08Z</time>
      </trkpt>
      <trkpt lat="43.20939" lon="5.4927">
        <ele>182.7</ele>
        <time>2025-10-19T10:21:09Z</time>
      </trkpt>
      <trkpt lat="43.20939" lon="5.49269">
        <ele>182.7</ele>
        <time>2025-10-19T10:21:10Z</time>
      </trkpt>
      <trkpt lat="43.2094" lon="5.49269">
        <ele>182.7</ele>
        <time>2025-10-19T10:21:11Z</time>
      </trkpt>
      <trkpt lat="43.20941" lon="5.49268">
        <ele>182.7</ele>
        <time>2025-10-19T10:21:12Z</time>
      </trkpt>
      <trkpt lat="43.20942" lon="5.49267">
        <ele>182.6</ele>
        <time>2025-10-19T10:21:13Z</time>
      </trkpt>
      <trkpt lat="43.20943" lon="5.49266">
        <ele>182.6</ele>
        <time>2025-10-19T10:21:14Z</time>
      </trkpt>
      <trkpt lat="43.20945" lon="5.49265">
        <ele>182.6</ele>
        <time>2025-10-19T10:21:15Z</time>
      </trkpt>
      <trkpt lat="43.20945" lon="5.49264">
        <ele>182.4</ele>
        <time>2025-10-19T10:21:16Z</time>
      </trkpt>
      <trkpt lat="43.20946" lon="5.49263">
        <ele>182.3</ele>
        <time>2025-10-19T10:21:17Z</time>
      </trkpt>
      <trkpt lat="43.20947" lon="5.49262">
        <ele>182.2</ele>
        <time>2025-10-19T10:21:18Z</time>
      </trkpt>
      <trkpt lat="43.20948" lon="5.49261">
        <ele>182.2</ele>
        <time>2025-10-19T10:21:19Z</time>
      </trkpt>
      <trkpt lat="43.20948" lon="5.4926">
        <ele>182</ele>
        <time>2025-10-19T10:21:20Z</time>
      </trkpt>
      <trkpt lat="43.20949" lon="5.49259">
        <ele>181.9</ele>
        <time>2025-10-19T10:21:21Z</time>
      </trkpt>
      <trkpt lat="43.20949" lon="5.49258">
        <ele>181.8</ele>
        <time>2025-10-19T10:21:22Z</time>
      </trkpt>
      <trkpt lat="43.2095" lon="5.49257">
        <ele>181.7</ele>
        <time>2025-10-19T10:21:23Z</time>
      </trkpt>
      <trkpt lat="43.20951" lon="5.49256">
        <ele>181.7</ele>
        <time>2025-10-19T10:21:24Z</time>
      </trkpt>
      <trkpt lat="43.20952" lon="5.49254">
        <ele>181.6</ele>
        <time>2025-10-19T10:21:25Z</time>
      </trkpt>
      <trkpt lat="43.20952" lon="5.49254">
        <ele>181.5</ele>
        <time>2025-10-19T10:21:26Z</time>
      </trkpt>
      <trkpt lat="43.20953" lon="5.49253">
        <ele>181.5</ele>
        <time>2025-10-19T10:21:27Z</time>
      </trkpt>
      <trkpt lat="43.20954" lon="5.49252">
        <ele>181.4</ele>
        <time>2025-10-19T10:21:28Z</time>
      </trkpt>
      <trkpt lat="43.20954" lon="5.49251">
        <ele>181.3</ele>
        <time>2025-10-19T10:21:29Z</time>
      </trkpt>
      <trkpt lat="43.20954" lon="5.4925">
        <ele>181.1</ele>
        <time>2025-10-19T10:21:30Z</time>
      </trkpt>
      <trkpt lat="43.20955" lon="5.49248">
        <ele>181</ele>
        <time>2025-10-19T10:21:31Z</time>
      </trkpt>
      <trkpt lat="43.20955" lon="5.49247">
        <ele>181</ele>
        <time>2025-10-19T10:21:32Z</time>
      </trkpt>
      <trkpt lat="43.20956" lon="5.49247">
        <ele>181</ele>
        <time>2025-10-19T10:21:33Z</time>
      </trkpt>
      <trkpt lat="43.20956" lon="5.49246">
        <ele>180.9</ele>
        <time>2025-10-19T10:21:34Z</time>
      </trkpt>
      <trkpt lat="43.20956" lon="5.49245">
        <ele>180.8</ele>
        <time>2025-10-19T10:21:35Z</time>
      </trkpt>
      <trkpt lat="43.20956" lon="5.49244">
        <ele>180.7</ele>
        <time>2025-10-19T10:21:36Z</time>
      </trkpt>
      <trkpt lat="43.20957" lon="5.49243">
        <ele>180.5</ele>
        <time>2025-10-19T10:21:37Z</time>
      </trkpt>
      <trkpt lat="43.20957" lon="5.49242">
        <ele>180.3</ele>
        <time>2025-10-19T10:21:38Z</time>
      </trkpt>
      <trkpt lat="43.20958" lon="5.49241">
        <ele>180.1</ele>
        <time>2025-10-19T10:21:39Z</time>
      </trkpt>
      <trkpt lat="43.20958" lon="5.4924">
        <ele>179.9</ele>
        <time>2025-10-19T10:21:40Z</time>
      </trkpt>
      <trkpt lat="43.20958" lon="5.4924">
        <ele>179.7</ele>
        <time>2025-10-19T10:21:41Z</time>
      </trkpt>
      <trkpt lat="43.20959" lon="5.49239">
        <ele>179.6</ele>
        <time>2025-10-19T10:21:42Z</time>
      </trkpt>
      <trkpt lat="43.2096" lon="5.49238">
        <ele>179.4</ele>
        <time>2025-10-19T10:21:43Z</time>
      </trkpt>
      <trkpt lat="43.2096" lon="5.49237">
        <ele>179.4</ele>
        <time>2025-10-19T10:21:44Z</time>
      </trkpt>
      <trkpt lat="43.2096" lon="5.49236">
        <ele>179.2</ele>
        <time>2025-10-19T10:21:45Z</time>
      </trkpt>
      <trkpt lat="43.20961" lon="5.49235">
        <ele>179.1</ele>
        <time>2025-10-19T10:21:46Z</time>
      </trkpt>
      <trkpt lat="43.20961" lon="5.49233">
        <ele>178.9</ele>
        <time>2025-10-19T10:21:47Z</time>
      </trkpt>
      <trkpt lat="43.20961" lon="5.49232">
        <ele>178.8</ele>
        <time>2025-10-19T10:21:48Z</time>
      </trkpt>
      <trkpt lat="43.20962" lon="5.49231">
        <ele>178.7</ele>
        <time>2025-10-19T10:21:49Z</time>
      </trkpt>
      <trkpt lat="43.20962" lon="5.4923">
        <ele>178.6</ele>
        <time>2025-10-19T10:21:50Z</time>
      </trkpt>
      <trkpt lat="43.20962" lon="5.49229">
        <ele>178.5</ele>
        <time>2025-10-19T10:21:51Z</time>
      </trkpt>
      <trkpt lat="43.20962" lon="5.49228">
        <ele>178.4</ele>
        <time>2025-10-19T10:21:52Z</time>
      </trkpt>
      <trkpt lat="43.20962" lon="5.49227">
        <ele>178.3</ele>
        <time>2025-10-19T10:21:53Z</time>
      </trkpt>
      <trkpt lat="43.20963" lon="5.49226">
        <ele>178.2</ele>
        <time>2025-10-19T10:21:54Z</time>
      </trkpt>
      <trkpt lat="43.20964" lon="5.49225">
        <ele>178</ele>
        <time>2025-10-19T10:21:55Z</time>
      </trkpt>
      <trkpt lat="43.20964" lon="5.49224">
        <ele>177.9</ele>
        <time>2025-10-19T10:21:56Z</time>
      </trkpt>
      <trkpt lat="43.20965" lon="5.49223">
        <ele>177.9</ele>
        <time>2025-10-19T10:21:57Z</time>
      </trkpt>
      <trkpt lat="43.20965" lon="5.49222">
        <ele>177.8</ele>
        <time>2025-10-19T10:21:58Z</time>
      </trkpt>
      <trkpt lat="43.20965" lon="5.49221">
        <ele>177.7</ele>
        <time>2025-10-19T10:21:59Z</time>
      </trkpt>
      <trkpt lat="43.20966" lon="5.4922">
        <ele>177.5</ele>
        <time>2025-10-19T10:22:00Z</time>
      </trkpt>
      <trkpt lat="43.20966" lon="5.49219">
        <ele>177.4</ele>
        <time>2025-10-19T10:22:01Z</time>
      </trkpt>
      <trkpt lat="43.20966" lon="5.49218">
        <ele>177.3</ele>
        <time>2025-10-19T10:22:02Z</time>
      </trkpt>
      <trkpt lat="43.20967" lon="5.49218">
        <ele>177.1</ele>
        <time>2025-10-19T10:22:03Z</time>
      </trkpt>
      <trkpt lat="43.20967" lon="5.49216">
        <ele>177</ele>
        <time>2025-10-19T10:22:04Z</time>
      </trkpt>
      <trkpt lat="43.20968" lon="5.49216">
        <ele>176.8</ele>
        <time>2025-10-19T10:22:05Z</time>
      </trkpt>
      <trkpt lat="43.20968" lon="5.49215">
        <ele>176.7</ele>
        <time>2025-10-19T10:22:06Z</time>
      </trkpt>
      <trkpt lat="43.20969" lon="5.49214">
        <ele>176.6</ele>
        <time>2025-10-19T10:22:07Z</time>
      </trkpt>
      <trkpt lat="43.20969" lon="5.49213">
        <ele>176.5</ele>
        <time>2025-10-19T10:22:08Z</time>
      </trkpt>
      <trkpt lat="43.20969" lon="5.49213">
        <ele>176.4</ele>
        <time>2025-10-19T10:22:09Z</time>
      </trkpt>
      <trkpt lat="43.2097" lon="5.49212">
        <ele>176.3</ele>
        <time>2025-10-19T10:22:10Z</time>
      </trkpt>
      <trkpt lat="43.20971" lon="5.49211">
        <ele>176.2</ele>
        <time>2025-10-19T10:22:11Z</time>
      </trkpt>
      <trkpt lat="43.20971" lon="5.4921">
        <ele>176.1</ele>
        <time>2025-10-19T10:22:12Z</time>
      </trkpt>
      <trkpt lat="43.20972" lon="5.49209">
        <ele>175.9</ele>
        <time>2025-10-19T10:22:13Z</time>
      </trkpt>
      <trkpt lat="43.20972" lon="5.49208">
        <ele>175.7</ele>
        <time>2025-10-19T10:22:14Z</time>
      </trkpt>
      <trkpt lat="43.20973" lon="5.49207">
        <ele>175.6</ele>
        <time>2025-10-19T10:22:15Z</time>
      </trkpt>
      <trkpt lat="43.20973" lon="5.49206">
        <ele>175.4</ele>
        <time>2025-10-19T10:22:16Z</time>
      </trkpt>
      <trkpt lat="43.20974" lon="5.49205">
        <ele>175.3</ele>
        <time>2025-10-19T10:22:17Z</time>
      </trkpt>
      <trkpt lat="43.20975" lon="5.49204">
        <ele>175.1</ele>
        <time>2025-10-19T10:22:18Z</time>
      </trkpt>
      <trkpt lat="43.20975" lon="5.49203">
        <ele>175</ele>
        <time>2025-10-19T10:22:19Z</time>
      </trkpt>
      <trkpt lat="43.20975" lon="5.49203">
        <ele>174.9</ele>
        <time>2025-10-19T10:22:20Z</time>
      </trkpt>
      <trkpt lat="43.20976" lon="5.49202">
        <ele>174.7</ele>
        <time>2025-10-19T10:22:21Z</time>
      </trkpt>
      <trkpt lat="43.20976" lon="5.49202">
        <ele>174.5</ele>
        <time>2025-10-19T10:22:22Z</time>
      </trkpt>
      <trkpt lat="43.20977" lon="5.49201">
        <ele>174.2</ele>
        <time>2025-10-19T10:22:23Z</time>
      </trkpt>
      <trkpt lat="43.20977" lon="5.492">
        <ele>174</ele>
        <time>2025-10-19T10:22:24Z</time>
      </trkpt>
      <trkpt lat="43.20978" lon="5.492">
        <ele>173.8</ele>
        <time>2025-10-19T10:22:25Z</time>
      </trkpt>
      <trkpt lat="43.20978" lon="5.49199">
        <ele>173.6</ele>
        <time>2025-10-19T10:22:26Z</time>
      </trkpt>
      <trkpt lat="43.20978" lon="5.49198">
        <ele>173.4</ele>
        <time>2025-10-19T10:22:27Z</time>
      </trkpt>
      <trkpt lat="43.20979" lon="5.49197">
        <ele>173.2</ele>
        <time>2025-10-19T10:22:28Z</time>
      </trkpt>
      <trkpt lat="43.20979" lon="5.49196">
        <ele>173</ele>
        <time>2025-10-19T10:22:29Z</time>
      </trkpt>
      <trkpt lat="43.2098" lon="5.49195">
        <ele>172.8</ele>
        <time>2025-10-19T10:22:30Z</time>
      </trkpt>
      <trkpt lat="43.2098" lon="5.49194">
        <ele>172.6</ele>
        <time>2025-10-19T10:22:31Z</time>
      </trkpt>
      <trkpt lat="43.2098" lon="5.49193">
        <ele>172.5</ele>
        <time>2025-10-19T10:22:32Z</time>
      </trkpt>
      <trkpt lat="43.20981" lon="5.49192">
        <ele>172.5</ele>
        <time>2025-10-19T10:22:33Z</time>
      </trkpt>
      <trkpt lat="43.20981" lon="5.49191">
        <ele>172.4</ele>
        <time>2025-10-19T10:22:34Z</time>
      </trkpt>
      <trkpt lat="43.20982" lon="5.4919">
        <ele>172.4</ele>
        <time>2025-10-19T10:22:35Z</time>
      </trkpt>
      <trkpt lat="43.20982" lon="5.4919">
        <ele>172.3</ele>
        <time>2025-10-19T10:22:36Z</time>
      </trkpt>
      <trkpt lat="43.20983" lon="5.49189">
        <ele>172.3</ele>
        <time>2025-10-19T10:22:37Z</time>
      </trkpt>
      <trkpt lat="43.20984" lon="5.49188">
        <ele>172.2</ele>
        <time>2025-10-19T10:22:38Z</time>
      </trkpt>
      <trkpt lat="43.20984" lon="5.49187">
        <ele>172</ele>
        <time>2025-10-19T10:22:39Z</time>
      </trkpt>
      <trkpt lat="43.20985" lon="5.49186">
        <ele>172</ele>
        <time>2025-10-19T10:22:40Z</time>
      </trkpt>
      <trkpt lat="43.20986" lon="5.49185">
        <ele>172</ele>
        <time>2025-10-19T10:22:41Z</time>
      </trkpt>
      <trkpt lat="43.20986" lon="5.49184">
        <ele>171.9</ele>
        <time>2025-10-19T10:22:42Z</time>
      </trkpt>
      <trkpt lat="43.20987" lon="5.49183">
        <ele>171.8</ele>
        <time>2025-10-19T10:22:43Z</time>
      </trkpt>
      <trkpt lat="43.20987" lon="5.49182">
        <ele>171.7</ele>
        <time>2025-10-19T10:22:44Z</time>
      </trkpt>
      <trkpt lat="43.20988" lon="5.4918">
        <ele>171.6</ele>
        <time>2025-10-19T10:22:45Z</time>
      </trkpt>
      <trkpt lat="43.20988" lon="5.49179">
        <ele>171.5</ele>
        <time>2025-10-19T10:22:46Z</time>
      </trkpt>
      <trkpt lat="43.20988" lon="5.49179">
        <ele>171.3</ele>
        <time>2025-10-19T10:22:47Z</time>
      </trkpt>
      <trkpt lat="43.20989" lon="5.49178">
        <ele>171.2</ele>
        <time>2025-10-19T10:22:48Z</time>
      </trkpt>
      <trkpt lat="43.20989" lon="5.49177">
        <ele>171.2</ele>
        <time>2025-10-19T10:22:49Z</time>
      </trkpt>
      <trkpt lat="43.2099" lon="5.49175">
        <ele>171</ele>
        <time>2025-10-19T10:22:50Z</time>
      </trkpt>
      <trkpt lat="43.2099" lon="5.49174">
        <ele>170.9</ele>
        <time>2025-10-19T10:22:51Z</time>
      </trkpt>
      <trkpt lat="43.20991" lon="5.49173">
        <ele>170.7</ele>
        <time>2025-10-19T10:22:52Z</time>
      </trkpt>
      <trkpt lat="43.20992" lon="5.49173">
        <ele>170.6</ele>
        <time>2025-10-19T10:22:53Z</time>
      </trkpt>
      <trkpt lat="43.20992" lon="5.49172">
        <ele>170.4</ele>
        <time>2025-10-19T10:22:54Z</time>
      </trkpt>
      <trkpt lat="43.20993" lon="5.49171">
        <ele>170.3</ele>
        <time>2025-10-19T10:22:55Z</time>
      </trkpt>
      <trkpt lat="43.20993" lon="5.4917">
        <ele>170.2</ele>
        <time>2025-10-19T10:22:56Z</time>
      </trkpt>
      <trkpt lat="43.20994" lon="5.49168">
        <ele>170</ele>
        <time>2025-10-19T10:22:57Z</time>
      </trkpt>
      <trkpt lat="43.20994" lon="5.49167">
        <ele>169.9</ele>
        <time>2025-10-19T10:22:58Z</time>
      </trkpt>
      <trkpt lat="43.20995" lon="5.49166">
        <ele>169.8</ele>
        <time>2025-10-19T10:22:59Z</time>
      </trkpt>
      <trkpt lat="43.20995" lon="5.49165">
        <ele>169.7</ele>
        <time>2025-10-19T10:23:00Z</time>
      </trkpt>
      <trkpt lat="43.20996" lon="5.49164">
        <ele>169.6</ele>
        <time>2025-10-19T10:23:01Z</time>
      </trkpt>
      <trkpt lat="43.20996" lon="5.49162">
        <ele>169.5</ele>
        <time>2025-10-19T10:23:02Z</time>
      </trkpt>
      <trkpt lat="43.20997" lon="5.49161">
        <ele>169.4</ele>
        <time>2025-10-19T10:23:03Z</time>
      </trkpt>
      <trkpt lat="43.20998" lon="5.4916">
        <ele>169.3</ele>
        <time>2025-10-19T10:23:04Z</time>
      </trkpt>
      <trkpt lat="43.20998" lon="5.49159">
        <ele>169.2</ele>
        <time>2025-10-19T10:23:05Z</time>
      </trkpt>
      <trkpt lat="43.20999" lon="5.49158">
        <ele>169.1</ele>
        <time>2025-10-19T10:23:06Z</time>
      </trkpt>
      <trkpt lat="43.21" lon="5.49157">
        <ele>169.1</ele>
        <time>2025-10-19T10:23:07Z</time>
      </trkpt>
      <trkpt lat="43.21001" lon="5.49156">
        <ele>169</ele>
        <time>2025-10-19T10:23:08Z</time>
      </trkpt>
      <trkpt lat="43.21001" lon="5.49155">
        <ele>168.9</ele>
        <time>2025-10-19T10:23:09Z</time>
      </trkpt>
      <trkpt lat="43.21002" lon="5.49154">
        <ele>168.9</ele>
        <time>2025-10-19T10:23:10Z</time>
      </trkpt>
      <trkpt lat="43.21003" lon="5.49153">
        <ele>168.7</ele>
        <time>2025-10-19T10:23:11Z</time>
      </trkpt>
      <trkpt lat="43.21004" lon="5.49152">
        <ele>168.6</ele>
        <time>2025-10-19T10:23:12Z</time>
      </trkpt>
      <trkpt lat="43.21004" lon="5.49151">
        <ele>168.6</ele>
        <time>2025-10-19T10:23:13Z</time>
      </trkpt>
      <trkpt lat="43.21005" lon="5.49149">
        <ele>168.6</ele>
        <time>2025-10-19T10:23:14Z</time>
      </trkpt>
      <trkpt lat="43.21005" lon="5.49148">
        <ele>168.6</ele>
        <time>2025-10-19T10:23:15Z</time>
      </trkpt>
      <trkpt lat="43.21005" lon="5.49147">
        <ele>168.5</ele>
        <time>2025-10-19T10:23:16Z</time>
      </trkpt>
      <trkpt lat="43.21005" lon="5.49146">
        <ele>168.4</ele>
        <time>2025-10-19T10:23:17Z</time>
      </trkpt>
      <trkpt lat="43.21005" lon="5.49145">
        <ele>168.3</ele>
        <time>2025-10-19T10:23:18Z</time>
      </trkpt>
      <trkpt lat="43.21006" lon="5.49144">
        <ele>168.2</ele>
        <time>2025-10-19T10:23:19Z</time>
      </trkpt>
      <trkpt lat="43.21006" lon="5.49144">
        <ele>168.1</ele>
        <time>2025-10-19T10:23:20Z</time>
      </trkpt>
      <trkpt lat="43.21006" lon="5.49143">
        <ele>168</ele>
        <time>2025-10-19T10:23:21Z</time>
      </trkpt>
      <trkpt lat="43.21006" lon="5.49143">
        <ele>167.9</ele>
        <time>2025-10-19T10:23:22Z</time>
      </trkpt>
      <trkpt lat="43.21007" lon="5.49143">
        <ele>167.9</ele>
        <time>2025-10-19T10:23:23Z</time>
      </trkpt>
      <trkpt lat="43.21006" lon="5.49143">
        <ele>167.7</ele>
        <time>2025-10-19T10:23:24Z</time>
      </trkpt>
      <trkpt lat="43.21006" lon="5.49143">
        <ele>167.7</ele>
        <time>2025-10-19T10:23:25Z</time>
      </trkpt>
      <trkpt lat="43.21006" lon="5.49142">
        <ele>167.7</ele>
        <time>2025-10-19T10:23:26Z</time>
      </trkpt>
      <trkpt lat="43.21006" lon="5.49142">
        <ele>167.7</ele>
        <time>2025-10-19T10:23:27Z</time>
      </trkpt>
      <trkpt lat="43.21006" lon="5.49142">
        <ele>167.8</ele>
        <time>2025-10-19T10:23:28Z</time>
      </trkpt>
      <trkpt lat="43.21006" lon="5.49142">
        <ele>167.8</ele>
        <time>2025-10-19T10:23:29Z</time>
      </trkpt>
      <trkpt lat="43.21006" lon="5.49142">
        <ele>167.8</ele>
        <time>2025-10-19T10:23:30Z</time>
      </trkpt>
      <trkpt lat="43.21006" lon="5.49142">
        <ele>167.8</ele>
        <time>2025-10-19T10:23:31Z</time>
      </trkpt>
      <trkpt lat="43.21006" lon="5.49142">
        <ele>167.8</ele>
        <time>2025-10-19T10:23:32Z</time>
      </trkpt>
      <trkpt lat="43.21007" lon="5.49141">
        <ele>167.8</ele>
        <time>2025-10-19T10:23:33Z</time>
      </trkpt>
      <trkpt lat="43.21006" lon="5.49141">
        <ele>167.8</ele>
        <time>2025-10-19T10:23:34Z</time>
      </trkpt>
      <trkpt lat="43.21006" lon="5.4914">
        <ele>167.8</ele>
        <time>2025-10-19T10:23:35Z</time>
      </trkpt>
      <trkpt lat="43.21006" lon="5.49139">
        <ele>167.7</ele>
        <time>2025-10-19T10:23:36Z</time>
      </trkpt>
      <trkpt lat="43.21007" lon="5.49138">
        <ele>167.7</ele>
        <time>2025-10-19T10:23:37Z</time>
      </trkpt>
      <trkpt lat="43.21006" lon="5.49138">
        <ele>167.6</ele>
        <time>2025-10-19T10:23:38Z</time>
      </trkpt>
      <trkpt lat="43.21006" lon="5.49138">
        <ele>167.6</ele>
        <time>2025-10-19T10:23:39Z</time>
      </trkpt>
      <trkpt lat="43.21007" lon="5.49138">
        <ele>167.5</ele>
        <time>2025-10-19T10:23:40Z</time>
      </trkpt>
      <trkpt lat="43.21007" lon="5.49138">
        <ele>167.5</ele>
        <time>2025-10-19T10:23:41Z</time>
      </trkpt>
      <trkpt lat="43.21007" lon="5.49138">
        <ele>167.4</ele>
        <time>2025-10-19T10:23:42Z</time>
      </trkpt>
      <trkpt lat="43.21007" lon="5.49138">
        <ele>167.3</ele>
        <time>2025-10-19T10:23:43Z</time>
      </trkpt>
      <trkpt lat="43.21007" lon="5.49138">
        <ele>167.3</ele>
        <time>2025-10-19T10:23:44Z</time>
      </trkpt>
      <trkpt lat="43.21007" lon="5.49138">
        <ele>167.3</ele>
        <time>2025-10-19T10:23:45Z</time>
      </trkpt>
      <trkpt lat="43.21007" lon="5.49138">
        <ele>167.4</ele>
        <time>2025-10-19T10:23:46Z</time>
      </trkpt>
      <trkpt lat="43.21008" lon="5.49138">
        <ele>167.4</ele>
        <time>2025-10-19T10:23:47Z</time>
      </trkpt>
      <trkpt lat="43.21008" lon="5.49138">
        <ele>167.3</ele>
        <time>2025-10-19T10:23:48Z</time>
      </trkpt>
      <trkpt lat="43.21008" lon="5.49138">
        <ele>167.3</ele>
        <time>2025-10-19T10:23:49Z</time>
      </trkpt>
      <trkpt lat="43.21008" lon="5.49137">
        <ele>167.3</ele>
        <time>2025-10-19T10:23:50Z</time>
      </trkpt>
      <trkpt lat="43.21008" lon="5.49137">
        <ele>167.3</ele>
        <time>2025-10-19T10:23:51Z</time>
      </trkpt>
      <trkpt lat="43.21008" lon="5.49137">
        <ele>167.3</ele>
        <time>2025-10-19T10:23:52Z</time>
      </trkpt>
      <trkpt lat="43.21009" lon="5.49137">
        <ele>167.4</ele>
        <time>2025-10-19T10:23:53Z</time>
      </trkpt>
      <trkpt lat="43.2101" lon="5.49137">
        <ele>167.4</ele>
        <time>2025-10-19T10:23:54Z</time>
      </trkpt>
      <trkpt lat="43.2101" lon="5.49137">
        <ele>167.4</ele>
        <time>2025-10-19T10:23:55Z</time>
      </trkpt>
      <trkpt lat="43.2101" lon="5.49137">
        <ele>167.4</ele>
        <time>2025-10-19T10:23:56Z</time>
      </trkpt>
      <trkpt lat="43.2101" lon="5.49136">
        <ele>167.5</ele>
        <time>2025-10-19T10:23:57Z</time>
      </trkpt>
      <trkpt lat="43.2101" lon="5.49136">
        <ele>167.5</ele>
        <time>2025-10-19T10:23:58Z</time>
      </trkpt>
      <trkpt lat="43.2101" lon="5.49136">
        <ele>167.6</ele>
        <time>2025-10-19T10:23:59Z</time>
      </trkpt>
      <trkpt lat="43.2101" lon="5.49136">
        <ele>167.7</ele>
        <time>2025-10-19T10:24:00Z</time>
      </trkpt>
      <trkpt lat="43.2101" lon="5.49136">
        <ele>167.8</ele>
        <time>2025-10-19T10:24:01Z</time>
      </trkpt>
      <trkpt lat="43.21009" lon="5.49136">
        <ele>167.8</ele>
        <time>2025-10-19T10:24:02Z</time>
      </trkpt>
      <trkpt lat="43.21009" lon="5.49135">
        <ele>167.8</ele>
        <time>2025-10-19T10:24:03Z</time>
      </trkpt>
      <trkpt lat="43.21008" lon="5.49135">
        <ele>167.8</ele>
        <time>2025-10-19T10:24:04Z</time>
      </trkpt>
      <trkpt lat="43.21007" lon="5.49134">
        <ele>167.8</ele>
        <time>2025-10-19T10:24:05Z</time>
      </trkpt>
      <trkpt lat="43.21007" lon="5.49134">
        <ele>167.8</ele>
        <time>2025-10-19T10:24:06Z</time>
      </trkpt>
      <trkpt lat="43.21007" lon="5.49133">
        <ele>167.7</ele>
        <time>2025-10-19T10:24:07Z</time>
      </trkpt>
      <trkpt lat="43.21007" lon="5.49132">
        <ele>167.7</ele>
        <time>2025-10-19T10:24:08Z</time>
      </trkpt>
      <trkpt lat="43.21007" lon="5.49131">
        <ele>167.6</ele>
        <time>2025-10-19T10:24:09Z</time>
      </trkpt>
      <trkpt lat="43.21007" lon="5.4913">
        <ele>167.4</ele>
        <time>2025-10-19T10:24:10Z</time>
      </trkpt>
      <trkpt lat="43.21008" lon="5.49129">
        <ele>167.4</ele>
        <time>2025-10-19T10:24:11Z</time>
      </trkpt>
      <trkpt lat="43.21008" lon="5.49127">
        <ele>167.3</ele>
        <time>2025-10-19T10:24:12Z</time>
      </trkpt>
      <trkpt lat="43.21008" lon="5.49127">
        <ele>167.1</ele>
        <time>2025-10-19T10:24:13Z</time>
      </trkpt>
      <trkpt lat="43.21009" lon="5.49125">
        <ele>167</ele>
        <time>2025-10-19T10:24:14Z</time>
      </trkpt>
      <trkpt lat="43.21009" lon="5.49124">
        <ele>166.8</ele>
        <time>2025-10-19T10:24:15Z</time>
      </trkpt>
      <trkpt lat="43.21009" lon="5.49123">
        <ele>166.6</ele>
        <time>2025-10-19T10:24:16Z</time>
      </trkpt>
      <trkpt lat="43.21009" lon="5.49122">
        <ele>166.5</ele>
        <time>2025-10-19T10:24:17Z</time>
      </trkpt>
      <trkpt lat="43.2101" lon="5.49121">
        <ele>166.4</ele>
        <time>2025-10-19T10:24:18Z</time>
      </trkpt>
      <trkpt lat="43.2101" lon="5.4912">
        <ele>166.3</ele>
        <time>2025-10-19T10:24:19Z</time>
      </trkpt>
      <trkpt lat="43.21011" lon="5.49118">
        <ele>166.1</ele>
        <time>2025-10-19T10:24:20Z</time>
      </trkpt>
      <trkpt lat="43.21012" lon="5.49117">
        <ele>165.9</ele>
        <time>2025-10-19T10:24:21Z</time>
      </trkpt>
      <trkpt lat="43.21012" lon="5.49116">
        <ele>165.7</ele>
        <time>2025-10-19T10:24:22Z</time>
      </trkpt>
      <trkpt lat="43.21012" lon="5.49115">
        <ele>165.5</ele>
        <time>2025-10-19T10:24:23Z</time>
      </trkpt>
      <trkpt lat="43.21012" lon="5.49113">
        <ele>165.4</ele>
        <time>2025-10-19T10:24:24Z</time>
      </trkpt>
      <trkpt lat="43.21013" lon="5.49112">
        <ele>165.3</ele>
        <time>2025-10-19T10:24:25Z</time>
      </trkpt>
      <trkpt lat="43.21013" lon="5.49111">
        <ele>165.2</ele>
        <time>2025-10-19T10:24:26Z</time>
      </trkpt>
      <trkpt lat="43.21014" lon="5.4911">
        <ele>165.2</ele>
        <time>2025-10-19T10:24:27Z</time>
      </trkpt>
      <trkpt lat="43.21014" lon="5.49108">
        <ele>165.1</ele>
        <time>2025-10-19T10:24:28Z</time>
      </trkpt>
      <trkpt lat="43.21014" lon="5.49108">
        <ele>164.9</ele>
        <time>2025-10-19T10:24:29Z</time>
      </trkpt>
      <trkpt lat="43.21014" lon="5.49108">
        <ele>164.7</ele>
        <time>2025-10-19T10:24:30Z</time>
      </trkpt>
      <trkpt lat="43.21014" lon="5.49108">
        <ele>164.6</ele>
        <time>2025-10-19T10:24:31Z</time>
      </trkpt>
      <trkpt lat="43.21014" lon="5.49108">
        <ele>164.5</ele>
        <time>2025-10-19T10:24:32Z</time>
      </trkpt>
      <trkpt lat="43.21015" lon="5.49108">
        <ele>164.5</ele>
        <time>2025-10-19T10:24:33Z</time>
      </trkpt>
      <trkpt lat="43.21015" lon="5.49108">
        <ele>164.5</ele>
        <time>2025-10-19T10:24:34Z</time>
      </trkpt>
      <trkpt lat="43.21015" lon="5.49107">
        <ele>164.4</ele>
        <time>2025-10-19T10:24:35Z</time>
      </trkpt>
      <trkpt lat="43.21015" lon="5.49107">
        <ele>164.4</ele>
        <time>2025-10-19T10:24:36Z</time>
      </trkpt>
      <trkpt lat="43.21015" lon="5.49107">
        <ele>164.4</ele>
        <time>2025-10-19T10:24:37Z</time>
      </trkpt>
      <trkpt lat="43.21015" lon="5.49107">
        <ele>164.4</ele>
        <time>2025-10-19T10:24:38Z</time>
      </trkpt>
      <trkpt lat="43.21015" lon="5.49107">
        <ele>164.4</ele>
        <time>2025-10-19T10:24:39Z</time>
      </trkpt>
      <trkpt lat="43.21015" lon="5.49107">
        <ele>164.4</ele>
        <time>2025-10-19T10:24:40Z</time>
      </trkpt>
      <trkpt lat="43.21015" lon="5.49107">
        <ele>164.4</ele>
        <time>2025-10-19T10:24:41Z</time>
      </trkpt>
      <trkpt lat="43.21015" lon="5.49107">
        <ele>164.4</ele>
        <time>2025-10-19T10:24:42Z</time>
      </trkpt>
      <trkpt lat="43.21015" lon="5.49107">
        <ele>164.4</ele>
        <time>2025-10-19T10:24:43Z</time>
      </trkpt>
      <trkpt lat="43.21015" lon="5.49107">
        <ele>164.4</ele>
        <time>2025-10-19T10:24:44Z</time>
      </trkpt>
      <trkpt lat="43.21015" lon="5.49107">
        <ele>164.4</ele>
        <time>2025-10-19T10:24:45Z</time>
      </trkpt>
      <trkpt lat="43.21015" lon="5.49107">
        <ele>164.4</ele>
        <time>2025-10-19T10:24:46Z</time>
      </trkpt>
      <trkpt lat="43.21015" lon="5.49107">
        <ele>164.4</ele>
        <time>2025-10-19T10:24:47Z</time>
      </trkpt>
      <trkpt lat="43.21015" lon="5.49107">
        <ele>164.4</ele>
        <time>2025-10-19T10:24:48Z</time>
      </trkpt>
      <trkpt lat="43.21015" lon="5.49107">
        <ele>164.4</ele>
        <time>2025-10-19T10:24:49Z</time>
      </trkpt>
      <trkpt lat="43.21015" lon="5.49106">
        <ele>164.4</ele>
        <time>2025-10-19T10:24:50Z</time>
      </trkpt>
      <trkpt lat="43.21015" lon="5.49106">
        <ele>164.4</ele>
        <time>2025-10-19T10:24:51Z</time>
      </trkpt>
      <trkpt lat="43.21015" lon="5.49106">
        <ele>164.4</ele>
        <time>2025-10-19T10:24:52Z</time>
      </trkpt>
      <trkpt lat="43.21014" lon="5.49106">
        <ele>164.5</ele>
        <time>2025-10-19T10:24:53Z</time>
      </trkpt>
      <trkpt lat="43.21014" lon="5.49106">
        <ele>164.5</ele>
        <time>2025-10-19T10:24:54Z</time>
      </trkpt>
      <trkpt lat="43.21014" lon="5.49106">
        <ele>164.6</ele>
        <time>2025-10-19T10:24:55Z</time>
      </trkpt>
      <trkpt lat="43.21014" lon="5.49106">
        <ele>164.7</ele>
        <time>2025-10-19T10:24:56Z</time>
      </trkpt>
      <trkpt lat="43.21014" lon="5.49106">
        <ele>164.7</ele>
        <time>2025-10-19T10:24:57Z</time>
      </trkpt>
      <trkpt lat="43.21014" lon="5.49106">
        <ele>164.7</ele>
        <time>2025-10-19T10:24:58Z</time>
      </trkpt>
      <trkpt lat="43.21014" lon="5.49106">
        <ele>164.8</ele>
        <time>2025-10-19T10:24:59Z</time>
      </trkpt>
      <trkpt lat="43.21014" lon="5.49106">
        <ele>164.8</ele>
        <time>2025-10-19T10:25:00Z</time>
      </trkpt>
      <trkpt lat="43.21014" lon="5.49106">
        <ele>164.8</ele>
        <time>2025-10-19T10:25:01Z</time>
      </trkpt>
      <trkpt lat="43.21014" lon="5.49106">
        <ele>164.7</ele>
        <time>2025-10-19T10:25:02Z</time>
      </trkpt>
      <trkpt lat="43.21014" lon="5.49106">
        <ele>164.6</ele>
        <time>2025-10-19T10:25:03Z</time>
      </trkpt>
      <trkpt lat="43.21014" lon="5.49106">
        <ele>164.6</ele>
        <time>2025-10-19T10:25:04Z</time>
      </trkpt>
      <trkpt lat="43.21014" lon="5.49106">
        <ele>164.5</ele>
        <time>2025-10-19T10:25:05Z</time>
      </trkpt>
      <trkpt lat="43.21014" lon="5.49106">
        <ele>164.5</ele>
        <time>2025-10-19T10:25:06Z</time>
      </trkpt>
      <trkpt lat="43.21014" lon="5.49106">
        <ele>164.6</ele>
        <time>2025-10-19T10:25:07Z</time>
      </trkpt>
      <trkpt lat="43.21014" lon="5.49106">
        <ele>164.6</ele>
        <time>2025-10-19T10:25:08Z</time>
      </trkpt>
      <trkpt lat="43.21014" lon="5.49106">
        <ele>164.6</ele>
        <time>2025-10-19T10:25:09Z</time>
      </trkpt>
      <trkpt lat="43.21014" lon="5.49106">
        <ele>164.6</ele>
        <time>2025-10-19T10:25:10Z</time>
      </trkpt>
      <trkpt lat="43.21014" lon="5.49106">
        <ele>164.7</ele>
        <time>2025-10-19T10:25:11Z</time>
      </trkpt>
      <trkpt lat="43.21013" lon="5.49106">
        <ele>164.7</ele>
        <time>2025-10-19T10:25:12Z</time>
      </trkpt>
      <trkpt lat="43.21013" lon="5.49106">
        <ele>164.8</ele>
        <time>2025-10-19T10:25:13Z</time>
      </trkpt>
      <trkpt lat="43.21013" lon="5.49106">
        <ele>164.8</ele>
        <time>2025-10-19T10:25:14Z</time>
      </trkpt>
      <trkpt lat="43.21013" lon="5.49105">
        <ele>164.8</ele>
        <time>2025-10-19T10:25:15Z</time>
      </trkpt>
      <trkpt lat="43.21013" lon="5.49105">
        <ele>164.8</ele>
        <time>2025-10-19T10:25:16Z</time>
      </trkpt>
      <trkpt lat="43.21013" lon="5.49105">
        <ele>164.7</ele>
        <time>2025-10-19T10:25:17Z</time>
      </trkpt>
      <trkpt lat="43.21013" lon="5.49105">
        <ele>164.7</ele>
        <time>2025-10-19T10:25:18Z</time>
      </trkpt>
      <trkpt lat="43.21013" lon="5.49105">
        <ele>164.8</ele>
        <time>2025-10-19T10:25:19Z</time>
      </trkpt>
      <trkpt lat="43.21013" lon="5.49106">
        <ele>164.8</ele>
        <time>2025-10-19T10:25:20Z</time>
      </trkpt>
      <trkpt lat="43.21014" lon="5.49106">
        <ele>164.7</ele>
        <time>2025-10-19T10:25:21Z</time>
      </trkpt>
      <trkpt lat="43.21014" lon="5.49106">
        <ele>164.7</ele>
        <time>2025-10-19T10:25:22Z</time>
      </trkpt>
      <trkpt lat="43.21013" lon="5.49106">
        <ele>164.7</ele>
        <time>2025-10-19T10:25:23Z</time>
      </trkpt>
      <trkpt lat="43.21013" lon="5.49106">
        <ele>164.6</ele>
        <time>2025-10-19T10:25:24Z</time>
      </trkpt>
      <trkpt lat="43.21013" lon="5.49106">
        <ele>164.6</ele>
        <time>2025-10-19T10:25:25Z</time>
      </trkpt>
      <trkpt lat="43.21013" lon="5.49106">
        <ele>164.7</ele>
        <time>2025-10-19T10:25:26Z</time>
      </trkpt>
      <trkpt lat="43.21014" lon="5.49106">
        <ele>164.7</ele>
        <time>2025-10-19T10:25:27Z</time>
      </trkpt>
      <trkpt lat="43.21014" lon="5.49106">
        <ele>164.7</ele>
        <time>2025-10-19T10:25:28Z</time>
      </trkpt>
      <trkpt lat="43.21014" lon="5.49105">
        <ele>164.6</ele>
        <time>2025-10-19T10:25:29Z</time>
      </trkpt>
      <trkpt lat="43.21014" lon="5.49105">
        <ele>164.6</ele>
        <time>2025-10-19T10:25:30Z</time>
      </trkpt>
      <trkpt lat="43.21014" lon="5.49105">
        <ele>164.6</ele>
        <time>2025-10-19T10:25:31Z</time>
      </trkpt>
      <trkpt lat="43.21014" lon="5.49105">
        <ele>164.6</ele>
        <time>2025-10-19T10:25:32Z</time>
      </trkpt>
      <trkpt lat="43.21014" lon="5.49105">
        <ele>164.5</ele>
        <time>2025-10-19T10:25:33Z</time>
      </trkpt>
      <trkpt lat="43.21014" lon="5.49105">
        <ele>164.6</ele>
        <time>2025-10-19T10:25:34Z</time>
      </trkpt>
      <trkpt lat="43.21014" lon="5.49105">
        <ele>164.6</ele>
        <time>2025-10-19T10:25:35Z</time>
      </trkpt>
      <trkpt lat="43.21014" lon="5.49105">
        <ele>164.7</ele>
        <time>2025-10-19T10:25:36Z</time>
      </trkpt>
      <trkpt lat="43.21013" lon="5.49105">
        <ele>164.7</ele>
        <time>2025-10-19T10:25:37Z</time>
      </trkpt>
      <trkpt lat="43.21013" lon="5.49105">
        <ele>164.7</ele>
        <time>2025-10-19T10:25:38Z</time>
      </trkpt>
      <trkpt lat="43.21013" lon="5.49105">
        <ele>164.7</ele>
        <time>2025-10-19T10:25:39Z</time>
      </trkpt>
      <trkpt lat="43.21013" lon="5.49104">
        <ele>164.7</ele>
        <time>2025-10-19T10:25:40Z</time>
      </trkpt>
      <trkpt lat="43.21012" lon="5.49104">
        <ele>164.8</ele>
        <time>2025-10-19T10:25:41Z</time>
      </trkpt>
      <trkpt lat="43.21012" lon="5.49104">
        <ele>164.7</ele>
        <time>2025-10-19T10:25:42Z</time>
      </trkpt>
      <trkpt lat="43.21012" lon="5.49104">
        <ele>164.8</ele>
        <time>2025-10-19T10:25:43Z</time>
      </trkpt>
      <trkpt lat="43.21012" lon="5.49104">
        <ele>164.8</ele>
        <time>2025-10-19T10:25:44Z</time>
      </trkpt>
      <trkpt lat="43.21012" lon="5.49104">
        <ele>164.8</ele>
        <time>2025-10-19T10:25:45Z</time>
      </trkpt>
      <trkpt lat="43.21012" lon="5.49104">
        <ele>164.7</ele>
        <time>2025-10-19T10:25:46Z</time>
      </trkpt>
      <trkpt lat="43.21012" lon="5.49104">
        <ele>164.7</ele>
        <time>2025-10-19T10:25:47Z</time>
      </trkpt>
      <trkpt lat="43.21011" lon="5.49104">
        <ele>164.7</ele>
        <time>2025-10-19T10:25:48Z</time>
      </trkpt>
      <trkpt lat="43.21011" lon="5.49104">
        <ele>164.8</ele>
        <time>2025-10-19T10:25:49Z</time>
      </trkpt>
      <trkpt lat="43.21011" lon="5.49104">
        <ele>164.8</ele>
        <time>2025-10-19T10:25:50Z</time>
      </trkpt>
      <trkpt lat="43.21011" lon="5.49104">
        <ele>164.8</ele>
        <time>2025-10-19T10:25:51Z</time>
      </trkpt>
      <trkpt lat="43.2101" lon="5.49104">
        <ele>164.8</ele>
        <time>2025-10-19T10:25:52Z</time>
      </trkpt>
      <trkpt lat="43.2101" lon="5.49104">
        <ele>164.8</ele>
        <time>2025-10-19T10:25:53Z</time>
      </trkpt>
      <trkpt lat="43.2101" lon="5.49104">
        <ele>164.7</ele>
        <time>2025-10-19T10:25:54Z</time>
      </trkpt>
      <trkpt lat="43.2101" lon="5.49104">
        <ele>164.7</ele>
        <time>2025-10-19T10:25:55Z</time>
      </trkpt>
      <trkpt lat="43.21009" lon="5.49104">
        <ele>164.7</ele>
        <time>2025-10-19T10:25:56Z</time>
      </trkpt>
      <trkpt lat="43.21009" lon="5.49104">
        <ele>164.7</ele>
        <time>2025-10-19T10:25:57Z</time>
      </trkpt>
      <trkpt lat="43.21009" lon="5.49104">
        <ele>164.8</ele>
        <time>2025-10-19T10:25:58Z</time>
      </trkpt>
      <trkpt lat="43.21009" lon="5.49104">
        <ele>164.7</ele>
        <time>2025-10-19T10:25:59Z</time>
      </trkpt>
      <trkpt lat="43.21009" lon="5.49104">
        <ele>164.7</ele>
        <time>2025-10-19T10:26:00Z</time>
      </trkpt>
      <trkpt lat="43.21009" lon="5.49104">
        <ele>164.8</ele>
        <time>2025-10-19T10:26:01Z</time>
      </trkpt>
      <trkpt lat="43.21009" lon="5.49104">
        <ele>165</ele>
        <time>2025-10-19T10:26:02Z</time>
      </trkpt>
      <trkpt lat="43.21009" lon="5.49104">
        <ele>165</ele>
        <time>2025-10-19T10:26:03Z</time>
      </trkpt>
      <trkpt lat="43.21009" lon="5.49104">
        <ele>165.1</ele>
        <time>2025-10-19T10:26:04Z</time>
      </trkpt>
      <trkpt lat="43.21009" lon="5.49104">
        <ele>165.1</ele>
        <time>2025-10-19T10:26:05Z</time>
      </trkpt>
      <trkpt lat="43.21009" lon="5.49104">
        <ele>165</ele>
        <time>2025-10-19T10:26:06Z</time>
      </trkpt>
      <trkpt lat="43.21009" lon="5.49104">
        <ele>165.1</ele>
        <time>2025-10-19T10:26:07Z</time>
      </trkpt>
      <trkpt lat="43.21009" lon="5.49104">
        <ele>165.1</ele>
        <time>2025-10-19T10:26:08Z</time>
      </trkpt>
      <trkpt lat="43.21009" lon="5.49104">
        <ele>165</ele>
        <time>2025-10-19T10:26:09Z</time>
      </trkpt>
      <trkpt lat="43.21009" lon="5.49104">
        <ele>164.9</ele>
        <time>2025-10-19T10:26:10Z</time>
      </trkpt>
      <trkpt lat="43.21009" lon="5.49104">
        <ele>164.9</ele>
        <time>2025-10-19T10:26:11Z</time>
      </trkpt>
      <trkpt lat="43.2101" lon="5.49103">
        <ele>164.8</ele>
        <time>2025-10-19T10:26:12Z</time>
      </trkpt>
      <trkpt lat="43.2101" lon="5.49104">
        <ele>164.8</ele>
        <time>2025-10-19T10:26:13Z</time>
      </trkpt>
      <trkpt lat="43.2101" lon="5.49105">
        <ele>164.8</ele>
        <time>2025-10-19T10:26:14Z</time>
      </trkpt>
      <trkpt lat="43.2101" lon="5.49106">
        <ele>164.9</ele>
        <time>2025-10-19T10:26:15Z</time>
      </trkpt>
      <trkpt lat="43.2101" lon="5.49107">
        <ele>165</ele>
        <time>2025-10-19T10:26:16Z</time>
      </trkpt>
      <trkpt lat="43.2101" lon="5.49108">
        <ele>165</ele>
        <time>2025-10-19T10:26:17Z</time>
      </trkpt>
      <trkpt lat="43.2101" lon="5.49109">
        <ele>165.1</ele>
        <time>2025-10-19T10:26:18Z</time>
      </trkpt>
      <trkpt lat="43.2101" lon="5.4911">
        <ele>165.1</ele>
        <time>2025-10-19T10:26:19Z</time>
      </trkpt>
      <trkpt lat="43.2101" lon="5.49111">
        <ele>165.1</ele>
        <time>2025-10-19T10:26:20Z</time>
      </trkpt>
      <trkpt lat="43.2101" lon="5.49112">
        <ele>165.1</ele>
        <time>2025-10-19T10:26:21Z</time>
      </trkpt>
      <trkpt lat="43.21011" lon="5.49113">
        <ele>165.2</ele>
        <time>2025-10-19T10:26:22Z</time>
      </trkpt>
      <trkpt lat="43.21011" lon="5.49113">
        <ele>165.4</ele>
        <time>2025-10-19T10:26:23Z</time>
      </trkpt>
      <trkpt lat="43.21012" lon="5.49114">
        <ele>165.6</ele>
        <time>2025-10-19T10:26:24Z</time>
      </trkpt>
      <trkpt lat="43.21012" lon="5.49114">
        <ele>165.9</ele>
        <time>2025-10-19T10:26:25Z</time>
      </trkpt>
      <trkpt lat="43.21012" lon="5.49115">
        <ele>166.1</ele>
        <time>2025-10-19T10:26:26Z</time>
      </trkpt>
      <trkpt lat="43.21012" lon="5.49116">
        <ele>166.4</ele>
        <time>2025-10-19T10:26:27Z</time>
      </trkpt>
      <trkpt lat="43.21013" lon="5.49117">
        <ele>166.6</ele>
        <time>2025-10-19T10:26:28Z</time>
      </trkpt>
      <trkpt lat="43.21013" lon="5.49117">
        <ele>166.9</ele>
        <time>2025-10-19T10:26:29Z</time>
      </trkpt>
      <trkpt lat="43.21014" lon="5.49118">
        <ele>167.1</ele>
        <time>2025-10-19T10:26:30Z</time>
      </trkpt>
      <trkpt lat="43.21015" lon="5.49118">
        <ele>167.2</ele>
        <time>2025-10-19T10:26:31Z</time>
      </trkpt>
      <trkpt lat="43.21015" lon="5.49118">
        <ele>167.3</ele>
        <time>2025-10-19T10:26:32Z</time>
      </trkpt>
      <trkpt lat="43.21016" lon="5.49119">
        <ele>167.4</ele>
        <time>2025-10-19T10:26:33Z</time>
      </trkpt>
      <trkpt lat="43.21017" lon="5.49119">
        <ele>167.5</ele>
        <time>2025-10-19T10:26:34Z</time>
      </trkpt>
      <trkpt lat="43.21017" lon="5.49119">
        <ele>167.6</ele>
        <time>2025-10-19T10:26:35Z</time>
      </trkpt>
      <trkpt lat="43.21018" lon="5.4912">
        <ele>167.7</ele>
        <time>2025-10-19T10:26:36Z</time>
      </trkpt>
      <trkpt lat="43.21018" lon="5.4912">
        <ele>167.7</ele>
        <time>2025-10-19T10:26:37Z</time>
      </trkpt>
      <trkpt lat="43.21018" lon="5.49121">
        <ele>167.8</ele>
        <time>2025-10-19T10:26:38Z</time>
      </trkpt>
      <trkpt lat="43.21018" lon="5.49121">
        <ele>167.8</ele>
        <time>2025-10-19T10:26:39Z</time>
      </trkpt>
      <trkpt lat="43.21019" lon="5.49122">
        <ele>167.9</ele>
        <time>2025-10-19T10:26:40Z</time>
      </trkpt>
      <trkpt lat="43.21019" lon="5.49122">
        <ele>168</ele>
        <time>2025-10-19T10:26:41Z</time>
      </trkpt>
      <trkpt lat="43.21019" lon="5.49121">
        <ele>168</ele>
        <time>2025-10-19T10:26:42Z</time>
      </trkpt>
      <trkpt lat="43.21019" lon="5.49121">
        <ele>168.1</ele>
        <time>2025-10-19T10:26:43Z</time>
      </trkpt>
      <trkpt lat="43.21019" lon="5.49121">
        <ele>168.1</ele>
        <time>2025-10-19T10:26:44Z</time>
      </trkpt>
      <trkpt lat="43.21019" lon="5.49121">
        <ele>168.1</ele>
        <time>2025-10-19T10:26:45Z</time>
      </trkpt>
      <trkpt lat="43.21019" lon="5.49121">
        <ele>168</ele>
        <time>2025-10-19T10:26:46Z</time>
      </trkpt>
      <trkpt lat="43.21019" lon="5.49121">
        <ele>167.9</ele>
        <time>2025-10-19T10:26:47Z</time>
      </trkpt>
      <trkpt lat="43.21019" lon="5.49121">
        <ele>167.9</ele>
        <time>2025-10-19T10:26:48Z</time>
      </trkpt>
      <trkpt lat="43.21019" lon="5.49121">
        <ele>167.8</ele>
        <time>2025-10-19T10:26:49Z</time>
      </trkpt>
      <trkpt lat="43.21019" lon="5.49121">
        <ele>167.8</ele>
        <time>2025-10-19T10:26:50Z</time>
      </trkpt>
      <trkpt lat="43.21019" lon="5.49121">
        <ele>167.9</ele>
        <time>2025-10-19T10:26:51Z</time>
      </trkpt>
      <trkpt lat="43.21019" lon="5.49121">
        <ele>167.9</ele>
        <time>2025-10-19T10:26:52Z</time>
      </trkpt>
      <trkpt lat="43.21019" lon="5.49121">
        <ele>167.9</ele>
        <time>2025-10-19T10:26:53Z</time>
      </trkpt>
      <trkpt lat="43.2102" lon="5.49121">
        <ele>168.1</ele>
        <time>2025-10-19T10:26:54Z</time>
      </trkpt>
      <trkpt lat="43.2102" lon="5.49121">
        <ele>168.1</ele>
        <time>2025-10-19T10:26:55Z</time>
      </trkpt>
      <trkpt lat="43.2102" lon="5.49121">
        <ele>168.1</ele>
        <time>2025-10-19T10:26:56Z</time>
      </trkpt>
      <trkpt lat="43.2102" lon="5.49121">
        <ele>168.1</ele>
        <time>2025-10-19T10:26:57Z</time>
      </trkpt>
      <trkpt lat="43.21021" lon="5.49121">
        <ele>168.2</ele>
        <time>2025-10-19T10:26:58Z</time>
      </trkpt>
      <trkpt lat="43.21021" lon="5.49122">
        <ele>168.2</ele>
        <time>2025-10-19T10:26:59Z</time>
      </trkpt>
      <trkpt lat="43.21022" lon="5.49122">
        <ele>168.3</ele>
        <time>2025-10-19T10:27:00Z</time>
      </trkpt>
      <trkpt lat="43.21023" lon="5.49122">
        <ele>168.3</ele>
        <time>2025-10-19T10:27:01Z</time>
      </trkpt>
      <trkpt lat="43.21024" lon="5.49122">
        <ele>168.4</ele>
        <time>2025-10-19T10:27:02Z</time>
      </trkpt>
      <trkpt lat="43.21025" lon="5.49123">
        <ele>168.3</ele>
        <time>2025-10-19T10:27:03Z</time>
      </trkpt>
      <trkpt lat="43.21026" lon="5.49122">
        <ele>168.4</ele>
        <time>2025-10-19T10:27:04Z</time>
      </trkpt>
      <trkpt lat="43.21027" lon="5.49122">
        <ele>168.3</ele>
        <time>2025-10-19T10:27:05Z</time>
      </trkpt>
      <trkpt lat="43.21028" lon="5.49122">
        <ele>168.3</ele>
        <time>2025-10-19T10:27:06Z</time>
      </trkpt>
      <trkpt lat="43.21028" lon="5.49122">
        <ele>168.2</ele>
        <time>2025-10-19T10:27:07Z</time>
      </trkpt>
      <trkpt lat="43.21029" lon="5.49121">
        <ele>168.2</ele>
        <time>2025-10-19T10:27:08Z</time>
      </trkpt>
      <trkpt lat="43.2103" lon="5.4912">
        <ele>168.2</ele>
        <time>2025-10-19T10:27:09Z</time>
      </trkpt>
      <trkpt lat="43.2103" lon="5.4912">
        <ele>168.2</ele>
        <time>2025-10-19T10:27:10Z</time>
      </trkpt>
      <trkpt lat="43.21031" lon="5.4912">
        <ele>168.1</ele>
        <time>2025-10-19T10:27:11Z</time>
      </trkpt>
      <trkpt lat="43.21032" lon="5.49119">
        <ele>168.2</ele>
        <time>2025-10-19T10:27:12Z</time>
      </trkpt>
      <trkpt lat="43.21032" lon="5.49118">
        <ele>168</ele>
        <time>2025-10-19T10:27:13Z</time>
      </trkpt>
      <trkpt lat="43.21033" lon="5.49117">
        <ele>168</ele>
        <time>2025-10-19T10:27:14Z</time>
      </trkpt>
      <trkpt lat="43.21034" lon="5.49116">
        <ele>168</ele>
        <time>2025-10-19T10:27:15Z</time>
      </trkpt>
      <trkpt lat="43.21034" lon="5.49115">
        <ele>168.1</ele>
        <time>2025-10-19T10:27:16Z</time>
      </trkpt>
      <trkpt lat="43.21035" lon="5.49114">
        <ele>168.1</ele>
        <time>2025-10-19T10:27:17Z</time>
      </trkpt>
      <trkpt lat="43.21036" lon="5.49113">
        <ele>168.1</ele>
        <time>2025-10-19T10:27:18Z</time>
      </trkpt>
      <trkpt lat="43.21036" lon="5.49113">
        <ele>168.1</ele>
        <time>2025-10-19T10:27:19Z</time>
      </trkpt>
      <trkpt lat="43.21037" lon="5.49112">
        <ele>168.3</ele>
        <time>2025-10-19T10:27:20Z</time>
      </trkpt>
      <trkpt lat="43.21038" lon="5.49111">
        <ele>168.4</ele>
        <time>2025-10-19T10:27:21Z</time>
      </trkpt>
      <trkpt lat="43.21039" lon="5.4911">
        <ele>168.5</ele>
        <time>2025-10-19T10:27:22Z</time>
      </trkpt>
      <trkpt lat="43.21039" lon="5.49109">
        <ele>168.5</ele>
        <time>2025-10-19T10:27:23Z</time>
      </trkpt>
      <trkpt lat="43.2104" lon="5.49108">
        <ele>168.6</ele>
        <time>2025-10-19T10:27:24Z</time>
      </trkpt>
      <trkpt lat="43.2104" lon="5.49107">
        <ele>168.6</ele>
        <time>2025-10-19T10:27:25Z</time>
      </trkpt>
      <trkpt lat="43.21041" lon="5.49106">
        <ele>168.6</ele>
        <time>2025-10-19T10:27:26Z</time>
      </trkpt>
      <trkpt lat="43.21041" lon="5.49105">
        <ele>168.7</ele>
        <time>2025-10-19T10:27:27Z</time>
      </trkpt>
      <trkpt lat="43.21041" lon="5.49104">
        <ele>168.8</ele>
        <time>2025-10-19T10:27:28Z</time>
      </trkpt>
      <trkpt lat="43.21041" lon="5.49104">
        <ele>168.9</ele>
        <time>2025-10-19T10:27:29Z</time>
      </trkpt>
      <trkpt lat="43.21042" lon="5.49103">
        <ele>168.9</ele>
        <time>2025-10-19T10:27:30Z</time>
      </trkpt>
      <trkpt lat="43.21042" lon="5.49102">
        <ele>169</ele>
        <time>2025-10-19T10:27:31Z</time>
      </trkpt>
      <trkpt lat="43.21043" lon="5.49101">
        <ele>169</ele>
        <time>2025-10-19T10:27:32Z</time>
      </trkpt>
      <trkpt lat="43.21044" lon="5.49101">
        <ele>169.1</ele>
        <time>2025-10-19T10:27:33Z</time>
      </trkpt>
      <trkpt lat="43.21044" lon="5.491">
        <ele>169.1</ele>
        <time>2025-10-19T10:27:34Z</time>
      </trkpt>
      <trkpt lat="43.21044" lon="5.49099">
        <ele>169.1</ele>
        <time>2025-10-19T10:27:35Z</time>
      </trkpt>
      <trkpt lat="43.21045" lon="5.49098">
        <ele>169.1</ele>
        <time>2025-10-19T10:27:36Z</time>
      </trkpt>
      <trkpt lat="43.21045" lon="5.49097">
        <ele>169.1</ele>
        <time>2025-10-19T10:27:37Z</time>
      </trkpt>
      <trkpt lat="43.21046" lon="5.49096">
        <ele>169.2</ele>
        <time>2025-10-19T10:27:38Z</time>
      </trkpt>
      <trkpt lat="43.21046" lon="5.49096">
        <ele>169.2</ele>
        <time>2025-10-19T10:27:39Z</time>
      </trkpt>
      <trkpt lat="43.21046" lon="5.49096">
        <ele>169.3</ele>
        <time>2025-10-19T10:27:40Z</time>
      </trkpt>
      <trkpt lat="43.21046" lon="5.49096">
        <ele>169.3</ele>
        <time>2025-10-19T10:27:41Z</time>
      </trkpt>
      <trkpt lat="43.21046" lon="5.49096">
        <ele>169.3</ele>
        <time>2025-10-19T10:27:42Z</time>
      </trkpt>
      <trkpt lat="43.21046" lon="5.49096">
        <ele>169.4</ele>
        <time>2025-10-19T10:27:43Z</time>
      </trkpt>
      <trkpt lat="43.21046" lon="5.49095">
        <ele>169.5</ele>
        <time>2025-10-19T10:27:44Z</time>
      </trkpt>
      <trkpt lat="43.21046" lon="5.49095">
        <ele>169.6</ele>
        <time>2025-10-19T10:27:45Z</time>
      </trkpt>
      <trkpt lat="43.21047" lon="5.49094">
        <ele>169.7</ele>
        <time>2025-10-19T10:27:46Z</time>
      </trkpt>
      <trkpt lat="43.21048" lon="5.49093">
        <ele>169.7</ele>
        <time>2025-10-19T10:27:47Z</time>
      </trkpt>
      <trkpt lat="43.21048" lon="5.49092">
        <ele>169.8</ele>
        <time>2025-10-19T10:27:48Z</time>
      </trkpt>
      <trkpt lat="43.21048" lon="5.49091">
        <ele>169.8</ele>
        <time>2025-10-19T10:27:49Z</time>
      </trkpt>
      <trkpt lat="43.21049" lon="5.4909">
        <ele>169.8</ele>
        <time>2025-10-19T10:27:50Z</time>
      </trkpt>
      <trkpt lat="43.21049" lon="5.49089">
        <ele>169.9</ele>
        <time>2025-10-19T10:27:51Z</time>
      </trkpt>
      <trkpt lat="43.2105" lon="5.49088">
        <ele>169.9</ele>
        <time>2025-10-19T10:27:52Z</time>
      </trkpt>
      <trkpt lat="43.2105" lon="5.49087">
        <ele>169.9</ele>
        <time>2025-10-19T10:27:53Z</time>
      </trkpt>
      <trkpt lat="43.21051" lon="5.49086">
        <ele>170</ele>
        <time>2025-10-19T10:27:54Z</time>
      </trkpt>
      <trkpt lat="43.21051" lon="5.49085">
        <ele>170.1</ele>
        <time>2025-10-19T10:27:55Z</time>
      </trkpt>
      <trkpt lat="43.21052" lon="5.49084">
        <ele>170.2</ele>
        <time>2025-10-19T10:27:56Z</time>
      </trkpt>
      <trkpt lat="43.21052" lon="5.49083">
        <ele>170.3</ele>
        <time>2025-10-19T10:27:57Z</time>
      </trkpt>
      <trkpt lat="43.21052" lon="5.49083">
        <ele>170.4</ele>
        <time>2025-10-19T10:27:58Z</time>
      </trkpt>
      <trkpt lat="43.21052" lon="5.49083">
        <ele>170.5</ele>
        <time>2025-10-19T10:27:59Z</time>
      </trkpt>
      <trkpt lat="43.21052" lon="5.49083">
        <ele>170.5</ele>
        <time>2025-10-19T10:28:00Z</time>
      </trkpt>
      <trkpt lat="43.21052" lon="5.49083">
        <ele>170.5</ele>
        <time>2025-10-19T10:28:01Z</time>
      </trkpt>
      <trkpt lat="43.21051" lon="5.49083">
        <ele>170.5</ele>
        <time>2025-10-19T10:28:02Z</time>
      </trkpt>
      <trkpt lat="43.21051" lon="5.49083">
        <ele>170.5</ele>
        <time>2025-10-19T10:28:03Z</time>
      </trkpt>
      <trkpt lat="43.21051" lon="5.49083">
        <ele>170.5</ele>
        <time>2025-10-19T10:28:04Z</time>
      </trkpt>
      <trkpt lat="43.21051" lon="5.49084">
        <ele>170.6</ele>
        <time>2025-10-19T10:28:05Z</time>
      </trkpt>
      <trkpt lat="43.21051" lon="5.49083">
        <ele>170.6</ele>
        <time>2025-10-19T10:28:06Z</time>
      </trkpt>
      <trkpt lat="43.21051" lon="5.49083">
        <ele>170.6</ele>
        <time>2025-10-19T10:28:07Z</time>
      </trkpt>
      <trkpt lat="43.21051" lon="5.49083">
        <ele>170.6</ele>
        <time>2025-10-19T10:28:08Z</time>
      </trkpt>
      <trkpt lat="43.21051" lon="5.49083">
        <ele>170.6</ele>
        <time>2025-10-19T10:28:09Z</time>
      </trkpt>
      <trkpt lat="43.21051" lon="5.49084">
        <ele>170.6</ele>
        <time>2025-10-19T10:28:10Z</time>
      </trkpt>
      <trkpt lat="43.21051" lon="5.49084">
        <ele>170.6</ele>
        <time>2025-10-19T10:28:11Z</time>
      </trkpt>
      <trkpt lat="43.21051" lon="5.49084">
        <ele>170.6</ele>
        <time>2025-10-19T10:28:12Z</time>
      </trkpt>
      <trkpt lat="43.2105" lon="5.49085">
        <ele>170.5</ele>
        <time>2025-10-19T10:28:13Z</time>
      </trkpt>
      <trkpt lat="43.2105" lon="5.49086">
        <ele>170.5</ele>
        <time>2025-10-19T10:28:14Z</time>
      </trkpt>
      <trkpt lat="43.2105" lon="5.49087">
        <ele>170.5</ele>
        <time>2025-10-19T10:28:15Z</time>
      </trkpt>
      <trkpt lat="43.2105" lon="5.49087">
        <ele>170.5</ele>
        <time>2025-10-19T10:28:16Z</time>
      </trkpt>
      <trkpt lat="43.2105" lon="5.49087">
        <ele>170.5</ele>
        <time>2025-10-19T10:28:17Z</time>
      </trkpt>
      <trkpt lat="43.21049" lon="5.49088">
        <ele>170.4</ele>
        <time>2025-10-19T10:28:18Z</time>
      </trkpt>
      <trkpt lat="43.21049" lon="5.49089">
        <ele>170.4</ele>
        <time>2025-10-19T10:28:19Z</time>
      </trkpt>
      <trkpt lat="43.21049" lon="5.4909">
        <ele>170.3</ele>
        <time>2025-10-19T10:28:20Z</time>
      </trkpt>
      <trkpt lat="43.21049" lon="5.49091">
        <ele>170.3</ele>
        <time>2025-10-19T10:28:21Z</time>
      </trkpt>
      <trkpt lat="43.21048" lon="5.49092">
        <ele>170.3</ele>
        <time>2025-10-19T10:28:22Z</time>
      </trkpt>
      <trkpt lat="43.21048" lon="5.49093">
        <ele>170.2</ele>
        <time>2025-10-19T10:28:23Z</time>
      </trkpt>
      <trkpt lat="43.21048" lon="5.49094">
        <ele>170.2</ele>
        <time>2025-10-19T10:28:24Z</time>
      </trkpt>
      <trkpt lat="43.21048" lon="5.49096">
        <ele>170.1</ele>
        <time>2025-10-19T10:28:25Z</time>
      </trkpt>
      <trkpt lat="43.21048" lon="5.49097">
        <ele>170</ele>
        <time>2025-10-19T10:28:26Z</time>
      </trkpt>
      <trkpt lat="43.21048" lon="5.49098">
        <ele>169.9</ele>
        <time>2025-10-19T10:28:27Z</time>
      </trkpt>
      <trkpt lat="43.21048" lon="5.49099">
        <ele>169.9</ele>
        <time>2025-10-19T10:28:28Z</time>
      </trkpt>
      <trkpt lat="43.21048" lon="5.49099">
        <ele>169.8</ele>
        <time>2025-10-19T10:28:29Z</time>
      </trkpt>
      <trkpt lat="43.21049" lon="5.491">
        <ele>169.6</ele>
        <time>2025-10-19T10:28:30Z</time>
      </trkpt>
      <trkpt lat="43.21049" lon="5.491">
        <ele>169.7</ele>
        <time>2025-10-19T10:28:31Z</time>
      </trkpt>
      <trkpt lat="43.2105" lon="5.491">
        <ele>169.6</ele>
        <time>2025-10-19T10:28:32Z</time>
      </trkpt>
      <trkpt lat="43.21051" lon="5.49101">
        <ele>169.5</ele>
        <time>2025-10-19T10:28:33Z</time>
      </trkpt>
      <trkpt lat="43.21051" lon="5.491">
        <ele>169.5</ele>
        <time>2025-10-19T10:28:34Z</time>
      </trkpt>
      <trkpt lat="43.21052" lon="5.491">
        <ele>169.4</ele>
        <time>2025-10-19T10:28:35Z</time>
      </trkpt>
      <trkpt lat="43.21052" lon="5.491">
        <ele>169.3</ele>
        <time>2025-10-19T10:28:36Z</time>
      </trkpt>
      <trkpt lat="43.21053" lon="5.491">
        <ele>169.2</ele>
        <time>2025-10-19T10:28:37Z</time>
      </trkpt>
      <trkpt lat="43.21054" lon="5.491">
        <ele>169.2</ele>
        <time>2025-10-19T10:28:38Z</time>
      </trkpt>
      <trkpt lat="43.21054" lon="5.491">
        <ele>169.1</ele>
        <time>2025-10-19T10:28:39Z</time>
      </trkpt>
      <trkpt lat="43.21054" lon="5.49099">
        <ele>169.1</ele>
        <time>2025-10-19T10:28:40Z</time>
      </trkpt>
      <trkpt lat="43.21054" lon="5.491">
        <ele>169.1</ele>
        <time>2025-10-19T10:28:41Z</time>
      </trkpt>
      <trkpt lat="43.21054" lon="5.491">
        <ele>169</ele>
        <time>2025-10-19T10:28:42Z</time>
      </trkpt>
      <trkpt lat="43.21053" lon="5.491">
        <ele>169</ele>
        <time>2025-10-19T10:28:43Z</time>
      </trkpt>
      <trkpt lat="43.21053" lon="5.491">
        <ele>168.9</ele>
        <time>2025-10-19T10:28:44Z</time>
      </trkpt>
      <trkpt lat="43.21054" lon="5.491">
        <ele>168.9</ele>
        <time>2025-10-19T10:28:45Z</time>
      </trkpt>
      <trkpt lat="43.21055" lon="5.491">
        <ele>168.8</ele>
        <time>2025-10-19T10:28:46Z</time>
      </trkpt>
      <trkpt lat="43.21055" lon="5.491">
        <ele>168.8</ele>
        <time>2025-10-19T10:28:47Z</time>
      </trkpt>
      <trkpt lat="43.21056" lon="5.49099">
        <ele>168.8</ele>
        <time>2025-10-19T10:28:48Z</time>
      </trkpt>
      <trkpt lat="43.21056" lon="5.49099">
        <ele>168.7</ele>
        <time>2025-10-19T10:28:49Z</time>
      </trkpt>
      <trkpt lat="43.21056" lon="5.49099">
        <ele>168.7</ele>
        <time>2025-10-19T10:28:50Z</time>
      </trkpt>
      <trkpt lat="43.21056" lon="5.49099">
        <ele>168.7</ele>
        <time>2025-10-19T10:28:51Z</time>
      </trkpt>
      <trkpt lat="43.21056" lon="5.49099">
        <ele>168.7</ele>
        <time>2025-10-19T10:28:52Z</time>
      </trkpt>
      <trkpt lat="43.21056" lon="5.491">
        <ele>168.6</ele>
        <time>2025-10-19T10:28:53Z</time>
      </trkpt>
      <trkpt lat="43.21056" lon="5.491">
        <ele>168.6</ele>
        <time>2025-10-19T10:28:54Z</time>
      </trkpt>
      <trkpt lat="43.21055" lon="5.491">
        <ele>168.6</ele>
        <time>2025-10-19T10:28:55Z</time>
      </trkpt>
      <trkpt lat="43.21055" lon="5.491">
        <ele>168.6</ele>
        <time>2025-10-19T10:28:56Z</time>
      </trkpt>
      <trkpt lat="43.21055" lon="5.491">
        <ele>168.6</ele>
        <time>2025-10-19T10:28:57Z</time>
      </trkpt>
      <trkpt lat="43.21055" lon="5.491">
        <ele>168.6</ele>
        <time>2025-10-19T10:28:58Z</time>
      </trkpt>
      <trkpt lat="43.21055" lon="5.491">
        <ele>168.6</ele>
        <time>2025-10-19T10:28:59Z</time>
      </trkpt>
      <trkpt lat="43.21055" lon="5.491">
        <ele>168.6</ele>
        <time>2025-10-19T10:29:00Z</time>
      </trkpt>
      <trkpt lat="43.21055" lon="5.491">
        <ele>168.6</ele>
        <time>2025-10-19T10:29:01Z</time>
      </trkpt>
      <trkpt lat="43.21055" lon="5.491">
        <ele>168.6</ele>
        <time>2025-10-19T10:29:02Z</time>
      </trkpt>
      <trkpt lat="43.21055" lon="5.491">
        <ele>168.5</ele>
        <time>2025-10-19T10:29:03Z</time>
      </trkpt>
      <trkpt lat="43.21055" lon="5.491">
        <ele>168.5</ele>
        <time>2025-10-19T10:29:04Z</time>
      </trkpt>
      <trkpt lat="43.21054" lon="5.491">
        <ele>168.5</ele>
        <time>2025-10-19T10:29:05Z</time>
      </trkpt>
      <trkpt lat="43.21054" lon="5.491">
        <ele>168.5</ele>
        <time>2025-10-19T10:29:06Z</time>
      </trkpt>
      <trkpt lat="43.21054" lon="5.49101">
        <ele>168.6</ele>
        <time>2025-10-19T10:29:07Z</time>
      </trkpt>
      <trkpt lat="43.21054" lon="5.49101">
        <ele>168.6</ele>
        <time>2025-10-19T10:29:08Z</time>
      </trkpt>
      <trkpt lat="43.21054" lon="5.49101">
        <ele>168.5</ele>
        <time>2025-10-19T10:29:09Z</time>
      </trkpt>
      <trkpt lat="43.21054" lon="5.49101">
        <ele>168.5</ele>
        <time>2025-10-19T10:29:10Z</time>
      </trkpt>
      <trkpt lat="43.21053" lon="5.49101">
        <ele>168.5</ele>
        <time>2025-10-19T10:29:11Z</time>
      </trkpt>
      <trkpt lat="43.21053" lon="5.49102">
        <ele>168.5</ele>
        <time>2025-10-19T10:29:12Z</time>
      </trkpt>
      <trkpt lat="43.21053" lon="5.49102">
        <ele>168.5</ele>
        <time>2025-10-19T10:29:13Z</time>
      </trkpt>
      <trkpt lat="43.21053" lon="5.49102">
        <ele>168.4</ele>
        <time>2025-10-19T10:29:14Z</time>
      </trkpt>
      <trkpt lat="43.21053" lon="5.49102">
        <ele>168.4</ele>
        <time>2025-10-19T10:29:15Z</time>
      </trkpt>
      <trkpt lat="43.21053" lon="5.49102">
        <ele>168.4</ele>
        <time>2025-10-19T10:29:16Z</time>
      </trkpt>
      <trkpt lat="43.21053" lon="5.49103">
        <ele>168.3</ele>
        <time>2025-10-19T10:29:17Z</time>
      </trkpt>
      <trkpt lat="43.21053" lon="5.49103">
        <ele>168.3</ele>
        <time>2025-10-19T10:29:18Z</time>
      </trkpt>
      <trkpt lat="43.21053" lon="5.49103">
        <ele>168.3</ele>
        <time>2025-10-19T10:29:19Z</time>
      </trkpt>
      <trkpt lat="43.21053" lon="5.49103">
        <ele>168.3</ele>
        <time>2025-10-19T10:29:20Z</time>
      </trkpt>
      <trkpt lat="43.21052" lon="5.49103">
        <ele>168.3</ele>
        <time>2025-10-19T10:29:21Z</time>
      </trkpt>
      <trkpt lat="43.21052" lon="5.49103">
        <ele>168.3</ele>
        <time>2025-10-19T10:29:22Z</time>
      </trkpt>
      <trkpt lat="43.21053" lon="5.49102">
        <ele>168.3</ele>
        <time>2025-10-19T10:29:23Z</time>
      </trkpt>
      <trkpt lat="43.21053" lon="5.49102">
        <ele>168.2</ele>
        <time>2025-10-19T10:29:24Z</time>
      </trkpt>
      <trkpt lat="43.21053" lon="5.49102">
        <ele>168.2</ele>
        <time>2025-10-19T10:29:25Z</time>
      </trkpt>
      <trkpt lat="43.21053" lon="5.49102">
        <ele>168.3</ele>
        <time>2025-10-19T10:29:26Z</time>
      </trkpt>
      <trkpt lat="43.21053" lon="5.49102">
        <ele>168.4</ele>
        <time>2025-10-19T10:29:27Z</time>
      </trkpt>
      <trkpt lat="43.21053" lon="5.49102">
        <ele>168.4</ele>
        <time>2025-10-19T10:29:28Z</time>
      </trkpt>
      <trkpt lat="43.21053" lon="5.49101">
        <ele>168.4</ele>
        <time>2025-10-19T10:29:29Z</time>
      </trkpt>
      <trkpt lat="43.21053" lon="5.49101">
        <ele>168.4</ele>
        <time>2025-10-19T10:29:30Z</time>
      </trkpt>
      <trkpt lat="43.21053" lon="5.49101">
        <ele>168.3</ele>
        <time>2025-10-19T10:29:31Z</time>
      </trkpt>
      <trkpt lat="43.21052" lon="5.49101">
        <ele>168.4</ele>
        <time>2025-10-19T10:29:32Z</time>
      </trkpt>
      <trkpt lat="43.21052" lon="5.49101">
        <ele>168.4</ele>
        <time>2025-10-19T10:29:33Z</time>
      </trkpt>
      <trkpt lat="43.21053" lon="5.491">
        <ele>168.4</ele>
        <time>2025-10-19T10:29:34Z</time>
      </trkpt>
      <trkpt lat="43.21052" lon="5.491">
        <ele>168.4</ele>
        <time>2025-10-19T10:29:35Z</time>
      </trkpt>
      <trkpt lat="43.21053" lon="5.49099">
        <ele>168.4</ele>
        <time>2025-10-19T10:29:36Z</time>
      </trkpt>
      <trkpt lat="43.21053" lon="5.49098">
        <ele>168.5</ele>
        <time>2025-10-19T10:29:37Z</time>
      </trkpt>
      <trkpt lat="43.21053" lon="5.49098">
        <ele>168.5</ele>
        <time>2025-10-19T10:29:38Z</time>
      </trkpt>
      <trkpt lat="43.21053" lon="5.49098">
        <ele>168.5</ele>
        <time>2025-10-19T10:29:39Z</time>
      </trkpt>
      <trkpt lat="43.21053" lon="5.49098">
        <ele>168.5</ele>
        <time>2025-10-19T10:29:40Z</time>
      </trkpt>
      <trkpt lat="43.21053" lon="5.49098">
        <ele>168.5</ele>
        <time>2025-10-19T10:29:41Z</time>
      </trkpt>
      <trkpt lat="43.21053" lon="5.49098">
        <ele>168.5</ele>
        <time>2025-10-19T10:29:42Z</time>
      </trkpt>
      <trkpt lat="43.21053" lon="5.49098">
        <ele>168.5</ele>
        <time>2025-10-19T10:29:43Z</time>
      </trkpt>
      <trkpt lat="43.21053" lon="5.49098">
        <ele>168.5</ele>
        <time>2025-10-19T10:29:44Z</time>
      </trkpt>
      <trkpt lat="43.21053" lon="5.49098">
        <ele>168.5</ele>
        <time>2025-10-19T10:29:45Z</time>
      </trkpt>
      <trkpt lat="43.21053" lon="5.49098">
        <ele>168.4</ele>
        <time>2025-10-19T10:29:46Z</time>
      </trkpt>
      <trkpt lat="43.21053" lon="5.49098">
        <ele>168.4</ele>
        <time>2025-10-19T10:29:47Z</time>
      </trkpt>
      <trkpt lat="43.21053" lon="5.49098">
        <ele>168.5</ele>
        <time>2025-10-19T10:29:48Z</time>
      </trkpt>
      <trkpt lat="43.21053" lon="5.49098">
        <ele>168.4</ele>
        <time>2025-10-19T10:29:49Z</time>
      </trkpt>
      <trkpt lat="43.21053" lon="5.49098">
        <ele>168.4</ele>
        <time>2025-10-19T10:29:50Z</time>
      </trkpt>
      <trkpt lat="43.21053" lon="5.49098">
        <ele>168.5</ele>
        <time>2025-10-19T10:29:51Z</time>
      </trkpt>
      <trkpt lat="43.21053" lon="5.49099">
        <ele>168.5</ele>
        <time>2025-10-19T10:29:52Z</time>
      </trkpt>
      <trkpt lat="43.21053" lon="5.49099">
        <ele>168.5</ele>
        <time>2025-10-19T10:29:53Z</time>
      </trkpt>
      <trkpt lat="43.21053" lon="5.49099">
        <ele>168.4</ele>
        <time>2025-10-19T10:29:54Z</time>
      </trkpt>
      <trkpt lat="43.21053" lon="5.49099">
        <ele>168.5</ele>
        <time>2025-10-19T10:29:55Z</time>
      </trkpt>
      <trkpt lat="43.21053" lon="5.49099">
        <ele>168.5</ele>
        <time>2025-10-19T10:29:56Z</time>
      </trkpt>
      <trkpt lat="43.21053" lon="5.49099">
        <ele>168.5</ele>
        <time>2025-10-19T10:29:57Z</time>
      </trkpt>
      <trkpt lat="43.21053" lon="5.49099">
        <ele>168.5</ele>
        <time>2025-10-19T10:29:58Z</time>
      </trkpt>
      <trkpt lat="43.21053" lon="5.49098">
        <ele>168.5</ele>
        <time>2025-10-19T10:29:59Z</time>
      </trkpt>
      <trkpt lat="43.21053" lon="5.49098">
        <ele>168.6</ele>
        <time>2025-10-19T10:30:00Z</time>
      </trkpt>
      <trkpt lat="43.21053" lon="5.49098">
        <ele>168.6</ele>
        <time>2025-10-19T10:30:01Z</time>
      </trkpt>
      <trkpt lat="43.21053" lon="5.49098">
        <ele>168.5</ele>
        <time>2025-10-19T10:30:02Z</time>
      </trkpt>
      <trkpt lat="43.21053" lon="5.49098">
        <ele>168.5</ele>
        <time>2025-10-19T10:30:03Z</time>
      </trkpt>
      <trkpt lat="43.21053" lon="5.49098">
        <ele>168.5</ele>
        <time>2025-10-19T10:30:04Z</time>
      </trkpt>
      <trkpt lat="43.21053" lon="5.49098">
        <ele>168.5</ele>
        <time>2025-10-19T10:30:05Z</time>
      </trkpt>
      <trkpt lat="43.21053" lon="5.49098">
        <ele>168.5</ele>
        <time>2025-10-19T10:30:06Z</time>
      </trkpt>
      <trkpt lat="43.21053" lon="5.49098">
        <ele>168.5</ele>
        <time>2025-10-19T10:30:07Z</time>
      </trkpt>
      <trkpt lat="43.21053" lon="5.49097">
        <ele>168.5</ele>
        <time>2025-10-19T10:30:08Z</time>
      </trkpt>
      <trkpt lat="43.21053" lon="5.49097">
        <ele>168.5</ele>
        <time>2025-10-19T10:30:09Z</time>
      </trkpt>
      <trkpt lat="43.21053" lon="5.49097">
        <ele>168.5</ele>
        <time>2025-10-19T10:30:10Z</time>
      </trkpt>
      <trkpt lat="43.21052" lon="5.49097">
        <ele>168.5</ele>
        <time>2025-10-19T10:30:11Z</time>
      </trkpt>
      <trkpt lat="43.21052" lon="5.49097">
        <ele>168.5</ele>
        <time>2025-10-19T10:30:12Z</time>
      </trkpt>
      <trkpt lat="43.21052" lon="5.49097">
        <ele>168.5</ele>
        <time>2025-10-19T10:30:13Z</time>
      </trkpt>
      <trkpt lat="43.21052" lon="5.49097">
        <ele>168.5</ele>
        <time>2025-10-19T10:30:14Z</time>
      </trkpt>
      <trkpt lat="43.21052" lon="5.49097">
        <ele>168.5</ele>
        <time>2025-10-19T10:30:15Z</time>
      </trkpt>
      <trkpt lat="43.21052" lon="5.49096">
        <ele>168.5</ele>
        <time>2025-10-19T10:30:16Z</time>
      </trkpt>
      <trkpt lat="43.21052" lon="5.49096">
        <ele>168.4</ele>
        <time>2025-10-19T10:30:17Z</time>
      </trkpt>
      <trkpt lat="43.21052" lon="5.49096">
        <ele>168.5</ele>
        <time>2025-10-19T10:30:18Z</time>
      </trkpt>
      <trkpt lat="43.21052" lon="5.49096">
        <ele>168.4</ele>
        <time>2025-10-19T10:30:19Z</time>
      </trkpt>
      <trkpt lat="43.21051" lon="5.49096">
        <ele>168.4</ele>
        <time>2025-10-19T10:30:20Z</time>
      </trkpt>
      <trkpt lat="43.21051" lon="5.49095">
        <ele>168.4</ele>
        <time>2025-10-19T10:30:21Z</time>
      </trkpt>
      <trkpt lat="43.21051" lon="5.49095">
        <ele>168.4</ele>
        <time>2025-10-19T10:30:22Z</time>
      </trkpt>
      <trkpt lat="43.21051" lon="5.49095">
        <ele>168.4</ele>
        <time>2025-10-19T10:30:23Z</time>
      </trkpt>
      <trkpt lat="43.21051" lon="5.49095">
        <ele>168.5</ele>
        <time>2025-10-19T10:30:24Z</time>
      </trkpt>
      <trkpt lat="43.21051" lon="5.49095">
        <ele>168.5</ele>
        <time>2025-10-19T10:30:25Z</time>
      </trkpt>
      <trkpt lat="43.21051" lon="5.49095">
        <ele>168.5</ele>
        <time>2025-10-19T10:30:26Z</time>
      </trkpt>
      <trkpt lat="43.21051" lon="5.49095">
        <ele>168.4</ele>
        <time>2025-10-19T10:30:27Z</time>
      </trkpt>
      <trkpt lat="43.21051" lon="5.49095">
        <ele>168.5</ele>
        <time>2025-10-19T10:30:28Z</time>
      </trkpt>
      <trkpt lat="43.21051" lon="5.49095">
        <ele>168.6</ele>
        <time>2025-10-19T10:30:29Z</time>
      </trkpt>
      <trkpt lat="43.21051" lon="5.49095">
        <ele>168.6</ele>
        <time>2025-10-19T10:30:30Z</time>
      </trkpt>
      <trkpt lat="43.21051" lon="5.49095">
        <ele>168.6</ele>
        <time>2025-10-19T10:30:31Z</time>
      </trkpt>
      <trkpt lat="43.21051" lon="5.49095">
        <ele>168.6</ele>
        <time>2025-10-19T10:30:32Z</time>
      </trkpt>
      <trkpt lat="43.21051" lon="5.49095">
        <ele>168.5</ele>
        <time>2025-10-19T10:30:33Z</time>
      </trkpt>
      <trkpt lat="43.21051" lon="5.49095">
        <ele>168.5</ele>
        <time>2025-10-19T10:30:34Z</time>
      </trkpt>
      <trkpt lat="43.21051" lon="5.49095">
        <ele>168.5</ele>
        <time>2025-10-19T10:30:35Z</time>
      </trkpt>
      <trkpt lat="43.2105" lon="5.49095">
        <ele>168.5</ele>
        <time>2025-10-19T10:30:36Z</time>
      </trkpt>
      <trkpt lat="43.2105" lon="5.49095">
        <ele>168.5</ele>
        <time>2025-10-19T10:30:37Z</time>
      </trkpt>
      <trkpt lat="43.2105" lon="5.49095">
        <ele>168.5</ele>
        <time>2025-10-19T10:30:38Z</time>
      </trkpt>
      <trkpt lat="43.2105" lon="5.49095">
        <ele>168.6</ele>
        <time>2025-10-19T10:30:39Z</time>
      </trkpt>
      <trkpt lat="43.2105" lon="5.49095">
        <ele>168.6</ele>
        <time>2025-10-19T10:30:40Z</time>
      </trkpt>
      <trkpt lat="43.2105" lon="5.49095">
        <ele>168.6</ele>
        <time>2025-10-19T10:30:41Z</time>
      </trkpt>
      <trkpt lat="43.21049" lon="5.49095">
        <ele>168.6</ele>
        <time>2025-10-19T10:30:42Z</time>
      </trkpt>
      <trkpt lat="43.21049" lon="5.49095">
        <ele>168.6</ele>
        <time>2025-10-19T10:30:43Z</time>
      </trkpt>
      <trkpt lat="43.21049" lon="5.49095">
        <ele>168.5</ele>
        <time>2025-10-19T10:30:44Z</time>
      </trkpt>
      <trkpt lat="43.21049" lon="5.49095">
        <ele>168.6</ele>
        <time>2025-10-19T10:30:45Z</time>
      </trkpt>
      <trkpt lat="43.21049" lon="5.49095">
        <ele>168.6</ele>
        <time>2025-10-19T10:30:46Z</time>
      </trkpt>
      <trkpt lat="43.21049" lon="5.49095">
        <ele>168.5</ele>
        <time>2025-10-19T10:30:47Z</time>
      </trkpt>
      <trkpt lat="43.21049" lon="5.49095">
        <ele>168.5</ele>
        <time>2025-10-19T10:30:48Z</time>
      </trkpt>
      <trkpt lat="43.21049" lon="5.49095">
        <ele>168.5</ele>
        <time>2025-10-19T10:30:49Z</time>
      </trkpt>
      <trkpt lat="43.21049" lon="5.49095">
        <ele>168.5</ele>
        <time>2025-10-19T10:30:50Z</time>
      </trkpt>
      <trkpt lat="43.21049" lon="5.49095">
        <ele>168.5</ele>
        <time>2025-10-19T10:30:51Z</time>
      </trkpt>
      <trkpt lat="43.21049" lon="5.49095">
        <ele>168.4</ele>
        <time>2025-10-19T10:30:52Z</time>
      </trkpt>
      <trkpt lat="43.21049" lon="5.49095">
        <ele>168.4</ele>
        <time>2025-10-19T10:30:53Z</time>
      </trkpt>
      <trkpt lat="43.21049" lon="5.49095">
        <ele>168.4</ele>
        <time>2025-10-19T10:30:54Z</time>
      </trkpt>
      <trkpt lat="43.21049" lon="5.49095">
        <ele>168.4</ele>
        <time>2025-10-19T10:30:55Z</time>
      </trkpt>
      <trkpt lat="43.2105" lon="5.49095">
        <ele>168.4</ele>
        <time>2025-10-19T10:30:56Z</time>
      </trkpt>
      <trkpt lat="43.2105" lon="5.49095">
        <ele>168.4</ele>
        <time>2025-10-19T10:30:57Z</time>
      </trkpt>
      <trkpt lat="43.2105" lon="5.49095">
        <ele>168.5</ele>
        <time>2025-10-19T10:30:58Z</time>
      </trkpt>
      <trkpt lat="43.2105" lon="5.49095">
        <ele>168.4</ele>
        <time>2025-10-19T10:30:59Z</time>
      </trkpt>
      <trkpt lat="43.2105" lon="5.49095">
        <ele>168.4</ele>
        <time>2025-10-19T10:31:00Z</time>
      </trkpt>
      <trkpt lat="43.2105" lon="5.49095">
        <ele>168.4</ele>
        <time>2025-10-19T10:31:01Z</time>
      </trkpt>
      <trkpt lat="43.21051" lon="5.49095">
        <ele>168.4</ele>
        <time>2025-10-19T10:31:02Z</time>
      </trkpt>
      <trkpt lat="43.21051" lon="5.49095">
        <ele>168.4</ele>
        <time>2025-10-19T10:31:03Z</time>
      </trkpt>
      <trkpt lat="43.21051" lon="5.49095">
        <ele>168.4</ele>
        <time>2025-10-19T10:31:04Z</time>
      </trkpt>
      <trkpt lat="43.21051" lon="5.49095">
        <ele>168.3</ele>
        <time>2025-10-19T10:31:05Z</time>
      </trkpt>
      <trkpt lat="43.21051" lon="5.49095">
        <ele>168.3</ele>
        <time>2025-10-19T10:31:06Z</time>
      </trkpt>
      <trkpt lat="43.21051" lon="5.49095">
        <ele>168.4</ele>
        <time>2025-10-19T10:31:07Z</time>
      </trkpt>
      <trkpt lat="43.21051" lon="5.49095">
        <ele>168.5</ele>
        <time>2025-10-19T10:31:08Z</time>
      </trkpt>
      <trkpt lat="43.21052" lon="5.49095">
        <ele>168.6</ele>
        <time>2025-10-19T10:31:09Z</time>
      </trkpt>
      <trkpt lat="43.21052" lon="5.49095">
        <ele>168.7</ele>
        <time>2025-10-19T10:31:10Z</time>
      </trkpt>
      <trkpt lat="43.21052" lon="5.49095">
        <ele>168.7</ele>
        <time>2025-10-19T10:31:11Z</time>
      </trkpt>
      <trkpt lat="43.21052" lon="5.49095">
        <ele>168.7</ele>
        <time>2025-10-19T10:31:12Z</time>
      </trkpt>
      <trkpt lat="43.21053" lon="5.49095">
        <ele>168.7</ele>
        <time>2025-10-19T10:31:13Z</time>
      </trkpt>
      <trkpt lat="43.21053" lon="5.49095">
        <ele>168.7</ele>
        <time>2025-10-19T10:31:14Z</time>
      </trkpt>
      <trkpt lat="43.21053" lon="5.49095">
        <ele>168.6</ele>
        <time>2025-10-19T10:31:15Z</time>
      </trkpt>
      <trkpt lat="43.21053" lon="5.49095">
        <ele>168.7</ele>
        <time>2025-10-19T10:31:16Z</time>
      </trkpt>
      <trkpt lat="43.21052" lon="5.49096">
        <ele>168.7</ele>
        <time>2025-10-19T10:31:17Z</time>
      </trkpt>
      <trkpt lat="43.21052" lon="5.49096">
        <ele>168.7</ele>
        <time>2025-10-19T10:31:18Z</time>
      </trkpt>
      <trkpt lat="43.21051" lon="5.49096">
        <ele>168.7</ele>
        <time>2025-10-19T10:31:19Z</time>
      </trkpt>
      <trkpt lat="43.2105" lon="5.49096">
        <ele>168.7</ele>
        <time>2025-10-19T10:31:20Z</time>
      </trkpt>
      <trkpt lat="43.21049" lon="5.49096">
        <ele>168.7</ele>
        <time>2025-10-19T10:31:21Z</time>
      </trkpt>
      <trkpt lat="43.21048" lon="5.49097">
        <ele>168.7</ele>
        <time>2025-10-19T10:31:22Z</time>
      </trkpt>
      <trkpt lat="43.21048" lon="5.49097">
        <ele>168.7</ele>
        <time>2025-10-19T10:31:23Z</time>
      </trkpt>
      <trkpt lat="43.21047" lon="5.49097">
        <ele>168.8</ele>
        <time>2025-10-19T10:31:24Z</time>
      </trkpt>
      <trkpt lat="43.21047" lon="5.49096">
        <ele>168.9</ele>
        <time>2025-10-19T10:31:25Z</time>
      </trkpt>
      <trkpt lat="43.21046" lon="5.49096">
        <ele>168.9</ele>
        <time>2025-10-19T10:31:26Z</time>
      </trkpt>
      <trkpt lat="43.21046" lon="5.49097">
        <ele>168.9</ele>
        <time>2025-10-19T10:31:27Z</time>
      </trkpt>
      <trkpt lat="43.21045" lon="5.49097">
        <ele>169</ele>
        <time>2025-10-19T10:31:28Z</time>
      </trkpt>
      <trkpt lat="43.21045" lon="5.49097">
        <ele>169.1</ele>
        <time>2025-10-19T10:31:29Z</time>
      </trkpt>
      <trkpt lat="43.21044" lon="5.49096">
        <ele>169.1</ele>
        <time>2025-10-19T10:31:30Z</time>
      </trkpt>
      <trkpt lat="43.21044" lon="5.49096">
        <ele>169.1</ele>
        <time>2025-10-19T10:31:31Z</time>
      </trkpt>
      <trkpt lat="43.21044" lon="5.49096">
        <ele>169.1</ele>
        <time>2025-10-19T10:31:32Z</time>
      </trkpt>
      <trkpt lat="43.21044" lon="5.49096">
        <ele>169.1</ele>
        <time>2025-10-19T10:31:33Z</time>
      </trkpt>
      <trkpt lat="43.21044" lon="5.49096">
        <ele>169.1</ele>
        <time>2025-10-19T10:31:34Z</time>
      </trkpt>
      <trkpt lat="43.21044" lon="5.49096">
        <ele>169.2</ele>
        <time>2025-10-19T10:31:35Z</time>
      </trkpt>
      <trkpt lat="43.21044" lon="5.49097">
        <ele>169.2</ele>
        <time>2025-10-19T10:31:36Z</time>
      </trkpt>
      <trkpt lat="43.21043" lon="5.49097">
        <ele>169.1</ele>
        <time>2025-10-19T10:31:37Z</time>
      </trkpt>
      <trkpt lat="43.21043" lon="5.49098">
        <ele>169</ele>
        <time>2025-10-19T10:31:38Z</time>
      </trkpt>
      <trkpt lat="43.21043" lon="5.49099">
        <ele>169</ele>
        <time>2025-10-19T10:31:39Z</time>
      </trkpt>
      <trkpt lat="43.21042" lon="5.49099">
        <ele>169</ele>
        <time>2025-10-19T10:31:40Z</time>
      </trkpt>
      <trkpt lat="43.21042" lon="5.491">
        <ele>169</ele>
        <time>2025-10-19T10:31:41Z</time>
      </trkpt>
      <trkpt lat="43.21042" lon="5.491">
        <ele>169.1</ele>
        <time>2025-10-19T10:31:42Z</time>
      </trkpt>
      <trkpt lat="43.21041" lon="5.491">
        <ele>169.1</ele>
        <time>2025-10-19T10:31:43Z</time>
      </trkpt>
      <trkpt lat="43.21041" lon="5.491">
        <ele>169.1</ele>
        <time>2025-10-19T10:31:44Z</time>
      </trkpt>
      <trkpt lat="43.21041" lon="5.491">
        <ele>169.1</ele>
        <time>2025-10-19T10:31:45Z</time>
      </trkpt>
      <trkpt lat="43.21041" lon="5.491">
        <ele>169.1</ele>
        <time>2025-10-19T10:31:46Z</time>
      </trkpt>
      <trkpt lat="43.21041" lon="5.49101">
        <ele>169.1</ele>
        <time>2025-10-19T10:31:47Z</time>
      </trkpt>
      <trkpt lat="43.21041" lon="5.49101">
        <ele>169</ele>
        <time>2025-10-19T10:31:48Z</time>
      </trkpt>
      <trkpt lat="43.2104" lon="5.49102">
        <ele>169</ele>
        <time>2025-10-19T10:31:49Z</time>
      </trkpt>
      <trkpt lat="43.2104" lon="5.49102">
        <ele>168.9</ele>
        <time>2025-10-19T10:31:50Z</time>
      </trkpt>
      <trkpt lat="43.21039" lon="5.49103">
        <ele>168.8</ele>
        <time>2025-10-19T10:31:51Z</time>
      </trkpt>
      <trkpt lat="43.21038" lon="5.49103">
        <ele>168.8</ele>
        <time>2025-10-19T10:31:52Z</time>
      </trkpt>
      <trkpt lat="43.21038" lon="5.49104">
        <ele>168.7</ele>
        <time>2025-10-19T10:31:53Z</time>
      </trkpt>
      <trkpt lat="43.21038" lon="5.49104">
        <ele>168.6</ele>
        <time>2025-10-19T10:31:54Z</time>
      </trkpt>
      <trkpt lat="43.21037" lon="5.49104">
        <ele>168.6</ele>
        <time>2025-10-19T10:31:55Z</time>
      </trkpt>
      <trkpt lat="43.21037" lon="5.49105">
        <ele>168.6</ele>
        <time>2025-10-19T10:31:56Z</time>
      </trkpt>
      <trkpt lat="43.21037" lon="5.49105">
        <ele>168.6</ele>
        <time>2025-10-19T10:31:57Z</time>
      </trkpt>
      <trkpt lat="43.21036" lon="5.49106">
        <ele>168.6</ele>
        <time>2025-10-19T10:31:58Z</time>
      </trkpt>
      <trkpt lat="43.21036" lon="5.49106">
        <ele>168.6</ele>
        <time>2025-10-19T10:31:59Z</time>
      </trkpt>
      <trkpt lat="43.21036" lon="5.49106">
        <ele>168.6</ele>
        <time>2025-10-19T10:32:00Z</time>
      </trkpt>
      <trkpt lat="43.21036" lon="5.49107">
        <ele>168.6</ele>
        <time>2025-10-19T10:32:01Z</time>
      </trkpt>
      <trkpt lat="43.21036" lon="5.49106">
        <ele>168.6</ele>
        <time>2025-10-19T10:32:02Z</time>
      </trkpt>
      <trkpt lat="43.21036" lon="5.49107">
        <ele>168.6</ele>
        <time>2025-10-19T10:32:03Z</time>
      </trkpt>
      <trkpt lat="43.21036" lon="5.49107">
        <ele>168.6</ele>
        <time>2025-10-19T10:32:04Z</time>
      </trkpt>
      <trkpt lat="43.21037" lon="5.49107">
        <ele>168.6</ele>
        <time>2025-10-19T10:32:05Z</time>
      </trkpt>
      <trkpt lat="43.21037" lon="5.49107">
        <ele>168.5</ele>
        <time>2025-10-19T10:32:06Z</time>
      </trkpt>
      <trkpt lat="43.21037" lon="5.49107">
        <ele>168.5</ele>
        <time>2025-10-19T10:32:07Z</time>
      </trkpt>
      <trkpt lat="43.21037" lon="5.49107">
        <ele>168.5</ele>
        <time>2025-10-19T10:32:08Z</time>
      </trkpt>
      <trkpt lat="43.21037" lon="5.49108">
        <ele>168.5</ele>
        <time>2025-10-19T10:32:09Z</time>
      </trkpt>
      <trkpt lat="43.21037" lon="5.49108">
        <ele>168.6</ele>
        <time>2025-10-19T10:32:10Z</time>
      </trkpt>
      <trkpt lat="43.21038" lon="5.49108">
        <ele>168.6</ele>
        <time>2025-10-19T10:32:11Z</time>
      </trkpt>
      <trkpt lat="43.21038" lon="5.49108">
        <ele>168.6</ele>
        <time>2025-10-19T10:32:12Z</time>
      </trkpt>
      <trkpt lat="43.21038" lon="5.49108">
        <ele>168.7</ele>
        <time>2025-10-19T10:32:13Z</time>
      </trkpt>
      <trkpt lat="43.21038" lon="5.49108">
        <ele>168.6</ele>
        <time>2025-10-19T10:32:14Z</time>
      </trkpt>
      <trkpt lat="43.21038" lon="5.49108">
        <ele>168.6</ele>
        <time>2025-10-19T10:32:15Z</time>
      </trkpt>
      <trkpt lat="43.21037" lon="5.49108">
        <ele>168.6</ele>
        <time>2025-10-19T10:32:16Z</time>
      </trkpt>
      <trkpt lat="43.21037" lon="5.49108">
        <ele>168.7</ele>
        <time>2025-10-19T10:32:17Z</time>
      </trkpt>
      <trkpt lat="43.21036" lon="5.49108">
        <ele>168.7</ele>
        <time>2025-10-19T10:32:18Z</time>
      </trkpt>
      <trkpt lat="43.21035" lon="5.49108">
        <ele>168.7</ele>
        <time>2025-10-19T10:32:19Z</time>
      </trkpt>
      <trkpt lat="43.21034" lon="5.49108">
        <ele>168.7</ele>
        <time>2025-10-19T10:32:20Z</time>
      </trkpt>
      <trkpt lat="43.21034" lon="5.49108">
        <ele>168.7</ele>
        <time>2025-10-19T10:32:21Z</time>
      </trkpt>
      <trkpt lat="43.21033" lon="5.49108">
        <ele>168.7</ele>
        <time>2025-10-19T10:32:22Z</time>
      </trkpt>
      <trkpt lat="43.21033" lon="5.49108">
        <ele>168.6</ele>
        <time>2025-10-19T10:32:23Z</time>
      </trkpt>
      <trkpt lat="43.21032" lon="5.49108">
        <ele>168.6</ele>
        <time>2025-10-19T10:32:24Z</time>
      </trkpt>
      <trkpt lat="43.21032" lon="5.49107">
        <ele>168.7</ele>
        <time>2025-10-19T10:32:25Z</time>
      </trkpt>
      <trkpt lat="43.21031" lon="5.49107">
        <ele>168.7</ele>
        <time>2025-10-19T10:32:26Z</time>
      </trkpt>
      <trkpt lat="43.21031" lon="5.49106">
        <ele>168.6</ele>
        <time>2025-10-19T10:32:27Z</time>
      </trkpt>
      <trkpt lat="43.2103" lon="5.49106">
        <ele>168.6</ele>
        <time>2025-10-19T10:32:28Z</time>
      </trkpt>
      <trkpt lat="43.2103" lon="5.49106">
        <ele>168.6</ele>
        <time>2025-10-19T10:32:29Z</time>
      </trkpt>
      <trkpt lat="43.2103" lon="5.49105">
        <ele>168.5</ele>
        <time>2025-10-19T10:32:30Z</time>
      </trkpt>
      <trkpt lat="43.2103" lon="5.49105">
        <ele>168.4</ele>
        <time>2025-10-19T10:32:31Z</time>
      </trkpt>
      <trkpt lat="43.21029" lon="5.49106">
        <ele>168.5</ele>
        <time>2025-10-19T10:32:32Z</time>
      </trkpt>
      <trkpt lat="43.21029" lon="5.49106">
        <ele>168.4</ele>
        <time>2025-10-19T10:32:33Z</time>
      </trkpt>
      <trkpt lat="43.21029" lon="5.49106">
        <ele>168.5</ele>
        <time>2025-10-19T10:32:34Z</time>
      </trkpt>
      <trkpt lat="43.21029" lon="5.49106">
        <ele>168.6</ele>
        <time>2025-10-19T10:32:35Z</time>
      </trkpt>
      <trkpt lat="43.21029" lon="5.49106">
        <ele>168.6</ele>
        <time>2025-10-19T10:32:36Z</time>
      </trkpt>
      <trkpt lat="43.21029" lon="5.49106">
        <ele>168.5</ele>
        <time>2025-10-19T10:32:37Z</time>
      </trkpt>
      <trkpt lat="43.21029" lon="5.49106">
        <ele>168.5</ele>
        <time>2025-10-19T10:32:38Z</time>
      </trkpt>
      <trkpt lat="43.21029" lon="5.49107">
        <ele>168.5</ele>
        <time>2025-10-19T10:32:39Z</time>
      </trkpt>
      <trkpt lat="43.21028" lon="5.49107">
        <ele>168.5</ele>
        <time>2025-10-19T10:32:40Z</time>
      </trkpt>
      <trkpt lat="43.21027" lon="5.49107">
        <ele>168.3</ele>
        <time>2025-10-19T10:32:41Z</time>
      </trkpt>
      <trkpt lat="43.21026" lon="5.49107">
        <ele>168.3</ele>
        <time>2025-10-19T10:32:42Z</time>
      </trkpt>
      <trkpt lat="43.21026" lon="5.49107">
        <ele>168.2</ele>
        <time>2025-10-19T10:32:43Z</time>
      </trkpt>
      <trkpt lat="43.21026" lon="5.49107">
        <ele>168.2</ele>
        <time>2025-10-19T10:32:44Z</time>
      </trkpt>
      <trkpt lat="43.21025" lon="5.49107">
        <ele>168.2</ele>
        <time>2025-10-19T10:32:45Z</time>
      </trkpt>
      <trkpt lat="43.21025" lon="5.49106">
        <ele>168.1</ele>
        <time>2025-10-19T10:32:46Z</time>
      </trkpt>
      <trkpt lat="43.21024" lon="5.49106">
        <ele>168</ele>
        <time>2025-10-19T10:32:47Z</time>
      </trkpt>
      <trkpt lat="43.21023" lon="5.49106">
        <ele>168</ele>
        <time>2025-10-19T10:32:48Z</time>
      </trkpt>
      <trkpt lat="43.21023" lon="5.49106">
        <ele>167.8</ele>
        <time>2025-10-19T10:32:49Z</time>
      </trkpt>
      <trkpt lat="43.21023" lon="5.49106">
        <ele>167.8</ele>
        <time>2025-10-19T10:32:50Z</time>
      </trkpt>
      <trkpt lat="43.21022" lon="5.49105">
        <ele>167.5</ele>
        <time>2025-10-19T10:32:51Z</time>
      </trkpt>
      <trkpt lat="43.21022" lon="5.49104">
        <ele>167.4</ele>
        <time>2025-10-19T10:32:52Z</time>
      </trkpt>
      <trkpt lat="43.21021" lon="5.49103">
        <ele>167.2</ele>
        <time>2025-10-19T10:32:53Z</time>
      </trkpt>
      <trkpt lat="43.21021" lon="5.49103">
        <ele>167</ele>
        <time>2025-10-19T10:32:54Z</time>
      </trkpt>
      <trkpt lat="43.2102" lon="5.49102">
        <ele>166.8</ele>
        <time>2025-10-19T10:32:55Z</time>
      </trkpt>
      <trkpt lat="43.2102" lon="5.49102">
        <ele>166.6</ele>
        <time>2025-10-19T10:32:56Z</time>
      </trkpt>
      <trkpt lat="43.21019" lon="5.49101">
        <ele>166.2</ele>
        <time>2025-10-19T10:32:57Z</time>
      </trkpt>
      <trkpt lat="43.21019" lon="5.49101">
        <ele>166</ele>
        <time>2025-10-19T10:32:58Z</time>
      </trkpt>
      <trkpt lat="43.21018" lon="5.491">
        <ele>165.7</ele>
        <time>2025-10-19T10:32:59Z</time>
      </trkpt>
      <trkpt lat="43.21018" lon="5.49099">
        <ele>165.5</ele>
        <time>2025-10-19T10:33:00Z</time>
      </trkpt>
      <trkpt lat="43.21018" lon="5.49098">
        <ele>165.4</ele>
        <time>2025-10-19T10:33:01Z</time>
      </trkpt>
      <trkpt lat="43.21018" lon="5.49097">
        <ele>165.3</ele>
        <time>2025-10-19T10:33:02Z</time>
      </trkpt>
      <trkpt lat="43.21017" lon="5.49096">
        <ele>165.2</ele>
        <time>2025-10-19T10:33:03Z</time>
      </trkpt>
      <trkpt lat="43.21017" lon="5.49095">
        <ele>165</ele>
        <time>2025-10-19T10:33:04Z</time>
      </trkpt>
      <trkpt lat="43.21017" lon="5.49094">
        <ele>164.9</ele>
        <time>2025-10-19T10:33:05Z</time>
      </trkpt>
      <trkpt lat="43.21017" lon="5.49094">
        <ele>164.7</ele>
        <time>2025-10-19T10:33:06Z</time>
      </trkpt>
      <trkpt lat="43.21017" lon="5.49093">
        <ele>164.6</ele>
        <time>2025-10-19T10:33:07Z</time>
      </trkpt>
      <trkpt lat="43.21018" lon="5.49092">
        <ele>164.5</ele>
        <time>2025-10-19T10:33:08Z</time>
      </trkpt>
      <trkpt lat="43.21018" lon="5.49091">
        <ele>164.4</ele>
        <time>2025-10-19T10:33:09Z</time>
      </trkpt>
      <trkpt lat="43.21018" lon="5.49089">
        <ele>164.3</ele>
        <time>2025-10-19T10:33:10Z</time>
      </trkpt>
      <trkpt lat="43.21018" lon="5.49088">
        <ele>164.2</ele>
        <time>2025-10-19T10:33:11Z</time>
      </trkpt>
      <trkpt lat="43.21018" lon="5.49087">
        <ele>164.1</ele>
        <time>2025-10-19T10:33:12Z</time>
      </trkpt>
      <trkpt lat="43.21018" lon="5.49086">
        <ele>164</ele>
        <time>2025-10-19T10:33:13Z</time>
      </trkpt>
      <trkpt lat="43.21019" lon="5.49085">
        <ele>163.9</ele>
        <time>2025-10-19T10:33:14Z</time>
      </trkpt>
      <trkpt lat="43.21019" lon="5.49084">
        <ele>163.8</ele>
        <time>2025-10-19T10:33:15Z</time>
      </trkpt>
      <trkpt lat="43.21019" lon="5.49082">
        <ele>163.7</ele>
        <time>2025-10-19T10:33:16Z</time>
      </trkpt>
      <trkpt lat="43.2102" lon="5.49081">
        <ele>163.6</ele>
        <time>2025-10-19T10:33:17Z</time>
      </trkpt>
      <trkpt lat="43.2102" lon="5.4908">
        <ele>163.6</ele>
        <time>2025-10-19T10:33:18Z</time>
      </trkpt>
      <trkpt lat="43.21021" lon="5.49079">
        <ele>163.5</ele>
        <time>2025-10-19T10:33:19Z</time>
      </trkpt>
      <trkpt lat="43.21021" lon="5.49078">
        <ele>163.4</ele>
        <time>2025-10-19T10:33:20Z</time>
      </trkpt>
      <trkpt lat="43.21021" lon="5.49077">
        <ele>163.3</ele>
        <time>2025-10-19T10:33:21Z</time>
      </trkpt>
      <trkpt lat="43.21022" lon="5.49076">
        <ele>163.2</ele>
        <time>2025-10-19T10:33:22Z</time>
      </trkpt>
      <trkpt lat="43.21022" lon="5.49074">
        <ele>163.1</ele>
        <time>2025-10-19T10:33:23Z</time>
      </trkpt>
      <trkpt lat="43.21023" lon="5.49073">
        <ele>163</ele>
        <time>2025-10-19T10:33:24Z</time>
      </trkpt>
      <trkpt lat="43.21023" lon="5.49071">
        <ele>162.8</ele>
        <time>2025-10-19T10:33:25Z</time>
      </trkpt>
      <trkpt lat="43.21024" lon="5.4907">
        <ele>162.8</ele>
        <time>2025-10-19T10:33:26Z</time>
      </trkpt>
      <trkpt lat="43.21024" lon="5.49069">
        <ele>162.8</ele>
        <time>2025-10-19T10:33:27Z</time>
      </trkpt>
      <trkpt lat="43.21025" lon="5.49067">
        <ele>162.7</ele>
        <time>2025-10-19T10:33:28Z</time>
      </trkpt>
      <trkpt lat="43.21025" lon="5.49066">
        <ele>162.5</ele>
        <time>2025-10-19T10:33:29Z</time>
      </trkpt>
      <trkpt lat="43.21025" lon="5.49065">
        <ele>162.4</ele>
        <time>2025-10-19T10:33:30Z</time>
      </trkpt>
      <trkpt lat="43.21025" lon="5.49063">
        <ele>162.3</ele>
        <time>2025-10-19T10:33:31Z</time>
      </trkpt>
      <trkpt lat="43.21025" lon="5.49062">
        <ele>162.3</ele>
        <time>2025-10-19T10:33:32Z</time>
      </trkpt>
      <trkpt lat="43.21026" lon="5.4906">
        <ele>162.2</ele>
        <time>2025-10-19T10:33:33Z</time>
      </trkpt>
      <trkpt lat="43.21026" lon="5.49058">
        <ele>162.1</ele>
        <time>2025-10-19T10:33:34Z</time>
      </trkpt>
      <trkpt lat="43.21026" lon="5.49057">
        <ele>162</ele>
        <time>2025-10-19T10:33:35Z</time>
      </trkpt>
      <trkpt lat="43.21026" lon="5.49055">
        <ele>162</ele>
        <time>2025-10-19T10:33:36Z</time>
      </trkpt>
      <trkpt lat="43.21026" lon="5.49054">
        <ele>161.9</ele>
        <time>2025-10-19T10:33:37Z</time>
      </trkpt>
      <trkpt lat="43.21026" lon="5.49052">
        <ele>161.9</ele>
        <time>2025-10-19T10:33:38Z</time>
      </trkpt>
      <trkpt lat="43.21027" lon="5.49051">
        <ele>161.7</ele>
        <time>2025-10-19T10:33:39Z</time>
      </trkpt>
      <trkpt lat="43.21027" lon="5.4905">
        <ele>161.7</ele>
        <time>2025-10-19T10:33:40Z</time>
      </trkpt>
      <trkpt lat="43.21027" lon="5.49049">
        <ele>161.6</ele>
        <time>2025-10-19T10:33:41Z</time>
      </trkpt>
      <trkpt lat="43.21027" lon="5.49047">
        <ele>161.7</ele>
        <time>2025-10-19T10:33:42Z</time>
      </trkpt>
      <trkpt lat="43.21028" lon="5.49046">
        <ele>161.6</ele>
        <time>2025-10-19T10:33:43Z</time>
      </trkpt>
      <trkpt lat="43.21028" lon="5.49044">
        <ele>161.4</ele>
        <time>2025-10-19T10:33:44Z</time>
      </trkpt>
      <trkpt lat="43.21028" lon="5.49043">
        <ele>161.3</ele>
        <time>2025-10-19T10:33:45Z</time>
      </trkpt>
      <trkpt lat="43.21028" lon="5.49041">
        <ele>161.2</ele>
        <time>2025-10-19T10:33:46Z</time>
      </trkpt>
      <trkpt lat="43.21029" lon="5.4904">
        <ele>161.2</ele>
        <time>2025-10-19T10:33:47Z</time>
      </trkpt>
      <trkpt lat="43.2103" lon="5.49039">
        <ele>161</ele>
        <time>2025-10-19T10:33:48Z</time>
      </trkpt>
      <trkpt lat="43.2103" lon="5.49038">
        <ele>160.9</ele>
        <time>2025-10-19T10:33:49Z</time>
      </trkpt>
      <trkpt lat="43.21031" lon="5.49037">
        <ele>160.8</ele>
        <time>2025-10-19T10:33:50Z</time>
      </trkpt>
      <trkpt lat="43.21031" lon="5.49036">
        <ele>160.7</ele>
        <time>2025-10-19T10:33:51Z</time>
      </trkpt>
      <trkpt lat="43.21032" lon="5.49035">
        <ele>160.7</ele>
        <time>2025-10-19T10:33:52Z</time>
      </trkpt>
      <trkpt lat="43.21033" lon="5.49034">
        <ele>160.6</ele>
        <time>2025-10-19T10:33:53Z</time>
      </trkpt>
      <trkpt lat="43.21034" lon="5.49033">
        <ele>160.5</ele>
        <time>2025-10-19T10:33:54Z</time>
      </trkpt>
      <trkpt lat="43.21035" lon="5.49031">
        <ele>160.5</ele>
        <time>2025-10-19T10:33:55Z</time>
      </trkpt>
      <trkpt lat="43.21035" lon="5.4903">
        <ele>160.4</ele>
        <time>2025-10-19T10:33:56Z</time>
      </trkpt>
      <trkpt lat="43.21036" lon="5.49028">
        <ele>160.3</ele>
        <time>2025-10-19T10:33:57Z</time>
      </trkpt>
      <trkpt lat="43.21037" lon="5.49027">
        <ele>160.3</ele>
        <time>2025-10-19T10:33:58Z</time>
      </trkpt>
      <trkpt lat="43.21037" lon="5.49026">
        <ele>160.2</ele>
        <time>2025-10-19T10:33:59Z</time>
      </trkpt>
      <trkpt lat="43.21038" lon="5.49026">
        <ele>160.1</ele>
        <time>2025-10-19T10:34:00Z</time>
      </trkpt>
      <trkpt lat="43.21038" lon="5.49025">
        <ele>160.1</ele>
        <time>2025-10-19T10:34:01Z</time>
      </trkpt>
      <trkpt lat="43.21039" lon="5.49024">
        <ele>160.1</ele>
        <time>2025-10-19T10:34:02Z</time>
      </trkpt>
      <trkpt lat="43.2104" lon="5.49023">
        <ele>159.9</ele>
        <time>2025-10-19T10:34:03Z</time>
      </trkpt>
      <trkpt lat="43.21041" lon="5.49022">
        <ele>159.8</ele>
        <time>2025-10-19T10:34:04Z</time>
      </trkpt>
      <trkpt lat="43.21042" lon="5.49021">
        <ele>159.7</ele>
        <time>2025-10-19T10:34:05Z</time>
      </trkpt>
      <trkpt lat="43.21043" lon="5.4902">
        <ele>159.6</ele>
        <time>2025-10-19T10:34:06Z</time>
      </trkpt>
      <trkpt lat="43.21044" lon="5.49018">
        <ele>159.5</ele>
        <time>2025-10-19T10:34:07Z</time>
      </trkpt>
      <trkpt lat="43.21045" lon="5.49017">
        <ele>159.4</ele>
        <time>2025-10-19T10:34:08Z</time>
      </trkpt>
      <trkpt lat="43.21046" lon="5.49016">
        <ele>159.3</ele>
        <time>2025-10-19T10:34:09Z</time>
      </trkpt>
      <trkpt lat="43.21046" lon="5.49015">
        <ele>159.2</ele>
        <time>2025-10-19T10:34:10Z</time>
      </trkpt>
      <trkpt lat="43.21047" lon="5.49014">
        <ele>159.1</ele>
        <time>2025-10-19T10:34:11Z</time>
      </trkpt>
      <trkpt lat="43.21048" lon="5.49012">
        <ele>159</ele>
        <time>2025-10-19T10:34:12Z</time>
      </trkpt>
      <trkpt lat="43.21048" lon="5.49011">
        <ele>158.8</ele>
        <time>2025-10-19T10:34:13Z</time>
      </trkpt>
      <trkpt lat="43.21049" lon="5.4901">
        <ele>158.8</ele>
        <time>2025-10-19T10:34:14Z</time>
      </trkpt>
      <trkpt lat="43.21049" lon="5.49009">
        <ele>158.6</ele>
        <time>2025-10-19T10:34:15Z</time>
      </trkpt>
      <trkpt lat="43.2105" lon="5.49008">
        <ele>158.5</ele>
        <time>2025-10-19T10:34:16Z</time>
      </trkpt>
      <trkpt lat="43.2105" lon="5.49007">
        <ele>158.3</ele>
        <time>2025-10-19T10:34:17Z</time>
      </trkpt>
      <trkpt lat="43.21051" lon="5.49006">
        <ele>158.3</ele>
        <time>2025-10-19T10:34:18Z</time>
      </trkpt>
      <trkpt lat="43.21051" lon="5.49006">
        <ele>158.2</ele>
        <time>2025-10-19T10:34:19Z</time>
      </trkpt>
      <trkpt lat="43.21051" lon="5.49005">
        <ele>158</ele>
        <time>2025-10-19T10:34:20Z</time>
      </trkpt>
      <trkpt lat="43.21052" lon="5.49004">
        <ele>157.9</ele>
        <time>2025-10-19T10:34:21Z</time>
      </trkpt>
      <trkpt lat="43.21052" lon="5.49003">
        <ele>157.7</ele>
        <time>2025-10-19T10:34:22Z</time>
      </trkpt>
      <trkpt lat="43.21052" lon="5.49002">
        <ele>157.6</ele>
        <time>2025-10-19T10:34:23Z</time>
      </trkpt>
      <trkpt lat="43.21053" lon="5.49">
        <ele>157.5</ele>
        <time>2025-10-19T10:34:24Z</time>
      </trkpt>
      <trkpt lat="43.21053" lon="5.48999">
        <ele>157.4</ele>
        <time>2025-10-19T10:34:25Z</time>
      </trkpt>
      <trkpt lat="43.21053" lon="5.48998">
        <ele>157.2</ele>
        <time>2025-10-19T10:34:26Z</time>
      </trkpt>
      <trkpt lat="43.21053" lon="5.48997">
        <ele>157.1</ele>
        <time>2025-10-19T10:34:27Z</time>
      </trkpt>
      <trkpt lat="43.21054" lon="5.48996">
        <ele>156.9</ele>
        <time>2025-10-19T10:34:28Z</time>
      </trkpt>
      <trkpt lat="43.21055" lon="5.48996">
        <ele>156.8</ele>
        <time>2025-10-19T10:34:29Z</time>
      </trkpt>
      <trkpt lat="43.21056" lon="5.48995">
        <ele>156.7</ele>
        <time>2025-10-19T10:34:30Z</time>
      </trkpt>
      <trkpt lat="43.21056" lon="5.48994">
        <ele>156.6</ele>
        <time>2025-10-19T10:34:31Z</time>
      </trkpt>
      <trkpt lat="43.21057" lon="5.48994">
        <ele>156.4</ele>
        <time>2025-10-19T10:34:32Z</time>
      </trkpt>
      <trkpt lat="43.21057" lon="5.48993">
        <ele>156.3</ele>
        <time>2025-10-19T10:34:33Z</time>
      </trkpt>
      <trkpt lat="43.21057" lon="5.48992">
        <ele>156.2</ele>
        <time>2025-10-19T10:34:34Z</time>
      </trkpt>
      <trkpt lat="43.21058" lon="5.48991">
        <ele>156.1</ele>
        <time>2025-10-19T10:34:35Z</time>
      </trkpt>
      <trkpt lat="43.21058" lon="5.4899">
        <ele>156</ele>
        <time>2025-10-19T10:34:36Z</time>
      </trkpt>
      <trkpt lat="43.21059" lon="5.48989">
        <ele>155.9</ele>
        <time>2025-10-19T10:34:37Z</time>
      </trkpt>
      <trkpt lat="43.21059" lon="5.48988">
        <ele>155.7</ele>
        <time>2025-10-19T10:34:38Z</time>
      </trkpt>
      <trkpt lat="43.2106" lon="5.48987">
        <ele>155.6</ele>
        <time>2025-10-19T10:34:39Z</time>
      </trkpt>
      <trkpt lat="43.2106" lon="5.48985">
        <ele>155.5</ele>
        <time>2025-10-19T10:34:40Z</time>
      </trkpt>
      <trkpt lat="43.2106" lon="5.48984">
        <ele>155.2</ele>
        <time>2025-10-19T10:34:41Z</time>
      </trkpt>
      <trkpt lat="43.21061" lon="5.48983">
        <ele>155.2</ele>
        <time>2025-10-19T10:34:42Z</time>
      </trkpt>
      <trkpt lat="43.21062" lon="5.48982">
        <ele>155.1</ele>
        <time>2025-10-19T10:34:43Z</time>
      </trkpt>
      <trkpt lat="43.21062" lon="5.48981">
        <ele>155</ele>
        <time>2025-10-19T10:34:44Z</time>
      </trkpt>
      <trkpt lat="43.21062" lon="5.4898">
        <ele>154.9</ele>
        <time>2025-10-19T10:34:45Z</time>
      </trkpt>
      <trkpt lat="43.21063" lon="5.48979">
        <ele>154.8</ele>
        <time>2025-10-19T10:34:46Z</time>
      </trkpt>
      <trkpt lat="43.21063" lon="5.48978">
        <ele>154.7</ele>
        <time>2025-10-19T10:34:47Z</time>
      </trkpt>
      <trkpt lat="43.21063" lon="5.48976">
        <ele>154.7</ele>
        <time>2025-10-19T10:34:48Z</time>
      </trkpt>
      <trkpt lat="43.21064" lon="5.48975">
        <ele>154.6</ele>
        <time>2025-10-19T10:34:49Z</time>
      </trkpt>
      <trkpt lat="43.21064" lon="5.48974">
        <ele>154.5</ele>
        <time>2025-10-19T10:34:50Z</time>
      </trkpt>
      <trkpt lat="43.21065" lon="5.48972">
        <ele>154.4</ele>
        <time>2025-10-19T10:34:51Z</time>
      </trkpt>
      <trkpt lat="43.21065" lon="5.48971">
        <ele>154.4</ele>
        <time>2025-10-19T10:34:52Z</time>
      </trkpt>
      <trkpt lat="43.21065" lon="5.4897">
        <ele>154.3</ele>
        <time>2025-10-19T10:34:53Z</time>
      </trkpt>
      <trkpt lat="43.21066" lon="5.48968">
        <ele>154.2</ele>
        <time>2025-10-19T10:34:54Z</time>
      </trkpt>
      <trkpt lat="43.21067" lon="5.48967">
        <ele>154.2</ele>
        <time>2025-10-19T10:34:55Z</time>
      </trkpt>
      <trkpt lat="43.21067" lon="5.48966">
        <ele>154.2</ele>
        <time>2025-10-19T10:34:56Z</time>
      </trkpt>
      <trkpt lat="43.21068" lon="5.48964">
        <ele>154.1</ele>
        <time>2025-10-19T10:34:57Z</time>
      </trkpt>
      <trkpt lat="43.21068" lon="5.48963">
        <ele>154</ele>
        <time>2025-10-19T10:34:58Z</time>
      </trkpt>
      <trkpt lat="43.21069" lon="5.48961">
        <ele>153.9</ele>
        <time>2025-10-19T10:34:59Z</time>
      </trkpt>
      <trkpt lat="43.21069" lon="5.4896">
        <ele>153.8</ele>
        <time>2025-10-19T10:35:00Z</time>
      </trkpt>
      <trkpt lat="43.2107" lon="5.48959">
        <ele>153.8</ele>
        <time>2025-10-19T10:35:01Z</time>
      </trkpt>
      <trkpt lat="43.21071" lon="5.48958">
        <ele>153.8</ele>
        <time>2025-10-19T10:35:02Z</time>
      </trkpt>
      <trkpt lat="43.21071" lon="5.48956">
        <ele>153.8</ele>
        <time>2025-10-19T10:35:03Z</time>
      </trkpt>
      <trkpt lat="43.21071" lon="5.48954">
        <ele>153.9</ele>
        <time>2025-10-19T10:35:04Z</time>
      </trkpt>
      <trkpt lat="43.21071" lon="5.48953">
        <ele>153.9</ele>
        <time>2025-10-19T10:35:05Z</time>
      </trkpt>
      <trkpt lat="43.21072" lon="5.48952">
        <ele>153.9</ele>
        <time>2025-10-19T10:35:06Z</time>
      </trkpt>
      <trkpt lat="43.21072" lon="5.4895">
        <ele>153.9</ele>
        <time>2025-10-19T10:35:07Z</time>
      </trkpt>
      <trkpt lat="43.21072" lon="5.48949">
        <ele>154</ele>
        <time>2025-10-19T10:35:08Z</time>
      </trkpt>
      <trkpt lat="43.21072" lon="5.48948">
        <ele>154</ele>
        <time>2025-10-19T10:35:09Z</time>
      </trkpt>
      <trkpt lat="43.21072" lon="5.48947">
        <ele>154</ele>
        <time>2025-10-19T10:35:10Z</time>
      </trkpt>
      <trkpt lat="43.21072" lon="5.48946">
        <ele>154</ele>
        <time>2025-10-19T10:35:11Z</time>
      </trkpt>
      <trkpt lat="43.21072" lon="5.48945">
        <ele>153.9</ele>
        <time>2025-10-19T10:35:12Z</time>
      </trkpt>
      <trkpt lat="43.21072" lon="5.48945">
        <ele>154</ele>
        <time>2025-10-19T10:35:13Z</time>
      </trkpt>
      <trkpt lat="43.21072" lon="5.48943">
        <ele>154</ele>
        <time>2025-10-19T10:35:14Z</time>
      </trkpt>
      <trkpt lat="43.21072" lon="5.48941">
        <ele>154</ele>
        <time>2025-10-19T10:35:15Z</time>
      </trkpt>
      <trkpt lat="43.21072" lon="5.4894">
        <ele>154</ele>
        <time>2025-10-19T10:35:16Z</time>
      </trkpt>
      <trkpt lat="43.21072" lon="5.48939">
        <ele>154.1</ele>
        <time>2025-10-19T10:35:17Z</time>
      </trkpt>
      <trkpt lat="43.21072" lon="5.48936">
        <ele>154</ele>
        <time>2025-10-19T10:35:18Z</time>
      </trkpt>
      <trkpt lat="43.21072" lon="5.48935">
        <ele>154</ele>
        <time>2025-10-19T10:35:19Z</time>
      </trkpt>
      <trkpt lat="43.21072" lon="5.48933">
        <ele>154.1</ele>
        <time>2025-10-19T10:35:20Z</time>
      </trkpt>
      <trkpt lat="43.21072" lon="5.48931">
        <ele>154.1</ele>
        <time>2025-10-19T10:35:21Z</time>
      </trkpt>
      <trkpt lat="43.21072" lon="5.4893">
        <ele>154</ele>
        <time>2025-10-19T10:35:22Z</time>
      </trkpt>
      <trkpt lat="43.21072" lon="5.48929">
        <ele>154</ele>
        <time>2025-10-19T10:35:23Z</time>
      </trkpt>
      <trkpt lat="43.21072" lon="5.48927">
        <ele>154</ele>
        <time>2025-10-19T10:35:24Z</time>
      </trkpt>
      <trkpt lat="43.21072" lon="5.48926">
        <ele>153.9</ele>
        <time>2025-10-19T10:35:25Z</time>
      </trkpt>
      <trkpt lat="43.21073" lon="5.48925">
        <ele>154</ele>
        <time>2025-10-19T10:35:26Z</time>
      </trkpt>
      <trkpt lat="43.21073" lon="5.48924">
        <ele>154</ele>
        <time>2025-10-19T10:35:27Z</time>
      </trkpt>
      <trkpt lat="43.21073" lon="5.48922">
        <ele>153.9</ele>
        <time>2025-10-19T10:35:28Z</time>
      </trkpt>
      <trkpt lat="43.21074" lon="5.48921">
        <ele>153.9</ele>
        <time>2025-10-19T10:35:29Z</time>
      </trkpt>
      <trkpt lat="43.21074" lon="5.48919">
        <ele>153.8</ele>
        <time>2025-10-19T10:35:30Z</time>
      </trkpt>
      <trkpt lat="43.21074" lon="5.48918">
        <ele>153.8</ele>
        <time>2025-10-19T10:35:31Z</time>
      </trkpt>
      <trkpt lat="43.21074" lon="5.48916">
        <ele>153.8</ele>
        <time>2025-10-19T10:35:32Z</time>
      </trkpt>
      <trkpt lat="43.21074" lon="5.48914">
        <ele>153.7</ele>
        <time>2025-10-19T10:35:33Z</time>
      </trkpt>
      <trkpt lat="43.21074" lon="5.48913">
        <ele>153.5</ele>
        <time>2025-10-19T10:35:34Z</time>
      </trkpt>
      <trkpt lat="43.21074" lon="5.48912">
        <ele>153.5</ele>
        <time>2025-10-19T10:35:35Z</time>
      </trkpt>
      <trkpt lat="43.21074" lon="5.4891">
        <ele>153.4</ele>
        <time>2025-10-19T10:35:36Z</time>
      </trkpt>
      <trkpt lat="43.21074" lon="5.48909">
        <ele>153.4</ele>
        <time>2025-10-19T10:35:37Z</time>
      </trkpt>
      <trkpt lat="43.21074" lon="5.48909">
        <ele>153.3</ele>
        <time>2025-10-19T10:35:38Z</time>
      </trkpt>
      <trkpt lat="43.21074" lon="5.48908">
        <ele>153.2</ele>
        <time>2025-10-19T10:35:39Z</time>
      </trkpt>
      <trkpt lat="43.21074" lon="5.48907">
        <ele>153.2</ele>
        <time>2025-10-19T10:35:40Z</time>
      </trkpt>
      <trkpt lat="43.21074" lon="5.48906">
        <ele>153</ele>
        <time>2025-10-19T10:35:41Z</time>
      </trkpt>
      <trkpt lat="43.21074" lon="5.48905">
        <ele>152.9</ele>
        <time>2025-10-19T10:35:42Z</time>
      </trkpt>
      <trkpt lat="43.21074" lon="5.48903">
        <ele>152.8</ele>
        <time>2025-10-19T10:35:43Z</time>
      </trkpt>
      <trkpt lat="43.21073" lon="5.48902">
        <ele>152.7</ele>
        <time>2025-10-19T10:35:44Z</time>
      </trkpt>
      <trkpt lat="43.21073" lon="5.48901">
        <ele>152.5</ele>
        <time>2025-10-19T10:35:45Z</time>
      </trkpt>
      <trkpt lat="43.21073" lon="5.489">
        <ele>152.3</ele>
        <time>2025-10-19T10:35:46Z</time>
      </trkpt>
      <trkpt lat="43.21073" lon="5.48899">
        <ele>152.1</ele>
        <time>2025-10-19T10:35:47Z</time>
      </trkpt>
      <trkpt lat="43.21072" lon="5.48898">
        <ele>152</ele>
        <time>2025-10-19T10:35:48Z</time>
      </trkpt>
      <trkpt lat="43.21072" lon="5.48897">
        <ele>151.8</ele>
        <time>2025-10-19T10:35:49Z</time>
      </trkpt>
      <trkpt lat="43.21072" lon="5.48896">
        <ele>151.6</ele>
        <time>2025-10-19T10:35:50Z</time>
      </trkpt>
      <trkpt lat="43.21071" lon="5.48896">
        <ele>151.4</ele>
        <time>2025-10-19T10:35:51Z</time>
      </trkpt>
      <trkpt lat="43.21071" lon="5.48895">
        <ele>151.3</ele>
        <time>2025-10-19T10:35:52Z</time>
      </trkpt>
      <trkpt lat="43.2107" lon="5.48895">
        <ele>151.1</ele>
        <time>2025-10-19T10:35:53Z</time>
      </trkpt>
      <trkpt lat="43.21069" lon="5.48894">
        <ele>151</ele>
        <time>2025-10-19T10:35:54Z</time>
      </trkpt>
      <trkpt lat="43.21069" lon="5.48894">
        <ele>150.8</ele>
        <time>2025-10-19T10:35:55Z</time>
      </trkpt>
      <trkpt lat="43.21069" lon="5.48893">
        <ele>150.7</ele>
        <time>2025-10-19T10:35:56Z</time>
      </trkpt>
      <trkpt lat="43.21069" lon="5.48893">
        <ele>150.5</ele>
        <time>2025-10-19T10:35:57Z</time>
      </trkpt>
      <trkpt lat="43.21068" lon="5.48893">
        <ele>150.3</ele>
        <time>2025-10-19T10:35:58Z</time>
      </trkpt>
      <trkpt lat="43.21068" lon="5.48892">
        <ele>150.1</ele>
        <time>2025-10-19T10:35:59Z</time>
      </trkpt>
      <trkpt lat="43.21068" lon="5.48892">
        <ele>150</ele>
        <time>2025-10-19T10:36:00Z</time>
      </trkpt>
      <trkpt lat="43.21068" lon="5.48892">
        <ele>149.9</ele>
        <time>2025-10-19T10:36:01Z</time>
      </trkpt>
      <trkpt lat="43.21067" lon="5.48891">
        <ele>149.7</ele>
        <time>2025-10-19T10:36:02Z</time>
      </trkpt>
      <trkpt lat="43.21066" lon="5.48891">
        <ele>149.5</ele>
        <time>2025-10-19T10:36:03Z</time>
      </trkpt>
      <trkpt lat="43.21066" lon="5.4889">
        <ele>149.4</ele>
        <time>2025-10-19T10:36:04Z</time>
      </trkpt>
      <trkpt lat="43.21066" lon="5.4889">
        <ele>149.2</ele>
        <time>2025-10-19T10:36:05Z</time>
      </trkpt>
      <trkpt lat="43.21065" lon="5.48889">
        <ele>149</ele>
        <time>2025-10-19T10:36:06Z</time>
      </trkpt>
      <trkpt lat="43.21064" lon="5.48889">
        <ele>148.8</ele>
        <time>2025-10-19T10:36:07Z</time>
      </trkpt>
      <trkpt lat="43.21064" lon="5.48889">
        <ele>148.6</ele>
        <time>2025-10-19T10:36:08Z</time>
      </trkpt>
      <trkpt lat="43.21064" lon="5.48889">
        <ele>148.5</ele>
        <time>2025-10-19T10:36:09Z</time>
      </trkpt>
      <trkpt lat="43.21063" lon="5.48888">
        <ele>148.4</ele>
        <time>2025-10-19T10:36:10Z</time>
      </trkpt>
      <trkpt lat="43.21063" lon="5.48888">
        <ele>148.2</ele>
        <time>2025-10-19T10:36:11Z</time>
      </trkpt>
      <trkpt lat="43.21062" lon="5.48887">
        <ele>148</ele>
        <time>2025-10-19T10:36:12Z</time>
      </trkpt>
      <trkpt lat="43.21061" lon="5.48887">
        <ele>147.8</ele>
        <time>2025-10-19T10:36:13Z</time>
      </trkpt>
      <trkpt lat="43.2106" lon="5.48886">
        <ele>147.5</ele>
        <time>2025-10-19T10:36:14Z</time>
      </trkpt>
      <trkpt lat="43.21059" lon="5.48886">
        <ele>147.4</ele>
        <time>2025-10-19T10:36:15Z</time>
      </trkpt>
      <trkpt lat="43.21059" lon="5.48885">
        <ele>147.1</ele>
        <time>2025-10-19T10:36:16Z</time>
      </trkpt>
      <trkpt lat="43.21058" lon="5.48884">
        <ele>146.9</ele>
        <time>2025-10-19T10:36:17Z</time>
      </trkpt>
      <trkpt lat="43.21057" lon="5.48883">
        <ele>146.7</ele>
        <time>2025-10-19T10:36:18Z</time>
      </trkpt>
      <trkpt lat="43.21057" lon="5.48882">
        <ele>146.5</ele>
        <time>2025-10-19T10:36:19Z</time>
      </trkpt>
      <trkpt lat="43.21056" lon="5.48881">
        <ele>146.3</ele>
        <time>2025-10-19T10:36:20Z</time>
      </trkpt>
      <trkpt lat="43.21055" lon="5.4888">
        <ele>146.2</ele>
        <time>2025-10-19T10:36:21Z</time>
      </trkpt>
      <trkpt lat="43.21054" lon="5.48879">
        <ele>146</ele>
        <time>2025-10-19T10:36:22Z</time>
      </trkpt>
      <trkpt lat="43.21054" lon="5.48878">
        <ele>145.9</ele>
        <time>2025-10-19T10:36:23Z</time>
      </trkpt>
      <trkpt lat="43.21054" lon="5.48877">
        <ele>145.4</ele>
        <time>2025-10-19T10:36:24Z</time>
      </trkpt>
      <trkpt lat="43.21054" lon="5.48876">
        <ele>145.2</ele>
        <time>2025-10-19T10:36:25Z</time>
      </trkpt>
      <trkpt lat="43.21054" lon="5.48874">
        <ele>145</ele>
        <time>2025-10-19T10:36:26Z</time>
      </trkpt>
      <trkpt lat="43.21054" lon="5.48873">
        <ele>144.9</ele>
        <time>2025-10-19T10:36:27Z</time>
      </trkpt>
      <trkpt lat="43.21054" lon="5.48872">
        <ele>144.8</ele>
        <time>2025-10-19T10:36:28Z</time>
      </trkpt>
      <trkpt lat="43.21054" lon="5.4887">
        <ele>144.7</ele>
        <time>2025-10-19T10:36:29Z</time>
      </trkpt>
      <trkpt lat="43.21054" lon="5.48869">
        <ele>144.6</ele>
        <time>2025-10-19T10:36:30Z</time>
      </trkpt>
      <trkpt lat="43.21054" lon="5.48868">
        <ele>144.5</ele>
        <time>2025-10-19T10:36:31Z</time>
      </trkpt>
      <trkpt lat="43.21054" lon="5.48867">
        <ele>144.4</ele>
        <time>2025-10-19T10:36:32Z</time>
      </trkpt>
      <trkpt lat="43.21054" lon="5.48866">
        <ele>144.2</ele>
        <time>2025-10-19T10:36:33Z</time>
      </trkpt>
      <trkpt lat="43.21054" lon="5.48865">
        <ele>144.1</ele>
        <time>2025-10-19T10:36:34Z</time>
      </trkpt>
      <trkpt lat="43.21054" lon="5.48863">
        <ele>144</ele>
        <time>2025-10-19T10:36:35Z</time>
      </trkpt>
      <trkpt lat="43.21054" lon="5.48862">
        <ele>143.9</ele>
        <time>2025-10-19T10:36:36Z</time>
      </trkpt>
      <trkpt lat="43.21055" lon="5.48861">
        <ele>143.8</ele>
        <time>2025-10-19T10:36:37Z</time>
      </trkpt>
      <trkpt lat="43.21056" lon="5.4886">
        <ele>143.7</ele>
        <time>2025-10-19T10:36:38Z</time>
      </trkpt>
      <trkpt lat="43.21056" lon="5.48859">
        <ele>143.6</ele>
        <time>2025-10-19T10:36:39Z</time>
      </trkpt>
      <trkpt lat="43.21057" lon="5.48858">
        <ele>143.5</ele>
        <time>2025-10-19T10:36:40Z</time>
      </trkpt>
      <trkpt lat="43.21057" lon="5.48857">
        <ele>143.4</ele>
        <time>2025-10-19T10:36:41Z</time>
      </trkpt>
      <trkpt lat="43.21058" lon="5.48856">
        <ele>143.2</ele>
        <time>2025-10-19T10:36:42Z</time>
      </trkpt>
      <trkpt lat="43.21058" lon="5.48855">
        <ele>143.1</ele>
        <time>2025-10-19T10:36:43Z</time>
      </trkpt>
      <trkpt lat="43.21059" lon="5.48854">
        <ele>143</ele>
        <time>2025-10-19T10:36:44Z</time>
      </trkpt>
      <trkpt lat="43.2106" lon="5.48853">
        <ele>142.9</ele>
        <time>2025-10-19T10:36:45Z</time>
      </trkpt>
      <trkpt lat="43.21061" lon="5.48852">
        <ele>142.8</ele>
        <time>2025-10-19T10:36:46Z</time>
      </trkpt>
      <trkpt lat="43.21061" lon="5.48851">
        <ele>142.6</ele>
        <time>2025-10-19T10:36:47Z</time>
      </trkpt>
      <trkpt lat="43.21062" lon="5.48851">
        <ele>142.4</ele>
        <time>2025-10-19T10:36:48Z</time>
      </trkpt>
      <trkpt lat="43.21062" lon="5.4885">
        <ele>142.3</ele>
        <time>2025-10-19T10:36:49Z</time>
      </trkpt>
      <trkpt lat="43.21063" lon="5.48849">
        <ele>142.1</ele>
        <time>2025-10-19T10:36:50Z</time>
      </trkpt>
      <trkpt lat="43.21063" lon="5.48848">
        <ele>142</ele>
        <time>2025-10-19T10:36:51Z</time>
      </trkpt>
      <trkpt lat="43.21064" lon="5.48847">
        <ele>141.9</ele>
        <time>2025-10-19T10:36:52Z</time>
      </trkpt>
      <trkpt lat="43.21064" lon="5.48847">
        <ele>141.7</ele>
        <time>2025-10-19T10:36:53Z</time>
      </trkpt>
      <trkpt lat="43.21065" lon="5.48846">
        <ele>141.5</ele>
        <time>2025-10-19T10:36:54Z</time>
      </trkpt>
      <trkpt lat="43.21065" lon="5.48846">
        <ele>141.4</ele>
        <time>2025-10-19T10:36:55Z</time>
      </trkpt>
      <trkpt lat="43.21066" lon="5.48845">
        <ele>141.3</ele>
        <time>2025-10-19T10:36:56Z</time>
      </trkpt>
      <trkpt lat="43.21066" lon="5.48844">
        <ele>141.2</ele>
        <time>2025-10-19T10:36:57Z</time>
      </trkpt>
      <trkpt lat="43.21067" lon="5.48844">
        <ele>141.1</ele>
        <time>2025-10-19T10:36:58Z</time>
      </trkpt>
      <trkpt lat="43.21067" lon="5.48843">
        <ele>141</ele>
        <time>2025-10-19T10:36:59Z</time>
      </trkpt>
      <trkpt lat="43.21068" lon="5.48843">
        <ele>140.9</ele>
        <time>2025-10-19T10:37:00Z</time>
      </trkpt>
      <trkpt lat="43.21068" lon="5.48843">
        <ele>140.8</ele>
        <time>2025-10-19T10:37:01Z</time>
      </trkpt>
      <trkpt lat="43.21069" lon="5.48842">
        <ele>140.7</ele>
        <time>2025-10-19T10:37:02Z</time>
      </trkpt>
      <trkpt lat="43.21069" lon="5.48842">
        <ele>140.6</ele>
        <time>2025-10-19T10:37:03Z</time>
      </trkpt>
      <trkpt lat="43.2107" lon="5.48841">
        <ele>140.5</ele>
        <time>2025-10-19T10:37:04Z</time>
      </trkpt>
      <trkpt lat="43.2107" lon="5.48841">
        <ele>140.4</ele>
        <time>2025-10-19T10:37:05Z</time>
      </trkpt>
      <trkpt lat="43.2107" lon="5.4884">
        <ele>140.2</ele>
        <time>2025-10-19T10:37:06Z</time>
      </trkpt>
      <trkpt lat="43.21071" lon="5.4884">
        <ele>140.1</ele>
        <time>2025-10-19T10:37:07Z</time>
      </trkpt>
      <trkpt lat="43.21071" lon="5.48839">
        <ele>139.9</ele>
        <time>2025-10-19T10:37:08Z</time>
      </trkpt>
      <trkpt lat="43.21072" lon="5.48839">
        <ele>139.7</ele>
        <time>2025-10-19T10:37:09Z</time>
      </trkpt>
      <trkpt lat="43.21072" lon="5.48838">
        <ele>139.6</ele>
        <time>2025-10-19T10:37:10Z</time>
      </trkpt>
      <trkpt lat="43.21073" lon="5.48838">
        <ele>139.4</ele>
        <time>2025-10-19T10:37:11Z</time>
      </trkpt>
      <trkpt lat="43.21074" lon="5.48837">
        <ele>139.3</ele>
        <time>2025-10-19T10:37:12Z</time>
      </trkpt>
      <trkpt lat="43.21074" lon="5.48836">
        <ele>139.1</ele>
        <time>2025-10-19T10:37:13Z</time>
      </trkpt>
      <trkpt lat="43.21075" lon="5.48834">
        <ele>139</ele>
        <time>2025-10-19T10:37:14Z</time>
      </trkpt>
      <trkpt lat="43.21075" lon="5.48833">
        <ele>138.9</ele>
        <time>2025-10-19T10:37:15Z</time>
      </trkpt>
      <trkpt lat="43.21076" lon="5.48832">
        <ele>138.8</ele>
        <time>2025-10-19T10:37:16Z</time>
      </trkpt>
      <trkpt lat="43.21077" lon="5.48831">
        <ele>139</ele>
        <time>2025-10-19T10:37:17Z</time>
      </trkpt>
      <trkpt lat="43.21077" lon="5.4883">
        <ele>138.4</ele>
        <time>2025-10-19T10:37:18Z</time>
      </trkpt>
      <trkpt lat="43.21078" lon="5.48829">
        <ele>138.2</ele>
        <time>2025-10-19T10:37:19Z</time>
      </trkpt>
      <trkpt lat="43.21079" lon="5.48828">
        <ele>138</ele>
        <time>2025-10-19T10:37:20Z</time>
      </trkpt>
      <trkpt lat="43.21079" lon="5.48827">
        <ele>137.9</ele>
        <time>2025-10-19T10:37:21Z</time>
      </trkpt>
      <trkpt lat="43.2108" lon="5.48827">
        <ele>137.8</ele>
        <time>2025-10-19T10:37:22Z</time>
      </trkpt>
      <trkpt lat="43.21081" lon="5.48826">
        <ele>137.7</ele>
        <time>2025-10-19T10:37:23Z</time>
      </trkpt>
      <trkpt lat="43.21081" lon="5.48825">
        <ele>137.6</ele>
        <time>2025-10-19T10:37:24Z</time>
      </trkpt>
      <trkpt lat="43.21082" lon="5.48824">
        <ele>137.5</ele>
        <time>2025-10-19T10:37:25Z</time>
      </trkpt>
      <trkpt lat="43.21083" lon="5.48822">
        <ele>137.4</ele>
        <time>2025-10-19T10:37:26Z</time>
      </trkpt>
      <trkpt lat="43.21083" lon="5.48821">
        <ele>137.3</ele>
        <time>2025-10-19T10:37:27Z</time>
      </trkpt>
      <trkpt lat="43.21084" lon="5.4882">
        <ele>137.2</ele>
        <time>2025-10-19T10:37:28Z</time>
      </trkpt>
      <trkpt lat="43.21084" lon="5.4882">
        <ele>137.1</ele>
        <time>2025-10-19T10:37:29Z</time>
      </trkpt>
      <trkpt lat="43.21085" lon="5.48819">
        <ele>136.9</ele>
        <time>2025-10-19T10:37:30Z</time>
      </trkpt>
      <trkpt lat="43.21086" lon="5.48818">
        <ele>136.7</ele>
        <time>2025-10-19T10:37:31Z</time>
      </trkpt>
      <trkpt lat="43.21087" lon="5.48818">
        <ele>136.6</ele>
        <time>2025-10-19T10:37:32Z</time>
      </trkpt>
      <trkpt lat="43.21088" lon="5.48817">
        <ele>136.5</ele>
        <time>2025-10-19T10:37:33Z</time>
      </trkpt>
      <trkpt lat="43.21089" lon="5.48816">
        <ele>136.3</ele>
        <time>2025-10-19T10:37:34Z</time>
      </trkpt>
      <trkpt lat="43.21089" lon="5.48815">
        <ele>136.2</ele>
        <time>2025-10-19T10:37:35Z</time>
      </trkpt>
      <trkpt lat="43.2109" lon="5.48815">
        <ele>136</ele>
        <time>2025-10-19T10:37:36Z</time>
      </trkpt>
      <trkpt lat="43.21091" lon="5.48814">
        <ele>136</ele>
        <time>2025-10-19T10:37:37Z</time>
      </trkpt>
      <trkpt lat="43.21092" lon="5.48813">
        <ele>135.9</ele>
        <time>2025-10-19T10:37:38Z</time>
      </trkpt>
      <trkpt lat="43.21093" lon="5.48812">
        <ele>135.8</ele>
        <time>2025-10-19T10:37:39Z</time>
      </trkpt>
      <trkpt lat="43.21094" lon="5.48811">
        <ele>135.7</ele>
        <time>2025-10-19T10:37:40Z</time>
      </trkpt>
      <trkpt lat="43.21095" lon="5.48811">
        <ele>135.7</ele>
        <time>2025-10-19T10:37:41Z</time>
      </trkpt>
      <trkpt lat="43.21096" lon="5.4881">
        <ele>135.6</ele>
        <time>2025-10-19T10:37:42Z</time>
      </trkpt>
      <trkpt lat="43.21097" lon="5.4881">
        <ele>135.6</ele>
        <time>2025-10-19T10:37:43Z</time>
      </trkpt>
      <trkpt lat="43.21097" lon="5.48809">
        <ele>135.5</ele>
        <time>2025-10-19T10:37:44Z</time>
      </trkpt>
      <trkpt lat="43.21098" lon="5.48809">
        <ele>135.4</ele>
        <time>2025-10-19T10:37:45Z</time>
      </trkpt>
      <trkpt lat="43.21099" lon="5.48808">
        <ele>135.3</ele>
        <time>2025-10-19T10:37:46Z</time>
      </trkpt>
      <trkpt lat="43.211" lon="5.48807">
        <ele>135.3</ele>
        <time>2025-10-19T10:37:47Z</time>
      </trkpt>
      <trkpt lat="43.21101" lon="5.48807">
        <ele>135.2</ele>
        <time>2025-10-19T10:37:48Z</time>
      </trkpt>
      <trkpt lat="43.21102" lon="5.48806">
        <ele>135.1</ele>
        <time>2025-10-19T10:37:49Z</time>
      </trkpt>
      <trkpt lat="43.21103" lon="5.48806">
        <ele>135</ele>
        <time>2025-10-19T10:37:50Z</time>
      </trkpt>
      <trkpt lat="43.21103" lon="5.48805">
        <ele>134.9</ele>
        <time>2025-10-19T10:37:51Z</time>
      </trkpt>
      <trkpt lat="43.21104" lon="5.48804">
        <ele>134.9</ele>
        <time>2025-10-19T10:37:52Z</time>
      </trkpt>
      <trkpt lat="43.21104" lon="5.48802">
        <ele>134.8</ele>
        <time>2025-10-19T10:37:53Z</time>
      </trkpt>
      <trkpt lat="43.21105" lon="5.48802">
        <ele>134.8</ele>
        <time>2025-10-19T10:37:54Z</time>
      </trkpt>
      <trkpt lat="43.21106" lon="5.48801">
        <ele>134.8</ele>
        <time>2025-10-19T10:37:55Z</time>
      </trkpt>
      <trkpt lat="43.21106" lon="5.48801">
        <ele>134.7</ele>
        <time>2025-10-19T10:37:56Z</time>
      </trkpt>
      <trkpt lat="43.21107" lon="5.488">
        <ele>134.6</ele>
        <time>2025-10-19T10:37:57Z</time>
      </trkpt>
      <trkpt lat="43.21107" lon="5.48799">
        <ele>134.5</ele>
        <time>2025-10-19T10:37:58Z</time>
      </trkpt>
      <trkpt lat="43.21108" lon="5.48798">
        <ele>134.4</ele>
        <time>2025-10-19T10:37:59Z</time>
      </trkpt>
      <trkpt lat="43.21108" lon="5.48798">
        <ele>134.3</ele>
        <time>2025-10-19T10:38:00Z</time>
      </trkpt>
      <trkpt lat="43.21108" lon="5.48798">
        <ele>134.3</ele>
        <time>2025-10-19T10:38:01Z</time>
      </trkpt>
      <trkpt lat="43.21108" lon="5.48798">
        <ele>134.2</ele>
        <time>2025-10-19T10:38:02Z</time>
      </trkpt>
      <trkpt lat="43.21108" lon="5.48797">
        <ele>134.2</ele>
        <time>2025-10-19T10:38:03Z</time>
      </trkpt>
      <trkpt lat="43.21108" lon="5.48797">
        <ele>134.2</ele>
        <time>2025-10-19T10:38:04Z</time>
      </trkpt>
      <trkpt lat="43.21108" lon="5.48797">
        <ele>134.1</ele>
        <time>2025-10-19T10:38:05Z</time>
      </trkpt>
      <trkpt lat="43.21108" lon="5.48797">
        <ele>134.1</ele>
        <time>2025-10-19T10:38:06Z</time>
      </trkpt>
      <trkpt lat="43.21108" lon="5.48797">
        <ele>134.1</ele>
        <time>2025-10-19T10:38:07Z</time>
      </trkpt>
      <trkpt lat="43.21108" lon="5.48797">
        <ele>134.1</ele>
        <time>2025-10-19T10:38:08Z</time>
      </trkpt>
      <trkpt lat="43.21108" lon="5.48797">
        <ele>134.1</ele>
        <time>2025-10-19T10:38:09Z</time>
      </trkpt>
      <trkpt lat="43.21108" lon="5.48797">
        <ele>134</ele>
        <time>2025-10-19T10:38:10Z</time>
      </trkpt>
      <trkpt lat="43.21108" lon="5.48797">
        <ele>134</ele>
        <time>2025-10-19T10:38:11Z</time>
      </trkpt>
      <trkpt lat="43.21108" lon="5.48797">
        <ele>134</ele>
        <time>2025-10-19T10:38:12Z</time>
      </trkpt>
      <trkpt lat="43.21108" lon="5.48796">
        <ele>134</ele>
        <time>2025-10-19T10:38:13Z</time>
      </trkpt>
      <trkpt lat="43.21108" lon="5.48797">
        <ele>133.8</ele>
        <time>2025-10-19T10:38:14Z</time>
      </trkpt>
      <trkpt lat="43.21109" lon="5.48797">
        <ele>133.8</ele>
        <time>2025-10-19T10:38:15Z</time>
      </trkpt>
      <trkpt lat="43.21109" lon="5.48796">
        <ele>133.7</ele>
        <time>2025-10-19T10:38:16Z</time>
      </trkpt>
      <trkpt lat="43.21109" lon="5.48796">
        <ele>133.7</ele>
        <time>2025-10-19T10:38:17Z</time>
      </trkpt>
      <trkpt lat="43.21109" lon="5.48796">
        <ele>133.8</ele>
        <time>2025-10-19T10:38:18Z</time>
      </trkpt>
      <trkpt lat="43.21109" lon="5.48796">
        <ele>133.8</ele>
        <time>2025-10-19T10:38:19Z</time>
      </trkpt>
      <trkpt lat="43.21109" lon="5.48796">
        <ele>133.8</ele>
        <time>2025-10-19T10:38:20Z</time>
      </trkpt>
      <trkpt lat="43.21109" lon="5.48796">
        <ele>133.9</ele>
        <time>2025-10-19T10:38:21Z</time>
      </trkpt>
      <trkpt lat="43.21109" lon="5.48796">
        <ele>133.9</ele>
        <time>2025-10-19T10:38:22Z</time>
      </trkpt>
      <trkpt lat="43.21109" lon="5.48796">
        <ele>133.8</ele>
        <time>2025-10-19T10:38:23Z</time>
      </trkpt>
      <trkpt lat="43.21109" lon="5.48796">
        <ele>133.8</ele>
        <time>2025-10-19T10:38:24Z</time>
      </trkpt>
      <trkpt lat="43.21109" lon="5.48796">
        <ele>133.8</ele>
        <time>2025-10-19T10:38:25Z</time>
      </trkpt>
      <trkpt lat="43.21109" lon="5.48796">
        <ele>133.8</ele>
        <time>2025-10-19T10:38:26Z</time>
      </trkpt>
      <trkpt lat="43.21109" lon="5.48796">
        <ele>133.8</ele>
        <time>2025-10-19T10:38:27Z</time>
      </trkpt>
      <trkpt lat="43.21109" lon="5.48796">
        <ele>133.8</ele>
        <time>2025-10-19T10:38:28Z</time>
      </trkpt>
      <trkpt lat="43.21109" lon="5.48796">
        <ele>133.8</ele>
        <time>2025-10-19T10:38:29Z</time>
      </trkpt>
      <trkpt lat="43.21109" lon="5.48796">
        <ele>133.7</ele>
        <time>2025-10-19T10:38:30Z</time>
      </trkpt>
      <trkpt lat="43.21109" lon="5.48796">
        <ele>133.7</ele>
        <time>2025-10-19T10:38:31Z</time>
      </trkpt>
      <trkpt lat="43.21109" lon="5.48796">
        <ele>133.7</ele>
        <time>2025-10-19T10:38:32Z</time>
      </trkpt>
      <trkpt lat="43.21109" lon="5.48796">
        <ele>133.7</ele>
        <time>2025-10-19T10:38:33Z</time>
      </trkpt>
      <trkpt lat="43.21109" lon="5.48796">
        <ele>133.6</ele>
        <time>2025-10-19T10:38:34Z</time>
      </trkpt>
      <trkpt lat="43.21109" lon="5.48796">
        <ele>133.5</ele>
        <time>2025-10-19T10:38:35Z</time>
      </trkpt>
      <trkpt lat="43.21109" lon="5.48796">
        <ele>133.5</ele>
        <time>2025-10-19T10:38:36Z</time>
      </trkpt>
      <trkpt lat="43.21109" lon="5.48796">
        <ele>133.6</ele>
        <time>2025-10-19T10:38:37Z</time>
      </trkpt>
      <trkpt lat="43.21109" lon="5.48796">
        <ele>133.7</ele>
        <time>2025-10-19T10:38:38Z</time>
      </trkpt>
      <trkpt lat="43.21109" lon="5.48796">
        <ele>133.8</ele>
        <time>2025-10-19T10:38:39Z</time>
      </trkpt>
      <trkpt lat="43.21108" lon="5.48796">
        <ele>133.8</ele>
        <time>2025-10-19T10:38:40Z</time>
      </trkpt>
      <trkpt lat="43.21108" lon="5.48796">
        <ele>133.9</ele>
        <time>2025-10-19T10:38:41Z</time>
      </trkpt>
      <trkpt lat="43.21108" lon="5.48796">
        <ele>133.9</ele>
        <time>2025-10-19T10:38:42Z</time>
      </trkpt>
      <trkpt lat="43.21108" lon="5.48797">
        <ele>133.9</ele>
        <time>2025-10-19T10:38:43Z</time>
      </trkpt>
      <trkpt lat="43.21108" lon="5.48797">
        <ele>133.9</ele>
        <time>2025-10-19T10:38:44Z</time>
      </trkpt>
      <trkpt lat="43.21108" lon="5.48796">
        <ele>133.8</ele>
        <time>2025-10-19T10:38:45Z</time>
      </trkpt>
      <trkpt lat="43.21108" lon="5.48796">
        <ele>133.8</ele>
        <time>2025-10-19T10:38:46Z</time>
      </trkpt>
      <trkpt lat="43.21108" lon="5.48797">
        <ele>133.7</ele>
        <time>2025-10-19T10:38:47Z</time>
      </trkpt>
      <trkpt lat="43.21108" lon="5.48797">
        <ele>133.7</ele>
        <time>2025-10-19T10:38:48Z</time>
      </trkpt>
      <trkpt lat="43.21108" lon="5.48797">
        <ele>133.6</ele>
        <time>2025-10-19T10:38:49Z</time>
      </trkpt>
      <trkpt lat="43.21108" lon="5.48797">
        <ele>133.6</ele>
        <time>2025-10-19T10:38:50Z</time>
      </trkpt>
      <trkpt lat="43.21108" lon="5.48797">
        <ele>133.6</ele>
        <time>2025-10-19T10:38:51Z</time>
      </trkpt>
      <trkpt lat="43.21108" lon="5.48797">
        <ele>133.6</ele>
        <time>2025-10-19T10:38:52Z</time>
      </trkpt>
      <trkpt lat="43.21108" lon="5.48797">
        <ele>133.6</ele>
        <time>2025-10-19T10:38:53Z</time>
      </trkpt>
      <trkpt lat="43.21108" lon="5.48797">
        <ele>133.5</ele>
        <time>2025-10-19T10:38:54Z</time>
      </trkpt>
      <trkpt lat="43.21108" lon="5.48797">
        <ele>133.5</ele>
        <time>2025-10-19T10:38:55Z</time>
      </trkpt>
      <trkpt lat="43.21108" lon="5.48797">
        <ele>133.5</ele>
        <time>2025-10-19T10:38:56Z</time>
      </trkpt>
      <trkpt lat="43.21108" lon="5.48797">
        <ele>133.6</ele>
        <time>2025-10-19T10:38:57Z</time>
      </trkpt>
      <trkpt lat="43.21108" lon="5.48797">
        <ele>133.5</ele>
        <time>2025-10-19T10:38:58Z</time>
      </trkpt>
      <trkpt lat="43.21108" lon="5.48797">
        <ele>133.5</ele>
        <time>2025-10-19T10:38:59Z</time>
      </trkpt>
      <trkpt lat="43.21108" lon="5.48797">
        <ele>133.5</ele>
        <time>2025-10-19T10:39:00Z</time>
      </trkpt>
      <trkpt lat="43.21108" lon="5.48797">
        <ele>133.5</ele>
        <time>2025-10-19T10:39:01Z</time>
      </trkpt>
      <trkpt lat="43.21108" lon="5.48797">
        <ele>133.5</ele>
        <time>2025-10-19T10:39:02Z</time>
      </trkpt>
      <trkpt lat="43.21108" lon="5.48797">
        <ele>133.5</ele>
        <time>2025-10-19T10:39:03Z</time>
      </trkpt>
      <trkpt lat="43.21108" lon="5.48797">
        <ele>133.6</ele>
        <time>2025-10-19T10:39:04Z</time>
      </trkpt>
      <trkpt lat="43.21109" lon="5.48796">
        <ele>133.6</ele>
        <time>2025-10-19T10:39:05Z</time>
      </trkpt>
      <trkpt lat="43.21109" lon="5.48796">
        <ele>133.7</ele>
        <time>2025-10-19T10:39:06Z</time>
      </trkpt>
      <trkpt lat="43.21109" lon="5.48796">
        <ele>133.6</ele>
        <time>2025-10-19T10:39:07Z</time>
      </trkpt>
      <trkpt lat="43.21109" lon="5.48796">
        <ele>133.6</ele>
        <time>2025-10-19T10:39:08Z</time>
      </trkpt>
      <trkpt lat="43.21109" lon="5.48796">
        <ele>133.5</ele>
        <time>2025-10-19T10:39:09Z</time>
      </trkpt>
      <trkpt lat="43.2111" lon="5.48796">
        <ele>133.6</ele>
        <time>2025-10-19T10:39:10Z</time>
      </trkpt>
      <trkpt lat="43.2111" lon="5.48796">
        <ele>133.7</ele>
        <time>2025-10-19T10:39:11Z</time>
      </trkpt>
      <trkpt lat="43.2111" lon="5.48796">
        <ele>133.6</ele>
        <time>2025-10-19T10:39:12Z</time>
      </trkpt>
      <trkpt lat="43.2111" lon="5.48796">
        <ele>133.6</ele>
        <time>2025-10-19T10:39:13Z</time>
      </trkpt>
      <trkpt lat="43.2111" lon="5.48796">
        <ele>133.5</ele>
        <time>2025-10-19T10:39:14Z</time>
      </trkpt>
      <trkpt lat="43.2111" lon="5.48796">
        <ele>133.6</ele>
        <time>2025-10-19T10:39:15Z</time>
      </trkpt>
      <trkpt lat="43.21111" lon="5.48796">
        <ele>133.5</ele>
        <time>2025-10-19T10:39:16Z</time>
      </trkpt>
      <trkpt lat="43.21111" lon="5.48796">
        <ele>133.5</ele>
        <time>2025-10-19T10:39:17Z</time>
      </trkpt>
      <trkpt lat="43.21111" lon="5.48795">
        <ele>133.4</ele>
        <time>2025-10-19T10:39:18Z</time>
      </trkpt>
      <trkpt lat="43.21111" lon="5.48796">
        <ele>133.5</ele>
        <time>2025-10-19T10:39:19Z</time>
      </trkpt>
      <trkpt lat="43.21111" lon="5.48796">
        <ele>133.5</ele>
        <time>2025-10-19T10:39:20Z</time>
      </trkpt>
      <trkpt lat="43.21111" lon="5.48796">
        <ele>133.6</ele>
        <time>2025-10-19T10:39:21Z</time>
      </trkpt>
      <trkpt lat="43.21111" lon="5.48796">
        <ele>133.6</ele>
        <time>2025-10-19T10:39:22Z</time>
      </trkpt>
      <trkpt lat="43.21111" lon="5.48796">
        <ele>133.5</ele>
        <time>2025-10-19T10:39:23Z</time>
      </trkpt>
      <trkpt lat="43.21111" lon="5.48796">
        <ele>133.5</ele>
        <time>2025-10-19T10:39:24Z</time>
      </trkpt>
      <trkpt lat="43.21111" lon="5.48796">
        <ele>133.6</ele>
        <time>2025-10-19T10:39:25Z</time>
      </trkpt>
      <trkpt lat="43.21111" lon="5.48796">
        <ele>133.6</ele>
        <time>2025-10-19T10:39:26Z</time>
      </trkpt>
      <trkpt lat="43.21111" lon="5.48796">
        <ele>133.6</ele>
        <time>2025-10-19T10:39:27Z</time>
      </trkpt>
      <trkpt lat="43.21111" lon="5.48796">
        <ele>133.5</ele>
        <time>2025-10-19T10:39:28Z</time>
      </trkpt>
      <trkpt lat="43.21111" lon="5.48796">
        <ele>133.5</ele>
        <time>2025-10-19T10:39:29Z</time>
      </trkpt>
      <trkpt lat="43.21112" lon="5.48795">
        <ele>133.5</ele>
        <time>2025-10-19T10:39:30Z</time>
      </trkpt>
      <trkpt lat="43.21112" lon="5.48795">
        <ele>133.6</ele>
        <time>2025-10-19T10:39:31Z</time>
      </trkpt>
      <trkpt lat="43.21112" lon="5.48795">
        <ele>133.6</ele>
        <time>2025-10-19T10:39:32Z</time>
      </trkpt>
      <trkpt lat="43.21112" lon="5.48795">
        <ele>133.7</ele>
        <time>2025-10-19T10:39:33Z</time>
      </trkpt>
      <trkpt lat="43.21112" lon="5.48795">
        <ele>133.7</ele>
        <time>2025-10-19T10:39:34Z</time>
      </trkpt>
      <trkpt lat="43.21112" lon="5.48795">
        <ele>133.7</ele>
        <time>2025-10-19T10:39:35Z</time>
      </trkpt>
      <trkpt lat="43.21112" lon="5.48795">
        <ele>133.7</ele>
        <time>2025-10-19T10:39:36Z</time>
      </trkpt>
      <trkpt lat="43.21112" lon="5.48794">
        <ele>133.7</ele>
        <time>2025-10-19T10:39:37Z</time>
      </trkpt>
      <trkpt lat="43.21113" lon="5.48794">
        <ele>133.8</ele>
        <time>2025-10-19T10:39:38Z</time>
      </trkpt>
      <trkpt lat="43.21113" lon="5.48794">
        <ele>133.8</ele>
        <time>2025-10-19T10:39:39Z</time>
      </trkpt>
      <trkpt lat="43.21113" lon="5.48794">
        <ele>133.9</ele>
        <time>2025-10-19T10:39:40Z</time>
      </trkpt>
      <trkpt lat="43.21113" lon="5.48794">
        <ele>133.9</ele>
        <time>2025-10-19T10:39:41Z</time>
      </trkpt>
      <trkpt lat="43.21113" lon="5.48794">
        <ele>133.9</ele>
        <time>2025-10-19T10:39:42Z</time>
      </trkpt>
      <trkpt lat="43.21114" lon="5.48794">
        <ele>134</ele>
        <time>2025-10-19T10:39:43Z</time>
      </trkpt>
      <trkpt lat="43.21113" lon="5.48793">
        <ele>134</ele>
        <time>2025-10-19T10:39:44Z</time>
      </trkpt>
      <trkpt lat="43.21113" lon="5.48793">
        <ele>134</ele>
        <time>2025-10-19T10:39:45Z</time>
      </trkpt>
      <trkpt lat="43.21113" lon="5.48792">
        <ele>133.9</ele>
        <time>2025-10-19T10:39:46Z</time>
      </trkpt>
      <trkpt lat="43.21112" lon="5.48791">
        <ele>133.8</ele>
        <time>2025-10-19T10:39:47Z</time>
      </trkpt>
      <trkpt lat="43.21111" lon="5.4879">
        <ele>133.7</ele>
        <time>2025-10-19T10:39:48Z</time>
      </trkpt>
      <trkpt lat="43.2111" lon="5.4879">
        <ele>133.6</ele>
        <time>2025-10-19T10:39:49Z</time>
      </trkpt>
      <trkpt lat="43.21109" lon="5.48789">
        <ele>133.5</ele>
        <time>2025-10-19T10:39:50Z</time>
      </trkpt>
      <trkpt lat="43.21109" lon="5.48788">
        <ele>133.4</ele>
        <time>2025-10-19T10:39:51Z</time>
      </trkpt>
      <trkpt lat="43.21107" lon="5.48787">
        <ele>133.3</ele>
        <time>2025-10-19T10:39:52Z</time>
      </trkpt>
      <trkpt lat="43.21106" lon="5.48787">
        <ele>133.2</ele>
        <time>2025-10-19T10:39:53Z</time>
      </trkpt>
      <trkpt lat="43.21106" lon="5.48787">
        <ele>133.1</ele>
        <time>2025-10-19T10:39:54Z</time>
      </trkpt>
      <trkpt lat="43.21105" lon="5.48787">
        <ele>133</ele>
        <time>2025-10-19T10:39:55Z</time>
      </trkpt>
      <trkpt lat="43.21105" lon="5.48787">
        <ele>132.9</ele>
        <time>2025-10-19T10:39:56Z</time>
      </trkpt>
      <trkpt lat="43.21104" lon="5.48787">
        <ele>132.7</ele>
        <time>2025-10-19T10:39:57Z</time>
      </trkpt>
      <trkpt lat="43.21103" lon="5.48787">
        <ele>132.6</ele>
        <time>2025-10-19T10:39:58Z</time>
      </trkpt>
      <trkpt lat="43.21103" lon="5.48787">
        <ele>132.4</ele>
        <time>2025-10-19T10:39:59Z</time>
      </trkpt>
      <trkpt lat="43.21102" lon="5.48787">
        <ele>132.3</ele>
        <time>2025-10-19T10:40:00Z</time>
      </trkpt>
      <trkpt lat="43.21101" lon="5.48787">
        <ele>132.2</ele>
        <time>2025-10-19T10:40:01Z</time>
      </trkpt>
      <trkpt lat="43.211" lon="5.48787">
        <ele>132</ele>
        <time>2025-10-19T10:40:02Z</time>
      </trkpt>
      <trkpt lat="43.21099" lon="5.48788">
        <ele>131.9</ele>
        <time>2025-10-19T10:40:03Z</time>
      </trkpt>
      <trkpt lat="43.21099" lon="5.48789">
        <ele>131.9</ele>
        <time>2025-10-19T10:40:04Z</time>
      </trkpt>
      <trkpt lat="43.21098" lon="5.4879">
        <ele>131.8</ele>
        <time>2025-10-19T10:40:05Z</time>
      </trkpt>
      <trkpt lat="43.21097" lon="5.4879">
        <ele>131.7</ele>
        <time>2025-10-19T10:40:06Z</time>
      </trkpt>
      <trkpt lat="43.21096" lon="5.48791">
        <ele>131.6</ele>
        <time>2025-10-19T10:40:07Z</time>
      </trkpt>
      <trkpt lat="43.21095" lon="5.48791">
        <ele>131.5</ele>
        <time>2025-10-19T10:40:08Z</time>
      </trkpt>
      <trkpt lat="43.21095" lon="5.48791">
        <ele>131.3</ele>
        <time>2025-10-19T10:40:09Z</time>
      </trkpt>
      <trkpt lat="43.21094" lon="5.48791">
        <ele>131.2</ele>
        <time>2025-10-19T10:40:10Z</time>
      </trkpt>
      <trkpt lat="43.21094" lon="5.48791">
        <ele>131.1</ele>
        <time>2025-10-19T10:40:11Z</time>
      </trkpt>
      <trkpt lat="43.21093" lon="5.48791">
        <ele>131</ele>
        <time>2025-10-19T10:40:12Z</time>
      </trkpt>
      <trkpt lat="43.21093" lon="5.48791">
        <ele>130.9</ele>
        <time>2025-10-19T10:40:13Z</time>
      </trkpt>
      <trkpt lat="43.21092" lon="5.48792">
        <ele>130.9</ele>
        <time>2025-10-19T10:40:14Z</time>
      </trkpt>
      <trkpt lat="43.21092" lon="5.48791">
        <ele>130.8</ele>
        <time>2025-10-19T10:40:15Z</time>
      </trkpt>
      <trkpt lat="43.21092" lon="5.4879">
        <ele>130.8</ele>
        <time>2025-10-19T10:40:16Z</time>
      </trkpt>
      <trkpt lat="43.21092" lon="5.4879">
        <ele>130.8</ele>
        <time>2025-10-19T10:40:17Z</time>
      </trkpt>
      <trkpt lat="43.21092" lon="5.4879">
        <ele>130.8</ele>
        <time>2025-10-19T10:40:18Z</time>
      </trkpt>
      <trkpt lat="43.21091" lon="5.4879">
        <ele>130.8</ele>
        <time>2025-10-19T10:40:19Z</time>
      </trkpt>
      <trkpt lat="43.21091" lon="5.4879">
        <ele>130.8</ele>
        <time>2025-10-19T10:40:20Z</time>
      </trkpt>
      <trkpt lat="43.21091" lon="5.4879">
        <ele>130.8</ele>
        <time>2025-10-19T10:40:21Z</time>
      </trkpt>
      <trkpt lat="43.21091" lon="5.4879">
        <ele>130.8</ele>
        <time>2025-10-19T10:40:22Z</time>
      </trkpt>
      <trkpt lat="43.21091" lon="5.4879">
        <ele>130.8</ele>
        <time>2025-10-19T10:40:23Z</time>
      </trkpt>
      <trkpt lat="43.21091" lon="5.4879">
        <ele>130.8</ele>
        <time>2025-10-19T10:40:24Z</time>
      </trkpt>
      <trkpt lat="43.21091" lon="5.4879">
        <ele>130.9</ele>
        <time>2025-10-19T10:40:25Z</time>
      </trkpt>
      <trkpt lat="43.21091" lon="5.4879">
        <ele>131</ele>
        <time>2025-10-19T10:40:26Z</time>
      </trkpt>
      <trkpt lat="43.2109" lon="5.48789">
        <ele>131.1</ele>
        <time>2025-10-19T10:40:27Z</time>
      </trkpt>
      <trkpt lat="43.2109" lon="5.48789">
        <ele>131.1</ele>
        <time>2025-10-19T10:40:28Z</time>
      </trkpt>
      <trkpt lat="43.21089" lon="5.48789">
        <ele>131</ele>
        <time>2025-10-19T10:40:29Z</time>
      </trkpt>
      <trkpt lat="43.21089" lon="5.48789">
        <ele>131</ele>
        <time>2025-10-19T10:40:30Z</time>
      </trkpt>
      <trkpt lat="43.21088" lon="5.48789">
        <ele>131</ele>
        <time>2025-10-19T10:40:31Z</time>
      </trkpt>
      <trkpt lat="43.21088" lon="5.48789">
        <ele>131.1</ele>
        <time>2025-10-19T10:40:32Z</time>
      </trkpt>
      <trkpt lat="43.21088" lon="5.48789">
        <ele>131.2</ele>
        <time>2025-10-19T10:40:33Z</time>
      </trkpt>
      <trkpt lat="43.21088" lon="5.48788">
        <ele>131.1</ele>
        <time>2025-10-19T10:40:34Z</time>
      </trkpt>
      <trkpt lat="43.21087" lon="5.48788">
        <ele>131.1</ele>
        <time>2025-10-19T10:40:35Z</time>
      </trkpt>
      <trkpt lat="43.21087" lon="5.48788">
        <ele>131</ele>
        <time>2025-10-19T10:40:36Z</time>
      </trkpt>
      <trkpt lat="43.21087" lon="5.48787">
        <ele>131</ele>
        <time>2025-10-19T10:40:37Z</time>
      </trkpt>
      <trkpt lat="43.21086" lon="5.48787">
        <ele>131</ele>
        <time>2025-10-19T10:40:38Z</time>
      </trkpt>
      <trkpt lat="43.21086" lon="5.48787">
        <ele>131</ele>
        <time>2025-10-19T10:40:39Z</time>
      </trkpt>
      <trkpt lat="43.21086" lon="5.48787">
        <ele>131</ele>
        <time>2025-10-19T10:40:40Z</time>
      </trkpt>
      <trkpt lat="43.21086" lon="5.48787">
        <ele>131</ele>
        <time>2025-10-19T10:40:41Z</time>
      </trkpt>
      <trkpt lat="43.21087" lon="5.48787">
        <ele>130.9</ele>
        <time>2025-10-19T10:40:42Z</time>
      </trkpt>
      <trkpt lat="43.21087" lon="5.48787">
        <ele>131</ele>
        <time>2025-10-19T10:40:43Z</time>
      </trkpt>
      <trkpt lat="43.21087" lon="5.48787">
        <ele>131</ele>
        <time>2025-10-19T10:40:44Z</time>
      </trkpt>
      <trkpt lat="43.21087" lon="5.48787">
        <ele>131</ele>
        <time>2025-10-19T10:40:45Z</time>
      </trkpt>
      <trkpt lat="43.21086" lon="5.48786">
        <ele>131</ele>
        <time>2025-10-19T10:40:46Z</time>
      </trkpt>
      <trkpt lat="43.21086" lon="5.48785">
        <ele>131</ele>
        <time>2025-10-19T10:40:47Z</time>
      </trkpt>
      <trkpt lat="43.21085" lon="5.48784">
        <ele>130.9</ele>
        <time>2025-10-19T10:40:48Z</time>
      </trkpt>
      <trkpt lat="43.21084" lon="5.48783">
        <ele>131</ele>
        <time>2025-10-19T10:40:49Z</time>
      </trkpt>
      <trkpt lat="43.21083" lon="5.48782">
        <ele>131</ele>
        <time>2025-10-19T10:40:50Z</time>
      </trkpt>
      <trkpt lat="43.21083" lon="5.48782">
        <ele>131</ele>
        <time>2025-10-19T10:40:51Z</time>
      </trkpt>
      <trkpt lat="43.21082" lon="5.48781">
        <ele>131</ele>
        <time>2025-10-19T10:40:52Z</time>
      </trkpt>
      <trkpt lat="43.21081" lon="5.48781">
        <ele>131.1</ele>
        <time>2025-10-19T10:40:53Z</time>
      </trkpt>
      <trkpt lat="43.21081" lon="5.4878">
        <ele>131.2</ele>
        <time>2025-10-19T10:40:54Z</time>
      </trkpt>
      <trkpt lat="43.2108" lon="5.4878">
        <ele>131.2</ele>
        <time>2025-10-19T10:40:55Z</time>
      </trkpt>
      <trkpt lat="43.2108" lon="5.48779">
        <ele>131.3</ele>
        <time>2025-10-19T10:40:56Z</time>
      </trkpt>
      <trkpt lat="43.21079" lon="5.48779">
        <ele>131.3</ele>
        <time>2025-10-19T10:40:57Z</time>
      </trkpt>
      <trkpt lat="43.21078" lon="5.48778">
        <ele>131.5</ele>
        <time>2025-10-19T10:40:58Z</time>
      </trkpt>
      <trkpt lat="43.21077" lon="5.48778">
        <ele>131.6</ele>
        <time>2025-10-19T10:40:59Z</time>
      </trkpt>
      <trkpt lat="43.21076" lon="5.48777">
        <ele>131.7</ele>
        <time>2025-10-19T10:41:00Z</time>
      </trkpt>
      <trkpt lat="43.21075" lon="5.48777">
        <ele>131.8</ele>
        <time>2025-10-19T10:41:01Z</time>
      </trkpt>
      <trkpt lat="43.21073" lon="5.48777">
        <ele>131.8</ele>
        <time>2025-10-19T10:41:02Z</time>
      </trkpt>
      <trkpt lat="43.21073" lon="5.48777">
        <ele>131.9</ele>
        <time>2025-10-19T10:41:03Z</time>
      </trkpt>
      <trkpt lat="43.21072" lon="5.48777">
        <ele>131.9</ele>
        <time>2025-10-19T10:41:04Z</time>
      </trkpt>
      <trkpt lat="43.21071" lon="5.48776">
        <ele>132.1</ele>
        <time>2025-10-19T10:41:05Z</time>
      </trkpt>
      <trkpt lat="43.21071" lon="5.48775">
        <ele>132.1</ele>
        <time>2025-10-19T10:41:06Z</time>
      </trkpt>
      <trkpt lat="43.2107" lon="5.48775">
        <ele>132.1</ele>
        <time>2025-10-19T10:41:07Z</time>
      </trkpt>
      <trkpt lat="43.2107" lon="5.48775">
        <ele>132.2</ele>
        <time>2025-10-19T10:41:08Z</time>
      </trkpt>
      <trkpt lat="43.21068" lon="5.48775">
        <ele>132.4</ele>
        <time>2025-10-19T10:41:09Z</time>
      </trkpt>
      <trkpt lat="43.21068" lon="5.48775">
        <ele>132.6</ele>
        <time>2025-10-19T10:41:10Z</time>
      </trkpt>
      <trkpt lat="43.21066" lon="5.48776">
        <ele>132.8</ele>
        <time>2025-10-19T10:41:11Z</time>
      </trkpt>
      <trkpt lat="43.21065" lon="5.48775">
        <ele>132.9</ele>
        <time>2025-10-19T10:41:12Z</time>
      </trkpt>
      <trkpt lat="43.21064" lon="5.48776">
        <ele>133</ele>
        <time>2025-10-19T10:41:13Z</time>
      </trkpt>
      <trkpt lat="43.21064" lon="5.48776">
        <ele>133</ele>
        <time>2025-10-19T10:41:14Z</time>
      </trkpt>
      <trkpt lat="43.21063" lon="5.48775">
        <ele>133.2</ele>
        <time>2025-10-19T10:41:15Z</time>
      </trkpt>
      <trkpt lat="43.21061" lon="5.48774">
        <ele>133.3</ele>
        <time>2025-10-19T10:41:16Z</time>
      </trkpt>
      <trkpt lat="43.2106" lon="5.48773">
        <ele>133.4</ele>
        <time>2025-10-19T10:41:17Z</time>
      </trkpt>
      <trkpt lat="43.2106" lon="5.48773">
        <ele>133.5</ele>
        <time>2025-10-19T10:41:18Z</time>
      </trkpt>
      <trkpt lat="43.21059" lon="5.48772">
        <ele>133.6</ele>
        <time>2025-10-19T10:41:19Z</time>
      </trkpt>
      <trkpt lat="43.21058" lon="5.48771">
        <ele>133.8</ele>
        <time>2025-10-19T10:41:20Z</time>
      </trkpt>
      <trkpt lat="43.21057" lon="5.48771">
        <ele>133.9</ele>
        <time>2025-10-19T10:41:21Z</time>
      </trkpt>
      <trkpt lat="43.21056" lon="5.48771">
        <ele>134</ele>
        <time>2025-10-19T10:41:22Z</time>
      </trkpt>
      <trkpt lat="43.21055" lon="5.48771">
        <ele>134.2</ele>
        <time>2025-10-19T10:41:23Z</time>
      </trkpt>
      <trkpt lat="43.21055" lon="5.48771">
        <ele>134.3</ele>
        <time>2025-10-19T10:41:24Z</time>
      </trkpt>
      <trkpt lat="43.21054" lon="5.48771">
        <ele>134.5</ele>
        <time>2025-10-19T10:41:25Z</time>
      </trkpt>
      <trkpt lat="43.21052" lon="5.4877">
        <ele>134.7</ele>
        <time>2025-10-19T10:41:26Z</time>
      </trkpt>
      <trkpt lat="43.2105" lon="5.48769">
        <ele>134.9</ele>
        <time>2025-10-19T10:41:27Z</time>
      </trkpt>
      <trkpt lat="43.21049" lon="5.48769">
        <ele>135.1</ele>
        <time>2025-10-19T10:41:28Z</time>
      </trkpt>
      <trkpt lat="43.21048" lon="5.48769">
        <ele>135.3</ele>
        <time>2025-10-19T10:41:29Z</time>
      </trkpt>
      <trkpt lat="43.21047" lon="5.48769">
        <ele>135.4</ele>
        <time>2025-10-19T10:41:30Z</time>
      </trkpt>
      <trkpt lat="43.21047" lon="5.48769">
        <ele>135.5</ele>
        <time>2025-10-19T10:41:31Z</time>
      </trkpt>
      <trkpt lat="43.21045" lon="5.48769">
        <ele>135.7</ele>
        <time>2025-10-19T10:41:32Z</time>
      </trkpt>
      <trkpt lat="43.21044" lon="5.48769">
        <ele>135.9</ele>
        <time>2025-10-19T10:41:33Z</time>
      </trkpt>
      <trkpt lat="43.21043" lon="5.48769">
        <ele>136.1</ele>
        <time>2025-10-19T10:41:34Z</time>
      </trkpt>
      <trkpt lat="43.21043" lon="5.48769">
        <ele>136.3</ele>
        <time>2025-10-19T10:41:35Z</time>
      </trkpt>
      <trkpt lat="43.21041" lon="5.48769">
        <ele>136.4</ele>
        <time>2025-10-19T10:41:36Z</time>
      </trkpt>
      <trkpt lat="43.2104" lon="5.4877">
        <ele>136.6</ele>
        <time>2025-10-19T10:41:37Z</time>
      </trkpt>
      <trkpt lat="43.21039" lon="5.4877">
        <ele>136.8</ele>
        <time>2025-10-19T10:41:38Z</time>
      </trkpt>
      <trkpt lat="43.21038" lon="5.48771">
        <ele>137</ele>
        <time>2025-10-19T10:41:39Z</time>
      </trkpt>
      <trkpt lat="43.21036" lon="5.48772">
        <ele>137.2</ele>
        <time>2025-10-19T10:41:40Z</time>
      </trkpt>
      <trkpt lat="43.21034" lon="5.48772">
        <ele>137.4</ele>
        <time>2025-10-19T10:41:41Z</time>
      </trkpt>
      <trkpt lat="43.21033" lon="5.48772">
        <ele>137.5</ele>
        <time>2025-10-19T10:41:42Z</time>
      </trkpt>
      <trkpt lat="43.21032" lon="5.48772">
        <ele>137.7</ele>
        <time>2025-10-19T10:41:43Z</time>
      </trkpt>
      <trkpt lat="43.21031" lon="5.48773">
        <ele>137.9</ele>
        <time>2025-10-19T10:41:44Z</time>
      </trkpt>
      <trkpt lat="43.21029" lon="5.48773">
        <ele>138.1</ele>
        <time>2025-10-19T10:41:45Z</time>
      </trkpt>
      <trkpt lat="43.21028" lon="5.48773">
        <ele>138.2</ele>
        <time>2025-10-19T10:41:46Z</time>
      </trkpt>
      <trkpt lat="43.21028" lon="5.48773">
        <ele>138.4</ele>
        <time>2025-10-19T10:41:47Z</time>
      </trkpt>
      <trkpt lat="43.21027" lon="5.48774">
        <ele>138.5</ele>
        <time>2025-10-19T10:41:48Z</time>
      </trkpt>
      <trkpt lat="43.21026" lon="5.48775">
        <ele>138.8</ele>
        <time>2025-10-19T10:41:49Z</time>
      </trkpt>
      <trkpt lat="43.21025" lon="5.48775">
        <ele>139</ele>
        <time>2025-10-19T10:41:50Z</time>
      </trkpt>
      <trkpt lat="43.21025" lon="5.48776">
        <ele>139.1</ele>
        <time>2025-10-19T10:41:51Z</time>
      </trkpt>
      <trkpt lat="43.21024" lon="5.48776">
        <ele>139.4</ele>
        <time>2025-10-19T10:41:52Z</time>
      </trkpt>
      <trkpt lat="43.21022" lon="5.48777">
        <ele>139.6</ele>
        <time>2025-10-19T10:41:53Z</time>
      </trkpt>
      <trkpt lat="43.21022" lon="5.48777">
        <ele>139.8</ele>
        <time>2025-10-19T10:41:54Z</time>
      </trkpt>
      <trkpt lat="43.21021" lon="5.48777">
        <ele>140</ele>
        <time>2025-10-19T10:41:55Z</time>
      </trkpt>
      <trkpt lat="43.21019" lon="5.48777">
        <ele>140.2</ele>
        <time>2025-10-19T10:41:56Z</time>
      </trkpt>
      <trkpt lat="43.21019" lon="5.48778">
        <ele>140.3</ele>
        <time>2025-10-19T10:41:57Z</time>
      </trkpt>
      <trkpt lat="43.21019" lon="5.48778">
        <ele>140.5</ele>
        <time>2025-10-19T10:41:58Z</time>
      </trkpt>
      <trkpt lat="43.21019" lon="5.48778">
        <ele>140.7</ele>
        <time>2025-10-19T10:41:59Z</time>
      </trkpt>
      <trkpt lat="43.21018" lon="5.48778">
        <ele>140.8</ele>
        <time>2025-10-19T10:42:00Z</time>
      </trkpt>
      <trkpt lat="43.21018" lon="5.48779">
        <ele>140.9</ele>
        <time>2025-10-19T10:42:01Z</time>
      </trkpt>
      <trkpt lat="43.21017" lon="5.4878">
        <ele>141.1</ele>
        <time>2025-10-19T10:42:02Z</time>
      </trkpt>
      <trkpt lat="43.21016" lon="5.48781">
        <ele>141.2</ele>
        <time>2025-10-19T10:42:03Z</time>
      </trkpt>
      <trkpt lat="43.21015" lon="5.48782">
        <ele>141.5</ele>
        <time>2025-10-19T10:42:04Z</time>
      </trkpt>
      <trkpt lat="43.21015" lon="5.48782">
        <ele>141.6</ele>
        <time>2025-10-19T10:42:05Z</time>
      </trkpt>
      <trkpt lat="43.21014" lon="5.48783">
        <ele>141.8</ele>
        <time>2025-10-19T10:42:06Z</time>
      </trkpt>
      <trkpt lat="43.21014" lon="5.48784">
        <ele>142</ele>
        <time>2025-10-19T10:42:07Z</time>
      </trkpt>
      <trkpt lat="43.21013" lon="5.48785">
        <ele>142</ele>
        <time>2025-10-19T10:42:08Z</time>
      </trkpt>
      <trkpt lat="43.21012" lon="5.48785">
        <ele>142.1</ele>
        <time>2025-10-19T10:42:09Z</time>
      </trkpt>
      <trkpt lat="43.21012" lon="5.48785">
        <ele>142.2</ele>
        <time>2025-10-19T10:42:10Z</time>
      </trkpt>
      <trkpt lat="43.21011" lon="5.48786">
        <ele>142.3</ele>
        <time>2025-10-19T10:42:11Z</time>
      </trkpt>
      <trkpt lat="43.2101" lon="5.48787">
        <ele>142.5</ele>
        <time>2025-10-19T10:42:12Z</time>
      </trkpt>
      <trkpt lat="43.2101" lon="5.48787">
        <ele>142.6</ele>
        <time>2025-10-19T10:42:13Z</time>
      </trkpt>
      <trkpt lat="43.21009" lon="5.48788">
        <ele>142.7</ele>
        <time>2025-10-19T10:42:14Z</time>
      </trkpt>
      <trkpt lat="43.21009" lon="5.48788">
        <ele>142.8</ele>
        <time>2025-10-19T10:42:15Z</time>
      </trkpt>
      <trkpt lat="43.21008" lon="5.48789">
        <ele>142.9</ele>
        <time>2025-10-19T10:42:16Z</time>
      </trkpt>
      <trkpt lat="43.21006" lon="5.4879">
        <ele>143.1</ele>
        <time>2025-10-19T10:42:17Z</time>
      </trkpt>
      <trkpt lat="43.21005" lon="5.48791">
        <ele>143.3</ele>
        <time>2025-10-19T10:42:18Z</time>
      </trkpt>
      <trkpt lat="43.21004" lon="5.48791">
        <ele>143.5</ele>
        <time>2025-10-19T10:42:19Z</time>
      </trkpt>
      <trkpt lat="43.21004" lon="5.48792">
        <ele>143.7</ele>
        <time>2025-10-19T10:42:20Z</time>
      </trkpt>
      <trkpt lat="43.21004" lon="5.48792">
        <ele>143.8</ele>
        <time>2025-10-19T10:42:21Z</time>
      </trkpt>
      <trkpt lat="43.21003" lon="5.48793">
        <ele>144</ele>
        <time>2025-10-19T10:42:22Z</time>
      </trkpt>
      <trkpt lat="43.21003" lon="5.48795">
        <ele>144.2</ele>
        <time>2025-10-19T10:42:23Z</time>
      </trkpt>
      <trkpt lat="43.21003" lon="5.48795">
        <ele>144.4</ele>
        <time>2025-10-19T10:42:24Z</time>
      </trkpt>
      <trkpt lat="43.21002" lon="5.48796">
        <ele>144.7</ele>
        <time>2025-10-19T10:42:25Z</time>
      </trkpt>
      <trkpt lat="43.21001" lon="5.48797">
        <ele>144.9</ele>
        <time>2025-10-19T10:42:26Z</time>
      </trkpt>
      <trkpt lat="43.21001" lon="5.48798">
        <ele>145.1</ele>
        <time>2025-10-19T10:42:27Z</time>
      </trkpt>
      <trkpt lat="43.21" lon="5.48799">
        <ele>145.3</ele>
        <time>2025-10-19T10:42:28Z</time>
      </trkpt>
      <trkpt lat="43.20999" lon="5.488">
        <ele>145.6</ele>
        <time>2025-10-19T10:42:29Z</time>
      </trkpt>
      <trkpt lat="43.20999" lon="5.488">
        <ele>145.8</ele>
        <time>2025-10-19T10:42:30Z</time>
      </trkpt>
      <trkpt lat="43.20998" lon="5.48801">
        <ele>145.9</ele>
        <time>2025-10-19T10:42:31Z</time>
      </trkpt>
      <trkpt lat="43.20997" lon="5.48801">
        <ele>146.1</ele>
        <time>2025-10-19T10:42:32Z</time>
      </trkpt>
      <trkpt lat="43.20997" lon="5.48801">
        <ele>146.2</ele>
        <time>2025-10-19T10:42:33Z</time>
      </trkpt>
      <trkpt lat="43.20996" lon="5.48802">
        <ele>146.3</ele>
        <time>2025-10-19T10:42:34Z</time>
      </trkpt>
      <trkpt lat="43.20995" lon="5.48802">
        <ele>146.4</ele>
        <time>2025-10-19T10:42:35Z</time>
      </trkpt>
      <trkpt lat="43.20995" lon="5.48802">
        <ele>146.4</ele>
        <time>2025-10-19T10:42:36Z</time>
      </trkpt>
      <trkpt lat="43.20994" lon="5.48802">
        <ele>146.5</ele>
        <time>2025-10-19T10:42:37Z</time>
      </trkpt>
      <trkpt lat="43.20993" lon="5.48803">
        <ele>146.7</ele>
        <time>2025-10-19T10:42:38Z</time>
      </trkpt>
      <trkpt lat="43.20993" lon="5.48803">
        <ele>146.9</ele>
        <time>2025-10-19T10:42:39Z</time>
      </trkpt>
      <trkpt lat="43.20992" lon="5.48804">
        <ele>146.9</ele>
        <time>2025-10-19T10:42:40Z</time>
      </trkpt>
      <trkpt lat="43.20992" lon="5.48805">
        <ele>147</ele>
        <time>2025-10-19T10:42:41Z</time>
      </trkpt>
      <trkpt lat="43.20992" lon="5.48806">
        <ele>147</ele>
        <time>2025-10-19T10:42:42Z</time>
      </trkpt>
      <trkpt lat="43.20991" lon="5.48806">
        <ele>147.2</ele>
        <time>2025-10-19T10:42:43Z</time>
      </trkpt>
      <trkpt lat="43.20991" lon="5.48807">
        <ele>147.3</ele>
        <time>2025-10-19T10:42:44Z</time>
      </trkpt>
      <trkpt lat="43.2099" lon="5.48807">
        <ele>147.5</ele>
        <time>2025-10-19T10:42:45Z</time>
      </trkpt>
      <trkpt lat="43.2099" lon="5.48807">
        <ele>147.7</ele>
        <time>2025-10-19T10:42:46Z</time>
      </trkpt>
      <trkpt lat="43.20989" lon="5.48808">
        <ele>147.9</ele>
        <time>2025-10-19T10:42:47Z</time>
      </trkpt>
      <trkpt lat="43.20989" lon="5.48808">
        <ele>148.1</ele>
        <time>2025-10-19T10:42:48Z</time>
      </trkpt>
      <trkpt lat="43.20988" lon="5.48809">
        <ele>148.4</ele>
        <time>2025-10-19T10:42:49Z</time>
      </trkpt>
      <trkpt lat="43.20987" lon="5.48809">
        <ele>148.5</ele>
        <time>2025-10-19T10:42:50Z</time>
      </trkpt>
      <trkpt lat="43.20987" lon="5.4881">
        <ele>148.6</ele>
        <time>2025-10-19T10:42:51Z</time>
      </trkpt>
      <trkpt lat="43.20987" lon="5.4881">
        <ele>148.8</ele>
        <time>2025-10-19T10:42:52Z</time>
      </trkpt>
      <trkpt lat="43.20987" lon="5.4881">
        <ele>149</ele>
        <time>2025-10-19T10:42:53Z</time>
      </trkpt>
      <trkpt lat="43.20986" lon="5.4881">
        <ele>149</ele>
        <time>2025-10-19T10:42:54Z</time>
      </trkpt>
      <trkpt lat="43.20986" lon="5.48811">
        <ele>149.1</ele>
        <time>2025-10-19T10:42:55Z</time>
      </trkpt>
      <trkpt lat="43.20986" lon="5.48812">
        <ele>149.3</ele>
        <time>2025-10-19T10:42:56Z</time>
      </trkpt>
      <trkpt lat="43.20985" lon="5.48812">
        <ele>149.5</ele>
        <time>2025-10-19T10:42:57Z</time>
      </trkpt>
      <trkpt lat="43.20984" lon="5.48813">
        <ele>149.6</ele>
        <time>2025-10-19T10:42:58Z</time>
      </trkpt>
      <trkpt lat="43.20984" lon="5.48813">
        <ele>149.8</ele>
        <time>2025-10-19T10:42:59Z</time>
      </trkpt>
      <trkpt lat="43.20984" lon="5.48813">
        <ele>150</ele>
        <time>2025-10-19T10:43:00Z</time>
      </trkpt>
      <trkpt lat="43.20983" lon="5.48814">
        <ele>150.2</ele>
        <time>2025-10-19T10:43:01Z</time>
      </trkpt>
      <trkpt lat="43.20983" lon="5.48814">
        <ele>150.4</ele>
        <time>2025-10-19T10:43:02Z</time>
      </trkpt>
      <trkpt lat="43.20983" lon="5.48815">
        <ele>150.6</ele>
        <time>2025-10-19T10:43:03Z</time>
      </trkpt>
      <trkpt lat="43.20982" lon="5.48815">
        <ele>150.8</ele>
        <time>2025-10-19T10:43:04Z</time>
      </trkpt>
      <trkpt lat="43.20982" lon="5.48816">
        <ele>151.1</ele>
        <time>2025-10-19T10:43:05Z</time>
      </trkpt>
      <trkpt lat="43.20982" lon="5.48816">
        <ele>151.4</ele>
        <time>2025-10-19T10:43:06Z</time>
      </trkpt>
      <trkpt lat="43.20981" lon="5.48816">
        <ele>151.6</ele>
        <time>2025-10-19T10:43:07Z</time>
      </trkpt>
      <trkpt lat="43.20982" lon="5.48817">
        <ele>151.7</ele>
        <time>2025-10-19T10:43:08Z</time>
      </trkpt>
      <trkpt lat="43.20981" lon="5.48818">
        <ele>151.8</ele>
        <time>2025-10-19T10:43:09Z</time>
      </trkpt>
      <trkpt lat="43.20981" lon="5.48818">
        <ele>152</ele>
        <time>2025-10-19T10:43:10Z</time>
      </trkpt>
      <trkpt lat="43.2098" lon="5.48819">
        <ele>152.1</ele>
        <time>2025-10-19T10:43:11Z</time>
      </trkpt>
      <trkpt lat="43.2098" lon="5.4882">
        <ele>152.2</ele>
        <time>2025-10-19T10:43:12Z</time>
      </trkpt>
      <trkpt lat="43.20979" lon="5.48821">
        <ele>152.3</ele>
        <time>2025-10-19T10:43:13Z</time>
      </trkpt>
      <trkpt lat="43.20979" lon="5.48821">
        <ele>152.4</ele>
        <time>2025-10-19T10:43:14Z</time>
      </trkpt>
      <trkpt lat="43.20978" lon="5.48821">
        <ele>152.5</ele>
        <time>2025-10-19T10:43:15Z</time>
      </trkpt>
      <trkpt lat="43.20977" lon="5.48822">
        <ele>152.7</ele>
        <time>2025-10-19T10:43:16Z</time>
      </trkpt>
      <trkpt lat="43.20977" lon="5.48823">
        <ele>152.9</ele>
        <time>2025-10-19T10:43:17Z</time>
      </trkpt>
      <trkpt lat="43.20976" lon="5.48823">
        <ele>153.1</ele>
        <time>2025-10-19T10:43:18Z</time>
      </trkpt>
      <trkpt lat="43.20975" lon="5.48823">
        <ele>153.3</ele>
        <time>2025-10-19T10:43:19Z</time>
      </trkpt>
      <trkpt lat="43.20975" lon="5.48823">
        <ele>153.4</ele>
        <time>2025-10-19T10:43:20Z</time>
      </trkpt>
      <trkpt lat="43.20974" lon="5.48824">
        <ele>153.5</ele>
        <time>2025-10-19T10:43:21Z</time>
      </trkpt>
      <trkpt lat="43.20973" lon="5.48824">
        <ele>153.7</ele>
        <time>2025-10-19T10:43:22Z</time>
      </trkpt>
      <trkpt lat="43.20973" lon="5.48825">
        <ele>153.8</ele>
        <time>2025-10-19T10:43:23Z</time>
      </trkpt>
      <trkpt lat="43.20973" lon="5.48826">
        <ele>153.9</ele>
        <time>2025-10-19T10:43:24Z</time>
      </trkpt>
      <trkpt lat="43.20973" lon="5.48826">
        <ele>154.1</ele>
        <time>2025-10-19T10:43:25Z</time>
      </trkpt>
      <trkpt lat="43.20973" lon="5.48826">
        <ele>154.1</ele>
        <time>2025-10-19T10:43:26Z</time>
      </trkpt>
      <trkpt lat="43.20972" lon="5.48826">
        <ele>154.2</ele>
        <time>2025-10-19T10:43:27Z</time>
      </trkpt>
      <trkpt lat="43.20972" lon="5.48827">
        <ele>154.4</ele>
        <time>2025-10-19T10:43:28Z</time>
      </trkpt>
      <trkpt lat="43.20972" lon="5.48827">
        <ele>154.5</ele>
        <time>2025-10-19T10:43:29Z</time>
      </trkpt>
      <trkpt lat="43.20971" lon="5.48827">
        <ele>154.5</ele>
        <time>2025-10-19T10:43:30Z</time>
      </trkpt>
      <trkpt lat="43.20971" lon="5.48827">
        <ele>154.6</ele>
        <time>2025-10-19T10:43:31Z</time>
      </trkpt>
      <trkpt lat="43.2097" lon="5.48828">
        <ele>154.7</ele>
        <time>2025-10-19T10:43:32Z</time>
      </trkpt>
      <trkpt lat="43.2097" lon="5.48828">
        <ele>154.8</ele>
        <time>2025-10-19T10:43:33Z</time>
      </trkpt>
      <trkpt lat="43.20969" lon="5.48829">
        <ele>155</ele>
        <time>2025-10-19T10:43:34Z</time>
      </trkpt>
      <trkpt lat="43.2097" lon="5.48829">
        <ele>155.2</ele>
        <time>2025-10-19T10:43:35Z</time>
      </trkpt>
      <trkpt lat="43.20969" lon="5.4883">
        <ele>155.4</ele>
        <time>2025-10-19T10:43:36Z</time>
      </trkpt>
      <trkpt lat="43.20968" lon="5.4883">
        <ele>155.5</ele>
        <time>2025-10-19T10:43:37Z</time>
      </trkpt>
      <trkpt lat="43.20967" lon="5.48831">
        <ele>155.7</ele>
        <time>2025-10-19T10:43:38Z</time>
      </trkpt>
      <trkpt lat="43.20967" lon="5.48831">
        <ele>155.8</ele>
        <time>2025-10-19T10:43:39Z</time>
      </trkpt>
      <trkpt lat="43.20966" lon="5.48832">
        <ele>156</ele>
        <time>2025-10-19T10:43:40Z</time>
      </trkpt>
      <trkpt lat="43.20965" lon="5.48833">
        <ele>156.1</ele>
        <time>2025-10-19T10:43:41Z</time>
      </trkpt>
      <trkpt lat="43.20965" lon="5.48834">
        <ele>156.3</ele>
        <time>2025-10-19T10:43:42Z</time>
      </trkpt>
      <trkpt lat="43.20964" lon="5.48834">
        <ele>156.4</ele>
        <time>2025-10-19T10:43:43Z</time>
      </trkpt>
      <trkpt lat="43.20964" lon="5.48834">
        <ele>156.7</ele>
        <time>2025-10-19T10:43:44Z</time>
      </trkpt>
      <trkpt lat="43.20964" lon="5.48835">
        <ele>156.8</ele>
        <time>2025-10-19T10:43:45Z</time>
      </trkpt>
      <trkpt lat="43.20962" lon="5.48836">
        <ele>156.9</ele>
        <time>2025-10-19T10:43:46Z</time>
      </trkpt>
      <trkpt lat="43.20962" lon="5.48836">
        <ele>157.1</ele>
        <time>2025-10-19T10:43:47Z</time>
      </trkpt>
      <trkpt lat="43.20961" lon="5.48837">
        <ele>157.3</ele>
        <time>2025-10-19T10:43:48Z</time>
      </trkpt>
      <trkpt lat="43.20961" lon="5.48837">
        <ele>157.5</ele>
        <time>2025-10-19T10:43:49Z</time>
      </trkpt>
      <trkpt lat="43.2096" lon="5.48838">
        <ele>157.7</ele>
        <time>2025-10-19T10:43:50Z</time>
      </trkpt>
      <trkpt lat="43.20959" lon="5.48838">
        <ele>157.9</ele>
        <time>2025-10-19T10:43:51Z</time>
      </trkpt>
      <trkpt lat="43.20958" lon="5.48838">
        <ele>158</ele>
        <time>2025-10-19T10:43:52Z</time>
      </trkpt>
      <trkpt lat="43.20958" lon="5.48839">
        <ele>158.1</ele>
        <time>2025-10-19T10:43:53Z</time>
      </trkpt>
      <trkpt lat="43.20957" lon="5.48839">
        <ele>158.2</ele>
        <time>2025-10-19T10:43:54Z</time>
      </trkpt>
      <trkpt lat="43.20956" lon="5.4884">
        <ele>158.4</ele>
        <time>2025-10-19T10:43:55Z</time>
      </trkpt>
      <trkpt lat="43.20956" lon="5.4884">
        <ele>158.5</ele>
        <time>2025-10-19T10:43:56Z</time>
      </trkpt>
      <trkpt lat="43.20956" lon="5.48841">
        <ele>158.6</ele>
        <time>2025-10-19T10:43:57Z</time>
      </trkpt>
      <trkpt lat="43.20955" lon="5.48841">
        <ele>158.8</ele>
        <time>2025-10-19T10:43:58Z</time>
      </trkpt>
      <trkpt lat="43.20954" lon="5.48841">
        <ele>158.8</ele>
        <time>2025-10-19T10:43:59Z</time>
      </trkpt>
      <trkpt lat="43.20954" lon="5.48841">
        <ele>159</ele>
        <time>2025-10-19T10:44:00Z</time>
      </trkpt>
      <trkpt lat="43.20954" lon="5.48842">
        <ele>159.2</ele>
        <time>2025-10-19T10:44:01Z</time>
      </trkpt>
      <trkpt lat="43.20953" lon="5.48842">
        <ele>159.4</ele>
        <time>2025-10-19T10:44:02Z</time>
      </trkpt>
      <trkpt lat="43.20953" lon="5.48843">
        <ele>159.5</ele>
        <time>2025-10-19T10:44:03Z</time>
      </trkpt>
      <trkpt lat="43.20952" lon="5.48843">
        <ele>159.8</ele>
        <time>2025-10-19T10:44:04Z</time>
      </trkpt>
      <trkpt lat="43.20952" lon="5.48844">
        <ele>160</ele>
        <time>2025-10-19T10:44:05Z</time>
      </trkpt>
      <trkpt lat="43.20952" lon="5.48844">
        <ele>160.3</ele>
        <time>2025-10-19T10:44:06Z</time>
      </trkpt>
      <trkpt lat="43.20951" lon="5.48845">
        <ele>160.4</ele>
        <time>2025-10-19T10:44:07Z</time>
      </trkpt>
      <trkpt lat="43.20951" lon="5.48846">
        <ele>160.6</ele>
        <time>2025-10-19T10:44:08Z</time>
      </trkpt>
      <trkpt lat="43.2095" lon="5.48846">
        <ele>160.8</ele>
        <time>2025-10-19T10:44:09Z</time>
      </trkpt>
      <trkpt lat="43.2095" lon="5.48847">
        <ele>161</ele>
        <time>2025-10-19T10:44:10Z</time>
      </trkpt>
      <trkpt lat="43.2095" lon="5.48848">
        <ele>161.2</ele>
        <time>2025-10-19T10:44:11Z</time>
      </trkpt>
      <trkpt lat="43.20949" lon="5.48849">
        <ele>161.3</ele>
        <time>2025-10-19T10:44:12Z</time>
      </trkpt>
      <trkpt lat="43.20949" lon="5.48849">
        <ele>161.4</ele>
        <time>2025-10-19T10:44:13Z</time>
      </trkpt>
      <trkpt lat="43.20949" lon="5.4885">
        <ele>161.5</ele>
        <time>2025-10-19T10:44:14Z</time>
      </trkpt>
      <trkpt lat="43.20948" lon="5.4885">
        <ele>161.7</ele>
        <time>2025-10-19T10:44:15Z</time>
      </trkpt>
      <trkpt lat="43.20947" lon="5.48851">
        <ele>161.8</ele>
        <time>2025-10-19T10:44:16Z</time>
      </trkpt>
      <trkpt lat="43.20947" lon="5.48851">
        <ele>162</ele>
        <time>2025-10-19T10:44:17Z</time>
      </trkpt>
      <trkpt lat="43.20946" lon="5.48851">
        <ele>162.1</ele>
        <time>2025-10-19T10:44:18Z</time>
      </trkpt>
      <trkpt lat="43.20945" lon="5.48851">
        <ele>162.2</ele>
        <time>2025-10-19T10:44:19Z</time>
      </trkpt>
      <trkpt lat="43.20945" lon="5.48852">
        <ele>162.3</ele>
        <time>2025-10-19T10:44:20Z</time>
      </trkpt>
      <trkpt lat="43.20944" lon="5.48852">
        <ele>162.5</ele>
        <time>2025-10-19T10:44:21Z</time>
      </trkpt>
      <trkpt lat="43.20943" lon="5.48852">
        <ele>162.6</ele>
        <time>2025-10-19T10:44:22Z</time>
      </trkpt>
      <trkpt lat="43.20943" lon="5.48853">
        <ele>162.7</ele>
        <time>2025-10-19T10:44:23Z</time>
      </trkpt>
      <trkpt lat="43.20942" lon="5.48853">
        <ele>162.8</ele>
        <time>2025-10-19T10:44:24Z</time>
      </trkpt>
      <trkpt lat="43.20942" lon="5.48854">
        <ele>162.8</ele>
        <time>2025-10-19T10:44:25Z</time>
      </trkpt>
      <trkpt lat="43.20942" lon="5.48854">
        <ele>162.8</ele>
        <time>2025-10-19T10:44:26Z</time>
      </trkpt>
      <trkpt lat="43.20942" lon="5.48854">
        <ele>162.9</ele>
        <time>2025-10-19T10:44:27Z</time>
      </trkpt>
      <trkpt lat="43.20942" lon="5.48853">
        <ele>162.9</ele>
        <time>2025-10-19T10:44:28Z</time>
      </trkpt>
      <trkpt lat="43.20942" lon="5.48853">
        <ele>163.1</ele>
        <time>2025-10-19T10:44:29Z</time>
      </trkpt>
      <trkpt lat="43.20942" lon="5.48852">
        <ele>163.2</ele>
        <time>2025-10-19T10:44:30Z</time>
      </trkpt>
      <trkpt lat="43.20942" lon="5.48851">
        <ele>163.2</ele>
        <time>2025-10-19T10:44:31Z</time>
      </trkpt>
      <trkpt lat="43.20943" lon="5.48851">
        <ele>163.3</ele>
        <time>2025-10-19T10:44:32Z</time>
      </trkpt>
      <trkpt lat="43.20943" lon="5.48851">
        <ele>163.4</ele>
        <time>2025-10-19T10:44:33Z</time>
      </trkpt>
      <trkpt lat="43.20943" lon="5.4885">
        <ele>163.5</ele>
        <time>2025-10-19T10:44:34Z</time>
      </trkpt>
      <trkpt lat="43.20943" lon="5.4885">
        <ele>163.6</ele>
        <time>2025-10-19T10:44:35Z</time>
      </trkpt>
      <trkpt lat="43.20944" lon="5.48849">
        <ele>163.8</ele>
        <time>2025-10-19T10:44:36Z</time>
      </trkpt>
      <trkpt lat="43.20944" lon="5.48849">
        <ele>164</ele>
        <time>2025-10-19T10:44:37Z</time>
      </trkpt>
      <trkpt lat="43.20945" lon="5.48849">
        <ele>164.1</ele>
        <time>2025-10-19T10:44:38Z</time>
      </trkpt>
      <trkpt lat="43.20945" lon="5.48849">
        <ele>164.3</ele>
        <time>2025-10-19T10:44:39Z</time>
      </trkpt>
      <trkpt lat="43.20946" lon="5.48848">
        <ele>164.4</ele>
        <time>2025-10-19T10:44:40Z</time>
      </trkpt>
      <trkpt lat="43.20947" lon="5.48848">
        <ele>164.6</ele>
        <time>2025-10-19T10:44:41Z</time>
      </trkpt>
      <trkpt lat="43.20947" lon="5.48848">
        <ele>164.8</ele>
        <time>2025-10-19T10:44:42Z</time>
      </trkpt>
      <trkpt lat="43.20947" lon="5.48848">
        <ele>165</ele>
        <time>2025-10-19T10:44:43Z</time>
      </trkpt>
      <trkpt lat="43.20947" lon="5.48848">
        <ele>165.1</ele>
        <time>2025-10-19T10:44:44Z</time>
      </trkpt>
      <trkpt lat="43.20947" lon="5.48848">
        <ele>165.3</ele>
        <time>2025-10-19T10:44:45Z</time>
      </trkpt>
      <trkpt lat="43.20947" lon="5.48848">
        <ele>165.5</ele>
        <time>2025-10-19T10:44:46Z</time>
      </trkpt>
      <trkpt lat="43.20946" lon="5.48847">
        <ele>165.6</ele>
        <time>2025-10-19T10:44:47Z</time>
      </trkpt>
      <trkpt lat="43.20946" lon="5.48845">
        <ele>165.8</ele>
        <time>2025-10-19T10:44:48Z</time>
      </trkpt>
      <trkpt lat="43.20946" lon="5.48844">
        <ele>165.9</ele>
        <time>2025-10-19T10:44:49Z</time>
      </trkpt>
      <trkpt lat="43.20946" lon="5.48843">
        <ele>166.1</ele>
        <time>2025-10-19T10:44:50Z</time>
      </trkpt>
      <trkpt lat="43.20946" lon="5.48842">
        <ele>166.4</ele>
        <time>2025-10-19T10:44:51Z</time>
      </trkpt>
      <trkpt lat="43.20946" lon="5.48842">
        <ele>166.4</ele>
        <time>2025-10-19T10:44:52Z</time>
      </trkpt>
      <trkpt lat="43.20946" lon="5.48841">
        <ele>166.6</ele>
        <time>2025-10-19T10:44:53Z</time>
      </trkpt>
      <trkpt lat="43.20946" lon="5.4884">
        <ele>166.8</ele>
        <time>2025-10-19T10:44:54Z</time>
      </trkpt>
      <trkpt lat="43.20947" lon="5.4884">
        <ele>167.1</ele>
        <time>2025-10-19T10:44:55Z</time>
      </trkpt>
      <trkpt lat="43.20948" lon="5.48839">
        <ele>167.3</ele>
        <time>2025-10-19T10:44:56Z</time>
      </trkpt>
      <trkpt lat="43.20949" lon="5.48839">
        <ele>167.5</ele>
        <time>2025-10-19T10:44:57Z</time>
      </trkpt>
      <trkpt lat="43.20949" lon="5.48838">
        <ele>167.7</ele>
        <time>2025-10-19T10:44:58Z</time>
      </trkpt>
      <trkpt lat="43.2095" lon="5.48837">
        <ele>167.9</ele>
        <time>2025-10-19T10:44:59Z</time>
      </trkpt>
      <trkpt lat="43.2095" lon="5.48836">
        <ele>168.1</ele>
        <time>2025-10-19T10:45:00Z</time>
      </trkpt>
      <trkpt lat="43.2095" lon="5.48835">
        <ele>168.3</ele>
        <time>2025-10-19T10:45:01Z</time>
      </trkpt>
      <trkpt lat="43.2095" lon="5.48834">
        <ele>168.5</ele>
        <time>2025-10-19T10:45:02Z</time>
      </trkpt>
      <trkpt lat="43.2095" lon="5.48834">
        <ele>168.6</ele>
        <time>2025-10-19T10:45:03Z</time>
      </trkpt>
      <trkpt lat="43.2095" lon="5.48833">
        <ele>168.9</ele>
        <time>2025-10-19T10:45:04Z</time>
      </trkpt>
      <trkpt lat="43.20951" lon="5.48832">
        <ele>169.1</ele>
        <time>2025-10-19T10:45:05Z</time>
      </trkpt>
      <trkpt lat="43.20951" lon="5.48831">
        <ele>169.2</ele>
        <time>2025-10-19T10:45:06Z</time>
      </trkpt>
      <trkpt lat="43.20951" lon="5.4883">
        <ele>169.3</ele>
        <time>2025-10-19T10:45:07Z</time>
      </trkpt>
      <trkpt lat="43.20951" lon="5.48829">
        <ele>169.5</ele>
        <time>2025-10-19T10:45:08Z</time>
      </trkpt>
      <trkpt lat="43.20951" lon="5.48828">
        <ele>169.6</ele>
        <time>2025-10-19T10:45:09Z</time>
      </trkpt>
      <trkpt lat="43.20951" lon="5.48827">
        <ele>169.7</ele>
        <time>2025-10-19T10:45:10Z</time>
      </trkpt>
      <trkpt lat="43.20951" lon="5.48826">
        <ele>169.9</ele>
        <time>2025-10-19T10:45:11Z</time>
      </trkpt>
      <trkpt lat="43.20951" lon="5.48825">
        <ele>170.1</ele>
        <time>2025-10-19T10:45:12Z</time>
      </trkpt>
      <trkpt lat="43.20951" lon="5.48825">
        <ele>170.3</ele>
        <time>2025-10-19T10:45:13Z</time>
      </trkpt>
      <trkpt lat="43.20951" lon="5.48824">
        <ele>170.5</ele>
        <time>2025-10-19T10:45:14Z</time>
      </trkpt>
      <trkpt lat="43.20951" lon="5.48823">
        <ele>170.7</ele>
        <time>2025-10-19T10:45:15Z</time>
      </trkpt>
      <trkpt lat="43.20951" lon="5.48822">
        <ele>170.9</ele>
        <time>2025-10-19T10:45:16Z</time>
      </trkpt>
      <trkpt lat="43.20952" lon="5.48822">
        <ele>171</ele>
        <time>2025-10-19T10:45:17Z</time>
      </trkpt>
      <trkpt lat="43.20952" lon="5.48821">
        <ele>171.1</ele>
        <time>2025-10-19T10:45:18Z</time>
      </trkpt>
      <trkpt lat="43.20952" lon="5.4882">
        <ele>171.3</ele>
        <time>2025-10-19T10:45:19Z</time>
      </trkpt>
      <trkpt lat="43.20952" lon="5.4882">
        <ele>171.5</ele>
        <time>2025-10-19T10:45:20Z</time>
      </trkpt>
      <trkpt lat="43.20952" lon="5.48819">
        <ele>171.7</ele>
        <time>2025-10-19T10:45:21Z</time>
      </trkpt>
      <trkpt lat="43.20953" lon="5.48819">
        <ele>171.9</ele>
        <time>2025-10-19T10:45:22Z</time>
      </trkpt>
      <trkpt lat="43.20953" lon="5.48818">
        <ele>172</ele>
        <time>2025-10-19T10:45:23Z</time>
      </trkpt>
      <trkpt lat="43.20953" lon="5.48818">
        <ele>172.1</ele>
        <time>2025-10-19T10:45:24Z</time>
      </trkpt>
      <trkpt lat="43.20952" lon="5.48817">
        <ele>172.2</ele>
        <time>2025-10-19T10:45:25Z</time>
      </trkpt>
      <trkpt lat="43.20952" lon="5.48816">
        <ele>172.3</ele>
        <time>2025-10-19T10:45:26Z</time>
      </trkpt>
      <trkpt lat="43.20952" lon="5.48815">
        <ele>172.4</ele>
        <time>2025-10-19T10:45:27Z</time>
      </trkpt>
      <trkpt lat="43.20951" lon="5.48814">
        <ele>172.5</ele>
        <time>2025-10-19T10:45:28Z</time>
      </trkpt>
      <trkpt lat="43.20951" lon="5.48813">
        <ele>172.6</ele>
        <time>2025-10-19T10:45:29Z</time>
      </trkpt>
      <trkpt lat="43.20951" lon="5.48812">
        <ele>172.7</ele>
        <time>2025-10-19T10:45:30Z</time>
      </trkpt>
      <trkpt lat="43.20951" lon="5.48811">
        <ele>172.8</ele>
        <time>2025-10-19T10:45:31Z</time>
      </trkpt>
      <trkpt lat="43.20951" lon="5.4881">
        <ele>172.9</ele>
        <time>2025-10-19T10:45:32Z</time>
      </trkpt>
      <trkpt lat="43.20951" lon="5.48809">
        <ele>173.1</ele>
        <time>2025-10-19T10:45:33Z</time>
      </trkpt>
      <trkpt lat="43.20951" lon="5.48809">
        <ele>173.3</ele>
        <time>2025-10-19T10:45:34Z</time>
      </trkpt>
      <trkpt lat="43.20951" lon="5.48808">
        <ele>173.4</ele>
        <time>2025-10-19T10:45:35Z</time>
      </trkpt>
      <trkpt lat="43.20951" lon="5.48807">
        <ele>173.5</ele>
        <time>2025-10-19T10:45:36Z</time>
      </trkpt>
      <trkpt lat="43.20951" lon="5.48807">
        <ele>173.5</ele>
        <time>2025-10-19T10:45:37Z</time>
      </trkpt>
      <trkpt lat="43.20951" lon="5.48806">
        <ele>173.6</ele>
        <time>2025-10-19T10:45:38Z</time>
      </trkpt>
      <trkpt lat="43.2095" lon="5.48805">
        <ele>173.8</ele>
        <time>2025-10-19T10:45:39Z</time>
      </trkpt>
      <trkpt lat="43.2095" lon="5.48804">
        <ele>174</ele>
        <time>2025-10-19T10:45:40Z</time>
      </trkpt>
      <trkpt lat="43.2095" lon="5.48803">
        <ele>174.2</ele>
        <time>2025-10-19T10:45:41Z</time>
      </trkpt>
      <trkpt lat="43.2095" lon="5.48803">
        <ele>174.4</ele>
        <time>2025-10-19T10:45:42Z</time>
      </trkpt>
      <trkpt lat="43.2095" lon="5.48802">
        <ele>174.5</ele>
        <time>2025-10-19T10:45:43Z</time>
      </trkpt>
      <trkpt lat="43.20951" lon="5.48802">
        <ele>174.6</ele>
        <time>2025-10-19T10:45:44Z</time>
      </trkpt>
      <trkpt lat="43.20951" lon="5.48801">
        <ele>174.6</ele>
        <time>2025-10-19T10:45:45Z</time>
      </trkpt>
      <trkpt lat="43.20951" lon="5.48801">
        <ele>174.8</ele>
        <time>2025-10-19T10:45:46Z</time>
      </trkpt>
      <trkpt lat="43.20951" lon="5.488">
        <ele>175</ele>
        <time>2025-10-19T10:45:47Z</time>
      </trkpt>
      <trkpt lat="43.20952" lon="5.48799">
        <ele>175.1</ele>
        <time>2025-10-19T10:45:48Z</time>
      </trkpt>
      <trkpt lat="43.20952" lon="5.48799">
        <ele>175.2</ele>
        <time>2025-10-19T10:45:49Z</time>
      </trkpt>
      <trkpt lat="43.20952" lon="5.48798">
        <ele>175.4</ele>
        <time>2025-10-19T10:45:50Z</time>
      </trkpt>
      <trkpt lat="43.20952" lon="5.48798">
        <ele>175.6</ele>
        <time>2025-10-19T10:45:51Z</time>
      </trkpt>
      <trkpt lat="43.20952" lon="5.48797">
        <ele>175.8</ele>
        <time>2025-10-19T10:45:52Z</time>
      </trkpt>
      <trkpt lat="43.20952" lon="5.48796">
        <ele>176.1</ele>
        <time>2025-10-19T10:45:53Z</time>
      </trkpt>
      <trkpt lat="43.20952" lon="5.48795">
        <ele>176.3</ele>
        <time>2025-10-19T10:45:54Z</time>
      </trkpt>
      <trkpt lat="43.20953" lon="5.48794">
        <ele>176.5</ele>
        <time>2025-10-19T10:45:55Z</time>
      </trkpt>
      <trkpt lat="43.20953" lon="5.48794">
        <ele>176.6</ele>
        <time>2025-10-19T10:45:56Z</time>
      </trkpt>
      <trkpt lat="43.20953" lon="5.48793">
        <ele>176.8</ele>
        <time>2025-10-19T10:45:57Z</time>
      </trkpt>
      <trkpt lat="43.20953" lon="5.48792">
        <ele>176.8</ele>
        <time>2025-10-19T10:45:58Z</time>
      </trkpt>
      <trkpt lat="43.20953" lon="5.48791">
        <ele>177</ele>
        <time>2025-10-19T10:45:59Z</time>
      </trkpt>
      <trkpt lat="43.20952" lon="5.4879">
        <ele>177</ele>
        <time>2025-10-19T10:46:00Z</time>
      </trkpt>
      <trkpt lat="43.20952" lon="5.48789">
        <ele>177.2</ele>
        <time>2025-10-19T10:46:01Z</time>
      </trkpt>
      <trkpt lat="43.20952" lon="5.48788">
        <ele>177.3</ele>
        <time>2025-10-19T10:46:02Z</time>
      </trkpt>
      <trkpt lat="43.20953" lon="5.48787">
        <ele>177.4</ele>
        <time>2025-10-19T10:46:03Z</time>
      </trkpt>
      <trkpt lat="43.20953" lon="5.48786">
        <ele>177.5</ele>
        <time>2025-10-19T10:46:04Z</time>
      </trkpt>
      <trkpt lat="43.20953" lon="5.48786">
        <ele>177.7</ele>
        <time>2025-10-19T10:46:05Z</time>
      </trkpt>
      <trkpt lat="43.20953" lon="5.48785">
        <ele>177.8</ele>
        <time>2025-10-19T10:46:06Z</time>
      </trkpt>
      <trkpt lat="43.20953" lon="5.48784">
        <ele>178</ele>
        <time>2025-10-19T10:46:07Z</time>
      </trkpt>
      <trkpt lat="43.20953" lon="5.48784">
        <ele>178.1</ele>
        <time>2025-10-19T10:46:08Z</time>
      </trkpt>
      <trkpt lat="43.20953" lon="5.48783">
        <ele>178.2</ele>
        <time>2025-10-19T10:46:09Z</time>
      </trkpt>
      <trkpt lat="43.20953" lon="5.48782">
        <ele>178.3</ele>
        <time>2025-10-19T10:46:10Z</time>
      </trkpt>
      <trkpt lat="43.20953" lon="5.48781">
        <ele>178.4</ele>
        <time>2025-10-19T10:46:11Z</time>
      </trkpt>
      <trkpt lat="43.20953" lon="5.48781">
        <ele>178.6</ele>
        <time>2025-10-19T10:46:12Z</time>
      </trkpt>
      <trkpt lat="43.20953" lon="5.4878">
        <ele>178.7</ele>
        <time>2025-10-19T10:46:13Z</time>
      </trkpt>
      <trkpt lat="43.20953" lon="5.4878">
        <ele>178.9</ele>
        <time>2025-10-19T10:46:14Z</time>
      </trkpt>
      <trkpt lat="43.20952" lon="5.48779">
        <ele>179</ele>
        <time>2025-10-19T10:46:15Z</time>
      </trkpt>
      <trkpt lat="43.20953" lon="5.48778">
        <ele>179.1</ele>
        <time>2025-10-19T10:46:16Z</time>
      </trkpt>
      <trkpt lat="43.20953" lon="5.48777">
        <ele>179.3</ele>
        <time>2025-10-19T10:46:17Z</time>
      </trkpt>
      <trkpt lat="43.20953" lon="5.48776">
        <ele>179.5</ele>
        <time>2025-10-19T10:46:18Z</time>
      </trkpt>
      <trkpt lat="43.20953" lon="5.48775">
        <ele>179.7</ele>
        <time>2025-10-19T10:46:19Z</time>
      </trkpt>
      <trkpt lat="43.20954" lon="5.48774">
        <ele>179.8</ele>
        <time>2025-10-19T10:46:20Z</time>
      </trkpt>
      <trkpt lat="43.20953" lon="5.48774">
        <ele>179.9</ele>
        <time>2025-10-19T10:46:21Z</time>
      </trkpt>
      <trkpt lat="43.20954" lon="5.48773">
        <ele>180.1</ele>
        <time>2025-10-19T10:46:22Z</time>
      </trkpt>
      <trkpt lat="43.20954" lon="5.48772">
        <ele>180.3</ele>
        <time>2025-10-19T10:46:23Z</time>
      </trkpt>
      <trkpt lat="43.20955" lon="5.48771">
        <ele>180.5</ele>
        <time>2025-10-19T10:46:24Z</time>
      </trkpt>
      <trkpt lat="43.20955" lon="5.48771">
        <ele>180.6</ele>
        <time>2025-10-19T10:46:25Z</time>
      </trkpt>
      <trkpt lat="43.20956" lon="5.4877">
        <ele>180.7</ele>
        <time>2025-10-19T10:46:26Z</time>
      </trkpt>
      <trkpt lat="43.20956" lon="5.48769">
        <ele>181</ele>
        <time>2025-10-19T10:46:27Z</time>
      </trkpt>
      <trkpt lat="43.20956" lon="5.48769">
        <ele>181.2</ele>
        <time>2025-10-19T10:46:28Z</time>
      </trkpt>
      <trkpt lat="43.20956" lon="5.48768">
        <ele>181.4</ele>
        <time>2025-10-19T10:46:29Z</time>
      </trkpt>
      <trkpt lat="43.20957" lon="5.48767">
        <ele>181.5</ele>
        <time>2025-10-19T10:46:30Z</time>
      </trkpt>
      <trkpt lat="43.20957" lon="5.48766">
        <ele>181.7</ele>
        <time>2025-10-19T10:46:31Z</time>
      </trkpt>
      <trkpt lat="43.20957" lon="5.48765">
        <ele>181.9</ele>
        <time>2025-10-19T10:46:32Z</time>
      </trkpt>
      <trkpt lat="43.20957" lon="5.48764">
        <ele>182</ele>
        <time>2025-10-19T10:46:33Z</time>
      </trkpt>
      <trkpt lat="43.20958" lon="5.48763">
        <ele>182.1</ele>
        <time>2025-10-19T10:46:34Z</time>
      </trkpt>
      <trkpt lat="43.20958" lon="5.48762">
        <ele>182.2</ele>
        <time>2025-10-19T10:46:35Z</time>
      </trkpt>
      <trkpt lat="43.20958" lon="5.48761">
        <ele>182.3</ele>
        <time>2025-10-19T10:46:36Z</time>
      </trkpt>
      <trkpt lat="43.20959" lon="5.4876">
        <ele>182.4</ele>
        <time>2025-10-19T10:46:37Z</time>
      </trkpt>
      <trkpt lat="43.20959" lon="5.4876">
        <ele>182.5</ele>
        <time>2025-10-19T10:46:38Z</time>
      </trkpt>
      <trkpt lat="43.20959" lon="5.48759">
        <ele>182.6</ele>
        <time>2025-10-19T10:46:39Z</time>
      </trkpt>
      <trkpt lat="43.20959" lon="5.48758">
        <ele>182.7</ele>
        <time>2025-10-19T10:46:40Z</time>
      </trkpt>
      <trkpt lat="43.20959" lon="5.48758">
        <ele>182.8</ele>
        <time>2025-10-19T10:46:41Z</time>
      </trkpt>
      <trkpt lat="43.20959" lon="5.48757">
        <ele>183</ele>
        <time>2025-10-19T10:46:42Z</time>
      </trkpt>
      <trkpt lat="43.20959" lon="5.48756">
        <ele>183.1</ele>
        <time>2025-10-19T10:46:43Z</time>
      </trkpt>
      <trkpt lat="43.20959" lon="5.48756">
        <ele>183.1</ele>
        <time>2025-10-19T10:46:44Z</time>
      </trkpt>
      <trkpt lat="43.2096" lon="5.48756">
        <ele>183.2</ele>
        <time>2025-10-19T10:46:45Z</time>
      </trkpt>
      <trkpt lat="43.20959" lon="5.48755">
        <ele>183.3</ele>
        <time>2025-10-19T10:46:46Z</time>
      </trkpt>
      <trkpt lat="43.2096" lon="5.48755">
        <ele>183.5</ele>
        <time>2025-10-19T10:46:47Z</time>
      </trkpt>
      <trkpt lat="43.2096" lon="5.48754">
        <ele>183.6</ele>
        <time>2025-10-19T10:46:48Z</time>
      </trkpt>
      <trkpt lat="43.2096" lon="5.48753">
        <ele>183.8</ele>
        <time>2025-10-19T10:46:49Z</time>
      </trkpt>
      <trkpt lat="43.2096" lon="5.48753">
        <ele>184</ele>
        <time>2025-10-19T10:46:50Z</time>
      </trkpt>
      <trkpt lat="43.2096" lon="5.48752">
        <ele>184.1</ele>
        <time>2025-10-19T10:46:51Z</time>
      </trkpt>
      <trkpt lat="43.2096" lon="5.48751">
        <ele>184.2</ele>
        <time>2025-10-19T10:46:52Z</time>
      </trkpt>
      <trkpt lat="43.20961" lon="5.4875">
        <ele>184.3</ele>
        <time>2025-10-19T10:46:53Z</time>
      </trkpt>
      <trkpt lat="43.20961" lon="5.48749">
        <ele>184.5</ele>
        <time>2025-10-19T10:46:54Z</time>
      </trkpt>
      <trkpt lat="43.20961" lon="5.48749">
        <ele>184.7</ele>
        <time>2025-10-19T10:46:55Z</time>
      </trkpt>
      <trkpt lat="43.20961" lon="5.48748">
        <ele>184.9</ele>
        <time>2025-10-19T10:46:56Z</time>
      </trkpt>
      <trkpt lat="43.20961" lon="5.48747">
        <ele>185.1</ele>
        <time>2025-10-19T10:46:57Z</time>
      </trkpt>
      <trkpt lat="43.20961" lon="5.48746">
        <ele>185.2</ele>
        <time>2025-10-19T10:46:58Z</time>
      </trkpt>
      <trkpt lat="43.20961" lon="5.48746">
        <ele>185.3</ele>
        <time>2025-10-19T10:46:59Z</time>
      </trkpt>
      <trkpt lat="43.20961" lon="5.48745">
        <ele>185.3</ele>
        <time>2025-10-19T10:47:00Z</time>
      </trkpt>
      <trkpt lat="43.20962" lon="5.48743">
        <ele>185.4</ele>
        <time>2025-10-19T10:47:01Z</time>
      </trkpt>
      <trkpt lat="43.20962" lon="5.48742">
        <ele>185.5</ele>
        <time>2025-10-19T10:47:02Z</time>
      </trkpt>
      <trkpt lat="43.20961" lon="5.48742">
        <ele>185.8</ele>
        <time>2025-10-19T10:47:03Z</time>
      </trkpt>
      <trkpt lat="43.20961" lon="5.48742">
        <ele>186</ele>
        <time>2025-10-19T10:47:04Z</time>
      </trkpt>
      <trkpt lat="43.20961" lon="5.48741">
        <ele>186.1</ele>
        <time>2025-10-19T10:47:05Z</time>
      </trkpt>
      <trkpt lat="43.20961" lon="5.48741">
        <ele>186.3</ele>
        <time>2025-10-19T10:47:06Z</time>
      </trkpt>
      <trkpt lat="43.2096" lon="5.4874">
        <ele>186.4</ele>
        <time>2025-10-19T10:47:07Z</time>
      </trkpt>
      <trkpt lat="43.20961" lon="5.48739">
        <ele>186.6</ele>
        <time>2025-10-19T10:47:08Z</time>
      </trkpt>
      <trkpt lat="43.2096" lon="5.48739">
        <ele>186.8</ele>
        <time>2025-10-19T10:47:09Z</time>
      </trkpt>
      <trkpt lat="43.2096" lon="5.48738">
        <ele>187</ele>
        <time>2025-10-19T10:47:10Z</time>
      </trkpt>
      <trkpt lat="43.2096" lon="5.48737">
        <ele>187.2</ele>
        <time>2025-10-19T10:47:11Z</time>
      </trkpt>
      <trkpt lat="43.2096" lon="5.48736">
        <ele>187.3</ele>
        <time>2025-10-19T10:47:12Z</time>
      </trkpt>
      <trkpt lat="43.2096" lon="5.48735">
        <ele>187.4</ele>
        <time>2025-10-19T10:47:13Z</time>
      </trkpt>
      <trkpt lat="43.2096" lon="5.48734">
        <ele>187.5</ele>
        <time>2025-10-19T10:47:14Z</time>
      </trkpt>
      <trkpt lat="43.2096" lon="5.48733">
        <ele>187.7</ele>
        <time>2025-10-19T10:47:15Z</time>
      </trkpt>
      <trkpt lat="43.2096" lon="5.48731">
        <ele>187.9</ele>
        <time>2025-10-19T10:47:16Z</time>
      </trkpt>
      <trkpt lat="43.20961" lon="5.4873">
        <ele>188</ele>
        <time>2025-10-19T10:47:17Z</time>
      </trkpt>
      <trkpt lat="43.20961" lon="5.48729">
        <ele>188.4</ele>
        <time>2025-10-19T10:47:18Z</time>
      </trkpt>
      <trkpt lat="43.20961" lon="5.48728">
        <ele>188.6</ele>
        <time>2025-10-19T10:47:19Z</time>
      </trkpt>
      <trkpt lat="43.20961" lon="5.48727">
        <ele>188.6</ele>
        <time>2025-10-19T10:47:20Z</time>
      </trkpt>
      <trkpt lat="43.20961" lon="5.48725">
        <ele>188.8</ele>
        <time>2025-10-19T10:47:21Z</time>
      </trkpt>
      <trkpt lat="43.20961" lon="5.48724">
        <ele>189</ele>
        <time>2025-10-19T10:47:22Z</time>
      </trkpt>
      <trkpt lat="43.20961" lon="5.48723">
        <ele>189.2</ele>
        <time>2025-10-19T10:47:23Z</time>
      </trkpt>
      <trkpt lat="43.20961" lon="5.48722">
        <ele>189.2</ele>
        <time>2025-10-19T10:47:24Z</time>
      </trkpt>
      <trkpt lat="43.20961" lon="5.48722">
        <ele>189.3</ele>
        <time>2025-10-19T10:47:25Z</time>
      </trkpt>
      <trkpt lat="43.20961" lon="5.48722">
        <ele>189.4</ele>
        <time>2025-10-19T10:47:26Z</time>
      </trkpt>
      <trkpt lat="43.20961" lon="5.48722">
        <ele>189.5</ele>
        <time>2025-10-19T10:47:27Z</time>
      </trkpt>
      <trkpt lat="43.20961" lon="5.48722">
        <ele>189.5</ele>
        <time>2025-10-19T10:47:28Z</time>
      </trkpt>
      <trkpt lat="43.20961" lon="5.48721">
        <ele>189.7</ele>
        <time>2025-10-19T10:47:29Z</time>
      </trkpt>
      <trkpt lat="43.20961" lon="5.4872">
        <ele>189.8</ele>
        <time>2025-10-19T10:47:30Z</time>
      </trkpt>
      <trkpt lat="43.20961" lon="5.48719">
        <ele>189.8</ele>
        <time>2025-10-19T10:47:31Z</time>
      </trkpt>
      <trkpt lat="43.20962" lon="5.48718">
        <ele>189.9</ele>
        <time>2025-10-19T10:47:32Z</time>
      </trkpt>
      <trkpt lat="43.20962" lon="5.48717">
        <ele>190</ele>
        <time>2025-10-19T10:47:33Z</time>
      </trkpt>
      <trkpt lat="43.20961" lon="5.48716">
        <ele>190.1</ele>
        <time>2025-10-19T10:47:34Z</time>
      </trkpt>
      <trkpt lat="43.20961" lon="5.48715">
        <ele>190.2</ele>
        <time>2025-10-19T10:47:35Z</time>
      </trkpt>
      <trkpt lat="43.2096" lon="5.48714">
        <ele>190.2</ele>
        <time>2025-10-19T10:47:36Z</time>
      </trkpt>
      <trkpt lat="43.20959" lon="5.48713">
        <ele>190.3</ele>
        <time>2025-10-19T10:47:37Z</time>
      </trkpt>
      <trkpt lat="43.20959" lon="5.48713">
        <ele>190.5</ele>
        <time>2025-10-19T10:47:38Z</time>
      </trkpt>
      <trkpt lat="43.20958" lon="5.48713">
        <ele>190.6</ele>
        <time>2025-10-19T10:47:39Z</time>
      </trkpt>
      <trkpt lat="43.20957" lon="5.48713">
        <ele>190.7</ele>
        <time>2025-10-19T10:47:40Z</time>
      </trkpt>
      <trkpt lat="43.20956" lon="5.48713">
        <ele>191</ele>
        <time>2025-10-19T10:47:41Z</time>
      </trkpt>
      <trkpt lat="43.20955" lon="5.48712">
        <ele>191.1</ele>
        <time>2025-10-19T10:47:42Z</time>
      </trkpt>
      <trkpt lat="43.20955" lon="5.48712">
        <ele>191.2</ele>
        <time>2025-10-19T10:47:43Z</time>
      </trkpt>
      <trkpt lat="43.20954" lon="5.48712">
        <ele>191.2</ele>
        <time>2025-10-19T10:47:44Z</time>
      </trkpt>
      <trkpt lat="43.20953" lon="5.48711">
        <ele>191.3</ele>
        <time>2025-10-19T10:47:45Z</time>
      </trkpt>
      <trkpt lat="43.20953" lon="5.48711">
        <ele>191.3</ele>
        <time>2025-10-19T10:47:46Z</time>
      </trkpt>
      <trkpt lat="43.20952" lon="5.48711">
        <ele>191.4</ele>
        <time>2025-10-19T10:47:47Z</time>
      </trkpt>
      <trkpt lat="43.20951" lon="5.4871">
        <ele>191.3</ele>
        <time>2025-10-19T10:47:48Z</time>
      </trkpt>
      <trkpt lat="43.20951" lon="5.4871">
        <ele>191.3</ele>
        <time>2025-10-19T10:47:49Z</time>
      </trkpt>
      <trkpt lat="43.20951" lon="5.48709">
        <ele>191.2</ele>
        <time>2025-10-19T10:47:50Z</time>
      </trkpt>
      <trkpt lat="43.2095" lon="5.48708">
        <ele>191.3</ele>
        <time>2025-10-19T10:47:51Z</time>
      </trkpt>
      <trkpt lat="43.2095" lon="5.48708">
        <ele>191.3</ele>
        <time>2025-10-19T10:47:52Z</time>
      </trkpt>
      <trkpt lat="43.2095" lon="5.48708">
        <ele>191.3</ele>
        <time>2025-10-19T10:47:53Z</time>
      </trkpt>
      <trkpt lat="43.2095" lon="5.48708">
        <ele>191.3</ele>
        <time>2025-10-19T10:47:54Z</time>
      </trkpt>
      <trkpt lat="43.2095" lon="5.48708">
        <ele>191.2</ele>
        <time>2025-10-19T10:47:55Z</time>
      </trkpt>
      <trkpt lat="43.2095" lon="5.48708">
        <ele>191.2</ele>
        <time>2025-10-19T10:47:56Z</time>
      </trkpt>
      <trkpt lat="43.2095" lon="5.48708">
        <ele>191.2</ele>
        <time>2025-10-19T10:47:57Z</time>
      </trkpt>
      <trkpt lat="43.2095" lon="5.48707">
        <ele>191.2</ele>
        <time>2025-10-19T10:47:58Z</time>
      </trkpt>
      <trkpt lat="43.2095" lon="5.48707">
        <ele>191.2</ele>
        <time>2025-10-19T10:47:59Z</time>
      </trkpt>
      <trkpt lat="43.2095" lon="5.48707">
        <ele>191.2</ele>
        <time>2025-10-19T10:48:00Z</time>
      </trkpt>
      <trkpt lat="43.2095" lon="5.48707">
        <ele>191.2</ele>
        <time>2025-10-19T10:48:01Z</time>
      </trkpt>
      <trkpt lat="43.2095" lon="5.48707">
        <ele>191.2</ele>
        <time>2025-10-19T10:48:02Z</time>
      </trkpt>
      <trkpt lat="43.2095" lon="5.48707">
        <ele>191.2</ele>
        <time>2025-10-19T10:48:03Z</time>
      </trkpt>
      <trkpt lat="43.2095" lon="5.48707">
        <ele>191.1</ele>
        <time>2025-10-19T10:48:04Z</time>
      </trkpt>
      <trkpt lat="43.2095" lon="5.48707">
        <ele>191.1</ele>
        <time>2025-10-19T10:48:05Z</time>
      </trkpt>
      <trkpt lat="43.2095" lon="5.48707">
        <ele>191.1</ele>
        <time>2025-10-19T10:48:06Z</time>
      </trkpt>
      <trkpt lat="43.2095" lon="5.48707">
        <ele>191.1</ele>
        <time>2025-10-19T10:48:07Z</time>
      </trkpt>
      <trkpt lat="43.2095" lon="5.48707">
        <ele>191.1</ele>
        <time>2025-10-19T10:48:08Z</time>
      </trkpt>
      <trkpt lat="43.2095" lon="5.48707">
        <ele>191</ele>
        <time>2025-10-19T10:48:09Z</time>
      </trkpt>
      <trkpt lat="43.2095" lon="5.48707">
        <ele>191</ele>
        <time>2025-10-19T10:48:10Z</time>
      </trkpt>
      <trkpt lat="43.2095" lon="5.48707">
        <ele>191</ele>
        <time>2025-10-19T10:48:11Z</time>
      </trkpt>
      <trkpt lat="43.2095" lon="5.48707">
        <ele>191.1</ele>
        <time>2025-10-19T10:48:12Z</time>
      </trkpt>
      <trkpt lat="43.2095" lon="5.48706">
        <ele>191.1</ele>
        <time>2025-10-19T10:48:13Z</time>
      </trkpt>
      <trkpt lat="43.2095" lon="5.48706">
        <ele>191.2</ele>
        <time>2025-10-19T10:48:14Z</time>
      </trkpt>
      <trkpt lat="43.2095" lon="5.48706">
        <ele>191.2</ele>
        <time>2025-10-19T10:48:15Z</time>
      </trkpt>
      <trkpt lat="43.2095" lon="5.48706">
        <ele>191.2</ele>
        <time>2025-10-19T10:48:16Z</time>
      </trkpt>
      <trkpt lat="43.2095" lon="5.48705">
        <ele>191.1</ele>
        <time>2025-10-19T10:48:17Z</time>
      </trkpt>
      <trkpt lat="43.2095" lon="5.48705">
        <ele>191.1</ele>
        <time>2025-10-19T10:48:18Z</time>
      </trkpt>
      <trkpt lat="43.2095" lon="5.48705">
        <ele>191.1</ele>
        <time>2025-10-19T10:48:19Z</time>
      </trkpt>
      <trkpt lat="43.2095" lon="5.48705">
        <ele>191.1</ele>
        <time>2025-10-19T10:48:20Z</time>
      </trkpt>
      <trkpt lat="43.2095" lon="5.48705">
        <ele>191.1</ele>
        <time>2025-10-19T10:48:21Z</time>
      </trkpt>
      <trkpt lat="43.2095" lon="5.48705">
        <ele>191.1</ele>
        <time>2025-10-19T10:48:22Z</time>
      </trkpt>
      <trkpt lat="43.2095" lon="5.48705">
        <ele>191</ele>
        <time>2025-10-19T10:48:23Z</time>
      </trkpt>
      <trkpt lat="43.2095" lon="5.48705">
        <ele>191</ele>
        <time>2025-10-19T10:48:24Z</time>
      </trkpt>
      <trkpt lat="43.20949" lon="5.48705">
        <ele>190.9</ele>
        <time>2025-10-19T10:48:25Z</time>
      </trkpt>
      <trkpt lat="43.20949" lon="5.48705">
        <ele>190.9</ele>
        <time>2025-10-19T10:48:26Z</time>
      </trkpt>
      <trkpt lat="43.2095" lon="5.48705">
        <ele>190.8</ele>
        <time>2025-10-19T10:48:27Z</time>
      </trkpt>
      <trkpt lat="43.2095" lon="5.48705">
        <ele>190.8</ele>
        <time>2025-10-19T10:48:28Z</time>
      </trkpt>
      <trkpt lat="43.2095" lon="5.48705">
        <ele>190.9</ele>
        <time>2025-10-19T10:48:29Z</time>
      </trkpt>
      <trkpt lat="43.2095" lon="5.48705">
        <ele>190.9</ele>
        <time>2025-10-19T10:48:30Z</time>
      </trkpt>
      <trkpt lat="43.2095" lon="5.48705">
        <ele>191</ele>
        <time>2025-10-19T10:48:31Z</time>
      </trkpt>
      <trkpt lat="43.2095" lon="5.48705">
        <ele>191</ele>
        <time>2025-10-19T10:48:32Z</time>
      </trkpt>
      <trkpt lat="43.2095" lon="5.48705">
        <ele>190.9</ele>
        <time>2025-10-19T10:48:33Z</time>
      </trkpt>
      <trkpt lat="43.2095" lon="5.48705">
        <ele>190.9</ele>
        <time>2025-10-19T10:48:34Z</time>
      </trkpt>
      <trkpt lat="43.2095" lon="5.48705">
        <ele>190.9</ele>
        <time>2025-10-19T10:48:35Z</time>
      </trkpt>
      <trkpt lat="43.2095" lon="5.48705">
        <ele>190.9</ele>
        <time>2025-10-19T10:48:36Z</time>
      </trkpt>
      <trkpt lat="43.2095" lon="5.48706">
        <ele>190.9</ele>
        <time>2025-10-19T10:48:37Z</time>
      </trkpt>
      <trkpt lat="43.2095" lon="5.48706">
        <ele>191</ele>
        <time>2025-10-19T10:48:38Z</time>
      </trkpt>
      <trkpt lat="43.2095" lon="5.48706">
        <ele>191</ele>
        <time>2025-10-19T10:48:39Z</time>
      </trkpt>
      <trkpt lat="43.20951" lon="5.48706">
        <ele>191</ele>
        <time>2025-10-19T10:48:40Z</time>
      </trkpt>
      <trkpt lat="43.20952" lon="5.48706">
        <ele>191.1</ele>
        <time>2025-10-19T10:48:41Z</time>
      </trkpt>
      <trkpt lat="43.20952" lon="5.48706">
        <ele>191.2</ele>
        <time>2025-10-19T10:48:42Z</time>
      </trkpt>
      <trkpt lat="43.20953" lon="5.48705">
        <ele>191.3</ele>
        <time>2025-10-19T10:48:43Z</time>
      </trkpt>
      <trkpt lat="43.20953" lon="5.48704">
        <ele>191.4</ele>
        <time>2025-10-19T10:48:44Z</time>
      </trkpt>
      <trkpt lat="43.20952" lon="5.48704">
        <ele>191.5</ele>
        <time>2025-10-19T10:48:45Z</time>
      </trkpt>
      <trkpt lat="43.20952" lon="5.48704">
        <ele>191.6</ele>
        <time>2025-10-19T10:48:46Z</time>
      </trkpt>
      <trkpt lat="43.20953" lon="5.48704">
        <ele>191.6</ele>
        <time>2025-10-19T10:48:47Z</time>
      </trkpt>
      <trkpt lat="43.20953" lon="5.48705">
        <ele>191.6</ele>
        <time>2025-10-19T10:48:48Z</time>
      </trkpt>
      <trkpt lat="43.20953" lon="5.48704">
        <ele>191.6</ele>
        <time>2025-10-19T10:48:49Z</time>
      </trkpt>
      <trkpt lat="43.20953" lon="5.48704">
        <ele>191.6</ele>
        <time>2025-10-19T10:48:50Z</time>
      </trkpt>
      <trkpt lat="43.20953" lon="5.48704">
        <ele>191.7</ele>
        <time>2025-10-19T10:48:51Z</time>
      </trkpt>
      <trkpt lat="43.20953" lon="5.48704">
        <ele>191.7</ele>
        <time>2025-10-19T10:48:52Z</time>
      </trkpt>
      <trkpt lat="43.20953" lon="5.48704">
        <ele>191.8</ele>
        <time>2025-10-19T10:48:53Z</time>
      </trkpt>
      <trkpt lat="43.20953" lon="5.48704">
        <ele>191.7</ele>
        <time>2025-10-19T10:48:54Z</time>
      </trkpt>
      <trkpt lat="43.20953" lon="5.48703">
        <ele>191.7</ele>
        <time>2025-10-19T10:48:55Z</time>
      </trkpt>
      <trkpt lat="43.20953" lon="5.48703">
        <ele>191.7</ele>
        <time>2025-10-19T10:48:56Z</time>
      </trkpt>
      <trkpt lat="43.20953" lon="5.48703">
        <ele>191.8</ele>
        <time>2025-10-19T10:48:57Z</time>
      </trkpt>
      <trkpt lat="43.20953" lon="5.48703">
        <ele>191.8</ele>
        <time>2025-10-19T10:48:58Z</time>
      </trkpt>
      <trkpt lat="43.20953" lon="5.48702">
        <ele>191.9</ele>
        <time>2025-10-19T10:48:59Z</time>
      </trkpt>
      <trkpt lat="43.20954" lon="5.48702">
        <ele>191.9</ele>
        <time>2025-10-19T10:49:00Z</time>
      </trkpt>
      <trkpt lat="43.20954" lon="5.48702">
        <ele>191.9</ele>
        <time>2025-10-19T10:49:01Z</time>
      </trkpt>
      <trkpt lat="43.20954" lon="5.48703">
        <ele>191.9</ele>
        <time>2025-10-19T10:49:02Z</time>
      </trkpt>
      <trkpt lat="43.20954" lon="5.48702">
        <ele>191.8</ele>
        <time>2025-10-19T10:49:03Z</time>
      </trkpt>
      <trkpt lat="43.20954" lon="5.48702">
        <ele>191.8</ele>
        <time>2025-10-19T10:49:04Z</time>
      </trkpt>
      <trkpt lat="43.20955" lon="5.48701">
        <ele>191.8</ele>
        <time>2025-10-19T10:49:05Z</time>
      </trkpt>
      <trkpt lat="43.20955" lon="5.48701">
        <ele>191.8</ele>
        <time>2025-10-19T10:49:06Z</time>
      </trkpt>
      <trkpt lat="43.20955" lon="5.48701">
        <ele>191.9</ele>
        <time>2025-10-19T10:49:07Z</time>
      </trkpt>
      <trkpt lat="43.20956" lon="5.487">
        <ele>191.9</ele>
        <time>2025-10-19T10:49:08Z</time>
      </trkpt>
      <trkpt lat="43.20956" lon="5.487">
        <ele>191.9</ele>
        <time>2025-10-19T10:49:09Z</time>
      </trkpt>
      <trkpt lat="43.20956" lon="5.487">
        <ele>192</ele>
        <time>2025-10-19T10:49:10Z</time>
      </trkpt>
      <trkpt lat="43.20956" lon="5.487">
        <ele>192</ele>
        <time>2025-10-19T10:49:11Z</time>
      </trkpt>
      <trkpt lat="43.20956" lon="5.48699">
        <ele>192.1</ele>
        <time>2025-10-19T10:49:12Z</time>
      </trkpt>
      <trkpt lat="43.20956" lon="5.48699">
        <ele>192.1</ele>
        <time>2025-10-19T10:49:13Z</time>
      </trkpt>
      <trkpt lat="43.20956" lon="5.48699">
        <ele>192.1</ele>
        <time>2025-10-19T10:49:14Z</time>
      </trkpt>
      <trkpt lat="43.20956" lon="5.48699">
        <ele>192.1</ele>
        <time>2025-10-19T10:49:15Z</time>
      </trkpt>
      <trkpt lat="43.20956" lon="5.48699">
        <ele>192.3</ele>
        <time>2025-10-19T10:49:16Z</time>
      </trkpt>
      <trkpt lat="43.20955" lon="5.48699">
        <ele>192.4</ele>
        <time>2025-10-19T10:49:17Z</time>
      </trkpt>
      <trkpt lat="43.20955" lon="5.48699">
        <ele>192.5</ele>
        <time>2025-10-19T10:49:18Z</time>
      </trkpt>
      <trkpt lat="43.20955" lon="5.48698">
        <ele>192.5</ele>
        <time>2025-10-19T10:49:19Z</time>
      </trkpt>
      <trkpt lat="43.20955" lon="5.48698">
        <ele>192.5</ele>
        <time>2025-10-19T10:49:20Z</time>
      </trkpt>
      <trkpt lat="43.20955" lon="5.48698">
        <ele>192.5</ele>
        <time>2025-10-19T10:49:21Z</time>
      </trkpt>
      <trkpt lat="43.20955" lon="5.48698">
        <ele>192.5</ele>
        <time>2025-10-19T10:49:22Z</time>
      </trkpt>
      <trkpt lat="43.20955" lon="5.48698">
        <ele>192.6</ele>
        <time>2025-10-19T10:49:23Z</time>
      </trkpt>
      <trkpt lat="43.20955" lon="5.48698">
        <ele>192.7</ele>
        <time>2025-10-19T10:49:24Z</time>
      </trkpt>
      <trkpt lat="43.20955" lon="5.48698">
        <ele>192.7</ele>
        <time>2025-10-19T10:49:25Z</time>
      </trkpt>
      <trkpt lat="43.20955" lon="5.48698">
        <ele>192.7</ele>
        <time>2025-10-19T10:49:26Z</time>
      </trkpt>
      <trkpt lat="43.20955" lon="5.48697">
        <ele>192.7</ele>
        <time>2025-10-19T10:49:27Z</time>
      </trkpt>
      <trkpt lat="43.20955" lon="5.48697">
        <ele>192.8</ele>
        <time>2025-10-19T10:49:28Z</time>
      </trkpt>
      <trkpt lat="43.20955" lon="5.48697">
        <ele>192.9</ele>
        <time>2025-10-19T10:49:29Z</time>
      </trkpt>
      <trkpt lat="43.20955" lon="5.48697">
        <ele>192.9</ele>
        <time>2025-10-19T10:49:30Z</time>
      </trkpt>
      <trkpt lat="43.20955" lon="5.48697">
        <ele>192.8</ele>
        <time>2025-10-19T10:49:31Z</time>
      </trkpt>
      <trkpt lat="43.20955" lon="5.48697">
        <ele>192.7</ele>
        <time>2025-10-19T10:49:32Z</time>
      </trkpt>
      <trkpt lat="43.20955" lon="5.48697">
        <ele>192.7</ele>
        <time>2025-10-19T10:49:33Z</time>
      </trkpt>
      <trkpt lat="43.20954" lon="5.48697">
        <ele>192.7</ele>
        <time>2025-10-19T10:49:34Z</time>
      </trkpt>
      <trkpt lat="43.20954" lon="5.48697">
        <ele>192.7</ele>
        <time>2025-10-19T10:49:35Z</time>
      </trkpt>
      <trkpt lat="43.20954" lon="5.48697">
        <ele>192.7</ele>
        <time>2025-10-19T10:49:36Z</time>
      </trkpt>
      <trkpt lat="43.20954" lon="5.48696">
        <ele>192.8</ele>
        <time>2025-10-19T10:49:37Z</time>
      </trkpt>
      <trkpt lat="43.20954" lon="5.48697">
        <ele>192.8</ele>
        <time>2025-10-19T10:49:38Z</time>
      </trkpt>
      <trkpt lat="43.20954" lon="5.48697">
        <ele>192.9</ele>
        <time>2025-10-19T10:49:39Z</time>
      </trkpt>
      <trkpt lat="43.20954" lon="5.48696">
        <ele>192.9</ele>
        <time>2025-10-19T10:49:40Z</time>
      </trkpt>
      <trkpt lat="43.20954" lon="5.48696">
        <ele>192.8</ele>
        <time>2025-10-19T10:49:41Z</time>
      </trkpt>
      <trkpt lat="43.20954" lon="5.48696">
        <ele>192.8</ele>
        <time>2025-10-19T10:49:42Z</time>
      </trkpt>
      <trkpt lat="43.20954" lon="5.48696">
        <ele>192.8</ele>
        <time>2025-10-19T10:49:43Z</time>
      </trkpt>
      <trkpt lat="43.20954" lon="5.48696">
        <ele>192.9</ele>
        <time>2025-10-19T10:49:44Z</time>
      </trkpt>
      <trkpt lat="43.20954" lon="5.48696">
        <ele>192.9</ele>
        <time>2025-10-19T10:49:45Z</time>
      </trkpt>
      <trkpt lat="43.20954" lon="5.48697">
        <ele>193</ele>
        <time>2025-10-19T10:49:46Z</time>
      </trkpt>
      <trkpt lat="43.20954" lon="5.48697">
        <ele>193</ele>
        <time>2025-10-19T10:49:47Z</time>
      </trkpt>
      <trkpt lat="43.20954" lon="5.48697">
        <ele>193.1</ele>
        <time>2025-10-19T10:49:48Z</time>
      </trkpt>
      <trkpt lat="43.20954" lon="5.48697">
        <ele>193.1</ele>
        <time>2025-10-19T10:49:49Z</time>
      </trkpt>
      <trkpt lat="43.20954" lon="5.48697">
        <ele>193.1</ele>
        <time>2025-10-19T10:49:50Z</time>
      </trkpt>
      <trkpt lat="43.20954" lon="5.48697">
        <ele>193.1</ele>
        <time>2025-10-19T10:49:51Z</time>
      </trkpt>
      <trkpt lat="43.20954" lon="5.48697">
        <ele>193.1</ele>
        <time>2025-10-19T10:49:52Z</time>
      </trkpt>
      <trkpt lat="43.20954" lon="5.48697">
        <ele>193</ele>
        <time>2025-10-19T10:49:53Z</time>
      </trkpt>
      <trkpt lat="43.20954" lon="5.48697">
        <ele>193</ele>
        <time>2025-10-19T10:49:54Z</time>
      </trkpt>
      <trkpt lat="43.20954" lon="5.48697">
        <ele>193</ele>
        <time>2025-10-19T10:49:55Z</time>
      </trkpt>
      <trkpt lat="43.20954" lon="5.48697">
        <ele>192.9</ele>
        <time>2025-10-19T10:49:56Z</time>
      </trkpt>
      <trkpt lat="43.20954" lon="5.48697">
        <ele>192.9</ele>
        <time>2025-10-19T10:49:57Z</time>
      </trkpt>
      <trkpt lat="43.20954" lon="5.48697">
        <ele>192.8</ele>
        <time>2025-10-19T10:49:58Z</time>
      </trkpt>
      <trkpt lat="43.20954" lon="5.48697">
        <ele>192.8</ele>
        <time>2025-10-19T10:49:59Z</time>
      </trkpt>
      <trkpt lat="43.20954" lon="5.48697">
        <ele>192.7</ele>
        <time>2025-10-19T10:50:00Z</time>
      </trkpt>
      <trkpt lat="43.20954" lon="5.48697">
        <ele>192.7</ele>
        <time>2025-10-19T10:50:01Z</time>
      </trkpt>
      <trkpt lat="43.20954" lon="5.48697">
        <ele>192.7</ele>
        <time>2025-10-19T10:50:02Z</time>
      </trkpt>
      <trkpt lat="43.20954" lon="5.48697">
        <ele>192.8</ele>
        <time>2025-10-19T10:50:03Z</time>
      </trkpt>
      <trkpt lat="43.20954" lon="5.48697">
        <ele>193</ele>
        <time>2025-10-19T10:50:04Z</time>
      </trkpt>
      <trkpt lat="43.20953" lon="5.48697">
        <ele>193</ele>
        <time>2025-10-19T10:50:05Z</time>
      </trkpt>
      <trkpt lat="43.20954" lon="5.48697">
        <ele>192.9</ele>
        <time>2025-10-19T10:50:06Z</time>
      </trkpt>
      <trkpt lat="43.20954" lon="5.48697">
        <ele>193</ele>
        <time>2025-10-19T10:50:07Z</time>
      </trkpt>
      <trkpt lat="43.20954" lon="5.48697">
        <ele>193</ele>
        <time>2025-10-19T10:50:08Z</time>
      </trkpt>
      <trkpt lat="43.20954" lon="5.48698">
        <ele>193</ele>
        <time>2025-10-19T10:50:09Z</time>
      </trkpt>
      <trkpt lat="43.20954" lon="5.48698">
        <ele>193</ele>
        <time>2025-10-19T10:50:10Z</time>
      </trkpt>
      <trkpt lat="43.20954" lon="5.48698">
        <ele>193</ele>
        <time>2025-10-19T10:50:11Z</time>
      </trkpt>
      <trkpt lat="43.20954" lon="5.48698">
        <ele>193</ele>
        <time>2025-10-19T10:50:12Z</time>
      </trkpt>
      <trkpt lat="43.20953" lon="5.48698">
        <ele>193.1</ele>
        <time>2025-10-19T10:50:13Z</time>
      </trkpt>
      <trkpt lat="43.20954" lon="5.48698">
        <ele>193.1</ele>
        <time>2025-10-19T10:50:14Z</time>
      </trkpt>
      <trkpt lat="43.20953" lon="5.48698">
        <ele>193.1</ele>
        <time>2025-10-19T10:50:15Z</time>
      </trkpt>
      <trkpt lat="43.20953" lon="5.48698">
        <ele>193.1</ele>
        <time>2025-10-19T10:50:16Z</time>
      </trkpt>
      <trkpt lat="43.20953" lon="5.48698">
        <ele>193.1</ele>
        <time>2025-10-19T10:50:17Z</time>
      </trkpt>
      <trkpt lat="43.20953" lon="5.48698">
        <ele>193.2</ele>
        <time>2025-10-19T10:50:18Z</time>
      </trkpt>
      <trkpt lat="43.20953" lon="5.48698">
        <ele>193</ele>
        <time>2025-10-19T10:50:19Z</time>
      </trkpt>
      <trkpt lat="43.20953" lon="5.48698">
        <ele>192.9</ele>
        <time>2025-10-19T10:50:20Z</time>
      </trkpt>
      <trkpt lat="43.20953" lon="5.48698">
        <ele>192.8</ele>
        <time>2025-10-19T10:50:21Z</time>
      </trkpt>
      <trkpt lat="43.20953" lon="5.48698">
        <ele>192.8</ele>
        <time>2025-10-19T10:50:22Z</time>
      </trkpt>
      <trkpt lat="43.20953" lon="5.48698">
        <ele>192.8</ele>
        <time>2025-10-19T10:50:23Z</time>
      </trkpt>
      <trkpt lat="43.20952" lon="5.48698">
        <ele>192.8</ele>
        <time>2025-10-19T10:50:24Z</time>
      </trkpt>
      <trkpt lat="43.20952" lon="5.48698">
        <ele>192.7</ele>
        <time>2025-10-19T10:50:25Z</time>
      </trkpt>
      <trkpt lat="43.20952" lon="5.48698">
        <ele>192.7</ele>
        <time>2025-10-19T10:50:26Z</time>
      </trkpt>
      <trkpt lat="43.20952" lon="5.48698">
        <ele>192.8</ele>
        <time>2025-10-19T10:50:27Z</time>
      </trkpt>
      <trkpt lat="43.20952" lon="5.48698">
        <ele>192.9</ele>
        <time>2025-10-19T10:50:28Z</time>
      </trkpt>
      <trkpt lat="43.20952" lon="5.48698">
        <ele>193</ele>
        <time>2025-10-19T10:50:29Z</time>
      </trkpt>
      <trkpt lat="43.20952" lon="5.48698">
        <ele>193</ele>
        <time>2025-10-19T10:50:30Z</time>
      </trkpt>
      <trkpt lat="43.20953" lon="5.48698">
        <ele>193.1</ele>
        <time>2025-10-19T10:50:31Z</time>
      </trkpt>
      <trkpt lat="43.20953" lon="5.48698">
        <ele>193</ele>
        <time>2025-10-19T10:50:32Z</time>
      </trkpt>
      <trkpt lat="43.20953" lon="5.48698">
        <ele>193</ele>
        <time>2025-10-19T10:50:33Z</time>
      </trkpt>
      <trkpt lat="43.20953" lon="5.48698">
        <ele>193</ele>
        <time>2025-10-19T10:50:34Z</time>
      </trkpt>
      <trkpt lat="43.20953" lon="5.48698">
        <ele>192.9</ele>
        <time>2025-10-19T10:50:35Z</time>
      </trkpt>
      <trkpt lat="43.20953" lon="5.48698">
        <ele>192.9</ele>
        <time>2025-10-19T10:50:36Z</time>
      </trkpt>
      <trkpt lat="43.20953" lon="5.48698">
        <ele>192.9</ele>
        <time>2025-10-19T10:50:37Z</time>
      </trkpt>
      <trkpt lat="43.20953" lon="5.48698">
        <ele>192.8</ele>
        <time>2025-10-19T10:50:38Z</time>
      </trkpt>
      <trkpt lat="43.20953" lon="5.48698">
        <ele>192.9</ele>
        <time>2025-10-19T10:50:39Z</time>
      </trkpt>
      <trkpt lat="43.20953" lon="5.48698">
        <ele>192.9</ele>
        <time>2025-10-19T10:50:40Z</time>
      </trkpt>
      <trkpt lat="43.20953" lon="5.48698">
        <ele>193</ele>
        <time>2025-10-19T10:50:41Z</time>
      </trkpt>
      <trkpt lat="43.20953" lon="5.48698">
        <ele>193</ele>
        <time>2025-10-19T10:50:42Z</time>
      </trkpt>
      <trkpt lat="43.20953" lon="5.48697">
        <ele>193</ele>
        <time>2025-10-19T10:50:43Z</time>
      </trkpt>
      <trkpt lat="43.20953" lon="5.48697">
        <ele>192.9</ele>
        <time>2025-10-19T10:50:44Z</time>
      </trkpt>
      <trkpt lat="43.20954" lon="5.48697">
        <ele>192.8</ele>
        <time>2025-10-19T10:50:45Z</time>
      </trkpt>
      <trkpt lat="43.20954" lon="5.48696">
        <ele>192.8</ele>
        <time>2025-10-19T10:50:46Z</time>
      </trkpt>
      <trkpt lat="43.20954" lon="5.48697">
        <ele>192.7</ele>
        <time>2025-10-19T10:50:47Z</time>
      </trkpt>
      <trkpt lat="43.20954" lon="5.48697">
        <ele>192.7</ele>
        <time>2025-10-19T10:50:48Z</time>
      </trkpt>
      <trkpt lat="43.20954" lon="5.48697">
        <ele>192.7</ele>
        <time>2025-10-19T10:50:49Z</time>
      </trkpt>
      <trkpt lat="43.20954" lon="5.48696">
        <ele>192.6</ele>
        <time>2025-10-19T10:50:50Z</time>
      </trkpt>
      <trkpt lat="43.20954" lon="5.48696">
        <ele>192.6</ele>
        <time>2025-10-19T10:50:51Z</time>
      </trkpt>
      <trkpt lat="43.20954" lon="5.48696">
        <ele>192.6</ele>
        <time>2025-10-19T10:50:52Z</time>
      </trkpt>
      <trkpt lat="43.20954" lon="5.48696">
        <ele>192.6</ele>
        <time>2025-10-19T10:50:53Z</time>
      </trkpt>
      <trkpt lat="43.20954" lon="5.48696">
        <ele>192.7</ele>
        <time>2025-10-19T10:50:54Z</time>
      </trkpt>
      <trkpt lat="43.20954" lon="5.48696">
        <ele>192.7</ele>
        <time>2025-10-19T10:50:55Z</time>
      </trkpt>
      <trkpt lat="43.20954" lon="5.48696">
        <ele>192.6</ele>
        <time>2025-10-19T10:50:56Z</time>
      </trkpt>
      <trkpt lat="43.20954" lon="5.48696">
        <ele>192.7</ele>
        <time>2025-10-19T10:50:57Z</time>
      </trkpt>
      <trkpt lat="43.20954" lon="5.48696">
        <ele>192.7</ele>
        <time>2025-10-19T10:50:58Z</time>
      </trkpt>
      <trkpt lat="43.20954" lon="5.48695">
        <ele>192.7</ele>
        <time>2025-10-19T10:50:59Z</time>
      </trkpt>
      <trkpt lat="43.20954" lon="5.48695">
        <ele>192.7</ele>
        <time>2025-10-19T10:51:00Z</time>
      </trkpt>
      <trkpt lat="43.20954" lon="5.48695">
        <ele>192.7</ele>
        <time>2025-10-19T10:51:01Z</time>
      </trkpt>
      <trkpt lat="43.20954" lon="5.48695">
        <ele>192.7</ele>
        <time>2025-10-19T10:51:02Z</time>
      </trkpt>
      <trkpt lat="43.20954" lon="5.48695">
        <ele>192.7</ele>
        <time>2025-10-19T10:51:03Z</time>
      </trkpt>
      <trkpt lat="43.20954" lon="5.48695">
        <ele>192.7</ele>
        <time>2025-10-19T10:51:04Z</time>
      </trkpt>
      <trkpt lat="43.20955" lon="5.48695">
        <ele>192.7</ele>
        <time>2025-10-19T10:51:05Z</time>
      </trkpt>
      <trkpt lat="43.20955" lon="5.48695">
        <ele>192.7</ele>
        <time>2025-10-19T10:51:06Z</time>
      </trkpt>
      <trkpt lat="43.20955" lon="5.48695">
        <ele>192.8</ele>
        <time>2025-10-19T10:51:07Z</time>
      </trkpt>
      <trkpt lat="43.20955" lon="5.48695">
        <ele>192.8</ele>
        <time>2025-10-19T10:51:08Z</time>
      </trkpt>
      <trkpt lat="43.20955" lon="5.48695">
        <ele>192.8</ele>
        <time>2025-10-19T10:51:09Z</time>
      </trkpt>
      <trkpt lat="43.20955" lon="5.48695">
        <ele>192.8</ele>
        <time>2025-10-19T10:51:10Z</time>
      </trkpt>
      <trkpt lat="43.20955" lon="5.48695">
        <ele>192.8</ele>
        <time>2025-10-19T10:51:11Z</time>
      </trkpt>
      <trkpt lat="43.20955" lon="5.48695">
        <ele>192.8</ele>
        <time>2025-10-19T10:51:12Z</time>
      </trkpt>
      <trkpt lat="43.20955" lon="5.48694">
        <ele>192.8</ele>
        <time>2025-10-19T10:51:13Z</time>
      </trkpt>
      <trkpt lat="43.20955" lon="5.48694">
        <ele>192.7</ele>
        <time>2025-10-19T10:51:14Z</time>
      </trkpt>
      <trkpt lat="43.20955" lon="5.48694">
        <ele>192.6</ele>
        <time>2025-10-19T10:51:15Z</time>
      </trkpt>
      <trkpt lat="43.20955" lon="5.48694">
        <ele>192.6</ele>
        <time>2025-10-19T10:51:16Z</time>
      </trkpt>
      <trkpt lat="43.20955" lon="5.48694">
        <ele>192.6</ele>
        <time>2025-10-19T10:51:17Z</time>
      </trkpt>
      <trkpt lat="43.20955" lon="5.48694">
        <ele>192.6</ele>
        <time>2025-10-19T10:51:18Z</time>
      </trkpt>
      <trkpt lat="43.20955" lon="5.48694">
        <ele>192.6</ele>
        <time>2025-10-19T10:51:19Z</time>
      </trkpt>
      <trkpt lat="43.20955" lon="5.48694">
        <ele>192.6</ele>
        <time>2025-10-19T10:51:20Z</time>
      </trkpt>
      <trkpt lat="43.20955" lon="5.48694">
        <ele>192.6</ele>
        <time>2025-10-19T10:51:21Z</time>
      </trkpt>
      <trkpt lat="43.20955" lon="5.48694">
        <ele>192.6</ele>
        <time>2025-10-19T10:51:22Z</time>
      </trkpt>
      <trkpt lat="43.20955" lon="5.48694">
        <ele>192.7</ele>
        <time>2025-10-19T10:51:23Z</time>
      </trkpt>
      <trkpt lat="43.20955" lon="5.48694">
        <ele>192.7</ele>
        <time>2025-10-19T10:51:24Z</time>
      </trkpt>
      <trkpt lat="43.20955" lon="5.48694">
        <ele>192.7</ele>
        <time>2025-10-19T10:51:25Z</time>
      </trkpt>
      <trkpt lat="43.20955" lon="5.48693">
        <ele>192.7</ele>
        <time>2025-10-19T10:51:26Z</time>
      </trkpt>
      <trkpt lat="43.20955" lon="5.48693">
        <ele>192.7</ele>
        <time>2025-10-19T10:51:27Z</time>
      </trkpt>
      <trkpt lat="43.20954" lon="5.48693">
        <ele>192.7</ele>
        <time>2025-10-19T10:51:28Z</time>
      </trkpt>
      <trkpt lat="43.20954" lon="5.48693">
        <ele>192.8</ele>
        <time>2025-10-19T10:51:29Z</time>
      </trkpt>
      <trkpt lat="43.20954" lon="5.48693">
        <ele>192.8</ele>
        <time>2025-10-19T10:51:30Z</time>
      </trkpt>
      <trkpt lat="43.20954" lon="5.48693">
        <ele>192.8</ele>
        <time>2025-10-19T10:51:31Z</time>
      </trkpt>
      <trkpt lat="43.20954" lon="5.48693">
        <ele>192.9</ele>
        <time>2025-10-19T10:51:32Z</time>
      </trkpt>
      <trkpt lat="43.20954" lon="5.48693">
        <ele>192.9</ele>
        <time>2025-10-19T10:51:33Z</time>
      </trkpt>
      <trkpt lat="43.20954" lon="5.48693">
        <ele>192.9</ele>
        <time>2025-10-19T10:51:34Z</time>
      </trkpt>
      <trkpt lat="43.20954" lon="5.48693">
        <ele>192.9</ele>
        <time>2025-10-19T10:51:35Z</time>
      </trkpt>
      <trkpt lat="43.20954" lon="5.48692">
        <ele>192.9</ele>
        <time>2025-10-19T10:51:36Z</time>
      </trkpt>
      <trkpt lat="43.20954" lon="5.48692">
        <ele>192.9</ele>
        <time>2025-10-19T10:51:37Z</time>
      </trkpt>
      <trkpt lat="43.20954" lon="5.48692">
        <ele>192.8</ele>
        <time>2025-10-19T10:51:38Z</time>
      </trkpt>
      <trkpt lat="43.20954" lon="5.48692">
        <ele>192.8</ele>
        <time>2025-10-19T10:51:39Z</time>
      </trkpt>
      <trkpt lat="43.20954" lon="5.48692">
        <ele>192.8</ele>
        <time>2025-10-19T10:51:40Z</time>
      </trkpt>
      <trkpt lat="43.20954" lon="5.48692">
        <ele>192.8</ele>
        <time>2025-10-19T10:51:41Z</time>
      </trkpt>
      <trkpt lat="43.20954" lon="5.48692">
        <ele>192.7</ele>
        <time>2025-10-19T10:51:42Z</time>
      </trkpt>
      <trkpt lat="43.20954" lon="5.48692">
        <ele>192.8</ele>
        <time>2025-10-19T10:51:43Z</time>
      </trkpt>
      <trkpt lat="43.20954" lon="5.48692">
        <ele>192.8</ele>
        <time>2025-10-19T10:51:44Z</time>
      </trkpt>
      <trkpt lat="43.20954" lon="5.48693">
        <ele>192.8</ele>
        <time>2025-10-19T10:51:45Z</time>
      </trkpt>
      <trkpt lat="43.20954" lon="5.48693">
        <ele>192.7</ele>
        <time>2025-10-19T10:51:46Z</time>
      </trkpt>
      <trkpt lat="43.20954" lon="5.48693">
        <ele>192.7</ele>
        <time>2025-10-19T10:51:47Z</time>
      </trkpt>
      <trkpt lat="43.20954" lon="5.48693">
        <ele>192.7</ele>
        <time>2025-10-19T10:51:48Z</time>
      </trkpt>
      <trkpt lat="43.20954" lon="5.48693">
        <ele>192.8</ele>
        <time>2025-10-19T10:51:49Z</time>
      </trkpt>
      <trkpt lat="43.20954" lon="5.48693">
        <ele>192.8</ele>
        <time>2025-10-19T10:51:50Z</time>
      </trkpt>
      <trkpt lat="43.20954" lon="5.48693">
        <ele>192.8</ele>
        <time>2025-10-19T10:51:51Z</time>
      </trkpt>
      <trkpt lat="43.20954" lon="5.48693">
        <ele>192.8</ele>
        <time>2025-10-19T10:51:52Z</time>
      </trkpt>
      <trkpt lat="43.20954" lon="5.48693">
        <ele>192.8</ele>
        <time>2025-10-19T10:51:53Z</time>
      </trkpt>
      <trkpt lat="43.20954" lon="5.48693">
        <ele>192.8</ele>
        <time>2025-10-19T10:51:54Z</time>
      </trkpt>
      <trkpt lat="43.20954" lon="5.48693">
        <ele>192.8</ele>
        <time>2025-10-19T10:51:55Z</time>
      </trkpt>
      <trkpt lat="43.20954" lon="5.48693">
        <ele>192.8</ele>
        <time>2025-10-19T10:51:56Z</time>
      </trkpt>
      <trkpt lat="43.20954" lon="5.48693">
        <ele>192.8</ele>
        <time>2025-10-19T10:51:57Z</time>
      </trkpt>
      <trkpt lat="43.20954" lon="5.48693">
        <ele>192.8</ele>
        <time>2025-10-19T10:51:58Z</time>
      </trkpt>
      <trkpt lat="43.20954" lon="5.48693">
        <ele>192.8</ele>
        <time>2025-10-19T10:51:59Z</time>
      </trkpt>
      <trkpt lat="43.20954" lon="5.48693">
        <ele>192.7</ele>
        <time>2025-10-19T10:52:00Z</time>
      </trkpt>
      <trkpt lat="43.20954" lon="5.48693">
        <ele>192.8</ele>
        <time>2025-10-19T10:52:01Z</time>
      </trkpt>
      <trkpt lat="43.20954" lon="5.48693">
        <ele>192.8</ele>
        <time>2025-10-19T10:52:02Z</time>
      </trkpt>
      <trkpt lat="43.20954" lon="5.48693">
        <ele>192.8</ele>
        <time>2025-10-19T10:52:03Z</time>
      </trkpt>
      <trkpt lat="43.20954" lon="5.48693">
        <ele>192.8</ele>
        <time>2025-10-19T10:52:04Z</time>
      </trkpt>
      <trkpt lat="43.20954" lon="5.48693">
        <ele>192.9</ele>
        <time>2025-10-19T10:52:05Z</time>
      </trkpt>
      <trkpt lat="43.20953" lon="5.48693">
        <ele>192.9</ele>
        <time>2025-10-19T10:52:06Z</time>
      </trkpt>
      <trkpt lat="43.20953" lon="5.48693">
        <ele>192.9</ele>
        <time>2025-10-19T10:52:07Z</time>
      </trkpt>
      <trkpt lat="43.20953" lon="5.48693">
        <ele>192.9</ele>
        <time>2025-10-19T10:52:08Z</time>
      </trkpt>
      <trkpt lat="43.20953" lon="5.48693">
        <ele>193</ele>
        <time>2025-10-19T10:52:09Z</time>
      </trkpt>
      <trkpt lat="43.20953" lon="5.48693">
        <ele>193</ele>
        <time>2025-10-19T10:52:10Z</time>
      </trkpt>
      <trkpt lat="43.20953" lon="5.48693">
        <ele>193</ele>
        <time>2025-10-19T10:52:11Z</time>
      </trkpt>
      <trkpt lat="43.20953" lon="5.48693">
        <ele>193</ele>
        <time>2025-10-19T10:52:12Z</time>
      </trkpt>
      <trkpt lat="43.20953" lon="5.48693">
        <ele>193.1</ele>
        <time>2025-10-19T10:52:13Z</time>
      </trkpt>
      <trkpt lat="43.20953" lon="5.48693">
        <ele>193.1</ele>
        <time>2025-10-19T10:52:14Z</time>
      </trkpt>
      <trkpt lat="43.20953" lon="5.48693">
        <ele>193.1</ele>
        <time>2025-10-19T10:52:15Z</time>
      </trkpt>
      <trkpt lat="43.20953" lon="5.48693">
        <ele>193.1</ele>
        <time>2025-10-19T10:52:16Z</time>
      </trkpt>
      <trkpt lat="43.20953" lon="5.48693">
        <ele>193.1</ele>
        <time>2025-10-19T10:52:17Z</time>
      </trkpt>
      <trkpt lat="43.20953" lon="5.48693">
        <ele>193</ele>
        <time>2025-10-19T10:52:18Z</time>
      </trkpt>
      <trkpt lat="43.20953" lon="5.48693">
        <ele>193</ele>
        <time>2025-10-19T10:52:19Z</time>
      </trkpt>
      <trkpt lat="43.20954" lon="5.48693">
        <ele>193</ele>
        <time>2025-10-19T10:52:20Z</time>
      </trkpt>
      <trkpt lat="43.20954" lon="5.48693">
        <ele>193</ele>
        <time>2025-10-19T10:52:21Z</time>
      </trkpt>
      <trkpt lat="43.20954" lon="5.48693">
        <ele>193</ele>
        <time>2025-10-19T10:52:22Z</time>
      </trkpt>
      <trkpt lat="43.20955" lon="5.48693">
        <ele>193</ele>
        <time>2025-10-19T10:52:23Z</time>
      </trkpt>
      <trkpt lat="43.20955" lon="5.48692">
        <ele>193</ele>
        <time>2025-10-19T10:52:24Z</time>
      </trkpt>
      <trkpt lat="43.20956" lon="5.48691">
        <ele>193</ele>
        <time>2025-10-19T10:52:25Z</time>
      </trkpt>
      <trkpt lat="43.20956" lon="5.4869">
        <ele>193.1</ele>
        <time>2025-10-19T10:52:26Z</time>
      </trkpt>
      <trkpt lat="43.20956" lon="5.48689">
        <ele>193.1</ele>
        <time>2025-10-19T10:52:27Z</time>
      </trkpt>
      <trkpt lat="43.20956" lon="5.48689">
        <ele>193.2</ele>
        <time>2025-10-19T10:52:28Z</time>
      </trkpt>
      <trkpt lat="43.20956" lon="5.48688">
        <ele>193.3</ele>
        <time>2025-10-19T10:52:29Z</time>
      </trkpt>
      <trkpt lat="43.20957" lon="5.48688">
        <ele>193.3</ele>
        <time>2025-10-19T10:52:30Z</time>
      </trkpt>
      <trkpt lat="43.20957" lon="5.48688">
        <ele>193.3</ele>
        <time>2025-10-19T10:52:31Z</time>
      </trkpt>
      <trkpt lat="43.20957" lon="5.48688">
        <ele>193.3</ele>
        <time>2025-10-19T10:52:32Z</time>
      </trkpt>
      <trkpt lat="43.20957" lon="5.48688">
        <ele>193.3</ele>
        <time>2025-10-19T10:52:33Z</time>
      </trkpt>
      <trkpt lat="43.20957" lon="5.48688">
        <ele>193.4</ele>
        <time>2025-10-19T10:52:34Z</time>
      </trkpt>
      <trkpt lat="43.20957" lon="5.48688">
        <ele>193.4</ele>
        <time>2025-10-19T10:52:35Z</time>
      </trkpt>
      <trkpt lat="43.20957" lon="5.48688">
        <ele>193.4</ele>
        <time>2025-10-19T10:52:36Z</time>
      </trkpt>
      <trkpt lat="43.20958" lon="5.48689">
        <ele>193.4</ele>
        <time>2025-10-19T10:52:37Z</time>
      </trkpt>
      <trkpt lat="43.20958" lon="5.48689">
        <ele>193.4</ele>
        <time>2025-10-19T10:52:38Z</time>
      </trkpt>
      <trkpt lat="43.20958" lon="5.48689">
        <ele>193.4</ele>
        <time>2025-10-19T10:52:39Z</time>
      </trkpt>
      <trkpt lat="43.20958" lon="5.4869">
        <ele>193.5</ele>
        <time>2025-10-19T10:52:40Z</time>
      </trkpt>
      <trkpt lat="43.20958" lon="5.4869">
        <ele>193.5</ele>
        <time>2025-10-19T10:52:41Z</time>
      </trkpt>
      <trkpt lat="43.20958" lon="5.4869">
        <ele>193.5</ele>
        <time>2025-10-19T10:52:42Z</time>
      </trkpt>
      <trkpt lat="43.20958" lon="5.48689">
        <ele>193.5</ele>
        <time>2025-10-19T10:52:43Z</time>
      </trkpt>
      <trkpt lat="43.20958" lon="5.48688">
        <ele>193.5</ele>
        <time>2025-10-19T10:52:44Z</time>
      </trkpt>
      <trkpt lat="43.20959" lon="5.48687">
        <ele>193.6</ele>
        <time>2025-10-19T10:52:45Z</time>
      </trkpt>
      <trkpt lat="43.20959" lon="5.48686">
        <ele>193.7</ele>
        <time>2025-10-19T10:52:46Z</time>
      </trkpt>
      <trkpt lat="43.20959" lon="5.48685">
        <ele>193.7</ele>
        <time>2025-10-19T10:52:47Z</time>
      </trkpt>
      <trkpt lat="43.20959" lon="5.48684">
        <ele>193.9</ele>
        <time>2025-10-19T10:52:48Z</time>
      </trkpt>
      <trkpt lat="43.20959" lon="5.48683">
        <ele>193.9</ele>
        <time>2025-10-19T10:52:49Z</time>
      </trkpt>
      <trkpt lat="43.20959" lon="5.48682">
        <ele>194</ele>
        <time>2025-10-19T10:52:50Z</time>
      </trkpt>
      <trkpt lat="43.20959" lon="5.48681">
        <ele>194.1</ele>
        <time>2025-10-19T10:52:51Z</time>
      </trkpt>
      <trkpt lat="43.2096" lon="5.4868">
        <ele>194.2</ele>
        <time>2025-10-19T10:52:52Z</time>
      </trkpt>
      <trkpt lat="43.2096" lon="5.48679">
        <ele>194.3</ele>
        <time>2025-10-19T10:52:53Z</time>
      </trkpt>
      <trkpt lat="43.2096" lon="5.48678">
        <ele>194.3</ele>
        <time>2025-10-19T10:52:54Z</time>
      </trkpt>
      <trkpt lat="43.20961" lon="5.48677">
        <ele>194.4</ele>
        <time>2025-10-19T10:52:55Z</time>
      </trkpt>
      <trkpt lat="43.20961" lon="5.48676">
        <ele>194.6</ele>
        <time>2025-10-19T10:52:56Z</time>
      </trkpt>
      <trkpt lat="43.20962" lon="5.48674">
        <ele>194.7</ele>
        <time>2025-10-19T10:52:57Z</time>
      </trkpt>
      <trkpt lat="43.20961" lon="5.48673">
        <ele>195</ele>
        <time>2025-10-19T10:52:58Z</time>
      </trkpt>
      <trkpt lat="43.20961" lon="5.48672">
        <ele>195.3</ele>
        <time>2025-10-19T10:52:59Z</time>
      </trkpt>
      <trkpt lat="43.20961" lon="5.48671">
        <ele>195.5</ele>
        <time>2025-10-19T10:53:00Z</time>
      </trkpt>
      <trkpt lat="43.20961" lon="5.4867">
        <ele>195.5</ele>
        <time>2025-10-19T10:53:01Z</time>
      </trkpt>
      <trkpt lat="43.2096" lon="5.48669">
        <ele>195.6</ele>
        <time>2025-10-19T10:53:02Z</time>
      </trkpt>
      <trkpt lat="43.2096" lon="5.48668">
        <ele>195.8</ele>
        <time>2025-10-19T10:53:03Z</time>
      </trkpt>
      <trkpt lat="43.2096" lon="5.48667">
        <ele>196</ele>
        <time>2025-10-19T10:53:04Z</time>
      </trkpt>
      <trkpt lat="43.20961" lon="5.48666">
        <ele>196.2</ele>
        <time>2025-10-19T10:53:05Z</time>
      </trkpt>
      <trkpt lat="43.20961" lon="5.48665">
        <ele>196.3</ele>
        <time>2025-10-19T10:53:06Z</time>
      </trkpt>
      <trkpt lat="43.20961" lon="5.48664">
        <ele>196.5</ele>
        <time>2025-10-19T10:53:07Z</time>
      </trkpt>
      <trkpt lat="43.20962" lon="5.48663">
        <ele>196.6</ele>
        <time>2025-10-19T10:53:08Z</time>
      </trkpt>
      <trkpt lat="43.20962" lon="5.48662">
        <ele>196.8</ele>
        <time>2025-10-19T10:53:09Z</time>
      </trkpt>
      <trkpt lat="43.20963" lon="5.48661">
        <ele>196.9</ele>
        <time>2025-10-19T10:53:10Z</time>
      </trkpt>
      <trkpt lat="43.20963" lon="5.4866">
        <ele>196.9</ele>
        <time>2025-10-19T10:53:11Z</time>
      </trkpt>
      <trkpt lat="43.20964" lon="5.48659">
        <ele>197.1</ele>
        <time>2025-10-19T10:53:12Z</time>
      </trkpt>
      <trkpt lat="43.20964" lon="5.48658">
        <ele>197.2</ele>
        <time>2025-10-19T10:53:13Z</time>
      </trkpt>
      <trkpt lat="43.20964" lon="5.48658">
        <ele>197.3</ele>
        <time>2025-10-19T10:53:14Z</time>
      </trkpt>
      <trkpt lat="43.20964" lon="5.48656">
        <ele>197.6</ele>
        <time>2025-10-19T10:53:15Z</time>
      </trkpt>
      <trkpt lat="43.20965" lon="5.48655">
        <ele>197.7</ele>
        <time>2025-10-19T10:53:16Z</time>
      </trkpt>
      <trkpt lat="43.20965" lon="5.48654">
        <ele>197.9</ele>
        <time>2025-10-19T10:53:17Z</time>
      </trkpt>
      <trkpt lat="43.20966" lon="5.48653">
        <ele>197.9</ele>
        <time>2025-10-19T10:53:18Z</time>
      </trkpt>
      <trkpt lat="43.20966" lon="5.48652">
        <ele>198.2</ele>
        <time>2025-10-19T10:53:19Z</time>
      </trkpt>
      <trkpt lat="43.20966" lon="5.48652">
        <ele>198.3</ele>
        <time>2025-10-19T10:53:20Z</time>
      </trkpt>
      <trkpt lat="43.20966" lon="5.48651">
        <ele>198.5</ele>
        <time>2025-10-19T10:53:21Z</time>
      </trkpt>
      <trkpt lat="43.20966" lon="5.4865">
        <ele>198.7</ele>
        <time>2025-10-19T10:53:22Z</time>
      </trkpt>
      <trkpt lat="43.20967" lon="5.48648">
        <ele>198.8</ele>
        <time>2025-10-19T10:53:23Z</time>
      </trkpt>
      <trkpt lat="43.20967" lon="5.48647">
        <ele>199</ele>
        <time>2025-10-19T10:53:24Z</time>
      </trkpt>
      <trkpt lat="43.20968" lon="5.48646">
        <ele>199.1</ele>
        <time>2025-10-19T10:53:25Z</time>
      </trkpt>
      <trkpt lat="43.20969" lon="5.48646">
        <ele>199.3</ele>
        <time>2025-10-19T10:53:26Z</time>
      </trkpt>
      <trkpt lat="43.20969" lon="5.48645">
        <ele>199.4</ele>
        <time>2025-10-19T10:53:27Z</time>
      </trkpt>
      <trkpt lat="43.20969" lon="5.48644">
        <ele>199.6</ele>
        <time>2025-10-19T10:53:28Z</time>
      </trkpt>
      <trkpt lat="43.20969" lon="5.48643">
        <ele>199.8</ele>
        <time>2025-10-19T10:53:29Z</time>
      </trkpt>
      <trkpt lat="43.20969" lon="5.48642">
        <ele>200.2</ele>
        <time>2025-10-19T10:53:30Z</time>
      </trkpt>
      <trkpt lat="43.20969" lon="5.48641">
        <ele>200.4</ele>
        <time>2025-10-19T10:53:31Z</time>
      </trkpt>
      <trkpt lat="43.20969" lon="5.48641">
        <ele>200.5</ele>
        <time>2025-10-19T10:53:32Z</time>
      </trkpt>
      <trkpt lat="43.2097" lon="5.4864">
        <ele>200.7</ele>
        <time>2025-10-19T10:53:33Z</time>
      </trkpt>
      <trkpt lat="43.2097" lon="5.48639">
        <ele>200.7</ele>
        <time>2025-10-19T10:53:34Z</time>
      </trkpt>
      <trkpt lat="43.2097" lon="5.48638">
        <ele>200.8</ele>
        <time>2025-10-19T10:53:35Z</time>
      </trkpt>
      <trkpt lat="43.2097" lon="5.48637">
        <ele>201</ele>
        <time>2025-10-19T10:53:36Z</time>
      </trkpt>
      <trkpt lat="43.20971" lon="5.48635">
        <ele>201.1</ele>
        <time>2025-10-19T10:53:37Z</time>
      </trkpt>
      <trkpt lat="43.20971" lon="5.48635">
        <ele>201.2</ele>
        <time>2025-10-19T10:53:38Z</time>
      </trkpt>
      <trkpt lat="43.20971" lon="5.48633">
        <ele>201.4</ele>
        <time>2025-10-19T10:53:39Z</time>
      </trkpt>
      <trkpt lat="43.20972" lon="5.48632">
        <ele>201.5</ele>
        <time>2025-10-19T10:53:40Z</time>
      </trkpt>
      <trkpt lat="43.20972" lon="5.48632">
        <ele>201.7</ele>
        <time>2025-10-19T10:53:41Z</time>
      </trkpt>
      <trkpt lat="43.20972" lon="5.48631">
        <ele>201.9</ele>
        <time>2025-10-19T10:53:42Z</time>
      </trkpt>
      <trkpt lat="43.20972" lon="5.48631">
        <ele>202</ele>
        <time>2025-10-19T10:53:43Z</time>
      </trkpt>
      <trkpt lat="43.20972" lon="5.4863">
        <ele>202.2</ele>
        <time>2025-10-19T10:53:44Z</time>
      </trkpt>
      <trkpt lat="43.20972" lon="5.48629">
        <ele>202.4</ele>
        <time>2025-10-19T10:53:45Z</time>
      </trkpt>
      <trkpt lat="43.20972" lon="5.48628">
        <ele>202.6</ele>
        <time>2025-10-19T10:53:46Z</time>
      </trkpt>
      <trkpt lat="43.20972" lon="5.48627">
        <ele>202.7</ele>
        <time>2025-10-19T10:53:47Z</time>
      </trkpt>
      <trkpt lat="43.20972" lon="5.48625">
        <ele>202.8</ele>
        <time>2025-10-19T10:53:48Z</time>
      </trkpt>
      <trkpt lat="43.20972" lon="5.48623">
        <ele>202.9</ele>
        <time>2025-10-19T10:53:49Z</time>
      </trkpt>
      <trkpt lat="43.20972" lon="5.48622">
        <ele>203.1</ele>
        <time>2025-10-19T10:53:50Z</time>
      </trkpt>
      <trkpt lat="43.20973" lon="5.4862">
        <ele>203.3</ele>
        <time>2025-10-19T10:53:51Z</time>
      </trkpt>
      <trkpt lat="43.20973" lon="5.48619">
        <ele>203.4</ele>
        <time>2025-10-19T10:53:52Z</time>
      </trkpt>
      <trkpt lat="43.20972" lon="5.48618">
        <ele>203.6</ele>
        <time>2025-10-19T10:53:53Z</time>
      </trkpt>
      <trkpt lat="43.20973" lon="5.48617">
        <ele>203.7</ele>
        <time>2025-10-19T10:53:54Z</time>
      </trkpt>
      <trkpt lat="43.20973" lon="5.48616">
        <ele>203.7</ele>
        <time>2025-10-19T10:53:55Z</time>
      </trkpt>
      <trkpt lat="43.20973" lon="5.48615">
        <ele>203.9</ele>
        <time>2025-10-19T10:53:56Z</time>
      </trkpt>
      <trkpt lat="43.20973" lon="5.48614">
        <ele>204.1</ele>
        <time>2025-10-19T10:53:57Z</time>
      </trkpt>
      <trkpt lat="43.20973" lon="5.48613">
        <ele>204.3</ele>
        <time>2025-10-19T10:53:58Z</time>
      </trkpt>
      <trkpt lat="43.20973" lon="5.48613">
        <ele>204.3</ele>
        <time>2025-10-19T10:53:59Z</time>
      </trkpt>
      <trkpt lat="43.20973" lon="5.48612">
        <ele>204.4</ele>
        <time>2025-10-19T10:54:00Z</time>
      </trkpt>
      <trkpt lat="43.20974" lon="5.48611">
        <ele>204.5</ele>
        <time>2025-10-19T10:54:01Z</time>
      </trkpt>
      <trkpt lat="43.20974" lon="5.4861">
        <ele>204.7</ele>
        <time>2025-10-19T10:54:02Z</time>
      </trkpt>
      <trkpt lat="43.20975" lon="5.48609">
        <ele>204.8</ele>
        <time>2025-10-19T10:54:03Z</time>
      </trkpt>
      <trkpt lat="43.20975" lon="5.48608">
        <ele>205.1</ele>
        <time>2025-10-19T10:54:04Z</time>
      </trkpt>
      <trkpt lat="43.20975" lon="5.48607">
        <ele>205.2</ele>
        <time>2025-10-19T10:54:05Z</time>
      </trkpt>
      <trkpt lat="43.20976" lon="5.48605">
        <ele>205.4</ele>
        <time>2025-10-19T10:54:06Z</time>
      </trkpt>
      <trkpt lat="43.20976" lon="5.48604">
        <ele>205.6</ele>
        <time>2025-10-19T10:54:07Z</time>
      </trkpt>
      <trkpt lat="43.20976" lon="5.48603">
        <ele>205.7</ele>
        <time>2025-10-19T10:54:08Z</time>
      </trkpt>
      <trkpt lat="43.20977" lon="5.48602">
        <ele>205.8</ele>
        <time>2025-10-19T10:54:09Z</time>
      </trkpt>
      <trkpt lat="43.20977" lon="5.48601">
        <ele>206</ele>
        <time>2025-10-19T10:54:10Z</time>
      </trkpt>
      <trkpt lat="43.20977" lon="5.48599">
        <ele>206.1</ele>
        <time>2025-10-19T10:54:11Z</time>
      </trkpt>
      <trkpt lat="43.20978" lon="5.48599">
        <ele>206.2</ele>
        <time>2025-10-19T10:54:12Z</time>
      </trkpt>
      <trkpt lat="43.20979" lon="5.48597">
        <ele>206.4</ele>
        <time>2025-10-19T10:54:13Z</time>
      </trkpt>
      <trkpt lat="43.20979" lon="5.48597">
        <ele>206.5</ele>
        <time>2025-10-19T10:54:14Z</time>
      </trkpt>
      <trkpt lat="43.20979" lon="5.48596">
        <ele>206.8</ele>
        <time>2025-10-19T10:54:15Z</time>
      </trkpt>
      <trkpt lat="43.20979" lon="5.48595">
        <ele>206.9</ele>
        <time>2025-10-19T10:54:16Z</time>
      </trkpt>
      <trkpt lat="43.2098" lon="5.48594">
        <ele>207.1</ele>
        <time>2025-10-19T10:54:17Z</time>
      </trkpt>
      <trkpt lat="43.20979" lon="5.48593">
        <ele>207.3</ele>
        <time>2025-10-19T10:54:18Z</time>
      </trkpt>
      <trkpt lat="43.2098" lon="5.48592">
        <ele>207.3</ele>
        <time>2025-10-19T10:54:19Z</time>
      </trkpt>
      <trkpt lat="43.2098" lon="5.48591">
        <ele>207.4</ele>
        <time>2025-10-19T10:54:20Z</time>
      </trkpt>
      <trkpt lat="43.2098" lon="5.4859">
        <ele>207.6</ele>
        <time>2025-10-19T10:54:21Z</time>
      </trkpt>
      <trkpt lat="43.2098" lon="5.48589">
        <ele>207.8</ele>
        <time>2025-10-19T10:54:22Z</time>
      </trkpt>
      <trkpt lat="43.20981" lon="5.48588">
        <ele>208</ele>
        <time>2025-10-19T10:54:23Z</time>
      </trkpt>
      <trkpt lat="43.20981" lon="5.48588">
        <ele>208.2</ele>
        <time>2025-10-19T10:54:24Z</time>
      </trkpt>
      <trkpt lat="43.20982" lon="5.48586">
        <ele>208.4</ele>
        <time>2025-10-19T10:54:25Z</time>
      </trkpt>
      <trkpt lat="43.20983" lon="5.48585">
        <ele>208.4</ele>
        <time>2025-10-19T10:54:26Z</time>
      </trkpt>
      <trkpt lat="43.20983" lon="5.48584">
        <ele>208.5</ele>
        <time>2025-10-19T10:54:27Z</time>
      </trkpt>
      <trkpt lat="43.20984" lon="5.48583">
        <ele>208.6</ele>
        <time>2025-10-19T10:54:28Z</time>
      </trkpt>
      <trkpt lat="43.20984" lon="5.48582">
        <ele>208.9</ele>
        <time>2025-10-19T10:54:29Z</time>
      </trkpt>
      <trkpt lat="43.20985" lon="5.48581">
        <ele>209.2</ele>
        <time>2025-10-19T10:54:30Z</time>
      </trkpt>
      <trkpt lat="43.20986" lon="5.4858">
        <ele>209.4</ele>
        <time>2025-10-19T10:54:31Z</time>
      </trkpt>
      <trkpt lat="43.20987" lon="5.4858">
        <ele>209.5</ele>
        <time>2025-10-19T10:54:32Z</time>
      </trkpt>
      <trkpt lat="43.20987" lon="5.48579">
        <ele>209.7</ele>
        <time>2025-10-19T10:54:33Z</time>
      </trkpt>
      <trkpt lat="43.20988" lon="5.48578">
        <ele>209.9</ele>
        <time>2025-10-19T10:54:34Z</time>
      </trkpt>
      <trkpt lat="43.20988" lon="5.48578">
        <ele>210.1</ele>
        <time>2025-10-19T10:54:35Z</time>
      </trkpt>
      <trkpt lat="43.20989" lon="5.48577">
        <ele>210.2</ele>
        <time>2025-10-19T10:54:36Z</time>
      </trkpt>
      <trkpt lat="43.20989" lon="5.48577">
        <ele>210.4</ele>
        <time>2025-10-19T10:54:37Z</time>
      </trkpt>
      <trkpt lat="43.2099" lon="5.48576">
        <ele>210.5</ele>
        <time>2025-10-19T10:54:38Z</time>
      </trkpt>
      <trkpt lat="43.2099" lon="5.48576">
        <ele>210.6</ele>
        <time>2025-10-19T10:54:39Z</time>
      </trkpt>
      <trkpt lat="43.20991" lon="5.48575">
        <ele>210.7</ele>
        <time>2025-10-19T10:54:40Z</time>
      </trkpt>
      <trkpt lat="43.20991" lon="5.48574">
        <ele>210.8</ele>
        <time>2025-10-19T10:54:41Z</time>
      </trkpt>
      <trkpt lat="43.20991" lon="5.48573">
        <ele>210.9</ele>
        <time>2025-10-19T10:54:42Z</time>
      </trkpt>
      <trkpt lat="43.20992" lon="5.48572">
        <ele>211</ele>
        <time>2025-10-19T10:54:43Z</time>
      </trkpt>
      <trkpt lat="43.20992" lon="5.48572">
        <ele>211.2</ele>
        <time>2025-10-19T10:54:44Z</time>
      </trkpt>
      <trkpt lat="43.20993" lon="5.48572">
        <ele>211.3</ele>
        <time>2025-10-19T10:54:45Z</time>
      </trkpt>
      <trkpt lat="43.20994" lon="5.48571">
        <ele>211.5</ele>
        <time>2025-10-19T10:54:46Z</time>
      </trkpt>
      <trkpt lat="43.20994" lon="5.4857">
        <ele>211.6</ele>
        <time>2025-10-19T10:54:47Z</time>
      </trkpt>
      <trkpt lat="43.20995" lon="5.4857">
        <ele>211.8</ele>
        <time>2025-10-19T10:54:48Z</time>
      </trkpt>
      <trkpt lat="43.20996" lon="5.48569">
        <ele>212</ele>
        <time>2025-10-19T10:54:49Z</time>
      </trkpt>
      <trkpt lat="43.20997" lon="5.48567">
        <ele>212.2</ele>
        <time>2025-10-19T10:54:50Z</time>
      </trkpt>
      <trkpt lat="43.20998" lon="5.48566">
        <ele>212.3</ele>
        <time>2025-10-19T10:54:51Z</time>
      </trkpt>
      <trkpt lat="43.20998" lon="5.48565">
        <ele>212.5</ele>
        <time>2025-10-19T10:54:52Z</time>
      </trkpt>
      <trkpt lat="43.20999" lon="5.48564">
        <ele>212.6</ele>
        <time>2025-10-19T10:54:53Z</time>
      </trkpt>
      <trkpt lat="43.20999" lon="5.48562">
        <ele>212.8</ele>
        <time>2025-10-19T10:54:54Z</time>
      </trkpt>
      <trkpt lat="43.21" lon="5.48561">
        <ele>213</ele>
        <time>2025-10-19T10:54:55Z</time>
      </trkpt>
      <trkpt lat="43.21001" lon="5.48561">
        <ele>213.2</ele>
        <time>2025-10-19T10:54:56Z</time>
      </trkpt>
      <trkpt lat="43.21001" lon="5.4856">
        <ele>213.3</ele>
        <time>2025-10-19T10:54:57Z</time>
      </trkpt>
      <trkpt lat="43.21002" lon="5.48559">
        <ele>213.4</ele>
        <time>2025-10-19T10:54:58Z</time>
      </trkpt>
      <trkpt lat="43.21002" lon="5.48559">
        <ele>213.7</ele>
        <time>2025-10-19T10:54:59Z</time>
      </trkpt>
      <trkpt lat="43.21002" lon="5.48558">
        <ele>213.9</ele>
        <time>2025-10-19T10:55:00Z</time>
      </trkpt>
      <trkpt lat="43.21003" lon="5.48558">
        <ele>214.1</ele>
        <time>2025-10-19T10:55:01Z</time>
      </trkpt>
      <trkpt lat="43.21003" lon="5.48557">
        <ele>214.2</ele>
        <time>2025-10-19T10:55:02Z</time>
      </trkpt>
      <trkpt lat="43.21004" lon="5.48557">
        <ele>214.3</ele>
        <time>2025-10-19T10:55:03Z</time>
      </trkpt>
      <trkpt lat="43.21004" lon="5.48556">
        <ele>214.3</ele>
        <time>2025-10-19T10:55:04Z</time>
      </trkpt>
      <trkpt lat="43.21005" lon="5.48555">
        <ele>214.4</ele>
        <time>2025-10-19T10:55:05Z</time>
      </trkpt>
      <trkpt lat="43.21006" lon="5.48555">
        <ele>214.6</ele>
        <time>2025-10-19T10:55:06Z</time>
      </trkpt>
      <trkpt lat="43.21007" lon="5.48554">
        <ele>214.7</ele>
        <time>2025-10-19T10:55:07Z</time>
      </trkpt>
      <trkpt lat="43.21007" lon="5.48554">
        <ele>214.8</ele>
        <time>2025-10-19T10:55:08Z</time>
      </trkpt>
      <trkpt lat="43.21008" lon="5.48552">
        <ele>215</ele>
        <time>2025-10-19T10:55:09Z</time>
      </trkpt>
      <trkpt lat="43.21009" lon="5.48551">
        <ele>215.2</ele>
        <time>2025-10-19T10:55:10Z</time>
      </trkpt>
      <trkpt lat="43.2101" lon="5.4855">
        <ele>215.3</ele>
        <time>2025-10-19T10:55:11Z</time>
      </trkpt>
      <trkpt lat="43.2101" lon="5.48549">
        <ele>215.5</ele>
        <time>2025-10-19T10:55:12Z</time>
      </trkpt>
      <trkpt lat="43.21011" lon="5.48548">
        <ele>215.6</ele>
        <time>2025-10-19T10:55:13Z</time>
      </trkpt>
      <trkpt lat="43.21012" lon="5.48548">
        <ele>215.7</ele>
        <time>2025-10-19T10:55:14Z</time>
      </trkpt>
      <trkpt lat="43.21012" lon="5.48546">
        <ele>215.7</ele>
        <time>2025-10-19T10:55:15Z</time>
      </trkpt>
      <trkpt lat="43.21013" lon="5.48545">
        <ele>216.1</ele>
        <time>2025-10-19T10:55:16Z</time>
      </trkpt>
      <trkpt lat="43.21014" lon="5.48544">
        <ele>216.3</ele>
        <time>2025-10-19T10:55:17Z</time>
      </trkpt>
      <trkpt lat="43.21014" lon="5.48543">
        <ele>216.5</ele>
        <time>2025-10-19T10:55:18Z</time>
      </trkpt>
      <trkpt lat="43.21015" lon="5.48542">
        <ele>216.7</ele>
        <time>2025-10-19T10:55:19Z</time>
      </trkpt>
      <trkpt lat="43.21016" lon="5.48541">
        <ele>216.8</ele>
        <time>2025-10-19T10:55:20Z</time>
      </trkpt>
      <trkpt lat="43.21016" lon="5.4854">
        <ele>216.9</ele>
        <time>2025-10-19T10:55:21Z</time>
      </trkpt>
      <trkpt lat="43.21017" lon="5.48539">
        <ele>217.2</ele>
        <time>2025-10-19T10:55:22Z</time>
      </trkpt>
      <trkpt lat="43.21018" lon="5.48538">
        <ele>217.3</ele>
        <time>2025-10-19T10:55:23Z</time>
      </trkpt>
      <trkpt lat="43.21018" lon="5.48536">
        <ele>217.5</ele>
        <time>2025-10-19T10:55:24Z</time>
      </trkpt>
      <trkpt lat="43.21019" lon="5.48535">
        <ele>217.6</ele>
        <time>2025-10-19T10:55:25Z</time>
      </trkpt>
      <trkpt lat="43.2102" lon="5.48534">
        <ele>217.7</ele>
        <time>2025-10-19T10:55:26Z</time>
      </trkpt>
      <trkpt lat="43.2102" lon="5.48532">
        <ele>217.8</ele>
        <time>2025-10-19T10:55:27Z</time>
      </trkpt>
      <trkpt lat="43.21021" lon="5.48531">
        <ele>217.8</ele>
        <time>2025-10-19T10:55:28Z</time>
      </trkpt>
      <trkpt lat="43.21021" lon="5.4853">
        <ele>218</ele>
        <time>2025-10-19T10:55:29Z</time>
      </trkpt>
      <trkpt lat="43.21022" lon="5.48529">
        <ele>218.2</ele>
        <time>2025-10-19T10:55:30Z</time>
      </trkpt>
      <trkpt lat="43.21023" lon="5.48528">
        <ele>218.3</ele>
        <time>2025-10-19T10:55:31Z</time>
      </trkpt>
      <trkpt lat="43.21023" lon="5.48526">
        <ele>218.4</ele>
        <time>2025-10-19T10:55:32Z</time>
      </trkpt>
      <trkpt lat="43.21024" lon="5.48525">
        <ele>218.5</ele>
        <time>2025-10-19T10:55:33Z</time>
      </trkpt>
      <trkpt lat="43.21024" lon="5.48524">
        <ele>218.6</ele>
        <time>2025-10-19T10:55:34Z</time>
      </trkpt>
      <trkpt lat="43.21025" lon="5.48523">
        <ele>218.8</ele>
        <time>2025-10-19T10:55:35Z</time>
      </trkpt>
      <trkpt lat="43.21026" lon="5.48522">
        <ele>219</ele>
        <time>2025-10-19T10:55:36Z</time>
      </trkpt>
      <trkpt lat="43.21026" lon="5.48521">
        <ele>219</ele>
        <time>2025-10-19T10:55:37Z</time>
      </trkpt>
      <trkpt lat="43.21026" lon="5.48519">
        <ele>219.2</ele>
        <time>2025-10-19T10:55:38Z</time>
      </trkpt>
      <trkpt lat="43.21027" lon="5.48517">
        <ele>219.3</ele>
        <time>2025-10-19T10:55:39Z</time>
      </trkpt>
      <trkpt lat="43.21027" lon="5.48516">
        <ele>219.5</ele>
        <time>2025-10-19T10:55:40Z</time>
      </trkpt>
      <trkpt lat="43.21027" lon="5.48515">
        <ele>219.8</ele>
        <time>2025-10-19T10:55:41Z</time>
      </trkpt>
      <trkpt lat="43.21027" lon="5.48514">
        <ele>219.9</ele>
        <time>2025-10-19T10:55:42Z</time>
      </trkpt>
      <trkpt lat="43.21027" lon="5.48513">
        <ele>220</ele>
        <time>2025-10-19T10:55:43Z</time>
      </trkpt>
      <trkpt lat="43.21028" lon="5.48511">
        <ele>220.1</ele>
        <time>2025-10-19T10:55:44Z</time>
      </trkpt>
      <trkpt lat="43.21028" lon="5.4851">
        <ele>220.2</ele>
        <time>2025-10-19T10:55:45Z</time>
      </trkpt>
      <trkpt lat="43.21029" lon="5.48509">
        <ele>220.4</ele>
        <time>2025-10-19T10:55:46Z</time>
      </trkpt>
      <trkpt lat="43.21029" lon="5.48508">
        <ele>220.6</ele>
        <time>2025-10-19T10:55:47Z</time>
      </trkpt>
      <trkpt lat="43.21029" lon="5.48507">
        <ele>220.7</ele>
        <time>2025-10-19T10:55:48Z</time>
      </trkpt>
      <trkpt lat="43.2103" lon="5.48505">
        <ele>220.8</ele>
        <time>2025-10-19T10:55:49Z</time>
      </trkpt>
      <trkpt lat="43.2103" lon="5.48504">
        <ele>220.9</ele>
        <time>2025-10-19T10:55:50Z</time>
      </trkpt>
      <trkpt lat="43.2103" lon="5.48503">
        <ele>221</ele>
        <time>2025-10-19T10:55:51Z</time>
      </trkpt>
      <trkpt lat="43.21031" lon="5.48502">
        <ele>221.1</ele>
        <time>2025-10-19T10:55:52Z</time>
      </trkpt>
      <trkpt lat="43.21031" lon="5.48501">
        <ele>221.2</ele>
        <time>2025-10-19T10:55:53Z</time>
      </trkpt>
      <trkpt lat="43.21031" lon="5.485">
        <ele>221.3</ele>
        <time>2025-10-19T10:55:54Z</time>
      </trkpt>
      <trkpt lat="43.21032" lon="5.48498">
        <ele>221.4</ele>
        <time>2025-10-19T10:55:55Z</time>
      </trkpt>
      <trkpt lat="43.21032" lon="5.48497">
        <ele>221.7</ele>
        <time>2025-10-19T10:55:56Z</time>
      </trkpt>
      <trkpt lat="43.21032" lon="5.48496">
        <ele>221.9</ele>
        <time>2025-10-19T10:55:57Z</time>
      </trkpt>
      <trkpt lat="43.21033" lon="5.48494">
        <ele>222</ele>
        <time>2025-10-19T10:55:58Z</time>
      </trkpt>
      <trkpt lat="43.21033" lon="5.48493">
        <ele>222.2</ele>
        <time>2025-10-19T10:55:59Z</time>
      </trkpt>
      <trkpt lat="43.21034" lon="5.48492">
        <ele>222.3</ele>
        <time>2025-10-19T10:56:00Z</time>
      </trkpt>
      <trkpt lat="43.21034" lon="5.48491">
        <ele>222.5</ele>
        <time>2025-10-19T10:56:01Z</time>
      </trkpt>
      <trkpt lat="43.21035" lon="5.4849">
        <ele>222.7</ele>
        <time>2025-10-19T10:56:02Z</time>
      </trkpt>
      <trkpt lat="43.21035" lon="5.48489">
        <ele>222.7</ele>
        <time>2025-10-19T10:56:03Z</time>
      </trkpt>
      <trkpt lat="43.21036" lon="5.48488">
        <ele>222.8</ele>
        <time>2025-10-19T10:56:04Z</time>
      </trkpt>
      <trkpt lat="43.21037" lon="5.48487">
        <ele>222.9</ele>
        <time>2025-10-19T10:56:05Z</time>
      </trkpt>
      <trkpt lat="43.21037" lon="5.48486">
        <ele>223</ele>
        <time>2025-10-19T10:56:06Z</time>
      </trkpt>
      <trkpt lat="43.21038" lon="5.48485">
        <ele>223.1</ele>
        <time>2025-10-19T10:56:07Z</time>
      </trkpt>
      <trkpt lat="43.21038" lon="5.48483">
        <ele>223.2</ele>
        <time>2025-10-19T10:56:08Z</time>
      </trkpt>
      <trkpt lat="43.21039" lon="5.48482">
        <ele>223.3</ele>
        <time>2025-10-19T10:56:09Z</time>
      </trkpt>
      <trkpt lat="43.21039" lon="5.48481">
        <ele>223.4</ele>
        <time>2025-10-19T10:56:10Z</time>
      </trkpt>
      <trkpt lat="43.21039" lon="5.4848">
        <ele>223.5</ele>
        <time>2025-10-19T10:56:11Z</time>
      </trkpt>
      <trkpt lat="43.2104" lon="5.48478">
        <ele>223.7</ele>
        <time>2025-10-19T10:56:12Z</time>
      </trkpt>
      <trkpt lat="43.2104" lon="5.48477">
        <ele>223.8</ele>
        <time>2025-10-19T10:56:13Z</time>
      </trkpt>
      <trkpt lat="43.2104" lon="5.48476">
        <ele>224</ele>
        <time>2025-10-19T10:56:14Z</time>
      </trkpt>
      <trkpt lat="43.2104" lon="5.48474">
        <ele>224.2</ele>
        <time>2025-10-19T10:56:15Z</time>
      </trkpt>
      <trkpt lat="43.2104" lon="5.48473">
        <ele>224.5</ele>
        <time>2025-10-19T10:56:16Z</time>
      </trkpt>
      <trkpt lat="43.2104" lon="5.48472">
        <ele>224.7</ele>
        <time>2025-10-19T10:56:17Z</time>
      </trkpt>
      <trkpt lat="43.2104" lon="5.4847">
        <ele>224.8</ele>
        <time>2025-10-19T10:56:18Z</time>
      </trkpt>
      <trkpt lat="43.2104" lon="5.48469">
        <ele>225</ele>
        <time>2025-10-19T10:56:19Z</time>
      </trkpt>
      <trkpt lat="43.2104" lon="5.48467">
        <ele>225.1</ele>
        <time>2025-10-19T10:56:20Z</time>
      </trkpt>
      <trkpt lat="43.2104" lon="5.48466">
        <ele>225.3</ele>
        <time>2025-10-19T10:56:21Z</time>
      </trkpt>
      <trkpt lat="43.2104" lon="5.48465">
        <ele>225.4</ele>
        <time>2025-10-19T10:56:22Z</time>
      </trkpt>
      <trkpt lat="43.2104" lon="5.48464">
        <ele>225.5</ele>
        <time>2025-10-19T10:56:23Z</time>
      </trkpt>
      <trkpt lat="43.2104" lon="5.48462">
        <ele>225.6</ele>
        <time>2025-10-19T10:56:24Z</time>
      </trkpt>
      <trkpt lat="43.2104" lon="5.48461">
        <ele>225.7</ele>
        <time>2025-10-19T10:56:25Z</time>
      </trkpt>
      <trkpt lat="43.21041" lon="5.4846">
        <ele>225.8</ele>
        <time>2025-10-19T10:56:26Z</time>
      </trkpt>
      <trkpt lat="43.2104" lon="5.48459">
        <ele>225.8</ele>
        <time>2025-10-19T10:56:27Z</time>
      </trkpt>
      <trkpt lat="43.21041" lon="5.48457">
        <ele>225.9</ele>
        <time>2025-10-19T10:56:28Z</time>
      </trkpt>
      <trkpt lat="43.21041" lon="5.48456">
        <ele>226</ele>
        <time>2025-10-19T10:56:29Z</time>
      </trkpt>
      <trkpt lat="43.21041" lon="5.48455">
        <ele>226.1</ele>
        <time>2025-10-19T10:56:30Z</time>
      </trkpt>
      <trkpt lat="43.2104" lon="5.48454">
        <ele>226.2</ele>
        <time>2025-10-19T10:56:31Z</time>
      </trkpt>
      <trkpt lat="43.2104" lon="5.48452">
        <ele>226.4</ele>
        <time>2025-10-19T10:56:32Z</time>
      </trkpt>
      <trkpt lat="43.2104" lon="5.48451">
        <ele>226.5</ele>
        <time>2025-10-19T10:56:33Z</time>
      </trkpt>
      <trkpt lat="43.21041" lon="5.48449">
        <ele>226.5</ele>
        <time>2025-10-19T10:56:34Z</time>
      </trkpt>
      <trkpt lat="43.21041" lon="5.48448">
        <ele>226.6</ele>
        <time>2025-10-19T10:56:35Z</time>
      </trkpt>
      <trkpt lat="43.21041" lon="5.48446">
        <ele>226.7</ele>
        <time>2025-10-19T10:56:36Z</time>
      </trkpt>
      <trkpt lat="43.21041" lon="5.48445">
        <ele>226.8</ele>
        <time>2025-10-19T10:56:37Z</time>
      </trkpt>
      <trkpt lat="43.21041" lon="5.48444">
        <ele>227</ele>
        <time>2025-10-19T10:56:38Z</time>
      </trkpt>
      <trkpt lat="43.21041" lon="5.48442">
        <ele>227.1</ele>
        <time>2025-10-19T10:56:39Z</time>
      </trkpt>
      <trkpt lat="43.21041" lon="5.48441">
        <ele>227.2</ele>
        <time>2025-10-19T10:56:40Z</time>
      </trkpt>
      <trkpt lat="43.21041" lon="5.48439">
        <ele>227.3</ele>
        <time>2025-10-19T10:56:41Z</time>
      </trkpt>
      <trkpt lat="43.21042" lon="5.48438">
        <ele>227.4</ele>
        <time>2025-10-19T10:56:42Z</time>
      </trkpt>
      <trkpt lat="43.21042" lon="5.48436">
        <ele>227.5</ele>
        <time>2025-10-19T10:56:43Z</time>
      </trkpt>
      <trkpt lat="43.21041" lon="5.48434">
        <ele>227.6</ele>
        <time>2025-10-19T10:56:44Z</time>
      </trkpt>
      <trkpt lat="43.21041" lon="5.48433">
        <ele>227.7</ele>
        <time>2025-10-19T10:56:45Z</time>
      </trkpt>
      <trkpt lat="43.2104" lon="5.48431">
        <ele>227.8</ele>
        <time>2025-10-19T10:56:46Z</time>
      </trkpt>
      <trkpt lat="43.2104" lon="5.4843">
        <ele>227.9</ele>
        <time>2025-10-19T10:56:47Z</time>
      </trkpt>
      <trkpt lat="43.2104" lon="5.48428">
        <ele>228</ele>
        <time>2025-10-19T10:56:48Z</time>
      </trkpt>
      <trkpt lat="43.21039" lon="5.48427">
        <ele>228</ele>
        <time>2025-10-19T10:56:49Z</time>
      </trkpt>
      <trkpt lat="43.21039" lon="5.48425">
        <ele>228.1</ele>
        <time>2025-10-19T10:56:50Z</time>
      </trkpt>
      <trkpt lat="43.21038" lon="5.48424">
        <ele>228.2</ele>
        <time>2025-10-19T10:56:51Z</time>
      </trkpt>
      <trkpt lat="43.21038" lon="5.48423">
        <ele>228.3</ele>
        <time>2025-10-19T10:56:52Z</time>
      </trkpt>
      <trkpt lat="43.21037" lon="5.48422">
        <ele>228.3</ele>
        <time>2025-10-19T10:56:53Z</time>
      </trkpt>
      <trkpt lat="43.21037" lon="5.4842">
        <ele>228.4</ele>
        <time>2025-10-19T10:56:54Z</time>
      </trkpt>
      <trkpt lat="43.21036" lon="5.48419">
        <ele>228.4</ele>
        <time>2025-10-19T10:56:55Z</time>
      </trkpt>
      <trkpt lat="43.21036" lon="5.48417">
        <ele>228.3</ele>
        <time>2025-10-19T10:56:56Z</time>
      </trkpt>
      <trkpt lat="43.21035" lon="5.48416">
        <ele>228.3</ele>
        <time>2025-10-19T10:56:57Z</time>
      </trkpt>
      <trkpt lat="43.21034" lon="5.48414">
        <ele>228.2</ele>
        <time>2025-10-19T10:56:58Z</time>
      </trkpt>
      <trkpt lat="43.21034" lon="5.48413">
        <ele>228.2</ele>
        <time>2025-10-19T10:56:59Z</time>
      </trkpt>
      <trkpt lat="43.21033" lon="5.48411">
        <ele>228.1</ele>
        <time>2025-10-19T10:57:00Z</time>
      </trkpt>
      <trkpt lat="43.21033" lon="5.4841">
        <ele>228.1</ele>
        <time>2025-10-19T10:57:01Z</time>
      </trkpt>
      <trkpt lat="43.21033" lon="5.48408">
        <ele>228.1</ele>
        <time>2025-10-19T10:57:02Z</time>
      </trkpt>
      <trkpt lat="43.21033" lon="5.48407">
        <ele>227.9</ele>
        <time>2025-10-19T10:57:03Z</time>
      </trkpt>
      <trkpt lat="43.21032" lon="5.48405">
        <ele>227.8</ele>
        <time>2025-10-19T10:57:04Z</time>
      </trkpt>
      <trkpt lat="43.21032" lon="5.48404">
        <ele>227.7</ele>
        <time>2025-10-19T10:57:05Z</time>
      </trkpt>
      <trkpt lat="43.21031" lon="5.48403">
        <ele>227.7</ele>
        <time>2025-10-19T10:57:06Z</time>
      </trkpt>
      <trkpt lat="43.2103" lon="5.48401">
        <ele>227.6</ele>
        <time>2025-10-19T10:57:07Z</time>
      </trkpt>
      <trkpt lat="43.2103" lon="5.484">
        <ele>227.6</ele>
        <time>2025-10-19T10:57:08Z</time>
      </trkpt>
      <trkpt lat="43.21029" lon="5.48399">
        <ele>227.6</ele>
        <time>2025-10-19T10:57:09Z</time>
      </trkpt>
      <trkpt lat="43.21029" lon="5.48398">
        <ele>227.6</ele>
        <time>2025-10-19T10:57:10Z</time>
      </trkpt>
      <trkpt lat="43.21029" lon="5.48397">
        <ele>227.5</ele>
        <time>2025-10-19T10:57:11Z</time>
      </trkpt>
      <trkpt lat="43.21028" lon="5.48396">
        <ele>227.6</ele>
        <time>2025-10-19T10:57:12Z</time>
      </trkpt>
      <trkpt lat="43.21028" lon="5.48395">
        <ele>227.5</ele>
        <time>2025-10-19T10:57:13Z</time>
      </trkpt>
      <trkpt lat="43.21028" lon="5.48394">
        <ele>227.4</ele>
        <time>2025-10-19T10:57:14Z</time>
      </trkpt>
      <trkpt lat="43.21028" lon="5.48393">
        <ele>227.4</ele>
        <time>2025-10-19T10:57:15Z</time>
      </trkpt>
      <trkpt lat="43.21028" lon="5.48393">
        <ele>227.4</ele>
        <time>2025-10-19T10:57:16Z</time>
      </trkpt>
      <trkpt lat="43.21028" lon="5.48392">
        <ele>227.3</ele>
        <time>2025-10-19T10:57:17Z</time>
      </trkpt>
      <trkpt lat="43.21028" lon="5.48392">
        <ele>227.3</ele>
        <time>2025-10-19T10:57:18Z</time>
      </trkpt>
      <trkpt lat="43.21028" lon="5.48392">
        <ele>227.3</ele>
        <time>2025-10-19T10:57:19Z</time>
      </trkpt>
      <trkpt lat="43.21028" lon="5.48392">
        <ele>227.2</ele>
        <time>2025-10-19T10:57:20Z</time>
      </trkpt>
      <trkpt lat="43.21028" lon="5.48391">
        <ele>227.1</ele>
        <time>2025-10-19T10:57:21Z</time>
      </trkpt>
      <trkpt lat="43.21027" lon="5.4839">
        <ele>227</ele>
        <time>2025-10-19T10:57:22Z</time>
      </trkpt>
      <trkpt lat="43.21027" lon="5.48389">
        <ele>227</ele>
        <time>2025-10-19T10:57:23Z</time>
      </trkpt>
      <trkpt lat="43.21026" lon="5.48388">
        <ele>227</ele>
        <time>2025-10-19T10:57:24Z</time>
      </trkpt>
      <trkpt lat="43.21026" lon="5.48386">
        <ele>226.8</ele>
        <time>2025-10-19T10:57:25Z</time>
      </trkpt>
      <trkpt lat="43.21026" lon="5.48385">
        <ele>226.7</ele>
        <time>2025-10-19T10:57:26Z</time>
      </trkpt>
      <trkpt lat="43.21025" lon="5.48384">
        <ele>226.7</ele>
        <time>2025-10-19T10:57:27Z</time>
      </trkpt>
      <trkpt lat="43.21025" lon="5.48383">
        <ele>226.7</ele>
        <time>2025-10-19T10:57:28Z</time>
      </trkpt>
      <trkpt lat="43.21025" lon="5.48382">
        <ele>226.7</ele>
        <time>2025-10-19T10:57:29Z</time>
      </trkpt>
      <trkpt lat="43.21025" lon="5.48381">
        <ele>226.9</ele>
        <time>2025-10-19T10:57:30Z</time>
      </trkpt>
      <trkpt lat="43.21025" lon="5.48379">
        <ele>226.9</ele>
        <time>2025-10-19T10:57:31Z</time>
      </trkpt>
      <trkpt lat="43.21025" lon="5.48378">
        <ele>226.8</ele>
        <time>2025-10-19T10:57:32Z</time>
      </trkpt>
      <trkpt lat="43.21025" lon="5.48376">
        <ele>226.8</ele>
        <time>2025-10-19T10:57:33Z</time>
      </trkpt>
      <trkpt lat="43.21025" lon="5.48375">
        <ele>226.7</ele>
        <time>2025-10-19T10:57:34Z</time>
      </trkpt>
      <trkpt lat="43.21025" lon="5.48374">
        <ele>226.7</ele>
        <time>2025-10-19T10:57:35Z</time>
      </trkpt>
      <trkpt lat="43.21025" lon="5.48372">
        <ele>226.4</ele>
        <time>2025-10-19T10:57:36Z</time>
      </trkpt>
      <trkpt lat="43.21024" lon="5.48371">
        <ele>226.3</ele>
        <time>2025-10-19T10:57:37Z</time>
      </trkpt>
      <trkpt lat="43.21024" lon="5.4837">
        <ele>226.1</ele>
        <time>2025-10-19T10:57:38Z</time>
      </trkpt>
      <trkpt lat="43.21024" lon="5.4837">
        <ele>226</ele>
        <time>2025-10-19T10:57:39Z</time>
      </trkpt>
      <trkpt lat="43.21024" lon="5.48369">
        <ele>225.9</ele>
        <time>2025-10-19T10:57:40Z</time>
      </trkpt>
      <trkpt lat="43.21024" lon="5.48368">
        <ele>225.8</ele>
        <time>2025-10-19T10:57:41Z</time>
      </trkpt>
      <trkpt lat="43.21024" lon="5.48368">
        <ele>225.8</ele>
        <time>2025-10-19T10:57:42Z</time>
      </trkpt>
      <trkpt lat="43.21024" lon="5.48368">
        <ele>225.8</ele>
        <time>2025-10-19T10:57:43Z</time>
      </trkpt>
      <trkpt lat="43.21025" lon="5.48367">
        <ele>225.7</ele>
        <time>2025-10-19T10:57:44Z</time>
      </trkpt>
      <trkpt lat="43.21025" lon="5.48367">
        <ele>225.7</ele>
        <time>2025-10-19T10:57:45Z</time>
      </trkpt>
      <trkpt lat="43.21024" lon="5.48367">
        <ele>225.7</ele>
        <time>2025-10-19T10:57:46Z</time>
      </trkpt>
      <trkpt lat="43.21024" lon="5.48367">
        <ele>225.7</ele>
        <time>2025-10-19T10:57:47Z</time>
      </trkpt>
      <trkpt lat="43.21025" lon="5.48367">
        <ele>225.7</ele>
        <time>2025-10-19T10:57:48Z</time>
      </trkpt>
      <trkpt lat="43.21025" lon="5.48367">
        <ele>225.7</ele>
        <time>2025-10-19T10:57:49Z</time>
      </trkpt>
      <trkpt lat="43.21025" lon="5.48367">
        <ele>225.7</ele>
        <time>2025-10-19T10:57:50Z</time>
      </trkpt>
      <trkpt lat="43.21025" lon="5.48367">
        <ele>225.8</ele>
        <time>2025-10-19T10:57:51Z</time>
      </trkpt>
      <trkpt lat="43.21025" lon="5.48367">
        <ele>225.7</ele>
        <time>2025-10-19T10:57:52Z</time>
      </trkpt>
      <trkpt lat="43.21025" lon="5.48367">
        <ele>225.7</ele>
        <time>2025-10-19T10:57:53Z</time>
      </trkpt>
      <trkpt lat="43.21025" lon="5.48367">
        <ele>225.7</ele>
        <time>2025-10-19T10:57:54Z</time>
      </trkpt>
      <trkpt lat="43.21025" lon="5.48367">
        <ele>225.7</ele>
        <time>2025-10-19T10:57:55Z</time>
      </trkpt>
      <trkpt lat="43.21025" lon="5.48366">
        <ele>225.7</ele>
        <time>2025-10-19T10:57:56Z</time>
      </trkpt>
      <trkpt lat="43.21025" lon="5.48366">
        <ele>225.6</ele>
        <time>2025-10-19T10:57:57Z</time>
      </trkpt>
      <trkpt lat="43.21025" lon="5.48366">
        <ele>225.6</ele>
        <time>2025-10-19T10:57:58Z</time>
      </trkpt>
      <trkpt lat="43.21025" lon="5.48366">
        <ele>225.6</ele>
        <time>2025-10-19T10:57:59Z</time>
      </trkpt>
      <trkpt lat="43.21024" lon="5.48366">
        <ele>225.6</ele>
        <time>2025-10-19T10:58:00Z</time>
      </trkpt>
      <trkpt lat="43.21024" lon="5.48366">
        <ele>225.6</ele>
        <time>2025-10-19T10:58:01Z</time>
      </trkpt>
      <trkpt lat="43.21024" lon="5.48366">
        <ele>225.6</ele>
        <time>2025-10-19T10:58:02Z</time>
      </trkpt>
      <trkpt lat="43.21024" lon="5.48366">
        <ele>225.6</ele>
        <time>2025-10-19T10:58:03Z</time>
      </trkpt>
      <trkpt lat="43.21024" lon="5.48366">
        <ele>225.6</ele>
        <time>2025-10-19T10:58:04Z</time>
      </trkpt>
      <trkpt lat="43.21024" lon="5.48366">
        <ele>225.6</ele>
        <time>2025-10-19T10:58:05Z</time>
      </trkpt>
      <trkpt lat="43.21024" lon="5.48367">
        <ele>225.7</ele>
        <time>2025-10-19T10:58:06Z</time>
      </trkpt>
      <trkpt lat="43.21024" lon="5.48367">
        <ele>225.7</ele>
        <time>2025-10-19T10:58:07Z</time>
      </trkpt>
      <trkpt lat="43.21024" lon="5.48368">
        <ele>225.8</ele>
        <time>2025-10-19T10:58:08Z</time>
      </trkpt>
      <trkpt lat="43.21025" lon="5.48368">
        <ele>225.9</ele>
        <time>2025-10-19T10:58:09Z</time>
      </trkpt>
      <trkpt lat="43.21025" lon="5.48368">
        <ele>225.9</ele>
        <time>2025-10-19T10:58:10Z</time>
      </trkpt>
      <trkpt lat="43.21025" lon="5.48368">
        <ele>226</ele>
        <time>2025-10-19T10:58:11Z</time>
      </trkpt>
      <trkpt lat="43.21025" lon="5.48368">
        <ele>226.1</ele>
        <time>2025-10-19T10:58:12Z</time>
      </trkpt>
      <trkpt lat="43.21026" lon="5.48368">
        <ele>226.2</ele>
        <time>2025-10-19T10:58:13Z</time>
      </trkpt>
      <trkpt lat="43.21026" lon="5.48368">
        <ele>226.3</ele>
        <time>2025-10-19T10:58:14Z</time>
      </trkpt>
      <trkpt lat="43.21026" lon="5.48367">
        <ele>226.4</ele>
        <time>2025-10-19T10:58:15Z</time>
      </trkpt>
      <trkpt lat="43.21026" lon="5.48367">
        <ele>226.5</ele>
        <time>2025-10-19T10:58:16Z</time>
      </trkpt>
      <trkpt lat="43.21026" lon="5.48367">
        <ele>226.5</ele>
        <time>2025-10-19T10:58:17Z</time>
      </trkpt>
      <trkpt lat="43.21025" lon="5.48367">
        <ele>226.5</ele>
        <time>2025-10-19T10:58:18Z</time>
      </trkpt>
      <trkpt lat="43.21025" lon="5.48367">
        <ele>226.6</ele>
        <time>2025-10-19T10:58:19Z</time>
      </trkpt>
      <trkpt lat="43.21025" lon="5.48367">
        <ele>226.6</ele>
        <time>2025-10-19T10:58:20Z</time>
      </trkpt>
      <trkpt lat="43.21025" lon="5.48367">
        <ele>226.7</ele>
        <time>2025-10-19T10:58:21Z</time>
      </trkpt>
      <trkpt lat="43.21025" lon="5.48367">
        <ele>226.8</ele>
        <time>2025-10-19T10:58:22Z</time>
      </trkpt>
      <trkpt lat="43.21025" lon="5.48367">
        <ele>226.8</ele>
        <time>2025-10-19T10:58:23Z</time>
      </trkpt>
      <trkpt lat="43.21025" lon="5.48367">
        <ele>226.9</ele>
        <time>2025-10-19T10:58:24Z</time>
      </trkpt>
      <trkpt lat="43.21025" lon="5.48367">
        <ele>227</ele>
        <time>2025-10-19T10:58:25Z</time>
      </trkpt>
      <trkpt lat="43.21025" lon="5.48367">
        <ele>227.1</ele>
        <time>2025-10-19T10:58:26Z</time>
      </trkpt>
      <trkpt lat="43.21025" lon="5.48367">
        <ele>227.1</ele>
        <time>2025-10-19T10:58:27Z</time>
      </trkpt>
      <trkpt lat="43.21025" lon="5.48367">
        <ele>227.1</ele>
        <time>2025-10-19T10:58:28Z</time>
      </trkpt>
      <trkpt lat="43.21025" lon="5.48367">
        <ele>227.1</ele>
        <time>2025-10-19T10:58:29Z</time>
      </trkpt>
      <trkpt lat="43.21025" lon="5.48366">
        <ele>227.2</ele>
        <time>2025-10-19T10:58:30Z</time>
      </trkpt>
      <trkpt lat="43.21025" lon="5.48366">
        <ele>227.2</ele>
        <time>2025-10-19T10:58:31Z</time>
      </trkpt>
      <trkpt lat="43.21025" lon="5.48366">
        <ele>227.1</ele>
        <time>2025-10-19T10:58:32Z</time>
      </trkpt>
      <trkpt lat="43.21025" lon="5.48366">
        <ele>227.1</ele>
        <time>2025-10-19T10:58:33Z</time>
      </trkpt>
      <trkpt lat="43.21025" lon="5.48366">
        <ele>227.1</ele>
        <time>2025-10-19T10:58:34Z</time>
      </trkpt>
      <trkpt lat="43.21025" lon="5.48366">
        <ele>227.1</ele>
        <time>2025-10-19T10:58:35Z</time>
      </trkpt>
      <trkpt lat="43.21025" lon="5.48366">
        <ele>227.1</ele>
        <time>2025-10-19T10:58:36Z</time>
      </trkpt>
      <trkpt lat="43.21025" lon="5.48366">
        <ele>227.1</ele>
        <time>2025-10-19T10:58:37Z</time>
      </trkpt>
      <trkpt lat="43.21025" lon="5.48366">
        <ele>227</ele>
        <time>2025-10-19T10:58:38Z</time>
      </trkpt>
      <trkpt lat="43.21025" lon="5.48366">
        <ele>227</ele>
        <time>2025-10-19T10:58:39Z</time>
      </trkpt>
      <trkpt lat="43.21025" lon="5.48366">
        <ele>227</ele>
        <time>2025-10-19T10:58:40Z</time>
      </trkpt>
      <trkpt lat="43.21026" lon="5.48365">
        <ele>227</ele>
        <time>2025-10-19T10:58:41Z</time>
      </trkpt>
      <trkpt lat="43.21026" lon="5.48365">
        <ele>227</ele>
        <time>2025-10-19T10:58:42Z</time>
      </trkpt>
      <trkpt lat="43.21026" lon="5.48365">
        <ele>227.1</ele>
        <time>2025-10-19T10:58:43Z</time>
      </trkpt>
      <trkpt lat="43.21026" lon="5.48365">
        <ele>227.1</ele>
        <time>2025-10-19T10:58:44Z</time>
      </trkpt>
      <trkpt lat="43.21026" lon="5.48365">
        <ele>227.1</ele>
        <time>2025-10-19T10:58:45Z</time>
      </trkpt>
      <trkpt lat="43.21026" lon="5.48365">
        <ele>227.2</ele>
        <time>2025-10-19T10:58:46Z</time>
      </trkpt>
      <trkpt lat="43.21026" lon="5.48365">
        <ele>227.2</ele>
        <time>2025-10-19T10:58:47Z</time>
      </trkpt>
      <trkpt lat="43.21026" lon="5.48364">
        <ele>227.2</ele>
        <time>2025-10-19T10:58:48Z</time>
      </trkpt>
      <trkpt lat="43.21027" lon="5.48364">
        <ele>227.2</ele>
        <time>2025-10-19T10:58:49Z</time>
      </trkpt>
      <trkpt lat="43.21027" lon="5.48364">
        <ele>227.2</ele>
        <time>2025-10-19T10:58:50Z</time>
      </trkpt>
      <trkpt lat="43.21027" lon="5.48364">
        <ele>227.2</ele>
        <time>2025-10-19T10:58:51Z</time>
      </trkpt>
      <trkpt lat="43.21027" lon="5.48364">
        <ele>227.2</ele>
        <time>2025-10-19T10:58:52Z</time>
      </trkpt>
      <trkpt lat="43.21027" lon="5.48364">
        <ele>227.1</ele>
        <time>2025-10-19T10:58:53Z</time>
      </trkpt>
      <trkpt lat="43.21027" lon="5.48364">
        <ele>227.1</ele>
        <time>2025-10-19T10:58:54Z</time>
      </trkpt>
      <trkpt lat="43.21027" lon="5.48364">
        <ele>227</ele>
        <time>2025-10-19T10:58:55Z</time>
      </trkpt>
      <trkpt lat="43.21027" lon="5.48364">
        <ele>227</ele>
        <time>2025-10-19T10:58:56Z</time>
      </trkpt>
      <trkpt lat="43.21028" lon="5.48364">
        <ele>227</ele>
        <time>2025-10-19T10:58:57Z</time>
      </trkpt>
      <trkpt lat="43.21028" lon="5.48364">
        <ele>226.9</ele>
        <time>2025-10-19T10:58:58Z</time>
      </trkpt>
      <trkpt lat="43.21028" lon="5.48364">
        <ele>227</ele>
        <time>2025-10-19T10:58:59Z</time>
      </trkpt>
      <trkpt lat="43.21028" lon="5.48364">
        <ele>227</ele>
        <time>2025-10-19T10:59:00Z</time>
      </trkpt>
      <trkpt lat="43.21028" lon="5.48364">
        <ele>227</ele>
        <time>2025-10-19T10:59:01Z</time>
      </trkpt>
      <trkpt lat="43.21028" lon="5.48364">
        <ele>227.1</ele>
        <time>2025-10-19T10:59:02Z</time>
      </trkpt>
      <trkpt lat="43.21028" lon="5.48364">
        <ele>227.1</ele>
        <time>2025-10-19T10:59:03Z</time>
      </trkpt>
      <trkpt lat="43.21028" lon="5.48364">
        <ele>227.1</ele>
        <time>2025-10-19T10:59:04Z</time>
      </trkpt>
      <trkpt lat="43.21028" lon="5.48364">
        <ele>227</ele>
        <time>2025-10-19T10:59:05Z</time>
      </trkpt>
      <trkpt lat="43.21028" lon="5.48364">
        <ele>226.9</ele>
        <time>2025-10-19T10:59:06Z</time>
      </trkpt>
      <trkpt lat="43.21028" lon="5.48364">
        <ele>226.9</ele>
        <time>2025-10-19T10:59:07Z</time>
      </trkpt>
      <trkpt lat="43.21028" lon="5.48364">
        <ele>226.9</ele>
        <time>2025-10-19T10:59:08Z</time>
      </trkpt>
      <trkpt lat="43.21028" lon="5.48364">
        <ele>227</ele>
        <time>2025-10-19T10:59:09Z</time>
      </trkpt>
      <trkpt lat="43.21028" lon="5.48364">
        <ele>227.1</ele>
        <time>2025-10-19T10:59:10Z</time>
      </trkpt>
      <trkpt lat="43.21028" lon="5.48364">
        <ele>227.1</ele>
        <time>2025-10-19T10:59:11Z</time>
      </trkpt>
      <trkpt lat="43.21028" lon="5.48364">
        <ele>227</ele>
        <time>2025-10-19T10:59:12Z</time>
      </trkpt>
      <trkpt lat="43.21028" lon="5.48364">
        <ele>227</ele>
        <time>2025-10-19T10:59:13Z</time>
      </trkpt>
      <trkpt lat="43.21028" lon="5.48364">
        <ele>227.1</ele>
        <time>2025-10-19T10:59:14Z</time>
      </trkpt>
      <trkpt lat="43.21028" lon="5.48363">
        <ele>227.1</ele>
        <time>2025-10-19T10:59:15Z</time>
      </trkpt>
      <trkpt lat="43.21028" lon="5.48363">
        <ele>227.1</ele>
        <time>2025-10-19T10:59:16Z</time>
      </trkpt>
      <trkpt lat="43.21028" lon="5.48363">
        <ele>227.1</ele>
        <time>2025-10-19T10:59:17Z</time>
      </trkpt>
      <trkpt lat="43.21028" lon="5.48363">
        <ele>227.1</ele>
        <time>2025-10-19T10:59:18Z</time>
      </trkpt>
      <trkpt lat="43.21028" lon="5.48363">
        <ele>227.1</ele>
        <time>2025-10-19T10:59:19Z</time>
      </trkpt>
      <trkpt lat="43.21028" lon="5.48363">
        <ele>227</ele>
        <time>2025-10-19T10:59:20Z</time>
      </trkpt>
      <trkpt lat="43.21028" lon="5.48363">
        <ele>227</ele>
        <time>2025-10-19T10:59:21Z</time>
      </trkpt>
      <trkpt lat="43.21028" lon="5.48363">
        <ele>226.9</ele>
        <time>2025-10-19T10:59:22Z</time>
      </trkpt>
      <trkpt lat="43.21029" lon="5.48363">
        <ele>226.9</ele>
        <time>2025-10-19T10:59:23Z</time>
      </trkpt>
      <trkpt lat="43.21028" lon="5.48363">
        <ele>227</ele>
        <time>2025-10-19T10:59:24Z</time>
      </trkpt>
      <trkpt lat="43.21028" lon="5.48363">
        <ele>227</ele>
        <time>2025-10-19T10:59:25Z</time>
      </trkpt>
      <trkpt lat="43.21028" lon="5.48363">
        <ele>227</ele>
        <time>2025-10-19T10:59:26Z</time>
      </trkpt>
      <trkpt lat="43.21029" lon="5.48363">
        <ele>227</ele>
        <time>2025-10-19T10:59:27Z</time>
      </trkpt>
      <trkpt lat="43.21028" lon="5.48363">
        <ele>227</ele>
        <time>2025-10-19T10:59:28Z</time>
      </trkpt>
      <trkpt lat="43.21028" lon="5.48363">
        <ele>227</ele>
        <time>2025-10-19T10:59:29Z</time>
      </trkpt>
      <trkpt lat="43.21028" lon="5.48363">
        <ele>226.9</ele>
        <time>2025-10-19T10:59:30Z</time>
      </trkpt>
      <trkpt lat="43.21029" lon="5.48363">
        <ele>226.9</ele>
        <time>2025-10-19T10:59:31Z</time>
      </trkpt>
      <trkpt lat="43.21029" lon="5.48363">
        <ele>226.8</ele>
        <time>2025-10-19T10:59:32Z</time>
      </trkpt>
      <trkpt lat="43.21028" lon="5.48363">
        <ele>226.8</ele>
        <time>2025-10-19T10:59:33Z</time>
      </trkpt>
      <trkpt lat="43.21028" lon="5.48363">
        <ele>226.8</ele>
        <time>2025-10-19T10:59:34Z</time>
      </trkpt>
      <trkpt lat="43.21028" lon="5.48363">
        <ele>226.8</ele>
        <time>2025-10-19T10:59:35Z</time>
      </trkpt>
      <trkpt lat="43.21028" lon="5.48363">
        <ele>226.8</ele>
        <time>2025-10-19T10:59:36Z</time>
      </trkpt>
      <trkpt lat="43.21028" lon="5.48363">
        <ele>226.9</ele>
        <time>2025-10-19T10:59:37Z</time>
      </trkpt>
      <trkpt lat="43.21028" lon="5.48363">
        <ele>226.8</ele>
        <time>2025-10-19T10:59:38Z</time>
      </trkpt>
      <trkpt lat="43.21028" lon="5.48363">
        <ele>226.8</ele>
        <time>2025-10-19T10:59:39Z</time>
      </trkpt>
      <trkpt lat="43.21028" lon="5.48363">
        <ele>226.8</ele>
        <time>2025-10-19T10:59:40Z</time>
      </trkpt>
      <trkpt lat="43.21028" lon="5.48363">
        <ele>226.9</ele>
        <time>2025-10-19T10:59:41Z</time>
      </trkpt>
      <trkpt lat="43.21028" lon="5.48363">
        <ele>226.9</ele>
        <time>2025-10-19T10:59:42Z</time>
      </trkpt>
      <trkpt lat="43.21028" lon="5.48363">
        <ele>226.9</ele>
        <time>2025-10-19T10:59:43Z</time>
      </trkpt>
      <trkpt lat="43.21029" lon="5.48363">
        <ele>226.8</ele>
        <time>2025-10-19T10:59:44Z</time>
      </trkpt>
      <trkpt lat="43.21029" lon="5.48363">
        <ele>226.8</ele>
        <time>2025-10-19T10:59:45Z</time>
      </trkpt>
      <trkpt lat="43.21029" lon="5.48363">
        <ele>226.8</ele>
        <time>2025-10-19T10:59:46Z</time>
      </trkpt>
      <trkpt lat="43.21029" lon="5.48363">
        <ele>226.8</ele>
        <time>2025-10-19T10:59:47Z</time>
      </trkpt>
      <trkpt lat="43.21029" lon="5.48364">
        <ele>226.8</ele>
        <time>2025-10-19T10:59:48Z</time>
      </trkpt>
      <trkpt lat="43.21029" lon="5.48364">
        <ele>226.9</ele>
        <time>2025-10-19T10:59:49Z</time>
      </trkpt>
      <trkpt lat="43.21029" lon="5.48364">
        <ele>226.9</ele>
        <time>2025-10-19T10:59:50Z</time>
      </trkpt>
      <trkpt lat="43.21029" lon="5.48363">
        <ele>226.9</ele>
        <time>2025-10-19T10:59:51Z</time>
      </trkpt>
      <trkpt lat="43.21029" lon="5.48363">
        <ele>226.8</ele>
        <time>2025-10-19T10:59:52Z</time>
      </trkpt>
      <trkpt lat="43.21029" lon="5.48363">
        <ele>226.8</ele>
        <time>2025-10-19T10:59:53Z</time>
      </trkpt>
      <trkpt lat="43.21029" lon="5.48364">
        <ele>226.8</ele>
        <time>2025-10-19T10:59:54Z</time>
      </trkpt>
      <trkpt lat="43.21029" lon="5.48364">
        <ele>226.9</ele>
        <time>2025-10-19T10:59:55Z</time>
      </trkpt>
      <trkpt lat="43.21029" lon="5.48364">
        <ele>226.9</ele>
        <time>2025-10-19T10:59:56Z</time>
      </trkpt>
      <trkpt lat="43.21029" lon="5.48363">
        <ele>226.9</ele>
        <time>2025-10-19T10:59:57Z</time>
      </trkpt>
      <trkpt lat="43.21029" lon="5.48363">
        <ele>226.9</ele>
        <time>2025-10-19T10:59:58Z</time>
      </trkpt>
      <trkpt lat="43.21029" lon="5.48363">
        <ele>226.9</ele>
        <time>2025-10-19T10:59:59Z</time>
      </trkpt>
      <trkpt lat="43.21029" lon="5.48363">
        <ele>227</ele>
        <time>2025-10-19T11:00:00Z</time>
      </trkpt>
      <trkpt lat="43.21029" lon="5.48363">
        <ele>227</ele>
        <time>2025-10-19T11:00:01Z</time>
      </trkpt>
      <trkpt lat="43.21029" lon="5.48363">
        <ele>226.9</ele>
        <time>2025-10-19T11:00:02Z</time>
      </trkpt>
      <trkpt lat="43.21029" lon="5.48363">
        <ele>226.9</ele>
        <time>2025-10-19T11:00:03Z</time>
      </trkpt>
      <trkpt lat="43.21029" lon="5.48363">
        <ele>227</ele>
        <time>2025-10-19T11:00:04Z</time>
      </trkpt>
      <trkpt lat="43.21029" lon="5.48363">
        <ele>227</ele>
        <time>2025-10-19T11:00:05Z</time>
      </trkpt>
      <trkpt lat="43.21029" lon="5.48363">
        <ele>227</ele>
        <time>2025-10-19T11:00:06Z</time>
      </trkpt>
      <trkpt lat="43.21029" lon="5.48363">
        <ele>227</ele>
        <time>2025-10-19T11:00:07Z</time>
      </trkpt>
      <trkpt lat="43.21029" lon="5.48363">
        <ele>226.9</ele>
        <time>2025-10-19T11:00:08Z</time>
      </trkpt>
      <trkpt lat="43.21029" lon="5.48363">
        <ele>226.9</ele>
        <time>2025-10-19T11:00:09Z</time>
      </trkpt>
      <trkpt lat="43.21029" lon="5.48363">
        <ele>226.9</ele>
        <time>2025-10-19T11:00:10Z</time>
      </trkpt>
      <trkpt lat="43.21029" lon="5.48363">
        <ele>227</ele>
        <time>2025-10-19T11:00:11Z</time>
      </trkpt>
      <trkpt lat="43.21029" lon="5.48363">
        <ele>227</ele>
        <time>2025-10-19T11:00:12Z</time>
      </trkpt>
      <trkpt lat="43.21029" lon="5.48363">
        <ele>226.9</ele>
        <time>2025-10-19T11:00:13Z</time>
      </trkpt>
      <trkpt lat="43.21029" lon="5.48363">
        <ele>226.9</ele>
        <time>2025-10-19T11:00:14Z</time>
      </trkpt>
      <trkpt lat="43.21029" lon="5.48363">
        <ele>226.9</ele>
        <time>2025-10-19T11:00:15Z</time>
      </trkpt>
      <trkpt lat="43.21029" lon="5.48363">
        <ele>226.9</ele>
        <time>2025-10-19T11:00:16Z</time>
      </trkpt>
      <trkpt lat="43.21029" lon="5.48363">
        <ele>226.9</ele>
        <time>2025-10-19T11:00:17Z</time>
      </trkpt>
      <trkpt lat="43.21029" lon="5.48363">
        <ele>226.9</ele>
        <time>2025-10-19T11:00:18Z</time>
      </trkpt>
      <trkpt lat="43.21029" lon="5.48363">
        <ele>226.9</ele>
        <time>2025-10-19T11:00:19Z</time>
      </trkpt>
      <trkpt lat="43.21029" lon="5.48363">
        <ele>226.8</ele>
        <time>2025-10-19T11:00:20Z</time>
      </trkpt>
      <trkpt lat="43.21029" lon="5.48363">
        <ele>226.9</ele>
        <time>2025-10-19T11:00:21Z</time>
      </trkpt>
      <trkpt lat="43.21029" lon="5.48363">
        <ele>226.9</ele>
        <time>2025-10-19T11:00:22Z</time>
      </trkpt>
      <trkpt lat="43.21029" lon="5.48363">
        <ele>227</ele>
        <time>2025-10-19T11:00:23Z</time>
      </trkpt>
      <trkpt lat="43.21029" lon="5.48363">
        <ele>227</ele>
        <time>2025-10-19T11:00:24Z</time>
      </trkpt>
      <trkpt lat="43.21029" lon="5.48363">
        <ele>226.9</ele>
        <time>2025-10-19T11:00:25Z</time>
      </trkpt>
      <trkpt lat="43.21029" lon="5.48363">
        <ele>226.9</ele>
        <time>2025-10-19T11:00:26Z</time>
      </trkpt>
      <trkpt lat="43.21029" lon="5.48363">
        <ele>226.8</ele>
        <time>2025-10-19T11:00:27Z</time>
      </trkpt>
      <trkpt lat="43.21029" lon="5.48363">
        <ele>226.8</ele>
        <time>2025-10-19T11:00:28Z</time>
      </trkpt>
      <trkpt lat="43.21029" lon="5.48363">
        <ele>226.8</ele>
        <time>2025-10-19T11:00:29Z</time>
      </trkpt>
      <trkpt lat="43.21029" lon="5.48363">
        <ele>226.8</ele>
        <time>2025-10-19T11:00:30Z</time>
      </trkpt>
      <trkpt lat="43.21029" lon="5.48363">
        <ele>226.9</ele>
        <time>2025-10-19T11:00:31Z</time>
      </trkpt>
      <trkpt lat="43.21029" lon="5.48363">
        <ele>226.8</ele>
        <time>2025-10-19T11:00:32Z</time>
      </trkpt>
      <trkpt lat="43.21029" lon="5.48363">
        <ele>226.9</ele>
        <time>2025-10-19T11:00:33Z</time>
      </trkpt>
      <trkpt lat="43.21029" lon="5.48362">
        <ele>226.9</ele>
        <time>2025-10-19T11:00:34Z</time>
      </trkpt>
      <trkpt lat="43.21029" lon="5.48362">
        <ele>227</ele>
        <time>2025-10-19T11:00:35Z</time>
      </trkpt>
      <trkpt lat="43.21029" lon="5.48362">
        <ele>227.1</ele>
        <time>2025-10-19T11:00:36Z</time>
      </trkpt>
      <trkpt lat="43.21029" lon="5.48363">
        <ele>227.1</ele>
        <time>2025-10-19T11:00:37Z</time>
      </trkpt>
      <trkpt lat="43.21028" lon="5.48362">
        <ele>227.2</ele>
        <time>2025-10-19T11:00:38Z</time>
      </trkpt>
      <trkpt lat="43.21028" lon="5.48362">
        <ele>227.2</ele>
        <time>2025-10-19T11:00:39Z</time>
      </trkpt>
      <trkpt lat="43.21029" lon="5.48362">
        <ele>227.3</ele>
        <time>2025-10-19T11:00:40Z</time>
      </trkpt>
      <trkpt lat="43.21029" lon="5.48362">
        <ele>227.2</ele>
        <time>2025-10-19T11:00:41Z</time>
      </trkpt>
      <trkpt lat="43.21028" lon="5.48362">
        <ele>227.2</ele>
        <time>2025-10-19T11:00:42Z</time>
      </trkpt>
      <trkpt lat="43.21028" lon="5.48362">
        <ele>227.2</ele>
        <time>2025-10-19T11:00:43Z</time>
      </trkpt>
      <trkpt lat="43.21028" lon="5.48362">
        <ele>227.3</ele>
        <time>2025-10-19T11:00:44Z</time>
      </trkpt>
      <trkpt lat="43.21028" lon="5.48362">
        <ele>227.3</ele>
        <time>2025-10-19T11:00:45Z</time>
      </trkpt>
      <trkpt lat="43.21028" lon="5.48362">
        <ele>227.3</ele>
        <time>2025-10-19T11:00:46Z</time>
      </trkpt>
      <trkpt lat="43.21028" lon="5.48362">
        <ele>227.3</ele>
        <time>2025-10-19T11:00:47Z</time>
      </trkpt>
      <trkpt lat="43.21028" lon="5.48362">
        <ele>227.3</ele>
        <time>2025-10-19T11:00:48Z</time>
      </trkpt>
      <trkpt lat="43.21028" lon="5.48362">
        <ele>227.4</ele>
        <time>2025-10-19T11:00:49Z</time>
      </trkpt>
      <trkpt lat="43.21028" lon="5.48362">
        <ele>227.4</ele>
        <time>2025-10-19T11:00:50Z</time>
      </trkpt>
      <trkpt lat="43.21028" lon="5.48362">
        <ele>227.4</ele>
        <time>2025-10-19T11:00:51Z</time>
      </trkpt>
      <trkpt lat="43.21028" lon="5.48362">
        <ele>227.4</ele>
        <time>2025-10-19T11:00:52Z</time>
      </trkpt>
      <trkpt lat="43.21028" lon="5.48362">
        <ele>227.4</ele>
        <time>2025-10-19T11:00:53Z</time>
      </trkpt>
      <trkpt lat="43.21028" lon="5.48362">
        <ele>227.3</ele>
        <time>2025-10-19T11:00:54Z</time>
      </trkpt>
      <trkpt lat="43.21028" lon="5.48362">
        <ele>227.2</ele>
        <time>2025-10-19T11:00:55Z</time>
      </trkpt>
      <trkpt lat="43.21028" lon="5.48362">
        <ele>227.2</ele>
        <time>2025-10-19T11:00:56Z</time>
      </trkpt>
      <trkpt lat="43.21028" lon="5.48362">
        <ele>227.2</ele>
        <time>2025-10-19T11:00:57Z</time>
      </trkpt>
      <trkpt lat="43.21028" lon="5.48362">
        <ele>227.1</ele>
        <time>2025-10-19T11:00:58Z</time>
      </trkpt>
      <trkpt lat="43.21028" lon="5.48362">
        <ele>227.1</ele>
        <time>2025-10-19T11:00:59Z</time>
      </trkpt>
      <trkpt lat="43.21028" lon="5.48362">
        <ele>227.1</ele>
        <time>2025-10-19T11:01:00Z</time>
      </trkpt>
      <trkpt lat="43.21028" lon="5.48362">
        <ele>227.1</ele>
        <time>2025-10-19T11:01:01Z</time>
      </trkpt>
      <trkpt lat="43.21028" lon="5.48362">
        <ele>227</ele>
        <time>2025-10-19T11:01:02Z</time>
      </trkpt>
      <trkpt lat="43.21028" lon="5.48362">
        <ele>227.1</ele>
        <time>2025-10-19T11:01:03Z</time>
      </trkpt>
      <trkpt lat="43.21028" lon="5.48362">
        <ele>227.1</ele>
        <time>2025-10-19T11:01:04Z</time>
      </trkpt>
      <trkpt lat="43.21028" lon="5.48362">
        <ele>227.1</ele>
        <time>2025-10-19T11:01:05Z</time>
      </trkpt>
      <trkpt lat="43.21028" lon="5.48362">
        <ele>227.1</ele>
        <time>2025-10-19T11:01:06Z</time>
      </trkpt>
      <trkpt lat="43.21028" lon="5.48362">
        <ele>227.1</ele>
        <time>2025-10-19T11:01:07Z</time>
      </trkpt>
      <trkpt lat="43.21028" lon="5.48362">
        <ele>227.1</ele>
        <time>2025-10-19T11:01:08Z</time>
      </trkpt>
      <trkpt lat="43.21028" lon="5.48361">
        <ele>227</ele>
        <time>2025-10-19T11:01:09Z</time>
      </trkpt>
      <trkpt lat="43.21028" lon="5.48361">
        <ele>227.1</ele>
        <time>2025-10-19T11:01:10Z</time>
      </trkpt>
      <trkpt lat="43.21028" lon="5.48361">
        <ele>227</ele>
        <time>2025-10-19T11:01:11Z</time>
      </trkpt>
      <trkpt lat="43.21027" lon="5.48361">
        <ele>227</ele>
        <time>2025-10-19T11:01:12Z</time>
      </trkpt>
      <trkpt lat="43.21027" lon="5.48361">
        <ele>227</ele>
        <time>2025-10-19T11:01:13Z</time>
      </trkpt>
      <trkpt lat="43.21027" lon="5.48361">
        <ele>227</ele>
        <time>2025-10-19T11:01:14Z</time>
      </trkpt>
      <trkpt lat="43.21027" lon="5.48361">
        <ele>227</ele>
        <time>2025-10-19T11:01:15Z</time>
      </trkpt>
      <trkpt lat="43.21027" lon="5.48361">
        <ele>227</ele>
        <time>2025-10-19T11:01:16Z</time>
      </trkpt>
      <trkpt lat="43.21027" lon="5.48361">
        <ele>227.1</ele>
        <time>2025-10-19T11:01:17Z</time>
      </trkpt>
      <trkpt lat="43.21027" lon="5.48361">
        <ele>227.1</ele>
        <time>2025-10-19T11:01:18Z</time>
      </trkpt>
      <trkpt lat="43.21027" lon="5.48361">
        <ele>227.2</ele>
        <time>2025-10-19T11:01:19Z</time>
      </trkpt>
      <trkpt lat="43.21027" lon="5.48361">
        <ele>227.2</ele>
        <time>2025-10-19T11:01:20Z</time>
      </trkpt>
      <trkpt lat="43.21027" lon="5.48361">
        <ele>227.2</ele>
        <time>2025-10-19T11:01:21Z</time>
      </trkpt>
      <trkpt lat="43.21027" lon="5.48361">
        <ele>227.2</ele>
        <time>2025-10-19T11:01:22Z</time>
      </trkpt>
      <trkpt lat="43.21027" lon="5.48361">
        <ele>227.2</ele>
        <time>2025-10-19T11:01:23Z</time>
      </trkpt>
      <trkpt lat="43.21027" lon="5.48361">
        <ele>227.3</ele>
        <time>2025-10-19T11:01:24Z</time>
      </trkpt>
      <trkpt lat="43.21027" lon="5.48361">
        <ele>227.2</ele>
        <time>2025-10-19T11:01:25Z</time>
      </trkpt>
      <trkpt lat="43.21027" lon="5.48361">
        <ele>227.2</ele>
        <time>2025-10-19T11:01:26Z</time>
      </trkpt>
      <trkpt lat="43.21027" lon="5.48361">
        <ele>227.2</ele>
        <time>2025-10-19T11:01:27Z</time>
      </trkpt>
      <trkpt lat="43.21027" lon="5.4836">
        <ele>227.2</ele>
        <time>2025-10-19T11:01:28Z</time>
      </trkpt>
      <trkpt lat="43.21027" lon="5.48361">
        <ele>227.2</ele>
        <time>2025-10-19T11:01:29Z</time>
      </trkpt>
      <trkpt lat="43.21027" lon="5.48361">
        <ele>227.2</ele>
        <time>2025-10-19T11:01:30Z</time>
      </trkpt>
      <trkpt lat="43.21027" lon="5.48361">
        <ele>227.2</ele>
        <time>2025-10-19T11:01:31Z</time>
      </trkpt>
      <trkpt lat="43.21027" lon="5.4836">
        <ele>227.3</ele>
        <time>2025-10-19T11:01:32Z</time>
      </trkpt>
      <trkpt lat="43.21027" lon="5.4836">
        <ele>227.3</ele>
        <time>2025-10-19T11:01:33Z</time>
      </trkpt>
      <trkpt lat="43.21027" lon="5.4836">
        <ele>227.3</ele>
        <time>2025-10-19T11:01:34Z</time>
      </trkpt>
      <trkpt lat="43.21027" lon="5.48361">
        <ele>227.3</ele>
        <time>2025-10-19T11:01:35Z</time>
      </trkpt>
      <trkpt lat="43.21027" lon="5.48361">
        <ele>227.3</ele>
        <time>2025-10-19T11:01:36Z</time>
      </trkpt>
      <trkpt lat="43.21027" lon="5.48361">
        <ele>227.3</ele>
        <time>2025-10-19T11:01:37Z</time>
      </trkpt>
      <trkpt lat="43.21027" lon="5.48361">
        <ele>227.3</ele>
        <time>2025-10-19T11:01:38Z</time>
      </trkpt>
      <trkpt lat="43.21027" lon="5.48361">
        <ele>227.3</ele>
        <time>2025-10-19T11:01:39Z</time>
      </trkpt>
      <trkpt lat="43.21027" lon="5.48361">
        <ele>227.3</ele>
        <time>2025-10-19T11:01:40Z</time>
      </trkpt>
      <trkpt lat="43.21027" lon="5.48361">
        <ele>227.4</ele>
        <time>2025-10-19T11:01:41Z</time>
      </trkpt>
      <trkpt lat="43.21027" lon="5.48361">
        <ele>227.4</ele>
        <time>2025-10-19T11:01:42Z</time>
      </trkpt>
      <trkpt lat="43.21027" lon="5.48361">
        <ele>227.4</ele>
        <time>2025-10-19T11:01:43Z</time>
      </trkpt>
      <trkpt lat="43.21027" lon="5.48361">
        <ele>227.3</ele>
        <time>2025-10-19T11:01:44Z</time>
      </trkpt>
      <trkpt lat="43.21027" lon="5.48361">
        <ele>227.3</ele>
        <time>2025-10-19T11:01:45Z</time>
      </trkpt>
      <trkpt lat="43.21027" lon="5.48361">
        <ele>227.2</ele>
        <time>2025-10-19T11:01:46Z</time>
      </trkpt>
      <trkpt lat="43.21027" lon="5.48361">
        <ele>227.2</ele>
        <time>2025-10-19T11:01:47Z</time>
      </trkpt>
      <trkpt lat="43.21027" lon="5.48361">
        <ele>227.2</ele>
        <time>2025-10-19T11:01:48Z</time>
      </trkpt>
      <trkpt lat="43.21027" lon="5.48361">
        <ele>227.2</ele>
        <time>2025-10-19T11:01:49Z</time>
      </trkpt>
      <trkpt lat="43.21027" lon="5.48361">
        <ele>227.2</ele>
        <time>2025-10-19T11:01:50Z</time>
      </trkpt>
      <trkpt lat="43.21027" lon="5.48361">
        <ele>227.2</ele>
        <time>2025-10-19T11:01:51Z</time>
      </trkpt>
      <trkpt lat="43.21027" lon="5.48361">
        <ele>227.3</ele>
        <time>2025-10-19T11:01:52Z</time>
      </trkpt>
      <trkpt lat="43.21027" lon="5.48361">
        <ele>227.3</ele>
        <time>2025-10-19T11:01:53Z</time>
      </trkpt>
      <trkpt lat="43.21027" lon="5.48361">
        <ele>227.4</ele>
        <time>2025-10-19T11:01:54Z</time>
      </trkpt>
      <trkpt lat="43.21027" lon="5.4836">
        <ele>227.4</ele>
        <time>2025-10-19T11:01:55Z</time>
      </trkpt>
      <trkpt lat="43.21027" lon="5.4836">
        <ele>227.4</ele>
        <time>2025-10-19T11:01:56Z</time>
      </trkpt>
      <trkpt lat="43.21027" lon="5.4836">
        <ele>227.4</ele>
        <time>2025-10-19T11:01:57Z</time>
      </trkpt>
      <trkpt lat="43.21027" lon="5.4836">
        <ele>227.4</ele>
        <time>2025-10-19T11:01:58Z</time>
      </trkpt>
      <trkpt lat="43.21027" lon="5.4836">
        <ele>227.4</ele>
        <time>2025-10-19T11:01:59Z</time>
      </trkpt>
      <trkpt lat="43.21027" lon="5.4836">
        <ele>227.4</ele>
        <time>2025-10-19T11:02:00Z</time>
      </trkpt>
      <trkpt lat="43.21027" lon="5.4836">
        <ele>227.4</ele>
        <time>2025-10-19T11:02:01Z</time>
      </trkpt>
      <trkpt lat="43.21027" lon="5.4836">
        <ele>227.4</ele>
        <time>2025-10-19T11:02:02Z</time>
      </trkpt>
      <trkpt lat="43.21027" lon="5.4836">
        <ele>227.4</ele>
        <time>2025-10-19T11:02:03Z</time>
      </trkpt>
      <trkpt lat="43.21027" lon="5.4836">
        <ele>227.4</ele>
        <time>2025-10-19T11:02:04Z</time>
      </trkpt>
      <trkpt lat="43.21027" lon="5.4836">
        <ele>227.3</ele>
        <time>2025-10-19T11:02:05Z</time>
      </trkpt>
      <trkpt lat="43.21027" lon="5.4836">
        <ele>227.3</ele>
        <time>2025-10-19T11:02:06Z</time>
      </trkpt>
      <trkpt lat="43.21027" lon="5.4836">
        <ele>227.3</ele>
        <time>2025-10-19T11:02:07Z</time>
      </trkpt>
      <trkpt lat="43.21027" lon="5.4836">
        <ele>227.4</ele>
        <time>2025-10-19T11:02:08Z</time>
      </trkpt>
      <trkpt lat="43.21027" lon="5.4836">
        <ele>227.4</ele>
        <time>2025-10-19T11:02:09Z</time>
      </trkpt>
      <trkpt lat="43.21027" lon="5.4836">
        <ele>227.4</ele>
        <time>2025-10-19T11:02:10Z</time>
      </trkpt>
      <trkpt lat="43.21027" lon="5.4836">
        <ele>227.4</ele>
        <time>2025-10-19T11:02:11Z</time>
      </trkpt>
      <trkpt lat="43.21027" lon="5.4836">
        <ele>227.4</ele>
        <time>2025-10-19T11:02:12Z</time>
      </trkpt>
      <trkpt lat="43.21027" lon="5.4836">
        <ele>227.5</ele>
        <time>2025-10-19T11:02:13Z</time>
      </trkpt>
      <trkpt lat="43.21027" lon="5.4836">
        <ele>227.5</ele>
        <time>2025-10-19T11:02:14Z</time>
      </trkpt>
      <trkpt lat="43.21027" lon="5.4836">
        <ele>227.5</ele>
        <time>2025-10-19T11:02:15Z</time>
      </trkpt>
      <trkpt lat="43.21027" lon="5.4836">
        <ele>227.3</ele>
        <time>2025-10-19T11:02:16Z</time>
      </trkpt>
      <trkpt lat="43.21027" lon="5.4836">
        <ele>227.1</ele>
        <time>2025-10-19T11:02:17Z</time>
      </trkpt>
      <trkpt lat="43.21027" lon="5.4836">
        <ele>227.1</ele>
        <time>2025-10-19T11:02:18Z</time>
      </trkpt>
      <trkpt lat="43.21027" lon="5.4836">
        <ele>227</ele>
        <time>2025-10-19T11:02:19Z</time>
      </trkpt>
      <trkpt lat="43.21027" lon="5.4836">
        <ele>227</ele>
        <time>2025-10-19T11:02:20Z</time>
      </trkpt>
      <trkpt lat="43.21027" lon="5.4836">
        <ele>227.1</ele>
        <time>2025-10-19T11:02:21Z</time>
      </trkpt>
      <trkpt lat="43.21027" lon="5.4836">
        <ele>227.3</ele>
        <time>2025-10-19T11:02:22Z</time>
      </trkpt>
      <trkpt lat="43.21027" lon="5.4836">
        <ele>227.3</ele>
        <time>2025-10-19T11:02:23Z</time>
      </trkpt>
      <trkpt lat="43.21027" lon="5.4836">
        <ele>227.2</ele>
        <time>2025-10-19T11:02:24Z</time>
      </trkpt>
      <trkpt lat="43.21027" lon="5.4836">
        <ele>227</ele>
        <time>2025-10-19T11:02:25Z</time>
      </trkpt>
      <trkpt lat="43.21027" lon="5.4836">
        <ele>226.9</ele>
        <time>2025-10-19T11:02:26Z</time>
      </trkpt>
      <trkpt lat="43.21027" lon="5.4836">
        <ele>226.8</ele>
        <time>2025-10-19T11:02:27Z</time>
      </trkpt>
      <trkpt lat="43.21027" lon="5.4836">
        <ele>226.8</ele>
        <time>2025-10-19T11:02:28Z</time>
      </trkpt>
      <trkpt lat="43.21027" lon="5.4836">
        <ele>226.7</ele>
        <time>2025-10-19T11:02:29Z</time>
      </trkpt>
      <trkpt lat="43.21027" lon="5.4836">
        <ele>226.7</ele>
        <time>2025-10-19T11:02:30Z</time>
      </trkpt>
      <trkpt lat="43.21027" lon="5.4836">
        <ele>226.7</ele>
        <time>2025-10-19T11:02:31Z</time>
      </trkpt>
      <trkpt lat="43.21027" lon="5.4836">
        <ele>226.7</ele>
        <time>2025-10-19T11:02:32Z</time>
      </trkpt>
      <trkpt lat="43.21027" lon="5.4836">
        <ele>226.7</ele>
        <time>2025-10-19T11:02:33Z</time>
      </trkpt>
      <trkpt lat="43.21027" lon="5.4836">
        <ele>226.7</ele>
        <time>2025-10-19T11:02:34Z</time>
      </trkpt>
      <trkpt lat="43.21027" lon="5.4836">
        <ele>226.8</ele>
        <time>2025-10-19T11:02:35Z</time>
      </trkpt>
      <trkpt lat="43.21027" lon="5.4836">
        <ele>226.8</ele>
        <time>2025-10-19T11:02:36Z</time>
      </trkpt>
      <trkpt lat="43.21027" lon="5.4836">
        <ele>226.9</ele>
        <time>2025-10-19T11:02:37Z</time>
      </trkpt>
      <trkpt lat="43.21027" lon="5.4836">
        <ele>226.9</ele>
        <time>2025-10-19T11:02:38Z</time>
      </trkpt>
      <trkpt lat="43.21027" lon="5.4836">
        <ele>226.8</ele>
        <time>2025-10-19T11:02:39Z</time>
      </trkpt>
      <trkpt lat="43.21027" lon="5.4836">
        <ele>226.8</ele>
        <time>2025-10-19T11:02:40Z</time>
      </trkpt>
      <trkpt lat="43.21027" lon="5.4836">
        <ele>226.9</ele>
        <time>2025-10-19T11:02:41Z</time>
      </trkpt>
      <trkpt lat="43.21027" lon="5.48359">
        <ele>226.9</ele>
        <time>2025-10-19T11:02:42Z</time>
      </trkpt>
      <trkpt lat="43.21027" lon="5.48359">
        <ele>226.9</ele>
        <time>2025-10-19T11:02:43Z</time>
      </trkpt>
      <trkpt lat="43.21027" lon="5.48359">
        <ele>226.9</ele>
        <time>2025-10-19T11:02:44Z</time>
      </trkpt>
      <trkpt lat="43.21027" lon="5.48359">
        <ele>227</ele>
        <time>2025-10-19T11:02:45Z</time>
      </trkpt>
      <trkpt lat="43.21027" lon="5.48359">
        <ele>227</ele>
        <time>2025-10-19T11:02:46Z</time>
      </trkpt>
      <trkpt lat="43.21027" lon="5.48359">
        <ele>227</ele>
        <time>2025-10-19T11:02:47Z</time>
      </trkpt>
      <trkpt lat="43.21027" lon="5.48359">
        <ele>227</ele>
        <time>2025-10-19T11:02:48Z</time>
      </trkpt>
      <trkpt lat="43.21028" lon="5.48359">
        <ele>226.9</ele>
        <time>2025-10-19T11:02:49Z</time>
      </trkpt>
      <trkpt lat="43.21028" lon="5.48359">
        <ele>226.9</ele>
        <time>2025-10-19T11:02:50Z</time>
      </trkpt>
      <trkpt lat="43.21028" lon="5.48359">
        <ele>226.9</ele>
        <time>2025-10-19T11:02:51Z</time>
      </trkpt>
      <trkpt lat="43.21028" lon="5.48359">
        <ele>226.8</ele>
        <time>2025-10-19T11:02:52Z</time>
      </trkpt>
      <trkpt lat="43.21028" lon="5.48359">
        <ele>226.8</ele>
        <time>2025-10-19T11:02:53Z</time>
      </trkpt>
      <trkpt lat="43.21028" lon="5.48359">
        <ele>226.8</ele>
        <time>2025-10-19T11:02:54Z</time>
      </trkpt>
      <trkpt lat="43.21028" lon="5.48359">
        <ele>226.8</ele>
        <time>2025-10-19T11:02:55Z</time>
      </trkpt>
      <trkpt lat="43.21028" lon="5.48359">
        <ele>226.8</ele>
        <time>2025-10-19T11:02:56Z</time>
      </trkpt>
      <trkpt lat="43.21028" lon="5.48359">
        <ele>226.8</ele>
        <time>2025-10-19T11:02:57Z</time>
      </trkpt>
      <trkpt lat="43.21028" lon="5.48359">
        <ele>226.8</ele>
        <time>2025-10-19T11:02:58Z</time>
      </trkpt>
      <trkpt lat="43.21028" lon="5.48359">
        <ele>226.8</ele>
        <time>2025-10-19T11:02:59Z</time>
      </trkpt>
      <trkpt lat="43.21028" lon="5.48359">
        <ele>226.8</ele>
        <time>2025-10-19T11:03:00Z</time>
      </trkpt>
      <trkpt lat="43.21028" lon="5.48359">
        <ele>226.8</ele>
        <time>2025-10-19T11:03:01Z</time>
      </trkpt>
      <trkpt lat="43.21028" lon="5.48359">
        <ele>226.8</ele>
        <time>2025-10-19T11:03:02Z</time>
      </trkpt>
      <trkpt lat="43.21029" lon="5.48359">
        <ele>226.8</ele>
        <time>2025-10-19T11:03:03Z</time>
      </trkpt>
      <trkpt lat="43.21029" lon="5.48359">
        <ele>226.8</ele>
        <time>2025-10-19T11:03:04Z</time>
      </trkpt>
      <trkpt lat="43.21029" lon="5.48359">
        <ele>226.9</ele>
        <time>2025-10-19T11:03:05Z</time>
      </trkpt>
      <trkpt lat="43.21029" lon="5.48359">
        <ele>226.9</ele>
        <time>2025-10-19T11:03:06Z</time>
      </trkpt>
      <trkpt lat="43.21029" lon="5.48359">
        <ele>226.9</ele>
        <time>2025-10-19T11:03:07Z</time>
      </trkpt>
      <trkpt lat="43.21029" lon="5.48359">
        <ele>227</ele>
        <time>2025-10-19T11:03:08Z</time>
      </trkpt>
      <trkpt lat="43.21029" lon="5.48359">
        <ele>227</ele>
        <time>2025-10-19T11:03:09Z</time>
      </trkpt>
      <trkpt lat="43.21029" lon="5.48359">
        <ele>227</ele>
        <time>2025-10-19T11:03:10Z</time>
      </trkpt>
      <trkpt lat="43.21029" lon="5.48359">
        <ele>227</ele>
        <time>2025-10-19T11:03:11Z</time>
      </trkpt>
      <trkpt lat="43.21029" lon="5.48359">
        <ele>227</ele>
        <time>2025-10-19T11:03:12Z</time>
      </trkpt>
      <trkpt lat="43.21029" lon="5.48359">
        <ele>227</ele>
        <time>2025-10-19T11:03:13Z</time>
      </trkpt>
      <trkpt lat="43.21029" lon="5.48359">
        <ele>227</ele>
        <time>2025-10-19T11:03:14Z</time>
      </trkpt>
      <trkpt lat="43.2103" lon="5.48359">
        <ele>226.9</ele>
        <time>2025-10-19T11:03:15Z</time>
      </trkpt>
      <trkpt lat="43.2103" lon="5.48359">
        <ele>226.9</ele>
        <time>2025-10-19T11:03:16Z</time>
      </trkpt>
      <trkpt lat="43.2103" lon="5.48359">
        <ele>227</ele>
        <time>2025-10-19T11:03:17Z</time>
      </trkpt>
      <trkpt lat="43.2103" lon="5.48359">
        <ele>226.9</ele>
        <time>2025-10-19T11:03:18Z</time>
      </trkpt>
      <trkpt lat="43.21029" lon="5.48359">
        <ele>226.9</ele>
        <time>2025-10-19T11:03:19Z</time>
      </trkpt>
      <trkpt lat="43.21029" lon="5.48359">
        <ele>226.9</ele>
        <time>2025-10-19T11:03:20Z</time>
      </trkpt>
      <trkpt lat="43.21029" lon="5.48359">
        <ele>226.9</ele>
        <time>2025-10-19T11:03:21Z</time>
      </trkpt>
      <trkpt lat="43.21029" lon="5.48359">
        <ele>226.9</ele>
        <time>2025-10-19T11:03:22Z</time>
      </trkpt>
      <trkpt lat="43.21029" lon="5.48359">
        <ele>226.8</ele>
        <time>2025-10-19T11:03:23Z</time>
      </trkpt>
      <trkpt lat="43.21029" lon="5.48359">
        <ele>226.8</ele>
        <time>2025-10-19T11:03:24Z</time>
      </trkpt>
      <trkpt lat="43.21029" lon="5.48359">
        <ele>226.8</ele>
        <time>2025-10-19T11:03:25Z</time>
      </trkpt>
      <trkpt lat="43.21029" lon="5.48359">
        <ele>226.9</ele>
        <time>2025-10-19T11:03:26Z</time>
      </trkpt>
      <trkpt lat="43.2103" lon="5.48359">
        <ele>226.9</ele>
        <time>2025-10-19T11:03:27Z</time>
      </trkpt>
      <trkpt lat="43.2103" lon="5.48359">
        <ele>226.9</ele>
        <time>2025-10-19T11:03:28Z</time>
      </trkpt>
      <trkpt lat="43.2103" lon="5.48359">
        <ele>226.9</ele>
        <time>2025-10-19T11:03:29Z</time>
      </trkpt>
      <trkpt lat="43.2103" lon="5.48359">
        <ele>226.9</ele>
        <time>2025-10-19T11:03:30Z</time>
      </trkpt>
      <trkpt lat="43.2103" lon="5.48358">
        <ele>226.8</ele>
        <time>2025-10-19T11:03:31Z</time>
      </trkpt>
      <trkpt lat="43.2103" lon="5.48358">
        <ele>226.8</ele>
        <time>2025-10-19T11:03:32Z</time>
      </trkpt>
      <trkpt lat="43.2103" lon="5.48359">
        <ele>226.8</ele>
        <time>2025-10-19T11:03:33Z</time>
      </trkpt>
      <trkpt lat="43.2103" lon="5.48359">
        <ele>226.8</ele>
        <time>2025-10-19T11:03:34Z</time>
      </trkpt>
      <trkpt lat="43.2103" lon="5.48358">
        <ele>226.8</ele>
        <time>2025-10-19T11:03:35Z</time>
      </trkpt>
      <trkpt lat="43.2103" lon="5.48358">
        <ele>226.7</ele>
        <time>2025-10-19T11:03:36Z</time>
      </trkpt>
      <trkpt lat="43.21029" lon="5.48358">
        <ele>226.7</ele>
        <time>2025-10-19T11:03:37Z</time>
      </trkpt>
      <trkpt lat="43.21029" lon="5.48358">
        <ele>226.7</ele>
        <time>2025-10-19T11:03:38Z</time>
      </trkpt>
      <trkpt lat="43.21029" lon="5.48358">
        <ele>226.6</ele>
        <time>2025-10-19T11:03:39Z</time>
      </trkpt>
      <trkpt lat="43.21029" lon="5.48358">
        <ele>226.6</ele>
        <time>2025-10-19T11:03:40Z</time>
      </trkpt>
      <trkpt lat="43.21029" lon="5.48358">
        <ele>226.6</ele>
        <time>2025-10-19T11:03:41Z</time>
      </trkpt>
      <trkpt lat="43.21029" lon="5.48358">
        <ele>226.6</ele>
        <time>2025-10-19T11:03:42Z</time>
      </trkpt>
      <trkpt lat="43.21029" lon="5.48358">
        <ele>226.6</ele>
        <time>2025-10-19T11:03:43Z</time>
      </trkpt>
      <trkpt lat="43.21029" lon="5.48358">
        <ele>226.6</ele>
        <time>2025-10-19T11:03:44Z</time>
      </trkpt>
      <trkpt lat="43.2103" lon="5.48358">
        <ele>226.6</ele>
        <time>2025-10-19T11:03:45Z</time>
      </trkpt>
      <trkpt lat="43.2103" lon="5.48358">
        <ele>226.6</ele>
        <time>2025-10-19T11:03:46Z</time>
      </trkpt>
      <trkpt lat="43.2103" lon="5.48358">
        <ele>226.7</ele>
        <time>2025-10-19T11:03:47Z</time>
      </trkpt>
      <trkpt lat="43.21029" lon="5.48358">
        <ele>226.7</ele>
        <time>2025-10-19T11:03:48Z</time>
      </trkpt>
      <trkpt lat="43.21029" lon="5.48358">
        <ele>226.8</ele>
        <time>2025-10-19T11:03:49Z</time>
      </trkpt>
      <trkpt lat="43.21029" lon="5.48358">
        <ele>226.8</ele>
        <time>2025-10-19T11:03:50Z</time>
      </trkpt>
      <trkpt lat="43.2103" lon="5.48358">
        <ele>226.8</ele>
        <time>2025-10-19T11:03:51Z</time>
      </trkpt>
      <trkpt lat="43.2103" lon="5.48358">
        <ele>226.9</ele>
        <time>2025-10-19T11:03:52Z</time>
      </trkpt>
      <trkpt lat="43.2103" lon="5.48358">
        <ele>226.9</ele>
        <time>2025-10-19T11:03:53Z</time>
      </trkpt>
      <trkpt lat="43.2103" lon="5.48358">
        <ele>227</ele>
        <time>2025-10-19T11:03:54Z</time>
      </trkpt>
      <trkpt lat="43.2103" lon="5.48358">
        <ele>227</ele>
        <time>2025-10-19T11:03:55Z</time>
      </trkpt>
      <trkpt lat="43.2103" lon="5.48358">
        <ele>227.1</ele>
        <time>2025-10-19T11:03:56Z</time>
      </trkpt>
      <trkpt lat="43.21029" lon="5.48358">
        <ele>227.1</ele>
        <time>2025-10-19T11:03:57Z</time>
      </trkpt>
      <trkpt lat="43.21029" lon="5.48358">
        <ele>227.1</ele>
        <time>2025-10-19T11:03:58Z</time>
      </trkpt>
      <trkpt lat="43.21029" lon="5.48358">
        <ele>227.1</ele>
        <time>2025-10-19T11:03:59Z</time>
      </trkpt>
      <trkpt lat="43.21029" lon="5.48358">
        <ele>227.1</ele>
        <time>2025-10-19T11:04:00Z</time>
      </trkpt>
      <trkpt lat="43.21029" lon="5.48358">
        <ele>227.2</ele>
        <time>2025-10-19T11:04:01Z</time>
      </trkpt>
      <trkpt lat="43.21029" lon="5.48358">
        <ele>227.2</ele>
        <time>2025-10-19T11:04:02Z</time>
      </trkpt>
      <trkpt lat="43.21029" lon="5.48358">
        <ele>227.1</ele>
        <time>2025-10-19T11:04:03Z</time>
      </trkpt>
      <trkpt lat="43.21029" lon="5.48358">
        <ele>227</ele>
        <time>2025-10-19T11:04:04Z</time>
      </trkpt>
      <trkpt lat="43.21029" lon="5.48358">
        <ele>226.9</ele>
        <time>2025-10-19T11:04:05Z</time>
      </trkpt>
      <trkpt lat="43.21029" lon="5.48357">
        <ele>226.9</ele>
        <time>2025-10-19T11:04:06Z</time>
      </trkpt>
      <trkpt lat="43.21029" lon="5.48357">
        <ele>226.9</ele>
        <time>2025-10-19T11:04:07Z</time>
      </trkpt>
      <trkpt lat="43.21029" lon="5.48358">
        <ele>226.8</ele>
        <time>2025-10-19T11:04:08Z</time>
      </trkpt>
      <trkpt lat="43.21029" lon="5.48357">
        <ele>226.9</ele>
        <time>2025-10-19T11:04:09Z</time>
      </trkpt>
      <trkpt lat="43.21029" lon="5.48357">
        <ele>226.9</ele>
        <time>2025-10-19T11:04:10Z</time>
      </trkpt>
      <trkpt lat="43.21029" lon="5.48357">
        <ele>226.9</ele>
        <time>2025-10-19T11:04:11Z</time>
      </trkpt>
      <trkpt lat="43.21029" lon="5.48357">
        <ele>226.9</ele>
        <time>2025-10-19T11:04:12Z</time>
      </trkpt>
      <trkpt lat="43.21029" lon="5.48357">
        <ele>227</ele>
        <time>2025-10-19T11:04:13Z</time>
      </trkpt>
      <trkpt lat="43.21029" lon="5.48358">
        <ele>227.2</ele>
        <time>2025-10-19T11:04:14Z</time>
      </trkpt>
      <trkpt lat="43.21029" lon="5.48357">
        <ele>227.2</ele>
        <time>2025-10-19T11:04:15Z</time>
      </trkpt>
      <trkpt lat="43.21029" lon="5.48357">
        <ele>227.2</ele>
        <time>2025-10-19T11:04:16Z</time>
      </trkpt>
      <trkpt lat="43.21029" lon="5.48357">
        <ele>227.2</ele>
        <time>2025-10-19T11:04:17Z</time>
      </trkpt>
      <trkpt lat="43.21029" lon="5.48357">
        <ele>227.2</ele>
        <time>2025-10-19T11:04:18Z</time>
      </trkpt>
      <trkpt lat="43.21029" lon="5.48357">
        <ele>227.2</ele>
        <time>2025-10-19T11:04:19Z</time>
      </trkpt>
      <trkpt lat="43.21029" lon="5.48358">
        <ele>227.2</ele>
        <time>2025-10-19T11:04:20Z</time>
      </trkpt>
      <trkpt lat="43.21029" lon="5.48358">
        <ele>227.2</ele>
        <time>2025-10-19T11:04:21Z</time>
      </trkpt>
      <trkpt lat="43.21029" lon="5.48358">
        <ele>227.2</ele>
        <time>2025-10-19T11:04:22Z</time>
      </trkpt>
      <trkpt lat="43.21029" lon="5.48358">
        <ele>227.2</ele>
        <time>2025-10-19T11:04:23Z</time>
      </trkpt>
      <trkpt lat="43.21029" lon="5.48358">
        <ele>227.2</ele>
        <time>2025-10-19T11:04:24Z</time>
      </trkpt>
      <trkpt lat="43.21029" lon="5.48358">
        <ele>227.2</ele>
        <time>2025-10-19T11:04:25Z</time>
      </trkpt>
      <trkpt lat="43.21029" lon="5.48358">
        <ele>227.2</ele>
        <time>2025-10-19T11:04:26Z</time>
      </trkpt>
      <trkpt lat="43.21029" lon="5.48358">
        <ele>227.3</ele>
        <time>2025-10-19T11:04:27Z</time>
      </trkpt>
      <trkpt lat="43.21029" lon="5.48358">
        <ele>227.3</ele>
        <time>2025-10-19T11:04:28Z</time>
      </trkpt>
      <trkpt lat="43.21029" lon="5.48358">
        <ele>227.2</ele>
        <time>2025-10-19T11:04:29Z</time>
      </trkpt>
      <trkpt lat="43.21029" lon="5.48358">
        <ele>227.2</ele>
        <time>2025-10-19T11:04:30Z</time>
      </trkpt>
      <trkpt lat="43.2103" lon="5.48358">
        <ele>227.2</ele>
        <time>2025-10-19T11:04:31Z</time>
      </trkpt>
      <trkpt lat="43.2103" lon="5.48358">
        <ele>227.1</ele>
        <time>2025-10-19T11:04:32Z</time>
      </trkpt>
      <trkpt lat="43.2103" lon="5.48358">
        <ele>227.1</ele>
        <time>2025-10-19T11:04:33Z</time>
      </trkpt>
      <trkpt lat="43.2103" lon="5.48358">
        <ele>227</ele>
        <time>2025-10-19T11:04:34Z</time>
      </trkpt>
      <trkpt lat="43.2103" lon="5.48358">
        <ele>227</ele>
        <time>2025-10-19T11:04:35Z</time>
      </trkpt>
      <trkpt lat="43.2103" lon="5.48358">
        <ele>227</ele>
        <time>2025-10-19T11:04:36Z</time>
      </trkpt>
      <trkpt lat="43.2103" lon="5.48358">
        <ele>227</ele>
        <time>2025-10-19T11:04:37Z</time>
      </trkpt>
      <trkpt lat="43.2103" lon="5.48358">
        <ele>227</ele>
        <time>2025-10-19T11:04:38Z</time>
      </trkpt>
      <trkpt lat="43.2103" lon="5.48358">
        <ele>227.1</ele>
        <time>2025-10-19T11:04:39Z</time>
      </trkpt>
      <trkpt lat="43.2103" lon="5.48358">
        <ele>227</ele>
        <time>2025-10-19T11:04:40Z</time>
      </trkpt>
      <trkpt lat="43.2103" lon="5.48358">
        <ele>227</ele>
        <time>2025-10-19T11:04:41Z</time>
      </trkpt>
      <trkpt lat="43.2103" lon="5.48358">
        <ele>227</ele>
        <time>2025-10-19T11:04:42Z</time>
      </trkpt>
      <trkpt lat="43.2103" lon="5.48358">
        <ele>227.1</ele>
        <time>2025-10-19T11:04:43Z</time>
      </trkpt>
      <trkpt lat="43.2103" lon="5.48358">
        <ele>227.1</ele>
        <time>2025-10-19T11:04:44Z</time>
      </trkpt>
      <trkpt lat="43.2103" lon="5.48358">
        <ele>227</ele>
        <time>2025-10-19T11:04:45Z</time>
      </trkpt>
      <trkpt lat="43.2103" lon="5.48358">
        <ele>227</ele>
        <time>2025-10-19T11:04:46Z</time>
      </trkpt>
      <trkpt lat="43.2103" lon="5.48358">
        <ele>227</ele>
        <time>2025-10-19T11:04:47Z</time>
      </trkpt>
      <trkpt lat="43.2103" lon="5.48358">
        <ele>227.1</ele>
        <time>2025-10-19T11:04:48Z</time>
      </trkpt>
      <trkpt lat="43.2103" lon="5.48358">
        <ele>227.1</ele>
        <time>2025-10-19T11:04:49Z</time>
      </trkpt>
      <trkpt lat="43.2103" lon="5.48358">
        <ele>227.1</ele>
        <time>2025-10-19T11:04:50Z</time>
      </trkpt>
      <trkpt lat="43.2103" lon="5.48359">
        <ele>227.1</ele>
        <time>2025-10-19T11:04:51Z</time>
      </trkpt>
      <trkpt lat="43.2103" lon="5.48359">
        <ele>227</ele>
        <time>2025-10-19T11:04:52Z</time>
      </trkpt>
      <trkpt lat="43.2103" lon="5.48359">
        <ele>227.1</ele>
        <time>2025-10-19T11:04:53Z</time>
      </trkpt>
      <trkpt lat="43.2103" lon="5.48359">
        <ele>227.1</ele>
        <time>2025-10-19T11:04:54Z</time>
      </trkpt>
      <trkpt lat="43.2103" lon="5.48359">
        <ele>227.2</ele>
        <time>2025-10-19T11:04:55Z</time>
      </trkpt>
      <trkpt lat="43.2103" lon="5.48359">
        <ele>227.2</ele>
        <time>2025-10-19T11:04:56Z</time>
      </trkpt>
      <trkpt lat="43.2103" lon="5.48359">
        <ele>227.1</ele>
        <time>2025-10-19T11:04:57Z</time>
      </trkpt>
      <trkpt lat="43.2103" lon="5.48359">
        <ele>227.1</ele>
        <time>2025-10-19T11:04:58Z</time>
      </trkpt>
      <trkpt lat="43.2103" lon="5.48359">
        <ele>227.1</ele>
        <time>2025-10-19T11:04:59Z</time>
      </trkpt>
      <trkpt lat="43.2103" lon="5.48359">
        <ele>227.1</ele>
        <time>2025-10-19T11:05:00Z</time>
      </trkpt>
      <trkpt lat="43.2103" lon="5.48359">
        <ele>227</ele>
        <time>2025-10-19T11:05:01Z</time>
      </trkpt>
      <trkpt lat="43.2103" lon="5.48359">
        <ele>227</ele>
        <time>2025-10-19T11:05:02Z</time>
      </trkpt>
      <trkpt lat="43.2103" lon="5.48359">
        <ele>227.1</ele>
        <time>2025-10-19T11:05:03Z</time>
      </trkpt>
      <trkpt lat="43.2103" lon="5.48359">
        <ele>227.1</ele>
        <time>2025-10-19T11:05:04Z</time>
      </trkpt>
      <trkpt lat="43.2103" lon="5.48359">
        <ele>227.2</ele>
        <time>2025-10-19T11:05:05Z</time>
      </trkpt>
      <trkpt lat="43.2103" lon="5.48359">
        <ele>227.2</ele>
        <time>2025-10-19T11:05:06Z</time>
      </trkpt>
      <trkpt lat="43.2103" lon="5.48359">
        <ele>227.2</ele>
        <time>2025-10-19T11:05:07Z</time>
      </trkpt>
      <trkpt lat="43.2103" lon="5.48359">
        <ele>227.3</ele>
        <time>2025-10-19T11:05:08Z</time>
      </trkpt>
      <trkpt lat="43.2103" lon="5.48359">
        <ele>227.2</ele>
        <time>2025-10-19T11:05:09Z</time>
      </trkpt>
      <trkpt lat="43.2103" lon="5.48359">
        <ele>227.2</ele>
        <time>2025-10-19T11:05:10Z</time>
      </trkpt>
      <trkpt lat="43.2103" lon="5.48359">
        <ele>227.2</ele>
        <time>2025-10-19T11:05:11Z</time>
      </trkpt>
      <trkpt lat="43.2103" lon="5.48359">
        <ele>227.3</ele>
        <time>2025-10-19T11:05:12Z</time>
      </trkpt>
      <trkpt lat="43.2103" lon="5.48359">
        <ele>227.3</ele>
        <time>2025-10-19T11:05:13Z</time>
      </trkpt>
      <trkpt lat="43.2103" lon="5.48359">
        <ele>227.3</ele>
        <time>2025-10-19T11:05:14Z</time>
      </trkpt>
      <trkpt lat="43.2103" lon="5.48359">
        <ele>227.4</ele>
        <time>2025-10-19T11:05:15Z</time>
      </trkpt>
      <trkpt lat="43.2103" lon="5.48359">
        <ele>227.4</ele>
        <time>2025-10-19T11:05:16Z</time>
      </trkpt>
      <trkpt lat="43.2103" lon="5.48359">
        <ele>227.4</ele>
        <time>2025-10-19T11:05:17Z</time>
      </trkpt>
      <trkpt lat="43.2103" lon="5.48359">
        <ele>227.4</ele>
        <time>2025-10-19T11:05:18Z</time>
      </trkpt>
      <trkpt lat="43.2103" lon="5.48359">
        <ele>227.3</ele>
        <time>2025-10-19T11:05:19Z</time>
      </trkpt>
      <trkpt lat="43.2103" lon="5.48358">
        <ele>227.3</ele>
        <time>2025-10-19T11:05:20Z</time>
      </trkpt>
      <trkpt lat="43.2103" lon="5.48358">
        <ele>227.3</ele>
        <time>2025-10-19T11:05:21Z</time>
      </trkpt>
      <trkpt lat="43.2103" lon="5.48358">
        <ele>227.2</ele>
        <time>2025-10-19T11:05:22Z</time>
      </trkpt>
      <trkpt lat="43.2103" lon="5.48358">
        <ele>227.2</ele>
        <time>2025-10-19T11:05:23Z</time>
      </trkpt>
      <trkpt lat="43.21031" lon="5.48358">
        <ele>227.2</ele>
        <time>2025-10-19T11:05:24Z</time>
      </trkpt>
      <trkpt lat="43.21031" lon="5.48358">
        <ele>227.2</ele>
        <time>2025-10-19T11:05:25Z</time>
      </trkpt>
      <trkpt lat="43.21031" lon="5.48358">
        <ele>227.2</ele>
        <time>2025-10-19T11:05:26Z</time>
      </trkpt>
      <trkpt lat="43.2103" lon="5.48358">
        <ele>227.2</ele>
        <time>2025-10-19T11:05:27Z</time>
      </trkpt>
      <trkpt lat="43.2103" lon="5.48358">
        <ele>227.1</ele>
        <time>2025-10-19T11:05:28Z</time>
      </trkpt>
      <trkpt lat="43.2103" lon="5.48358">
        <ele>227.1</ele>
        <time>2025-10-19T11:05:29Z</time>
      </trkpt>
      <trkpt lat="43.2103" lon="5.48358">
        <ele>227</ele>
        <time>2025-10-19T11:05:30Z</time>
      </trkpt>
      <trkpt lat="43.2103" lon="5.48358">
        <ele>227</ele>
        <time>2025-10-19T11:05:31Z</time>
      </trkpt>
      <trkpt lat="43.2103" lon="5.48358">
        <ele>227</ele>
        <time>2025-10-19T11:05:32Z</time>
      </trkpt>
      <trkpt lat="43.2103" lon="5.48358">
        <ele>227</ele>
        <time>2025-10-19T11:05:33Z</time>
      </trkpt>
      <trkpt lat="43.2103" lon="5.48358">
        <ele>227.1</ele>
        <time>2025-10-19T11:05:34Z</time>
      </trkpt>
      <trkpt lat="43.2103" lon="5.48358">
        <ele>227.1</ele>
        <time>2025-10-19T11:05:35Z</time>
      </trkpt>
      <trkpt lat="43.2103" lon="5.48358">
        <ele>227.2</ele>
        <time>2025-10-19T11:05:36Z</time>
      </trkpt>
      <trkpt lat="43.2103" lon="5.48358">
        <ele>227.2</ele>
        <time>2025-10-19T11:05:37Z</time>
      </trkpt>
      <trkpt lat="43.2103" lon="5.48358">
        <ele>227.2</ele>
        <time>2025-10-19T11:05:38Z</time>
      </trkpt>
      <trkpt lat="43.2103" lon="5.48358">
        <ele>227.2</ele>
        <time>2025-10-19T11:05:39Z</time>
      </trkpt>
      <trkpt lat="43.2103" lon="5.48358">
        <ele>227.2</ele>
        <time>2025-10-19T11:05:40Z</time>
      </trkpt>
      <trkpt lat="43.2103" lon="5.48358">
        <ele>227.2</ele>
        <time>2025-10-19T11:05:41Z</time>
      </trkpt>
      <trkpt lat="43.2103" lon="5.48358">
        <ele>227.2</ele>
        <time>2025-10-19T11:05:42Z</time>
      </trkpt>
      <trkpt lat="43.2103" lon="5.48358">
        <ele>227.2</ele>
        <time>2025-10-19T11:05:43Z</time>
      </trkpt>
      <trkpt lat="43.2103" lon="5.48358">
        <ele>227.2</ele>
        <time>2025-10-19T11:05:44Z</time>
      </trkpt>
      <trkpt lat="43.2103" lon="5.48358">
        <ele>227.2</ele>
        <time>2025-10-19T11:05:45Z</time>
      </trkpt>
      <trkpt lat="43.2103" lon="5.48358">
        <ele>227.2</ele>
        <time>2025-10-19T11:05:46Z</time>
      </trkpt>
      <trkpt lat="43.2103" lon="5.48358">
        <ele>227.1</ele>
        <time>2025-10-19T11:05:47Z</time>
      </trkpt>
      <trkpt lat="43.2103" lon="5.48358">
        <ele>227.2</ele>
        <time>2025-10-19T11:05:48Z</time>
      </trkpt>
      <trkpt lat="43.2103" lon="5.48358">
        <ele>227.2</ele>
        <time>2025-10-19T11:05:49Z</time>
      </trkpt>
      <trkpt lat="43.2103" lon="5.48359">
        <ele>227.2</ele>
        <time>2025-10-19T11:05:50Z</time>
      </trkpt>
      <trkpt lat="43.2103" lon="5.48359">
        <ele>227.2</ele>
        <time>2025-10-19T11:05:51Z</time>
      </trkpt>
      <trkpt lat="43.2103" lon="5.48359">
        <ele>227.2</ele>
        <time>2025-10-19T11:05:52Z</time>
      </trkpt>
      <trkpt lat="43.2103" lon="5.48359">
        <ele>227.3</ele>
        <time>2025-10-19T11:05:53Z</time>
      </trkpt>
      <trkpt lat="43.21029" lon="5.48359">
        <ele>227.3</ele>
        <time>2025-10-19T11:05:54Z</time>
      </trkpt>
      <trkpt lat="43.21029" lon="5.48359">
        <ele>227.3</ele>
        <time>2025-10-19T11:05:55Z</time>
      </trkpt>
      <trkpt lat="43.21029" lon="5.48359">
        <ele>227.3</ele>
        <time>2025-10-19T11:05:56Z</time>
      </trkpt>
      <trkpt lat="43.21029" lon="5.48359">
        <ele>227.3</ele>
        <time>2025-10-19T11:05:57Z</time>
      </trkpt>
      <trkpt lat="43.21029" lon="5.48359">
        <ele>227.4</ele>
        <time>2025-10-19T11:05:58Z</time>
      </trkpt>
      <trkpt lat="43.21029" lon="5.48358">
        <ele>227.4</ele>
        <time>2025-10-19T11:05:59Z</time>
      </trkpt>
      <trkpt lat="43.21029" lon="5.48358">
        <ele>227.4</ele>
        <time>2025-10-19T11:06:00Z</time>
      </trkpt>
      <trkpt lat="43.21029" lon="5.48358">
        <ele>227.4</ele>
        <time>2025-10-19T11:06:01Z</time>
      </trkpt>
      <trkpt lat="43.21029" lon="5.48358">
        <ele>227.4</ele>
        <time>2025-10-19T11:06:02Z</time>
      </trkpt>
      <trkpt lat="43.21029" lon="5.48358">
        <ele>227.4</ele>
        <time>2025-10-19T11:06:03Z</time>
      </trkpt>
      <trkpt lat="43.21029" lon="5.48358">
        <ele>227.5</ele>
        <time>2025-10-19T11:06:04Z</time>
      </trkpt>
      <trkpt lat="43.21029" lon="5.48358">
        <ele>227.3</ele>
        <time>2025-10-19T11:06:05Z</time>
      </trkpt>
      <trkpt lat="43.21029" lon="5.48358">
        <ele>227.3</ele>
        <time>2025-10-19T11:06:06Z</time>
      </trkpt>
      <trkpt lat="43.21029" lon="5.48358">
        <ele>227.3</ele>
        <time>2025-10-19T11:06:07Z</time>
      </trkpt>
      <trkpt lat="43.21029" lon="5.48358">
        <ele>227.4</ele>
        <time>2025-10-19T11:06:08Z</time>
      </trkpt>
      <trkpt lat="43.21029" lon="5.48358">
        <ele>227.5</ele>
        <time>2025-10-19T11:06:09Z</time>
      </trkpt>
      <trkpt lat="43.21029" lon="5.48358">
        <ele>227.5</ele>
        <time>2025-10-19T11:06:10Z</time>
      </trkpt>
      <trkpt lat="43.21029" lon="5.48358">
        <ele>227.5</ele>
        <time>2025-10-19T11:06:11Z</time>
      </trkpt>
      <trkpt lat="43.21029" lon="5.48358">
        <ele>227.5</ele>
        <time>2025-10-19T11:06:12Z</time>
      </trkpt>
      <trkpt lat="43.21029" lon="5.48358">
        <ele>227.5</ele>
        <time>2025-10-19T11:06:13Z</time>
      </trkpt>
      <trkpt lat="43.21028" lon="5.48358">
        <ele>227.5</ele>
        <time>2025-10-19T11:06:14Z</time>
      </trkpt>
      <trkpt lat="43.21028" lon="5.48358">
        <ele>227.5</ele>
        <time>2025-10-19T11:06:15Z</time>
      </trkpt>
      <trkpt lat="43.21028" lon="5.48358">
        <ele>227.5</ele>
        <time>2025-10-19T11:06:16Z</time>
      </trkpt>
      <trkpt lat="43.21028" lon="5.48358">
        <ele>227.4</ele>
        <time>2025-10-19T11:06:17Z</time>
      </trkpt>
      <trkpt lat="43.21028" lon="5.48358">
        <ele>227.3</ele>
        <time>2025-10-19T11:06:18Z</time>
      </trkpt>
      <trkpt lat="43.21028" lon="5.48358">
        <ele>227.4</ele>
        <time>2025-10-19T11:06:19Z</time>
      </trkpt>
      <trkpt lat="43.21028" lon="5.48358">
        <ele>227.4</ele>
        <time>2025-10-19T11:06:20Z</time>
      </trkpt>
      <trkpt lat="43.21028" lon="5.48358">
        <ele>227.4</ele>
        <time>2025-10-19T11:06:21Z</time>
      </trkpt>
      <trkpt lat="43.21028" lon="5.48358">
        <ele>227.4</ele>
        <time>2025-10-19T11:06:22Z</time>
      </trkpt>
      <trkpt lat="43.21028" lon="5.48358">
        <ele>227.3</ele>
        <time>2025-10-19T11:06:23Z</time>
      </trkpt>
      <trkpt lat="43.21028" lon="5.48358">
        <ele>227.3</ele>
        <time>2025-10-19T11:06:24Z</time>
      </trkpt>
      <trkpt lat="43.21028" lon="5.48358">
        <ele>227.2</ele>
        <time>2025-10-19T11:06:25Z</time>
      </trkpt>
      <trkpt lat="43.21028" lon="5.48358">
        <ele>227.2</ele>
        <time>2025-10-19T11:06:26Z</time>
      </trkpt>
      <trkpt lat="43.21028" lon="5.48358">
        <ele>227.2</ele>
        <time>2025-10-19T11:06:27Z</time>
      </trkpt>
      <trkpt lat="43.21028" lon="5.48358">
        <ele>227.2</ele>
        <time>2025-10-19T11:06:28Z</time>
      </trkpt>
      <trkpt lat="43.21028" lon="5.48358">
        <ele>227.2</ele>
        <time>2025-10-19T11:06:29Z</time>
      </trkpt>
      <trkpt lat="43.21028" lon="5.48358">
        <ele>227.2</ele>
        <time>2025-10-19T11:06:30Z</time>
      </trkpt>
      <trkpt lat="43.21028" lon="5.48358">
        <ele>227.2</ele>
        <time>2025-10-19T11:06:31Z</time>
      </trkpt>
      <trkpt lat="43.21028" lon="5.48358">
        <ele>227.2</ele>
        <time>2025-10-19T11:06:32Z</time>
      </trkpt>
      <trkpt lat="43.21027" lon="5.48358">
        <ele>227.2</ele>
        <time>2025-10-19T11:06:33Z</time>
      </trkpt>
      <trkpt lat="43.21027" lon="5.48358">
        <ele>227.2</ele>
        <time>2025-10-19T11:06:34Z</time>
      </trkpt>
      <trkpt lat="43.21027" lon="5.48358">
        <ele>227.2</ele>
        <time>2025-10-19T11:06:35Z</time>
      </trkpt>
      <trkpt lat="43.21027" lon="5.48358">
        <ele>227.2</ele>
        <time>2025-10-19T11:06:36Z</time>
      </trkpt>
      <trkpt lat="43.21027" lon="5.48358">
        <ele>227.2</ele>
        <time>2025-10-19T11:06:37Z</time>
      </trkpt>
      <trkpt lat="43.21027" lon="5.48358">
        <ele>227.2</ele>
        <time>2025-10-19T11:06:38Z</time>
      </trkpt>
      <trkpt lat="43.21027" lon="5.48358">
        <ele>227.2</ele>
        <time>2025-10-19T11:06:39Z</time>
      </trkpt>
      <trkpt lat="43.21027" lon="5.48358">
        <ele>227.2</ele>
        <time>2025-10-19T11:06:40Z</time>
      </trkpt>
      <trkpt lat="43.21027" lon="5.48358">
        <ele>227.2</ele>
        <time>2025-10-19T11:06:41Z</time>
      </trkpt>
      <trkpt lat="43.21027" lon="5.48358">
        <ele>227.2</ele>
        <time>2025-10-19T11:06:42Z</time>
      </trkpt>
      <trkpt lat="43.21027" lon="5.48358">
        <ele>227.3</ele>
        <time>2025-10-19T11:06:43Z</time>
      </trkpt>
      <trkpt lat="43.21027" lon="5.48358">
        <ele>227.4</ele>
        <time>2025-10-19T11:06:44Z</time>
      </trkpt>
      <trkpt lat="43.21026" lon="5.48358">
        <ele>227.4</ele>
        <time>2025-10-19T11:06:45Z</time>
      </trkpt>
      <trkpt lat="43.21026" lon="5.48358">
        <ele>227.3</ele>
        <time>2025-10-19T11:06:46Z</time>
      </trkpt>
      <trkpt lat="43.21026" lon="5.48358">
        <ele>227.3</ele>
        <time>2025-10-19T11:06:47Z</time>
      </trkpt>
      <trkpt lat="43.21026" lon="5.48358">
        <ele>227.3</ele>
        <time>2025-10-19T11:06:48Z</time>
      </trkpt>
      <trkpt lat="43.21026" lon="5.48358">
        <ele>227.3</ele>
        <time>2025-10-19T11:06:49Z</time>
      </trkpt>
      <trkpt lat="43.21026" lon="5.48358">
        <ele>227.2</ele>
        <time>2025-10-19T11:06:50Z</time>
      </trkpt>
      <trkpt lat="43.21026" lon="5.48358">
        <ele>227.2</ele>
        <time>2025-10-19T11:06:51Z</time>
      </trkpt>
      <trkpt lat="43.21026" lon="5.48358">
        <ele>227.1</ele>
        <time>2025-10-19T11:06:52Z</time>
      </trkpt>
      <trkpt lat="43.21026" lon="5.48358">
        <ele>227.1</ele>
        <time>2025-10-19T11:06:53Z</time>
      </trkpt>
      <trkpt lat="43.21026" lon="5.48358">
        <ele>227.2</ele>
        <time>2025-10-19T11:06:54Z</time>
      </trkpt>
      <trkpt lat="43.21026" lon="5.48358">
        <ele>227.2</ele>
        <time>2025-10-19T11:06:55Z</time>
      </trkpt>
      <trkpt lat="43.21026" lon="5.48358">
        <ele>227.2</ele>
        <time>2025-10-19T11:06:56Z</time>
      </trkpt>
      <trkpt lat="43.21026" lon="5.48358">
        <ele>227.2</ele>
        <time>2025-10-19T11:06:57Z</time>
      </trkpt>
      <trkpt lat="43.21026" lon="5.48358">
        <ele>227.2</ele>
        <time>2025-10-19T11:06:58Z</time>
      </trkpt>
      <trkpt lat="43.21026" lon="5.48358">
        <ele>227.2</ele>
        <time>2025-10-19T11:06:59Z</time>
      </trkpt>
      <trkpt lat="43.21026" lon="5.48358">
        <ele>227.2</ele>
        <time>2025-10-19T11:07:00Z</time>
      </trkpt>
      <trkpt lat="43.21026" lon="5.48358">
        <ele>227.1</ele>
        <time>2025-10-19T11:07:01Z</time>
      </trkpt>
      <trkpt lat="43.21026" lon="5.48358">
        <ele>227.1</ele>
        <time>2025-10-19T11:07:02Z</time>
      </trkpt>
      <trkpt lat="43.21026" lon="5.48358">
        <ele>227.1</ele>
        <time>2025-10-19T11:07:03Z</time>
      </trkpt>
      <trkpt lat="43.21026" lon="5.48358">
        <ele>227.1</ele>
        <time>2025-10-19T11:07:04Z</time>
      </trkpt>
      <trkpt lat="43.21026" lon="5.48358">
        <ele>227</ele>
        <time>2025-10-19T11:07:05Z</time>
      </trkpt>
      <trkpt lat="43.21026" lon="5.48358">
        <ele>227</ele>
        <time>2025-10-19T11:07:06Z</time>
      </trkpt>
      <trkpt lat="43.21026" lon="5.48358">
        <ele>227</ele>
        <time>2025-10-19T11:07:07Z</time>
      </trkpt>
      <trkpt lat="43.21026" lon="5.48358">
        <ele>227.1</ele>
        <time>2025-10-19T11:07:08Z</time>
      </trkpt>
      <trkpt lat="43.21026" lon="5.48358">
        <ele>227.1</ele>
        <time>2025-10-19T11:07:09Z</time>
      </trkpt>
      <trkpt lat="43.21026" lon="5.48358">
        <ele>227.1</ele>
        <time>2025-10-19T11:07:10Z</time>
      </trkpt>
      <trkpt lat="43.21026" lon="5.48358">
        <ele>227.1</ele>
        <time>2025-10-19T11:07:11Z</time>
      </trkpt>
      <trkpt lat="43.21026" lon="5.48358">
        <ele>227</ele>
        <time>2025-10-19T11:07:12Z</time>
      </trkpt>
      <trkpt lat="43.21026" lon="5.48358">
        <ele>227</ele>
        <time>2025-10-19T11:07:13Z</time>
      </trkpt>
      <trkpt lat="43.21026" lon="5.48358">
        <ele>227</ele>
        <time>2025-10-19T11:07:14Z</time>
      </trkpt>
      <trkpt lat="43.21026" lon="5.48357">
        <ele>226.9</ele>
        <time>2025-10-19T11:07:15Z</time>
      </trkpt>
      <trkpt lat="43.21025" lon="5.48357">
        <ele>226.9</ele>
        <time>2025-10-19T11:07:16Z</time>
      </trkpt>
      <trkpt lat="43.21025" lon="5.48357">
        <ele>226.8</ele>
        <time>2025-10-19T11:07:17Z</time>
      </trkpt>
      <trkpt lat="43.21026" lon="5.48357">
        <ele>226.9</ele>
        <time>2025-10-19T11:07:18Z</time>
      </trkpt>
      <trkpt lat="43.21026" lon="5.48357">
        <ele>226.9</ele>
        <time>2025-10-19T11:07:19Z</time>
      </trkpt>
      <trkpt lat="43.21025" lon="5.48357">
        <ele>227</ele>
        <time>2025-10-19T11:07:20Z</time>
      </trkpt>
      <trkpt lat="43.21025" lon="5.48357">
        <ele>227.1</ele>
        <time>2025-10-19T11:07:21Z</time>
      </trkpt>
      <trkpt lat="43.21025" lon="5.48357">
        <ele>227.1</ele>
        <time>2025-10-19T11:07:22Z</time>
      </trkpt>
      <trkpt lat="43.21025" lon="5.48357">
        <ele>227.1</ele>
        <time>2025-10-19T11:07:23Z</time>
      </trkpt>
      <trkpt lat="43.21025" lon="5.48357">
        <ele>227.1</ele>
        <time>2025-10-19T11:07:24Z</time>
      </trkpt>
      <trkpt lat="43.21025" lon="5.48357">
        <ele>227.1</ele>
        <time>2025-10-19T11:07:25Z</time>
      </trkpt>
      <trkpt lat="43.21025" lon="5.48357">
        <ele>227.1</ele>
        <time>2025-10-19T11:07:26Z</time>
      </trkpt>
      <trkpt lat="43.21025" lon="5.48357">
        <ele>227.1</ele>
        <time>2025-10-19T11:07:27Z</time>
      </trkpt>
      <trkpt lat="43.21025" lon="5.48357">
        <ele>227.1</ele>
        <time>2025-10-19T11:07:28Z</time>
      </trkpt>
      <trkpt lat="43.21025" lon="5.48357">
        <ele>227.1</ele>
        <time>2025-10-19T11:07:29Z</time>
      </trkpt>
      <trkpt lat="43.21025" lon="5.48357">
        <ele>227.1</ele>
        <time>2025-10-19T11:07:30Z</time>
      </trkpt>
      <trkpt lat="43.21025" lon="5.48357">
        <ele>227.1</ele>
        <time>2025-10-19T11:07:31Z</time>
      </trkpt>
      <trkpt lat="43.21025" lon="5.48357">
        <ele>227.1</ele>
        <time>2025-10-19T11:07:32Z</time>
      </trkpt>
      <trkpt lat="43.21025" lon="5.48357">
        <ele>227.1</ele>
        <time>2025-10-19T11:07:33Z</time>
      </trkpt>
      <trkpt lat="43.21025" lon="5.48357">
        <ele>227.1</ele>
        <time>2025-10-19T11:07:34Z</time>
      </trkpt>
      <trkpt lat="43.21025" lon="5.48357">
        <ele>227.1</ele>
        <time>2025-10-19T11:07:35Z</time>
      </trkpt>
      <trkpt lat="43.21025" lon="5.48357">
        <ele>227.1</ele>
        <time>2025-10-19T11:07:36Z</time>
      </trkpt>
      <trkpt lat="43.21025" lon="5.48357">
        <ele>227.1</ele>
        <time>2025-10-19T11:07:37Z</time>
      </trkpt>
      <trkpt lat="43.21025" lon="5.48357">
        <ele>227.1</ele>
        <time>2025-10-19T11:07:38Z</time>
      </trkpt>
      <trkpt lat="43.21025" lon="5.48357">
        <ele>227.1</ele>
        <time>2025-10-19T11:07:39Z</time>
      </trkpt>
      <trkpt lat="43.21025" lon="5.48357">
        <ele>227.1</ele>
        <time>2025-10-19T11:07:40Z</time>
      </trkpt>
      <trkpt lat="43.21025" lon="5.48357">
        <ele>227.2</ele>
        <time>2025-10-19T11:07:41Z</time>
      </trkpt>
      <trkpt lat="43.21025" lon="5.48357">
        <ele>227.3</ele>
        <time>2025-10-19T11:07:42Z</time>
      </trkpt>
      <trkpt lat="43.21025" lon="5.48357">
        <ele>227.2</ele>
        <time>2025-10-19T11:07:43Z</time>
      </trkpt>
      <trkpt lat="43.21025" lon="5.48357">
        <ele>227.2</ele>
        <time>2025-10-19T11:07:44Z</time>
      </trkpt>
      <trkpt lat="43.21025" lon="5.48357">
        <ele>227.2</ele>
        <time>2025-10-19T11:07:45Z</time>
      </trkpt>
      <trkpt lat="43.21025" lon="5.48357">
        <ele>227.1</ele>
        <time>2025-10-19T11:07:46Z</time>
      </trkpt>
      <trkpt lat="43.21025" lon="5.48357">
        <ele>227.1</ele>
        <time>2025-10-19T11:07:47Z</time>
      </trkpt>
      <trkpt lat="43.21025" lon="5.48357">
        <ele>227.1</ele>
        <time>2025-10-19T11:07:48Z</time>
      </trkpt>
      <trkpt lat="43.21025" lon="5.48357">
        <ele>227.1</ele>
        <time>2025-10-19T11:07:49Z</time>
      </trkpt>
      <trkpt lat="43.21025" lon="5.48357">
        <ele>227.1</ele>
        <time>2025-10-19T11:07:50Z</time>
      </trkpt>
      <trkpt lat="43.21025" lon="5.48357">
        <ele>227</ele>
        <time>2025-10-19T11:07:51Z</time>
      </trkpt>
      <trkpt lat="43.21025" lon="5.48357">
        <ele>227</ele>
        <time>2025-10-19T11:07:52Z</time>
      </trkpt>
      <trkpt lat="43.21025" lon="5.48357">
        <ele>227</ele>
        <time>2025-10-19T11:07:53Z</time>
      </trkpt>
      <trkpt lat="43.21025" lon="5.48357">
        <ele>227</ele>
        <time>2025-10-19T11:07:54Z</time>
      </trkpt>
      <trkpt lat="43.21025" lon="5.48357">
        <ele>227</ele>
        <time>2025-10-19T11:07:55Z</time>
      </trkpt>
      <trkpt lat="43.21025" lon="5.48357">
        <ele>227</ele>
        <time>2025-10-19T11:07:56Z</time>
      </trkpt>
      <trkpt lat="43.21025" lon="5.48357">
        <ele>227</ele>
        <time>2025-10-19T11:07:57Z</time>
      </trkpt>
      <trkpt lat="43.21025" lon="5.48357">
        <ele>227</ele>
        <time>2025-10-19T11:07:58Z</time>
      </trkpt>
      <trkpt lat="43.21025" lon="5.48357">
        <ele>227</ele>
        <time>2025-10-19T11:07:59Z</time>
      </trkpt>
      <trkpt lat="43.21025" lon="5.48357">
        <ele>227</ele>
        <time>2025-10-19T11:08:00Z</time>
      </trkpt>
      <trkpt lat="43.21025" lon="5.48357">
        <ele>227</ele>
        <time>2025-10-19T11:08:01Z</time>
      </trkpt>
      <trkpt lat="43.21025" lon="5.48357">
        <ele>227</ele>
        <time>2025-10-19T11:08:02Z</time>
      </trkpt>
      <trkpt lat="43.21025" lon="5.48357">
        <ele>227.1</ele>
        <time>2025-10-19T11:08:03Z</time>
      </trkpt>
      <trkpt lat="43.21025" lon="5.48357">
        <ele>227</ele>
        <time>2025-10-19T11:08:04Z</time>
      </trkpt>
      <trkpt lat="43.21025" lon="5.48357">
        <ele>227</ele>
        <time>2025-10-19T11:08:05Z</time>
      </trkpt>
      <trkpt lat="43.21025" lon="5.48357">
        <ele>227.1</ele>
        <time>2025-10-19T11:08:06Z</time>
      </trkpt>
      <trkpt lat="43.21025" lon="5.48357">
        <ele>227.1</ele>
        <time>2025-10-19T11:08:07Z</time>
      </trkpt>
      <trkpt lat="43.21024" lon="5.48357">
        <ele>227.1</ele>
        <time>2025-10-19T11:08:08Z</time>
      </trkpt>
      <trkpt lat="43.21024" lon="5.48357">
        <ele>227.1</ele>
        <time>2025-10-19T11:08:09Z</time>
      </trkpt>
      <trkpt lat="43.21024" lon="5.48357">
        <ele>227.1</ele>
        <time>2025-10-19T11:08:10Z</time>
      </trkpt>
      <trkpt lat="43.21024" lon="5.48357">
        <ele>227.1</ele>
        <time>2025-10-19T11:08:11Z</time>
      </trkpt>
      <trkpt lat="43.21024" lon="5.48357">
        <ele>227</ele>
        <time>2025-10-19T11:08:12Z</time>
      </trkpt>
      <trkpt lat="43.21024" lon="5.48357">
        <ele>227</ele>
        <time>2025-10-19T11:08:13Z</time>
      </trkpt>
      <trkpt lat="43.21024" lon="5.48357">
        <ele>227</ele>
        <time>2025-10-19T11:08:14Z</time>
      </trkpt>
      <trkpt lat="43.21024" lon="5.48357">
        <ele>227</ele>
        <time>2025-10-19T11:08:15Z</time>
      </trkpt>
      <trkpt lat="43.21024" lon="5.48357">
        <ele>226.9</ele>
        <time>2025-10-19T11:08:16Z</time>
      </trkpt>
      <trkpt lat="43.21024" lon="5.48357">
        <ele>227</ele>
        <time>2025-10-19T11:08:17Z</time>
      </trkpt>
      <trkpt lat="43.21024" lon="5.48357">
        <ele>227.1</ele>
        <time>2025-10-19T11:08:18Z</time>
      </trkpt>
      <trkpt lat="43.21024" lon="5.48357">
        <ele>227.2</ele>
        <time>2025-10-19T11:08:19Z</time>
      </trkpt>
      <trkpt lat="43.21023" lon="5.48357">
        <ele>227.2</ele>
        <time>2025-10-19T11:08:20Z</time>
      </trkpt>
      <trkpt lat="43.21023" lon="5.48357">
        <ele>227.3</ele>
        <time>2025-10-19T11:08:21Z</time>
      </trkpt>
      <trkpt lat="43.21023" lon="5.48357">
        <ele>227.4</ele>
        <time>2025-10-19T11:08:22Z</time>
      </trkpt>
      <trkpt lat="43.21023" lon="5.48357">
        <ele>227.4</ele>
        <time>2025-10-19T11:08:23Z</time>
      </trkpt>
      <trkpt lat="43.21023" lon="5.48357">
        <ele>227.4</ele>
        <time>2025-10-19T11:08:24Z</time>
      </trkpt>
      <trkpt lat="43.21023" lon="5.48357">
        <ele>227.4</ele>
        <time>2025-10-19T11:08:25Z</time>
      </trkpt>
      <trkpt lat="43.21023" lon="5.48357">
        <ele>227.4</ele>
        <time>2025-10-19T11:08:26Z</time>
      </trkpt>
      <trkpt lat="43.21023" lon="5.48357">
        <ele>227.4</ele>
        <time>2025-10-19T11:08:27Z</time>
      </trkpt>
      <trkpt lat="43.21023" lon="5.48357">
        <ele>227.4</ele>
        <time>2025-10-19T11:08:28Z</time>
      </trkpt>
      <trkpt lat="43.21023" lon="5.48357">
        <ele>227.4</ele>
        <time>2025-10-19T11:08:29Z</time>
      </trkpt>
      <trkpt lat="43.21023" lon="5.48357">
        <ele>227.4</ele>
        <time>2025-10-19T11:08:30Z</time>
      </trkpt>
      <trkpt lat="43.21023" lon="5.48357">
        <ele>227.5</ele>
        <time>2025-10-19T11:08:31Z</time>
      </trkpt>
      <trkpt lat="43.21023" lon="5.48357">
        <ele>227.5</ele>
        <time>2025-10-19T11:08:32Z</time>
      </trkpt>
      <trkpt lat="43.21023" lon="5.48357">
        <ele>227.5</ele>
        <time>2025-10-19T11:08:33Z</time>
      </trkpt>
      <trkpt lat="43.21023" lon="5.48357">
        <ele>227.5</ele>
        <time>2025-10-19T11:08:34Z</time>
      </trkpt>
      <trkpt lat="43.21023" lon="5.48357">
        <ele>227.6</ele>
        <time>2025-10-19T11:08:35Z</time>
      </trkpt>
      <trkpt lat="43.21023" lon="5.48357">
        <ele>227.6</ele>
        <time>2025-10-19T11:08:36Z</time>
      </trkpt>
      <trkpt lat="43.21023" lon="5.48357">
        <ele>227.6</ele>
        <time>2025-10-19T11:08:37Z</time>
      </trkpt>
      <trkpt lat="43.21023" lon="5.48357">
        <ele>227.7</ele>
        <time>2025-10-19T11:08:38Z</time>
      </trkpt>
      <trkpt lat="43.21023" lon="5.48357">
        <ele>227.7</ele>
        <time>2025-10-19T11:08:39Z</time>
      </trkpt>
      <trkpt lat="43.21023" lon="5.48357">
        <ele>227.8</ele>
        <time>2025-10-19T11:08:40Z</time>
      </trkpt>
      <trkpt lat="43.21023" lon="5.48357">
        <ele>227.8</ele>
        <time>2025-10-19T11:08:41Z</time>
      </trkpt>
      <trkpt lat="43.21023" lon="5.48357">
        <ele>227.8</ele>
        <time>2025-10-19T11:08:42Z</time>
      </trkpt>
      <trkpt lat="43.21023" lon="5.48357">
        <ele>227.9</ele>
        <time>2025-10-19T11:08:43Z</time>
      </trkpt>
      <trkpt lat="43.21023" lon="5.48357">
        <ele>227.9</ele>
        <time>2025-10-19T11:08:44Z</time>
      </trkpt>
      <trkpt lat="43.21023" lon="5.48357">
        <ele>227.9</ele>
        <time>2025-10-19T11:08:45Z</time>
      </trkpt>
      <trkpt lat="43.21023" lon="5.48357">
        <ele>227.9</ele>
        <time>2025-10-19T11:08:46Z</time>
      </trkpt>
      <trkpt lat="43.21023" lon="5.48357">
        <ele>227.8</ele>
        <time>2025-10-19T11:08:47Z</time>
      </trkpt>
      <trkpt lat="43.21023" lon="5.48357">
        <ele>227.8</ele>
        <time>2025-10-19T11:08:48Z</time>
      </trkpt>
      <trkpt lat="43.21023" lon="5.48357">
        <ele>227.9</ele>
        <time>2025-10-19T11:08:49Z</time>
      </trkpt>
      <trkpt lat="43.21023" lon="5.48357">
        <ele>227.9</ele>
        <time>2025-10-19T11:08:50Z</time>
      </trkpt>
      <trkpt lat="43.21023" lon="5.48357">
        <ele>227.8</ele>
        <time>2025-10-19T11:08:51Z</time>
      </trkpt>
      <trkpt lat="43.21023" lon="5.48357">
        <ele>227.7</ele>
        <time>2025-10-19T11:08:52Z</time>
      </trkpt>
      <trkpt lat="43.21023" lon="5.48357">
        <ele>227.6</ele>
        <time>2025-10-19T11:08:53Z</time>
      </trkpt>
      <trkpt lat="43.21023" lon="5.48357">
        <ele>227.7</ele>
        <time>2025-10-19T11:08:54Z</time>
      </trkpt>
      <trkpt lat="43.21023" lon="5.48357">
        <ele>227.8</ele>
        <time>2025-10-19T11:08:55Z</time>
      </trkpt>
      <trkpt lat="43.21023" lon="5.48357">
        <ele>227.8</ele>
        <time>2025-10-19T11:08:56Z</time>
      </trkpt>
      <trkpt lat="43.21023" lon="5.48357">
        <ele>227.8</ele>
        <time>2025-10-19T11:08:57Z</time>
      </trkpt>
      <trkpt lat="43.21023" lon="5.48357">
        <ele>227.8</ele>
        <time>2025-10-19T11:08:58Z</time>
      </trkpt>
      <trkpt lat="43.21023" lon="5.48357">
        <ele>227.7</ele>
        <time>2025-10-19T11:08:59Z</time>
      </trkpt>
      <trkpt lat="43.21023" lon="5.48357">
        <ele>227.7</ele>
        <time>2025-10-19T11:09:00Z</time>
      </trkpt>
      <trkpt lat="43.21023" lon="5.48357">
        <ele>227.7</ele>
        <time>2025-10-19T11:09:01Z</time>
      </trkpt>
      <trkpt lat="43.21023" lon="5.48357">
        <ele>227.6</ele>
        <time>2025-10-19T11:09:02Z</time>
      </trkpt>
      <trkpt lat="43.21023" lon="5.48357">
        <ele>227.6</ele>
        <time>2025-10-19T11:09:03Z</time>
      </trkpt>
      <trkpt lat="43.21023" lon="5.48357">
        <ele>227.6</ele>
        <time>2025-10-19T11:09:04Z</time>
      </trkpt>
      <trkpt lat="43.21023" lon="5.48357">
        <ele>227.5</ele>
        <time>2025-10-19T11:09:05Z</time>
      </trkpt>
      <trkpt lat="43.21023" lon="5.48357">
        <ele>227.5</ele>
        <time>2025-10-19T11:09:06Z</time>
      </trkpt>
      <trkpt lat="43.21023" lon="5.48357">
        <ele>227.5</ele>
        <time>2025-10-19T11:09:07Z</time>
      </trkpt>
      <trkpt lat="43.21023" lon="5.48357">
        <ele>227.5</ele>
        <time>2025-10-19T11:09:08Z</time>
      </trkpt>
      <trkpt lat="43.21023" lon="5.48357">
        <ele>227.4</ele>
        <time>2025-10-19T11:09:09Z</time>
      </trkpt>
      <trkpt lat="43.21023" lon="5.48357">
        <ele>227.4</ele>
        <time>2025-10-19T11:09:10Z</time>
      </trkpt>
      <trkpt lat="43.21023" lon="5.48357">
        <ele>227.4</ele>
        <time>2025-10-19T11:09:11Z</time>
      </trkpt>
      <trkpt lat="43.21023" lon="5.48357">
        <ele>227.5</ele>
        <time>2025-10-19T11:09:12Z</time>
      </trkpt>
      <trkpt lat="43.21023" lon="5.48357">
        <ele>227.5</ele>
        <time>2025-10-19T11:09:13Z</time>
      </trkpt>
      <trkpt lat="43.21023" lon="5.48357">
        <ele>227.5</ele>
        <time>2025-10-19T11:09:14Z</time>
      </trkpt>
      <trkpt lat="43.21023" lon="5.48357">
        <ele>227.5</ele>
        <time>2025-10-19T11:09:15Z</time>
      </trkpt>
      <trkpt lat="43.21023" lon="5.48357">
        <ele>227.6</ele>
        <time>2025-10-19T11:09:16Z</time>
      </trkpt>
      <trkpt lat="43.21023" lon="5.48357">
        <ele>227.6</ele>
        <time>2025-10-19T11:09:17Z</time>
      </trkpt>
      <trkpt lat="43.21023" lon="5.48357">
        <ele>227.6</ele>
        <time>2025-10-19T11:09:18Z</time>
      </trkpt>
      <trkpt lat="43.21023" lon="5.48357">
        <ele>227.6</ele>
        <time>2025-10-19T11:09:19Z</time>
      </trkpt>
      <trkpt lat="43.21023" lon="5.48357">
        <ele>227.6</ele>
        <time>2025-10-19T11:09:20Z</time>
      </trkpt>
      <trkpt lat="43.21023" lon="5.48357">
        <ele>227.5</ele>
        <time>2025-10-19T11:09:21Z</time>
      </trkpt>
      <trkpt lat="43.21023" lon="5.48357">
        <ele>227.5</ele>
        <time>2025-10-19T11:09:22Z</time>
      </trkpt>
      <trkpt lat="43.21024" lon="5.48357">
        <ele>227.6</ele>
        <time>2025-10-19T11:09:23Z</time>
      </trkpt>
      <trkpt lat="43.21024" lon="5.48357">
        <ele>227.5</ele>
        <time>2025-10-19T11:09:24Z</time>
      </trkpt>
      <trkpt lat="43.21024" lon="5.48357">
        <ele>227.4</ele>
        <time>2025-10-19T11:09:25Z</time>
      </trkpt>
      <trkpt lat="43.21024" lon="5.48357">
        <ele>227.3</ele>
        <time>2025-10-19T11:09:26Z</time>
      </trkpt>
      <trkpt lat="43.21024" lon="5.48357">
        <ele>227.2</ele>
        <time>2025-10-19T11:09:27Z</time>
      </trkpt>
      <trkpt lat="43.21024" lon="5.48357">
        <ele>227.3</ele>
        <time>2025-10-19T11:09:28Z</time>
      </trkpt>
      <trkpt lat="43.21024" lon="5.48358">
        <ele>227.2</ele>
        <time>2025-10-19T11:09:29Z</time>
      </trkpt>
      <trkpt lat="43.21024" lon="5.48358">
        <ele>227.1</ele>
        <time>2025-10-19T11:09:30Z</time>
      </trkpt>
      <trkpt lat="43.21024" lon="5.48358">
        <ele>227.1</ele>
        <time>2025-10-19T11:09:31Z</time>
      </trkpt>
      <trkpt lat="43.21024" lon="5.48357">
        <ele>227.1</ele>
        <time>2025-10-19T11:09:32Z</time>
      </trkpt>
      <trkpt lat="43.21024" lon="5.48358">
        <ele>227.1</ele>
        <time>2025-10-19T11:09:33Z</time>
      </trkpt>
      <trkpt lat="43.21024" lon="5.48358">
        <ele>227.1</ele>
        <time>2025-10-19T11:09:34Z</time>
      </trkpt>
      <trkpt lat="43.21024" lon="5.48358">
        <ele>227</ele>
        <time>2025-10-19T11:09:35Z</time>
      </trkpt>
      <trkpt lat="43.21024" lon="5.48358">
        <ele>227</ele>
        <time>2025-10-19T11:09:36Z</time>
      </trkpt>
      <trkpt lat="43.21024" lon="5.48358">
        <ele>227.1</ele>
        <time>2025-10-19T11:09:37Z</time>
      </trkpt>
      <trkpt lat="43.21025" lon="5.48358">
        <ele>227.1</ele>
        <time>2025-10-19T11:09:38Z</time>
      </trkpt>
      <trkpt lat="43.21025" lon="5.48358">
        <ele>227</ele>
        <time>2025-10-19T11:09:39Z</time>
      </trkpt>
      <trkpt lat="43.21025" lon="5.48358">
        <ele>226.9</ele>
        <time>2025-10-19T11:09:40Z</time>
      </trkpt>
      <trkpt lat="43.21025" lon="5.48358">
        <ele>226.9</ele>
        <time>2025-10-19T11:09:41Z</time>
      </trkpt>
      <trkpt lat="43.21025" lon="5.48358">
        <ele>226.9</ele>
        <time>2025-10-19T11:09:42Z</time>
      </trkpt>
      <trkpt lat="43.21025" lon="5.48358">
        <ele>226.8</ele>
        <time>2025-10-19T11:09:43Z</time>
      </trkpt>
      <trkpt lat="43.21025" lon="5.48358">
        <ele>226.9</ele>
        <time>2025-10-19T11:09:44Z</time>
      </trkpt>
      <trkpt lat="43.21025" lon="5.48359">
        <ele>226.9</ele>
        <time>2025-10-19T11:09:45Z</time>
      </trkpt>
      <trkpt lat="43.21025" lon="5.48359">
        <ele>226.9</ele>
        <time>2025-10-19T11:09:46Z</time>
      </trkpt>
      <trkpt lat="43.21025" lon="5.48359">
        <ele>226.9</ele>
        <time>2025-10-19T11:09:47Z</time>
      </trkpt>
      <trkpt lat="43.21025" lon="5.48359">
        <ele>226.9</ele>
        <time>2025-10-19T11:09:48Z</time>
      </trkpt>
      <trkpt lat="43.21026" lon="5.48359">
        <ele>226.9</ele>
        <time>2025-10-19T11:09:49Z</time>
      </trkpt>
      <trkpt lat="43.21026" lon="5.4836">
        <ele>227</ele>
        <time>2025-10-19T11:09:50Z</time>
      </trkpt>
      <trkpt lat="43.21026" lon="5.4836">
        <ele>227</ele>
        <time>2025-10-19T11:09:51Z</time>
      </trkpt>
      <trkpt lat="43.21026" lon="5.4836">
        <ele>227</ele>
        <time>2025-10-19T11:09:52Z</time>
      </trkpt>
      <trkpt lat="43.21026" lon="5.4836">
        <ele>227</ele>
        <time>2025-10-19T11:09:53Z</time>
      </trkpt>
      <trkpt lat="43.21026" lon="5.4836">
        <ele>227</ele>
        <time>2025-10-19T11:09:54Z</time>
      </trkpt>
      <trkpt lat="43.21026" lon="5.4836">
        <ele>227</ele>
        <time>2025-10-19T11:09:55Z</time>
      </trkpt>
      <trkpt lat="43.21026" lon="5.4836">
        <ele>227.1</ele>
        <time>2025-10-19T11:09:56Z</time>
      </trkpt>
      <trkpt lat="43.21026" lon="5.4836">
        <ele>227.1</ele>
        <time>2025-10-19T11:09:57Z</time>
      </trkpt>
      <trkpt lat="43.21026" lon="5.4836">
        <ele>227.2</ele>
        <time>2025-10-19T11:09:58Z</time>
      </trkpt>
      <trkpt lat="43.21026" lon="5.4836">
        <ele>227.2</ele>
        <time>2025-10-19T11:09:59Z</time>
      </trkpt>
      <trkpt lat="43.21026" lon="5.4836">
        <ele>227.2</ele>
        <time>2025-10-19T11:10:00Z</time>
      </trkpt>
      <trkpt lat="43.21026" lon="5.4836">
        <ele>227.1</ele>
        <time>2025-10-19T11:10:01Z</time>
      </trkpt>
      <trkpt lat="43.21026" lon="5.4836">
        <ele>227.1</ele>
        <time>2025-10-19T11:10:02Z</time>
      </trkpt>
      <trkpt lat="43.21026" lon="5.4836">
        <ele>227.1</ele>
        <time>2025-10-19T11:10:03Z</time>
      </trkpt>
      <trkpt lat="43.21026" lon="5.4836">
        <ele>227.1</ele>
        <time>2025-10-19T11:10:04Z</time>
      </trkpt>
      <trkpt lat="43.21026" lon="5.4836">
        <ele>227.1</ele>
        <time>2025-10-19T11:10:05Z</time>
      </trkpt>
      <trkpt lat="43.21026" lon="5.48361">
        <ele>227.1</ele>
        <time>2025-10-19T11:10:06Z</time>
      </trkpt>
      <trkpt lat="43.21026" lon="5.48361">
        <ele>227.2</ele>
        <time>2025-10-19T11:10:07Z</time>
      </trkpt>
      <trkpt lat="43.21026" lon="5.48361">
        <ele>227.2</ele>
        <time>2025-10-19T11:10:08Z</time>
      </trkpt>
      <trkpt lat="43.21026" lon="5.48361">
        <ele>227.2</ele>
        <time>2025-10-19T11:10:09Z</time>
      </trkpt>
      <trkpt lat="43.21026" lon="5.4836">
        <ele>227.2</ele>
        <time>2025-10-19T11:10:10Z</time>
      </trkpt>
      <trkpt lat="43.21026" lon="5.48361">
        <ele>227.2</ele>
        <time>2025-10-19T11:10:11Z</time>
      </trkpt>
      <trkpt lat="43.21026" lon="5.4836">
        <ele>227.3</ele>
        <time>2025-10-19T11:10:12Z</time>
      </trkpt>
      <trkpt lat="43.21026" lon="5.48361">
        <ele>227.3</ele>
        <time>2025-10-19T11:10:13Z</time>
      </trkpt>
      <trkpt lat="43.21027" lon="5.48361">
        <ele>227.4</ele>
        <time>2025-10-19T11:10:14Z</time>
      </trkpt>
      <trkpt lat="43.21027" lon="5.48361">
        <ele>227.4</ele>
        <time>2025-10-19T11:10:15Z</time>
      </trkpt>
      <trkpt lat="43.21027" lon="5.48361">
        <ele>227.5</ele>
        <time>2025-10-19T11:10:16Z</time>
      </trkpt>
      <trkpt lat="43.21027" lon="5.48361">
        <ele>227.4</ele>
        <time>2025-10-19T11:10:17Z</time>
      </trkpt>
      <trkpt lat="43.21027" lon="5.48361">
        <ele>227.4</ele>
        <time>2025-10-19T11:10:18Z</time>
      </trkpt>
      <trkpt lat="43.21027" lon="5.48361">
        <ele>227.4</ele>
        <time>2025-10-19T11:10:19Z</time>
      </trkpt>
      <trkpt lat="43.21027" lon="5.48361">
        <ele>227.4</ele>
        <time>2025-10-19T11:10:20Z</time>
      </trkpt>
      <trkpt lat="43.21027" lon="5.48361">
        <ele>227.4</ele>
        <time>2025-10-19T11:10:21Z</time>
      </trkpt>
      <trkpt lat="43.21027" lon="5.48361">
        <ele>227.4</ele>
        <time>2025-10-19T11:10:22Z</time>
      </trkpt>
      <trkpt lat="43.21027" lon="5.48361">
        <ele>227.5</ele>
        <time>2025-10-19T11:10:23Z</time>
      </trkpt>
      <trkpt lat="43.21027" lon="5.48361">
        <ele>227.5</ele>
        <time>2025-10-19T11:10:24Z</time>
      </trkpt>
      <trkpt lat="43.21027" lon="5.48361">
        <ele>227.7</ele>
        <time>2025-10-19T11:10:25Z</time>
      </trkpt>
      <trkpt lat="43.21027" lon="5.48361">
        <ele>227.7</ele>
        <time>2025-10-19T11:10:26Z</time>
      </trkpt>
      <trkpt lat="43.21027" lon="5.48361">
        <ele>227.7</ele>
        <time>2025-10-19T11:10:27Z</time>
      </trkpt>
      <trkpt lat="43.21027" lon="5.48361">
        <ele>227.6</ele>
        <time>2025-10-19T11:10:28Z</time>
      </trkpt>
      <trkpt lat="43.21027" lon="5.48361">
        <ele>227.6</ele>
        <time>2025-10-19T11:10:29Z</time>
      </trkpt>
      <trkpt lat="43.21027" lon="5.48361">
        <ele>227.6</ele>
        <time>2025-10-19T11:10:30Z</time>
      </trkpt>
      <trkpt lat="43.21028" lon="5.48361">
        <ele>227.5</ele>
        <time>2025-10-19T11:10:31Z</time>
      </trkpt>
      <trkpt lat="43.21028" lon="5.48362">
        <ele>227.5</ele>
        <time>2025-10-19T11:10:32Z</time>
      </trkpt>
      <trkpt lat="43.21028" lon="5.48362">
        <ele>227.4</ele>
        <time>2025-10-19T11:10:33Z</time>
      </trkpt>
      <trkpt lat="43.21028" lon="5.48362">
        <ele>227.4</ele>
        <time>2025-10-19T11:10:34Z</time>
      </trkpt>
      <trkpt lat="43.21028" lon="5.48362">
        <ele>227.4</ele>
        <time>2025-10-19T11:10:35Z</time>
      </trkpt>
      <trkpt lat="43.21027" lon="5.48362">
        <ele>227.5</ele>
        <time>2025-10-19T11:10:36Z</time>
      </trkpt>
      <trkpt lat="43.21027" lon="5.48362">
        <ele>227.5</ele>
        <time>2025-10-19T11:10:37Z</time>
      </trkpt>
      <trkpt lat="43.21027" lon="5.48362">
        <ele>227.5</ele>
        <time>2025-10-19T11:10:38Z</time>
      </trkpt>
      <trkpt lat="43.21027" lon="5.48361">
        <ele>227.6</ele>
        <time>2025-10-19T11:10:39Z</time>
      </trkpt>
      <trkpt lat="43.21027" lon="5.48361">
        <ele>227.7</ele>
        <time>2025-10-19T11:10:40Z</time>
      </trkpt>
      <trkpt lat="43.21027" lon="5.48361">
        <ele>227.7</ele>
        <time>2025-10-19T11:10:41Z</time>
      </trkpt>
      <trkpt lat="43.21027" lon="5.48361">
        <ele>227.6</ele>
        <time>2025-10-19T11:10:42Z</time>
      </trkpt>
      <trkpt lat="43.21027" lon="5.48361">
        <ele>227.6</ele>
        <time>2025-10-19T11:10:43Z</time>
      </trkpt>
      <trkpt lat="43.21027" lon="5.48361">
        <ele>227.6</ele>
        <time>2025-10-19T11:10:44Z</time>
      </trkpt>
      <trkpt lat="43.21027" lon="5.48361">
        <ele>227.7</ele>
        <time>2025-10-19T11:10:45Z</time>
      </trkpt>
      <trkpt lat="43.21027" lon="5.48361">
        <ele>227.7</ele>
        <time>2025-10-19T11:10:46Z</time>
      </trkpt>
      <trkpt lat="43.21026" lon="5.48361">
        <ele>227.8</ele>
        <time>2025-10-19T11:10:47Z</time>
      </trkpt>
      <trkpt lat="43.21026" lon="5.48361">
        <ele>227.8</ele>
        <time>2025-10-19T11:10:48Z</time>
      </trkpt>
      <trkpt lat="43.21026" lon="5.48361">
        <ele>227.9</ele>
        <time>2025-10-19T11:10:49Z</time>
      </trkpt>
      <trkpt lat="43.21026" lon="5.48361">
        <ele>227.9</ele>
        <time>2025-10-19T11:10:50Z</time>
      </trkpt>
      <trkpt lat="43.21026" lon="5.48361">
        <ele>228</ele>
        <time>2025-10-19T11:10:51Z</time>
      </trkpt>
      <trkpt lat="43.21026" lon="5.48361">
        <ele>228</ele>
        <time>2025-10-19T11:10:52Z</time>
      </trkpt>
      <trkpt lat="43.21026" lon="5.48361">
        <ele>228</ele>
        <time>2025-10-19T11:10:53Z</time>
      </trkpt>
      <trkpt lat="43.21026" lon="5.48361">
        <ele>228</ele>
        <time>2025-10-19T11:10:54Z</time>
      </trkpt>
      <trkpt lat="43.21026" lon="5.48361">
        <ele>228</ele>
        <time>2025-10-19T11:10:55Z</time>
      </trkpt>
      <trkpt lat="43.21026" lon="5.48361">
        <ele>228</ele>
        <time>2025-10-19T11:10:56Z</time>
      </trkpt>
      <trkpt lat="43.21026" lon="5.48361">
        <ele>228</ele>
        <time>2025-10-19T11:10:57Z</time>
      </trkpt>
      <trkpt lat="43.21026" lon="5.48361">
        <ele>227.9</ele>
        <time>2025-10-19T11:10:58Z</time>
      </trkpt>
      <trkpt lat="43.21026" lon="5.48361">
        <ele>228</ele>
        <time>2025-10-19T11:10:59Z</time>
      </trkpt>
      <trkpt lat="43.21026" lon="5.48361">
        <ele>227.9</ele>
        <time>2025-10-19T11:11:00Z</time>
      </trkpt>
      <trkpt lat="43.21026" lon="5.48361">
        <ele>227.8</ele>
        <time>2025-10-19T11:11:01Z</time>
      </trkpt>
      <trkpt lat="43.21026" lon="5.48361">
        <ele>227.8</ele>
        <time>2025-10-19T11:11:02Z</time>
      </trkpt>
      <trkpt lat="43.21026" lon="5.48361">
        <ele>227.8</ele>
        <time>2025-10-19T11:11:03Z</time>
      </trkpt>
      <trkpt lat="43.21026" lon="5.48361">
        <ele>227.9</ele>
        <time>2025-10-19T11:11:04Z</time>
      </trkpt>
      <trkpt lat="43.21026" lon="5.48361">
        <ele>227.9</ele>
        <time>2025-10-19T11:11:05Z</time>
      </trkpt>
      <trkpt lat="43.21026" lon="5.48361">
        <ele>227.8</ele>
        <time>2025-10-19T11:11:06Z</time>
      </trkpt>
      <trkpt lat="43.21026" lon="5.48361">
        <ele>227.8</ele>
        <time>2025-10-19T11:11:07Z</time>
      </trkpt>
      <trkpt lat="43.21026" lon="5.48361">
        <ele>227.7</ele>
        <time>2025-10-19T11:11:08Z</time>
      </trkpt>
      <trkpt lat="43.21026" lon="5.48361">
        <ele>227.7</ele>
        <time>2025-10-19T11:11:09Z</time>
      </trkpt>
      <trkpt lat="43.21026" lon="5.48361">
        <ele>227.7</ele>
        <time>2025-10-19T11:11:10Z</time>
      </trkpt>
      <trkpt lat="43.21027" lon="5.48361">
        <ele>227.7</ele>
        <time>2025-10-19T11:11:11Z</time>
      </trkpt>
      <trkpt lat="43.21027" lon="5.48362">
        <ele>227.7</ele>
        <time>2025-10-19T11:11:12Z</time>
      </trkpt>
      <trkpt lat="43.21027" lon="5.48362">
        <ele>227.7</ele>
        <time>2025-10-19T11:11:13Z</time>
      </trkpt>
      <trkpt lat="43.21027" lon="5.48362">
        <ele>227.8</ele>
        <time>2025-10-19T11:11:14Z</time>
      </trkpt>
      <trkpt lat="43.21027" lon="5.48362">
        <ele>227.8</ele>
        <time>2025-10-19T11:11:15Z</time>
      </trkpt>
      <trkpt lat="43.21027" lon="5.48362">
        <ele>227.8</ele>
        <time>2025-10-19T11:11:16Z</time>
      </trkpt>
      <trkpt lat="43.21027" lon="5.48362">
        <ele>227.8</ele>
        <time>2025-10-19T11:11:17Z</time>
      </trkpt>
      <trkpt lat="43.21027" lon="5.48362">
        <ele>227.7</ele>
        <time>2025-10-19T11:11:18Z</time>
      </trkpt>
      <trkpt lat="43.21027" lon="5.48362">
        <ele>227.7</ele>
        <time>2025-10-19T11:11:19Z</time>
      </trkpt>
      <trkpt lat="43.21027" lon="5.48362">
        <ele>227.7</ele>
        <time>2025-10-19T11:11:20Z</time>
      </trkpt>
      <trkpt lat="43.21027" lon="5.48362">
        <ele>227.7</ele>
        <time>2025-10-19T11:11:21Z</time>
      </trkpt>
      <trkpt lat="43.21027" lon="5.48362">
        <ele>227.7</ele>
        <time>2025-10-19T11:11:22Z</time>
      </trkpt>
      <trkpt lat="43.21027" lon="5.48362">
        <ele>227.8</ele>
        <time>2025-10-19T11:11:23Z</time>
      </trkpt>
      <trkpt lat="43.21027" lon="5.48362">
        <ele>227.8</ele>
        <time>2025-10-19T11:11:24Z</time>
      </trkpt>
      <trkpt lat="43.21027" lon="5.48362">
        <ele>227.9</ele>
        <time>2025-10-19T11:11:25Z</time>
      </trkpt>
      <trkpt lat="43.21027" lon="5.48362">
        <ele>228</ele>
        <time>2025-10-19T11:11:26Z</time>
      </trkpt>
      <trkpt lat="43.21027" lon="5.48362">
        <ele>228</ele>
        <time>2025-10-19T11:11:27Z</time>
      </trkpt>
      <trkpt lat="43.21027" lon="5.48362">
        <ele>227.9</ele>
        <time>2025-10-19T11:11:28Z</time>
      </trkpt>
      <trkpt lat="43.21027" lon="5.48362">
        <ele>227.9</ele>
        <time>2025-10-19T11:11:29Z</time>
      </trkpt>
      <trkpt lat="43.21027" lon="5.48362">
        <ele>227.9</ele>
        <time>2025-10-19T11:11:30Z</time>
      </trkpt>
      <trkpt lat="43.21027" lon="5.48362">
        <ele>228</ele>
        <time>2025-10-19T11:11:31Z</time>
      </trkpt>
      <trkpt lat="43.21026" lon="5.48361">
        <ele>228</ele>
        <time>2025-10-19T11:11:32Z</time>
      </trkpt>
      <trkpt lat="43.21026" lon="5.48361">
        <ele>228.1</ele>
        <time>2025-10-19T11:11:33Z</time>
      </trkpt>
      <trkpt lat="43.21026" lon="5.48361">
        <ele>228.1</ele>
        <time>2025-10-19T11:11:34Z</time>
      </trkpt>
      <trkpt lat="43.21026" lon="5.48361">
        <ele>228.2</ele>
        <time>2025-10-19T11:11:35Z</time>
      </trkpt>
      <trkpt lat="43.21026" lon="5.48361">
        <ele>228.2</ele>
        <time>2025-10-19T11:11:36Z</time>
      </trkpt>
      <trkpt lat="43.21026" lon="5.48361">
        <ele>228.3</ele>
        <time>2025-10-19T11:11:37Z</time>
      </trkpt>
      <trkpt lat="43.21026" lon="5.48361">
        <ele>228.3</ele>
        <time>2025-10-19T11:11:38Z</time>
      </trkpt>
      <trkpt lat="43.21026" lon="5.48361">
        <ele>228.3</ele>
        <time>2025-10-19T11:11:39Z</time>
      </trkpt>
      <trkpt lat="43.21026" lon="5.48361">
        <ele>228.3</ele>
        <time>2025-10-19T11:11:40Z</time>
      </trkpt>
      <trkpt lat="43.21026" lon="5.48361">
        <ele>228.3</ele>
        <time>2025-10-19T11:11:41Z</time>
      </trkpt>
      <trkpt lat="43.21026" lon="5.48361">
        <ele>228.4</ele>
        <time>2025-10-19T11:11:42Z</time>
      </trkpt>
      <trkpt lat="43.21026" lon="5.48361">
        <ele>228.3</ele>
        <time>2025-10-19T11:11:43Z</time>
      </trkpt>
      <trkpt lat="43.21026" lon="5.48361">
        <ele>228.3</ele>
        <time>2025-10-19T11:11:44Z</time>
      </trkpt>
      <trkpt lat="43.21026" lon="5.48361">
        <ele>228.3</ele>
        <time>2025-10-19T11:11:45Z</time>
      </trkpt>
      <trkpt lat="43.21026" lon="5.48361">
        <ele>228.3</ele>
        <time>2025-10-19T11:11:46Z</time>
      </trkpt>
      <trkpt lat="43.21026" lon="5.48361">
        <ele>228.3</ele>
        <time>2025-10-19T11:11:47Z</time>
      </trkpt>
      <trkpt lat="43.21026" lon="5.48361">
        <ele>228.3</ele>
        <time>2025-10-19T11:11:48Z</time>
      </trkpt>
      <trkpt lat="43.21026" lon="5.48361">
        <ele>228.3</ele>
        <time>2025-10-19T11:11:49Z</time>
      </trkpt>
      <trkpt lat="43.21026" lon="5.48361">
        <ele>228.2</ele>
        <time>2025-10-19T11:11:50Z</time>
      </trkpt>
      <trkpt lat="43.21026" lon="5.48361">
        <ele>228.2</ele>
        <time>2025-10-19T11:11:51Z</time>
      </trkpt>
      <trkpt lat="43.21026" lon="5.48361">
        <ele>228.2</ele>
        <time>2025-10-19T11:11:52Z</time>
      </trkpt>
      <trkpt lat="43.21026" lon="5.48361">
        <ele>228.3</ele>
        <time>2025-10-19T11:11:53Z</time>
      </trkpt>
      <trkpt lat="43.21026" lon="5.4836">
        <ele>228.3</ele>
        <time>2025-10-19T11:11:54Z</time>
      </trkpt>
      <trkpt lat="43.21026" lon="5.4836">
        <ele>228.4</ele>
        <time>2025-10-19T11:11:55Z</time>
      </trkpt>
      <trkpt lat="43.21026" lon="5.4836">
        <ele>228.4</ele>
        <time>2025-10-19T11:11:56Z</time>
      </trkpt>
      <trkpt lat="43.21026" lon="5.4836">
        <ele>228.4</ele>
        <time>2025-10-19T11:11:57Z</time>
      </trkpt>
      <trkpt lat="43.21025" lon="5.4836">
        <ele>228.4</ele>
        <time>2025-10-19T11:11:58Z</time>
      </trkpt>
      <trkpt lat="43.21025" lon="5.4836">
        <ele>228.5</ele>
        <time>2025-10-19T11:11:59Z</time>
      </trkpt>
      <trkpt lat="43.21025" lon="5.4836">
        <ele>228.4</ele>
        <time>2025-10-19T11:12:00Z</time>
      </trkpt>
      <trkpt lat="43.21025" lon="5.4836">
        <ele>228.3</ele>
        <time>2025-10-19T11:12:01Z</time>
      </trkpt>
      <trkpt lat="43.21025" lon="5.4836">
        <ele>228.3</ele>
        <time>2025-10-19T11:12:02Z</time>
      </trkpt>
      <trkpt lat="43.21025" lon="5.4836">
        <ele>228.3</ele>
        <time>2025-10-19T11:12:03Z</time>
      </trkpt>
      <trkpt lat="43.21025" lon="5.4836">
        <ele>228.3</ele>
        <time>2025-10-19T11:12:04Z</time>
      </trkpt>
      <trkpt lat="43.21025" lon="5.4836">
        <ele>228.3</ele>
        <time>2025-10-19T11:12:05Z</time>
      </trkpt>
      <trkpt lat="43.21025" lon="5.4836">
        <ele>228.3</ele>
        <time>2025-10-19T11:12:06Z</time>
      </trkpt>
      <trkpt lat="43.21026" lon="5.4836">
        <ele>228.3</ele>
        <time>2025-10-19T11:12:07Z</time>
      </trkpt>
      <trkpt lat="43.21026" lon="5.4836">
        <ele>228.3</ele>
        <time>2025-10-19T11:12:08Z</time>
      </trkpt>
      <trkpt lat="43.21026" lon="5.48361">
        <ele>228.3</ele>
        <time>2025-10-19T11:12:09Z</time>
      </trkpt>
      <trkpt lat="43.21026" lon="5.48361">
        <ele>228.3</ele>
        <time>2025-10-19T11:12:10Z</time>
      </trkpt>
      <trkpt lat="43.21026" lon="5.48361">
        <ele>228.4</ele>
        <time>2025-10-19T11:12:11Z</time>
      </trkpt>
      <trkpt lat="43.21026" lon="5.48361">
        <ele>228.4</ele>
        <time>2025-10-19T11:12:12Z</time>
      </trkpt>
      <trkpt lat="43.21026" lon="5.48361">
        <ele>228.4</ele>
        <time>2025-10-19T11:12:13Z</time>
      </trkpt>
      <trkpt lat="43.21026" lon="5.48361">
        <ele>228.4</ele>
        <time>2025-10-19T11:12:14Z</time>
      </trkpt>
      <trkpt lat="43.21026" lon="5.48361">
        <ele>228.4</ele>
        <time>2025-10-19T11:12:15Z</time>
      </trkpt>
      <trkpt lat="43.21026" lon="5.48361">
        <ele>228.3</ele>
        <time>2025-10-19T11:12:16Z</time>
      </trkpt>
      <trkpt lat="43.21026" lon="5.48361">
        <ele>228.4</ele>
        <time>2025-10-19T11:12:17Z</time>
      </trkpt>
      <trkpt lat="43.21026" lon="5.48361">
        <ele>228.4</ele>
        <time>2025-10-19T11:12:18Z</time>
      </trkpt>
      <trkpt lat="43.21026" lon="5.48361">
        <ele>228.4</ele>
        <time>2025-10-19T11:12:19Z</time>
      </trkpt>
      <trkpt lat="43.21026" lon="5.48361">
        <ele>228.4</ele>
        <time>2025-10-19T11:12:20Z</time>
      </trkpt>
      <trkpt lat="43.21026" lon="5.48361">
        <ele>228.4</ele>
        <time>2025-10-19T11:12:21Z</time>
      </trkpt>
      <trkpt lat="43.21026" lon="5.4836">
        <ele>228.4</ele>
        <time>2025-10-19T11:12:22Z</time>
      </trkpt>
      <trkpt lat="43.21026" lon="5.4836">
        <ele>228.4</ele>
        <time>2025-10-19T11:12:23Z</time>
      </trkpt>
      <trkpt lat="43.21026" lon="5.4836">
        <ele>228.4</ele>
        <time>2025-10-19T11:12:24Z</time>
      </trkpt>
      <trkpt lat="43.21026" lon="5.4836">
        <ele>228.3</ele>
        <time>2025-10-19T11:12:25Z</time>
      </trkpt>
      <trkpt lat="43.21026" lon="5.4836">
        <ele>228.3</ele>
        <time>2025-10-19T11:12:26Z</time>
      </trkpt>
      <trkpt lat="43.21026" lon="5.4836">
        <ele>228.3</ele>
        <time>2025-10-19T11:12:27Z</time>
      </trkpt>
      <trkpt lat="43.21026" lon="5.4836">
        <ele>228.3</ele>
        <time>2025-10-19T11:12:28Z</time>
      </trkpt>
      <trkpt lat="43.21026" lon="5.4836">
        <ele>228.3</ele>
        <time>2025-10-19T11:12:29Z</time>
      </trkpt>
      <trkpt lat="43.21026" lon="5.4836">
        <ele>228.3</ele>
        <time>2025-10-19T11:12:30Z</time>
      </trkpt>
      <trkpt lat="43.21026" lon="5.4836">
        <ele>228.3</ele>
        <time>2025-10-19T11:12:31Z</time>
      </trkpt>
      <trkpt lat="43.21026" lon="5.4836">
        <ele>228.3</ele>
        <time>2025-10-19T11:12:32Z</time>
      </trkpt>
      <trkpt lat="43.21026" lon="5.4836">
        <ele>228.3</ele>
        <time>2025-10-19T11:12:33Z</time>
      </trkpt>
      <trkpt lat="43.21026" lon="5.4836">
        <ele>228.2</ele>
        <time>2025-10-19T11:12:34Z</time>
      </trkpt>
      <trkpt lat="43.21026" lon="5.4836">
        <ele>228.2</ele>
        <time>2025-10-19T11:12:35Z</time>
      </trkpt>
      <trkpt lat="43.21026" lon="5.4836">
        <ele>228.2</ele>
        <time>2025-10-19T11:12:36Z</time>
      </trkpt>
      <trkpt lat="43.21026" lon="5.4836">
        <ele>228.3</ele>
        <time>2025-10-19T11:12:37Z</time>
      </trkpt>
      <trkpt lat="43.21026" lon="5.4836">
        <ele>228.3</ele>
        <time>2025-10-19T11:12:38Z</time>
      </trkpt>
      <trkpt lat="43.21026" lon="5.4836">
        <ele>228.3</ele>
        <time>2025-10-19T11:12:39Z</time>
      </trkpt>
      <trkpt lat="43.21026" lon="5.4836">
        <ele>228.3</ele>
        <time>2025-10-19T11:12:40Z</time>
      </trkpt>
      <trkpt lat="43.21026" lon="5.4836">
        <ele>228.3</ele>
        <time>2025-10-19T11:12:41Z</time>
      </trkpt>
      <trkpt lat="43.21026" lon="5.4836">
        <ele>228.3</ele>
        <time>2025-10-19T11:12:42Z</time>
      </trkpt>
      <trkpt lat="43.21026" lon="5.4836">
        <ele>228.3</ele>
        <time>2025-10-19T11:12:43Z</time>
      </trkpt>
      <trkpt lat="43.21026" lon="5.4836">
        <ele>228.4</ele>
        <time>2025-10-19T11:12:44Z</time>
      </trkpt>
      <trkpt lat="43.21026" lon="5.4836">
        <ele>228.4</ele>
        <time>2025-10-19T11:12:45Z</time>
      </trkpt>
      <trkpt lat="43.21027" lon="5.4836">
        <ele>228.4</ele>
        <time>2025-10-19T11:12:46Z</time>
      </trkpt>
      <trkpt lat="43.21027" lon="5.4836">
        <ele>228.4</ele>
        <time>2025-10-19T11:12:47Z</time>
      </trkpt>
      <trkpt lat="43.21027" lon="5.4836">
        <ele>228.4</ele>
        <time>2025-10-19T11:12:48Z</time>
      </trkpt>
      <trkpt lat="43.21027" lon="5.4836">
        <ele>228.5</ele>
        <time>2025-10-19T11:12:49Z</time>
      </trkpt>
      <trkpt lat="43.21027" lon="5.4836">
        <ele>228.4</ele>
        <time>2025-10-19T11:12:50Z</time>
      </trkpt>
      <trkpt lat="43.21027" lon="5.4836">
        <ele>228.3</ele>
        <time>2025-10-19T11:12:51Z</time>
      </trkpt>
      <trkpt lat="43.21027" lon="5.4836">
        <ele>228.2</ele>
        <time>2025-10-19T11:12:52Z</time>
      </trkpt>
      <trkpt lat="43.21027" lon="5.4836">
        <ele>228.1</ele>
        <time>2025-10-19T11:12:53Z</time>
      </trkpt>
      <trkpt lat="43.21027" lon="5.4836">
        <ele>228</ele>
        <time>2025-10-19T11:12:54Z</time>
      </trkpt>
      <trkpt lat="43.21027" lon="5.4836">
        <ele>227.9</ele>
        <time>2025-10-19T11:12:55Z</time>
      </trkpt>
      <trkpt lat="43.21027" lon="5.4836">
        <ele>227.9</ele>
        <time>2025-10-19T11:12:56Z</time>
      </trkpt>
      <trkpt lat="43.21027" lon="5.4836">
        <ele>227.8</ele>
        <time>2025-10-19T11:12:57Z</time>
      </trkpt>
      <trkpt lat="43.21027" lon="5.48361">
        <ele>227.8</ele>
        <time>2025-10-19T11:12:58Z</time>
      </trkpt>
      <trkpt lat="43.21027" lon="5.48361">
        <ele>227.9</ele>
        <time>2025-10-19T11:12:59Z</time>
      </trkpt>
      <trkpt lat="43.21027" lon="5.48361">
        <ele>227.9</ele>
        <time>2025-10-19T11:13:00Z</time>
      </trkpt>
      <trkpt lat="43.21027" lon="5.4836">
        <ele>227.9</ele>
        <time>2025-10-19T11:13:01Z</time>
      </trkpt>
      <trkpt lat="43.21028" lon="5.48361">
        <ele>227.9</ele>
        <time>2025-10-19T11:13:02Z</time>
      </trkpt>
      <trkpt lat="43.21028" lon="5.48361">
        <ele>227.9</ele>
        <time>2025-10-19T11:13:03Z</time>
      </trkpt>
      <trkpt lat="43.21028" lon="5.48361">
        <ele>227.9</ele>
        <time>2025-10-19T11:13:04Z</time>
      </trkpt>
      <trkpt lat="43.21028" lon="5.48361">
        <ele>227.9</ele>
        <time>2025-10-19T11:13:05Z</time>
      </trkpt>
      <trkpt lat="43.21028" lon="5.48361">
        <ele>227.9</ele>
        <time>2025-10-19T11:13:06Z</time>
      </trkpt>
      <trkpt lat="43.21027" lon="5.48361">
        <ele>228</ele>
        <time>2025-10-19T11:13:07Z</time>
      </trkpt>
      <trkpt lat="43.21028" lon="5.48361">
        <ele>228</ele>
        <time>2025-10-19T11:13:08Z</time>
      </trkpt>
      <trkpt lat="43.21028" lon="5.48361">
        <ele>228</ele>
        <time>2025-10-19T11:13:09Z</time>
      </trkpt>
      <trkpt lat="43.21028" lon="5.48361">
        <ele>228.1</ele>
        <time>2025-10-19T11:13:10Z</time>
      </trkpt>
      <trkpt lat="43.21028" lon="5.48361">
        <ele>228.1</ele>
        <time>2025-10-19T11:13:11Z</time>
      </trkpt>
      <trkpt lat="43.21028" lon="5.48361">
        <ele>228.1</ele>
        <time>2025-10-19T11:13:12Z</time>
      </trkpt>
      <trkpt lat="43.21028" lon="5.48361">
        <ele>228</ele>
        <time>2025-10-19T11:13:13Z</time>
      </trkpt>
      <trkpt lat="43.21028" lon="5.48361">
        <ele>228</ele>
        <time>2025-10-19T11:13:14Z</time>
      </trkpt>
      <trkpt lat="43.21028" lon="5.48361">
        <ele>228</ele>
        <time>2025-10-19T11:13:15Z</time>
      </trkpt>
      <trkpt lat="43.21028" lon="5.4836">
        <ele>228</ele>
        <time>2025-10-19T11:13:16Z</time>
      </trkpt>
      <trkpt lat="43.21027" lon="5.4836">
        <ele>228</ele>
        <time>2025-10-19T11:13:17Z</time>
      </trkpt>
      <trkpt lat="43.21027" lon="5.4836">
        <ele>227.9</ele>
        <time>2025-10-19T11:13:18Z</time>
      </trkpt>
      <trkpt lat="43.21027" lon="5.4836">
        <ele>227.8</ele>
        <time>2025-10-19T11:13:19Z</time>
      </trkpt>
      <trkpt lat="43.21027" lon="5.4836">
        <ele>227.7</ele>
        <time>2025-10-19T11:13:20Z</time>
      </trkpt>
      <trkpt lat="43.21027" lon="5.4836">
        <ele>227.8</ele>
        <time>2025-10-19T11:13:21Z</time>
      </trkpt>
      <trkpt lat="43.21027" lon="5.4836">
        <ele>227.8</ele>
        <time>2025-10-19T11:13:22Z</time>
      </trkpt>
      <trkpt lat="43.21027" lon="5.4836">
        <ele>227.8</ele>
        <time>2025-10-19T11:13:23Z</time>
      </trkpt>
      <trkpt lat="43.21027" lon="5.4836">
        <ele>227.8</ele>
        <time>2025-10-19T11:13:24Z</time>
      </trkpt>
      <trkpt lat="43.21027" lon="5.4836">
        <ele>227.7</ele>
        <time>2025-10-19T11:13:25Z</time>
      </trkpt>
      <trkpt lat="43.21027" lon="5.4836">
        <ele>227.7</ele>
        <time>2025-10-19T11:13:26Z</time>
      </trkpt>
      <trkpt lat="43.21027" lon="5.4836">
        <ele>227.7</ele>
        <time>2025-10-19T11:13:27Z</time>
      </trkpt>
      <trkpt lat="43.21027" lon="5.4836">
        <ele>227.6</ele>
        <time>2025-10-19T11:13:28Z</time>
      </trkpt>
      <trkpt lat="43.21027" lon="5.4836">
        <ele>227.6</ele>
        <time>2025-10-19T11:13:29Z</time>
      </trkpt>
      <trkpt lat="43.21027" lon="5.4836">
        <ele>227.6</ele>
        <time>2025-10-19T11:13:30Z</time>
      </trkpt>
      <trkpt lat="43.21027" lon="5.4836">
        <ele>227.6</ele>
        <time>2025-10-19T11:13:31Z</time>
      </trkpt>
      <trkpt lat="43.21027" lon="5.4836">
        <ele>227.6</ele>
        <time>2025-10-19T11:13:32Z</time>
      </trkpt>
      <trkpt lat="43.21027" lon="5.4836">
        <ele>227.7</ele>
        <time>2025-10-19T11:13:33Z</time>
      </trkpt>
      <trkpt lat="43.21027" lon="5.4836">
        <ele>227.6</ele>
        <time>2025-10-19T11:13:34Z</time>
      </trkpt>
      <trkpt lat="43.21027" lon="5.4836">
        <ele>227.7</ele>
        <time>2025-10-19T11:13:35Z</time>
      </trkpt>
      <trkpt lat="43.21027" lon="5.4836">
        <ele>227.7</ele>
        <time>2025-10-19T11:13:36Z</time>
      </trkpt>
      <trkpt lat="43.21027" lon="5.4836">
        <ele>227.7</ele>
        <time>2025-10-19T11:13:37Z</time>
      </trkpt>
      <trkpt lat="43.21027" lon="5.4836">
        <ele>227.7</ele>
        <time>2025-10-19T11:13:38Z</time>
      </trkpt>
      <trkpt lat="43.21027" lon="5.4836">
        <ele>227.7</ele>
        <time>2025-10-19T11:13:39Z</time>
      </trkpt>
      <trkpt lat="43.21027" lon="5.4836">
        <ele>227.7</ele>
        <time>2025-10-19T11:13:40Z</time>
      </trkpt>
      <trkpt lat="43.21027" lon="5.4836">
        <ele>227.8</ele>
        <time>2025-10-19T11:13:41Z</time>
      </trkpt>
      <trkpt lat="43.21027" lon="5.4836">
        <ele>227.9</ele>
        <time>2025-10-19T11:13:42Z</time>
      </trkpt>
      <trkpt lat="43.21027" lon="5.4836">
        <ele>227.8</ele>
        <time>2025-10-19T11:13:43Z</time>
      </trkpt>
      <trkpt lat="43.21027" lon="5.4836">
        <ele>227.9</ele>
        <time>2025-10-19T11:13:44Z</time>
      </trkpt>
      <trkpt lat="43.21027" lon="5.4836">
        <ele>228</ele>
        <time>2025-10-19T11:13:45Z</time>
      </trkpt>
      <trkpt lat="43.21027" lon="5.4836">
        <ele>228</ele>
        <time>2025-10-19T11:13:46Z</time>
      </trkpt>
      <trkpt lat="43.21027" lon="5.4836">
        <ele>228.1</ele>
        <time>2025-10-19T11:13:47Z</time>
      </trkpt>
      <trkpt lat="43.21027" lon="5.4836">
        <ele>228.1</ele>
        <time>2025-10-19T11:13:48Z</time>
      </trkpt>
      <trkpt lat="43.21027" lon="5.4836">
        <ele>228.2</ele>
        <time>2025-10-19T11:13:49Z</time>
      </trkpt>
      <trkpt lat="43.21027" lon="5.4836">
        <ele>228.2</ele>
        <time>2025-10-19T11:13:50Z</time>
      </trkpt>
      <trkpt lat="43.21027" lon="5.4836">
        <ele>228.3</ele>
        <time>2025-10-19T11:13:51Z</time>
      </trkpt>
      <trkpt lat="43.21028" lon="5.4836">
        <ele>228.3</ele>
        <time>2025-10-19T11:13:52Z</time>
      </trkpt>
      <trkpt lat="43.21027" lon="5.4836">
        <ele>228.2</ele>
        <time>2025-10-19T11:13:53Z</time>
      </trkpt>
      <trkpt lat="43.21028" lon="5.4836">
        <ele>228.2</ele>
        <time>2025-10-19T11:13:54Z</time>
      </trkpt>
      <trkpt lat="43.21028" lon="5.48361">
        <ele>228.2</ele>
        <time>2025-10-19T11:13:55Z</time>
      </trkpt>
      <trkpt lat="43.21028" lon="5.48361">
        <ele>228.2</ele>
        <time>2025-10-19T11:13:56Z</time>
      </trkpt>
      <trkpt lat="43.21028" lon="5.48361">
        <ele>228.2</ele>
        <time>2025-10-19T11:13:57Z</time>
      </trkpt>
      <trkpt lat="43.21028" lon="5.48361">
        <ele>228.1</ele>
        <time>2025-10-19T11:13:58Z</time>
      </trkpt>
      <trkpt lat="43.21028" lon="5.48361">
        <ele>228.1</ele>
        <time>2025-10-19T11:13:59Z</time>
      </trkpt>
      <trkpt lat="43.21028" lon="5.4836">
        <ele>228.1</ele>
        <time>2025-10-19T11:14:00Z</time>
      </trkpt>
      <trkpt lat="43.21028" lon="5.4836">
        <ele>228</ele>
        <time>2025-10-19T11:14:01Z</time>
      </trkpt>
      <trkpt lat="43.21028" lon="5.4836">
        <ele>228</ele>
        <time>2025-10-19T11:14:02Z</time>
      </trkpt>
      <trkpt lat="43.21028" lon="5.4836">
        <ele>228.1</ele>
        <time>2025-10-19T11:14:03Z</time>
      </trkpt>
      <trkpt lat="43.21028" lon="5.4836">
        <ele>228.1</ele>
        <time>2025-10-19T11:14:04Z</time>
      </trkpt>
      <trkpt lat="43.21028" lon="5.4836">
        <ele>228.1</ele>
        <time>2025-10-19T11:14:05Z</time>
      </trkpt>
      <trkpt lat="43.21028" lon="5.4836">
        <ele>228</ele>
        <time>2025-10-19T11:14:06Z</time>
      </trkpt>
      <trkpt lat="43.21028" lon="5.4836">
        <ele>228</ele>
        <time>2025-10-19T11:14:07Z</time>
      </trkpt>
      <trkpt lat="43.21028" lon="5.4836">
        <ele>228</ele>
        <time>2025-10-19T11:14:08Z</time>
      </trkpt>
      <trkpt lat="43.21028" lon="5.4836">
        <ele>228</ele>
        <time>2025-10-19T11:14:09Z</time>
      </trkpt>
      <trkpt lat="43.21028" lon="5.4836">
        <ele>228</ele>
        <time>2025-10-19T11:14:10Z</time>
      </trkpt>
      <trkpt lat="43.21028" lon="5.4836">
        <ele>228</ele>
        <time>2025-10-19T11:14:11Z</time>
      </trkpt>
      <trkpt lat="43.21028" lon="5.4836">
        <ele>228.1</ele>
        <time>2025-10-19T11:14:12Z</time>
      </trkpt>
      <trkpt lat="43.21028" lon="5.4836">
        <ele>228.2</ele>
        <time>2025-10-19T11:14:13Z</time>
      </trkpt>
      <trkpt lat="43.21028" lon="5.4836">
        <ele>228.2</ele>
        <time>2025-10-19T11:14:14Z</time>
      </trkpt>
      <trkpt lat="43.21028" lon="5.4836">
        <ele>228.2</ele>
        <time>2025-10-19T11:14:15Z</time>
      </trkpt>
      <trkpt lat="43.21028" lon="5.4836">
        <ele>228.2</ele>
        <time>2025-10-19T11:14:16Z</time>
      </trkpt>
      <trkpt lat="43.21028" lon="5.4836">
        <ele>228.2</ele>
        <time>2025-10-19T11:14:17Z</time>
      </trkpt>
      <trkpt lat="43.21028" lon="5.4836">
        <ele>228.2</ele>
        <time>2025-10-19T11:14:18Z</time>
      </trkpt>
      <trkpt lat="43.21028" lon="5.4836">
        <ele>228.2</ele>
        <time>2025-10-19T11:14:19Z</time>
      </trkpt>
      <trkpt lat="43.21028" lon="5.4836">
        <ele>228.2</ele>
        <time>2025-10-19T11:14:20Z</time>
      </trkpt>
      <trkpt lat="43.21028" lon="5.4836">
        <ele>228.3</ele>
        <time>2025-10-19T11:14:21Z</time>
      </trkpt>
      <trkpt lat="43.21028" lon="5.4836">
        <ele>228.3</ele>
        <time>2025-10-19T11:14:22Z</time>
      </trkpt>
      <trkpt lat="43.21028" lon="5.4836">
        <ele>228.3</ele>
        <time>2025-10-19T11:14:23Z</time>
      </trkpt>
      <trkpt lat="43.21028" lon="5.4836">
        <ele>228.3</ele>
        <time>2025-10-19T11:14:24Z</time>
      </trkpt>
      <trkpt lat="43.21028" lon="5.4836">
        <ele>228.3</ele>
        <time>2025-10-19T11:14:25Z</time>
      </trkpt>
      <trkpt lat="43.21028" lon="5.4836">
        <ele>228.4</ele>
        <time>2025-10-19T11:14:26Z</time>
      </trkpt>
      <trkpt lat="43.21028" lon="5.4836">
        <ele>228.4</ele>
        <time>2025-10-19T11:14:27Z</time>
      </trkpt>
      <trkpt lat="43.21028" lon="5.4836">
        <ele>228.4</ele>
        <time>2025-10-19T11:14:28Z</time>
      </trkpt>
      <trkpt lat="43.21028" lon="5.4836">
        <ele>228.4</ele>
        <time>2025-10-19T11:14:29Z</time>
      </trkpt>
      <trkpt lat="43.21027" lon="5.4836">
        <ele>228.4</ele>
        <time>2025-10-19T11:14:30Z</time>
      </trkpt>
      <trkpt lat="43.21027" lon="5.4836">
        <ele>228.4</ele>
        <time>2025-10-19T11:14:31Z</time>
      </trkpt>
      <trkpt lat="43.21028" lon="5.4836">
        <ele>228.4</ele>
        <time>2025-10-19T11:14:32Z</time>
      </trkpt>
      <trkpt lat="43.21028" lon="5.4836">
        <ele>228.4</ele>
        <time>2025-10-19T11:14:33Z</time>
      </trkpt>
      <trkpt lat="43.21028" lon="5.4836">
        <ele>228.5</ele>
        <time>2025-10-19T11:14:34Z</time>
      </trkpt>
      <trkpt lat="43.21028" lon="5.4836">
        <ele>228.6</ele>
        <time>2025-10-19T11:14:35Z</time>
      </trkpt>
      <trkpt lat="43.21028" lon="5.4836">
        <ele>228.6</ele>
        <time>2025-10-19T11:14:36Z</time>
      </trkpt>
      <trkpt lat="43.21028" lon="5.4836">
        <ele>228.6</ele>
        <time>2025-10-19T11:14:37Z</time>
      </trkpt>
      <trkpt lat="43.21028" lon="5.4836">
        <ele>228.5</ele>
        <time>2025-10-19T11:14:38Z</time>
      </trkpt>
      <trkpt lat="43.21028" lon="5.4836">
        <ele>228.6</ele>
        <time>2025-10-19T11:14:39Z</time>
      </trkpt>
      <trkpt lat="43.21028" lon="5.4836">
        <ele>228.6</ele>
        <time>2025-10-19T11:14:40Z</time>
      </trkpt>
      <trkpt lat="43.21028" lon="5.4836">
        <ele>228.7</ele>
        <time>2025-10-19T11:14:41Z</time>
      </trkpt>
      <trkpt lat="43.21028" lon="5.4836">
        <ele>228.7</ele>
        <time>2025-10-19T11:14:42Z</time>
      </trkpt>
      <trkpt lat="43.21028" lon="5.4836">
        <ele>228.7</ele>
        <time>2025-10-19T11:14:43Z</time>
      </trkpt>
      <trkpt lat="43.21028" lon="5.4836">
        <ele>228.7</ele>
        <time>2025-10-19T11:14:44Z</time>
      </trkpt>
      <trkpt lat="43.21028" lon="5.4836">
        <ele>228.7</ele>
        <time>2025-10-19T11:14:45Z</time>
      </trkpt>
      <trkpt lat="43.21028" lon="5.48359">
        <ele>228.7</ele>
        <time>2025-10-19T11:14:46Z</time>
      </trkpt>
      <trkpt lat="43.21028" lon="5.4836">
        <ele>228.7</ele>
        <time>2025-10-19T11:14:47Z</time>
      </trkpt>
      <trkpt lat="43.21027" lon="5.48359">
        <ele>228.7</ele>
        <time>2025-10-19T11:14:48Z</time>
      </trkpt>
      <trkpt lat="43.21027" lon="5.48359">
        <ele>228.8</ele>
        <time>2025-10-19T11:14:49Z</time>
      </trkpt>
      <trkpt lat="43.21027" lon="5.48359">
        <ele>228.9</ele>
        <time>2025-10-19T11:14:50Z</time>
      </trkpt>
      <trkpt lat="43.21027" lon="5.48359">
        <ele>228.9</ele>
        <time>2025-10-19T11:14:51Z</time>
      </trkpt>
      <trkpt lat="43.21027" lon="5.48359">
        <ele>228.9</ele>
        <time>2025-10-19T11:14:52Z</time>
      </trkpt>
      <trkpt lat="43.21027" lon="5.48359">
        <ele>228.8</ele>
        <time>2025-10-19T11:14:53Z</time>
      </trkpt>
      <trkpt lat="43.21027" lon="5.48359">
        <ele>228.8</ele>
        <time>2025-10-19T11:14:54Z</time>
      </trkpt>
      <trkpt lat="43.21027" lon="5.4836">
        <ele>228.9</ele>
        <time>2025-10-19T11:14:55Z</time>
      </trkpt>
      <trkpt lat="43.21027" lon="5.4836">
        <ele>228.8</ele>
        <time>2025-10-19T11:14:56Z</time>
      </trkpt>
      <trkpt lat="43.21027" lon="5.48361">
        <ele>228.9</ele>
        <time>2025-10-19T11:14:57Z</time>
      </trkpt>
      <trkpt lat="43.21027" lon="5.48361">
        <ele>228.9</ele>
        <time>2025-10-19T11:14:58Z</time>
      </trkpt>
      <trkpt lat="43.21027" lon="5.48361">
        <ele>229.1</ele>
        <time>2025-10-19T11:14:59Z</time>
      </trkpt>
      <trkpt lat="43.21027" lon="5.48361">
        <ele>229.1</ele>
        <time>2025-10-19T11:15:00Z</time>
      </trkpt>
      <trkpt lat="43.21027" lon="5.48361">
        <ele>229.2</ele>
        <time>2025-10-19T11:15:01Z</time>
      </trkpt>
      <trkpt lat="43.21027" lon="5.48361">
        <ele>229.2</ele>
        <time>2025-10-19T11:15:02Z</time>
      </trkpt>
      <trkpt lat="43.21027" lon="5.48361">
        <ele>229.2</ele>
        <time>2025-10-19T11:15:03Z</time>
      </trkpt>
      <trkpt lat="43.21026" lon="5.48361">
        <ele>229.2</ele>
        <time>2025-10-19T11:15:04Z</time>
      </trkpt>
      <trkpt lat="43.21026" lon="5.48361">
        <ele>229.4</ele>
        <time>2025-10-19T11:15:05Z</time>
      </trkpt>
      <trkpt lat="43.21026" lon="5.48361">
        <ele>229.4</ele>
        <time>2025-10-19T11:15:06Z</time>
      </trkpt>
      <trkpt lat="43.21026" lon="5.48361">
        <ele>229.3</ele>
        <time>2025-10-19T11:15:07Z</time>
      </trkpt>
      <trkpt lat="43.21026" lon="5.48361">
        <ele>229.3</ele>
        <time>2025-10-19T11:15:08Z</time>
      </trkpt>
      <trkpt lat="43.21026" lon="5.48361">
        <ele>229.2</ele>
        <time>2025-10-19T11:15:09Z</time>
      </trkpt>
      <trkpt lat="43.21026" lon="5.4836">
        <ele>229.2</ele>
        <time>2025-10-19T11:15:10Z</time>
      </trkpt>
      <trkpt lat="43.21026" lon="5.48361">
        <ele>229.1</ele>
        <time>2025-10-19T11:15:11Z</time>
      </trkpt>
      <trkpt lat="43.21026" lon="5.48361">
        <ele>229.1</ele>
        <time>2025-10-19T11:15:12Z</time>
      </trkpt>
      <trkpt lat="43.21026" lon="5.48361">
        <ele>229.1</ele>
        <time>2025-10-19T11:15:13Z</time>
      </trkpt>
      <trkpt lat="43.21026" lon="5.48361">
        <ele>229.1</ele>
        <time>2025-10-19T11:15:14Z</time>
      </trkpt>
      <trkpt lat="43.21026" lon="5.48361">
        <ele>229</ele>
        <time>2025-10-19T11:15:15Z</time>
      </trkpt>
      <trkpt lat="43.21026" lon="5.48361">
        <ele>228.9</ele>
        <time>2025-10-19T11:15:16Z</time>
      </trkpt>
      <trkpt lat="43.21026" lon="5.48361">
        <ele>228.9</ele>
        <time>2025-10-19T11:15:17Z</time>
      </trkpt>
      <trkpt lat="43.21026" lon="5.48361">
        <ele>228.7</ele>
        <time>2025-10-19T11:15:18Z</time>
      </trkpt>
      <trkpt lat="43.21026" lon="5.48361">
        <ele>228.7</ele>
        <time>2025-10-19T11:15:19Z</time>
      </trkpt>
      <trkpt lat="43.21026" lon="5.48361">
        <ele>228.7</ele>
        <time>2025-10-19T11:15:20Z</time>
      </trkpt>
      <trkpt lat="43.21026" lon="5.48362">
        <ele>228.8</ele>
        <time>2025-10-19T11:15:21Z</time>
      </trkpt>
      <trkpt lat="43.21027" lon="5.48362">
        <ele>228.7</ele>
        <time>2025-10-19T11:15:22Z</time>
      </trkpt>
      <trkpt lat="43.21027" lon="5.48361">
        <ele>228.5</ele>
        <time>2025-10-19T11:15:23Z</time>
      </trkpt>
      <trkpt lat="43.21027" lon="5.48361">
        <ele>228.4</ele>
        <time>2025-10-19T11:15:24Z</time>
      </trkpt>
      <trkpt lat="43.21027" lon="5.48362">
        <ele>228.3</ele>
        <time>2025-10-19T11:15:25Z</time>
      </trkpt>
      <trkpt lat="43.21027" lon="5.48362">
        <ele>228.4</ele>
        <time>2025-10-19T11:15:26Z</time>
      </trkpt>
      <trkpt lat="43.21027" lon="5.48362">
        <ele>228.3</ele>
        <time>2025-10-19T11:15:27Z</time>
      </trkpt>
      <trkpt lat="43.21027" lon="5.48362">
        <ele>228.3</ele>
        <time>2025-10-19T11:15:28Z</time>
      </trkpt>
      <trkpt lat="43.21027" lon="5.48362">
        <ele>228.3</ele>
        <time>2025-10-19T11:15:29Z</time>
      </trkpt>
      <trkpt lat="43.21027" lon="5.48362">
        <ele>228.4</ele>
        <time>2025-10-19T11:15:30Z</time>
      </trkpt>
      <trkpt lat="43.21027" lon="5.48362">
        <ele>228.3</ele>
        <time>2025-10-19T11:15:31Z</time>
      </trkpt>
      <trkpt lat="43.21028" lon="5.48362">
        <ele>228.2</ele>
        <time>2025-10-19T11:15:32Z</time>
      </trkpt>
      <trkpt lat="43.21028" lon="5.48362">
        <ele>228.3</ele>
        <time>2025-10-19T11:15:33Z</time>
      </trkpt>
      <trkpt lat="43.21028" lon="5.48362">
        <ele>228.3</ele>
        <time>2025-10-19T11:15:34Z</time>
      </trkpt>
      <trkpt lat="43.21028" lon="5.48363">
        <ele>228.3</ele>
        <time>2025-10-19T11:15:35Z</time>
      </trkpt>
      <trkpt lat="43.21028" lon="5.48363">
        <ele>228.3</ele>
        <time>2025-10-19T11:15:36Z</time>
      </trkpt>
      <trkpt lat="43.21028" lon="5.48363">
        <ele>228.3</ele>
        <time>2025-10-19T11:15:37Z</time>
      </trkpt>
      <trkpt lat="43.21028" lon="5.48363">
        <ele>228.4</ele>
        <time>2025-10-19T11:15:38Z</time>
      </trkpt>
      <trkpt lat="43.21028" lon="5.48363">
        <ele>228.3</ele>
        <time>2025-10-19T11:15:39Z</time>
      </trkpt>
      <trkpt lat="43.21028" lon="5.48363">
        <ele>228.3</ele>
        <time>2025-10-19T11:15:40Z</time>
      </trkpt>
      <trkpt lat="43.21028" lon="5.48363">
        <ele>228.3</ele>
        <time>2025-10-19T11:15:41Z</time>
      </trkpt>
      <trkpt lat="43.21028" lon="5.48363">
        <ele>228.3</ele>
        <time>2025-10-19T11:15:42Z</time>
      </trkpt>
      <trkpt lat="43.21028" lon="5.48363">
        <ele>228.3</ele>
        <time>2025-10-19T11:15:43Z</time>
      </trkpt>
      <trkpt lat="43.21028" lon="5.48363">
        <ele>228.4</ele>
        <time>2025-10-19T11:15:44Z</time>
      </trkpt>
      <trkpt lat="43.21028" lon="5.48363">
        <ele>228.4</ele>
        <time>2025-10-19T11:15:45Z</time>
      </trkpt>
      <trkpt lat="43.21029" lon="5.48363">
        <ele>228.4</ele>
        <time>2025-10-19T11:15:46Z</time>
      </trkpt>
      <trkpt lat="43.21029" lon="5.48363">
        <ele>228.4</ele>
        <time>2025-10-19T11:15:47Z</time>
      </trkpt>
      <trkpt lat="43.21029" lon="5.48364">
        <ele>228.4</ele>
        <time>2025-10-19T11:15:48Z</time>
      </trkpt>
      <trkpt lat="43.21029" lon="5.48364">
        <ele>228.4</ele>
        <time>2025-10-19T11:15:49Z</time>
      </trkpt>
      <trkpt lat="43.21029" lon="5.48364">
        <ele>228.4</ele>
        <time>2025-10-19T11:15:50Z</time>
      </trkpt>
      <trkpt lat="43.21029" lon="5.48364">
        <ele>228.4</ele>
        <time>2025-10-19T11:15:51Z</time>
      </trkpt>
      <trkpt lat="43.21029" lon="5.48364">
        <ele>228.4</ele>
        <time>2025-10-19T11:15:52Z</time>
      </trkpt>
      <trkpt lat="43.21029" lon="5.48364">
        <ele>228.3</ele>
        <time>2025-10-19T11:15:53Z</time>
      </trkpt>
      <trkpt lat="43.21029" lon="5.48364">
        <ele>228.3</ele>
        <time>2025-10-19T11:15:54Z</time>
      </trkpt>
      <trkpt lat="43.21029" lon="5.48364">
        <ele>228.3</ele>
        <time>2025-10-19T11:15:55Z</time>
      </trkpt>
      <trkpt lat="43.21029" lon="5.48364">
        <ele>228.2</ele>
        <time>2025-10-19T11:15:56Z</time>
      </trkpt>
      <trkpt lat="43.21029" lon="5.48364">
        <ele>228.2</ele>
        <time>2025-10-19T11:15:57Z</time>
      </trkpt>
      <trkpt lat="43.21029" lon="5.48364">
        <ele>228.2</ele>
        <time>2025-10-19T11:15:58Z</time>
      </trkpt>
      <trkpt lat="43.21029" lon="5.48364">
        <ele>228.2</ele>
        <time>2025-10-19T11:15:59Z</time>
      </trkpt>
      <trkpt lat="43.21029" lon="5.48364">
        <ele>228.2</ele>
        <time>2025-10-19T11:16:00Z</time>
      </trkpt>
      <trkpt lat="43.21029" lon="5.48364">
        <ele>228.3</ele>
        <time>2025-10-19T11:16:01Z</time>
      </trkpt>
      <trkpt lat="43.21029" lon="5.48364">
        <ele>228.3</ele>
        <time>2025-10-19T11:16:02Z</time>
      </trkpt>
      <trkpt lat="43.21029" lon="5.48365">
        <ele>228.2</ele>
        <time>2025-10-19T11:16:03Z</time>
      </trkpt>
      <trkpt lat="43.21029" lon="5.48365">
        <ele>228.2</ele>
        <time>2025-10-19T11:16:04Z</time>
      </trkpt>
      <trkpt lat="43.21029" lon="5.48365">
        <ele>228.2</ele>
        <time>2025-10-19T11:16:05Z</time>
      </trkpt>
      <trkpt lat="43.21029" lon="5.48365">
        <ele>228.2</ele>
        <time>2025-10-19T11:16:06Z</time>
      </trkpt>
      <trkpt lat="43.21029" lon="5.48365">
        <ele>228.2</ele>
        <time>2025-10-19T11:16:07Z</time>
      </trkpt>
      <trkpt lat="43.21029" lon="5.48365">
        <ele>228.2</ele>
        <time>2025-10-19T11:16:08Z</time>
      </trkpt>
      <trkpt lat="43.21029" lon="5.48365">
        <ele>228.3</ele>
        <time>2025-10-19T11:16:09Z</time>
      </trkpt>
      <trkpt lat="43.21029" lon="5.48365">
        <ele>228.3</ele>
        <time>2025-10-19T11:16:10Z</time>
      </trkpt>
      <trkpt lat="43.21029" lon="5.48365">
        <ele>228.4</ele>
        <time>2025-10-19T11:16:11Z</time>
      </trkpt>
      <trkpt lat="43.21029" lon="5.48365">
        <ele>228.3</ele>
        <time>2025-10-19T11:16:12Z</time>
      </trkpt>
      <trkpt lat="43.21029" lon="5.48365">
        <ele>228.4</ele>
        <time>2025-10-19T11:16:13Z</time>
      </trkpt>
      <trkpt lat="43.21029" lon="5.48365">
        <ele>228.5</ele>
        <time>2025-10-19T11:16:14Z</time>
      </trkpt>
      <trkpt lat="43.21029" lon="5.48366">
        <ele>228.5</ele>
        <time>2025-10-19T11:16:15Z</time>
      </trkpt>
      <trkpt lat="43.21029" lon="5.48366">
        <ele>228.6</ele>
        <time>2025-10-19T11:16:16Z</time>
      </trkpt>
      <trkpt lat="43.21029" lon="5.48366">
        <ele>228.6</ele>
        <time>2025-10-19T11:16:17Z</time>
      </trkpt>
      <trkpt lat="43.21029" lon="5.48366">
        <ele>228.6</ele>
        <time>2025-10-19T11:16:18Z</time>
      </trkpt>
      <trkpt lat="43.21029" lon="5.48366">
        <ele>228.6</ele>
        <time>2025-10-19T11:16:19Z</time>
      </trkpt>
      <trkpt lat="43.21029" lon="5.48366">
        <ele>228.6</ele>
        <time>2025-10-19T11:16:20Z</time>
      </trkpt>
      <trkpt lat="43.21029" lon="5.48366">
        <ele>228.6</ele>
        <time>2025-10-19T11:16:21Z</time>
      </trkpt>
      <trkpt lat="43.21029" lon="5.48365">
        <ele>228.6</ele>
        <time>2025-10-19T11:16:22Z</time>
      </trkpt>
      <trkpt lat="43.21029" lon="5.48365">
        <ele>228.6</ele>
        <time>2025-10-19T11:16:23Z</time>
      </trkpt>
      <trkpt lat="43.21029" lon="5.48365">
        <ele>228.6</ele>
        <time>2025-10-19T11:16:24Z</time>
      </trkpt>
      <trkpt lat="43.21029" lon="5.48365">
        <ele>228.6</ele>
        <time>2025-10-19T11:16:25Z</time>
      </trkpt>
      <trkpt lat="43.21029" lon="5.48365">
        <ele>228.6</ele>
        <time>2025-10-19T11:16:26Z</time>
      </trkpt>
      <trkpt lat="43.21029" lon="5.48365">
        <ele>228.6</ele>
        <time>2025-10-19T11:16:27Z</time>
      </trkpt>
      <trkpt lat="43.21029" lon="5.48365">
        <ele>228.6</ele>
        <time>2025-10-19T11:16:28Z</time>
      </trkpt>
      <trkpt lat="43.21029" lon="5.48365">
        <ele>228.6</ele>
        <time>2025-10-19T11:16:29Z</time>
      </trkpt>
      <trkpt lat="43.21029" lon="5.48365">
        <ele>228.6</ele>
        <time>2025-10-19T11:16:30Z</time>
      </trkpt>
      <trkpt lat="43.21029" lon="5.48365">
        <ele>228.7</ele>
        <time>2025-10-19T11:16:31Z</time>
      </trkpt>
      <trkpt lat="43.21029" lon="5.48365">
        <ele>228.7</ele>
        <time>2025-10-19T11:16:32Z</time>
      </trkpt>
      <trkpt lat="43.21029" lon="5.48365">
        <ele>228.7</ele>
        <time>2025-10-19T11:16:33Z</time>
      </trkpt>
      <trkpt lat="43.21029" lon="5.48365">
        <ele>228.8</ele>
        <time>2025-10-19T11:16:34Z</time>
      </trkpt>
      <trkpt lat="43.21029" lon="5.48365">
        <ele>228.8</ele>
        <time>2025-10-19T11:16:35Z</time>
      </trkpt>
      <trkpt lat="43.21029" lon="5.48365">
        <ele>228.8</ele>
        <time>2025-10-19T11:16:36Z</time>
      </trkpt>
      <trkpt lat="43.21029" lon="5.48365">
        <ele>228.8</ele>
        <time>2025-10-19T11:16:37Z</time>
      </trkpt>
      <trkpt lat="43.21029" lon="5.48365">
        <ele>228.8</ele>
        <time>2025-10-19T11:16:38Z</time>
      </trkpt>
      <trkpt lat="43.21029" lon="5.48365">
        <ele>228.8</ele>
        <time>2025-10-19T11:16:39Z</time>
      </trkpt>
      <trkpt lat="43.21029" lon="5.48365">
        <ele>228.8</ele>
        <time>2025-10-19T11:16:40Z</time>
      </trkpt>
      <trkpt lat="43.21029" lon="5.48365">
        <ele>228.8</ele>
        <time>2025-10-19T11:16:41Z</time>
      </trkpt>
      <trkpt lat="43.21029" lon="5.48365">
        <ele>228.8</ele>
        <time>2025-10-19T11:16:42Z</time>
      </trkpt>
      <trkpt lat="43.21029" lon="5.48365">
        <ele>228.8</ele>
        <time>2025-10-19T11:16:43Z</time>
      </trkpt>
      <trkpt lat="43.21029" lon="5.48365">
        <ele>228.8</ele>
        <time>2025-10-19T11:16:44Z</time>
      </trkpt>
      <trkpt lat="43.21029" lon="5.48365">
        <ele>228.7</ele>
        <time>2025-10-19T11:16:45Z</time>
      </trkpt>
      <trkpt lat="43.21029" lon="5.48365">
        <ele>228.7</ele>
        <time>2025-10-19T11:16:46Z</time>
      </trkpt>
      <trkpt lat="43.21029" lon="5.48365">
        <ele>228.7</ele>
        <time>2025-10-19T11:16:47Z</time>
      </trkpt>
      <trkpt lat="43.21029" lon="5.48365">
        <ele>228.6</ele>
        <time>2025-10-19T11:16:48Z</time>
      </trkpt>
      <trkpt lat="43.21029" lon="5.48365">
        <ele>228.6</ele>
        <time>2025-10-19T11:16:49Z</time>
      </trkpt>
      <trkpt lat="43.21029" lon="5.48364">
        <ele>228.5</ele>
        <time>2025-10-19T11:16:50Z</time>
      </trkpt>
      <trkpt lat="43.21028" lon="5.48364">
        <ele>228.5</ele>
        <time>2025-10-19T11:16:51Z</time>
      </trkpt>
      <trkpt lat="43.21028" lon="5.48364">
        <ele>228.5</ele>
        <time>2025-10-19T11:16:52Z</time>
      </trkpt>
      <trkpt lat="43.21028" lon="5.48364">
        <ele>228.5</ele>
        <time>2025-10-19T11:16:53Z</time>
      </trkpt>
      <trkpt lat="43.21028" lon="5.48364">
        <ele>228.5</ele>
        <time>2025-10-19T11:16:54Z</time>
      </trkpt>
      <trkpt lat="43.21028" lon="5.48364">
        <ele>228.5</ele>
        <time>2025-10-19T11:16:55Z</time>
      </trkpt>
      <trkpt lat="43.21028" lon="5.48364">
        <ele>228.4</ele>
        <time>2025-10-19T11:16:56Z</time>
      </trkpt>
      <trkpt lat="43.21028" lon="5.48364">
        <ele>228.4</ele>
        <time>2025-10-19T11:16:57Z</time>
      </trkpt>
      <trkpt lat="43.21028" lon="5.48364">
        <ele>228.4</ele>
        <time>2025-10-19T11:16:58Z</time>
      </trkpt>
      <trkpt lat="43.21028" lon="5.48364">
        <ele>228.3</ele>
        <time>2025-10-19T11:16:59Z</time>
      </trkpt>
      <trkpt lat="43.21028" lon="5.48364">
        <ele>228.3</ele>
        <time>2025-10-19T11:17:00Z</time>
      </trkpt>
      <trkpt lat="43.21028" lon="5.48364">
        <ele>228.3</ele>
        <time>2025-10-19T11:17:01Z</time>
      </trkpt>
      <trkpt lat="43.21028" lon="5.48364">
        <ele>228.3</ele>
        <time>2025-10-19T11:17:02Z</time>
      </trkpt>
      <trkpt lat="43.21028" lon="5.48364">
        <ele>228.2</ele>
        <time>2025-10-19T11:17:03Z</time>
      </trkpt>
      <trkpt lat="43.21028" lon="5.48364">
        <ele>228.2</ele>
        <time>2025-10-19T11:17:04Z</time>
      </trkpt>
      <trkpt lat="43.21028" lon="5.48364">
        <ele>228.2</ele>
        <time>2025-10-19T11:17:05Z</time>
      </trkpt>
      <trkpt lat="43.21028" lon="5.48364">
        <ele>228.2</ele>
        <time>2025-10-19T11:17:06Z</time>
      </trkpt>
      <trkpt lat="43.21028" lon="5.48364">
        <ele>228.2</ele>
        <time>2025-10-19T11:17:07Z</time>
      </trkpt>
      <trkpt lat="43.21028" lon="5.48364">
        <ele>228.1</ele>
        <time>2025-10-19T11:17:08Z</time>
      </trkpt>
      <trkpt lat="43.21028" lon="5.48364">
        <ele>228.1</ele>
        <time>2025-10-19T11:17:09Z</time>
      </trkpt>
      <trkpt lat="43.21028" lon="5.48364">
        <ele>228.2</ele>
        <time>2025-10-19T11:17:10Z</time>
      </trkpt>
      <trkpt lat="43.21028" lon="5.48364">
        <ele>228.2</ele>
        <time>2025-10-19T11:17:11Z</time>
      </trkpt>
      <trkpt lat="43.21028" lon="5.48364">
        <ele>228.3</ele>
        <time>2025-10-19T11:17:12Z</time>
      </trkpt>
      <trkpt lat="43.21028" lon="5.48364">
        <ele>228.3</ele>
        <time>2025-10-19T11:17:13Z</time>
      </trkpt>
      <trkpt lat="43.21028" lon="5.48364">
        <ele>228.4</ele>
        <time>2025-10-19T11:17:14Z</time>
      </trkpt>
      <trkpt lat="43.21028" lon="5.48364">
        <ele>228.5</ele>
        <time>2025-10-19T11:17:15Z</time>
      </trkpt>
      <trkpt lat="43.21028" lon="5.48364">
        <ele>228.5</ele>
        <time>2025-10-19T11:17:16Z</time>
      </trkpt>
      <trkpt lat="43.21028" lon="5.48364">
        <ele>228.6</ele>
        <time>2025-10-19T11:17:17Z</time>
      </trkpt>
      <trkpt lat="43.21028" lon="5.48364">
        <ele>228.6</ele>
        <time>2025-10-19T11:17:18Z</time>
      </trkpt>
      <trkpt lat="43.21028" lon="5.48364">
        <ele>228.6</ele>
        <time>2025-10-19T11:17:19Z</time>
      </trkpt>
      <trkpt lat="43.21028" lon="5.48364">
        <ele>228.6</ele>
        <time>2025-10-19T11:17:20Z</time>
      </trkpt>
      <trkpt lat="43.21028" lon="5.48364">
        <ele>228.6</ele>
        <time>2025-10-19T11:17:21Z</time>
      </trkpt>
      <trkpt lat="43.21028" lon="5.48364">
        <ele>228.6</ele>
        <time>2025-10-19T11:17:22Z</time>
      </trkpt>
      <trkpt lat="43.21028" lon="5.48364">
        <ele>228.6</ele>
        <time>2025-10-19T11:17:23Z</time>
      </trkpt>
      <trkpt lat="43.21028" lon="5.48364">
        <ele>228.7</ele>
        <time>2025-10-19T11:17:24Z</time>
      </trkpt>
      <trkpt lat="43.21028" lon="5.48365">
        <ele>228.7</ele>
        <time>2025-10-19T11:17:25Z</time>
      </trkpt>
      <trkpt lat="43.21028" lon="5.48365">
        <ele>228.7</ele>
        <time>2025-10-19T11:17:26Z</time>
      </trkpt>
      <trkpt lat="43.21028" lon="5.48365">
        <ele>228.7</ele>
        <time>2025-10-19T11:17:27Z</time>
      </trkpt>
      <trkpt lat="43.21028" lon="5.48365">
        <ele>228.7</ele>
        <time>2025-10-19T11:17:28Z</time>
      </trkpt>
      <trkpt lat="43.21028" lon="5.48365">
        <ele>228.7</ele>
        <time>2025-10-19T11:17:29Z</time>
      </trkpt>
      <trkpt lat="43.21027" lon="5.48365">
        <ele>228.6</ele>
        <time>2025-10-19T11:17:30Z</time>
      </trkpt>
      <trkpt lat="43.21027" lon="5.48365">
        <ele>228.6</ele>
        <time>2025-10-19T11:17:31Z</time>
      </trkpt>
      <trkpt lat="43.21027" lon="5.48365">
        <ele>228.7</ele>
        <time>2025-10-19T11:17:32Z</time>
      </trkpt>
      <trkpt lat="43.21027" lon="5.48365">
        <ele>228.7</ele>
        <time>2025-10-19T11:17:33Z</time>
      </trkpt>
      <trkpt lat="43.21027" lon="5.48365">
        <ele>228.7</ele>
        <time>2025-10-19T11:17:34Z</time>
      </trkpt>
      <trkpt lat="43.21027" lon="5.48365">
        <ele>228.7</ele>
        <time>2025-10-19T11:17:35Z</time>
      </trkpt>
      <trkpt lat="43.21026" lon="5.48365">
        <ele>228.7</ele>
        <time>2025-10-19T11:17:36Z</time>
      </trkpt>
      <trkpt lat="43.21026" lon="5.48365">
        <ele>228.7</ele>
        <time>2025-10-19T11:17:37Z</time>
      </trkpt>
      <trkpt lat="43.21026" lon="5.48365">
        <ele>228.7</ele>
        <time>2025-10-19T11:17:38Z</time>
      </trkpt>
      <trkpt lat="43.21026" lon="5.48365">
        <ele>228.7</ele>
        <time>2025-10-19T11:17:39Z</time>
      </trkpt>
      <trkpt lat="43.21026" lon="5.48366">
        <ele>228.7</ele>
        <time>2025-10-19T11:17:40Z</time>
      </trkpt>
      <trkpt lat="43.21026" lon="5.48366">
        <ele>228.8</ele>
        <time>2025-10-19T11:17:41Z</time>
      </trkpt>
      <trkpt lat="43.21026" lon="5.48366">
        <ele>228.8</ele>
        <time>2025-10-19T11:17:42Z</time>
      </trkpt>
      <trkpt lat="43.21026" lon="5.48366">
        <ele>228.8</ele>
        <time>2025-10-19T11:17:43Z</time>
      </trkpt>
      <trkpt lat="43.21026" lon="5.48366">
        <ele>228.8</ele>
        <time>2025-10-19T11:17:44Z</time>
      </trkpt>
      <trkpt lat="43.21026" lon="5.48366">
        <ele>228.7</ele>
        <time>2025-10-19T11:17:45Z</time>
      </trkpt>
      <trkpt lat="43.21026" lon="5.48366">
        <ele>228.7</ele>
        <time>2025-10-19T11:17:46Z</time>
      </trkpt>
      <trkpt lat="43.21026" lon="5.48366">
        <ele>228.7</ele>
        <time>2025-10-19T11:17:47Z</time>
      </trkpt>
      <trkpt lat="43.21026" lon="5.48366">
        <ele>228.7</ele>
        <time>2025-10-19T11:17:48Z</time>
      </trkpt>
      <trkpt lat="43.21026" lon="5.48366">
        <ele>228.7</ele>
        <time>2025-10-19T11:17:49Z</time>
      </trkpt>
      <trkpt lat="43.21026" lon="5.48366">
        <ele>228.7</ele>
        <time>2025-10-19T11:17:50Z</time>
      </trkpt>
      <trkpt lat="43.21026" lon="5.48366">
        <ele>228.7</ele>
        <time>2025-10-19T11:17:51Z</time>
      </trkpt>
      <trkpt lat="43.21026" lon="5.48366">
        <ele>228.7</ele>
        <time>2025-10-19T11:17:52Z</time>
      </trkpt>
      <trkpt lat="43.21026" lon="5.48366">
        <ele>228.7</ele>
        <time>2025-10-19T11:17:53Z</time>
      </trkpt>
      <trkpt lat="43.21026" lon="5.48366">
        <ele>228.7</ele>
        <time>2025-10-19T11:17:54Z</time>
      </trkpt>
      <trkpt lat="43.21026" lon="5.48366">
        <ele>228.6</ele>
        <time>2025-10-19T11:17:55Z</time>
      </trkpt>
      <trkpt lat="43.21026" lon="5.48367">
        <ele>228.6</ele>
        <time>2025-10-19T11:17:56Z</time>
      </trkpt>
      <trkpt lat="43.21026" lon="5.48366">
        <ele>228.7</ele>
        <time>2025-10-19T11:17:57Z</time>
      </trkpt>
      <trkpt lat="43.21026" lon="5.48367">
        <ele>228.7</ele>
        <time>2025-10-19T11:17:58Z</time>
      </trkpt>
      <trkpt lat="43.21026" lon="5.48367">
        <ele>228.7</ele>
        <time>2025-10-19T11:17:59Z</time>
      </trkpt>
      <trkpt lat="43.21026" lon="5.48367">
        <ele>228.7</ele>
        <time>2025-10-19T11:18:00Z</time>
      </trkpt>
      <trkpt lat="43.21026" lon="5.48367">
        <ele>228.8</ele>
        <time>2025-10-19T11:18:01Z</time>
      </trkpt>
      <trkpt lat="43.21026" lon="5.48367">
        <ele>228.8</ele>
        <time>2025-10-19T11:18:02Z</time>
      </trkpt>
      <trkpt lat="43.21026" lon="5.48367">
        <ele>228.8</ele>
        <time>2025-10-19T11:18:03Z</time>
      </trkpt>
      <trkpt lat="43.21026" lon="5.48367">
        <ele>228.8</ele>
        <time>2025-10-19T11:18:04Z</time>
      </trkpt>
      <trkpt lat="43.21026" lon="5.48367">
        <ele>228.8</ele>
        <time>2025-10-19T11:18:05Z</time>
      </trkpt>
      <trkpt lat="43.21026" lon="5.48367">
        <ele>228.8</ele>
        <time>2025-10-19T11:18:06Z</time>
      </trkpt>
      <trkpt lat="43.21026" lon="5.48367">
        <ele>228.7</ele>
        <time>2025-10-19T11:18:07Z</time>
      </trkpt>
      <trkpt lat="43.21026" lon="5.48367">
        <ele>228.7</ele>
        <time>2025-10-19T11:18:08Z</time>
      </trkpt>
      <trkpt lat="43.21026" lon="5.48367">
        <ele>228.7</ele>
        <time>2025-10-19T11:18:09Z</time>
      </trkpt>
      <trkpt lat="43.21026" lon="5.48367">
        <ele>228.7</ele>
        <time>2025-10-19T11:18:10Z</time>
      </trkpt>
      <trkpt lat="43.21026" lon="5.48367">
        <ele>228.6</ele>
        <time>2025-10-19T11:18:11Z</time>
      </trkpt>
      <trkpt lat="43.21026" lon="5.48367">
        <ele>228.5</ele>
        <time>2025-10-19T11:18:12Z</time>
      </trkpt>
      <trkpt lat="43.21026" lon="5.48367">
        <ele>228.5</ele>
        <time>2025-10-19T11:18:13Z</time>
      </trkpt>
      <trkpt lat="43.21026" lon="5.48367">
        <ele>228.5</ele>
        <time>2025-10-19T11:18:14Z</time>
      </trkpt>
      <trkpt lat="43.21026" lon="5.48367">
        <ele>228.5</ele>
        <time>2025-10-19T11:18:15Z</time>
      </trkpt>
      <trkpt lat="43.21026" lon="5.48367">
        <ele>228.6</ele>
        <time>2025-10-19T11:18:16Z</time>
      </trkpt>
      <trkpt lat="43.21026" lon="5.48366">
        <ele>228.6</ele>
        <time>2025-10-19T11:18:17Z</time>
      </trkpt>
      <trkpt lat="43.21026" lon="5.48366">
        <ele>228.6</ele>
        <time>2025-10-19T11:18:18Z</time>
      </trkpt>
      <trkpt lat="43.21026" lon="5.48366">
        <ele>228.6</ele>
        <time>2025-10-19T11:18:19Z</time>
      </trkpt>
      <trkpt lat="43.21026" lon="5.48366">
        <ele>228.6</ele>
        <time>2025-10-19T11:18:20Z</time>
      </trkpt>
      <trkpt lat="43.21026" lon="5.48366">
        <ele>228.6</ele>
        <time>2025-10-19T11:18:21Z</time>
      </trkpt>
      <trkpt lat="43.21026" lon="5.48366">
        <ele>228.6</ele>
        <time>2025-10-19T11:18:22Z</time>
      </trkpt>
      <trkpt lat="43.21026" lon="5.48366">
        <ele>228.6</ele>
        <time>2025-10-19T11:18:23Z</time>
      </trkpt>
      <trkpt lat="43.21026" lon="5.48366">
        <ele>228.6</ele>
        <time>2025-10-19T11:18:24Z</time>
      </trkpt>
      <trkpt lat="43.21026" lon="5.48366">
        <ele>228.6</ele>
        <time>2025-10-19T11:18:25Z</time>
      </trkpt>
      <trkpt lat="43.21026" lon="5.48366">
        <ele>228.5</ele>
        <time>2025-10-19T11:18:26Z</time>
      </trkpt>
      <trkpt lat="43.21026" lon="5.48366">
        <ele>228.5</ele>
        <time>2025-10-19T11:18:27Z</time>
      </trkpt>
      <trkpt lat="43.21026" lon="5.48366">
        <ele>228.5</ele>
        <time>2025-10-19T11:18:28Z</time>
      </trkpt>
      <trkpt lat="43.21026" lon="5.48366">
        <ele>228.5</ele>
        <time>2025-10-19T11:18:29Z</time>
      </trkpt>
      <trkpt lat="43.21026" lon="5.48366">
        <ele>228.4</ele>
        <time>2025-10-19T11:18:30Z</time>
      </trkpt>
      <trkpt lat="43.21026" lon="5.48365">
        <ele>228.4</ele>
        <time>2025-10-19T11:18:31Z</time>
      </trkpt>
      <trkpt lat="43.21026" lon="5.48365">
        <ele>228.3</ele>
        <time>2025-10-19T11:18:32Z</time>
      </trkpt>
      <trkpt lat="43.21026" lon="5.48365">
        <ele>228.3</ele>
        <time>2025-10-19T11:18:33Z</time>
      </trkpt>
      <trkpt lat="43.21027" lon="5.48365">
        <ele>228.4</ele>
        <time>2025-10-19T11:18:34Z</time>
      </trkpt>
      <trkpt lat="43.21027" lon="5.48365">
        <ele>228.4</ele>
        <time>2025-10-19T11:18:35Z</time>
      </trkpt>
      <trkpt lat="43.21027" lon="5.48365">
        <ele>228.4</ele>
        <time>2025-10-19T11:18:36Z</time>
      </trkpt>
      <trkpt lat="43.21028" lon="5.48364">
        <ele>228.3</ele>
        <time>2025-10-19T11:18:37Z</time>
      </trkpt>
      <trkpt lat="43.21028" lon="5.48364">
        <ele>228.2</ele>
        <time>2025-10-19T11:18:38Z</time>
      </trkpt>
      <trkpt lat="43.21028" lon="5.48364">
        <ele>228.1</ele>
        <time>2025-10-19T11:18:39Z</time>
      </trkpt>
      <trkpt lat="43.21028" lon="5.48364">
        <ele>228.1</ele>
        <time>2025-10-19T11:18:40Z</time>
      </trkpt>
      <trkpt lat="43.21028" lon="5.48364">
        <ele>228.2</ele>
        <time>2025-10-19T11:18:41Z</time>
      </trkpt>
      <trkpt lat="43.21028" lon="5.48364">
        <ele>228.2</ele>
        <time>2025-10-19T11:18:42Z</time>
      </trkpt>
      <trkpt lat="43.21029" lon="5.48364">
        <ele>228.2</ele>
        <time>2025-10-19T11:18:43Z</time>
      </trkpt>
      <trkpt lat="43.21029" lon="5.48364">
        <ele>228.2</ele>
        <time>2025-10-19T11:18:44Z</time>
      </trkpt>
      <trkpt lat="43.21029" lon="5.48364">
        <ele>228.3</ele>
        <time>2025-10-19T11:18:45Z</time>
      </trkpt>
      <trkpt lat="43.21029" lon="5.48364">
        <ele>228.3</ele>
        <time>2025-10-19T11:18:46Z</time>
      </trkpt>
      <trkpt lat="43.21029" lon="5.48364">
        <ele>228.3</ele>
        <time>2025-10-19T11:18:47Z</time>
      </trkpt>
      <trkpt lat="43.21029" lon="5.48364">
        <ele>228.2</ele>
        <time>2025-10-19T11:18:48Z</time>
      </trkpt>
      <trkpt lat="43.21029" lon="5.48364">
        <ele>228.2</ele>
        <time>2025-10-19T11:18:49Z</time>
      </trkpt>
      <trkpt lat="43.21029" lon="5.48364">
        <ele>228.3</ele>
        <time>2025-10-19T11:18:50Z</time>
      </trkpt>
      <trkpt lat="43.21029" lon="5.48364">
        <ele>228.3</ele>
        <time>2025-10-19T11:18:51Z</time>
      </trkpt>
      <trkpt lat="43.21029" lon="5.48364">
        <ele>228.3</ele>
        <time>2025-10-19T11:18:52Z</time>
      </trkpt>
      <trkpt lat="43.21029" lon="5.48364">
        <ele>228.3</ele>
        <time>2025-10-19T11:18:53Z</time>
      </trkpt>
      <trkpt lat="43.2103" lon="5.48364">
        <ele>228.3</ele>
        <time>2025-10-19T11:18:54Z</time>
      </trkpt>
      <trkpt lat="43.2103" lon="5.48364">
        <ele>228.4</ele>
        <time>2025-10-19T11:18:55Z</time>
      </trkpt>
      <trkpt lat="43.2103" lon="5.48364">
        <ele>228.4</ele>
        <time>2025-10-19T11:18:56Z</time>
      </trkpt>
      <trkpt lat="43.2103" lon="5.48364">
        <ele>228.5</ele>
        <time>2025-10-19T11:18:57Z</time>
      </trkpt>
      <trkpt lat="43.2103" lon="5.48363">
        <ele>228.5</ele>
        <time>2025-10-19T11:18:58Z</time>
      </trkpt>
      <trkpt lat="43.2103" lon="5.48363">
        <ele>228.5</ele>
        <time>2025-10-19T11:18:59Z</time>
      </trkpt>
      <trkpt lat="43.2103" lon="5.48363">
        <ele>228.5</ele>
        <time>2025-10-19T11:19:00Z</time>
      </trkpt>
      <trkpt lat="43.2103" lon="5.48363">
        <ele>228.6</ele>
        <time>2025-10-19T11:19:01Z</time>
      </trkpt>
      <trkpt lat="43.2103" lon="5.48363">
        <ele>228.6</ele>
        <time>2025-10-19T11:19:02Z</time>
      </trkpt>
      <trkpt lat="43.2103" lon="5.48363">
        <ele>228.6</ele>
        <time>2025-10-19T11:19:03Z</time>
      </trkpt>
      <trkpt lat="43.2103" lon="5.48363">
        <ele>228.5</ele>
        <time>2025-10-19T11:19:04Z</time>
      </trkpt>
      <trkpt lat="43.2103" lon="5.48363">
        <ele>228.5</ele>
        <time>2025-10-19T11:19:05Z</time>
      </trkpt>
      <trkpt lat="43.2103" lon="5.48363">
        <ele>228.4</ele>
        <time>2025-10-19T11:19:06Z</time>
      </trkpt>
      <trkpt lat="43.2103" lon="5.48363">
        <ele>228.4</ele>
        <time>2025-10-19T11:19:07Z</time>
      </trkpt>
      <trkpt lat="43.2103" lon="5.48363">
        <ele>228.4</ele>
        <time>2025-10-19T11:19:08Z</time>
      </trkpt>
      <trkpt lat="43.2103" lon="5.48363">
        <ele>228.5</ele>
        <time>2025-10-19T11:19:09Z</time>
      </trkpt>
      <trkpt lat="43.2103" lon="5.48363">
        <ele>228.5</ele>
        <time>2025-10-19T11:19:10Z</time>
      </trkpt>
      <trkpt lat="43.2103" lon="5.48363">
        <ele>228.5</ele>
        <time>2025-10-19T11:19:11Z</time>
      </trkpt>
      <trkpt lat="43.2103" lon="5.48363">
        <ele>228.5</ele>
        <time>2025-10-19T11:19:12Z</time>
      </trkpt>
      <trkpt lat="43.21031" lon="5.48363">
        <ele>228.6</ele>
        <time>2025-10-19T11:19:13Z</time>
      </trkpt>
      <trkpt lat="43.21031" lon="5.48363">
        <ele>228.6</ele>
        <time>2025-10-19T11:19:14Z</time>
      </trkpt>
      <trkpt lat="43.21031" lon="5.48363">
        <ele>228.6</ele>
        <time>2025-10-19T11:19:15Z</time>
      </trkpt>
      <trkpt lat="43.21031" lon="5.48363">
        <ele>228.5</ele>
        <time>2025-10-19T11:19:16Z</time>
      </trkpt>
      <trkpt lat="43.21031" lon="5.48363">
        <ele>228.5</ele>
        <time>2025-10-19T11:19:17Z</time>
      </trkpt>
      <trkpt lat="43.21031" lon="5.48363">
        <ele>228.6</ele>
        <time>2025-10-19T11:19:18Z</time>
      </trkpt>
      <trkpt lat="43.21031" lon="5.48363">
        <ele>228.6</ele>
        <time>2025-10-19T11:19:19Z</time>
      </trkpt>
      <trkpt lat="43.21031" lon="5.48363">
        <ele>228.6</ele>
        <time>2025-10-19T11:19:20Z</time>
      </trkpt>
      <trkpt lat="43.21031" lon="5.48363">
        <ele>228.6</ele>
        <time>2025-10-19T11:19:21Z</time>
      </trkpt>
      <trkpt lat="43.21031" lon="5.48363">
        <ele>228.5</ele>
        <time>2025-10-19T11:19:22Z</time>
      </trkpt>
      <trkpt lat="43.21031" lon="5.48363">
        <ele>228.5</ele>
        <time>2025-10-19T11:19:23Z</time>
      </trkpt>
      <trkpt lat="43.21031" lon="5.48363">
        <ele>228.6</ele>
        <time>2025-10-19T11:19:24Z</time>
      </trkpt>
      <trkpt lat="43.21031" lon="5.48363">
        <ele>228.6</ele>
        <time>2025-10-19T11:19:25Z</time>
      </trkpt>
      <trkpt lat="43.21031" lon="5.48363">
        <ele>228.6</ele>
        <time>2025-10-19T11:19:26Z</time>
      </trkpt>
      <trkpt lat="43.21031" lon="5.48363">
        <ele>228.6</ele>
        <time>2025-10-19T11:19:27Z</time>
      </trkpt>
      <trkpt lat="43.21031" lon="5.48363">
        <ele>228.6</ele>
        <time>2025-10-19T11:19:28Z</time>
      </trkpt>
      <trkpt lat="43.21031" lon="5.48363">
        <ele>228.6</ele>
        <time>2025-10-19T11:19:29Z</time>
      </trkpt>
      <trkpt lat="43.21031" lon="5.48363">
        <ele>228.6</ele>
        <time>2025-10-19T11:19:30Z</time>
      </trkpt>
      <trkpt lat="43.21031" lon="5.48363">
        <ele>228.5</ele>
        <time>2025-10-19T11:19:31Z</time>
      </trkpt>
      <trkpt lat="43.21031" lon="5.48363">
        <ele>228.4</ele>
        <time>2025-10-19T11:19:32Z</time>
      </trkpt>
      <trkpt lat="43.21031" lon="5.48363">
        <ele>228.4</ele>
        <time>2025-10-19T11:19:33Z</time>
      </trkpt>
      <trkpt lat="43.21031" lon="5.48363">
        <ele>228.3</ele>
        <time>2025-10-19T11:19:34Z</time>
      </trkpt>
      <trkpt lat="43.21031" lon="5.48363">
        <ele>228.3</ele>
        <time>2025-10-19T11:19:35Z</time>
      </trkpt>
      <trkpt lat="43.21031" lon="5.48363">
        <ele>228.4</ele>
        <time>2025-10-19T11:19:36Z</time>
      </trkpt>
      <trkpt lat="43.21031" lon="5.48363">
        <ele>228.4</ele>
        <time>2025-10-19T11:19:37Z</time>
      </trkpt>
      <trkpt lat="43.21031" lon="5.48363">
        <ele>228.3</ele>
        <time>2025-10-19T11:19:38Z</time>
      </trkpt>
      <trkpt lat="43.21031" lon="5.48363">
        <ele>228.3</ele>
        <time>2025-10-19T11:19:39Z</time>
      </trkpt>
      <trkpt lat="43.21031" lon="5.48363">
        <ele>228.4</ele>
        <time>2025-10-19T11:19:40Z</time>
      </trkpt>
      <trkpt lat="43.21031" lon="5.48363">
        <ele>228.4</ele>
        <time>2025-10-19T11:19:41Z</time>
      </trkpt>
      <trkpt lat="43.21031" lon="5.48363">
        <ele>228.4</ele>
        <time>2025-10-19T11:19:42Z</time>
      </trkpt>
      <trkpt lat="43.21031" lon="5.48363">
        <ele>228.4</ele>
        <time>2025-10-19T11:19:43Z</time>
      </trkpt>
      <trkpt lat="43.21031" lon="5.48363">
        <ele>228.5</ele>
        <time>2025-10-19T11:19:44Z</time>
      </trkpt>
      <trkpt lat="43.21031" lon="5.48363">
        <ele>228.6</ele>
        <time>2025-10-19T11:19:45Z</time>
      </trkpt>
      <trkpt lat="43.21031" lon="5.48363">
        <ele>228.6</ele>
        <time>2025-10-19T11:19:46Z</time>
      </trkpt>
      <trkpt lat="43.21031" lon="5.48364">
        <ele>228.6</ele>
        <time>2025-10-19T11:19:47Z</time>
      </trkpt>
      <trkpt lat="43.21031" lon="5.48364">
        <ele>228.6</ele>
        <time>2025-10-19T11:19:48Z</time>
      </trkpt>
      <trkpt lat="43.21031" lon="5.48364">
        <ele>228.5</ele>
        <time>2025-10-19T11:19:49Z</time>
      </trkpt>
      <trkpt lat="43.21031" lon="5.48364">
        <ele>228.5</ele>
        <time>2025-10-19T11:19:50Z</time>
      </trkpt>
      <trkpt lat="43.21031" lon="5.48364">
        <ele>228.4</ele>
        <time>2025-10-19T11:19:51Z</time>
      </trkpt>
      <trkpt lat="43.21031" lon="5.48364">
        <ele>228.4</ele>
        <time>2025-10-19T11:19:52Z</time>
      </trkpt>
      <trkpt lat="43.21031" lon="5.48364">
        <ele>228.3</ele>
        <time>2025-10-19T11:19:53Z</time>
      </trkpt>
      <trkpt lat="43.21031" lon="5.48364">
        <ele>228.3</ele>
        <time>2025-10-19T11:19:54Z</time>
      </trkpt>
      <trkpt lat="43.21031" lon="5.48364">
        <ele>228.2</ele>
        <time>2025-10-19T11:19:55Z</time>
      </trkpt>
      <trkpt lat="43.21031" lon="5.48364">
        <ele>228.2</ele>
        <time>2025-10-19T11:19:56Z</time>
      </trkpt>
      <trkpt lat="43.21031" lon="5.48364">
        <ele>228.2</ele>
        <time>2025-10-19T11:19:57Z</time>
      </trkpt>
      <trkpt lat="43.21031" lon="5.48364">
        <ele>228.2</ele>
        <time>2025-10-19T11:19:58Z</time>
      </trkpt>
      <trkpt lat="43.21031" lon="5.48364">
        <ele>228.2</ele>
        <time>2025-10-19T11:19:59Z</time>
      </trkpt>
      <trkpt lat="43.21031" lon="5.48364">
        <ele>228.1</ele>
        <time>2025-10-19T11:20:00Z</time>
      </trkpt>
      <trkpt lat="43.21032" lon="5.48364">
        <ele>228</ele>
        <time>2025-10-19T11:20:01Z</time>
      </trkpt>
      <trkpt lat="43.21032" lon="5.48364">
        <ele>228</ele>
        <time>2025-10-19T11:20:02Z</time>
      </trkpt>
      <trkpt lat="43.21032" lon="5.48364">
        <ele>228.1</ele>
        <time>2025-10-19T11:20:03Z</time>
      </trkpt>
      <trkpt lat="43.21032" lon="5.48364">
        <ele>228.1</ele>
        <time>2025-10-19T11:20:04Z</time>
      </trkpt>
      <trkpt lat="43.21032" lon="5.48364">
        <ele>228.1</ele>
        <time>2025-10-19T11:20:05Z</time>
      </trkpt>
      <trkpt lat="43.21032" lon="5.48364">
        <ele>228.1</ele>
        <time>2025-10-19T11:20:06Z</time>
      </trkpt>
      <trkpt lat="43.21032" lon="5.48364">
        <ele>228.2</ele>
        <time>2025-10-19T11:20:07Z</time>
      </trkpt>
      <trkpt lat="43.21032" lon="5.48364">
        <ele>228.2</ele>
        <time>2025-10-19T11:20:08Z</time>
      </trkpt>
      <trkpt lat="43.21032" lon="5.48364">
        <ele>228.2</ele>
        <time>2025-10-19T11:20:09Z</time>
      </trkpt>
      <trkpt lat="43.21032" lon="5.48364">
        <ele>228.2</ele>
        <time>2025-10-19T11:20:10Z</time>
      </trkpt>
      <trkpt lat="43.21032" lon="5.48364">
        <ele>228.2</ele>
        <time>2025-10-19T11:20:11Z</time>
      </trkpt>
      <trkpt lat="43.21032" lon="5.48364">
        <ele>228.2</ele>
        <time>2025-10-19T11:20:12Z</time>
      </trkpt>
      <trkpt lat="43.21032" lon="5.48363">
        <ele>228.1</ele>
        <time>2025-10-19T11:20:13Z</time>
      </trkpt>
      <trkpt lat="43.21032" lon="5.48363">
        <ele>228.2</ele>
        <time>2025-10-19T11:20:14Z</time>
      </trkpt>
      <trkpt lat="43.21032" lon="5.48363">
        <ele>228.2</ele>
        <time>2025-10-19T11:20:15Z</time>
      </trkpt>
      <trkpt lat="43.21032" lon="5.48363">
        <ele>228.1</ele>
        <time>2025-10-19T11:20:16Z</time>
      </trkpt>
      <trkpt lat="43.21032" lon="5.48363">
        <ele>227.9</ele>
        <time>2025-10-19T11:20:17Z</time>
      </trkpt>
      <trkpt lat="43.21032" lon="5.48363">
        <ele>227.9</ele>
        <time>2025-10-19T11:20:18Z</time>
      </trkpt>
      <trkpt lat="43.21032" lon="5.48363">
        <ele>227.9</ele>
        <time>2025-10-19T11:20:19Z</time>
      </trkpt>
      <trkpt lat="43.21032" lon="5.48363">
        <ele>227.9</ele>
        <time>2025-10-19T11:20:20Z</time>
      </trkpt>
      <trkpt lat="43.21032" lon="5.48363">
        <ele>227.9</ele>
        <time>2025-10-19T11:20:21Z</time>
      </trkpt>
      <trkpt lat="43.21032" lon="5.48363">
        <ele>227.9</ele>
        <time>2025-10-19T11:20:22Z</time>
      </trkpt>
      <trkpt lat="43.21032" lon="5.48363">
        <ele>228</ele>
        <time>2025-10-19T11:20:23Z</time>
      </trkpt>
      <trkpt lat="43.21032" lon="5.48363">
        <ele>228</ele>
        <time>2025-10-19T11:20:24Z</time>
      </trkpt>
      <trkpt lat="43.21032" lon="5.48363">
        <ele>228</ele>
        <time>2025-10-19T11:20:25Z</time>
      </trkpt>
      <trkpt lat="43.21032" lon="5.48363">
        <ele>228</ele>
        <time>2025-10-19T11:20:26Z</time>
      </trkpt>
      <trkpt lat="43.21032" lon="5.48363">
        <ele>227.9</ele>
        <time>2025-10-19T11:20:27Z</time>
      </trkpt>
      <trkpt lat="43.21032" lon="5.48363">
        <ele>227.8</ele>
        <time>2025-10-19T11:20:28Z</time>
      </trkpt>
      <trkpt lat="43.21032" lon="5.48363">
        <ele>227.8</ele>
        <time>2025-10-19T11:20:29Z</time>
      </trkpt>
      <trkpt lat="43.21032" lon="5.48362">
        <ele>227.8</ele>
        <time>2025-10-19T11:20:30Z</time>
      </trkpt>
      <trkpt lat="43.21032" lon="5.48362">
        <ele>227.9</ele>
        <time>2025-10-19T11:20:31Z</time>
      </trkpt>
      <trkpt lat="43.21032" lon="5.48362">
        <ele>227.9</ele>
        <time>2025-10-19T11:20:32Z</time>
      </trkpt>
      <trkpt lat="43.21032" lon="5.48362">
        <ele>227.9</ele>
        <time>2025-10-19T11:20:33Z</time>
      </trkpt>
      <trkpt lat="43.21032" lon="5.48362">
        <ele>227.9</ele>
        <time>2025-10-19T11:20:34Z</time>
      </trkpt>
      <trkpt lat="43.21032" lon="5.48362">
        <ele>227.9</ele>
        <time>2025-10-19T11:20:35Z</time>
      </trkpt>
      <trkpt lat="43.21032" lon="5.48362">
        <ele>227.8</ele>
        <time>2025-10-19T11:20:36Z</time>
      </trkpt>
      <trkpt lat="43.21031" lon="5.48362">
        <ele>227.9</ele>
        <time>2025-10-19T11:20:37Z</time>
      </trkpt>
      <trkpt lat="43.21031" lon="5.48362">
        <ele>227.9</ele>
        <time>2025-10-19T11:20:38Z</time>
      </trkpt>
      <trkpt lat="43.21031" lon="5.48363">
        <ele>227.9</ele>
        <time>2025-10-19T11:20:39Z</time>
      </trkpt>
      <trkpt lat="43.21031" lon="5.48362">
        <ele>227.9</ele>
        <time>2025-10-19T11:20:40Z</time>
      </trkpt>
      <trkpt lat="43.21031" lon="5.48363">
        <ele>228</ele>
        <time>2025-10-19T11:20:41Z</time>
      </trkpt>
      <trkpt lat="43.21031" lon="5.48363">
        <ele>228</ele>
        <time>2025-10-19T11:20:42Z</time>
      </trkpt>
      <trkpt lat="43.21031" lon="5.48363">
        <ele>228</ele>
        <time>2025-10-19T11:20:43Z</time>
      </trkpt>
      <trkpt lat="43.21031" lon="5.48363">
        <ele>228</ele>
        <time>2025-10-19T11:20:44Z</time>
      </trkpt>
      <trkpt lat="43.21031" lon="5.48363">
        <ele>228</ele>
        <time>2025-10-19T11:20:45Z</time>
      </trkpt>
      <trkpt lat="43.21031" lon="5.48363">
        <ele>228.1</ele>
        <time>2025-10-19T11:20:46Z</time>
      </trkpt>
      <trkpt lat="43.2103" lon="5.48363">
        <ele>228.2</ele>
        <time>2025-10-19T11:20:47Z</time>
      </trkpt>
      <trkpt lat="43.2103" lon="5.48363">
        <ele>228.2</ele>
        <time>2025-10-19T11:20:48Z</time>
      </trkpt>
      <trkpt lat="43.21029" lon="5.48363">
        <ele>228.2</ele>
        <time>2025-10-19T11:20:49Z</time>
      </trkpt>
      <trkpt lat="43.21028" lon="5.48364">
        <ele>228.1</ele>
        <time>2025-10-19T11:20:50Z</time>
      </trkpt>
      <trkpt lat="43.21028" lon="5.48364">
        <ele>228</ele>
        <time>2025-10-19T11:20:51Z</time>
      </trkpt>
      <trkpt lat="43.21027" lon="5.48364">
        <ele>227.8</ele>
        <time>2025-10-19T11:20:52Z</time>
      </trkpt>
      <trkpt lat="43.21027" lon="5.48364">
        <ele>227.7</ele>
        <time>2025-10-19T11:20:53Z</time>
      </trkpt>
      <trkpt lat="43.21027" lon="5.48365">
        <ele>227.6</ele>
        <time>2025-10-19T11:20:54Z</time>
      </trkpt>
      <trkpt lat="43.21027" lon="5.48365">
        <ele>227.4</ele>
        <time>2025-10-19T11:20:55Z</time>
      </trkpt>
      <trkpt lat="43.21027" lon="5.48365">
        <ele>227.4</ele>
        <time>2025-10-19T11:20:56Z</time>
      </trkpt>
      <trkpt lat="43.21027" lon="5.48365">
        <ele>227.4</ele>
        <time>2025-10-19T11:20:57Z</time>
      </trkpt>
      <trkpt lat="43.21027" lon="5.48365">
        <ele>227.4</ele>
        <time>2025-10-19T11:20:58Z</time>
      </trkpt>
      <trkpt lat="43.21027" lon="5.48365">
        <ele>227.4</ele>
        <time>2025-10-19T11:20:59Z</time>
      </trkpt>
      <trkpt lat="43.21027" lon="5.48364">
        <ele>227.5</ele>
        <time>2025-10-19T11:21:00Z</time>
      </trkpt>
      <trkpt lat="43.21027" lon="5.48364">
        <ele>227.5</ele>
        <time>2025-10-19T11:21:01Z</time>
      </trkpt>
      <trkpt lat="43.21026" lon="5.48363">
        <ele>227.4</ele>
        <time>2025-10-19T11:21:02Z</time>
      </trkpt>
      <trkpt lat="43.21027" lon="5.48363">
        <ele>227.3</ele>
        <time>2025-10-19T11:21:03Z</time>
      </trkpt>
      <trkpt lat="43.21026" lon="5.48362">
        <ele>227.2</ele>
        <time>2025-10-19T11:21:04Z</time>
      </trkpt>
      <trkpt lat="43.21026" lon="5.48361">
        <ele>227.2</ele>
        <time>2025-10-19T11:21:05Z</time>
      </trkpt>
      <trkpt lat="43.21026" lon="5.48361">
        <ele>227.2</ele>
        <time>2025-10-19T11:21:06Z</time>
      </trkpt>
      <trkpt lat="43.21026" lon="5.4836">
        <ele>227.2</ele>
        <time>2025-10-19T11:21:07Z</time>
      </trkpt>
      <trkpt lat="43.21026" lon="5.4836">
        <ele>227.1</ele>
        <time>2025-10-19T11:21:08Z</time>
      </trkpt>
      <trkpt lat="43.21026" lon="5.48359">
        <ele>227.1</ele>
        <time>2025-10-19T11:21:09Z</time>
      </trkpt>
      <trkpt lat="43.21026" lon="5.48358">
        <ele>227.1</ele>
        <time>2025-10-19T11:21:10Z</time>
      </trkpt>
      <trkpt lat="43.21026" lon="5.48358">
        <ele>227.1</ele>
        <time>2025-10-19T11:21:11Z</time>
      </trkpt>
      <trkpt lat="43.21026" lon="5.48358">
        <ele>227.1</ele>
        <time>2025-10-19T11:21:12Z</time>
      </trkpt>
      <trkpt lat="43.21026" lon="5.48358">
        <ele>227.2</ele>
        <time>2025-10-19T11:21:13Z</time>
      </trkpt>
      <trkpt lat="43.21026" lon="5.48357">
        <ele>227.2</ele>
        <time>2025-10-19T11:21:14Z</time>
      </trkpt>
      <trkpt lat="43.21026" lon="5.48358">
        <ele>227.2</ele>
        <time>2025-10-19T11:21:15Z</time>
      </trkpt>
      <trkpt lat="43.21026" lon="5.48358">
        <ele>227.1</ele>
        <time>2025-10-19T11:21:16Z</time>
      </trkpt>
      <trkpt lat="43.21026" lon="5.48358">
        <ele>227.2</ele>
        <time>2025-10-19T11:21:17Z</time>
      </trkpt>
      <trkpt lat="43.21026" lon="5.48358">
        <ele>227.1</ele>
        <time>2025-10-19T11:21:18Z</time>
      </trkpt>
      <trkpt lat="43.21025" lon="5.48358">
        <ele>227.2</ele>
        <time>2025-10-19T11:21:19Z</time>
      </trkpt>
      <trkpt lat="43.21025" lon="5.48358">
        <ele>227.2</ele>
        <time>2025-10-19T11:21:20Z</time>
      </trkpt>
      <trkpt lat="43.21025" lon="5.48358">
        <ele>227.2</ele>
        <time>2025-10-19T11:21:21Z</time>
      </trkpt>
      <trkpt lat="43.21025" lon="5.48357">
        <ele>227.3</ele>
        <time>2025-10-19T11:21:22Z</time>
      </trkpt>
      <trkpt lat="43.21025" lon="5.48357">
        <ele>227.3</ele>
        <time>2025-10-19T11:21:23Z</time>
      </trkpt>
      <trkpt lat="43.21025" lon="5.48357">
        <ele>227.3</ele>
        <time>2025-10-19T11:21:24Z</time>
      </trkpt>
      <trkpt lat="43.21025" lon="5.48357">
        <ele>227.3</ele>
        <time>2025-10-19T11:21:25Z</time>
      </trkpt>
      <trkpt lat="43.21024" lon="5.48357">
        <ele>227.2</ele>
        <time>2025-10-19T11:21:26Z</time>
      </trkpt>
      <trkpt lat="43.21024" lon="5.48357">
        <ele>227.3</ele>
        <time>2025-10-19T11:21:27Z</time>
      </trkpt>
      <trkpt lat="43.21024" lon="5.48357">
        <ele>227.2</ele>
        <time>2025-10-19T11:21:28Z</time>
      </trkpt>
      <trkpt lat="43.21024" lon="5.48357">
        <ele>227.2</ele>
        <time>2025-10-19T11:21:29Z</time>
      </trkpt>
      <trkpt lat="43.21024" lon="5.48357">
        <ele>227.2</ele>
        <time>2025-10-19T11:21:30Z</time>
      </trkpt>
      <trkpt lat="43.21024" lon="5.48357">
        <ele>227.2</ele>
        <time>2025-10-19T11:21:31Z</time>
      </trkpt>
      <trkpt lat="43.21024" lon="5.48357">
        <ele>227.1</ele>
        <time>2025-10-19T11:21:32Z</time>
      </trkpt>
      <trkpt lat="43.21024" lon="5.48357">
        <ele>227.1</ele>
        <time>2025-10-19T11:21:33Z</time>
      </trkpt>
      <trkpt lat="43.21024" lon="5.48356">
        <ele>227.1</ele>
        <time>2025-10-19T11:21:34Z</time>
      </trkpt>
      <trkpt lat="43.21024" lon="5.48356">
        <ele>227.1</ele>
        <time>2025-10-19T11:21:35Z</time>
      </trkpt>
      <trkpt lat="43.21024" lon="5.48356">
        <ele>227</ele>
        <time>2025-10-19T11:21:36Z</time>
      </trkpt>
      <trkpt lat="43.21024" lon="5.48356">
        <ele>227.1</ele>
        <time>2025-10-19T11:21:37Z</time>
      </trkpt>
      <trkpt lat="43.21024" lon="5.48356">
        <ele>227.1</ele>
        <time>2025-10-19T11:21:38Z</time>
      </trkpt>
      <trkpt lat="43.21024" lon="5.48356">
        <ele>227.1</ele>
        <time>2025-10-19T11:21:39Z</time>
      </trkpt>
      <trkpt lat="43.21023" lon="5.48356">
        <ele>227.2</ele>
        <time>2025-10-19T11:21:40Z</time>
      </trkpt>
      <trkpt lat="43.21023" lon="5.48356">
        <ele>227.2</ele>
        <time>2025-10-19T11:21:41Z</time>
      </trkpt>
      <trkpt lat="43.21023" lon="5.48356">
        <ele>227.2</ele>
        <time>2025-10-19T11:21:42Z</time>
      </trkpt>
      <trkpt lat="43.21023" lon="5.48356">
        <ele>227.2</ele>
        <time>2025-10-19T11:21:43Z</time>
      </trkpt>
      <trkpt lat="43.21023" lon="5.48356">
        <ele>227.2</ele>
        <time>2025-10-19T11:21:44Z</time>
      </trkpt>
      <trkpt lat="43.21023" lon="5.48356">
        <ele>227.2</ele>
        <time>2025-10-19T11:21:45Z</time>
      </trkpt>
      <trkpt lat="43.21023" lon="5.48356">
        <ele>227.2</ele>
        <time>2025-10-19T11:21:46Z</time>
      </trkpt>
      <trkpt lat="43.21023" lon="5.48356">
        <ele>227.2</ele>
        <time>2025-10-19T11:21:47Z</time>
      </trkpt>
      <trkpt lat="43.21023" lon="5.48356">
        <ele>227.2</ele>
        <time>2025-10-19T11:21:48Z</time>
      </trkpt>
      <trkpt lat="43.21023" lon="5.48357">
        <ele>227.1</ele>
        <time>2025-10-19T11:21:49Z</time>
      </trkpt>
      <trkpt lat="43.21023" lon="5.48357">
        <ele>227</ele>
        <time>2025-10-19T11:21:50Z</time>
      </trkpt>
      <trkpt lat="43.21023" lon="5.48357">
        <ele>227</ele>
        <time>2025-10-19T11:21:51Z</time>
      </trkpt>
      <trkpt lat="43.21023" lon="5.48357">
        <ele>227</ele>
        <time>2025-10-19T11:21:52Z</time>
      </trkpt>
      <trkpt lat="43.21023" lon="5.48356">
        <ele>226.9</ele>
        <time>2025-10-19T11:21:53Z</time>
      </trkpt>
      <trkpt lat="43.21023" lon="5.48356">
        <ele>226.9</ele>
        <time>2025-10-19T11:21:54Z</time>
      </trkpt>
      <trkpt lat="43.21023" lon="5.48356">
        <ele>226.8</ele>
        <time>2025-10-19T11:21:55Z</time>
      </trkpt>
      <trkpt lat="43.21023" lon="5.48357">
        <ele>226.9</ele>
        <time>2025-10-19T11:21:56Z</time>
      </trkpt>
      <trkpt lat="43.21023" lon="5.48356">
        <ele>226.9</ele>
        <time>2025-10-19T11:21:57Z</time>
      </trkpt>
      <trkpt lat="43.21023" lon="5.48356">
        <ele>226.9</ele>
        <time>2025-10-19T11:21:58Z</time>
      </trkpt>
      <trkpt lat="43.21023" lon="5.48355">
        <ele>226.9</ele>
        <time>2025-10-19T11:21:59Z</time>
      </trkpt>
      <trkpt lat="43.21022" lon="5.48354">
        <ele>226.9</ele>
        <time>2025-10-19T11:22:00Z</time>
      </trkpt>
      <trkpt lat="43.21022" lon="5.48353">
        <ele>226.8</ele>
        <time>2025-10-19T11:22:01Z</time>
      </trkpt>
      <trkpt lat="43.21022" lon="5.48352">
        <ele>226.8</ele>
        <time>2025-10-19T11:22:02Z</time>
      </trkpt>
      <trkpt lat="43.21023" lon="5.48351">
        <ele>226.8</ele>
        <time>2025-10-19T11:22:03Z</time>
      </trkpt>
      <trkpt lat="43.21023" lon="5.4835">
        <ele>226.6</ele>
        <time>2025-10-19T11:22:04Z</time>
      </trkpt>
      <trkpt lat="43.21023" lon="5.48349">
        <ele>226.6</ele>
        <time>2025-10-19T11:22:05Z</time>
      </trkpt>
      <trkpt lat="43.21023" lon="5.48348">
        <ele>226.5</ele>
        <time>2025-10-19T11:22:06Z</time>
      </trkpt>
      <trkpt lat="43.21023" lon="5.48347">
        <ele>226.4</ele>
        <time>2025-10-19T11:22:07Z</time>
      </trkpt>
      <trkpt lat="43.21023" lon="5.48346">
        <ele>226.5</ele>
        <time>2025-10-19T11:22:08Z</time>
      </trkpt>
      <trkpt lat="43.21023" lon="5.48345">
        <ele>226.5</ele>
        <time>2025-10-19T11:22:09Z</time>
      </trkpt>
      <trkpt lat="43.21023" lon="5.48344">
        <ele>226.5</ele>
        <time>2025-10-19T11:22:10Z</time>
      </trkpt>
      <trkpt lat="43.21023" lon="5.48343">
        <ele>226.5</ele>
        <time>2025-10-19T11:22:11Z</time>
      </trkpt>
      <trkpt lat="43.21023" lon="5.48342">
        <ele>226.5</ele>
        <time>2025-10-19T11:22:12Z</time>
      </trkpt>
      <trkpt lat="43.21023" lon="5.48341">
        <ele>226.4</ele>
        <time>2025-10-19T11:22:13Z</time>
      </trkpt>
      <trkpt lat="43.21023" lon="5.4834">
        <ele>226.3</ele>
        <time>2025-10-19T11:22:14Z</time>
      </trkpt>
      <trkpt lat="43.21023" lon="5.48339">
        <ele>226.2</ele>
        <time>2025-10-19T11:22:15Z</time>
      </trkpt>
      <trkpt lat="43.21023" lon="5.48338">
        <ele>226.1</ele>
        <time>2025-10-19T11:22:16Z</time>
      </trkpt>
      <trkpt lat="43.21024" lon="5.48337">
        <ele>226</ele>
        <time>2025-10-19T11:22:17Z</time>
      </trkpt>
      <trkpt lat="43.21024" lon="5.48335">
        <ele>225.9</ele>
        <time>2025-10-19T11:22:18Z</time>
      </trkpt>
      <trkpt lat="43.21024" lon="5.48334">
        <ele>225.7</ele>
        <time>2025-10-19T11:22:19Z</time>
      </trkpt>
      <trkpt lat="43.21024" lon="5.48333">
        <ele>225.7</ele>
        <time>2025-10-19T11:22:20Z</time>
      </trkpt>
      <trkpt lat="43.21024" lon="5.48333">
        <ele>225.6</ele>
        <time>2025-10-19T11:22:21Z</time>
      </trkpt>
      <trkpt lat="43.21024" lon="5.48332">
        <ele>225.5</ele>
        <time>2025-10-19T11:22:22Z</time>
      </trkpt>
      <trkpt lat="43.21024" lon="5.4833">
        <ele>225.4</ele>
        <time>2025-10-19T11:22:23Z</time>
      </trkpt>
      <trkpt lat="43.21023" lon="5.48329">
        <ele>225.3</ele>
        <time>2025-10-19T11:22:24Z</time>
      </trkpt>
      <trkpt lat="43.21023" lon="5.48328">
        <ele>225.2</ele>
        <time>2025-10-19T11:22:25Z</time>
      </trkpt>
      <trkpt lat="43.21023" lon="5.48327">
        <ele>225.2</ele>
        <time>2025-10-19T11:22:26Z</time>
      </trkpt>
      <trkpt lat="43.21024" lon="5.48326">
        <ele>225.1</ele>
        <time>2025-10-19T11:22:27Z</time>
      </trkpt>
      <trkpt lat="43.21024" lon="5.48325">
        <ele>224.9</ele>
        <time>2025-10-19T11:22:28Z</time>
      </trkpt>
      <trkpt lat="43.21024" lon="5.48324">
        <ele>224.7</ele>
        <time>2025-10-19T11:22:29Z</time>
      </trkpt>
      <trkpt lat="43.21025" lon="5.48324">
        <ele>224.6</ele>
        <time>2025-10-19T11:22:30Z</time>
      </trkpt>
      <trkpt lat="43.21025" lon="5.48323">
        <ele>224.5</ele>
        <time>2025-10-19T11:22:31Z</time>
      </trkpt>
      <trkpt lat="43.21025" lon="5.48321">
        <ele>224.3</ele>
        <time>2025-10-19T11:22:32Z</time>
      </trkpt>
      <trkpt lat="43.21025" lon="5.4832">
        <ele>224.1</ele>
        <time>2025-10-19T11:22:33Z</time>
      </trkpt>
      <trkpt lat="43.21025" lon="5.48319">
        <ele>224</ele>
        <time>2025-10-19T11:22:34Z</time>
      </trkpt>
      <trkpt lat="43.21025" lon="5.48317">
        <ele>224</ele>
        <time>2025-10-19T11:22:35Z</time>
      </trkpt>
      <trkpt lat="43.21025" lon="5.48316">
        <ele>223.8</ele>
        <time>2025-10-19T11:22:36Z</time>
      </trkpt>
      <trkpt lat="43.21025" lon="5.48315">
        <ele>223.6</ele>
        <time>2025-10-19T11:22:37Z</time>
      </trkpt>
      <trkpt lat="43.21025" lon="5.48314">
        <ele>223.4</ele>
        <time>2025-10-19T11:22:38Z</time>
      </trkpt>
      <trkpt lat="43.21025" lon="5.48314">
        <ele>223.2</ele>
        <time>2025-10-19T11:22:39Z</time>
      </trkpt>
      <trkpt lat="43.21025" lon="5.48312">
        <ele>223.1</ele>
        <time>2025-10-19T11:22:40Z</time>
      </trkpt>
      <trkpt lat="43.21026" lon="5.48311">
        <ele>223</ele>
        <time>2025-10-19T11:22:41Z</time>
      </trkpt>
      <trkpt lat="43.21026" lon="5.4831">
        <ele>222.8</ele>
        <time>2025-10-19T11:22:42Z</time>
      </trkpt>
      <trkpt lat="43.21026" lon="5.48309">
        <ele>222.7</ele>
        <time>2025-10-19T11:22:43Z</time>
      </trkpt>
      <trkpt lat="43.21026" lon="5.48307">
        <ele>222.5</ele>
        <time>2025-10-19T11:22:44Z</time>
      </trkpt>
      <trkpt lat="43.21026" lon="5.48306">
        <ele>222.3</ele>
        <time>2025-10-19T11:22:45Z</time>
      </trkpt>
      <trkpt lat="43.21025" lon="5.48305">
        <ele>222.2</ele>
        <time>2025-10-19T11:22:46Z</time>
      </trkpt>
      <trkpt lat="43.21025" lon="5.48303">
        <ele>222.1</ele>
        <time>2025-10-19T11:22:47Z</time>
      </trkpt>
      <trkpt lat="43.21025" lon="5.48302">
        <ele>221.9</ele>
        <time>2025-10-19T11:22:48Z</time>
      </trkpt>
      <trkpt lat="43.21025" lon="5.48301">
        <ele>221.7</ele>
        <time>2025-10-19T11:22:49Z</time>
      </trkpt>
      <trkpt lat="43.21025" lon="5.48299">
        <ele>221.5</ele>
        <time>2025-10-19T11:22:50Z</time>
      </trkpt>
      <trkpt lat="43.21025" lon="5.48298">
        <ele>221.4</ele>
        <time>2025-10-19T11:22:51Z</time>
      </trkpt>
      <trkpt lat="43.21025" lon="5.48297">
        <ele>221.3</ele>
        <time>2025-10-19T11:22:52Z</time>
      </trkpt>
      <trkpt lat="43.21025" lon="5.48295">
        <ele>221.2</ele>
        <time>2025-10-19T11:22:53Z</time>
      </trkpt>
      <trkpt lat="43.21025" lon="5.48294">
        <ele>221.1</ele>
        <time>2025-10-19T11:22:54Z</time>
      </trkpt>
      <trkpt lat="43.21025" lon="5.48293">
        <ele>221.1</ele>
        <time>2025-10-19T11:22:55Z</time>
      </trkpt>
      <trkpt lat="43.21025" lon="5.48292">
        <ele>221</ele>
        <time>2025-10-19T11:22:56Z</time>
      </trkpt>
      <trkpt lat="43.21025" lon="5.4829">
        <ele>220.9</ele>
        <time>2025-10-19T11:22:57Z</time>
      </trkpt>
      <trkpt lat="43.21025" lon="5.48289">
        <ele>220.8</ele>
        <time>2025-10-19T11:22:58Z</time>
      </trkpt>
      <trkpt lat="43.21025" lon="5.48288">
        <ele>220.6</ele>
        <time>2025-10-19T11:22:59Z</time>
      </trkpt>
      <trkpt lat="43.21025" lon="5.48286">
        <ele>220.5</ele>
        <time>2025-10-19T11:23:00Z</time>
      </trkpt>
      <trkpt lat="43.21025" lon="5.48285">
        <ele>220.4</ele>
        <time>2025-10-19T11:23:01Z</time>
      </trkpt>
      <trkpt lat="43.21025" lon="5.48283">
        <ele>220.2</ele>
        <time>2025-10-19T11:23:02Z</time>
      </trkpt>
      <trkpt lat="43.21025" lon="5.48282">
        <ele>220</ele>
        <time>2025-10-19T11:23:03Z</time>
      </trkpt>
      <trkpt lat="43.21025" lon="5.48281">
        <ele>219.9</ele>
        <time>2025-10-19T11:23:04Z</time>
      </trkpt>
      <trkpt lat="43.21025" lon="5.48279">
        <ele>219.7</ele>
        <time>2025-10-19T11:23:05Z</time>
      </trkpt>
      <trkpt lat="43.21025" lon="5.48278">
        <ele>219.6</ele>
        <time>2025-10-19T11:23:06Z</time>
      </trkpt>
      <trkpt lat="43.21025" lon="5.48277">
        <ele>219.5</ele>
        <time>2025-10-19T11:23:07Z</time>
      </trkpt>
      <trkpt lat="43.21025" lon="5.48276">
        <ele>219.5</ele>
        <time>2025-10-19T11:23:08Z</time>
      </trkpt>
      <trkpt lat="43.21025" lon="5.48274">
        <ele>219.5</ele>
        <time>2025-10-19T11:23:09Z</time>
      </trkpt>
      <trkpt lat="43.21025" lon="5.48273">
        <ele>219.4</ele>
        <time>2025-10-19T11:23:10Z</time>
      </trkpt>
      <trkpt lat="43.21025" lon="5.48272">
        <ele>219.4</ele>
        <time>2025-10-19T11:23:11Z</time>
      </trkpt>
      <trkpt lat="43.21024" lon="5.4827">
        <ele>219.4</ele>
        <time>2025-10-19T11:23:12Z</time>
      </trkpt>
      <trkpt lat="43.21024" lon="5.48269">
        <ele>219.2</ele>
        <time>2025-10-19T11:23:13Z</time>
      </trkpt>
      <trkpt lat="43.21024" lon="5.48268">
        <ele>219.1</ele>
        <time>2025-10-19T11:23:14Z</time>
      </trkpt>
      <trkpt lat="43.21024" lon="5.48266">
        <ele>219.1</ele>
        <time>2025-10-19T11:23:15Z</time>
      </trkpt>
      <trkpt lat="43.21023" lon="5.48265">
        <ele>219</ele>
        <time>2025-10-19T11:23:16Z</time>
      </trkpt>
      <trkpt lat="43.21023" lon="5.48264">
        <ele>219</ele>
        <time>2025-10-19T11:23:17Z</time>
      </trkpt>
      <trkpt lat="43.21023" lon="5.48262">
        <ele>218.9</ele>
        <time>2025-10-19T11:23:18Z</time>
      </trkpt>
      <trkpt lat="43.21023" lon="5.48261">
        <ele>218.9</ele>
        <time>2025-10-19T11:23:19Z</time>
      </trkpt>
      <trkpt lat="43.21023" lon="5.48259">
        <ele>218.7</ele>
        <time>2025-10-19T11:23:20Z</time>
      </trkpt>
      <trkpt lat="43.21023" lon="5.48258">
        <ele>218.7</ele>
        <time>2025-10-19T11:23:21Z</time>
      </trkpt>
      <trkpt lat="43.21023" lon="5.48256">
        <ele>218.7</ele>
        <time>2025-10-19T11:23:22Z</time>
      </trkpt>
      <trkpt lat="43.21023" lon="5.48255">
        <ele>218.6</ele>
        <time>2025-10-19T11:23:23Z</time>
      </trkpt>
      <trkpt lat="43.21023" lon="5.48253">
        <ele>218.6</ele>
        <time>2025-10-19T11:23:24Z</time>
      </trkpt>
      <trkpt lat="43.21023" lon="5.48251">
        <ele>218.5</ele>
        <time>2025-10-19T11:23:25Z</time>
      </trkpt>
      <trkpt lat="43.21022" lon="5.4825">
        <ele>218.4</ele>
        <time>2025-10-19T11:23:26Z</time>
      </trkpt>
      <trkpt lat="43.21022" lon="5.48248">
        <ele>218.3</ele>
        <time>2025-10-19T11:23:27Z</time>
      </trkpt>
      <trkpt lat="43.21022" lon="5.48247">
        <ele>218.1</ele>
        <time>2025-10-19T11:23:28Z</time>
      </trkpt>
      <trkpt lat="43.21022" lon="5.48246">
        <ele>218</ele>
        <time>2025-10-19T11:23:29Z</time>
      </trkpt>
      <trkpt lat="43.21021" lon="5.48244">
        <ele>217.9</ele>
        <time>2025-10-19T11:23:30Z</time>
      </trkpt>
      <trkpt lat="43.21021" lon="5.48243">
        <ele>217.8</ele>
        <time>2025-10-19T11:23:31Z</time>
      </trkpt>
      <trkpt lat="43.21021" lon="5.48242">
        <ele>217.7</ele>
        <time>2025-10-19T11:23:32Z</time>
      </trkpt>
      <trkpt lat="43.21021" lon="5.48241">
        <ele>217.6</ele>
        <time>2025-10-19T11:23:33Z</time>
      </trkpt>
      <trkpt lat="43.21021" lon="5.48239">
        <ele>217.5</ele>
        <time>2025-10-19T11:23:34Z</time>
      </trkpt>
      <trkpt lat="43.21021" lon="5.48238">
        <ele>217.4</ele>
        <time>2025-10-19T11:23:35Z</time>
      </trkpt>
      <trkpt lat="43.21021" lon="5.48238">
        <ele>217.3</ele>
        <time>2025-10-19T11:23:36Z</time>
      </trkpt>
      <trkpt lat="43.21021" lon="5.48237">
        <ele>217.2</ele>
        <time>2025-10-19T11:23:37Z</time>
      </trkpt>
      <trkpt lat="43.2102" lon="5.48236">
        <ele>217</ele>
        <time>2025-10-19T11:23:38Z</time>
      </trkpt>
      <trkpt lat="43.2102" lon="5.48235">
        <ele>216.8</ele>
        <time>2025-10-19T11:23:39Z</time>
      </trkpt>
      <trkpt lat="43.2102" lon="5.48234">
        <ele>216.7</ele>
        <time>2025-10-19T11:23:40Z</time>
      </trkpt>
      <trkpt lat="43.21019" lon="5.48233">
        <ele>216.6</ele>
        <time>2025-10-19T11:23:41Z</time>
      </trkpt>
      <trkpt lat="43.21019" lon="5.48232">
        <ele>216.5</ele>
        <time>2025-10-19T11:23:42Z</time>
      </trkpt>
      <trkpt lat="43.21019" lon="5.48231">
        <ele>216.3</ele>
        <time>2025-10-19T11:23:43Z</time>
      </trkpt>
      <trkpt lat="43.2102" lon="5.4823">
        <ele>216.2</ele>
        <time>2025-10-19T11:23:44Z</time>
      </trkpt>
      <trkpt lat="43.21019" lon="5.48228">
        <ele>216</ele>
        <time>2025-10-19T11:23:45Z</time>
      </trkpt>
      <trkpt lat="43.21019" lon="5.48227">
        <ele>215.8</ele>
        <time>2025-10-19T11:23:46Z</time>
      </trkpt>
      <trkpt lat="43.21019" lon="5.48225">
        <ele>215.7</ele>
        <time>2025-10-19T11:23:47Z</time>
      </trkpt>
      <trkpt lat="43.21019" lon="5.48224">
        <ele>215.6</ele>
        <time>2025-10-19T11:23:48Z</time>
      </trkpt>
      <trkpt lat="43.21019" lon="5.48223">
        <ele>215.5</ele>
        <time>2025-10-19T11:23:49Z</time>
      </trkpt>
      <trkpt lat="43.21019" lon="5.48221">
        <ele>215.3</ele>
        <time>2025-10-19T11:23:50Z</time>
      </trkpt>
      <trkpt lat="43.21019" lon="5.4822">
        <ele>215.2</ele>
        <time>2025-10-19T11:23:51Z</time>
      </trkpt>
      <trkpt lat="43.21019" lon="5.48218">
        <ele>215.1</ele>
        <time>2025-10-19T11:23:52Z</time>
      </trkpt>
      <trkpt lat="43.21018" lon="5.48216">
        <ele>215.1</ele>
        <time>2025-10-19T11:23:53Z</time>
      </trkpt>
      <trkpt lat="43.21019" lon="5.48215">
        <ele>215</ele>
        <time>2025-10-19T11:23:54Z</time>
      </trkpt>
      <trkpt lat="43.21018" lon="5.48214">
        <ele>215</ele>
        <time>2025-10-19T11:23:55Z</time>
      </trkpt>
      <trkpt lat="43.21018" lon="5.48212">
        <ele>214.9</ele>
        <time>2025-10-19T11:23:56Z</time>
      </trkpt>
      <trkpt lat="43.21018" lon="5.48211">
        <ele>214.9</ele>
        <time>2025-10-19T11:23:57Z</time>
      </trkpt>
      <trkpt lat="43.21018" lon="5.4821">
        <ele>214.9</ele>
        <time>2025-10-19T11:23:58Z</time>
      </trkpt>
      <trkpt lat="43.21018" lon="5.48209">
        <ele>214.8</ele>
        <time>2025-10-19T11:23:59Z</time>
      </trkpt>
      <trkpt lat="43.21018" lon="5.48208">
        <ele>214.7</ele>
        <time>2025-10-19T11:24:00Z</time>
      </trkpt>
      <trkpt lat="43.21019" lon="5.48206">
        <ele>214.7</ele>
        <time>2025-10-19T11:24:01Z</time>
      </trkpt>
      <trkpt lat="43.21019" lon="5.48205">
        <ele>214.7</ele>
        <time>2025-10-19T11:24:02Z</time>
      </trkpt>
      <trkpt lat="43.21019" lon="5.48204">
        <ele>214.8</ele>
        <time>2025-10-19T11:24:03Z</time>
      </trkpt>
      <trkpt lat="43.21019" lon="5.48204">
        <ele>214.8</ele>
        <time>2025-10-19T11:24:04Z</time>
      </trkpt>
      <trkpt lat="43.21019" lon="5.48202">
        <ele>214.7</ele>
        <time>2025-10-19T11:24:05Z</time>
      </trkpt>
      <trkpt lat="43.21019" lon="5.48201">
        <ele>214.6</ele>
        <time>2025-10-19T11:24:06Z</time>
      </trkpt>
      <trkpt lat="43.21019" lon="5.482">
        <ele>214.5</ele>
        <time>2025-10-19T11:24:07Z</time>
      </trkpt>
      <trkpt lat="43.21019" lon="5.48199">
        <ele>214.5</ele>
        <time>2025-10-19T11:24:08Z</time>
      </trkpt>
      <trkpt lat="43.21019" lon="5.48197">
        <ele>214.4</ele>
        <time>2025-10-19T11:24:09Z</time>
      </trkpt>
      <trkpt lat="43.21019" lon="5.48196">
        <ele>214.2</ele>
        <time>2025-10-19T11:24:10Z</time>
      </trkpt>
      <trkpt lat="43.21018" lon="5.48195">
        <ele>214.2</ele>
        <time>2025-10-19T11:24:11Z</time>
      </trkpt>
      <trkpt lat="43.21019" lon="5.48194">
        <ele>214.1</ele>
        <time>2025-10-19T11:24:12Z</time>
      </trkpt>
      <trkpt lat="43.21019" lon="5.48193">
        <ele>214</ele>
        <time>2025-10-19T11:24:13Z</time>
      </trkpt>
      <trkpt lat="43.21019" lon="5.48191">
        <ele>213.9</ele>
        <time>2025-10-19T11:24:14Z</time>
      </trkpt>
      <trkpt lat="43.21019" lon="5.4819">
        <ele>213.8</ele>
        <time>2025-10-19T11:24:15Z</time>
      </trkpt>
      <trkpt lat="43.21018" lon="5.4819">
        <ele>213.7</ele>
        <time>2025-10-19T11:24:16Z</time>
      </trkpt>
      <trkpt lat="43.21018" lon="5.48189">
        <ele>213.6</ele>
        <time>2025-10-19T11:24:17Z</time>
      </trkpt>
      <trkpt lat="43.21018" lon="5.48188">
        <ele>213.4</ele>
        <time>2025-10-19T11:24:18Z</time>
      </trkpt>
      <trkpt lat="43.21017" lon="5.48187">
        <ele>213.3</ele>
        <time>2025-10-19T11:24:19Z</time>
      </trkpt>
      <trkpt lat="43.21017" lon="5.48186">
        <ele>213.2</ele>
        <time>2025-10-19T11:24:20Z</time>
      </trkpt>
      <trkpt lat="43.21017" lon="5.48186">
        <ele>213.1</ele>
        <time>2025-10-19T11:24:21Z</time>
      </trkpt>
      <trkpt lat="43.21017" lon="5.48185">
        <ele>213.1</ele>
        <time>2025-10-19T11:24:22Z</time>
      </trkpt>
      <trkpt lat="43.21016" lon="5.48184">
        <ele>213</ele>
        <time>2025-10-19T11:24:23Z</time>
      </trkpt>
      <trkpt lat="43.21016" lon="5.48183">
        <ele>212.9</ele>
        <time>2025-10-19T11:24:24Z</time>
      </trkpt>
      <trkpt lat="43.21016" lon="5.48182">
        <ele>212.8</ele>
        <time>2025-10-19T11:24:25Z</time>
      </trkpt>
      <trkpt lat="43.21015" lon="5.48181">
        <ele>212.8</ele>
        <time>2025-10-19T11:24:26Z</time>
      </trkpt>
      <trkpt lat="43.21015" lon="5.4818">
        <ele>212.6</ele>
        <time>2025-10-19T11:24:27Z</time>
      </trkpt>
      <trkpt lat="43.21015" lon="5.48179">
        <ele>212.5</ele>
        <time>2025-10-19T11:24:28Z</time>
      </trkpt>
      <trkpt lat="43.21014" lon="5.48178">
        <ele>212.4</ele>
        <time>2025-10-19T11:24:29Z</time>
      </trkpt>
      <trkpt lat="43.21014" lon="5.48177">
        <ele>212.2</ele>
        <time>2025-10-19T11:24:30Z</time>
      </trkpt>
      <trkpt lat="43.21014" lon="5.48175">
        <ele>212</ele>
        <time>2025-10-19T11:24:31Z</time>
      </trkpt>
      <trkpt lat="43.21013" lon="5.48174">
        <ele>211.8</ele>
        <time>2025-10-19T11:24:32Z</time>
      </trkpt>
      <trkpt lat="43.21013" lon="5.48173">
        <ele>211.8</ele>
        <time>2025-10-19T11:24:33Z</time>
      </trkpt>
      <trkpt lat="43.21013" lon="5.48172">
        <ele>211.6</ele>
        <time>2025-10-19T11:24:34Z</time>
      </trkpt>
      <trkpt lat="43.21012" lon="5.48171">
        <ele>211.5</ele>
        <time>2025-10-19T11:24:35Z</time>
      </trkpt>
      <trkpt lat="43.21012" lon="5.48171">
        <ele>211.4</ele>
        <time>2025-10-19T11:24:36Z</time>
      </trkpt>
      <trkpt lat="43.21011" lon="5.48169">
        <ele>211.1</ele>
        <time>2025-10-19T11:24:37Z</time>
      </trkpt>
      <trkpt lat="43.21011" lon="5.48168">
        <ele>210.9</ele>
        <time>2025-10-19T11:24:38Z</time>
      </trkpt>
      <trkpt lat="43.2101" lon="5.48168">
        <ele>210.7</ele>
        <time>2025-10-19T11:24:39Z</time>
      </trkpt>
      <trkpt lat="43.2101" lon="5.48167">
        <ele>210.6</ele>
        <time>2025-10-19T11:24:40Z</time>
      </trkpt>
      <trkpt lat="43.21009" lon="5.48166">
        <ele>210.5</ele>
        <time>2025-10-19T11:24:41Z</time>
      </trkpt>
      <trkpt lat="43.21009" lon="5.48165">
        <ele>210.3</ele>
        <time>2025-10-19T11:24:42Z</time>
      </trkpt>
      <trkpt lat="43.21008" lon="5.48164">
        <ele>210.1</ele>
        <time>2025-10-19T11:24:43Z</time>
      </trkpt>
      <trkpt lat="43.21008" lon="5.48163">
        <ele>210</ele>
        <time>2025-10-19T11:24:44Z</time>
      </trkpt>
      <trkpt lat="43.21008" lon="5.48161">
        <ele>209.8</ele>
        <time>2025-10-19T11:24:45Z</time>
      </trkpt>
      <trkpt lat="43.21007" lon="5.4816">
        <ele>209.6</ele>
        <time>2025-10-19T11:24:46Z</time>
      </trkpt>
      <trkpt lat="43.21007" lon="5.48159">
        <ele>209.4</ele>
        <time>2025-10-19T11:24:47Z</time>
      </trkpt>
      <trkpt lat="43.21007" lon="5.48158">
        <ele>209.4</ele>
        <time>2025-10-19T11:24:48Z</time>
      </trkpt>
      <trkpt lat="43.21006" lon="5.48157">
        <ele>209.3</ele>
        <time>2025-10-19T11:24:49Z</time>
      </trkpt>
      <trkpt lat="43.21006" lon="5.48157">
        <ele>209.2</ele>
        <time>2025-10-19T11:24:50Z</time>
      </trkpt>
      <trkpt lat="43.21006" lon="5.48157">
        <ele>209.2</ele>
        <time>2025-10-19T11:24:51Z</time>
      </trkpt>
      <trkpt lat="43.21006" lon="5.48157">
        <ele>209.1</ele>
        <time>2025-10-19T11:24:52Z</time>
      </trkpt>
      <trkpt lat="43.21006" lon="5.48157">
        <ele>209</ele>
        <time>2025-10-19T11:24:53Z</time>
      </trkpt>
      <trkpt lat="43.21006" lon="5.48156">
        <ele>208.9</ele>
        <time>2025-10-19T11:24:54Z</time>
      </trkpt>
      <trkpt lat="43.21006" lon="5.48156">
        <ele>208.8</ele>
        <time>2025-10-19T11:24:55Z</time>
      </trkpt>
      <trkpt lat="43.21006" lon="5.48156">
        <ele>208.7</ele>
        <time>2025-10-19T11:24:56Z</time>
      </trkpt>
      <trkpt lat="43.21006" lon="5.48156">
        <ele>208.7</ele>
        <time>2025-10-19T11:24:57Z</time>
      </trkpt>
      <trkpt lat="43.21006" lon="5.48155">
        <ele>208.6</ele>
        <time>2025-10-19T11:24:58Z</time>
      </trkpt>
      <trkpt lat="43.21006" lon="5.48155">
        <ele>208.5</ele>
        <time>2025-10-19T11:24:59Z</time>
      </trkpt>
      <trkpt lat="43.21005" lon="5.48154">
        <ele>208.5</ele>
        <time>2025-10-19T11:25:00Z</time>
      </trkpt>
      <trkpt lat="43.21005" lon="5.48153">
        <ele>208.4</ele>
        <time>2025-10-19T11:25:01Z</time>
      </trkpt>
      <trkpt lat="43.21005" lon="5.48151">
        <ele>208.3</ele>
        <time>2025-10-19T11:25:02Z</time>
      </trkpt>
      <trkpt lat="43.21004" lon="5.4815">
        <ele>208.2</ele>
        <time>2025-10-19T11:25:03Z</time>
      </trkpt>
      <trkpt lat="43.21004" lon="5.48148">
        <ele>208.1</ele>
        <time>2025-10-19T11:25:04Z</time>
      </trkpt>
      <trkpt lat="43.21004" lon="5.48146">
        <ele>208</ele>
        <time>2025-10-19T11:25:05Z</time>
      </trkpt>
      <trkpt lat="43.21003" lon="5.48145">
        <ele>207.9</ele>
        <time>2025-10-19T11:25:06Z</time>
      </trkpt>
      <trkpt lat="43.21003" lon="5.48144">
        <ele>208</ele>
        <time>2025-10-19T11:25:07Z</time>
      </trkpt>
      <trkpt lat="43.21003" lon="5.48143">
        <ele>208</ele>
        <time>2025-10-19T11:25:08Z</time>
      </trkpt>
      <trkpt lat="43.21002" lon="5.48141">
        <ele>207.8</ele>
        <time>2025-10-19T11:25:09Z</time>
      </trkpt>
      <trkpt lat="43.21001" lon="5.48139">
        <ele>207.7</ele>
        <time>2025-10-19T11:25:10Z</time>
      </trkpt>
      <trkpt lat="43.21001" lon="5.48138">
        <ele>207.4</ele>
        <time>2025-10-19T11:25:11Z</time>
      </trkpt>
      <trkpt lat="43.21001" lon="5.48136">
        <ele>207.3</ele>
        <time>2025-10-19T11:25:12Z</time>
      </trkpt>
      <trkpt lat="43.21" lon="5.48135">
        <ele>207.1</ele>
        <time>2025-10-19T11:25:13Z</time>
      </trkpt>
      <trkpt lat="43.21" lon="5.48134">
        <ele>207</ele>
        <time>2025-10-19T11:25:14Z</time>
      </trkpt>
      <trkpt lat="43.20999" lon="5.48132">
        <ele>206.7</ele>
        <time>2025-10-19T11:25:15Z</time>
      </trkpt>
      <trkpt lat="43.20999" lon="5.48131">
        <ele>206.6</ele>
        <time>2025-10-19T11:25:16Z</time>
      </trkpt>
      <trkpt lat="43.20998" lon="5.48129">
        <ele>206.4</ele>
        <time>2025-10-19T11:25:17Z</time>
      </trkpt>
      <trkpt lat="43.20998" lon="5.48128">
        <ele>206.3</ele>
        <time>2025-10-19T11:25:18Z</time>
      </trkpt>
      <trkpt lat="43.20997" lon="5.48127">
        <ele>206.1</ele>
        <time>2025-10-19T11:25:19Z</time>
      </trkpt>
      <trkpt lat="43.20996" lon="5.48125">
        <ele>206</ele>
        <time>2025-10-19T11:25:20Z</time>
      </trkpt>
      <trkpt lat="43.20996" lon="5.48125">
        <ele>205.8</ele>
        <time>2025-10-19T11:25:21Z</time>
      </trkpt>
      <trkpt lat="43.20996" lon="5.48124">
        <ele>205.8</ele>
        <time>2025-10-19T11:25:22Z</time>
      </trkpt>
      <trkpt lat="43.20995" lon="5.48123">
        <ele>205.7</ele>
        <time>2025-10-19T11:25:23Z</time>
      </trkpt>
      <trkpt lat="43.20994" lon="5.48122">
        <ele>205.5</ele>
        <time>2025-10-19T11:25:24Z</time>
      </trkpt>
      <trkpt lat="43.20994" lon="5.48121">
        <ele>205.4</ele>
        <time>2025-10-19T11:25:25Z</time>
      </trkpt>
      <trkpt lat="43.20993" lon="5.4812">
        <ele>205.3</ele>
        <time>2025-10-19T11:25:26Z</time>
      </trkpt>
      <trkpt lat="43.20993" lon="5.48119">
        <ele>205.2</ele>
        <time>2025-10-19T11:25:27Z</time>
      </trkpt>
      <trkpt lat="43.20992" lon="5.48118">
        <ele>205</ele>
        <time>2025-10-19T11:25:28Z</time>
      </trkpt>
      <trkpt lat="43.20991" lon="5.48117">
        <ele>204.7</ele>
        <time>2025-10-19T11:25:29Z</time>
      </trkpt>
      <trkpt lat="43.20991" lon="5.48117">
        <ele>204.6</ele>
        <time>2025-10-19T11:25:30Z</time>
      </trkpt>
      <trkpt lat="43.2099" lon="5.48116">
        <ele>204.4</ele>
        <time>2025-10-19T11:25:31Z</time>
      </trkpt>
      <trkpt lat="43.20989" lon="5.48114">
        <ele>204.3</ele>
        <time>2025-10-19T11:25:32Z</time>
      </trkpt>
      <trkpt lat="43.20989" lon="5.48113">
        <ele>204</ele>
        <time>2025-10-19T11:25:33Z</time>
      </trkpt>
      <trkpt lat="43.20988" lon="5.48111">
        <ele>203.8</ele>
        <time>2025-10-19T11:25:34Z</time>
      </trkpt>
      <trkpt lat="43.20987" lon="5.4811">
        <ele>203.6</ele>
        <time>2025-10-19T11:25:35Z</time>
      </trkpt>
      <trkpt lat="43.20987" lon="5.48109">
        <ele>203.4</ele>
        <time>2025-10-19T11:25:36Z</time>
      </trkpt>
      <trkpt lat="43.20986" lon="5.48107">
        <ele>203.2</ele>
        <time>2025-10-19T11:25:37Z</time>
      </trkpt>
      <trkpt lat="43.20986" lon="5.48105">
        <ele>203</ele>
        <time>2025-10-19T11:25:38Z</time>
      </trkpt>
      <trkpt lat="43.20986" lon="5.48104">
        <ele>202.9</ele>
        <time>2025-10-19T11:25:39Z</time>
      </trkpt>
      <trkpt lat="43.20985" lon="5.48103">
        <ele>202.8</ele>
        <time>2025-10-19T11:25:40Z</time>
      </trkpt>
      <trkpt lat="43.20985" lon="5.48102">
        <ele>202.6</ele>
        <time>2025-10-19T11:25:41Z</time>
      </trkpt>
      <trkpt lat="43.20985" lon="5.48101">
        <ele>202.4</ele>
        <time>2025-10-19T11:25:42Z</time>
      </trkpt>
      <trkpt lat="43.20984" lon="5.481">
        <ele>202.3</ele>
        <time>2025-10-19T11:25:43Z</time>
      </trkpt>
      <trkpt lat="43.20984" lon="5.48098">
        <ele>202.4</ele>
        <time>2025-10-19T11:25:44Z</time>
      </trkpt>
      <trkpt lat="43.20984" lon="5.48097">
        <ele>202.4</ele>
        <time>2025-10-19T11:25:45Z</time>
      </trkpt>
      <trkpt lat="43.20983" lon="5.48095">
        <ele>202.3</ele>
        <time>2025-10-19T11:25:46Z</time>
      </trkpt>
      <trkpt lat="43.20983" lon="5.48094">
        <ele>202.1</ele>
        <time>2025-10-19T11:25:47Z</time>
      </trkpt>
      <trkpt lat="43.20982" lon="5.48092">
        <ele>202</ele>
        <time>2025-10-19T11:25:48Z</time>
      </trkpt>
      <trkpt lat="43.20982" lon="5.48091">
        <ele>201.9</ele>
        <time>2025-10-19T11:25:49Z</time>
      </trkpt>
      <trkpt lat="43.20981" lon="5.48091">
        <ele>201.8</ele>
        <time>2025-10-19T11:25:50Z</time>
      </trkpt>
      <trkpt lat="43.20981" lon="5.48091">
        <ele>201.7</ele>
        <time>2025-10-19T11:25:51Z</time>
      </trkpt>
      <trkpt lat="43.2098" lon="5.48092">
        <ele>201.6</ele>
        <time>2025-10-19T11:25:52Z</time>
      </trkpt>
      <trkpt lat="43.20979" lon="5.48093">
        <ele>201.6</ele>
        <time>2025-10-19T11:25:53Z</time>
      </trkpt>
      <trkpt lat="43.20979" lon="5.48093">
        <ele>201.6</ele>
        <time>2025-10-19T11:25:54Z</time>
      </trkpt>
      <trkpt lat="43.20978" lon="5.48094">
        <ele>201.5</ele>
        <time>2025-10-19T11:25:55Z</time>
      </trkpt>
      <trkpt lat="43.20977" lon="5.48095">
        <ele>201.3</ele>
        <time>2025-10-19T11:25:56Z</time>
      </trkpt>
      <trkpt lat="43.20977" lon="5.48096">
        <ele>201.3</ele>
        <time>2025-10-19T11:25:57Z</time>
      </trkpt>
      <trkpt lat="43.20977" lon="5.48097">
        <ele>201.1</ele>
        <time>2025-10-19T11:25:58Z</time>
      </trkpt>
      <trkpt lat="43.20977" lon="5.48097">
        <ele>201</ele>
        <time>2025-10-19T11:25:59Z</time>
      </trkpt>
      <trkpt lat="43.20977" lon="5.48098">
        <ele>201</ele>
        <time>2025-10-19T11:26:00Z</time>
      </trkpt>
      <trkpt lat="43.20977" lon="5.48099">
        <ele>200.9</ele>
        <time>2025-10-19T11:26:01Z</time>
      </trkpt>
      <trkpt lat="43.20977" lon="5.481">
        <ele>200.8</ele>
        <time>2025-10-19T11:26:02Z</time>
      </trkpt>
      <trkpt lat="43.20977" lon="5.48101">
        <ele>200.7</ele>
        <time>2025-10-19T11:26:03Z</time>
      </trkpt>
      <trkpt lat="43.20977" lon="5.48102">
        <ele>200.5</ele>
        <time>2025-10-19T11:26:04Z</time>
      </trkpt>
      <trkpt lat="43.20977" lon="5.48103">
        <ele>200.4</ele>
        <time>2025-10-19T11:26:05Z</time>
      </trkpt>
      <trkpt lat="43.20977" lon="5.48104">
        <ele>200.3</ele>
        <time>2025-10-19T11:26:06Z</time>
      </trkpt>
      <trkpt lat="43.20977" lon="5.48105">
        <ele>200.2</ele>
        <time>2025-10-19T11:26:07Z</time>
      </trkpt>
      <trkpt lat="43.20976" lon="5.48106">
        <ele>200.1</ele>
        <time>2025-10-19T11:26:08Z</time>
      </trkpt>
      <trkpt lat="43.20976" lon="5.48108">
        <ele>200</ele>
        <time>2025-10-19T11:26:09Z</time>
      </trkpt>
      <trkpt lat="43.20976" lon="5.48109">
        <ele>199.9</ele>
        <time>2025-10-19T11:26:10Z</time>
      </trkpt>
      <trkpt lat="43.20976" lon="5.4811">
        <ele>199.7</ele>
        <time>2025-10-19T11:26:11Z</time>
      </trkpt>
      <trkpt lat="43.20976" lon="5.48111">
        <ele>199.6</ele>
        <time>2025-10-19T11:26:12Z</time>
      </trkpt>
      <trkpt lat="43.20976" lon="5.48112">
        <ele>199.5</ele>
        <time>2025-10-19T11:26:13Z</time>
      </trkpt>
      <trkpt lat="43.20975" lon="5.48113">
        <ele>199.4</ele>
        <time>2025-10-19T11:26:14Z</time>
      </trkpt>
      <trkpt lat="43.20975" lon="5.48114">
        <ele>199.3</ele>
        <time>2025-10-19T11:26:15Z</time>
      </trkpt>
      <trkpt lat="43.20975" lon="5.48115">
        <ele>199.2</ele>
        <time>2025-10-19T11:26:16Z</time>
      </trkpt>
      <trkpt lat="43.20975" lon="5.48116">
        <ele>199.1</ele>
        <time>2025-10-19T11:26:17Z</time>
      </trkpt>
      <trkpt lat="43.20974" lon="5.48118">
        <ele>199</ele>
        <time>2025-10-19T11:26:18Z</time>
      </trkpt>
      <trkpt lat="43.20974" lon="5.48119">
        <ele>199</ele>
        <time>2025-10-19T11:26:19Z</time>
      </trkpt>
      <trkpt lat="43.20974" lon="5.4812">
        <ele>199.1</ele>
        <time>2025-10-19T11:26:20Z</time>
      </trkpt>
      <trkpt lat="43.20974" lon="5.48122">
        <ele>199.2</ele>
        <time>2025-10-19T11:26:21Z</time>
      </trkpt>
      <trkpt lat="43.20974" lon="5.48123">
        <ele>199.3</ele>
        <time>2025-10-19T11:26:22Z</time>
      </trkpt>
      <trkpt lat="43.20974" lon="5.48125">
        <ele>199.3</ele>
        <time>2025-10-19T11:26:23Z</time>
      </trkpt>
      <trkpt lat="43.20973" lon="5.48126">
        <ele>199.3</ele>
        <time>2025-10-19T11:26:24Z</time>
      </trkpt>
      <trkpt lat="43.20973" lon="5.48127">
        <ele>199.4</ele>
        <time>2025-10-19T11:26:25Z</time>
      </trkpt>
      <trkpt lat="43.20972" lon="5.48128">
        <ele>199.6</ele>
        <time>2025-10-19T11:26:26Z</time>
      </trkpt>
      <trkpt lat="43.20972" lon="5.4813">
        <ele>199.6</ele>
        <time>2025-10-19T11:26:27Z</time>
      </trkpt>
      <trkpt lat="43.20971" lon="5.48131">
        <ele>199.7</ele>
        <time>2025-10-19T11:26:28Z</time>
      </trkpt>
      <trkpt lat="43.20971" lon="5.48132">
        <ele>199.8</ele>
        <time>2025-10-19T11:26:29Z</time>
      </trkpt>
      <trkpt lat="43.2097" lon="5.48133">
        <ele>199.9</ele>
        <time>2025-10-19T11:26:30Z</time>
      </trkpt>
      <trkpt lat="43.20969" lon="5.48133">
        <ele>200.1</ele>
        <time>2025-10-19T11:26:31Z</time>
      </trkpt>
      <trkpt lat="43.20969" lon="5.48134">
        <ele>200.3</ele>
        <time>2025-10-19T11:26:32Z</time>
      </trkpt>
      <trkpt lat="43.20969" lon="5.48135">
        <ele>200.5</ele>
        <time>2025-10-19T11:26:33Z</time>
      </trkpt>
      <trkpt lat="43.20969" lon="5.48136">
        <ele>200.5</ele>
        <time>2025-10-19T11:26:34Z</time>
      </trkpt>
      <trkpt lat="43.20968" lon="5.48136">
        <ele>200.5</ele>
        <time>2025-10-19T11:26:35Z</time>
      </trkpt>
      <trkpt lat="43.20968" lon="5.48137">
        <ele>200.5</ele>
        <time>2025-10-19T11:26:36Z</time>
      </trkpt>
      <trkpt lat="43.20968" lon="5.48138">
        <ele>200.5</ele>
        <time>2025-10-19T11:26:37Z</time>
      </trkpt>
      <trkpt lat="43.20968" lon="5.48139">
        <ele>200.6</ele>
        <time>2025-10-19T11:26:38Z</time>
      </trkpt>
      <trkpt lat="43.20968" lon="5.48139">
        <ele>200.7</ele>
        <time>2025-10-19T11:26:39Z</time>
      </trkpt>
      <trkpt lat="43.20968" lon="5.48139">
        <ele>200.9</ele>
        <time>2025-10-19T11:26:40Z</time>
      </trkpt>
      <trkpt lat="43.20968" lon="5.48139">
        <ele>201</ele>
        <time>2025-10-19T11:26:41Z</time>
      </trkpt>
      <trkpt lat="43.20967" lon="5.4814">
        <ele>201.2</ele>
        <time>2025-10-19T11:26:42Z</time>
      </trkpt>
      <trkpt lat="43.20967" lon="5.4814">
        <ele>201.3</ele>
        <time>2025-10-19T11:26:43Z</time>
      </trkpt>
      <trkpt lat="43.20968" lon="5.48141">
        <ele>201.4</ele>
        <time>2025-10-19T11:26:44Z</time>
      </trkpt>
      <trkpt lat="43.20968" lon="5.48141">
        <ele>201.5</ele>
        <time>2025-10-19T11:26:45Z</time>
      </trkpt>
      <trkpt lat="43.20967" lon="5.48141">
        <ele>201.6</ele>
        <time>2025-10-19T11:26:46Z</time>
      </trkpt>
      <trkpt lat="43.20967" lon="5.48141">
        <ele>201.8</ele>
        <time>2025-10-19T11:26:47Z</time>
      </trkpt>
      <trkpt lat="43.20967" lon="5.48141">
        <ele>201.9</ele>
        <time>2025-10-19T11:26:48Z</time>
      </trkpt>
      <trkpt lat="43.20968" lon="5.48142">
        <ele>202</ele>
        <time>2025-10-19T11:26:49Z</time>
      </trkpt>
      <trkpt lat="43.20968" lon="5.48143">
        <ele>202.1</ele>
        <time>2025-10-19T11:26:50Z</time>
      </trkpt>
      <trkpt lat="43.20968" lon="5.48143">
        <ele>202.1</ele>
        <time>2025-10-19T11:26:51Z</time>
      </trkpt>
      <trkpt lat="43.20968" lon="5.48143">
        <ele>202.2</ele>
        <time>2025-10-19T11:26:52Z</time>
      </trkpt>
      <trkpt lat="43.20968" lon="5.48143">
        <ele>202.3</ele>
        <time>2025-10-19T11:26:53Z</time>
      </trkpt>
      <trkpt lat="43.20968" lon="5.48144">
        <ele>202.4</ele>
        <time>2025-10-19T11:26:54Z</time>
      </trkpt>
      <trkpt lat="43.20968" lon="5.48145">
        <ele>202.5</ele>
        <time>2025-10-19T11:26:55Z</time>
      </trkpt>
      <trkpt lat="43.20968" lon="5.48146">
        <ele>202.6</ele>
        <time>2025-10-19T11:26:56Z</time>
      </trkpt>
      <trkpt lat="43.20968" lon="5.48146">
        <ele>202.6</ele>
        <time>2025-10-19T11:26:57Z</time>
      </trkpt>
      <trkpt lat="43.20968" lon="5.48147">
        <ele>202.8</ele>
        <time>2025-10-19T11:26:58Z</time>
      </trkpt>
      <trkpt lat="43.20967" lon="5.48148">
        <ele>202.8</ele>
        <time>2025-10-19T11:26:59Z</time>
      </trkpt>
      <trkpt lat="43.20968" lon="5.48149">
        <ele>202.7</ele>
        <time>2025-10-19T11:27:00Z</time>
      </trkpt>
      <trkpt lat="43.20967" lon="5.4815">
        <ele>202.7</ele>
        <time>2025-10-19T11:27:01Z</time>
      </trkpt>
      <trkpt lat="43.20967" lon="5.4815">
        <ele>202.7</ele>
        <time>2025-10-19T11:27:02Z</time>
      </trkpt>
      <trkpt lat="43.20967" lon="5.48151">
        <ele>202.7</ele>
        <time>2025-10-19T11:27:03Z</time>
      </trkpt>
      <trkpt lat="43.20967" lon="5.48152">
        <ele>202.6</ele>
        <time>2025-10-19T11:27:04Z</time>
      </trkpt>
      <trkpt lat="43.20966" lon="5.48154">
        <ele>202.6</ele>
        <time>2025-10-19T11:27:05Z</time>
      </trkpt>
      <trkpt lat="43.20966" lon="5.48154">
        <ele>202.5</ele>
        <time>2025-10-19T11:27:06Z</time>
      </trkpt>
      <trkpt lat="43.20966" lon="5.48155">
        <ele>202.4</ele>
        <time>2025-10-19T11:27:07Z</time>
      </trkpt>
      <trkpt lat="43.20965" lon="5.48157">
        <ele>202.3</ele>
        <time>2025-10-19T11:27:08Z</time>
      </trkpt>
      <trkpt lat="43.20965" lon="5.48158">
        <ele>202.3</ele>
        <time>2025-10-19T11:27:09Z</time>
      </trkpt>
      <trkpt lat="43.20964" lon="5.4816">
        <ele>202.3</ele>
        <time>2025-10-19T11:27:10Z</time>
      </trkpt>
      <trkpt lat="43.20964" lon="5.48161">
        <ele>202.2</ele>
        <time>2025-10-19T11:27:11Z</time>
      </trkpt>
      <trkpt lat="43.20963" lon="5.48162">
        <ele>202.1</ele>
        <time>2025-10-19T11:27:12Z</time>
      </trkpt>
      <trkpt lat="43.20963" lon="5.48163">
        <ele>202.1</ele>
        <time>2025-10-19T11:27:13Z</time>
      </trkpt>
      <trkpt lat="43.20963" lon="5.48164">
        <ele>201.9</ele>
        <time>2025-10-19T11:27:14Z</time>
      </trkpt>
      <trkpt lat="43.20962" lon="5.48164">
        <ele>201.9</ele>
        <time>2025-10-19T11:27:15Z</time>
      </trkpt>
      <trkpt lat="43.20962" lon="5.48165">
        <ele>201.8</ele>
        <time>2025-10-19T11:27:16Z</time>
      </trkpt>
      <trkpt lat="43.20962" lon="5.48165">
        <ele>201.7</ele>
        <time>2025-10-19T11:27:17Z</time>
      </trkpt>
      <trkpt lat="43.20962" lon="5.48166">
        <ele>201.7</ele>
        <time>2025-10-19T11:27:18Z</time>
      </trkpt>
      <trkpt lat="43.20961" lon="5.48167">
        <ele>201.7</ele>
        <time>2025-10-19T11:27:19Z</time>
      </trkpt>
      <trkpt lat="43.20961" lon="5.48168">
        <ele>201.7</ele>
        <time>2025-10-19T11:27:20Z</time>
      </trkpt>
      <trkpt lat="43.20961" lon="5.48169">
        <ele>201.7</ele>
        <time>2025-10-19T11:27:21Z</time>
      </trkpt>
      <trkpt lat="43.20961" lon="5.4817">
        <ele>201.7</ele>
        <time>2025-10-19T11:27:22Z</time>
      </trkpt>
      <trkpt lat="43.2096" lon="5.48171">
        <ele>201.7</ele>
        <time>2025-10-19T11:27:23Z</time>
      </trkpt>
      <trkpt lat="43.2096" lon="5.48172">
        <ele>201.7</ele>
        <time>2025-10-19T11:27:24Z</time>
      </trkpt>
      <trkpt lat="43.20959" lon="5.48173">
        <ele>201.7</ele>
        <time>2025-10-19T11:27:25Z</time>
      </trkpt>
      <trkpt lat="43.20959" lon="5.48174">
        <ele>201.7</ele>
        <time>2025-10-19T11:27:26Z</time>
      </trkpt>
      <trkpt lat="43.20959" lon="5.48175">
        <ele>201.6</ele>
        <time>2025-10-19T11:27:27Z</time>
      </trkpt>
      <trkpt lat="43.20958" lon="5.48176">
        <ele>201.7</ele>
        <time>2025-10-19T11:27:28Z</time>
      </trkpt>
      <trkpt lat="43.20958" lon="5.48177">
        <ele>201.7</ele>
        <time>2025-10-19T11:27:29Z</time>
      </trkpt>
      <trkpt lat="43.20957" lon="5.48177">
        <ele>201.7</ele>
        <time>2025-10-19T11:27:30Z</time>
      </trkpt>
      <trkpt lat="43.20957" lon="5.48178">
        <ele>201.7</ele>
        <time>2025-10-19T11:27:31Z</time>
      </trkpt>
      <trkpt lat="43.20956" lon="5.48178">
        <ele>201.8</ele>
        <time>2025-10-19T11:27:32Z</time>
      </trkpt>
      <trkpt lat="43.20956" lon="5.48179">
        <ele>201.8</ele>
        <time>2025-10-19T11:27:33Z</time>
      </trkpt>
      <trkpt lat="43.20955" lon="5.4818">
        <ele>202</ele>
        <time>2025-10-19T11:27:34Z</time>
      </trkpt>
      <trkpt lat="43.20955" lon="5.48181">
        <ele>202</ele>
        <time>2025-10-19T11:27:35Z</time>
      </trkpt>
      <trkpt lat="43.20954" lon="5.48183">
        <ele>202.1</ele>
        <time>2025-10-19T11:27:36Z</time>
      </trkpt>
      <trkpt lat="43.20954" lon="5.48184">
        <ele>202</ele>
        <time>2025-10-19T11:27:37Z</time>
      </trkpt>
      <trkpt lat="43.20953" lon="5.48186">
        <ele>202</ele>
        <time>2025-10-19T11:27:38Z</time>
      </trkpt>
      <trkpt lat="43.20953" lon="5.48187">
        <ele>201.9</ele>
        <time>2025-10-19T11:27:39Z</time>
      </trkpt>
      <trkpt lat="43.20953" lon="5.48189">
        <ele>201.8</ele>
        <time>2025-10-19T11:27:40Z</time>
      </trkpt>
      <trkpt lat="43.20952" lon="5.4819">
        <ele>201.8</ele>
        <time>2025-10-19T11:27:41Z</time>
      </trkpt>
      <trkpt lat="43.20952" lon="5.48191">
        <ele>201.7</ele>
        <time>2025-10-19T11:27:42Z</time>
      </trkpt>
      <trkpt lat="43.20952" lon="5.48193">
        <ele>201.6</ele>
        <time>2025-10-19T11:27:43Z</time>
      </trkpt>
      <trkpt lat="43.20951" lon="5.48194">
        <ele>201.6</ele>
        <time>2025-10-19T11:27:44Z</time>
      </trkpt>
      <trkpt lat="43.20951" lon="5.48194">
        <ele>201.6</ele>
        <time>2025-10-19T11:27:45Z</time>
      </trkpt>
      <trkpt lat="43.2095" lon="5.48196">
        <ele>201.5</ele>
        <time>2025-10-19T11:27:46Z</time>
      </trkpt>
      <trkpt lat="43.2095" lon="5.48197">
        <ele>201.5</ele>
        <time>2025-10-19T11:27:47Z</time>
      </trkpt>
      <trkpt lat="43.20949" lon="5.48198">
        <ele>201.4</ele>
        <time>2025-10-19T11:27:48Z</time>
      </trkpt>
      <trkpt lat="43.20948" lon="5.48199">
        <ele>201.3</ele>
        <time>2025-10-19T11:27:49Z</time>
      </trkpt>
      <trkpt lat="43.20948" lon="5.48201">
        <ele>201.4</ele>
        <time>2025-10-19T11:27:50Z</time>
      </trkpt>
      <trkpt lat="43.20947" lon="5.48201">
        <ele>201.4</ele>
        <time>2025-10-19T11:27:51Z</time>
      </trkpt>
      <trkpt lat="43.20947" lon="5.48203">
        <ele>201.3</ele>
        <time>2025-10-19T11:27:52Z</time>
      </trkpt>
      <trkpt lat="43.20946" lon="5.48203">
        <ele>201.3</ele>
        <time>2025-10-19T11:27:53Z</time>
      </trkpt>
      <trkpt lat="43.20946" lon="5.48205">
        <ele>201.3</ele>
        <time>2025-10-19T11:27:54Z</time>
      </trkpt>
      <trkpt lat="43.20945" lon="5.48206">
        <ele>201.3</ele>
        <time>2025-10-19T11:27:55Z</time>
      </trkpt>
      <trkpt lat="43.20945" lon="5.48207">
        <ele>201.3</ele>
        <time>2025-10-19T11:27:56Z</time>
      </trkpt>
      <trkpt lat="43.20945" lon="5.48208">
        <ele>201.2</ele>
        <time>2025-10-19T11:27:57Z</time>
      </trkpt>
      <trkpt lat="43.20944" lon="5.4821">
        <ele>201.2</ele>
        <time>2025-10-19T11:27:58Z</time>
      </trkpt>
      <trkpt lat="43.20944" lon="5.48211">
        <ele>201.2</ele>
        <time>2025-10-19T11:27:59Z</time>
      </trkpt>
      <trkpt lat="43.20943" lon="5.48212">
        <ele>201</ele>
        <time>2025-10-19T11:28:00Z</time>
      </trkpt>
      <trkpt lat="43.20943" lon="5.48213">
        <ele>201</ele>
        <time>2025-10-19T11:28:01Z</time>
      </trkpt>
      <trkpt lat="43.20942" lon="5.48215">
        <ele>201.1</ele>
        <time>2025-10-19T11:28:02Z</time>
      </trkpt>
      <trkpt lat="43.20942" lon="5.48216">
        <ele>201</ele>
        <time>2025-10-19T11:28:03Z</time>
      </trkpt>
      <trkpt lat="43.20941" lon="5.48217">
        <ele>201</ele>
        <time>2025-10-19T11:28:04Z</time>
      </trkpt>
      <trkpt lat="43.20941" lon="5.48218">
        <ele>200.9</ele>
        <time>2025-10-19T11:28:05Z</time>
      </trkpt>
      <trkpt lat="43.20941" lon="5.48219">
        <ele>200.9</ele>
        <time>2025-10-19T11:28:06Z</time>
      </trkpt>
      <trkpt lat="43.2094" lon="5.4822">
        <ele>200.8</ele>
        <time>2025-10-19T11:28:07Z</time>
      </trkpt>
      <trkpt lat="43.2094" lon="5.48221">
        <ele>200.7</ele>
        <time>2025-10-19T11:28:08Z</time>
      </trkpt>
      <trkpt lat="43.20939" lon="5.48222">
        <ele>200.7</ele>
        <time>2025-10-19T11:28:09Z</time>
      </trkpt>
      <trkpt lat="43.20939" lon="5.48223">
        <ele>200.6</ele>
        <time>2025-10-19T11:28:10Z</time>
      </trkpt>
      <trkpt lat="43.20938" lon="5.48224">
        <ele>200.4</ele>
        <time>2025-10-19T11:28:11Z</time>
      </trkpt>
      <trkpt lat="43.20938" lon="5.48225">
        <ele>200.2</ele>
        <time>2025-10-19T11:28:12Z</time>
      </trkpt>
      <trkpt lat="43.20937" lon="5.48226">
        <ele>200.1</ele>
        <time>2025-10-19T11:28:13Z</time>
      </trkpt>
      <trkpt lat="43.20936" lon="5.48227">
        <ele>200</ele>
        <time>2025-10-19T11:28:14Z</time>
      </trkpt>
      <trkpt lat="43.20935" lon="5.48228">
        <ele>200</ele>
        <time>2025-10-19T11:28:15Z</time>
      </trkpt>
      <trkpt lat="43.20935" lon="5.48229">
        <ele>199.9</ele>
        <time>2025-10-19T11:28:16Z</time>
      </trkpt>
      <trkpt lat="43.20934" lon="5.4823">
        <ele>199.8</ele>
        <time>2025-10-19T11:28:17Z</time>
      </trkpt>
      <trkpt lat="43.20933" lon="5.4823">
        <ele>199.8</ele>
        <time>2025-10-19T11:28:18Z</time>
      </trkpt>
      <trkpt lat="43.20932" lon="5.48231">
        <ele>199.7</ele>
        <time>2025-10-19T11:28:19Z</time>
      </trkpt>
      <trkpt lat="43.20931" lon="5.48231">
        <ele>199.6</ele>
        <time>2025-10-19T11:28:20Z</time>
      </trkpt>
      <trkpt lat="43.20931" lon="5.48232">
        <ele>199.6</ele>
        <time>2025-10-19T11:28:21Z</time>
      </trkpt>
      <trkpt lat="43.2093" lon="5.48233">
        <ele>199.5</ele>
        <time>2025-10-19T11:28:22Z</time>
      </trkpt>
      <trkpt lat="43.20929" lon="5.48233">
        <ele>199.5</ele>
        <time>2025-10-19T11:28:23Z</time>
      </trkpt>
      <trkpt lat="43.20928" lon="5.48234">
        <ele>199.5</ele>
        <time>2025-10-19T11:28:24Z</time>
      </trkpt>
      <trkpt lat="43.20927" lon="5.48234">
        <ele>199.5</ele>
        <time>2025-10-19T11:28:25Z</time>
      </trkpt>
      <trkpt lat="43.20927" lon="5.48235">
        <ele>199.4</ele>
        <time>2025-10-19T11:28:26Z</time>
      </trkpt>
      <trkpt lat="43.20926" lon="5.48235">
        <ele>199.3</ele>
        <time>2025-10-19T11:28:27Z</time>
      </trkpt>
      <trkpt lat="43.20925" lon="5.48235">
        <ele>199.3</ele>
        <time>2025-10-19T11:28:28Z</time>
      </trkpt>
      <trkpt lat="43.20924" lon="5.48235">
        <ele>199.3</ele>
        <time>2025-10-19T11:28:29Z</time>
      </trkpt>
      <trkpt lat="43.20923" lon="5.48235">
        <ele>199.3</ele>
        <time>2025-10-19T11:28:30Z</time>
      </trkpt>
      <trkpt lat="43.20922" lon="5.48235">
        <ele>199.5</ele>
        <time>2025-10-19T11:28:31Z</time>
      </trkpt>
      <trkpt lat="43.20921" lon="5.48235">
        <ele>199.6</ele>
        <time>2025-10-19T11:28:32Z</time>
      </trkpt>
      <trkpt lat="43.2092" lon="5.48235">
        <ele>199.7</ele>
        <time>2025-10-19T11:28:33Z</time>
      </trkpt>
      <trkpt lat="43.20919" lon="5.48235">
        <ele>199.5</ele>
        <time>2025-10-19T11:28:34Z</time>
      </trkpt>
      <trkpt lat="43.20918" lon="5.48235">
        <ele>199.5</ele>
        <time>2025-10-19T11:28:35Z</time>
      </trkpt>
      <trkpt lat="43.20917" lon="5.48235">
        <ele>199.6</ele>
        <time>2025-10-19T11:28:36Z</time>
      </trkpt>
      <trkpt lat="43.20916" lon="5.48234">
        <ele>199.6</ele>
        <time>2025-10-19T11:28:37Z</time>
      </trkpt>
      <trkpt lat="43.20915" lon="5.48234">
        <ele>199.7</ele>
        <time>2025-10-19T11:28:38Z</time>
      </trkpt>
      <trkpt lat="43.20915" lon="5.48233">
        <ele>199.7</ele>
        <time>2025-10-19T11:28:39Z</time>
      </trkpt>
      <trkpt lat="43.20914" lon="5.48233">
        <ele>199.8</ele>
        <time>2025-10-19T11:28:40Z</time>
      </trkpt>
      <trkpt lat="43.20913" lon="5.48232">
        <ele>199.9</ele>
        <time>2025-10-19T11:28:41Z</time>
      </trkpt>
      <trkpt lat="43.20912" lon="5.48232">
        <ele>200</ele>
        <time>2025-10-19T11:28:42Z</time>
      </trkpt>
      <trkpt lat="43.20912" lon="5.48231">
        <ele>200.1</ele>
        <time>2025-10-19T11:28:43Z</time>
      </trkpt>
      <trkpt lat="43.20911" lon="5.4823">
        <ele>200.3</ele>
        <time>2025-10-19T11:28:44Z</time>
      </trkpt>
      <trkpt lat="43.2091" lon="5.48229">
        <ele>200.3</ele>
        <time>2025-10-19T11:28:45Z</time>
      </trkpt>
      <trkpt lat="43.2091" lon="5.48228">
        <ele>200.4</ele>
        <time>2025-10-19T11:28:46Z</time>
      </trkpt>
      <trkpt lat="43.20909" lon="5.48227">
        <ele>200.4</ele>
        <time>2025-10-19T11:28:47Z</time>
      </trkpt>
      <trkpt lat="43.20909" lon="5.48226">
        <ele>200.4</ele>
        <time>2025-10-19T11:28:48Z</time>
      </trkpt>
      <trkpt lat="43.20908" lon="5.48226">
        <ele>200.4</ele>
        <time>2025-10-19T11:28:49Z</time>
      </trkpt>
      <trkpt lat="43.20908" lon="5.48225">
        <ele>200.4</ele>
        <time>2025-10-19T11:28:50Z</time>
      </trkpt>
      <trkpt lat="43.20908" lon="5.48224">
        <ele>200.4</ele>
        <time>2025-10-19T11:28:51Z</time>
      </trkpt>
      <trkpt lat="43.20907" lon="5.48224">
        <ele>200.5</ele>
        <time>2025-10-19T11:28:52Z</time>
      </trkpt>
      <trkpt lat="43.20906" lon="5.48223">
        <ele>200.5</ele>
        <time>2025-10-19T11:28:53Z</time>
      </trkpt>
      <trkpt lat="43.20906" lon="5.48222">
        <ele>200.5</ele>
        <time>2025-10-19T11:28:54Z</time>
      </trkpt>
      <trkpt lat="43.20905" lon="5.48221">
        <ele>200.6</ele>
        <time>2025-10-19T11:28:55Z</time>
      </trkpt>
      <trkpt lat="43.20905" lon="5.4822">
        <ele>200.7</ele>
        <time>2025-10-19T11:28:56Z</time>
      </trkpt>
      <trkpt lat="43.20905" lon="5.48218">
        <ele>200.8</ele>
        <time>2025-10-19T11:28:57Z</time>
      </trkpt>
      <trkpt lat="43.20905" lon="5.48218">
        <ele>200.9</ele>
        <time>2025-10-19T11:28:58Z</time>
      </trkpt>
      <trkpt lat="43.20904" lon="5.48217">
        <ele>200.9</ele>
        <time>2025-10-19T11:28:59Z</time>
      </trkpt>
      <trkpt lat="43.20904" lon="5.48216">
        <ele>200.9</ele>
        <time>2025-10-19T11:29:00Z</time>
      </trkpt>
      <trkpt lat="43.20903" lon="5.48215">
        <ele>201</ele>
        <time>2025-10-19T11:29:01Z</time>
      </trkpt>
      <trkpt lat="43.20903" lon="5.48214">
        <ele>201.1</ele>
        <time>2025-10-19T11:29:02Z</time>
      </trkpt>
      <trkpt lat="43.20902" lon="5.48213">
        <ele>201.2</ele>
        <time>2025-10-19T11:29:03Z</time>
      </trkpt>
      <trkpt lat="43.20902" lon="5.48211">
        <ele>201.1</ele>
        <time>2025-10-19T11:29:04Z</time>
      </trkpt>
      <trkpt lat="43.20901" lon="5.4821">
        <ele>201.2</ele>
        <time>2025-10-19T11:29:05Z</time>
      </trkpt>
      <trkpt lat="43.20901" lon="5.48209">
        <ele>201.2</ele>
        <time>2025-10-19T11:29:06Z</time>
      </trkpt>
      <trkpt lat="43.209" lon="5.48209">
        <ele>201.2</ele>
        <time>2025-10-19T11:29:07Z</time>
      </trkpt>
      <trkpt lat="43.209" lon="5.48208">
        <ele>201.1</ele>
        <time>2025-10-19T11:29:08Z</time>
      </trkpt>
      <trkpt lat="43.209" lon="5.48207">
        <ele>201</ele>
        <time>2025-10-19T11:29:09Z</time>
      </trkpt>
      <trkpt lat="43.20899" lon="5.48206">
        <ele>200.9</ele>
        <time>2025-10-19T11:29:10Z</time>
      </trkpt>
      <trkpt lat="43.20898" lon="5.48206">
        <ele>200.9</ele>
        <time>2025-10-19T11:29:11Z</time>
      </trkpt>
      <trkpt lat="43.20898" lon="5.48204">
        <ele>200.8</ele>
        <time>2025-10-19T11:29:12Z</time>
      </trkpt>
      <trkpt lat="43.20897" lon="5.48203">
        <ele>200.8</ele>
        <time>2025-10-19T11:29:13Z</time>
      </trkpt>
      <trkpt lat="43.20896" lon="5.48202">
        <ele>200.8</ele>
        <time>2025-10-19T11:29:14Z</time>
      </trkpt>
      <trkpt lat="43.20895" lon="5.48201">
        <ele>200.5</ele>
        <time>2025-10-19T11:29:15Z</time>
      </trkpt>
      <trkpt lat="43.20895" lon="5.48201">
        <ele>200.4</ele>
        <time>2025-10-19T11:29:16Z</time>
      </trkpt>
      <trkpt lat="43.20894" lon="5.482">
        <ele>200.3</ele>
        <time>2025-10-19T11:29:17Z</time>
      </trkpt>
      <trkpt lat="43.20894" lon="5.482">
        <ele>200.1</ele>
        <time>2025-10-19T11:29:18Z</time>
      </trkpt>
      <trkpt lat="43.20893" lon="5.48199">
        <ele>200.1</ele>
        <time>2025-10-19T11:29:19Z</time>
      </trkpt>
      <trkpt lat="43.20893" lon="5.48199">
        <ele>199.9</ele>
        <time>2025-10-19T11:29:20Z</time>
      </trkpt>
      <trkpt lat="43.20892" lon="5.48198">
        <ele>199.8</ele>
        <time>2025-10-19T11:29:21Z</time>
      </trkpt>
      <trkpt lat="43.20892" lon="5.48196">
        <ele>199.7</ele>
        <time>2025-10-19T11:29:22Z</time>
      </trkpt>
      <trkpt lat="43.20892" lon="5.48195">
        <ele>199.6</ele>
        <time>2025-10-19T11:29:23Z</time>
      </trkpt>
      <trkpt lat="43.20891" lon="5.48195">
        <ele>199.5</ele>
        <time>2025-10-19T11:29:24Z</time>
      </trkpt>
      <trkpt lat="43.2089" lon="5.48194">
        <ele>199.4</ele>
        <time>2025-10-19T11:29:25Z</time>
      </trkpt>
      <trkpt lat="43.20889" lon="5.48193">
        <ele>199.2</ele>
        <time>2025-10-19T11:29:26Z</time>
      </trkpt>
      <trkpt lat="43.20888" lon="5.48193">
        <ele>199.1</ele>
        <time>2025-10-19T11:29:27Z</time>
      </trkpt>
      <trkpt lat="43.20887" lon="5.48192">
        <ele>199.1</ele>
        <time>2025-10-19T11:29:28Z</time>
      </trkpt>
      <trkpt lat="43.20887" lon="5.48191">
        <ele>198.9</ele>
        <time>2025-10-19T11:29:29Z</time>
      </trkpt>
      <trkpt lat="43.20886" lon="5.4819">
        <ele>198.8</ele>
        <time>2025-10-19T11:29:30Z</time>
      </trkpt>
      <trkpt lat="43.20886" lon="5.48189">
        <ele>198.6</ele>
        <time>2025-10-19T11:29:31Z</time>
      </trkpt>
      <trkpt lat="43.20885" lon="5.48188">
        <ele>198.5</ele>
        <time>2025-10-19T11:29:32Z</time>
      </trkpt>
      <trkpt lat="43.20884" lon="5.48187">
        <ele>198.3</ele>
        <time>2025-10-19T11:29:33Z</time>
      </trkpt>
      <trkpt lat="43.20884" lon="5.48186">
        <ele>198.1</ele>
        <time>2025-10-19T11:29:34Z</time>
      </trkpt>
      <trkpt lat="43.20884" lon="5.48185">
        <ele>197.9</ele>
        <time>2025-10-19T11:29:35Z</time>
      </trkpt>
      <trkpt lat="43.20883" lon="5.48184">
        <ele>197.8</ele>
        <time>2025-10-19T11:29:36Z</time>
      </trkpt>
      <trkpt lat="43.20883" lon="5.48183">
        <ele>197.6</ele>
        <time>2025-10-19T11:29:37Z</time>
      </trkpt>
      <trkpt lat="43.20882" lon="5.48182">
        <ele>197.5</ele>
        <time>2025-10-19T11:29:38Z</time>
      </trkpt>
      <trkpt lat="43.20881" lon="5.48181">
        <ele>197.4</ele>
        <time>2025-10-19T11:29:39Z</time>
      </trkpt>
      <trkpt lat="43.20881" lon="5.4818">
        <ele>197.3</ele>
        <time>2025-10-19T11:29:40Z</time>
      </trkpt>
      <trkpt lat="43.2088" lon="5.48179">
        <ele>197.2</ele>
        <time>2025-10-19T11:29:41Z</time>
      </trkpt>
      <trkpt lat="43.2088" lon="5.48178">
        <ele>197.1</ele>
        <time>2025-10-19T11:29:42Z</time>
      </trkpt>
      <trkpt lat="43.20879" lon="5.48177">
        <ele>196.9</ele>
        <time>2025-10-19T11:29:43Z</time>
      </trkpt>
      <trkpt lat="43.20878" lon="5.48176">
        <ele>196.8</ele>
        <time>2025-10-19T11:29:44Z</time>
      </trkpt>
      <trkpt lat="43.20878" lon="5.48175">
        <ele>196.7</ele>
        <time>2025-10-19T11:29:45Z</time>
      </trkpt>
      <trkpt lat="43.20878" lon="5.48174">
        <ele>196.6</ele>
        <time>2025-10-19T11:29:46Z</time>
      </trkpt>
      <trkpt lat="43.20877" lon="5.48173">
        <ele>196.6</ele>
        <time>2025-10-19T11:29:47Z</time>
      </trkpt>
      <trkpt lat="43.20877" lon="5.48172">
        <ele>196.7</ele>
        <time>2025-10-19T11:29:48Z</time>
      </trkpt>
      <trkpt lat="43.20876" lon="5.48171">
        <ele>196.7</ele>
        <time>2025-10-19T11:29:49Z</time>
      </trkpt>
      <trkpt lat="43.20876" lon="5.4817">
        <ele>196.7</ele>
        <time>2025-10-19T11:29:50Z</time>
      </trkpt>
      <trkpt lat="43.20875" lon="5.48169">
        <ele>196.7</ele>
        <time>2025-10-19T11:29:51Z</time>
      </trkpt>
      <trkpt lat="43.20875" lon="5.48168">
        <ele>196.8</ele>
        <time>2025-10-19T11:29:52Z</time>
      </trkpt>
      <trkpt lat="43.20874" lon="5.48167">
        <ele>196.8</ele>
        <time>2025-10-19T11:29:53Z</time>
      </trkpt>
      <trkpt lat="43.20874" lon="5.48166">
        <ele>196.9</ele>
        <time>2025-10-19T11:29:54Z</time>
      </trkpt>
      <trkpt lat="43.20874" lon="5.48165">
        <ele>197.1</ele>
        <time>2025-10-19T11:29:55Z</time>
      </trkpt>
      <trkpt lat="43.20873" lon="5.48163">
        <ele>197.2</ele>
        <time>2025-10-19T11:29:56Z</time>
      </trkpt>
      <trkpt lat="43.20873" lon="5.48162">
        <ele>197.2</ele>
        <time>2025-10-19T11:29:57Z</time>
      </trkpt>
      <trkpt lat="43.20872" lon="5.48161">
        <ele>197.2</ele>
        <time>2025-10-19T11:29:58Z</time>
      </trkpt>
      <trkpt lat="43.20871" lon="5.4816">
        <ele>197.2</ele>
        <time>2025-10-19T11:29:59Z</time>
      </trkpt>
      <trkpt lat="43.2087" lon="5.48158">
        <ele>197.3</ele>
        <time>2025-10-19T11:30:00Z</time>
      </trkpt>
      <trkpt lat="43.20869" lon="5.48158">
        <ele>197.4</ele>
        <time>2025-10-19T11:30:01Z</time>
      </trkpt>
      <trkpt lat="43.20868" lon="5.48157">
        <ele>197.3</ele>
        <time>2025-10-19T11:30:02Z</time>
      </trkpt>
      <trkpt lat="43.20867" lon="5.48156">
        <ele>197.3</ele>
        <time>2025-10-19T11:30:03Z</time>
      </trkpt>
      <trkpt lat="43.20867" lon="5.48155">
        <ele>197.3</ele>
        <time>2025-10-19T11:30:04Z</time>
      </trkpt>
      <trkpt lat="43.20867" lon="5.48154">
        <ele>197.4</ele>
        <time>2025-10-19T11:30:05Z</time>
      </trkpt>
      <trkpt lat="43.20866" lon="5.48153">
        <ele>197.3</ele>
        <time>2025-10-19T11:30:06Z</time>
      </trkpt>
      <trkpt lat="43.20865" lon="5.48153">
        <ele>197.2</ele>
        <time>2025-10-19T11:30:07Z</time>
      </trkpt>
      <trkpt lat="43.20864" lon="5.48152">
        <ele>197.2</ele>
        <time>2025-10-19T11:30:08Z</time>
      </trkpt>
      <trkpt lat="43.20863" lon="5.48151">
        <ele>197</ele>
        <time>2025-10-19T11:30:09Z</time>
      </trkpt>
      <trkpt lat="43.20863" lon="5.48151">
        <ele>196.9</ele>
        <time>2025-10-19T11:30:10Z</time>
      </trkpt>
      <trkpt lat="43.20862" lon="5.4815">
        <ele>196.9</ele>
        <time>2025-10-19T11:30:11Z</time>
      </trkpt>
      <trkpt lat="43.20861" lon="5.48149">
        <ele>196.7</ele>
        <time>2025-10-19T11:30:12Z</time>
      </trkpt>
      <trkpt lat="43.2086" lon="5.48149">
        <ele>196.6</ele>
        <time>2025-10-19T11:30:13Z</time>
      </trkpt>
      <trkpt lat="43.20859" lon="5.48148">
        <ele>196.6</ele>
        <time>2025-10-19T11:30:14Z</time>
      </trkpt>
      <trkpt lat="43.20858" lon="5.48147">
        <ele>196.6</ele>
        <time>2025-10-19T11:30:15Z</time>
      </trkpt>
      <trkpt lat="43.20857" lon="5.48146">
        <ele>196.6</ele>
        <time>2025-10-19T11:30:16Z</time>
      </trkpt>
      <trkpt lat="43.20857" lon="5.48146">
        <ele>196.5</ele>
        <time>2025-10-19T11:30:17Z</time>
      </trkpt>
      <trkpt lat="43.20856" lon="5.48145">
        <ele>196.4</ele>
        <time>2025-10-19T11:30:18Z</time>
      </trkpt>
      <trkpt lat="43.20855" lon="5.48144">
        <ele>196.4</ele>
        <time>2025-10-19T11:30:19Z</time>
      </trkpt>
      <trkpt lat="43.20854" lon="5.48143">
        <ele>196.5</ele>
        <time>2025-10-19T11:30:20Z</time>
      </trkpt>
      <trkpt lat="43.20853" lon="5.48143">
        <ele>196.4</ele>
        <time>2025-10-19T11:30:21Z</time>
      </trkpt>
      <trkpt lat="43.20853" lon="5.48142">
        <ele>196.4</ele>
        <time>2025-10-19T11:30:22Z</time>
      </trkpt>
      <trkpt lat="43.20853" lon="5.48142">
        <ele>196.4</ele>
        <time>2025-10-19T11:30:23Z</time>
      </trkpt>
      <trkpt lat="43.20851" lon="5.48141">
        <ele>196.4</ele>
        <time>2025-10-19T11:30:24Z</time>
      </trkpt>
      <trkpt lat="43.20851" lon="5.48141">
        <ele>196.4</ele>
        <time>2025-10-19T11:30:25Z</time>
      </trkpt>
      <trkpt lat="43.2085" lon="5.4814">
        <ele>196.2</ele>
        <time>2025-10-19T11:30:26Z</time>
      </trkpt>
      <trkpt lat="43.20849" lon="5.48139">
        <ele>196.1</ele>
        <time>2025-10-19T11:30:27Z</time>
      </trkpt>
      <trkpt lat="43.20848" lon="5.48138">
        <ele>196</ele>
        <time>2025-10-19T11:30:28Z</time>
      </trkpt>
      <trkpt lat="43.20847" lon="5.48137">
        <ele>196</ele>
        <time>2025-10-19T11:30:29Z</time>
      </trkpt>
      <trkpt lat="43.20846" lon="5.48137">
        <ele>196</ele>
        <time>2025-10-19T11:30:30Z</time>
      </trkpt>
      <trkpt lat="43.20845" lon="5.48136">
        <ele>195.9</ele>
        <time>2025-10-19T11:30:31Z</time>
      </trkpt>
      <trkpt lat="43.20844" lon="5.48135">
        <ele>195.9</ele>
        <time>2025-10-19T11:30:32Z</time>
      </trkpt>
      <trkpt lat="43.20844" lon="5.48134">
        <ele>195.8</ele>
        <time>2025-10-19T11:30:33Z</time>
      </trkpt>
      <trkpt lat="43.20843" lon="5.48133">
        <ele>195.8</ele>
        <time>2025-10-19T11:30:34Z</time>
      </trkpt>
      <trkpt lat="43.20842" lon="5.48132">
        <ele>195.7</ele>
        <time>2025-10-19T11:30:35Z</time>
      </trkpt>
      <trkpt lat="43.20841" lon="5.48131">
        <ele>195.7</ele>
        <time>2025-10-19T11:30:36Z</time>
      </trkpt>
      <trkpt lat="43.2084" lon="5.4813">
        <ele>195.7</ele>
        <time>2025-10-19T11:30:37Z</time>
      </trkpt>
      <trkpt lat="43.20839" lon="5.48129">
        <ele>195.6</ele>
        <time>2025-10-19T11:30:38Z</time>
      </trkpt>
      <trkpt lat="43.20839" lon="5.48128">
        <ele>195.6</ele>
        <time>2025-10-19T11:30:39Z</time>
      </trkpt>
      <trkpt lat="43.20838" lon="5.48127">
        <ele>195.6</ele>
        <time>2025-10-19T11:30:40Z</time>
      </trkpt>
      <trkpt lat="43.20837" lon="5.48126">
        <ele>195.7</ele>
        <time>2025-10-19T11:30:41Z</time>
      </trkpt>
      <trkpt lat="43.20837" lon="5.48125">
        <ele>195.7</ele>
        <time>2025-10-19T11:30:42Z</time>
      </trkpt>
      <trkpt lat="43.20836" lon="5.48124">
        <ele>195.7</ele>
        <time>2025-10-19T11:30:43Z</time>
      </trkpt>
      <trkpt lat="43.20835" lon="5.48123">
        <ele>195.9</ele>
        <time>2025-10-19T11:30:44Z</time>
      </trkpt>
      <trkpt lat="43.20834" lon="5.48122">
        <ele>195.9</ele>
        <time>2025-10-19T11:30:45Z</time>
      </trkpt>
      <trkpt lat="43.20834" lon="5.48121">
        <ele>195.9</ele>
        <time>2025-10-19T11:30:46Z</time>
      </trkpt>
      <trkpt lat="43.20833" lon="5.4812">
        <ele>195.9</ele>
        <time>2025-10-19T11:30:47Z</time>
      </trkpt>
      <trkpt lat="43.20832" lon="5.48119">
        <ele>195.8</ele>
        <time>2025-10-19T11:30:48Z</time>
      </trkpt>
      <trkpt lat="43.20831" lon="5.48118">
        <ele>195.8</ele>
        <time>2025-10-19T11:30:49Z</time>
      </trkpt>
      <trkpt lat="43.2083" lon="5.48117">
        <ele>195.8</ele>
        <time>2025-10-19T11:30:50Z</time>
      </trkpt>
      <trkpt lat="43.2083" lon="5.48116">
        <ele>195.8</ele>
        <time>2025-10-19T11:30:51Z</time>
      </trkpt>
      <trkpt lat="43.20829" lon="5.48115">
        <ele>195.9</ele>
        <time>2025-10-19T11:30:52Z</time>
      </trkpt>
      <trkpt lat="43.20828" lon="5.48115">
        <ele>195.9</ele>
        <time>2025-10-19T11:30:53Z</time>
      </trkpt>
      <trkpt lat="43.20828" lon="5.48114">
        <ele>195.9</ele>
        <time>2025-10-19T11:30:54Z</time>
      </trkpt>
      <trkpt lat="43.20827" lon="5.48113">
        <ele>195.9</ele>
        <time>2025-10-19T11:30:55Z</time>
      </trkpt>
      <trkpt lat="43.20827" lon="5.48112">
        <ele>196</ele>
        <time>2025-10-19T11:30:56Z</time>
      </trkpt>
      <trkpt lat="43.20826" lon="5.48111">
        <ele>196.1</ele>
        <time>2025-10-19T11:30:57Z</time>
      </trkpt>
      <trkpt lat="43.20826" lon="5.4811">
        <ele>196.2</ele>
        <time>2025-10-19T11:30:58Z</time>
      </trkpt>
      <trkpt lat="43.20826" lon="5.48109">
        <ele>196.2</ele>
        <time>2025-10-19T11:30:59Z</time>
      </trkpt>
      <trkpt lat="43.20825" lon="5.48108">
        <ele>196.2</ele>
        <time>2025-10-19T11:31:00Z</time>
      </trkpt>
      <trkpt lat="43.20825" lon="5.48107">
        <ele>196.2</ele>
        <time>2025-10-19T11:31:01Z</time>
      </trkpt>
      <trkpt lat="43.20825" lon="5.48106">
        <ele>196.2</ele>
        <time>2025-10-19T11:31:02Z</time>
      </trkpt>
      <trkpt lat="43.20824" lon="5.48106">
        <ele>196.2</ele>
        <time>2025-10-19T11:31:03Z</time>
      </trkpt>
      <trkpt lat="43.20824" lon="5.48105">
        <ele>196.1</ele>
        <time>2025-10-19T11:31:04Z</time>
      </trkpt>
      <trkpt lat="43.20824" lon="5.48104">
        <ele>196.1</ele>
        <time>2025-10-19T11:31:05Z</time>
      </trkpt>
      <trkpt lat="43.20823" lon="5.48103">
        <ele>196</ele>
        <time>2025-10-19T11:31:06Z</time>
      </trkpt>
      <trkpt lat="43.20823" lon="5.48102">
        <ele>195.9</ele>
        <time>2025-10-19T11:31:07Z</time>
      </trkpt>
      <trkpt lat="43.20822" lon="5.481">
        <ele>195.8</ele>
        <time>2025-10-19T11:31:08Z</time>
      </trkpt>
      <trkpt lat="43.20822" lon="5.48099">
        <ele>195.6</ele>
        <time>2025-10-19T11:31:09Z</time>
      </trkpt>
      <trkpt lat="43.20822" lon="5.48098">
        <ele>195.5</ele>
        <time>2025-10-19T11:31:10Z</time>
      </trkpt>
      <trkpt lat="43.20822" lon="5.48096">
        <ele>195.4</ele>
        <time>2025-10-19T11:31:11Z</time>
      </trkpt>
      <trkpt lat="43.20822" lon="5.48096">
        <ele>195.2</ele>
        <time>2025-10-19T11:31:12Z</time>
      </trkpt>
      <trkpt lat="43.20821" lon="5.48094">
        <ele>195</ele>
        <time>2025-10-19T11:31:13Z</time>
      </trkpt>
      <trkpt lat="43.20821" lon="5.48093">
        <ele>194.8</ele>
        <time>2025-10-19T11:31:14Z</time>
      </trkpt>
      <trkpt lat="43.20821" lon="5.48093">
        <ele>194.7</ele>
        <time>2025-10-19T11:31:15Z</time>
      </trkpt>
      <trkpt lat="43.20821" lon="5.48092">
        <ele>194.5</ele>
        <time>2025-10-19T11:31:16Z</time>
      </trkpt>
      <trkpt lat="43.20821" lon="5.48091">
        <ele>194.3</ele>
        <time>2025-10-19T11:31:17Z</time>
      </trkpt>
      <trkpt lat="43.2082" lon="5.48091">
        <ele>194.3</ele>
        <time>2025-10-19T11:31:18Z</time>
      </trkpt>
      <trkpt lat="43.2082" lon="5.4809">
        <ele>194.2</ele>
        <time>2025-10-19T11:31:19Z</time>
      </trkpt>
      <trkpt lat="43.2082" lon="5.48089">
        <ele>194</ele>
        <time>2025-10-19T11:31:20Z</time>
      </trkpt>
      <trkpt lat="43.2082" lon="5.48088">
        <ele>193.8</ele>
        <time>2025-10-19T11:31:21Z</time>
      </trkpt>
      <trkpt lat="43.2082" lon="5.48087">
        <ele>193.5</ele>
        <time>2025-10-19T11:31:22Z</time>
      </trkpt>
      <trkpt lat="43.2082" lon="5.48086">
        <ele>193.2</ele>
        <time>2025-10-19T11:31:23Z</time>
      </trkpt>
      <trkpt lat="43.2082" lon="5.48086">
        <ele>193</ele>
        <time>2025-10-19T11:31:24Z</time>
      </trkpt>
      <trkpt lat="43.20821" lon="5.48085">
        <ele>192.9</ele>
        <time>2025-10-19T11:31:25Z</time>
      </trkpt>
      <trkpt lat="43.2082" lon="5.48083">
        <ele>192.7</ele>
        <time>2025-10-19T11:31:26Z</time>
      </trkpt>
      <trkpt lat="43.2082" lon="5.48082">
        <ele>192.6</ele>
        <time>2025-10-19T11:31:27Z</time>
      </trkpt>
      <trkpt lat="43.2082" lon="5.48081">
        <ele>192.5</ele>
        <time>2025-10-19T11:31:28Z</time>
      </trkpt>
      <trkpt lat="43.2082" lon="5.48081">
        <ele>192.4</ele>
        <time>2025-10-19T11:31:29Z</time>
      </trkpt>
      <trkpt lat="43.20819" lon="5.4808">
        <ele>192.3</ele>
        <time>2025-10-19T11:31:30Z</time>
      </trkpt>
      <trkpt lat="43.20819" lon="5.48078">
        <ele>192.2</ele>
        <time>2025-10-19T11:31:31Z</time>
      </trkpt>
      <trkpt lat="43.20819" lon="5.48076">
        <ele>192.1</ele>
        <time>2025-10-19T11:31:32Z</time>
      </trkpt>
      <trkpt lat="43.20819" lon="5.48075">
        <ele>191.9</ele>
        <time>2025-10-19T11:31:33Z</time>
      </trkpt>
      <trkpt lat="43.20819" lon="5.48074">
        <ele>191.8</ele>
        <time>2025-10-19T11:31:34Z</time>
      </trkpt>
      <trkpt lat="43.20819" lon="5.48073">
        <ele>191.7</ele>
        <time>2025-10-19T11:31:35Z</time>
      </trkpt>
      <trkpt lat="43.20819" lon="5.48072">
        <ele>191.6</ele>
        <time>2025-10-19T11:31:36Z</time>
      </trkpt>
      <trkpt lat="43.20819" lon="5.48072">
        <ele>191.4</ele>
        <time>2025-10-19T11:31:37Z</time>
      </trkpt>
      <trkpt lat="43.20819" lon="5.48072">
        <ele>191.2</ele>
        <time>2025-10-19T11:31:38Z</time>
      </trkpt>
      <trkpt lat="43.20818" lon="5.48071">
        <ele>191</ele>
        <time>2025-10-19T11:31:39Z</time>
      </trkpt>
      <trkpt lat="43.20819" lon="5.48069">
        <ele>191</ele>
        <time>2025-10-19T11:31:40Z</time>
      </trkpt>
      <trkpt lat="43.20818" lon="5.48068">
        <ele>191</ele>
        <time>2025-10-19T11:31:41Z</time>
      </trkpt>
      <trkpt lat="43.20818" lon="5.48067">
        <ele>190.9</ele>
        <time>2025-10-19T11:31:42Z</time>
      </trkpt>
      <trkpt lat="43.20818" lon="5.48066">
        <ele>190.8</ele>
        <time>2025-10-19T11:31:43Z</time>
      </trkpt>
      <trkpt lat="43.20817" lon="5.48065">
        <ele>190.6</ele>
        <time>2025-10-19T11:31:44Z</time>
      </trkpt>
      <trkpt lat="43.20817" lon="5.48064">
        <ele>190.4</ele>
        <time>2025-10-19T11:31:45Z</time>
      </trkpt>
      <trkpt lat="43.20817" lon="5.48063">
        <ele>190.3</ele>
        <time>2025-10-19T11:31:46Z</time>
      </trkpt>
      <trkpt lat="43.20817" lon="5.48061">
        <ele>190.2</ele>
        <time>2025-10-19T11:31:47Z</time>
      </trkpt>
      <trkpt lat="43.20816" lon="5.4806">
        <ele>190</ele>
        <time>2025-10-19T11:31:48Z</time>
      </trkpt>
      <trkpt lat="43.20816" lon="5.48059">
        <ele>189.9</ele>
        <time>2025-10-19T11:31:49Z</time>
      </trkpt>
      <trkpt lat="43.20816" lon="5.48058">
        <ele>189.8</ele>
        <time>2025-10-19T11:31:50Z</time>
      </trkpt>
      <trkpt lat="43.20816" lon="5.48057">
        <ele>189.7</ele>
        <time>2025-10-19T11:31:51Z</time>
      </trkpt>
      <trkpt lat="43.20815" lon="5.48056">
        <ele>189.5</ele>
        <time>2025-10-19T11:31:52Z</time>
      </trkpt>
      <trkpt lat="43.20815" lon="5.48055">
        <ele>189.4</ele>
        <time>2025-10-19T11:31:53Z</time>
      </trkpt>
      <trkpt lat="43.20815" lon="5.48054">
        <ele>189.3</ele>
        <time>2025-10-19T11:31:54Z</time>
      </trkpt>
      <trkpt lat="43.20814" lon="5.48053">
        <ele>189.1</ele>
        <time>2025-10-19T11:31:55Z</time>
      </trkpt>
      <trkpt lat="43.20814" lon="5.48053">
        <ele>189</ele>
        <time>2025-10-19T11:31:56Z</time>
      </trkpt>
      <trkpt lat="43.20813" lon="5.48052">
        <ele>188.8</ele>
        <time>2025-10-19T11:31:57Z</time>
      </trkpt>
      <trkpt lat="43.20813" lon="5.48051">
        <ele>188.6</ele>
        <time>2025-10-19T11:31:58Z</time>
      </trkpt>
      <trkpt lat="43.20812" lon="5.48051">
        <ele>188.4</ele>
        <time>2025-10-19T11:31:59Z</time>
      </trkpt>
      <trkpt lat="43.20812" lon="5.4805">
        <ele>188.2</ele>
        <time>2025-10-19T11:32:00Z</time>
      </trkpt>
      <trkpt lat="43.20811" lon="5.48049">
        <ele>188</ele>
        <time>2025-10-19T11:32:01Z</time>
      </trkpt>
      <trkpt lat="43.20811" lon="5.48048">
        <ele>187.8</ele>
        <time>2025-10-19T11:32:02Z</time>
      </trkpt>
      <trkpt lat="43.2081" lon="5.48047">
        <ele>187.6</ele>
        <time>2025-10-19T11:32:03Z</time>
      </trkpt>
      <trkpt lat="43.20809" lon="5.48047">
        <ele>187.5</ele>
        <time>2025-10-19T11:32:04Z</time>
      </trkpt>
      <trkpt lat="43.20809" lon="5.48046">
        <ele>187.4</ele>
        <time>2025-10-19T11:32:05Z</time>
      </trkpt>
      <trkpt lat="43.20808" lon="5.48046">
        <ele>187.3</ele>
        <time>2025-10-19T11:32:06Z</time>
      </trkpt>
      <trkpt lat="43.20807" lon="5.48045">
        <ele>187.1</ele>
        <time>2025-10-19T11:32:07Z</time>
      </trkpt>
      <trkpt lat="43.20807" lon="5.48044">
        <ele>187.1</ele>
        <time>2025-10-19T11:32:08Z</time>
      </trkpt>
      <trkpt lat="43.20806" lon="5.48043">
        <ele>187</ele>
        <time>2025-10-19T11:32:09Z</time>
      </trkpt>
      <trkpt lat="43.20805" lon="5.48043">
        <ele>186.8</ele>
        <time>2025-10-19T11:32:10Z</time>
      </trkpt>
      <trkpt lat="43.20804" lon="5.48043">
        <ele>186.6</ele>
        <time>2025-10-19T11:32:11Z</time>
      </trkpt>
      <trkpt lat="43.20803" lon="5.48042">
        <ele>186.4</ele>
        <time>2025-10-19T11:32:12Z</time>
      </trkpt>
      <trkpt lat="43.20803" lon="5.48041">
        <ele>186.1</ele>
        <time>2025-10-19T11:32:13Z</time>
      </trkpt>
      <trkpt lat="43.20802" lon="5.4804">
        <ele>185.9</ele>
        <time>2025-10-19T11:32:14Z</time>
      </trkpt>
      <trkpt lat="43.20801" lon="5.4804">
        <ele>185.8</ele>
        <time>2025-10-19T11:32:15Z</time>
      </trkpt>
      <trkpt lat="43.20801" lon="5.48039">
        <ele>185.7</ele>
        <time>2025-10-19T11:32:16Z</time>
      </trkpt>
      <trkpt lat="43.208" lon="5.48038">
        <ele>185.6</ele>
        <time>2025-10-19T11:32:17Z</time>
      </trkpt>
      <trkpt lat="43.20799" lon="5.48038">
        <ele>185.5</ele>
        <time>2025-10-19T11:32:18Z</time>
      </trkpt>
      <trkpt lat="43.20799" lon="5.48038">
        <ele>185.4</ele>
        <time>2025-10-19T11:32:19Z</time>
      </trkpt>
      <trkpt lat="43.20798" lon="5.48037">
        <ele>185.3</ele>
        <time>2025-10-19T11:32:20Z</time>
      </trkpt>
      <trkpt lat="43.20798" lon="5.48037">
        <ele>185.2</ele>
        <time>2025-10-19T11:32:21Z</time>
      </trkpt>
      <trkpt lat="43.20797" lon="5.48036">
        <ele>184.8</ele>
        <time>2025-10-19T11:32:22Z</time>
      </trkpt>
      <trkpt lat="43.20796" lon="5.48036">
        <ele>184.7</ele>
        <time>2025-10-19T11:32:23Z</time>
      </trkpt>
      <trkpt lat="43.20795" lon="5.48035">
        <ele>184.5</ele>
        <time>2025-10-19T11:32:24Z</time>
      </trkpt>
      <trkpt lat="43.20795" lon="5.48036">
        <ele>184.4</ele>
        <time>2025-10-19T11:32:25Z</time>
      </trkpt>
      <trkpt lat="43.20794" lon="5.48036">
        <ele>184.3</ele>
        <time>2025-10-19T11:32:26Z</time>
      </trkpt>
      <trkpt lat="43.20794" lon="5.48036">
        <ele>184.2</ele>
        <time>2025-10-19T11:32:27Z</time>
      </trkpt>
      <trkpt lat="43.20793" lon="5.48036">
        <ele>184.1</ele>
        <time>2025-10-19T11:32:28Z</time>
      </trkpt>
      <trkpt lat="43.20793" lon="5.48037">
        <ele>183.9</ele>
        <time>2025-10-19T11:32:29Z</time>
      </trkpt>
      <trkpt lat="43.20792" lon="5.48038">
        <ele>183.7</ele>
        <time>2025-10-19T11:32:30Z</time>
      </trkpt>
      <trkpt lat="43.20791" lon="5.48039">
        <ele>183.5</ele>
        <time>2025-10-19T11:32:31Z</time>
      </trkpt>
      <trkpt lat="43.20791" lon="5.48039">
        <ele>183.4</ele>
        <time>2025-10-19T11:32:32Z</time>
      </trkpt>
      <trkpt lat="43.20791" lon="5.4804">
        <ele>183.2</ele>
        <time>2025-10-19T11:32:33Z</time>
      </trkpt>
      <trkpt lat="43.20791" lon="5.4804">
        <ele>183.1</ele>
        <time>2025-10-19T11:32:34Z</time>
      </trkpt>
      <trkpt lat="43.20791" lon="5.48041">
        <ele>183</ele>
        <time>2025-10-19T11:32:35Z</time>
      </trkpt>
      <trkpt lat="43.2079" lon="5.48041">
        <ele>182.9</ele>
        <time>2025-10-19T11:32:36Z</time>
      </trkpt>
      <trkpt lat="43.20789" lon="5.48041">
        <ele>182.9</ele>
        <time>2025-10-19T11:32:37Z</time>
      </trkpt>
      <trkpt lat="43.20789" lon="5.48042">
        <ele>182.8</ele>
        <time>2025-10-19T11:32:38Z</time>
      </trkpt>
      <trkpt lat="43.20789" lon="5.48042">
        <ele>182.8</ele>
        <time>2025-10-19T11:32:39Z</time>
      </trkpt>
      <trkpt lat="43.20789" lon="5.48043">
        <ele>182.8</ele>
        <time>2025-10-19T11:32:40Z</time>
      </trkpt>
      <trkpt lat="43.20788" lon="5.48043">
        <ele>183.1</ele>
        <time>2025-10-19T11:32:41Z</time>
      </trkpt>
      <trkpt lat="43.20788" lon="5.48043">
        <ele>183.1</ele>
        <time>2025-10-19T11:32:42Z</time>
      </trkpt>
      <trkpt lat="43.20788" lon="5.48044">
        <ele>183.3</ele>
        <time>2025-10-19T11:32:43Z</time>
      </trkpt>
      <trkpt lat="43.20788" lon="5.48044">
        <ele>183.3</ele>
        <time>2025-10-19T11:32:44Z</time>
      </trkpt>
      <trkpt lat="43.20787" lon="5.48044">
        <ele>183.4</ele>
        <time>2025-10-19T11:32:45Z</time>
      </trkpt>
      <trkpt lat="43.20787" lon="5.48045">
        <ele>183.5</ele>
        <time>2025-10-19T11:32:46Z</time>
      </trkpt>
      <trkpt lat="43.20787" lon="5.48045">
        <ele>183.6</ele>
        <time>2025-10-19T11:32:47Z</time>
      </trkpt>
      <trkpt lat="43.20787" lon="5.48046">
        <ele>183.8</ele>
        <time>2025-10-19T11:32:48Z</time>
      </trkpt>
      <trkpt lat="43.20787" lon="5.48046">
        <ele>183.9</ele>
        <time>2025-10-19T11:32:49Z</time>
      </trkpt>
      <trkpt lat="43.20786" lon="5.48046">
        <ele>183.9</ele>
        <time>2025-10-19T11:32:50Z</time>
      </trkpt>
      <trkpt lat="43.20786" lon="5.48046">
        <ele>184</ele>
        <time>2025-10-19T11:32:51Z</time>
      </trkpt>
      <trkpt lat="43.20786" lon="5.48046">
        <ele>184.1</ele>
        <time>2025-10-19T11:32:52Z</time>
      </trkpt>
      <trkpt lat="43.20786" lon="5.48046">
        <ele>184.1</ele>
        <time>2025-10-19T11:32:53Z</time>
      </trkpt>
      <trkpt lat="43.20786" lon="5.48046">
        <ele>184.3</ele>
        <time>2025-10-19T11:32:54Z</time>
      </trkpt>
      <trkpt lat="43.20786" lon="5.48046">
        <ele>184.4</ele>
        <time>2025-10-19T11:32:55Z</time>
      </trkpt>
      <trkpt lat="43.20786" lon="5.48046">
        <ele>184.5</ele>
        <time>2025-10-19T11:32:56Z</time>
      </trkpt>
      <trkpt lat="43.20786" lon="5.48046">
        <ele>184.5</ele>
        <time>2025-10-19T11:32:57Z</time>
      </trkpt>
      <trkpt lat="43.20786" lon="5.48046">
        <ele>184.6</ele>
        <time>2025-10-19T11:32:58Z</time>
      </trkpt>
      <trkpt lat="43.20786" lon="5.48046">
        <ele>184.6</ele>
        <time>2025-10-19T11:32:59Z</time>
      </trkpt>
      <trkpt lat="43.20786" lon="5.48046">
        <ele>184.7</ele>
        <time>2025-10-19T11:33:00Z</time>
      </trkpt>
      <trkpt lat="43.20785" lon="5.48046">
        <ele>184.9</ele>
        <time>2025-10-19T11:33:01Z</time>
      </trkpt>
      <trkpt lat="43.20785" lon="5.48047">
        <ele>185.1</ele>
        <time>2025-10-19T11:33:02Z</time>
      </trkpt>
      <trkpt lat="43.20785" lon="5.48047">
        <ele>185.3</ele>
        <time>2025-10-19T11:33:03Z</time>
      </trkpt>
      <trkpt lat="43.20785" lon="5.48047">
        <ele>185.3</ele>
        <time>2025-10-19T11:33:04Z</time>
      </trkpt>
      <trkpt lat="43.20785" lon="5.48046">
        <ele>185.4</ele>
        <time>2025-10-19T11:33:05Z</time>
      </trkpt>
      <trkpt lat="43.20785" lon="5.48046">
        <ele>185.5</ele>
        <time>2025-10-19T11:33:06Z</time>
      </trkpt>
      <trkpt lat="43.20784" lon="5.48046">
        <ele>185.5</ele>
        <time>2025-10-19T11:33:07Z</time>
      </trkpt>
      <trkpt lat="43.20784" lon="5.48046">
        <ele>185.5</ele>
        <time>2025-10-19T11:33:08Z</time>
      </trkpt>
      <trkpt lat="43.20784" lon="5.48046">
        <ele>185.6</ele>
        <time>2025-10-19T11:33:09Z</time>
      </trkpt>
      <trkpt lat="43.20784" lon="5.48046">
        <ele>185.8</ele>
        <time>2025-10-19T11:33:10Z</time>
      </trkpt>
      <trkpt lat="43.20784" lon="5.48045">
        <ele>185.8</ele>
        <time>2025-10-19T11:33:11Z</time>
      </trkpt>
      <trkpt lat="43.20783" lon="5.48044">
        <ele>186</ele>
        <time>2025-10-19T11:33:12Z</time>
      </trkpt>
      <trkpt lat="43.20783" lon="5.48044">
        <ele>186.2</ele>
        <time>2025-10-19T11:33:13Z</time>
      </trkpt>
      <trkpt lat="43.20782" lon="5.48043">
        <ele>186.4</ele>
        <time>2025-10-19T11:33:14Z</time>
      </trkpt>
      <trkpt lat="43.20782" lon="5.48043">
        <ele>186.6</ele>
        <time>2025-10-19T11:33:15Z</time>
      </trkpt>
      <trkpt lat="43.20782" lon="5.48043">
        <ele>186.9</ele>
        <time>2025-10-19T11:33:16Z</time>
      </trkpt>
      <trkpt lat="43.20782" lon="5.48043">
        <ele>187</ele>
        <time>2025-10-19T11:33:17Z</time>
      </trkpt>
      <trkpt lat="43.20782" lon="5.48043">
        <ele>187.1</ele>
        <time>2025-10-19T11:33:18Z</time>
      </trkpt>
      <trkpt lat="43.20782" lon="5.48043">
        <ele>187.2</ele>
        <time>2025-10-19T11:33:19Z</time>
      </trkpt>
      <trkpt lat="43.20782" lon="5.48043">
        <ele>187.3</ele>
        <time>2025-10-19T11:33:20Z</time>
      </trkpt>
      <trkpt lat="43.20781" lon="5.48042">
        <ele>187.4</ele>
        <time>2025-10-19T11:33:21Z</time>
      </trkpt>
      <trkpt lat="43.20781" lon="5.48042">
        <ele>187.7</ele>
        <time>2025-10-19T11:33:22Z</time>
      </trkpt>
      <trkpt lat="43.2078" lon="5.48042">
        <ele>188</ele>
        <time>2025-10-19T11:33:23Z</time>
      </trkpt>
      <trkpt lat="43.20779" lon="5.48042">
        <ele>188.2</ele>
        <time>2025-10-19T11:33:24Z</time>
      </trkpt>
      <trkpt lat="43.20779" lon="5.48042">
        <ele>188.3</ele>
        <time>2025-10-19T11:33:25Z</time>
      </trkpt>
      <trkpt lat="43.20779" lon="5.48042">
        <ele>188.4</ele>
        <time>2025-10-19T11:33:26Z</time>
      </trkpt>
      <trkpt lat="43.20779" lon="5.48042">
        <ele>188.6</ele>
        <time>2025-10-19T11:33:27Z</time>
      </trkpt>
      <trkpt lat="43.20779" lon="5.48043">
        <ele>188.7</ele>
        <time>2025-10-19T11:33:28Z</time>
      </trkpt>
      <trkpt lat="43.20779" lon="5.48043">
        <ele>188.9</ele>
        <time>2025-10-19T11:33:29Z</time>
      </trkpt>
      <trkpt lat="43.20779" lon="5.48044">
        <ele>189.1</ele>
        <time>2025-10-19T11:33:30Z</time>
      </trkpt>
      <trkpt lat="43.20778" lon="5.48044">
        <ele>189.3</ele>
        <time>2025-10-19T11:33:31Z</time>
      </trkpt>
      <trkpt lat="43.20778" lon="5.48044">
        <ele>189.5</ele>
        <time>2025-10-19T11:33:32Z</time>
      </trkpt>
      <trkpt lat="43.20778" lon="5.48044">
        <ele>189.6</ele>
        <time>2025-10-19T11:33:33Z</time>
      </trkpt>
      <trkpt lat="43.20778" lon="5.48044">
        <ele>189.7</ele>
        <time>2025-10-19T11:33:34Z</time>
      </trkpt>
      <trkpt lat="43.20778" lon="5.48044">
        <ele>189.7</ele>
        <time>2025-10-19T11:33:35Z</time>
      </trkpt>
      <trkpt lat="43.20777" lon="5.48044">
        <ele>189.8</ele>
        <time>2025-10-19T11:33:36Z</time>
      </trkpt>
      <trkpt lat="43.20777" lon="5.48044">
        <ele>189.8</ele>
        <time>2025-10-19T11:33:37Z</time>
      </trkpt>
      <trkpt lat="43.20777" lon="5.48045">
        <ele>189.9</ele>
        <time>2025-10-19T11:33:38Z</time>
      </trkpt>
      <trkpt lat="43.20777" lon="5.48046">
        <ele>189.9</ele>
        <time>2025-10-19T11:33:39Z</time>
      </trkpt>
      <trkpt lat="43.20777" lon="5.48047">
        <ele>189.8</ele>
        <time>2025-10-19T11:33:40Z</time>
      </trkpt>
      <trkpt lat="43.20777" lon="5.48047">
        <ele>189.8</ele>
        <time>2025-10-19T11:33:41Z</time>
      </trkpt>
      <trkpt lat="43.20777" lon="5.48047">
        <ele>189.8</ele>
        <time>2025-10-19T11:33:42Z</time>
      </trkpt>
      <trkpt lat="43.20777" lon="5.48047">
        <ele>189.9</ele>
        <time>2025-10-19T11:33:43Z</time>
      </trkpt>
      <trkpt lat="43.20777" lon="5.48047">
        <ele>190</ele>
        <time>2025-10-19T11:33:44Z</time>
      </trkpt>
      <trkpt lat="43.20778" lon="5.48047">
        <ele>190.1</ele>
        <time>2025-10-19T11:33:45Z</time>
      </trkpt>
      <trkpt lat="43.20778" lon="5.48046">
        <ele>190.2</ele>
        <time>2025-10-19T11:33:46Z</time>
      </trkpt>
      <trkpt lat="43.20777" lon="5.48046">
        <ele>190.2</ele>
        <time>2025-10-19T11:33:47Z</time>
      </trkpt>
      <trkpt lat="43.20777" lon="5.48047">
        <ele>190.3</ele>
        <time>2025-10-19T11:33:48Z</time>
      </trkpt>
      <trkpt lat="43.20777" lon="5.48047">
        <ele>190.6</ele>
        <time>2025-10-19T11:33:49Z</time>
      </trkpt>
      <trkpt lat="43.20776" lon="5.48048">
        <ele>190.7</ele>
        <time>2025-10-19T11:33:50Z</time>
      </trkpt>
      <trkpt lat="43.20776" lon="5.48049">
        <ele>190.9</ele>
        <time>2025-10-19T11:33:51Z</time>
      </trkpt>
      <trkpt lat="43.20776" lon="5.4805">
        <ele>191</ele>
        <time>2025-10-19T11:33:52Z</time>
      </trkpt>
      <trkpt lat="43.20775" lon="5.4805">
        <ele>191.3</ele>
        <time>2025-10-19T11:33:53Z</time>
      </trkpt>
      <trkpt lat="43.20775" lon="5.48051">
        <ele>191.5</ele>
        <time>2025-10-19T11:33:54Z</time>
      </trkpt>
      <trkpt lat="43.20775" lon="5.48051">
        <ele>191.8</ele>
        <time>2025-10-19T11:33:55Z</time>
      </trkpt>
      <trkpt lat="43.20775" lon="5.48051">
        <ele>192</ele>
        <time>2025-10-19T11:33:56Z</time>
      </trkpt>
      <trkpt lat="43.20775" lon="5.48051">
        <ele>192.2</ele>
        <time>2025-10-19T11:33:57Z</time>
      </trkpt>
      <trkpt lat="43.20775" lon="5.48051">
        <ele>192.3</ele>
        <time>2025-10-19T11:33:58Z</time>
      </trkpt>
      <trkpt lat="43.20776" lon="5.48051">
        <ele>192.4</ele>
        <time>2025-10-19T11:33:59Z</time>
      </trkpt>
      <trkpt lat="43.20775" lon="5.48051">
        <ele>192.5</ele>
        <time>2025-10-19T11:34:00Z</time>
      </trkpt>
      <trkpt lat="43.20775" lon="5.48051">
        <ele>192.6</ele>
        <time>2025-10-19T11:34:01Z</time>
      </trkpt>
      <trkpt lat="43.20774" lon="5.48052">
        <ele>192.6</ele>
        <time>2025-10-19T11:34:02Z</time>
      </trkpt>
      <trkpt lat="43.20774" lon="5.48052">
        <ele>192.6</ele>
        <time>2025-10-19T11:34:03Z</time>
      </trkpt>
      <trkpt lat="43.20773" lon="5.48053">
        <ele>192.7</ele>
        <time>2025-10-19T11:34:04Z</time>
      </trkpt>
      <trkpt lat="43.20773" lon="5.48053">
        <ele>192.8</ele>
        <time>2025-10-19T11:34:05Z</time>
      </trkpt>
      <trkpt lat="43.20773" lon="5.48054">
        <ele>193</ele>
        <time>2025-10-19T11:34:06Z</time>
      </trkpt>
      <trkpt lat="43.20772" lon="5.48055">
        <ele>193.1</ele>
        <time>2025-10-19T11:34:07Z</time>
      </trkpt>
      <trkpt lat="43.20772" lon="5.48056">
        <ele>193.2</ele>
        <time>2025-10-19T11:34:08Z</time>
      </trkpt>
      <trkpt lat="43.20771" lon="5.48056">
        <ele>193.2</ele>
        <time>2025-10-19T11:34:09Z</time>
      </trkpt>
      <trkpt lat="43.20771" lon="5.48057">
        <ele>193.4</ele>
        <time>2025-10-19T11:34:10Z</time>
      </trkpt>
      <trkpt lat="43.20771" lon="5.48057">
        <ele>193.6</ele>
        <time>2025-10-19T11:34:11Z</time>
      </trkpt>
      <trkpt lat="43.20771" lon="5.48056">
        <ele>193.8</ele>
        <time>2025-10-19T11:34:12Z</time>
      </trkpt>
      <trkpt lat="43.20772" lon="5.48056">
        <ele>194</ele>
        <time>2025-10-19T11:34:13Z</time>
      </trkpt>
      <trkpt lat="43.20772" lon="5.48055">
        <ele>194.2</ele>
        <time>2025-10-19T11:34:14Z</time>
      </trkpt>
      <trkpt lat="43.20772" lon="5.48054">
        <ele>194.4</ele>
        <time>2025-10-19T11:34:15Z</time>
      </trkpt>
      <trkpt lat="43.20772" lon="5.48054">
        <ele>194.5</ele>
        <time>2025-10-19T11:34:16Z</time>
      </trkpt>
      <trkpt lat="43.20772" lon="5.48053">
        <ele>194.6</ele>
        <time>2025-10-19T11:34:17Z</time>
      </trkpt>
      <trkpt lat="43.20772" lon="5.48052">
        <ele>194.7</ele>
        <time>2025-10-19T11:34:18Z</time>
      </trkpt>
      <trkpt lat="43.20772" lon="5.48051">
        <ele>194.9</ele>
        <time>2025-10-19T11:34:19Z</time>
      </trkpt>
      <trkpt lat="43.20772" lon="5.4805">
        <ele>195</ele>
        <time>2025-10-19T11:34:20Z</time>
      </trkpt>
      <trkpt lat="43.20773" lon="5.48049">
        <ele>195.1</ele>
        <time>2025-10-19T11:34:21Z</time>
      </trkpt>
      <trkpt lat="43.20773" lon="5.48048">
        <ele>195.3</ele>
        <time>2025-10-19T11:34:22Z</time>
      </trkpt>
      <trkpt lat="43.20774" lon="5.48047">
        <ele>195.4</ele>
        <time>2025-10-19T11:34:23Z</time>
      </trkpt>
      <trkpt lat="43.20774" lon="5.48046">
        <ele>195.5</ele>
        <time>2025-10-19T11:34:24Z</time>
      </trkpt>
      <trkpt lat="43.20774" lon="5.48046">
        <ele>195.7</ele>
        <time>2025-10-19T11:34:25Z</time>
      </trkpt>
      <trkpt lat="43.20774" lon="5.48045">
        <ele>196</ele>
        <time>2025-10-19T11:34:26Z</time>
      </trkpt>
      <trkpt lat="43.20773" lon="5.48044">
        <ele>196.2</ele>
        <time>2025-10-19T11:34:27Z</time>
      </trkpt>
      <trkpt lat="43.20773" lon="5.48043">
        <ele>196.3</ele>
        <time>2025-10-19T11:34:28Z</time>
      </trkpt>
      <trkpt lat="43.20774" lon="5.48042">
        <ele>196.4</ele>
        <time>2025-10-19T11:34:29Z</time>
      </trkpt>
      <trkpt lat="43.20774" lon="5.48041">
        <ele>196.5</ele>
        <time>2025-10-19T11:34:30Z</time>
      </trkpt>
      <trkpt lat="43.20774" lon="5.4804">
        <ele>196.5</ele>
        <time>2025-10-19T11:34:31Z</time>
      </trkpt>
      <trkpt lat="43.20775" lon="5.48039">
        <ele>196.6</ele>
        <time>2025-10-19T11:34:32Z</time>
      </trkpt>
      <trkpt lat="43.20775" lon="5.48038">
        <ele>196.7</ele>
        <time>2025-10-19T11:34:33Z</time>
      </trkpt>
      <trkpt lat="43.20775" lon="5.48037">
        <ele>196.7</ele>
        <time>2025-10-19T11:34:34Z</time>
      </trkpt>
      <trkpt lat="43.20775" lon="5.48036">
        <ele>196.9</ele>
        <time>2025-10-19T11:34:35Z</time>
      </trkpt>
      <trkpt lat="43.20774" lon="5.48035">
        <ele>197.1</ele>
        <time>2025-10-19T11:34:36Z</time>
      </trkpt>
      <trkpt lat="43.20774" lon="5.48034">
        <ele>197.3</ele>
        <time>2025-10-19T11:34:37Z</time>
      </trkpt>
      <trkpt lat="43.20773" lon="5.48033">
        <ele>197.4</ele>
        <time>2025-10-19T11:34:38Z</time>
      </trkpt>
      <trkpt lat="43.20773" lon="5.48032">
        <ele>197.5</ele>
        <time>2025-10-19T11:34:39Z</time>
      </trkpt>
      <trkpt lat="43.20773" lon="5.48031">
        <ele>197.6</ele>
        <time>2025-10-19T11:34:40Z</time>
      </trkpt>
      <trkpt lat="43.20772" lon="5.4803">
        <ele>197.8</ele>
        <time>2025-10-19T11:34:41Z</time>
      </trkpt>
      <trkpt lat="43.20772" lon="5.48029">
        <ele>197.9</ele>
        <time>2025-10-19T11:34:42Z</time>
      </trkpt>
      <trkpt lat="43.20771" lon="5.48028">
        <ele>198.1</ele>
        <time>2025-10-19T11:34:43Z</time>
      </trkpt>
      <trkpt lat="43.2077" lon="5.48027">
        <ele>198.2</ele>
        <time>2025-10-19T11:34:44Z</time>
      </trkpt>
      <trkpt lat="43.2077" lon="5.48027">
        <ele>198.3</ele>
        <time>2025-10-19T11:34:45Z</time>
      </trkpt>
      <trkpt lat="43.2077" lon="5.48026">
        <ele>198.6</ele>
        <time>2025-10-19T11:34:46Z</time>
      </trkpt>
      <trkpt lat="43.2077" lon="5.48024">
        <ele>198.7</ele>
        <time>2025-10-19T11:34:47Z</time>
      </trkpt>
      <trkpt lat="43.2077" lon="5.48023">
        <ele>198.8</ele>
        <time>2025-10-19T11:34:48Z</time>
      </trkpt>
      <trkpt lat="43.2077" lon="5.48021">
        <ele>199</ele>
        <time>2025-10-19T11:34:49Z</time>
      </trkpt>
      <trkpt lat="43.2077" lon="5.48019">
        <ele>199.1</ele>
        <time>2025-10-19T11:34:50Z</time>
      </trkpt>
      <trkpt lat="43.2077" lon="5.48018">
        <ele>199.3</ele>
        <time>2025-10-19T11:34:51Z</time>
      </trkpt>
      <trkpt lat="43.2077" lon="5.48016">
        <ele>199.4</ele>
        <time>2025-10-19T11:34:52Z</time>
      </trkpt>
      <trkpt lat="43.2077" lon="5.48015">
        <ele>199.7</ele>
        <time>2025-10-19T11:34:53Z</time>
      </trkpt>
      <trkpt lat="43.20771" lon="5.48014">
        <ele>200</ele>
        <time>2025-10-19T11:34:54Z</time>
      </trkpt>
      <trkpt lat="43.20771" lon="5.48013">
        <ele>200.2</ele>
        <time>2025-10-19T11:34:55Z</time>
      </trkpt>
      <trkpt lat="43.20771" lon="5.48012">
        <ele>200.4</ele>
        <time>2025-10-19T11:34:56Z</time>
      </trkpt>
      <trkpt lat="43.2077" lon="5.48011">
        <ele>200.5</ele>
        <time>2025-10-19T11:34:57Z</time>
      </trkpt>
      <trkpt lat="43.2077" lon="5.4801">
        <ele>200.7</ele>
        <time>2025-10-19T11:34:58Z</time>
      </trkpt>
      <trkpt lat="43.2077" lon="5.48009">
        <ele>200.9</ele>
        <time>2025-10-19T11:34:59Z</time>
      </trkpt>
      <trkpt lat="43.2077" lon="5.48008">
        <ele>201</ele>
        <time>2025-10-19T11:35:00Z</time>
      </trkpt>
      <trkpt lat="43.2077" lon="5.48007">
        <ele>201.3</ele>
        <time>2025-10-19T11:35:01Z</time>
      </trkpt>
      <trkpt lat="43.2077" lon="5.48006">
        <ele>201.5</ele>
        <time>2025-10-19T11:35:02Z</time>
      </trkpt>
      <trkpt lat="43.2077" lon="5.48005">
        <ele>201.6</ele>
        <time>2025-10-19T11:35:03Z</time>
      </trkpt>
      <trkpt lat="43.2077" lon="5.48005">
        <ele>201.8</ele>
        <time>2025-10-19T11:35:04Z</time>
      </trkpt>
      <trkpt lat="43.2077" lon="5.48004">
        <ele>201.9</ele>
        <time>2025-10-19T11:35:05Z</time>
      </trkpt>
      <trkpt lat="43.2077" lon="5.48003">
        <ele>202.1</ele>
        <time>2025-10-19T11:35:06Z</time>
      </trkpt>
      <trkpt lat="43.2077" lon="5.48002">
        <ele>202.2</ele>
        <time>2025-10-19T11:35:07Z</time>
      </trkpt>
      <trkpt lat="43.20771" lon="5.48001">
        <ele>202.2</ele>
        <time>2025-10-19T11:35:08Z</time>
      </trkpt>
      <trkpt lat="43.20771" lon="5.48">
        <ele>202.3</ele>
        <time>2025-10-19T11:35:09Z</time>
      </trkpt>
      <trkpt lat="43.20771" lon="5.47999">
        <ele>202.4</ele>
        <time>2025-10-19T11:35:10Z</time>
      </trkpt>
      <trkpt lat="43.20771" lon="5.47999">
        <ele>202.4</ele>
        <time>2025-10-19T11:35:11Z</time>
      </trkpt>
      <trkpt lat="43.20771" lon="5.47998">
        <ele>202.5</ele>
        <time>2025-10-19T11:35:12Z</time>
      </trkpt>
      <trkpt lat="43.20771" lon="5.47997">
        <ele>202.6</ele>
        <time>2025-10-19T11:35:13Z</time>
      </trkpt>
      <trkpt lat="43.20771" lon="5.47996">
        <ele>202.8</ele>
        <time>2025-10-19T11:35:14Z</time>
      </trkpt>
      <trkpt lat="43.20771" lon="5.47996">
        <ele>202.9</ele>
        <time>2025-10-19T11:35:15Z</time>
      </trkpt>
      <trkpt lat="43.2077" lon="5.47995">
        <ele>203.1</ele>
        <time>2025-10-19T11:35:16Z</time>
      </trkpt>
      <trkpt lat="43.2077" lon="5.47994">
        <ele>203.3</ele>
        <time>2025-10-19T11:35:17Z</time>
      </trkpt>
      <trkpt lat="43.2077" lon="5.47994">
        <ele>203.5</ele>
        <time>2025-10-19T11:35:18Z</time>
      </trkpt>
      <trkpt lat="43.20769" lon="5.47993">
        <ele>203.8</ele>
        <time>2025-10-19T11:35:19Z</time>
      </trkpt>
      <trkpt lat="43.20768" lon="5.47993">
        <ele>204</ele>
        <time>2025-10-19T11:35:20Z</time>
      </trkpt>
      <trkpt lat="43.20768" lon="5.47992">
        <ele>204.2</ele>
        <time>2025-10-19T11:35:21Z</time>
      </trkpt>
      <trkpt lat="43.20768" lon="5.47992">
        <ele>204.2</ele>
        <time>2025-10-19T11:35:22Z</time>
      </trkpt>
      <trkpt lat="43.20767" lon="5.47991">
        <ele>204.4</ele>
        <time>2025-10-19T11:35:23Z</time>
      </trkpt>
      <trkpt lat="43.20767" lon="5.47991">
        <ele>204.5</ele>
        <time>2025-10-19T11:35:24Z</time>
      </trkpt>
      <trkpt lat="43.20766" lon="5.4799">
        <ele>204.6</ele>
        <time>2025-10-19T11:35:25Z</time>
      </trkpt>
      <trkpt lat="43.20766" lon="5.4799">
        <ele>204.7</ele>
        <time>2025-10-19T11:35:26Z</time>
      </trkpt>
      <trkpt lat="43.20765" lon="5.4799">
        <ele>204.9</ele>
        <time>2025-10-19T11:35:27Z</time>
      </trkpt>
      <trkpt lat="43.20764" lon="5.4799">
        <ele>204.9</ele>
        <time>2025-10-19T11:35:28Z</time>
      </trkpt>
      <trkpt lat="43.20764" lon="5.4799">
        <ele>205</ele>
        <time>2025-10-19T11:35:29Z</time>
      </trkpt>
      <trkpt lat="43.20763" lon="5.4799">
        <ele>205.1</ele>
        <time>2025-10-19T11:35:30Z</time>
      </trkpt>
      <trkpt lat="43.20762" lon="5.4799">
        <ele>205.2</ele>
        <time>2025-10-19T11:35:31Z</time>
      </trkpt>
      <trkpt lat="43.20762" lon="5.4799">
        <ele>205.2</ele>
        <time>2025-10-19T11:35:32Z</time>
      </trkpt>
      <trkpt lat="43.20762" lon="5.4799">
        <ele>205.2</ele>
        <time>2025-10-19T11:35:33Z</time>
      </trkpt>
      <trkpt lat="43.20762" lon="5.47989">
        <ele>205.3</ele>
        <time>2025-10-19T11:35:34Z</time>
      </trkpt>
      <trkpt lat="43.20762" lon="5.47989">
        <ele>205.3</ele>
        <time>2025-10-19T11:35:35Z</time>
      </trkpt>
      <trkpt lat="43.20762" lon="5.47989">
        <ele>205.3</ele>
        <time>2025-10-19T11:35:36Z</time>
      </trkpt>
      <trkpt lat="43.20762" lon="5.47988">
        <ele>205.3</ele>
        <time>2025-10-19T11:35:37Z</time>
      </trkpt>
      <trkpt lat="43.20762" lon="5.47988">
        <ele>205.4</ele>
        <time>2025-10-19T11:35:38Z</time>
      </trkpt>
      <trkpt lat="43.20762" lon="5.47988">
        <ele>205.4</ele>
        <time>2025-10-19T11:35:39Z</time>
      </trkpt>
      <trkpt lat="43.20762" lon="5.47988">
        <ele>205.4</ele>
        <time>2025-10-19T11:35:40Z</time>
      </trkpt>
      <trkpt lat="43.20761" lon="5.47988">
        <ele>205.4</ele>
        <time>2025-10-19T11:35:41Z</time>
      </trkpt>
      <trkpt lat="43.20761" lon="5.47988">
        <ele>205.4</ele>
        <time>2025-10-19T11:35:42Z</time>
      </trkpt>
      <trkpt lat="43.20761" lon="5.47988">
        <ele>205.4</ele>
        <time>2025-10-19T11:35:43Z</time>
      </trkpt>
      <trkpt lat="43.2076" lon="5.47988">
        <ele>205.4</ele>
        <time>2025-10-19T11:35:44Z</time>
      </trkpt>
      <trkpt lat="43.2076" lon="5.47988">
        <ele>205.4</ele>
        <time>2025-10-19T11:35:45Z</time>
      </trkpt>
      <trkpt lat="43.20759" lon="5.47988">
        <ele>205.5</ele>
        <time>2025-10-19T11:35:46Z</time>
      </trkpt>
      <trkpt lat="43.20759" lon="5.47988">
        <ele>205.6</ele>
        <time>2025-10-19T11:35:47Z</time>
      </trkpt>
      <trkpt lat="43.20759" lon="5.47988">
        <ele>205.5</ele>
        <time>2025-10-19T11:35:48Z</time>
      </trkpt>
      <trkpt lat="43.20758" lon="5.47988">
        <ele>205.5</ele>
        <time>2025-10-19T11:35:49Z</time>
      </trkpt>
      <trkpt lat="43.20758" lon="5.47988">
        <ele>205.6</ele>
        <time>2025-10-19T11:35:50Z</time>
      </trkpt>
      <trkpt lat="43.20758" lon="5.47988">
        <ele>205.7</ele>
        <time>2025-10-19T11:35:51Z</time>
      </trkpt>
      <trkpt lat="43.20757" lon="5.47988">
        <ele>205.8</ele>
        <time>2025-10-19T11:35:52Z</time>
      </trkpt>
      <trkpt lat="43.20757" lon="5.47987">
        <ele>205.9</ele>
        <time>2025-10-19T11:35:53Z</time>
      </trkpt>
      <trkpt lat="43.20757" lon="5.47987">
        <ele>205.9</ele>
        <time>2025-10-19T11:35:54Z</time>
      </trkpt>
      <trkpt lat="43.20757" lon="5.47987">
        <ele>206</ele>
        <time>2025-10-19T11:35:55Z</time>
      </trkpt>
      <trkpt lat="43.20757" lon="5.47987">
        <ele>205.9</ele>
        <time>2025-10-19T11:35:56Z</time>
      </trkpt>
      <trkpt lat="43.20757" lon="5.47987">
        <ele>205.9</ele>
        <time>2025-10-19T11:35:57Z</time>
      </trkpt>
      <trkpt lat="43.20756" lon="5.47987">
        <ele>206</ele>
        <time>2025-10-19T11:35:58Z</time>
      </trkpt>
      <trkpt lat="43.20756" lon="5.47987">
        <ele>206.1</ele>
        <time>2025-10-19T11:35:59Z</time>
      </trkpt>
      <trkpt lat="43.20756" lon="5.47987">
        <ele>206.1</ele>
        <time>2025-10-19T11:36:00Z</time>
      </trkpt>
      <trkpt lat="43.20756" lon="5.47987">
        <ele>206.1</ele>
        <time>2025-10-19T11:36:01Z</time>
      </trkpt>
      <trkpt lat="43.20756" lon="5.47987">
        <ele>206</ele>
        <time>2025-10-19T11:36:02Z</time>
      </trkpt>
      <trkpt lat="43.20756" lon="5.47987">
        <ele>206.1</ele>
        <time>2025-10-19T11:36:03Z</time>
      </trkpt>
      <trkpt lat="43.20756" lon="5.47986">
        <ele>206.2</ele>
        <time>2025-10-19T11:36:04Z</time>
      </trkpt>
      <trkpt lat="43.20756" lon="5.47986">
        <ele>206.2</ele>
        <time>2025-10-19T11:36:05Z</time>
      </trkpt>
      <trkpt lat="43.20756" lon="5.47986">
        <ele>206.2</ele>
        <time>2025-10-19T11:36:06Z</time>
      </trkpt>
      <trkpt lat="43.20756" lon="5.47986">
        <ele>206.3</ele>
        <time>2025-10-19T11:36:07Z</time>
      </trkpt>
      <trkpt lat="43.20756" lon="5.47986">
        <ele>206.3</ele>
        <time>2025-10-19T11:36:08Z</time>
      </trkpt>
      <trkpt lat="43.20755" lon="5.47986">
        <ele>206.4</ele>
        <time>2025-10-19T11:36:09Z</time>
      </trkpt>
      <trkpt lat="43.20755" lon="5.47985">
        <ele>206.4</ele>
        <time>2025-10-19T11:36:10Z</time>
      </trkpt>
      <trkpt lat="43.20755" lon="5.47985">
        <ele>206.4</ele>
        <time>2025-10-19T11:36:11Z</time>
      </trkpt>
      <trkpt lat="43.20755" lon="5.47985">
        <ele>206.3</ele>
        <time>2025-10-19T11:36:12Z</time>
      </trkpt>
      <trkpt lat="43.20755" lon="5.47985">
        <ele>206.3</ele>
        <time>2025-10-19T11:36:13Z</time>
      </trkpt>
      <trkpt lat="43.20755" lon="5.47985">
        <ele>206.4</ele>
        <time>2025-10-19T11:36:14Z</time>
      </trkpt>
      <trkpt lat="43.20755" lon="5.47985">
        <ele>206.4</ele>
        <time>2025-10-19T11:36:15Z</time>
      </trkpt>
      <trkpt lat="43.20755" lon="5.47985">
        <ele>206.4</ele>
        <time>2025-10-19T11:36:16Z</time>
      </trkpt>
      <trkpt lat="43.20755" lon="5.47985">
        <ele>206.4</ele>
        <time>2025-10-19T11:36:17Z</time>
      </trkpt>
      <trkpt lat="43.20755" lon="5.47985">
        <ele>206.5</ele>
        <time>2025-10-19T11:36:18Z</time>
      </trkpt>
      <trkpt lat="43.20755" lon="5.47985">
        <ele>206.6</ele>
        <time>2025-10-19T11:36:19Z</time>
      </trkpt>
      <trkpt lat="43.20755" lon="5.47985">
        <ele>206.6</ele>
        <time>2025-10-19T11:36:20Z</time>
      </trkpt>
      <trkpt lat="43.20755" lon="5.47985">
        <ele>206.7</ele>
        <time>2025-10-19T11:36:21Z</time>
      </trkpt>
      <trkpt lat="43.20754" lon="5.47985">
        <ele>206.7</ele>
        <time>2025-10-19T11:36:22Z</time>
      </trkpt>
      <trkpt lat="43.20754" lon="5.47985">
        <ele>206.8</ele>
        <time>2025-10-19T11:36:23Z</time>
      </trkpt>
      <trkpt lat="43.20754" lon="5.47985">
        <ele>206.7</ele>
        <time>2025-10-19T11:36:24Z</time>
      </trkpt>
      <trkpt lat="43.20754" lon="5.47985">
        <ele>206.7</ele>
        <time>2025-10-19T11:36:25Z</time>
      </trkpt>
      <trkpt lat="43.20754" lon="5.47985">
        <ele>206.7</ele>
        <time>2025-10-19T11:36:26Z</time>
      </trkpt>
      <trkpt lat="43.20754" lon="5.47985">
        <ele>206.6</ele>
        <time>2025-10-19T11:36:27Z</time>
      </trkpt>
      <trkpt lat="43.20754" lon="5.47985">
        <ele>206.6</ele>
        <time>2025-10-19T11:36:28Z</time>
      </trkpt>
      <trkpt lat="43.20754" lon="5.47985">
        <ele>206.4</ele>
        <time>2025-10-19T11:36:29Z</time>
      </trkpt>
      <trkpt lat="43.20754" lon="5.47986">
        <ele>206.4</ele>
        <time>2025-10-19T11:36:30Z</time>
      </trkpt>
      <trkpt lat="43.20754" lon="5.47986">
        <ele>206.3</ele>
        <time>2025-10-19T11:36:31Z</time>
      </trkpt>
      <trkpt lat="43.20754" lon="5.47986">
        <ele>206.3</ele>
        <time>2025-10-19T11:36:32Z</time>
      </trkpt>
      <trkpt lat="43.20754" lon="5.47986">
        <ele>206.3</ele>
        <time>2025-10-19T11:36:33Z</time>
      </trkpt>
      <trkpt lat="43.20754" lon="5.47986">
        <ele>206.4</ele>
        <time>2025-10-19T11:36:34Z</time>
      </trkpt>
      <trkpt lat="43.20754" lon="5.47986">
        <ele>206.3</ele>
        <time>2025-10-19T11:36:35Z</time>
      </trkpt>
      <trkpt lat="43.20754" lon="5.47986">
        <ele>206.3</ele>
        <time>2025-10-19T11:36:36Z</time>
      </trkpt>
      <trkpt lat="43.20754" lon="5.47986">
        <ele>206.3</ele>
        <time>2025-10-19T11:36:37Z</time>
      </trkpt>
      <trkpt lat="43.20754" lon="5.47986">
        <ele>206.1</ele>
        <time>2025-10-19T11:36:38Z</time>
      </trkpt>
      <trkpt lat="43.20754" lon="5.47986">
        <ele>205.9</ele>
        <time>2025-10-19T11:36:39Z</time>
      </trkpt>
      <trkpt lat="43.20754" lon="5.47987">
        <ele>205.7</ele>
        <time>2025-10-19T11:36:40Z</time>
      </trkpt>
      <trkpt lat="43.20754" lon="5.47987">
        <ele>205.7</ele>
        <time>2025-10-19T11:36:41Z</time>
      </trkpt>
      <trkpt lat="43.20754" lon="5.47987">
        <ele>205.6</ele>
        <time>2025-10-19T11:36:42Z</time>
      </trkpt>
      <trkpt lat="43.20754" lon="5.47987">
        <ele>205.6</ele>
        <time>2025-10-19T11:36:43Z</time>
      </trkpt>
      <trkpt lat="43.20753" lon="5.47987">
        <ele>205.5</ele>
        <time>2025-10-19T11:36:44Z</time>
      </trkpt>
      <trkpt lat="43.20753" lon="5.47988">
        <ele>205.5</ele>
        <time>2025-10-19T11:36:45Z</time>
      </trkpt>
      <trkpt lat="43.20753" lon="5.47988">
        <ele>205.5</ele>
        <time>2025-10-19T11:36:46Z</time>
      </trkpt>
      <trkpt lat="43.20753" lon="5.47988">
        <ele>205.5</ele>
        <time>2025-10-19T11:36:47Z</time>
      </trkpt>
      <trkpt lat="43.20753" lon="5.47988">
        <ele>205.5</ele>
        <time>2025-10-19T11:36:48Z</time>
      </trkpt>
      <trkpt lat="43.20753" lon="5.47988">
        <ele>205.5</ele>
        <time>2025-10-19T11:36:49Z</time>
      </trkpt>
      <trkpt lat="43.20753" lon="5.47988">
        <ele>205.4</ele>
        <time>2025-10-19T11:36:50Z</time>
      </trkpt>
      <trkpt lat="43.20753" lon="5.47988">
        <ele>205.4</ele>
        <time>2025-10-19T11:36:51Z</time>
      </trkpt>
      <trkpt lat="43.20753" lon="5.47988">
        <ele>205.3</ele>
        <time>2025-10-19T11:36:52Z</time>
      </trkpt>
      <trkpt lat="43.20753" lon="5.47987">
        <ele>205.2</ele>
        <time>2025-10-19T11:36:53Z</time>
      </trkpt>
      <trkpt lat="43.20753" lon="5.47986">
        <ele>205.2</ele>
        <time>2025-10-19T11:36:54Z</time>
      </trkpt>
      <trkpt lat="43.20754" lon="5.47986">
        <ele>205.1</ele>
        <time>2025-10-19T11:36:55Z</time>
      </trkpt>
      <trkpt lat="43.20754" lon="5.47985">
        <ele>205.2</ele>
        <time>2025-10-19T11:36:56Z</time>
      </trkpt>
      <trkpt lat="43.20754" lon="5.47984">
        <ele>205.3</ele>
        <time>2025-10-19T11:36:57Z</time>
      </trkpt>
      <trkpt lat="43.20754" lon="5.47984">
        <ele>205.4</ele>
        <time>2025-10-19T11:36:58Z</time>
      </trkpt>
      <trkpt lat="43.20754" lon="5.47983">
        <ele>205.5</ele>
        <time>2025-10-19T11:36:59Z</time>
      </trkpt>
      <trkpt lat="43.20754" lon="5.47982">
        <ele>205.6</ele>
        <time>2025-10-19T11:37:00Z</time>
      </trkpt>
      <trkpt lat="43.20754" lon="5.47982">
        <ele>205.7</ele>
        <time>2025-10-19T11:37:01Z</time>
      </trkpt>
      <trkpt lat="43.20754" lon="5.47981">
        <ele>205.8</ele>
        <time>2025-10-19T11:37:02Z</time>
      </trkpt>
      <trkpt lat="43.20754" lon="5.4798">
        <ele>206</ele>
        <time>2025-10-19T11:37:03Z</time>
      </trkpt>
      <trkpt lat="43.20754" lon="5.47979">
        <ele>206.2</ele>
        <time>2025-10-19T11:37:04Z</time>
      </trkpt>
      <trkpt lat="43.20754" lon="5.47979">
        <ele>206.4</ele>
        <time>2025-10-19T11:37:05Z</time>
      </trkpt>
      <trkpt lat="43.20754" lon="5.47979">
        <ele>206.4</ele>
        <time>2025-10-19T11:37:06Z</time>
      </trkpt>
      <trkpt lat="43.20754" lon="5.47979">
        <ele>206.5</ele>
        <time>2025-10-19T11:37:07Z</time>
      </trkpt>
      <trkpt lat="43.20754" lon="5.47979">
        <ele>206.5</ele>
        <time>2025-10-19T11:37:08Z</time>
      </trkpt>
      <trkpt lat="43.20754" lon="5.47979">
        <ele>206.7</ele>
        <time>2025-10-19T11:37:09Z</time>
      </trkpt>
      <trkpt lat="43.20754" lon="5.47978">
        <ele>206.8</ele>
        <time>2025-10-19T11:37:10Z</time>
      </trkpt>
      <trkpt lat="43.20754" lon="5.47977">
        <ele>206.9</ele>
        <time>2025-10-19T11:37:11Z</time>
      </trkpt>
      <trkpt lat="43.20754" lon="5.47975">
        <ele>207</ele>
        <time>2025-10-19T11:37:12Z</time>
      </trkpt>
      <trkpt lat="43.20754" lon="5.47974">
        <ele>207.1</ele>
        <time>2025-10-19T11:37:13Z</time>
      </trkpt>
      <trkpt lat="43.20755" lon="5.47973">
        <ele>207.4</ele>
        <time>2025-10-19T11:37:14Z</time>
      </trkpt>
      <trkpt lat="43.20754" lon="5.47972">
        <ele>207.6</ele>
        <time>2025-10-19T11:37:15Z</time>
      </trkpt>
      <trkpt lat="43.20754" lon="5.4797">
        <ele>207.9</ele>
        <time>2025-10-19T11:37:16Z</time>
      </trkpt>
      <trkpt lat="43.20754" lon="5.47969">
        <ele>208.1</ele>
        <time>2025-10-19T11:37:17Z</time>
      </trkpt>
      <trkpt lat="43.20754" lon="5.47968">
        <ele>208.2</ele>
        <time>2025-10-19T11:37:18Z</time>
      </trkpt>
      <trkpt lat="43.20755" lon="5.47966">
        <ele>208.4</ele>
        <time>2025-10-19T11:37:19Z</time>
      </trkpt>
      <trkpt lat="43.20755" lon="5.47965">
        <ele>208.6</ele>
        <time>2025-10-19T11:37:20Z</time>
      </trkpt>
      <trkpt lat="43.20755" lon="5.47964">
        <ele>208.7</ele>
        <time>2025-10-19T11:37:21Z</time>
      </trkpt>
      <trkpt lat="43.20755" lon="5.47962">
        <ele>208.8</ele>
        <time>2025-10-19T11:37:22Z</time>
      </trkpt>
      <trkpt lat="43.20755" lon="5.47961">
        <ele>208.9</ele>
        <time>2025-10-19T11:37:23Z</time>
      </trkpt>
      <trkpt lat="43.20755" lon="5.4796">
        <ele>209</ele>
        <time>2025-10-19T11:37:24Z</time>
      </trkpt>
      <trkpt lat="43.20754" lon="5.47959">
        <ele>209</ele>
        <time>2025-10-19T11:37:25Z</time>
      </trkpt>
      <trkpt lat="43.20754" lon="5.47958">
        <ele>209.1</ele>
        <time>2025-10-19T11:37:26Z</time>
      </trkpt>
      <trkpt lat="43.20754" lon="5.47956">
        <ele>209.2</ele>
        <time>2025-10-19T11:37:27Z</time>
      </trkpt>
      <trkpt lat="43.20754" lon="5.47955">
        <ele>209.3</ele>
        <time>2025-10-19T11:37:28Z</time>
      </trkpt>
      <trkpt lat="43.20755" lon="5.47954">
        <ele>209.4</ele>
        <time>2025-10-19T11:37:29Z</time>
      </trkpt>
      <trkpt lat="43.20755" lon="5.47953">
        <ele>209.6</ele>
        <time>2025-10-19T11:37:30Z</time>
      </trkpt>
      <trkpt lat="43.20755" lon="5.47951">
        <ele>209.6</ele>
        <time>2025-10-19T11:37:31Z</time>
      </trkpt>
      <trkpt lat="43.20755" lon="5.4795">
        <ele>209.9</ele>
        <time>2025-10-19T11:37:32Z</time>
      </trkpt>
      <trkpt lat="43.20755" lon="5.47949">
        <ele>210</ele>
        <time>2025-10-19T11:37:33Z</time>
      </trkpt>
      <trkpt lat="43.20755" lon="5.47947">
        <ele>210.1</ele>
        <time>2025-10-19T11:37:34Z</time>
      </trkpt>
      <trkpt lat="43.20756" lon="5.47946">
        <ele>210</ele>
        <time>2025-10-19T11:37:35Z</time>
      </trkpt>
      <trkpt lat="43.20756" lon="5.47945">
        <ele>210</ele>
        <time>2025-10-19T11:37:36Z</time>
      </trkpt>
      <trkpt lat="43.20756" lon="5.47944">
        <ele>210.1</ele>
        <time>2025-10-19T11:37:37Z</time>
      </trkpt>
      <trkpt lat="43.20757" lon="5.47943">
        <ele>210.3</ele>
        <time>2025-10-19T11:37:38Z</time>
      </trkpt>
      <trkpt lat="43.20757" lon="5.47942">
        <ele>210.4</ele>
        <time>2025-10-19T11:37:39Z</time>
      </trkpt>
      <trkpt lat="43.20757" lon="5.47941">
        <ele>210.5</ele>
        <time>2025-10-19T11:37:40Z</time>
      </trkpt>
      <trkpt lat="43.20758" lon="5.4794">
        <ele>210.7</ele>
        <time>2025-10-19T11:37:41Z</time>
      </trkpt>
      <trkpt lat="43.20758" lon="5.47939">
        <ele>210.9</ele>
        <time>2025-10-19T11:37:42Z</time>
      </trkpt>
      <trkpt lat="43.20758" lon="5.47938">
        <ele>211.1</ele>
        <time>2025-10-19T11:37:43Z</time>
      </trkpt>
      <trkpt lat="43.20757" lon="5.47938">
        <ele>211.4</ele>
        <time>2025-10-19T11:37:44Z</time>
      </trkpt>
      <trkpt lat="43.20757" lon="5.47937">
        <ele>211.5</ele>
        <time>2025-10-19T11:37:45Z</time>
      </trkpt>
      <trkpt lat="43.20757" lon="5.47936">
        <ele>211.7</ele>
        <time>2025-10-19T11:37:46Z</time>
      </trkpt>
      <trkpt lat="43.20757" lon="5.47934">
        <ele>211.9</ele>
        <time>2025-10-19T11:37:47Z</time>
      </trkpt>
      <trkpt lat="43.20757" lon="5.47933">
        <ele>212.1</ele>
        <time>2025-10-19T11:37:48Z</time>
      </trkpt>
      <trkpt lat="43.20757" lon="5.47932">
        <ele>212.3</ele>
        <time>2025-10-19T11:37:49Z</time>
      </trkpt>
      <trkpt lat="43.20757" lon="5.47932">
        <ele>212.4</ele>
        <time>2025-10-19T11:37:50Z</time>
      </trkpt>
      <trkpt lat="43.20757" lon="5.47931">
        <ele>212.6</ele>
        <time>2025-10-19T11:37:51Z</time>
      </trkpt>
      <trkpt lat="43.20757" lon="5.4793">
        <ele>212.7</ele>
        <time>2025-10-19T11:37:52Z</time>
      </trkpt>
      <trkpt lat="43.20756" lon="5.4793">
        <ele>212.9</ele>
        <time>2025-10-19T11:37:53Z</time>
      </trkpt>
      <trkpt lat="43.20756" lon="5.4793">
        <ele>213.1</ele>
        <time>2025-10-19T11:37:54Z</time>
      </trkpt>
      <trkpt lat="43.20756" lon="5.47929">
        <ele>213.2</ele>
        <time>2025-10-19T11:37:55Z</time>
      </trkpt>
      <trkpt lat="43.20756" lon="5.47928">
        <ele>213.5</ele>
        <time>2025-10-19T11:37:56Z</time>
      </trkpt>
      <trkpt lat="43.20756" lon="5.47928">
        <ele>213.7</ele>
        <time>2025-10-19T11:37:57Z</time>
      </trkpt>
      <trkpt lat="43.20755" lon="5.47926">
        <ele>213.9</ele>
        <time>2025-10-19T11:37:58Z</time>
      </trkpt>
      <trkpt lat="43.20755" lon="5.47926">
        <ele>214.1</ele>
        <time>2025-10-19T11:37:59Z</time>
      </trkpt>
      <trkpt lat="43.20755" lon="5.47925">
        <ele>214.3</ele>
        <time>2025-10-19T11:38:00Z</time>
      </trkpt>
      <trkpt lat="43.20755" lon="5.47924">
        <ele>214.5</ele>
        <time>2025-10-19T11:38:01Z</time>
      </trkpt>
      <trkpt lat="43.20755" lon="5.47923">
        <ele>214.7</ele>
        <time>2025-10-19T11:38:02Z</time>
      </trkpt>
      <trkpt lat="43.20754" lon="5.47922">
        <ele>214.9</ele>
        <time>2025-10-19T11:38:03Z</time>
      </trkpt>
      <trkpt lat="43.20754" lon="5.47923">
        <ele>215</ele>
        <time>2025-10-19T11:38:04Z</time>
      </trkpt>
      <trkpt lat="43.20753" lon="5.47923">
        <ele>215.1</ele>
        <time>2025-10-19T11:38:05Z</time>
      </trkpt>
      <trkpt lat="43.20752" lon="5.47923">
        <ele>215.2</ele>
        <time>2025-10-19T11:38:06Z</time>
      </trkpt>
      <trkpt lat="43.20751" lon="5.47924">
        <ele>215.4</ele>
        <time>2025-10-19T11:38:07Z</time>
      </trkpt>
      <trkpt lat="43.2075" lon="5.47924">
        <ele>215.6</ele>
        <time>2025-10-19T11:38:08Z</time>
      </trkpt>
      <trkpt lat="43.2075" lon="5.47925">
        <ele>215.7</ele>
        <time>2025-10-19T11:38:09Z</time>
      </trkpt>
      <trkpt lat="43.2075" lon="5.47925">
        <ele>215.9</ele>
        <time>2025-10-19T11:38:10Z</time>
      </trkpt>
      <trkpt lat="43.20749" lon="5.47924">
        <ele>216.1</ele>
        <time>2025-10-19T11:38:11Z</time>
      </trkpt>
      <trkpt lat="43.20748" lon="5.47924">
        <ele>216.3</ele>
        <time>2025-10-19T11:38:12Z</time>
      </trkpt>
      <trkpt lat="43.20748" lon="5.47925">
        <ele>216.6</ele>
        <time>2025-10-19T11:38:13Z</time>
      </trkpt>
      <trkpt lat="43.20747" lon="5.47926">
        <ele>216.7</ele>
        <time>2025-10-19T11:38:14Z</time>
      </trkpt>
      <trkpt lat="43.20747" lon="5.47926">
        <ele>216.9</ele>
        <time>2025-10-19T11:38:15Z</time>
      </trkpt>
      <trkpt lat="43.20747" lon="5.47927">
        <ele>217.1</ele>
        <time>2025-10-19T11:38:16Z</time>
      </trkpt>
      <trkpt lat="43.20746" lon="5.47927">
        <ele>217.2</ele>
        <time>2025-10-19T11:38:17Z</time>
      </trkpt>
      <trkpt lat="43.20746" lon="5.47927">
        <ele>217.4</ele>
        <time>2025-10-19T11:38:18Z</time>
      </trkpt>
      <trkpt lat="43.20745" lon="5.47928">
        <ele>217.6</ele>
        <time>2025-10-19T11:38:19Z</time>
      </trkpt>
      <trkpt lat="43.20744" lon="5.47928">
        <ele>217.7</ele>
        <time>2025-10-19T11:38:20Z</time>
      </trkpt>
      <trkpt lat="43.20744" lon="5.47928">
        <ele>217.8</ele>
        <time>2025-10-19T11:38:21Z</time>
      </trkpt>
      <trkpt lat="43.20744" lon="5.47928">
        <ele>217.9</ele>
        <time>2025-10-19T11:38:22Z</time>
      </trkpt>
      <trkpt lat="43.20744" lon="5.47927">
        <ele>218.1</ele>
        <time>2025-10-19T11:38:23Z</time>
      </trkpt>
      <trkpt lat="43.20744" lon="5.47926">
        <ele>218.3</ele>
        <time>2025-10-19T11:38:24Z</time>
      </trkpt>
      <trkpt lat="43.20744" lon="5.47926">
        <ele>218.5</ele>
        <time>2025-10-19T11:38:25Z</time>
      </trkpt>
      <trkpt lat="43.20744" lon="5.47925">
        <ele>218.7</ele>
        <time>2025-10-19T11:38:26Z</time>
      </trkpt>
      <trkpt lat="43.20744" lon="5.47924">
        <ele>219</ele>
        <time>2025-10-19T11:38:27Z</time>
      </trkpt>
      <trkpt lat="43.20743" lon="5.47923">
        <ele>219.2</ele>
        <time>2025-10-19T11:38:28Z</time>
      </trkpt>
      <trkpt lat="43.20744" lon="5.47922">
        <ele>219.3</ele>
        <time>2025-10-19T11:38:29Z</time>
      </trkpt>
      <trkpt lat="43.20744" lon="5.47921">
        <ele>219.4</ele>
        <time>2025-10-19T11:38:30Z</time>
      </trkpt>
      <trkpt lat="43.20743" lon="5.4792">
        <ele>219.6</ele>
        <time>2025-10-19T11:38:31Z</time>
      </trkpt>
      <trkpt lat="43.20744" lon="5.47919">
        <ele>219.7</ele>
        <time>2025-10-19T11:38:32Z</time>
      </trkpt>
      <trkpt lat="43.20744" lon="5.47919">
        <ele>219.9</ele>
        <time>2025-10-19T11:38:33Z</time>
      </trkpt>
      <trkpt lat="43.20745" lon="5.47918">
        <ele>220</ele>
        <time>2025-10-19T11:38:34Z</time>
      </trkpt>
      <trkpt lat="43.20745" lon="5.47917">
        <ele>220.2</ele>
        <time>2025-10-19T11:38:35Z</time>
      </trkpt>
      <trkpt lat="43.20745" lon="5.47916">
        <ele>220.3</ele>
        <time>2025-10-19T11:38:36Z</time>
      </trkpt>
      <trkpt lat="43.20745" lon="5.47916">
        <ele>220.4</ele>
        <time>2025-10-19T11:38:37Z</time>
      </trkpt>
      <trkpt lat="43.20745" lon="5.47915">
        <ele>220.5</ele>
        <time>2025-10-19T11:38:38Z</time>
      </trkpt>
      <trkpt lat="43.20744" lon="5.47915">
        <ele>220.5</ele>
        <time>2025-10-19T11:38:39Z</time>
      </trkpt>
      <trkpt lat="43.20744" lon="5.47915">
        <ele>220.7</ele>
        <time>2025-10-19T11:38:40Z</time>
      </trkpt>
      <trkpt lat="43.20744" lon="5.47914">
        <ele>221</ele>
        <time>2025-10-19T11:38:41Z</time>
      </trkpt>
      <trkpt lat="43.20744" lon="5.47914">
        <ele>221.1</ele>
        <time>2025-10-19T11:38:42Z</time>
      </trkpt>
      <trkpt lat="43.20744" lon="5.47914">
        <ele>221.2</ele>
        <time>2025-10-19T11:38:43Z</time>
      </trkpt>
      <trkpt lat="43.20744" lon="5.47913">
        <ele>221.4</ele>
        <time>2025-10-19T11:38:44Z</time>
      </trkpt>
      <trkpt lat="43.20744" lon="5.47913">
        <ele>221.5</ele>
        <time>2025-10-19T11:38:45Z</time>
      </trkpt>
      <trkpt lat="43.20744" lon="5.47913">
        <ele>221.6</ele>
        <time>2025-10-19T11:38:46Z</time>
      </trkpt>
      <trkpt lat="43.20744" lon="5.47913">
        <ele>221.9</ele>
        <time>2025-10-19T11:38:47Z</time>
      </trkpt>
      <trkpt lat="43.20744" lon="5.47912">
        <ele>222.1</ele>
        <time>2025-10-19T11:38:48Z</time>
      </trkpt>
      <trkpt lat="43.20744" lon="5.47912">
        <ele>222.2</ele>
        <time>2025-10-19T11:38:49Z</time>
      </trkpt>
      <trkpt lat="43.20745" lon="5.47911">
        <ele>222.4</ele>
        <time>2025-10-19T11:38:50Z</time>
      </trkpt>
      <trkpt lat="43.20745" lon="5.4791">
        <ele>222.5</ele>
        <time>2025-10-19T11:38:51Z</time>
      </trkpt>
      <trkpt lat="43.20745" lon="5.4791">
        <ele>222.6</ele>
        <time>2025-10-19T11:38:52Z</time>
      </trkpt>
      <trkpt lat="43.20745" lon="5.47909">
        <ele>222.8</ele>
        <time>2025-10-19T11:38:53Z</time>
      </trkpt>
      <trkpt lat="43.20745" lon="5.47908">
        <ele>222.9</ele>
        <time>2025-10-19T11:38:54Z</time>
      </trkpt>
      <trkpt lat="43.20746" lon="5.47908">
        <ele>223</ele>
        <time>2025-10-19T11:38:55Z</time>
      </trkpt>
      <trkpt lat="43.20746" lon="5.47907">
        <ele>223.3</ele>
        <time>2025-10-19T11:38:56Z</time>
      </trkpt>
      <trkpt lat="43.20746" lon="5.47907">
        <ele>223.4</ele>
        <time>2025-10-19T11:38:57Z</time>
      </trkpt>
      <trkpt lat="43.20746" lon="5.47906">
        <ele>223.5</ele>
        <time>2025-10-19T11:38:58Z</time>
      </trkpt>
      <trkpt lat="43.20745" lon="5.47906">
        <ele>223.8</ele>
        <time>2025-10-19T11:38:59Z</time>
      </trkpt>
      <trkpt lat="43.20744" lon="5.47906">
        <ele>224</ele>
        <time>2025-10-19T11:39:00Z</time>
      </trkpt>
      <trkpt lat="43.20744" lon="5.47906">
        <ele>224.1</ele>
        <time>2025-10-19T11:39:01Z</time>
      </trkpt>
      <trkpt lat="43.20743" lon="5.47906">
        <ele>224.4</ele>
        <time>2025-10-19T11:39:02Z</time>
      </trkpt>
      <trkpt lat="43.20743" lon="5.47906">
        <ele>224.6</ele>
        <time>2025-10-19T11:39:03Z</time>
      </trkpt>
      <trkpt lat="43.20742" lon="5.47906">
        <ele>224.8</ele>
        <time>2025-10-19T11:39:04Z</time>
      </trkpt>
      <trkpt lat="43.20741" lon="5.47906">
        <ele>225.1</ele>
        <time>2025-10-19T11:39:05Z</time>
      </trkpt>
      <trkpt lat="43.2074" lon="5.47906">
        <ele>225.2</ele>
        <time>2025-10-19T11:39:06Z</time>
      </trkpt>
      <trkpt lat="43.2074" lon="5.47906">
        <ele>225.5</ele>
        <time>2025-10-19T11:39:07Z</time>
      </trkpt>
      <trkpt lat="43.2074" lon="5.47906">
        <ele>225.7</ele>
        <time>2025-10-19T11:39:08Z</time>
      </trkpt>
      <trkpt lat="43.20739" lon="5.47906">
        <ele>225.8</ele>
        <time>2025-10-19T11:39:09Z</time>
      </trkpt>
      <trkpt lat="43.20739" lon="5.47905">
        <ele>225.9</ele>
        <time>2025-10-19T11:39:10Z</time>
      </trkpt>
      <trkpt lat="43.20739" lon="5.47905">
        <ele>226.1</ele>
        <time>2025-10-19T11:39:11Z</time>
      </trkpt>
      <trkpt lat="43.20739" lon="5.47905">
        <ele>226.3</ele>
        <time>2025-10-19T11:39:12Z</time>
      </trkpt>
      <trkpt lat="43.20739" lon="5.47905">
        <ele>226.4</ele>
        <time>2025-10-19T11:39:13Z</time>
      </trkpt>
      <trkpt lat="43.20739" lon="5.47904">
        <ele>226.6</ele>
        <time>2025-10-19T11:39:14Z</time>
      </trkpt>
      <trkpt lat="43.20739" lon="5.47904">
        <ele>226.7</ele>
        <time>2025-10-19T11:39:15Z</time>
      </trkpt>
      <trkpt lat="43.20739" lon="5.47903">
        <ele>226.9</ele>
        <time>2025-10-19T11:39:16Z</time>
      </trkpt>
      <trkpt lat="43.20738" lon="5.47902">
        <ele>227</ele>
        <time>2025-10-19T11:39:17Z</time>
      </trkpt>
      <trkpt lat="43.20737" lon="5.47902">
        <ele>227.1</ele>
        <time>2025-10-19T11:39:18Z</time>
      </trkpt>
      <trkpt lat="43.20737" lon="5.47901">
        <ele>227.4</ele>
        <time>2025-10-19T11:39:19Z</time>
      </trkpt>
      <trkpt lat="43.20737" lon="5.479">
        <ele>227.5</ele>
        <time>2025-10-19T11:39:20Z</time>
      </trkpt>
      <trkpt lat="43.20737" lon="5.479">
        <ele>227.7</ele>
        <time>2025-10-19T11:39:21Z</time>
      </trkpt>
      <trkpt lat="43.20737" lon="5.47899">
        <ele>227.9</ele>
        <time>2025-10-19T11:39:22Z</time>
      </trkpt>
      <trkpt lat="43.20736" lon="5.47899">
        <ele>228.1</ele>
        <time>2025-10-19T11:39:23Z</time>
      </trkpt>
      <trkpt lat="43.20736" lon="5.47898">
        <ele>228.3</ele>
        <time>2025-10-19T11:39:24Z</time>
      </trkpt>
      <trkpt lat="43.20736" lon="5.47897">
        <ele>228.5</ele>
        <time>2025-10-19T11:39:25Z</time>
      </trkpt>
      <trkpt lat="43.20736" lon="5.47897">
        <ele>228.8</ele>
        <time>2025-10-19T11:39:26Z</time>
      </trkpt>
      <trkpt lat="43.20736" lon="5.47896">
        <ele>229.1</ele>
        <time>2025-10-19T11:39:27Z</time>
      </trkpt>
      <trkpt lat="43.20736" lon="5.47895">
        <ele>229.3</ele>
        <time>2025-10-19T11:39:28Z</time>
      </trkpt>
      <trkpt lat="43.20735" lon="5.47894">
        <ele>229.6</ele>
        <time>2025-10-19T11:39:29Z</time>
      </trkpt>
      <trkpt lat="43.20734" lon="5.47894">
        <ele>229.8</ele>
        <time>2025-10-19T11:39:30Z</time>
      </trkpt>
      <trkpt lat="43.20733" lon="5.47894">
        <ele>230.1</ele>
        <time>2025-10-19T11:39:31Z</time>
      </trkpt>
      <trkpt lat="43.20733" lon="5.47894">
        <ele>230.3</ele>
        <time>2025-10-19T11:39:32Z</time>
      </trkpt>
      <trkpt lat="43.20732" lon="5.47894">
        <ele>230.7</ele>
        <time>2025-10-19T11:39:33Z</time>
      </trkpt>
      <trkpt lat="43.20731" lon="5.47894">
        <ele>231</ele>
        <time>2025-10-19T11:39:34Z</time>
      </trkpt>
      <trkpt lat="43.20731" lon="5.47893">
        <ele>231.3</ele>
        <time>2025-10-19T11:39:35Z</time>
      </trkpt>
      <trkpt lat="43.2073" lon="5.47893">
        <ele>231.6</ele>
        <time>2025-10-19T11:39:36Z</time>
      </trkpt>
      <trkpt lat="43.2073" lon="5.47893">
        <ele>231.9</ele>
        <time>2025-10-19T11:39:37Z</time>
      </trkpt>
      <trkpt lat="43.2073" lon="5.47892">
        <ele>232.1</ele>
        <time>2025-10-19T11:39:38Z</time>
      </trkpt>
      <trkpt lat="43.2073" lon="5.47891">
        <ele>232.3</ele>
        <time>2025-10-19T11:39:39Z</time>
      </trkpt>
      <trkpt lat="43.20729" lon="5.47891">
        <ele>232.6</ele>
        <time>2025-10-19T11:39:40Z</time>
      </trkpt>
      <trkpt lat="43.20729" lon="5.4789">
        <ele>232.8</ele>
        <time>2025-10-19T11:39:41Z</time>
      </trkpt>
      <trkpt lat="43.20729" lon="5.4789">
        <ele>233</ele>
        <time>2025-10-19T11:39:42Z</time>
      </trkpt>
      <trkpt lat="43.20729" lon="5.47889">
        <ele>233.2</ele>
        <time>2025-10-19T11:39:43Z</time>
      </trkpt>
      <trkpt lat="43.20729" lon="5.47889">
        <ele>233.4</ele>
        <time>2025-10-19T11:39:44Z</time>
      </trkpt>
      <trkpt lat="43.20728" lon="5.47889">
        <ele>233.4</ele>
        <time>2025-10-19T11:39:45Z</time>
      </trkpt>
      <trkpt lat="43.20728" lon="5.47889">
        <ele>233.5</ele>
        <time>2025-10-19T11:39:46Z</time>
      </trkpt>
      <trkpt lat="43.20728" lon="5.47889">
        <ele>233.6</ele>
        <time>2025-10-19T11:39:47Z</time>
      </trkpt>
      <trkpt lat="43.20727" lon="5.47889">
        <ele>233.7</ele>
        <time>2025-10-19T11:39:48Z</time>
      </trkpt>
      <trkpt lat="43.20727" lon="5.47889">
        <ele>233.7</ele>
        <time>2025-10-19T11:39:49Z</time>
      </trkpt>
      <trkpt lat="43.20727" lon="5.47889">
        <ele>233.8</ele>
        <time>2025-10-19T11:39:50Z</time>
      </trkpt>
      <trkpt lat="43.20727" lon="5.47889">
        <ele>233.8</ele>
        <time>2025-10-19T11:39:51Z</time>
      </trkpt>
      <trkpt lat="43.20727" lon="5.47889">
        <ele>233.8</ele>
        <time>2025-10-19T11:39:52Z</time>
      </trkpt>
      <trkpt lat="43.20726" lon="5.47889">
        <ele>233.8</ele>
        <time>2025-10-19T11:39:53Z</time>
      </trkpt>
      <trkpt lat="43.20726" lon="5.47889">
        <ele>233.9</ele>
        <time>2025-10-19T11:39:54Z</time>
      </trkpt>
      <trkpt lat="43.20726" lon="5.47889">
        <ele>234</ele>
        <time>2025-10-19T11:39:55Z</time>
      </trkpt>
      <trkpt lat="43.20726" lon="5.47889">
        <ele>234</ele>
        <time>2025-10-19T11:39:56Z</time>
      </trkpt>
      <trkpt lat="43.20726" lon="5.47889">
        <ele>234</ele>
        <time>2025-10-19T11:39:57Z</time>
      </trkpt>
      <trkpt lat="43.20726" lon="5.47889">
        <ele>234</ele>
        <time>2025-10-19T11:39:58Z</time>
      </trkpt>
      <trkpt lat="43.20725" lon="5.47889">
        <ele>234</ele>
        <time>2025-10-19T11:39:59Z</time>
      </trkpt>
      <trkpt lat="43.20725" lon="5.47889">
        <ele>234.1</ele>
        <time>2025-10-19T11:40:00Z</time>
      </trkpt>
      <trkpt lat="43.20725" lon="5.47889">
        <ele>234.1</ele>
        <time>2025-10-19T11:40:01Z</time>
      </trkpt>
      <trkpt lat="43.20725" lon="5.47889">
        <ele>234.1</ele>
        <time>2025-10-19T11:40:02Z</time>
      </trkpt>
      <trkpt lat="43.20725" lon="5.47889">
        <ele>234.1</ele>
        <time>2025-10-19T11:40:03Z</time>
      </trkpt>
      <trkpt lat="43.20725" lon="5.47889">
        <ele>234.1</ele>
        <time>2025-10-19T11:40:04Z</time>
      </trkpt>
      <trkpt lat="43.20725" lon="5.47888">
        <ele>233.8</ele>
        <time>2025-10-19T11:40:05Z</time>
      </trkpt>
      <trkpt lat="43.20725" lon="5.47887">
        <ele>233.7</ele>
        <time>2025-10-19T11:40:06Z</time>
      </trkpt>
      <trkpt lat="43.20725" lon="5.47886">
        <ele>233.8</ele>
        <time>2025-10-19T11:40:07Z</time>
      </trkpt>
      <trkpt lat="43.20725" lon="5.47885">
        <ele>233.9</ele>
        <time>2025-10-19T11:40:08Z</time>
      </trkpt>
      <trkpt lat="43.20725" lon="5.47884">
        <ele>234</ele>
        <time>2025-10-19T11:40:09Z</time>
      </trkpt>
      <trkpt lat="43.20725" lon="5.47884">
        <ele>234.1</ele>
        <time>2025-10-19T11:40:10Z</time>
      </trkpt>
      <trkpt lat="43.20725" lon="5.47882">
        <ele>234.2</ele>
        <time>2025-10-19T11:40:11Z</time>
      </trkpt>
      <trkpt lat="43.20725" lon="5.47881">
        <ele>234.5</ele>
        <time>2025-10-19T11:40:12Z</time>
      </trkpt>
      <trkpt lat="43.20725" lon="5.47881">
        <ele>234.6</ele>
        <time>2025-10-19T11:40:13Z</time>
      </trkpt>
      <trkpt lat="43.20724" lon="5.4788">
        <ele>234.8</ele>
        <time>2025-10-19T11:40:14Z</time>
      </trkpt>
      <trkpt lat="43.20724" lon="5.4788">
        <ele>235</ele>
        <time>2025-10-19T11:40:15Z</time>
      </trkpt>
      <trkpt lat="43.20724" lon="5.4788">
        <ele>235.2</ele>
        <time>2025-10-19T11:40:16Z</time>
      </trkpt>
      <trkpt lat="43.20724" lon="5.4788">
        <ele>235.4</ele>
        <time>2025-10-19T11:40:17Z</time>
      </trkpt>
      <trkpt lat="43.20724" lon="5.4788">
        <ele>235.6</ele>
        <time>2025-10-19T11:40:18Z</time>
      </trkpt>
      <trkpt lat="43.20723" lon="5.4788">
        <ele>235.8</ele>
        <time>2025-10-19T11:40:19Z</time>
      </trkpt>
      <trkpt lat="43.20723" lon="5.4788">
        <ele>235.9</ele>
        <time>2025-10-19T11:40:20Z</time>
      </trkpt>
      <trkpt lat="43.20723" lon="5.4788">
        <ele>236</ele>
        <time>2025-10-19T11:40:21Z</time>
      </trkpt>
      <trkpt lat="43.20723" lon="5.47879">
        <ele>236</ele>
        <time>2025-10-19T11:40:22Z</time>
      </trkpt>
      <trkpt lat="43.20723" lon="5.47878">
        <ele>236.2</ele>
        <time>2025-10-19T11:40:23Z</time>
      </trkpt>
      <trkpt lat="43.20723" lon="5.47878">
        <ele>236.2</ele>
        <time>2025-10-19T11:40:24Z</time>
      </trkpt>
      <trkpt lat="43.20723" lon="5.47877">
        <ele>236.4</ele>
        <time>2025-10-19T11:40:25Z</time>
      </trkpt>
      <trkpt lat="43.20723" lon="5.47876">
        <ele>236.5</ele>
        <time>2025-10-19T11:40:26Z</time>
      </trkpt>
      <trkpt lat="43.20723" lon="5.47875">
        <ele>236.6</ele>
        <time>2025-10-19T11:40:27Z</time>
      </trkpt>
      <trkpt lat="43.20724" lon="5.47874">
        <ele>236.8</ele>
        <time>2025-10-19T11:40:28Z</time>
      </trkpt>
      <trkpt lat="43.20723" lon="5.47873">
        <ele>236.9</ele>
        <time>2025-10-19T11:40:29Z</time>
      </trkpt>
      <trkpt lat="43.20723" lon="5.47873">
        <ele>237</ele>
        <time>2025-10-19T11:40:30Z</time>
      </trkpt>
      <trkpt lat="43.20723" lon="5.47873">
        <ele>237</ele>
        <time>2025-10-19T11:40:31Z</time>
      </trkpt>
      <trkpt lat="43.20723" lon="5.47873">
        <ele>237</ele>
        <time>2025-10-19T11:40:32Z</time>
      </trkpt>
      <trkpt lat="43.20723" lon="5.47872">
        <ele>237</ele>
        <time>2025-10-19T11:40:33Z</time>
      </trkpt>
      <trkpt lat="43.20723" lon="5.47871">
        <ele>237</ele>
        <time>2025-10-19T11:40:34Z</time>
      </trkpt>
      <trkpt lat="43.20724" lon="5.4787">
        <ele>237</ele>
        <time>2025-10-19T11:40:35Z</time>
      </trkpt>
      <trkpt lat="43.20724" lon="5.47869">
        <ele>237</ele>
        <time>2025-10-19T11:40:36Z</time>
      </trkpt>
      <trkpt lat="43.20723" lon="5.47868">
        <ele>237</ele>
        <time>2025-10-19T11:40:37Z</time>
      </trkpt>
      <trkpt lat="43.20723" lon="5.47867">
        <ele>237.1</ele>
        <time>2025-10-19T11:40:38Z</time>
      </trkpt>
      <trkpt lat="43.20723" lon="5.47866">
        <ele>237.1</ele>
        <time>2025-10-19T11:40:39Z</time>
      </trkpt>
      <trkpt lat="43.20724" lon="5.47865">
        <ele>237.1</ele>
        <time>2025-10-19T11:40:40Z</time>
      </trkpt>
      <trkpt lat="43.20724" lon="5.47863">
        <ele>237.2</ele>
        <time>2025-10-19T11:40:41Z</time>
      </trkpt>
      <trkpt lat="43.20724" lon="5.47862">
        <ele>237.1</ele>
        <time>2025-10-19T11:40:42Z</time>
      </trkpt>
      <trkpt lat="43.20725" lon="5.47861">
        <ele>237.2</ele>
        <time>2025-10-19T11:40:43Z</time>
      </trkpt>
      <trkpt lat="43.20725" lon="5.4786">
        <ele>237.3</ele>
        <time>2025-10-19T11:40:44Z</time>
      </trkpt>
      <trkpt lat="43.20725" lon="5.47859">
        <ele>237.3</ele>
        <time>2025-10-19T11:40:45Z</time>
      </trkpt>
      <trkpt lat="43.20725" lon="5.47858">
        <ele>237.4</ele>
        <time>2025-10-19T11:40:46Z</time>
      </trkpt>
      <trkpt lat="43.20726" lon="5.47857">
        <ele>237.5</ele>
        <time>2025-10-19T11:40:47Z</time>
      </trkpt>
      <trkpt lat="43.20726" lon="5.47856">
        <ele>237.6</ele>
        <time>2025-10-19T11:40:48Z</time>
      </trkpt>
      <trkpt lat="43.20726" lon="5.47855">
        <ele>237.7</ele>
        <time>2025-10-19T11:40:49Z</time>
      </trkpt>
      <trkpt lat="43.20726" lon="5.47854">
        <ele>237.8</ele>
        <time>2025-10-19T11:40:50Z</time>
      </trkpt>
      <trkpt lat="43.20726" lon="5.47853">
        <ele>237.9</ele>
        <time>2025-10-19T11:40:51Z</time>
      </trkpt>
      <trkpt lat="43.20726" lon="5.47851">
        <ele>238</ele>
        <time>2025-10-19T11:40:52Z</time>
      </trkpt>
      <trkpt lat="43.20726" lon="5.4785">
        <ele>238.1</ele>
        <time>2025-10-19T11:40:53Z</time>
      </trkpt>
      <trkpt lat="43.20726" lon="5.4785">
        <ele>238.3</ele>
        <time>2025-10-19T11:40:54Z</time>
      </trkpt>
      <trkpt lat="43.20726" lon="5.47848">
        <ele>238.5</ele>
        <time>2025-10-19T11:40:55Z</time>
      </trkpt>
      <trkpt lat="43.20726" lon="5.47847">
        <ele>238.6</ele>
        <time>2025-10-19T11:40:56Z</time>
      </trkpt>
      <trkpt lat="43.20726" lon="5.47846">
        <ele>238.6</ele>
        <time>2025-10-19T11:40:57Z</time>
      </trkpt>
      <trkpt lat="43.20726" lon="5.47846">
        <ele>238.7</ele>
        <time>2025-10-19T11:40:58Z</time>
      </trkpt>
      <trkpt lat="43.20726" lon="5.47846">
        <ele>238.8</ele>
        <time>2025-10-19T11:40:59Z</time>
      </trkpt>
      <trkpt lat="43.20725" lon="5.47846">
        <ele>238.9</ele>
        <time>2025-10-19T11:41:00Z</time>
      </trkpt>
      <trkpt lat="43.20725" lon="5.47846">
        <ele>239</ele>
        <time>2025-10-19T11:41:01Z</time>
      </trkpt>
      <trkpt lat="43.20725" lon="5.47845">
        <ele>239</ele>
        <time>2025-10-19T11:41:02Z</time>
      </trkpt>
      <trkpt lat="43.20725" lon="5.47845">
        <ele>239.2</ele>
        <time>2025-10-19T11:41:03Z</time>
      </trkpt>
      <trkpt lat="43.20726" lon="5.47844">
        <ele>239.3</ele>
        <time>2025-10-19T11:41:04Z</time>
      </trkpt>
      <trkpt lat="43.20726" lon="5.47843">
        <ele>239.2</ele>
        <time>2025-10-19T11:41:05Z</time>
      </trkpt>
      <trkpt lat="43.20726" lon="5.47842">
        <ele>239.3</ele>
        <time>2025-10-19T11:41:06Z</time>
      </trkpt>
      <trkpt lat="43.20727" lon="5.47842">
        <ele>239.3</ele>
        <time>2025-10-19T11:41:07Z</time>
      </trkpt>
      <trkpt lat="43.20727" lon="5.47841">
        <ele>239.4</ele>
        <time>2025-10-19T11:41:08Z</time>
      </trkpt>
      <trkpt lat="43.20727" lon="5.47841">
        <ele>239.5</ele>
        <time>2025-10-19T11:41:09Z</time>
      </trkpt>
      <trkpt lat="43.20727" lon="5.47841">
        <ele>239.5</ele>
        <time>2025-10-19T11:41:10Z</time>
      </trkpt>
      <trkpt lat="43.20727" lon="5.47841">
        <ele>239.6</ele>
        <time>2025-10-19T11:41:11Z</time>
      </trkpt>
      <trkpt lat="43.20727" lon="5.47841">
        <ele>239.7</ele>
        <time>2025-10-19T11:41:12Z</time>
      </trkpt>
      <trkpt lat="43.20727" lon="5.47841">
        <ele>239.7</ele>
        <time>2025-10-19T11:41:13Z</time>
      </trkpt>
      <trkpt lat="43.20727" lon="5.47841">
        <ele>239.8</ele>
        <time>2025-10-19T11:41:14Z</time>
      </trkpt>
      <trkpt lat="43.20727" lon="5.47841">
        <ele>239.9</ele>
        <time>2025-10-19T11:41:15Z</time>
      </trkpt>
      <trkpt lat="43.20727" lon="5.4784">
        <ele>239.9</ele>
        <time>2025-10-19T11:41:16Z</time>
      </trkpt>
      <trkpt lat="43.20727" lon="5.4784">
        <ele>240</ele>
        <time>2025-10-19T11:41:17Z</time>
      </trkpt>
      <trkpt lat="43.20727" lon="5.4784">
        <ele>240</ele>
        <time>2025-10-19T11:41:18Z</time>
      </trkpt>
      <trkpt lat="43.20727" lon="5.4784">
        <ele>240</ele>
        <time>2025-10-19T11:41:19Z</time>
      </trkpt>
      <trkpt lat="43.20727" lon="5.4784">
        <ele>240.1</ele>
        <time>2025-10-19T11:41:20Z</time>
      </trkpt>
      <trkpt lat="43.20727" lon="5.47839">
        <ele>240.1</ele>
        <time>2025-10-19T11:41:21Z</time>
      </trkpt>
      <trkpt lat="43.20727" lon="5.47839">
        <ele>240.1</ele>
        <time>2025-10-19T11:41:22Z</time>
      </trkpt>
      <trkpt lat="43.20728" lon="5.47839">
        <ele>240</ele>
        <time>2025-10-19T11:41:23Z</time>
      </trkpt>
      <trkpt lat="43.20728" lon="5.47839">
        <ele>239.9</ele>
        <time>2025-10-19T11:41:24Z</time>
      </trkpt>
      <trkpt lat="43.20728" lon="5.47839">
        <ele>240.1</ele>
        <time>2025-10-19T11:41:25Z</time>
      </trkpt>
      <trkpt lat="43.20728" lon="5.4784">
        <ele>240.2</ele>
        <time>2025-10-19T11:41:26Z</time>
      </trkpt>
      <trkpt lat="43.20728" lon="5.4784">
        <ele>240.2</ele>
        <time>2025-10-19T11:41:27Z</time>
      </trkpt>
      <trkpt lat="43.20728" lon="5.4784">
        <ele>240.2</ele>
        <time>2025-10-19T11:41:28Z</time>
      </trkpt>
      <trkpt lat="43.20728" lon="5.4784">
        <ele>240.3</ele>
        <time>2025-10-19T11:41:29Z</time>
      </trkpt>
      <trkpt lat="43.20728" lon="5.4784">
        <ele>240.4</ele>
        <time>2025-10-19T11:41:30Z</time>
      </trkpt>
      <trkpt lat="43.20728" lon="5.4784">
        <ele>240.4</ele>
        <time>2025-10-19T11:41:31Z</time>
      </trkpt>
      <trkpt lat="43.20729" lon="5.4784">
        <ele>240.5</ele>
        <time>2025-10-19T11:41:32Z</time>
      </trkpt>
      <trkpt lat="43.20729" lon="5.47841">
        <ele>240.5</ele>
        <time>2025-10-19T11:41:33Z</time>
      </trkpt>
      <trkpt lat="43.20729" lon="5.47841">
        <ele>240.5</ele>
        <time>2025-10-19T11:41:34Z</time>
      </trkpt>
      <trkpt lat="43.20729" lon="5.47841">
        <ele>240.6</ele>
        <time>2025-10-19T11:41:35Z</time>
      </trkpt>
      <trkpt lat="43.20729" lon="5.47841">
        <ele>240.6</ele>
        <time>2025-10-19T11:41:36Z</time>
      </trkpt>
      <trkpt lat="43.20729" lon="5.47841">
        <ele>240.6</ele>
        <time>2025-10-19T11:41:37Z</time>
      </trkpt>
      <trkpt lat="43.20729" lon="5.47841">
        <ele>240.7</ele>
        <time>2025-10-19T11:41:38Z</time>
      </trkpt>
      <trkpt lat="43.20729" lon="5.47841">
        <ele>240.6</ele>
        <time>2025-10-19T11:41:39Z</time>
      </trkpt>
      <trkpt lat="43.20729" lon="5.47841">
        <ele>240.5</ele>
        <time>2025-10-19T11:41:40Z</time>
      </trkpt>
      <trkpt lat="43.20729" lon="5.47842">
        <ele>240.5</ele>
        <time>2025-10-19T11:41:41Z</time>
      </trkpt>
      <trkpt lat="43.20729" lon="5.47842">
        <ele>240.5</ele>
        <time>2025-10-19T11:41:42Z</time>
      </trkpt>
      <trkpt lat="43.2073" lon="5.47841">
        <ele>240.5</ele>
        <time>2025-10-19T11:41:43Z</time>
      </trkpt>
      <trkpt lat="43.2073" lon="5.47841">
        <ele>240.5</ele>
        <time>2025-10-19T11:41:44Z</time>
      </trkpt>
      <trkpt lat="43.2073" lon="5.47841">
        <ele>240.6</ele>
        <time>2025-10-19T11:41:45Z</time>
      </trkpt>
      <trkpt lat="43.2073" lon="5.47841">
        <ele>240.7</ele>
        <time>2025-10-19T11:41:46Z</time>
      </trkpt>
      <trkpt lat="43.2073" lon="5.47841">
        <ele>240.8</ele>
        <time>2025-10-19T11:41:47Z</time>
      </trkpt>
      <trkpt lat="43.2073" lon="5.4784">
        <ele>240.9</ele>
        <time>2025-10-19T11:41:48Z</time>
      </trkpt>
      <trkpt lat="43.2073" lon="5.4784">
        <ele>240.8</ele>
        <time>2025-10-19T11:41:49Z</time>
      </trkpt>
      <trkpt lat="43.2073" lon="5.4784">
        <ele>240.8</ele>
        <time>2025-10-19T11:41:50Z</time>
      </trkpt>
      <trkpt lat="43.2073" lon="5.4784">
        <ele>240.8</ele>
        <time>2025-10-19T11:41:51Z</time>
      </trkpt>
      <trkpt lat="43.2073" lon="5.4784">
        <ele>240.8</ele>
        <time>2025-10-19T11:41:52Z</time>
      </trkpt>
      <trkpt lat="43.2073" lon="5.4784">
        <ele>240.8</ele>
        <time>2025-10-19T11:41:53Z</time>
      </trkpt>
      <trkpt lat="43.2073" lon="5.4784">
        <ele>240.8</ele>
        <time>2025-10-19T11:41:54Z</time>
      </trkpt>
      <trkpt lat="43.2073" lon="5.4784">
        <ele>240.7</ele>
        <time>2025-10-19T11:41:55Z</time>
      </trkpt>
      <trkpt lat="43.2073" lon="5.4784">
        <ele>240.7</ele>
        <time>2025-10-19T11:41:56Z</time>
      </trkpt>
      <trkpt lat="43.20729" lon="5.4784">
        <ele>240.8</ele>
        <time>2025-10-19T11:41:57Z</time>
      </trkpt>
      <trkpt lat="43.20729" lon="5.4784">
        <ele>240.9</ele>
        <time>2025-10-19T11:41:58Z</time>
      </trkpt>
      <trkpt lat="43.20729" lon="5.4784">
        <ele>240.9</ele>
        <time>2025-10-19T11:41:59Z</time>
      </trkpt>
      <trkpt lat="43.20729" lon="5.4784">
        <ele>240.9</ele>
        <time>2025-10-19T11:42:00Z</time>
      </trkpt>
      <trkpt lat="43.20729" lon="5.4784">
        <ele>240.9</ele>
        <time>2025-10-19T11:42:01Z</time>
      </trkpt>
      <trkpt lat="43.20729" lon="5.4784">
        <ele>241</ele>
        <time>2025-10-19T11:42:02Z</time>
      </trkpt>
      <trkpt lat="43.20729" lon="5.4784">
        <ele>241</ele>
        <time>2025-10-19T11:42:03Z</time>
      </trkpt>
      <trkpt lat="43.20729" lon="5.4784">
        <ele>241</ele>
        <time>2025-10-19T11:42:04Z</time>
      </trkpt>
      <trkpt lat="43.20729" lon="5.4784">
        <ele>241.1</ele>
        <time>2025-10-19T11:42:05Z</time>
      </trkpt>
      <trkpt lat="43.20729" lon="5.4784">
        <ele>241.1</ele>
        <time>2025-10-19T11:42:06Z</time>
      </trkpt>
      <trkpt lat="43.20729" lon="5.47841">
        <ele>241</ele>
        <time>2025-10-19T11:42:07Z</time>
      </trkpt>
      <trkpt lat="43.20729" lon="5.47841">
        <ele>241</ele>
        <time>2025-10-19T11:42:08Z</time>
      </trkpt>
      <trkpt lat="43.20728" lon="5.47841">
        <ele>241</ele>
        <time>2025-10-19T11:42:09Z</time>
      </trkpt>
      <trkpt lat="43.20728" lon="5.4784">
        <ele>241</ele>
        <time>2025-10-19T11:42:10Z</time>
      </trkpt>
      <trkpt lat="43.20728" lon="5.47841">
        <ele>240.9</ele>
        <time>2025-10-19T11:42:11Z</time>
      </trkpt>
      <trkpt lat="43.20728" lon="5.47841">
        <ele>240.9</ele>
        <time>2025-10-19T11:42:12Z</time>
      </trkpt>
      <trkpt lat="43.20728" lon="5.47841">
        <ele>240.8</ele>
        <time>2025-10-19T11:42:13Z</time>
      </trkpt>
      <trkpt lat="43.20728" lon="5.47841">
        <ele>240.8</ele>
        <time>2025-10-19T11:42:14Z</time>
      </trkpt>
      <trkpt lat="43.20728" lon="5.47841">
        <ele>240.8</ele>
        <time>2025-10-19T11:42:15Z</time>
      </trkpt>
      <trkpt lat="43.20728" lon="5.4784">
        <ele>240.8</ele>
        <time>2025-10-19T11:42:16Z</time>
      </trkpt>
      <trkpt lat="43.20728" lon="5.4784">
        <ele>240.8</ele>
        <time>2025-10-19T11:42:17Z</time>
      </trkpt>
      <trkpt lat="43.20728" lon="5.4784">
        <ele>240.7</ele>
        <time>2025-10-19T11:42:18Z</time>
      </trkpt>
      <trkpt lat="43.20728" lon="5.4784">
        <ele>240.6</ele>
        <time>2025-10-19T11:42:19Z</time>
      </trkpt>
      <trkpt lat="43.20728" lon="5.4784">
        <ele>240.5</ele>
        <time>2025-10-19T11:42:20Z</time>
      </trkpt>
      <trkpt lat="43.20728" lon="5.4784">
        <ele>240.3</ele>
        <time>2025-10-19T11:42:21Z</time>
      </trkpt>
      <trkpt lat="43.20728" lon="5.4784">
        <ele>240.3</ele>
        <time>2025-10-19T11:42:22Z</time>
      </trkpt>
      <trkpt lat="43.20728" lon="5.4784">
        <ele>240.2</ele>
        <time>2025-10-19T11:42:23Z</time>
      </trkpt>
      <trkpt lat="43.20728" lon="5.4784">
        <ele>240.2</ele>
        <time>2025-10-19T11:42:24Z</time>
      </trkpt>
      <trkpt lat="43.20728" lon="5.4784">
        <ele>240.1</ele>
        <time>2025-10-19T11:42:25Z</time>
      </trkpt>
      <trkpt lat="43.20728" lon="5.4784">
        <ele>240.1</ele>
        <time>2025-10-19T11:42:26Z</time>
      </trkpt>
      <trkpt lat="43.20728" lon="5.4784">
        <ele>240.1</ele>
        <time>2025-10-19T11:42:27Z</time>
      </trkpt>
      <trkpt lat="43.20728" lon="5.4784">
        <ele>240.1</ele>
        <time>2025-10-19T11:42:28Z</time>
      </trkpt>
      <trkpt lat="43.20728" lon="5.4784">
        <ele>240.1</ele>
        <time>2025-10-19T11:42:29Z</time>
      </trkpt>
      <trkpt lat="43.20728" lon="5.4784">
        <ele>240.1</ele>
        <time>2025-10-19T11:42:30Z</time>
      </trkpt>
      <trkpt lat="43.20728" lon="5.4784">
        <ele>240</ele>
        <time>2025-10-19T11:42:31Z</time>
      </trkpt>
      <trkpt lat="43.20728" lon="5.4784">
        <ele>239.9</ele>
        <time>2025-10-19T11:42:32Z</time>
      </trkpt>
      <trkpt lat="43.20728" lon="5.4784">
        <ele>240</ele>
        <time>2025-10-19T11:42:33Z</time>
      </trkpt>
      <trkpt lat="43.20728" lon="5.47839">
        <ele>240</ele>
        <time>2025-10-19T11:42:34Z</time>
      </trkpt>
      <trkpt lat="43.20729" lon="5.47839">
        <ele>240</ele>
        <time>2025-10-19T11:42:35Z</time>
      </trkpt>
      <trkpt lat="43.20729" lon="5.47839">
        <ele>240</ele>
        <time>2025-10-19T11:42:36Z</time>
      </trkpt>
      <trkpt lat="43.20729" lon="5.47839">
        <ele>239.9</ele>
        <time>2025-10-19T11:42:37Z</time>
      </trkpt>
      <trkpt lat="43.20729" lon="5.47839">
        <ele>239.9</ele>
        <time>2025-10-19T11:42:38Z</time>
      </trkpt>
      <trkpt lat="43.20729" lon="5.47839">
        <ele>239.8</ele>
        <time>2025-10-19T11:42:39Z</time>
      </trkpt>
      <trkpt lat="43.20729" lon="5.47839">
        <ele>239.8</ele>
        <time>2025-10-19T11:42:40Z</time>
      </trkpt>
      <trkpt lat="43.20729" lon="5.47838">
        <ele>239.8</ele>
        <time>2025-10-19T11:42:41Z</time>
      </trkpt>
      <trkpt lat="43.20729" lon="5.47838">
        <ele>239.8</ele>
        <time>2025-10-19T11:42:42Z</time>
      </trkpt>
      <trkpt lat="43.2073" lon="5.47837">
        <ele>239.8</ele>
        <time>2025-10-19T11:42:43Z</time>
      </trkpt>
      <trkpt lat="43.2073" lon="5.47836">
        <ele>239.8</ele>
        <time>2025-10-19T11:42:44Z</time>
      </trkpt>
      <trkpt lat="43.20731" lon="5.47835">
        <ele>239.9</ele>
        <time>2025-10-19T11:42:45Z</time>
      </trkpt>
      <trkpt lat="43.20731" lon="5.47835">
        <ele>239.9</ele>
        <time>2025-10-19T11:42:46Z</time>
      </trkpt>
      <trkpt lat="43.20731" lon="5.47835">
        <ele>240</ele>
        <time>2025-10-19T11:42:47Z</time>
      </trkpt>
      <trkpt lat="43.20731" lon="5.47835">
        <ele>240</ele>
        <time>2025-10-19T11:42:48Z</time>
      </trkpt>
      <trkpt lat="43.20731" lon="5.47834">
        <ele>240.1</ele>
        <time>2025-10-19T11:42:49Z</time>
      </trkpt>
      <trkpt lat="43.20732" lon="5.47834">
        <ele>240.2</ele>
        <time>2025-10-19T11:42:50Z</time>
      </trkpt>
      <trkpt lat="43.20732" lon="5.47833">
        <ele>240.2</ele>
        <time>2025-10-19T11:42:51Z</time>
      </trkpt>
      <trkpt lat="43.20733" lon="5.47832">
        <ele>240.2</ele>
        <time>2025-10-19T11:42:52Z</time>
      </trkpt>
      <trkpt lat="43.20734" lon="5.4783">
        <ele>240.3</ele>
        <time>2025-10-19T11:42:53Z</time>
      </trkpt>
      <trkpt lat="43.20734" lon="5.47829">
        <ele>240.3</ele>
        <time>2025-10-19T11:42:54Z</time>
      </trkpt>
      <trkpt lat="43.20735" lon="5.47828">
        <ele>240.4</ele>
        <time>2025-10-19T11:42:55Z</time>
      </trkpt>
      <trkpt lat="43.20735" lon="5.47827">
        <ele>240.6</ele>
        <time>2025-10-19T11:42:56Z</time>
      </trkpt>
      <trkpt lat="43.20736" lon="5.47826">
        <ele>240.7</ele>
        <time>2025-10-19T11:42:57Z</time>
      </trkpt>
      <trkpt lat="43.20736" lon="5.47825">
        <ele>241</ele>
        <time>2025-10-19T11:42:58Z</time>
      </trkpt>
      <trkpt lat="43.20736" lon="5.47823">
        <ele>241.2</ele>
        <time>2025-10-19T11:42:59Z</time>
      </trkpt>
      <trkpt lat="43.20736" lon="5.47822">
        <ele>241.5</ele>
        <time>2025-10-19T11:43:00Z</time>
      </trkpt>
      <trkpt lat="43.20737" lon="5.4782">
        <ele>241.6</ele>
        <time>2025-10-19T11:43:01Z</time>
      </trkpt>
      <trkpt lat="43.20738" lon="5.47819">
        <ele>241.9</ele>
        <time>2025-10-19T11:43:02Z</time>
      </trkpt>
      <trkpt lat="43.20738" lon="5.47817">
        <ele>242</ele>
        <time>2025-10-19T11:43:03Z</time>
      </trkpt>
      <trkpt lat="43.20739" lon="5.47817">
        <ele>242.1</ele>
        <time>2025-10-19T11:43:04Z</time>
      </trkpt>
      <trkpt lat="43.2074" lon="5.47816">
        <ele>242.2</ele>
        <time>2025-10-19T11:43:05Z</time>
      </trkpt>
      <trkpt lat="43.2074" lon="5.47815">
        <ele>242.4</ele>
        <time>2025-10-19T11:43:06Z</time>
      </trkpt>
      <trkpt lat="43.20741" lon="5.47815">
        <ele>242.5</ele>
        <time>2025-10-19T11:43:07Z</time>
      </trkpt>
      <trkpt lat="43.20741" lon="5.47815">
        <ele>242.6</ele>
        <time>2025-10-19T11:43:08Z</time>
      </trkpt>
      <trkpt lat="43.20742" lon="5.47815">
        <ele>242.7</ele>
        <time>2025-10-19T11:43:09Z</time>
      </trkpt>
      <trkpt lat="43.20742" lon="5.47814">
        <ele>242.9</ele>
        <time>2025-10-19T11:43:10Z</time>
      </trkpt>
      <trkpt lat="43.20743" lon="5.47814">
        <ele>243.1</ele>
        <time>2025-10-19T11:43:11Z</time>
      </trkpt>
      <trkpt lat="43.20743" lon="5.47813">
        <ele>243.2</ele>
        <time>2025-10-19T11:43:12Z</time>
      </trkpt>
      <trkpt lat="43.20743" lon="5.47812">
        <ele>243.4</ele>
        <time>2025-10-19T11:43:13Z</time>
      </trkpt>
      <trkpt lat="43.20743" lon="5.47811">
        <ele>243.5</ele>
        <time>2025-10-19T11:43:14Z</time>
      </trkpt>
      <trkpt lat="43.20743" lon="5.47811">
        <ele>243.6</ele>
        <time>2025-10-19T11:43:15Z</time>
      </trkpt>
      <trkpt lat="43.20743" lon="5.4781">
        <ele>243.7</ele>
        <time>2025-10-19T11:43:16Z</time>
      </trkpt>
      <trkpt lat="43.20743" lon="5.47809">
        <ele>243.8</ele>
        <time>2025-10-19T11:43:17Z</time>
      </trkpt>
      <trkpt lat="43.20744" lon="5.47809">
        <ele>243.9</ele>
        <time>2025-10-19T11:43:18Z</time>
      </trkpt>
      <trkpt lat="43.20744" lon="5.47808">
        <ele>244</ele>
        <time>2025-10-19T11:43:19Z</time>
      </trkpt>
      <trkpt lat="43.20744" lon="5.47807">
        <ele>244.2</ele>
        <time>2025-10-19T11:43:20Z</time>
      </trkpt>
      <trkpt lat="43.20744" lon="5.47806">
        <ele>244.3</ele>
        <time>2025-10-19T11:43:21Z</time>
      </trkpt>
      <trkpt lat="43.20744" lon="5.47805">
        <ele>244.4</ele>
        <time>2025-10-19T11:43:22Z</time>
      </trkpt>
      <trkpt lat="43.20744" lon="5.47805">
        <ele>244.5</ele>
        <time>2025-10-19T11:43:23Z</time>
      </trkpt>
      <trkpt lat="43.20744" lon="5.47804">
        <ele>244.6</ele>
        <time>2025-10-19T11:43:24Z</time>
      </trkpt>
      <trkpt lat="43.20744" lon="5.47803">
        <ele>244.6</ele>
        <time>2025-10-19T11:43:25Z</time>
      </trkpt>
      <trkpt lat="43.20744" lon="5.47802">
        <ele>244.7</ele>
        <time>2025-10-19T11:43:26Z</time>
      </trkpt>
      <trkpt lat="43.20745" lon="5.47801">
        <ele>244.8</ele>
        <time>2025-10-19T11:43:27Z</time>
      </trkpt>
      <trkpt lat="43.20745" lon="5.478">
        <ele>245.1</ele>
        <time>2025-10-19T11:43:28Z</time>
      </trkpt>
      <trkpt lat="43.20745" lon="5.47799">
        <ele>245.3</ele>
        <time>2025-10-19T11:43:29Z</time>
      </trkpt>
      <trkpt lat="43.20745" lon="5.47798">
        <ele>245.5</ele>
        <time>2025-10-19T11:43:30Z</time>
      </trkpt>
      <trkpt lat="43.20746" lon="5.47798">
        <ele>245.7</ele>
        <time>2025-10-19T11:43:31Z</time>
      </trkpt>
      <trkpt lat="43.20746" lon="5.47797">
        <ele>245.9</ele>
        <time>2025-10-19T11:43:32Z</time>
      </trkpt>
      <trkpt lat="43.20747" lon="5.47797">
        <ele>246</ele>
        <time>2025-10-19T11:43:33Z</time>
      </trkpt>
      <trkpt lat="43.20747" lon="5.47797">
        <ele>246.1</ele>
        <time>2025-10-19T11:43:34Z</time>
      </trkpt>
      <trkpt lat="43.20748" lon="5.47798">
        <ele>246.1</ele>
        <time>2025-10-19T11:43:35Z</time>
      </trkpt>
      <trkpt lat="43.20748" lon="5.47798">
        <ele>246.2</ele>
        <time>2025-10-19T11:43:36Z</time>
      </trkpt>
      <trkpt lat="43.20749" lon="5.47798">
        <ele>246.2</ele>
        <time>2025-10-19T11:43:37Z</time>
      </trkpt>
      <trkpt lat="43.20749" lon="5.47797">
        <ele>246.5</ele>
        <time>2025-10-19T11:43:38Z</time>
      </trkpt>
      <trkpt lat="43.2075" lon="5.47797">
        <ele>246.7</ele>
        <time>2025-10-19T11:43:39Z</time>
      </trkpt>
      <trkpt lat="43.2075" lon="5.47796">
        <ele>247</ele>
        <time>2025-10-19T11:43:40Z</time>
      </trkpt>
      <trkpt lat="43.2075" lon="5.47795">
        <ele>247</ele>
        <time>2025-10-19T11:43:41Z</time>
      </trkpt>
      <trkpt lat="43.20751" lon="5.47794">
        <ele>247</ele>
        <time>2025-10-19T11:43:42Z</time>
      </trkpt>
      <trkpt lat="43.20751" lon="5.47794">
        <ele>247.1</ele>
        <time>2025-10-19T11:43:43Z</time>
      </trkpt>
      <trkpt lat="43.20752" lon="5.47793">
        <ele>247.2</ele>
        <time>2025-10-19T11:43:44Z</time>
      </trkpt>
      <trkpt lat="43.20752" lon="5.47792">
        <ele>247.3</ele>
        <time>2025-10-19T11:43:45Z</time>
      </trkpt>
      <trkpt lat="43.20753" lon="5.47791">
        <ele>247.5</ele>
        <time>2025-10-19T11:43:46Z</time>
      </trkpt>
      <trkpt lat="43.20753" lon="5.4779">
        <ele>247.7</ele>
        <time>2025-10-19T11:43:47Z</time>
      </trkpt>
      <trkpt lat="43.20753" lon="5.47789">
        <ele>247.8</ele>
        <time>2025-10-19T11:43:48Z</time>
      </trkpt>
      <trkpt lat="43.20753" lon="5.47789">
        <ele>247.8</ele>
        <time>2025-10-19T11:43:49Z</time>
      </trkpt>
      <trkpt lat="43.20753" lon="5.47787">
        <ele>247.9</ele>
        <time>2025-10-19T11:43:50Z</time>
      </trkpt>
      <trkpt lat="43.20753" lon="5.47787">
        <ele>247.9</ele>
        <time>2025-10-19T11:43:51Z</time>
      </trkpt>
      <trkpt lat="43.20754" lon="5.47786">
        <ele>248</ele>
        <time>2025-10-19T11:43:52Z</time>
      </trkpt>
      <trkpt lat="43.20754" lon="5.47785">
        <ele>248.1</ele>
        <time>2025-10-19T11:43:53Z</time>
      </trkpt>
      <trkpt lat="43.20754" lon="5.47784">
        <ele>248.2</ele>
        <time>2025-10-19T11:43:54Z</time>
      </trkpt>
      <trkpt lat="43.20755" lon="5.47783">
        <ele>248.3</ele>
        <time>2025-10-19T11:43:55Z</time>
      </trkpt>
      <trkpt lat="43.20755" lon="5.47783">
        <ele>248.4</ele>
        <time>2025-10-19T11:43:56Z</time>
      </trkpt>
      <trkpt lat="43.20756" lon="5.47782">
        <ele>248.6</ele>
        <time>2025-10-19T11:43:57Z</time>
      </trkpt>
      <trkpt lat="43.20756" lon="5.47781">
        <ele>248.8</ele>
        <time>2025-10-19T11:43:58Z</time>
      </trkpt>
      <trkpt lat="43.20756" lon="5.47781">
        <ele>249</ele>
        <time>2025-10-19T11:43:59Z</time>
      </trkpt>
      <trkpt lat="43.20756" lon="5.4778">
        <ele>249.2</ele>
        <time>2025-10-19T11:44:00Z</time>
      </trkpt>
      <trkpt lat="43.20757" lon="5.4778">
        <ele>249.3</ele>
        <time>2025-10-19T11:44:01Z</time>
      </trkpt>
      <trkpt lat="43.20757" lon="5.47779">
        <ele>249.4</ele>
        <time>2025-10-19T11:44:02Z</time>
      </trkpt>
      <trkpt lat="43.20757" lon="5.47779">
        <ele>249.5</ele>
        <time>2025-10-19T11:44:03Z</time>
      </trkpt>
      <trkpt lat="43.20758" lon="5.47778">
        <ele>249.7</ele>
        <time>2025-10-19T11:44:04Z</time>
      </trkpt>
      <trkpt lat="43.20758" lon="5.47778">
        <ele>249.9</ele>
        <time>2025-10-19T11:44:05Z</time>
      </trkpt>
      <trkpt lat="43.20758" lon="5.47777">
        <ele>250</ele>
        <time>2025-10-19T11:44:06Z</time>
      </trkpt>
      <trkpt lat="43.20758" lon="5.47776">
        <ele>250.1</ele>
        <time>2025-10-19T11:44:07Z</time>
      </trkpt>
      <trkpt lat="43.20759" lon="5.47775">
        <ele>250.2</ele>
        <time>2025-10-19T11:44:08Z</time>
      </trkpt>
      <trkpt lat="43.20759" lon="5.47775">
        <ele>250.3</ele>
        <time>2025-10-19T11:44:09Z</time>
      </trkpt>
      <trkpt lat="43.20759" lon="5.47775">
        <ele>250.4</ele>
        <time>2025-10-19T11:44:10Z</time>
      </trkpt>
      <trkpt lat="43.20759" lon="5.47775">
        <ele>250.5</ele>
        <time>2025-10-19T11:44:11Z</time>
      </trkpt>
      <trkpt lat="43.20759" lon="5.47776">
        <ele>250.6</ele>
        <time>2025-10-19T11:44:12Z</time>
      </trkpt>
      <trkpt lat="43.20759" lon="5.47776">
        <ele>250.7</ele>
        <time>2025-10-19T11:44:13Z</time>
      </trkpt>
      <trkpt lat="43.20758" lon="5.47776">
        <ele>250.8</ele>
        <time>2025-10-19T11:44:14Z</time>
      </trkpt>
      <trkpt lat="43.20758" lon="5.47776">
        <ele>250.8</ele>
        <time>2025-10-19T11:44:15Z</time>
      </trkpt>
      <trkpt lat="43.20758" lon="5.47776">
        <ele>250.9</ele>
        <time>2025-10-19T11:44:16Z</time>
      </trkpt>
      <trkpt lat="43.20758" lon="5.47776">
        <ele>251</ele>
        <time>2025-10-19T11:44:17Z</time>
      </trkpt>
      <trkpt lat="43.20759" lon="5.47776">
        <ele>251</ele>
        <time>2025-10-19T11:44:18Z</time>
      </trkpt>
      <trkpt lat="43.20759" lon="5.47776">
        <ele>250.9</ele>
        <time>2025-10-19T11:44:19Z</time>
      </trkpt>
      <trkpt lat="43.20759" lon="5.47776">
        <ele>251</ele>
        <time>2025-10-19T11:44:20Z</time>
      </trkpt>
      <trkpt lat="43.20759" lon="5.47776">
        <ele>250.9</ele>
        <time>2025-10-19T11:44:21Z</time>
      </trkpt>
      <trkpt lat="43.20759" lon="5.47776">
        <ele>250.9</ele>
        <time>2025-10-19T11:44:22Z</time>
      </trkpt>
      <trkpt lat="43.20759" lon="5.47776">
        <ele>250.9</ele>
        <time>2025-10-19T11:44:23Z</time>
      </trkpt>
      <trkpt lat="43.20759" lon="5.47776">
        <ele>250.8</ele>
        <time>2025-10-19T11:44:24Z</time>
      </trkpt>
      <trkpt lat="43.20759" lon="5.47776">
        <ele>250.8</ele>
        <time>2025-10-19T11:44:25Z</time>
      </trkpt>
      <trkpt lat="43.20759" lon="5.47776">
        <ele>250.8</ele>
        <time>2025-10-19T11:44:26Z</time>
      </trkpt>
      <trkpt lat="43.20759" lon="5.47776">
        <ele>250.8</ele>
        <time>2025-10-19T11:44:27Z</time>
      </trkpt>
      <trkpt lat="43.20759" lon="5.47776">
        <ele>250.9</ele>
        <time>2025-10-19T11:44:28Z</time>
      </trkpt>
      <trkpt lat="43.20759" lon="5.47776">
        <ele>250.9</ele>
        <time>2025-10-19T11:44:29Z</time>
      </trkpt>
      <trkpt lat="43.20759" lon="5.47776">
        <ele>250.9</ele>
        <time>2025-10-19T11:44:30Z</time>
      </trkpt>
      <trkpt lat="43.20759" lon="5.47776">
        <ele>250.9</ele>
        <time>2025-10-19T11:44:31Z</time>
      </trkpt>
      <trkpt lat="43.20759" lon="5.47776">
        <ele>250.9</ele>
        <time>2025-10-19T11:44:32Z</time>
      </trkpt>
      <trkpt lat="43.20759" lon="5.47776">
        <ele>250.9</ele>
        <time>2025-10-19T11:44:33Z</time>
      </trkpt>
      <trkpt lat="43.20759" lon="5.47776">
        <ele>250.8</ele>
        <time>2025-10-19T11:44:34Z</time>
      </trkpt>
      <trkpt lat="43.20759" lon="5.47776">
        <ele>250.8</ele>
        <time>2025-10-19T11:44:35Z</time>
      </trkpt>
      <trkpt lat="43.20759" lon="5.47776">
        <ele>250.9</ele>
        <time>2025-10-19T11:44:36Z</time>
      </trkpt>
      <trkpt lat="43.20759" lon="5.47776">
        <ele>250.9</ele>
        <time>2025-10-19T11:44:37Z</time>
      </trkpt>
      <trkpt lat="43.20759" lon="5.47776">
        <ele>250.9</ele>
        <time>2025-10-19T11:44:38Z</time>
      </trkpt>
      <trkpt lat="43.20759" lon="5.47776">
        <ele>250.8</ele>
        <time>2025-10-19T11:44:39Z</time>
      </trkpt>
      <trkpt lat="43.20759" lon="5.47776">
        <ele>250.8</ele>
        <time>2025-10-19T11:44:40Z</time>
      </trkpt>
      <trkpt lat="43.20759" lon="5.47776">
        <ele>251</ele>
        <time>2025-10-19T11:44:41Z</time>
      </trkpt>
      <trkpt lat="43.20759" lon="5.47776">
        <ele>251</ele>
        <time>2025-10-19T11:44:42Z</time>
      </trkpt>
      <trkpt lat="43.20759" lon="5.47776">
        <ele>250.9</ele>
        <time>2025-10-19T11:44:43Z</time>
      </trkpt>
      <trkpt lat="43.20759" lon="5.47776">
        <ele>250.9</ele>
        <time>2025-10-19T11:44:44Z</time>
      </trkpt>
      <trkpt lat="43.20759" lon="5.47776">
        <ele>250.8</ele>
        <time>2025-10-19T11:44:45Z</time>
      </trkpt>
      <trkpt lat="43.20759" lon="5.47776">
        <ele>250.8</ele>
        <time>2025-10-19T11:44:46Z</time>
      </trkpt>
      <trkpt lat="43.20759" lon="5.47776">
        <ele>250.7</ele>
        <time>2025-10-19T11:44:47Z</time>
      </trkpt>
      <trkpt lat="43.20759" lon="5.47776">
        <ele>250.6</ele>
        <time>2025-10-19T11:44:48Z</time>
      </trkpt>
      <trkpt lat="43.20759" lon="5.47776">
        <ele>250.6</ele>
        <time>2025-10-19T11:44:49Z</time>
      </trkpt>
      <trkpt lat="43.20759" lon="5.47776">
        <ele>250.6</ele>
        <time>2025-10-19T11:44:50Z</time>
      </trkpt>
      <trkpt lat="43.20759" lon="5.47777">
        <ele>250.6</ele>
        <time>2025-10-19T11:44:51Z</time>
      </trkpt>
      <trkpt lat="43.20758" lon="5.47776">
        <ele>250.7</ele>
        <time>2025-10-19T11:44:52Z</time>
      </trkpt>
      <trkpt lat="43.20758" lon="5.47775">
        <ele>250.7</ele>
        <time>2025-10-19T11:44:53Z</time>
      </trkpt>
      <trkpt lat="43.20758" lon="5.47774">
        <ele>250.9</ele>
        <time>2025-10-19T11:44:54Z</time>
      </trkpt>
      <trkpt lat="43.20758" lon="5.47773">
        <ele>251.1</ele>
        <time>2025-10-19T11:44:55Z</time>
      </trkpt>
      <trkpt lat="43.20758" lon="5.47773">
        <ele>251.3</ele>
        <time>2025-10-19T11:44:56Z</time>
      </trkpt>
      <trkpt lat="43.20759" lon="5.47771">
        <ele>251.4</ele>
        <time>2025-10-19T11:44:57Z</time>
      </trkpt>
      <trkpt lat="43.20759" lon="5.4777">
        <ele>251.5</ele>
        <time>2025-10-19T11:44:58Z</time>
      </trkpt>
      <trkpt lat="43.20759" lon="5.4777">
        <ele>251.6</ele>
        <time>2025-10-19T11:44:59Z</time>
      </trkpt>
      <trkpt lat="43.2076" lon="5.47769">
        <ele>251.9</ele>
        <time>2025-10-19T11:45:00Z</time>
      </trkpt>
      <trkpt lat="43.2076" lon="5.47768">
        <ele>252</ele>
        <time>2025-10-19T11:45:01Z</time>
      </trkpt>
      <trkpt lat="43.20761" lon="5.47768">
        <ele>252.4</ele>
        <time>2025-10-19T11:45:02Z</time>
      </trkpt>
      <trkpt lat="43.20761" lon="5.47767">
        <ele>252.5</ele>
        <time>2025-10-19T11:45:03Z</time>
      </trkpt>
      <trkpt lat="43.20761" lon="5.47766">
        <ele>252.8</ele>
        <time>2025-10-19T11:45:04Z</time>
      </trkpt>
      <trkpt lat="43.20761" lon="5.47765">
        <ele>252.8</ele>
        <time>2025-10-19T11:45:05Z</time>
      </trkpt>
      <trkpt lat="43.20762" lon="5.47765">
        <ele>253.3</ele>
        <time>2025-10-19T11:45:06Z</time>
      </trkpt>
      <trkpt lat="43.20762" lon="5.47764">
        <ele>253.5</ele>
        <time>2025-10-19T11:45:07Z</time>
      </trkpt>
      <trkpt lat="43.20762" lon="5.47763">
        <ele>253.7</ele>
        <time>2025-10-19T11:45:08Z</time>
      </trkpt>
      <trkpt lat="43.20762" lon="5.47762">
        <ele>254.1</ele>
        <time>2025-10-19T11:45:09Z</time>
      </trkpt>
      <trkpt lat="43.20763" lon="5.47762">
        <ele>254.4</ele>
        <time>2025-10-19T11:45:10Z</time>
      </trkpt>
      <trkpt lat="43.20763" lon="5.4776">
        <ele>254.8</ele>
        <time>2025-10-19T11:45:11Z</time>
      </trkpt>
      <trkpt lat="43.20763" lon="5.4776">
        <ele>255.1</ele>
        <time>2025-10-19T11:45:12Z</time>
      </trkpt>
      <trkpt lat="43.20763" lon="5.4776">
        <ele>255.3</ele>
        <time>2025-10-19T11:45:13Z</time>
      </trkpt>
      <trkpt lat="43.20763" lon="5.4776">
        <ele>255.5</ele>
        <time>2025-10-19T11:45:14Z</time>
      </trkpt>
      <trkpt lat="43.20763" lon="5.4776">
        <ele>255.7</ele>
        <time>2025-10-19T11:45:15Z</time>
      </trkpt>
      <trkpt lat="43.20763" lon="5.47759">
        <ele>255.9</ele>
        <time>2025-10-19T11:45:16Z</time>
      </trkpt>
      <trkpt lat="43.20764" lon="5.47759">
        <ele>256</ele>
        <time>2025-10-19T11:45:17Z</time>
      </trkpt>
      <trkpt lat="43.20764" lon="5.47759">
        <ele>256.2</ele>
        <time>2025-10-19T11:45:18Z</time>
      </trkpt>
      <trkpt lat="43.20764" lon="5.47759">
        <ele>256.3</ele>
        <time>2025-10-19T11:45:19Z</time>
      </trkpt>
      <trkpt lat="43.20764" lon="5.47759">
        <ele>256.4</ele>
        <time>2025-10-19T11:45:20Z</time>
      </trkpt>
      <trkpt lat="43.20764" lon="5.47759">
        <ele>256.5</ele>
        <time>2025-10-19T11:45:21Z</time>
      </trkpt>
      <trkpt lat="43.20764" lon="5.47758">
        <ele>256.6</ele>
        <time>2025-10-19T11:45:22Z</time>
      </trkpt>
      <trkpt lat="43.20765" lon="5.47758">
        <ele>256.7</ele>
        <time>2025-10-19T11:45:23Z</time>
      </trkpt>
      <trkpt lat="43.20765" lon="5.47758">
        <ele>256.9</ele>
        <time>2025-10-19T11:45:24Z</time>
      </trkpt>
      <trkpt lat="43.20765" lon="5.47758">
        <ele>256.8</ele>
        <time>2025-10-19T11:45:25Z</time>
      </trkpt>
      <trkpt lat="43.20765" lon="5.47758">
        <ele>256.8</ele>
        <time>2025-10-19T11:45:26Z</time>
      </trkpt>
      <trkpt lat="43.20765" lon="5.47758">
        <ele>256.8</ele>
        <time>2025-10-19T11:45:27Z</time>
      </trkpt>
      <trkpt lat="43.20765" lon="5.47758">
        <ele>256.8</ele>
        <time>2025-10-19T11:45:28Z</time>
      </trkpt>
      <trkpt lat="43.20765" lon="5.47758">
        <ele>256.8</ele>
        <time>2025-10-19T11:45:29Z</time>
      </trkpt>
      <trkpt lat="43.20765" lon="5.47758">
        <ele>256.9</ele>
        <time>2025-10-19T11:45:30Z</time>
      </trkpt>
      <trkpt lat="43.20765" lon="5.47758">
        <ele>256.9</ele>
        <time>2025-10-19T11:45:31Z</time>
      </trkpt>
      <trkpt lat="43.20765" lon="5.47758">
        <ele>256.8</ele>
        <time>2025-10-19T11:45:32Z</time>
      </trkpt>
      <trkpt lat="43.20765" lon="5.47758">
        <ele>256.8</ele>
        <time>2025-10-19T11:45:33Z</time>
      </trkpt>
      <trkpt lat="43.20765" lon="5.47757">
        <ele>256.9</ele>
        <time>2025-10-19T11:45:34Z</time>
      </trkpt>
      <trkpt lat="43.20765" lon="5.47757">
        <ele>256.9</ele>
        <time>2025-10-19T11:45:35Z</time>
      </trkpt>
      <trkpt lat="43.20765" lon="5.47756">
        <ele>257</ele>
        <time>2025-10-19T11:45:36Z</time>
      </trkpt>
      <trkpt lat="43.20765" lon="5.47756">
        <ele>257</ele>
        <time>2025-10-19T11:45:37Z</time>
      </trkpt>
      <trkpt lat="43.20765" lon="5.47755">
        <ele>257.1</ele>
        <time>2025-10-19T11:45:38Z</time>
      </trkpt>
      <trkpt lat="43.20765" lon="5.47754">
        <ele>257.1</ele>
        <time>2025-10-19T11:45:39Z</time>
      </trkpt>
      <trkpt lat="43.20765" lon="5.47754">
        <ele>257.3</ele>
        <time>2025-10-19T11:45:40Z</time>
      </trkpt>
      <trkpt lat="43.20765" lon="5.47754">
        <ele>257.4</ele>
        <time>2025-10-19T11:45:41Z</time>
      </trkpt>
      <trkpt lat="43.20765" lon="5.47754">
        <ele>257.6</ele>
        <time>2025-10-19T11:45:42Z</time>
      </trkpt>
      <trkpt lat="43.20765" lon="5.47754">
        <ele>257.7</ele>
        <time>2025-10-19T11:45:43Z</time>
      </trkpt>
      <trkpt lat="43.20765" lon="5.47754">
        <ele>257.8</ele>
        <time>2025-10-19T11:45:44Z</time>
      </trkpt>
      <trkpt lat="43.20765" lon="5.47753">
        <ele>258</ele>
        <time>2025-10-19T11:45:45Z</time>
      </trkpt>
      <trkpt lat="43.20765" lon="5.47753">
        <ele>258</ele>
        <time>2025-10-19T11:45:46Z</time>
      </trkpt>
      <trkpt lat="43.20765" lon="5.47753">
        <ele>258</ele>
        <time>2025-10-19T11:45:47Z</time>
      </trkpt>
      <trkpt lat="43.20765" lon="5.47753">
        <ele>258.2</ele>
        <time>2025-10-19T11:45:48Z</time>
      </trkpt>
      <trkpt lat="43.20765" lon="5.47753">
        <ele>258.3</ele>
        <time>2025-10-19T11:45:49Z</time>
      </trkpt>
      <trkpt lat="43.20764" lon="5.47753">
        <ele>258.4</ele>
        <time>2025-10-19T11:45:50Z</time>
      </trkpt>
      <trkpt lat="43.20764" lon="5.47753">
        <ele>258.4</ele>
        <time>2025-10-19T11:45:51Z</time>
      </trkpt>
      <trkpt lat="43.20764" lon="5.47753">
        <ele>258.4</ele>
        <time>2025-10-19T11:45:52Z</time>
      </trkpt>
      <trkpt lat="43.20764" lon="5.47752">
        <ele>258.5</ele>
        <time>2025-10-19T11:45:53Z</time>
      </trkpt>
      <trkpt lat="43.20764" lon="5.47751">
        <ele>258.6</ele>
        <time>2025-10-19T11:45:54Z</time>
      </trkpt>
      <trkpt lat="43.20763" lon="5.47751">
        <ele>258.8</ele>
        <time>2025-10-19T11:45:55Z</time>
      </trkpt>
      <trkpt lat="43.20763" lon="5.4775">
        <ele>259</ele>
        <time>2025-10-19T11:45:56Z</time>
      </trkpt>
      <trkpt lat="43.20762" lon="5.4775">
        <ele>259.2</ele>
        <time>2025-10-19T11:45:57Z</time>
      </trkpt>
      <trkpt lat="43.20761" lon="5.4775">
        <ele>259.3</ele>
        <time>2025-10-19T11:45:58Z</time>
      </trkpt>
      <trkpt lat="43.20761" lon="5.4775">
        <ele>259.4</ele>
        <time>2025-10-19T11:45:59Z</time>
      </trkpt>
      <trkpt lat="43.2076" lon="5.4775">
        <ele>259.6</ele>
        <time>2025-10-19T11:46:00Z</time>
      </trkpt>
      <trkpt lat="43.2076" lon="5.47749">
        <ele>259.9</ele>
        <time>2025-10-19T11:46:01Z</time>
      </trkpt>
      <trkpt lat="43.20759" lon="5.47748">
        <ele>260.2</ele>
        <time>2025-10-19T11:46:02Z</time>
      </trkpt>
      <trkpt lat="43.20759" lon="5.47747">
        <ele>260.5</ele>
        <time>2025-10-19T11:46:03Z</time>
      </trkpt>
      <trkpt lat="43.20758" lon="5.47747">
        <ele>260.7</ele>
        <time>2025-10-19T11:46:04Z</time>
      </trkpt>
      <trkpt lat="43.20758" lon="5.47746">
        <ele>260.9</ele>
        <time>2025-10-19T11:46:05Z</time>
      </trkpt>
      <trkpt lat="43.20757" lon="5.47746">
        <ele>261</ele>
        <time>2025-10-19T11:46:06Z</time>
      </trkpt>
      <trkpt lat="43.20757" lon="5.47746">
        <ele>261.1</ele>
        <time>2025-10-19T11:46:07Z</time>
      </trkpt>
      <trkpt lat="43.20756" lon="5.47746">
        <ele>261.2</ele>
        <time>2025-10-19T11:46:08Z</time>
      </trkpt>
      <trkpt lat="43.20756" lon="5.47746">
        <ele>261.4</ele>
        <time>2025-10-19T11:46:09Z</time>
      </trkpt>
      <trkpt lat="43.20756" lon="5.47746">
        <ele>261.5</ele>
        <time>2025-10-19T11:46:10Z</time>
      </trkpt>
      <trkpt lat="43.20755" lon="5.47745">
        <ele>261.5</ele>
        <time>2025-10-19T11:46:11Z</time>
      </trkpt>
      <trkpt lat="43.20756" lon="5.47745">
        <ele>261.5</ele>
        <time>2025-10-19T11:46:12Z</time>
      </trkpt>
      <trkpt lat="43.20756" lon="5.47744">
        <ele>261.5</ele>
        <time>2025-10-19T11:46:13Z</time>
      </trkpt>
      <trkpt lat="43.20757" lon="5.47744">
        <ele>261.6</ele>
        <time>2025-10-19T11:46:14Z</time>
      </trkpt>
      <trkpt lat="43.20757" lon="5.47744">
        <ele>261.7</ele>
        <time>2025-10-19T11:46:15Z</time>
      </trkpt>
      <trkpt lat="43.20757" lon="5.47744">
        <ele>261.7</ele>
        <time>2025-10-19T11:46:16Z</time>
      </trkpt>
      <trkpt lat="43.20758" lon="5.47743">
        <ele>261.9</ele>
        <time>2025-10-19T11:46:17Z</time>
      </trkpt>
      <trkpt lat="43.20758" lon="5.47743">
        <ele>262</ele>
        <time>2025-10-19T11:46:18Z</time>
      </trkpt>
      <trkpt lat="43.20759" lon="5.47743">
        <ele>262</ele>
        <time>2025-10-19T11:46:19Z</time>
      </trkpt>
      <trkpt lat="43.20759" lon="5.47743">
        <ele>262</ele>
        <time>2025-10-19T11:46:20Z</time>
      </trkpt>
      <trkpt lat="43.20759" lon="5.47743">
        <ele>262.1</ele>
        <time>2025-10-19T11:46:21Z</time>
      </trkpt>
      <trkpt lat="43.20758" lon="5.47743">
        <ele>262.2</ele>
        <time>2025-10-19T11:46:22Z</time>
      </trkpt>
      <trkpt lat="43.20758" lon="5.47743">
        <ele>262.3</ele>
        <time>2025-10-19T11:46:23Z</time>
      </trkpt>
      <trkpt lat="43.20758" lon="5.47743">
        <ele>262.4</ele>
        <time>2025-10-19T11:46:24Z</time>
      </trkpt>
      <trkpt lat="43.20758" lon="5.47743">
        <ele>262.5</ele>
        <time>2025-10-19T11:46:25Z</time>
      </trkpt>
      <trkpt lat="43.20758" lon="5.47743">
        <ele>262.6</ele>
        <time>2025-10-19T11:46:26Z</time>
      </trkpt>
      <trkpt lat="43.20758" lon="5.47743">
        <ele>262.7</ele>
        <time>2025-10-19T11:46:27Z</time>
      </trkpt>
      <trkpt lat="43.20758" lon="5.47743">
        <ele>262.7</ele>
        <time>2025-10-19T11:46:28Z</time>
      </trkpt>
      <trkpt lat="43.20758" lon="5.47743">
        <ele>262.7</ele>
        <time>2025-10-19T11:46:29Z</time>
      </trkpt>
      <trkpt lat="43.20757" lon="5.47743">
        <ele>262.9</ele>
        <time>2025-10-19T11:46:30Z</time>
      </trkpt>
      <trkpt lat="43.20758" lon="5.47743">
        <ele>263</ele>
        <time>2025-10-19T11:46:31Z</time>
      </trkpt>
      <trkpt lat="43.20758" lon="5.47743">
        <ele>263.1</ele>
        <time>2025-10-19T11:46:32Z</time>
      </trkpt>
      <trkpt lat="43.20759" lon="5.47743">
        <ele>263.2</ele>
        <time>2025-10-19T11:46:33Z</time>
      </trkpt>
      <trkpt lat="43.20759" lon="5.47742">
        <ele>263.2</ele>
        <time>2025-10-19T11:46:34Z</time>
      </trkpt>
      <trkpt lat="43.2076" lon="5.47742">
        <ele>263.3</ele>
        <time>2025-10-19T11:46:35Z</time>
      </trkpt>
      <trkpt lat="43.2076" lon="5.47741">
        <ele>263.4</ele>
        <time>2025-10-19T11:46:36Z</time>
      </trkpt>
      <trkpt lat="43.2076" lon="5.4774">
        <ele>263.6</ele>
        <time>2025-10-19T11:46:37Z</time>
      </trkpt>
      <trkpt lat="43.20759" lon="5.4774">
        <ele>263.7</ele>
        <time>2025-10-19T11:46:38Z</time>
      </trkpt>
      <trkpt lat="43.20759" lon="5.4774">
        <ele>263.8</ele>
        <time>2025-10-19T11:46:39Z</time>
      </trkpt>
      <trkpt lat="43.20759" lon="5.4774">
        <ele>264</ele>
        <time>2025-10-19T11:46:40Z</time>
      </trkpt>
      <trkpt lat="43.20759" lon="5.47739">
        <ele>264</ele>
        <time>2025-10-19T11:46:41Z</time>
      </trkpt>
      <trkpt lat="43.20759" lon="5.47739">
        <ele>264.1</ele>
        <time>2025-10-19T11:46:42Z</time>
      </trkpt>
      <trkpt lat="43.2076" lon="5.47739">
        <ele>264.3</ele>
        <time>2025-10-19T11:46:43Z</time>
      </trkpt>
      <trkpt lat="43.2076" lon="5.47739">
        <ele>264.2</ele>
        <time>2025-10-19T11:46:44Z</time>
      </trkpt>
      <trkpt lat="43.2076" lon="5.47738">
        <ele>264.3</ele>
        <time>2025-10-19T11:46:45Z</time>
      </trkpt>
      <trkpt lat="43.2076" lon="5.47738">
        <ele>264.6</ele>
        <time>2025-10-19T11:46:46Z</time>
      </trkpt>
      <trkpt lat="43.2076" lon="5.47738">
        <ele>264.9</ele>
        <time>2025-10-19T11:46:47Z</time>
      </trkpt>
      <trkpt lat="43.2076" lon="5.47738">
        <ele>265.1</ele>
        <time>2025-10-19T11:46:48Z</time>
      </trkpt>
      <trkpt lat="43.2076" lon="5.47738">
        <ele>265.2</ele>
        <time>2025-10-19T11:46:49Z</time>
      </trkpt>
      <trkpt lat="43.2076" lon="5.47737">
        <ele>265.3</ele>
        <time>2025-10-19T11:46:50Z</time>
      </trkpt>
      <trkpt lat="43.2076" lon="5.47737">
        <ele>265.5</ele>
        <time>2025-10-19T11:46:51Z</time>
      </trkpt>
      <trkpt lat="43.20761" lon="5.47737">
        <ele>265.6</ele>
        <time>2025-10-19T11:46:52Z</time>
      </trkpt>
      <trkpt lat="43.20761" lon="5.47737">
        <ele>265.6</ele>
        <time>2025-10-19T11:46:53Z</time>
      </trkpt>
      <trkpt lat="43.20761" lon="5.47737">
        <ele>265.7</ele>
        <time>2025-10-19T11:46:54Z</time>
      </trkpt>
      <trkpt lat="43.20761" lon="5.47736">
        <ele>265.7</ele>
        <time>2025-10-19T11:46:55Z</time>
      </trkpt>
      <trkpt lat="43.20761" lon="5.47736">
        <ele>265.8</ele>
        <time>2025-10-19T11:46:56Z</time>
      </trkpt>
      <trkpt lat="43.20761" lon="5.47736">
        <ele>265.8</ele>
        <time>2025-10-19T11:46:57Z</time>
      </trkpt>
      <trkpt lat="43.20761" lon="5.47736">
        <ele>265.8</ele>
        <time>2025-10-19T11:46:58Z</time>
      </trkpt>
      <trkpt lat="43.20762" lon="5.47736">
        <ele>265.9</ele>
        <time>2025-10-19T11:46:59Z</time>
      </trkpt>
      <trkpt lat="43.20762" lon="5.47736">
        <ele>266</ele>
        <time>2025-10-19T11:47:00Z</time>
      </trkpt>
      <trkpt lat="43.20762" lon="5.47735">
        <ele>266.2</ele>
        <time>2025-10-19T11:47:01Z</time>
      </trkpt>
      <trkpt lat="43.20762" lon="5.47736">
        <ele>266.4</ele>
        <time>2025-10-19T11:47:02Z</time>
      </trkpt>
      <trkpt lat="43.20763" lon="5.47735">
        <ele>266.6</ele>
        <time>2025-10-19T11:47:03Z</time>
      </trkpt>
      <trkpt lat="43.20763" lon="5.47735">
        <ele>266.9</ele>
        <time>2025-10-19T11:47:04Z</time>
      </trkpt>
      <trkpt lat="43.20763" lon="5.47735">
        <ele>267.2</ele>
        <time>2025-10-19T11:47:05Z</time>
      </trkpt>
      <trkpt lat="43.20764" lon="5.47735">
        <ele>267.4</ele>
        <time>2025-10-19T11:47:06Z</time>
      </trkpt>
      <trkpt lat="43.20765" lon="5.47735">
        <ele>267.6</ele>
        <time>2025-10-19T11:47:07Z</time>
      </trkpt>
      <trkpt lat="43.20765" lon="5.47734">
        <ele>267.8</ele>
        <time>2025-10-19T11:47:08Z</time>
      </trkpt>
      <trkpt lat="43.20765" lon="5.47734">
        <ele>268.1</ele>
        <time>2025-10-19T11:47:09Z</time>
      </trkpt>
      <trkpt lat="43.20766" lon="5.47734">
        <ele>268.3</ele>
        <time>2025-10-19T11:47:10Z</time>
      </trkpt>
      <trkpt lat="43.20766" lon="5.47734">
        <ele>268.6</ele>
        <time>2025-10-19T11:47:11Z</time>
      </trkpt>
      <trkpt lat="43.20767" lon="5.47734">
        <ele>268.9</ele>
        <time>2025-10-19T11:47:12Z</time>
      </trkpt>
      <trkpt lat="43.20768" lon="5.47734">
        <ele>269.2</ele>
        <time>2025-10-19T11:47:13Z</time>
      </trkpt>
      <trkpt lat="43.20768" lon="5.47733">
        <ele>269.2</ele>
        <time>2025-10-19T11:47:14Z</time>
      </trkpt>
      <trkpt lat="43.20768" lon="5.47732">
        <ele>269.1</ele>
        <time>2025-10-19T11:47:15Z</time>
      </trkpt>
      <trkpt lat="43.20768" lon="5.47732">
        <ele>269.1</ele>
        <time>2025-10-19T11:47:16Z</time>
      </trkpt>
      <trkpt lat="43.20768" lon="5.47731">
        <ele>269.1</ele>
        <time>2025-10-19T11:47:17Z</time>
      </trkpt>
      <trkpt lat="43.20768" lon="5.47731">
        <ele>269.1</ele>
        <time>2025-10-19T11:47:18Z</time>
      </trkpt>
      <trkpt lat="43.20768" lon="5.47731">
        <ele>269.1</ele>
        <time>2025-10-19T11:47:19Z</time>
      </trkpt>
      <trkpt lat="43.20769" lon="5.4773">
        <ele>269.5</ele>
        <time>2025-10-19T11:47:20Z</time>
      </trkpt>
      <trkpt lat="43.20769" lon="5.47729">
        <ele>269.7</ele>
        <time>2025-10-19T11:47:21Z</time>
      </trkpt>
      <trkpt lat="43.20769" lon="5.47728">
        <ele>269.9</ele>
        <time>2025-10-19T11:47:22Z</time>
      </trkpt>
      <trkpt lat="43.20768" lon="5.47728">
        <ele>270.2</ele>
        <time>2025-10-19T11:47:23Z</time>
      </trkpt>
      <trkpt lat="43.20768" lon="5.47728">
        <ele>270.3</ele>
        <time>2025-10-19T11:47:24Z</time>
      </trkpt>
      <trkpt lat="43.20768" lon="5.47727">
        <ele>270.5</ele>
        <time>2025-10-19T11:47:25Z</time>
      </trkpt>
      <trkpt lat="43.20768" lon="5.47727">
        <ele>270.6</ele>
        <time>2025-10-19T11:47:26Z</time>
      </trkpt>
      <trkpt lat="43.20768" lon="5.47727">
        <ele>270.7</ele>
        <time>2025-10-19T11:47:27Z</time>
      </trkpt>
      <trkpt lat="43.20768" lon="5.47726">
        <ele>270.9</ele>
        <time>2025-10-19T11:47:28Z</time>
      </trkpt>
      <trkpt lat="43.20768" lon="5.47726">
        <ele>270.9</ele>
        <time>2025-10-19T11:47:29Z</time>
      </trkpt>
      <trkpt lat="43.20768" lon="5.47726">
        <ele>271.1</ele>
        <time>2025-10-19T11:47:30Z</time>
      </trkpt>
      <trkpt lat="43.20768" lon="5.47725">
        <ele>271.3</ele>
        <time>2025-10-19T11:47:31Z</time>
      </trkpt>
      <trkpt lat="43.20768" lon="5.47725">
        <ele>271.4</ele>
        <time>2025-10-19T11:47:32Z</time>
      </trkpt>
      <trkpt lat="43.20769" lon="5.47724">
        <ele>271.5</ele>
        <time>2025-10-19T11:47:33Z</time>
      </trkpt>
      <trkpt lat="43.20769" lon="5.47724">
        <ele>271.7</ele>
        <time>2025-10-19T11:47:34Z</time>
      </trkpt>
      <trkpt lat="43.20769" lon="5.47724">
        <ele>271.8</ele>
        <time>2025-10-19T11:47:35Z</time>
      </trkpt>
      <trkpt lat="43.20769" lon="5.47724">
        <ele>271.9</ele>
        <time>2025-10-19T11:47:36Z</time>
      </trkpt>
      <trkpt lat="43.2077" lon="5.47724">
        <ele>272.1</ele>
        <time>2025-10-19T11:47:37Z</time>
      </trkpt>
      <trkpt lat="43.2077" lon="5.47724">
        <ele>272.1</ele>
        <time>2025-10-19T11:47:38Z</time>
      </trkpt>
      <trkpt lat="43.2077" lon="5.47724">
        <ele>272.3</ele>
        <time>2025-10-19T11:47:39Z</time>
      </trkpt>
      <trkpt lat="43.2077" lon="5.47724">
        <ele>272.5</ele>
        <time>2025-10-19T11:47:40Z</time>
      </trkpt>
      <trkpt lat="43.2077" lon="5.47724">
        <ele>272.6</ele>
        <time>2025-10-19T11:47:41Z</time>
      </trkpt>
      <trkpt lat="43.2077" lon="5.47724">
        <ele>272.7</ele>
        <time>2025-10-19T11:47:42Z</time>
      </trkpt>
      <trkpt lat="43.2077" lon="5.47724">
        <ele>272.8</ele>
        <time>2025-10-19T11:47:43Z</time>
      </trkpt>
      <trkpt lat="43.2077" lon="5.47724">
        <ele>272.8</ele>
        <time>2025-10-19T11:47:44Z</time>
      </trkpt>
      <trkpt lat="43.2077" lon="5.47724">
        <ele>272.9</ele>
        <time>2025-10-19T11:47:45Z</time>
      </trkpt>
      <trkpt lat="43.20769" lon="5.47724">
        <ele>273</ele>
        <time>2025-10-19T11:47:46Z</time>
      </trkpt>
      <trkpt lat="43.2077" lon="5.47723">
        <ele>273</ele>
        <time>2025-10-19T11:47:47Z</time>
      </trkpt>
      <trkpt lat="43.2077" lon="5.47723">
        <ele>273</ele>
        <time>2025-10-19T11:47:48Z</time>
      </trkpt>
      <trkpt lat="43.2077" lon="5.47723">
        <ele>273</ele>
        <time>2025-10-19T11:47:49Z</time>
      </trkpt>
      <trkpt lat="43.2077" lon="5.47722">
        <ele>273</ele>
        <time>2025-10-19T11:47:50Z</time>
      </trkpt>
      <trkpt lat="43.2077" lon="5.47722">
        <ele>273.1</ele>
        <time>2025-10-19T11:47:51Z</time>
      </trkpt>
      <trkpt lat="43.2077" lon="5.47721">
        <ele>273.2</ele>
        <time>2025-10-19T11:47:52Z</time>
      </trkpt>
      <trkpt lat="43.2077" lon="5.47721">
        <ele>273.2</ele>
        <time>2025-10-19T11:47:53Z</time>
      </trkpt>
      <trkpt lat="43.20769" lon="5.47721">
        <ele>273.3</ele>
        <time>2025-10-19T11:47:54Z</time>
      </trkpt>
      <trkpt lat="43.20769" lon="5.47721">
        <ele>273.5</ele>
        <time>2025-10-19T11:47:55Z</time>
      </trkpt>
      <trkpt lat="43.20769" lon="5.4772">
        <ele>273.6</ele>
        <time>2025-10-19T11:47:56Z</time>
      </trkpt>
      <trkpt lat="43.20768" lon="5.4772">
        <ele>273.8</ele>
        <time>2025-10-19T11:47:57Z</time>
      </trkpt>
      <trkpt lat="43.20768" lon="5.4772">
        <ele>274.1</ele>
        <time>2025-10-19T11:47:58Z</time>
      </trkpt>
      <trkpt lat="43.20768" lon="5.4772">
        <ele>274.3</ele>
        <time>2025-10-19T11:47:59Z</time>
      </trkpt>
      <trkpt lat="43.20768" lon="5.47719">
        <ele>274.6</ele>
        <time>2025-10-19T11:48:00Z</time>
      </trkpt>
      <trkpt lat="43.20768" lon="5.47719">
        <ele>274.8</ele>
        <time>2025-10-19T11:48:01Z</time>
      </trkpt>
      <trkpt lat="43.20768" lon="5.47719">
        <ele>275</ele>
        <time>2025-10-19T11:48:02Z</time>
      </trkpt>
      <trkpt lat="43.20767" lon="5.47719">
        <ele>275.2</ele>
        <time>2025-10-19T11:48:03Z</time>
      </trkpt>
      <trkpt lat="43.20767" lon="5.47718">
        <ele>275.4</ele>
        <time>2025-10-19T11:48:04Z</time>
      </trkpt>
      <trkpt lat="43.20767" lon="5.47718">
        <ele>275.6</ele>
        <time>2025-10-19T11:48:05Z</time>
      </trkpt>
      <trkpt lat="43.20767" lon="5.47718">
        <ele>275.8</ele>
        <time>2025-10-19T11:48:06Z</time>
      </trkpt>
      <trkpt lat="43.20767" lon="5.47718">
        <ele>275.9</ele>
        <time>2025-10-19T11:48:07Z</time>
      </trkpt>
      <trkpt lat="43.20767" lon="5.47717">
        <ele>276.1</ele>
        <time>2025-10-19T11:48:08Z</time>
      </trkpt>
      <trkpt lat="43.20767" lon="5.47717">
        <ele>276.3</ele>
        <time>2025-10-19T11:48:09Z</time>
      </trkpt>
      <trkpt lat="43.20767" lon="5.47717">
        <ele>276.5</ele>
        <time>2025-10-19T11:48:10Z</time>
      </trkpt>
      <trkpt lat="43.20767" lon="5.47717">
        <ele>276.7</ele>
        <time>2025-10-19T11:48:11Z</time>
      </trkpt>
      <trkpt lat="43.20766" lon="5.47718">
        <ele>276.8</ele>
        <time>2025-10-19T11:48:12Z</time>
      </trkpt>
      <trkpt lat="43.20766" lon="5.47717">
        <ele>276.9</ele>
        <time>2025-10-19T11:48:13Z</time>
      </trkpt>
      <trkpt lat="43.20765" lon="5.47717">
        <ele>277.2</ele>
        <time>2025-10-19T11:48:14Z</time>
      </trkpt>
      <trkpt lat="43.20765" lon="5.47717">
        <ele>277.3</ele>
        <time>2025-10-19T11:48:15Z</time>
      </trkpt>
      <trkpt lat="43.20765" lon="5.47717">
        <ele>277.4</ele>
        <time>2025-10-19T11:48:16Z</time>
      </trkpt>
      <trkpt lat="43.20765" lon="5.47717">
        <ele>277.4</ele>
        <time>2025-10-19T11:48:17Z</time>
      </trkpt>
      <trkpt lat="43.20764" lon="5.47716">
        <ele>277.6</ele>
        <time>2025-10-19T11:48:18Z</time>
      </trkpt>
      <trkpt lat="43.20764" lon="5.47716">
        <ele>277.6</ele>
        <time>2025-10-19T11:48:19Z</time>
      </trkpt>
      <trkpt lat="43.20763" lon="5.47716">
        <ele>277.7</ele>
        <time>2025-10-19T11:48:20Z</time>
      </trkpt>
      <trkpt lat="43.20762" lon="5.47715">
        <ele>277.8</ele>
        <time>2025-10-19T11:48:21Z</time>
      </trkpt>
      <trkpt lat="43.20762" lon="5.47715">
        <ele>277.8</ele>
        <time>2025-10-19T11:48:22Z</time>
      </trkpt>
      <trkpt lat="43.20761" lon="5.47715">
        <ele>277.9</ele>
        <time>2025-10-19T11:48:23Z</time>
      </trkpt>
      <trkpt lat="43.20761" lon="5.47714">
        <ele>277.9</ele>
        <time>2025-10-19T11:48:24Z</time>
      </trkpt>
      <trkpt lat="43.2076" lon="5.47714">
        <ele>277.9</ele>
        <time>2025-10-19T11:48:25Z</time>
      </trkpt>
      <trkpt lat="43.2076" lon="5.47714">
        <ele>277.9</ele>
        <time>2025-10-19T11:48:26Z</time>
      </trkpt>
      <trkpt lat="43.2076" lon="5.47713">
        <ele>277.9</ele>
        <time>2025-10-19T11:48:27Z</time>
      </trkpt>
      <trkpt lat="43.2076" lon="5.47713">
        <ele>278</ele>
        <time>2025-10-19T11:48:28Z</time>
      </trkpt>
      <trkpt lat="43.2076" lon="5.47713">
        <ele>278.1</ele>
        <time>2025-10-19T11:48:29Z</time>
      </trkpt>
      <trkpt lat="43.20759" lon="5.47712">
        <ele>278.2</ele>
        <time>2025-10-19T11:48:30Z</time>
      </trkpt>
      <trkpt lat="43.20759" lon="5.47712">
        <ele>278.3</ele>
        <time>2025-10-19T11:48:31Z</time>
      </trkpt>
      <trkpt lat="43.20758" lon="5.47711">
        <ele>278.6</ele>
        <time>2025-10-19T11:48:32Z</time>
      </trkpt>
      <trkpt lat="43.20757" lon="5.47711">
        <ele>278.7</ele>
        <time>2025-10-19T11:48:33Z</time>
      </trkpt>
      <trkpt lat="43.20757" lon="5.4771">
        <ele>278.8</ele>
        <time>2025-10-19T11:48:34Z</time>
      </trkpt>
      <trkpt lat="43.20756" lon="5.47709">
        <ele>278.9</ele>
        <time>2025-10-19T11:48:35Z</time>
      </trkpt>
      <trkpt lat="43.20756" lon="5.47708">
        <ele>279.1</ele>
        <time>2025-10-19T11:48:36Z</time>
      </trkpt>
      <trkpt lat="43.20755" lon="5.47708">
        <ele>279.1</ele>
        <time>2025-10-19T11:48:37Z</time>
      </trkpt>
      <trkpt lat="43.20755" lon="5.47707">
        <ele>279.2</ele>
        <time>2025-10-19T11:48:38Z</time>
      </trkpt>
      <trkpt lat="43.20755" lon="5.47707">
        <ele>279.2</ele>
        <time>2025-10-19T11:48:39Z</time>
      </trkpt>
      <trkpt lat="43.20755" lon="5.47707">
        <ele>279.4</ele>
        <time>2025-10-19T11:48:40Z</time>
      </trkpt>
      <trkpt lat="43.20755" lon="5.47707">
        <ele>279.6</ele>
        <time>2025-10-19T11:48:41Z</time>
      </trkpt>
      <trkpt lat="43.20754" lon="5.47707">
        <ele>279.6</ele>
        <time>2025-10-19T11:48:42Z</time>
      </trkpt>
      <trkpt lat="43.20754" lon="5.47707">
        <ele>279.7</ele>
        <time>2025-10-19T11:48:43Z</time>
      </trkpt>
      <trkpt lat="43.20754" lon="5.47706">
        <ele>279.8</ele>
        <time>2025-10-19T11:48:44Z</time>
      </trkpt>
      <trkpt lat="43.20753" lon="5.47707">
        <ele>280</ele>
        <time>2025-10-19T11:48:45Z</time>
      </trkpt>
      <trkpt lat="43.20754" lon="5.47706">
        <ele>280.1</ele>
        <time>2025-10-19T11:48:46Z</time>
      </trkpt>
      <trkpt lat="43.20754" lon="5.47706">
        <ele>280.2</ele>
        <time>2025-10-19T11:48:47Z</time>
      </trkpt>
      <trkpt lat="43.20754" lon="5.47706">
        <ele>280.3</ele>
        <time>2025-10-19T11:48:48Z</time>
      </trkpt>
      <trkpt lat="43.20754" lon="5.47706">
        <ele>280.5</ele>
        <time>2025-10-19T11:48:49Z</time>
      </trkpt>
      <trkpt lat="43.20754" lon="5.47706">
        <ele>280.5</ele>
        <time>2025-10-19T11:48:50Z</time>
      </trkpt>
      <trkpt lat="43.20753" lon="5.47705">
        <ele>280.7</ele>
        <time>2025-10-19T11:48:51Z</time>
      </trkpt>
      <trkpt lat="43.20753" lon="5.47705">
        <ele>280.8</ele>
        <time>2025-10-19T11:48:52Z</time>
      </trkpt>
      <trkpt lat="43.20753" lon="5.47705">
        <ele>280.9</ele>
        <time>2025-10-19T11:48:53Z</time>
      </trkpt>
      <trkpt lat="43.20753" lon="5.47705">
        <ele>280.9</ele>
        <time>2025-10-19T11:48:54Z</time>
      </trkpt>
      <trkpt lat="43.20752" lon="5.47705">
        <ele>281</ele>
        <time>2025-10-19T11:48:55Z</time>
      </trkpt>
      <trkpt lat="43.20752" lon="5.47705">
        <ele>281.1</ele>
        <time>2025-10-19T11:48:56Z</time>
      </trkpt>
      <trkpt lat="43.20751" lon="5.47705">
        <ele>281.1</ele>
        <time>2025-10-19T11:48:57Z</time>
      </trkpt>
      <trkpt lat="43.20751" lon="5.47705">
        <ele>281.1</ele>
        <time>2025-10-19T11:48:58Z</time>
      </trkpt>
      <trkpt lat="43.2075" lon="5.47705">
        <ele>281.1</ele>
        <time>2025-10-19T11:48:59Z</time>
      </trkpt>
      <trkpt lat="43.20749" lon="5.47706">
        <ele>281.1</ele>
        <time>2025-10-19T11:49:00Z</time>
      </trkpt>
      <trkpt lat="43.20748" lon="5.47706">
        <ele>281.1</ele>
        <time>2025-10-19T11:49:01Z</time>
      </trkpt>
      <trkpt lat="43.20748" lon="5.47706">
        <ele>281.1</ele>
        <time>2025-10-19T11:49:02Z</time>
      </trkpt>
      <trkpt lat="43.20747" lon="5.47706">
        <ele>281</ele>
        <time>2025-10-19T11:49:03Z</time>
      </trkpt>
      <trkpt lat="43.20747" lon="5.47706">
        <ele>280.9</ele>
        <time>2025-10-19T11:49:04Z</time>
      </trkpt>
      <trkpt lat="43.20746" lon="5.47706">
        <ele>280.8</ele>
        <time>2025-10-19T11:49:05Z</time>
      </trkpt>
      <trkpt lat="43.20746" lon="5.47706">
        <ele>280.7</ele>
        <time>2025-10-19T11:49:06Z</time>
      </trkpt>
      <trkpt lat="43.20746" lon="5.47706">
        <ele>280.6</ele>
        <time>2025-10-19T11:49:07Z</time>
      </trkpt>
      <trkpt lat="43.20746" lon="5.47707">
        <ele>280.6</ele>
        <time>2025-10-19T11:49:08Z</time>
      </trkpt>
      <trkpt lat="43.20746" lon="5.47706">
        <ele>280.6</ele>
        <time>2025-10-19T11:49:09Z</time>
      </trkpt>
      <trkpt lat="43.20746" lon="5.47706">
        <ele>280.6</ele>
        <time>2025-10-19T11:49:10Z</time>
      </trkpt>
      <trkpt lat="43.20746" lon="5.47706">
        <ele>280.5</ele>
        <time>2025-10-19T11:49:11Z</time>
      </trkpt>
      <trkpt lat="43.20746" lon="5.47706">
        <ele>280.5</ele>
        <time>2025-10-19T11:49:12Z</time>
      </trkpt>
      <trkpt lat="43.20746" lon="5.47706">
        <ele>280.3</ele>
        <time>2025-10-19T11:49:13Z</time>
      </trkpt>
      <trkpt lat="43.20746" lon="5.47706">
        <ele>280.3</ele>
        <time>2025-10-19T11:49:14Z</time>
      </trkpt>
      <trkpt lat="43.20746" lon="5.47705">
        <ele>280.2</ele>
        <time>2025-10-19T11:49:15Z</time>
      </trkpt>
      <trkpt lat="43.20745" lon="5.47705">
        <ele>280.2</ele>
        <time>2025-10-19T11:49:16Z</time>
      </trkpt>
      <trkpt lat="43.20745" lon="5.47705">
        <ele>280.1</ele>
        <time>2025-10-19T11:49:17Z</time>
      </trkpt>
      <trkpt lat="43.20745" lon="5.47705">
        <ele>280.1</ele>
        <time>2025-10-19T11:49:18Z</time>
      </trkpt>
      <trkpt lat="43.20745" lon="5.47705">
        <ele>280.1</ele>
        <time>2025-10-19T11:49:19Z</time>
      </trkpt>
      <trkpt lat="43.20745" lon="5.47705">
        <ele>280.1</ele>
        <time>2025-10-19T11:49:20Z</time>
      </trkpt>
      <trkpt lat="43.20745" lon="5.47705">
        <ele>280.1</ele>
        <time>2025-10-19T11:49:21Z</time>
      </trkpt>
      <trkpt lat="43.20745" lon="5.47705">
        <ele>280.2</ele>
        <time>2025-10-19T11:49:22Z</time>
      </trkpt>
      <trkpt lat="43.20745" lon="5.47705">
        <ele>280.3</ele>
        <time>2025-10-19T11:49:23Z</time>
      </trkpt>
      <trkpt lat="43.20745" lon="5.47705">
        <ele>280.3</ele>
        <time>2025-10-19T11:49:24Z</time>
      </trkpt>
      <trkpt lat="43.20745" lon="5.47705">
        <ele>280.3</ele>
        <time>2025-10-19T11:49:25Z</time>
      </trkpt>
      <trkpt lat="43.20745" lon="5.47705">
        <ele>280.3</ele>
        <time>2025-10-19T11:49:26Z</time>
      </trkpt>
      <trkpt lat="43.20745" lon="5.47705">
        <ele>280.3</ele>
        <time>2025-10-19T11:49:27Z</time>
      </trkpt>
      <trkpt lat="43.20746" lon="5.47705">
        <ele>280.3</ele>
        <time>2025-10-19T11:49:28Z</time>
      </trkpt>
      <trkpt lat="43.20747" lon="5.47704">
        <ele>280.3</ele>
        <time>2025-10-19T11:49:29Z</time>
      </trkpt>
      <trkpt lat="43.20747" lon="5.47704">
        <ele>280.3</ele>
        <time>2025-10-19T11:49:30Z</time>
      </trkpt>
      <trkpt lat="43.20748" lon="5.47704">
        <ele>280.4</ele>
        <time>2025-10-19T11:49:31Z</time>
      </trkpt>
      <trkpt lat="43.20748" lon="5.47704">
        <ele>280.4</ele>
        <time>2025-10-19T11:49:32Z</time>
      </trkpt>
      <trkpt lat="43.20748" lon="5.47703">
        <ele>280.5</ele>
        <time>2025-10-19T11:49:33Z</time>
      </trkpt>
      <trkpt lat="43.20749" lon="5.47703">
        <ele>280.5</ele>
        <time>2025-10-19T11:49:34Z</time>
      </trkpt>
      <trkpt lat="43.2075" lon="5.47703">
        <ele>280.5</ele>
        <time>2025-10-19T11:49:35Z</time>
      </trkpt>
      <trkpt lat="43.20751" lon="5.47703">
        <ele>280.6</ele>
        <time>2025-10-19T11:49:36Z</time>
      </trkpt>
      <trkpt lat="43.20751" lon="5.47703">
        <ele>280.5</ele>
        <time>2025-10-19T11:49:37Z</time>
      </trkpt>
      <trkpt lat="43.20752" lon="5.47703">
        <ele>280.6</ele>
        <time>2025-10-19T11:49:38Z</time>
      </trkpt>
      <trkpt lat="43.20752" lon="5.47703">
        <ele>280.7</ele>
        <time>2025-10-19T11:49:39Z</time>
      </trkpt>
      <trkpt lat="43.20753" lon="5.47703">
        <ele>280.7</ele>
        <time>2025-10-19T11:49:40Z</time>
      </trkpt>
      <trkpt lat="43.20753" lon="5.47702">
        <ele>280.9</ele>
        <time>2025-10-19T11:49:41Z</time>
      </trkpt>
      <trkpt lat="43.20754" lon="5.47702">
        <ele>281</ele>
        <time>2025-10-19T11:49:42Z</time>
      </trkpt>
      <trkpt lat="43.20754" lon="5.47702">
        <ele>281.2</ele>
        <time>2025-10-19T11:49:43Z</time>
      </trkpt>
      <trkpt lat="43.20753" lon="5.47702">
        <ele>281.4</ele>
        <time>2025-10-19T11:49:44Z</time>
      </trkpt>
      <trkpt lat="43.20752" lon="5.47702">
        <ele>281.5</ele>
        <time>2025-10-19T11:49:45Z</time>
      </trkpt>
      <trkpt lat="43.20753" lon="5.47702">
        <ele>281.6</ele>
        <time>2025-10-19T11:49:46Z</time>
      </trkpt>
      <trkpt lat="43.20753" lon="5.47701">
        <ele>281.8</ele>
        <time>2025-10-19T11:49:47Z</time>
      </trkpt>
      <trkpt lat="43.20753" lon="5.47701">
        <ele>282.1</ele>
        <time>2025-10-19T11:49:48Z</time>
      </trkpt>
      <trkpt lat="43.20753" lon="5.47701">
        <ele>282.4</ele>
        <time>2025-10-19T11:49:49Z</time>
      </trkpt>
      <trkpt lat="43.20753" lon="5.47701">
        <ele>282.6</ele>
        <time>2025-10-19T11:49:50Z</time>
      </trkpt>
      <trkpt lat="43.20753" lon="5.47701">
        <ele>282.8</ele>
        <time>2025-10-19T11:49:51Z</time>
      </trkpt>
      <trkpt lat="43.20753" lon="5.47701">
        <ele>283</ele>
        <time>2025-10-19T11:49:52Z</time>
      </trkpt>
      <trkpt lat="43.20754" lon="5.47701">
        <ele>283.2</ele>
        <time>2025-10-19T11:49:53Z</time>
      </trkpt>
      <trkpt lat="43.20754" lon="5.47701">
        <ele>283.3</ele>
        <time>2025-10-19T11:49:54Z</time>
      </trkpt>
      <trkpt lat="43.20754" lon="5.47702">
        <ele>283.4</ele>
        <time>2025-10-19T11:49:55Z</time>
      </trkpt>
      <trkpt lat="43.20754" lon="5.47702">
        <ele>283.6</ele>
        <time>2025-10-19T11:49:56Z</time>
      </trkpt>
      <trkpt lat="43.20754" lon="5.47702">
        <ele>283.7</ele>
        <time>2025-10-19T11:49:57Z</time>
      </trkpt>
      <trkpt lat="43.20754" lon="5.47702">
        <ele>283.7</ele>
        <time>2025-10-19T11:49:58Z</time>
      </trkpt>
      <trkpt lat="43.20754" lon="5.47701">
        <ele>283.8</ele>
        <time>2025-10-19T11:49:59Z</time>
      </trkpt>
      <trkpt lat="43.20753" lon="5.47701">
        <ele>283.9</ele>
        <time>2025-10-19T11:50:00Z</time>
      </trkpt>
      <trkpt lat="43.20753" lon="5.47701">
        <ele>283.9</ele>
        <time>2025-10-19T11:50:01Z</time>
      </trkpt>
      <trkpt lat="43.20752" lon="5.47701">
        <ele>283.9</ele>
        <time>2025-10-19T11:50:02Z</time>
      </trkpt>
      <trkpt lat="43.20752" lon="5.477">
        <ele>283.9</ele>
        <time>2025-10-19T11:50:03Z</time>
      </trkpt>
      <trkpt lat="43.20752" lon="5.47699">
        <ele>284</ele>
        <time>2025-10-19T11:50:04Z</time>
      </trkpt>
      <trkpt lat="43.20751" lon="5.47698">
        <ele>284.1</ele>
        <time>2025-10-19T11:50:05Z</time>
      </trkpt>
      <trkpt lat="43.2075" lon="5.47698">
        <ele>284.3</ele>
        <time>2025-10-19T11:50:06Z</time>
      </trkpt>
      <trkpt lat="43.20749" lon="5.47697">
        <ele>284.4</ele>
        <time>2025-10-19T11:50:07Z</time>
      </trkpt>
      <trkpt lat="43.20749" lon="5.47697">
        <ele>284.5</ele>
        <time>2025-10-19T11:50:08Z</time>
      </trkpt>
      <trkpt lat="43.20748" lon="5.47696">
        <ele>284.6</ele>
        <time>2025-10-19T11:50:09Z</time>
      </trkpt>
      <trkpt lat="43.20747" lon="5.47696">
        <ele>284.7</ele>
        <time>2025-10-19T11:50:10Z</time>
      </trkpt>
      <trkpt lat="43.20747" lon="5.47695">
        <ele>284.7</ele>
        <time>2025-10-19T11:50:11Z</time>
      </trkpt>
      <trkpt lat="43.20746" lon="5.47694">
        <ele>284.8</ele>
        <time>2025-10-19T11:50:12Z</time>
      </trkpt>
      <trkpt lat="43.20746" lon="5.47693">
        <ele>284.9</ele>
        <time>2025-10-19T11:50:13Z</time>
      </trkpt>
      <trkpt lat="43.20745" lon="5.47692">
        <ele>285</ele>
        <time>2025-10-19T11:50:14Z</time>
      </trkpt>
      <trkpt lat="43.20745" lon="5.47691">
        <ele>285</ele>
        <time>2025-10-19T11:50:15Z</time>
      </trkpt>
      <trkpt lat="43.20744" lon="5.4769">
        <ele>285.1</ele>
        <time>2025-10-19T11:50:16Z</time>
      </trkpt>
      <trkpt lat="43.20744" lon="5.47688">
        <ele>285.3</ele>
        <time>2025-10-19T11:50:17Z</time>
      </trkpt>
      <trkpt lat="43.20744" lon="5.47687">
        <ele>285.4</ele>
        <time>2025-10-19T11:50:18Z</time>
      </trkpt>
      <trkpt lat="43.20744" lon="5.47686">
        <ele>285.5</ele>
        <time>2025-10-19T11:50:19Z</time>
      </trkpt>
      <trkpt lat="43.20745" lon="5.47685">
        <ele>285.8</ele>
        <time>2025-10-19T11:50:20Z</time>
      </trkpt>
      <trkpt lat="43.20745" lon="5.47684">
        <ele>286</ele>
        <time>2025-10-19T11:50:21Z</time>
      </trkpt>
      <trkpt lat="43.20746" lon="5.47684">
        <ele>286.2</ele>
        <time>2025-10-19T11:50:22Z</time>
      </trkpt>
      <trkpt lat="43.20746" lon="5.47682">
        <ele>286.4</ele>
        <time>2025-10-19T11:50:23Z</time>
      </trkpt>
      <trkpt lat="43.20747" lon="5.47681">
        <ele>286.5</ele>
        <time>2025-10-19T11:50:24Z</time>
      </trkpt>
      <trkpt lat="43.20747" lon="5.4768">
        <ele>286.8</ele>
        <time>2025-10-19T11:50:25Z</time>
      </trkpt>
      <trkpt lat="43.20747" lon="5.4768">
        <ele>286.9</ele>
        <time>2025-10-19T11:50:26Z</time>
      </trkpt>
      <trkpt lat="43.20747" lon="5.47679">
        <ele>287</ele>
        <time>2025-10-19T11:50:27Z</time>
      </trkpt>
      <trkpt lat="43.20747" lon="5.47679">
        <ele>287.3</ele>
        <time>2025-10-19T11:50:28Z</time>
      </trkpt>
      <trkpt lat="43.20747" lon="5.47678">
        <ele>287.5</ele>
        <time>2025-10-19T11:50:29Z</time>
      </trkpt>
      <trkpt lat="43.20747" lon="5.47678">
        <ele>287.6</ele>
        <time>2025-10-19T11:50:30Z</time>
      </trkpt>
      <trkpt lat="43.20747" lon="5.47677">
        <ele>287.8</ele>
        <time>2025-10-19T11:50:31Z</time>
      </trkpt>
      <trkpt lat="43.20748" lon="5.47677">
        <ele>288</ele>
        <time>2025-10-19T11:50:32Z</time>
      </trkpt>
      <trkpt lat="43.20748" lon="5.47676">
        <ele>288.3</ele>
        <time>2025-10-19T11:50:33Z</time>
      </trkpt>
      <trkpt lat="43.20748" lon="5.47676">
        <ele>288.5</ele>
        <time>2025-10-19T11:50:34Z</time>
      </trkpt>
      <trkpt lat="43.20748" lon="5.47675">
        <ele>288.7</ele>
        <time>2025-10-19T11:50:35Z</time>
      </trkpt>
      <trkpt lat="43.20748" lon="5.47674">
        <ele>289</ele>
        <time>2025-10-19T11:50:36Z</time>
      </trkpt>
      <trkpt lat="43.20748" lon="5.47674">
        <ele>289.3</ele>
        <time>2025-10-19T11:50:37Z</time>
      </trkpt>
      <trkpt lat="43.20747" lon="5.47673">
        <ele>289.5</ele>
        <time>2025-10-19T11:50:38Z</time>
      </trkpt>
      <trkpt lat="43.20747" lon="5.47673">
        <ele>289.7</ele>
        <time>2025-10-19T11:50:39Z</time>
      </trkpt>
      <trkpt lat="43.20747" lon="5.47673">
        <ele>289.9</ele>
        <time>2025-10-19T11:50:40Z</time>
      </trkpt>
      <trkpt lat="43.20747" lon="5.47672">
        <ele>290.1</ele>
        <time>2025-10-19T11:50:41Z</time>
      </trkpt>
      <trkpt lat="43.20747" lon="5.47672">
        <ele>290.2</ele>
        <time>2025-10-19T11:50:42Z</time>
      </trkpt>
      <trkpt lat="43.20747" lon="5.47671">
        <ele>290.3</ele>
        <time>2025-10-19T11:50:43Z</time>
      </trkpt>
      <trkpt lat="43.20747" lon="5.47671">
        <ele>290.5</ele>
        <time>2025-10-19T11:50:44Z</time>
      </trkpt>
      <trkpt lat="43.20747" lon="5.47672">
        <ele>290.8</ele>
        <time>2025-10-19T11:50:45Z</time>
      </trkpt>
      <trkpt lat="43.20748" lon="5.47672">
        <ele>291</ele>
        <time>2025-10-19T11:50:46Z</time>
      </trkpt>
      <trkpt lat="43.20748" lon="5.47672">
        <ele>291.2</ele>
        <time>2025-10-19T11:50:47Z</time>
      </trkpt>
      <trkpt lat="43.20748" lon="5.47672">
        <ele>291.3</ele>
        <time>2025-10-19T11:50:48Z</time>
      </trkpt>
      <trkpt lat="43.20747" lon="5.47672">
        <ele>291.5</ele>
        <time>2025-10-19T11:50:49Z</time>
      </trkpt>
      <trkpt lat="43.20747" lon="5.47672">
        <ele>291.6</ele>
        <time>2025-10-19T11:50:50Z</time>
      </trkpt>
      <trkpt lat="43.20748" lon="5.47672">
        <ele>291.7</ele>
        <time>2025-10-19T11:50:51Z</time>
      </trkpt>
      <trkpt lat="43.20749" lon="5.47671">
        <ele>291.8</ele>
        <time>2025-10-19T11:50:52Z</time>
      </trkpt>
      <trkpt lat="43.20749" lon="5.47671">
        <ele>292</ele>
        <time>2025-10-19T11:50:53Z</time>
      </trkpt>
      <trkpt lat="43.2075" lon="5.47671">
        <ele>292.1</ele>
        <time>2025-10-19T11:50:54Z</time>
      </trkpt>
      <trkpt lat="43.2075" lon="5.47671">
        <ele>292.2</ele>
        <time>2025-10-19T11:50:55Z</time>
      </trkpt>
      <trkpt lat="43.2075" lon="5.4767">
        <ele>292.2</ele>
        <time>2025-10-19T11:50:56Z</time>
      </trkpt>
      <trkpt lat="43.2075" lon="5.4767">
        <ele>292.3</ele>
        <time>2025-10-19T11:50:57Z</time>
      </trkpt>
      <trkpt lat="43.2075" lon="5.4767">
        <ele>292.2</ele>
        <time>2025-10-19T11:50:58Z</time>
      </trkpt>
      <trkpt lat="43.2075" lon="5.47669">
        <ele>292.2</ele>
        <time>2025-10-19T11:50:59Z</time>
      </trkpt>
      <trkpt lat="43.2075" lon="5.47669">
        <ele>292.3</ele>
        <time>2025-10-19T11:51:00Z</time>
      </trkpt>
      <trkpt lat="43.2075" lon="5.47669">
        <ele>292.3</ele>
        <time>2025-10-19T11:51:01Z</time>
      </trkpt>
      <trkpt lat="43.20751" lon="5.47669">
        <ele>292.3</ele>
        <time>2025-10-19T11:51:02Z</time>
      </trkpt>
      <trkpt lat="43.20751" lon="5.47669">
        <ele>292.3</ele>
        <time>2025-10-19T11:51:03Z</time>
      </trkpt>
      <trkpt lat="43.20751" lon="5.47668">
        <ele>292.3</ele>
        <time>2025-10-19T11:51:04Z</time>
      </trkpt>
      <trkpt lat="43.20751" lon="5.47668">
        <ele>292.3</ele>
        <time>2025-10-19T11:51:05Z</time>
      </trkpt>
      <trkpt lat="43.20751" lon="5.47668">
        <ele>292.3</ele>
        <time>2025-10-19T11:51:06Z</time>
      </trkpt>
      <trkpt lat="43.20751" lon="5.47668">
        <ele>292.4</ele>
        <time>2025-10-19T11:51:07Z</time>
      </trkpt>
      <trkpt lat="43.20751" lon="5.47668">
        <ele>292.4</ele>
        <time>2025-10-19T11:51:08Z</time>
      </trkpt>
      <trkpt lat="43.20751" lon="5.47668">
        <ele>292.4</ele>
        <time>2025-10-19T11:51:09Z</time>
      </trkpt>
      <trkpt lat="43.20751" lon="5.47668">
        <ele>292.4</ele>
        <time>2025-10-19T11:51:10Z</time>
      </trkpt>
      <trkpt lat="43.20751" lon="5.47668">
        <ele>292.4</ele>
        <time>2025-10-19T11:51:11Z</time>
      </trkpt>
      <trkpt lat="43.20751" lon="5.47667">
        <ele>292.4</ele>
        <time>2025-10-19T11:51:12Z</time>
      </trkpt>
      <trkpt lat="43.20751" lon="5.47667">
        <ele>292.4</ele>
        <time>2025-10-19T11:51:13Z</time>
      </trkpt>
      <trkpt lat="43.20751" lon="5.47667">
        <ele>292.5</ele>
        <time>2025-10-19T11:51:14Z</time>
      </trkpt>
      <trkpt lat="43.20751" lon="5.47667">
        <ele>292.5</ele>
        <time>2025-10-19T11:51:15Z</time>
      </trkpt>
      <trkpt lat="43.20751" lon="5.47667">
        <ele>292.5</ele>
        <time>2025-10-19T11:51:16Z</time>
      </trkpt>
      <trkpt lat="43.20751" lon="5.47667">
        <ele>292.5</ele>
        <time>2025-10-19T11:51:17Z</time>
      </trkpt>
      <trkpt lat="43.20751" lon="5.47666">
        <ele>292.5</ele>
        <time>2025-10-19T11:51:18Z</time>
      </trkpt>
      <trkpt lat="43.20751" lon="5.47666">
        <ele>292.5</ele>
        <time>2025-10-19T11:51:19Z</time>
      </trkpt>
      <trkpt lat="43.20751" lon="5.47666">
        <ele>292.5</ele>
        <time>2025-10-19T11:51:20Z</time>
      </trkpt>
      <trkpt lat="43.20751" lon="5.47666">
        <ele>292.5</ele>
        <time>2025-10-19T11:51:21Z</time>
      </trkpt>
      <trkpt lat="43.20751" lon="5.47666">
        <ele>292.5</ele>
        <time>2025-10-19T11:51:22Z</time>
      </trkpt>
      <trkpt lat="43.20751" lon="5.47666">
        <ele>292.6</ele>
        <time>2025-10-19T11:51:23Z</time>
      </trkpt>
      <trkpt lat="43.20751" lon="5.47666">
        <ele>292.6</ele>
        <time>2025-10-19T11:51:24Z</time>
      </trkpt>
      <trkpt lat="43.20751" lon="5.47666">
        <ele>292.6</ele>
        <time>2025-10-19T11:51:25Z</time>
      </trkpt>
      <trkpt lat="43.20751" lon="5.47666">
        <ele>292.6</ele>
        <time>2025-10-19T11:51:26Z</time>
      </trkpt>
      <trkpt lat="43.20752" lon="5.47666">
        <ele>292.6</ele>
        <time>2025-10-19T11:51:27Z</time>
      </trkpt>
      <trkpt lat="43.20752" lon="5.47665">
        <ele>292.7</ele>
        <time>2025-10-19T11:51:28Z</time>
      </trkpt>
      <trkpt lat="43.20753" lon="5.47664">
        <ele>292.7</ele>
        <time>2025-10-19T11:51:29Z</time>
      </trkpt>
      <trkpt lat="43.20753" lon="5.47663">
        <ele>292.8</ele>
        <time>2025-10-19T11:51:30Z</time>
      </trkpt>
      <trkpt lat="43.20754" lon="5.47663">
        <ele>292.9</ele>
        <time>2025-10-19T11:51:31Z</time>
      </trkpt>
      <trkpt lat="43.20754" lon="5.47663">
        <ele>292.9</ele>
        <time>2025-10-19T11:51:32Z</time>
      </trkpt>
      <trkpt lat="43.20754" lon="5.47663">
        <ele>293</ele>
        <time>2025-10-19T11:51:33Z</time>
      </trkpt>
      <trkpt lat="43.20754" lon="5.47662">
        <ele>293</ele>
        <time>2025-10-19T11:51:34Z</time>
      </trkpt>
      <trkpt lat="43.20755" lon="5.47661">
        <ele>293.1</ele>
        <time>2025-10-19T11:51:35Z</time>
      </trkpt>
      <trkpt lat="43.20756" lon="5.47661">
        <ele>293.2</ele>
        <time>2025-10-19T11:51:36Z</time>
      </trkpt>
      <trkpt lat="43.20756" lon="5.4766">
        <ele>293.3</ele>
        <time>2025-10-19T11:51:37Z</time>
      </trkpt>
      <trkpt lat="43.20757" lon="5.47659">
        <ele>293.5</ele>
        <time>2025-10-19T11:51:38Z</time>
      </trkpt>
      <trkpt lat="43.20757" lon="5.47658">
        <ele>293.6</ele>
        <time>2025-10-19T11:51:39Z</time>
      </trkpt>
      <trkpt lat="43.20758" lon="5.47658">
        <ele>293.7</ele>
        <time>2025-10-19T11:51:40Z</time>
      </trkpt>
      <trkpt lat="43.20758" lon="5.47657">
        <ele>293.9</ele>
        <time>2025-10-19T11:51:41Z</time>
      </trkpt>
      <trkpt lat="43.20759" lon="5.47656">
        <ele>294.1</ele>
        <time>2025-10-19T11:51:42Z</time>
      </trkpt>
      <trkpt lat="43.20759" lon="5.47655">
        <ele>294.3</ele>
        <time>2025-10-19T11:51:43Z</time>
      </trkpt>
      <trkpt lat="43.2076" lon="5.47655">
        <ele>294.5</ele>
        <time>2025-10-19T11:51:44Z</time>
      </trkpt>
      <trkpt lat="43.2076" lon="5.47654">
        <ele>294.7</ele>
        <time>2025-10-19T11:51:45Z</time>
      </trkpt>
      <trkpt lat="43.2076" lon="5.47654">
        <ele>294.9</ele>
        <time>2025-10-19T11:51:46Z</time>
      </trkpt>
      <trkpt lat="43.2076" lon="5.47653">
        <ele>295.1</ele>
        <time>2025-10-19T11:51:47Z</time>
      </trkpt>
      <trkpt lat="43.2076" lon="5.47653">
        <ele>295.3</ele>
        <time>2025-10-19T11:51:48Z</time>
      </trkpt>
      <trkpt lat="43.20761" lon="5.47652">
        <ele>295.5</ele>
        <time>2025-10-19T11:51:49Z</time>
      </trkpt>
      <trkpt lat="43.20761" lon="5.47651">
        <ele>295.7</ele>
        <time>2025-10-19T11:51:50Z</time>
      </trkpt>
      <trkpt lat="43.20761" lon="5.4765">
        <ele>295.9</ele>
        <time>2025-10-19T11:51:51Z</time>
      </trkpt>
      <trkpt lat="43.20762" lon="5.4765">
        <ele>296.1</ele>
        <time>2025-10-19T11:51:52Z</time>
      </trkpt>
      <trkpt lat="43.20761" lon="5.47648">
        <ele>296.3</ele>
        <time>2025-10-19T11:51:53Z</time>
      </trkpt>
      <trkpt lat="43.20761" lon="5.47647">
        <ele>296.5</ele>
        <time>2025-10-19T11:51:54Z</time>
      </trkpt>
      <trkpt lat="43.20761" lon="5.47646">
        <ele>296.8</ele>
        <time>2025-10-19T11:51:55Z</time>
      </trkpt>
      <trkpt lat="43.20761" lon="5.47645">
        <ele>297</ele>
        <time>2025-10-19T11:51:56Z</time>
      </trkpt>
      <trkpt lat="43.20761" lon="5.47644">
        <ele>297.1</ele>
        <time>2025-10-19T11:51:57Z</time>
      </trkpt>
      <trkpt lat="43.20761" lon="5.47642">
        <ele>297.3</ele>
        <time>2025-10-19T11:51:58Z</time>
      </trkpt>
      <trkpt lat="43.2076" lon="5.47641">
        <ele>297.5</ele>
        <time>2025-10-19T11:51:59Z</time>
      </trkpt>
      <trkpt lat="43.2076" lon="5.4764">
        <ele>297.7</ele>
        <time>2025-10-19T11:52:00Z</time>
      </trkpt>
      <trkpt lat="43.20761" lon="5.47639">
        <ele>297.8</ele>
        <time>2025-10-19T11:52:01Z</time>
      </trkpt>
      <trkpt lat="43.20761" lon="5.47638">
        <ele>298</ele>
        <time>2025-10-19T11:52:02Z</time>
      </trkpt>
      <trkpt lat="43.20761" lon="5.47637">
        <ele>298.2</ele>
        <time>2025-10-19T11:52:03Z</time>
      </trkpt>
      <trkpt lat="43.20761" lon="5.47635">
        <ele>298.4</ele>
        <time>2025-10-19T11:52:04Z</time>
      </trkpt>
      <trkpt lat="43.20761" lon="5.47634">
        <ele>298.5</ele>
        <time>2025-10-19T11:52:05Z</time>
      </trkpt>
      <trkpt lat="43.20761" lon="5.47633">
        <ele>298.7</ele>
        <time>2025-10-19T11:52:06Z</time>
      </trkpt>
      <trkpt lat="43.20762" lon="5.47632">
        <ele>298.9</ele>
        <time>2025-10-19T11:52:07Z</time>
      </trkpt>
      <trkpt lat="43.20762" lon="5.47632">
        <ele>299</ele>
        <time>2025-10-19T11:52:08Z</time>
      </trkpt>
      <trkpt lat="43.20763" lon="5.47631">
        <ele>299.1</ele>
        <time>2025-10-19T11:52:09Z</time>
      </trkpt>
      <trkpt lat="43.20763" lon="5.4763">
        <ele>299.3</ele>
        <time>2025-10-19T11:52:10Z</time>
      </trkpt>
      <trkpt lat="43.20764" lon="5.47629">
        <ele>299.4</ele>
        <time>2025-10-19T11:52:11Z</time>
      </trkpt>
      <trkpt lat="43.20764" lon="5.47628">
        <ele>299.5</ele>
        <time>2025-10-19T11:52:12Z</time>
      </trkpt>
      <trkpt lat="43.20764" lon="5.47627">
        <ele>299.6</ele>
        <time>2025-10-19T11:52:13Z</time>
      </trkpt>
      <trkpt lat="43.20764" lon="5.47627">
        <ele>299.6</ele>
        <time>2025-10-19T11:52:14Z</time>
      </trkpt>
      <trkpt lat="43.20764" lon="5.47627">
        <ele>299.7</ele>
        <time>2025-10-19T11:52:15Z</time>
      </trkpt>
      <trkpt lat="43.20764" lon="5.47627">
        <ele>299.7</ele>
        <time>2025-10-19T11:52:16Z</time>
      </trkpt>
      <trkpt lat="43.20764" lon="5.47627">
        <ele>299.8</ele>
        <time>2025-10-19T11:52:17Z</time>
      </trkpt>
      <trkpt lat="43.20764" lon="5.47627">
        <ele>299.8</ele>
        <time>2025-10-19T11:52:18Z</time>
      </trkpt>
      <trkpt lat="43.20764" lon="5.47627">
        <ele>299.8</ele>
        <time>2025-10-19T11:52:19Z</time>
      </trkpt>
      <trkpt lat="43.20764" lon="5.47627">
        <ele>299.9</ele>
        <time>2025-10-19T11:52:20Z</time>
      </trkpt>
      <trkpt lat="43.20765" lon="5.47627">
        <ele>300</ele>
        <time>2025-10-19T11:52:21Z</time>
      </trkpt>
      <trkpt lat="43.20765" lon="5.47627">
        <ele>300</ele>
        <time>2025-10-19T11:52:22Z</time>
      </trkpt>
      <trkpt lat="43.20765" lon="5.47627">
        <ele>300</ele>
        <time>2025-10-19T11:52:23Z</time>
      </trkpt>
      <trkpt lat="43.20765" lon="5.47627">
        <ele>300</ele>
        <time>2025-10-19T11:52:24Z</time>
      </trkpt>
      <trkpt lat="43.20765" lon="5.47627">
        <ele>300.1</ele>
        <time>2025-10-19T11:52:25Z</time>
      </trkpt>
      <trkpt lat="43.20765" lon="5.47628">
        <ele>300.2</ele>
        <time>2025-10-19T11:52:26Z</time>
      </trkpt>
      <trkpt lat="43.20765" lon="5.47628">
        <ele>300.2</ele>
        <time>2025-10-19T11:52:27Z</time>
      </trkpt>
      <trkpt lat="43.20766" lon="5.47628">
        <ele>300.3</ele>
        <time>2025-10-19T11:52:28Z</time>
      </trkpt>
      <trkpt lat="43.20766" lon="5.47628">
        <ele>300.3</ele>
        <time>2025-10-19T11:52:29Z</time>
      </trkpt>
      <trkpt lat="43.20766" lon="5.47628">
        <ele>300.4</ele>
        <time>2025-10-19T11:52:30Z</time>
      </trkpt>
      <trkpt lat="43.20766" lon="5.47628">
        <ele>300.4</ele>
        <time>2025-10-19T11:52:31Z</time>
      </trkpt>
      <trkpt lat="43.20766" lon="5.47628">
        <ele>300.4</ele>
        <time>2025-10-19T11:52:32Z</time>
      </trkpt>
      <trkpt lat="43.20766" lon="5.47628">
        <ele>300.4</ele>
        <time>2025-10-19T11:52:33Z</time>
      </trkpt>
      <trkpt lat="43.20766" lon="5.47628">
        <ele>300.4</ele>
        <time>2025-10-19T11:52:34Z</time>
      </trkpt>
      <trkpt lat="43.20767" lon="5.47628">
        <ele>300.4</ele>
        <time>2025-10-19T11:52:35Z</time>
      </trkpt>
      <trkpt lat="43.20767" lon="5.47628">
        <ele>300.4</ele>
        <time>2025-10-19T11:52:36Z</time>
      </trkpt>
      <trkpt lat="43.20766" lon="5.47628">
        <ele>300.4</ele>
        <time>2025-10-19T11:52:37Z</time>
      </trkpt>
      <trkpt lat="43.20767" lon="5.47628">
        <ele>300.4</ele>
        <time>2025-10-19T11:52:38Z</time>
      </trkpt>
      <trkpt lat="43.20767" lon="5.47628">
        <ele>300.3</ele>
        <time>2025-10-19T11:52:39Z</time>
      </trkpt>
      <trkpt lat="43.20768" lon="5.47628">
        <ele>300.4</ele>
        <time>2025-10-19T11:52:40Z</time>
      </trkpt>
      <trkpt lat="43.20768" lon="5.47628">
        <ele>300.5</ele>
        <time>2025-10-19T11:52:41Z</time>
      </trkpt>
      <trkpt lat="43.20769" lon="5.47628">
        <ele>300.5</ele>
        <time>2025-10-19T11:52:42Z</time>
      </trkpt>
      <trkpt lat="43.2077" lon="5.47628">
        <ele>300.6</ele>
        <time>2025-10-19T11:52:43Z</time>
      </trkpt>
      <trkpt lat="43.2077" lon="5.47628">
        <ele>300.8</ele>
        <time>2025-10-19T11:52:44Z</time>
      </trkpt>
      <trkpt lat="43.20771" lon="5.47627">
        <ele>300.9</ele>
        <time>2025-10-19T11:52:45Z</time>
      </trkpt>
      <trkpt lat="43.20772" lon="5.47627">
        <ele>301</ele>
        <time>2025-10-19T11:52:46Z</time>
      </trkpt>
      <trkpt lat="43.20773" lon="5.47627">
        <ele>301</ele>
        <time>2025-10-19T11:52:47Z</time>
      </trkpt>
      <trkpt lat="43.20774" lon="5.47627">
        <ele>301.2</ele>
        <time>2025-10-19T11:52:48Z</time>
      </trkpt>
      <trkpt lat="43.20775" lon="5.47627">
        <ele>301.2</ele>
        <time>2025-10-19T11:52:49Z</time>
      </trkpt>
      <trkpt lat="43.20776" lon="5.47626">
        <ele>301.3</ele>
        <time>2025-10-19T11:52:50Z</time>
      </trkpt>
      <trkpt lat="43.20776" lon="5.47625">
        <ele>301.3</ele>
        <time>2025-10-19T11:52:51Z</time>
      </trkpt>
      <trkpt lat="43.20777" lon="5.47623">
        <ele>301.5</ele>
        <time>2025-10-19T11:52:52Z</time>
      </trkpt>
      <trkpt lat="43.20777" lon="5.47622">
        <ele>301.6</ele>
        <time>2025-10-19T11:52:53Z</time>
      </trkpt>
      <trkpt lat="43.20777" lon="5.47621">
        <ele>301.6</ele>
        <time>2025-10-19T11:52:54Z</time>
      </trkpt>
      <trkpt lat="43.20777" lon="5.4762">
        <ele>301.7</ele>
        <time>2025-10-19T11:52:55Z</time>
      </trkpt>
      <trkpt lat="43.20777" lon="5.47618">
        <ele>301.8</ele>
        <time>2025-10-19T11:52:56Z</time>
      </trkpt>
      <trkpt lat="43.20778" lon="5.47617">
        <ele>302</ele>
        <time>2025-10-19T11:52:57Z</time>
      </trkpt>
      <trkpt lat="43.20778" lon="5.47616">
        <ele>302.1</ele>
        <time>2025-10-19T11:52:58Z</time>
      </trkpt>
      <trkpt lat="43.20778" lon="5.47615">
        <ele>302.2</ele>
        <time>2025-10-19T11:52:59Z</time>
      </trkpt>
      <trkpt lat="43.20778" lon="5.47613">
        <ele>302.3</ele>
        <time>2025-10-19T11:53:00Z</time>
      </trkpt>
      <trkpt lat="43.20778" lon="5.47612">
        <ele>302.4</ele>
        <time>2025-10-19T11:53:01Z</time>
      </trkpt>
      <trkpt lat="43.20778" lon="5.47611">
        <ele>302.4</ele>
        <time>2025-10-19T11:53:02Z</time>
      </trkpt>
      <trkpt lat="43.20778" lon="5.4761">
        <ele>302.5</ele>
        <time>2025-10-19T11:53:03Z</time>
      </trkpt>
      <trkpt lat="43.20778" lon="5.47608">
        <ele>302.6</ele>
        <time>2025-10-19T11:53:04Z</time>
      </trkpt>
      <trkpt lat="43.20778" lon="5.47607">
        <ele>302.8</ele>
        <time>2025-10-19T11:53:05Z</time>
      </trkpt>
      <trkpt lat="43.20778" lon="5.47605">
        <ele>303</ele>
        <time>2025-10-19T11:53:06Z</time>
      </trkpt>
      <trkpt lat="43.20778" lon="5.47604">
        <ele>303.2</ele>
        <time>2025-10-19T11:53:07Z</time>
      </trkpt>
      <trkpt lat="43.20779" lon="5.47603">
        <ele>303.4</ele>
        <time>2025-10-19T11:53:08Z</time>
      </trkpt>
      <trkpt lat="43.20779" lon="5.47602">
        <ele>303.6</ele>
        <time>2025-10-19T11:53:09Z</time>
      </trkpt>
      <trkpt lat="43.20779" lon="5.476">
        <ele>303.9</ele>
        <time>2025-10-19T11:53:10Z</time>
      </trkpt>
      <trkpt lat="43.20779" lon="5.47599">
        <ele>304.1</ele>
        <time>2025-10-19T11:53:11Z</time>
      </trkpt>
      <trkpt lat="43.2078" lon="5.47598">
        <ele>304.2</ele>
        <time>2025-10-19T11:53:12Z</time>
      </trkpt>
      <trkpt lat="43.2078" lon="5.47597">
        <ele>304.4</ele>
        <time>2025-10-19T11:53:13Z</time>
      </trkpt>
      <trkpt lat="43.20781" lon="5.47596">
        <ele>304.5</ele>
        <time>2025-10-19T11:53:14Z</time>
      </trkpt>
      <trkpt lat="43.20782" lon="5.47595">
        <ele>304.6</ele>
        <time>2025-10-19T11:53:15Z</time>
      </trkpt>
      <trkpt lat="43.20782" lon="5.47594">
        <ele>304.8</ele>
        <time>2025-10-19T11:53:16Z</time>
      </trkpt>
      <trkpt lat="43.20783" lon="5.47593">
        <ele>305.1</ele>
        <time>2025-10-19T11:53:17Z</time>
      </trkpt>
      <trkpt lat="43.20783" lon="5.47593">
        <ele>305.5</ele>
        <time>2025-10-19T11:53:18Z</time>
      </trkpt>
      <trkpt lat="43.20784" lon="5.47592">
        <ele>305.7</ele>
        <time>2025-10-19T11:53:19Z</time>
      </trkpt>
      <trkpt lat="43.20785" lon="5.47591">
        <ele>305.8</ele>
        <time>2025-10-19T11:53:20Z</time>
      </trkpt>
      <trkpt lat="43.20785" lon="5.4759">
        <ele>305.9</ele>
        <time>2025-10-19T11:53:21Z</time>
      </trkpt>
      <trkpt lat="43.20786" lon="5.47589">
        <ele>306</ele>
        <time>2025-10-19T11:53:22Z</time>
      </trkpt>
      <trkpt lat="43.20786" lon="5.47588">
        <ele>306</ele>
        <time>2025-10-19T11:53:23Z</time>
      </trkpt>
      <trkpt lat="43.20786" lon="5.47587">
        <ele>306</ele>
        <time>2025-10-19T11:53:24Z</time>
      </trkpt>
      <trkpt lat="43.20786" lon="5.47586">
        <ele>306.1</ele>
        <time>2025-10-19T11:53:25Z</time>
      </trkpt>
      <trkpt lat="43.20786" lon="5.47585">
        <ele>306.2</ele>
        <time>2025-10-19T11:53:26Z</time>
      </trkpt>
      <trkpt lat="43.20787" lon="5.47584">
        <ele>306.2</ele>
        <time>2025-10-19T11:53:27Z</time>
      </trkpt>
      <trkpt lat="43.20787" lon="5.47582">
        <ele>306.4</ele>
        <time>2025-10-19T11:53:28Z</time>
      </trkpt>
      <trkpt lat="43.20787" lon="5.47582">
        <ele>306.5</ele>
        <time>2025-10-19T11:53:29Z</time>
      </trkpt>
      <trkpt lat="43.20787" lon="5.47581">
        <ele>306.7</ele>
        <time>2025-10-19T11:53:30Z</time>
      </trkpt>
      <trkpt lat="43.20788" lon="5.4758">
        <ele>306.8</ele>
        <time>2025-10-19T11:53:31Z</time>
      </trkpt>
      <trkpt lat="43.20788" lon="5.47579">
        <ele>306.9</ele>
        <time>2025-10-19T11:53:32Z</time>
      </trkpt>
      <trkpt lat="43.20788" lon="5.47578">
        <ele>307</ele>
        <time>2025-10-19T11:53:33Z</time>
      </trkpt>
      <trkpt lat="43.20789" lon="5.47576">
        <ele>307</ele>
        <time>2025-10-19T11:53:34Z</time>
      </trkpt>
      <trkpt lat="43.20788" lon="5.47575">
        <ele>307.1</ele>
        <time>2025-10-19T11:53:35Z</time>
      </trkpt>
      <trkpt lat="43.20788" lon="5.47574">
        <ele>307.2</ele>
        <time>2025-10-19T11:53:36Z</time>
      </trkpt>
      <trkpt lat="43.20788" lon="5.47573">
        <ele>307.2</ele>
        <time>2025-10-19T11:53:37Z</time>
      </trkpt>
      <trkpt lat="43.20788" lon="5.47572">
        <ele>307.3</ele>
        <time>2025-10-19T11:53:38Z</time>
      </trkpt>
      <trkpt lat="43.20788" lon="5.47571">
        <ele>307.4</ele>
        <time>2025-10-19T11:53:39Z</time>
      </trkpt>
      <trkpt lat="43.20788" lon="5.4757">
        <ele>307.5</ele>
        <time>2025-10-19T11:53:40Z</time>
      </trkpt>
      <trkpt lat="43.20787" lon="5.47569">
        <ele>307.6</ele>
        <time>2025-10-19T11:53:41Z</time>
      </trkpt>
      <trkpt lat="43.20787" lon="5.47569">
        <ele>307.7</ele>
        <time>2025-10-19T11:53:42Z</time>
      </trkpt>
      <trkpt lat="43.20787" lon="5.47568">
        <ele>307.8</ele>
        <time>2025-10-19T11:53:43Z</time>
      </trkpt>
      <trkpt lat="43.20787" lon="5.47568">
        <ele>307.8</ele>
        <time>2025-10-19T11:53:44Z</time>
      </trkpt>
      <trkpt lat="43.20788" lon="5.47567">
        <ele>307.9</ele>
        <time>2025-10-19T11:53:45Z</time>
      </trkpt>
      <trkpt lat="43.20788" lon="5.47567">
        <ele>308</ele>
        <time>2025-10-19T11:53:46Z</time>
      </trkpt>
      <trkpt lat="43.20788" lon="5.47566">
        <ele>307.9</ele>
        <time>2025-10-19T11:53:47Z</time>
      </trkpt>
      <trkpt lat="43.20788" lon="5.47566">
        <ele>307.9</ele>
        <time>2025-10-19T11:53:48Z</time>
      </trkpt>
      <trkpt lat="43.20788" lon="5.47566">
        <ele>308</ele>
        <time>2025-10-19T11:53:49Z</time>
      </trkpt>
      <trkpt lat="43.20788" lon="5.47566">
        <ele>308</ele>
        <time>2025-10-19T11:53:50Z</time>
      </trkpt>
      <trkpt lat="43.20787" lon="5.47566">
        <ele>308</ele>
        <time>2025-10-19T11:53:51Z</time>
      </trkpt>
      <trkpt lat="43.20787" lon="5.47566">
        <ele>308</ele>
        <time>2025-10-19T11:53:52Z</time>
      </trkpt>
      <trkpt lat="43.20787" lon="5.47566">
        <ele>308</ele>
        <time>2025-10-19T11:53:53Z</time>
      </trkpt>
      <trkpt lat="43.20787" lon="5.47566">
        <ele>308</ele>
        <time>2025-10-19T11:53:54Z</time>
      </trkpt>
      <trkpt lat="43.20787" lon="5.47566">
        <ele>308</ele>
        <time>2025-10-19T11:53:55Z</time>
      </trkpt>
      <trkpt lat="43.20787" lon="5.47566">
        <ele>308</ele>
        <time>2025-10-19T11:53:56Z</time>
      </trkpt>
      <trkpt lat="43.20787" lon="5.47566">
        <ele>308</ele>
        <time>2025-10-19T11:53:57Z</time>
      </trkpt>
      <trkpt lat="43.20787" lon="5.47566">
        <ele>307.9</ele>
        <time>2025-10-19T11:53:58Z</time>
      </trkpt>
      <trkpt lat="43.20787" lon="5.47566">
        <ele>307.9</ele>
        <time>2025-10-19T11:53:59Z</time>
      </trkpt>
      <trkpt lat="43.20787" lon="5.47566">
        <ele>307.7</ele>
        <time>2025-10-19T11:54:00Z</time>
      </trkpt>
      <trkpt lat="43.20787" lon="5.47566">
        <ele>307.7</ele>
        <time>2025-10-19T11:54:01Z</time>
      </trkpt>
      <trkpt lat="43.20788" lon="5.47566">
        <ele>307.5</ele>
        <time>2025-10-19T11:54:02Z</time>
      </trkpt>
      <trkpt lat="43.20788" lon="5.47565">
        <ele>307.5</ele>
        <time>2025-10-19T11:54:03Z</time>
      </trkpt>
      <trkpt lat="43.20789" lon="5.47565">
        <ele>307.6</ele>
        <time>2025-10-19T11:54:04Z</time>
      </trkpt>
      <trkpt lat="43.2079" lon="5.47565">
        <ele>307.6</ele>
        <time>2025-10-19T11:54:05Z</time>
      </trkpt>
      <trkpt lat="43.2079" lon="5.47564">
        <ele>307.6</ele>
        <time>2025-10-19T11:54:06Z</time>
      </trkpt>
      <trkpt lat="43.20791" lon="5.47564">
        <ele>307.8</ele>
        <time>2025-10-19T11:54:07Z</time>
      </trkpt>
      <trkpt lat="43.20792" lon="5.47564">
        <ele>307.9</ele>
        <time>2025-10-19T11:54:08Z</time>
      </trkpt>
      <trkpt lat="43.20793" lon="5.47564">
        <ele>308</ele>
        <time>2025-10-19T11:54:09Z</time>
      </trkpt>
      <trkpt lat="43.20794" lon="5.47563">
        <ele>308.2</ele>
        <time>2025-10-19T11:54:10Z</time>
      </trkpt>
      <trkpt lat="43.20795" lon="5.47563">
        <ele>308.4</ele>
        <time>2025-10-19T11:54:11Z</time>
      </trkpt>
      <trkpt lat="43.20796" lon="5.47562">
        <ele>308.5</ele>
        <time>2025-10-19T11:54:12Z</time>
      </trkpt>
      <trkpt lat="43.20797" lon="5.47562">
        <ele>308.6</ele>
        <time>2025-10-19T11:54:13Z</time>
      </trkpt>
      <trkpt lat="43.20798" lon="5.47562">
        <ele>308.5</ele>
        <time>2025-10-19T11:54:14Z</time>
      </trkpt>
      <trkpt lat="43.20799" lon="5.47561">
        <ele>308.6</ele>
        <time>2025-10-19T11:54:15Z</time>
      </trkpt>
      <trkpt lat="43.208" lon="5.47561">
        <ele>308.7</ele>
        <time>2025-10-19T11:54:16Z</time>
      </trkpt>
      <trkpt lat="43.20801" lon="5.4756">
        <ele>308.7</ele>
        <time>2025-10-19T11:54:17Z</time>
      </trkpt>
      <trkpt lat="43.20802" lon="5.4756">
        <ele>308.7</ele>
        <time>2025-10-19T11:54:18Z</time>
      </trkpt>
      <trkpt lat="43.20803" lon="5.47559">
        <ele>308.8</ele>
        <time>2025-10-19T11:54:19Z</time>
      </trkpt>
      <trkpt lat="43.20804" lon="5.47558">
        <ele>308.8</ele>
        <time>2025-10-19T11:54:20Z</time>
      </trkpt>
      <trkpt lat="43.20805" lon="5.47557">
        <ele>308.9</ele>
        <time>2025-10-19T11:54:21Z</time>
      </trkpt>
      <trkpt lat="43.20806" lon="5.47556">
        <ele>309</ele>
        <time>2025-10-19T11:54:22Z</time>
      </trkpt>
      <trkpt lat="43.20807" lon="5.47555">
        <ele>309.1</ele>
        <time>2025-10-19T11:54:23Z</time>
      </trkpt>
      <trkpt lat="43.20807" lon="5.47554">
        <ele>309.1</ele>
        <time>2025-10-19T11:54:24Z</time>
      </trkpt>
      <trkpt lat="43.20808" lon="5.47553">
        <ele>309.1</ele>
        <time>2025-10-19T11:54:25Z</time>
      </trkpt>
      <trkpt lat="43.20809" lon="5.47552">
        <ele>309.1</ele>
        <time>2025-10-19T11:54:26Z</time>
      </trkpt>
      <trkpt lat="43.2081" lon="5.47551">
        <ele>309.1</ele>
        <time>2025-10-19T11:54:27Z</time>
      </trkpt>
      <trkpt lat="43.20811" lon="5.47551">
        <ele>309.1</ele>
        <time>2025-10-19T11:54:28Z</time>
      </trkpt>
      <trkpt lat="43.20811" lon="5.47549">
        <ele>309.1</ele>
        <time>2025-10-19T11:54:29Z</time>
      </trkpt>
      <trkpt lat="43.20811" lon="5.47548">
        <ele>309.2</ele>
        <time>2025-10-19T11:54:30Z</time>
      </trkpt>
      <trkpt lat="43.20812" lon="5.47547">
        <ele>309.2</ele>
        <time>2025-10-19T11:54:31Z</time>
      </trkpt>
      <trkpt lat="43.20812" lon="5.47546">
        <ele>309.3</ele>
        <time>2025-10-19T11:54:32Z</time>
      </trkpt>
      <trkpt lat="43.20813" lon="5.47545">
        <ele>309.3</ele>
        <time>2025-10-19T11:54:33Z</time>
      </trkpt>
      <trkpt lat="43.20813" lon="5.47544">
        <ele>309.4</ele>
        <time>2025-10-19T11:54:34Z</time>
      </trkpt>
      <trkpt lat="43.20814" lon="5.47542">
        <ele>309.5</ele>
        <time>2025-10-19T11:54:35Z</time>
      </trkpt>
      <trkpt lat="43.20815" lon="5.47541">
        <ele>309.6</ele>
        <time>2025-10-19T11:54:36Z</time>
      </trkpt>
      <trkpt lat="43.20815" lon="5.47539">
        <ele>309.6</ele>
        <time>2025-10-19T11:54:37Z</time>
      </trkpt>
      <trkpt lat="43.20816" lon="5.47538">
        <ele>309.7</ele>
        <time>2025-10-19T11:54:38Z</time>
      </trkpt>
      <trkpt lat="43.20816" lon="5.47536">
        <ele>309.8</ele>
        <time>2025-10-19T11:54:39Z</time>
      </trkpt>
      <trkpt lat="43.20817" lon="5.47535">
        <ele>309.9</ele>
        <time>2025-10-19T11:54:40Z</time>
      </trkpt>
      <trkpt lat="43.20817" lon="5.47533">
        <ele>310.1</ele>
        <time>2025-10-19T11:54:41Z</time>
      </trkpt>
      <trkpt lat="43.20817" lon="5.47532">
        <ele>310.2</ele>
        <time>2025-10-19T11:54:42Z</time>
      </trkpt>
      <trkpt lat="43.20818" lon="5.47531">
        <ele>310.3</ele>
        <time>2025-10-19T11:54:43Z</time>
      </trkpt>
      <trkpt lat="43.20819" lon="5.4753">
        <ele>310.3</ele>
        <time>2025-10-19T11:54:44Z</time>
      </trkpt>
      <trkpt lat="43.20819" lon="5.47528">
        <ele>310.4</ele>
        <time>2025-10-19T11:54:45Z</time>
      </trkpt>
      <trkpt lat="43.2082" lon="5.47527">
        <ele>310.5</ele>
        <time>2025-10-19T11:54:46Z</time>
      </trkpt>
      <trkpt lat="43.2082" lon="5.47526">
        <ele>310.6</ele>
        <time>2025-10-19T11:54:47Z</time>
      </trkpt>
      <trkpt lat="43.20821" lon="5.47524">
        <ele>310.8</ele>
        <time>2025-10-19T11:54:48Z</time>
      </trkpt>
      <trkpt lat="43.20822" lon="5.47523">
        <ele>310.9</ele>
        <time>2025-10-19T11:54:49Z</time>
      </trkpt>
      <trkpt lat="43.20823" lon="5.47523">
        <ele>311</ele>
        <time>2025-10-19T11:54:50Z</time>
      </trkpt>
      <trkpt lat="43.20824" lon="5.47521">
        <ele>310.9</ele>
        <time>2025-10-19T11:54:51Z</time>
      </trkpt>
      <trkpt lat="43.20824" lon="5.4752">
        <ele>310.9</ele>
        <time>2025-10-19T11:54:52Z</time>
      </trkpt>
      <trkpt lat="43.20824" lon="5.47518">
        <ele>310.9</ele>
        <time>2025-10-19T11:54:53Z</time>
      </trkpt>
      <trkpt lat="43.20825" lon="5.47517">
        <ele>311</ele>
        <time>2025-10-19T11:54:54Z</time>
      </trkpt>
      <trkpt lat="43.20825" lon="5.47516">
        <ele>311</ele>
        <time>2025-10-19T11:54:55Z</time>
      </trkpt>
      <trkpt lat="43.20824" lon="5.47515">
        <ele>311.1</ele>
        <time>2025-10-19T11:54:56Z</time>
      </trkpt>
      <trkpt lat="43.20824" lon="5.47514">
        <ele>311.3</ele>
        <time>2025-10-19T11:54:57Z</time>
      </trkpt>
      <trkpt lat="43.20824" lon="5.47513">
        <ele>311.4</ele>
        <time>2025-10-19T11:54:58Z</time>
      </trkpt>
      <trkpt lat="43.20824" lon="5.47512">
        <ele>311.6</ele>
        <time>2025-10-19T11:54:59Z</time>
      </trkpt>
      <trkpt lat="43.20825" lon="5.47511">
        <ele>311.7</ele>
        <time>2025-10-19T11:55:00Z</time>
      </trkpt>
      <trkpt lat="43.20826" lon="5.4751">
        <ele>311.9</ele>
        <time>2025-10-19T11:55:01Z</time>
      </trkpt>
      <trkpt lat="43.20826" lon="5.47509">
        <ele>312</ele>
        <time>2025-10-19T11:55:02Z</time>
      </trkpt>
      <trkpt lat="43.20827" lon="5.47508">
        <ele>312.1</ele>
        <time>2025-10-19T11:55:03Z</time>
      </trkpt>
      <trkpt lat="43.20827" lon="5.47507">
        <ele>312.2</ele>
        <time>2025-10-19T11:55:04Z</time>
      </trkpt>
      <trkpt lat="43.20828" lon="5.47506">
        <ele>312.2</ele>
        <time>2025-10-19T11:55:05Z</time>
      </trkpt>
      <trkpt lat="43.20828" lon="5.47505">
        <ele>312.3</ele>
        <time>2025-10-19T11:55:06Z</time>
      </trkpt>
      <trkpt lat="43.20829" lon="5.47504">
        <ele>312.3</ele>
        <time>2025-10-19T11:55:07Z</time>
      </trkpt>
      <trkpt lat="43.2083" lon="5.47503">
        <ele>312.4</ele>
        <time>2025-10-19T11:55:08Z</time>
      </trkpt>
      <trkpt lat="43.2083" lon="5.47502">
        <ele>312.4</ele>
        <time>2025-10-19T11:55:09Z</time>
      </trkpt>
      <trkpt lat="43.2083" lon="5.47501">
        <ele>312.5</ele>
        <time>2025-10-19T11:55:10Z</time>
      </trkpt>
      <trkpt lat="43.2083" lon="5.47499">
        <ele>312.6</ele>
        <time>2025-10-19T11:55:11Z</time>
      </trkpt>
      <trkpt lat="43.2083" lon="5.47498">
        <ele>312.7</ele>
        <time>2025-10-19T11:55:12Z</time>
      </trkpt>
      <trkpt lat="43.20831" lon="5.47497">
        <ele>312.8</ele>
        <time>2025-10-19T11:55:13Z</time>
      </trkpt>
      <trkpt lat="43.20832" lon="5.47495">
        <ele>312.9</ele>
        <time>2025-10-19T11:55:14Z</time>
      </trkpt>
      <trkpt lat="43.20832" lon="5.47494">
        <ele>313</ele>
        <time>2025-10-19T11:55:15Z</time>
      </trkpt>
      <trkpt lat="43.20833" lon="5.47492">
        <ele>313</ele>
        <time>2025-10-19T11:55:16Z</time>
      </trkpt>
      <trkpt lat="43.20833" lon="5.47491">
        <ele>313</ele>
        <time>2025-10-19T11:55:17Z</time>
      </trkpt>
      <trkpt lat="43.20834" lon="5.4749">
        <ele>313.1</ele>
        <time>2025-10-19T11:55:18Z</time>
      </trkpt>
      <trkpt lat="43.20834" lon="5.47488">
        <ele>313.1</ele>
        <time>2025-10-19T11:55:19Z</time>
      </trkpt>
      <trkpt lat="43.20834" lon="5.47487">
        <ele>313.2</ele>
        <time>2025-10-19T11:55:20Z</time>
      </trkpt>
      <trkpt lat="43.20834" lon="5.47485">
        <ele>313.3</ele>
        <time>2025-10-19T11:55:21Z</time>
      </trkpt>
      <trkpt lat="43.20835" lon="5.47484">
        <ele>313.5</ele>
        <time>2025-10-19T11:55:22Z</time>
      </trkpt>
      <trkpt lat="43.20835" lon="5.47483">
        <ele>313.6</ele>
        <time>2025-10-19T11:55:23Z</time>
      </trkpt>
      <trkpt lat="43.20835" lon="5.47481">
        <ele>313.8</ele>
        <time>2025-10-19T11:55:24Z</time>
      </trkpt>
      <trkpt lat="43.20836" lon="5.4748">
        <ele>313.9</ele>
        <time>2025-10-19T11:55:25Z</time>
      </trkpt>
      <trkpt lat="43.20836" lon="5.47479">
        <ele>314</ele>
        <time>2025-10-19T11:55:26Z</time>
      </trkpt>
      <trkpt lat="43.20836" lon="5.47478">
        <ele>314.1</ele>
        <time>2025-10-19T11:55:27Z</time>
      </trkpt>
      <trkpt lat="43.20836" lon="5.47477">
        <ele>314.3</ele>
        <time>2025-10-19T11:55:28Z</time>
      </trkpt>
      <trkpt lat="43.20837" lon="5.47476">
        <ele>314.6</ele>
        <time>2025-10-19T11:55:29Z</time>
      </trkpt>
      <trkpt lat="43.20837" lon="5.47475">
        <ele>314.8</ele>
        <time>2025-10-19T11:55:30Z</time>
      </trkpt>
      <trkpt lat="43.20837" lon="5.47474">
        <ele>314.9</ele>
        <time>2025-10-19T11:55:31Z</time>
      </trkpt>
      <trkpt lat="43.20838" lon="5.47474">
        <ele>314.9</ele>
        <time>2025-10-19T11:55:32Z</time>
      </trkpt>
      <trkpt lat="43.20839" lon="5.47473">
        <ele>315</ele>
        <time>2025-10-19T11:55:33Z</time>
      </trkpt>
      <trkpt lat="43.2084" lon="5.47472">
        <ele>315.1</ele>
        <time>2025-10-19T11:55:34Z</time>
      </trkpt>
      <trkpt lat="43.2084" lon="5.47471">
        <ele>315.2</ele>
        <time>2025-10-19T11:55:35Z</time>
      </trkpt>
      <trkpt lat="43.20841" lon="5.47469">
        <ele>315.3</ele>
        <time>2025-10-19T11:55:36Z</time>
      </trkpt>
      <trkpt lat="43.20842" lon="5.47468">
        <ele>315.3</ele>
        <time>2025-10-19T11:55:37Z</time>
      </trkpt>
      <trkpt lat="43.20842" lon="5.47467">
        <ele>315.4</ele>
        <time>2025-10-19T11:55:38Z</time>
      </trkpt>
      <trkpt lat="43.20842" lon="5.47466">
        <ele>315.4</ele>
        <time>2025-10-19T11:55:39Z</time>
      </trkpt>
      <trkpt lat="43.20843" lon="5.47464">
        <ele>315.4</ele>
        <time>2025-10-19T11:55:40Z</time>
      </trkpt>
      <trkpt lat="43.20843" lon="5.47463">
        <ele>315.5</ele>
        <time>2025-10-19T11:55:41Z</time>
      </trkpt>
      <trkpt lat="43.20844" lon="5.47462">
        <ele>315.5</ele>
        <time>2025-10-19T11:55:42Z</time>
      </trkpt>
      <trkpt lat="43.20845" lon="5.47461">
        <ele>315.5</ele>
        <time>2025-10-19T11:55:43Z</time>
      </trkpt>
      <trkpt lat="43.20846" lon="5.4746">
        <ele>315.5</ele>
        <time>2025-10-19T11:55:44Z</time>
      </trkpt>
      <trkpt lat="43.20846" lon="5.47458">
        <ele>315.5</ele>
        <time>2025-10-19T11:55:45Z</time>
      </trkpt>
      <trkpt lat="43.20847" lon="5.47457">
        <ele>315.5</ele>
        <time>2025-10-19T11:55:46Z</time>
      </trkpt>
      <trkpt lat="43.20847" lon="5.47456">
        <ele>315.5</ele>
        <time>2025-10-19T11:55:47Z</time>
      </trkpt>
      <trkpt lat="43.20848" lon="5.47455">
        <ele>315.6</ele>
        <time>2025-10-19T11:55:48Z</time>
      </trkpt>
      <trkpt lat="43.20849" lon="5.47454">
        <ele>315.6</ele>
        <time>2025-10-19T11:55:49Z</time>
      </trkpt>
      <trkpt lat="43.2085" lon="5.47453">
        <ele>315.6</ele>
        <time>2025-10-19T11:55:50Z</time>
      </trkpt>
      <trkpt lat="43.2085" lon="5.47451">
        <ele>315.6</ele>
        <time>2025-10-19T11:55:51Z</time>
      </trkpt>
      <trkpt lat="43.2085" lon="5.47449">
        <ele>315.6</ele>
        <time>2025-10-19T11:55:52Z</time>
      </trkpt>
      <trkpt lat="43.2085" lon="5.47448">
        <ele>315.4</ele>
        <time>2025-10-19T11:55:53Z</time>
      </trkpt>
      <trkpt lat="43.20849" lon="5.47447">
        <ele>315.4</ele>
        <time>2025-10-19T11:55:54Z</time>
      </trkpt>
      <trkpt lat="43.20849" lon="5.47445">
        <ele>315.4</ele>
        <time>2025-10-19T11:55:55Z</time>
      </trkpt>
      <trkpt lat="43.20849" lon="5.47443">
        <ele>315.4</ele>
        <time>2025-10-19T11:55:56Z</time>
      </trkpt>
      <trkpt lat="43.20849" lon="5.47442">
        <ele>315.4</ele>
        <time>2025-10-19T11:55:57Z</time>
      </trkpt>
      <trkpt lat="43.20848" lon="5.47441">
        <ele>315.3</ele>
        <time>2025-10-19T11:55:58Z</time>
      </trkpt>
      <trkpt lat="43.20848" lon="5.47439">
        <ele>315.2</ele>
        <time>2025-10-19T11:55:59Z</time>
      </trkpt>
      <trkpt lat="43.20848" lon="5.47438">
        <ele>315.1</ele>
        <time>2025-10-19T11:56:00Z</time>
      </trkpt>
      <trkpt lat="43.20848" lon="5.47436">
        <ele>315.1</ele>
        <time>2025-10-19T11:56:01Z</time>
      </trkpt>
      <trkpt lat="43.20848" lon="5.47435">
        <ele>315.1</ele>
        <time>2025-10-19T11:56:02Z</time>
      </trkpt>
      <trkpt lat="43.20848" lon="5.47434">
        <ele>315</ele>
        <time>2025-10-19T11:56:03Z</time>
      </trkpt>
      <trkpt lat="43.20847" lon="5.47433">
        <ele>315.1</ele>
        <time>2025-10-19T11:56:04Z</time>
      </trkpt>
      <trkpt lat="43.20847" lon="5.47433">
        <ele>315.2</ele>
        <time>2025-10-19T11:56:05Z</time>
      </trkpt>
      <trkpt lat="43.20846" lon="5.47432">
        <ele>314.9</ele>
        <time>2025-10-19T11:56:06Z</time>
      </trkpt>
      <trkpt lat="43.20846" lon="5.47431">
        <ele>315.1</ele>
        <time>2025-10-19T11:56:07Z</time>
      </trkpt>
      <trkpt lat="43.20845" lon="5.4743">
        <ele>315.2</ele>
        <time>2025-10-19T11:56:08Z</time>
      </trkpt>
      <trkpt lat="43.20845" lon="5.47428">
        <ele>315.3</ele>
        <time>2025-10-19T11:56:09Z</time>
      </trkpt>
      <trkpt lat="43.20844" lon="5.47427">
        <ele>315.4</ele>
        <time>2025-10-19T11:56:10Z</time>
      </trkpt>
      <trkpt lat="43.20845" lon="5.47426">
        <ele>315.4</ele>
        <time>2025-10-19T11:56:11Z</time>
      </trkpt>
      <trkpt lat="43.20844" lon="5.47425">
        <ele>315.5</ele>
        <time>2025-10-19T11:56:12Z</time>
      </trkpt>
      <trkpt lat="43.20844" lon="5.47424">
        <ele>315.6</ele>
        <time>2025-10-19T11:56:13Z</time>
      </trkpt>
      <trkpt lat="43.20844" lon="5.47422">
        <ele>315.7</ele>
        <time>2025-10-19T11:56:14Z</time>
      </trkpt>
      <trkpt lat="43.20844" lon="5.47421">
        <ele>315.8</ele>
        <time>2025-10-19T11:56:15Z</time>
      </trkpt>
      <trkpt lat="43.20843" lon="5.47421">
        <ele>315.8</ele>
        <time>2025-10-19T11:56:16Z</time>
      </trkpt>
      <trkpt lat="43.20842" lon="5.4742">
        <ele>316</ele>
        <time>2025-10-19T11:56:17Z</time>
      </trkpt>
      <trkpt lat="43.20841" lon="5.47419">
        <ele>316.1</ele>
        <time>2025-10-19T11:56:18Z</time>
      </trkpt>
      <trkpt lat="43.20841" lon="5.47419">
        <ele>316.2</ele>
        <time>2025-10-19T11:56:19Z</time>
      </trkpt>
      <trkpt lat="43.20841" lon="5.47418">
        <ele>316.3</ele>
        <time>2025-10-19T11:56:20Z</time>
      </trkpt>
      <trkpt lat="43.20841" lon="5.47418">
        <ele>316.4</ele>
        <time>2025-10-19T11:56:21Z</time>
      </trkpt>
      <trkpt lat="43.20841" lon="5.47417">
        <ele>316.5</ele>
        <time>2025-10-19T11:56:22Z</time>
      </trkpt>
      <trkpt lat="43.20841" lon="5.47416">
        <ele>316.6</ele>
        <time>2025-10-19T11:56:23Z</time>
      </trkpt>
      <trkpt lat="43.20841" lon="5.47415">
        <ele>316.5</ele>
        <time>2025-10-19T11:56:24Z</time>
      </trkpt>
      <trkpt lat="43.2084" lon="5.47415">
        <ele>316.5</ele>
        <time>2025-10-19T11:56:25Z</time>
      </trkpt>
      <trkpt lat="43.20841" lon="5.47415">
        <ele>316.5</ele>
        <time>2025-10-19T11:56:26Z</time>
      </trkpt>
      <trkpt lat="43.20841" lon="5.47414">
        <ele>316.5</ele>
        <time>2025-10-19T11:56:27Z</time>
      </trkpt>
      <trkpt lat="43.20841" lon="5.47414">
        <ele>316.5</ele>
        <time>2025-10-19T11:56:28Z</time>
      </trkpt>
      <trkpt lat="43.20841" lon="5.47414">
        <ele>316.5</ele>
        <time>2025-10-19T11:56:29Z</time>
      </trkpt>
      <trkpt lat="43.20841" lon="5.47414">
        <ele>316.4</ele>
        <time>2025-10-19T11:56:30Z</time>
      </trkpt>
      <trkpt lat="43.20841" lon="5.47414">
        <ele>316.4</ele>
        <time>2025-10-19T11:56:31Z</time>
      </trkpt>
      <trkpt lat="43.20841" lon="5.47414">
        <ele>316.4</ele>
        <time>2025-10-19T11:56:32Z</time>
      </trkpt>
      <trkpt lat="43.20841" lon="5.47414">
        <ele>316.4</ele>
        <time>2025-10-19T11:56:33Z</time>
      </trkpt>
      <trkpt lat="43.20841" lon="5.47414">
        <ele>316.5</ele>
        <time>2025-10-19T11:56:34Z</time>
      </trkpt>
      <trkpt lat="43.20841" lon="5.47414">
        <ele>316.5</ele>
        <time>2025-10-19T11:56:35Z</time>
      </trkpt>
      <trkpt lat="43.20841" lon="5.47414">
        <ele>316.5</ele>
        <time>2025-10-19T11:56:36Z</time>
      </trkpt>
      <trkpt lat="43.2084" lon="5.47414">
        <ele>316.4</ele>
        <time>2025-10-19T11:56:37Z</time>
      </trkpt>
      <trkpt lat="43.2084" lon="5.47414">
        <ele>316.4</ele>
        <time>2025-10-19T11:56:38Z</time>
      </trkpt>
      <trkpt lat="43.2084" lon="5.47414">
        <ele>316.4</ele>
        <time>2025-10-19T11:56:39Z</time>
      </trkpt>
      <trkpt lat="43.2084" lon="5.47413">
        <ele>316.5</ele>
        <time>2025-10-19T11:56:40Z</time>
      </trkpt>
      <trkpt lat="43.2084" lon="5.47413">
        <ele>316.4</ele>
        <time>2025-10-19T11:56:41Z</time>
      </trkpt>
      <trkpt lat="43.2084" lon="5.47413">
        <ele>316.4</ele>
        <time>2025-10-19T11:56:42Z</time>
      </trkpt>
      <trkpt lat="43.2084" lon="5.47413">
        <ele>316.4</ele>
        <time>2025-10-19T11:56:43Z</time>
      </trkpt>
      <trkpt lat="43.2084" lon="5.47412">
        <ele>316.4</ele>
        <time>2025-10-19T11:56:44Z</time>
      </trkpt>
      <trkpt lat="43.2084" lon="5.47411">
        <ele>316.3</ele>
        <time>2025-10-19T11:56:45Z</time>
      </trkpt>
      <trkpt lat="43.2084" lon="5.47411">
        <ele>316.3</ele>
        <time>2025-10-19T11:56:46Z</time>
      </trkpt>
      <trkpt lat="43.20841" lon="5.4741">
        <ele>316.3</ele>
        <time>2025-10-19T11:56:47Z</time>
      </trkpt>
      <trkpt lat="43.20841" lon="5.47409">
        <ele>316.2</ele>
        <time>2025-10-19T11:56:48Z</time>
      </trkpt>
      <trkpt lat="43.20841" lon="5.47408">
        <ele>316.3</ele>
        <time>2025-10-19T11:56:49Z</time>
      </trkpt>
      <trkpt lat="43.20841" lon="5.47408">
        <ele>316.4</ele>
        <time>2025-10-19T11:56:50Z</time>
      </trkpt>
      <trkpt lat="43.20841" lon="5.47408">
        <ele>316.5</ele>
        <time>2025-10-19T11:56:51Z</time>
      </trkpt>
      <trkpt lat="43.2084" lon="5.47408">
        <ele>316.4</ele>
        <time>2025-10-19T11:56:52Z</time>
      </trkpt>
      <trkpt lat="43.2084" lon="5.47408">
        <ele>316.2</ele>
        <time>2025-10-19T11:56:53Z</time>
      </trkpt>
      <trkpt lat="43.2084" lon="5.47407">
        <ele>316.1</ele>
        <time>2025-10-19T11:56:54Z</time>
      </trkpt>
      <trkpt lat="43.20839" lon="5.47407">
        <ele>316</ele>
        <time>2025-10-19T11:56:55Z</time>
      </trkpt>
      <trkpt lat="43.20839" lon="5.47406">
        <ele>315.8</ele>
        <time>2025-10-19T11:56:56Z</time>
      </trkpt>
      <trkpt lat="43.20838" lon="5.47405">
        <ele>315.7</ele>
        <time>2025-10-19T11:56:57Z</time>
      </trkpt>
      <trkpt lat="43.20837" lon="5.47405">
        <ele>315.5</ele>
        <time>2025-10-19T11:56:58Z</time>
      </trkpt>
      <trkpt lat="43.20837" lon="5.47404">
        <ele>315.1</ele>
        <time>2025-10-19T11:56:59Z</time>
      </trkpt>
      <trkpt lat="43.20836" lon="5.47404">
        <ele>314.8</ele>
        <time>2025-10-19T11:57:00Z</time>
      </trkpt>
      <trkpt lat="43.20836" lon="5.47404">
        <ele>314.6</ele>
        <time>2025-10-19T11:57:01Z</time>
      </trkpt>
      <trkpt lat="43.20836" lon="5.47405">
        <ele>314.5</ele>
        <time>2025-10-19T11:57:02Z</time>
      </trkpt>
      <trkpt lat="43.20835" lon="5.47405">
        <ele>314.5</ele>
        <time>2025-10-19T11:57:03Z</time>
      </trkpt>
      <trkpt lat="43.20834" lon="5.47405">
        <ele>314.3</ele>
        <time>2025-10-19T11:57:04Z</time>
      </trkpt>
      <trkpt lat="43.20834" lon="5.47404">
        <ele>314</ele>
        <time>2025-10-19T11:57:05Z</time>
      </trkpt>
      <trkpt lat="43.20834" lon="5.47404">
        <ele>313.7</ele>
        <time>2025-10-19T11:57:06Z</time>
      </trkpt>
      <trkpt lat="43.20834" lon="5.47403">
        <ele>313.5</ele>
        <time>2025-10-19T11:57:07Z</time>
      </trkpt>
      <trkpt lat="43.20833" lon="5.47402">
        <ele>313.3</ele>
        <time>2025-10-19T11:57:08Z</time>
      </trkpt>
      <trkpt lat="43.20833" lon="5.47401">
        <ele>313</ele>
        <time>2025-10-19T11:57:09Z</time>
      </trkpt>
      <trkpt lat="43.20832" lon="5.474">
        <ele>312.7</ele>
        <time>2025-10-19T11:57:10Z</time>
      </trkpt>
      <trkpt lat="43.20832" lon="5.47399">
        <ele>312.5</ele>
        <time>2025-10-19T11:57:11Z</time>
      </trkpt>
      <trkpt lat="43.20831" lon="5.47398">
        <ele>312.4</ele>
        <time>2025-10-19T11:57:12Z</time>
      </trkpt>
      <trkpt lat="43.20831" lon="5.47396">
        <ele>312.2</ele>
        <time>2025-10-19T11:57:13Z</time>
      </trkpt>
      <trkpt lat="43.20831" lon="5.47396">
        <ele>312</ele>
        <time>2025-10-19T11:57:14Z</time>
      </trkpt>
      <trkpt lat="43.2083" lon="5.47395">
        <ele>311.8</ele>
        <time>2025-10-19T11:57:15Z</time>
      </trkpt>
      <trkpt lat="43.2083" lon="5.47395">
        <ele>311.5</ele>
        <time>2025-10-19T11:57:16Z</time>
      </trkpt>
      <trkpt lat="43.2083" lon="5.47395">
        <ele>311.4</ele>
        <time>2025-10-19T11:57:17Z</time>
      </trkpt>
      <trkpt lat="43.2083" lon="5.47395">
        <ele>311.2</ele>
        <time>2025-10-19T11:57:18Z</time>
      </trkpt>
      <trkpt lat="43.2083" lon="5.47395">
        <ele>311.3</ele>
        <time>2025-10-19T11:57:19Z</time>
      </trkpt>
      <trkpt lat="43.20829" lon="5.47395">
        <ele>311.1</ele>
        <time>2025-10-19T11:57:20Z</time>
      </trkpt>
      <trkpt lat="43.20829" lon="5.47395">
        <ele>311.2</ele>
        <time>2025-10-19T11:57:21Z</time>
      </trkpt>
      <trkpt lat="43.20829" lon="5.47395">
        <ele>311.2</ele>
        <time>2025-10-19T11:57:22Z</time>
      </trkpt>
      <trkpt lat="43.20829" lon="5.47395">
        <ele>311.2</ele>
        <time>2025-10-19T11:57:23Z</time>
      </trkpt>
      <trkpt lat="43.20829" lon="5.47395">
        <ele>311.2</ele>
        <time>2025-10-19T11:57:24Z</time>
      </trkpt>
      <trkpt lat="43.20829" lon="5.47395">
        <ele>311.3</ele>
        <time>2025-10-19T11:57:25Z</time>
      </trkpt>
      <trkpt lat="43.20829" lon="5.47395">
        <ele>311.3</ele>
        <time>2025-10-19T11:57:26Z</time>
      </trkpt>
      <trkpt lat="43.20829" lon="5.47395">
        <ele>311.3</ele>
        <time>2025-10-19T11:57:27Z</time>
      </trkpt>
      <trkpt lat="43.20829" lon="5.47395">
        <ele>311.4</ele>
        <time>2025-10-19T11:57:28Z</time>
      </trkpt>
      <trkpt lat="43.20829" lon="5.47395">
        <ele>311.5</ele>
        <time>2025-10-19T11:57:29Z</time>
      </trkpt>
      <trkpt lat="43.20829" lon="5.47395">
        <ele>311.5</ele>
        <time>2025-10-19T11:57:30Z</time>
      </trkpt>
      <trkpt lat="43.20829" lon="5.47395">
        <ele>311.6</ele>
        <time>2025-10-19T11:57:31Z</time>
      </trkpt>
      <trkpt lat="43.20829" lon="5.47395">
        <ele>311.6</ele>
        <time>2025-10-19T11:57:32Z</time>
      </trkpt>
      <trkpt lat="43.20829" lon="5.47395">
        <ele>311.6</ele>
        <time>2025-10-19T11:57:33Z</time>
      </trkpt>
      <trkpt lat="43.20829" lon="5.47395">
        <ele>311.7</ele>
        <time>2025-10-19T11:57:34Z</time>
      </trkpt>
      <trkpt lat="43.20829" lon="5.47395">
        <ele>311.7</ele>
        <time>2025-10-19T11:57:35Z</time>
      </trkpt>
      <trkpt lat="43.20829" lon="5.47395">
        <ele>311.8</ele>
        <time>2025-10-19T11:57:36Z</time>
      </trkpt>
      <trkpt lat="43.20829" lon="5.47396">
        <ele>311.9</ele>
        <time>2025-10-19T11:57:37Z</time>
      </trkpt>
      <trkpt lat="43.20829" lon="5.47396">
        <ele>312</ele>
        <time>2025-10-19T11:57:38Z</time>
      </trkpt>
      <trkpt lat="43.20829" lon="5.47396">
        <ele>312</ele>
        <time>2025-10-19T11:57:39Z</time>
      </trkpt>
      <trkpt lat="43.20829" lon="5.47396">
        <ele>312</ele>
        <time>2025-10-19T11:57:40Z</time>
      </trkpt>
      <trkpt lat="43.20828" lon="5.47396">
        <ele>312</ele>
        <time>2025-10-19T11:57:41Z</time>
      </trkpt>
      <trkpt lat="43.20828" lon="5.47396">
        <ele>312</ele>
        <time>2025-10-19T11:57:42Z</time>
      </trkpt>
      <trkpt lat="43.20828" lon="5.47396">
        <ele>312</ele>
        <time>2025-10-19T11:57:43Z</time>
      </trkpt>
      <trkpt lat="43.20828" lon="5.47396">
        <ele>312</ele>
        <time>2025-10-19T11:57:44Z</time>
      </trkpt>
      <trkpt lat="43.20828" lon="5.47396">
        <ele>312</ele>
        <time>2025-10-19T11:57:45Z</time>
      </trkpt>
      <trkpt lat="43.20828" lon="5.47396">
        <ele>312</ele>
        <time>2025-10-19T11:57:46Z</time>
      </trkpt>
      <trkpt lat="43.20828" lon="5.47396">
        <ele>312.1</ele>
        <time>2025-10-19T11:57:47Z</time>
      </trkpt>
      <trkpt lat="43.20829" lon="5.47397">
        <ele>312.1</ele>
        <time>2025-10-19T11:57:48Z</time>
      </trkpt>
      <trkpt lat="43.20829" lon="5.47397">
        <ele>312.1</ele>
        <time>2025-10-19T11:57:49Z</time>
      </trkpt>
      <trkpt lat="43.2083" lon="5.47397">
        <ele>312.1</ele>
        <time>2025-10-19T11:57:50Z</time>
      </trkpt>
      <trkpt lat="43.20831" lon="5.47397">
        <ele>312.1</ele>
        <time>2025-10-19T11:57:51Z</time>
      </trkpt>
      <trkpt lat="43.20831" lon="5.47397">
        <ele>312.2</ele>
        <time>2025-10-19T11:57:52Z</time>
      </trkpt>
      <trkpt lat="43.20832" lon="5.47397">
        <ele>312.2</ele>
        <time>2025-10-19T11:57:53Z</time>
      </trkpt>
      <trkpt lat="43.20833" lon="5.47397">
        <ele>312.3</ele>
        <time>2025-10-19T11:57:54Z</time>
      </trkpt>
      <trkpt lat="43.20834" lon="5.47398">
        <ele>312.4</ele>
        <time>2025-10-19T11:57:55Z</time>
      </trkpt>
      <trkpt lat="43.20834" lon="5.47398">
        <ele>312.6</ele>
        <time>2025-10-19T11:57:56Z</time>
      </trkpt>
      <trkpt lat="43.20834" lon="5.47398">
        <ele>312.9</ele>
        <time>2025-10-19T11:57:57Z</time>
      </trkpt>
      <trkpt lat="43.20835" lon="5.47399">
        <ele>313.1</ele>
        <time>2025-10-19T11:57:58Z</time>
      </trkpt>
      <trkpt lat="43.20835" lon="5.474">
        <ele>313.3</ele>
        <time>2025-10-19T11:57:59Z</time>
      </trkpt>
      <trkpt lat="43.20836" lon="5.474">
        <ele>313.5</ele>
        <time>2025-10-19T11:58:00Z</time>
      </trkpt>
      <trkpt lat="43.20837" lon="5.474">
        <ele>313.6</ele>
        <time>2025-10-19T11:58:01Z</time>
      </trkpt>
      <trkpt lat="43.20838" lon="5.47399">
        <ele>313.7</ele>
        <time>2025-10-19T11:58:02Z</time>
      </trkpt>
      <trkpt lat="43.20839" lon="5.47399">
        <ele>313.8</ele>
        <time>2025-10-19T11:58:03Z</time>
      </trkpt>
      <trkpt lat="43.2084" lon="5.47399">
        <ele>313.9</ele>
        <time>2025-10-19T11:58:04Z</time>
      </trkpt>
      <trkpt lat="43.20841" lon="5.47398">
        <ele>313.9</ele>
        <time>2025-10-19T11:58:05Z</time>
      </trkpt>
      <trkpt lat="43.20842" lon="5.47397">
        <ele>313.9</ele>
        <time>2025-10-19T11:58:06Z</time>
      </trkpt>
      <trkpt lat="43.20843" lon="5.47397">
        <ele>313.9</ele>
        <time>2025-10-19T11:58:07Z</time>
      </trkpt>
      <trkpt lat="43.20843" lon="5.47396">
        <ele>314</ele>
        <time>2025-10-19T11:58:08Z</time>
      </trkpt>
      <trkpt lat="43.20844" lon="5.47395">
        <ele>314</ele>
        <time>2025-10-19T11:58:09Z</time>
      </trkpt>
      <trkpt lat="43.20845" lon="5.47395">
        <ele>314.1</ele>
        <time>2025-10-19T11:58:10Z</time>
      </trkpt>
      <trkpt lat="43.20846" lon="5.47395">
        <ele>314.2</ele>
        <time>2025-10-19T11:58:11Z</time>
      </trkpt>
      <trkpt lat="43.20847" lon="5.47394">
        <ele>314.3</ele>
        <time>2025-10-19T11:58:12Z</time>
      </trkpt>
      <trkpt lat="43.20847" lon="5.47393">
        <ele>314.5</ele>
        <time>2025-10-19T11:58:13Z</time>
      </trkpt>
      <trkpt lat="43.20848" lon="5.47393">
        <ele>314.7</ele>
        <time>2025-10-19T11:58:14Z</time>
      </trkpt>
      <trkpt lat="43.20849" lon="5.47393">
        <ele>314.9</ele>
        <time>2025-10-19T11:58:15Z</time>
      </trkpt>
      <trkpt lat="43.20849" lon="5.47393">
        <ele>315</ele>
        <time>2025-10-19T11:58:16Z</time>
      </trkpt>
      <trkpt lat="43.2085" lon="5.47393">
        <ele>315.1</ele>
        <time>2025-10-19T11:58:17Z</time>
      </trkpt>
      <trkpt lat="43.20851" lon="5.47393">
        <ele>315.1</ele>
        <time>2025-10-19T11:58:18Z</time>
      </trkpt>
      <trkpt lat="43.20852" lon="5.47392">
        <ele>315.2</ele>
        <time>2025-10-19T11:58:19Z</time>
      </trkpt>
      <trkpt lat="43.20853" lon="5.47391">
        <ele>315.2</ele>
        <time>2025-10-19T11:58:20Z</time>
      </trkpt>
      <trkpt lat="43.20854" lon="5.4739">
        <ele>315.2</ele>
        <time>2025-10-19T11:58:21Z</time>
      </trkpt>
      <trkpt lat="43.20855" lon="5.47389">
        <ele>315.2</ele>
        <time>2025-10-19T11:58:22Z</time>
      </trkpt>
      <trkpt lat="43.20856" lon="5.47388">
        <ele>315.1</ele>
        <time>2025-10-19T11:58:23Z</time>
      </trkpt>
      <trkpt lat="43.20857" lon="5.47388">
        <ele>315.3</ele>
        <time>2025-10-19T11:58:24Z</time>
      </trkpt>
      <trkpt lat="43.20858" lon="5.47387">
        <ele>315.3</ele>
        <time>2025-10-19T11:58:25Z</time>
      </trkpt>
      <trkpt lat="43.20859" lon="5.47386">
        <ele>315.3</ele>
        <time>2025-10-19T11:58:26Z</time>
      </trkpt>
      <trkpt lat="43.2086" lon="5.47386">
        <ele>315.2</ele>
        <time>2025-10-19T11:58:27Z</time>
      </trkpt>
      <trkpt lat="43.20861" lon="5.47385">
        <ele>315.2</ele>
        <time>2025-10-19T11:58:28Z</time>
      </trkpt>
      <trkpt lat="43.20862" lon="5.47384">
        <ele>315.3</ele>
        <time>2025-10-19T11:58:29Z</time>
      </trkpt>
      <trkpt lat="43.20863" lon="5.47383">
        <ele>315.3</ele>
        <time>2025-10-19T11:58:30Z</time>
      </trkpt>
      <trkpt lat="43.20864" lon="5.47383">
        <ele>315.4</ele>
        <time>2025-10-19T11:58:31Z</time>
      </trkpt>
      <trkpt lat="43.20865" lon="5.47382">
        <ele>315.4</ele>
        <time>2025-10-19T11:58:32Z</time>
      </trkpt>
      <trkpt lat="43.20866" lon="5.47381">
        <ele>315.3</ele>
        <time>2025-10-19T11:58:33Z</time>
      </trkpt>
      <trkpt lat="43.20867" lon="5.47381">
        <ele>315.3</ele>
        <time>2025-10-19T11:58:34Z</time>
      </trkpt>
      <trkpt lat="43.20867" lon="5.4738">
        <ele>315.3</ele>
        <time>2025-10-19T11:58:35Z</time>
      </trkpt>
      <trkpt lat="43.20868" lon="5.47379">
        <ele>315.3</ele>
        <time>2025-10-19T11:58:36Z</time>
      </trkpt>
      <trkpt lat="43.20868" lon="5.47377">
        <ele>315.3</ele>
        <time>2025-10-19T11:58:37Z</time>
      </trkpt>
      <trkpt lat="43.20869" lon="5.47376">
        <ele>315.2</ele>
        <time>2025-10-19T11:58:38Z</time>
      </trkpt>
      <trkpt lat="43.2087" lon="5.47374">
        <ele>315.2</ele>
        <time>2025-10-19T11:58:39Z</time>
      </trkpt>
      <trkpt lat="43.20871" lon="5.47373">
        <ele>315.1</ele>
        <time>2025-10-19T11:58:40Z</time>
      </trkpt>
      <trkpt lat="43.20872" lon="5.47372">
        <ele>315.1</ele>
        <time>2025-10-19T11:58:41Z</time>
      </trkpt>
      <trkpt lat="43.20872" lon="5.47372">
        <ele>315</ele>
        <time>2025-10-19T11:58:42Z</time>
      </trkpt>
      <trkpt lat="43.20873" lon="5.47371">
        <ele>315</ele>
        <time>2025-10-19T11:58:43Z</time>
      </trkpt>
      <trkpt lat="43.20874" lon="5.4737">
        <ele>315.1</ele>
        <time>2025-10-19T11:58:44Z</time>
      </trkpt>
      <trkpt lat="43.20876" lon="5.4737">
        <ele>315.1</ele>
        <time>2025-10-19T11:58:45Z</time>
      </trkpt>
      <trkpt lat="43.20877" lon="5.47369">
        <ele>315</ele>
        <time>2025-10-19T11:58:46Z</time>
      </trkpt>
      <trkpt lat="43.20878" lon="5.47369">
        <ele>315</ele>
        <time>2025-10-19T11:58:47Z</time>
      </trkpt>
      <trkpt lat="43.2088" lon="5.47368">
        <ele>315</ele>
        <time>2025-10-19T11:58:48Z</time>
      </trkpt>
      <trkpt lat="43.20881" lon="5.47367">
        <ele>314.9</ele>
        <time>2025-10-19T11:58:49Z</time>
      </trkpt>
      <trkpt lat="43.20881" lon="5.47366">
        <ele>314.9</ele>
        <time>2025-10-19T11:58:50Z</time>
      </trkpt>
      <trkpt lat="43.20882" lon="5.47365">
        <ele>314.9</ele>
        <time>2025-10-19T11:58:51Z</time>
      </trkpt>
      <trkpt lat="43.20883" lon="5.47365">
        <ele>314.9</ele>
        <time>2025-10-19T11:58:52Z</time>
      </trkpt>
      <trkpt lat="43.20884" lon="5.47364">
        <ele>315</ele>
        <time>2025-10-19T11:58:53Z</time>
      </trkpt>
      <trkpt lat="43.20885" lon="5.47363">
        <ele>315.1</ele>
        <time>2025-10-19T11:58:54Z</time>
      </trkpt>
      <trkpt lat="43.20886" lon="5.47362">
        <ele>315.2</ele>
        <time>2025-10-19T11:58:55Z</time>
      </trkpt>
      <trkpt lat="43.20887" lon="5.47361">
        <ele>315.2</ele>
        <time>2025-10-19T11:58:56Z</time>
      </trkpt>
      <trkpt lat="43.20888" lon="5.4736">
        <ele>315.3</ele>
        <time>2025-10-19T11:58:57Z</time>
      </trkpt>
      <trkpt lat="43.20889" lon="5.47359">
        <ele>315.4</ele>
        <time>2025-10-19T11:58:58Z</time>
      </trkpt>
      <trkpt lat="43.2089" lon="5.47358">
        <ele>315.7</ele>
        <time>2025-10-19T11:58:59Z</time>
      </trkpt>
      <trkpt lat="43.20891" lon="5.47357">
        <ele>315.8</ele>
        <time>2025-10-19T11:59:00Z</time>
      </trkpt>
      <trkpt lat="43.20892" lon="5.47355">
        <ele>315.8</ele>
        <time>2025-10-19T11:59:01Z</time>
      </trkpt>
      <trkpt lat="43.20892" lon="5.47353">
        <ele>315.8</ele>
        <time>2025-10-19T11:59:02Z</time>
      </trkpt>
      <trkpt lat="43.20893" lon="5.47352">
        <ele>315.8</ele>
        <time>2025-10-19T11:59:03Z</time>
      </trkpt>
      <trkpt lat="43.20893" lon="5.4735">
        <ele>315.8</ele>
        <time>2025-10-19T11:59:04Z</time>
      </trkpt>
      <trkpt lat="43.20894" lon="5.47349">
        <ele>315.7</ele>
        <time>2025-10-19T11:59:05Z</time>
      </trkpt>
      <trkpt lat="43.20894" lon="5.47347">
        <ele>315.7</ele>
        <time>2025-10-19T11:59:06Z</time>
      </trkpt>
      <trkpt lat="43.20895" lon="5.47346">
        <ele>315.7</ele>
        <time>2025-10-19T11:59:07Z</time>
      </trkpt>
      <trkpt lat="43.20895" lon="5.47344">
        <ele>315.8</ele>
        <time>2025-10-19T11:59:08Z</time>
      </trkpt>
      <trkpt lat="43.20896" lon="5.47344">
        <ele>315.8</ele>
        <time>2025-10-19T11:59:09Z</time>
      </trkpt>
      <trkpt lat="43.20897" lon="5.47343">
        <ele>315.8</ele>
        <time>2025-10-19T11:59:10Z</time>
      </trkpt>
      <trkpt lat="43.20897" lon="5.47342">
        <ele>315.8</ele>
        <time>2025-10-19T11:59:11Z</time>
      </trkpt>
      <trkpt lat="43.20899" lon="5.47341">
        <ele>315.8</ele>
        <time>2025-10-19T11:59:12Z</time>
      </trkpt>
      <trkpt lat="43.209" lon="5.4734">
        <ele>315.9</ele>
        <time>2025-10-19T11:59:13Z</time>
      </trkpt>
      <trkpt lat="43.20901" lon="5.47338">
        <ele>315.9</ele>
        <time>2025-10-19T11:59:14Z</time>
      </trkpt>
      <trkpt lat="43.20902" lon="5.47338">
        <ele>316</ele>
        <time>2025-10-19T11:59:15Z</time>
      </trkpt>
      <trkpt lat="43.20902" lon="5.47336">
        <ele>316</ele>
        <time>2025-10-19T11:59:16Z</time>
      </trkpt>
      <trkpt lat="43.20902" lon="5.47335">
        <ele>316.1</ele>
        <time>2025-10-19T11:59:17Z</time>
      </trkpt>
      <trkpt lat="43.20903" lon="5.47334">
        <ele>316.1</ele>
        <time>2025-10-19T11:59:18Z</time>
      </trkpt>
      <trkpt lat="43.20903" lon="5.47333">
        <ele>316.1</ele>
        <time>2025-10-19T11:59:19Z</time>
      </trkpt>
      <trkpt lat="43.20904" lon="5.47331">
        <ele>316.2</ele>
        <time>2025-10-19T11:59:20Z</time>
      </trkpt>
      <trkpt lat="43.20904" lon="5.4733">
        <ele>316.3</ele>
        <time>2025-10-19T11:59:21Z</time>
      </trkpt>
      <trkpt lat="43.20905" lon="5.47329">
        <ele>316.3</ele>
        <time>2025-10-19T11:59:22Z</time>
      </trkpt>
      <trkpt lat="43.20906" lon="5.47328">
        <ele>316.2</ele>
        <time>2025-10-19T11:59:23Z</time>
      </trkpt>
      <trkpt lat="43.20907" lon="5.47327">
        <ele>316.2</ele>
        <time>2025-10-19T11:59:24Z</time>
      </trkpt>
      <trkpt lat="43.20907" lon="5.47326">
        <ele>316.2</ele>
        <time>2025-10-19T11:59:25Z</time>
      </trkpt>
      <trkpt lat="43.20907" lon="5.47324">
        <ele>316.3</ele>
        <time>2025-10-19T11:59:26Z</time>
      </trkpt>
      <trkpt lat="43.20908" lon="5.47324">
        <ele>316.5</ele>
        <time>2025-10-19T11:59:27Z</time>
      </trkpt>
      <trkpt lat="43.20909" lon="5.47323">
        <ele>316.6</ele>
        <time>2025-10-19T11:59:28Z</time>
      </trkpt>
      <trkpt lat="43.2091" lon="5.47322">
        <ele>316.7</ele>
        <time>2025-10-19T11:59:29Z</time>
      </trkpt>
      <trkpt lat="43.20911" lon="5.47321">
        <ele>316.7</ele>
        <time>2025-10-19T11:59:30Z</time>
      </trkpt>
      <trkpt lat="43.20912" lon="5.4732">
        <ele>316.7</ele>
        <time>2025-10-19T11:59:31Z</time>
      </trkpt>
      <trkpt lat="43.20912" lon="5.47319">
        <ele>316.7</ele>
        <time>2025-10-19T11:59:32Z</time>
      </trkpt>
      <trkpt lat="43.20913" lon="5.47318">
        <ele>316.7</ele>
        <time>2025-10-19T11:59:33Z</time>
      </trkpt>
      <trkpt lat="43.20914" lon="5.47317">
        <ele>316.7</ele>
        <time>2025-10-19T11:59:34Z</time>
      </trkpt>
      <trkpt lat="43.20914" lon="5.47316">
        <ele>316.7</ele>
        <time>2025-10-19T11:59:35Z</time>
      </trkpt>
      <trkpt lat="43.20915" lon="5.47315">
        <ele>316.9</ele>
        <time>2025-10-19T11:59:36Z</time>
      </trkpt>
      <trkpt lat="43.20916" lon="5.47314">
        <ele>317</ele>
        <time>2025-10-19T11:59:37Z</time>
      </trkpt>
      <trkpt lat="43.20917" lon="5.47314">
        <ele>317</ele>
        <time>2025-10-19T11:59:38Z</time>
      </trkpt>
      <trkpt lat="43.20917" lon="5.47313">
        <ele>317</ele>
        <time>2025-10-19T11:59:39Z</time>
      </trkpt>
      <trkpt lat="43.20918" lon="5.47312">
        <ele>317</ele>
        <time>2025-10-19T11:59:40Z</time>
      </trkpt>
      <trkpt lat="43.20919" lon="5.47311">
        <ele>316.9</ele>
        <time>2025-10-19T11:59:41Z</time>
      </trkpt>
      <trkpt lat="43.2092" lon="5.4731">
        <ele>316.9</ele>
        <time>2025-10-19T11:59:42Z</time>
      </trkpt>
      <trkpt lat="43.2092" lon="5.47308">
        <ele>316.9</ele>
        <time>2025-10-19T11:59:43Z</time>
      </trkpt>
      <trkpt lat="43.20921" lon="5.47307">
        <ele>316.9</ele>
        <time>2025-10-19T11:59:44Z</time>
      </trkpt>
      <trkpt lat="43.20922" lon="5.47307">
        <ele>316.8</ele>
        <time>2025-10-19T11:59:45Z</time>
      </trkpt>
      <trkpt lat="43.20923" lon="5.47306">
        <ele>316.8</ele>
        <time>2025-10-19T11:59:46Z</time>
      </trkpt>
      <trkpt lat="43.20924" lon="5.47305">
        <ele>316.7</ele>
        <time>2025-10-19T11:59:47Z</time>
      </trkpt>
      <trkpt lat="43.20924" lon="5.47304">
        <ele>316.6</ele>
        <time>2025-10-19T11:59:48Z</time>
      </trkpt>
      <trkpt lat="43.20925" lon="5.47303">
        <ele>316.6</ele>
        <time>2025-10-19T11:59:49Z</time>
      </trkpt>
      <trkpt lat="43.20926" lon="5.47302">
        <ele>316.5</ele>
        <time>2025-10-19T11:59:50Z</time>
      </trkpt>
      <trkpt lat="43.20927" lon="5.47301">
        <ele>316.5</ele>
        <time>2025-10-19T11:59:51Z</time>
      </trkpt>
      <trkpt lat="43.20928" lon="5.47301">
        <ele>316.5</ele>
        <time>2025-10-19T11:59:52Z</time>
      </trkpt>
      <trkpt lat="43.20928" lon="5.47301">
        <ele>316.5</ele>
        <time>2025-10-19T11:59:53Z</time>
      </trkpt>
      <trkpt lat="43.20929" lon="5.47301">
        <ele>316.5</ele>
        <time>2025-10-19T11:59:54Z</time>
      </trkpt>
      <trkpt lat="43.20929" lon="5.47301">
        <ele>316.4</ele>
        <time>2025-10-19T11:59:55Z</time>
      </trkpt>
      <trkpt lat="43.20929" lon="5.473">
        <ele>316.3</ele>
        <time>2025-10-19T11:59:56Z</time>
      </trkpt>
      <trkpt lat="43.2093" lon="5.473">
        <ele>316.3</ele>
        <time>2025-10-19T11:59:57Z</time>
      </trkpt>
      <trkpt lat="43.2093" lon="5.473">
        <ele>316.2</ele>
        <time>2025-10-19T11:59:58Z</time>
      </trkpt>
      <trkpt lat="43.20931" lon="5.473">
        <ele>316.4</ele>
        <time>2025-10-19T11:59:59Z</time>
      </trkpt>
      <trkpt lat="43.20932" lon="5.473">
        <ele>316.4</ele>
        <time>2025-10-19T12:00:00Z</time>
      </trkpt>
      <trkpt lat="43.20933" lon="5.47299">
        <ele>316.4</ele>
        <time>2025-10-19T12:00:01Z</time>
      </trkpt>
      <trkpt lat="43.20933" lon="5.47299">
        <ele>316.4</ele>
        <time>2025-10-19T12:00:02Z</time>
      </trkpt>
      <trkpt lat="43.20934" lon="5.47298">
        <ele>316.2</ele>
        <time>2025-10-19T12:00:03Z</time>
      </trkpt>
      <trkpt lat="43.20935" lon="5.47296">
        <ele>316.1</ele>
        <time>2025-10-19T12:00:04Z</time>
      </trkpt>
      <trkpt lat="43.20936" lon="5.47296">
        <ele>315.9</ele>
        <time>2025-10-19T12:00:05Z</time>
      </trkpt>
      <trkpt lat="43.20937" lon="5.47295">
        <ele>315.8</ele>
        <time>2025-10-19T12:00:06Z</time>
      </trkpt>
      <trkpt lat="43.20938" lon="5.47295">
        <ele>315.6</ele>
        <time>2025-10-19T12:00:07Z</time>
      </trkpt>
      <trkpt lat="43.20939" lon="5.47295">
        <ele>315.5</ele>
        <time>2025-10-19T12:00:08Z</time>
      </trkpt>
      <trkpt lat="43.2094" lon="5.47295">
        <ele>315.5</ele>
        <time>2025-10-19T12:00:09Z</time>
      </trkpt>
      <trkpt lat="43.20941" lon="5.47295">
        <ele>315.3</ele>
        <time>2025-10-19T12:00:10Z</time>
      </trkpt>
      <trkpt lat="43.20942" lon="5.47295">
        <ele>315.2</ele>
        <time>2025-10-19T12:00:11Z</time>
      </trkpt>
      <trkpt lat="43.20943" lon="5.47296">
        <ele>315.1</ele>
        <time>2025-10-19T12:00:12Z</time>
      </trkpt>
      <trkpt lat="43.20943" lon="5.47296">
        <ele>315</ele>
        <time>2025-10-19T12:00:13Z</time>
      </trkpt>
      <trkpt lat="43.20944" lon="5.47295">
        <ele>314.9</ele>
        <time>2025-10-19T12:00:14Z</time>
      </trkpt>
      <trkpt lat="43.20945" lon="5.47295">
        <ele>314.7</ele>
        <time>2025-10-19T12:00:15Z</time>
      </trkpt>
      <trkpt lat="43.20946" lon="5.47294">
        <ele>314.7</ele>
        <time>2025-10-19T12:00:16Z</time>
      </trkpt>
      <trkpt lat="43.20947" lon="5.47295">
        <ele>314.5</ele>
        <time>2025-10-19T12:00:17Z</time>
      </trkpt>
      <trkpt lat="43.20948" lon="5.47294">
        <ele>314.4</ele>
        <time>2025-10-19T12:00:18Z</time>
      </trkpt>
      <trkpt lat="43.20949" lon="5.47293">
        <ele>314.4</ele>
        <time>2025-10-19T12:00:19Z</time>
      </trkpt>
      <trkpt lat="43.20949" lon="5.47293">
        <ele>314.3</ele>
        <time>2025-10-19T12:00:20Z</time>
      </trkpt>
      <trkpt lat="43.2095" lon="5.47292">
        <ele>314.1</ele>
        <time>2025-10-19T12:00:21Z</time>
      </trkpt>
      <trkpt lat="43.2095" lon="5.47292">
        <ele>314</ele>
        <time>2025-10-19T12:00:22Z</time>
      </trkpt>
      <trkpt lat="43.20951" lon="5.47291">
        <ele>313.9</ele>
        <time>2025-10-19T12:00:23Z</time>
      </trkpt>
      <trkpt lat="43.20951" lon="5.47291">
        <ele>313.6</ele>
        <time>2025-10-19T12:00:24Z</time>
      </trkpt>
      <trkpt lat="43.20952" lon="5.4729">
        <ele>313.4</ele>
        <time>2025-10-19T12:00:25Z</time>
      </trkpt>
      <trkpt lat="43.20952" lon="5.47289">
        <ele>313.3</ele>
        <time>2025-10-19T12:00:26Z</time>
      </trkpt>
      <trkpt lat="43.20953" lon="5.47289">
        <ele>313.1</ele>
        <time>2025-10-19T12:00:27Z</time>
      </trkpt>
      <trkpt lat="43.20953" lon="5.47288">
        <ele>313</ele>
        <time>2025-10-19T12:00:28Z</time>
      </trkpt>
      <trkpt lat="43.20953" lon="5.47286">
        <ele>312.9</ele>
        <time>2025-10-19T12:00:29Z</time>
      </trkpt>
      <trkpt lat="43.20954" lon="5.47285">
        <ele>312.8</ele>
        <time>2025-10-19T12:00:30Z</time>
      </trkpt>
      <trkpt lat="43.20954" lon="5.47284">
        <ele>312.6</ele>
        <time>2025-10-19T12:00:31Z</time>
      </trkpt>
      <trkpt lat="43.20955" lon="5.47283">
        <ele>312.4</ele>
        <time>2025-10-19T12:00:32Z</time>
      </trkpt>
      <trkpt lat="43.20955" lon="5.47283">
        <ele>312.4</ele>
        <time>2025-10-19T12:00:33Z</time>
      </trkpt>
      <trkpt lat="43.20956" lon="5.47282">
        <ele>312.4</ele>
        <time>2025-10-19T12:00:34Z</time>
      </trkpt>
      <trkpt lat="43.20956" lon="5.47282">
        <ele>312.3</ele>
        <time>2025-10-19T12:00:35Z</time>
      </trkpt>
      <trkpt lat="43.20956" lon="5.47282">
        <ele>312.2</ele>
        <time>2025-10-19T12:00:36Z</time>
      </trkpt>
      <trkpt lat="43.20956" lon="5.47282">
        <ele>312.1</ele>
        <time>2025-10-19T12:00:37Z</time>
      </trkpt>
      <trkpt lat="43.20956" lon="5.47282">
        <ele>312</ele>
        <time>2025-10-19T12:00:38Z</time>
      </trkpt>
      <trkpt lat="43.20957" lon="5.47282">
        <ele>312</ele>
        <time>2025-10-19T12:00:39Z</time>
      </trkpt>
      <trkpt lat="43.20957" lon="5.47282">
        <ele>311.9</ele>
        <time>2025-10-19T12:00:40Z</time>
      </trkpt>
      <trkpt lat="43.20957" lon="5.47281">
        <ele>311.8</ele>
        <time>2025-10-19T12:00:41Z</time>
      </trkpt>
      <trkpt lat="43.20957" lon="5.47281">
        <ele>311.8</ele>
        <time>2025-10-19T12:00:42Z</time>
      </trkpt>
      <trkpt lat="43.20957" lon="5.4728">
        <ele>311.7</ele>
        <time>2025-10-19T12:00:43Z</time>
      </trkpt>
      <trkpt lat="43.20957" lon="5.47281">
        <ele>311.6</ele>
        <time>2025-10-19T12:00:44Z</time>
      </trkpt>
      <trkpt lat="43.20957" lon="5.4728">
        <ele>311.6</ele>
        <time>2025-10-19T12:00:45Z</time>
      </trkpt>
      <trkpt lat="43.20957" lon="5.4728">
        <ele>311.6</ele>
        <time>2025-10-19T12:00:46Z</time>
      </trkpt>
      <trkpt lat="43.20957" lon="5.4728">
        <ele>311.5</ele>
        <time>2025-10-19T12:00:47Z</time>
      </trkpt>
      <trkpt lat="43.20957" lon="5.4728">
        <ele>311.6</ele>
        <time>2025-10-19T12:00:48Z</time>
      </trkpt>
      <trkpt lat="43.20957" lon="5.4728">
        <ele>311.7</ele>
        <time>2025-10-19T12:00:49Z</time>
      </trkpt>
      <trkpt lat="43.20958" lon="5.4728">
        <ele>311.7</ele>
        <time>2025-10-19T12:00:50Z</time>
      </trkpt>
      <trkpt lat="43.20958" lon="5.4728">
        <ele>311.7</ele>
        <time>2025-10-19T12:00:51Z</time>
      </trkpt>
      <trkpt lat="43.20958" lon="5.4728">
        <ele>311.8</ele>
        <time>2025-10-19T12:00:52Z</time>
      </trkpt>
      <trkpt lat="43.20958" lon="5.4728">
        <ele>311.8</ele>
        <time>2025-10-19T12:00:53Z</time>
      </trkpt>
      <trkpt lat="43.20958" lon="5.4728">
        <ele>311.8</ele>
        <time>2025-10-19T12:00:54Z</time>
      </trkpt>
      <trkpt lat="43.20958" lon="5.4728">
        <ele>311.8</ele>
        <time>2025-10-19T12:00:55Z</time>
      </trkpt>
      <trkpt lat="43.20958" lon="5.47281">
        <ele>311.8</ele>
        <time>2025-10-19T12:00:56Z</time>
      </trkpt>
      <trkpt lat="43.20958" lon="5.47281">
        <ele>311.8</ele>
        <time>2025-10-19T12:00:57Z</time>
      </trkpt>
      <trkpt lat="43.20958" lon="5.4728">
        <ele>311.9</ele>
        <time>2025-10-19T12:00:58Z</time>
      </trkpt>
      <trkpt lat="43.20958" lon="5.47281">
        <ele>312</ele>
        <time>2025-10-19T12:00:59Z</time>
      </trkpt>
      <trkpt lat="43.20958" lon="5.47281">
        <ele>312</ele>
        <time>2025-10-19T12:01:00Z</time>
      </trkpt>
      <trkpt lat="43.20958" lon="5.47281">
        <ele>312</ele>
        <time>2025-10-19T12:01:01Z</time>
      </trkpt>
      <trkpt lat="43.20958" lon="5.47281">
        <ele>312.1</ele>
        <time>2025-10-19T12:01:02Z</time>
      </trkpt>
      <trkpt lat="43.20958" lon="5.47281">
        <ele>312.1</ele>
        <time>2025-10-19T12:01:03Z</time>
      </trkpt>
      <trkpt lat="43.20958" lon="5.47281">
        <ele>312.1</ele>
        <time>2025-10-19T12:01:04Z</time>
      </trkpt>
      <trkpt lat="43.20958" lon="5.47281">
        <ele>312</ele>
        <time>2025-10-19T12:01:05Z</time>
      </trkpt>
      <trkpt lat="43.20958" lon="5.47281">
        <ele>311.9</ele>
        <time>2025-10-19T12:01:06Z</time>
      </trkpt>
      <trkpt lat="43.20958" lon="5.47281">
        <ele>312</ele>
        <time>2025-10-19T12:01:07Z</time>
      </trkpt>
      <trkpt lat="43.20958" lon="5.47281">
        <ele>312</ele>
        <time>2025-10-19T12:01:08Z</time>
      </trkpt>
      <trkpt lat="43.20958" lon="5.47281">
        <ele>312</ele>
        <time>2025-10-19T12:01:09Z</time>
      </trkpt>
      <trkpt lat="43.20958" lon="5.47281">
        <ele>312</ele>
        <time>2025-10-19T12:01:10Z</time>
      </trkpt>
      <trkpt lat="43.20958" lon="5.47281">
        <ele>312</ele>
        <time>2025-10-19T12:01:11Z</time>
      </trkpt>
      <trkpt lat="43.20958" lon="5.47281">
        <ele>312</ele>
        <time>2025-10-19T12:01:12Z</time>
      </trkpt>
      <trkpt lat="43.20958" lon="5.47281">
        <ele>312</ele>
        <time>2025-10-19T12:01:13Z</time>
      </trkpt>
      <trkpt lat="43.20958" lon="5.47281">
        <ele>312</ele>
        <time>2025-10-19T12:01:14Z</time>
      </trkpt>
      <trkpt lat="43.20958" lon="5.47281">
        <ele>312</ele>
        <time>2025-10-19T12:01:15Z</time>
      </trkpt>
      <trkpt lat="43.20958" lon="5.47281">
        <ele>312</ele>
        <time>2025-10-19T12:01:16Z</time>
      </trkpt>
      <trkpt lat="43.20958" lon="5.47281">
        <ele>311.9</ele>
        <time>2025-10-19T12:01:17Z</time>
      </trkpt>
      <trkpt lat="43.20958" lon="5.47281">
        <ele>311.9</ele>
        <time>2025-10-19T12:01:18Z</time>
      </trkpt>
      <trkpt lat="43.20958" lon="5.47281">
        <ele>311.9</ele>
        <time>2025-10-19T12:01:19Z</time>
      </trkpt>
      <trkpt lat="43.20958" lon="5.47281">
        <ele>311.8</ele>
        <time>2025-10-19T12:01:20Z</time>
      </trkpt>
      <trkpt lat="43.20958" lon="5.47281">
        <ele>311.8</ele>
        <time>2025-10-19T12:01:21Z</time>
      </trkpt>
      <trkpt lat="43.20958" lon="5.47281">
        <ele>311.8</ele>
        <time>2025-10-19T12:01:22Z</time>
      </trkpt>
      <trkpt lat="43.20958" lon="5.47281">
        <ele>311.8</ele>
        <time>2025-10-19T12:01:23Z</time>
      </trkpt>
      <trkpt lat="43.20958" lon="5.47281">
        <ele>311.8</ele>
        <time>2025-10-19T12:01:24Z</time>
      </trkpt>
      <trkpt lat="43.20958" lon="5.47281">
        <ele>311.8</ele>
        <time>2025-10-19T12:01:25Z</time>
      </trkpt>
      <trkpt lat="43.20959" lon="5.47281">
        <ele>311.9</ele>
        <time>2025-10-19T12:01:26Z</time>
      </trkpt>
      <trkpt lat="43.20959" lon="5.47281">
        <ele>311.8</ele>
        <time>2025-10-19T12:01:27Z</time>
      </trkpt>
      <trkpt lat="43.20959" lon="5.4728">
        <ele>311.8</ele>
        <time>2025-10-19T12:01:28Z</time>
      </trkpt>
      <trkpt lat="43.20959" lon="5.4728">
        <ele>311.9</ele>
        <time>2025-10-19T12:01:29Z</time>
      </trkpt>
      <trkpt lat="43.20959" lon="5.4728">
        <ele>311.9</ele>
        <time>2025-10-19T12:01:30Z</time>
      </trkpt>
      <trkpt lat="43.20959" lon="5.4728">
        <ele>311.9</ele>
        <time>2025-10-19T12:01:31Z</time>
      </trkpt>
      <trkpt lat="43.20959" lon="5.47281">
        <ele>311.9</ele>
        <time>2025-10-19T12:01:32Z</time>
      </trkpt>
      <trkpt lat="43.20959" lon="5.4728">
        <ele>312</ele>
        <time>2025-10-19T12:01:33Z</time>
      </trkpt>
      <trkpt lat="43.2096" lon="5.47279">
        <ele>312</ele>
        <time>2025-10-19T12:01:34Z</time>
      </trkpt>
      <trkpt lat="43.2096" lon="5.47279">
        <ele>312</ele>
        <time>2025-10-19T12:01:35Z</time>
      </trkpt>
      <trkpt lat="43.2096" lon="5.47279">
        <ele>312</ele>
        <time>2025-10-19T12:01:36Z</time>
      </trkpt>
      <trkpt lat="43.2096" lon="5.47279">
        <ele>312</ele>
        <time>2025-10-19T12:01:37Z</time>
      </trkpt>
      <trkpt lat="43.2096" lon="5.47279">
        <ele>311.8</ele>
        <time>2025-10-19T12:01:38Z</time>
      </trkpt>
      <trkpt lat="43.20961" lon="5.4728">
        <ele>311.7</ele>
        <time>2025-10-19T12:01:39Z</time>
      </trkpt>
      <trkpt lat="43.20961" lon="5.4728">
        <ele>311.7</ele>
        <time>2025-10-19T12:01:40Z</time>
      </trkpt>
      <trkpt lat="43.20961" lon="5.4728">
        <ele>311.6</ele>
        <time>2025-10-19T12:01:41Z</time>
      </trkpt>
      <trkpt lat="43.20961" lon="5.4728">
        <ele>311.6</ele>
        <time>2025-10-19T12:01:42Z</time>
      </trkpt>
      <trkpt lat="43.20962" lon="5.4728">
        <ele>311.5</ele>
        <time>2025-10-19T12:01:43Z</time>
      </trkpt>
      <trkpt lat="43.20963" lon="5.47279">
        <ele>311.3</ele>
        <time>2025-10-19T12:01:44Z</time>
      </trkpt>
      <trkpt lat="43.20963" lon="5.47279">
        <ele>311.2</ele>
        <time>2025-10-19T12:01:45Z</time>
      </trkpt>
      <trkpt lat="43.20964" lon="5.47279">
        <ele>311.1</ele>
        <time>2025-10-19T12:01:46Z</time>
      </trkpt>
      <trkpt lat="43.20964" lon="5.47278">
        <ele>311</ele>
        <time>2025-10-19T12:01:47Z</time>
      </trkpt>
      <trkpt lat="43.20965" lon="5.47278">
        <ele>310.8</ele>
        <time>2025-10-19T12:01:48Z</time>
      </trkpt>
      <trkpt lat="43.20965" lon="5.47278">
        <ele>310.6</ele>
        <time>2025-10-19T12:01:49Z</time>
      </trkpt>
      <trkpt lat="43.20965" lon="5.47278">
        <ele>310.5</ele>
        <time>2025-10-19T12:01:50Z</time>
      </trkpt>
      <trkpt lat="43.20965" lon="5.47278">
        <ele>310.4</ele>
        <time>2025-10-19T12:01:51Z</time>
      </trkpt>
      <trkpt lat="43.20965" lon="5.47277">
        <ele>310.3</ele>
        <time>2025-10-19T12:01:52Z</time>
      </trkpt>
      <trkpt lat="43.20966" lon="5.47277">
        <ele>310.2</ele>
        <time>2025-10-19T12:01:53Z</time>
      </trkpt>
      <trkpt lat="43.20967" lon="5.47277">
        <ele>310.1</ele>
        <time>2025-10-19T12:01:54Z</time>
      </trkpt>
      <trkpt lat="43.20967" lon="5.47277">
        <ele>309.9</ele>
        <time>2025-10-19T12:01:55Z</time>
      </trkpt>
      <trkpt lat="43.20967" lon="5.47277">
        <ele>309.8</ele>
        <time>2025-10-19T12:01:56Z</time>
      </trkpt>
      <trkpt lat="43.20968" lon="5.47277">
        <ele>309.6</ele>
        <time>2025-10-19T12:01:57Z</time>
      </trkpt>
      <trkpt lat="43.20969" lon="5.47278">
        <ele>309.3</ele>
        <time>2025-10-19T12:01:58Z</time>
      </trkpt>
      <trkpt lat="43.20969" lon="5.47278">
        <ele>309.1</ele>
        <time>2025-10-19T12:01:59Z</time>
      </trkpt>
      <trkpt lat="43.20969" lon="5.47278">
        <ele>308.9</ele>
        <time>2025-10-19T12:02:00Z</time>
      </trkpt>
      <trkpt lat="43.20969" lon="5.47278">
        <ele>308.8</ele>
        <time>2025-10-19T12:02:01Z</time>
      </trkpt>
      <trkpt lat="43.20969" lon="5.47278">
        <ele>308.6</ele>
        <time>2025-10-19T12:02:02Z</time>
      </trkpt>
      <trkpt lat="43.20969" lon="5.47278">
        <ele>308.4</ele>
        <time>2025-10-19T12:02:03Z</time>
      </trkpt>
      <trkpt lat="43.20969" lon="5.47278">
        <ele>308.4</ele>
        <time>2025-10-19T12:02:04Z</time>
      </trkpt>
      <trkpt lat="43.20969" lon="5.47278">
        <ele>308.3</ele>
        <time>2025-10-19T12:02:05Z</time>
      </trkpt>
      <trkpt lat="43.20969" lon="5.47278">
        <ele>308.3</ele>
        <time>2025-10-19T12:02:06Z</time>
      </trkpt>
      <trkpt lat="43.20969" lon="5.47278">
        <ele>308.2</ele>
        <time>2025-10-19T12:02:07Z</time>
      </trkpt>
      <trkpt lat="43.20969" lon="5.47278">
        <ele>308.2</ele>
        <time>2025-10-19T12:02:08Z</time>
      </trkpt>
      <trkpt lat="43.20969" lon="5.47278">
        <ele>308.1</ele>
        <time>2025-10-19T12:02:09Z</time>
      </trkpt>
      <trkpt lat="43.20969" lon="5.47278">
        <ele>308.1</ele>
        <time>2025-10-19T12:02:10Z</time>
      </trkpt>
      <trkpt lat="43.20968" lon="5.47278">
        <ele>308</ele>
        <time>2025-10-19T12:02:11Z</time>
      </trkpt>
      <trkpt lat="43.20968" lon="5.47278">
        <ele>308</ele>
        <time>2025-10-19T12:02:12Z</time>
      </trkpt>
      <trkpt lat="43.20969" lon="5.47278">
        <ele>307.9</ele>
        <time>2025-10-19T12:02:13Z</time>
      </trkpt>
      <trkpt lat="43.20969" lon="5.47277">
        <ele>307.9</ele>
        <time>2025-10-19T12:02:14Z</time>
      </trkpt>
      <trkpt lat="43.20969" lon="5.47276">
        <ele>308</ele>
        <time>2025-10-19T12:02:15Z</time>
      </trkpt>
      <trkpt lat="43.20969" lon="5.47275">
        <ele>308</ele>
        <time>2025-10-19T12:02:16Z</time>
      </trkpt>
      <trkpt lat="43.20969" lon="5.47274">
        <ele>307.9</ele>
        <time>2025-10-19T12:02:17Z</time>
      </trkpt>
      <trkpt lat="43.20969" lon="5.47274">
        <ele>307.9</ele>
        <time>2025-10-19T12:02:18Z</time>
      </trkpt>
      <trkpt lat="43.20969" lon="5.47274">
        <ele>307.8</ele>
        <time>2025-10-19T12:02:19Z</time>
      </trkpt>
      <trkpt lat="43.20969" lon="5.47273">
        <ele>307.7</ele>
        <time>2025-10-19T12:02:20Z</time>
      </trkpt>
      <trkpt lat="43.20969" lon="5.47273">
        <ele>307.5</ele>
        <time>2025-10-19T12:02:21Z</time>
      </trkpt>
      <trkpt lat="43.20969" lon="5.47272">
        <ele>307.4</ele>
        <time>2025-10-19T12:02:22Z</time>
      </trkpt>
      <trkpt lat="43.20969" lon="5.47272">
        <ele>307.3</ele>
        <time>2025-10-19T12:02:23Z</time>
      </trkpt>
      <trkpt lat="43.20969" lon="5.47271">
        <ele>307.2</ele>
        <time>2025-10-19T12:02:24Z</time>
      </trkpt>
      <trkpt lat="43.20968" lon="5.4727">
        <ele>307.1</ele>
        <time>2025-10-19T12:02:25Z</time>
      </trkpt>
      <trkpt lat="43.20968" lon="5.47269">
        <ele>307.1</ele>
        <time>2025-10-19T12:02:26Z</time>
      </trkpt>
      <trkpt lat="43.20968" lon="5.47269">
        <ele>307.3</ele>
        <time>2025-10-19T12:02:27Z</time>
      </trkpt>
      <trkpt lat="43.20968" lon="5.47268">
        <ele>307.4</ele>
        <time>2025-10-19T12:02:28Z</time>
      </trkpt>
      <trkpt lat="43.20968" lon="5.47267">
        <ele>307.5</ele>
        <time>2025-10-19T12:02:29Z</time>
      </trkpt>
      <trkpt lat="43.20968" lon="5.47267">
        <ele>307.5</ele>
        <time>2025-10-19T12:02:30Z</time>
      </trkpt>
      <trkpt lat="43.20968" lon="5.47267">
        <ele>307.4</ele>
        <time>2025-10-19T12:02:31Z</time>
      </trkpt>
      <trkpt lat="43.20968" lon="5.47268">
        <ele>307.4</ele>
        <time>2025-10-19T12:02:32Z</time>
      </trkpt>
      <trkpt lat="43.20968" lon="5.47268">
        <ele>307.4</ele>
        <time>2025-10-19T12:02:33Z</time>
      </trkpt>
      <trkpt lat="43.20968" lon="5.47267">
        <ele>307.3</ele>
        <time>2025-10-19T12:02:34Z</time>
      </trkpt>
      <trkpt lat="43.20968" lon="5.47267">
        <ele>307.3</ele>
        <time>2025-10-19T12:02:35Z</time>
      </trkpt>
      <trkpt lat="43.20968" lon="5.47267">
        <ele>307.3</ele>
        <time>2025-10-19T12:02:36Z</time>
      </trkpt>
      <trkpt lat="43.20968" lon="5.47267">
        <ele>307.3</ele>
        <time>2025-10-19T12:02:37Z</time>
      </trkpt>
      <trkpt lat="43.20968" lon="5.47267">
        <ele>307.4</ele>
        <time>2025-10-19T12:02:38Z</time>
      </trkpt>
      <trkpt lat="43.20968" lon="5.47268">
        <ele>307.4</ele>
        <time>2025-10-19T12:02:39Z</time>
      </trkpt>
      <trkpt lat="43.20967" lon="5.47267">
        <ele>307.4</ele>
        <time>2025-10-19T12:02:40Z</time>
      </trkpt>
      <trkpt lat="43.20967" lon="5.47267">
        <ele>307.4</ele>
        <time>2025-10-19T12:02:41Z</time>
      </trkpt>
      <trkpt lat="43.20967" lon="5.47267">
        <ele>307.4</ele>
        <time>2025-10-19T12:02:42Z</time>
      </trkpt>
      <trkpt lat="43.20967" lon="5.47267">
        <ele>307.3</ele>
        <time>2025-10-19T12:02:43Z</time>
      </trkpt>
      <trkpt lat="43.20967" lon="5.47267">
        <ele>307.2</ele>
        <time>2025-10-19T12:02:44Z</time>
      </trkpt>
      <trkpt lat="43.20967" lon="5.47267">
        <ele>307.1</ele>
        <time>2025-10-19T12:02:45Z</time>
      </trkpt>
      <trkpt lat="43.20967" lon="5.47267">
        <ele>307.1</ele>
        <time>2025-10-19T12:02:46Z</time>
      </trkpt>
      <trkpt lat="43.20967" lon="5.47267">
        <ele>307.1</ele>
        <time>2025-10-19T12:02:47Z</time>
      </trkpt>
      <trkpt lat="43.20967" lon="5.47267">
        <ele>307.1</ele>
        <time>2025-10-19T12:02:48Z</time>
      </trkpt>
      <trkpt lat="43.20967" lon="5.47267">
        <ele>307</ele>
        <time>2025-10-19T12:02:49Z</time>
      </trkpt>
      <trkpt lat="43.20967" lon="5.47267">
        <ele>307.1</ele>
        <time>2025-10-19T12:02:50Z</time>
      </trkpt>
      <trkpt lat="43.20967" lon="5.47267">
        <ele>307.1</ele>
        <time>2025-10-19T12:02:51Z</time>
      </trkpt>
      <trkpt lat="43.20967" lon="5.47267">
        <ele>307.1</ele>
        <time>2025-10-19T12:02:52Z</time>
      </trkpt>
      <trkpt lat="43.20967" lon="5.47267">
        <ele>307</ele>
        <time>2025-10-19T12:02:53Z</time>
      </trkpt>
      <trkpt lat="43.20967" lon="5.47267">
        <ele>307.1</ele>
        <time>2025-10-19T12:02:54Z</time>
      </trkpt>
      <trkpt lat="43.20967" lon="5.47267">
        <ele>307.1</ele>
        <time>2025-10-19T12:02:55Z</time>
      </trkpt>
      <trkpt lat="43.20967" lon="5.47267">
        <ele>307</ele>
        <time>2025-10-19T12:02:56Z</time>
      </trkpt>
      <trkpt lat="43.20968" lon="5.47267">
        <ele>307</ele>
        <time>2025-10-19T12:02:57Z</time>
      </trkpt>
      <trkpt lat="43.20968" lon="5.47267">
        <ele>307</ele>
        <time>2025-10-19T12:02:58Z</time>
      </trkpt>
      <trkpt lat="43.20968" lon="5.47267">
        <ele>306.8</ele>
        <time>2025-10-19T12:02:59Z</time>
      </trkpt>
      <trkpt lat="43.20968" lon="5.47267">
        <ele>306.7</ele>
        <time>2025-10-19T12:03:00Z</time>
      </trkpt>
      <trkpt lat="43.20968" lon="5.47267">
        <ele>306.7</ele>
        <time>2025-10-19T12:03:01Z</time>
      </trkpt>
      <trkpt lat="43.20969" lon="5.47267">
        <ele>306.6</ele>
        <time>2025-10-19T12:03:02Z</time>
      </trkpt>
      <trkpt lat="43.20969" lon="5.47267">
        <ele>306.6</ele>
        <time>2025-10-19T12:03:03Z</time>
      </trkpt>
      <trkpt lat="43.20969" lon="5.47267">
        <ele>306.4</ele>
        <time>2025-10-19T12:03:04Z</time>
      </trkpt>
      <trkpt lat="43.20969" lon="5.47267">
        <ele>306.3</ele>
        <time>2025-10-19T12:03:05Z</time>
      </trkpt>
      <trkpt lat="43.2097" lon="5.47267">
        <ele>306.2</ele>
        <time>2025-10-19T12:03:06Z</time>
      </trkpt>
      <trkpt lat="43.2097" lon="5.47267">
        <ele>306.1</ele>
        <time>2025-10-19T12:03:07Z</time>
      </trkpt>
      <trkpt lat="43.2097" lon="5.47267">
        <ele>305.9</ele>
        <time>2025-10-19T12:03:08Z</time>
      </trkpt>
      <trkpt lat="43.20971" lon="5.47267">
        <ele>305.8</ele>
        <time>2025-10-19T12:03:09Z</time>
      </trkpt>
      <trkpt lat="43.20971" lon="5.47267">
        <ele>305.7</ele>
        <time>2025-10-19T12:03:10Z</time>
      </trkpt>
      <trkpt lat="43.20971" lon="5.47267">
        <ele>305.7</ele>
        <time>2025-10-19T12:03:11Z</time>
      </trkpt>
      <trkpt lat="43.20972" lon="5.47266">
        <ele>305.5</ele>
        <time>2025-10-19T12:03:12Z</time>
      </trkpt>
      <trkpt lat="43.20973" lon="5.47265">
        <ele>305.3</ele>
        <time>2025-10-19T12:03:13Z</time>
      </trkpt>
      <trkpt lat="43.20973" lon="5.47264">
        <ele>305.1</ele>
        <time>2025-10-19T12:03:14Z</time>
      </trkpt>
      <trkpt lat="43.20973" lon="5.47263">
        <ele>305</ele>
        <time>2025-10-19T12:03:15Z</time>
      </trkpt>
      <trkpt lat="43.20973" lon="5.47262">
        <ele>305</ele>
        <time>2025-10-19T12:03:16Z</time>
      </trkpt>
      <trkpt lat="43.20973" lon="5.47262">
        <ele>304.9</ele>
        <time>2025-10-19T12:03:17Z</time>
      </trkpt>
      <trkpt lat="43.20973" lon="5.47261">
        <ele>304.9</ele>
        <time>2025-10-19T12:03:18Z</time>
      </trkpt>
      <trkpt lat="43.20974" lon="5.47261">
        <ele>304.9</ele>
        <time>2025-10-19T12:03:19Z</time>
      </trkpt>
      <trkpt lat="43.20974" lon="5.47261">
        <ele>304.9</ele>
        <time>2025-10-19T12:03:20Z</time>
      </trkpt>
      <trkpt lat="43.20974" lon="5.47261">
        <ele>304.9</ele>
        <time>2025-10-19T12:03:21Z</time>
      </trkpt>
      <trkpt lat="43.20974" lon="5.47262">
        <ele>304.9</ele>
        <time>2025-10-19T12:03:22Z</time>
      </trkpt>
      <trkpt lat="43.20974" lon="5.47262">
        <ele>304.9</ele>
        <time>2025-10-19T12:03:23Z</time>
      </trkpt>
      <trkpt lat="43.20974" lon="5.47262">
        <ele>304.9</ele>
        <time>2025-10-19T12:03:24Z</time>
      </trkpt>
      <trkpt lat="43.20974" lon="5.47262">
        <ele>304.8</ele>
        <time>2025-10-19T12:03:25Z</time>
      </trkpt>
      <trkpt lat="43.20975" lon="5.47262">
        <ele>304.7</ele>
        <time>2025-10-19T12:03:26Z</time>
      </trkpt>
      <trkpt lat="43.20975" lon="5.47262">
        <ele>304.6</ele>
        <time>2025-10-19T12:03:27Z</time>
      </trkpt>
      <trkpt lat="43.20976" lon="5.47262">
        <ele>304.6</ele>
        <time>2025-10-19T12:03:28Z</time>
      </trkpt>
      <trkpt lat="43.20976" lon="5.47261">
        <ele>304.5</ele>
        <time>2025-10-19T12:03:29Z</time>
      </trkpt>
      <trkpt lat="43.20977" lon="5.47261">
        <ele>304.4</ele>
        <time>2025-10-19T12:03:30Z</time>
      </trkpt>
      <trkpt lat="43.20978" lon="5.4726">
        <ele>304.6</ele>
        <time>2025-10-19T12:03:31Z</time>
      </trkpt>
      <trkpt lat="43.20978" lon="5.4726">
        <ele>304.6</ele>
        <time>2025-10-19T12:03:32Z</time>
      </trkpt>
      <trkpt lat="43.20978" lon="5.4726">
        <ele>304.6</ele>
        <time>2025-10-19T12:03:33Z</time>
      </trkpt>
      <trkpt lat="43.20978" lon="5.4726">
        <ele>304.6</ele>
        <time>2025-10-19T12:03:34Z</time>
      </trkpt>
      <trkpt lat="43.20978" lon="5.4726">
        <ele>304.6</ele>
        <time>2025-10-19T12:03:35Z</time>
      </trkpt>
      <trkpt lat="43.20978" lon="5.4726">
        <ele>304.7</ele>
        <time>2025-10-19T12:03:36Z</time>
      </trkpt>
      <trkpt lat="43.20978" lon="5.4726">
        <ele>304.7</ele>
        <time>2025-10-19T12:03:37Z</time>
      </trkpt>
      <trkpt lat="43.20978" lon="5.4726">
        <ele>304.7</ele>
        <time>2025-10-19T12:03:38Z</time>
      </trkpt>
      <trkpt lat="43.20978" lon="5.4726">
        <ele>304.7</ele>
        <time>2025-10-19T12:03:39Z</time>
      </trkpt>
      <trkpt lat="43.20978" lon="5.4726">
        <ele>304.7</ele>
        <time>2025-10-19T12:03:40Z</time>
      </trkpt>
      <trkpt lat="43.20978" lon="5.4726">
        <ele>304.7</ele>
        <time>2025-10-19T12:03:41Z</time>
      </trkpt>
      <trkpt lat="43.20978" lon="5.4726">
        <ele>304.8</ele>
        <time>2025-10-19T12:03:42Z</time>
      </trkpt>
      <trkpt lat="43.20978" lon="5.4726">
        <ele>304.9</ele>
        <time>2025-10-19T12:03:43Z</time>
      </trkpt>
      <trkpt lat="43.20978" lon="5.4726">
        <ele>304.9</ele>
        <time>2025-10-19T12:03:44Z</time>
      </trkpt>
      <trkpt lat="43.20978" lon="5.4726">
        <ele>304.9</ele>
        <time>2025-10-19T12:03:45Z</time>
      </trkpt>
      <trkpt lat="43.20977" lon="5.4726">
        <ele>304.9</ele>
        <time>2025-10-19T12:03:46Z</time>
      </trkpt>
      <trkpt lat="43.20977" lon="5.47261">
        <ele>304.8</ele>
        <time>2025-10-19T12:03:47Z</time>
      </trkpt>
      <trkpt lat="43.20976" lon="5.47261">
        <ele>304.8</ele>
        <time>2025-10-19T12:03:48Z</time>
      </trkpt>
      <trkpt lat="43.20977" lon="5.47261">
        <ele>304.8</ele>
        <time>2025-10-19T12:03:49Z</time>
      </trkpt>
      <trkpt lat="43.20977" lon="5.47262">
        <ele>304.8</ele>
        <time>2025-10-19T12:03:50Z</time>
      </trkpt>
      <trkpt lat="43.20977" lon="5.47262">
        <ele>304.7</ele>
        <time>2025-10-19T12:03:51Z</time>
      </trkpt>
      <trkpt lat="43.20977" lon="5.47262">
        <ele>304.5</ele>
        <time>2025-10-19T12:03:52Z</time>
      </trkpt>
      <trkpt lat="43.20977" lon="5.47262">
        <ele>304.4</ele>
        <time>2025-10-19T12:03:53Z</time>
      </trkpt>
      <trkpt lat="43.20977" lon="5.47262">
        <ele>304.3</ele>
        <time>2025-10-19T12:03:54Z</time>
      </trkpt>
      <trkpt lat="43.20977" lon="5.47262">
        <ele>304.3</ele>
        <time>2025-10-19T12:03:55Z</time>
      </trkpt>
      <trkpt lat="43.20977" lon="5.47263">
        <ele>304.1</ele>
        <time>2025-10-19T12:03:56Z</time>
      </trkpt>
      <trkpt lat="43.20977" lon="5.47263">
        <ele>304</ele>
        <time>2025-10-19T12:03:57Z</time>
      </trkpt>
      <trkpt lat="43.20978" lon="5.47263">
        <ele>303.9</ele>
        <time>2025-10-19T12:03:58Z</time>
      </trkpt>
      <trkpt lat="43.20978" lon="5.47263">
        <ele>303.8</ele>
        <time>2025-10-19T12:03:59Z</time>
      </trkpt>
      <trkpt lat="43.20978" lon="5.47263">
        <ele>303.7</ele>
        <time>2025-10-19T12:04:00Z</time>
      </trkpt>
      <trkpt lat="43.20979" lon="5.47264">
        <ele>303.3</ele>
        <time>2025-10-19T12:04:01Z</time>
      </trkpt>
      <trkpt lat="43.20979" lon="5.47264">
        <ele>303.1</ele>
        <time>2025-10-19T12:04:02Z</time>
      </trkpt>
      <trkpt lat="43.20979" lon="5.47264">
        <ele>302.9</ele>
        <time>2025-10-19T12:04:03Z</time>
      </trkpt>
      <trkpt lat="43.20979" lon="5.47264">
        <ele>302.4</ele>
        <time>2025-10-19T12:04:04Z</time>
      </trkpt>
      <trkpt lat="43.2098" lon="5.47264">
        <ele>302.2</ele>
        <time>2025-10-19T12:04:05Z</time>
      </trkpt>
      <trkpt lat="43.2098" lon="5.47264">
        <ele>302.1</ele>
        <time>2025-10-19T12:04:06Z</time>
      </trkpt>
      <trkpt lat="43.2098" lon="5.47264">
        <ele>301.9</ele>
        <time>2025-10-19T12:04:07Z</time>
      </trkpt>
      <trkpt lat="43.20981" lon="5.47265">
        <ele>301.7</ele>
        <time>2025-10-19T12:04:08Z</time>
      </trkpt>
      <trkpt lat="43.20981" lon="5.47265">
        <ele>301.5</ele>
        <time>2025-10-19T12:04:09Z</time>
      </trkpt>
      <trkpt lat="43.20982" lon="5.47265">
        <ele>301.4</ele>
        <time>2025-10-19T12:04:10Z</time>
      </trkpt>
      <trkpt lat="43.20982" lon="5.47265">
        <ele>301.3</ele>
        <time>2025-10-19T12:04:11Z</time>
      </trkpt>
      <trkpt lat="43.20982" lon="5.47265">
        <ele>301.1</ele>
        <time>2025-10-19T12:04:12Z</time>
      </trkpt>
      <trkpt lat="43.20983" lon="5.47265">
        <ele>300.9</ele>
        <time>2025-10-19T12:04:13Z</time>
      </trkpt>
      <trkpt lat="43.20983" lon="5.47265">
        <ele>300.7</ele>
        <time>2025-10-19T12:04:14Z</time>
      </trkpt>
      <trkpt lat="43.20984" lon="5.47265">
        <ele>300.5</ele>
        <time>2025-10-19T12:04:15Z</time>
      </trkpt>
      <trkpt lat="43.20984" lon="5.47265">
        <ele>300.2</ele>
        <time>2025-10-19T12:04:16Z</time>
      </trkpt>
      <trkpt lat="43.20984" lon="5.47264">
        <ele>300.1</ele>
        <time>2025-10-19T12:04:17Z</time>
      </trkpt>
      <trkpt lat="43.20985" lon="5.47263">
        <ele>299.9</ele>
        <time>2025-10-19T12:04:18Z</time>
      </trkpt>
      <trkpt lat="43.20985" lon="5.47261">
        <ele>299.7</ele>
        <time>2025-10-19T12:04:19Z</time>
      </trkpt>
      <trkpt lat="43.20985" lon="5.4726">
        <ele>299.5</ele>
        <time>2025-10-19T12:04:20Z</time>
      </trkpt>
      <trkpt lat="43.20985" lon="5.47259">
        <ele>299.2</ele>
        <time>2025-10-19T12:04:21Z</time>
      </trkpt>
      <trkpt lat="43.20986" lon="5.47258">
        <ele>299</ele>
        <time>2025-10-19T12:04:22Z</time>
      </trkpt>
      <trkpt lat="43.20986" lon="5.47257">
        <ele>298.9</ele>
        <time>2025-10-19T12:04:23Z</time>
      </trkpt>
      <trkpt lat="43.20987" lon="5.47256">
        <ele>298.8</ele>
        <time>2025-10-19T12:04:24Z</time>
      </trkpt>
      <trkpt lat="43.20988" lon="5.47255">
        <ele>298.7</ele>
        <time>2025-10-19T12:04:25Z</time>
      </trkpt>
      <trkpt lat="43.20988" lon="5.47255">
        <ele>298.4</ele>
        <time>2025-10-19T12:04:26Z</time>
      </trkpt>
      <trkpt lat="43.20988" lon="5.47255">
        <ele>298.3</ele>
        <time>2025-10-19T12:04:27Z</time>
      </trkpt>
      <trkpt lat="43.20989" lon="5.47254">
        <ele>298.2</ele>
        <time>2025-10-19T12:04:28Z</time>
      </trkpt>
      <trkpt lat="43.20989" lon="5.47255">
        <ele>298.1</ele>
        <time>2025-10-19T12:04:29Z</time>
      </trkpt>
      <trkpt lat="43.2099" lon="5.47254">
        <ele>298.1</ele>
        <time>2025-10-19T12:04:30Z</time>
      </trkpt>
      <trkpt lat="43.2099" lon="5.47254">
        <ele>298</ele>
        <time>2025-10-19T12:04:31Z</time>
      </trkpt>
      <trkpt lat="43.2099" lon="5.47253">
        <ele>297.8</ele>
        <time>2025-10-19T12:04:32Z</time>
      </trkpt>
      <trkpt lat="43.20991" lon="5.47252">
        <ele>297.6</ele>
        <time>2025-10-19T12:04:33Z</time>
      </trkpt>
      <trkpt lat="43.20991" lon="5.47251">
        <ele>297.4</ele>
        <time>2025-10-19T12:04:34Z</time>
      </trkpt>
      <trkpt lat="43.20991" lon="5.47251">
        <ele>297.4</ele>
        <time>2025-10-19T12:04:35Z</time>
      </trkpt>
      <trkpt lat="43.20992" lon="5.4725">
        <ele>297.3</ele>
        <time>2025-10-19T12:04:36Z</time>
      </trkpt>
      <trkpt lat="43.20993" lon="5.47249">
        <ele>297.1</ele>
        <time>2025-10-19T12:04:37Z</time>
      </trkpt>
      <trkpt lat="43.20993" lon="5.47248">
        <ele>297</ele>
        <time>2025-10-19T12:04:38Z</time>
      </trkpt>
      <trkpt lat="43.20993" lon="5.47247">
        <ele>296.9</ele>
        <time>2025-10-19T12:04:39Z</time>
      </trkpt>
      <trkpt lat="43.20994" lon="5.47247">
        <ele>296.9</ele>
        <time>2025-10-19T12:04:40Z</time>
      </trkpt>
      <trkpt lat="43.20994" lon="5.47246">
        <ele>296.8</ele>
        <time>2025-10-19T12:04:41Z</time>
      </trkpt>
      <trkpt lat="43.20995" lon="5.47246">
        <ele>296.6</ele>
        <time>2025-10-19T12:04:42Z</time>
      </trkpt>
      <trkpt lat="43.20995" lon="5.47245">
        <ele>296.5</ele>
        <time>2025-10-19T12:04:43Z</time>
      </trkpt>
      <trkpt lat="43.20996" lon="5.47245">
        <ele>296.3</ele>
        <time>2025-10-19T12:04:44Z</time>
      </trkpt>
      <trkpt lat="43.20997" lon="5.47244">
        <ele>296.3</ele>
        <time>2025-10-19T12:04:45Z</time>
      </trkpt>
      <trkpt lat="43.20998" lon="5.47243">
        <ele>296.2</ele>
        <time>2025-10-19T12:04:46Z</time>
      </trkpt>
      <trkpt lat="43.20998" lon="5.47242">
        <ele>296.1</ele>
        <time>2025-10-19T12:04:47Z</time>
      </trkpt>
      <trkpt lat="43.20999" lon="5.47241">
        <ele>296</ele>
        <time>2025-10-19T12:04:48Z</time>
      </trkpt>
      <trkpt lat="43.21" lon="5.4724">
        <ele>295.9</ele>
        <time>2025-10-19T12:04:49Z</time>
      </trkpt>
      <trkpt lat="43.21" lon="5.47239">
        <ele>295.9</ele>
        <time>2025-10-19T12:04:50Z</time>
      </trkpt>
      <trkpt lat="43.21001" lon="5.47238">
        <ele>296</ele>
        <time>2025-10-19T12:04:51Z</time>
      </trkpt>
      <trkpt lat="43.21002" lon="5.47236">
        <ele>295.9</ele>
        <time>2025-10-19T12:04:52Z</time>
      </trkpt>
      <trkpt lat="43.21002" lon="5.47235">
        <ele>295.9</ele>
        <time>2025-10-19T12:04:53Z</time>
      </trkpt>
      <trkpt lat="43.21003" lon="5.47234">
        <ele>295.8</ele>
        <time>2025-10-19T12:04:54Z</time>
      </trkpt>
      <trkpt lat="43.21004" lon="5.47232">
        <ele>295.7</ele>
        <time>2025-10-19T12:04:55Z</time>
      </trkpt>
      <trkpt lat="43.21004" lon="5.47231">
        <ele>295.7</ele>
        <time>2025-10-19T12:04:56Z</time>
      </trkpt>
      <trkpt lat="43.21005" lon="5.4723">
        <ele>295.6</ele>
        <time>2025-10-19T12:04:57Z</time>
      </trkpt>
      <trkpt lat="43.21006" lon="5.47229">
        <ele>295.6</ele>
        <time>2025-10-19T12:04:58Z</time>
      </trkpt>
      <trkpt lat="43.21006" lon="5.47227">
        <ele>295.7</ele>
        <time>2025-10-19T12:04:59Z</time>
      </trkpt>
      <trkpt lat="43.21007" lon="5.47226">
        <ele>295.6</ele>
        <time>2025-10-19T12:05:00Z</time>
      </trkpt>
      <trkpt lat="43.21006" lon="5.47226">
        <ele>295.6</ele>
        <time>2025-10-19T12:05:01Z</time>
      </trkpt>
      <trkpt lat="43.21006" lon="5.47226">
        <ele>295.6</ele>
        <time>2025-10-19T12:05:02Z</time>
      </trkpt>
      <trkpt lat="43.21006" lon="5.47226">
        <ele>295.6</ele>
        <time>2025-10-19T12:05:03Z</time>
      </trkpt>
      <trkpt lat="43.21006" lon="5.47226">
        <ele>295.6</ele>
        <time>2025-10-19T12:05:04Z</time>
      </trkpt>
      <trkpt lat="43.21006" lon="5.47226">
        <ele>295.6</ele>
        <time>2025-10-19T12:05:05Z</time>
      </trkpt>
      <trkpt lat="43.21006" lon="5.47226">
        <ele>295.7</ele>
        <time>2025-10-19T12:05:06Z</time>
      </trkpt>
      <trkpt lat="43.21006" lon="5.47226">
        <ele>295.7</ele>
        <time>2025-10-19T12:05:07Z</time>
      </trkpt>
      <trkpt lat="43.21007" lon="5.47226">
        <ele>295.7</ele>
        <time>2025-10-19T12:05:08Z</time>
      </trkpt>
      <trkpt lat="43.21007" lon="5.47226">
        <ele>295.7</ele>
        <time>2025-10-19T12:05:09Z</time>
      </trkpt>
      <trkpt lat="43.21009" lon="5.47225">
        <ele>295.7</ele>
        <time>2025-10-19T12:05:10Z</time>
      </trkpt>
      <trkpt lat="43.2101" lon="5.47225">
        <ele>296</ele>
        <time>2025-10-19T12:05:11Z</time>
      </trkpt>
      <trkpt lat="43.21011" lon="5.47223">
        <ele>296.1</ele>
        <time>2025-10-19T12:05:12Z</time>
      </trkpt>
      <trkpt lat="43.21011" lon="5.47222">
        <ele>296.2</ele>
        <time>2025-10-19T12:05:13Z</time>
      </trkpt>
      <trkpt lat="43.21012" lon="5.47221">
        <ele>296.2</ele>
        <time>2025-10-19T12:05:14Z</time>
      </trkpt>
      <trkpt lat="43.21012" lon="5.4722">
        <ele>296.2</ele>
        <time>2025-10-19T12:05:15Z</time>
      </trkpt>
      <trkpt lat="43.21013" lon="5.47219">
        <ele>296.3</ele>
        <time>2025-10-19T12:05:16Z</time>
      </trkpt>
      <trkpt lat="43.21013" lon="5.47218">
        <ele>296.3</ele>
        <time>2025-10-19T12:05:17Z</time>
      </trkpt>
      <trkpt lat="43.21013" lon="5.47217">
        <ele>296.5</ele>
        <time>2025-10-19T12:05:18Z</time>
      </trkpt>
      <trkpt lat="43.21013" lon="5.47217">
        <ele>296.6</ele>
        <time>2025-10-19T12:05:19Z</time>
      </trkpt>
      <trkpt lat="43.21013" lon="5.47217">
        <ele>296.8</ele>
        <time>2025-10-19T12:05:20Z</time>
      </trkpt>
      <trkpt lat="43.21014" lon="5.47217">
        <ele>297</ele>
        <time>2025-10-19T12:05:21Z</time>
      </trkpt>
      <trkpt lat="43.21014" lon="5.47217">
        <ele>297.1</ele>
        <time>2025-10-19T12:05:22Z</time>
      </trkpt>
      <trkpt lat="43.21014" lon="5.47217">
        <ele>297.2</ele>
        <time>2025-10-19T12:05:23Z</time>
      </trkpt>
      <trkpt lat="43.21015" lon="5.47216">
        <ele>297.2</ele>
        <time>2025-10-19T12:05:24Z</time>
      </trkpt>
      <trkpt lat="43.21015" lon="5.47215">
        <ele>297.3</ele>
        <time>2025-10-19T12:05:25Z</time>
      </trkpt>
      <trkpt lat="43.21015" lon="5.47214">
        <ele>297.4</ele>
        <time>2025-10-19T12:05:26Z</time>
      </trkpt>
      <trkpt lat="43.21016" lon="5.47213">
        <ele>297.5</ele>
        <time>2025-10-19T12:05:27Z</time>
      </trkpt>
      <trkpt lat="43.21016" lon="5.47212">
        <ele>297.6</ele>
        <time>2025-10-19T12:05:28Z</time>
      </trkpt>
      <trkpt lat="43.21016" lon="5.47212">
        <ele>297.6</ele>
        <time>2025-10-19T12:05:29Z</time>
      </trkpt>
      <trkpt lat="43.21016" lon="5.47212">
        <ele>297.8</ele>
        <time>2025-10-19T12:05:30Z</time>
      </trkpt>
      <trkpt lat="43.21016" lon="5.47211">
        <ele>297.8</ele>
        <time>2025-10-19T12:05:31Z</time>
      </trkpt>
      <trkpt lat="43.21016" lon="5.47211">
        <ele>297.9</ele>
        <time>2025-10-19T12:05:32Z</time>
      </trkpt>
      <trkpt lat="43.21016" lon="5.47211">
        <ele>297.9</ele>
        <time>2025-10-19T12:05:33Z</time>
      </trkpt>
      <trkpt lat="43.21017" lon="5.4721">
        <ele>297.9</ele>
        <time>2025-10-19T12:05:34Z</time>
      </trkpt>
      <trkpt lat="43.21017" lon="5.47209">
        <ele>298.1</ele>
        <time>2025-10-19T12:05:35Z</time>
      </trkpt>
      <trkpt lat="43.21017" lon="5.47209">
        <ele>298.1</ele>
        <time>2025-10-19T12:05:36Z</time>
      </trkpt>
      <trkpt lat="43.21017" lon="5.47209">
        <ele>298.1</ele>
        <time>2025-10-19T12:05:37Z</time>
      </trkpt>
      <trkpt lat="43.21017" lon="5.47209">
        <ele>298</ele>
        <time>2025-10-19T12:05:38Z</time>
      </trkpt>
      <trkpt lat="43.21017" lon="5.47209">
        <ele>298</ele>
        <time>2025-10-19T12:05:39Z</time>
      </trkpt>
      <trkpt lat="43.21017" lon="5.47209">
        <ele>298</ele>
        <time>2025-10-19T12:05:40Z</time>
      </trkpt>
      <trkpt lat="43.21017" lon="5.47209">
        <ele>297.7</ele>
        <time>2025-10-19T12:05:41Z</time>
      </trkpt>
      <trkpt lat="43.21017" lon="5.47209">
        <ele>297.7</ele>
        <time>2025-10-19T12:05:42Z</time>
      </trkpt>
      <trkpt lat="43.21017" lon="5.47209">
        <ele>297.7</ele>
        <time>2025-10-19T12:05:43Z</time>
      </trkpt>
      <trkpt lat="43.21017" lon="5.4721">
        <ele>297.7</ele>
        <time>2025-10-19T12:05:44Z</time>
      </trkpt>
      <trkpt lat="43.21017" lon="5.47209">
        <ele>297.8</ele>
        <time>2025-10-19T12:05:45Z</time>
      </trkpt>
      <trkpt lat="43.21017" lon="5.47209">
        <ele>297.9</ele>
        <time>2025-10-19T12:05:46Z</time>
      </trkpt>
      <trkpt lat="43.21018" lon="5.47209">
        <ele>298.2</ele>
        <time>2025-10-19T12:05:47Z</time>
      </trkpt>
      <trkpt lat="43.21019" lon="5.47209">
        <ele>298.4</ele>
        <time>2025-10-19T12:05:48Z</time>
      </trkpt>
      <trkpt lat="43.2102" lon="5.47208">
        <ele>298.5</ele>
        <time>2025-10-19T12:05:49Z</time>
      </trkpt>
      <trkpt lat="43.21021" lon="5.47207">
        <ele>298.4</ele>
        <time>2025-10-19T12:05:50Z</time>
      </trkpt>
      <trkpt lat="43.21021" lon="5.47206">
        <ele>298.5</ele>
        <time>2025-10-19T12:05:51Z</time>
      </trkpt>
      <trkpt lat="43.21022" lon="5.47205">
        <ele>298.5</ele>
        <time>2025-10-19T12:05:52Z</time>
      </trkpt>
      <trkpt lat="43.21022" lon="5.47204">
        <ele>298.6</ele>
        <time>2025-10-19T12:05:53Z</time>
      </trkpt>
      <trkpt lat="43.21023" lon="5.47203">
        <ele>298.5</ele>
        <time>2025-10-19T12:05:54Z</time>
      </trkpt>
      <trkpt lat="43.21024" lon="5.47202">
        <ele>298.6</ele>
        <time>2025-10-19T12:05:55Z</time>
      </trkpt>
      <trkpt lat="43.21025" lon="5.472">
        <ele>298.6</ele>
        <time>2025-10-19T12:05:56Z</time>
      </trkpt>
      <trkpt lat="43.21026" lon="5.47199">
        <ele>298.6</ele>
        <time>2025-10-19T12:05:57Z</time>
      </trkpt>
      <trkpt lat="43.21026" lon="5.47198">
        <ele>298.9</ele>
        <time>2025-10-19T12:05:58Z</time>
      </trkpt>
      <trkpt lat="43.21027" lon="5.47197">
        <ele>299</ele>
        <time>2025-10-19T12:05:59Z</time>
      </trkpt>
      <trkpt lat="43.21028" lon="5.47197">
        <ele>298.8</ele>
        <time>2025-10-19T12:06:00Z</time>
      </trkpt>
      <trkpt lat="43.21029" lon="5.47196">
        <ele>298.8</ele>
        <time>2025-10-19T12:06:01Z</time>
      </trkpt>
      <trkpt lat="43.21029" lon="5.47195">
        <ele>299.1</ele>
        <time>2025-10-19T12:06:02Z</time>
      </trkpt>
      <trkpt lat="43.2103" lon="5.47195">
        <ele>299</ele>
        <time>2025-10-19T12:06:03Z</time>
      </trkpt>
      <trkpt lat="43.2103" lon="5.47194">
        <ele>298.9</ele>
        <time>2025-10-19T12:06:04Z</time>
      </trkpt>
      <trkpt lat="43.2103" lon="5.47194">
        <ele>298.8</ele>
        <time>2025-10-19T12:06:05Z</time>
      </trkpt>
      <trkpt lat="43.21031" lon="5.47194">
        <ele>298.7</ele>
        <time>2025-10-19T12:06:06Z</time>
      </trkpt>
      <trkpt lat="43.21031" lon="5.47193">
        <ele>298.6</ele>
        <time>2025-10-19T12:06:07Z</time>
      </trkpt>
      <trkpt lat="43.21032" lon="5.47193">
        <ele>298.6</ele>
        <time>2025-10-19T12:06:08Z</time>
      </trkpt>
      <trkpt lat="43.21032" lon="5.47193">
        <ele>298.5</ele>
        <time>2025-10-19T12:06:09Z</time>
      </trkpt>
      <trkpt lat="43.21032" lon="5.47193">
        <ele>298.4</ele>
        <time>2025-10-19T12:06:10Z</time>
      </trkpt>
      <trkpt lat="43.21032" lon="5.47193">
        <ele>298.3</ele>
        <time>2025-10-19T12:06:11Z</time>
      </trkpt>
      <trkpt lat="43.21032" lon="5.47193">
        <ele>298.2</ele>
        <time>2025-10-19T12:06:12Z</time>
      </trkpt>
      <trkpt lat="43.21033" lon="5.47193">
        <ele>298.1</ele>
        <time>2025-10-19T12:06:13Z</time>
      </trkpt>
      <trkpt lat="43.21033" lon="5.47193">
        <ele>298</ele>
        <time>2025-10-19T12:06:14Z</time>
      </trkpt>
      <trkpt lat="43.21033" lon="5.47193">
        <ele>297.8</ele>
        <time>2025-10-19T12:06:15Z</time>
      </trkpt>
      <trkpt lat="43.21034" lon="5.47193">
        <ele>297.8</ele>
        <time>2025-10-19T12:06:16Z</time>
      </trkpt>
      <trkpt lat="43.21034" lon="5.47192">
        <ele>297.6</ele>
        <time>2025-10-19T12:06:17Z</time>
      </trkpt>
      <trkpt lat="43.21035" lon="5.47192">
        <ele>297.4</ele>
        <time>2025-10-19T12:06:18Z</time>
      </trkpt>
      <trkpt lat="43.21036" lon="5.47192">
        <ele>297.3</ele>
        <time>2025-10-19T12:06:19Z</time>
      </trkpt>
      <trkpt lat="43.21036" lon="5.47191">
        <ele>297.2</ele>
        <time>2025-10-19T12:06:20Z</time>
      </trkpt>
      <trkpt lat="43.21036" lon="5.47192">
        <ele>297.2</ele>
        <time>2025-10-19T12:06:21Z</time>
      </trkpt>
      <trkpt lat="43.21036" lon="5.47192">
        <ele>297.2</ele>
        <time>2025-10-19T12:06:22Z</time>
      </trkpt>
      <trkpt lat="43.21036" lon="5.47192">
        <ele>297</ele>
        <time>2025-10-19T12:06:23Z</time>
      </trkpt>
      <trkpt lat="43.21037" lon="5.47192">
        <ele>296.8</ele>
        <time>2025-10-19T12:06:24Z</time>
      </trkpt>
      <trkpt lat="43.21038" lon="5.47192">
        <ele>296.6</ele>
        <time>2025-10-19T12:06:25Z</time>
      </trkpt>
      <trkpt lat="43.21039" lon="5.47191">
        <ele>296.2</ele>
        <time>2025-10-19T12:06:26Z</time>
      </trkpt>
      <trkpt lat="43.21039" lon="5.47191">
        <ele>296</ele>
        <time>2025-10-19T12:06:27Z</time>
      </trkpt>
      <trkpt lat="43.2104" lon="5.4719">
        <ele>295.8</ele>
        <time>2025-10-19T12:06:28Z</time>
      </trkpt>
      <trkpt lat="43.2104" lon="5.4719">
        <ele>295.7</ele>
        <time>2025-10-19T12:06:29Z</time>
      </trkpt>
      <trkpt lat="43.2104" lon="5.47189">
        <ele>295.5</ele>
        <time>2025-10-19T12:06:30Z</time>
      </trkpt>
      <trkpt lat="43.21041" lon="5.47189">
        <ele>295.3</ele>
        <time>2025-10-19T12:06:31Z</time>
      </trkpt>
      <trkpt lat="43.21041" lon="5.47189">
        <ele>295.1</ele>
        <time>2025-10-19T12:06:32Z</time>
      </trkpt>
      <trkpt lat="43.21042" lon="5.47189">
        <ele>295</ele>
        <time>2025-10-19T12:06:33Z</time>
      </trkpt>
      <trkpt lat="43.21042" lon="5.47189">
        <ele>294.8</ele>
        <time>2025-10-19T12:06:34Z</time>
      </trkpt>
      <trkpt lat="43.21042" lon="5.47189">
        <ele>294.7</ele>
        <time>2025-10-19T12:06:35Z</time>
      </trkpt>
      <trkpt lat="43.21042" lon="5.47189">
        <ele>294.5</ele>
        <time>2025-10-19T12:06:36Z</time>
      </trkpt>
      <trkpt lat="43.21043" lon="5.4719">
        <ele>294.3</ele>
        <time>2025-10-19T12:06:37Z</time>
      </trkpt>
      <trkpt lat="43.21043" lon="5.4719">
        <ele>294.2</ele>
        <time>2025-10-19T12:06:38Z</time>
      </trkpt>
      <trkpt lat="43.21044" lon="5.4719">
        <ele>294.1</ele>
        <time>2025-10-19T12:06:39Z</time>
      </trkpt>
      <trkpt lat="43.21044" lon="5.4719">
        <ele>293.9</ele>
        <time>2025-10-19T12:06:40Z</time>
      </trkpt>
      <trkpt lat="43.21044" lon="5.47189">
        <ele>293.8</ele>
        <time>2025-10-19T12:06:41Z</time>
      </trkpt>
      <trkpt lat="43.21044" lon="5.47189">
        <ele>293.7</ele>
        <time>2025-10-19T12:06:42Z</time>
      </trkpt>
      <trkpt lat="43.21045" lon="5.47189">
        <ele>293.6</ele>
        <time>2025-10-19T12:06:43Z</time>
      </trkpt>
      <trkpt lat="43.21045" lon="5.47188">
        <ele>293.3</ele>
        <time>2025-10-19T12:06:44Z</time>
      </trkpt>
      <trkpt lat="43.21045" lon="5.47188">
        <ele>293.1</ele>
        <time>2025-10-19T12:06:45Z</time>
      </trkpt>
      <trkpt lat="43.21045" lon="5.47188">
        <ele>292.9</ele>
        <time>2025-10-19T12:06:46Z</time>
      </trkpt>
      <trkpt lat="43.21046" lon="5.47187">
        <ele>292.8</ele>
        <time>2025-10-19T12:06:47Z</time>
      </trkpt>
      <trkpt lat="43.21046" lon="5.47187">
        <ele>292.6</ele>
        <time>2025-10-19T12:06:48Z</time>
      </trkpt>
      <trkpt lat="43.21046" lon="5.47187">
        <ele>292.4</ele>
        <time>2025-10-19T12:06:49Z</time>
      </trkpt>
      <trkpt lat="43.21046" lon="5.47187">
        <ele>292.4</ele>
        <time>2025-10-19T12:06:50Z</time>
      </trkpt>
      <trkpt lat="43.21047" lon="5.47187">
        <ele>292.2</ele>
        <time>2025-10-19T12:06:51Z</time>
      </trkpt>
      <trkpt lat="43.21047" lon="5.47188">
        <ele>292.1</ele>
        <time>2025-10-19T12:06:52Z</time>
      </trkpt>
      <trkpt lat="43.21047" lon="5.47188">
        <ele>292</ele>
        <time>2025-10-19T12:06:53Z</time>
      </trkpt>
      <trkpt lat="43.21047" lon="5.47189">
        <ele>291.9</ele>
        <time>2025-10-19T12:06:54Z</time>
      </trkpt>
      <trkpt lat="43.21048" lon="5.47189">
        <ele>291.7</ele>
        <time>2025-10-19T12:06:55Z</time>
      </trkpt>
      <trkpt lat="43.21048" lon="5.47189">
        <ele>290.9</ele>
        <time>2025-10-19T12:06:56Z</time>
      </trkpt>
      <trkpt lat="43.21049" lon="5.47189">
        <ele>290.7</ele>
        <time>2025-10-19T12:06:57Z</time>
      </trkpt>
      <trkpt lat="43.21049" lon="5.47189">
        <ele>290.5</ele>
        <time>2025-10-19T12:06:58Z</time>
      </trkpt>
      <trkpt lat="43.2105" lon="5.47189">
        <ele>290.4</ele>
        <time>2025-10-19T12:06:59Z</time>
      </trkpt>
      <trkpt lat="43.2105" lon="5.4719">
        <ele>290.2</ele>
        <time>2025-10-19T12:07:00Z</time>
      </trkpt>
      <trkpt lat="43.21051" lon="5.4719">
        <ele>290</ele>
        <time>2025-10-19T12:07:01Z</time>
      </trkpt>
      <trkpt lat="43.21051" lon="5.4719">
        <ele>289.8</ele>
        <time>2025-10-19T12:07:02Z</time>
      </trkpt>
      <trkpt lat="43.21051" lon="5.4719">
        <ele>289.6</ele>
        <time>2025-10-19T12:07:03Z</time>
      </trkpt>
      <trkpt lat="43.21052" lon="5.4719">
        <ele>289.4</ele>
        <time>2025-10-19T12:07:04Z</time>
      </trkpt>
      <trkpt lat="43.21052" lon="5.4719">
        <ele>289.2</ele>
        <time>2025-10-19T12:07:05Z</time>
      </trkpt>
      <trkpt lat="43.21052" lon="5.47191">
        <ele>288.9</ele>
        <time>2025-10-19T12:07:06Z</time>
      </trkpt>
      <trkpt lat="43.21052" lon="5.47191">
        <ele>288.8</ele>
        <time>2025-10-19T12:07:07Z</time>
      </trkpt>
      <trkpt lat="43.21052" lon="5.47191">
        <ele>288.6</ele>
        <time>2025-10-19T12:07:08Z</time>
      </trkpt>
      <trkpt lat="43.21052" lon="5.47191">
        <ele>288.5</ele>
        <time>2025-10-19T12:07:09Z</time>
      </trkpt>
      <trkpt lat="43.21052" lon="5.47191">
        <ele>288.4</ele>
        <time>2025-10-19T12:07:10Z</time>
      </trkpt>
      <trkpt lat="43.21052" lon="5.47191">
        <ele>288.4</ele>
        <time>2025-10-19T12:07:11Z</time>
      </trkpt>
      <trkpt lat="43.21052" lon="5.47191">
        <ele>288.4</ele>
        <time>2025-10-19T12:07:12Z</time>
      </trkpt>
      <trkpt lat="43.21052" lon="5.47192">
        <ele>288.4</ele>
        <time>2025-10-19T12:07:13Z</time>
      </trkpt>
      <trkpt lat="43.21052" lon="5.47191">
        <ele>288.3</ele>
        <time>2025-10-19T12:07:14Z</time>
      </trkpt>
      <trkpt lat="43.21052" lon="5.47191">
        <ele>288.2</ele>
        <time>2025-10-19T12:07:15Z</time>
      </trkpt>
      <trkpt lat="43.21051" lon="5.47191">
        <ele>288.1</ele>
        <time>2025-10-19T12:07:16Z</time>
      </trkpt>
      <trkpt lat="43.21052" lon="5.47191">
        <ele>288.1</ele>
        <time>2025-10-19T12:07:17Z</time>
      </trkpt>
      <trkpt lat="43.21052" lon="5.47191">
        <ele>288</ele>
        <time>2025-10-19T12:07:18Z</time>
      </trkpt>
      <trkpt lat="43.21052" lon="5.47192">
        <ele>288</ele>
        <time>2025-10-19T12:07:19Z</time>
      </trkpt>
      <trkpt lat="43.21052" lon="5.47192">
        <ele>288</ele>
        <time>2025-10-19T12:07:20Z</time>
      </trkpt>
      <trkpt lat="43.21052" lon="5.47192">
        <ele>288</ele>
        <time>2025-10-19T12:07:21Z</time>
      </trkpt>
      <trkpt lat="43.21052" lon="5.47192">
        <ele>288</ele>
        <time>2025-10-19T12:07:22Z</time>
      </trkpt>
      <trkpt lat="43.21052" lon="5.47193">
        <ele>288</ele>
        <time>2025-10-19T12:07:23Z</time>
      </trkpt>
      <trkpt lat="43.21052" lon="5.47193">
        <ele>287.9</ele>
        <time>2025-10-19T12:07:24Z</time>
      </trkpt>
      <trkpt lat="43.21052" lon="5.47194">
        <ele>287.8</ele>
        <time>2025-10-19T12:07:25Z</time>
      </trkpt>
      <trkpt lat="43.21052" lon="5.47194">
        <ele>287.8</ele>
        <time>2025-10-19T12:07:26Z</time>
      </trkpt>
      <trkpt lat="43.21052" lon="5.47195">
        <ele>287.6</ele>
        <time>2025-10-19T12:07:27Z</time>
      </trkpt>
      <trkpt lat="43.21053" lon="5.47195">
        <ele>287.5</ele>
        <time>2025-10-19T12:07:28Z</time>
      </trkpt>
      <trkpt lat="43.21053" lon="5.47195">
        <ele>287.3</ele>
        <time>2025-10-19T12:07:29Z</time>
      </trkpt>
      <trkpt lat="43.21053" lon="5.47194">
        <ele>287.1</ele>
        <time>2025-10-19T12:07:30Z</time>
      </trkpt>
      <trkpt lat="43.21053" lon="5.47194">
        <ele>287</ele>
        <time>2025-10-19T12:07:31Z</time>
      </trkpt>
      <trkpt lat="43.21053" lon="5.47194">
        <ele>286.8</ele>
        <time>2025-10-19T12:07:32Z</time>
      </trkpt>
      <trkpt lat="43.21053" lon="5.47193">
        <ele>286.7</ele>
        <time>2025-10-19T12:07:33Z</time>
      </trkpt>
      <trkpt lat="43.21054" lon="5.47193">
        <ele>286.5</ele>
        <time>2025-10-19T12:07:34Z</time>
      </trkpt>
      <trkpt lat="43.21054" lon="5.47193">
        <ele>286.4</ele>
        <time>2025-10-19T12:07:35Z</time>
      </trkpt>
      <trkpt lat="43.21055" lon="5.47194">
        <ele>286.2</ele>
        <time>2025-10-19T12:07:36Z</time>
      </trkpt>
      <trkpt lat="43.21056" lon="5.47193">
        <ele>286.1</ele>
        <time>2025-10-19T12:07:37Z</time>
      </trkpt>
      <trkpt lat="43.21056" lon="5.47193">
        <ele>286</ele>
        <time>2025-10-19T12:07:38Z</time>
      </trkpt>
      <trkpt lat="43.21056" lon="5.47192">
        <ele>285.7</ele>
        <time>2025-10-19T12:07:39Z</time>
      </trkpt>
      <trkpt lat="43.21057" lon="5.47191">
        <ele>285.4</ele>
        <time>2025-10-19T12:07:40Z</time>
      </trkpt>
      <trkpt lat="43.21057" lon="5.4719">
        <ele>285.3</ele>
        <time>2025-10-19T12:07:41Z</time>
      </trkpt>
      <trkpt lat="43.21058" lon="5.47189">
        <ele>285.1</ele>
        <time>2025-10-19T12:07:42Z</time>
      </trkpt>
      <trkpt lat="43.21058" lon="5.47188">
        <ele>284.9</ele>
        <time>2025-10-19T12:07:43Z</time>
      </trkpt>
      <trkpt lat="43.21058" lon="5.47188">
        <ele>284.7</ele>
        <time>2025-10-19T12:07:44Z</time>
      </trkpt>
      <trkpt lat="43.21058" lon="5.47188">
        <ele>284.7</ele>
        <time>2025-10-19T12:07:45Z</time>
      </trkpt>
      <trkpt lat="43.21058" lon="5.47188">
        <ele>284.5</ele>
        <time>2025-10-19T12:07:46Z</time>
      </trkpt>
      <trkpt lat="43.21059" lon="5.47187">
        <ele>284.3</ele>
        <time>2025-10-19T12:07:47Z</time>
      </trkpt>
      <trkpt lat="43.21059" lon="5.47187">
        <ele>284.1</ele>
        <time>2025-10-19T12:07:48Z</time>
      </trkpt>
      <trkpt lat="43.21059" lon="5.47186">
        <ele>283.9</ele>
        <time>2025-10-19T12:07:49Z</time>
      </trkpt>
      <trkpt lat="43.21059" lon="5.47186">
        <ele>283.7</ele>
        <time>2025-10-19T12:07:50Z</time>
      </trkpt>
      <trkpt lat="43.21059" lon="5.47185">
        <ele>283.7</ele>
        <time>2025-10-19T12:07:51Z</time>
      </trkpt>
      <trkpt lat="43.21059" lon="5.47184">
        <ele>283.5</ele>
        <time>2025-10-19T12:07:52Z</time>
      </trkpt>
      <trkpt lat="43.2106" lon="5.47184">
        <ele>283.5</ele>
        <time>2025-10-19T12:07:53Z</time>
      </trkpt>
      <trkpt lat="43.2106" lon="5.47183">
        <ele>283.7</ele>
        <time>2025-10-19T12:07:54Z</time>
      </trkpt>
      <trkpt lat="43.2106" lon="5.47183">
        <ele>283.5</ele>
        <time>2025-10-19T12:07:55Z</time>
      </trkpt>
      <trkpt lat="43.2106" lon="5.47183">
        <ele>283.4</ele>
        <time>2025-10-19T12:07:56Z</time>
      </trkpt>
      <trkpt lat="43.21061" lon="5.47183">
        <ele>283.2</ele>
        <time>2025-10-19T12:07:57Z</time>
      </trkpt>
      <trkpt lat="43.21062" lon="5.47183">
        <ele>282.9</ele>
        <time>2025-10-19T12:07:58Z</time>
      </trkpt>
      <trkpt lat="43.21062" lon="5.47182">
        <ele>282.7</ele>
        <time>2025-10-19T12:07:59Z</time>
      </trkpt>
      <trkpt lat="43.21063" lon="5.47181">
        <ele>282.6</ele>
        <time>2025-10-19T12:08:00Z</time>
      </trkpt>
      <trkpt lat="43.21063" lon="5.47181">
        <ele>282.4</ele>
        <time>2025-10-19T12:08:01Z</time>
      </trkpt>
      <trkpt lat="43.21064" lon="5.4718">
        <ele>282.3</ele>
        <time>2025-10-19T12:08:02Z</time>
      </trkpt>
      <trkpt lat="43.21064" lon="5.4718">
        <ele>282.3</ele>
        <time>2025-10-19T12:08:03Z</time>
      </trkpt>
      <trkpt lat="43.21064" lon="5.4718">
        <ele>282.3</ele>
        <time>2025-10-19T12:08:04Z</time>
      </trkpt>
      <trkpt lat="43.21064" lon="5.4718">
        <ele>282.3</ele>
        <time>2025-10-19T12:08:05Z</time>
      </trkpt>
      <trkpt lat="43.21064" lon="5.4718">
        <ele>282.3</ele>
        <time>2025-10-19T12:08:06Z</time>
      </trkpt>
      <trkpt lat="43.21064" lon="5.4718">
        <ele>282.3</ele>
        <time>2025-10-19T12:08:07Z</time>
      </trkpt>
      <trkpt lat="43.21064" lon="5.4718">
        <ele>282.3</ele>
        <time>2025-10-19T12:08:08Z</time>
      </trkpt>
      <trkpt lat="43.21065" lon="5.4718">
        <ele>282.2</ele>
        <time>2025-10-19T12:08:09Z</time>
      </trkpt>
      <trkpt lat="43.21065" lon="5.4718">
        <ele>282.2</ele>
        <time>2025-10-19T12:08:10Z</time>
      </trkpt>
      <trkpt lat="43.21066" lon="5.47179">
        <ele>282.1</ele>
        <time>2025-10-19T12:08:11Z</time>
      </trkpt>
      <trkpt lat="43.21066" lon="5.47179">
        <ele>282.1</ele>
        <time>2025-10-19T12:08:12Z</time>
      </trkpt>
      <trkpt lat="43.21066" lon="5.47179">
        <ele>282</ele>
        <time>2025-10-19T12:08:13Z</time>
      </trkpt>
      <trkpt lat="43.21066" lon="5.47179">
        <ele>282</ele>
        <time>2025-10-19T12:08:14Z</time>
      </trkpt>
      <trkpt lat="43.21066" lon="5.47179">
        <ele>281.9</ele>
        <time>2025-10-19T12:08:15Z</time>
      </trkpt>
      <trkpt lat="43.21066" lon="5.47179">
        <ele>281.9</ele>
        <time>2025-10-19T12:08:16Z</time>
      </trkpt>
      <trkpt lat="43.21066" lon="5.47179">
        <ele>282</ele>
        <time>2025-10-19T12:08:17Z</time>
      </trkpt>
      <trkpt lat="43.21067" lon="5.47179">
        <ele>282</ele>
        <time>2025-10-19T12:08:18Z</time>
      </trkpt>
      <trkpt lat="43.21067" lon="5.47179">
        <ele>282</ele>
        <time>2025-10-19T12:08:19Z</time>
      </trkpt>
      <trkpt lat="43.21067" lon="5.47179">
        <ele>282</ele>
        <time>2025-10-19T12:08:20Z</time>
      </trkpt>
      <trkpt lat="43.21067" lon="5.47178">
        <ele>282</ele>
        <time>2025-10-19T12:08:21Z</time>
      </trkpt>
      <trkpt lat="43.21067" lon="5.47178">
        <ele>282</ele>
        <time>2025-10-19T12:08:22Z</time>
      </trkpt>
      <trkpt lat="43.21067" lon="5.47178">
        <ele>282</ele>
        <time>2025-10-19T12:08:23Z</time>
      </trkpt>
      <trkpt lat="43.21067" lon="5.47178">
        <ele>281.7</ele>
        <time>2025-10-19T12:08:24Z</time>
      </trkpt>
      <trkpt lat="43.21067" lon="5.47178">
        <ele>281.7</ele>
        <time>2025-10-19T12:08:25Z</time>
      </trkpt>
      <trkpt lat="43.21067" lon="5.47178">
        <ele>281.7</ele>
        <time>2025-10-19T12:08:26Z</time>
      </trkpt>
      <trkpt lat="43.21067" lon="5.47178">
        <ele>281.8</ele>
        <time>2025-10-19T12:08:27Z</time>
      </trkpt>
      <trkpt lat="43.21067" lon="5.47178">
        <ele>281.7</ele>
        <time>2025-10-19T12:08:28Z</time>
      </trkpt>
      <trkpt lat="43.21067" lon="5.47177">
        <ele>281.6</ele>
        <time>2025-10-19T12:08:29Z</time>
      </trkpt>
      <trkpt lat="43.21068" lon="5.47177">
        <ele>281.7</ele>
        <time>2025-10-19T12:08:30Z</time>
      </trkpt>
      <trkpt lat="43.21068" lon="5.47177">
        <ele>281.8</ele>
        <time>2025-10-19T12:08:31Z</time>
      </trkpt>
      <trkpt lat="43.21068" lon="5.47176">
        <ele>281.8</ele>
        <time>2025-10-19T12:08:32Z</time>
      </trkpt>
      <trkpt lat="43.21068" lon="5.47176">
        <ele>281.8</ele>
        <time>2025-10-19T12:08:33Z</time>
      </trkpt>
      <trkpt lat="43.21068" lon="5.47175">
        <ele>281.7</ele>
        <time>2025-10-19T12:08:34Z</time>
      </trkpt>
      <trkpt lat="43.21069" lon="5.47175">
        <ele>281.7</ele>
        <time>2025-10-19T12:08:35Z</time>
      </trkpt>
      <trkpt lat="43.21069" lon="5.47175">
        <ele>281.6</ele>
        <time>2025-10-19T12:08:36Z</time>
      </trkpt>
      <trkpt lat="43.21069" lon="5.47174">
        <ele>281.6</ele>
        <time>2025-10-19T12:08:37Z</time>
      </trkpt>
      <trkpt lat="43.21069" lon="5.47174">
        <ele>281.5</ele>
        <time>2025-10-19T12:08:38Z</time>
      </trkpt>
      <trkpt lat="43.2107" lon="5.47174">
        <ele>281.4</ele>
        <time>2025-10-19T12:08:39Z</time>
      </trkpt>
      <trkpt lat="43.21071" lon="5.47174">
        <ele>281.3</ele>
        <time>2025-10-19T12:08:40Z</time>
      </trkpt>
      <trkpt lat="43.21072" lon="5.47173">
        <ele>281.2</ele>
        <time>2025-10-19T12:08:41Z</time>
      </trkpt>
      <trkpt lat="43.21072" lon="5.47173">
        <ele>281.1</ele>
        <time>2025-10-19T12:08:42Z</time>
      </trkpt>
      <trkpt lat="43.21073" lon="5.47172">
        <ele>280.8</ele>
        <time>2025-10-19T12:08:43Z</time>
      </trkpt>
      <trkpt lat="43.21074" lon="5.47172">
        <ele>280.6</ele>
        <time>2025-10-19T12:08:44Z</time>
      </trkpt>
      <trkpt lat="43.21075" lon="5.47171">
        <ele>280.5</ele>
        <time>2025-10-19T12:08:45Z</time>
      </trkpt>
      <trkpt lat="43.21076" lon="5.47171">
        <ele>280.4</ele>
        <time>2025-10-19T12:08:46Z</time>
      </trkpt>
      <trkpt lat="43.21077" lon="5.4717">
        <ele>280.3</ele>
        <time>2025-10-19T12:08:47Z</time>
      </trkpt>
      <trkpt lat="43.21078" lon="5.4717">
        <ele>280.2</ele>
        <time>2025-10-19T12:08:48Z</time>
      </trkpt>
      <trkpt lat="43.21079" lon="5.47169">
        <ele>280.1</ele>
        <time>2025-10-19T12:08:49Z</time>
      </trkpt>
      <trkpt lat="43.2108" lon="5.47168">
        <ele>280</ele>
        <time>2025-10-19T12:08:50Z</time>
      </trkpt>
      <trkpt lat="43.2108" lon="5.47168">
        <ele>279.9</ele>
        <time>2025-10-19T12:08:51Z</time>
      </trkpt>
      <trkpt lat="43.2108" lon="5.47168">
        <ele>279.8</ele>
        <time>2025-10-19T12:08:52Z</time>
      </trkpt>
      <trkpt lat="43.2108" lon="5.47168">
        <ele>279.7</ele>
        <time>2025-10-19T12:08:53Z</time>
      </trkpt>
      <trkpt lat="43.2108" lon="5.47168">
        <ele>279.6</ele>
        <time>2025-10-19T12:08:54Z</time>
      </trkpt>
      <trkpt lat="43.2108" lon="5.47168">
        <ele>279.7</ele>
        <time>2025-10-19T12:08:55Z</time>
      </trkpt>
      <trkpt lat="43.2108" lon="5.47167">
        <ele>279.7</ele>
        <time>2025-10-19T12:08:56Z</time>
      </trkpt>
      <trkpt lat="43.2108" lon="5.47167">
        <ele>279.7</ele>
        <time>2025-10-19T12:08:57Z</time>
      </trkpt>
      <trkpt lat="43.2108" lon="5.47167">
        <ele>279.7</ele>
        <time>2025-10-19T12:08:58Z</time>
      </trkpt>
      <trkpt lat="43.2108" lon="5.47167">
        <ele>279.7</ele>
        <time>2025-10-19T12:08:59Z</time>
      </trkpt>
      <trkpt lat="43.21081" lon="5.47167">
        <ele>279.7</ele>
        <time>2025-10-19T12:09:00Z</time>
      </trkpt>
      <trkpt lat="43.21081" lon="5.47166">
        <ele>279.6</ele>
        <time>2025-10-19T12:09:01Z</time>
      </trkpt>
      <trkpt lat="43.21081" lon="5.47166">
        <ele>279.6</ele>
        <time>2025-10-19T12:09:02Z</time>
      </trkpt>
      <trkpt lat="43.21081" lon="5.47166">
        <ele>279.6</ele>
        <time>2025-10-19T12:09:03Z</time>
      </trkpt>
      <trkpt lat="43.21081" lon="5.47166">
        <ele>279.7</ele>
        <time>2025-10-19T12:09:04Z</time>
      </trkpt>
      <trkpt lat="43.21081" lon="5.47166">
        <ele>279.7</ele>
        <time>2025-10-19T12:09:05Z</time>
      </trkpt>
      <trkpt lat="43.21082" lon="5.47165">
        <ele>279.7</ele>
        <time>2025-10-19T12:09:06Z</time>
      </trkpt>
      <trkpt lat="43.21082" lon="5.47165">
        <ele>279.6</ele>
        <time>2025-10-19T12:09:07Z</time>
      </trkpt>
      <trkpt lat="43.21082" lon="5.47165">
        <ele>279.6</ele>
        <time>2025-10-19T12:09:08Z</time>
      </trkpt>
      <trkpt lat="43.21083" lon="5.47164">
        <ele>279.5</ele>
        <time>2025-10-19T12:09:09Z</time>
      </trkpt>
      <trkpt lat="43.21083" lon="5.47163">
        <ele>279.5</ele>
        <time>2025-10-19T12:09:10Z</time>
      </trkpt>
      <trkpt lat="43.21084" lon="5.47163">
        <ele>279.5</ele>
        <time>2025-10-19T12:09:11Z</time>
      </trkpt>
      <trkpt lat="43.21085" lon="5.47162">
        <ele>279.4</ele>
        <time>2025-10-19T12:09:12Z</time>
      </trkpt>
      <trkpt lat="43.21086" lon="5.47162">
        <ele>279.3</ele>
        <time>2025-10-19T12:09:13Z</time>
      </trkpt>
      <trkpt lat="43.21087" lon="5.47161">
        <ele>279.2</ele>
        <time>2025-10-19T12:09:14Z</time>
      </trkpt>
      <trkpt lat="43.21087" lon="5.47159">
        <ele>279.1</ele>
        <time>2025-10-19T12:09:15Z</time>
      </trkpt>
      <trkpt lat="43.21088" lon="5.47158">
        <ele>279.1</ele>
        <time>2025-10-19T12:09:16Z</time>
      </trkpt>
      <trkpt lat="43.21088" lon="5.47157">
        <ele>279.1</ele>
        <time>2025-10-19T12:09:17Z</time>
      </trkpt>
      <trkpt lat="43.21088" lon="5.47156">
        <ele>279.2</ele>
        <time>2025-10-19T12:09:18Z</time>
      </trkpt>
      <trkpt lat="43.21089" lon="5.47155">
        <ele>279.3</ele>
        <time>2025-10-19T12:09:19Z</time>
      </trkpt>
      <trkpt lat="43.21089" lon="5.47154">
        <ele>279.4</ele>
        <time>2025-10-19T12:09:20Z</time>
      </trkpt>
      <trkpt lat="43.2109" lon="5.47153">
        <ele>279.3</ele>
        <time>2025-10-19T12:09:21Z</time>
      </trkpt>
      <trkpt lat="43.21091" lon="5.47152">
        <ele>279.2</ele>
        <time>2025-10-19T12:09:22Z</time>
      </trkpt>
      <trkpt lat="43.21092" lon="5.47152">
        <ele>279.2</ele>
        <time>2025-10-19T12:09:23Z</time>
      </trkpt>
      <trkpt lat="43.21092" lon="5.47152">
        <ele>279.1</ele>
        <time>2025-10-19T12:09:24Z</time>
      </trkpt>
      <trkpt lat="43.21093" lon="5.47152">
        <ele>279</ele>
        <time>2025-10-19T12:09:25Z</time>
      </trkpt>
      <trkpt lat="43.21094" lon="5.47152">
        <ele>278.9</ele>
        <time>2025-10-19T12:09:26Z</time>
      </trkpt>
      <trkpt lat="43.21094" lon="5.47153">
        <ele>278.8</ele>
        <time>2025-10-19T12:09:27Z</time>
      </trkpt>
      <trkpt lat="43.21095" lon="5.47154">
        <ele>278.7</ele>
        <time>2025-10-19T12:09:28Z</time>
      </trkpt>
      <trkpt lat="43.21096" lon="5.47154">
        <ele>278.7</ele>
        <time>2025-10-19T12:09:29Z</time>
      </trkpt>
      <trkpt lat="43.21097" lon="5.47155">
        <ele>278.8</ele>
        <time>2025-10-19T12:09:30Z</time>
      </trkpt>
      <trkpt lat="43.21097" lon="5.47156">
        <ele>278.7</ele>
        <time>2025-10-19T12:09:31Z</time>
      </trkpt>
      <trkpt lat="43.21097" lon="5.47156">
        <ele>278.6</ele>
        <time>2025-10-19T12:09:32Z</time>
      </trkpt>
      <trkpt lat="43.21097" lon="5.47156">
        <ele>278.6</ele>
        <time>2025-10-19T12:09:33Z</time>
      </trkpt>
      <trkpt lat="43.21097" lon="5.47156">
        <ele>278.5</ele>
        <time>2025-10-19T12:09:34Z</time>
      </trkpt>
      <trkpt lat="43.21097" lon="5.47156">
        <ele>278.4</ele>
        <time>2025-10-19T12:09:35Z</time>
      </trkpt>
      <trkpt lat="43.21097" lon="5.47156">
        <ele>278.3</ele>
        <time>2025-10-19T12:09:36Z</time>
      </trkpt>
      <trkpt lat="43.21097" lon="5.47156">
        <ele>278.3</ele>
        <time>2025-10-19T12:09:37Z</time>
      </trkpt>
      <trkpt lat="43.21097" lon="5.47156">
        <ele>278.3</ele>
        <time>2025-10-19T12:09:38Z</time>
      </trkpt>
      <trkpt lat="43.21097" lon="5.47156">
        <ele>278.4</ele>
        <time>2025-10-19T12:09:39Z</time>
      </trkpt>
      <trkpt lat="43.21098" lon="5.47156">
        <ele>278.4</ele>
        <time>2025-10-19T12:09:40Z</time>
      </trkpt>
      <trkpt lat="43.21098" lon="5.47156">
        <ele>278.3</ele>
        <time>2025-10-19T12:09:41Z</time>
      </trkpt>
      <trkpt lat="43.21099" lon="5.47155">
        <ele>278.3</ele>
        <time>2025-10-19T12:09:42Z</time>
      </trkpt>
      <trkpt lat="43.21099" lon="5.47154">
        <ele>278.3</ele>
        <time>2025-10-19T12:09:43Z</time>
      </trkpt>
      <trkpt lat="43.21099" lon="5.47153">
        <ele>278.3</ele>
        <time>2025-10-19T12:09:44Z</time>
      </trkpt>
      <trkpt lat="43.21099" lon="5.47151">
        <ele>278.4</ele>
        <time>2025-10-19T12:09:45Z</time>
      </trkpt>
      <trkpt lat="43.21099" lon="5.4715">
        <ele>278.2</ele>
        <time>2025-10-19T12:09:46Z</time>
      </trkpt>
      <trkpt lat="43.21099" lon="5.47148">
        <ele>278.1</ele>
        <time>2025-10-19T12:09:47Z</time>
      </trkpt>
      <trkpt lat="43.21099" lon="5.47147">
        <ele>277.9</ele>
        <time>2025-10-19T12:09:48Z</time>
      </trkpt>
      <trkpt lat="43.211" lon="5.47146">
        <ele>277.8</ele>
        <time>2025-10-19T12:09:49Z</time>
      </trkpt>
      <trkpt lat="43.211" lon="5.47146">
        <ele>277.6</ele>
        <time>2025-10-19T12:09:50Z</time>
      </trkpt>
      <trkpt lat="43.21101" lon="5.47145">
        <ele>277.5</ele>
        <time>2025-10-19T12:09:51Z</time>
      </trkpt>
      <trkpt lat="43.21101" lon="5.47144">
        <ele>277.3</ele>
        <time>2025-10-19T12:09:52Z</time>
      </trkpt>
      <trkpt lat="43.21101" lon="5.47144">
        <ele>277.2</ele>
        <time>2025-10-19T12:09:53Z</time>
      </trkpt>
      <trkpt lat="43.21101" lon="5.47144">
        <ele>277.1</ele>
        <time>2025-10-19T12:09:54Z</time>
      </trkpt>
      <trkpt lat="43.21101" lon="5.47144">
        <ele>277</ele>
        <time>2025-10-19T12:09:55Z</time>
      </trkpt>
      <trkpt lat="43.21101" lon="5.47144">
        <ele>276.9</ele>
        <time>2025-10-19T12:09:56Z</time>
      </trkpt>
      <trkpt lat="43.21101" lon="5.47144">
        <ele>276.9</ele>
        <time>2025-10-19T12:09:57Z</time>
      </trkpt>
      <trkpt lat="43.21101" lon="5.47144">
        <ele>276.7</ele>
        <time>2025-10-19T12:09:58Z</time>
      </trkpt>
      <trkpt lat="43.21101" lon="5.47144">
        <ele>276.6</ele>
        <time>2025-10-19T12:09:59Z</time>
      </trkpt>
      <trkpt lat="43.21101" lon="5.47144">
        <ele>276.5</ele>
        <time>2025-10-19T12:10:00Z</time>
      </trkpt>
      <trkpt lat="43.21101" lon="5.47144">
        <ele>276.5</ele>
        <time>2025-10-19T12:10:01Z</time>
      </trkpt>
      <trkpt lat="43.21101" lon="5.47144">
        <ele>276.5</ele>
        <time>2025-10-19T12:10:02Z</time>
      </trkpt>
      <trkpt lat="43.21101" lon="5.47144">
        <ele>276.4</ele>
        <time>2025-10-19T12:10:03Z</time>
      </trkpt>
      <trkpt lat="43.21101" lon="5.47144">
        <ele>276.3</ele>
        <time>2025-10-19T12:10:04Z</time>
      </trkpt>
      <trkpt lat="43.21101" lon="5.47144">
        <ele>276.2</ele>
        <time>2025-10-19T12:10:05Z</time>
      </trkpt>
      <trkpt lat="43.21101" lon="5.47144">
        <ele>276.3</ele>
        <time>2025-10-19T12:10:06Z</time>
      </trkpt>
      <trkpt lat="43.21101" lon="5.47144">
        <ele>276.3</ele>
        <time>2025-10-19T12:10:07Z</time>
      </trkpt>
      <trkpt lat="43.21101" lon="5.47144">
        <ele>276.3</ele>
        <time>2025-10-19T12:10:08Z</time>
      </trkpt>
      <trkpt lat="43.21101" lon="5.47144">
        <ele>276.3</ele>
        <time>2025-10-19T12:10:09Z</time>
      </trkpt>
      <trkpt lat="43.21101" lon="5.47144">
        <ele>276.2</ele>
        <time>2025-10-19T12:10:10Z</time>
      </trkpt>
      <trkpt lat="43.21101" lon="5.47144">
        <ele>276.2</ele>
        <time>2025-10-19T12:10:11Z</time>
      </trkpt>
      <trkpt lat="43.21101" lon="5.47144">
        <ele>276.1</ele>
        <time>2025-10-19T12:10:12Z</time>
      </trkpt>
      <trkpt lat="43.21101" lon="5.47144">
        <ele>276.1</ele>
        <time>2025-10-19T12:10:13Z</time>
      </trkpt>
      <trkpt lat="43.21101" lon="5.47144">
        <ele>276.1</ele>
        <time>2025-10-19T12:10:14Z</time>
      </trkpt>
      <trkpt lat="43.21101" lon="5.47144">
        <ele>276.1</ele>
        <time>2025-10-19T12:10:15Z</time>
      </trkpt>
      <trkpt lat="43.21101" lon="5.47144">
        <ele>276.1</ele>
        <time>2025-10-19T12:10:16Z</time>
      </trkpt>
      <trkpt lat="43.21101" lon="5.47144">
        <ele>276.1</ele>
        <time>2025-10-19T12:10:17Z</time>
      </trkpt>
      <trkpt lat="43.21101" lon="5.47144">
        <ele>276.1</ele>
        <time>2025-10-19T12:10:18Z</time>
      </trkpt>
      <trkpt lat="43.21101" lon="5.47144">
        <ele>276</ele>
        <time>2025-10-19T12:10:19Z</time>
      </trkpt>
      <trkpt lat="43.21101" lon="5.47144">
        <ele>276.1</ele>
        <time>2025-10-19T12:10:20Z</time>
      </trkpt>
      <trkpt lat="43.21101" lon="5.47144">
        <ele>276.1</ele>
        <time>2025-10-19T12:10:21Z</time>
      </trkpt>
      <trkpt lat="43.21101" lon="5.47144">
        <ele>276.1</ele>
        <time>2025-10-19T12:10:22Z</time>
      </trkpt>
      <trkpt lat="43.211" lon="5.47144">
        <ele>276.1</ele>
        <time>2025-10-19T12:10:23Z</time>
      </trkpt>
      <trkpt lat="43.211" lon="5.47144">
        <ele>276.2</ele>
        <time>2025-10-19T12:10:24Z</time>
      </trkpt>
      <trkpt lat="43.211" lon="5.47144">
        <ele>276.2</ele>
        <time>2025-10-19T12:10:25Z</time>
      </trkpt>
      <trkpt lat="43.211" lon="5.47144">
        <ele>276.2</ele>
        <time>2025-10-19T12:10:26Z</time>
      </trkpt>
      <trkpt lat="43.211" lon="5.47144">
        <ele>276.2</ele>
        <time>2025-10-19T12:10:27Z</time>
      </trkpt>
      <trkpt lat="43.211" lon="5.47144">
        <ele>276.2</ele>
        <time>2025-10-19T12:10:28Z</time>
      </trkpt>
      <trkpt lat="43.211" lon="5.47144">
        <ele>276.2</ele>
        <time>2025-10-19T12:10:29Z</time>
      </trkpt>
      <trkpt lat="43.211" lon="5.47144">
        <ele>276.2</ele>
        <time>2025-10-19T12:10:30Z</time>
      </trkpt>
      <trkpt lat="43.211" lon="5.47144">
        <ele>276.1</ele>
        <time>2025-10-19T12:10:31Z</time>
      </trkpt>
      <trkpt lat="43.211" lon="5.47145">
        <ele>276.1</ele>
        <time>2025-10-19T12:10:32Z</time>
      </trkpt>
      <trkpt lat="43.211" lon="5.47145">
        <ele>276.1</ele>
        <time>2025-10-19T12:10:33Z</time>
      </trkpt>
      <trkpt lat="43.211" lon="5.47146">
        <ele>276.2</ele>
        <time>2025-10-19T12:10:34Z</time>
      </trkpt>
      <trkpt lat="43.21099" lon="5.47147">
        <ele>276.4</ele>
        <time>2025-10-19T12:10:35Z</time>
      </trkpt>
      <trkpt lat="43.21099" lon="5.47149">
        <ele>276.6</ele>
        <time>2025-10-19T12:10:36Z</time>
      </trkpt>
      <trkpt lat="43.21099" lon="5.47149">
        <ele>276.7</ele>
        <time>2025-10-19T12:10:37Z</time>
      </trkpt>
      <trkpt lat="43.21099" lon="5.47149">
        <ele>276.8</ele>
        <time>2025-10-19T12:10:38Z</time>
      </trkpt>
      <trkpt lat="43.21099" lon="5.47149">
        <ele>276.9</ele>
        <time>2025-10-19T12:10:39Z</time>
      </trkpt>
      <trkpt lat="43.21099" lon="5.47149">
        <ele>277.1</ele>
        <time>2025-10-19T12:10:40Z</time>
      </trkpt>
      <trkpt lat="43.21099" lon="5.47149">
        <ele>277.2</ele>
        <time>2025-10-19T12:10:41Z</time>
      </trkpt>
      <trkpt lat="43.21099" lon="5.47149">
        <ele>277.2</ele>
        <time>2025-10-19T12:10:42Z</time>
      </trkpt>
      <trkpt lat="43.21099" lon="5.47149">
        <ele>277.3</ele>
        <time>2025-10-19T12:10:43Z</time>
      </trkpt>
      <trkpt lat="43.21099" lon="5.47149">
        <ele>277.3</ele>
        <time>2025-10-19T12:10:44Z</time>
      </trkpt>
      <trkpt lat="43.21099" lon="5.47149">
        <ele>277.3</ele>
        <time>2025-10-19T12:10:45Z</time>
      </trkpt>
      <trkpt lat="43.21099" lon="5.47149">
        <ele>277.2</ele>
        <time>2025-10-19T12:10:46Z</time>
      </trkpt>
      <trkpt lat="43.21099" lon="5.47149">
        <ele>277.2</ele>
        <time>2025-10-19T12:10:47Z</time>
      </trkpt>
      <trkpt lat="43.21099" lon="5.47149">
        <ele>277.2</ele>
        <time>2025-10-19T12:10:48Z</time>
      </trkpt>
      <trkpt lat="43.21099" lon="5.47149">
        <ele>277.3</ele>
        <time>2025-10-19T12:10:49Z</time>
      </trkpt>
      <trkpt lat="43.21099" lon="5.47149">
        <ele>277.3</ele>
        <time>2025-10-19T12:10:50Z</time>
      </trkpt>
      <trkpt lat="43.21099" lon="5.4715">
        <ele>277.4</ele>
        <time>2025-10-19T12:10:51Z</time>
      </trkpt>
      <trkpt lat="43.21099" lon="5.47151">
        <ele>277.4</ele>
        <time>2025-10-19T12:10:52Z</time>
      </trkpt>
      <trkpt lat="43.21099" lon="5.47152">
        <ele>277.5</ele>
        <time>2025-10-19T12:10:53Z</time>
      </trkpt>
      <trkpt lat="43.21099" lon="5.47153">
        <ele>277.5</ele>
        <time>2025-10-19T12:10:54Z</time>
      </trkpt>
      <trkpt lat="43.211" lon="5.47155">
        <ele>277.6</ele>
        <time>2025-10-19T12:10:55Z</time>
      </trkpt>
      <trkpt lat="43.21101" lon="5.47155">
        <ele>277.7</ele>
        <time>2025-10-19T12:10:56Z</time>
      </trkpt>
      <trkpt lat="43.21102" lon="5.47156">
        <ele>277.9</ele>
        <time>2025-10-19T12:10:57Z</time>
      </trkpt>
      <trkpt lat="43.21103" lon="5.47156">
        <ele>278</ele>
        <time>2025-10-19T12:10:58Z</time>
      </trkpt>
      <trkpt lat="43.21104" lon="5.47157">
        <ele>278.1</ele>
        <time>2025-10-19T12:10:59Z</time>
      </trkpt>
      <trkpt lat="43.21104" lon="5.47157">
        <ele>278.2</ele>
        <time>2025-10-19T12:11:00Z</time>
      </trkpt>
      <trkpt lat="43.21105" lon="5.47158">
        <ele>278.3</ele>
        <time>2025-10-19T12:11:01Z</time>
      </trkpt>
      <trkpt lat="43.21105" lon="5.47158">
        <ele>278.5</ele>
        <time>2025-10-19T12:11:02Z</time>
      </trkpt>
      <trkpt lat="43.21106" lon="5.47159">
        <ele>278.6</ele>
        <time>2025-10-19T12:11:03Z</time>
      </trkpt>
      <trkpt lat="43.21107" lon="5.4716">
        <ele>278.7</ele>
        <time>2025-10-19T12:11:04Z</time>
      </trkpt>
      <trkpt lat="43.21107" lon="5.47161">
        <ele>278.7</ele>
        <time>2025-10-19T12:11:05Z</time>
      </trkpt>
      <trkpt lat="43.21108" lon="5.47162">
        <ele>278.9</ele>
        <time>2025-10-19T12:11:06Z</time>
      </trkpt>
      <trkpt lat="43.21109" lon="5.47163">
        <ele>279.1</ele>
        <time>2025-10-19T12:11:07Z</time>
      </trkpt>
      <trkpt lat="43.2111" lon="5.47164">
        <ele>279.2</ele>
        <time>2025-10-19T12:11:08Z</time>
      </trkpt>
      <trkpt lat="43.2111" lon="5.47164">
        <ele>279.3</ele>
        <time>2025-10-19T12:11:09Z</time>
      </trkpt>
      <trkpt lat="43.21111" lon="5.47165">
        <ele>279.4</ele>
        <time>2025-10-19T12:11:10Z</time>
      </trkpt>
      <trkpt lat="43.21112" lon="5.47166">
        <ele>279.6</ele>
        <time>2025-10-19T12:11:11Z</time>
      </trkpt>
      <trkpt lat="43.21113" lon="5.47167">
        <ele>279.7</ele>
        <time>2025-10-19T12:11:12Z</time>
      </trkpt>
      <trkpt lat="43.21113" lon="5.47167">
        <ele>279.8</ele>
        <time>2025-10-19T12:11:13Z</time>
      </trkpt>
      <trkpt lat="43.21114" lon="5.47168">
        <ele>280</ele>
        <time>2025-10-19T12:11:14Z</time>
      </trkpt>
      <trkpt lat="43.21115" lon="5.47169">
        <ele>280.1</ele>
        <time>2025-10-19T12:11:15Z</time>
      </trkpt>
      <trkpt lat="43.21115" lon="5.47169">
        <ele>280.2</ele>
        <time>2025-10-19T12:11:16Z</time>
      </trkpt>
      <trkpt lat="43.21116" lon="5.4717">
        <ele>280.4</ele>
        <time>2025-10-19T12:11:17Z</time>
      </trkpt>
      <trkpt lat="43.21117" lon="5.47171">
        <ele>280.5</ele>
        <time>2025-10-19T12:11:18Z</time>
      </trkpt>
      <trkpt lat="43.21117" lon="5.47173">
        <ele>280.6</ele>
        <time>2025-10-19T12:11:19Z</time>
      </trkpt>
      <trkpt lat="43.21118" lon="5.47174">
        <ele>280.7</ele>
        <time>2025-10-19T12:11:20Z</time>
      </trkpt>
      <trkpt lat="43.21118" lon="5.47175">
        <ele>280.7</ele>
        <time>2025-10-19T12:11:21Z</time>
      </trkpt>
      <trkpt lat="43.21119" lon="5.47176">
        <ele>280.8</ele>
        <time>2025-10-19T12:11:22Z</time>
      </trkpt>
      <trkpt lat="43.2112" lon="5.47177">
        <ele>280.9</ele>
        <time>2025-10-19T12:11:23Z</time>
      </trkpt>
      <trkpt lat="43.2112" lon="5.47177">
        <ele>281</ele>
        <time>2025-10-19T12:11:24Z</time>
      </trkpt>
      <trkpt lat="43.21121" lon="5.47178">
        <ele>281.1</ele>
        <time>2025-10-19T12:11:25Z</time>
      </trkpt>
      <trkpt lat="43.21121" lon="5.47179">
        <ele>281</ele>
        <time>2025-10-19T12:11:26Z</time>
      </trkpt>
      <trkpt lat="43.21122" lon="5.4718">
        <ele>280.9</ele>
        <time>2025-10-19T12:11:27Z</time>
      </trkpt>
      <trkpt lat="43.21123" lon="5.47181">
        <ele>280.9</ele>
        <time>2025-10-19T12:11:28Z</time>
      </trkpt>
      <trkpt lat="43.21123" lon="5.47182">
        <ele>280.8</ele>
        <time>2025-10-19T12:11:29Z</time>
      </trkpt>
      <trkpt lat="43.21124" lon="5.47183">
        <ele>280.7</ele>
        <time>2025-10-19T12:11:30Z</time>
      </trkpt>
      <trkpt lat="43.21125" lon="5.47184">
        <ele>280.6</ele>
        <time>2025-10-19T12:11:31Z</time>
      </trkpt>
      <trkpt lat="43.21125" lon="5.47185">
        <ele>280.5</ele>
        <time>2025-10-19T12:11:32Z</time>
      </trkpt>
      <trkpt lat="43.21126" lon="5.47185">
        <ele>280.4</ele>
        <time>2025-10-19T12:11:33Z</time>
      </trkpt>
      <trkpt lat="43.21126" lon="5.47186">
        <ele>280.4</ele>
        <time>2025-10-19T12:11:34Z</time>
      </trkpt>
      <trkpt lat="43.21127" lon="5.47186">
        <ele>280.3</ele>
        <time>2025-10-19T12:11:35Z</time>
      </trkpt>
      <trkpt lat="43.21127" lon="5.47187">
        <ele>280.4</ele>
        <time>2025-10-19T12:11:36Z</time>
      </trkpt>
      <trkpt lat="43.21128" lon="5.47189">
        <ele>280.6</ele>
        <time>2025-10-19T12:11:37Z</time>
      </trkpt>
      <trkpt lat="43.21129" lon="5.4719">
        <ele>280.7</ele>
        <time>2025-10-19T12:11:38Z</time>
      </trkpt>
      <trkpt lat="43.21129" lon="5.47191">
        <ele>281</ele>
        <time>2025-10-19T12:11:39Z</time>
      </trkpt>
      <trkpt lat="43.2113" lon="5.47192">
        <ele>281.2</ele>
        <time>2025-10-19T12:11:40Z</time>
      </trkpt>
      <trkpt lat="43.21131" lon="5.47192">
        <ele>281.5</ele>
        <time>2025-10-19T12:11:41Z</time>
      </trkpt>
      <trkpt lat="43.21132" lon="5.47192">
        <ele>281.8</ele>
        <time>2025-10-19T12:11:42Z</time>
      </trkpt>
      <trkpt lat="43.21133" lon="5.47192">
        <ele>282</ele>
        <time>2025-10-19T12:11:43Z</time>
      </trkpt>
      <trkpt lat="43.21134" lon="5.47192">
        <ele>282.2</ele>
        <time>2025-10-19T12:11:44Z</time>
      </trkpt>
      <trkpt lat="43.21135" lon="5.47191">
        <ele>282.5</ele>
        <time>2025-10-19T12:11:45Z</time>
      </trkpt>
      <trkpt lat="43.21135" lon="5.4719">
        <ele>282.7</ele>
        <time>2025-10-19T12:11:46Z</time>
      </trkpt>
      <trkpt lat="43.21136" lon="5.4719">
        <ele>283.1</ele>
        <time>2025-10-19T12:11:47Z</time>
      </trkpt>
      <trkpt lat="43.21137" lon="5.47191">
        <ele>283.3</ele>
        <time>2025-10-19T12:11:48Z</time>
      </trkpt>
      <trkpt lat="43.21137" lon="5.47191">
        <ele>283.6</ele>
        <time>2025-10-19T12:11:49Z</time>
      </trkpt>
      <trkpt lat="43.21138" lon="5.47192">
        <ele>283.9</ele>
        <time>2025-10-19T12:11:50Z</time>
      </trkpt>
      <trkpt lat="43.21139" lon="5.47192">
        <ele>284.1</ele>
        <time>2025-10-19T12:11:51Z</time>
      </trkpt>
      <trkpt lat="43.2114" lon="5.47192">
        <ele>284.2</ele>
        <time>2025-10-19T12:11:52Z</time>
      </trkpt>
      <trkpt lat="43.2114" lon="5.47193">
        <ele>284.5</ele>
        <time>2025-10-19T12:11:53Z</time>
      </trkpt>
      <trkpt lat="43.21141" lon="5.47193">
        <ele>284.7</ele>
        <time>2025-10-19T12:11:54Z</time>
      </trkpt>
      <trkpt lat="43.21142" lon="5.47193">
        <ele>284.9</ele>
        <time>2025-10-19T12:11:55Z</time>
      </trkpt>
      <trkpt lat="43.21143" lon="5.47194">
        <ele>285.1</ele>
        <time>2025-10-19T12:11:56Z</time>
      </trkpt>
      <trkpt lat="43.21143" lon="5.47195">
        <ele>285.2</ele>
        <time>2025-10-19T12:11:57Z</time>
      </trkpt>
      <trkpt lat="43.21144" lon="5.47196">
        <ele>285.3</ele>
        <time>2025-10-19T12:11:58Z</time>
      </trkpt>
      <trkpt lat="43.21144" lon="5.47197">
        <ele>285.5</ele>
        <time>2025-10-19T12:11:59Z</time>
      </trkpt>
      <trkpt lat="43.21145" lon="5.47198">
        <ele>285.7</ele>
        <time>2025-10-19T12:12:00Z</time>
      </trkpt>
      <trkpt lat="43.21145" lon="5.47199">
        <ele>285.8</ele>
        <time>2025-10-19T12:12:01Z</time>
      </trkpt>
      <trkpt lat="43.21145" lon="5.472">
        <ele>286.1</ele>
        <time>2025-10-19T12:12:02Z</time>
      </trkpt>
      <trkpt lat="43.21145" lon="5.47201">
        <ele>286.5</ele>
        <time>2025-10-19T12:12:03Z</time>
      </trkpt>
      <trkpt lat="43.21145" lon="5.47202">
        <ele>286.8</ele>
        <time>2025-10-19T12:12:04Z</time>
      </trkpt>
      <trkpt lat="43.21145" lon="5.47202">
        <ele>287.1</ele>
        <time>2025-10-19T12:12:05Z</time>
      </trkpt>
      <trkpt lat="43.21144" lon="5.47203">
        <ele>287.4</ele>
        <time>2025-10-19T12:12:06Z</time>
      </trkpt>
      <trkpt lat="43.21144" lon="5.47203">
        <ele>287.6</ele>
        <time>2025-10-19T12:12:07Z</time>
      </trkpt>
      <trkpt lat="43.21144" lon="5.47204">
        <ele>287.9</ele>
        <time>2025-10-19T12:12:08Z</time>
      </trkpt>
      <trkpt lat="43.21143" lon="5.47205">
        <ele>288.1</ele>
        <time>2025-10-19T12:12:09Z</time>
      </trkpt>
      <trkpt lat="43.21142" lon="5.47205">
        <ele>288.2</ele>
        <time>2025-10-19T12:12:10Z</time>
      </trkpt>
      <trkpt lat="43.21142" lon="5.47205">
        <ele>288.5</ele>
        <time>2025-10-19T12:12:11Z</time>
      </trkpt>
      <trkpt lat="43.21141" lon="5.47205">
        <ele>288.7</ele>
        <time>2025-10-19T12:12:12Z</time>
      </trkpt>
      <trkpt lat="43.21141" lon="5.47207">
        <ele>288.9</ele>
        <time>2025-10-19T12:12:13Z</time>
      </trkpt>
      <trkpt lat="43.21141" lon="5.47208">
        <ele>289</ele>
        <time>2025-10-19T12:12:14Z</time>
      </trkpt>
      <trkpt lat="43.21142" lon="5.47209">
        <ele>289.2</ele>
        <time>2025-10-19T12:12:15Z</time>
      </trkpt>
      <trkpt lat="43.21142" lon="5.47209">
        <ele>289.4</ele>
        <time>2025-10-19T12:12:16Z</time>
      </trkpt>
      <trkpt lat="43.21143" lon="5.4721">
        <ele>289.6</ele>
        <time>2025-10-19T12:12:17Z</time>
      </trkpt>
      <trkpt lat="43.21144" lon="5.47211">
        <ele>289.7</ele>
        <time>2025-10-19T12:12:18Z</time>
      </trkpt>
      <trkpt lat="43.21144" lon="5.47212">
        <ele>289.9</ele>
        <time>2025-10-19T12:12:19Z</time>
      </trkpt>
      <trkpt lat="43.21145" lon="5.47212">
        <ele>290</ele>
        <time>2025-10-19T12:12:20Z</time>
      </trkpt>
      <trkpt lat="43.21145" lon="5.47212">
        <ele>290.2</ele>
        <time>2025-10-19T12:12:21Z</time>
      </trkpt>
      <trkpt lat="43.21145" lon="5.47213">
        <ele>290.6</ele>
        <time>2025-10-19T12:12:22Z</time>
      </trkpt>
      <trkpt lat="43.21145" lon="5.47214">
        <ele>290.8</ele>
        <time>2025-10-19T12:12:23Z</time>
      </trkpt>
      <trkpt lat="43.21146" lon="5.47214">
        <ele>291.1</ele>
        <time>2025-10-19T12:12:24Z</time>
      </trkpt>
      <trkpt lat="43.21146" lon="5.47214">
        <ele>291.5</ele>
        <time>2025-10-19T12:12:25Z</time>
      </trkpt>
      <trkpt lat="43.21146" lon="5.47214">
        <ele>291.7</ele>
        <time>2025-10-19T12:12:26Z</time>
      </trkpt>
      <trkpt lat="43.21146" lon="5.47215">
        <ele>291.9</ele>
        <time>2025-10-19T12:12:27Z</time>
      </trkpt>
      <trkpt lat="43.21145" lon="5.47215">
        <ele>292</ele>
        <time>2025-10-19T12:12:28Z</time>
      </trkpt>
      <trkpt lat="43.21145" lon="5.47215">
        <ele>292.3</ele>
        <time>2025-10-19T12:12:29Z</time>
      </trkpt>
      <trkpt lat="43.21145" lon="5.47215">
        <ele>292.4</ele>
        <time>2025-10-19T12:12:30Z</time>
      </trkpt>
      <trkpt lat="43.21145" lon="5.47215">
        <ele>292.5</ele>
        <time>2025-10-19T12:12:31Z</time>
      </trkpt>
      <trkpt lat="43.21145" lon="5.47216">
        <ele>292.6</ele>
        <time>2025-10-19T12:12:32Z</time>
      </trkpt>
      <trkpt lat="43.21145" lon="5.47216">
        <ele>292.7</ele>
        <time>2025-10-19T12:12:33Z</time>
      </trkpt>
      <trkpt lat="43.21145" lon="5.47216">
        <ele>292.7</ele>
        <time>2025-10-19T12:12:34Z</time>
      </trkpt>
      <trkpt lat="43.21145" lon="5.47216">
        <ele>292.8</ele>
        <time>2025-10-19T12:12:35Z</time>
      </trkpt>
      <trkpt lat="43.21145" lon="5.47216">
        <ele>292.8</ele>
        <time>2025-10-19T12:12:36Z</time>
      </trkpt>
      <trkpt lat="43.21145" lon="5.47216">
        <ele>292.9</ele>
        <time>2025-10-19T12:12:37Z</time>
      </trkpt>
      <trkpt lat="43.21145" lon="5.47217">
        <ele>293</ele>
        <time>2025-10-19T12:12:38Z</time>
      </trkpt>
      <trkpt lat="43.21145" lon="5.47217">
        <ele>293.1</ele>
        <time>2025-10-19T12:12:39Z</time>
      </trkpt>
      <trkpt lat="43.21145" lon="5.47217">
        <ele>293.2</ele>
        <time>2025-10-19T12:12:40Z</time>
      </trkpt>
      <trkpt lat="43.21145" lon="5.47217">
        <ele>293.3</ele>
        <time>2025-10-19T12:12:41Z</time>
      </trkpt>
      <trkpt lat="43.21145" lon="5.47217">
        <ele>293.5</ele>
        <time>2025-10-19T12:12:42Z</time>
      </trkpt>
      <trkpt lat="43.21145" lon="5.47218">
        <ele>293.6</ele>
        <time>2025-10-19T12:12:43Z</time>
      </trkpt>
      <trkpt lat="43.21145" lon="5.47218">
        <ele>293.9</ele>
        <time>2025-10-19T12:12:44Z</time>
      </trkpt>
      <trkpt lat="43.21145" lon="5.47218">
        <ele>294.1</ele>
        <time>2025-10-19T12:12:45Z</time>
      </trkpt>
      <trkpt lat="43.21145" lon="5.47218">
        <ele>294.5</ele>
        <time>2025-10-19T12:12:46Z</time>
      </trkpt>
      <trkpt lat="43.21145" lon="5.47218">
        <ele>294.7</ele>
        <time>2025-10-19T12:12:47Z</time>
      </trkpt>
      <trkpt lat="43.21145" lon="5.4722">
        <ele>294.9</ele>
        <time>2025-10-19T12:12:48Z</time>
      </trkpt>
      <trkpt lat="43.21145" lon="5.47221">
        <ele>295.2</ele>
        <time>2025-10-19T12:12:49Z</time>
      </trkpt>
      <trkpt lat="43.21145" lon="5.47221">
        <ele>295.4</ele>
        <time>2025-10-19T12:12:50Z</time>
      </trkpt>
      <trkpt lat="43.21146" lon="5.47222">
        <ele>295.6</ele>
        <time>2025-10-19T12:12:51Z</time>
      </trkpt>
      <trkpt lat="43.21146" lon="5.47222">
        <ele>295.8</ele>
        <time>2025-10-19T12:12:52Z</time>
      </trkpt>
      <trkpt lat="43.21147" lon="5.47221">
        <ele>296</ele>
        <time>2025-10-19T12:12:53Z</time>
      </trkpt>
      <trkpt lat="43.21147" lon="5.47221">
        <ele>296.2</ele>
        <time>2025-10-19T12:12:54Z</time>
      </trkpt>
      <trkpt lat="43.21148" lon="5.47221">
        <ele>296.3</ele>
        <time>2025-10-19T12:12:55Z</time>
      </trkpt>
      <trkpt lat="43.21148" lon="5.4722">
        <ele>296.5</ele>
        <time>2025-10-19T12:12:56Z</time>
      </trkpt>
      <trkpt lat="43.21149" lon="5.47221">
        <ele>296.5</ele>
        <time>2025-10-19T12:12:57Z</time>
      </trkpt>
      <trkpt lat="43.21149" lon="5.47221">
        <ele>296.6</ele>
        <time>2025-10-19T12:12:58Z</time>
      </trkpt>
      <trkpt lat="43.21149" lon="5.47221">
        <ele>296.7</ele>
        <time>2025-10-19T12:12:59Z</time>
      </trkpt>
      <trkpt lat="43.2115" lon="5.47221">
        <ele>296.8</ele>
        <time>2025-10-19T12:13:00Z</time>
      </trkpt>
      <trkpt lat="43.2115" lon="5.4722">
        <ele>296.9</ele>
        <time>2025-10-19T12:13:01Z</time>
      </trkpt>
      <trkpt lat="43.21151" lon="5.4722">
        <ele>297</ele>
        <time>2025-10-19T12:13:02Z</time>
      </trkpt>
      <trkpt lat="43.21152" lon="5.47219">
        <ele>296.9</ele>
        <time>2025-10-19T12:13:03Z</time>
      </trkpt>
      <trkpt lat="43.21153" lon="5.47219">
        <ele>296.9</ele>
        <time>2025-10-19T12:13:04Z</time>
      </trkpt>
      <trkpt lat="43.21153" lon="5.47218">
        <ele>296.9</ele>
        <time>2025-10-19T12:13:05Z</time>
      </trkpt>
      <trkpt lat="43.21154" lon="5.47218">
        <ele>297</ele>
        <time>2025-10-19T12:13:06Z</time>
      </trkpt>
      <trkpt lat="43.21155" lon="5.47217">
        <ele>297.2</ele>
        <time>2025-10-19T12:13:07Z</time>
      </trkpt>
      <trkpt lat="43.21156" lon="5.47217">
        <ele>297.3</ele>
        <time>2025-10-19T12:13:08Z</time>
      </trkpt>
      <trkpt lat="43.21156" lon="5.47217">
        <ele>297.5</ele>
        <time>2025-10-19T12:13:09Z</time>
      </trkpt>
      <trkpt lat="43.21156" lon="5.47217">
        <ele>297.5</ele>
        <time>2025-10-19T12:13:10Z</time>
      </trkpt>
      <trkpt lat="43.21157" lon="5.47217">
        <ele>297.6</ele>
        <time>2025-10-19T12:13:11Z</time>
      </trkpt>
      <trkpt lat="43.21157" lon="5.47218">
        <ele>297.6</ele>
        <time>2025-10-19T12:13:12Z</time>
      </trkpt>
      <trkpt lat="43.21157" lon="5.47217">
        <ele>297.7</ele>
        <time>2025-10-19T12:13:13Z</time>
      </trkpt>
      <trkpt lat="43.21157" lon="5.47218">
        <ele>297.8</ele>
        <time>2025-10-19T12:13:14Z</time>
      </trkpt>
      <trkpt lat="43.21158" lon="5.47217">
        <ele>297.9</ele>
        <time>2025-10-19T12:13:15Z</time>
      </trkpt>
      <trkpt lat="43.21159" lon="5.47217">
        <ele>298.1</ele>
        <time>2025-10-19T12:13:16Z</time>
      </trkpt>
      <trkpt lat="43.21159" lon="5.47217">
        <ele>298.1</ele>
        <time>2025-10-19T12:13:17Z</time>
      </trkpt>
      <trkpt lat="43.2116" lon="5.47217">
        <ele>298.2</ele>
        <time>2025-10-19T12:13:18Z</time>
      </trkpt>
      <trkpt lat="43.21161" lon="5.47216">
        <ele>298.3</ele>
        <time>2025-10-19T12:13:19Z</time>
      </trkpt>
      <trkpt lat="43.21162" lon="5.47215">
        <ele>298.2</ele>
        <time>2025-10-19T12:13:20Z</time>
      </trkpt>
      <trkpt lat="43.21162" lon="5.47214">
        <ele>298.3</ele>
        <time>2025-10-19T12:13:21Z</time>
      </trkpt>
      <trkpt lat="43.21162" lon="5.47213">
        <ele>298.3</ele>
        <time>2025-10-19T12:13:22Z</time>
      </trkpt>
      <trkpt lat="43.21162" lon="5.47212">
        <ele>298.5</ele>
        <time>2025-10-19T12:13:23Z</time>
      </trkpt>
      <trkpt lat="43.21163" lon="5.47211">
        <ele>298.6</ele>
        <time>2025-10-19T12:13:24Z</time>
      </trkpt>
      <trkpt lat="43.21163" lon="5.4721">
        <ele>298.7</ele>
        <time>2025-10-19T12:13:25Z</time>
      </trkpt>
      <trkpt lat="43.21163" lon="5.47209">
        <ele>298.7</ele>
        <time>2025-10-19T12:13:26Z</time>
      </trkpt>
      <trkpt lat="43.21164" lon="5.47207">
        <ele>298.7</ele>
        <time>2025-10-19T12:13:27Z</time>
      </trkpt>
      <trkpt lat="43.21165" lon="5.47206">
        <ele>298.8</ele>
        <time>2025-10-19T12:13:28Z</time>
      </trkpt>
      <trkpt lat="43.21165" lon="5.47205">
        <ele>298.9</ele>
        <time>2025-10-19T12:13:29Z</time>
      </trkpt>
      <trkpt lat="43.21166" lon="5.47203">
        <ele>299</ele>
        <time>2025-10-19T12:13:30Z</time>
      </trkpt>
      <trkpt lat="43.21166" lon="5.47202">
        <ele>299.2</ele>
        <time>2025-10-19T12:13:31Z</time>
      </trkpt>
      <trkpt lat="43.21165" lon="5.47201">
        <ele>299.4</ele>
        <time>2025-10-19T12:13:32Z</time>
      </trkpt>
      <trkpt lat="43.21165" lon="5.472">
        <ele>299.6</ele>
        <time>2025-10-19T12:13:33Z</time>
      </trkpt>
      <trkpt lat="43.21165" lon="5.47199">
        <ele>299.8</ele>
        <time>2025-10-19T12:13:34Z</time>
      </trkpt>
      <trkpt lat="43.21165" lon="5.47198">
        <ele>299.9</ele>
        <time>2025-10-19T12:13:35Z</time>
      </trkpt>
      <trkpt lat="43.21165" lon="5.47197">
        <ele>300</ele>
        <time>2025-10-19T12:13:36Z</time>
      </trkpt>
      <trkpt lat="43.21165" lon="5.47196">
        <ele>300.1</ele>
        <time>2025-10-19T12:13:37Z</time>
      </trkpt>
      <trkpt lat="43.21166" lon="5.47195">
        <ele>300.3</ele>
        <time>2025-10-19T12:13:38Z</time>
      </trkpt>
      <trkpt lat="43.21166" lon="5.47194">
        <ele>300.4</ele>
        <time>2025-10-19T12:13:39Z</time>
      </trkpt>
      <trkpt lat="43.21166" lon="5.47193">
        <ele>300.5</ele>
        <time>2025-10-19T12:13:40Z</time>
      </trkpt>
      <trkpt lat="43.21167" lon="5.47193">
        <ele>300.6</ele>
        <time>2025-10-19T12:13:41Z</time>
      </trkpt>
      <trkpt lat="43.21167" lon="5.47192">
        <ele>300.8</ele>
        <time>2025-10-19T12:13:42Z</time>
      </trkpt>
      <trkpt lat="43.21167" lon="5.47191">
        <ele>300.9</ele>
        <time>2025-10-19T12:13:43Z</time>
      </trkpt>
      <trkpt lat="43.21167" lon="5.4719">
        <ele>301.1</ele>
        <time>2025-10-19T12:13:44Z</time>
      </trkpt>
      <trkpt lat="43.21167" lon="5.47189">
        <ele>301.3</ele>
        <time>2025-10-19T12:13:45Z</time>
      </trkpt>
      <trkpt lat="43.21166" lon="5.47188">
        <ele>301.5</ele>
        <time>2025-10-19T12:13:46Z</time>
      </trkpt>
      <trkpt lat="43.21167" lon="5.47187">
        <ele>301.7</ele>
        <time>2025-10-19T12:13:47Z</time>
      </trkpt>
      <trkpt lat="43.21167" lon="5.47186">
        <ele>301.8</ele>
        <time>2025-10-19T12:13:48Z</time>
      </trkpt>
      <trkpt lat="43.21167" lon="5.47185">
        <ele>302.1</ele>
        <time>2025-10-19T12:13:49Z</time>
      </trkpt>
      <trkpt lat="43.21167" lon="5.47184">
        <ele>302.3</ele>
        <time>2025-10-19T12:13:50Z</time>
      </trkpt>
      <trkpt lat="43.21167" lon="5.47183">
        <ele>302.5</ele>
        <time>2025-10-19T12:13:51Z</time>
      </trkpt>
      <trkpt lat="43.21167" lon="5.47182">
        <ele>302.8</ele>
        <time>2025-10-19T12:13:52Z</time>
      </trkpt>
      <trkpt lat="43.21167" lon="5.47182">
        <ele>303</ele>
        <time>2025-10-19T12:13:53Z</time>
      </trkpt>
      <trkpt lat="43.21167" lon="5.47181">
        <ele>303.2</ele>
        <time>2025-10-19T12:13:54Z</time>
      </trkpt>
      <trkpt lat="43.21167" lon="5.4718">
        <ele>303.3</ele>
        <time>2025-10-19T12:13:55Z</time>
      </trkpt>
      <trkpt lat="43.21167" lon="5.47179">
        <ele>303.5</ele>
        <time>2025-10-19T12:13:56Z</time>
      </trkpt>
      <trkpt lat="43.21167" lon="5.47179">
        <ele>303.7</ele>
        <time>2025-10-19T12:13:57Z</time>
      </trkpt>
      <trkpt lat="43.21167" lon="5.47178">
        <ele>303.8</ele>
        <time>2025-10-19T12:13:58Z</time>
      </trkpt>
      <trkpt lat="43.21167" lon="5.47178">
        <ele>304.1</ele>
        <time>2025-10-19T12:13:59Z</time>
      </trkpt>
      <trkpt lat="43.21167" lon="5.47178">
        <ele>304.3</ele>
        <time>2025-10-19T12:14:00Z</time>
      </trkpt>
      <trkpt lat="43.21167" lon="5.47178">
        <ele>304.4</ele>
        <time>2025-10-19T12:14:01Z</time>
      </trkpt>
      <trkpt lat="43.21167" lon="5.47178">
        <ele>304.5</ele>
        <time>2025-10-19T12:14:02Z</time>
      </trkpt>
      <trkpt lat="43.21168" lon="5.47178">
        <ele>304.8</ele>
        <time>2025-10-19T12:14:03Z</time>
      </trkpt>
      <trkpt lat="43.21168" lon="5.47178">
        <ele>305</ele>
        <time>2025-10-19T12:14:04Z</time>
      </trkpt>
      <trkpt lat="43.21168" lon="5.47177">
        <ele>305.3</ele>
        <time>2025-10-19T12:14:05Z</time>
      </trkpt>
      <trkpt lat="43.21168" lon="5.47176">
        <ele>305.6</ele>
        <time>2025-10-19T12:14:06Z</time>
      </trkpt>
      <trkpt lat="43.21168" lon="5.47175">
        <ele>305.8</ele>
        <time>2025-10-19T12:14:07Z</time>
      </trkpt>
      <trkpt lat="43.21168" lon="5.47174">
        <ele>306</ele>
        <time>2025-10-19T12:14:08Z</time>
      </trkpt>
      <trkpt lat="43.21167" lon="5.47173">
        <ele>306.1</ele>
        <time>2025-10-19T12:14:09Z</time>
      </trkpt>
      <trkpt lat="43.21168" lon="5.47173">
        <ele>306.2</ele>
        <time>2025-10-19T12:14:10Z</time>
      </trkpt>
      <trkpt lat="43.21168" lon="5.47172">
        <ele>306.4</ele>
        <time>2025-10-19T12:14:11Z</time>
      </trkpt>
      <trkpt lat="43.21168" lon="5.47171">
        <ele>306.6</ele>
        <time>2025-10-19T12:14:12Z</time>
      </trkpt>
      <trkpt lat="43.21169" lon="5.47171">
        <ele>306.8</ele>
        <time>2025-10-19T12:14:13Z</time>
      </trkpt>
      <trkpt lat="43.21169" lon="5.4717">
        <ele>307</ele>
        <time>2025-10-19T12:14:14Z</time>
      </trkpt>
      <trkpt lat="43.21169" lon="5.4717">
        <ele>307.3</ele>
        <time>2025-10-19T12:14:15Z</time>
      </trkpt>
      <trkpt lat="43.21169" lon="5.47169">
        <ele>307.5</ele>
        <time>2025-10-19T12:14:16Z</time>
      </trkpt>
      <trkpt lat="43.21169" lon="5.47168">
        <ele>307.6</ele>
        <time>2025-10-19T12:14:17Z</time>
      </trkpt>
      <trkpt lat="43.21169" lon="5.47168">
        <ele>307.8</ele>
        <time>2025-10-19T12:14:18Z</time>
      </trkpt>
      <trkpt lat="43.2117" lon="5.47167">
        <ele>307.9</ele>
        <time>2025-10-19T12:14:19Z</time>
      </trkpt>
      <trkpt lat="43.2117" lon="5.47167">
        <ele>308.2</ele>
        <time>2025-10-19T12:14:20Z</time>
      </trkpt>
      <trkpt lat="43.2117" lon="5.47166">
        <ele>308.3</ele>
        <time>2025-10-19T12:14:21Z</time>
      </trkpt>
      <trkpt lat="43.2117" lon="5.47165">
        <ele>308.5</ele>
        <time>2025-10-19T12:14:22Z</time>
      </trkpt>
      <trkpt lat="43.2117" lon="5.47164">
        <ele>308.7</ele>
        <time>2025-10-19T12:14:23Z</time>
      </trkpt>
      <trkpt lat="43.2117" lon="5.47163">
        <ele>308.9</ele>
        <time>2025-10-19T12:14:24Z</time>
      </trkpt>
      <trkpt lat="43.2117" lon="5.47163">
        <ele>309</ele>
        <time>2025-10-19T12:14:25Z</time>
      </trkpt>
      <trkpt lat="43.2117" lon="5.47163">
        <ele>309.1</ele>
        <time>2025-10-19T12:14:26Z</time>
      </trkpt>
      <trkpt lat="43.21171" lon="5.47163">
        <ele>309.2</ele>
        <time>2025-10-19T12:14:27Z</time>
      </trkpt>
      <trkpt lat="43.21171" lon="5.47163">
        <ele>309.4</ele>
        <time>2025-10-19T12:14:28Z</time>
      </trkpt>
      <trkpt lat="43.21171" lon="5.47163">
        <ele>309.5</ele>
        <time>2025-10-19T12:14:29Z</time>
      </trkpt>
      <trkpt lat="43.21171" lon="5.47163">
        <ele>309.6</ele>
        <time>2025-10-19T12:14:30Z</time>
      </trkpt>
      <trkpt lat="43.21171" lon="5.47162">
        <ele>309.7</ele>
        <time>2025-10-19T12:14:31Z</time>
      </trkpt>
      <trkpt lat="43.21171" lon="5.47162">
        <ele>309.7</ele>
        <time>2025-10-19T12:14:32Z</time>
      </trkpt>
      <trkpt lat="43.21171" lon="5.47163">
        <ele>309.9</ele>
        <time>2025-10-19T12:14:33Z</time>
      </trkpt>
      <trkpt lat="43.21171" lon="5.47163">
        <ele>310.1</ele>
        <time>2025-10-19T12:14:34Z</time>
      </trkpt>
      <trkpt lat="43.21171" lon="5.47163">
        <ele>310.2</ele>
        <time>2025-10-19T12:14:35Z</time>
      </trkpt>
      <trkpt lat="43.21172" lon="5.47163">
        <ele>310.3</ele>
        <time>2025-10-19T12:14:36Z</time>
      </trkpt>
      <trkpt lat="43.21172" lon="5.47163">
        <ele>310.4</ele>
        <time>2025-10-19T12:14:37Z</time>
      </trkpt>
      <trkpt lat="43.21173" lon="5.47163">
        <ele>310.5</ele>
        <time>2025-10-19T12:14:38Z</time>
      </trkpt>
      <trkpt lat="43.21173" lon="5.47162">
        <ele>310.6</ele>
        <time>2025-10-19T12:14:39Z</time>
      </trkpt>
      <trkpt lat="43.21174" lon="5.47162">
        <ele>310.6</ele>
        <time>2025-10-19T12:14:40Z</time>
      </trkpt>
      <trkpt lat="43.21174" lon="5.47162">
        <ele>310.8</ele>
        <time>2025-10-19T12:14:41Z</time>
      </trkpt>
      <trkpt lat="43.21175" lon="5.47162">
        <ele>310.9</ele>
        <time>2025-10-19T12:14:42Z</time>
      </trkpt>
      <trkpt lat="43.21175" lon="5.47162">
        <ele>311</ele>
        <time>2025-10-19T12:14:43Z</time>
      </trkpt>
      <trkpt lat="43.21176" lon="5.47162">
        <ele>311.3</ele>
        <time>2025-10-19T12:14:44Z</time>
      </trkpt>
      <trkpt lat="43.21176" lon="5.47162">
        <ele>311.4</ele>
        <time>2025-10-19T12:14:45Z</time>
      </trkpt>
      <trkpt lat="43.21176" lon="5.47161">
        <ele>311.4</ele>
        <time>2025-10-19T12:14:46Z</time>
      </trkpt>
      <trkpt lat="43.21177" lon="5.47161">
        <ele>311.5</ele>
        <time>2025-10-19T12:14:47Z</time>
      </trkpt>
      <trkpt lat="43.21177" lon="5.47161">
        <ele>311.6</ele>
        <time>2025-10-19T12:14:48Z</time>
      </trkpt>
      <trkpt lat="43.21177" lon="5.47161">
        <ele>311.7</ele>
        <time>2025-10-19T12:14:49Z</time>
      </trkpt>
      <trkpt lat="43.21177" lon="5.47161">
        <ele>311.8</ele>
        <time>2025-10-19T12:14:50Z</time>
      </trkpt>
      <trkpt lat="43.21177" lon="5.47161">
        <ele>311.9</ele>
        <time>2025-10-19T12:14:51Z</time>
      </trkpt>
      <trkpt lat="43.21177" lon="5.47161">
        <ele>312</ele>
        <time>2025-10-19T12:14:52Z</time>
      </trkpt>
      <trkpt lat="43.21177" lon="5.47161">
        <ele>312.1</ele>
        <time>2025-10-19T12:14:53Z</time>
      </trkpt>
      <trkpt lat="43.21177" lon="5.47161">
        <ele>312.1</ele>
        <time>2025-10-19T12:14:54Z</time>
      </trkpt>
      <trkpt lat="43.21177" lon="5.47161">
        <ele>312.2</ele>
        <time>2025-10-19T12:14:55Z</time>
      </trkpt>
      <trkpt lat="43.21177" lon="5.47161">
        <ele>312.2</ele>
        <time>2025-10-19T12:14:56Z</time>
      </trkpt>
      <trkpt lat="43.21176" lon="5.47161">
        <ele>312.3</ele>
        <time>2025-10-19T12:14:57Z</time>
      </trkpt>
      <trkpt lat="43.21176" lon="5.47161">
        <ele>312.3</ele>
        <time>2025-10-19T12:14:58Z</time>
      </trkpt>
      <trkpt lat="43.21176" lon="5.47161">
        <ele>312.3</ele>
        <time>2025-10-19T12:14:59Z</time>
      </trkpt>
      <trkpt lat="43.21176" lon="5.47161">
        <ele>312.3</ele>
        <time>2025-10-19T12:15:00Z</time>
      </trkpt>
      <trkpt lat="43.21176" lon="5.47161">
        <ele>312.4</ele>
        <time>2025-10-19T12:15:01Z</time>
      </trkpt>
      <trkpt lat="43.21176" lon="5.47161">
        <ele>312.4</ele>
        <time>2025-10-19T12:15:02Z</time>
      </trkpt>
      <trkpt lat="43.21176" lon="5.47161">
        <ele>312.4</ele>
        <time>2025-10-19T12:15:03Z</time>
      </trkpt>
      <trkpt lat="43.21176" lon="5.47161">
        <ele>312.4</ele>
        <time>2025-10-19T12:15:04Z</time>
      </trkpt>
      <trkpt lat="43.21176" lon="5.47161">
        <ele>312.5</ele>
        <time>2025-10-19T12:15:05Z</time>
      </trkpt>
      <trkpt lat="43.21177" lon="5.47161">
        <ele>312.5</ele>
        <time>2025-10-19T12:15:06Z</time>
      </trkpt>
      <trkpt lat="43.21177" lon="5.47161">
        <ele>312.6</ele>
        <time>2025-10-19T12:15:07Z</time>
      </trkpt>
      <trkpt lat="43.21177" lon="5.4716">
        <ele>312.7</ele>
        <time>2025-10-19T12:15:08Z</time>
      </trkpt>
      <trkpt lat="43.21177" lon="5.4716">
        <ele>312.9</ele>
        <time>2025-10-19T12:15:09Z</time>
      </trkpt>
      <trkpt lat="43.21177" lon="5.4716">
        <ele>313</ele>
        <time>2025-10-19T12:15:10Z</time>
      </trkpt>
      <trkpt lat="43.21177" lon="5.4716">
        <ele>313.1</ele>
        <time>2025-10-19T12:15:11Z</time>
      </trkpt>
      <trkpt lat="43.21177" lon="5.47159">
        <ele>313.1</ele>
        <time>2025-10-19T12:15:12Z</time>
      </trkpt>
      <trkpt lat="43.21177" lon="5.47159">
        <ele>313.1</ele>
        <time>2025-10-19T12:15:13Z</time>
      </trkpt>
      <trkpt lat="43.21177" lon="5.47159">
        <ele>313.1</ele>
        <time>2025-10-19T12:15:14Z</time>
      </trkpt>
      <trkpt lat="43.21177" lon="5.47159">
        <ele>313.2</ele>
        <time>2025-10-19T12:15:15Z</time>
      </trkpt>
      <trkpt lat="43.21177" lon="5.47159">
        <ele>313.2</ele>
        <time>2025-10-19T12:15:16Z</time>
      </trkpt>
      <trkpt lat="43.21177" lon="5.47159">
        <ele>313.2</ele>
        <time>2025-10-19T12:15:17Z</time>
      </trkpt>
      <trkpt lat="43.21177" lon="5.47159">
        <ele>313.2</ele>
        <time>2025-10-19T12:15:18Z</time>
      </trkpt>
      <trkpt lat="43.21177" lon="5.47159">
        <ele>313.1</ele>
        <time>2025-10-19T12:15:19Z</time>
      </trkpt>
      <trkpt lat="43.21177" lon="5.47159">
        <ele>313.2</ele>
        <time>2025-10-19T12:15:20Z</time>
      </trkpt>
      <trkpt lat="43.21177" lon="5.47159">
        <ele>313.1</ele>
        <time>2025-10-19T12:15:21Z</time>
      </trkpt>
      <trkpt lat="43.21177" lon="5.47158">
        <ele>313</ele>
        <time>2025-10-19T12:15:22Z</time>
      </trkpt>
      <trkpt lat="43.21178" lon="5.47158">
        <ele>313.1</ele>
        <time>2025-10-19T12:15:23Z</time>
      </trkpt>
      <trkpt lat="43.21178" lon="5.47158">
        <ele>313.2</ele>
        <time>2025-10-19T12:15:24Z</time>
      </trkpt>
      <trkpt lat="43.21178" lon="5.47158">
        <ele>313.2</ele>
        <time>2025-10-19T12:15:25Z</time>
      </trkpt>
      <trkpt lat="43.21178" lon="5.47158">
        <ele>313.3</ele>
        <time>2025-10-19T12:15:26Z</time>
      </trkpt>
      <trkpt lat="43.21178" lon="5.47158">
        <ele>313.3</ele>
        <time>2025-10-19T12:15:27Z</time>
      </trkpt>
      <trkpt lat="43.21178" lon="5.47158">
        <ele>313.3</ele>
        <time>2025-10-19T12:15:28Z</time>
      </trkpt>
      <trkpt lat="43.21178" lon="5.47158">
        <ele>313.3</ele>
        <time>2025-10-19T12:15:29Z</time>
      </trkpt>
      <trkpt lat="43.21178" lon="5.47157">
        <ele>313.4</ele>
        <time>2025-10-19T12:15:30Z</time>
      </trkpt>
      <trkpt lat="43.21178" lon="5.47158">
        <ele>313.4</ele>
        <time>2025-10-19T12:15:31Z</time>
      </trkpt>
      <trkpt lat="43.21178" lon="5.47157">
        <ele>313.5</ele>
        <time>2025-10-19T12:15:32Z</time>
      </trkpt>
      <trkpt lat="43.21178" lon="5.47157">
        <ele>313.5</ele>
        <time>2025-10-19T12:15:33Z</time>
      </trkpt>
      <trkpt lat="43.21178" lon="5.47157">
        <ele>313.5</ele>
        <time>2025-10-19T12:15:34Z</time>
      </trkpt>
      <trkpt lat="43.21178" lon="5.47157">
        <ele>313.5</ele>
        <time>2025-10-19T12:15:35Z</time>
      </trkpt>
      <trkpt lat="43.21178" lon="5.47157">
        <ele>313.6</ele>
        <time>2025-10-19T12:15:36Z</time>
      </trkpt>
      <trkpt lat="43.21178" lon="5.47157">
        <ele>313.6</ele>
        <time>2025-10-19T12:15:37Z</time>
      </trkpt>
      <trkpt lat="43.21178" lon="5.47157">
        <ele>313.6</ele>
        <time>2025-10-19T12:15:38Z</time>
      </trkpt>
      <trkpt lat="43.21178" lon="5.47157">
        <ele>313.6</ele>
        <time>2025-10-19T12:15:39Z</time>
      </trkpt>
      <trkpt lat="43.21178" lon="5.47157">
        <ele>313.6</ele>
        <time>2025-10-19T12:15:40Z</time>
      </trkpt>
      <trkpt lat="43.21179" lon="5.47157">
        <ele>313.6</ele>
        <time>2025-10-19T12:15:41Z</time>
      </trkpt>
      <trkpt lat="43.21179" lon="5.47156">
        <ele>313.6</ele>
        <time>2025-10-19T12:15:42Z</time>
      </trkpt>
      <trkpt lat="43.21179" lon="5.47156">
        <ele>313.5</ele>
        <time>2025-10-19T12:15:43Z</time>
      </trkpt>
      <trkpt lat="43.21179" lon="5.47156">
        <ele>313.4</ele>
        <time>2025-10-19T12:15:44Z</time>
      </trkpt>
      <trkpt lat="43.21179" lon="5.47156">
        <ele>313.4</ele>
        <time>2025-10-19T12:15:45Z</time>
      </trkpt>
      <trkpt lat="43.21179" lon="5.47156">
        <ele>313.5</ele>
        <time>2025-10-19T12:15:46Z</time>
      </trkpt>
      <trkpt lat="43.21179" lon="5.47156">
        <ele>313.5</ele>
        <time>2025-10-19T12:15:47Z</time>
      </trkpt>
      <trkpt lat="43.21179" lon="5.47155">
        <ele>313.6</ele>
        <time>2025-10-19T12:15:48Z</time>
      </trkpt>
      <trkpt lat="43.2118" lon="5.47155">
        <ele>313.7</ele>
        <time>2025-10-19T12:15:49Z</time>
      </trkpt>
      <trkpt lat="43.2118" lon="5.47155">
        <ele>313.7</ele>
        <time>2025-10-19T12:15:50Z</time>
      </trkpt>
      <trkpt lat="43.2118" lon="5.47155">
        <ele>313.9</ele>
        <time>2025-10-19T12:15:51Z</time>
      </trkpt>
      <trkpt lat="43.2118" lon="5.47154">
        <ele>313.9</ele>
        <time>2025-10-19T12:15:52Z</time>
      </trkpt>
      <trkpt lat="43.2118" lon="5.47154">
        <ele>314</ele>
        <time>2025-10-19T12:15:53Z</time>
      </trkpt>
      <trkpt lat="43.2118" lon="5.47154">
        <ele>314</ele>
        <time>2025-10-19T12:15:54Z</time>
      </trkpt>
      <trkpt lat="43.2118" lon="5.47154">
        <ele>314.1</ele>
        <time>2025-10-19T12:15:55Z</time>
      </trkpt>
      <trkpt lat="43.2118" lon="5.47154">
        <ele>314.1</ele>
        <time>2025-10-19T12:15:56Z</time>
      </trkpt>
      <trkpt lat="43.2118" lon="5.47154">
        <ele>314.1</ele>
        <time>2025-10-19T12:15:57Z</time>
      </trkpt>
      <trkpt lat="43.2118" lon="5.47154">
        <ele>314.1</ele>
        <time>2025-10-19T12:15:58Z</time>
      </trkpt>
      <trkpt lat="43.2118" lon="5.47154">
        <ele>314.1</ele>
        <time>2025-10-19T12:15:59Z</time>
      </trkpt>
      <trkpt lat="43.2118" lon="5.47154">
        <ele>314.1</ele>
        <time>2025-10-19T12:16:00Z</time>
      </trkpt>
      <trkpt lat="43.21181" lon="5.47155">
        <ele>314</ele>
        <time>2025-10-19T12:16:01Z</time>
      </trkpt>
      <trkpt lat="43.21181" lon="5.47155">
        <ele>314</ele>
        <time>2025-10-19T12:16:02Z</time>
      </trkpt>
      <trkpt lat="43.21182" lon="5.47155">
        <ele>314</ele>
        <time>2025-10-19T12:16:03Z</time>
      </trkpt>
      <trkpt lat="43.21182" lon="5.47155">
        <ele>314</ele>
        <time>2025-10-19T12:16:04Z</time>
      </trkpt>
      <trkpt lat="43.21182" lon="5.47155">
        <ele>314</ele>
        <time>2025-10-19T12:16:05Z</time>
      </trkpt>
      <trkpt lat="43.21182" lon="5.47156">
        <ele>314.2</ele>
        <time>2025-10-19T12:16:06Z</time>
      </trkpt>
      <trkpt lat="43.21182" lon="5.47156">
        <ele>314.3</ele>
        <time>2025-10-19T12:16:07Z</time>
      </trkpt>
      <trkpt lat="43.21182" lon="5.47156">
        <ele>314.5</ele>
        <time>2025-10-19T12:16:08Z</time>
      </trkpt>
      <trkpt lat="43.21182" lon="5.47156">
        <ele>314.7</ele>
        <time>2025-10-19T12:16:09Z</time>
      </trkpt>
      <trkpt lat="43.21183" lon="5.47156">
        <ele>315</ele>
        <time>2025-10-19T12:16:10Z</time>
      </trkpt>
      <trkpt lat="43.21183" lon="5.47156">
        <ele>315.3</ele>
        <time>2025-10-19T12:16:11Z</time>
      </trkpt>
      <trkpt lat="43.21183" lon="5.47156">
        <ele>315.5</ele>
        <time>2025-10-19T12:16:12Z</time>
      </trkpt>
      <trkpt lat="43.21184" lon="5.47156">
        <ele>315.9</ele>
        <time>2025-10-19T12:16:13Z</time>
      </trkpt>
      <trkpt lat="43.21184" lon="5.47156">
        <ele>316.2</ele>
        <time>2025-10-19T12:16:14Z</time>
      </trkpt>
      <trkpt lat="43.21184" lon="5.47156">
        <ele>316.4</ele>
        <time>2025-10-19T12:16:15Z</time>
      </trkpt>
      <trkpt lat="43.21185" lon="5.47155">
        <ele>316.6</ele>
        <time>2025-10-19T12:16:16Z</time>
      </trkpt>
      <trkpt lat="43.21185" lon="5.47154">
        <ele>316.9</ele>
        <time>2025-10-19T12:16:17Z</time>
      </trkpt>
      <trkpt lat="43.21185" lon="5.47153">
        <ele>317.1</ele>
        <time>2025-10-19T12:16:18Z</time>
      </trkpt>
      <trkpt lat="43.21186" lon="5.47153">
        <ele>317.2</ele>
        <time>2025-10-19T12:16:19Z</time>
      </trkpt>
      <trkpt lat="43.21186" lon="5.47152">
        <ele>317.3</ele>
        <time>2025-10-19T12:16:20Z</time>
      </trkpt>
      <trkpt lat="43.21186" lon="5.47151">
        <ele>317.4</ele>
        <time>2025-10-19T12:16:21Z</time>
      </trkpt>
      <trkpt lat="43.21187" lon="5.4715">
        <ele>317.6</ele>
        <time>2025-10-19T12:16:22Z</time>
      </trkpt>
      <trkpt lat="43.21187" lon="5.4715">
        <ele>317.7</ele>
        <time>2025-10-19T12:16:23Z</time>
      </trkpt>
      <trkpt lat="43.21187" lon="5.4715">
        <ele>317.8</ele>
        <time>2025-10-19T12:16:24Z</time>
      </trkpt>
      <trkpt lat="43.21188" lon="5.47149">
        <ele>318.1</ele>
        <time>2025-10-19T12:16:25Z</time>
      </trkpt>
      <trkpt lat="43.21189" lon="5.47149">
        <ele>318.3</ele>
        <time>2025-10-19T12:16:26Z</time>
      </trkpt>
      <trkpt lat="43.21189" lon="5.47149">
        <ele>318.5</ele>
        <time>2025-10-19T12:16:27Z</time>
      </trkpt>
      <trkpt lat="43.2119" lon="5.47148">
        <ele>318.7</ele>
        <time>2025-10-19T12:16:28Z</time>
      </trkpt>
      <trkpt lat="43.2119" lon="5.47147">
        <ele>318.9</ele>
        <time>2025-10-19T12:16:29Z</time>
      </trkpt>
      <trkpt lat="43.2119" lon="5.47146">
        <ele>319.2</ele>
        <time>2025-10-19T12:16:30Z</time>
      </trkpt>
      <trkpt lat="43.21191" lon="5.47146">
        <ele>319.4</ele>
        <time>2025-10-19T12:16:31Z</time>
      </trkpt>
      <trkpt lat="43.21192" lon="5.47145">
        <ele>319.4</ele>
        <time>2025-10-19T12:16:32Z</time>
      </trkpt>
      <trkpt lat="43.21192" lon="5.47144">
        <ele>319.6</ele>
        <time>2025-10-19T12:16:33Z</time>
      </trkpt>
      <trkpt lat="43.21193" lon="5.47143">
        <ele>319.8</ele>
        <time>2025-10-19T12:16:34Z</time>
      </trkpt>
      <trkpt lat="43.21193" lon="5.47142">
        <ele>320</ele>
        <time>2025-10-19T12:16:35Z</time>
      </trkpt>
      <trkpt lat="43.21194" lon="5.47141">
        <ele>320.1</ele>
        <time>2025-10-19T12:16:36Z</time>
      </trkpt>
      <trkpt lat="43.21194" lon="5.47141">
        <ele>320.2</ele>
        <time>2025-10-19T12:16:37Z</time>
      </trkpt>
      <trkpt lat="43.21195" lon="5.4714">
        <ele>320.4</ele>
        <time>2025-10-19T12:16:38Z</time>
      </trkpt>
      <trkpt lat="43.21195" lon="5.47139">
        <ele>320.5</ele>
        <time>2025-10-19T12:16:39Z</time>
      </trkpt>
      <trkpt lat="43.21196" lon="5.47138">
        <ele>320.7</ele>
        <time>2025-10-19T12:16:40Z</time>
      </trkpt>
      <trkpt lat="43.21196" lon="5.47138">
        <ele>320.8</ele>
        <time>2025-10-19T12:16:41Z</time>
      </trkpt>
      <trkpt lat="43.21196" lon="5.47138">
        <ele>320.9</ele>
        <time>2025-10-19T12:16:42Z</time>
      </trkpt>
      <trkpt lat="43.21196" lon="5.47138">
        <ele>321</ele>
        <time>2025-10-19T12:16:43Z</time>
      </trkpt>
      <trkpt lat="43.21196" lon="5.47138">
        <ele>321.1</ele>
        <time>2025-10-19T12:16:44Z</time>
      </trkpt>
      <trkpt lat="43.21197" lon="5.47138">
        <ele>321.1</ele>
        <time>2025-10-19T12:16:45Z</time>
      </trkpt>
      <trkpt lat="43.21198" lon="5.47138">
        <ele>321.2</ele>
        <time>2025-10-19T12:16:46Z</time>
      </trkpt>
      <trkpt lat="43.21198" lon="5.47138">
        <ele>321.2</ele>
        <time>2025-10-19T12:16:47Z</time>
      </trkpt>
      <trkpt lat="43.21198" lon="5.47138">
        <ele>321.3</ele>
        <time>2025-10-19T12:16:48Z</time>
      </trkpt>
      <trkpt lat="43.21197" lon="5.47138">
        <ele>321.5</ele>
        <time>2025-10-19T12:16:49Z</time>
      </trkpt>
      <trkpt lat="43.21198" lon="5.47138">
        <ele>321.6</ele>
        <time>2025-10-19T12:16:50Z</time>
      </trkpt>
      <trkpt lat="43.21198" lon="5.47139">
        <ele>321.7</ele>
        <time>2025-10-19T12:16:51Z</time>
      </trkpt>
      <trkpt lat="43.21198" lon="5.47139">
        <ele>321.8</ele>
        <time>2025-10-19T12:16:52Z</time>
      </trkpt>
      <trkpt lat="43.21199" lon="5.47139">
        <ele>322.1</ele>
        <time>2025-10-19T12:16:53Z</time>
      </trkpt>
      <trkpt lat="43.21199" lon="5.47139">
        <ele>322.3</ele>
        <time>2025-10-19T12:16:54Z</time>
      </trkpt>
      <trkpt lat="43.212" lon="5.47139">
        <ele>322.4</ele>
        <time>2025-10-19T12:16:55Z</time>
      </trkpt>
      <trkpt lat="43.212" lon="5.47139">
        <ele>322.6</ele>
        <time>2025-10-19T12:16:56Z</time>
      </trkpt>
      <trkpt lat="43.21201" lon="5.47139">
        <ele>322.7</ele>
        <time>2025-10-19T12:16:57Z</time>
      </trkpt>
      <trkpt lat="43.21201" lon="5.47139">
        <ele>322.7</ele>
        <time>2025-10-19T12:16:58Z</time>
      </trkpt>
      <trkpt lat="43.21201" lon="5.4714">
        <ele>322.8</ele>
        <time>2025-10-19T12:16:59Z</time>
      </trkpt>
      <trkpt lat="43.21201" lon="5.4714">
        <ele>322.8</ele>
        <time>2025-10-19T12:17:00Z</time>
      </trkpt>
      <trkpt lat="43.21201" lon="5.4714">
        <ele>322.8</ele>
        <time>2025-10-19T12:17:01Z</time>
      </trkpt>
      <trkpt lat="43.21201" lon="5.4714">
        <ele>322.8</ele>
        <time>2025-10-19T12:17:02Z</time>
      </trkpt>
      <trkpt lat="43.21201" lon="5.4714">
        <ele>322.8</ele>
        <time>2025-10-19T12:17:03Z</time>
      </trkpt>
      <trkpt lat="43.21201" lon="5.4714">
        <ele>322.9</ele>
        <time>2025-10-19T12:17:04Z</time>
      </trkpt>
      <trkpt lat="43.21202" lon="5.4714">
        <ele>322.9</ele>
        <time>2025-10-19T12:17:05Z</time>
      </trkpt>
      <trkpt lat="43.21202" lon="5.4714">
        <ele>322.8</ele>
        <time>2025-10-19T12:17:06Z</time>
      </trkpt>
      <trkpt lat="43.21202" lon="5.47141">
        <ele>322.8</ele>
        <time>2025-10-19T12:17:07Z</time>
      </trkpt>
      <trkpt lat="43.21202" lon="5.47141">
        <ele>322.8</ele>
        <time>2025-10-19T12:17:08Z</time>
      </trkpt>
      <trkpt lat="43.21202" lon="5.47141">
        <ele>322.8</ele>
        <time>2025-10-19T12:17:09Z</time>
      </trkpt>
      <trkpt lat="43.21202" lon="5.47141">
        <ele>322.8</ele>
        <time>2025-10-19T12:17:10Z</time>
      </trkpt>
      <trkpt lat="43.21202" lon="5.47141">
        <ele>322.8</ele>
        <time>2025-10-19T12:17:11Z</time>
      </trkpt>
      <trkpt lat="43.21203" lon="5.47141">
        <ele>322.8</ele>
        <time>2025-10-19T12:17:12Z</time>
      </trkpt>
      <trkpt lat="43.21203" lon="5.47141">
        <ele>322.7</ele>
        <time>2025-10-19T12:17:13Z</time>
      </trkpt>
      <trkpt lat="43.21203" lon="5.47141">
        <ele>322.7</ele>
        <time>2025-10-19T12:17:14Z</time>
      </trkpt>
      <trkpt lat="43.21203" lon="5.47141">
        <ele>322.7</ele>
        <time>2025-10-19T12:17:15Z</time>
      </trkpt>
      <trkpt lat="43.21203" lon="5.47141">
        <ele>322.7</ele>
        <time>2025-10-19T12:17:16Z</time>
      </trkpt>
      <trkpt lat="43.21203" lon="5.47141">
        <ele>322.7</ele>
        <time>2025-10-19T12:17:17Z</time>
      </trkpt>
      <trkpt lat="43.21203" lon="5.47141">
        <ele>322.8</ele>
        <time>2025-10-19T12:17:18Z</time>
      </trkpt>
      <trkpt lat="43.21203" lon="5.47141">
        <ele>322.9</ele>
        <time>2025-10-19T12:17:19Z</time>
      </trkpt>
      <trkpt lat="43.21203" lon="5.47141">
        <ele>323</ele>
        <time>2025-10-19T12:17:20Z</time>
      </trkpt>
      <trkpt lat="43.21203" lon="5.47141">
        <ele>323.1</ele>
        <time>2025-10-19T12:17:21Z</time>
      </trkpt>
      <trkpt lat="43.21204" lon="5.47141">
        <ele>323.1</ele>
        <time>2025-10-19T12:17:22Z</time>
      </trkpt>
      <trkpt lat="43.21204" lon="5.47141">
        <ele>323.1</ele>
        <time>2025-10-19T12:17:23Z</time>
      </trkpt>
      <trkpt lat="43.21204" lon="5.47141">
        <ele>323.2</ele>
        <time>2025-10-19T12:17:24Z</time>
      </trkpt>
      <trkpt lat="43.21204" lon="5.47141">
        <ele>323.2</ele>
        <time>2025-10-19T12:17:25Z</time>
      </trkpt>
      <trkpt lat="43.21204" lon="5.47141">
        <ele>323.2</ele>
        <time>2025-10-19T12:17:26Z</time>
      </trkpt>
      <trkpt lat="43.21204" lon="5.47141">
        <ele>323.2</ele>
        <time>2025-10-19T12:17:27Z</time>
      </trkpt>
      <trkpt lat="43.21205" lon="5.47141">
        <ele>323.2</ele>
        <time>2025-10-19T12:17:28Z</time>
      </trkpt>
      <trkpt lat="43.21205" lon="5.47141">
        <ele>323.2</ele>
        <time>2025-10-19T12:17:29Z</time>
      </trkpt>
      <trkpt lat="43.21205" lon="5.47141">
        <ele>323.2</ele>
        <time>2025-10-19T12:17:30Z</time>
      </trkpt>
      <trkpt lat="43.21205" lon="5.47141">
        <ele>323.2</ele>
        <time>2025-10-19T12:17:31Z</time>
      </trkpt>
      <trkpt lat="43.21205" lon="5.47141">
        <ele>323.2</ele>
        <time>2025-10-19T12:17:32Z</time>
      </trkpt>
      <trkpt lat="43.21205" lon="5.47141">
        <ele>323.1</ele>
        <time>2025-10-19T12:17:33Z</time>
      </trkpt>
      <trkpt lat="43.21205" lon="5.47141">
        <ele>323</ele>
        <time>2025-10-19T12:17:34Z</time>
      </trkpt>
      <trkpt lat="43.21205" lon="5.47141">
        <ele>322.9</ele>
        <time>2025-10-19T12:17:35Z</time>
      </trkpt>
      <trkpt lat="43.21204" lon="5.47142">
        <ele>322.9</ele>
        <time>2025-10-19T12:17:36Z</time>
      </trkpt>
      <trkpt lat="43.21204" lon="5.47142">
        <ele>323</ele>
        <time>2025-10-19T12:17:37Z</time>
      </trkpt>
      <trkpt lat="43.21204" lon="5.47142">
        <ele>323</ele>
        <time>2025-10-19T12:17:38Z</time>
      </trkpt>
      <trkpt lat="43.21204" lon="5.47142">
        <ele>323</ele>
        <time>2025-10-19T12:17:39Z</time>
      </trkpt>
      <trkpt lat="43.21204" lon="5.47142">
        <ele>323</ele>
        <time>2025-10-19T12:17:40Z</time>
      </trkpt>
      <trkpt lat="43.21204" lon="5.47142">
        <ele>323</ele>
        <time>2025-10-19T12:17:41Z</time>
      </trkpt>
      <trkpt lat="43.21204" lon="5.47142">
        <ele>322.9</ele>
        <time>2025-10-19T12:17:42Z</time>
      </trkpt>
      <trkpt lat="43.21204" lon="5.47142">
        <ele>323</ele>
        <time>2025-10-19T12:17:43Z</time>
      </trkpt>
      <trkpt lat="43.21204" lon="5.47142">
        <ele>323</ele>
        <time>2025-10-19T12:17:44Z</time>
      </trkpt>
      <trkpt lat="43.21204" lon="5.47142">
        <ele>323</ele>
        <time>2025-10-19T12:17:45Z</time>
      </trkpt>
      <trkpt lat="43.21204" lon="5.47142">
        <ele>323.1</ele>
        <time>2025-10-19T12:17:46Z</time>
      </trkpt>
      <trkpt lat="43.21204" lon="5.47142">
        <ele>323.2</ele>
        <time>2025-10-19T12:17:47Z</time>
      </trkpt>
      <trkpt lat="43.21204" lon="5.47142">
        <ele>323.2</ele>
        <time>2025-10-19T12:17:48Z</time>
      </trkpt>
      <trkpt lat="43.21204" lon="5.47142">
        <ele>323.2</ele>
        <time>2025-10-19T12:17:49Z</time>
      </trkpt>
      <trkpt lat="43.21204" lon="5.47142">
        <ele>323.1</ele>
        <time>2025-10-19T12:17:50Z</time>
      </trkpt>
      <trkpt lat="43.21204" lon="5.47142">
        <ele>323.1</ele>
        <time>2025-10-19T12:17:51Z</time>
      </trkpt>
      <trkpt lat="43.21204" lon="5.47142">
        <ele>323.1</ele>
        <time>2025-10-19T12:17:52Z</time>
      </trkpt>
      <trkpt lat="43.21204" lon="5.47142">
        <ele>323.1</ele>
        <time>2025-10-19T12:17:53Z</time>
      </trkpt>
      <trkpt lat="43.21204" lon="5.47142">
        <ele>323</ele>
        <time>2025-10-19T12:17:54Z</time>
      </trkpt>
      <trkpt lat="43.21204" lon="5.47142">
        <ele>323</ele>
        <time>2025-10-19T12:17:55Z</time>
      </trkpt>
      <trkpt lat="43.21204" lon="5.47142">
        <ele>322.9</ele>
        <time>2025-10-19T12:17:56Z</time>
      </trkpt>
      <trkpt lat="43.21203" lon="5.47142">
        <ele>322.9</ele>
        <time>2025-10-19T12:17:57Z</time>
      </trkpt>
      <trkpt lat="43.21203" lon="5.47142">
        <ele>322.9</ele>
        <time>2025-10-19T12:17:58Z</time>
      </trkpt>
      <trkpt lat="43.21203" lon="5.47142">
        <ele>322.9</ele>
        <time>2025-10-19T12:17:59Z</time>
      </trkpt>
      <trkpt lat="43.21203" lon="5.47142">
        <ele>322.8</ele>
        <time>2025-10-19T12:18:00Z</time>
      </trkpt>
      <trkpt lat="43.21203" lon="5.47142">
        <ele>322.8</ele>
        <time>2025-10-19T12:18:01Z</time>
      </trkpt>
      <trkpt lat="43.21203" lon="5.47142">
        <ele>322.7</ele>
        <time>2025-10-19T12:18:02Z</time>
      </trkpt>
      <trkpt lat="43.21203" lon="5.47142">
        <ele>322.7</ele>
        <time>2025-10-19T12:18:03Z</time>
      </trkpt>
      <trkpt lat="43.21203" lon="5.47142">
        <ele>322.7</ele>
        <time>2025-10-19T12:18:04Z</time>
      </trkpt>
      <trkpt lat="43.21203" lon="5.47142">
        <ele>322.7</ele>
        <time>2025-10-19T12:18:05Z</time>
      </trkpt>
      <trkpt lat="43.21203" lon="5.47142">
        <ele>322.7</ele>
        <time>2025-10-19T12:18:06Z</time>
      </trkpt>
      <trkpt lat="43.21203" lon="5.47142">
        <ele>322.6</ele>
        <time>2025-10-19T12:18:07Z</time>
      </trkpt>
      <trkpt lat="43.21203" lon="5.47142">
        <ele>322.7</ele>
        <time>2025-10-19T12:18:08Z</time>
      </trkpt>
      <trkpt lat="43.21203" lon="5.47142">
        <ele>322.7</ele>
        <time>2025-10-19T12:18:09Z</time>
      </trkpt>
      <trkpt lat="43.21203" lon="5.47142">
        <ele>322.7</ele>
        <time>2025-10-19T12:18:10Z</time>
      </trkpt>
      <trkpt lat="43.21203" lon="5.47142">
        <ele>322.7</ele>
        <time>2025-10-19T12:18:11Z</time>
      </trkpt>
      <trkpt lat="43.21203" lon="5.47142">
        <ele>322.7</ele>
        <time>2025-10-19T12:18:12Z</time>
      </trkpt>
      <trkpt lat="43.21203" lon="5.47142">
        <ele>322.7</ele>
        <time>2025-10-19T12:18:13Z</time>
      </trkpt>
      <trkpt lat="43.21203" lon="5.47142">
        <ele>322.6</ele>
        <time>2025-10-19T12:18:14Z</time>
      </trkpt>
      <trkpt lat="43.21203" lon="5.47142">
        <ele>322.6</ele>
        <time>2025-10-19T12:18:15Z</time>
      </trkpt>
      <trkpt lat="43.21203" lon="5.47142">
        <ele>322.5</ele>
        <time>2025-10-19T12:18:16Z</time>
      </trkpt>
      <trkpt lat="43.21203" lon="5.47142">
        <ele>322.5</ele>
        <time>2025-10-19T12:18:17Z</time>
      </trkpt>
      <trkpt lat="43.21203" lon="5.47142">
        <ele>322.4</ele>
        <time>2025-10-19T12:18:18Z</time>
      </trkpt>
      <trkpt lat="43.21203" lon="5.47142">
        <ele>322.5</ele>
        <time>2025-10-19T12:18:19Z</time>
      </trkpt>
      <trkpt lat="43.21203" lon="5.47142">
        <ele>322.7</ele>
        <time>2025-10-19T12:18:20Z</time>
      </trkpt>
      <trkpt lat="43.21203" lon="5.47142">
        <ele>322.8</ele>
        <time>2025-10-19T12:18:21Z</time>
      </trkpt>
      <trkpt lat="43.21203" lon="5.47142">
        <ele>322.8</ele>
        <time>2025-10-19T12:18:22Z</time>
      </trkpt>
      <trkpt lat="43.21203" lon="5.47142">
        <ele>323</ele>
        <time>2025-10-19T12:18:23Z</time>
      </trkpt>
      <trkpt lat="43.21204" lon="5.47142">
        <ele>323</ele>
        <time>2025-10-19T12:18:24Z</time>
      </trkpt>
      <trkpt lat="43.21204" lon="5.47141">
        <ele>323.1</ele>
        <time>2025-10-19T12:18:25Z</time>
      </trkpt>
      <trkpt lat="43.21204" lon="5.47141">
        <ele>323.3</ele>
        <time>2025-10-19T12:18:26Z</time>
      </trkpt>
      <trkpt lat="43.21205" lon="5.47141">
        <ele>323.4</ele>
        <time>2025-10-19T12:18:27Z</time>
      </trkpt>
      <trkpt lat="43.21205" lon="5.47142">
        <ele>323.5</ele>
        <time>2025-10-19T12:18:28Z</time>
      </trkpt>
      <trkpt lat="43.21206" lon="5.47142">
        <ele>323.5</ele>
        <time>2025-10-19T12:18:29Z</time>
      </trkpt>
      <trkpt lat="43.21206" lon="5.47142">
        <ele>323.7</ele>
        <time>2025-10-19T12:18:30Z</time>
      </trkpt>
      <trkpt lat="43.21206" lon="5.47142">
        <ele>323.8</ele>
        <time>2025-10-19T12:18:31Z</time>
      </trkpt>
      <trkpt lat="43.21207" lon="5.47142">
        <ele>323.9</ele>
        <time>2025-10-19T12:18:32Z</time>
      </trkpt>
      <trkpt lat="43.21207" lon="5.47142">
        <ele>324.1</ele>
        <time>2025-10-19T12:18:33Z</time>
      </trkpt>
      <trkpt lat="43.21207" lon="5.47141">
        <ele>324.1</ele>
        <time>2025-10-19T12:18:34Z</time>
      </trkpt>
      <trkpt lat="43.21207" lon="5.47141">
        <ele>324.2</ele>
        <time>2025-10-19T12:18:35Z</time>
      </trkpt>
      <trkpt lat="43.21207" lon="5.47141">
        <ele>324.3</ele>
        <time>2025-10-19T12:18:36Z</time>
      </trkpt>
      <trkpt lat="43.21207" lon="5.47141">
        <ele>324.5</ele>
        <time>2025-10-19T12:18:37Z</time>
      </trkpt>
      <trkpt lat="43.21207" lon="5.47141">
        <ele>324.4</ele>
        <time>2025-10-19T12:18:38Z</time>
      </trkpt>
      <trkpt lat="43.21207" lon="5.47141">
        <ele>324.5</ele>
        <time>2025-10-19T12:18:39Z</time>
      </trkpt>
      <trkpt lat="43.21207" lon="5.47141">
        <ele>324.4</ele>
        <time>2025-10-19T12:18:40Z</time>
      </trkpt>
      <trkpt lat="43.21207" lon="5.47141">
        <ele>324.4</ele>
        <time>2025-10-19T12:18:41Z</time>
      </trkpt>
      <trkpt lat="43.21208" lon="5.47141">
        <ele>324.5</ele>
        <time>2025-10-19T12:18:42Z</time>
      </trkpt>
      <trkpt lat="43.21208" lon="5.47141">
        <ele>324.6</ele>
        <time>2025-10-19T12:18:43Z</time>
      </trkpt>
      <trkpt lat="43.21208" lon="5.47141">
        <ele>324.7</ele>
        <time>2025-10-19T12:18:44Z</time>
      </trkpt>
      <trkpt lat="43.21208" lon="5.47141">
        <ele>324.7</ele>
        <time>2025-10-19T12:18:45Z</time>
      </trkpt>
      <trkpt lat="43.21208" lon="5.47142">
        <ele>324.8</ele>
        <time>2025-10-19T12:18:46Z</time>
      </trkpt>
      <trkpt lat="43.21209" lon="5.47143">
        <ele>324.9</ele>
        <time>2025-10-19T12:18:47Z</time>
      </trkpt>
      <trkpt lat="43.21209" lon="5.47143">
        <ele>325</ele>
        <time>2025-10-19T12:18:48Z</time>
      </trkpt>
      <trkpt lat="43.21209" lon="5.47144">
        <ele>325.1</ele>
        <time>2025-10-19T12:18:49Z</time>
      </trkpt>
      <trkpt lat="43.2121" lon="5.47144">
        <ele>325.3</ele>
        <time>2025-10-19T12:18:50Z</time>
      </trkpt>
      <trkpt lat="43.21211" lon="5.47144">
        <ele>325.4</ele>
        <time>2025-10-19T12:18:51Z</time>
      </trkpt>
      <trkpt lat="43.21211" lon="5.47144">
        <ele>325.5</ele>
        <time>2025-10-19T12:18:52Z</time>
      </trkpt>
      <trkpt lat="43.21211" lon="5.47144">
        <ele>325.7</ele>
        <time>2025-10-19T12:18:53Z</time>
      </trkpt>
      <trkpt lat="43.21211" lon="5.47145">
        <ele>325.8</ele>
        <time>2025-10-19T12:18:54Z</time>
      </trkpt>
      <trkpt lat="43.21212" lon="5.47144">
        <ele>325.9</ele>
        <time>2025-10-19T12:18:55Z</time>
      </trkpt>
      <trkpt lat="43.21212" lon="5.47144">
        <ele>326.2</ele>
        <time>2025-10-19T12:18:56Z</time>
      </trkpt>
      <trkpt lat="43.21212" lon="5.47144">
        <ele>326.4</ele>
        <time>2025-10-19T12:18:57Z</time>
      </trkpt>
      <trkpt lat="43.21212" lon="5.47144">
        <ele>326.6</ele>
        <time>2025-10-19T12:18:58Z</time>
      </trkpt>
      <trkpt lat="43.21213" lon="5.47143">
        <ele>326.7</ele>
        <time>2025-10-19T12:18:59Z</time>
      </trkpt>
      <trkpt lat="43.21213" lon="5.47142">
        <ele>326.9</ele>
        <time>2025-10-19T12:19:00Z</time>
      </trkpt>
      <trkpt lat="43.21214" lon="5.47141">
        <ele>327</ele>
        <time>2025-10-19T12:19:01Z</time>
      </trkpt>
      <trkpt lat="43.21214" lon="5.47141">
        <ele>327</ele>
        <time>2025-10-19T12:19:02Z</time>
      </trkpt>
      <trkpt lat="43.21214" lon="5.4714">
        <ele>327.1</ele>
        <time>2025-10-19T12:19:03Z</time>
      </trkpt>
      <trkpt lat="43.21215" lon="5.4714">
        <ele>327.3</ele>
        <time>2025-10-19T12:19:04Z</time>
      </trkpt>
      <trkpt lat="43.21215" lon="5.4714">
        <ele>327.5</ele>
        <time>2025-10-19T12:19:05Z</time>
      </trkpt>
      <trkpt lat="43.21215" lon="5.4714">
        <ele>327.7</ele>
        <time>2025-10-19T12:19:06Z</time>
      </trkpt>
      <trkpt lat="43.21216" lon="5.4714">
        <ele>327.9</ele>
        <time>2025-10-19T12:19:07Z</time>
      </trkpt>
      <trkpt lat="43.21216" lon="5.4714">
        <ele>328.1</ele>
        <time>2025-10-19T12:19:08Z</time>
      </trkpt>
      <trkpt lat="43.21216" lon="5.4714">
        <ele>328.2</ele>
        <time>2025-10-19T12:19:09Z</time>
      </trkpt>
      <trkpt lat="43.21216" lon="5.4714">
        <ele>328.4</ele>
        <time>2025-10-19T12:19:10Z</time>
      </trkpt>
      <trkpt lat="43.21217" lon="5.4714">
        <ele>328.6</ele>
        <time>2025-10-19T12:19:11Z</time>
      </trkpt>
      <trkpt lat="43.21217" lon="5.4714">
        <ele>328.9</ele>
        <time>2025-10-19T12:19:12Z</time>
      </trkpt>
      <trkpt lat="43.21217" lon="5.47141">
        <ele>329.2</ele>
        <time>2025-10-19T12:19:13Z</time>
      </trkpt>
      <trkpt lat="43.21217" lon="5.47141">
        <ele>329.4</ele>
        <time>2025-10-19T12:19:14Z</time>
      </trkpt>
      <trkpt lat="43.21217" lon="5.47141">
        <ele>329.7</ele>
        <time>2025-10-19T12:19:15Z</time>
      </trkpt>
      <trkpt lat="43.21217" lon="5.47142">
        <ele>329.9</ele>
        <time>2025-10-19T12:19:16Z</time>
      </trkpt>
      <trkpt lat="43.21217" lon="5.47142">
        <ele>330</ele>
        <time>2025-10-19T12:19:17Z</time>
      </trkpt>
      <trkpt lat="43.21217" lon="5.47143">
        <ele>330.3</ele>
        <time>2025-10-19T12:19:18Z</time>
      </trkpt>
      <trkpt lat="43.21218" lon="5.47143">
        <ele>330.4</ele>
        <time>2025-10-19T12:19:19Z</time>
      </trkpt>
      <trkpt lat="43.21218" lon="5.47144">
        <ele>330.7</ele>
        <time>2025-10-19T12:19:20Z</time>
      </trkpt>
      <trkpt lat="43.21218" lon="5.47144">
        <ele>330.9</ele>
        <time>2025-10-19T12:19:21Z</time>
      </trkpt>
      <trkpt lat="43.21218" lon="5.47145">
        <ele>331.3</ele>
        <time>2025-10-19T12:19:22Z</time>
      </trkpt>
      <trkpt lat="43.21218" lon="5.47145">
        <ele>331.4</ele>
        <time>2025-10-19T12:19:23Z</time>
      </trkpt>
      <trkpt lat="43.21218" lon="5.47146">
        <ele>331.5</ele>
        <time>2025-10-19T12:19:24Z</time>
      </trkpt>
      <trkpt lat="43.21218" lon="5.47146">
        <ele>331.8</ele>
        <time>2025-10-19T12:19:25Z</time>
      </trkpt>
      <trkpt lat="43.21218" lon="5.47147">
        <ele>331.9</ele>
        <time>2025-10-19T12:19:26Z</time>
      </trkpt>
      <trkpt lat="43.21218" lon="5.47147">
        <ele>332.1</ele>
        <time>2025-10-19T12:19:27Z</time>
      </trkpt>
      <trkpt lat="43.21218" lon="5.47148">
        <ele>332.2</ele>
        <time>2025-10-19T12:19:28Z</time>
      </trkpt>
      <trkpt lat="43.21219" lon="5.47149">
        <ele>332.3</ele>
        <time>2025-10-19T12:19:29Z</time>
      </trkpt>
      <trkpt lat="43.21219" lon="5.47149">
        <ele>332.4</ele>
        <time>2025-10-19T12:19:30Z</time>
      </trkpt>
      <trkpt lat="43.21219" lon="5.47149">
        <ele>332.4</ele>
        <time>2025-10-19T12:19:31Z</time>
      </trkpt>
      <trkpt lat="43.21219" lon="5.47149">
        <ele>332.4</ele>
        <time>2025-10-19T12:19:32Z</time>
      </trkpt>
      <trkpt lat="43.21219" lon="5.47149">
        <ele>332.3</ele>
        <time>2025-10-19T12:19:33Z</time>
      </trkpt>
      <trkpt lat="43.21219" lon="5.47149">
        <ele>332.4</ele>
        <time>2025-10-19T12:19:34Z</time>
      </trkpt>
      <trkpt lat="43.21219" lon="5.47148">
        <ele>332.4</ele>
        <time>2025-10-19T12:19:35Z</time>
      </trkpt>
      <trkpt lat="43.21219" lon="5.47148">
        <ele>332.4</ele>
        <time>2025-10-19T12:19:36Z</time>
      </trkpt>
      <trkpt lat="43.2122" lon="5.47149">
        <ele>332.5</ele>
        <time>2025-10-19T12:19:37Z</time>
      </trkpt>
      <trkpt lat="43.2122" lon="5.4715">
        <ele>332.5</ele>
        <time>2025-10-19T12:19:38Z</time>
      </trkpt>
      <trkpt lat="43.2122" lon="5.4715">
        <ele>332.5</ele>
        <time>2025-10-19T12:19:39Z</time>
      </trkpt>
      <trkpt lat="43.2122" lon="5.4715">
        <ele>332.6</ele>
        <time>2025-10-19T12:19:40Z</time>
      </trkpt>
      <trkpt lat="43.21221" lon="5.4715">
        <ele>332.8</ele>
        <time>2025-10-19T12:19:41Z</time>
      </trkpt>
      <trkpt lat="43.21221" lon="5.4715">
        <ele>333</ele>
        <time>2025-10-19T12:19:42Z</time>
      </trkpt>
      <trkpt lat="43.21221" lon="5.4715">
        <ele>333.2</ele>
        <time>2025-10-19T12:19:43Z</time>
      </trkpt>
      <trkpt lat="43.21222" lon="5.47149">
        <ele>333.4</ele>
        <time>2025-10-19T12:19:44Z</time>
      </trkpt>
      <trkpt lat="43.21222" lon="5.47149">
        <ele>333.5</ele>
        <time>2025-10-19T12:19:45Z</time>
      </trkpt>
      <trkpt lat="43.21223" lon="5.4715">
        <ele>333.7</ele>
        <time>2025-10-19T12:19:46Z</time>
      </trkpt>
      <trkpt lat="43.21223" lon="5.47151">
        <ele>333.9</ele>
        <time>2025-10-19T12:19:47Z</time>
      </trkpt>
      <trkpt lat="43.21223" lon="5.47152">
        <ele>334.1</ele>
        <time>2025-10-19T12:19:48Z</time>
      </trkpt>
      <trkpt lat="43.21224" lon="5.47153">
        <ele>334.3</ele>
        <time>2025-10-19T12:19:49Z</time>
      </trkpt>
      <trkpt lat="43.21224" lon="5.47153">
        <ele>334.5</ele>
        <time>2025-10-19T12:19:50Z</time>
      </trkpt>
      <trkpt lat="43.21225" lon="5.47154">
        <ele>334.7</ele>
        <time>2025-10-19T12:19:51Z</time>
      </trkpt>
      <trkpt lat="43.21226" lon="5.47155">
        <ele>334.8</ele>
        <time>2025-10-19T12:19:52Z</time>
      </trkpt>
      <trkpt lat="43.21227" lon="5.47155">
        <ele>334.9</ele>
        <time>2025-10-19T12:19:53Z</time>
      </trkpt>
      <trkpt lat="43.21228" lon="5.47156">
        <ele>335.1</ele>
        <time>2025-10-19T12:19:54Z</time>
      </trkpt>
      <trkpt lat="43.21228" lon="5.47156">
        <ele>335.1</ele>
        <time>2025-10-19T12:19:55Z</time>
      </trkpt>
      <trkpt lat="43.21229" lon="5.47156">
        <ele>335.3</ele>
        <time>2025-10-19T12:19:56Z</time>
      </trkpt>
      <trkpt lat="43.21229" lon="5.47155">
        <ele>335.5</ele>
        <time>2025-10-19T12:19:57Z</time>
      </trkpt>
      <trkpt lat="43.2123" lon="5.47155">
        <ele>335.7</ele>
        <time>2025-10-19T12:19:58Z</time>
      </trkpt>
      <trkpt lat="43.2123" lon="5.47155">
        <ele>335.9</ele>
        <time>2025-10-19T12:19:59Z</time>
      </trkpt>
      <trkpt lat="43.21231" lon="5.47156">
        <ele>336.2</ele>
        <time>2025-10-19T12:20:00Z</time>
      </trkpt>
      <trkpt lat="43.21232" lon="5.47157">
        <ele>336.4</ele>
        <time>2025-10-19T12:20:01Z</time>
      </trkpt>
      <trkpt lat="43.21232" lon="5.47157">
        <ele>336.6</ele>
        <time>2025-10-19T12:20:02Z</time>
      </trkpt>
      <trkpt lat="43.21233" lon="5.47157">
        <ele>336.8</ele>
        <time>2025-10-19T12:20:03Z</time>
      </trkpt>
      <trkpt lat="43.21233" lon="5.47157">
        <ele>337</ele>
        <time>2025-10-19T12:20:04Z</time>
      </trkpt>
      <trkpt lat="43.21234" lon="5.47158">
        <ele>337.3</ele>
        <time>2025-10-19T12:20:05Z</time>
      </trkpt>
      <trkpt lat="43.21235" lon="5.47158">
        <ele>337.5</ele>
        <time>2025-10-19T12:20:06Z</time>
      </trkpt>
      <trkpt lat="43.21235" lon="5.47158">
        <ele>337.6</ele>
        <time>2025-10-19T12:20:07Z</time>
      </trkpt>
      <trkpt lat="43.21236" lon="5.47157">
        <ele>337.9</ele>
        <time>2025-10-19T12:20:08Z</time>
      </trkpt>
      <trkpt lat="43.21236" lon="5.47157">
        <ele>338.1</ele>
        <time>2025-10-19T12:20:09Z</time>
      </trkpt>
      <trkpt lat="43.21237" lon="5.47157">
        <ele>338.3</ele>
        <time>2025-10-19T12:20:10Z</time>
      </trkpt>
      <trkpt lat="43.21237" lon="5.47156">
        <ele>338.5</ele>
        <time>2025-10-19T12:20:11Z</time>
      </trkpt>
      <trkpt lat="43.21238" lon="5.47156">
        <ele>338.6</ele>
        <time>2025-10-19T12:20:12Z</time>
      </trkpt>
      <trkpt lat="43.21238" lon="5.47155">
        <ele>338.8</ele>
        <time>2025-10-19T12:20:13Z</time>
      </trkpt>
      <trkpt lat="43.21239" lon="5.47155">
        <ele>339</ele>
        <time>2025-10-19T12:20:14Z</time>
      </trkpt>
      <trkpt lat="43.2124" lon="5.47154">
        <ele>339.3</ele>
        <time>2025-10-19T12:20:15Z</time>
      </trkpt>
      <trkpt lat="43.2124" lon="5.47154">
        <ele>339.5</ele>
        <time>2025-10-19T12:20:16Z</time>
      </trkpt>
      <trkpt lat="43.2124" lon="5.47154">
        <ele>339.6</ele>
        <time>2025-10-19T12:20:17Z</time>
      </trkpt>
      <trkpt lat="43.21241" lon="5.47154">
        <ele>339.9</ele>
        <time>2025-10-19T12:20:18Z</time>
      </trkpt>
      <trkpt lat="43.21241" lon="5.47154">
        <ele>340.1</ele>
        <time>2025-10-19T12:20:19Z</time>
      </trkpt>
      <trkpt lat="43.21242" lon="5.47154">
        <ele>340.2</ele>
        <time>2025-10-19T12:20:20Z</time>
      </trkpt>
      <trkpt lat="43.21242" lon="5.47153">
        <ele>340.4</ele>
        <time>2025-10-19T12:20:21Z</time>
      </trkpt>
      <trkpt lat="43.21243" lon="5.47153">
        <ele>340.5</ele>
        <time>2025-10-19T12:20:22Z</time>
      </trkpt>
      <trkpt lat="43.21243" lon="5.47153">
        <ele>340.7</ele>
        <time>2025-10-19T12:20:23Z</time>
      </trkpt>
      <trkpt lat="43.21243" lon="5.47152">
        <ele>340.9</ele>
        <time>2025-10-19T12:20:24Z</time>
      </trkpt>
      <trkpt lat="43.21244" lon="5.47151">
        <ele>341.1</ele>
        <time>2025-10-19T12:20:25Z</time>
      </trkpt>
      <trkpt lat="43.21244" lon="5.47151">
        <ele>341.3</ele>
        <time>2025-10-19T12:20:26Z</time>
      </trkpt>
      <trkpt lat="43.21244" lon="5.4715">
        <ele>341.6</ele>
        <time>2025-10-19T12:20:27Z</time>
      </trkpt>
      <trkpt lat="43.21244" lon="5.4715">
        <ele>341.9</ele>
        <time>2025-10-19T12:20:28Z</time>
      </trkpt>
      <trkpt lat="43.21244" lon="5.4715">
        <ele>342.1</ele>
        <time>2025-10-19T12:20:29Z</time>
      </trkpt>
      <trkpt lat="43.21244" lon="5.4715">
        <ele>342.1</ele>
        <time>2025-10-19T12:20:30Z</time>
      </trkpt>
      <trkpt lat="43.21244" lon="5.4715">
        <ele>342.2</ele>
        <time>2025-10-19T12:20:31Z</time>
      </trkpt>
      <trkpt lat="43.21244" lon="5.4715">
        <ele>342.3</ele>
        <time>2025-10-19T12:20:32Z</time>
      </trkpt>
      <trkpt lat="43.21244" lon="5.4715">
        <ele>342.4</ele>
        <time>2025-10-19T12:20:33Z</time>
      </trkpt>
      <trkpt lat="43.21244" lon="5.4715">
        <ele>342.4</ele>
        <time>2025-10-19T12:20:34Z</time>
      </trkpt>
      <trkpt lat="43.21244" lon="5.47149">
        <ele>342.5</ele>
        <time>2025-10-19T12:20:35Z</time>
      </trkpt>
      <trkpt lat="43.21245" lon="5.47149">
        <ele>342.5</ele>
        <time>2025-10-19T12:20:36Z</time>
      </trkpt>
      <trkpt lat="43.21245" lon="5.47149">
        <ele>342.7</ele>
        <time>2025-10-19T12:20:37Z</time>
      </trkpt>
      <trkpt lat="43.21245" lon="5.47149">
        <ele>342.8</ele>
        <time>2025-10-19T12:20:38Z</time>
      </trkpt>
      <trkpt lat="43.21246" lon="5.4715">
        <ele>343</ele>
        <time>2025-10-19T12:20:39Z</time>
      </trkpt>
      <trkpt lat="43.21246" lon="5.47151">
        <ele>343.3</ele>
        <time>2025-10-19T12:20:40Z</time>
      </trkpt>
      <trkpt lat="43.21247" lon="5.47151">
        <ele>343.5</ele>
        <time>2025-10-19T12:20:41Z</time>
      </trkpt>
      <trkpt lat="43.21247" lon="5.47151">
        <ele>343.7</ele>
        <time>2025-10-19T12:20:42Z</time>
      </trkpt>
      <trkpt lat="43.21248" lon="5.47151">
        <ele>343.9</ele>
        <time>2025-10-19T12:20:43Z</time>
      </trkpt>
      <trkpt lat="43.21248" lon="5.47152">
        <ele>344.1</ele>
        <time>2025-10-19T12:20:44Z</time>
      </trkpt>
      <trkpt lat="43.21249" lon="5.47152">
        <ele>344.4</ele>
        <time>2025-10-19T12:20:45Z</time>
      </trkpt>
      <trkpt lat="43.2125" lon="5.47152">
        <ele>344.7</ele>
        <time>2025-10-19T12:20:46Z</time>
      </trkpt>
      <trkpt lat="43.2125" lon="5.47152">
        <ele>344.9</ele>
        <time>2025-10-19T12:20:47Z</time>
      </trkpt>
      <trkpt lat="43.21251" lon="5.47152">
        <ele>345.1</ele>
        <time>2025-10-19T12:20:48Z</time>
      </trkpt>
      <trkpt lat="43.21251" lon="5.47151">
        <ele>345.3</ele>
        <time>2025-10-19T12:20:49Z</time>
      </trkpt>
      <trkpt lat="43.21251" lon="5.47151">
        <ele>345.5</ele>
        <time>2025-10-19T12:20:50Z</time>
      </trkpt>
      <trkpt lat="43.21251" lon="5.4715">
        <ele>345.8</ele>
        <time>2025-10-19T12:20:51Z</time>
      </trkpt>
      <trkpt lat="43.21251" lon="5.47149">
        <ele>345.9</ele>
        <time>2025-10-19T12:20:52Z</time>
      </trkpt>
      <trkpt lat="43.21252" lon="5.47149">
        <ele>346</ele>
        <time>2025-10-19T12:20:53Z</time>
      </trkpt>
      <trkpt lat="43.21252" lon="5.47148">
        <ele>346.2</ele>
        <time>2025-10-19T12:20:54Z</time>
      </trkpt>
      <trkpt lat="43.21252" lon="5.47148">
        <ele>346.3</ele>
        <time>2025-10-19T12:20:55Z</time>
      </trkpt>
      <trkpt lat="43.21252" lon="5.47148">
        <ele>346.4</ele>
        <time>2025-10-19T12:20:56Z</time>
      </trkpt>
      <trkpt lat="43.21252" lon="5.47147">
        <ele>346.4</ele>
        <time>2025-10-19T12:20:57Z</time>
      </trkpt>
      <trkpt lat="43.21252" lon="5.47147">
        <ele>346.2</ele>
        <time>2025-10-19T12:20:58Z</time>
      </trkpt>
      <trkpt lat="43.21253" lon="5.47147">
        <ele>346.1</ele>
        <time>2025-10-19T12:20:59Z</time>
      </trkpt>
      <trkpt lat="43.21253" lon="5.47147">
        <ele>346</ele>
        <time>2025-10-19T12:21:00Z</time>
      </trkpt>
      <trkpt lat="43.21254" lon="5.47146">
        <ele>346.1</ele>
        <time>2025-10-19T12:21:01Z</time>
      </trkpt>
      <trkpt lat="43.21255" lon="5.47146">
        <ele>346.2</ele>
        <time>2025-10-19T12:21:02Z</time>
      </trkpt>
      <trkpt lat="43.21255" lon="5.47146">
        <ele>346.3</ele>
        <time>2025-10-19T12:21:03Z</time>
      </trkpt>
      <trkpt lat="43.21256" lon="5.47146">
        <ele>346.4</ele>
        <time>2025-10-19T12:21:04Z</time>
      </trkpt>
      <trkpt lat="43.21257" lon="5.47145">
        <ele>346.5</ele>
        <time>2025-10-19T12:21:05Z</time>
      </trkpt>
      <trkpt lat="43.21257" lon="5.47145">
        <ele>346.7</ele>
        <time>2025-10-19T12:21:06Z</time>
      </trkpt>
      <trkpt lat="43.21257" lon="5.47145">
        <ele>346.9</ele>
        <time>2025-10-19T12:21:07Z</time>
      </trkpt>
      <trkpt lat="43.21258" lon="5.47145">
        <ele>347.1</ele>
        <time>2025-10-19T12:21:08Z</time>
      </trkpt>
      <trkpt lat="43.21258" lon="5.47145">
        <ele>347.3</ele>
        <time>2025-10-19T12:21:09Z</time>
      </trkpt>
      <trkpt lat="43.21259" lon="5.47144">
        <ele>347.5</ele>
        <time>2025-10-19T12:21:10Z</time>
      </trkpt>
      <trkpt lat="43.2126" lon="5.47144">
        <ele>347.8</ele>
        <time>2025-10-19T12:21:11Z</time>
      </trkpt>
      <trkpt lat="43.2126" lon="5.47143">
        <ele>347.9</ele>
        <time>2025-10-19T12:21:12Z</time>
      </trkpt>
      <trkpt lat="43.21261" lon="5.47143">
        <ele>348.1</ele>
        <time>2025-10-19T12:21:13Z</time>
      </trkpt>
      <trkpt lat="43.21261" lon="5.47143">
        <ele>348.3</ele>
        <time>2025-10-19T12:21:14Z</time>
      </trkpt>
      <trkpt lat="43.21261" lon="5.47143">
        <ele>348.5</ele>
        <time>2025-10-19T12:21:15Z</time>
      </trkpt>
      <trkpt lat="43.21262" lon="5.47144">
        <ele>348.6</ele>
        <time>2025-10-19T12:21:16Z</time>
      </trkpt>
      <trkpt lat="43.21262" lon="5.47144">
        <ele>348.9</ele>
        <time>2025-10-19T12:21:17Z</time>
      </trkpt>
      <trkpt lat="43.21263" lon="5.47144">
        <ele>349.1</ele>
        <time>2025-10-19T12:21:18Z</time>
      </trkpt>
      <trkpt lat="43.21263" lon="5.47145">
        <ele>349.3</ele>
        <time>2025-10-19T12:21:19Z</time>
      </trkpt>
      <trkpt lat="43.21264" lon="5.47145">
        <ele>349.4</ele>
        <time>2025-10-19T12:21:20Z</time>
      </trkpt>
      <trkpt lat="43.21264" lon="5.47145">
        <ele>349.5</ele>
        <time>2025-10-19T12:21:21Z</time>
      </trkpt>
      <trkpt lat="43.21265" lon="5.47146">
        <ele>349.6</ele>
        <time>2025-10-19T12:21:22Z</time>
      </trkpt>
      <trkpt lat="43.21265" lon="5.47147">
        <ele>349.9</ele>
        <time>2025-10-19T12:21:23Z</time>
      </trkpt>
      <trkpt lat="43.21266" lon="5.47147">
        <ele>350.1</ele>
        <time>2025-10-19T12:21:24Z</time>
      </trkpt>
      <trkpt lat="43.21266" lon="5.47147">
        <ele>350.4</ele>
        <time>2025-10-19T12:21:25Z</time>
      </trkpt>
      <trkpt lat="43.21267" lon="5.47147">
        <ele>350.7</ele>
        <time>2025-10-19T12:21:26Z</time>
      </trkpt>
      <trkpt lat="43.21267" lon="5.47145">
        <ele>351</ele>
        <time>2025-10-19T12:21:27Z</time>
      </trkpt>
      <trkpt lat="43.21268" lon="5.47144">
        <ele>351.3</ele>
        <time>2025-10-19T12:21:28Z</time>
      </trkpt>
      <trkpt lat="43.21268" lon="5.47144">
        <ele>351.5</ele>
        <time>2025-10-19T12:21:29Z</time>
      </trkpt>
      <trkpt lat="43.21269" lon="5.47143">
        <ele>351.7</ele>
        <time>2025-10-19T12:21:30Z</time>
      </trkpt>
      <trkpt lat="43.21269" lon="5.47141">
        <ele>351.8</ele>
        <time>2025-10-19T12:21:31Z</time>
      </trkpt>
      <trkpt lat="43.21269" lon="5.47141">
        <ele>352</ele>
        <time>2025-10-19T12:21:32Z</time>
      </trkpt>
      <trkpt lat="43.2127" lon="5.47139">
        <ele>352.1</ele>
        <time>2025-10-19T12:21:33Z</time>
      </trkpt>
      <trkpt lat="43.21271" lon="5.47139">
        <ele>352.2</ele>
        <time>2025-10-19T12:21:34Z</time>
      </trkpt>
      <trkpt lat="43.21271" lon="5.47138">
        <ele>352.4</ele>
        <time>2025-10-19T12:21:35Z</time>
      </trkpt>
      <trkpt lat="43.21271" lon="5.47137">
        <ele>352.5</ele>
        <time>2025-10-19T12:21:36Z</time>
      </trkpt>
      <trkpt lat="43.21271" lon="5.47137">
        <ele>352.6</ele>
        <time>2025-10-19T12:21:37Z</time>
      </trkpt>
      <trkpt lat="43.21272" lon="5.47137">
        <ele>352.6</ele>
        <time>2025-10-19T12:21:38Z</time>
      </trkpt>
      <trkpt lat="43.21272" lon="5.47137">
        <ele>352.7</ele>
        <time>2025-10-19T12:21:39Z</time>
      </trkpt>
      <trkpt lat="43.21272" lon="5.47137">
        <ele>352.8</ele>
        <time>2025-10-19T12:21:40Z</time>
      </trkpt>
      <trkpt lat="43.21272" lon="5.47136">
        <ele>352.9</ele>
        <time>2025-10-19T12:21:41Z</time>
      </trkpt>
      <trkpt lat="43.21272" lon="5.47136">
        <ele>352.9</ele>
        <time>2025-10-19T12:21:42Z</time>
      </trkpt>
      <trkpt lat="43.21272" lon="5.47136">
        <ele>353</ele>
        <time>2025-10-19T12:21:43Z</time>
      </trkpt>
      <trkpt lat="43.21272" lon="5.47136">
        <ele>353</ele>
        <time>2025-10-19T12:21:44Z</time>
      </trkpt>
      <trkpt lat="43.21272" lon="5.47136">
        <ele>353</ele>
        <time>2025-10-19T12:21:45Z</time>
      </trkpt>
      <trkpt lat="43.21272" lon="5.47136">
        <ele>353.1</ele>
        <time>2025-10-19T12:21:46Z</time>
      </trkpt>
      <trkpt lat="43.21272" lon="5.47136">
        <ele>353.1</ele>
        <time>2025-10-19T12:21:47Z</time>
      </trkpt>
      <trkpt lat="43.21272" lon="5.47135">
        <ele>353.2</ele>
        <time>2025-10-19T12:21:48Z</time>
      </trkpt>
      <trkpt lat="43.21272" lon="5.47136">
        <ele>353.3</ele>
        <time>2025-10-19T12:21:49Z</time>
      </trkpt>
      <trkpt lat="43.21272" lon="5.47136">
        <ele>353.3</ele>
        <time>2025-10-19T12:21:50Z</time>
      </trkpt>
      <trkpt lat="43.21272" lon="5.47136">
        <ele>353.3</ele>
        <time>2025-10-19T12:21:51Z</time>
      </trkpt>
      <trkpt lat="43.21273" lon="5.47136">
        <ele>353.2</ele>
        <time>2025-10-19T12:21:52Z</time>
      </trkpt>
      <trkpt lat="43.21273" lon="5.47136">
        <ele>353.2</ele>
        <time>2025-10-19T12:21:53Z</time>
      </trkpt>
      <trkpt lat="43.21273" lon="5.47136">
        <ele>353.2</ele>
        <time>2025-10-19T12:21:54Z</time>
      </trkpt>
      <trkpt lat="43.21273" lon="5.47136">
        <ele>353.2</ele>
        <time>2025-10-19T12:21:55Z</time>
      </trkpt>
      <trkpt lat="43.21273" lon="5.47136">
        <ele>353.2</ele>
        <time>2025-10-19T12:21:56Z</time>
      </trkpt>
      <trkpt lat="43.21273" lon="5.47136">
        <ele>353.2</ele>
        <time>2025-10-19T12:21:57Z</time>
      </trkpt>
      <trkpt lat="43.21273" lon="5.47136">
        <ele>353.3</ele>
        <time>2025-10-19T12:21:58Z</time>
      </trkpt>
      <trkpt lat="43.21273" lon="5.47136">
        <ele>353.3</ele>
        <time>2025-10-19T12:21:59Z</time>
      </trkpt>
      <trkpt lat="43.21273" lon="5.47135">
        <ele>353.3</ele>
        <time>2025-10-19T12:22:00Z</time>
      </trkpt>
      <trkpt lat="43.21273" lon="5.47135">
        <ele>353.3</ele>
        <time>2025-10-19T12:22:01Z</time>
      </trkpt>
      <trkpt lat="43.21273" lon="5.47135">
        <ele>353.3</ele>
        <time>2025-10-19T12:22:02Z</time>
      </trkpt>
      <trkpt lat="43.21273" lon="5.47135">
        <ele>353.2</ele>
        <time>2025-10-19T12:22:03Z</time>
      </trkpt>
      <trkpt lat="43.21273" lon="5.47135">
        <ele>353.2</ele>
        <time>2025-10-19T12:22:04Z</time>
      </trkpt>
      <trkpt lat="43.21273" lon="5.47135">
        <ele>353.2</ele>
        <time>2025-10-19T12:22:05Z</time>
      </trkpt>
      <trkpt lat="43.21273" lon="5.47136">
        <ele>353.2</ele>
        <time>2025-10-19T12:22:06Z</time>
      </trkpt>
      <trkpt lat="43.21273" lon="5.47136">
        <ele>353.2</ele>
        <time>2025-10-19T12:22:07Z</time>
      </trkpt>
      <trkpt lat="43.21273" lon="5.47136">
        <ele>353.1</ele>
        <time>2025-10-19T12:22:08Z</time>
      </trkpt>
      <trkpt lat="43.21273" lon="5.47136">
        <ele>353.1</ele>
        <time>2025-10-19T12:22:09Z</time>
      </trkpt>
      <trkpt lat="43.21273" lon="5.47135">
        <ele>353</ele>
        <time>2025-10-19T12:22:10Z</time>
      </trkpt>
      <trkpt lat="43.21273" lon="5.47136">
        <ele>353</ele>
        <time>2025-10-19T12:22:11Z</time>
      </trkpt>
      <trkpt lat="43.21273" lon="5.47136">
        <ele>353.1</ele>
        <time>2025-10-19T12:22:12Z</time>
      </trkpt>
      <trkpt lat="43.21274" lon="5.47136">
        <ele>353.2</ele>
        <time>2025-10-19T12:22:13Z</time>
      </trkpt>
      <trkpt lat="43.21274" lon="5.47136">
        <ele>353.4</ele>
        <time>2025-10-19T12:22:14Z</time>
      </trkpt>
      <trkpt lat="43.21275" lon="5.47136">
        <ele>353.5</ele>
        <time>2025-10-19T12:22:15Z</time>
      </trkpt>
      <trkpt lat="43.21276" lon="5.47136">
        <ele>353.7</ele>
        <time>2025-10-19T12:22:16Z</time>
      </trkpt>
      <trkpt lat="43.21276" lon="5.47136">
        <ele>353.7</ele>
        <time>2025-10-19T12:22:17Z</time>
      </trkpt>
      <trkpt lat="43.21276" lon="5.47136">
        <ele>353.9</ele>
        <time>2025-10-19T12:22:18Z</time>
      </trkpt>
      <trkpt lat="43.21276" lon="5.47137">
        <ele>354</ele>
        <time>2025-10-19T12:22:19Z</time>
      </trkpt>
      <trkpt lat="43.21276" lon="5.47138">
        <ele>354.1</ele>
        <time>2025-10-19T12:22:20Z</time>
      </trkpt>
      <trkpt lat="43.21276" lon="5.47139">
        <ele>354.1</ele>
        <time>2025-10-19T12:22:21Z</time>
      </trkpt>
      <trkpt lat="43.21276" lon="5.47139">
        <ele>354.2</ele>
        <time>2025-10-19T12:22:22Z</time>
      </trkpt>
      <trkpt lat="43.21276" lon="5.47138">
        <ele>354.2</ele>
        <time>2025-10-19T12:22:23Z</time>
      </trkpt>
      <trkpt lat="43.21277" lon="5.47138">
        <ele>354.3</ele>
        <time>2025-10-19T12:22:24Z</time>
      </trkpt>
      <trkpt lat="43.21277" lon="5.47139">
        <ele>354.4</ele>
        <time>2025-10-19T12:22:25Z</time>
      </trkpt>
      <trkpt lat="43.21277" lon="5.47139">
        <ele>354.5</ele>
        <time>2025-10-19T12:22:26Z</time>
      </trkpt>
      <trkpt lat="43.21277" lon="5.4714">
        <ele>354.6</ele>
        <time>2025-10-19T12:22:27Z</time>
      </trkpt>
      <trkpt lat="43.21278" lon="5.4714">
        <ele>354.7</ele>
        <time>2025-10-19T12:22:28Z</time>
      </trkpt>
      <trkpt lat="43.21279" lon="5.4714">
        <ele>354.8</ele>
        <time>2025-10-19T12:22:29Z</time>
      </trkpt>
      <trkpt lat="43.21279" lon="5.47141">
        <ele>354.9</ele>
        <time>2025-10-19T12:22:30Z</time>
      </trkpt>
      <trkpt lat="43.2128" lon="5.47141">
        <ele>355</ele>
        <time>2025-10-19T12:22:31Z</time>
      </trkpt>
      <trkpt lat="43.21281" lon="5.47141">
        <ele>355.1</ele>
        <time>2025-10-19T12:22:32Z</time>
      </trkpt>
      <trkpt lat="43.21281" lon="5.47141">
        <ele>355.1</ele>
        <time>2025-10-19T12:22:33Z</time>
      </trkpt>
      <trkpt lat="43.21282" lon="5.47142">
        <ele>355.3</ele>
        <time>2025-10-19T12:22:34Z</time>
      </trkpt>
      <trkpt lat="43.21283" lon="5.47143">
        <ele>355.4</ele>
        <time>2025-10-19T12:22:35Z</time>
      </trkpt>
      <trkpt lat="43.21284" lon="5.47144">
        <ele>355.5</ele>
        <time>2025-10-19T12:22:36Z</time>
      </trkpt>
      <trkpt lat="43.21284" lon="5.47144">
        <ele>355.7</ele>
        <time>2025-10-19T12:22:37Z</time>
      </trkpt>
      <trkpt lat="43.21285" lon="5.47145">
        <ele>355.8</ele>
        <time>2025-10-19T12:22:38Z</time>
      </trkpt>
      <trkpt lat="43.21286" lon="5.47146">
        <ele>356.1</ele>
        <time>2025-10-19T12:22:39Z</time>
      </trkpt>
      <trkpt lat="43.21286" lon="5.47146">
        <ele>356.2</ele>
        <time>2025-10-19T12:22:40Z</time>
      </trkpt>
      <trkpt lat="43.21287" lon="5.47147">
        <ele>356.3</ele>
        <time>2025-10-19T12:22:41Z</time>
      </trkpt>
      <trkpt lat="43.21287" lon="5.47147">
        <ele>356.5</ele>
        <time>2025-10-19T12:22:42Z</time>
      </trkpt>
      <trkpt lat="43.21288" lon="5.47147">
        <ele>356.7</ele>
        <time>2025-10-19T12:22:43Z</time>
      </trkpt>
      <trkpt lat="43.21288" lon="5.47148">
        <ele>356.9</ele>
        <time>2025-10-19T12:22:44Z</time>
      </trkpt>
      <trkpt lat="43.21289" lon="5.47149">
        <ele>357.1</ele>
        <time>2025-10-19T12:22:45Z</time>
      </trkpt>
      <trkpt lat="43.21289" lon="5.47149">
        <ele>357.2</ele>
        <time>2025-10-19T12:22:46Z</time>
      </trkpt>
      <trkpt lat="43.2129" lon="5.47149">
        <ele>357.4</ele>
        <time>2025-10-19T12:22:47Z</time>
      </trkpt>
      <trkpt lat="43.2129" lon="5.47149">
        <ele>357.5</ele>
        <time>2025-10-19T12:22:48Z</time>
      </trkpt>
      <trkpt lat="43.21291" lon="5.47148">
        <ele>357.7</ele>
        <time>2025-10-19T12:22:49Z</time>
      </trkpt>
      <trkpt lat="43.21291" lon="5.47148">
        <ele>357.8</ele>
        <time>2025-10-19T12:22:50Z</time>
      </trkpt>
      <trkpt lat="43.21292" lon="5.47147">
        <ele>358</ele>
        <time>2025-10-19T12:22:51Z</time>
      </trkpt>
      <trkpt lat="43.21292" lon="5.47146">
        <ele>358.1</ele>
        <time>2025-10-19T12:22:52Z</time>
      </trkpt>
      <trkpt lat="43.21293" lon="5.47145">
        <ele>358.3</ele>
        <time>2025-10-19T12:22:53Z</time>
      </trkpt>
      <trkpt lat="43.21293" lon="5.47144">
        <ele>358.4</ele>
        <time>2025-10-19T12:22:54Z</time>
      </trkpt>
      <trkpt lat="43.21293" lon="5.47143">
        <ele>358.6</ele>
        <time>2025-10-19T12:22:55Z</time>
      </trkpt>
      <trkpt lat="43.21293" lon="5.47143">
        <ele>358.7</ele>
        <time>2025-10-19T12:22:56Z</time>
      </trkpt>
      <trkpt lat="43.21293" lon="5.47142">
        <ele>358.9</ele>
        <time>2025-10-19T12:22:57Z</time>
      </trkpt>
      <trkpt lat="43.21294" lon="5.47142">
        <ele>359</ele>
        <time>2025-10-19T12:22:58Z</time>
      </trkpt>
      <trkpt lat="43.21294" lon="5.47142">
        <ele>359.2</ele>
        <time>2025-10-19T12:22:59Z</time>
      </trkpt>
      <trkpt lat="43.21294" lon="5.47141">
        <ele>359.3</ele>
        <time>2025-10-19T12:23:00Z</time>
      </trkpt>
      <trkpt lat="43.21295" lon="5.47141">
        <ele>359.4</ele>
        <time>2025-10-19T12:23:01Z</time>
      </trkpt>
      <trkpt lat="43.21295" lon="5.4714">
        <ele>359.5</ele>
        <time>2025-10-19T12:23:02Z</time>
      </trkpt>
      <trkpt lat="43.21296" lon="5.4714">
        <ele>359.6</ele>
        <time>2025-10-19T12:23:03Z</time>
      </trkpt>
      <trkpt lat="43.21296" lon="5.4714">
        <ele>359.7</ele>
        <time>2025-10-19T12:23:04Z</time>
      </trkpt>
      <trkpt lat="43.21296" lon="5.4714">
        <ele>359.9</ele>
        <time>2025-10-19T12:23:05Z</time>
      </trkpt>
      <trkpt lat="43.21296" lon="5.4714">
        <ele>360.1</ele>
        <time>2025-10-19T12:23:06Z</time>
      </trkpt>
      <trkpt lat="43.21296" lon="5.47141">
        <ele>360.3</ele>
        <time>2025-10-19T12:23:07Z</time>
      </trkpt>
      <trkpt lat="43.21297" lon="5.47141">
        <ele>360.5</ele>
        <time>2025-10-19T12:23:08Z</time>
      </trkpt>
      <trkpt lat="43.21297" lon="5.47142">
        <ele>360.8</ele>
        <time>2025-10-19T12:23:09Z</time>
      </trkpt>
      <trkpt lat="43.21297" lon="5.47142">
        <ele>361.2</ele>
        <time>2025-10-19T12:23:10Z</time>
      </trkpt>
      <trkpt lat="43.21298" lon="5.47143">
        <ele>361.4</ele>
        <time>2025-10-19T12:23:11Z</time>
      </trkpt>
      <trkpt lat="43.21299" lon="5.47143">
        <ele>361.6</ele>
        <time>2025-10-19T12:23:12Z</time>
      </trkpt>
      <trkpt lat="43.21299" lon="5.47143">
        <ele>361.8</ele>
        <time>2025-10-19T12:23:13Z</time>
      </trkpt>
      <trkpt lat="43.213" lon="5.47143">
        <ele>362.1</ele>
        <time>2025-10-19T12:23:14Z</time>
      </trkpt>
      <trkpt lat="43.21301" lon="5.47142">
        <ele>362.1</ele>
        <time>2025-10-19T12:23:15Z</time>
      </trkpt>
      <trkpt lat="43.21301" lon="5.47142">
        <ele>362.2</ele>
        <time>2025-10-19T12:23:16Z</time>
      </trkpt>
      <trkpt lat="43.21301" lon="5.47143">
        <ele>362.5</ele>
        <time>2025-10-19T12:23:17Z</time>
      </trkpt>
      <trkpt lat="43.21302" lon="5.47143">
        <ele>362.8</ele>
        <time>2025-10-19T12:23:18Z</time>
      </trkpt>
      <trkpt lat="43.21302" lon="5.47143">
        <ele>363</ele>
        <time>2025-10-19T12:23:19Z</time>
      </trkpt>
      <trkpt lat="43.21302" lon="5.47143">
        <ele>363.2</ele>
        <time>2025-10-19T12:23:20Z</time>
      </trkpt>
      <trkpt lat="43.21303" lon="5.47143">
        <ele>363.3</ele>
        <time>2025-10-19T12:23:21Z</time>
      </trkpt>
      <trkpt lat="43.21303" lon="5.47144">
        <ele>363.5</ele>
        <time>2025-10-19T12:23:22Z</time>
      </trkpt>
      <trkpt lat="43.21303" lon="5.47144">
        <ele>363.6</ele>
        <time>2025-10-19T12:23:23Z</time>
      </trkpt>
      <trkpt lat="43.21304" lon="5.47144">
        <ele>363.9</ele>
        <time>2025-10-19T12:23:24Z</time>
      </trkpt>
      <trkpt lat="43.21304" lon="5.47144">
        <ele>364.1</ele>
        <time>2025-10-19T12:23:25Z</time>
      </trkpt>
      <trkpt lat="43.21304" lon="5.47144">
        <ele>364.3</ele>
        <time>2025-10-19T12:23:26Z</time>
      </trkpt>
      <trkpt lat="43.21305" lon="5.47144">
        <ele>364.7</ele>
        <time>2025-10-19T12:23:27Z</time>
      </trkpt>
      <trkpt lat="43.21305" lon="5.47143">
        <ele>365</ele>
        <time>2025-10-19T12:23:28Z</time>
      </trkpt>
      <trkpt lat="43.21306" lon="5.47143">
        <ele>365.4</ele>
        <time>2025-10-19T12:23:29Z</time>
      </trkpt>
      <trkpt lat="43.21307" lon="5.47142">
        <ele>365.7</ele>
        <time>2025-10-19T12:23:30Z</time>
      </trkpt>
      <trkpt lat="43.21307" lon="5.47142">
        <ele>366</ele>
        <time>2025-10-19T12:23:31Z</time>
      </trkpt>
      <trkpt lat="43.21307" lon="5.47142">
        <ele>366.3</ele>
        <time>2025-10-19T12:23:32Z</time>
      </trkpt>
      <trkpt lat="43.21308" lon="5.47142">
        <ele>366.6</ele>
        <time>2025-10-19T12:23:33Z</time>
      </trkpt>
      <trkpt lat="43.21308" lon="5.47142">
        <ele>366.8</ele>
        <time>2025-10-19T12:23:34Z</time>
      </trkpt>
      <trkpt lat="43.21308" lon="5.47142">
        <ele>367</ele>
        <time>2025-10-19T12:23:35Z</time>
      </trkpt>
      <trkpt lat="43.21309" lon="5.47142">
        <ele>367.2</ele>
        <time>2025-10-19T12:23:36Z</time>
      </trkpt>
      <trkpt lat="43.2131" lon="5.47142">
        <ele>367.4</ele>
        <time>2025-10-19T12:23:37Z</time>
      </trkpt>
      <trkpt lat="43.2131" lon="5.47142">
        <ele>367.6</ele>
        <time>2025-10-19T12:23:38Z</time>
      </trkpt>
      <trkpt lat="43.2131" lon="5.47142">
        <ele>367.7</ele>
        <time>2025-10-19T12:23:39Z</time>
      </trkpt>
      <trkpt lat="43.21311" lon="5.47142">
        <ele>367.9</ele>
        <time>2025-10-19T12:23:40Z</time>
      </trkpt>
      <trkpt lat="43.21312" lon="5.47143">
        <ele>368.1</ele>
        <time>2025-10-19T12:23:41Z</time>
      </trkpt>
      <trkpt lat="43.21312" lon="5.47143">
        <ele>368.3</ele>
        <time>2025-10-19T12:23:42Z</time>
      </trkpt>
      <trkpt lat="43.21313" lon="5.47143">
        <ele>368.4</ele>
        <time>2025-10-19T12:23:43Z</time>
      </trkpt>
      <trkpt lat="43.21313" lon="5.47144">
        <ele>368.6</ele>
        <time>2025-10-19T12:23:44Z</time>
      </trkpt>
      <trkpt lat="43.21313" lon="5.47144">
        <ele>368.7</ele>
        <time>2025-10-19T12:23:45Z</time>
      </trkpt>
      <trkpt lat="43.21314" lon="5.47144">
        <ele>368.9</ele>
        <time>2025-10-19T12:23:46Z</time>
      </trkpt>
      <trkpt lat="43.21314" lon="5.47144">
        <ele>369.2</ele>
        <time>2025-10-19T12:23:47Z</time>
      </trkpt>
      <trkpt lat="43.21315" lon="5.47144">
        <ele>369.4</ele>
        <time>2025-10-19T12:23:48Z</time>
      </trkpt>
      <trkpt lat="43.21315" lon="5.47144">
        <ele>369.6</ele>
        <time>2025-10-19T12:23:49Z</time>
      </trkpt>
      <trkpt lat="43.21316" lon="5.47144">
        <ele>369.8</ele>
        <time>2025-10-19T12:23:50Z</time>
      </trkpt>
      <trkpt lat="43.21317" lon="5.47145">
        <ele>369.9</ele>
        <time>2025-10-19T12:23:51Z</time>
      </trkpt>
      <trkpt lat="43.21318" lon="5.47145">
        <ele>370</ele>
        <time>2025-10-19T12:23:52Z</time>
      </trkpt>
      <trkpt lat="43.21318" lon="5.47144">
        <ele>370.1</ele>
        <time>2025-10-19T12:23:53Z</time>
      </trkpt>
      <trkpt lat="43.21319" lon="5.47145">
        <ele>370.4</ele>
        <time>2025-10-19T12:23:54Z</time>
      </trkpt>
      <trkpt lat="43.21319" lon="5.47145">
        <ele>370.8</ele>
        <time>2025-10-19T12:23:55Z</time>
      </trkpt>
      <trkpt lat="43.2132" lon="5.47145">
        <ele>371.1</ele>
        <time>2025-10-19T12:23:56Z</time>
      </trkpt>
      <trkpt lat="43.21321" lon="5.47145">
        <ele>371.4</ele>
        <time>2025-10-19T12:23:57Z</time>
      </trkpt>
      <trkpt lat="43.21321" lon="5.47145">
        <ele>371.6</ele>
        <time>2025-10-19T12:23:58Z</time>
      </trkpt>
      <trkpt lat="43.21322" lon="5.47145">
        <ele>371.9</ele>
        <time>2025-10-19T12:23:59Z</time>
      </trkpt>
      <trkpt lat="43.21322" lon="5.47146">
        <ele>372.1</ele>
        <time>2025-10-19T12:24:00Z</time>
      </trkpt>
      <trkpt lat="43.21323" lon="5.47146">
        <ele>372.2</ele>
        <time>2025-10-19T12:24:01Z</time>
      </trkpt>
      <trkpt lat="43.21323" lon="5.47145">
        <ele>372.3</ele>
        <time>2025-10-19T12:24:02Z</time>
      </trkpt>
      <trkpt lat="43.21324" lon="5.47145">
        <ele>372.4</ele>
        <time>2025-10-19T12:24:03Z</time>
      </trkpt>
      <trkpt lat="43.21325" lon="5.47145">
        <ele>372.4</ele>
        <time>2025-10-19T12:24:04Z</time>
      </trkpt>
      <trkpt lat="43.21326" lon="5.47145">
        <ele>372.5</ele>
        <time>2025-10-19T12:24:05Z</time>
      </trkpt>
      <trkpt lat="43.21326" lon="5.47144">
        <ele>372.6</ele>
        <time>2025-10-19T12:24:06Z</time>
      </trkpt>
      <trkpt lat="43.21326" lon="5.47144">
        <ele>372.8</ele>
        <time>2025-10-19T12:24:07Z</time>
      </trkpt>
      <trkpt lat="43.21327" lon="5.47144">
        <ele>372.8</ele>
        <time>2025-10-19T12:24:08Z</time>
      </trkpt>
      <trkpt lat="43.21327" lon="5.47144">
        <ele>372.9</ele>
        <time>2025-10-19T12:24:09Z</time>
      </trkpt>
      <trkpt lat="43.21326" lon="5.47143">
        <ele>373</ele>
        <time>2025-10-19T12:24:10Z</time>
      </trkpt>
      <trkpt lat="43.21327" lon="5.47143">
        <ele>373.1</ele>
        <time>2025-10-19T12:24:11Z</time>
      </trkpt>
      <trkpt lat="43.21327" lon="5.47143">
        <ele>373.2</ele>
        <time>2025-10-19T12:24:12Z</time>
      </trkpt>
      <trkpt lat="43.21327" lon="5.47143">
        <ele>373.2</ele>
        <time>2025-10-19T12:24:13Z</time>
      </trkpt>
      <trkpt lat="43.21327" lon="5.47143">
        <ele>373.2</ele>
        <time>2025-10-19T12:24:14Z</time>
      </trkpt>
      <trkpt lat="43.21327" lon="5.47143">
        <ele>373.2</ele>
        <time>2025-10-19T12:24:15Z</time>
      </trkpt>
      <trkpt lat="43.21327" lon="5.47143">
        <ele>373.2</ele>
        <time>2025-10-19T12:24:16Z</time>
      </trkpt>
      <trkpt lat="43.21327" lon="5.47143">
        <ele>373.1</ele>
        <time>2025-10-19T12:24:17Z</time>
      </trkpt>
      <trkpt lat="43.21327" lon="5.47143">
        <ele>373.1</ele>
        <time>2025-10-19T12:24:18Z</time>
      </trkpt>
      <trkpt lat="43.21327" lon="5.47142">
        <ele>373</ele>
        <time>2025-10-19T12:24:19Z</time>
      </trkpt>
      <trkpt lat="43.21327" lon="5.47142">
        <ele>373.1</ele>
        <time>2025-10-19T12:24:20Z</time>
      </trkpt>
      <trkpt lat="43.21327" lon="5.47142">
        <ele>373.1</ele>
        <time>2025-10-19T12:24:21Z</time>
      </trkpt>
      <trkpt lat="43.21327" lon="5.47142">
        <ele>373</ele>
        <time>2025-10-19T12:24:22Z</time>
      </trkpt>
      <trkpt lat="43.21327" lon="5.47142">
        <ele>373</ele>
        <time>2025-10-19T12:24:23Z</time>
      </trkpt>
      <trkpt lat="43.21327" lon="5.47142">
        <ele>373</ele>
        <time>2025-10-19T12:24:24Z</time>
      </trkpt>
      <trkpt lat="43.21327" lon="5.47142">
        <ele>373</ele>
        <time>2025-10-19T12:24:25Z</time>
      </trkpt>
      <trkpt lat="43.21327" lon="5.47142">
        <ele>372.9</ele>
        <time>2025-10-19T12:24:26Z</time>
      </trkpt>
      <trkpt lat="43.21327" lon="5.47142">
        <ele>372.8</ele>
        <time>2025-10-19T12:24:27Z</time>
      </trkpt>
      <trkpt lat="43.21327" lon="5.47142">
        <ele>372.8</ele>
        <time>2025-10-19T12:24:28Z</time>
      </trkpt>
      <trkpt lat="43.21327" lon="5.47142">
        <ele>372.8</ele>
        <time>2025-10-19T12:24:29Z</time>
      </trkpt>
      <trkpt lat="43.21328" lon="5.47142">
        <ele>372.8</ele>
        <time>2025-10-19T12:24:30Z</time>
      </trkpt>
      <trkpt lat="43.21328" lon="5.47142">
        <ele>372.9</ele>
        <time>2025-10-19T12:24:31Z</time>
      </trkpt>
      <trkpt lat="43.21327" lon="5.47142">
        <ele>373</ele>
        <time>2025-10-19T12:24:32Z</time>
      </trkpt>
      <trkpt lat="43.21327" lon="5.47142">
        <ele>373.1</ele>
        <time>2025-10-19T12:24:33Z</time>
      </trkpt>
      <trkpt lat="43.21327" lon="5.47142">
        <ele>373.1</ele>
        <time>2025-10-19T12:24:34Z</time>
      </trkpt>
      <trkpt lat="43.21327" lon="5.47142">
        <ele>373.1</ele>
        <time>2025-10-19T12:24:35Z</time>
      </trkpt>
      <trkpt lat="43.21327" lon="5.47142">
        <ele>373.1</ele>
        <time>2025-10-19T12:24:36Z</time>
      </trkpt>
      <trkpt lat="43.21327" lon="5.47142">
        <ele>373</ele>
        <time>2025-10-19T12:24:37Z</time>
      </trkpt>
      <trkpt lat="43.21327" lon="5.47142">
        <ele>373.2</ele>
        <time>2025-10-19T12:24:38Z</time>
      </trkpt>
      <trkpt lat="43.21327" lon="5.47141">
        <ele>373.2</ele>
        <time>2025-10-19T12:24:39Z</time>
      </trkpt>
      <trkpt lat="43.21326" lon="5.47141">
        <ele>373.4</ele>
        <time>2025-10-19T12:24:40Z</time>
      </trkpt>
      <trkpt lat="43.21326" lon="5.47141">
        <ele>373.5</ele>
        <time>2025-10-19T12:24:41Z</time>
      </trkpt>
      <trkpt lat="43.21326" lon="5.47141">
        <ele>373.6</ele>
        <time>2025-10-19T12:24:42Z</time>
      </trkpt>
      <trkpt lat="43.21327" lon="5.4714">
        <ele>373.7</ele>
        <time>2025-10-19T12:24:43Z</time>
      </trkpt>
      <trkpt lat="43.21327" lon="5.4714">
        <ele>373.8</ele>
        <time>2025-10-19T12:24:44Z</time>
      </trkpt>
      <trkpt lat="43.21327" lon="5.4714">
        <ele>373.9</ele>
        <time>2025-10-19T12:24:45Z</time>
      </trkpt>
      <trkpt lat="43.21327" lon="5.47141">
        <ele>373.9</ele>
        <time>2025-10-19T12:24:46Z</time>
      </trkpt>
      <trkpt lat="43.21327" lon="5.47141">
        <ele>374</ele>
        <time>2025-10-19T12:24:47Z</time>
      </trkpt>
      <trkpt lat="43.21327" lon="5.47141">
        <ele>374</ele>
        <time>2025-10-19T12:24:48Z</time>
      </trkpt>
      <trkpt lat="43.21327" lon="5.47141">
        <ele>374.1</ele>
        <time>2025-10-19T12:24:49Z</time>
      </trkpt>
      <trkpt lat="43.21328" lon="5.47141">
        <ele>374</ele>
        <time>2025-10-19T12:24:50Z</time>
      </trkpt>
      <trkpt lat="43.21328" lon="5.47141">
        <ele>374</ele>
        <time>2025-10-19T12:24:51Z</time>
      </trkpt>
      <trkpt lat="43.21328" lon="5.47141">
        <ele>374</ele>
        <time>2025-10-19T12:24:52Z</time>
      </trkpt>
      <trkpt lat="43.21328" lon="5.47141">
        <ele>374</ele>
        <time>2025-10-19T12:24:53Z</time>
      </trkpt>
      <trkpt lat="43.21328" lon="5.47141">
        <ele>374</ele>
        <time>2025-10-19T12:24:54Z</time>
      </trkpt>
      <trkpt lat="43.21328" lon="5.47141">
        <ele>373.9</ele>
        <time>2025-10-19T12:24:55Z</time>
      </trkpt>
      <trkpt lat="43.21328" lon="5.47141">
        <ele>374</ele>
        <time>2025-10-19T12:24:56Z</time>
      </trkpt>
      <trkpt lat="43.21328" lon="5.47141">
        <ele>374</ele>
        <time>2025-10-19T12:24:57Z</time>
      </trkpt>
      <trkpt lat="43.21328" lon="5.47141">
        <ele>373.9</ele>
        <time>2025-10-19T12:24:58Z</time>
      </trkpt>
      <trkpt lat="43.21328" lon="5.47141">
        <ele>373.9</ele>
        <time>2025-10-19T12:24:59Z</time>
      </trkpt>
      <trkpt lat="43.21329" lon="5.47141">
        <ele>374</ele>
        <time>2025-10-19T12:25:00Z</time>
      </trkpt>
      <trkpt lat="43.21329" lon="5.47141">
        <ele>374.1</ele>
        <time>2025-10-19T12:25:01Z</time>
      </trkpt>
      <trkpt lat="43.21329" lon="5.47141">
        <ele>374</ele>
        <time>2025-10-19T12:25:02Z</time>
      </trkpt>
      <trkpt lat="43.21329" lon="5.47141">
        <ele>374</ele>
        <time>2025-10-19T12:25:03Z</time>
      </trkpt>
      <trkpt lat="43.21329" lon="5.47141">
        <ele>374.1</ele>
        <time>2025-10-19T12:25:04Z</time>
      </trkpt>
      <trkpt lat="43.21329" lon="5.47141">
        <ele>374</ele>
        <time>2025-10-19T12:25:05Z</time>
      </trkpt>
      <trkpt lat="43.21329" lon="5.47141">
        <ele>374</ele>
        <time>2025-10-19T12:25:06Z</time>
      </trkpt>
      <trkpt lat="43.21329" lon="5.47141">
        <ele>374</ele>
        <time>2025-10-19T12:25:07Z</time>
      </trkpt>
      <trkpt lat="43.21329" lon="5.47141">
        <ele>374</ele>
        <time>2025-10-19T12:25:08Z</time>
      </trkpt>
      <trkpt lat="43.21329" lon="5.47141">
        <ele>374</ele>
        <time>2025-10-19T12:25:09Z</time>
      </trkpt>
      <trkpt lat="43.21329" lon="5.47141">
        <ele>373.9</ele>
        <time>2025-10-19T12:25:10Z</time>
      </trkpt>
      <trkpt lat="43.21329" lon="5.47141">
        <ele>373.8</ele>
        <time>2025-10-19T12:25:11Z</time>
      </trkpt>
      <trkpt lat="43.21329" lon="5.4714">
        <ele>373.8</ele>
        <time>2025-10-19T12:25:12Z</time>
      </trkpt>
      <trkpt lat="43.21329" lon="5.4714">
        <ele>373.7</ele>
        <time>2025-10-19T12:25:13Z</time>
      </trkpt>
      <trkpt lat="43.21328" lon="5.4714">
        <ele>373.7</ele>
        <time>2025-10-19T12:25:14Z</time>
      </trkpt>
      <trkpt lat="43.21328" lon="5.4714">
        <ele>373.7</ele>
        <time>2025-10-19T12:25:15Z</time>
      </trkpt>
      <trkpt lat="43.21328" lon="5.4714">
        <ele>373.7</ele>
        <time>2025-10-19T12:25:16Z</time>
      </trkpt>
      <trkpt lat="43.21328" lon="5.4714">
        <ele>373.8</ele>
        <time>2025-10-19T12:25:17Z</time>
      </trkpt>
      <trkpt lat="43.21328" lon="5.4714">
        <ele>373.8</ele>
        <time>2025-10-19T12:25:18Z</time>
      </trkpt>
      <trkpt lat="43.21328" lon="5.47139">
        <ele>373.9</ele>
        <time>2025-10-19T12:25:19Z</time>
      </trkpt>
      <trkpt lat="43.21328" lon="5.47139">
        <ele>373.9</ele>
        <time>2025-10-19T12:25:20Z</time>
      </trkpt>
      <trkpt lat="43.21328" lon="5.4714">
        <ele>373.9</ele>
        <time>2025-10-19T12:25:21Z</time>
      </trkpt>
      <trkpt lat="43.21329" lon="5.4714">
        <ele>373.9</ele>
        <time>2025-10-19T12:25:22Z</time>
      </trkpt>
      <trkpt lat="43.21329" lon="5.47141">
        <ele>373.9</ele>
        <time>2025-10-19T12:25:23Z</time>
      </trkpt>
      <trkpt lat="43.21329" lon="5.4714">
        <ele>373.9</ele>
        <time>2025-10-19T12:25:24Z</time>
      </trkpt>
      <trkpt lat="43.21329" lon="5.4714">
        <ele>374</ele>
        <time>2025-10-19T12:25:25Z</time>
      </trkpt>
      <trkpt lat="43.21329" lon="5.4714">
        <ele>374</ele>
        <time>2025-10-19T12:25:26Z</time>
      </trkpt>
      <trkpt lat="43.21329" lon="5.4714">
        <ele>374</ele>
        <time>2025-10-19T12:25:27Z</time>
      </trkpt>
      <trkpt lat="43.21329" lon="5.4714">
        <ele>373.9</ele>
        <time>2025-10-19T12:25:28Z</time>
      </trkpt>
      <trkpt lat="43.2133" lon="5.4714">
        <ele>373.8</ele>
        <time>2025-10-19T12:25:29Z</time>
      </trkpt>
      <trkpt lat="43.2133" lon="5.47139">
        <ele>373.7</ele>
        <time>2025-10-19T12:25:30Z</time>
      </trkpt>
      <trkpt lat="43.2133" lon="5.47139">
        <ele>373.7</ele>
        <time>2025-10-19T12:25:31Z</time>
      </trkpt>
      <trkpt lat="43.2133" lon="5.47139">
        <ele>373.7</ele>
        <time>2025-10-19T12:25:32Z</time>
      </trkpt>
      <trkpt lat="43.2133" lon="5.47139">
        <ele>373.7</ele>
        <time>2025-10-19T12:25:33Z</time>
      </trkpt>
      <trkpt lat="43.2133" lon="5.47139">
        <ele>373.6</ele>
        <time>2025-10-19T12:25:34Z</time>
      </trkpt>
      <trkpt lat="43.21331" lon="5.47139">
        <ele>373.7</ele>
        <time>2025-10-19T12:25:35Z</time>
      </trkpt>
      <trkpt lat="43.21331" lon="5.47139">
        <ele>373.7</ele>
        <time>2025-10-19T12:25:36Z</time>
      </trkpt>
      <trkpt lat="43.21331" lon="5.47139">
        <ele>373.7</ele>
        <time>2025-10-19T12:25:37Z</time>
      </trkpt>
      <trkpt lat="43.21332" lon="5.47139">
        <ele>373.7</ele>
        <time>2025-10-19T12:25:38Z</time>
      </trkpt>
      <trkpt lat="43.21332" lon="5.47138">
        <ele>373.7</ele>
        <time>2025-10-19T12:25:39Z</time>
      </trkpt>
      <trkpt lat="43.21332" lon="5.47138">
        <ele>373.7</ele>
        <time>2025-10-19T12:25:40Z</time>
      </trkpt>
      <trkpt lat="43.21332" lon="5.47138">
        <ele>373.8</ele>
        <time>2025-10-19T12:25:41Z</time>
      </trkpt>
      <trkpt lat="43.21332" lon="5.47138">
        <ele>373.8</ele>
        <time>2025-10-19T12:25:42Z</time>
      </trkpt>
      <trkpt lat="43.21332" lon="5.47138">
        <ele>373.9</ele>
        <time>2025-10-19T12:25:43Z</time>
      </trkpt>
      <trkpt lat="43.21333" lon="5.47138">
        <ele>373.8</ele>
        <time>2025-10-19T12:25:44Z</time>
      </trkpt>
      <trkpt lat="43.21333" lon="5.47138">
        <ele>373.8</ele>
        <time>2025-10-19T12:25:45Z</time>
      </trkpt>
      <trkpt lat="43.21333" lon="5.47138">
        <ele>373.8</ele>
        <time>2025-10-19T12:25:46Z</time>
      </trkpt>
      <trkpt lat="43.21333" lon="5.47138">
        <ele>373.9</ele>
        <time>2025-10-19T12:25:47Z</time>
      </trkpt>
      <trkpt lat="43.21333" lon="5.47138">
        <ele>373.9</ele>
        <time>2025-10-19T12:25:48Z</time>
      </trkpt>
      <trkpt lat="43.21333" lon="5.47138">
        <ele>373.9</ele>
        <time>2025-10-19T12:25:49Z</time>
      </trkpt>
      <trkpt lat="43.21333" lon="5.47138">
        <ele>373.9</ele>
        <time>2025-10-19T12:25:50Z</time>
      </trkpt>
      <trkpt lat="43.21333" lon="5.47138">
        <ele>373.9</ele>
        <time>2025-10-19T12:25:51Z</time>
      </trkpt>
      <trkpt lat="43.21333" lon="5.47138">
        <ele>373.9</ele>
        <time>2025-10-19T12:25:52Z</time>
      </trkpt>
      <trkpt lat="43.21333" lon="5.47138">
        <ele>373.9</ele>
        <time>2025-10-19T12:25:53Z</time>
      </trkpt>
      <trkpt lat="43.21333" lon="5.47138">
        <ele>373.7</ele>
        <time>2025-10-19T12:25:54Z</time>
      </trkpt>
      <trkpt lat="43.21333" lon="5.47138">
        <ele>373.9</ele>
        <time>2025-10-19T12:25:55Z</time>
      </trkpt>
      <trkpt lat="43.21332" lon="5.47138">
        <ele>373.7</ele>
        <time>2025-10-19T12:25:56Z</time>
      </trkpt>
      <trkpt lat="43.21332" lon="5.47138">
        <ele>373.8</ele>
        <time>2025-10-19T12:25:57Z</time>
      </trkpt>
      <trkpt lat="43.21332" lon="5.47138">
        <ele>373.8</ele>
        <time>2025-10-19T12:25:58Z</time>
      </trkpt>
      <trkpt lat="43.21332" lon="5.47138">
        <ele>373.7</ele>
        <time>2025-10-19T12:25:59Z</time>
      </trkpt>
      <trkpt lat="43.21332" lon="5.47138">
        <ele>373.8</ele>
        <time>2025-10-19T12:26:00Z</time>
      </trkpt>
      <trkpt lat="43.21332" lon="5.47138">
        <ele>373.8</ele>
        <time>2025-10-19T12:26:01Z</time>
      </trkpt>
      <trkpt lat="43.21332" lon="5.47138">
        <ele>373.7</ele>
        <time>2025-10-19T12:26:02Z</time>
      </trkpt>
      <trkpt lat="43.21332" lon="5.47138">
        <ele>373.6</ele>
        <time>2025-10-19T12:26:03Z</time>
      </trkpt>
      <trkpt lat="43.21332" lon="5.47138">
        <ele>373.7</ele>
        <time>2025-10-19T12:26:04Z</time>
      </trkpt>
      <trkpt lat="43.21332" lon="5.47139">
        <ele>373.4</ele>
        <time>2025-10-19T12:26:05Z</time>
      </trkpt>
      <trkpt lat="43.21332" lon="5.47139">
        <ele>373.2</ele>
        <time>2025-10-19T12:26:06Z</time>
      </trkpt>
      <trkpt lat="43.21333" lon="5.4714">
        <ele>373.2</ele>
        <time>2025-10-19T12:26:07Z</time>
      </trkpt>
      <trkpt lat="43.21333" lon="5.4714">
        <ele>373.1</ele>
        <time>2025-10-19T12:26:08Z</time>
      </trkpt>
      <trkpt lat="43.21333" lon="5.4714">
        <ele>373.1</ele>
        <time>2025-10-19T12:26:09Z</time>
      </trkpt>
      <trkpt lat="43.21333" lon="5.47139">
        <ele>373</ele>
        <time>2025-10-19T12:26:10Z</time>
      </trkpt>
      <trkpt lat="43.21332" lon="5.4714">
        <ele>373</ele>
        <time>2025-10-19T12:26:11Z</time>
      </trkpt>
      <trkpt lat="43.21332" lon="5.4714">
        <ele>373.1</ele>
        <time>2025-10-19T12:26:12Z</time>
      </trkpt>
      <trkpt lat="43.21332" lon="5.4714">
        <ele>373.1</ele>
        <time>2025-10-19T12:26:13Z</time>
      </trkpt>
      <trkpt lat="43.21332" lon="5.4714">
        <ele>373.1</ele>
        <time>2025-10-19T12:26:14Z</time>
      </trkpt>
      <trkpt lat="43.21333" lon="5.4714">
        <ele>373</ele>
        <time>2025-10-19T12:26:15Z</time>
      </trkpt>
      <trkpt lat="43.21333" lon="5.4714">
        <ele>373</ele>
        <time>2025-10-19T12:26:16Z</time>
      </trkpt>
      <trkpt lat="43.21333" lon="5.47141">
        <ele>373</ele>
        <time>2025-10-19T12:26:17Z</time>
      </trkpt>
      <trkpt lat="43.21333" lon="5.47141">
        <ele>373</ele>
        <time>2025-10-19T12:26:18Z</time>
      </trkpt>
      <trkpt lat="43.21333" lon="5.47141">
        <ele>373</ele>
        <time>2025-10-19T12:26:19Z</time>
      </trkpt>
      <trkpt lat="43.21332" lon="5.47141">
        <ele>373</ele>
        <time>2025-10-19T12:26:20Z</time>
      </trkpt>
      <trkpt lat="43.21332" lon="5.47141">
        <ele>372.8</ele>
        <time>2025-10-19T12:26:21Z</time>
      </trkpt>
      <trkpt lat="43.21332" lon="5.47141">
        <ele>372.8</ele>
        <time>2025-10-19T12:26:22Z</time>
      </trkpt>
      <trkpt lat="43.21332" lon="5.47141">
        <ele>372.7</ele>
        <time>2025-10-19T12:26:23Z</time>
      </trkpt>
      <trkpt lat="43.21332" lon="5.47141">
        <ele>372.8</ele>
        <time>2025-10-19T12:26:24Z</time>
      </trkpt>
      <trkpt lat="43.21332" lon="5.47141">
        <ele>372.8</ele>
        <time>2025-10-19T12:26:25Z</time>
      </trkpt>
      <trkpt lat="43.21332" lon="5.47141">
        <ele>372.8</ele>
        <time>2025-10-19T12:26:26Z</time>
      </trkpt>
      <trkpt lat="43.21331" lon="5.47141">
        <ele>372.8</ele>
        <time>2025-10-19T12:26:27Z</time>
      </trkpt>
      <trkpt lat="43.21331" lon="5.47141">
        <ele>372.8</ele>
        <time>2025-10-19T12:26:28Z</time>
      </trkpt>
      <trkpt lat="43.21331" lon="5.47141">
        <ele>372.9</ele>
        <time>2025-10-19T12:26:29Z</time>
      </trkpt>
      <trkpt lat="43.21331" lon="5.47141">
        <ele>372.9</ele>
        <time>2025-10-19T12:26:30Z</time>
      </trkpt>
      <trkpt lat="43.21331" lon="5.47141">
        <ele>373</ele>
        <time>2025-10-19T12:26:31Z</time>
      </trkpt>
      <trkpt lat="43.21331" lon="5.47141">
        <ele>373</ele>
        <time>2025-10-19T12:26:32Z</time>
      </trkpt>
      <trkpt lat="43.21331" lon="5.47141">
        <ele>373.1</ele>
        <time>2025-10-19T12:26:33Z</time>
      </trkpt>
      <trkpt lat="43.21331" lon="5.47141">
        <ele>373.1</ele>
        <time>2025-10-19T12:26:34Z</time>
      </trkpt>
      <trkpt lat="43.21331" lon="5.47141">
        <ele>373.1</ele>
        <time>2025-10-19T12:26:35Z</time>
      </trkpt>
      <trkpt lat="43.21331" lon="5.47141">
        <ele>373.2</ele>
        <time>2025-10-19T12:26:36Z</time>
      </trkpt>
      <trkpt lat="43.21331" lon="5.47141">
        <ele>373.3</ele>
        <time>2025-10-19T12:26:37Z</time>
      </trkpt>
      <trkpt lat="43.21331" lon="5.4714">
        <ele>373.4</ele>
        <time>2025-10-19T12:26:38Z</time>
      </trkpt>
      <trkpt lat="43.21331" lon="5.4714">
        <ele>373.4</ele>
        <time>2025-10-19T12:26:39Z</time>
      </trkpt>
      <trkpt lat="43.21331" lon="5.4714">
        <ele>373.4</ele>
        <time>2025-10-19T12:26:40Z</time>
      </trkpt>
      <trkpt lat="43.21331" lon="5.4714">
        <ele>373.4</ele>
        <time>2025-10-19T12:26:41Z</time>
      </trkpt>
      <trkpt lat="43.21331" lon="5.4714">
        <ele>373.4</ele>
        <time>2025-10-19T12:26:42Z</time>
      </trkpt>
      <trkpt lat="43.21331" lon="5.4714">
        <ele>373.4</ele>
        <time>2025-10-19T12:26:43Z</time>
      </trkpt>
      <trkpt lat="43.21331" lon="5.4714">
        <ele>373.3</ele>
        <time>2025-10-19T12:26:44Z</time>
      </trkpt>
      <trkpt lat="43.21331" lon="5.4714">
        <ele>373.3</ele>
        <time>2025-10-19T12:26:45Z</time>
      </trkpt>
      <trkpt lat="43.21331" lon="5.4714">
        <ele>373.3</ele>
        <time>2025-10-19T12:26:46Z</time>
      </trkpt>
      <trkpt lat="43.21331" lon="5.4714">
        <ele>373.2</ele>
        <time>2025-10-19T12:26:47Z</time>
      </trkpt>
      <trkpt lat="43.2133" lon="5.4714">
        <ele>373.2</ele>
        <time>2025-10-19T12:26:48Z</time>
      </trkpt>
      <trkpt lat="43.2133" lon="5.4714">
        <ele>373.2</ele>
        <time>2025-10-19T12:26:49Z</time>
      </trkpt>
      <trkpt lat="43.2133" lon="5.4714">
        <ele>373.1</ele>
        <time>2025-10-19T12:26:50Z</time>
      </trkpt>
      <trkpt lat="43.2133" lon="5.4714">
        <ele>373.1</ele>
        <time>2025-10-19T12:26:51Z</time>
      </trkpt>
      <trkpt lat="43.2133" lon="5.47141">
        <ele>373</ele>
        <time>2025-10-19T12:26:52Z</time>
      </trkpt>
      <trkpt lat="43.2133" lon="5.47141">
        <ele>373</ele>
        <time>2025-10-19T12:26:53Z</time>
      </trkpt>
      <trkpt lat="43.2133" lon="5.47141">
        <ele>373</ele>
        <time>2025-10-19T12:26:54Z</time>
      </trkpt>
      <trkpt lat="43.2133" lon="5.47141">
        <ele>373</ele>
        <time>2025-10-19T12:26:55Z</time>
      </trkpt>
      <trkpt lat="43.2133" lon="5.47141">
        <ele>373.1</ele>
        <time>2025-10-19T12:26:56Z</time>
      </trkpt>
      <trkpt lat="43.2133" lon="5.47141">
        <ele>373.1</ele>
        <time>2025-10-19T12:26:57Z</time>
      </trkpt>
      <trkpt lat="43.21329" lon="5.47141">
        <ele>373.1</ele>
        <time>2025-10-19T12:26:58Z</time>
      </trkpt>
      <trkpt lat="43.21329" lon="5.47141">
        <ele>373</ele>
        <time>2025-10-19T12:26:59Z</time>
      </trkpt>
      <trkpt lat="43.21329" lon="5.47141">
        <ele>373</ele>
        <time>2025-10-19T12:27:00Z</time>
      </trkpt>
      <trkpt lat="43.21329" lon="5.47142">
        <ele>372.9</ele>
        <time>2025-10-19T12:27:01Z</time>
      </trkpt>
      <trkpt lat="43.21329" lon="5.47142">
        <ele>372.8</ele>
        <time>2025-10-19T12:27:02Z</time>
      </trkpt>
      <trkpt lat="43.21329" lon="5.47142">
        <ele>372.6</ele>
        <time>2025-10-19T12:27:03Z</time>
      </trkpt>
      <trkpt lat="43.21329" lon="5.47142">
        <ele>372.6</ele>
        <time>2025-10-19T12:27:04Z</time>
      </trkpt>
      <trkpt lat="43.21329" lon="5.47143">
        <ele>372.6</ele>
        <time>2025-10-19T12:27:05Z</time>
      </trkpt>
      <trkpt lat="43.21329" lon="5.47143">
        <ele>372.6</ele>
        <time>2025-10-19T12:27:06Z</time>
      </trkpt>
      <trkpt lat="43.21329" lon="5.47143">
        <ele>372.6</ele>
        <time>2025-10-19T12:27:07Z</time>
      </trkpt>
      <trkpt lat="43.21329" lon="5.47144">
        <ele>372.7</ele>
        <time>2025-10-19T12:27:08Z</time>
      </trkpt>
      <trkpt lat="43.21329" lon="5.47144">
        <ele>372.7</ele>
        <time>2025-10-19T12:27:09Z</time>
      </trkpt>
      <trkpt lat="43.21329" lon="5.47144">
        <ele>372.7</ele>
        <time>2025-10-19T12:27:10Z</time>
      </trkpt>
      <trkpt lat="43.21329" lon="5.47144">
        <ele>372.7</ele>
        <time>2025-10-19T12:27:11Z</time>
      </trkpt>
      <trkpt lat="43.21329" lon="5.47144">
        <ele>372.7</ele>
        <time>2025-10-19T12:27:12Z</time>
      </trkpt>
      <trkpt lat="43.21329" lon="5.47144">
        <ele>372.8</ele>
        <time>2025-10-19T12:27:13Z</time>
      </trkpt>
      <trkpt lat="43.21328" lon="5.47144">
        <ele>372.8</ele>
        <time>2025-10-19T12:27:14Z</time>
      </trkpt>
      <trkpt lat="43.21328" lon="5.47144">
        <ele>372.8</ele>
        <time>2025-10-19T12:27:15Z</time>
      </trkpt>
      <trkpt lat="43.21328" lon="5.47144">
        <ele>372.8</ele>
        <time>2025-10-19T12:27:16Z</time>
      </trkpt>
      <trkpt lat="43.21328" lon="5.47144">
        <ele>372.8</ele>
        <time>2025-10-19T12:27:17Z</time>
      </trkpt>
      <trkpt lat="43.21328" lon="5.47144">
        <ele>372.8</ele>
        <time>2025-10-19T12:27:18Z</time>
      </trkpt>
      <trkpt lat="43.21328" lon="5.47144">
        <ele>372.8</ele>
        <time>2025-10-19T12:27:19Z</time>
      </trkpt>
      <trkpt lat="43.21328" lon="5.47144">
        <ele>372.8</ele>
        <time>2025-10-19T12:27:20Z</time>
      </trkpt>
      <trkpt lat="43.21329" lon="5.47144">
        <ele>372.8</ele>
        <time>2025-10-19T12:27:21Z</time>
      </trkpt>
      <trkpt lat="43.21329" lon="5.47144">
        <ele>373</ele>
        <time>2025-10-19T12:27:22Z</time>
      </trkpt>
      <trkpt lat="43.21329" lon="5.47144">
        <ele>373.1</ele>
        <time>2025-10-19T12:27:23Z</time>
      </trkpt>
      <trkpt lat="43.21329" lon="5.47143">
        <ele>373.2</ele>
        <time>2025-10-19T12:27:24Z</time>
      </trkpt>
      <trkpt lat="43.21329" lon="5.47143">
        <ele>373.2</ele>
        <time>2025-10-19T12:27:25Z</time>
      </trkpt>
      <trkpt lat="43.21329" lon="5.47143">
        <ele>373.2</ele>
        <time>2025-10-19T12:27:26Z</time>
      </trkpt>
      <trkpt lat="43.21329" lon="5.47142">
        <ele>373.3</ele>
        <time>2025-10-19T12:27:27Z</time>
      </trkpt>
      <trkpt lat="43.21329" lon="5.47142">
        <ele>373.3</ele>
        <time>2025-10-19T12:27:28Z</time>
      </trkpt>
      <trkpt lat="43.2133" lon="5.47141">
        <ele>373.4</ele>
        <time>2025-10-19T12:27:29Z</time>
      </trkpt>
      <trkpt lat="43.2133" lon="5.47141">
        <ele>373.5</ele>
        <time>2025-10-19T12:27:30Z</time>
      </trkpt>
      <trkpt lat="43.2133" lon="5.47141">
        <ele>373.6</ele>
        <time>2025-10-19T12:27:31Z</time>
      </trkpt>
      <trkpt lat="43.2133" lon="5.47141">
        <ele>373.5</ele>
        <time>2025-10-19T12:27:32Z</time>
      </trkpt>
      <trkpt lat="43.2133" lon="5.47141">
        <ele>373.5</ele>
        <time>2025-10-19T12:27:33Z</time>
      </trkpt>
      <trkpt lat="43.2133" lon="5.47141">
        <ele>373.6</ele>
        <time>2025-10-19T12:27:34Z</time>
      </trkpt>
      <trkpt lat="43.2133" lon="5.47141">
        <ele>373.6</ele>
        <time>2025-10-19T12:27:35Z</time>
      </trkpt>
      <trkpt lat="43.2133" lon="5.47141">
        <ele>373.7</ele>
        <time>2025-10-19T12:27:36Z</time>
      </trkpt>
      <trkpt lat="43.2133" lon="5.47141">
        <ele>373.8</ele>
        <time>2025-10-19T12:27:37Z</time>
      </trkpt>
      <trkpt lat="43.2133" lon="5.47141">
        <ele>373.9</ele>
        <time>2025-10-19T12:27:38Z</time>
      </trkpt>
      <trkpt lat="43.2133" lon="5.47141">
        <ele>373.9</ele>
        <time>2025-10-19T12:27:39Z</time>
      </trkpt>
      <trkpt lat="43.2133" lon="5.47141">
        <ele>373.9</ele>
        <time>2025-10-19T12:27:40Z</time>
      </trkpt>
      <trkpt lat="43.2133" lon="5.47141">
        <ele>373.9</ele>
        <time>2025-10-19T12:27:41Z</time>
      </trkpt>
      <trkpt lat="43.2133" lon="5.4714">
        <ele>373.9</ele>
        <time>2025-10-19T12:27:42Z</time>
      </trkpt>
      <trkpt lat="43.2133" lon="5.47141">
        <ele>373.8</ele>
        <time>2025-10-19T12:27:43Z</time>
      </trkpt>
      <trkpt lat="43.2133" lon="5.4714">
        <ele>373.8</ele>
        <time>2025-10-19T12:27:44Z</time>
      </trkpt>
      <trkpt lat="43.21331" lon="5.4714">
        <ele>373.7</ele>
        <time>2025-10-19T12:27:45Z</time>
      </trkpt>
      <trkpt lat="43.21331" lon="5.4714">
        <ele>373.6</ele>
        <time>2025-10-19T12:27:46Z</time>
      </trkpt>
      <trkpt lat="43.21331" lon="5.4714">
        <ele>373.6</ele>
        <time>2025-10-19T12:27:47Z</time>
      </trkpt>
      <trkpt lat="43.21331" lon="5.4714">
        <ele>373.6</ele>
        <time>2025-10-19T12:27:48Z</time>
      </trkpt>
      <trkpt lat="43.21331" lon="5.4714">
        <ele>373.6</ele>
        <time>2025-10-19T12:27:49Z</time>
      </trkpt>
      <trkpt lat="43.21331" lon="5.4714">
        <ele>373.6</ele>
        <time>2025-10-19T12:27:50Z</time>
      </trkpt>
      <trkpt lat="43.21331" lon="5.4714">
        <ele>373.6</ele>
        <time>2025-10-19T12:27:51Z</time>
      </trkpt>
      <trkpt lat="43.21331" lon="5.4714">
        <ele>373.5</ele>
        <time>2025-10-19T12:27:52Z</time>
      </trkpt>
      <trkpt lat="43.21331" lon="5.4714">
        <ele>373.5</ele>
        <time>2025-10-19T12:27:53Z</time>
      </trkpt>
      <trkpt lat="43.21331" lon="5.4714">
        <ele>373.5</ele>
        <time>2025-10-19T12:27:54Z</time>
      </trkpt>
      <trkpt lat="43.21331" lon="5.4714">
        <ele>373.5</ele>
        <time>2025-10-19T12:27:55Z</time>
      </trkpt>
      <trkpt lat="43.21331" lon="5.4714">
        <ele>373.4</ele>
        <time>2025-10-19T12:27:56Z</time>
      </trkpt>
      <trkpt lat="43.21331" lon="5.4714">
        <ele>373.5</ele>
        <time>2025-10-19T12:27:57Z</time>
      </trkpt>
      <trkpt lat="43.21331" lon="5.4714">
        <ele>373.5</ele>
        <time>2025-10-19T12:27:58Z</time>
      </trkpt>
      <trkpt lat="43.21331" lon="5.4714">
        <ele>373.5</ele>
        <time>2025-10-19T12:27:59Z</time>
      </trkpt>
      <trkpt lat="43.2133" lon="5.4714">
        <ele>373.5</ele>
        <time>2025-10-19T12:28:00Z</time>
      </trkpt>
      <trkpt lat="43.2133" lon="5.4714">
        <ele>373.6</ele>
        <time>2025-10-19T12:28:01Z</time>
      </trkpt>
      <trkpt lat="43.2133" lon="5.4714">
        <ele>373.6</ele>
        <time>2025-10-19T12:28:02Z</time>
      </trkpt>
      <trkpt lat="43.2133" lon="5.4714">
        <ele>373.6</ele>
        <time>2025-10-19T12:28:03Z</time>
      </trkpt>
      <trkpt lat="43.2133" lon="5.4714">
        <ele>373.6</ele>
        <time>2025-10-19T12:28:04Z</time>
      </trkpt>
      <trkpt lat="43.2133" lon="5.4714">
        <ele>373.6</ele>
        <time>2025-10-19T12:28:05Z</time>
      </trkpt>
      <trkpt lat="43.2133" lon="5.4714">
        <ele>373.6</ele>
        <time>2025-10-19T12:28:06Z</time>
      </trkpt>
      <trkpt lat="43.2133" lon="5.4714">
        <ele>373.6</ele>
        <time>2025-10-19T12:28:07Z</time>
      </trkpt>
      <trkpt lat="43.2133" lon="5.4714">
        <ele>373.5</ele>
        <time>2025-10-19T12:28:08Z</time>
      </trkpt>
      <trkpt lat="43.2133" lon="5.4714">
        <ele>373.5</ele>
        <time>2025-10-19T12:28:09Z</time>
      </trkpt>
      <trkpt lat="43.2133" lon="5.4714">
        <ele>373.4</ele>
        <time>2025-10-19T12:28:10Z</time>
      </trkpt>
      <trkpt lat="43.2133" lon="5.47141">
        <ele>373.3</ele>
        <time>2025-10-19T12:28:11Z</time>
      </trkpt>
      <trkpt lat="43.2133" lon="5.4714">
        <ele>373.3</ele>
        <time>2025-10-19T12:28:12Z</time>
      </trkpt>
      <trkpt lat="43.2133" lon="5.4714">
        <ele>373.3</ele>
        <time>2025-10-19T12:28:13Z</time>
      </trkpt>
      <trkpt lat="43.2133" lon="5.4714">
        <ele>373.3</ele>
        <time>2025-10-19T12:28:14Z</time>
      </trkpt>
      <trkpt lat="43.2133" lon="5.4714">
        <ele>373.3</ele>
        <time>2025-10-19T12:28:15Z</time>
      </trkpt>
      <trkpt lat="43.2133" lon="5.4714">
        <ele>373.3</ele>
        <time>2025-10-19T12:28:16Z</time>
      </trkpt>
      <trkpt lat="43.2133" lon="5.4714">
        <ele>373.3</ele>
        <time>2025-10-19T12:28:17Z</time>
      </trkpt>
      <trkpt lat="43.2133" lon="5.4714">
        <ele>373.3</ele>
        <time>2025-10-19T12:28:18Z</time>
      </trkpt>
      <trkpt lat="43.2133" lon="5.4714">
        <ele>373.3</ele>
        <time>2025-10-19T12:28:19Z</time>
      </trkpt>
      <trkpt lat="43.2133" lon="5.4714">
        <ele>373.3</ele>
        <time>2025-10-19T12:28:20Z</time>
      </trkpt>
      <trkpt lat="43.2133" lon="5.47139">
        <ele>373.4</ele>
        <time>2025-10-19T12:28:21Z</time>
      </trkpt>
      <trkpt lat="43.2133" lon="5.47139">
        <ele>373.5</ele>
        <time>2025-10-19T12:28:22Z</time>
      </trkpt>
      <trkpt lat="43.2133" lon="5.47139">
        <ele>373.6</ele>
        <time>2025-10-19T12:28:23Z</time>
      </trkpt>
      <trkpt lat="43.21329" lon="5.47139">
        <ele>373.6</ele>
        <time>2025-10-19T12:28:24Z</time>
      </trkpt>
      <trkpt lat="43.21329" lon="5.47139">
        <ele>373.6</ele>
        <time>2025-10-19T12:28:25Z</time>
      </trkpt>
      <trkpt lat="43.21329" lon="5.47139">
        <ele>373.6</ele>
        <time>2025-10-19T12:28:26Z</time>
      </trkpt>
      <trkpt lat="43.21329" lon="5.47139">
        <ele>373.7</ele>
        <time>2025-10-19T12:28:27Z</time>
      </trkpt>
      <trkpt lat="43.21329" lon="5.47139">
        <ele>373.7</ele>
        <time>2025-10-19T12:28:28Z</time>
      </trkpt>
      <trkpt lat="43.21329" lon="5.47139">
        <ele>373.7</ele>
        <time>2025-10-19T12:28:29Z</time>
      </trkpt>
      <trkpt lat="43.21329" lon="5.47139">
        <ele>373.8</ele>
        <time>2025-10-19T12:28:30Z</time>
      </trkpt>
      <trkpt lat="43.21329" lon="5.47139">
        <ele>373.8</ele>
        <time>2025-10-19T12:28:31Z</time>
      </trkpt>
      <trkpt lat="43.21329" lon="5.47139">
        <ele>373.8</ele>
        <time>2025-10-19T12:28:32Z</time>
      </trkpt>
      <trkpt lat="43.21329" lon="5.47139">
        <ele>373.8</ele>
        <time>2025-10-19T12:28:33Z</time>
      </trkpt>
      <trkpt lat="43.21329" lon="5.47139">
        <ele>373.8</ele>
        <time>2025-10-19T12:28:34Z</time>
      </trkpt>
      <trkpt lat="43.21329" lon="5.47139">
        <ele>373.7</ele>
        <time>2025-10-19T12:28:35Z</time>
      </trkpt>
      <trkpt lat="43.21329" lon="5.47139">
        <ele>373.7</ele>
        <time>2025-10-19T12:28:36Z</time>
      </trkpt>
      <trkpt lat="43.21329" lon="5.47139">
        <ele>373.7</ele>
        <time>2025-10-19T12:28:37Z</time>
      </trkpt>
      <trkpt lat="43.21329" lon="5.47139">
        <ele>373.7</ele>
        <time>2025-10-19T12:28:38Z</time>
      </trkpt>
      <trkpt lat="43.21329" lon="5.47139">
        <ele>373.6</ele>
        <time>2025-10-19T12:28:39Z</time>
      </trkpt>
      <trkpt lat="43.21328" lon="5.47139">
        <ele>373.5</ele>
        <time>2025-10-19T12:28:40Z</time>
      </trkpt>
      <trkpt lat="43.21328" lon="5.47139">
        <ele>373.6</ele>
        <time>2025-10-19T12:28:41Z</time>
      </trkpt>
      <trkpt lat="43.21328" lon="5.47139">
        <ele>373.6</ele>
        <time>2025-10-19T12:28:42Z</time>
      </trkpt>
      <trkpt lat="43.21329" lon="5.47139">
        <ele>373.6</ele>
        <time>2025-10-19T12:28:43Z</time>
      </trkpt>
      <trkpt lat="43.21329" lon="5.47139">
        <ele>373.6</ele>
        <time>2025-10-19T12:28:44Z</time>
      </trkpt>
      <trkpt lat="43.21329" lon="5.47139">
        <ele>373.6</ele>
        <time>2025-10-19T12:28:45Z</time>
      </trkpt>
      <trkpt lat="43.21329" lon="5.47139">
        <ele>373.6</ele>
        <time>2025-10-19T12:28:46Z</time>
      </trkpt>
      <trkpt lat="43.21329" lon="5.47139">
        <ele>373.6</ele>
        <time>2025-10-19T12:28:47Z</time>
      </trkpt>
      <trkpt lat="43.21329" lon="5.47139">
        <ele>373.6</ele>
        <time>2025-10-19T12:28:48Z</time>
      </trkpt>
      <trkpt lat="43.21329" lon="5.4714">
        <ele>373.5</ele>
        <time>2025-10-19T12:28:49Z</time>
      </trkpt>
      <trkpt lat="43.2133" lon="5.4714">
        <ele>373.5</ele>
        <time>2025-10-19T12:28:50Z</time>
      </trkpt>
      <trkpt lat="43.2133" lon="5.47141">
        <ele>373.5</ele>
        <time>2025-10-19T12:28:51Z</time>
      </trkpt>
      <trkpt lat="43.2133" lon="5.47141">
        <ele>373.6</ele>
        <time>2025-10-19T12:28:52Z</time>
      </trkpt>
      <trkpt lat="43.21331" lon="5.47141">
        <ele>373.7</ele>
        <time>2025-10-19T12:28:53Z</time>
      </trkpt>
      <trkpt lat="43.21331" lon="5.47141">
        <ele>373.7</ele>
        <time>2025-10-19T12:28:54Z</time>
      </trkpt>
      <trkpt lat="43.21331" lon="5.47142">
        <ele>373.6</ele>
        <time>2025-10-19T12:28:55Z</time>
      </trkpt>
      <trkpt lat="43.21331" lon="5.47142">
        <ele>373.7</ele>
        <time>2025-10-19T12:28:56Z</time>
      </trkpt>
      <trkpt lat="43.21331" lon="5.47142">
        <ele>373.7</ele>
        <time>2025-10-19T12:28:57Z</time>
      </trkpt>
      <trkpt lat="43.21331" lon="5.47142">
        <ele>373.6</ele>
        <time>2025-10-19T12:28:58Z</time>
      </trkpt>
      <trkpt lat="43.21331" lon="5.47142">
        <ele>373.6</ele>
        <time>2025-10-19T12:28:59Z</time>
      </trkpt>
      <trkpt lat="43.21331" lon="5.47142">
        <ele>373.5</ele>
        <time>2025-10-19T12:29:00Z</time>
      </trkpt>
      <trkpt lat="43.21331" lon="5.47143">
        <ele>373.5</ele>
        <time>2025-10-19T12:29:01Z</time>
      </trkpt>
      <trkpt lat="43.21331" lon="5.47143">
        <ele>373.4</ele>
        <time>2025-10-19T12:29:02Z</time>
      </trkpt>
      <trkpt lat="43.21332" lon="5.47143">
        <ele>373.4</ele>
        <time>2025-10-19T12:29:03Z</time>
      </trkpt>
      <trkpt lat="43.21332" lon="5.47144">
        <ele>373.5</ele>
        <time>2025-10-19T12:29:04Z</time>
      </trkpt>
      <trkpt lat="43.21332" lon="5.47145">
        <ele>373.5</ele>
        <time>2025-10-19T12:29:05Z</time>
      </trkpt>
      <trkpt lat="43.21332" lon="5.47145">
        <ele>373.5</ele>
        <time>2025-10-19T12:29:06Z</time>
      </trkpt>
      <trkpt lat="43.21332" lon="5.47146">
        <ele>373.6</ele>
        <time>2025-10-19T12:29:07Z</time>
      </trkpt>
      <trkpt lat="43.21332" lon="5.47146">
        <ele>373.6</ele>
        <time>2025-10-19T12:29:08Z</time>
      </trkpt>
      <trkpt lat="43.21333" lon="5.47148">
        <ele>373.6</ele>
        <time>2025-10-19T12:29:09Z</time>
      </trkpt>
      <trkpt lat="43.21334" lon="5.47148">
        <ele>373.5</ele>
        <time>2025-10-19T12:29:10Z</time>
      </trkpt>
      <trkpt lat="43.21334" lon="5.47148">
        <ele>373.3</ele>
        <time>2025-10-19T12:29:11Z</time>
      </trkpt>
      <trkpt lat="43.21335" lon="5.47149">
        <ele>373.3</ele>
        <time>2025-10-19T12:29:12Z</time>
      </trkpt>
      <trkpt lat="43.21335" lon="5.4715">
        <ele>373.2</ele>
        <time>2025-10-19T12:29:13Z</time>
      </trkpt>
      <trkpt lat="43.21335" lon="5.4715">
        <ele>373.2</ele>
        <time>2025-10-19T12:29:14Z</time>
      </trkpt>
      <trkpt lat="43.21336" lon="5.4715">
        <ele>373.3</ele>
        <time>2025-10-19T12:29:15Z</time>
      </trkpt>
      <trkpt lat="43.21336" lon="5.4715">
        <ele>373.4</ele>
        <time>2025-10-19T12:29:16Z</time>
      </trkpt>
      <trkpt lat="43.21336" lon="5.4715">
        <ele>373.4</ele>
        <time>2025-10-19T12:29:17Z</time>
      </trkpt>
      <trkpt lat="43.21336" lon="5.4715">
        <ele>373.5</ele>
        <time>2025-10-19T12:29:18Z</time>
      </trkpt>
      <trkpt lat="43.21336" lon="5.4715">
        <ele>373.5</ele>
        <time>2025-10-19T12:29:19Z</time>
      </trkpt>
      <trkpt lat="43.21336" lon="5.4715">
        <ele>373.6</ele>
        <time>2025-10-19T12:29:20Z</time>
      </trkpt>
      <trkpt lat="43.21337" lon="5.4715">
        <ele>373.6</ele>
        <time>2025-10-19T12:29:21Z</time>
      </trkpt>
      <trkpt lat="43.21337" lon="5.4715">
        <ele>373.5</ele>
        <time>2025-10-19T12:29:22Z</time>
      </trkpt>
      <trkpt lat="43.21337" lon="5.4715">
        <ele>373.5</ele>
        <time>2025-10-19T12:29:23Z</time>
      </trkpt>
      <trkpt lat="43.21337" lon="5.4715">
        <ele>373.6</ele>
        <time>2025-10-19T12:29:24Z</time>
      </trkpt>
      <trkpt lat="43.21337" lon="5.4715">
        <ele>373.6</ele>
        <time>2025-10-19T12:29:25Z</time>
      </trkpt>
      <trkpt lat="43.21337" lon="5.4715">
        <ele>373.5</ele>
        <time>2025-10-19T12:29:26Z</time>
      </trkpt>
      <trkpt lat="43.21337" lon="5.4715">
        <ele>373.5</ele>
        <time>2025-10-19T12:29:27Z</time>
      </trkpt>
      <trkpt lat="43.21337" lon="5.47149">
        <ele>373.5</ele>
        <time>2025-10-19T12:29:28Z</time>
      </trkpt>
      <trkpt lat="43.21337" lon="5.47149">
        <ele>373.5</ele>
        <time>2025-10-19T12:29:29Z</time>
      </trkpt>
      <trkpt lat="43.21337" lon="5.4715">
        <ele>373.5</ele>
        <time>2025-10-19T12:29:30Z</time>
      </trkpt>
      <trkpt lat="43.21337" lon="5.4715">
        <ele>373.5</ele>
        <time>2025-10-19T12:29:31Z</time>
      </trkpt>
      <trkpt lat="43.21338" lon="5.47151">
        <ele>373.5</ele>
        <time>2025-10-19T12:29:32Z</time>
      </trkpt>
      <trkpt lat="43.21338" lon="5.47151">
        <ele>373.5</ele>
        <time>2025-10-19T12:29:33Z</time>
      </trkpt>
      <trkpt lat="43.21338" lon="5.47152">
        <ele>373.5</ele>
        <time>2025-10-19T12:29:34Z</time>
      </trkpt>
      <trkpt lat="43.21339" lon="5.47152">
        <ele>373.5</ele>
        <time>2025-10-19T12:29:35Z</time>
      </trkpt>
      <trkpt lat="43.21339" lon="5.47153">
        <ele>373.6</ele>
        <time>2025-10-19T12:29:36Z</time>
      </trkpt>
      <trkpt lat="43.21339" lon="5.47154">
        <ele>373.6</ele>
        <time>2025-10-19T12:29:37Z</time>
      </trkpt>
      <trkpt lat="43.2134" lon="5.47154">
        <ele>373.6</ele>
        <time>2025-10-19T12:29:38Z</time>
      </trkpt>
      <trkpt lat="43.2134" lon="5.47155">
        <ele>373.5</ele>
        <time>2025-10-19T12:29:39Z</time>
      </trkpt>
      <trkpt lat="43.21341" lon="5.47155">
        <ele>373.4</ele>
        <time>2025-10-19T12:29:40Z</time>
      </trkpt>
      <trkpt lat="43.21341" lon="5.47155">
        <ele>373.4</ele>
        <time>2025-10-19T12:29:41Z</time>
      </trkpt>
      <trkpt lat="43.21341" lon="5.47156">
        <ele>373.4</ele>
        <time>2025-10-19T12:29:42Z</time>
      </trkpt>
      <trkpt lat="43.21342" lon="5.47156">
        <ele>373.4</ele>
        <time>2025-10-19T12:29:43Z</time>
      </trkpt>
      <trkpt lat="43.21342" lon="5.47157">
        <ele>373.4</ele>
        <time>2025-10-19T12:29:44Z</time>
      </trkpt>
      <trkpt lat="43.21342" lon="5.47157">
        <ele>373.3</ele>
        <time>2025-10-19T12:29:45Z</time>
      </trkpt>
      <trkpt lat="43.21342" lon="5.47157">
        <ele>373.2</ele>
        <time>2025-10-19T12:29:46Z</time>
      </trkpt>
      <trkpt lat="43.21342" lon="5.47157">
        <ele>373.2</ele>
        <time>2025-10-19T12:29:47Z</time>
      </trkpt>
      <trkpt lat="43.21342" lon="5.47157">
        <ele>373.2</ele>
        <time>2025-10-19T12:29:48Z</time>
      </trkpt>
      <trkpt lat="43.21342" lon="5.47157">
        <ele>373.2</ele>
        <time>2025-10-19T12:29:49Z</time>
      </trkpt>
      <trkpt lat="43.21342" lon="5.47157">
        <ele>373.1</ele>
        <time>2025-10-19T12:29:50Z</time>
      </trkpt>
      <trkpt lat="43.21343" lon="5.47157">
        <ele>373.1</ele>
        <time>2025-10-19T12:29:51Z</time>
      </trkpt>
      <trkpt lat="43.21343" lon="5.47157">
        <ele>373.1</ele>
        <time>2025-10-19T12:29:52Z</time>
      </trkpt>
      <trkpt lat="43.21343" lon="5.47157">
        <ele>373.1</ele>
        <time>2025-10-19T12:29:53Z</time>
      </trkpt>
      <trkpt lat="43.21343" lon="5.47157">
        <ele>373.2</ele>
        <time>2025-10-19T12:29:54Z</time>
      </trkpt>
      <trkpt lat="43.21343" lon="5.47158">
        <ele>373.4</ele>
        <time>2025-10-19T12:29:55Z</time>
      </trkpt>
      <trkpt lat="43.21343" lon="5.47158">
        <ele>373.5</ele>
        <time>2025-10-19T12:29:56Z</time>
      </trkpt>
      <trkpt lat="43.21343" lon="5.47158">
        <ele>373.6</ele>
        <time>2025-10-19T12:29:57Z</time>
      </trkpt>
      <trkpt lat="43.21343" lon="5.47158">
        <ele>373.7</ele>
        <time>2025-10-19T12:29:58Z</time>
      </trkpt>
      <trkpt lat="43.21343" lon="5.47158">
        <ele>373.7</ele>
        <time>2025-10-19T12:29:59Z</time>
      </trkpt>
      <trkpt lat="43.21343" lon="5.47157">
        <ele>373.8</ele>
        <time>2025-10-19T12:30:00Z</time>
      </trkpt>
      <trkpt lat="43.21343" lon="5.47157">
        <ele>373.9</ele>
        <time>2025-10-19T12:30:01Z</time>
      </trkpt>
      <trkpt lat="43.21343" lon="5.47157">
        <ele>374</ele>
        <time>2025-10-19T12:30:02Z</time>
      </trkpt>
      <trkpt lat="43.21343" lon="5.47157">
        <ele>374.1</ele>
        <time>2025-10-19T12:30:03Z</time>
      </trkpt>
      <trkpt lat="43.21343" lon="5.47157">
        <ele>374.2</ele>
        <time>2025-10-19T12:30:04Z</time>
      </trkpt>
      <trkpt lat="43.21343" lon="5.47157">
        <ele>374.1</ele>
        <time>2025-10-19T12:30:05Z</time>
      </trkpt>
      <trkpt lat="43.21343" lon="5.47157">
        <ele>374.1</ele>
        <time>2025-10-19T12:30:06Z</time>
      </trkpt>
      <trkpt lat="43.21343" lon="5.47157">
        <ele>374.1</ele>
        <time>2025-10-19T12:30:07Z</time>
      </trkpt>
      <trkpt lat="43.21343" lon="5.47157">
        <ele>374.1</ele>
        <time>2025-10-19T12:30:08Z</time>
      </trkpt>
      <trkpt lat="43.21343" lon="5.47157">
        <ele>374.1</ele>
        <time>2025-10-19T12:30:09Z</time>
      </trkpt>
      <trkpt lat="43.21343" lon="5.47157">
        <ele>374.1</ele>
        <time>2025-10-19T12:30:10Z</time>
      </trkpt>
      <trkpt lat="43.21343" lon="5.47157">
        <ele>373.9</ele>
        <time>2025-10-19T12:30:11Z</time>
      </trkpt>
      <trkpt lat="43.21343" lon="5.47157">
        <ele>373.8</ele>
        <time>2025-10-19T12:30:12Z</time>
      </trkpt>
      <trkpt lat="43.21343" lon="5.47157">
        <ele>373.9</ele>
        <time>2025-10-19T12:30:13Z</time>
      </trkpt>
      <trkpt lat="43.21344" lon="5.47157">
        <ele>373.9</ele>
        <time>2025-10-19T12:30:14Z</time>
      </trkpt>
      <trkpt lat="43.21344" lon="5.47157">
        <ele>373.9</ele>
        <time>2025-10-19T12:30:15Z</time>
      </trkpt>
      <trkpt lat="43.21344" lon="5.47156">
        <ele>373.9</ele>
        <time>2025-10-19T12:30:16Z</time>
      </trkpt>
      <trkpt lat="43.21344" lon="5.47157">
        <ele>373.9</ele>
        <time>2025-10-19T12:30:17Z</time>
      </trkpt>
      <trkpt lat="43.21344" lon="5.47157">
        <ele>373.9</ele>
        <time>2025-10-19T12:30:18Z</time>
      </trkpt>
      <trkpt lat="43.21344" lon="5.47157">
        <ele>373.9</ele>
        <time>2025-10-19T12:30:19Z</time>
      </trkpt>
      <trkpt lat="43.21344" lon="5.47157">
        <ele>373.9</ele>
        <time>2025-10-19T12:30:20Z</time>
      </trkpt>
      <trkpt lat="43.21345" lon="5.47158">
        <ele>373.9</ele>
        <time>2025-10-19T12:30:21Z</time>
      </trkpt>
      <trkpt lat="43.21345" lon="5.47158">
        <ele>373.9</ele>
        <time>2025-10-19T12:30:22Z</time>
      </trkpt>
      <trkpt lat="43.21345" lon="5.47159">
        <ele>373.9</ele>
        <time>2025-10-19T12:30:23Z</time>
      </trkpt>
      <trkpt lat="43.21346" lon="5.47159">
        <ele>373.9</ele>
        <time>2025-10-19T12:30:24Z</time>
      </trkpt>
      <trkpt lat="43.21346" lon="5.47159">
        <ele>373.8</ele>
        <time>2025-10-19T12:30:25Z</time>
      </trkpt>
      <trkpt lat="43.21346" lon="5.4716">
        <ele>373.7</ele>
        <time>2025-10-19T12:30:26Z</time>
      </trkpt>
      <trkpt lat="43.21346" lon="5.4716">
        <ele>373.7</ele>
        <time>2025-10-19T12:30:27Z</time>
      </trkpt>
      <trkpt lat="43.21346" lon="5.4716">
        <ele>373.7</ele>
        <time>2025-10-19T12:30:28Z</time>
      </trkpt>
      <trkpt lat="43.21346" lon="5.4716">
        <ele>373.7</ele>
        <time>2025-10-19T12:30:29Z</time>
      </trkpt>
      <trkpt lat="43.21346" lon="5.4716">
        <ele>373.8</ele>
        <time>2025-10-19T12:30:30Z</time>
      </trkpt>
      <trkpt lat="43.21346" lon="5.4716">
        <ele>373.8</ele>
        <time>2025-10-19T12:30:31Z</time>
      </trkpt>
      <trkpt lat="43.21346" lon="5.4716">
        <ele>373.7</ele>
        <time>2025-10-19T12:30:32Z</time>
      </trkpt>
      <trkpt lat="43.21346" lon="5.4716">
        <ele>373.7</ele>
        <time>2025-10-19T12:30:33Z</time>
      </trkpt>
      <trkpt lat="43.21346" lon="5.4716">
        <ele>373.7</ele>
        <time>2025-10-19T12:30:34Z</time>
      </trkpt>
      <trkpt lat="43.21346" lon="5.4716">
        <ele>373.7</ele>
        <time>2025-10-19T12:30:35Z</time>
      </trkpt>
      <trkpt lat="43.21346" lon="5.4716">
        <ele>373.8</ele>
        <time>2025-10-19T12:30:36Z</time>
      </trkpt>
      <trkpt lat="43.21346" lon="5.47161">
        <ele>373.9</ele>
        <time>2025-10-19T12:30:37Z</time>
      </trkpt>
      <trkpt lat="43.21346" lon="5.4716">
        <ele>373.9</ele>
        <time>2025-10-19T12:30:38Z</time>
      </trkpt>
      <trkpt lat="43.21346" lon="5.4716">
        <ele>374</ele>
        <time>2025-10-19T12:30:39Z</time>
      </trkpt>
      <trkpt lat="43.21346" lon="5.4716">
        <ele>374.1</ele>
        <time>2025-10-19T12:30:40Z</time>
      </trkpt>
      <trkpt lat="43.21346" lon="5.47161">
        <ele>374.1</ele>
        <time>2025-10-19T12:30:41Z</time>
      </trkpt>
      <trkpt lat="43.21346" lon="5.47161">
        <ele>374.1</ele>
        <time>2025-10-19T12:30:42Z</time>
      </trkpt>
      <trkpt lat="43.21346" lon="5.47161">
        <ele>374.1</ele>
        <time>2025-10-19T12:30:43Z</time>
      </trkpt>
      <trkpt lat="43.21346" lon="5.47161">
        <ele>374</ele>
        <time>2025-10-19T12:30:44Z</time>
      </trkpt>
      <trkpt lat="43.21346" lon="5.47161">
        <ele>373.9</ele>
        <time>2025-10-19T12:30:45Z</time>
      </trkpt>
      <trkpt lat="43.21346" lon="5.47161">
        <ele>373.9</ele>
        <time>2025-10-19T12:30:46Z</time>
      </trkpt>
      <trkpt lat="43.21346" lon="5.47161">
        <ele>373.8</ele>
        <time>2025-10-19T12:30:47Z</time>
      </trkpt>
      <trkpt lat="43.21346" lon="5.4716">
        <ele>373.8</ele>
        <time>2025-10-19T12:30:48Z</time>
      </trkpt>
      <trkpt lat="43.21346" lon="5.47161">
        <ele>373.7</ele>
        <time>2025-10-19T12:30:49Z</time>
      </trkpt>
      <trkpt lat="43.21346" lon="5.47161">
        <ele>373.7</ele>
        <time>2025-10-19T12:30:50Z</time>
      </trkpt>
      <trkpt lat="43.21346" lon="5.47161">
        <ele>373.6</ele>
        <time>2025-10-19T12:30:51Z</time>
      </trkpt>
      <trkpt lat="43.21346" lon="5.47161">
        <ele>373.7</ele>
        <time>2025-10-19T12:30:52Z</time>
      </trkpt>
      <trkpt lat="43.21345" lon="5.47161">
        <ele>373.5</ele>
        <time>2025-10-19T12:30:53Z</time>
      </trkpt>
      <trkpt lat="43.21345" lon="5.47161">
        <ele>373.5</ele>
        <time>2025-10-19T12:30:54Z</time>
      </trkpt>
      <trkpt lat="43.21345" lon="5.4716">
        <ele>373.5</ele>
        <time>2025-10-19T12:30:55Z</time>
      </trkpt>
      <trkpt lat="43.21345" lon="5.4716">
        <ele>373.5</ele>
        <time>2025-10-19T12:30:56Z</time>
      </trkpt>
      <trkpt lat="43.21345" lon="5.47159">
        <ele>373.5</ele>
        <time>2025-10-19T12:30:57Z</time>
      </trkpt>
      <trkpt lat="43.21346" lon="5.47159">
        <ele>373.6</ele>
        <time>2025-10-19T12:30:58Z</time>
      </trkpt>
      <trkpt lat="43.21346" lon="5.47159">
        <ele>373.7</ele>
        <time>2025-10-19T12:30:59Z</time>
      </trkpt>
      <trkpt lat="43.21346" lon="5.47159">
        <ele>373.7</ele>
        <time>2025-10-19T12:31:00Z</time>
      </trkpt>
      <trkpt lat="43.21346" lon="5.47159">
        <ele>373.8</ele>
        <time>2025-10-19T12:31:01Z</time>
      </trkpt>
      <trkpt lat="43.21346" lon="5.47159">
        <ele>373.8</ele>
        <time>2025-10-19T12:31:02Z</time>
      </trkpt>
      <trkpt lat="43.21346" lon="5.47158">
        <ele>374</ele>
        <time>2025-10-19T12:31:03Z</time>
      </trkpt>
      <trkpt lat="43.21346" lon="5.47158">
        <ele>374</ele>
        <time>2025-10-19T12:31:04Z</time>
      </trkpt>
      <trkpt lat="43.21346" lon="5.47158">
        <ele>374</ele>
        <time>2025-10-19T12:31:05Z</time>
      </trkpt>
      <trkpt lat="43.21346" lon="5.47158">
        <ele>374.1</ele>
        <time>2025-10-19T12:31:06Z</time>
      </trkpt>
      <trkpt lat="43.21346" lon="5.47158">
        <ele>374.1</ele>
        <time>2025-10-19T12:31:07Z</time>
      </trkpt>
      <trkpt lat="43.21346" lon="5.47157">
        <ele>374</ele>
        <time>2025-10-19T12:31:08Z</time>
      </trkpt>
      <trkpt lat="43.21345" lon="5.47157">
        <ele>374</ele>
        <time>2025-10-19T12:31:09Z</time>
      </trkpt>
      <trkpt lat="43.21345" lon="5.47156">
        <ele>374</ele>
        <time>2025-10-19T12:31:10Z</time>
      </trkpt>
      <trkpt lat="43.21345" lon="5.47156">
        <ele>374</ele>
        <time>2025-10-19T12:31:11Z</time>
      </trkpt>
      <trkpt lat="43.21345" lon="5.47156">
        <ele>373.9</ele>
        <time>2025-10-19T12:31:12Z</time>
      </trkpt>
      <trkpt lat="43.21345" lon="5.47156">
        <ele>373.9</ele>
        <time>2025-10-19T12:31:13Z</time>
      </trkpt>
      <trkpt lat="43.21345" lon="5.47156">
        <ele>373.9</ele>
        <time>2025-10-19T12:31:14Z</time>
      </trkpt>
      <trkpt lat="43.21345" lon="5.47156">
        <ele>373.9</ele>
        <time>2025-10-19T12:31:15Z</time>
      </trkpt>
      <trkpt lat="43.21345" lon="5.47156">
        <ele>374</ele>
        <time>2025-10-19T12:31:16Z</time>
      </trkpt>
      <trkpt lat="43.21345" lon="5.47156">
        <ele>374</ele>
        <time>2025-10-19T12:31:17Z</time>
      </trkpt>
      <trkpt lat="43.21345" lon="5.47155">
        <ele>374.1</ele>
        <time>2025-10-19T12:31:18Z</time>
      </trkpt>
      <trkpt lat="43.21345" lon="5.47155">
        <ele>374.2</ele>
        <time>2025-10-19T12:31:19Z</time>
      </trkpt>
      <trkpt lat="43.21345" lon="5.47155">
        <ele>374.2</ele>
        <time>2025-10-19T12:31:20Z</time>
      </trkpt>
      <trkpt lat="43.21345" lon="5.47155">
        <ele>374.2</ele>
        <time>2025-10-19T12:31:21Z</time>
      </trkpt>
      <trkpt lat="43.21345" lon="5.47155">
        <ele>374.3</ele>
        <time>2025-10-19T12:31:22Z</time>
      </trkpt>
      <trkpt lat="43.21345" lon="5.47155">
        <ele>374.3</ele>
        <time>2025-10-19T12:31:23Z</time>
      </trkpt>
      <trkpt lat="43.21345" lon="5.47155">
        <ele>374.2</ele>
        <time>2025-10-19T12:31:24Z</time>
      </trkpt>
      <trkpt lat="43.21345" lon="5.47155">
        <ele>374.1</ele>
        <time>2025-10-19T12:31:25Z</time>
      </trkpt>
      <trkpt lat="43.21345" lon="5.47155">
        <ele>374</ele>
        <time>2025-10-19T12:31:26Z</time>
      </trkpt>
      <trkpt lat="43.21345" lon="5.47155">
        <ele>373.9</ele>
        <time>2025-10-19T12:31:27Z</time>
      </trkpt>
      <trkpt lat="43.21345" lon="5.47155">
        <ele>373.9</ele>
        <time>2025-10-19T12:31:28Z</time>
      </trkpt>
      <trkpt lat="43.21345" lon="5.47155">
        <ele>373.9</ele>
        <time>2025-10-19T12:31:29Z</time>
      </trkpt>
      <trkpt lat="43.21345" lon="5.47155">
        <ele>373.9</ele>
        <time>2025-10-19T12:31:30Z</time>
      </trkpt>
      <trkpt lat="43.21345" lon="5.47155">
        <ele>373.9</ele>
        <time>2025-10-19T12:31:31Z</time>
      </trkpt>
      <trkpt lat="43.21345" lon="5.47155">
        <ele>373.9</ele>
        <time>2025-10-19T12:31:32Z</time>
      </trkpt>
      <trkpt lat="43.21346" lon="5.47155">
        <ele>373.9</ele>
        <time>2025-10-19T12:31:33Z</time>
      </trkpt>
      <trkpt lat="43.21346" lon="5.47155">
        <ele>373.9</ele>
        <time>2025-10-19T12:31:34Z</time>
      </trkpt>
      <trkpt lat="43.21346" lon="5.47155">
        <ele>373.9</ele>
        <time>2025-10-19T12:31:35Z</time>
      </trkpt>
      <trkpt lat="43.21346" lon="5.47155">
        <ele>374</ele>
        <time>2025-10-19T12:31:36Z</time>
      </trkpt>
      <trkpt lat="43.21346" lon="5.47155">
        <ele>374</ele>
        <time>2025-10-19T12:31:37Z</time>
      </trkpt>
      <trkpt lat="43.21346" lon="5.47155">
        <ele>374</ele>
        <time>2025-10-19T12:31:38Z</time>
      </trkpt>
      <trkpt lat="43.21346" lon="5.47155">
        <ele>374</ele>
        <time>2025-10-19T12:31:39Z</time>
      </trkpt>
      <trkpt lat="43.21346" lon="5.47154">
        <ele>374</ele>
        <time>2025-10-19T12:31:40Z</time>
      </trkpt>
      <trkpt lat="43.21346" lon="5.47154">
        <ele>373.9</ele>
        <time>2025-10-19T12:31:41Z</time>
      </trkpt>
      <trkpt lat="43.21346" lon="5.47154">
        <ele>373.9</ele>
        <time>2025-10-19T12:31:42Z</time>
      </trkpt>
      <trkpt lat="43.21346" lon="5.47154">
        <ele>373.8</ele>
        <time>2025-10-19T12:31:43Z</time>
      </trkpt>
      <trkpt lat="43.21346" lon="5.47154">
        <ele>373.8</ele>
        <time>2025-10-19T12:31:44Z</time>
      </trkpt>
      <trkpt lat="43.21346" lon="5.47154">
        <ele>373.8</ele>
        <time>2025-10-19T12:31:45Z</time>
      </trkpt>
      <trkpt lat="43.21346" lon="5.47154">
        <ele>373.8</ele>
        <time>2025-10-19T12:31:46Z</time>
      </trkpt>
      <trkpt lat="43.21346" lon="5.47154">
        <ele>373.7</ele>
        <time>2025-10-19T12:31:47Z</time>
      </trkpt>
      <trkpt lat="43.21346" lon="5.47154">
        <ele>373.7</ele>
        <time>2025-10-19T12:31:48Z</time>
      </trkpt>
      <trkpt lat="43.21346" lon="5.47154">
        <ele>373.7</ele>
        <time>2025-10-19T12:31:49Z</time>
      </trkpt>
      <trkpt lat="43.21346" lon="5.47154">
        <ele>373.6</ele>
        <time>2025-10-19T12:31:50Z</time>
      </trkpt>
      <trkpt lat="43.21346" lon="5.47154">
        <ele>373.6</ele>
        <time>2025-10-19T12:31:51Z</time>
      </trkpt>
      <trkpt lat="43.21346" lon="5.47154">
        <ele>373.7</ele>
        <time>2025-10-19T12:31:52Z</time>
      </trkpt>
      <trkpt lat="43.21346" lon="5.47154">
        <ele>373.8</ele>
        <time>2025-10-19T12:31:53Z</time>
      </trkpt>
      <trkpt lat="43.21346" lon="5.47154">
        <ele>373.8</ele>
        <time>2025-10-19T12:31:54Z</time>
      </trkpt>
      <trkpt lat="43.21346" lon="5.47154">
        <ele>373.9</ele>
        <time>2025-10-19T12:31:55Z</time>
      </trkpt>
      <trkpt lat="43.21346" lon="5.47154">
        <ele>373.9</ele>
        <time>2025-10-19T12:31:56Z</time>
      </trkpt>
      <trkpt lat="43.21346" lon="5.47154">
        <ele>374</ele>
        <time>2025-10-19T12:31:57Z</time>
      </trkpt>
      <trkpt lat="43.21346" lon="5.47154">
        <ele>374</ele>
        <time>2025-10-19T12:31:58Z</time>
      </trkpt>
      <trkpt lat="43.21346" lon="5.47154">
        <ele>374</ele>
        <time>2025-10-19T12:31:59Z</time>
      </trkpt>
      <trkpt lat="43.21345" lon="5.47154">
        <ele>374</ele>
        <time>2025-10-19T12:32:00Z</time>
      </trkpt>
      <trkpt lat="43.21346" lon="5.47154">
        <ele>374</ele>
        <time>2025-10-19T12:32:01Z</time>
      </trkpt>
      <trkpt lat="43.21346" lon="5.47154">
        <ele>374.1</ele>
        <time>2025-10-19T12:32:02Z</time>
      </trkpt>
      <trkpt lat="43.21346" lon="5.47154">
        <ele>374.1</ele>
        <time>2025-10-19T12:32:03Z</time>
      </trkpt>
      <trkpt lat="43.21346" lon="5.47154">
        <ele>374.1</ele>
        <time>2025-10-19T12:32:04Z</time>
      </trkpt>
      <trkpt lat="43.21346" lon="5.47154">
        <ele>374.1</ele>
        <time>2025-10-19T12:32:05Z</time>
      </trkpt>
      <trkpt lat="43.21346" lon="5.47154">
        <ele>374.1</ele>
        <time>2025-10-19T12:32:06Z</time>
      </trkpt>
      <trkpt lat="43.21346" lon="5.47154">
        <ele>374.1</ele>
        <time>2025-10-19T12:32:07Z</time>
      </trkpt>
      <trkpt lat="43.21346" lon="5.47154">
        <ele>374.1</ele>
        <time>2025-10-19T12:32:08Z</time>
      </trkpt>
      <trkpt lat="43.21346" lon="5.47154">
        <ele>374.2</ele>
        <time>2025-10-19T12:32:09Z</time>
      </trkpt>
      <trkpt lat="43.21346" lon="5.47154">
        <ele>374.2</ele>
        <time>2025-10-19T12:32:10Z</time>
      </trkpt>
      <trkpt lat="43.21346" lon="5.47154">
        <ele>374.2</ele>
        <time>2025-10-19T12:32:11Z</time>
      </trkpt>
      <trkpt lat="43.21346" lon="5.47154">
        <ele>374.3</ele>
        <time>2025-10-19T12:32:12Z</time>
      </trkpt>
      <trkpt lat="43.21346" lon="5.47154">
        <ele>374.4</ele>
        <time>2025-10-19T12:32:13Z</time>
      </trkpt>
      <trkpt lat="43.21346" lon="5.47154">
        <ele>374.5</ele>
        <time>2025-10-19T12:32:14Z</time>
      </trkpt>
      <trkpt lat="43.21346" lon="5.47154">
        <ele>374.5</ele>
        <time>2025-10-19T12:32:15Z</time>
      </trkpt>
      <trkpt lat="43.21345" lon="5.47154">
        <ele>374.5</ele>
        <time>2025-10-19T12:32:16Z</time>
      </trkpt>
      <trkpt lat="43.21345" lon="5.47154">
        <ele>374.6</ele>
        <time>2025-10-19T12:32:17Z</time>
      </trkpt>
      <trkpt lat="43.21345" lon="5.47154">
        <ele>374.6</ele>
        <time>2025-10-19T12:32:18Z</time>
      </trkpt>
      <trkpt lat="43.21345" lon="5.47154">
        <ele>374.7</ele>
        <time>2025-10-19T12:32:19Z</time>
      </trkpt>
      <trkpt lat="43.21345" lon="5.47153">
        <ele>374.7</ele>
        <time>2025-10-19T12:32:20Z</time>
      </trkpt>
      <trkpt lat="43.21345" lon="5.47153">
        <ele>374.8</ele>
        <time>2025-10-19T12:32:21Z</time>
      </trkpt>
      <trkpt lat="43.21345" lon="5.47153">
        <ele>374.8</ele>
        <time>2025-10-19T12:32:22Z</time>
      </trkpt>
      <trkpt lat="43.21345" lon="5.47153">
        <ele>374.8</ele>
        <time>2025-10-19T12:32:23Z</time>
      </trkpt>
      <trkpt lat="43.21345" lon="5.47153">
        <ele>374.8</ele>
        <time>2025-10-19T12:32:24Z</time>
      </trkpt>
      <trkpt lat="43.21345" lon="5.47153">
        <ele>374.8</ele>
        <time>2025-10-19T12:32:25Z</time>
      </trkpt>
      <trkpt lat="43.21345" lon="5.47153">
        <ele>374.7</ele>
        <time>2025-10-19T12:32:26Z</time>
      </trkpt>
      <trkpt lat="43.21345" lon="5.47154">
        <ele>374.7</ele>
        <time>2025-10-19T12:32:27Z</time>
      </trkpt>
      <trkpt lat="43.21345" lon="5.47154">
        <ele>374.7</ele>
        <time>2025-10-19T12:32:28Z</time>
      </trkpt>
      <trkpt lat="43.21345" lon="5.47155">
        <ele>374.6</ele>
        <time>2025-10-19T12:32:29Z</time>
      </trkpt>
      <trkpt lat="43.21346" lon="5.47155">
        <ele>374.6</ele>
        <time>2025-10-19T12:32:30Z</time>
      </trkpt>
      <trkpt lat="43.21346" lon="5.47156">
        <ele>374.5</ele>
        <time>2025-10-19T12:32:31Z</time>
      </trkpt>
      <trkpt lat="43.21346" lon="5.47156">
        <ele>374.5</ele>
        <time>2025-10-19T12:32:32Z</time>
      </trkpt>
      <trkpt lat="43.21346" lon="5.47157">
        <ele>374.6</ele>
        <time>2025-10-19T12:32:33Z</time>
      </trkpt>
      <trkpt lat="43.21346" lon="5.47157">
        <ele>374.6</ele>
        <time>2025-10-19T12:32:34Z</time>
      </trkpt>
      <trkpt lat="43.21346" lon="5.47157">
        <ele>374.6</ele>
        <time>2025-10-19T12:32:35Z</time>
      </trkpt>
      <trkpt lat="43.21346" lon="5.47157">
        <ele>374.7</ele>
        <time>2025-10-19T12:32:36Z</time>
      </trkpt>
      <trkpt lat="43.21346" lon="5.47157">
        <ele>374.7</ele>
        <time>2025-10-19T12:32:37Z</time>
      </trkpt>
      <trkpt lat="43.21346" lon="5.47157">
        <ele>374.7</ele>
        <time>2025-10-19T12:32:38Z</time>
      </trkpt>
      <trkpt lat="43.21346" lon="5.47157">
        <ele>374.7</ele>
        <time>2025-10-19T12:32:39Z</time>
      </trkpt>
      <trkpt lat="43.21345" lon="5.47157">
        <ele>374.7</ele>
        <time>2025-10-19T12:32:40Z</time>
      </trkpt>
      <trkpt lat="43.21345" lon="5.47157">
        <ele>374.7</ele>
        <time>2025-10-19T12:32:41Z</time>
      </trkpt>
      <trkpt lat="43.21345" lon="5.47158">
        <ele>374.7</ele>
        <time>2025-10-19T12:32:42Z</time>
      </trkpt>
      <trkpt lat="43.21345" lon="5.47158">
        <ele>374.6</ele>
        <time>2025-10-19T12:32:43Z</time>
      </trkpt>
      <trkpt lat="43.21346" lon="5.47159">
        <ele>374.7</ele>
        <time>2025-10-19T12:32:44Z</time>
      </trkpt>
      <trkpt lat="43.21346" lon="5.47159">
        <ele>374.7</ele>
        <time>2025-10-19T12:32:45Z</time>
      </trkpt>
      <trkpt lat="43.21346" lon="5.47159">
        <ele>374.7</ele>
        <time>2025-10-19T12:32:46Z</time>
      </trkpt>
      <trkpt lat="43.21346" lon="5.47159">
        <ele>374.6</ele>
        <time>2025-10-19T12:32:47Z</time>
      </trkpt>
      <trkpt lat="43.21346" lon="5.47159">
        <ele>374.5</ele>
        <time>2025-10-19T12:32:48Z</time>
      </trkpt>
      <trkpt lat="43.21346" lon="5.47159">
        <ele>374.5</ele>
        <time>2025-10-19T12:32:49Z</time>
      </trkpt>
      <trkpt lat="43.21346" lon="5.47159">
        <ele>374.5</ele>
        <time>2025-10-19T12:32:50Z</time>
      </trkpt>
      <trkpt lat="43.21346" lon="5.47159">
        <ele>374.4</ele>
        <time>2025-10-19T12:32:51Z</time>
      </trkpt>
      <trkpt lat="43.21346" lon="5.47159">
        <ele>374.3</ele>
        <time>2025-10-19T12:32:52Z</time>
      </trkpt>
      <trkpt lat="43.21346" lon="5.47159">
        <ele>374.3</ele>
        <time>2025-10-19T12:32:53Z</time>
      </trkpt>
      <trkpt lat="43.21346" lon="5.47159">
        <ele>374.3</ele>
        <time>2025-10-19T12:32:54Z</time>
      </trkpt>
      <trkpt lat="43.21346" lon="5.47159">
        <ele>374.3</ele>
        <time>2025-10-19T12:32:55Z</time>
      </trkpt>
      <trkpt lat="43.21346" lon="5.47159">
        <ele>374.4</ele>
        <time>2025-10-19T12:32:56Z</time>
      </trkpt>
      <trkpt lat="43.21346" lon="5.47159">
        <ele>374.3</ele>
        <time>2025-10-19T12:32:57Z</time>
      </trkpt>
      <trkpt lat="43.21345" lon="5.47159">
        <ele>374.3</ele>
        <time>2025-10-19T12:32:58Z</time>
      </trkpt>
      <trkpt lat="43.21346" lon="5.47159">
        <ele>374.3</ele>
        <time>2025-10-19T12:32:59Z</time>
      </trkpt>
      <trkpt lat="43.21346" lon="5.47159">
        <ele>374.2</ele>
        <time>2025-10-19T12:33:00Z</time>
      </trkpt>
      <trkpt lat="43.21346" lon="5.47159">
        <ele>374.2</ele>
        <time>2025-10-19T12:33:01Z</time>
      </trkpt>
      <trkpt lat="43.21346" lon="5.47159">
        <ele>374.2</ele>
        <time>2025-10-19T12:33:02Z</time>
      </trkpt>
      <trkpt lat="43.21346" lon="5.47159">
        <ele>374.1</ele>
        <time>2025-10-19T12:33:03Z</time>
      </trkpt>
      <trkpt lat="43.21346" lon="5.47159">
        <ele>374.1</ele>
        <time>2025-10-19T12:33:04Z</time>
      </trkpt>
      <trkpt lat="43.21346" lon="5.47159">
        <ele>374.1</ele>
        <time>2025-10-19T12:33:05Z</time>
      </trkpt>
      <trkpt lat="43.21346" lon="5.47159">
        <ele>374.1</ele>
        <time>2025-10-19T12:33:06Z</time>
      </trkpt>
      <trkpt lat="43.21346" lon="5.47159">
        <ele>374.1</ele>
        <time>2025-10-19T12:33:07Z</time>
      </trkpt>
      <trkpt lat="43.21346" lon="5.47159">
        <ele>374.1</ele>
        <time>2025-10-19T12:33:08Z</time>
      </trkpt>
      <trkpt lat="43.21346" lon="5.47159">
        <ele>374.1</ele>
        <time>2025-10-19T12:33:09Z</time>
      </trkpt>
      <trkpt lat="43.21346" lon="5.47159">
        <ele>374.1</ele>
        <time>2025-10-19T12:33:10Z</time>
      </trkpt>
      <trkpt lat="43.21346" lon="5.47159">
        <ele>374</ele>
        <time>2025-10-19T12:33:11Z</time>
      </trkpt>
      <trkpt lat="43.21346" lon="5.47158">
        <ele>374</ele>
        <time>2025-10-19T12:33:12Z</time>
      </trkpt>
      <trkpt lat="43.21346" lon="5.47159">
        <ele>374</ele>
        <time>2025-10-19T12:33:13Z</time>
      </trkpt>
      <trkpt lat="43.21346" lon="5.47159">
        <ele>374.1</ele>
        <time>2025-10-19T12:33:14Z</time>
      </trkpt>
      <trkpt lat="43.21346" lon="5.47159">
        <ele>374.1</ele>
        <time>2025-10-19T12:33:15Z</time>
      </trkpt>
      <trkpt lat="43.21346" lon="5.47159">
        <ele>374.2</ele>
        <time>2025-10-19T12:33:16Z</time>
      </trkpt>
      <trkpt lat="43.21346" lon="5.47159">
        <ele>374.2</ele>
        <time>2025-10-19T12:33:17Z</time>
      </trkpt>
      <trkpt lat="43.21346" lon="5.47159">
        <ele>374.3</ele>
        <time>2025-10-19T12:33:18Z</time>
      </trkpt>
      <trkpt lat="43.21346" lon="5.47159">
        <ele>374.3</ele>
        <time>2025-10-19T12:33:19Z</time>
      </trkpt>
      <trkpt lat="43.21346" lon="5.47159">
        <ele>374.3</ele>
        <time>2025-10-19T12:33:20Z</time>
      </trkpt>
      <trkpt lat="43.21346" lon="5.47159">
        <ele>374.3</ele>
        <time>2025-10-19T12:33:21Z</time>
      </trkpt>
      <trkpt lat="43.21346" lon="5.47159">
        <ele>374.3</ele>
        <time>2025-10-19T12:33:22Z</time>
      </trkpt>
      <trkpt lat="43.21346" lon="5.47159">
        <ele>374.3</ele>
        <time>2025-10-19T12:33:23Z</time>
      </trkpt>
      <trkpt lat="43.21346" lon="5.47159">
        <ele>374.3</ele>
        <time>2025-10-19T12:33:24Z</time>
      </trkpt>
      <trkpt lat="43.21346" lon="5.47159">
        <ele>374.4</ele>
        <time>2025-10-19T12:33:25Z</time>
      </trkpt>
      <trkpt lat="43.21346" lon="5.47159">
        <ele>374.4</ele>
        <time>2025-10-19T12:33:26Z</time>
      </trkpt>
      <trkpt lat="43.21346" lon="5.47159">
        <ele>374.4</ele>
        <time>2025-10-19T12:33:27Z</time>
      </trkpt>
      <trkpt lat="43.21346" lon="5.47159">
        <ele>374.3</ele>
        <time>2025-10-19T12:33:28Z</time>
      </trkpt>
      <trkpt lat="43.21346" lon="5.47159">
        <ele>374.3</ele>
        <time>2025-10-19T12:33:29Z</time>
      </trkpt>
      <trkpt lat="43.21345" lon="5.47159">
        <ele>374.2</ele>
        <time>2025-10-19T12:33:30Z</time>
      </trkpt>
      <trkpt lat="43.21345" lon="5.47159">
        <ele>374.2</ele>
        <time>2025-10-19T12:33:31Z</time>
      </trkpt>
      <trkpt lat="43.21345" lon="5.47159">
        <ele>374.2</ele>
        <time>2025-10-19T12:33:32Z</time>
      </trkpt>
      <trkpt lat="43.21346" lon="5.47159">
        <ele>374.3</ele>
        <time>2025-10-19T12:33:33Z</time>
      </trkpt>
      <trkpt lat="43.21345" lon="5.47159">
        <ele>374.3</ele>
        <time>2025-10-19T12:33:34Z</time>
      </trkpt>
      <trkpt lat="43.21345" lon="5.47159">
        <ele>374.3</ele>
        <time>2025-10-19T12:33:35Z</time>
      </trkpt>
      <trkpt lat="43.21345" lon="5.47159">
        <ele>374.3</ele>
        <time>2025-10-19T12:33:36Z</time>
      </trkpt>
      <trkpt lat="43.21345" lon="5.47159">
        <ele>374.3</ele>
        <time>2025-10-19T12:33:37Z</time>
      </trkpt>
      <trkpt lat="43.21345" lon="5.47159">
        <ele>374.4</ele>
        <time>2025-10-19T12:33:38Z</time>
      </trkpt>
      <trkpt lat="43.21345" lon="5.47157">
        <ele>374.5</ele>
        <time>2025-10-19T12:33:39Z</time>
      </trkpt>
      <trkpt lat="43.21344" lon="5.47156">
        <ele>374.5</ele>
        <time>2025-10-19T12:33:40Z</time>
      </trkpt>
      <trkpt lat="43.21343" lon="5.47156">
        <ele>374.6</ele>
        <time>2025-10-19T12:33:41Z</time>
      </trkpt>
      <trkpt lat="43.21343" lon="5.47155">
        <ele>374.6</ele>
        <time>2025-10-19T12:33:42Z</time>
      </trkpt>
      <trkpt lat="43.21342" lon="5.47154">
        <ele>374.6</ele>
        <time>2025-10-19T12:33:43Z</time>
      </trkpt>
      <trkpt lat="43.21341" lon="5.47154">
        <ele>374.6</ele>
        <time>2025-10-19T12:33:44Z</time>
      </trkpt>
      <trkpt lat="43.21341" lon="5.47153">
        <ele>374.6</ele>
        <time>2025-10-19T12:33:45Z</time>
      </trkpt>
      <trkpt lat="43.21341" lon="5.47152">
        <ele>374.6</ele>
        <time>2025-10-19T12:33:46Z</time>
      </trkpt>
      <trkpt lat="43.21341" lon="5.47152">
        <ele>374.6</ele>
        <time>2025-10-19T12:33:47Z</time>
      </trkpt>
      <trkpt lat="43.21341" lon="5.47152">
        <ele>374.6</ele>
        <time>2025-10-19T12:33:48Z</time>
      </trkpt>
      <trkpt lat="43.21341" lon="5.47152">
        <ele>374.6</ele>
        <time>2025-10-19T12:33:49Z</time>
      </trkpt>
      <trkpt lat="43.21341" lon="5.47153">
        <ele>374.6</ele>
        <time>2025-10-19T12:33:50Z</time>
      </trkpt>
      <trkpt lat="43.21341" lon="5.47153">
        <ele>374.7</ele>
        <time>2025-10-19T12:33:51Z</time>
      </trkpt>
      <trkpt lat="43.21341" lon="5.47153">
        <ele>374.7</ele>
        <time>2025-10-19T12:33:52Z</time>
      </trkpt>
      <trkpt lat="43.21341" lon="5.47153">
        <ele>374.7</ele>
        <time>2025-10-19T12:33:53Z</time>
      </trkpt>
      <trkpt lat="43.21341" lon="5.47153">
        <ele>374.7</ele>
        <time>2025-10-19T12:33:54Z</time>
      </trkpt>
      <trkpt lat="43.21341" lon="5.47153">
        <ele>374.7</ele>
        <time>2025-10-19T12:33:55Z</time>
      </trkpt>
      <trkpt lat="43.2134" lon="5.47153">
        <ele>374.8</ele>
        <time>2025-10-19T12:33:56Z</time>
      </trkpt>
      <trkpt lat="43.2134" lon="5.47154">
        <ele>374.8</ele>
        <time>2025-10-19T12:33:57Z</time>
      </trkpt>
      <trkpt lat="43.2134" lon="5.47154">
        <ele>374.9</ele>
        <time>2025-10-19T12:33:58Z</time>
      </trkpt>
      <trkpt lat="43.2134" lon="5.47154">
        <ele>374.9</ele>
        <time>2025-10-19T12:33:59Z</time>
      </trkpt>
      <trkpt lat="43.2134" lon="5.47154">
        <ele>375</ele>
        <time>2025-10-19T12:34:00Z</time>
      </trkpt>
      <trkpt lat="43.2134" lon="5.47153">
        <ele>374.9</ele>
        <time>2025-10-19T12:34:01Z</time>
      </trkpt>
      <trkpt lat="43.21341" lon="5.47154">
        <ele>374.9</ele>
        <time>2025-10-19T12:34:02Z</time>
      </trkpt>
      <trkpt lat="43.2134" lon="5.47154">
        <ele>374.9</ele>
        <time>2025-10-19T12:34:03Z</time>
      </trkpt>
      <trkpt lat="43.2134" lon="5.47154">
        <ele>374.8</ele>
        <time>2025-10-19T12:34:04Z</time>
      </trkpt>
      <trkpt lat="43.21341" lon="5.47154">
        <ele>374.8</ele>
        <time>2025-10-19T12:34:05Z</time>
      </trkpt>
      <trkpt lat="43.21341" lon="5.47154">
        <ele>374.8</ele>
        <time>2025-10-19T12:34:06Z</time>
      </trkpt>
      <trkpt lat="43.21342" lon="5.47154">
        <ele>374.8</ele>
        <time>2025-10-19T12:34:07Z</time>
      </trkpt>
      <trkpt lat="43.21342" lon="5.47154">
        <ele>374.7</ele>
        <time>2025-10-19T12:34:08Z</time>
      </trkpt>
      <trkpt lat="43.21341" lon="5.47154">
        <ele>374.7</ele>
        <time>2025-10-19T12:34:09Z</time>
      </trkpt>
      <trkpt lat="43.21341" lon="5.47154">
        <ele>374.7</ele>
        <time>2025-10-19T12:34:10Z</time>
      </trkpt>
      <trkpt lat="43.21341" lon="5.47154">
        <ele>374.7</ele>
        <time>2025-10-19T12:34:11Z</time>
      </trkpt>
      <trkpt lat="43.21341" lon="5.47154">
        <ele>374.6</ele>
        <time>2025-10-19T12:34:12Z</time>
      </trkpt>
      <trkpt lat="43.2134" lon="5.47154">
        <ele>374.6</ele>
        <time>2025-10-19T12:34:13Z</time>
      </trkpt>
      <trkpt lat="43.2134" lon="5.47154">
        <ele>374.4</ele>
        <time>2025-10-19T12:34:14Z</time>
      </trkpt>
      <trkpt lat="43.2134" lon="5.47155">
        <ele>374.4</ele>
        <time>2025-10-19T12:34:15Z</time>
      </trkpt>
      <trkpt lat="43.2134" lon="5.47154">
        <ele>374.4</ele>
        <time>2025-10-19T12:34:16Z</time>
      </trkpt>
      <trkpt lat="43.2134" lon="5.47155">
        <ele>374.6</ele>
        <time>2025-10-19T12:34:17Z</time>
      </trkpt>
      <trkpt lat="43.21341" lon="5.47156">
        <ele>374.7</ele>
        <time>2025-10-19T12:34:18Z</time>
      </trkpt>
      <trkpt lat="43.21341" lon="5.47156">
        <ele>374.7</ele>
        <time>2025-10-19T12:34:19Z</time>
      </trkpt>
      <trkpt lat="43.21342" lon="5.47157">
        <ele>374.6</ele>
        <time>2025-10-19T12:34:20Z</time>
      </trkpt>
      <trkpt lat="43.21343" lon="5.47158">
        <ele>374.6</ele>
        <time>2025-10-19T12:34:21Z</time>
      </trkpt>
      <trkpt lat="43.21343" lon="5.47159">
        <ele>374.6</ele>
        <time>2025-10-19T12:34:22Z</time>
      </trkpt>
      <trkpt lat="43.21343" lon="5.47159">
        <ele>374.5</ele>
        <time>2025-10-19T12:34:23Z</time>
      </trkpt>
      <trkpt lat="43.21344" lon="5.4716">
        <ele>374.5</ele>
        <time>2025-10-19T12:34:24Z</time>
      </trkpt>
      <trkpt lat="43.21344" lon="5.47161">
        <ele>374.5</ele>
        <time>2025-10-19T12:34:25Z</time>
      </trkpt>
      <trkpt lat="43.21344" lon="5.47162">
        <ele>374.5</ele>
        <time>2025-10-19T12:34:26Z</time>
      </trkpt>
      <trkpt lat="43.21344" lon="5.47163">
        <ele>374.5</ele>
        <time>2025-10-19T12:34:27Z</time>
      </trkpt>
      <trkpt lat="43.21344" lon="5.47164">
        <ele>374.4</ele>
        <time>2025-10-19T12:34:28Z</time>
      </trkpt>
      <trkpt lat="43.21345" lon="5.47165">
        <ele>374.4</ele>
        <time>2025-10-19T12:34:29Z</time>
      </trkpt>
      <trkpt lat="43.21345" lon="5.47166">
        <ele>374.2</ele>
        <time>2025-10-19T12:34:30Z</time>
      </trkpt>
      <trkpt lat="43.21345" lon="5.47167">
        <ele>374.1</ele>
        <time>2025-10-19T12:34:31Z</time>
      </trkpt>
      <trkpt lat="43.21346" lon="5.47168">
        <ele>374</ele>
        <time>2025-10-19T12:34:32Z</time>
      </trkpt>
      <trkpt lat="43.21346" lon="5.47169">
        <ele>373.9</ele>
        <time>2025-10-19T12:34:33Z</time>
      </trkpt>
      <trkpt lat="43.21347" lon="5.4717">
        <ele>373.7</ele>
        <time>2025-10-19T12:34:34Z</time>
      </trkpt>
      <trkpt lat="43.21347" lon="5.4717">
        <ele>373.6</ele>
        <time>2025-10-19T12:34:35Z</time>
      </trkpt>
      <trkpt lat="43.21347" lon="5.47171">
        <ele>373.5</ele>
        <time>2025-10-19T12:34:36Z</time>
      </trkpt>
      <trkpt lat="43.21347" lon="5.47172">
        <ele>373.5</ele>
        <time>2025-10-19T12:34:37Z</time>
      </trkpt>
      <trkpt lat="43.21348" lon="5.47173">
        <ele>373.5</ele>
        <time>2025-10-19T12:34:38Z</time>
      </trkpt>
      <trkpt lat="43.21348" lon="5.47173">
        <ele>373.5</ele>
        <time>2025-10-19T12:34:39Z</time>
      </trkpt>
      <trkpt lat="43.21348" lon="5.47174">
        <ele>373.5</ele>
        <time>2025-10-19T12:34:40Z</time>
      </trkpt>
      <trkpt lat="43.21348" lon="5.47175">
        <ele>373.4</ele>
        <time>2025-10-19T12:34:41Z</time>
      </trkpt>
      <trkpt lat="43.21348" lon="5.47176">
        <ele>373.4</ele>
        <time>2025-10-19T12:34:42Z</time>
      </trkpt>
      <trkpt lat="43.21348" lon="5.47177">
        <ele>373.3</ele>
        <time>2025-10-19T12:34:43Z</time>
      </trkpt>
      <trkpt lat="43.21348" lon="5.47178">
        <ele>373.2</ele>
        <time>2025-10-19T12:34:44Z</time>
      </trkpt>
      <trkpt lat="43.21348" lon="5.47179">
        <ele>373</ele>
        <time>2025-10-19T12:34:45Z</time>
      </trkpt>
      <trkpt lat="43.21348" lon="5.4718">
        <ele>372.9</ele>
        <time>2025-10-19T12:34:46Z</time>
      </trkpt>
      <trkpt lat="43.21348" lon="5.47181">
        <ele>372.9</ele>
        <time>2025-10-19T12:34:47Z</time>
      </trkpt>
      <trkpt lat="43.21348" lon="5.47183">
        <ele>372.7</ele>
        <time>2025-10-19T12:34:48Z</time>
      </trkpt>
      <trkpt lat="43.21348" lon="5.47184">
        <ele>372.6</ele>
        <time>2025-10-19T12:34:49Z</time>
      </trkpt>
      <trkpt lat="43.21348" lon="5.47185">
        <ele>372.6</ele>
        <time>2025-10-19T12:34:50Z</time>
      </trkpt>
      <trkpt lat="43.21348" lon="5.47186">
        <ele>372.6</ele>
        <time>2025-10-19T12:34:51Z</time>
      </trkpt>
      <trkpt lat="43.21349" lon="5.47188">
        <ele>372.5</ele>
        <time>2025-10-19T12:34:52Z</time>
      </trkpt>
      <trkpt lat="43.21349" lon="5.47189">
        <ele>372.5</ele>
        <time>2025-10-19T12:34:53Z</time>
      </trkpt>
      <trkpt lat="43.21349" lon="5.4719">
        <ele>372.5</ele>
        <time>2025-10-19T12:34:54Z</time>
      </trkpt>
      <trkpt lat="43.21349" lon="5.47191">
        <ele>372.3</ele>
        <time>2025-10-19T12:34:55Z</time>
      </trkpt>
      <trkpt lat="43.21349" lon="5.47192">
        <ele>372.2</ele>
        <time>2025-10-19T12:34:56Z</time>
      </trkpt>
      <trkpt lat="43.21349" lon="5.47193">
        <ele>372.1</ele>
        <time>2025-10-19T12:34:57Z</time>
      </trkpt>
      <trkpt lat="43.21348" lon="5.47194">
        <ele>372</ele>
        <time>2025-10-19T12:34:58Z</time>
      </trkpt>
      <trkpt lat="43.21348" lon="5.47195">
        <ele>371.8</ele>
        <time>2025-10-19T12:34:59Z</time>
      </trkpt>
      <trkpt lat="43.21348" lon="5.47196">
        <ele>371.7</ele>
        <time>2025-10-19T12:35:00Z</time>
      </trkpt>
      <trkpt lat="43.21347" lon="5.47197">
        <ele>371.5</ele>
        <time>2025-10-19T12:35:01Z</time>
      </trkpt>
      <trkpt lat="43.21346" lon="5.47198">
        <ele>371.1</ele>
        <time>2025-10-19T12:35:02Z</time>
      </trkpt>
      <trkpt lat="43.21346" lon="5.47198">
        <ele>370.8</ele>
        <time>2025-10-19T12:35:03Z</time>
      </trkpt>
      <trkpt lat="43.21345" lon="5.47198">
        <ele>370.4</ele>
        <time>2025-10-19T12:35:04Z</time>
      </trkpt>
      <trkpt lat="43.21345" lon="5.47198">
        <ele>370.1</ele>
        <time>2025-10-19T12:35:05Z</time>
      </trkpt>
      <trkpt lat="43.21344" lon="5.47198">
        <ele>369.8</ele>
        <time>2025-10-19T12:35:06Z</time>
      </trkpt>
      <trkpt lat="43.21344" lon="5.47199">
        <ele>369.6</ele>
        <time>2025-10-19T12:35:07Z</time>
      </trkpt>
      <trkpt lat="43.21343" lon="5.47199">
        <ele>369.4</ele>
        <time>2025-10-19T12:35:08Z</time>
      </trkpt>
      <trkpt lat="43.21343" lon="5.472">
        <ele>369.3</ele>
        <time>2025-10-19T12:35:09Z</time>
      </trkpt>
      <trkpt lat="43.21342" lon="5.47201">
        <ele>369.1</ele>
        <time>2025-10-19T12:35:10Z</time>
      </trkpt>
      <trkpt lat="43.21342" lon="5.47201">
        <ele>368.8</ele>
        <time>2025-10-19T12:35:11Z</time>
      </trkpt>
      <trkpt lat="43.21342" lon="5.47201">
        <ele>368.6</ele>
        <time>2025-10-19T12:35:12Z</time>
      </trkpt>
      <trkpt lat="43.21342" lon="5.47202">
        <ele>368.4</ele>
        <time>2025-10-19T12:35:13Z</time>
      </trkpt>
      <trkpt lat="43.21341" lon="5.47203">
        <ele>368.1</ele>
        <time>2025-10-19T12:35:14Z</time>
      </trkpt>
      <trkpt lat="43.21341" lon="5.47204">
        <ele>367.8</ele>
        <time>2025-10-19T12:35:15Z</time>
      </trkpt>
      <trkpt lat="43.21341" lon="5.47204">
        <ele>367.6</ele>
        <time>2025-10-19T12:35:16Z</time>
      </trkpt>
      <trkpt lat="43.21341" lon="5.47205">
        <ele>367.4</ele>
        <time>2025-10-19T12:35:17Z</time>
      </trkpt>
      <trkpt lat="43.2134" lon="5.47206">
        <ele>367.1</ele>
        <time>2025-10-19T12:35:18Z</time>
      </trkpt>
      <trkpt lat="43.2134" lon="5.47207">
        <ele>366.9</ele>
        <time>2025-10-19T12:35:19Z</time>
      </trkpt>
      <trkpt lat="43.21339" lon="5.47207">
        <ele>366.7</ele>
        <time>2025-10-19T12:35:20Z</time>
      </trkpt>
      <trkpt lat="43.21339" lon="5.47207">
        <ele>366.4</ele>
        <time>2025-10-19T12:35:21Z</time>
      </trkpt>
      <trkpt lat="43.21339" lon="5.47206">
        <ele>366.2</ele>
        <time>2025-10-19T12:35:22Z</time>
      </trkpt>
      <trkpt lat="43.21338" lon="5.47206">
        <ele>365.9</ele>
        <time>2025-10-19T12:35:23Z</time>
      </trkpt>
      <trkpt lat="43.21337" lon="5.47206">
        <ele>365.7</ele>
        <time>2025-10-19T12:35:24Z</time>
      </trkpt>
      <trkpt lat="43.21337" lon="5.47206">
        <ele>365.5</ele>
        <time>2025-10-19T12:35:25Z</time>
      </trkpt>
      <trkpt lat="43.21336" lon="5.47206">
        <ele>365.2</ele>
        <time>2025-10-19T12:35:26Z</time>
      </trkpt>
      <trkpt lat="43.21336" lon="5.47206">
        <ele>364.9</ele>
        <time>2025-10-19T12:35:27Z</time>
      </trkpt>
      <trkpt lat="43.21336" lon="5.47206">
        <ele>364.7</ele>
        <time>2025-10-19T12:35:28Z</time>
      </trkpt>
      <trkpt lat="43.21336" lon="5.47206">
        <ele>364.6</ele>
        <time>2025-10-19T12:35:29Z</time>
      </trkpt>
      <trkpt lat="43.21336" lon="5.47206">
        <ele>364.5</ele>
        <time>2025-10-19T12:35:30Z</time>
      </trkpt>
      <trkpt lat="43.21336" lon="5.47206">
        <ele>364.4</ele>
        <time>2025-10-19T12:35:31Z</time>
      </trkpt>
      <trkpt lat="43.21336" lon="5.47206">
        <ele>364.3</ele>
        <time>2025-10-19T12:35:32Z</time>
      </trkpt>
      <trkpt lat="43.21336" lon="5.47206">
        <ele>364.3</ele>
        <time>2025-10-19T12:35:33Z</time>
      </trkpt>
      <trkpt lat="43.21336" lon="5.47206">
        <ele>364.3</ele>
        <time>2025-10-19T12:35:34Z</time>
      </trkpt>
      <trkpt lat="43.21336" lon="5.47206">
        <ele>364.3</ele>
        <time>2025-10-19T12:35:35Z</time>
      </trkpt>
      <trkpt lat="43.21336" lon="5.47206">
        <ele>364.3</ele>
        <time>2025-10-19T12:35:36Z</time>
      </trkpt>
      <trkpt lat="43.21336" lon="5.47206">
        <ele>364.3</ele>
        <time>2025-10-19T12:35:37Z</time>
      </trkpt>
      <trkpt lat="43.21336" lon="5.47206">
        <ele>364.3</ele>
        <time>2025-10-19T12:35:38Z</time>
      </trkpt>
      <trkpt lat="43.21336" lon="5.47206">
        <ele>364.3</ele>
        <time>2025-10-19T12:35:39Z</time>
      </trkpt>
      <trkpt lat="43.21336" lon="5.47206">
        <ele>364.3</ele>
        <time>2025-10-19T12:35:40Z</time>
      </trkpt>
      <trkpt lat="43.21336" lon="5.47206">
        <ele>364.4</ele>
        <time>2025-10-19T12:35:41Z</time>
      </trkpt>
      <trkpt lat="43.21336" lon="5.47207">
        <ele>364.4</ele>
        <time>2025-10-19T12:35:42Z</time>
      </trkpt>
      <trkpt lat="43.21336" lon="5.47207">
        <ele>364.4</ele>
        <time>2025-10-19T12:35:43Z</time>
      </trkpt>
      <trkpt lat="43.21336" lon="5.47207">
        <ele>364.4</ele>
        <time>2025-10-19T12:35:44Z</time>
      </trkpt>
      <trkpt lat="43.21336" lon="5.47207">
        <ele>364.4</ele>
        <time>2025-10-19T12:35:45Z</time>
      </trkpt>
      <trkpt lat="43.21336" lon="5.47207">
        <ele>364.5</ele>
        <time>2025-10-19T12:35:46Z</time>
      </trkpt>
      <trkpt lat="43.21336" lon="5.47207">
        <ele>364.5</ele>
        <time>2025-10-19T12:35:47Z</time>
      </trkpt>
      <trkpt lat="43.21336" lon="5.47206">
        <ele>364.5</ele>
        <time>2025-10-19T12:35:48Z</time>
      </trkpt>
      <trkpt lat="43.21336" lon="5.47206">
        <ele>364.5</ele>
        <time>2025-10-19T12:35:49Z</time>
      </trkpt>
      <trkpt lat="43.21336" lon="5.47207">
        <ele>364.5</ele>
        <time>2025-10-19T12:35:50Z</time>
      </trkpt>
      <trkpt lat="43.21337" lon="5.47208">
        <ele>364.5</ele>
        <time>2025-10-19T12:35:51Z</time>
      </trkpt>
      <trkpt lat="43.21337" lon="5.47208">
        <ele>364.7</ele>
        <time>2025-10-19T12:35:52Z</time>
      </trkpt>
      <trkpt lat="43.21337" lon="5.47209">
        <ele>364.8</ele>
        <time>2025-10-19T12:35:53Z</time>
      </trkpt>
      <trkpt lat="43.21338" lon="5.47209">
        <ele>364.9</ele>
        <time>2025-10-19T12:35:54Z</time>
      </trkpt>
      <trkpt lat="43.21338" lon="5.4721">
        <ele>365.1</ele>
        <time>2025-10-19T12:35:55Z</time>
      </trkpt>
      <trkpt lat="43.21339" lon="5.4721">
        <ele>365.3</ele>
        <time>2025-10-19T12:35:56Z</time>
      </trkpt>
      <trkpt lat="43.21338" lon="5.4721">
        <ele>365.3</ele>
        <time>2025-10-19T12:35:57Z</time>
      </trkpt>
      <trkpt lat="43.21338" lon="5.47211">
        <ele>365.5</ele>
        <time>2025-10-19T12:35:58Z</time>
      </trkpt>
      <trkpt lat="43.21338" lon="5.47212">
        <ele>365.7</ele>
        <time>2025-10-19T12:35:59Z</time>
      </trkpt>
      <trkpt lat="43.21337" lon="5.47212">
        <ele>365.9</ele>
        <time>2025-10-19T12:36:00Z</time>
      </trkpt>
      <trkpt lat="43.21337" lon="5.47213">
        <ele>366.1</ele>
        <time>2025-10-19T12:36:01Z</time>
      </trkpt>
      <trkpt lat="43.21336" lon="5.47213">
        <ele>366.2</ele>
        <time>2025-10-19T12:36:02Z</time>
      </trkpt>
      <trkpt lat="43.21336" lon="5.47214">
        <ele>366.4</ele>
        <time>2025-10-19T12:36:03Z</time>
      </trkpt>
      <trkpt lat="43.21335" lon="5.47214">
        <ele>366.6</ele>
        <time>2025-10-19T12:36:04Z</time>
      </trkpt>
      <trkpt lat="43.21335" lon="5.47213">
        <ele>366.7</ele>
        <time>2025-10-19T12:36:05Z</time>
      </trkpt>
      <trkpt lat="43.21335" lon="5.47214">
        <ele>366.8</ele>
        <time>2025-10-19T12:36:06Z</time>
      </trkpt>
      <trkpt lat="43.21334" lon="5.47214">
        <ele>366.8</ele>
        <time>2025-10-19T12:36:07Z</time>
      </trkpt>
      <trkpt lat="43.21334" lon="5.47215">
        <ele>366.9</ele>
        <time>2025-10-19T12:36:08Z</time>
      </trkpt>
      <trkpt lat="43.21333" lon="5.47216">
        <ele>366.8</ele>
        <time>2025-10-19T12:36:09Z</time>
      </trkpt>
      <trkpt lat="43.21333" lon="5.47216">
        <ele>366.8</ele>
        <time>2025-10-19T12:36:10Z</time>
      </trkpt>
      <trkpt lat="43.21332" lon="5.47216">
        <ele>366.9</ele>
        <time>2025-10-19T12:36:11Z</time>
      </trkpt>
      <trkpt lat="43.21332" lon="5.47216">
        <ele>366.9</ele>
        <time>2025-10-19T12:36:12Z</time>
      </trkpt>
      <trkpt lat="43.21331" lon="5.47216">
        <ele>366.9</ele>
        <time>2025-10-19T12:36:13Z</time>
      </trkpt>
      <trkpt lat="43.21332" lon="5.47217">
        <ele>366.8</ele>
        <time>2025-10-19T12:36:14Z</time>
      </trkpt>
      <trkpt lat="43.21332" lon="5.47217">
        <ele>366.9</ele>
        <time>2025-10-19T12:36:15Z</time>
      </trkpt>
      <trkpt lat="43.21332" lon="5.47218">
        <ele>366.9</ele>
        <time>2025-10-19T12:36:16Z</time>
      </trkpt>
      <trkpt lat="43.21332" lon="5.47218">
        <ele>367</ele>
        <time>2025-10-19T12:36:17Z</time>
      </trkpt>
      <trkpt lat="43.21332" lon="5.47218">
        <ele>367.1</ele>
        <time>2025-10-19T12:36:18Z</time>
      </trkpt>
      <trkpt lat="43.21332" lon="5.47218">
        <ele>367.2</ele>
        <time>2025-10-19T12:36:19Z</time>
      </trkpt>
      <trkpt lat="43.21332" lon="5.47219">
        <ele>367.2</ele>
        <time>2025-10-19T12:36:20Z</time>
      </trkpt>
      <trkpt lat="43.21332" lon="5.47219">
        <ele>367.2</ele>
        <time>2025-10-19T12:36:21Z</time>
      </trkpt>
      <trkpt lat="43.21332" lon="5.47219">
        <ele>367.3</ele>
        <time>2025-10-19T12:36:22Z</time>
      </trkpt>
      <trkpt lat="43.21332" lon="5.47219">
        <ele>367.2</ele>
        <time>2025-10-19T12:36:23Z</time>
      </trkpt>
      <trkpt lat="43.21332" lon="5.4722">
        <ele>367.2</ele>
        <time>2025-10-19T12:36:24Z</time>
      </trkpt>
      <trkpt lat="43.21332" lon="5.4722">
        <ele>367.1</ele>
        <time>2025-10-19T12:36:25Z</time>
      </trkpt>
      <trkpt lat="43.21332" lon="5.4722">
        <ele>367</ele>
        <time>2025-10-19T12:36:26Z</time>
      </trkpt>
      <trkpt lat="43.21332" lon="5.4722">
        <ele>366.9</ele>
        <time>2025-10-19T12:36:27Z</time>
      </trkpt>
      <trkpt lat="43.21332" lon="5.47219">
        <ele>366.8</ele>
        <time>2025-10-19T12:36:28Z</time>
      </trkpt>
      <trkpt lat="43.21332" lon="5.4722">
        <ele>366.7</ele>
        <time>2025-10-19T12:36:29Z</time>
      </trkpt>
      <trkpt lat="43.21332" lon="5.47219">
        <ele>366.7</ele>
        <time>2025-10-19T12:36:30Z</time>
      </trkpt>
      <trkpt lat="43.21333" lon="5.47219">
        <ele>366.8</ele>
        <time>2025-10-19T12:36:31Z</time>
      </trkpt>
      <trkpt lat="43.21333" lon="5.47219">
        <ele>366.9</ele>
        <time>2025-10-19T12:36:32Z</time>
      </trkpt>
      <trkpt lat="43.21333" lon="5.4722">
        <ele>367</ele>
        <time>2025-10-19T12:36:33Z</time>
      </trkpt>
      <trkpt lat="43.21333" lon="5.4722">
        <ele>367.1</ele>
        <time>2025-10-19T12:36:34Z</time>
      </trkpt>
      <trkpt lat="43.21333" lon="5.4722">
        <ele>367.2</ele>
        <time>2025-10-19T12:36:35Z</time>
      </trkpt>
      <trkpt lat="43.21333" lon="5.4722">
        <ele>367.3</ele>
        <time>2025-10-19T12:36:36Z</time>
      </trkpt>
      <trkpt lat="43.21333" lon="5.4722">
        <ele>367.3</ele>
        <time>2025-10-19T12:36:37Z</time>
      </trkpt>
      <trkpt lat="43.21333" lon="5.47221">
        <ele>367.3</ele>
        <time>2025-10-19T12:36:38Z</time>
      </trkpt>
      <trkpt lat="43.21333" lon="5.47221">
        <ele>367.3</ele>
        <time>2025-10-19T12:36:39Z</time>
      </trkpt>
      <trkpt lat="43.21333" lon="5.47221">
        <ele>367.2</ele>
        <time>2025-10-19T12:36:40Z</time>
      </trkpt>
      <trkpt lat="43.21333" lon="5.47221">
        <ele>367.2</ele>
        <time>2025-10-19T12:36:41Z</time>
      </trkpt>
      <trkpt lat="43.21333" lon="5.4722">
        <ele>367.2</ele>
        <time>2025-10-19T12:36:42Z</time>
      </trkpt>
      <trkpt lat="43.21334" lon="5.4722">
        <ele>367.1</ele>
        <time>2025-10-19T12:36:43Z</time>
      </trkpt>
      <trkpt lat="43.21334" lon="5.4722">
        <ele>367</ele>
        <time>2025-10-19T12:36:44Z</time>
      </trkpt>
      <trkpt lat="43.21334" lon="5.47219">
        <ele>366.9</ele>
        <time>2025-10-19T12:36:45Z</time>
      </trkpt>
      <trkpt lat="43.21334" lon="5.47219">
        <ele>366.8</ele>
        <time>2025-10-19T12:36:46Z</time>
      </trkpt>
      <trkpt lat="43.21334" lon="5.47218">
        <ele>366.7</ele>
        <time>2025-10-19T12:36:47Z</time>
      </trkpt>
      <trkpt lat="43.21334" lon="5.47218">
        <ele>366.6</ele>
        <time>2025-10-19T12:36:48Z</time>
      </trkpt>
      <trkpt lat="43.21334" lon="5.47218">
        <ele>366.5</ele>
        <time>2025-10-19T12:36:49Z</time>
      </trkpt>
      <trkpt lat="43.21334" lon="5.47218">
        <ele>366.4</ele>
        <time>2025-10-19T12:36:50Z</time>
      </trkpt>
      <trkpt lat="43.21334" lon="5.47218">
        <ele>366.4</ele>
        <time>2025-10-19T12:36:51Z</time>
      </trkpt>
      <trkpt lat="43.21334" lon="5.47218">
        <ele>366.3</ele>
        <time>2025-10-19T12:36:52Z</time>
      </trkpt>
      <trkpt lat="43.21334" lon="5.47218">
        <ele>366.1</ele>
        <time>2025-10-19T12:36:53Z</time>
      </trkpt>
      <trkpt lat="43.21334" lon="5.47218">
        <ele>366.1</ele>
        <time>2025-10-19T12:36:54Z</time>
      </trkpt>
      <trkpt lat="43.21334" lon="5.47218">
        <ele>366.1</ele>
        <time>2025-10-19T12:36:55Z</time>
      </trkpt>
      <trkpt lat="43.21334" lon="5.47218">
        <ele>366.1</ele>
        <time>2025-10-19T12:36:56Z</time>
      </trkpt>
      <trkpt lat="43.21334" lon="5.47218">
        <ele>366.1</ele>
        <time>2025-10-19T12:36:57Z</time>
      </trkpt>
      <trkpt lat="43.21334" lon="5.47218">
        <ele>366.1</ele>
        <time>2025-10-19T12:36:58Z</time>
      </trkpt>
      <trkpt lat="43.21334" lon="5.47217">
        <ele>366.1</ele>
        <time>2025-10-19T12:36:59Z</time>
      </trkpt>
      <trkpt lat="43.21334" lon="5.47217">
        <ele>366.2</ele>
        <time>2025-10-19T12:37:00Z</time>
      </trkpt>
      <trkpt lat="43.21334" lon="5.47218">
        <ele>366.3</ele>
        <time>2025-10-19T12:37:01Z</time>
      </trkpt>
      <trkpt lat="43.21334" lon="5.47217">
        <ele>366.3</ele>
        <time>2025-10-19T12:37:02Z</time>
      </trkpt>
      <trkpt lat="43.21334" lon="5.47217">
        <ele>366.3</ele>
        <time>2025-10-19T12:37:03Z</time>
      </trkpt>
      <trkpt lat="43.21334" lon="5.47217">
        <ele>366.2</ele>
        <time>2025-10-19T12:37:04Z</time>
      </trkpt>
      <trkpt lat="43.21334" lon="5.47218">
        <ele>366.2</ele>
        <time>2025-10-19T12:37:05Z</time>
      </trkpt>
      <trkpt lat="43.21334" lon="5.47217">
        <ele>366.2</ele>
        <time>2025-10-19T12:37:06Z</time>
      </trkpt>
      <trkpt lat="43.21334" lon="5.47218">
        <ele>366.2</ele>
        <time>2025-10-19T12:37:07Z</time>
      </trkpt>
      <trkpt lat="43.21334" lon="5.47218">
        <ele>366.2</ele>
        <time>2025-10-19T12:37:08Z</time>
      </trkpt>
      <trkpt lat="43.21334" lon="5.47218">
        <ele>366.1</ele>
        <time>2025-10-19T12:37:09Z</time>
      </trkpt>
      <trkpt lat="43.21334" lon="5.47218">
        <ele>366.1</ele>
        <time>2025-10-19T12:37:10Z</time>
      </trkpt>
      <trkpt lat="43.21334" lon="5.47218">
        <ele>366.1</ele>
        <time>2025-10-19T12:37:11Z</time>
      </trkpt>
      <trkpt lat="43.21334" lon="5.47218">
        <ele>366.1</ele>
        <time>2025-10-19T12:37:12Z</time>
      </trkpt>
      <trkpt lat="43.21334" lon="5.47219">
        <ele>366.1</ele>
        <time>2025-10-19T12:37:13Z</time>
      </trkpt>
      <trkpt lat="43.21334" lon="5.47219">
        <ele>366.1</ele>
        <time>2025-10-19T12:37:14Z</time>
      </trkpt>
      <trkpt lat="43.21335" lon="5.47219">
        <ele>366.1</ele>
        <time>2025-10-19T12:37:15Z</time>
      </trkpt>
      <trkpt lat="43.21335" lon="5.47219">
        <ele>366.1</ele>
        <time>2025-10-19T12:37:16Z</time>
      </trkpt>
      <trkpt lat="43.21335" lon="5.47219">
        <ele>366.2</ele>
        <time>2025-10-19T12:37:17Z</time>
      </trkpt>
      <trkpt lat="43.21335" lon="5.47219">
        <ele>366.2</ele>
        <time>2025-10-19T12:37:18Z</time>
      </trkpt>
      <trkpt lat="43.21335" lon="5.47219">
        <ele>366.2</ele>
        <time>2025-10-19T12:37:19Z</time>
      </trkpt>
      <trkpt lat="43.21334" lon="5.47219">
        <ele>366.2</ele>
        <time>2025-10-19T12:37:20Z</time>
      </trkpt>
      <trkpt lat="43.21334" lon="5.47219">
        <ele>366.3</ele>
        <time>2025-10-19T12:37:21Z</time>
      </trkpt>
      <trkpt lat="43.21334" lon="5.47219">
        <ele>366.4</ele>
        <time>2025-10-19T12:37:22Z</time>
      </trkpt>
      <trkpt lat="43.21334" lon="5.47219">
        <ele>366.3</ele>
        <time>2025-10-19T12:37:23Z</time>
      </trkpt>
      <trkpt lat="43.21334" lon="5.47219">
        <ele>366.3</ele>
        <time>2025-10-19T12:37:24Z</time>
      </trkpt>
      <trkpt lat="43.21334" lon="5.47219">
        <ele>366.3</ele>
        <time>2025-10-19T12:37:25Z</time>
      </trkpt>
      <trkpt lat="43.21334" lon="5.47219">
        <ele>366.3</ele>
        <time>2025-10-19T12:37:26Z</time>
      </trkpt>
      <trkpt lat="43.21334" lon="5.47219">
        <ele>366.4</ele>
        <time>2025-10-19T12:37:27Z</time>
      </trkpt>
      <trkpt lat="43.21334" lon="5.47219">
        <ele>366.4</ele>
        <time>2025-10-19T12:37:28Z</time>
      </trkpt>
      <trkpt lat="43.21334" lon="5.47219">
        <ele>366.4</ele>
        <time>2025-10-19T12:37:29Z</time>
      </trkpt>
      <trkpt lat="43.21334" lon="5.47219">
        <ele>366.5</ele>
        <time>2025-10-19T12:37:30Z</time>
      </trkpt>
      <trkpt lat="43.21334" lon="5.4722">
        <ele>366.5</ele>
        <time>2025-10-19T12:37:31Z</time>
      </trkpt>
      <trkpt lat="43.21334" lon="5.4722">
        <ele>366.5</ele>
        <time>2025-10-19T12:37:32Z</time>
      </trkpt>
      <trkpt lat="43.21334" lon="5.4722">
        <ele>366.6</ele>
        <time>2025-10-19T12:37:33Z</time>
      </trkpt>
      <trkpt lat="43.21334" lon="5.4722">
        <ele>366.5</ele>
        <time>2025-10-19T12:37:34Z</time>
      </trkpt>
      <trkpt lat="43.21334" lon="5.4722">
        <ele>366.5</ele>
        <time>2025-10-19T12:37:35Z</time>
      </trkpt>
      <trkpt lat="43.21334" lon="5.4722">
        <ele>366.5</ele>
        <time>2025-10-19T12:37:36Z</time>
      </trkpt>
      <trkpt lat="43.21334" lon="5.4722">
        <ele>366.5</ele>
        <time>2025-10-19T12:37:37Z</time>
      </trkpt>
      <trkpt lat="43.21334" lon="5.4722">
        <ele>366.5</ele>
        <time>2025-10-19T12:37:38Z</time>
      </trkpt>
      <trkpt lat="43.21334" lon="5.4722">
        <ele>366.6</ele>
        <time>2025-10-19T12:37:39Z</time>
      </trkpt>
      <trkpt lat="43.21334" lon="5.4722">
        <ele>366.7</ele>
        <time>2025-10-19T12:37:40Z</time>
      </trkpt>
      <trkpt lat="43.21334" lon="5.4722">
        <ele>366.8</ele>
        <time>2025-10-19T12:37:41Z</time>
      </trkpt>
      <trkpt lat="43.21334" lon="5.4722">
        <ele>366.9</ele>
        <time>2025-10-19T12:37:42Z</time>
      </trkpt>
      <trkpt lat="43.21334" lon="5.4722">
        <ele>366.9</ele>
        <time>2025-10-19T12:37:43Z</time>
      </trkpt>
      <trkpt lat="43.21334" lon="5.4722">
        <ele>366.9</ele>
        <time>2025-10-19T12:37:44Z</time>
      </trkpt>
      <trkpt lat="43.21334" lon="5.47221">
        <ele>367</ele>
        <time>2025-10-19T12:37:45Z</time>
      </trkpt>
      <trkpt lat="43.21334" lon="5.47221">
        <ele>367</ele>
        <time>2025-10-19T12:37:46Z</time>
      </trkpt>
      <trkpt lat="43.21334" lon="5.47221">
        <ele>366.9</ele>
        <time>2025-10-19T12:37:47Z</time>
      </trkpt>
      <trkpt lat="43.21334" lon="5.47221">
        <ele>366.9</ele>
        <time>2025-10-19T12:37:48Z</time>
      </trkpt>
      <trkpt lat="43.21334" lon="5.47221">
        <ele>366.9</ele>
        <time>2025-10-19T12:37:49Z</time>
      </trkpt>
      <trkpt lat="43.21334" lon="5.47221">
        <ele>366.9</ele>
        <time>2025-10-19T12:37:50Z</time>
      </trkpt>
      <trkpt lat="43.21334" lon="5.4722">
        <ele>367</ele>
        <time>2025-10-19T12:37:51Z</time>
      </trkpt>
      <trkpt lat="43.21334" lon="5.4722">
        <ele>367.1</ele>
        <time>2025-10-19T12:37:52Z</time>
      </trkpt>
      <trkpt lat="43.21333" lon="5.4722">
        <ele>367</ele>
        <time>2025-10-19T12:37:53Z</time>
      </trkpt>
      <trkpt lat="43.21333" lon="5.4722">
        <ele>367</ele>
        <time>2025-10-19T12:37:54Z</time>
      </trkpt>
      <trkpt lat="43.21333" lon="5.4722">
        <ele>366.9</ele>
        <time>2025-10-19T12:37:55Z</time>
      </trkpt>
      <trkpt lat="43.21334" lon="5.4722">
        <ele>366.9</ele>
        <time>2025-10-19T12:37:56Z</time>
      </trkpt>
      <trkpt lat="43.21334" lon="5.47221">
        <ele>366.9</ele>
        <time>2025-10-19T12:37:57Z</time>
      </trkpt>
      <trkpt lat="43.21334" lon="5.47221">
        <ele>366.9</ele>
        <time>2025-10-19T12:37:58Z</time>
      </trkpt>
      <trkpt lat="43.21333" lon="5.4722">
        <ele>366.9</ele>
        <time>2025-10-19T12:37:59Z</time>
      </trkpt>
      <trkpt lat="43.21333" lon="5.4722">
        <ele>366.9</ele>
        <time>2025-10-19T12:38:00Z</time>
      </trkpt>
      <trkpt lat="43.21333" lon="5.47221">
        <ele>366.9</ele>
        <time>2025-10-19T12:38:01Z</time>
      </trkpt>
      <trkpt lat="43.21333" lon="5.4722">
        <ele>366.9</ele>
        <time>2025-10-19T12:38:02Z</time>
      </trkpt>
      <trkpt lat="43.21333" lon="5.4722">
        <ele>366.9</ele>
        <time>2025-10-19T12:38:03Z</time>
      </trkpt>
      <trkpt lat="43.21333" lon="5.4722">
        <ele>367</ele>
        <time>2025-10-19T12:38:04Z</time>
      </trkpt>
      <trkpt lat="43.21333" lon="5.4722">
        <ele>367</ele>
        <time>2025-10-19T12:38:05Z</time>
      </trkpt>
      <trkpt lat="43.21333" lon="5.4722">
        <ele>367</ele>
        <time>2025-10-19T12:38:06Z</time>
      </trkpt>
      <trkpt lat="43.21333" lon="5.4722">
        <ele>367</ele>
        <time>2025-10-19T12:38:07Z</time>
      </trkpt>
      <trkpt lat="43.21333" lon="5.4722">
        <ele>367</ele>
        <time>2025-10-19T12:38:08Z</time>
      </trkpt>
      <trkpt lat="43.21333" lon="5.4722">
        <ele>367</ele>
        <time>2025-10-19T12:38:09Z</time>
      </trkpt>
      <trkpt lat="43.21333" lon="5.4722">
        <ele>367</ele>
        <time>2025-10-19T12:38:10Z</time>
      </trkpt>
      <trkpt lat="43.21333" lon="5.47221">
        <ele>367</ele>
        <time>2025-10-19T12:38:11Z</time>
      </trkpt>
      <trkpt lat="43.21333" lon="5.4722">
        <ele>367</ele>
        <time>2025-10-19T12:38:12Z</time>
      </trkpt>
      <trkpt lat="43.21333" lon="5.4722">
        <ele>367</ele>
        <time>2025-10-19T12:38:13Z</time>
      </trkpt>
      <trkpt lat="43.21333" lon="5.4722">
        <ele>367</ele>
        <time>2025-10-19T12:38:14Z</time>
      </trkpt>
      <trkpt lat="43.21333" lon="5.4722">
        <ele>367</ele>
        <time>2025-10-19T12:38:15Z</time>
      </trkpt>
      <trkpt lat="43.21333" lon="5.4722">
        <ele>367</ele>
        <time>2025-10-19T12:38:16Z</time>
      </trkpt>
      <trkpt lat="43.21333" lon="5.47221">
        <ele>367.1</ele>
        <time>2025-10-19T12:38:17Z</time>
      </trkpt>
      <trkpt lat="43.21333" lon="5.47221">
        <ele>367</ele>
        <time>2025-10-19T12:38:18Z</time>
      </trkpt>
      <trkpt lat="43.21333" lon="5.4722">
        <ele>367</ele>
        <time>2025-10-19T12:38:19Z</time>
      </trkpt>
      <trkpt lat="43.21333" lon="5.4722">
        <ele>367</ele>
        <time>2025-10-19T12:38:20Z</time>
      </trkpt>
      <trkpt lat="43.21333" lon="5.4722">
        <ele>367</ele>
        <time>2025-10-19T12:38:21Z</time>
      </trkpt>
      <trkpt lat="43.21333" lon="5.4722">
        <ele>367</ele>
        <time>2025-10-19T12:38:22Z</time>
      </trkpt>
      <trkpt lat="43.21333" lon="5.4722">
        <ele>366.9</ele>
        <time>2025-10-19T12:38:23Z</time>
      </trkpt>
      <trkpt lat="43.21333" lon="5.4722">
        <ele>367</ele>
        <time>2025-10-19T12:38:24Z</time>
      </trkpt>
      <trkpt lat="43.21333" lon="5.4722">
        <ele>367.1</ele>
        <time>2025-10-19T12:38:25Z</time>
      </trkpt>
      <trkpt lat="43.21333" lon="5.4722">
        <ele>367.1</ele>
        <time>2025-10-19T12:38:26Z</time>
      </trkpt>
      <trkpt lat="43.21333" lon="5.4722">
        <ele>367.1</ele>
        <time>2025-10-19T12:38:27Z</time>
      </trkpt>
      <trkpt lat="43.21334" lon="5.4722">
        <ele>367.1</ele>
        <time>2025-10-19T12:38:28Z</time>
      </trkpt>
      <trkpt lat="43.21334" lon="5.4722">
        <ele>367.1</ele>
        <time>2025-10-19T12:38:29Z</time>
      </trkpt>
      <trkpt lat="43.21334" lon="5.47219">
        <ele>367.1</ele>
        <time>2025-10-19T12:38:30Z</time>
      </trkpt>
      <trkpt lat="43.21334" lon="5.4722">
        <ele>367.1</ele>
        <time>2025-10-19T12:38:31Z</time>
      </trkpt>
      <trkpt lat="43.21334" lon="5.4722">
        <ele>367</ele>
        <time>2025-10-19T12:38:32Z</time>
      </trkpt>
      <trkpt lat="43.21334" lon="5.4722">
        <ele>367</ele>
        <time>2025-10-19T12:38:33Z</time>
      </trkpt>
      <trkpt lat="43.21334" lon="5.4722">
        <ele>366.9</ele>
        <time>2025-10-19T12:38:34Z</time>
      </trkpt>
      <trkpt lat="43.21334" lon="5.4722">
        <ele>366.9</ele>
        <time>2025-10-19T12:38:35Z</time>
      </trkpt>
      <trkpt lat="43.21334" lon="5.4722">
        <ele>366.9</ele>
        <time>2025-10-19T12:38:36Z</time>
      </trkpt>
      <trkpt lat="43.21334" lon="5.4722">
        <ele>366.9</ele>
        <time>2025-10-19T12:38:37Z</time>
      </trkpt>
      <trkpt lat="43.21334" lon="5.4722">
        <ele>366.9</ele>
        <time>2025-10-19T12:38:38Z</time>
      </trkpt>
      <trkpt lat="43.21334" lon="5.4722">
        <ele>366.9</ele>
        <time>2025-10-19T12:38:39Z</time>
      </trkpt>
      <trkpt lat="43.21334" lon="5.4722">
        <ele>366.9</ele>
        <time>2025-10-19T12:38:40Z</time>
      </trkpt>
      <trkpt lat="43.21334" lon="5.4722">
        <ele>366.9</ele>
        <time>2025-10-19T12:38:41Z</time>
      </trkpt>
      <trkpt lat="43.21334" lon="5.4722">
        <ele>366.9</ele>
        <time>2025-10-19T12:38:42Z</time>
      </trkpt>
      <trkpt lat="43.21334" lon="5.4722">
        <ele>366.9</ele>
        <time>2025-10-19T12:38:43Z</time>
      </trkpt>
      <trkpt lat="43.21334" lon="5.47221">
        <ele>366.9</ele>
        <time>2025-10-19T12:38:44Z</time>
      </trkpt>
      <trkpt lat="43.21334" lon="5.47221">
        <ele>366.9</ele>
        <time>2025-10-19T12:38:45Z</time>
      </trkpt>
      <trkpt lat="43.21334" lon="5.47221">
        <ele>366.9</ele>
        <time>2025-10-19T12:38:46Z</time>
      </trkpt>
      <trkpt lat="43.21333" lon="5.47221">
        <ele>366.9</ele>
        <time>2025-10-19T12:38:47Z</time>
      </trkpt>
      <trkpt lat="43.21333" lon="5.47221">
        <ele>366.8</ele>
        <time>2025-10-19T12:38:48Z</time>
      </trkpt>
      <trkpt lat="43.21333" lon="5.4722">
        <ele>366.8</ele>
        <time>2025-10-19T12:38:49Z</time>
      </trkpt>
      <trkpt lat="43.21333" lon="5.4722">
        <ele>366.8</ele>
        <time>2025-10-19T12:38:50Z</time>
      </trkpt>
      <trkpt lat="43.21333" lon="5.47221">
        <ele>366.9</ele>
        <time>2025-10-19T12:38:51Z</time>
      </trkpt>
      <trkpt lat="43.21333" lon="5.4722">
        <ele>366.9</ele>
        <time>2025-10-19T12:38:52Z</time>
      </trkpt>
      <trkpt lat="43.21333" lon="5.4722">
        <ele>366.8</ele>
        <time>2025-10-19T12:38:53Z</time>
      </trkpt>
      <trkpt lat="43.21333" lon="5.4722">
        <ele>366.7</ele>
        <time>2025-10-19T12:38:54Z</time>
      </trkpt>
      <trkpt lat="43.21333" lon="5.4722">
        <ele>366.7</ele>
        <time>2025-10-19T12:38:55Z</time>
      </trkpt>
      <trkpt lat="43.21333" lon="5.4722">
        <ele>366.6</ele>
        <time>2025-10-19T12:38:56Z</time>
      </trkpt>
      <trkpt lat="43.21333" lon="5.4722">
        <ele>366.6</ele>
        <time>2025-10-19T12:38:57Z</time>
      </trkpt>
      <trkpt lat="43.21333" lon="5.4722">
        <ele>366.6</ele>
        <time>2025-10-19T12:38:58Z</time>
      </trkpt>
      <trkpt lat="43.21333" lon="5.4722">
        <ele>366.6</ele>
        <time>2025-10-19T12:38:59Z</time>
      </trkpt>
      <trkpt lat="43.21333" lon="5.4722">
        <ele>366.5</ele>
        <time>2025-10-19T12:39:00Z</time>
      </trkpt>
      <trkpt lat="43.21333" lon="5.4722">
        <ele>366.5</ele>
        <time>2025-10-19T12:39:01Z</time>
      </trkpt>
      <trkpt lat="43.21333" lon="5.4722">
        <ele>366.5</ele>
        <time>2025-10-19T12:39:02Z</time>
      </trkpt>
      <trkpt lat="43.21333" lon="5.4722">
        <ele>366.5</ele>
        <time>2025-10-19T12:39:03Z</time>
      </trkpt>
      <trkpt lat="43.21333" lon="5.4722">
        <ele>366.5</ele>
        <time>2025-10-19T12:39:04Z</time>
      </trkpt>
      <trkpt lat="43.21333" lon="5.4722">
        <ele>366.4</ele>
        <time>2025-10-19T12:39:05Z</time>
      </trkpt>
      <trkpt lat="43.21333" lon="5.4722">
        <ele>366.4</ele>
        <time>2025-10-19T12:39:06Z</time>
      </trkpt>
      <trkpt lat="43.21333" lon="5.4722">
        <ele>366.4</ele>
        <time>2025-10-19T12:39:07Z</time>
      </trkpt>
      <trkpt lat="43.21333" lon="5.4722">
        <ele>366.3</ele>
        <time>2025-10-19T12:39:08Z</time>
      </trkpt>
      <trkpt lat="43.21333" lon="5.4722">
        <ele>366.3</ele>
        <time>2025-10-19T12:39:09Z</time>
      </trkpt>
      <trkpt lat="43.21333" lon="5.47221">
        <ele>366.3</ele>
        <time>2025-10-19T12:39:10Z</time>
      </trkpt>
      <trkpt lat="43.21333" lon="5.47221">
        <ele>366.3</ele>
        <time>2025-10-19T12:39:11Z</time>
      </trkpt>
      <trkpt lat="43.21333" lon="5.47221">
        <ele>366.3</ele>
        <time>2025-10-19T12:39:12Z</time>
      </trkpt>
      <trkpt lat="43.21333" lon="5.47221">
        <ele>366.3</ele>
        <time>2025-10-19T12:39:13Z</time>
      </trkpt>
      <trkpt lat="43.21333" lon="5.47221">
        <ele>366.4</ele>
        <time>2025-10-19T12:39:14Z</time>
      </trkpt>
      <trkpt lat="43.21333" lon="5.47221">
        <ele>366.5</ele>
        <time>2025-10-19T12:39:15Z</time>
      </trkpt>
      <trkpt lat="43.21333" lon="5.47221">
        <ele>366.5</ele>
        <time>2025-10-19T12:39:16Z</time>
      </trkpt>
      <trkpt lat="43.21333" lon="5.47221">
        <ele>366.5</ele>
        <time>2025-10-19T12:39:17Z</time>
      </trkpt>
      <trkpt lat="43.21333" lon="5.47221">
        <ele>366.6</ele>
        <time>2025-10-19T12:39:18Z</time>
      </trkpt>
      <trkpt lat="43.21333" lon="5.47221">
        <ele>366.7</ele>
        <time>2025-10-19T12:39:19Z</time>
      </trkpt>
      <trkpt lat="43.21333" lon="5.47221">
        <ele>366.7</ele>
        <time>2025-10-19T12:39:20Z</time>
      </trkpt>
      <trkpt lat="43.21333" lon="5.47221">
        <ele>366.6</ele>
        <time>2025-10-19T12:39:21Z</time>
      </trkpt>
      <trkpt lat="43.21333" lon="5.47221">
        <ele>366.6</ele>
        <time>2025-10-19T12:39:22Z</time>
      </trkpt>
      <trkpt lat="43.21333" lon="5.4722">
        <ele>366.6</ele>
        <time>2025-10-19T12:39:23Z</time>
      </trkpt>
      <trkpt lat="43.21333" lon="5.4722">
        <ele>366.6</ele>
        <time>2025-10-19T12:39:24Z</time>
      </trkpt>
      <trkpt lat="43.21333" lon="5.4722">
        <ele>366.7</ele>
        <time>2025-10-19T12:39:25Z</time>
      </trkpt>
      <trkpt lat="43.21333" lon="5.4722">
        <ele>366.7</ele>
        <time>2025-10-19T12:39:26Z</time>
      </trkpt>
      <trkpt lat="43.21333" lon="5.4722">
        <ele>366.7</ele>
        <time>2025-10-19T12:39:27Z</time>
      </trkpt>
      <trkpt lat="43.21333" lon="5.4722">
        <ele>366.8</ele>
        <time>2025-10-19T12:39:28Z</time>
      </trkpt>
      <trkpt lat="43.21333" lon="5.4722">
        <ele>366.7</ele>
        <time>2025-10-19T12:39:29Z</time>
      </trkpt>
      <trkpt lat="43.21333" lon="5.4722">
        <ele>366.9</ele>
        <time>2025-10-19T12:39:30Z</time>
      </trkpt>
      <trkpt lat="43.21333" lon="5.4722">
        <ele>367</ele>
        <time>2025-10-19T12:39:31Z</time>
      </trkpt>
      <trkpt lat="43.21333" lon="5.4722">
        <ele>367</ele>
        <time>2025-10-19T12:39:32Z</time>
      </trkpt>
      <trkpt lat="43.21333" lon="5.4722">
        <ele>367</ele>
        <time>2025-10-19T12:39:33Z</time>
      </trkpt>
      <trkpt lat="43.21333" lon="5.4722">
        <ele>366.9</ele>
        <time>2025-10-19T12:39:34Z</time>
      </trkpt>
      <trkpt lat="43.21333" lon="5.4722">
        <ele>366.9</ele>
        <time>2025-10-19T12:39:35Z</time>
      </trkpt>
      <trkpt lat="43.21333" lon="5.47219">
        <ele>366.9</ele>
        <time>2025-10-19T12:39:36Z</time>
      </trkpt>
      <trkpt lat="43.21333" lon="5.47219">
        <ele>366.9</ele>
        <time>2025-10-19T12:39:37Z</time>
      </trkpt>
      <trkpt lat="43.21333" lon="5.47219">
        <ele>367</ele>
        <time>2025-10-19T12:39:38Z</time>
      </trkpt>
      <trkpt lat="43.21333" lon="5.47219">
        <ele>367</ele>
        <time>2025-10-19T12:39:39Z</time>
      </trkpt>
      <trkpt lat="43.21333" lon="5.47219">
        <ele>366.9</ele>
        <time>2025-10-19T12:39:40Z</time>
      </trkpt>
      <trkpt lat="43.21333" lon="5.47219">
        <ele>366.8</ele>
        <time>2025-10-19T12:39:41Z</time>
      </trkpt>
      <trkpt lat="43.21333" lon="5.47218">
        <ele>366.9</ele>
        <time>2025-10-19T12:39:42Z</time>
      </trkpt>
      <trkpt lat="43.21333" lon="5.47218">
        <ele>366.8</ele>
        <time>2025-10-19T12:39:43Z</time>
      </trkpt>
      <trkpt lat="43.21333" lon="5.47218">
        <ele>366.8</ele>
        <time>2025-10-19T12:39:44Z</time>
      </trkpt>
      <trkpt lat="43.21332" lon="5.47218">
        <ele>366.8</ele>
        <time>2025-10-19T12:39:45Z</time>
      </trkpt>
      <trkpt lat="43.21332" lon="5.47218">
        <ele>366.9</ele>
        <time>2025-10-19T12:39:46Z</time>
      </trkpt>
      <trkpt lat="43.21332" lon="5.47218">
        <ele>366.9</ele>
        <time>2025-10-19T12:39:47Z</time>
      </trkpt>
      <trkpt lat="43.21332" lon="5.47217">
        <ele>366.9</ele>
        <time>2025-10-19T12:39:48Z</time>
      </trkpt>
      <trkpt lat="43.21332" lon="5.47217">
        <ele>366.9</ele>
        <time>2025-10-19T12:39:49Z</time>
      </trkpt>
      <trkpt lat="43.21332" lon="5.47217">
        <ele>366.9</ele>
        <time>2025-10-19T12:39:50Z</time>
      </trkpt>
      <trkpt lat="43.21332" lon="5.47217">
        <ele>366.9</ele>
        <time>2025-10-19T12:39:51Z</time>
      </trkpt>
      <trkpt lat="43.21332" lon="5.47217">
        <ele>366.9</ele>
        <time>2025-10-19T12:39:52Z</time>
      </trkpt>
      <trkpt lat="43.21332" lon="5.47217">
        <ele>366.9</ele>
        <time>2025-10-19T12:39:53Z</time>
      </trkpt>
      <trkpt lat="43.21332" lon="5.47217">
        <ele>366.9</ele>
        <time>2025-10-19T12:39:54Z</time>
      </trkpt>
      <trkpt lat="43.21332" lon="5.47217">
        <ele>366.9</ele>
        <time>2025-10-19T12:39:55Z</time>
      </trkpt>
      <trkpt lat="43.21332" lon="5.47217">
        <ele>366.9</ele>
        <time>2025-10-19T12:39:56Z</time>
      </trkpt>
      <trkpt lat="43.21332" lon="5.47216">
        <ele>366.8</ele>
        <time>2025-10-19T12:39:57Z</time>
      </trkpt>
      <trkpt lat="43.21332" lon="5.47216">
        <ele>366.8</ele>
        <time>2025-10-19T12:39:58Z</time>
      </trkpt>
      <trkpt lat="43.21332" lon="5.47216">
        <ele>366.7</ele>
        <time>2025-10-19T12:39:59Z</time>
      </trkpt>
      <trkpt lat="43.21331" lon="5.47216">
        <ele>366.7</ele>
        <time>2025-10-19T12:40:00Z</time>
      </trkpt>
      <trkpt lat="43.21331" lon="5.47216">
        <ele>366.7</ele>
        <time>2025-10-19T12:40:01Z</time>
      </trkpt>
      <trkpt lat="43.21331" lon="5.47216">
        <ele>366.7</ele>
        <time>2025-10-19T12:40:02Z</time>
      </trkpt>
      <trkpt lat="43.21331" lon="5.47217">
        <ele>366.7</ele>
        <time>2025-10-19T12:40:03Z</time>
      </trkpt>
      <trkpt lat="43.21331" lon="5.47217">
        <ele>366.7</ele>
        <time>2025-10-19T12:40:04Z</time>
      </trkpt>
      <trkpt lat="43.21331" lon="5.47217">
        <ele>366.7</ele>
        <time>2025-10-19T12:40:05Z</time>
      </trkpt>
      <trkpt lat="43.21331" lon="5.47217">
        <ele>366.8</ele>
        <time>2025-10-19T12:40:06Z</time>
      </trkpt>
      <trkpt lat="43.21331" lon="5.47216">
        <ele>366.8</ele>
        <time>2025-10-19T12:40:07Z</time>
      </trkpt>
      <trkpt lat="43.21331" lon="5.47216">
        <ele>366.8</ele>
        <time>2025-10-19T12:40:08Z</time>
      </trkpt>
      <trkpt lat="43.21331" lon="5.47217">
        <ele>366.7</ele>
        <time>2025-10-19T12:40:09Z</time>
      </trkpt>
      <trkpt lat="43.21331" lon="5.47216">
        <ele>366.6</ele>
        <time>2025-10-19T12:40:10Z</time>
      </trkpt>
      <trkpt lat="43.21331" lon="5.47217">
        <ele>366.6</ele>
        <time>2025-10-19T12:40:11Z</time>
      </trkpt>
      <trkpt lat="43.21331" lon="5.47217">
        <ele>366.5</ele>
        <time>2025-10-19T12:40:12Z</time>
      </trkpt>
      <trkpt lat="43.21331" lon="5.47217">
        <ele>366.4</ele>
        <time>2025-10-19T12:40:13Z</time>
      </trkpt>
      <trkpt lat="43.21331" lon="5.47217">
        <ele>366.3</ele>
        <time>2025-10-19T12:40:14Z</time>
      </trkpt>
      <trkpt lat="43.21331" lon="5.47217">
        <ele>366.3</ele>
        <time>2025-10-19T12:40:15Z</time>
      </trkpt>
      <trkpt lat="43.21331" lon="5.47217">
        <ele>366.3</ele>
        <time>2025-10-19T12:40:16Z</time>
      </trkpt>
      <trkpt lat="43.21331" lon="5.47217">
        <ele>366.2</ele>
        <time>2025-10-19T12:40:17Z</time>
      </trkpt>
      <trkpt lat="43.21331" lon="5.47217">
        <ele>366.1</ele>
        <time>2025-10-19T12:40:18Z</time>
      </trkpt>
      <trkpt lat="43.21331" lon="5.47217">
        <ele>366.1</ele>
        <time>2025-10-19T12:40:19Z</time>
      </trkpt>
      <trkpt lat="43.21331" lon="5.47217">
        <ele>366.1</ele>
        <time>2025-10-19T12:40:20Z</time>
      </trkpt>
      <trkpt lat="43.21331" lon="5.47217">
        <ele>366.1</ele>
        <time>2025-10-19T12:40:21Z</time>
      </trkpt>
      <trkpt lat="43.21331" lon="5.47217">
        <ele>366.1</ele>
        <time>2025-10-19T12:40:22Z</time>
      </trkpt>
      <trkpt lat="43.21331" lon="5.47217">
        <ele>366</ele>
        <time>2025-10-19T12:40:23Z</time>
      </trkpt>
      <trkpt lat="43.21331" lon="5.47217">
        <ele>366</ele>
        <time>2025-10-19T12:40:24Z</time>
      </trkpt>
      <trkpt lat="43.21331" lon="5.47217">
        <ele>366.1</ele>
        <time>2025-10-19T12:40:25Z</time>
      </trkpt>
      <trkpt lat="43.21331" lon="5.47217">
        <ele>366</ele>
        <time>2025-10-19T12:40:26Z</time>
      </trkpt>
      <trkpt lat="43.21331" lon="5.47217">
        <ele>366</ele>
        <time>2025-10-19T12:40:27Z</time>
      </trkpt>
      <trkpt lat="43.21332" lon="5.47217">
        <ele>366.1</ele>
        <time>2025-10-19T12:40:28Z</time>
      </trkpt>
      <trkpt lat="43.21332" lon="5.47217">
        <ele>366.1</ele>
        <time>2025-10-19T12:40:29Z</time>
      </trkpt>
      <trkpt lat="43.21332" lon="5.47217">
        <ele>366</ele>
        <time>2025-10-19T12:40:30Z</time>
      </trkpt>
      <trkpt lat="43.21331" lon="5.47216">
        <ele>365.9</ele>
        <time>2025-10-19T12:40:31Z</time>
      </trkpt>
      <trkpt lat="43.21331" lon="5.47216">
        <ele>365.9</ele>
        <time>2025-10-19T12:40:32Z</time>
      </trkpt>
      <trkpt lat="43.21331" lon="5.47216">
        <ele>365.9</ele>
        <time>2025-10-19T12:40:33Z</time>
      </trkpt>
      <trkpt lat="43.21332" lon="5.47216">
        <ele>365.9</ele>
        <time>2025-10-19T12:40:34Z</time>
      </trkpt>
      <trkpt lat="43.21332" lon="5.47216">
        <ele>365.9</ele>
        <time>2025-10-19T12:40:35Z</time>
      </trkpt>
      <trkpt lat="43.21333" lon="5.47216">
        <ele>366</ele>
        <time>2025-10-19T12:40:36Z</time>
      </trkpt>
      <trkpt lat="43.21333" lon="5.47215">
        <ele>366</ele>
        <time>2025-10-19T12:40:37Z</time>
      </trkpt>
      <trkpt lat="43.21333" lon="5.47215">
        <ele>366.1</ele>
        <time>2025-10-19T12:40:38Z</time>
      </trkpt>
      <trkpt lat="43.21333" lon="5.47214">
        <ele>366.1</ele>
        <time>2025-10-19T12:40:39Z</time>
      </trkpt>
      <trkpt lat="43.21334" lon="5.47213">
        <ele>366.1</ele>
        <time>2025-10-19T12:40:40Z</time>
      </trkpt>
      <trkpt lat="43.21334" lon="5.47213">
        <ele>366.1</ele>
        <time>2025-10-19T12:40:41Z</time>
      </trkpt>
      <trkpt lat="43.21334" lon="5.47213">
        <ele>366.1</ele>
        <time>2025-10-19T12:40:42Z</time>
      </trkpt>
      <trkpt lat="43.21335" lon="5.47213">
        <ele>366.1</ele>
        <time>2025-10-19T12:40:43Z</time>
      </trkpt>
      <trkpt lat="43.21335" lon="5.47213">
        <ele>366.1</ele>
        <time>2025-10-19T12:40:44Z</time>
      </trkpt>
      <trkpt lat="43.21335" lon="5.47214">
        <ele>366.1</ele>
        <time>2025-10-19T12:40:45Z</time>
      </trkpt>
      <trkpt lat="43.21335" lon="5.47214">
        <ele>366.1</ele>
        <time>2025-10-19T12:40:46Z</time>
      </trkpt>
      <trkpt lat="43.21335" lon="5.47214">
        <ele>366.1</ele>
        <time>2025-10-19T12:40:47Z</time>
      </trkpt>
      <trkpt lat="43.21336" lon="5.47214">
        <ele>366.1</ele>
        <time>2025-10-19T12:40:48Z</time>
      </trkpt>
      <trkpt lat="43.21336" lon="5.47214">
        <ele>365.9</ele>
        <time>2025-10-19T12:40:49Z</time>
      </trkpt>
      <trkpt lat="43.21336" lon="5.47214">
        <ele>365.8</ele>
        <time>2025-10-19T12:40:50Z</time>
      </trkpt>
      <trkpt lat="43.21336" lon="5.47214">
        <ele>365.6</ele>
        <time>2025-10-19T12:40:51Z</time>
      </trkpt>
      <trkpt lat="43.21336" lon="5.47214">
        <ele>365.6</ele>
        <time>2025-10-19T12:40:52Z</time>
      </trkpt>
      <trkpt lat="43.21336" lon="5.47214">
        <ele>365.4</ele>
        <time>2025-10-19T12:40:53Z</time>
      </trkpt>
      <trkpt lat="43.21336" lon="5.47215">
        <ele>365.4</ele>
        <time>2025-10-19T12:40:54Z</time>
      </trkpt>
      <trkpt lat="43.21336" lon="5.47215">
        <ele>365.4</ele>
        <time>2025-10-19T12:40:55Z</time>
      </trkpt>
      <trkpt lat="43.21337" lon="5.47215">
        <ele>365.4</ele>
        <time>2025-10-19T12:40:56Z</time>
      </trkpt>
      <trkpt lat="43.21337" lon="5.47215">
        <ele>365.4</ele>
        <time>2025-10-19T12:40:57Z</time>
      </trkpt>
      <trkpt lat="43.21337" lon="5.47215">
        <ele>365.4</ele>
        <time>2025-10-19T12:40:58Z</time>
      </trkpt>
      <trkpt lat="43.21337" lon="5.47215">
        <ele>365.4</ele>
        <time>2025-10-19T12:40:59Z</time>
      </trkpt>
      <trkpt lat="43.21337" lon="5.47216">
        <ele>365.4</ele>
        <time>2025-10-19T12:41:00Z</time>
      </trkpt>
      <trkpt lat="43.21338" lon="5.47215">
        <ele>365.4</ele>
        <time>2025-10-19T12:41:01Z</time>
      </trkpt>
      <trkpt lat="43.21338" lon="5.47215">
        <ele>365.3</ele>
        <time>2025-10-19T12:41:02Z</time>
      </trkpt>
      <trkpt lat="43.21338" lon="5.47215">
        <ele>365.3</ele>
        <time>2025-10-19T12:41:03Z</time>
      </trkpt>
      <trkpt lat="43.21338" lon="5.47215">
        <ele>365.3</ele>
        <time>2025-10-19T12:41:04Z</time>
      </trkpt>
      <trkpt lat="43.21338" lon="5.47215">
        <ele>365.3</ele>
        <time>2025-10-19T12:41:05Z</time>
      </trkpt>
      <trkpt lat="43.21338" lon="5.47215">
        <ele>365.2</ele>
        <time>2025-10-19T12:41:06Z</time>
      </trkpt>
      <trkpt lat="43.21338" lon="5.47215">
        <ele>365.3</ele>
        <time>2025-10-19T12:41:07Z</time>
      </trkpt>
      <trkpt lat="43.21338" lon="5.47214">
        <ele>365.4</ele>
        <time>2025-10-19T12:41:08Z</time>
      </trkpt>
      <trkpt lat="43.21338" lon="5.47214">
        <ele>365.5</ele>
        <time>2025-10-19T12:41:09Z</time>
      </trkpt>
      <trkpt lat="43.21338" lon="5.47214">
        <ele>365.8</ele>
        <time>2025-10-19T12:41:10Z</time>
      </trkpt>
      <trkpt lat="43.21338" lon="5.47214">
        <ele>365.9</ele>
        <time>2025-10-19T12:41:11Z</time>
      </trkpt>
      <trkpt lat="43.21338" lon="5.47214">
        <ele>366</ele>
        <time>2025-10-19T12:41:12Z</time>
      </trkpt>
      <trkpt lat="43.21338" lon="5.47214">
        <ele>366</ele>
        <time>2025-10-19T12:41:13Z</time>
      </trkpt>
      <trkpt lat="43.21338" lon="5.47214">
        <ele>366</ele>
        <time>2025-10-19T12:41:14Z</time>
      </trkpt>
      <trkpt lat="43.21338" lon="5.47214">
        <ele>366</ele>
        <time>2025-10-19T12:41:15Z</time>
      </trkpt>
      <trkpt lat="43.21337" lon="5.47214">
        <ele>366.1</ele>
        <time>2025-10-19T12:41:16Z</time>
      </trkpt>
      <trkpt lat="43.21338" lon="5.47214">
        <ele>366.1</ele>
        <time>2025-10-19T12:41:17Z</time>
      </trkpt>
      <trkpt lat="43.21338" lon="5.47213">
        <ele>366.1</ele>
        <time>2025-10-19T12:41:18Z</time>
      </trkpt>
      <trkpt lat="43.21338" lon="5.47213">
        <ele>366.1</ele>
        <time>2025-10-19T12:41:19Z</time>
      </trkpt>
      <trkpt lat="43.21338" lon="5.47213">
        <ele>366.1</ele>
        <time>2025-10-19T12:41:20Z</time>
      </trkpt>
      <trkpt lat="43.21338" lon="5.47212">
        <ele>366.2</ele>
        <time>2025-10-19T12:41:21Z</time>
      </trkpt>
      <trkpt lat="43.21339" lon="5.47212">
        <ele>366.2</ele>
        <time>2025-10-19T12:41:22Z</time>
      </trkpt>
      <trkpt lat="43.2134" lon="5.47211">
        <ele>366.2</ele>
        <time>2025-10-19T12:41:23Z</time>
      </trkpt>
      <trkpt lat="43.2134" lon="5.47211">
        <ele>366.2</ele>
        <time>2025-10-19T12:41:24Z</time>
      </trkpt>
      <trkpt lat="43.2134" lon="5.4721">
        <ele>366.3</ele>
        <time>2025-10-19T12:41:25Z</time>
      </trkpt>
      <trkpt lat="43.21341" lon="5.47209">
        <ele>366.4</ele>
        <time>2025-10-19T12:41:26Z</time>
      </trkpt>
      <trkpt lat="43.21341" lon="5.47208">
        <ele>366.4</ele>
        <time>2025-10-19T12:41:27Z</time>
      </trkpt>
      <trkpt lat="43.21341" lon="5.47208">
        <ele>366.4</ele>
        <time>2025-10-19T12:41:28Z</time>
      </trkpt>
      <trkpt lat="43.21341" lon="5.47208">
        <ele>366.6</ele>
        <time>2025-10-19T12:41:29Z</time>
      </trkpt>
      <trkpt lat="43.21341" lon="5.47208">
        <ele>366.7</ele>
        <time>2025-10-19T12:41:30Z</time>
      </trkpt>
      <trkpt lat="43.21341" lon="5.47208">
        <ele>366.9</ele>
        <time>2025-10-19T12:41:31Z</time>
      </trkpt>
      <trkpt lat="43.21341" lon="5.47207">
        <ele>367</ele>
        <time>2025-10-19T12:41:32Z</time>
      </trkpt>
      <trkpt lat="43.21342" lon="5.47207">
        <ele>367.1</ele>
        <time>2025-10-19T12:41:33Z</time>
      </trkpt>
      <trkpt lat="43.21343" lon="5.47207">
        <ele>367.3</ele>
        <time>2025-10-19T12:41:34Z</time>
      </trkpt>
      <trkpt lat="43.21343" lon="5.47207">
        <ele>367.5</ele>
        <time>2025-10-19T12:41:35Z</time>
      </trkpt>
      <trkpt lat="43.21343" lon="5.47206">
        <ele>367.6</ele>
        <time>2025-10-19T12:41:36Z</time>
      </trkpt>
      <trkpt lat="43.21343" lon="5.47206">
        <ele>367.6</ele>
        <time>2025-10-19T12:41:37Z</time>
      </trkpt>
      <trkpt lat="43.21343" lon="5.47206">
        <ele>367.7</ele>
        <time>2025-10-19T12:41:38Z</time>
      </trkpt>
      <trkpt lat="43.21344" lon="5.47206">
        <ele>367.9</ele>
        <time>2025-10-19T12:41:39Z</time>
      </trkpt>
      <trkpt lat="43.21344" lon="5.47206">
        <ele>368</ele>
        <time>2025-10-19T12:41:40Z</time>
      </trkpt>
      <trkpt lat="43.21345" lon="5.47206">
        <ele>368.1</ele>
        <time>2025-10-19T12:41:41Z</time>
      </trkpt>
      <trkpt lat="43.21345" lon="5.47206">
        <ele>368.3</ele>
        <time>2025-10-19T12:41:42Z</time>
      </trkpt>
      <trkpt lat="43.21346" lon="5.47206">
        <ele>368.5</ele>
        <time>2025-10-19T12:41:43Z</time>
      </trkpt>
      <trkpt lat="43.21346" lon="5.47206">
        <ele>368.6</ele>
        <time>2025-10-19T12:41:44Z</time>
      </trkpt>
      <trkpt lat="43.21347" lon="5.47206">
        <ele>368.8</ele>
        <time>2025-10-19T12:41:45Z</time>
      </trkpt>
      <trkpt lat="43.21348" lon="5.47206">
        <ele>369</ele>
        <time>2025-10-19T12:41:46Z</time>
      </trkpt>
      <trkpt lat="43.21348" lon="5.47205">
        <ele>369.2</ele>
        <time>2025-10-19T12:41:47Z</time>
      </trkpt>
      <trkpt lat="43.21349" lon="5.47204">
        <ele>369.4</ele>
        <time>2025-10-19T12:41:48Z</time>
      </trkpt>
      <trkpt lat="43.21349" lon="5.47204">
        <ele>369.7</ele>
        <time>2025-10-19T12:41:49Z</time>
      </trkpt>
      <trkpt lat="43.21349" lon="5.47203">
        <ele>369.9</ele>
        <time>2025-10-19T12:41:50Z</time>
      </trkpt>
      <trkpt lat="43.21349" lon="5.47202">
        <ele>370.2</ele>
        <time>2025-10-19T12:41:51Z</time>
      </trkpt>
      <trkpt lat="43.21348" lon="5.47202">
        <ele>370.4</ele>
        <time>2025-10-19T12:41:52Z</time>
      </trkpt>
      <trkpt lat="43.21348" lon="5.47202">
        <ele>370.6</ele>
        <time>2025-10-19T12:41:53Z</time>
      </trkpt>
      <trkpt lat="43.21348" lon="5.47202">
        <ele>370.7</ele>
        <time>2025-10-19T12:41:54Z</time>
      </trkpt>
      <trkpt lat="43.21348" lon="5.47202">
        <ele>370.9</ele>
        <time>2025-10-19T12:41:55Z</time>
      </trkpt>
      <trkpt lat="43.21348" lon="5.47202">
        <ele>371.1</ele>
        <time>2025-10-19T12:41:56Z</time>
      </trkpt>
      <trkpt lat="43.21348" lon="5.47201">
        <ele>371.3</ele>
        <time>2025-10-19T12:41:57Z</time>
      </trkpt>
      <trkpt lat="43.21348" lon="5.47201">
        <ele>371.4</ele>
        <time>2025-10-19T12:41:58Z</time>
      </trkpt>
      <trkpt lat="43.21348" lon="5.472">
        <ele>371.5</ele>
        <time>2025-10-19T12:41:59Z</time>
      </trkpt>
      <trkpt lat="43.21349" lon="5.47199">
        <ele>371.7</ele>
        <time>2025-10-19T12:42:00Z</time>
      </trkpt>
      <trkpt lat="43.21349" lon="5.47199">
        <ele>371.8</ele>
        <time>2025-10-19T12:42:01Z</time>
      </trkpt>
      <trkpt lat="43.21349" lon="5.47199">
        <ele>371.9</ele>
        <time>2025-10-19T12:42:02Z</time>
      </trkpt>
      <trkpt lat="43.21349" lon="5.47198">
        <ele>372.1</ele>
        <time>2025-10-19T12:42:03Z</time>
      </trkpt>
      <trkpt lat="43.21349" lon="5.47198">
        <ele>372.2</ele>
        <time>2025-10-19T12:42:04Z</time>
      </trkpt>
      <trkpt lat="43.21349" lon="5.47198">
        <ele>372.3</ele>
        <time>2025-10-19T12:42:05Z</time>
      </trkpt>
      <trkpt lat="43.21349" lon="5.47197">
        <ele>372.4</ele>
        <time>2025-10-19T12:42:06Z</time>
      </trkpt>
      <trkpt lat="43.21349" lon="5.47197">
        <ele>372.5</ele>
        <time>2025-10-19T12:42:07Z</time>
      </trkpt>
      <trkpt lat="43.21349" lon="5.47197">
        <ele>372.5</ele>
        <time>2025-10-19T12:42:08Z</time>
      </trkpt>
      <trkpt lat="43.21349" lon="5.47197">
        <ele>372.6</ele>
        <time>2025-10-19T12:42:09Z</time>
      </trkpt>
      <trkpt lat="43.21349" lon="5.47197">
        <ele>372.6</ele>
        <time>2025-10-19T12:42:10Z</time>
      </trkpt>
      <trkpt lat="43.2135" lon="5.47197">
        <ele>372.7</ele>
        <time>2025-10-19T12:42:11Z</time>
      </trkpt>
      <trkpt lat="43.2135" lon="5.47197">
        <ele>372.7</ele>
        <time>2025-10-19T12:42:12Z</time>
      </trkpt>
      <trkpt lat="43.2135" lon="5.47197">
        <ele>372.8</ele>
        <time>2025-10-19T12:42:13Z</time>
      </trkpt>
      <trkpt lat="43.2135" lon="5.47196">
        <ele>372.7</ele>
        <time>2025-10-19T12:42:14Z</time>
      </trkpt>
      <trkpt lat="43.2135" lon="5.47196">
        <ele>372.7</ele>
        <time>2025-10-19T12:42:15Z</time>
      </trkpt>
      <trkpt lat="43.2135" lon="5.47196">
        <ele>372.6</ele>
        <time>2025-10-19T12:42:16Z</time>
      </trkpt>
      <trkpt lat="43.2135" lon="5.47196">
        <ele>372.6</ele>
        <time>2025-10-19T12:42:17Z</time>
      </trkpt>
      <trkpt lat="43.2135" lon="5.47195">
        <ele>372.7</ele>
        <time>2025-10-19T12:42:18Z</time>
      </trkpt>
      <trkpt lat="43.2135" lon="5.47194">
        <ele>372.8</ele>
        <time>2025-10-19T12:42:19Z</time>
      </trkpt>
      <trkpt lat="43.2135" lon="5.47193">
        <ele>372.9</ele>
        <time>2025-10-19T12:42:20Z</time>
      </trkpt>
      <trkpt lat="43.2135" lon="5.47191">
        <ele>373</ele>
        <time>2025-10-19T12:42:21Z</time>
      </trkpt>
      <trkpt lat="43.2135" lon="5.4719">
        <ele>373.1</ele>
        <time>2025-10-19T12:42:22Z</time>
      </trkpt>
      <trkpt lat="43.2135" lon="5.47189">
        <ele>373.3</ele>
        <time>2025-10-19T12:42:23Z</time>
      </trkpt>
      <trkpt lat="43.2135" lon="5.47188">
        <ele>373.4</ele>
        <time>2025-10-19T12:42:24Z</time>
      </trkpt>
      <trkpt lat="43.2135" lon="5.47187">
        <ele>373.5</ele>
        <time>2025-10-19T12:42:25Z</time>
      </trkpt>
      <trkpt lat="43.2135" lon="5.47187">
        <ele>373.7</ele>
        <time>2025-10-19T12:42:26Z</time>
      </trkpt>
      <trkpt lat="43.2135" lon="5.47186">
        <ele>373.8</ele>
        <time>2025-10-19T12:42:27Z</time>
      </trkpt>
      <trkpt lat="43.2135" lon="5.47186">
        <ele>373.8</ele>
        <time>2025-10-19T12:42:28Z</time>
      </trkpt>
      <trkpt lat="43.2135" lon="5.47185">
        <ele>373.8</ele>
        <time>2025-10-19T12:42:29Z</time>
      </trkpt>
      <trkpt lat="43.21351" lon="5.47184">
        <ele>373.8</ele>
        <time>2025-10-19T12:42:30Z</time>
      </trkpt>
      <trkpt lat="43.21351" lon="5.47184">
        <ele>374</ele>
        <time>2025-10-19T12:42:31Z</time>
      </trkpt>
      <trkpt lat="43.21351" lon="5.47183">
        <ele>374.1</ele>
        <time>2025-10-19T12:42:32Z</time>
      </trkpt>
      <trkpt lat="43.21351" lon="5.47182">
        <ele>374.1</ele>
        <time>2025-10-19T12:42:33Z</time>
      </trkpt>
      <trkpt lat="43.21351" lon="5.47181">
        <ele>374.2</ele>
        <time>2025-10-19T12:42:34Z</time>
      </trkpt>
      <trkpt lat="43.21351" lon="5.4718">
        <ele>374.3</ele>
        <time>2025-10-19T12:42:35Z</time>
      </trkpt>
      <trkpt lat="43.21351" lon="5.4718">
        <ele>374.3</ele>
        <time>2025-10-19T12:42:36Z</time>
      </trkpt>
      <trkpt lat="43.2135" lon="5.47179">
        <ele>374.3</ele>
        <time>2025-10-19T12:42:37Z</time>
      </trkpt>
      <trkpt lat="43.2135" lon="5.47178">
        <ele>374.4</ele>
        <time>2025-10-19T12:42:38Z</time>
      </trkpt>
      <trkpt lat="43.2135" lon="5.47177">
        <ele>374.4</ele>
        <time>2025-10-19T12:42:39Z</time>
      </trkpt>
      <trkpt lat="43.2135" lon="5.47176">
        <ele>374.5</ele>
        <time>2025-10-19T12:42:40Z</time>
      </trkpt>
      <trkpt lat="43.21349" lon="5.47176">
        <ele>374.4</ele>
        <time>2025-10-19T12:42:41Z</time>
      </trkpt>
      <trkpt lat="43.21349" lon="5.47176">
        <ele>374.5</ele>
        <time>2025-10-19T12:42:42Z</time>
      </trkpt>
      <trkpt lat="43.21348" lon="5.47175">
        <ele>374.3</ele>
        <time>2025-10-19T12:42:43Z</time>
      </trkpt>
      <trkpt lat="43.21348" lon="5.47174">
        <ele>374.3</ele>
        <time>2025-10-19T12:42:44Z</time>
      </trkpt>
      <trkpt lat="43.21348" lon="5.47174">
        <ele>374.3</ele>
        <time>2025-10-19T12:42:45Z</time>
      </trkpt>
      <trkpt lat="43.21347" lon="5.47173">
        <ele>374.3</ele>
        <time>2025-10-19T12:42:46Z</time>
      </trkpt>
      <trkpt lat="43.21347" lon="5.47172">
        <ele>374.4</ele>
        <time>2025-10-19T12:42:47Z</time>
      </trkpt>
      <trkpt lat="43.21347" lon="5.47171">
        <ele>374.4</ele>
        <time>2025-10-19T12:42:48Z</time>
      </trkpt>
      <trkpt lat="43.21346" lon="5.4717">
        <ele>374.4</ele>
        <time>2025-10-19T12:42:49Z</time>
      </trkpt>
      <trkpt lat="43.21346" lon="5.4717">
        <ele>374.5</ele>
        <time>2025-10-19T12:42:50Z</time>
      </trkpt>
      <trkpt lat="43.21346" lon="5.47169">
        <ele>374.5</ele>
        <time>2025-10-19T12:42:51Z</time>
      </trkpt>
      <trkpt lat="43.21346" lon="5.47168">
        <ele>374.6</ele>
        <time>2025-10-19T12:42:52Z</time>
      </trkpt>
      <trkpt lat="43.21345" lon="5.47167">
        <ele>374.7</ele>
        <time>2025-10-19T12:42:53Z</time>
      </trkpt>
      <trkpt lat="43.21345" lon="5.47166">
        <ele>374.7</ele>
        <time>2025-10-19T12:42:54Z</time>
      </trkpt>
      <trkpt lat="43.21345" lon="5.47165">
        <ele>374.8</ele>
        <time>2025-10-19T12:42:55Z</time>
      </trkpt>
      <trkpt lat="43.21345" lon="5.47164">
        <ele>374.9</ele>
        <time>2025-10-19T12:42:56Z</time>
      </trkpt>
      <trkpt lat="43.21344" lon="5.47163">
        <ele>375</ele>
        <time>2025-10-19T12:42:57Z</time>
      </trkpt>
      <trkpt lat="43.21344" lon="5.47162">
        <ele>375.1</ele>
        <time>2025-10-19T12:42:58Z</time>
      </trkpt>
      <trkpt lat="43.21343" lon="5.47161">
        <ele>375.1</ele>
        <time>2025-10-19T12:42:59Z</time>
      </trkpt>
      <trkpt lat="43.21343" lon="5.47161">
        <ele>375.2</ele>
        <time>2025-10-19T12:43:00Z</time>
      </trkpt>
      <trkpt lat="43.21342" lon="5.47161">
        <ele>375.2</ele>
        <time>2025-10-19T12:43:01Z</time>
      </trkpt>
      <trkpt lat="43.21342" lon="5.4716">
        <ele>375.3</ele>
        <time>2025-10-19T12:43:02Z</time>
      </trkpt>
      <trkpt lat="43.21341" lon="5.47159">
        <ele>375.3</ele>
        <time>2025-10-19T12:43:03Z</time>
      </trkpt>
      <trkpt lat="43.21341" lon="5.47158">
        <ele>375.4</ele>
        <time>2025-10-19T12:43:04Z</time>
      </trkpt>
      <trkpt lat="43.21341" lon="5.47157">
        <ele>375.4</ele>
        <time>2025-10-19T12:43:05Z</time>
      </trkpt>
      <trkpt lat="43.21341" lon="5.47156">
        <ele>375.5</ele>
        <time>2025-10-19T12:43:06Z</time>
      </trkpt>
      <trkpt lat="43.21341" lon="5.47155">
        <ele>375.5</ele>
        <time>2025-10-19T12:43:07Z</time>
      </trkpt>
      <trkpt lat="43.21341" lon="5.47154">
        <ele>375.7</ele>
        <time>2025-10-19T12:43:08Z</time>
      </trkpt>
      <trkpt lat="43.21341" lon="5.47153">
        <ele>375.7</ele>
        <time>2025-10-19T12:43:09Z</time>
      </trkpt>
      <trkpt lat="43.21341" lon="5.47152">
        <ele>375.8</ele>
        <time>2025-10-19T12:43:10Z</time>
      </trkpt>
      <trkpt lat="43.21341" lon="5.47151">
        <ele>375.9</ele>
        <time>2025-10-19T12:43:11Z</time>
      </trkpt>
      <trkpt lat="43.21342" lon="5.47151">
        <ele>376</ele>
        <time>2025-10-19T12:43:12Z</time>
      </trkpt>
      <trkpt lat="43.21342" lon="5.47151">
        <ele>376</ele>
        <time>2025-10-19T12:43:13Z</time>
      </trkpt>
      <trkpt lat="43.21342" lon="5.4715">
        <ele>376.1</ele>
        <time>2025-10-19T12:43:14Z</time>
      </trkpt>
      <trkpt lat="43.21342" lon="5.4715">
        <ele>376.1</ele>
        <time>2025-10-19T12:43:15Z</time>
      </trkpt>
      <trkpt lat="43.21342" lon="5.4715">
        <ele>376.1</ele>
        <time>2025-10-19T12:43:16Z</time>
      </trkpt>
      <trkpt lat="43.21342" lon="5.4715">
        <ele>376.2</ele>
        <time>2025-10-19T12:43:17Z</time>
      </trkpt>
      <trkpt lat="43.21342" lon="5.4715">
        <ele>376.2</ele>
        <time>2025-10-19T12:43:18Z</time>
      </trkpt>
      <trkpt lat="43.21342" lon="5.4715">
        <ele>376.3</ele>
        <time>2025-10-19T12:43:19Z</time>
      </trkpt>
      <trkpt lat="43.21342" lon="5.4715">
        <ele>376.2</ele>
        <time>2025-10-19T12:43:20Z</time>
      </trkpt>
      <trkpt lat="43.21342" lon="5.47149">
        <ele>376.3</ele>
        <time>2025-10-19T12:43:21Z</time>
      </trkpt>
      <trkpt lat="43.21342" lon="5.47149">
        <ele>376.4</ele>
        <time>2025-10-19T12:43:22Z</time>
      </trkpt>
      <trkpt lat="43.21342" lon="5.47149">
        <ele>376.4</ele>
        <time>2025-10-19T12:43:23Z</time>
      </trkpt>
      <trkpt lat="43.21342" lon="5.47149">
        <ele>376.4</ele>
        <time>2025-10-19T12:43:24Z</time>
      </trkpt>
      <trkpt lat="43.21342" lon="5.4715">
        <ele>376.4</ele>
        <time>2025-10-19T12:43:25Z</time>
      </trkpt>
      <trkpt lat="43.21342" lon="5.4715">
        <ele>376.5</ele>
        <time>2025-10-19T12:43:26Z</time>
      </trkpt>
      <trkpt lat="43.21342" lon="5.4715">
        <ele>376.4</ele>
        <time>2025-10-19T12:43:27Z</time>
      </trkpt>
      <trkpt lat="43.21342" lon="5.4715">
        <ele>376.4</ele>
        <time>2025-10-19T12:43:28Z</time>
      </trkpt>
      <trkpt lat="43.21342" lon="5.4715">
        <ele>376.4</ele>
        <time>2025-10-19T12:43:29Z</time>
      </trkpt>
      <trkpt lat="43.21342" lon="5.4715">
        <ele>376.4</ele>
        <time>2025-10-19T12:43:30Z</time>
      </trkpt>
      <trkpt lat="43.21342" lon="5.4715">
        <ele>376.4</ele>
        <time>2025-10-19T12:43:31Z</time>
      </trkpt>
      <trkpt lat="43.21342" lon="5.4715">
        <ele>376.5</ele>
        <time>2025-10-19T12:43:32Z</time>
      </trkpt>
      <trkpt lat="43.21342" lon="5.4715">
        <ele>376.5</ele>
        <time>2025-10-19T12:43:33Z</time>
      </trkpt>
      <trkpt lat="43.21342" lon="5.47149">
        <ele>376.6</ele>
        <time>2025-10-19T12:43:34Z</time>
      </trkpt>
      <trkpt lat="43.21342" lon="5.47149">
        <ele>376.6</ele>
        <time>2025-10-19T12:43:35Z</time>
      </trkpt>
      <trkpt lat="43.21342" lon="5.47149">
        <ele>376.6</ele>
        <time>2025-10-19T12:43:36Z</time>
      </trkpt>
      <trkpt lat="43.21343" lon="5.47149">
        <ele>376.6</ele>
        <time>2025-10-19T12:43:37Z</time>
      </trkpt>
      <trkpt lat="43.21343" lon="5.47149">
        <ele>376.6</ele>
        <time>2025-10-19T12:43:38Z</time>
      </trkpt>
      <trkpt lat="43.21343" lon="5.47149">
        <ele>376.7</ele>
        <time>2025-10-19T12:43:39Z</time>
      </trkpt>
      <trkpt lat="43.21343" lon="5.47149">
        <ele>376.7</ele>
        <time>2025-10-19T12:43:40Z</time>
      </trkpt>
      <trkpt lat="43.21343" lon="5.47149">
        <ele>376.7</ele>
        <time>2025-10-19T12:43:41Z</time>
      </trkpt>
      <trkpt lat="43.21343" lon="5.47148">
        <ele>376.7</ele>
        <time>2025-10-19T12:43:42Z</time>
      </trkpt>
      <trkpt lat="43.21343" lon="5.47148">
        <ele>376.8</ele>
        <time>2025-10-19T12:43:43Z</time>
      </trkpt>
      <trkpt lat="43.21343" lon="5.47148">
        <ele>376.8</ele>
        <time>2025-10-19T12:43:44Z</time>
      </trkpt>
      <trkpt lat="43.21343" lon="5.47148">
        <ele>376.7</ele>
        <time>2025-10-19T12:43:45Z</time>
      </trkpt>
      <trkpt lat="43.21343" lon="5.47148">
        <ele>376.7</ele>
        <time>2025-10-19T12:43:46Z</time>
      </trkpt>
      <trkpt lat="43.21343" lon="5.47148">
        <ele>376.6</ele>
        <time>2025-10-19T12:43:47Z</time>
      </trkpt>
      <trkpt lat="43.21343" lon="5.47149">
        <ele>376.5</ele>
        <time>2025-10-19T12:43:48Z</time>
      </trkpt>
      <trkpt lat="43.21343" lon="5.47149">
        <ele>376.5</ele>
        <time>2025-10-19T12:43:49Z</time>
      </trkpt>
      <trkpt lat="43.21343" lon="5.47149">
        <ele>376.4</ele>
        <time>2025-10-19T12:43:50Z</time>
      </trkpt>
      <trkpt lat="43.21343" lon="5.47149">
        <ele>376.3</ele>
        <time>2025-10-19T12:43:51Z</time>
      </trkpt>
      <trkpt lat="43.21343" lon="5.47149">
        <ele>376.2</ele>
        <time>2025-10-19T12:43:52Z</time>
      </trkpt>
      <trkpt lat="43.21344" lon="5.47149">
        <ele>376.2</ele>
        <time>2025-10-19T12:43:53Z</time>
      </trkpt>
      <trkpt lat="43.21344" lon="5.47149">
        <ele>376.2</ele>
        <time>2025-10-19T12:43:54Z</time>
      </trkpt>
      <trkpt lat="43.21344" lon="5.47149">
        <ele>376.1</ele>
        <time>2025-10-19T12:43:55Z</time>
      </trkpt>
      <trkpt lat="43.21344" lon="5.47149">
        <ele>376.1</ele>
        <time>2025-10-19T12:43:56Z</time>
      </trkpt>
      <trkpt lat="43.21345" lon="5.47149">
        <ele>376</ele>
        <time>2025-10-19T12:43:57Z</time>
      </trkpt>
      <trkpt lat="43.21345" lon="5.47149">
        <ele>376</ele>
        <time>2025-10-19T12:43:58Z</time>
      </trkpt>
      <trkpt lat="43.21345" lon="5.47149">
        <ele>376</ele>
        <time>2025-10-19T12:43:59Z</time>
      </trkpt>
      <trkpt lat="43.21345" lon="5.47149">
        <ele>375.9</ele>
        <time>2025-10-19T12:44:00Z</time>
      </trkpt>
      <trkpt lat="43.21345" lon="5.47149">
        <ele>375.9</ele>
        <time>2025-10-19T12:44:01Z</time>
      </trkpt>
      <trkpt lat="43.21345" lon="5.47149">
        <ele>375.8</ele>
        <time>2025-10-19T12:44:02Z</time>
      </trkpt>
      <trkpt lat="43.21345" lon="5.47149">
        <ele>375.8</ele>
        <time>2025-10-19T12:44:03Z</time>
      </trkpt>
      <trkpt lat="43.21345" lon="5.47149">
        <ele>375.7</ele>
        <time>2025-10-19T12:44:04Z</time>
      </trkpt>
      <trkpt lat="43.21345" lon="5.47149">
        <ele>375.7</ele>
        <time>2025-10-19T12:44:05Z</time>
      </trkpt>
      <trkpt lat="43.21346" lon="5.47149">
        <ele>375.6</ele>
        <time>2025-10-19T12:44:06Z</time>
      </trkpt>
      <trkpt lat="43.21346" lon="5.47149">
        <ele>375.6</ele>
        <time>2025-10-19T12:44:07Z</time>
      </trkpt>
      <trkpt lat="43.21346" lon="5.47149">
        <ele>375.6</ele>
        <time>2025-10-19T12:44:08Z</time>
      </trkpt>
      <trkpt lat="43.21346" lon="5.47149">
        <ele>375.5</ele>
        <time>2025-10-19T12:44:09Z</time>
      </trkpt>
      <trkpt lat="43.21346" lon="5.47149">
        <ele>375.5</ele>
        <time>2025-10-19T12:44:10Z</time>
      </trkpt>
      <trkpt lat="43.21346" lon="5.47149">
        <ele>375.4</ele>
        <time>2025-10-19T12:44:11Z</time>
      </trkpt>
      <trkpt lat="43.21346" lon="5.47149">
        <ele>375.4</ele>
        <time>2025-10-19T12:44:12Z</time>
      </trkpt>
      <trkpt lat="43.21346" lon="5.47149">
        <ele>375.3</ele>
        <time>2025-10-19T12:44:13Z</time>
      </trkpt>
      <trkpt lat="43.21346" lon="5.47149">
        <ele>375.4</ele>
        <time>2025-10-19T12:44:14Z</time>
      </trkpt>
      <trkpt lat="43.21346" lon="5.47148">
        <ele>375.4</ele>
        <time>2025-10-19T12:44:15Z</time>
      </trkpt>
      <trkpt lat="43.21345" lon="5.47148">
        <ele>375.5</ele>
        <time>2025-10-19T12:44:16Z</time>
      </trkpt>
      <trkpt lat="43.21345" lon="5.47148">
        <ele>375.5</ele>
        <time>2025-10-19T12:44:17Z</time>
      </trkpt>
      <trkpt lat="43.21345" lon="5.47148">
        <ele>375.5</ele>
        <time>2025-10-19T12:44:18Z</time>
      </trkpt>
      <trkpt lat="43.21345" lon="5.47148">
        <ele>375.4</ele>
        <time>2025-10-19T12:44:19Z</time>
      </trkpt>
      <trkpt lat="43.21345" lon="5.47148">
        <ele>375.4</ele>
        <time>2025-10-19T12:44:20Z</time>
      </trkpt>
      <trkpt lat="43.21345" lon="5.47148">
        <ele>375.4</ele>
        <time>2025-10-19T12:44:21Z</time>
      </trkpt>
      <trkpt lat="43.21345" lon="5.47148">
        <ele>375.4</ele>
        <time>2025-10-19T12:44:22Z</time>
      </trkpt>
      <trkpt lat="43.21345" lon="5.47148">
        <ele>375.5</ele>
        <time>2025-10-19T12:44:23Z</time>
      </trkpt>
      <trkpt lat="43.21344" lon="5.47147">
        <ele>375.5</ele>
        <time>2025-10-19T12:44:24Z</time>
      </trkpt>
      <trkpt lat="43.21345" lon="5.47147">
        <ele>375.6</ele>
        <time>2025-10-19T12:44:25Z</time>
      </trkpt>
      <trkpt lat="43.21345" lon="5.47147">
        <ele>375.7</ele>
        <time>2025-10-19T12:44:26Z</time>
      </trkpt>
      <trkpt lat="43.21345" lon="5.47147">
        <ele>375.7</ele>
        <time>2025-10-19T12:44:27Z</time>
      </trkpt>
      <trkpt lat="43.21345" lon="5.47147">
        <ele>375.7</ele>
        <time>2025-10-19T12:44:28Z</time>
      </trkpt>
      <trkpt lat="43.21345" lon="5.47147">
        <ele>375.6</ele>
        <time>2025-10-19T12:44:29Z</time>
      </trkpt>
      <trkpt lat="43.21345" lon="5.47147">
        <ele>375.6</ele>
        <time>2025-10-19T12:44:30Z</time>
      </trkpt>
      <trkpt lat="43.21344" lon="5.47147">
        <ele>375.5</ele>
        <time>2025-10-19T12:44:31Z</time>
      </trkpt>
      <trkpt lat="43.21344" lon="5.47148">
        <ele>375.6</ele>
        <time>2025-10-19T12:44:32Z</time>
      </trkpt>
      <trkpt lat="43.21344" lon="5.47148">
        <ele>375.5</ele>
        <time>2025-10-19T12:44:33Z</time>
      </trkpt>
      <trkpt lat="43.21344" lon="5.47148">
        <ele>375.6</ele>
        <time>2025-10-19T12:44:34Z</time>
      </trkpt>
      <trkpt lat="43.21344" lon="5.47147">
        <ele>375.6</ele>
        <time>2025-10-19T12:44:35Z</time>
      </trkpt>
      <trkpt lat="43.21344" lon="5.47147">
        <ele>375.7</ele>
        <time>2025-10-19T12:44:36Z</time>
      </trkpt>
      <trkpt lat="43.21344" lon="5.47147">
        <ele>375.8</ele>
        <time>2025-10-19T12:44:37Z</time>
      </trkpt>
      <trkpt lat="43.21344" lon="5.47147">
        <ele>375.8</ele>
        <time>2025-10-19T12:44:38Z</time>
      </trkpt>
      <trkpt lat="43.21343" lon="5.47147">
        <ele>375.9</ele>
        <time>2025-10-19T12:44:39Z</time>
      </trkpt>
      <trkpt lat="43.21343" lon="5.47147">
        <ele>376</ele>
        <time>2025-10-19T12:44:40Z</time>
      </trkpt>
      <trkpt lat="43.21343" lon="5.47146">
        <ele>376.1</ele>
        <time>2025-10-19T12:44:41Z</time>
      </trkpt>
      <trkpt lat="43.21343" lon="5.47146">
        <ele>376.1</ele>
        <time>2025-10-19T12:44:42Z</time>
      </trkpt>
      <trkpt lat="43.21344" lon="5.47146">
        <ele>376.2</ele>
        <time>2025-10-19T12:44:43Z</time>
      </trkpt>
      <trkpt lat="43.21344" lon="5.47146">
        <ele>376.2</ele>
        <time>2025-10-19T12:44:44Z</time>
      </trkpt>
      <trkpt lat="43.21344" lon="5.47146">
        <ele>376.3</ele>
        <time>2025-10-19T12:44:45Z</time>
      </trkpt>
      <trkpt lat="43.21344" lon="5.47146">
        <ele>376.3</ele>
        <time>2025-10-19T12:44:46Z</time>
      </trkpt>
      <trkpt lat="43.21344" lon="5.47146">
        <ele>376.3</ele>
        <time>2025-10-19T12:44:47Z</time>
      </trkpt>
      <trkpt lat="43.21344" lon="5.47146">
        <ele>376.3</ele>
        <time>2025-10-19T12:44:48Z</time>
      </trkpt>
      <trkpt lat="43.21344" lon="5.47146">
        <ele>376.3</ele>
        <time>2025-10-19T12:44:49Z</time>
      </trkpt>
      <trkpt lat="43.21344" lon="5.47146">
        <ele>376.3</ele>
        <time>2025-10-19T12:44:50Z</time>
      </trkpt>
      <trkpt lat="43.21344" lon="5.47146">
        <ele>376.3</ele>
        <time>2025-10-19T12:44:51Z</time>
      </trkpt>
      <trkpt lat="43.21344" lon="5.47146">
        <ele>376.3</ele>
        <time>2025-10-19T12:44:52Z</time>
      </trkpt>
      <trkpt lat="43.21343" lon="5.47146">
        <ele>376.3</ele>
        <time>2025-10-19T12:44:53Z</time>
      </trkpt>
      <trkpt lat="43.21343" lon="5.47146">
        <ele>376.3</ele>
        <time>2025-10-19T12:44:54Z</time>
      </trkpt>
      <trkpt lat="43.21344" lon="5.47146">
        <ele>376.2</ele>
        <time>2025-10-19T12:44:55Z</time>
      </trkpt>
      <trkpt lat="43.21344" lon="5.47146">
        <ele>376.3</ele>
        <time>2025-10-19T12:44:56Z</time>
      </trkpt>
      <trkpt lat="43.21344" lon="5.47146">
        <ele>376.3</ele>
        <time>2025-10-19T12:44:57Z</time>
      </trkpt>
      <trkpt lat="43.21344" lon="5.47146">
        <ele>376.3</ele>
        <time>2025-10-19T12:44:58Z</time>
      </trkpt>
      <trkpt lat="43.21344" lon="5.47146">
        <ele>376.2</ele>
        <time>2025-10-19T12:44:59Z</time>
      </trkpt>
      <trkpt lat="43.21344" lon="5.47146">
        <ele>376.2</ele>
        <time>2025-10-19T12:45:00Z</time>
      </trkpt>
      <trkpt lat="43.21344" lon="5.47146">
        <ele>376.2</ele>
        <time>2025-10-19T12:45:01Z</time>
      </trkpt>
      <trkpt lat="43.21344" lon="5.47146">
        <ele>376.3</ele>
        <time>2025-10-19T12:45:02Z</time>
      </trkpt>
      <trkpt lat="43.21343" lon="5.47146">
        <ele>376.3</ele>
        <time>2025-10-19T12:45:03Z</time>
      </trkpt>
      <trkpt lat="43.21343" lon="5.47146">
        <ele>376.3</ele>
        <time>2025-10-19T12:45:04Z</time>
      </trkpt>
      <trkpt lat="43.21343" lon="5.47146">
        <ele>376.3</ele>
        <time>2025-10-19T12:45:05Z</time>
      </trkpt>
      <trkpt lat="43.21343" lon="5.47146">
        <ele>376.3</ele>
        <time>2025-10-19T12:45:06Z</time>
      </trkpt>
      <trkpt lat="43.21343" lon="5.47146">
        <ele>376.2</ele>
        <time>2025-10-19T12:45:07Z</time>
      </trkpt>
      <trkpt lat="43.21343" lon="5.47146">
        <ele>376.3</ele>
        <time>2025-10-19T12:45:08Z</time>
      </trkpt>
      <trkpt lat="43.21343" lon="5.47146">
        <ele>376.3</ele>
        <time>2025-10-19T12:45:09Z</time>
      </trkpt>
      <trkpt lat="43.21343" lon="5.47146">
        <ele>376.3</ele>
        <time>2025-10-19T12:45:10Z</time>
      </trkpt>
      <trkpt lat="43.21343" lon="5.47146">
        <ele>376.2</ele>
        <time>2025-10-19T12:45:11Z</time>
      </trkpt>
      <trkpt lat="43.21343" lon="5.47146">
        <ele>376.1</ele>
        <time>2025-10-19T12:45:12Z</time>
      </trkpt>
      <trkpt lat="43.21343" lon="5.47146">
        <ele>376</ele>
        <time>2025-10-19T12:45:13Z</time>
      </trkpt>
      <trkpt lat="43.21343" lon="5.47146">
        <ele>375.9</ele>
        <time>2025-10-19T12:45:14Z</time>
      </trkpt>
      <trkpt lat="43.21344" lon="5.47146">
        <ele>375.9</ele>
        <time>2025-10-19T12:45:15Z</time>
      </trkpt>
      <trkpt lat="43.21344" lon="5.47146">
        <ele>375.9</ele>
        <time>2025-10-19T12:45:16Z</time>
      </trkpt>
      <trkpt lat="43.21344" lon="5.47146">
        <ele>376</ele>
        <time>2025-10-19T12:45:17Z</time>
      </trkpt>
      <trkpt lat="43.21344" lon="5.47146">
        <ele>376</ele>
        <time>2025-10-19T12:45:18Z</time>
      </trkpt>
      <trkpt lat="43.21343" lon="5.47146">
        <ele>376.1</ele>
        <time>2025-10-19T12:45:19Z</time>
      </trkpt>
      <trkpt lat="43.21343" lon="5.47146">
        <ele>376.2</ele>
        <time>2025-10-19T12:45:20Z</time>
      </trkpt>
      <trkpt lat="43.21343" lon="5.47146">
        <ele>376.2</ele>
        <time>2025-10-19T12:45:21Z</time>
      </trkpt>
      <trkpt lat="43.21343" lon="5.47146">
        <ele>376.2</ele>
        <time>2025-10-19T12:45:22Z</time>
      </trkpt>
      <trkpt lat="43.21343" lon="5.47146">
        <ele>376.2</ele>
        <time>2025-10-19T12:45:23Z</time>
      </trkpt>
      <trkpt lat="43.21343" lon="5.47146">
        <ele>376.2</ele>
        <time>2025-10-19T12:45:24Z</time>
      </trkpt>
      <trkpt lat="43.21343" lon="5.47146">
        <ele>376.3</ele>
        <time>2025-10-19T12:45:25Z</time>
      </trkpt>
      <trkpt lat="43.21343" lon="5.47146">
        <ele>376.2</ele>
        <time>2025-10-19T12:45:26Z</time>
      </trkpt>
      <trkpt lat="43.21342" lon="5.47146">
        <ele>376.2</ele>
        <time>2025-10-19T12:45:27Z</time>
      </trkpt>
      <trkpt lat="43.21342" lon="5.47147">
        <ele>376.1</ele>
        <time>2025-10-19T12:45:28Z</time>
      </trkpt>
      <trkpt lat="43.21342" lon="5.47147">
        <ele>376.1</ele>
        <time>2025-10-19T12:45:29Z</time>
      </trkpt>
      <trkpt lat="43.21342" lon="5.47147">
        <ele>376</ele>
        <time>2025-10-19T12:45:30Z</time>
      </trkpt>
      <trkpt lat="43.21342" lon="5.47147">
        <ele>376</ele>
        <time>2025-10-19T12:45:31Z</time>
      </trkpt>
      <trkpt lat="43.21342" lon="5.47147">
        <ele>375.9</ele>
        <time>2025-10-19T12:45:32Z</time>
      </trkpt>
      <trkpt lat="43.21342" lon="5.47147">
        <ele>375.8</ele>
        <time>2025-10-19T12:45:33Z</time>
      </trkpt>
      <trkpt lat="43.21342" lon="5.47147">
        <ele>375.8</ele>
        <time>2025-10-19T12:45:34Z</time>
      </trkpt>
      <trkpt lat="43.21342" lon="5.47147">
        <ele>375.7</ele>
        <time>2025-10-19T12:45:35Z</time>
      </trkpt>
      <trkpt lat="43.21342" lon="5.47147">
        <ele>375.7</ele>
        <time>2025-10-19T12:45:36Z</time>
      </trkpt>
      <trkpt lat="43.21342" lon="5.47147">
        <ele>375.6</ele>
        <time>2025-10-19T12:45:37Z</time>
      </trkpt>
      <trkpt lat="43.21342" lon="5.47148">
        <ele>375.7</ele>
        <time>2025-10-19T12:45:38Z</time>
      </trkpt>
      <trkpt lat="43.21342" lon="5.47148">
        <ele>375.6</ele>
        <time>2025-10-19T12:45:39Z</time>
      </trkpt>
      <trkpt lat="43.21341" lon="5.47148">
        <ele>375.6</ele>
        <time>2025-10-19T12:45:40Z</time>
      </trkpt>
      <trkpt lat="43.21341" lon="5.47148">
        <ele>375.5</ele>
        <time>2025-10-19T12:45:41Z</time>
      </trkpt>
      <trkpt lat="43.21341" lon="5.47148">
        <ele>375.4</ele>
        <time>2025-10-19T12:45:42Z</time>
      </trkpt>
      <trkpt lat="43.21341" lon="5.47148">
        <ele>375.5</ele>
        <time>2025-10-19T12:45:43Z</time>
      </trkpt>
      <trkpt lat="43.21341" lon="5.47148">
        <ele>375.6</ele>
        <time>2025-10-19T12:45:44Z</time>
      </trkpt>
      <trkpt lat="43.21341" lon="5.47148">
        <ele>375.6</ele>
        <time>2025-10-19T12:45:45Z</time>
      </trkpt>
      <trkpt lat="43.21341" lon="5.47148">
        <ele>375.6</ele>
        <time>2025-10-19T12:45:46Z</time>
      </trkpt>
      <trkpt lat="43.21341" lon="5.47148">
        <ele>375.6</ele>
        <time>2025-10-19T12:45:47Z</time>
      </trkpt>
      <trkpt lat="43.21341" lon="5.47148">
        <ele>375.6</ele>
        <time>2025-10-19T12:45:48Z</time>
      </trkpt>
      <trkpt lat="43.21341" lon="5.47148">
        <ele>375.6</ele>
        <time>2025-10-19T12:45:49Z</time>
      </trkpt>
      <trkpt lat="43.21341" lon="5.47148">
        <ele>375.7</ele>
        <time>2025-10-19T12:45:50Z</time>
      </trkpt>
      <trkpt lat="43.21341" lon="5.47148">
        <ele>375.8</ele>
        <time>2025-10-19T12:45:51Z</time>
      </trkpt>
      <trkpt lat="43.21341" lon="5.47148">
        <ele>375.8</ele>
        <time>2025-10-19T12:45:52Z</time>
      </trkpt>
      <trkpt lat="43.21341" lon="5.47148">
        <ele>375.9</ele>
        <time>2025-10-19T12:45:53Z</time>
      </trkpt>
      <trkpt lat="43.21341" lon="5.47148">
        <ele>376</ele>
        <time>2025-10-19T12:45:54Z</time>
      </trkpt>
      <trkpt lat="43.2134" lon="5.47148">
        <ele>376</ele>
        <time>2025-10-19T12:45:55Z</time>
      </trkpt>
      <trkpt lat="43.21341" lon="5.47148">
        <ele>376</ele>
        <time>2025-10-19T12:45:56Z</time>
      </trkpt>
      <trkpt lat="43.21341" lon="5.47148">
        <ele>375.9</ele>
        <time>2025-10-19T12:45:57Z</time>
      </trkpt>
      <trkpt lat="43.21341" lon="5.47147">
        <ele>375.9</ele>
        <time>2025-10-19T12:45:58Z</time>
      </trkpt>
      <trkpt lat="43.21341" lon="5.47147">
        <ele>375.9</ele>
        <time>2025-10-19T12:45:59Z</time>
      </trkpt>
      <trkpt lat="43.21341" lon="5.47147">
        <ele>375.9</ele>
        <time>2025-10-19T12:46:00Z</time>
      </trkpt>
      <trkpt lat="43.21341" lon="5.47147">
        <ele>375.9</ele>
        <time>2025-10-19T12:46:01Z</time>
      </trkpt>
      <trkpt lat="43.21341" lon="5.47147">
        <ele>375.8</ele>
        <time>2025-10-19T12:46:02Z</time>
      </trkpt>
      <trkpt lat="43.21341" lon="5.47147">
        <ele>375.8</ele>
        <time>2025-10-19T12:46:03Z</time>
      </trkpt>
      <trkpt lat="43.21341" lon="5.47147">
        <ele>375.8</ele>
        <time>2025-10-19T12:46:04Z</time>
      </trkpt>
      <trkpt lat="43.21341" lon="5.47147">
        <ele>375.8</ele>
        <time>2025-10-19T12:46:05Z</time>
      </trkpt>
      <trkpt lat="43.21341" lon="5.47147">
        <ele>375.8</ele>
        <time>2025-10-19T12:46:06Z</time>
      </trkpt>
      <trkpt lat="43.21341" lon="5.47147">
        <ele>375.8</ele>
        <time>2025-10-19T12:46:07Z</time>
      </trkpt>
      <trkpt lat="43.21341" lon="5.47147">
        <ele>375.9</ele>
        <time>2025-10-19T12:46:08Z</time>
      </trkpt>
      <trkpt lat="43.21341" lon="5.47147">
        <ele>375.9</ele>
        <time>2025-10-19T12:46:09Z</time>
      </trkpt>
      <trkpt lat="43.21341" lon="5.47147">
        <ele>376</ele>
        <time>2025-10-19T12:46:10Z</time>
      </trkpt>
      <trkpt lat="43.21341" lon="5.47147">
        <ele>376</ele>
        <time>2025-10-19T12:46:11Z</time>
      </trkpt>
      <trkpt lat="43.21341" lon="5.47147">
        <ele>376.1</ele>
        <time>2025-10-19T12:46:12Z</time>
      </trkpt>
      <trkpt lat="43.21341" lon="5.47147">
        <ele>376.1</ele>
        <time>2025-10-19T12:46:13Z</time>
      </trkpt>
      <trkpt lat="43.21341" lon="5.47147">
        <ele>376.1</ele>
        <time>2025-10-19T12:46:14Z</time>
      </trkpt>
      <trkpt lat="43.21341" lon="5.47147">
        <ele>376.1</ele>
        <time>2025-10-19T12:46:15Z</time>
      </trkpt>
      <trkpt lat="43.21341" lon="5.47147">
        <ele>376.1</ele>
        <time>2025-10-19T12:46:16Z</time>
      </trkpt>
      <trkpt lat="43.21342" lon="5.47147">
        <ele>376.2</ele>
        <time>2025-10-19T12:46:17Z</time>
      </trkpt>
      <trkpt lat="43.21342" lon="5.47147">
        <ele>376.2</ele>
        <time>2025-10-19T12:46:18Z</time>
      </trkpt>
      <trkpt lat="43.21342" lon="5.47147">
        <ele>376.1</ele>
        <time>2025-10-19T12:46:19Z</time>
      </trkpt>
      <trkpt lat="43.21342" lon="5.47147">
        <ele>376.2</ele>
        <time>2025-10-19T12:46:20Z</time>
      </trkpt>
      <trkpt lat="43.21342" lon="5.47147">
        <ele>376.2</ele>
        <time>2025-10-19T12:46:21Z</time>
      </trkpt>
      <trkpt lat="43.21342" lon="5.47147">
        <ele>376.1</ele>
        <time>2025-10-19T12:46:22Z</time>
      </trkpt>
      <trkpt lat="43.21342" lon="5.47147">
        <ele>376.1</ele>
        <time>2025-10-19T12:46:23Z</time>
      </trkpt>
      <trkpt lat="43.21342" lon="5.47147">
        <ele>376.1</ele>
        <time>2025-10-19T12:46:24Z</time>
      </trkpt>
      <trkpt lat="43.21342" lon="5.47147">
        <ele>376.2</ele>
        <time>2025-10-19T12:46:25Z</time>
      </trkpt>
      <trkpt lat="43.21342" lon="5.47147">
        <ele>376.2</ele>
        <time>2025-10-19T12:46:26Z</time>
      </trkpt>
      <trkpt lat="43.21342" lon="5.47146">
        <ele>376.3</ele>
        <time>2025-10-19T12:46:27Z</time>
      </trkpt>
      <trkpt lat="43.21342" lon="5.47146">
        <ele>376.3</ele>
        <time>2025-10-19T12:46:28Z</time>
      </trkpt>
      <trkpt lat="43.21342" lon="5.47146">
        <ele>376.3</ele>
        <time>2025-10-19T12:46:29Z</time>
      </trkpt>
      <trkpt lat="43.21342" lon="5.47146">
        <ele>376.3</ele>
        <time>2025-10-19T12:46:30Z</time>
      </trkpt>
      <trkpt lat="43.21342" lon="5.47146">
        <ele>376.3</ele>
        <time>2025-10-19T12:46:31Z</time>
      </trkpt>
      <trkpt lat="43.21342" lon="5.47146">
        <ele>376.3</ele>
        <time>2025-10-19T12:46:32Z</time>
      </trkpt>
      <trkpt lat="43.21342" lon="5.47146">
        <ele>376.3</ele>
        <time>2025-10-19T12:46:33Z</time>
      </trkpt>
      <trkpt lat="43.21341" lon="5.47145">
        <ele>376.3</ele>
        <time>2025-10-19T12:46:34Z</time>
      </trkpt>
      <trkpt lat="43.21341" lon="5.47145">
        <ele>376.3</ele>
        <time>2025-10-19T12:46:35Z</time>
      </trkpt>
      <trkpt lat="43.21342" lon="5.47145">
        <ele>376.3</ele>
        <time>2025-10-19T12:46:36Z</time>
      </trkpt>
      <trkpt lat="43.21342" lon="5.47145">
        <ele>376.3</ele>
        <time>2025-10-19T12:46:37Z</time>
      </trkpt>
      <trkpt lat="43.21342" lon="5.47145">
        <ele>376.4</ele>
        <time>2025-10-19T12:46:38Z</time>
      </trkpt>
      <trkpt lat="43.21342" lon="5.47145">
        <ele>376.5</ele>
        <time>2025-10-19T12:46:39Z</time>
      </trkpt>
      <trkpt lat="43.21341" lon="5.47145">
        <ele>376.5</ele>
        <time>2025-10-19T12:46:40Z</time>
      </trkpt>
      <trkpt lat="43.21341" lon="5.47145">
        <ele>376.7</ele>
        <time>2025-10-19T12:46:41Z</time>
      </trkpt>
      <trkpt lat="43.21341" lon="5.47145">
        <ele>376.7</ele>
        <time>2025-10-19T12:46:42Z</time>
      </trkpt>
      <trkpt lat="43.21341" lon="5.47145">
        <ele>376.7</ele>
        <time>2025-10-19T12:46:43Z</time>
      </trkpt>
      <trkpt lat="43.21341" lon="5.47145">
        <ele>376.7</ele>
        <time>2025-10-19T12:46:44Z</time>
      </trkpt>
      <trkpt lat="43.21341" lon="5.47144">
        <ele>376.7</ele>
        <time>2025-10-19T12:46:45Z</time>
      </trkpt>
      <trkpt lat="43.21341" lon="5.47145">
        <ele>376.7</ele>
        <time>2025-10-19T12:46:46Z</time>
      </trkpt>
      <trkpt lat="43.21341" lon="5.47145">
        <ele>376.8</ele>
        <time>2025-10-19T12:46:47Z</time>
      </trkpt>
      <trkpt lat="43.21341" lon="5.47145">
        <ele>376.8</ele>
        <time>2025-10-19T12:46:48Z</time>
      </trkpt>
      <trkpt lat="43.21342" lon="5.47145">
        <ele>376.7</ele>
        <time>2025-10-19T12:46:49Z</time>
      </trkpt>
      <trkpt lat="43.21342" lon="5.47145">
        <ele>376.7</ele>
        <time>2025-10-19T12:46:50Z</time>
      </trkpt>
      <trkpt lat="43.21342" lon="5.47144">
        <ele>376.7</ele>
        <time>2025-10-19T12:46:51Z</time>
      </trkpt>
      <trkpt lat="43.21342" lon="5.47144">
        <ele>376.7</ele>
        <time>2025-10-19T12:46:52Z</time>
      </trkpt>
      <trkpt lat="43.21342" lon="5.47144">
        <ele>376.7</ele>
        <time>2025-10-19T12:46:53Z</time>
      </trkpt>
      <trkpt lat="43.21342" lon="5.47144">
        <ele>376.7</ele>
        <time>2025-10-19T12:46:54Z</time>
      </trkpt>
      <trkpt lat="43.21342" lon="5.47144">
        <ele>376.9</ele>
        <time>2025-10-19T12:46:55Z</time>
      </trkpt>
      <trkpt lat="43.21342" lon="5.47144">
        <ele>376.8</ele>
        <time>2025-10-19T12:46:56Z</time>
      </trkpt>
      <trkpt lat="43.21341" lon="5.47144">
        <ele>376.9</ele>
        <time>2025-10-19T12:46:57Z</time>
      </trkpt>
      <trkpt lat="43.21341" lon="5.47144">
        <ele>377</ele>
        <time>2025-10-19T12:46:58Z</time>
      </trkpt>
      <trkpt lat="43.21341" lon="5.47144">
        <ele>377</ele>
        <time>2025-10-19T12:46:59Z</time>
      </trkpt>
      <trkpt lat="43.21341" lon="5.47144">
        <ele>377</ele>
        <time>2025-10-19T12:47:00Z</time>
      </trkpt>
      <trkpt lat="43.2134" lon="5.47144">
        <ele>376.8</ele>
        <time>2025-10-19T12:47:01Z</time>
      </trkpt>
      <trkpt lat="43.21339" lon="5.47144">
        <ele>376.6</ele>
        <time>2025-10-19T12:47:02Z</time>
      </trkpt>
      <trkpt lat="43.21339" lon="5.47144">
        <ele>376.4</ele>
        <time>2025-10-19T12:47:03Z</time>
      </trkpt>
      <trkpt lat="43.21339" lon="5.47144">
        <ele>376.3</ele>
        <time>2025-10-19T12:47:04Z</time>
      </trkpt>
      <trkpt lat="43.21339" lon="5.47144">
        <ele>376.2</ele>
        <time>2025-10-19T12:47:05Z</time>
      </trkpt>
      <trkpt lat="43.21339" lon="5.47144">
        <ele>376.1</ele>
        <time>2025-10-19T12:47:06Z</time>
      </trkpt>
      <trkpt lat="43.21339" lon="5.47144">
        <ele>376.1</ele>
        <time>2025-10-19T12:47:07Z</time>
      </trkpt>
      <trkpt lat="43.21339" lon="5.47144">
        <ele>376.1</ele>
        <time>2025-10-19T12:47:08Z</time>
      </trkpt>
      <trkpt lat="43.21339" lon="5.47144">
        <ele>376</ele>
        <time>2025-10-19T12:47:09Z</time>
      </trkpt>
      <trkpt lat="43.21339" lon="5.47144">
        <ele>376</ele>
        <time>2025-10-19T12:47:10Z</time>
      </trkpt>
      <trkpt lat="43.21339" lon="5.47144">
        <ele>375.9</ele>
        <time>2025-10-19T12:47:11Z</time>
      </trkpt>
      <trkpt lat="43.21339" lon="5.47144">
        <ele>375.8</ele>
        <time>2025-10-19T12:47:12Z</time>
      </trkpt>
      <trkpt lat="43.21339" lon="5.47144">
        <ele>375.7</ele>
        <time>2025-10-19T12:47:13Z</time>
      </trkpt>
      <trkpt lat="43.21339" lon="5.47144">
        <ele>375.7</ele>
        <time>2025-10-19T12:47:14Z</time>
      </trkpt>
      <trkpt lat="43.21339" lon="5.47144">
        <ele>375.7</ele>
        <time>2025-10-19T12:47:15Z</time>
      </trkpt>
      <trkpt lat="43.21339" lon="5.47145">
        <ele>375.7</ele>
        <time>2025-10-19T12:47:16Z</time>
      </trkpt>
      <trkpt lat="43.21339" lon="5.47146">
        <ele>375.6</ele>
        <time>2025-10-19T12:47:17Z</time>
      </trkpt>
      <trkpt lat="43.2134" lon="5.47146">
        <ele>375.6</ele>
        <time>2025-10-19T12:47:18Z</time>
      </trkpt>
      <trkpt lat="43.2134" lon="5.47147">
        <ele>375.5</ele>
        <time>2025-10-19T12:47:19Z</time>
      </trkpt>
      <trkpt lat="43.2134" lon="5.47148">
        <ele>375.5</ele>
        <time>2025-10-19T12:47:20Z</time>
      </trkpt>
      <trkpt lat="43.2134" lon="5.47149">
        <ele>375.5</ele>
        <time>2025-10-19T12:47:21Z</time>
      </trkpt>
      <trkpt lat="43.2134" lon="5.4715">
        <ele>375.5</ele>
        <time>2025-10-19T12:47:22Z</time>
      </trkpt>
      <trkpt lat="43.2134" lon="5.47151">
        <ele>375.5</ele>
        <time>2025-10-19T12:47:23Z</time>
      </trkpt>
      <trkpt lat="43.2134" lon="5.47151">
        <ele>375.4</ele>
        <time>2025-10-19T12:47:24Z</time>
      </trkpt>
      <trkpt lat="43.2134" lon="5.47152">
        <ele>375.3</ele>
        <time>2025-10-19T12:47:25Z</time>
      </trkpt>
      <trkpt lat="43.2134" lon="5.47152">
        <ele>375.2</ele>
        <time>2025-10-19T12:47:26Z</time>
      </trkpt>
      <trkpt lat="43.2134" lon="5.47152">
        <ele>375.1</ele>
        <time>2025-10-19T12:47:27Z</time>
      </trkpt>
      <trkpt lat="43.2134" lon="5.47152">
        <ele>375.1</ele>
        <time>2025-10-19T12:47:28Z</time>
      </trkpt>
      <trkpt lat="43.2134" lon="5.47152">
        <ele>375</ele>
        <time>2025-10-19T12:47:29Z</time>
      </trkpt>
      <trkpt lat="43.2134" lon="5.47152">
        <ele>375</ele>
        <time>2025-10-19T12:47:30Z</time>
      </trkpt>
      <trkpt lat="43.2134" lon="5.47152">
        <ele>374.9</ele>
        <time>2025-10-19T12:47:31Z</time>
      </trkpt>
      <trkpt lat="43.2134" lon="5.47152">
        <ele>374.8</ele>
        <time>2025-10-19T12:47:32Z</time>
      </trkpt>
      <trkpt lat="43.2134" lon="5.47152">
        <ele>374.8</ele>
        <time>2025-10-19T12:47:33Z</time>
      </trkpt>
      <trkpt lat="43.2134" lon="5.47152">
        <ele>374.7</ele>
        <time>2025-10-19T12:47:34Z</time>
      </trkpt>
      <trkpt lat="43.21341" lon="5.47153">
        <ele>374.8</ele>
        <time>2025-10-19T12:47:35Z</time>
      </trkpt>
      <trkpt lat="43.21341" lon="5.47154">
        <ele>374.8</ele>
        <time>2025-10-19T12:47:36Z</time>
      </trkpt>
      <trkpt lat="43.21342" lon="5.47154">
        <ele>374.8</ele>
        <time>2025-10-19T12:47:37Z</time>
      </trkpt>
      <trkpt lat="43.21342" lon="5.47155">
        <ele>374.8</ele>
        <time>2025-10-19T12:47:38Z</time>
      </trkpt>
      <trkpt lat="43.21343" lon="5.47156">
        <ele>374.7</ele>
        <time>2025-10-19T12:47:39Z</time>
      </trkpt>
      <trkpt lat="43.21344" lon="5.47156">
        <ele>375</ele>
        <time>2025-10-19T12:47:40Z</time>
      </trkpt>
      <trkpt lat="43.21344" lon="5.47157">
        <ele>374.8</ele>
        <time>2025-10-19T12:47:41Z</time>
      </trkpt>
      <trkpt lat="43.21344" lon="5.47158">
        <ele>374.7</ele>
        <time>2025-10-19T12:47:42Z</time>
      </trkpt>
      <trkpt lat="43.21345" lon="5.47159">
        <ele>374.6</ele>
        <time>2025-10-19T12:47:43Z</time>
      </trkpt>
      <trkpt lat="43.21345" lon="5.4716">
        <ele>374.6</ele>
        <time>2025-10-19T12:47:44Z</time>
      </trkpt>
      <trkpt lat="43.21345" lon="5.47161">
        <ele>374.5</ele>
        <time>2025-10-19T12:47:45Z</time>
      </trkpt>
      <trkpt lat="43.21345" lon="5.47162">
        <ele>374.4</ele>
        <time>2025-10-19T12:47:46Z</time>
      </trkpt>
      <trkpt lat="43.21346" lon="5.47163">
        <ele>374.2</ele>
        <time>2025-10-19T12:47:47Z</time>
      </trkpt>
      <trkpt lat="43.21346" lon="5.47164">
        <ele>374.1</ele>
        <time>2025-10-19T12:47:48Z</time>
      </trkpt>
      <trkpt lat="43.21347" lon="5.47165">
        <ele>373.9</ele>
        <time>2025-10-19T12:47:49Z</time>
      </trkpt>
      <trkpt lat="43.21347" lon="5.47166">
        <ele>373.7</ele>
        <time>2025-10-19T12:47:50Z</time>
      </trkpt>
      <trkpt lat="43.21347" lon="5.47167">
        <ele>373.6</ele>
        <time>2025-10-19T12:47:51Z</time>
      </trkpt>
      <trkpt lat="43.21347" lon="5.47169">
        <ele>373.5</ele>
        <time>2025-10-19T12:47:52Z</time>
      </trkpt>
      <trkpt lat="43.21348" lon="5.4717">
        <ele>373.3</ele>
        <time>2025-10-19T12:47:53Z</time>
      </trkpt>
      <trkpt lat="43.21348" lon="5.4717">
        <ele>373.3</ele>
        <time>2025-10-19T12:47:54Z</time>
      </trkpt>
      <trkpt lat="43.21349" lon="5.47171">
        <ele>373.2</ele>
        <time>2025-10-19T12:47:55Z</time>
      </trkpt>
      <trkpt lat="43.21349" lon="5.47172">
        <ele>373.2</ele>
        <time>2025-10-19T12:47:56Z</time>
      </trkpt>
      <trkpt lat="43.21349" lon="5.47172">
        <ele>373.2</ele>
        <time>2025-10-19T12:47:57Z</time>
      </trkpt>
      <trkpt lat="43.21349" lon="5.47173">
        <ele>373.3</ele>
        <time>2025-10-19T12:47:58Z</time>
      </trkpt>
      <trkpt lat="43.21349" lon="5.47174">
        <ele>373.2</ele>
        <time>2025-10-19T12:47:59Z</time>
      </trkpt>
      <trkpt lat="43.21349" lon="5.47174">
        <ele>373.1</ele>
        <time>2025-10-19T12:48:00Z</time>
      </trkpt>
      <trkpt lat="43.21349" lon="5.47175">
        <ele>373</ele>
        <time>2025-10-19T12:48:01Z</time>
      </trkpt>
      <trkpt lat="43.21349" lon="5.47176">
        <ele>373</ele>
        <time>2025-10-19T12:48:02Z</time>
      </trkpt>
      <trkpt lat="43.21349" lon="5.47177">
        <ele>373</ele>
        <time>2025-10-19T12:48:03Z</time>
      </trkpt>
      <trkpt lat="43.21349" lon="5.47178">
        <ele>373</ele>
        <time>2025-10-19T12:48:04Z</time>
      </trkpt>
      <trkpt lat="43.21348" lon="5.47179">
        <ele>373</ele>
        <time>2025-10-19T12:48:05Z</time>
      </trkpt>
      <trkpt lat="43.21348" lon="5.47181">
        <ele>373</ele>
        <time>2025-10-19T12:48:06Z</time>
      </trkpt>
      <trkpt lat="43.21347" lon="5.47182">
        <ele>372.9</ele>
        <time>2025-10-19T12:48:07Z</time>
      </trkpt>
      <trkpt lat="43.21347" lon="5.47183">
        <ele>372.8</ele>
        <time>2025-10-19T12:48:08Z</time>
      </trkpt>
      <trkpt lat="43.21347" lon="5.47183">
        <ele>372.7</ele>
        <time>2025-10-19T12:48:09Z</time>
      </trkpt>
      <trkpt lat="43.21348" lon="5.47185">
        <ele>372.6</ele>
        <time>2025-10-19T12:48:10Z</time>
      </trkpt>
      <trkpt lat="43.21348" lon="5.47186">
        <ele>372.5</ele>
        <time>2025-10-19T12:48:11Z</time>
      </trkpt>
      <trkpt lat="43.21348" lon="5.47187">
        <ele>372.4</ele>
        <time>2025-10-19T12:48:12Z</time>
      </trkpt>
      <trkpt lat="43.21348" lon="5.47187">
        <ele>372.4</ele>
        <time>2025-10-19T12:48:13Z</time>
      </trkpt>
      <trkpt lat="43.21348" lon="5.47187">
        <ele>372.3</ele>
        <time>2025-10-19T12:48:14Z</time>
      </trkpt>
      <trkpt lat="43.21348" lon="5.47187">
        <ele>372.3</ele>
        <time>2025-10-19T12:48:15Z</time>
      </trkpt>
      <trkpt lat="43.21348" lon="5.47187">
        <ele>372.3</ele>
        <time>2025-10-19T12:48:16Z</time>
      </trkpt>
      <trkpt lat="43.21348" lon="5.47187">
        <ele>372.2</ele>
        <time>2025-10-19T12:48:17Z</time>
      </trkpt>
      <trkpt lat="43.21348" lon="5.47187">
        <ele>372.2</ele>
        <time>2025-10-19T12:48:18Z</time>
      </trkpt>
      <trkpt lat="43.21348" lon="5.47187">
        <ele>372.2</ele>
        <time>2025-10-19T12:48:19Z</time>
      </trkpt>
      <trkpt lat="43.21348" lon="5.47187">
        <ele>372.2</ele>
        <time>2025-10-19T12:48:20Z</time>
      </trkpt>
      <trkpt lat="43.21348" lon="5.47187">
        <ele>372.3</ele>
        <time>2025-10-19T12:48:21Z</time>
      </trkpt>
      <trkpt lat="43.21348" lon="5.47187">
        <ele>372.3</ele>
        <time>2025-10-19T12:48:22Z</time>
      </trkpt>
      <trkpt lat="43.21348" lon="5.47187">
        <ele>372.3</ele>
        <time>2025-10-19T12:48:23Z</time>
      </trkpt>
      <trkpt lat="43.21348" lon="5.47188">
        <ele>372.4</ele>
        <time>2025-10-19T12:48:24Z</time>
      </trkpt>
      <trkpt lat="43.21349" lon="5.47188">
        <ele>372.3</ele>
        <time>2025-10-19T12:48:25Z</time>
      </trkpt>
      <trkpt lat="43.21349" lon="5.47189">
        <ele>372.3</ele>
        <time>2025-10-19T12:48:26Z</time>
      </trkpt>
      <trkpt lat="43.21349" lon="5.4719">
        <ele>372.3</ele>
        <time>2025-10-19T12:48:27Z</time>
      </trkpt>
      <trkpt lat="43.21348" lon="5.4719">
        <ele>372.2</ele>
        <time>2025-10-19T12:48:28Z</time>
      </trkpt>
      <trkpt lat="43.21348" lon="5.47191">
        <ele>372.1</ele>
        <time>2025-10-19T12:48:29Z</time>
      </trkpt>
      <trkpt lat="43.21348" lon="5.47192">
        <ele>372.1</ele>
        <time>2025-10-19T12:48:30Z</time>
      </trkpt>
      <trkpt lat="43.21348" lon="5.47192">
        <ele>372</ele>
        <time>2025-10-19T12:48:31Z</time>
      </trkpt>
      <trkpt lat="43.21348" lon="5.47193">
        <ele>372</ele>
        <time>2025-10-19T12:48:32Z</time>
      </trkpt>
      <trkpt lat="43.21348" lon="5.47193">
        <ele>371.9</ele>
        <time>2025-10-19T12:48:33Z</time>
      </trkpt>
      <trkpt lat="43.21348" lon="5.47194">
        <ele>371.9</ele>
        <time>2025-10-19T12:48:34Z</time>
      </trkpt>
      <trkpt lat="43.21348" lon="5.47194">
        <ele>371.8</ele>
        <time>2025-10-19T12:48:35Z</time>
      </trkpt>
      <trkpt lat="43.21348" lon="5.47194">
        <ele>371.8</ele>
        <time>2025-10-19T12:48:36Z</time>
      </trkpt>
      <trkpt lat="43.21348" lon="5.47194">
        <ele>371.8</ele>
        <time>2025-10-19T12:48:37Z</time>
      </trkpt>
      <trkpt lat="43.21348" lon="5.47194">
        <ele>371.8</ele>
        <time>2025-10-19T12:48:38Z</time>
      </trkpt>
      <trkpt lat="43.21348" lon="5.47194">
        <ele>371.8</ele>
        <time>2025-10-19T12:48:39Z</time>
      </trkpt>
      <trkpt lat="43.21348" lon="5.47195">
        <ele>371.7</ele>
        <time>2025-10-19T12:48:40Z</time>
      </trkpt>
      <trkpt lat="43.21348" lon="5.47195">
        <ele>371.7</ele>
        <time>2025-10-19T12:48:41Z</time>
      </trkpt>
      <trkpt lat="43.21348" lon="5.47196">
        <ele>371.6</ele>
        <time>2025-10-19T12:48:42Z</time>
      </trkpt>
      <trkpt lat="43.21348" lon="5.47196">
        <ele>371.6</ele>
        <time>2025-10-19T12:48:43Z</time>
      </trkpt>
      <trkpt lat="43.21347" lon="5.47196">
        <ele>371.6</ele>
        <time>2025-10-19T12:48:44Z</time>
      </trkpt>
      <trkpt lat="43.21347" lon="5.47197">
        <ele>371.7</ele>
        <time>2025-10-19T12:48:45Z</time>
      </trkpt>
      <trkpt lat="43.21347" lon="5.47197">
        <ele>371.5</ele>
        <time>2025-10-19T12:48:46Z</time>
      </trkpt>
      <trkpt lat="43.21347" lon="5.47197">
        <ele>371.4</ele>
        <time>2025-10-19T12:48:47Z</time>
      </trkpt>
      <trkpt lat="43.21347" lon="5.47198">
        <ele>371.3</ele>
        <time>2025-10-19T12:48:48Z</time>
      </trkpt>
      <trkpt lat="43.21347" lon="5.47198">
        <ele>371</ele>
        <time>2025-10-19T12:48:49Z</time>
      </trkpt>
      <trkpt lat="43.21347" lon="5.47198">
        <ele>371</ele>
        <time>2025-10-19T12:48:50Z</time>
      </trkpt>
      <trkpt lat="43.21347" lon="5.47198">
        <ele>370.9</ele>
        <time>2025-10-19T12:48:51Z</time>
      </trkpt>
      <trkpt lat="43.21346" lon="5.47198">
        <ele>370.8</ele>
        <time>2025-10-19T12:48:52Z</time>
      </trkpt>
      <trkpt lat="43.21346" lon="5.47198">
        <ele>370.7</ele>
        <time>2025-10-19T12:48:53Z</time>
      </trkpt>
      <trkpt lat="43.21346" lon="5.47198">
        <ele>370.6</ele>
        <time>2025-10-19T12:48:54Z</time>
      </trkpt>
      <trkpt lat="43.21345" lon="5.47198">
        <ele>370.5</ele>
        <time>2025-10-19T12:48:55Z</time>
      </trkpt>
      <trkpt lat="43.21345" lon="5.47198">
        <ele>370.4</ele>
        <time>2025-10-19T12:48:56Z</time>
      </trkpt>
      <trkpt lat="43.21344" lon="5.47198">
        <ele>370.2</ele>
        <time>2025-10-19T12:48:57Z</time>
      </trkpt>
      <trkpt lat="43.21344" lon="5.47198">
        <ele>370.2</ele>
        <time>2025-10-19T12:48:58Z</time>
      </trkpt>
      <trkpt lat="43.21343" lon="5.47199">
        <ele>369.8</ele>
        <time>2025-10-19T12:48:59Z</time>
      </trkpt>
      <trkpt lat="43.21343" lon="5.47199">
        <ele>369.6</ele>
        <time>2025-10-19T12:49:00Z</time>
      </trkpt>
      <trkpt lat="43.21342" lon="5.47199">
        <ele>369.3</ele>
        <time>2025-10-19T12:49:01Z</time>
      </trkpt>
      <trkpt lat="43.21342" lon="5.47199">
        <ele>369.1</ele>
        <time>2025-10-19T12:49:02Z</time>
      </trkpt>
      <trkpt lat="43.21342" lon="5.47199">
        <ele>368.9</ele>
        <time>2025-10-19T12:49:03Z</time>
      </trkpt>
      <trkpt lat="43.21342" lon="5.47199">
        <ele>368.8</ele>
        <time>2025-10-19T12:49:04Z</time>
      </trkpt>
      <trkpt lat="43.21342" lon="5.47199">
        <ele>368.7</ele>
        <time>2025-10-19T12:49:05Z</time>
      </trkpt>
      <trkpt lat="43.21342" lon="5.47199">
        <ele>368.6</ele>
        <time>2025-10-19T12:49:06Z</time>
      </trkpt>
      <trkpt lat="43.21342" lon="5.47199">
        <ele>368.5</ele>
        <time>2025-10-19T12:49:07Z</time>
      </trkpt>
      <trkpt lat="43.21341" lon="5.472">
        <ele>368.5</ele>
        <time>2025-10-19T12:49:08Z</time>
      </trkpt>
      <trkpt lat="43.21341" lon="5.472">
        <ele>368.4</ele>
        <time>2025-10-19T12:49:09Z</time>
      </trkpt>
      <trkpt lat="43.21341" lon="5.47201">
        <ele>368.3</ele>
        <time>2025-10-19T12:49:10Z</time>
      </trkpt>
      <trkpt lat="43.21341" lon="5.47202">
        <ele>368.2</ele>
        <time>2025-10-19T12:49:11Z</time>
      </trkpt>
      <trkpt lat="43.21341" lon="5.47203">
        <ele>368.1</ele>
        <time>2025-10-19T12:49:12Z</time>
      </trkpt>
      <trkpt lat="43.2134" lon="5.47203">
        <ele>368.1</ele>
        <time>2025-10-19T12:49:13Z</time>
      </trkpt>
      <trkpt lat="43.2134" lon="5.47203">
        <ele>367.8</ele>
        <time>2025-10-19T12:49:14Z</time>
      </trkpt>
      <trkpt lat="43.2134" lon="5.47203">
        <ele>367.7</ele>
        <time>2025-10-19T12:49:15Z</time>
      </trkpt>
      <trkpt lat="43.21339" lon="5.47204">
        <ele>367.5</ele>
        <time>2025-10-19T12:49:16Z</time>
      </trkpt>
      <trkpt lat="43.21338" lon="5.47205">
        <ele>367.4</ele>
        <time>2025-10-19T12:49:17Z</time>
      </trkpt>
      <trkpt lat="43.21337" lon="5.47206">
        <ele>367.3</ele>
        <time>2025-10-19T12:49:18Z</time>
      </trkpt>
      <trkpt lat="43.21337" lon="5.47207">
        <ele>367.3</ele>
        <time>2025-10-19T12:49:19Z</time>
      </trkpt>
      <trkpt lat="43.21335" lon="5.47207">
        <ele>367.3</ele>
        <time>2025-10-19T12:49:20Z</time>
      </trkpt>
      <trkpt lat="43.21335" lon="5.47207">
        <ele>367.4</ele>
        <time>2025-10-19T12:49:21Z</time>
      </trkpt>
      <trkpt lat="43.21334" lon="5.47208">
        <ele>367.5</ele>
        <time>2025-10-19T12:49:22Z</time>
      </trkpt>
      <trkpt lat="43.21333" lon="5.47209">
        <ele>367.5</ele>
        <time>2025-10-19T12:49:23Z</time>
      </trkpt>
      <trkpt lat="43.21333" lon="5.4721">
        <ele>367.5</ele>
        <time>2025-10-19T12:49:24Z</time>
      </trkpt>
      <trkpt lat="43.21332" lon="5.4721">
        <ele>367.5</ele>
        <time>2025-10-19T12:49:25Z</time>
      </trkpt>
      <trkpt lat="43.21332" lon="5.47211">
        <ele>367.5</ele>
        <time>2025-10-19T12:49:26Z</time>
      </trkpt>
      <trkpt lat="43.21331" lon="5.47211">
        <ele>367.5</ele>
        <time>2025-10-19T12:49:27Z</time>
      </trkpt>
      <trkpt lat="43.21331" lon="5.47212">
        <ele>367.6</ele>
        <time>2025-10-19T12:49:28Z</time>
      </trkpt>
      <trkpt lat="43.2133" lon="5.47212">
        <ele>367.6</ele>
        <time>2025-10-19T12:49:29Z</time>
      </trkpt>
      <trkpt lat="43.21329" lon="5.47213">
        <ele>367.6</ele>
        <time>2025-10-19T12:49:30Z</time>
      </trkpt>
      <trkpt lat="43.21328" lon="5.47214">
        <ele>367.5</ele>
        <time>2025-10-19T12:49:31Z</time>
      </trkpt>
      <trkpt lat="43.21327" lon="5.47215">
        <ele>367.5</ele>
        <time>2025-10-19T12:49:32Z</time>
      </trkpt>
      <trkpt lat="43.21327" lon="5.47216">
        <ele>367.4</ele>
        <time>2025-10-19T12:49:33Z</time>
      </trkpt>
      <trkpt lat="43.21327" lon="5.47217">
        <ele>367.3</ele>
        <time>2025-10-19T12:49:34Z</time>
      </trkpt>
      <trkpt lat="43.21326" lon="5.47217">
        <ele>367.2</ele>
        <time>2025-10-19T12:49:35Z</time>
      </trkpt>
      <trkpt lat="43.21325" lon="5.47218">
        <ele>367.1</ele>
        <time>2025-10-19T12:49:36Z</time>
      </trkpt>
      <trkpt lat="43.21324" lon="5.47218">
        <ele>367.1</ele>
        <time>2025-10-19T12:49:37Z</time>
      </trkpt>
      <trkpt lat="43.21323" lon="5.47219">
        <ele>366.9</ele>
        <time>2025-10-19T12:49:38Z</time>
      </trkpt>
      <trkpt lat="43.21323" lon="5.4722">
        <ele>366.8</ele>
        <time>2025-10-19T12:49:39Z</time>
      </trkpt>
      <trkpt lat="43.21322" lon="5.4722">
        <ele>366.6</ele>
        <time>2025-10-19T12:49:40Z</time>
      </trkpt>
      <trkpt lat="43.21321" lon="5.47221">
        <ele>366.5</ele>
        <time>2025-10-19T12:49:41Z</time>
      </trkpt>
      <trkpt lat="43.2132" lon="5.47222">
        <ele>366.4</ele>
        <time>2025-10-19T12:49:42Z</time>
      </trkpt>
      <trkpt lat="43.2132" lon="5.47223">
        <ele>366.3</ele>
        <time>2025-10-19T12:49:43Z</time>
      </trkpt>
      <trkpt lat="43.21319" lon="5.47224">
        <ele>366.2</ele>
        <time>2025-10-19T12:49:44Z</time>
      </trkpt>
      <trkpt lat="43.21318" lon="5.47224">
        <ele>366.2</ele>
        <time>2025-10-19T12:49:45Z</time>
      </trkpt>
      <trkpt lat="43.21318" lon="5.47225">
        <ele>366</ele>
        <time>2025-10-19T12:49:46Z</time>
      </trkpt>
      <trkpt lat="43.21317" lon="5.47225">
        <ele>365.9</ele>
        <time>2025-10-19T12:49:47Z</time>
      </trkpt>
      <trkpt lat="43.21316" lon="5.47226">
        <ele>365.9</ele>
        <time>2025-10-19T12:49:48Z</time>
      </trkpt>
      <trkpt lat="43.21315" lon="5.47226">
        <ele>365.9</ele>
        <time>2025-10-19T12:49:49Z</time>
      </trkpt>
      <trkpt lat="43.21313" lon="5.47227">
        <ele>365.8</ele>
        <time>2025-10-19T12:49:50Z</time>
      </trkpt>
      <trkpt lat="43.21313" lon="5.47228">
        <ele>365.7</ele>
        <time>2025-10-19T12:49:51Z</time>
      </trkpt>
      <trkpt lat="43.21312" lon="5.47229">
        <ele>365.5</ele>
        <time>2025-10-19T12:49:52Z</time>
      </trkpt>
      <trkpt lat="43.21311" lon="5.4723">
        <ele>365.5</ele>
        <time>2025-10-19T12:49:53Z</time>
      </trkpt>
      <trkpt lat="43.21311" lon="5.47231">
        <ele>365.3</ele>
        <time>2025-10-19T12:49:54Z</time>
      </trkpt>
      <trkpt lat="43.2131" lon="5.47231">
        <ele>365.3</ele>
        <time>2025-10-19T12:49:55Z</time>
      </trkpt>
      <trkpt lat="43.21309" lon="5.47232">
        <ele>365.3</ele>
        <time>2025-10-19T12:49:56Z</time>
      </trkpt>
      <trkpt lat="43.21309" lon="5.47232">
        <ele>365.2</ele>
        <time>2025-10-19T12:49:57Z</time>
      </trkpt>
      <trkpt lat="43.21308" lon="5.47233">
        <ele>365.1</ele>
        <time>2025-10-19T12:49:58Z</time>
      </trkpt>
      <trkpt lat="43.21307" lon="5.47234">
        <ele>365.1</ele>
        <time>2025-10-19T12:49:59Z</time>
      </trkpt>
      <trkpt lat="43.21307" lon="5.47234">
        <ele>364.9</ele>
        <time>2025-10-19T12:50:00Z</time>
      </trkpt>
      <trkpt lat="43.21306" lon="5.47235">
        <ele>364.7</ele>
        <time>2025-10-19T12:50:01Z</time>
      </trkpt>
      <trkpt lat="43.21305" lon="5.47235">
        <ele>364.7</ele>
        <time>2025-10-19T12:50:02Z</time>
      </trkpt>
      <trkpt lat="43.21305" lon="5.47236">
        <ele>364.6</ele>
        <time>2025-10-19T12:50:03Z</time>
      </trkpt>
      <trkpt lat="43.21305" lon="5.47237">
        <ele>364.5</ele>
        <time>2025-10-19T12:50:04Z</time>
      </trkpt>
      <trkpt lat="43.21305" lon="5.47238">
        <ele>364.4</ele>
        <time>2025-10-19T12:50:05Z</time>
      </trkpt>
      <trkpt lat="43.21304" lon="5.47239">
        <ele>364.4</ele>
        <time>2025-10-19T12:50:06Z</time>
      </trkpt>
      <trkpt lat="43.21304" lon="5.47241">
        <ele>364.4</ele>
        <time>2025-10-19T12:50:07Z</time>
      </trkpt>
      <trkpt lat="43.21304" lon="5.47242">
        <ele>364.4</ele>
        <time>2025-10-19T12:50:08Z</time>
      </trkpt>
      <trkpt lat="43.21304" lon="5.47243">
        <ele>364.2</ele>
        <time>2025-10-19T12:50:09Z</time>
      </trkpt>
      <trkpt lat="43.21303" lon="5.47244">
        <ele>364.3</ele>
        <time>2025-10-19T12:50:10Z</time>
      </trkpt>
      <trkpt lat="43.21303" lon="5.47246">
        <ele>364.3</ele>
        <time>2025-10-19T12:50:11Z</time>
      </trkpt>
      <trkpt lat="43.21303" lon="5.47247">
        <ele>364.3</ele>
        <time>2025-10-19T12:50:12Z</time>
      </trkpt>
      <trkpt lat="43.21302" lon="5.47248">
        <ele>364.2</ele>
        <time>2025-10-19T12:50:13Z</time>
      </trkpt>
      <trkpt lat="43.21302" lon="5.47249">
        <ele>364.3</ele>
        <time>2025-10-19T12:50:14Z</time>
      </trkpt>
      <trkpt lat="43.21302" lon="5.4725">
        <ele>364.2</ele>
        <time>2025-10-19T12:50:15Z</time>
      </trkpt>
      <trkpt lat="43.21301" lon="5.4725">
        <ele>364.2</ele>
        <time>2025-10-19T12:50:16Z</time>
      </trkpt>
      <trkpt lat="43.21301" lon="5.47251">
        <ele>364.3</ele>
        <time>2025-10-19T12:50:17Z</time>
      </trkpt>
      <trkpt lat="43.21301" lon="5.47251">
        <ele>364.2</ele>
        <time>2025-10-19T12:50:18Z</time>
      </trkpt>
      <trkpt lat="43.213" lon="5.47251">
        <ele>364.2</ele>
        <time>2025-10-19T12:50:19Z</time>
      </trkpt>
      <trkpt lat="43.213" lon="5.47251">
        <ele>363.9</ele>
        <time>2025-10-19T12:50:20Z</time>
      </trkpt>
      <trkpt lat="43.21299" lon="5.47252">
        <ele>363.7</ele>
        <time>2025-10-19T12:50:21Z</time>
      </trkpt>
      <trkpt lat="43.21298" lon="5.47252">
        <ele>363.6</ele>
        <time>2025-10-19T12:50:22Z</time>
      </trkpt>
      <trkpt lat="43.21298" lon="5.47252">
        <ele>363.5</ele>
        <time>2025-10-19T12:50:23Z</time>
      </trkpt>
      <trkpt lat="43.21297" lon="5.47252">
        <ele>363.2</ele>
        <time>2025-10-19T12:50:24Z</time>
      </trkpt>
      <trkpt lat="43.21295" lon="5.47252">
        <ele>362.9</ele>
        <time>2025-10-19T12:50:25Z</time>
      </trkpt>
      <trkpt lat="43.21294" lon="5.47251">
        <ele>362.6</ele>
        <time>2025-10-19T12:50:26Z</time>
      </trkpt>
      <trkpt lat="43.21293" lon="5.47251">
        <ele>362.4</ele>
        <time>2025-10-19T12:50:27Z</time>
      </trkpt>
      <trkpt lat="43.21292" lon="5.47251">
        <ele>362.3</ele>
        <time>2025-10-19T12:50:28Z</time>
      </trkpt>
      <trkpt lat="43.21291" lon="5.47251">
        <ele>362.1</ele>
        <time>2025-10-19T12:50:29Z</time>
      </trkpt>
      <trkpt lat="43.2129" lon="5.47252">
        <ele>361.9</ele>
        <time>2025-10-19T12:50:30Z</time>
      </trkpt>
      <trkpt lat="43.21289" lon="5.47253">
        <ele>361.7</ele>
        <time>2025-10-19T12:50:31Z</time>
      </trkpt>
      <trkpt lat="43.21288" lon="5.47253">
        <ele>361.6</ele>
        <time>2025-10-19T12:50:32Z</time>
      </trkpt>
      <trkpt lat="43.21288" lon="5.47254">
        <ele>361.5</ele>
        <time>2025-10-19T12:50:33Z</time>
      </trkpt>
      <trkpt lat="43.21288" lon="5.47255">
        <ele>361.5</ele>
        <time>2025-10-19T12:50:34Z</time>
      </trkpt>
      <trkpt lat="43.21286" lon="5.47255">
        <ele>361.4</ele>
        <time>2025-10-19T12:50:35Z</time>
      </trkpt>
      <trkpt lat="43.21286" lon="5.47256">
        <ele>361.5</ele>
        <time>2025-10-19T12:50:36Z</time>
      </trkpt>
      <trkpt lat="43.21285" lon="5.47256">
        <ele>361.6</ele>
        <time>2025-10-19T12:50:37Z</time>
      </trkpt>
      <trkpt lat="43.21284" lon="5.47257">
        <ele>361.6</ele>
        <time>2025-10-19T12:50:38Z</time>
      </trkpt>
      <trkpt lat="43.21284" lon="5.47258">
        <ele>361.7</ele>
        <time>2025-10-19T12:50:39Z</time>
      </trkpt>
      <trkpt lat="43.21283" lon="5.47259">
        <ele>361.7</ele>
        <time>2025-10-19T12:50:40Z</time>
      </trkpt>
      <trkpt lat="43.21283" lon="5.4726">
        <ele>361.8</ele>
        <time>2025-10-19T12:50:41Z</time>
      </trkpt>
      <trkpt lat="43.21283" lon="5.4726">
        <ele>361.8</ele>
        <time>2025-10-19T12:50:42Z</time>
      </trkpt>
      <trkpt lat="43.21282" lon="5.4726">
        <ele>361.8</ele>
        <time>2025-10-19T12:50:43Z</time>
      </trkpt>
      <trkpt lat="43.21282" lon="5.47261">
        <ele>361.8</ele>
        <time>2025-10-19T12:50:44Z</time>
      </trkpt>
      <trkpt lat="43.21281" lon="5.47261">
        <ele>361.7</ele>
        <time>2025-10-19T12:50:45Z</time>
      </trkpt>
      <trkpt lat="43.2128" lon="5.47261">
        <ele>361.6</ele>
        <time>2025-10-19T12:50:46Z</time>
      </trkpt>
      <trkpt lat="43.2128" lon="5.47262">
        <ele>361.5</ele>
        <time>2025-10-19T12:50:47Z</time>
      </trkpt>
      <trkpt lat="43.21279" lon="5.47262">
        <ele>361.5</ele>
        <time>2025-10-19T12:50:48Z</time>
      </trkpt>
      <trkpt lat="43.21278" lon="5.47263">
        <ele>361.4</ele>
        <time>2025-10-19T12:50:49Z</time>
      </trkpt>
      <trkpt lat="43.21278" lon="5.47265">
        <ele>361.4</ele>
        <time>2025-10-19T12:50:50Z</time>
      </trkpt>
      <trkpt lat="43.21277" lon="5.47267">
        <ele>361.3</ele>
        <time>2025-10-19T12:50:51Z</time>
      </trkpt>
      <trkpt lat="43.21277" lon="5.47268">
        <ele>361.2</ele>
        <time>2025-10-19T12:50:52Z</time>
      </trkpt>
      <trkpt lat="43.21276" lon="5.47269">
        <ele>361.3</ele>
        <time>2025-10-19T12:50:53Z</time>
      </trkpt>
      <trkpt lat="43.21276" lon="5.4727">
        <ele>361.3</ele>
        <time>2025-10-19T12:50:54Z</time>
      </trkpt>
      <trkpt lat="43.21275" lon="5.47271">
        <ele>361.4</ele>
        <time>2025-10-19T12:50:55Z</time>
      </trkpt>
      <trkpt lat="43.21275" lon="5.47272">
        <ele>361.4</ele>
        <time>2025-10-19T12:50:56Z</time>
      </trkpt>
      <trkpt lat="43.21275" lon="5.47273">
        <ele>361.5</ele>
        <time>2025-10-19T12:50:57Z</time>
      </trkpt>
      <trkpt lat="43.21274" lon="5.47274">
        <ele>361.5</ele>
        <time>2025-10-19T12:50:58Z</time>
      </trkpt>
      <trkpt lat="43.21274" lon="5.47275">
        <ele>361.5</ele>
        <time>2025-10-19T12:50:59Z</time>
      </trkpt>
      <trkpt lat="43.21275" lon="5.47276">
        <ele>361.5</ele>
        <time>2025-10-19T12:51:00Z</time>
      </trkpt>
      <trkpt lat="43.21275" lon="5.47277">
        <ele>361.6</ele>
        <time>2025-10-19T12:51:01Z</time>
      </trkpt>
      <trkpt lat="43.21275" lon="5.47277">
        <ele>361.9</ele>
        <time>2025-10-19T12:51:02Z</time>
      </trkpt>
      <trkpt lat="43.21275" lon="5.47277">
        <ele>362.1</ele>
        <time>2025-10-19T12:51:03Z</time>
      </trkpt>
      <trkpt lat="43.21275" lon="5.47277">
        <ele>362.3</ele>
        <time>2025-10-19T12:51:04Z</time>
      </trkpt>
      <trkpt lat="43.21275" lon="5.47278">
        <ele>362.4</ele>
        <time>2025-10-19T12:51:05Z</time>
      </trkpt>
      <trkpt lat="43.21275" lon="5.47278">
        <ele>362.5</ele>
        <time>2025-10-19T12:51:06Z</time>
      </trkpt>
      <trkpt lat="43.21275" lon="5.47278">
        <ele>362.5</ele>
        <time>2025-10-19T12:51:07Z</time>
      </trkpt>
      <trkpt lat="43.21275" lon="5.47278">
        <ele>362.5</ele>
        <time>2025-10-19T12:51:08Z</time>
      </trkpt>
      <trkpt lat="43.21275" lon="5.47278">
        <ele>362.7</ele>
        <time>2025-10-19T12:51:09Z</time>
      </trkpt>
      <trkpt lat="43.21275" lon="5.47278">
        <ele>362.8</ele>
        <time>2025-10-19T12:51:10Z</time>
      </trkpt>
      <trkpt lat="43.21275" lon="5.47279">
        <ele>362.9</ele>
        <time>2025-10-19T12:51:11Z</time>
      </trkpt>
      <trkpt lat="43.21275" lon="5.4728">
        <ele>363</ele>
        <time>2025-10-19T12:51:12Z</time>
      </trkpt>
      <trkpt lat="43.21275" lon="5.47281">
        <ele>363.1</ele>
        <time>2025-10-19T12:51:13Z</time>
      </trkpt>
      <trkpt lat="43.21275" lon="5.47282">
        <ele>363.2</ele>
        <time>2025-10-19T12:51:14Z</time>
      </trkpt>
      <trkpt lat="43.21274" lon="5.47283">
        <ele>363.2</ele>
        <time>2025-10-19T12:51:15Z</time>
      </trkpt>
      <trkpt lat="43.21274" lon="5.47284">
        <ele>363.4</ele>
        <time>2025-10-19T12:51:16Z</time>
      </trkpt>
      <trkpt lat="43.21274" lon="5.47285">
        <ele>363.6</ele>
        <time>2025-10-19T12:51:17Z</time>
      </trkpt>
      <trkpt lat="43.21273" lon="5.47286">
        <ele>363.9</ele>
        <time>2025-10-19T12:51:18Z</time>
      </trkpt>
      <trkpt lat="43.21273" lon="5.47287">
        <ele>364.1</ele>
        <time>2025-10-19T12:51:19Z</time>
      </trkpt>
      <trkpt lat="43.21273" lon="5.47289">
        <ele>364.1</ele>
        <time>2025-10-19T12:51:20Z</time>
      </trkpt>
      <trkpt lat="43.21273" lon="5.4729">
        <ele>364.1</ele>
        <time>2025-10-19T12:51:21Z</time>
      </trkpt>
      <trkpt lat="43.21272" lon="5.4729">
        <ele>364.3</ele>
        <time>2025-10-19T12:51:22Z</time>
      </trkpt>
      <trkpt lat="43.21272" lon="5.47291">
        <ele>364.3</ele>
        <time>2025-10-19T12:51:23Z</time>
      </trkpt>
      <trkpt lat="43.21272" lon="5.47292">
        <ele>364.3</ele>
        <time>2025-10-19T12:51:24Z</time>
      </trkpt>
      <trkpt lat="43.21271" lon="5.47293">
        <ele>364.2</ele>
        <time>2025-10-19T12:51:25Z</time>
      </trkpt>
      <trkpt lat="43.2127" lon="5.47294">
        <ele>364.1</ele>
        <time>2025-10-19T12:51:26Z</time>
      </trkpt>
      <trkpt lat="43.2127" lon="5.47296">
        <ele>364</ele>
        <time>2025-10-19T12:51:27Z</time>
      </trkpt>
      <trkpt lat="43.2127" lon="5.47297">
        <ele>364</ele>
        <time>2025-10-19T12:51:28Z</time>
      </trkpt>
      <trkpt lat="43.21269" lon="5.47298">
        <ele>364</ele>
        <time>2025-10-19T12:51:29Z</time>
      </trkpt>
      <trkpt lat="43.21269" lon="5.47299">
        <ele>364</ele>
        <time>2025-10-19T12:51:30Z</time>
      </trkpt>
      <trkpt lat="43.21269" lon="5.473">
        <ele>364</ele>
        <time>2025-10-19T12:51:31Z</time>
      </trkpt>
      <trkpt lat="43.21268" lon="5.47301">
        <ele>364</ele>
        <time>2025-10-19T12:51:32Z</time>
      </trkpt>
      <trkpt lat="43.21268" lon="5.47301">
        <ele>364</ele>
        <time>2025-10-19T12:51:33Z</time>
      </trkpt>
      <trkpt lat="43.21268" lon="5.47301">
        <ele>364</ele>
        <time>2025-10-19T12:51:34Z</time>
      </trkpt>
      <trkpt lat="43.21267" lon="5.47301">
        <ele>364</ele>
        <time>2025-10-19T12:51:35Z</time>
      </trkpt>
      <trkpt lat="43.21267" lon="5.47302">
        <ele>364</ele>
        <time>2025-10-19T12:51:36Z</time>
      </trkpt>
      <trkpt lat="43.21267" lon="5.47302">
        <ele>363.9</ele>
        <time>2025-10-19T12:51:37Z</time>
      </trkpt>
      <trkpt lat="43.21267" lon="5.47302">
        <ele>363.9</ele>
        <time>2025-10-19T12:51:38Z</time>
      </trkpt>
      <trkpt lat="43.21267" lon="5.47302">
        <ele>363.8</ele>
        <time>2025-10-19T12:51:39Z</time>
      </trkpt>
      <trkpt lat="43.21266" lon="5.47302">
        <ele>363.8</ele>
        <time>2025-10-19T12:51:40Z</time>
      </trkpt>
      <trkpt lat="43.21266" lon="5.47303">
        <ele>363.8</ele>
        <time>2025-10-19T12:51:41Z</time>
      </trkpt>
      <trkpt lat="43.21265" lon="5.47304">
        <ele>363.7</ele>
        <time>2025-10-19T12:51:42Z</time>
      </trkpt>
      <trkpt lat="43.21265" lon="5.47304">
        <ele>363.7</ele>
        <time>2025-10-19T12:51:43Z</time>
      </trkpt>
      <trkpt lat="43.21264" lon="5.47304">
        <ele>363.6</ele>
        <time>2025-10-19T12:51:44Z</time>
      </trkpt>
      <trkpt lat="43.21264" lon="5.47305">
        <ele>363.5</ele>
        <time>2025-10-19T12:51:45Z</time>
      </trkpt>
      <trkpt lat="43.21263" lon="5.47306">
        <ele>363.4</ele>
        <time>2025-10-19T12:51:46Z</time>
      </trkpt>
      <trkpt lat="43.21263" lon="5.47306">
        <ele>363.3</ele>
        <time>2025-10-19T12:51:47Z</time>
      </trkpt>
      <trkpt lat="43.21262" lon="5.47306">
        <ele>363.2</ele>
        <time>2025-10-19T12:51:48Z</time>
      </trkpt>
      <trkpt lat="43.21262" lon="5.47307">
        <ele>363</ele>
        <time>2025-10-19T12:51:49Z</time>
      </trkpt>
      <trkpt lat="43.21262" lon="5.47308">
        <ele>363</ele>
        <time>2025-10-19T12:51:50Z</time>
      </trkpt>
      <trkpt lat="43.21261" lon="5.47309">
        <ele>362.9</ele>
        <time>2025-10-19T12:51:51Z</time>
      </trkpt>
      <trkpt lat="43.21261" lon="5.4731">
        <ele>362.7</ele>
        <time>2025-10-19T12:51:52Z</time>
      </trkpt>
      <trkpt lat="43.21261" lon="5.47311">
        <ele>362.5</ele>
        <time>2025-10-19T12:51:53Z</time>
      </trkpt>
      <trkpt lat="43.2126" lon="5.47312">
        <ele>362.4</ele>
        <time>2025-10-19T12:51:54Z</time>
      </trkpt>
      <trkpt lat="43.2126" lon="5.47313">
        <ele>362.6</ele>
        <time>2025-10-19T12:51:55Z</time>
      </trkpt>
      <trkpt lat="43.2126" lon="5.47314">
        <ele>362.6</ele>
        <time>2025-10-19T12:51:56Z</time>
      </trkpt>
      <trkpt lat="43.21259" lon="5.47315">
        <ele>362.6</ele>
        <time>2025-10-19T12:51:57Z</time>
      </trkpt>
      <trkpt lat="43.21259" lon="5.47316">
        <ele>362.6</ele>
        <time>2025-10-19T12:51:58Z</time>
      </trkpt>
      <trkpt lat="43.21259" lon="5.47317">
        <ele>362.8</ele>
        <time>2025-10-19T12:51:59Z</time>
      </trkpt>
      <trkpt lat="43.21259" lon="5.47318">
        <ele>362.8</ele>
        <time>2025-10-19T12:52:00Z</time>
      </trkpt>
      <trkpt lat="43.21259" lon="5.47319">
        <ele>362.8</ele>
        <time>2025-10-19T12:52:01Z</time>
      </trkpt>
      <trkpt lat="43.21259" lon="5.4732">
        <ele>362.9</ele>
        <time>2025-10-19T12:52:02Z</time>
      </trkpt>
      <trkpt lat="43.21258" lon="5.47321">
        <ele>363</ele>
        <time>2025-10-19T12:52:03Z</time>
      </trkpt>
      <trkpt lat="43.21258" lon="5.47321">
        <ele>363.1</ele>
        <time>2025-10-19T12:52:04Z</time>
      </trkpt>
      <trkpt lat="43.21258" lon="5.47321">
        <ele>363.1</ele>
        <time>2025-10-19T12:52:05Z</time>
      </trkpt>
      <trkpt lat="43.21258" lon="5.47321">
        <ele>363.2</ele>
        <time>2025-10-19T12:52:06Z</time>
      </trkpt>
      <trkpt lat="43.21258" lon="5.47321">
        <ele>363.3</ele>
        <time>2025-10-19T12:52:07Z</time>
      </trkpt>
      <trkpt lat="43.21258" lon="5.47322">
        <ele>363.4</ele>
        <time>2025-10-19T12:52:08Z</time>
      </trkpt>
      <trkpt lat="43.21257" lon="5.47323">
        <ele>363.4</ele>
        <time>2025-10-19T12:52:09Z</time>
      </trkpt>
      <trkpt lat="43.21257" lon="5.47325">
        <ele>363.5</ele>
        <time>2025-10-19T12:52:10Z</time>
      </trkpt>
      <trkpt lat="43.21257" lon="5.47325">
        <ele>363.6</ele>
        <time>2025-10-19T12:52:11Z</time>
      </trkpt>
      <trkpt lat="43.21257" lon="5.47326">
        <ele>363.6</ele>
        <time>2025-10-19T12:52:12Z</time>
      </trkpt>
      <trkpt lat="43.21257" lon="5.47327">
        <ele>363.5</ele>
        <time>2025-10-19T12:52:13Z</time>
      </trkpt>
      <trkpt lat="43.21256" lon="5.47328">
        <ele>363.5</ele>
        <time>2025-10-19T12:52:14Z</time>
      </trkpt>
      <trkpt lat="43.21256" lon="5.47329">
        <ele>363.5</ele>
        <time>2025-10-19T12:52:15Z</time>
      </trkpt>
      <trkpt lat="43.21256" lon="5.4733">
        <ele>363.5</ele>
        <time>2025-10-19T12:52:16Z</time>
      </trkpt>
      <trkpt lat="43.21256" lon="5.47331">
        <ele>363.5</ele>
        <time>2025-10-19T12:52:17Z</time>
      </trkpt>
      <trkpt lat="43.21256" lon="5.47332">
        <ele>363.5</ele>
        <time>2025-10-19T12:52:18Z</time>
      </trkpt>
      <trkpt lat="43.21256" lon="5.47332">
        <ele>363.4</ele>
        <time>2025-10-19T12:52:19Z</time>
      </trkpt>
      <trkpt lat="43.21256" lon="5.47333">
        <ele>363.4</ele>
        <time>2025-10-19T12:52:20Z</time>
      </trkpt>
      <trkpt lat="43.21256" lon="5.47334">
        <ele>363.5</ele>
        <time>2025-10-19T12:52:21Z</time>
      </trkpt>
      <trkpt lat="43.21256" lon="5.47334">
        <ele>363.5</ele>
        <time>2025-10-19T12:52:22Z</time>
      </trkpt>
      <trkpt lat="43.21256" lon="5.47335">
        <ele>363.6</ele>
        <time>2025-10-19T12:52:23Z</time>
      </trkpt>
      <trkpt lat="43.21255" lon="5.47335">
        <ele>363.6</ele>
        <time>2025-10-19T12:52:24Z</time>
      </trkpt>
      <trkpt lat="43.21255" lon="5.47336">
        <ele>363.7</ele>
        <time>2025-10-19T12:52:25Z</time>
      </trkpt>
      <trkpt lat="43.21255" lon="5.47337">
        <ele>363.7</ele>
        <time>2025-10-19T12:52:26Z</time>
      </trkpt>
      <trkpt lat="43.21255" lon="5.47337">
        <ele>363.7</ele>
        <time>2025-10-19T12:52:27Z</time>
      </trkpt>
      <trkpt lat="43.21254" lon="5.47337">
        <ele>363.7</ele>
        <time>2025-10-19T12:52:28Z</time>
      </trkpt>
      <trkpt lat="43.21254" lon="5.47338">
        <ele>363.7</ele>
        <time>2025-10-19T12:52:29Z</time>
      </trkpt>
      <trkpt lat="43.21254" lon="5.47338">
        <ele>363.6</ele>
        <time>2025-10-19T12:52:30Z</time>
      </trkpt>
      <trkpt lat="43.21253" lon="5.47338">
        <ele>363.6</ele>
        <time>2025-10-19T12:52:31Z</time>
      </trkpt>
      <trkpt lat="43.21253" lon="5.47339">
        <ele>363.6</ele>
        <time>2025-10-19T12:52:32Z</time>
      </trkpt>
      <trkpt lat="43.21252" lon="5.47339">
        <ele>363.6</ele>
        <time>2025-10-19T12:52:33Z</time>
      </trkpt>
      <trkpt lat="43.21252" lon="5.4734">
        <ele>363.6</ele>
        <time>2025-10-19T12:52:34Z</time>
      </trkpt>
      <trkpt lat="43.21252" lon="5.4734">
        <ele>363.6</ele>
        <time>2025-10-19T12:52:35Z</time>
      </trkpt>
      <trkpt lat="43.21252" lon="5.47341">
        <ele>363.5</ele>
        <time>2025-10-19T12:52:36Z</time>
      </trkpt>
      <trkpt lat="43.21252" lon="5.47341">
        <ele>363.5</ele>
        <time>2025-10-19T12:52:37Z</time>
      </trkpt>
      <trkpt lat="43.21252" lon="5.47342">
        <ele>363.6</ele>
        <time>2025-10-19T12:52:38Z</time>
      </trkpt>
      <trkpt lat="43.21252" lon="5.47342">
        <ele>363.7</ele>
        <time>2025-10-19T12:52:39Z</time>
      </trkpt>
      <trkpt lat="43.21252" lon="5.47343">
        <ele>363.8</ele>
        <time>2025-10-19T12:52:40Z</time>
      </trkpt>
      <trkpt lat="43.21252" lon="5.47343">
        <ele>364</ele>
        <time>2025-10-19T12:52:41Z</time>
      </trkpt>
      <trkpt lat="43.21252" lon="5.47343">
        <ele>364.1</ele>
        <time>2025-10-19T12:52:42Z</time>
      </trkpt>
      <trkpt lat="43.21252" lon="5.47343">
        <ele>364.2</ele>
        <time>2025-10-19T12:52:43Z</time>
      </trkpt>
      <trkpt lat="43.21252" lon="5.47344">
        <ele>364.3</ele>
        <time>2025-10-19T12:52:44Z</time>
      </trkpt>
      <trkpt lat="43.21252" lon="5.47344">
        <ele>364.4</ele>
        <time>2025-10-19T12:52:45Z</time>
      </trkpt>
      <trkpt lat="43.21252" lon="5.47345">
        <ele>364.4</ele>
        <time>2025-10-19T12:52:46Z</time>
      </trkpt>
      <trkpt lat="43.21252" lon="5.47345">
        <ele>364.4</ele>
        <time>2025-10-19T12:52:47Z</time>
      </trkpt>
      <trkpt lat="43.21252" lon="5.47345">
        <ele>364.4</ele>
        <time>2025-10-19T12:52:48Z</time>
      </trkpt>
      <trkpt lat="43.21253" lon="5.47346">
        <ele>364.4</ele>
        <time>2025-10-19T12:52:49Z</time>
      </trkpt>
      <trkpt lat="43.21253" lon="5.47347">
        <ele>364.5</ele>
        <time>2025-10-19T12:52:50Z</time>
      </trkpt>
      <trkpt lat="43.21252" lon="5.47347">
        <ele>364.7</ele>
        <time>2025-10-19T12:52:51Z</time>
      </trkpt>
      <trkpt lat="43.21252" lon="5.47348">
        <ele>364.9</ele>
        <time>2025-10-19T12:52:52Z</time>
      </trkpt>
      <trkpt lat="43.21252" lon="5.47349">
        <ele>365.1</ele>
        <time>2025-10-19T12:52:53Z</time>
      </trkpt>
      <trkpt lat="43.21253" lon="5.47349">
        <ele>365.5</ele>
        <time>2025-10-19T12:52:54Z</time>
      </trkpt>
      <trkpt lat="43.21253" lon="5.4735">
        <ele>365.7</ele>
        <time>2025-10-19T12:52:55Z</time>
      </trkpt>
      <trkpt lat="43.21253" lon="5.4735">
        <ele>366</ele>
        <time>2025-10-19T12:52:56Z</time>
      </trkpt>
      <trkpt lat="43.21253" lon="5.47351">
        <ele>366.2</ele>
        <time>2025-10-19T12:52:57Z</time>
      </trkpt>
      <trkpt lat="43.21253" lon="5.47352">
        <ele>366.4</ele>
        <time>2025-10-19T12:52:58Z</time>
      </trkpt>
      <trkpt lat="43.21253" lon="5.47353">
        <ele>366.6</ele>
        <time>2025-10-19T12:52:59Z</time>
      </trkpt>
      <trkpt lat="43.21252" lon="5.47354">
        <ele>366.9</ele>
        <time>2025-10-19T12:53:00Z</time>
      </trkpt>
      <trkpt lat="43.21252" lon="5.47355">
        <ele>367</ele>
        <time>2025-10-19T12:53:01Z</time>
      </trkpt>
      <trkpt lat="43.21252" lon="5.47356">
        <ele>367.2</ele>
        <time>2025-10-19T12:53:02Z</time>
      </trkpt>
      <trkpt lat="43.21251" lon="5.47358">
        <ele>367.4</ele>
        <time>2025-10-19T12:53:03Z</time>
      </trkpt>
      <trkpt lat="43.21251" lon="5.47359">
        <ele>367.5</ele>
        <time>2025-10-19T12:53:04Z</time>
      </trkpt>
      <trkpt lat="43.21251" lon="5.4736">
        <ele>367.5</ele>
        <time>2025-10-19T12:53:05Z</time>
      </trkpt>
      <trkpt lat="43.2125" lon="5.47362">
        <ele>367.6</ele>
        <time>2025-10-19T12:53:06Z</time>
      </trkpt>
      <trkpt lat="43.2125" lon="5.47363">
        <ele>367.6</ele>
        <time>2025-10-19T12:53:07Z</time>
      </trkpt>
      <trkpt lat="43.2125" lon="5.47364">
        <ele>367.7</ele>
        <time>2025-10-19T12:53:08Z</time>
      </trkpt>
      <trkpt lat="43.2125" lon="5.47365">
        <ele>367.7</ele>
        <time>2025-10-19T12:53:09Z</time>
      </trkpt>
      <trkpt lat="43.2125" lon="5.47367">
        <ele>367.8</ele>
        <time>2025-10-19T12:53:10Z</time>
      </trkpt>
      <trkpt lat="43.2125" lon="5.47368">
        <ele>367.9</ele>
        <time>2025-10-19T12:53:11Z</time>
      </trkpt>
      <trkpt lat="43.2125" lon="5.47368">
        <ele>368</ele>
        <time>2025-10-19T12:53:12Z</time>
      </trkpt>
      <trkpt lat="43.2125" lon="5.47369">
        <ele>368</ele>
        <time>2025-10-19T12:53:13Z</time>
      </trkpt>
      <trkpt lat="43.2125" lon="5.4737">
        <ele>368.1</ele>
        <time>2025-10-19T12:53:14Z</time>
      </trkpt>
      <trkpt lat="43.21251" lon="5.4737">
        <ele>368.2</ele>
        <time>2025-10-19T12:53:15Z</time>
      </trkpt>
      <trkpt lat="43.21251" lon="5.47371">
        <ele>368.2</ele>
        <time>2025-10-19T12:53:16Z</time>
      </trkpt>
      <trkpt lat="43.21251" lon="5.47372">
        <ele>368.4</ele>
        <time>2025-10-19T12:53:17Z</time>
      </trkpt>
      <trkpt lat="43.21251" lon="5.47373">
        <ele>368.5</ele>
        <time>2025-10-19T12:53:18Z</time>
      </trkpt>
      <trkpt lat="43.21251" lon="5.47374">
        <ele>368.5</ele>
        <time>2025-10-19T12:53:19Z</time>
      </trkpt>
      <trkpt lat="43.21251" lon="5.47374">
        <ele>368.5</ele>
        <time>2025-10-19T12:53:20Z</time>
      </trkpt>
      <trkpt lat="43.21251" lon="5.47374">
        <ele>368.5</ele>
        <time>2025-10-19T12:53:21Z</time>
      </trkpt>
      <trkpt lat="43.21251" lon="5.47375">
        <ele>368.5</ele>
        <time>2025-10-19T12:53:22Z</time>
      </trkpt>
      <trkpt lat="43.21251" lon="5.47376">
        <ele>368.5</ele>
        <time>2025-10-19T12:53:23Z</time>
      </trkpt>
      <trkpt lat="43.2125" lon="5.47377">
        <ele>368.4</ele>
        <time>2025-10-19T12:53:24Z</time>
      </trkpt>
      <trkpt lat="43.2125" lon="5.47377">
        <ele>368.4</ele>
        <time>2025-10-19T12:53:25Z</time>
      </trkpt>
      <trkpt lat="43.2125" lon="5.47377">
        <ele>368.4</ele>
        <time>2025-10-19T12:53:26Z</time>
      </trkpt>
      <trkpt lat="43.2125" lon="5.47377">
        <ele>368.4</ele>
        <time>2025-10-19T12:53:27Z</time>
      </trkpt>
      <trkpt lat="43.2125" lon="5.47377">
        <ele>368.3</ele>
        <time>2025-10-19T12:53:28Z</time>
      </trkpt>
      <trkpt lat="43.2125" lon="5.47377">
        <ele>368.2</ele>
        <time>2025-10-19T12:53:29Z</time>
      </trkpt>
      <trkpt lat="43.21249" lon="5.47378">
        <ele>368.1</ele>
        <time>2025-10-19T12:53:30Z</time>
      </trkpt>
      <trkpt lat="43.21249" lon="5.47379">
        <ele>368</ele>
        <time>2025-10-19T12:53:31Z</time>
      </trkpt>
      <trkpt lat="43.21249" lon="5.47379">
        <ele>367.9</ele>
        <time>2025-10-19T12:53:32Z</time>
      </trkpt>
      <trkpt lat="43.21249" lon="5.4738">
        <ele>367.9</ele>
        <time>2025-10-19T12:53:33Z</time>
      </trkpt>
      <trkpt lat="43.21248" lon="5.47381">
        <ele>367.8</ele>
        <time>2025-10-19T12:53:34Z</time>
      </trkpt>
      <trkpt lat="43.21248" lon="5.47381">
        <ele>367.7</ele>
        <time>2025-10-19T12:53:35Z</time>
      </trkpt>
      <trkpt lat="43.21248" lon="5.47382">
        <ele>367.7</ele>
        <time>2025-10-19T12:53:36Z</time>
      </trkpt>
      <trkpt lat="43.21247" lon="5.47383">
        <ele>367.5</ele>
        <time>2025-10-19T12:53:37Z</time>
      </trkpt>
      <trkpt lat="43.21247" lon="5.47384">
        <ele>367.4</ele>
        <time>2025-10-19T12:53:38Z</time>
      </trkpt>
      <trkpt lat="43.21247" lon="5.47385">
        <ele>367.3</ele>
        <time>2025-10-19T12:53:39Z</time>
      </trkpt>
      <trkpt lat="43.21247" lon="5.47386">
        <ele>367.1</ele>
        <time>2025-10-19T12:53:40Z</time>
      </trkpt>
      <trkpt lat="43.21246" lon="5.47386">
        <ele>367</ele>
        <time>2025-10-19T12:53:41Z</time>
      </trkpt>
      <trkpt lat="43.21246" lon="5.47387">
        <ele>366.8</ele>
        <time>2025-10-19T12:53:42Z</time>
      </trkpt>
      <trkpt lat="43.21245" lon="5.47387">
        <ele>366.7</ele>
        <time>2025-10-19T12:53:43Z</time>
      </trkpt>
      <trkpt lat="43.21245" lon="5.47388">
        <ele>366.6</ele>
        <time>2025-10-19T12:53:44Z</time>
      </trkpt>
      <trkpt lat="43.21245" lon="5.47388">
        <ele>366.4</ele>
        <time>2025-10-19T12:53:45Z</time>
      </trkpt>
      <trkpt lat="43.21244" lon="5.47388">
        <ele>366.4</ele>
        <time>2025-10-19T12:53:46Z</time>
      </trkpt>
      <trkpt lat="43.21244" lon="5.47389">
        <ele>366.2</ele>
        <time>2025-10-19T12:53:47Z</time>
      </trkpt>
      <trkpt lat="43.21244" lon="5.47389">
        <ele>366.1</ele>
        <time>2025-10-19T12:53:48Z</time>
      </trkpt>
      <trkpt lat="43.21244" lon="5.4739">
        <ele>366</ele>
        <time>2025-10-19T12:53:49Z</time>
      </trkpt>
      <trkpt lat="43.21243" lon="5.47391">
        <ele>365.9</ele>
        <time>2025-10-19T12:53:50Z</time>
      </trkpt>
      <trkpt lat="43.21243" lon="5.47392">
        <ele>365.9</ele>
        <time>2025-10-19T12:53:51Z</time>
      </trkpt>
      <trkpt lat="43.21243" lon="5.47393">
        <ele>366</ele>
        <time>2025-10-19T12:53:52Z</time>
      </trkpt>
      <trkpt lat="43.21243" lon="5.47393">
        <ele>366.1</ele>
        <time>2025-10-19T12:53:53Z</time>
      </trkpt>
      <trkpt lat="43.21243" lon="5.47394">
        <ele>366.2</ele>
        <time>2025-10-19T12:53:54Z</time>
      </trkpt>
      <trkpt lat="43.21243" lon="5.47394">
        <ele>366.3</ele>
        <time>2025-10-19T12:53:55Z</time>
      </trkpt>
      <trkpt lat="43.21242" lon="5.47395">
        <ele>366.3</ele>
        <time>2025-10-19T12:53:56Z</time>
      </trkpt>
      <trkpt lat="43.21242" lon="5.47395">
        <ele>366.3</ele>
        <time>2025-10-19T12:53:57Z</time>
      </trkpt>
      <trkpt lat="43.21242" lon="5.47395">
        <ele>366.3</ele>
        <time>2025-10-19T12:53:58Z</time>
      </trkpt>
      <trkpt lat="43.21242" lon="5.47395">
        <ele>366.3</ele>
        <time>2025-10-19T12:53:59Z</time>
      </trkpt>
      <trkpt lat="43.21242" lon="5.47395">
        <ele>366.3</ele>
        <time>2025-10-19T12:54:00Z</time>
      </trkpt>
      <trkpt lat="43.21242" lon="5.47395">
        <ele>366.4</ele>
        <time>2025-10-19T12:54:01Z</time>
      </trkpt>
      <trkpt lat="43.21242" lon="5.47396">
        <ele>366.5</ele>
        <time>2025-10-19T12:54:02Z</time>
      </trkpt>
      <trkpt lat="43.21241" lon="5.47397">
        <ele>366.7</ele>
        <time>2025-10-19T12:54:03Z</time>
      </trkpt>
      <trkpt lat="43.21241" lon="5.47397">
        <ele>366.9</ele>
        <time>2025-10-19T12:54:04Z</time>
      </trkpt>
      <trkpt lat="43.21241" lon="5.47397">
        <ele>367</ele>
        <time>2025-10-19T12:54:05Z</time>
      </trkpt>
      <trkpt lat="43.21241" lon="5.47396">
        <ele>367.1</ele>
        <time>2025-10-19T12:54:06Z</time>
      </trkpt>
      <trkpt lat="43.21241" lon="5.47396">
        <ele>367.2</ele>
        <time>2025-10-19T12:54:07Z</time>
      </trkpt>
      <trkpt lat="43.21241" lon="5.47397">
        <ele>367.2</ele>
        <time>2025-10-19T12:54:08Z</time>
      </trkpt>
      <trkpt lat="43.21241" lon="5.47397">
        <ele>367.4</ele>
        <time>2025-10-19T12:54:09Z</time>
      </trkpt>
      <trkpt lat="43.21241" lon="5.47397">
        <ele>367.5</ele>
        <time>2025-10-19T12:54:10Z</time>
      </trkpt>
      <trkpt lat="43.21241" lon="5.47397">
        <ele>367.5</ele>
        <time>2025-10-19T12:54:11Z</time>
      </trkpt>
      <trkpt lat="43.2124" lon="5.47398">
        <ele>367.7</ele>
        <time>2025-10-19T12:54:12Z</time>
      </trkpt>
      <trkpt lat="43.2124" lon="5.47399">
        <ele>367.8</ele>
        <time>2025-10-19T12:54:13Z</time>
      </trkpt>
      <trkpt lat="43.2124" lon="5.474">
        <ele>368.1</ele>
        <time>2025-10-19T12:54:14Z</time>
      </trkpt>
      <trkpt lat="43.2124" lon="5.474">
        <ele>368.3</ele>
        <time>2025-10-19T12:54:15Z</time>
      </trkpt>
      <trkpt lat="43.21239" lon="5.47401">
        <ele>368.5</ele>
        <time>2025-10-19T12:54:16Z</time>
      </trkpt>
      <trkpt lat="43.21239" lon="5.47402">
        <ele>368.8</ele>
        <time>2025-10-19T12:54:17Z</time>
      </trkpt>
      <trkpt lat="43.21239" lon="5.47402">
        <ele>369</ele>
        <time>2025-10-19T12:54:18Z</time>
      </trkpt>
      <trkpt lat="43.21238" lon="5.47402">
        <ele>369.3</ele>
        <time>2025-10-19T12:54:19Z</time>
      </trkpt>
      <trkpt lat="43.21237" lon="5.47402">
        <ele>369.4</ele>
        <time>2025-10-19T12:54:20Z</time>
      </trkpt>
      <trkpt lat="43.21236" lon="5.47402">
        <ele>369.5</ele>
        <time>2025-10-19T12:54:21Z</time>
      </trkpt>
      <trkpt lat="43.21236" lon="5.47403">
        <ele>369.7</ele>
        <time>2025-10-19T12:54:22Z</time>
      </trkpt>
      <trkpt lat="43.21236" lon="5.47404">
        <ele>369.8</ele>
        <time>2025-10-19T12:54:23Z</time>
      </trkpt>
      <trkpt lat="43.21236" lon="5.47406">
        <ele>369.8</ele>
        <time>2025-10-19T12:54:24Z</time>
      </trkpt>
      <trkpt lat="43.21236" lon="5.47407">
        <ele>369.9</ele>
        <time>2025-10-19T12:54:25Z</time>
      </trkpt>
      <trkpt lat="43.21236" lon="5.47408">
        <ele>369.9</ele>
        <time>2025-10-19T12:54:26Z</time>
      </trkpt>
      <trkpt lat="43.21235" lon="5.47409">
        <ele>369.8</ele>
        <time>2025-10-19T12:54:27Z</time>
      </trkpt>
      <trkpt lat="43.21235" lon="5.4741">
        <ele>369.9</ele>
        <time>2025-10-19T12:54:28Z</time>
      </trkpt>
      <trkpt lat="43.21235" lon="5.4741">
        <ele>369.9</ele>
        <time>2025-10-19T12:54:29Z</time>
      </trkpt>
      <trkpt lat="43.21235" lon="5.4741">
        <ele>369.9</ele>
        <time>2025-10-19T12:54:30Z</time>
      </trkpt>
      <trkpt lat="43.21235" lon="5.47411">
        <ele>369.9</ele>
        <time>2025-10-19T12:54:31Z</time>
      </trkpt>
      <trkpt lat="43.21235" lon="5.47411">
        <ele>369.9</ele>
        <time>2025-10-19T12:54:32Z</time>
      </trkpt>
      <trkpt lat="43.21235" lon="5.47412">
        <ele>369.9</ele>
        <time>2025-10-19T12:54:33Z</time>
      </trkpt>
      <trkpt lat="43.21235" lon="5.47412">
        <ele>369.8</ele>
        <time>2025-10-19T12:54:34Z</time>
      </trkpt>
      <trkpt lat="43.21235" lon="5.47413">
        <ele>369.6</ele>
        <time>2025-10-19T12:54:35Z</time>
      </trkpt>
      <trkpt lat="43.21235" lon="5.47413">
        <ele>369.3</ele>
        <time>2025-10-19T12:54:36Z</time>
      </trkpt>
      <trkpt lat="43.21235" lon="5.47413">
        <ele>369.3</ele>
        <time>2025-10-19T12:54:37Z</time>
      </trkpt>
      <trkpt lat="43.21235" lon="5.47413">
        <ele>369.2</ele>
        <time>2025-10-19T12:54:38Z</time>
      </trkpt>
      <trkpt lat="43.21235" lon="5.47413">
        <ele>369.1</ele>
        <time>2025-10-19T12:54:39Z</time>
      </trkpt>
      <trkpt lat="43.21235" lon="5.47414">
        <ele>369</ele>
        <time>2025-10-19T12:54:40Z</time>
      </trkpt>
      <trkpt lat="43.21235" lon="5.47415">
        <ele>368.8</ele>
        <time>2025-10-19T12:54:41Z</time>
      </trkpt>
      <trkpt lat="43.21235" lon="5.47415">
        <ele>368.7</ele>
        <time>2025-10-19T12:54:42Z</time>
      </trkpt>
      <trkpt lat="43.21235" lon="5.47416">
        <ele>368.6</ele>
        <time>2025-10-19T12:54:43Z</time>
      </trkpt>
      <trkpt lat="43.21235" lon="5.47416">
        <ele>368.3</ele>
        <time>2025-10-19T12:54:44Z</time>
      </trkpt>
      <trkpt lat="43.21235" lon="5.47418">
        <ele>368.2</ele>
        <time>2025-10-19T12:54:45Z</time>
      </trkpt>
      <trkpt lat="43.21235" lon="5.47419">
        <ele>368</ele>
        <time>2025-10-19T12:54:46Z</time>
      </trkpt>
      <trkpt lat="43.21235" lon="5.4742">
        <ele>367.9</ele>
        <time>2025-10-19T12:54:47Z</time>
      </trkpt>
      <trkpt lat="43.21235" lon="5.47421">
        <ele>367.7</ele>
        <time>2025-10-19T12:54:48Z</time>
      </trkpt>
      <trkpt lat="43.21234" lon="5.47423">
        <ele>367.6</ele>
        <time>2025-10-19T12:54:49Z</time>
      </trkpt>
      <trkpt lat="43.21234" lon="5.47424">
        <ele>367.6</ele>
        <time>2025-10-19T12:54:50Z</time>
      </trkpt>
      <trkpt lat="43.21234" lon="5.47425">
        <ele>367.5</ele>
        <time>2025-10-19T12:54:51Z</time>
      </trkpt>
      <trkpt lat="43.21233" lon="5.47426">
        <ele>367.4</ele>
        <time>2025-10-19T12:54:52Z</time>
      </trkpt>
      <trkpt lat="43.21233" lon="5.47427">
        <ele>367.4</ele>
        <time>2025-10-19T12:54:53Z</time>
      </trkpt>
      <trkpt lat="43.21233" lon="5.47428">
        <ele>367.5</ele>
        <time>2025-10-19T12:54:54Z</time>
      </trkpt>
      <trkpt lat="43.21232" lon="5.47429">
        <ele>367.6</ele>
        <time>2025-10-19T12:54:55Z</time>
      </trkpt>
      <trkpt lat="43.21232" lon="5.4743">
        <ele>367.6</ele>
        <time>2025-10-19T12:54:56Z</time>
      </trkpt>
      <trkpt lat="43.21232" lon="5.47431">
        <ele>367.7</ele>
        <time>2025-10-19T12:54:57Z</time>
      </trkpt>
      <trkpt lat="43.21232" lon="5.47431">
        <ele>367.7</ele>
        <time>2025-10-19T12:54:58Z</time>
      </trkpt>
      <trkpt lat="43.21232" lon="5.47432">
        <ele>367.8</ele>
        <time>2025-10-19T12:54:59Z</time>
      </trkpt>
      <trkpt lat="43.21232" lon="5.47432">
        <ele>367.8</ele>
        <time>2025-10-19T12:55:00Z</time>
      </trkpt>
      <trkpt lat="43.21232" lon="5.47433">
        <ele>367.9</ele>
        <time>2025-10-19T12:55:01Z</time>
      </trkpt>
      <trkpt lat="43.21231" lon="5.47434">
        <ele>368</ele>
        <time>2025-10-19T12:55:02Z</time>
      </trkpt>
      <trkpt lat="43.21231" lon="5.47435">
        <ele>368.1</ele>
        <time>2025-10-19T12:55:03Z</time>
      </trkpt>
      <trkpt lat="43.21231" lon="5.47436">
        <ele>368.1</ele>
        <time>2025-10-19T12:55:04Z</time>
      </trkpt>
      <trkpt lat="43.21231" lon="5.47436">
        <ele>368.3</ele>
        <time>2025-10-19T12:55:05Z</time>
      </trkpt>
      <trkpt lat="43.21231" lon="5.47437">
        <ele>368.5</ele>
        <time>2025-10-19T12:55:06Z</time>
      </trkpt>
      <trkpt lat="43.2123" lon="5.47438">
        <ele>368.7</ele>
        <time>2025-10-19T12:55:07Z</time>
      </trkpt>
      <trkpt lat="43.2123" lon="5.47439">
        <ele>369</ele>
        <time>2025-10-19T12:55:08Z</time>
      </trkpt>
      <trkpt lat="43.21229" lon="5.4744">
        <ele>369.1</ele>
        <time>2025-10-19T12:55:09Z</time>
      </trkpt>
      <trkpt lat="43.21229" lon="5.47441">
        <ele>369.2</ele>
        <time>2025-10-19T12:55:10Z</time>
      </trkpt>
      <trkpt lat="43.21229" lon="5.47441">
        <ele>369.4</ele>
        <time>2025-10-19T12:55:11Z</time>
      </trkpt>
      <trkpt lat="43.21228" lon="5.47442">
        <ele>369.5</ele>
        <time>2025-10-19T12:55:12Z</time>
      </trkpt>
      <trkpt lat="43.21227" lon="5.47442">
        <ele>369.6</ele>
        <time>2025-10-19T12:55:13Z</time>
      </trkpt>
      <trkpt lat="43.21227" lon="5.47442">
        <ele>369.7</ele>
        <time>2025-10-19T12:55:14Z</time>
      </trkpt>
      <trkpt lat="43.21226" lon="5.47443">
        <ele>369.8</ele>
        <time>2025-10-19T12:55:15Z</time>
      </trkpt>
      <trkpt lat="43.21226" lon="5.47443">
        <ele>370</ele>
        <time>2025-10-19T12:55:16Z</time>
      </trkpt>
      <trkpt lat="43.21225" lon="5.47444">
        <ele>370.1</ele>
        <time>2025-10-19T12:55:17Z</time>
      </trkpt>
      <trkpt lat="43.21225" lon="5.47445">
        <ele>370.2</ele>
        <time>2025-10-19T12:55:18Z</time>
      </trkpt>
      <trkpt lat="43.21225" lon="5.47445">
        <ele>370.3</ele>
        <time>2025-10-19T12:55:19Z</time>
      </trkpt>
      <trkpt lat="43.21225" lon="5.47446">
        <ele>370.4</ele>
        <time>2025-10-19T12:55:20Z</time>
      </trkpt>
      <trkpt lat="43.21224" lon="5.47446">
        <ele>370.5</ele>
        <time>2025-10-19T12:55:21Z</time>
      </trkpt>
      <trkpt lat="43.21224" lon="5.47447">
        <ele>370.5</ele>
        <time>2025-10-19T12:55:22Z</time>
      </trkpt>
      <trkpt lat="43.21223" lon="5.47448">
        <ele>370.5</ele>
        <time>2025-10-19T12:55:23Z</time>
      </trkpt>
      <trkpt lat="43.21223" lon="5.47449">
        <ele>370.6</ele>
        <time>2025-10-19T12:55:24Z</time>
      </trkpt>
      <trkpt lat="43.21223" lon="5.47451">
        <ele>370.7</ele>
        <time>2025-10-19T12:55:25Z</time>
      </trkpt>
      <trkpt lat="43.21223" lon="5.47452">
        <ele>370.7</ele>
        <time>2025-10-19T12:55:26Z</time>
      </trkpt>
      <trkpt lat="43.21223" lon="5.47453">
        <ele>370.8</ele>
        <time>2025-10-19T12:55:27Z</time>
      </trkpt>
      <trkpt lat="43.21223" lon="5.47453">
        <ele>370.9</ele>
        <time>2025-10-19T12:55:28Z</time>
      </trkpt>
      <trkpt lat="43.21223" lon="5.47454">
        <ele>370.9</ele>
        <time>2025-10-19T12:55:29Z</time>
      </trkpt>
      <trkpt lat="43.21223" lon="5.47455">
        <ele>371</ele>
        <time>2025-10-19T12:55:30Z</time>
      </trkpt>
      <trkpt lat="43.21223" lon="5.47455">
        <ele>371</ele>
        <time>2025-10-19T12:55:31Z</time>
      </trkpt>
      <trkpt lat="43.21223" lon="5.47456">
        <ele>371</ele>
        <time>2025-10-19T12:55:32Z</time>
      </trkpt>
      <trkpt lat="43.21223" lon="5.47457">
        <ele>371.1</ele>
        <time>2025-10-19T12:55:33Z</time>
      </trkpt>
      <trkpt lat="43.21223" lon="5.47458">
        <ele>371.1</ele>
        <time>2025-10-19T12:55:34Z</time>
      </trkpt>
      <trkpt lat="43.21223" lon="5.47459">
        <ele>371.1</ele>
        <time>2025-10-19T12:55:35Z</time>
      </trkpt>
      <trkpt lat="43.21223" lon="5.47459">
        <ele>371.1</ele>
        <time>2025-10-19T12:55:36Z</time>
      </trkpt>
      <trkpt lat="43.21223" lon="5.4746">
        <ele>371.1</ele>
        <time>2025-10-19T12:55:37Z</time>
      </trkpt>
      <trkpt lat="43.21224" lon="5.47461">
        <ele>371.2</ele>
        <time>2025-10-19T12:55:38Z</time>
      </trkpt>
      <trkpt lat="43.21224" lon="5.47461">
        <ele>371.2</ele>
        <time>2025-10-19T12:55:39Z</time>
      </trkpt>
      <trkpt lat="43.21224" lon="5.47461">
        <ele>371.1</ele>
        <time>2025-10-19T12:55:40Z</time>
      </trkpt>
      <trkpt lat="43.21224" lon="5.47461">
        <ele>371.1</ele>
        <time>2025-10-19T12:55:41Z</time>
      </trkpt>
      <trkpt lat="43.21224" lon="5.47462">
        <ele>371</ele>
        <time>2025-10-19T12:55:42Z</time>
      </trkpt>
      <trkpt lat="43.21224" lon="5.47462">
        <ele>371</ele>
        <time>2025-10-19T12:55:43Z</time>
      </trkpt>
      <trkpt lat="43.21224" lon="5.47462">
        <ele>370.9</ele>
        <time>2025-10-19T12:55:44Z</time>
      </trkpt>
      <trkpt lat="43.21224" lon="5.47462">
        <ele>370.9</ele>
        <time>2025-10-19T12:55:45Z</time>
      </trkpt>
      <trkpt lat="43.21224" lon="5.47462">
        <ele>370.9</ele>
        <time>2025-10-19T12:55:46Z</time>
      </trkpt>
      <trkpt lat="43.21224" lon="5.47462">
        <ele>371</ele>
        <time>2025-10-19T12:55:47Z</time>
      </trkpt>
      <trkpt lat="43.21224" lon="5.47462">
        <ele>371</ele>
        <time>2025-10-19T12:55:48Z</time>
      </trkpt>
      <trkpt lat="43.21224" lon="5.47462">
        <ele>371</ele>
        <time>2025-10-19T12:55:49Z</time>
      </trkpt>
      <trkpt lat="43.21225" lon="5.47462">
        <ele>370.9</ele>
        <time>2025-10-19T12:55:50Z</time>
      </trkpt>
      <trkpt lat="43.21224" lon="5.47462">
        <ele>370.8</ele>
        <time>2025-10-19T12:55:51Z</time>
      </trkpt>
      <trkpt lat="43.21225" lon="5.47462">
        <ele>370.8</ele>
        <time>2025-10-19T12:55:52Z</time>
      </trkpt>
      <trkpt lat="43.21225" lon="5.47462">
        <ele>370.8</ele>
        <time>2025-10-19T12:55:53Z</time>
      </trkpt>
      <trkpt lat="43.21225" lon="5.47462">
        <ele>370.8</ele>
        <time>2025-10-19T12:55:54Z</time>
      </trkpt>
      <trkpt lat="43.21225" lon="5.47462">
        <ele>370.8</ele>
        <time>2025-10-19T12:55:55Z</time>
      </trkpt>
      <trkpt lat="43.21225" lon="5.47462">
        <ele>370.8</ele>
        <time>2025-10-19T12:55:56Z</time>
      </trkpt>
      <trkpt lat="43.21225" lon="5.47462">
        <ele>370.9</ele>
        <time>2025-10-19T12:55:57Z</time>
      </trkpt>
      <trkpt lat="43.21225" lon="5.47462">
        <ele>370.9</ele>
        <time>2025-10-19T12:55:58Z</time>
      </trkpt>
      <trkpt lat="43.21225" lon="5.47461">
        <ele>371</ele>
        <time>2025-10-19T12:55:59Z</time>
      </trkpt>
      <trkpt lat="43.21225" lon="5.47461">
        <ele>371</ele>
        <time>2025-10-19T12:56:00Z</time>
      </trkpt>
      <trkpt lat="43.21225" lon="5.47462">
        <ele>371.1</ele>
        <time>2025-10-19T12:56:01Z</time>
      </trkpt>
      <trkpt lat="43.21226" lon="5.47462">
        <ele>371.1</ele>
        <time>2025-10-19T12:56:02Z</time>
      </trkpt>
      <trkpt lat="43.21226" lon="5.47462">
        <ele>371.2</ele>
        <time>2025-10-19T12:56:03Z</time>
      </trkpt>
      <trkpt lat="43.21226" lon="5.47462">
        <ele>371.2</ele>
        <time>2025-10-19T12:56:04Z</time>
      </trkpt>
      <trkpt lat="43.21227" lon="5.47462">
        <ele>371.2</ele>
        <time>2025-10-19T12:56:05Z</time>
      </trkpt>
      <trkpt lat="43.21227" lon="5.47462">
        <ele>371.2</ele>
        <time>2025-10-19T12:56:06Z</time>
      </trkpt>
      <trkpt lat="43.21227" lon="5.47463">
        <ele>371.2</ele>
        <time>2025-10-19T12:56:07Z</time>
      </trkpt>
      <trkpt lat="43.21227" lon="5.47463">
        <ele>371.2</ele>
        <time>2025-10-19T12:56:08Z</time>
      </trkpt>
      <trkpt lat="43.21228" lon="5.47462">
        <ele>371.2</ele>
        <time>2025-10-19T12:56:09Z</time>
      </trkpt>
      <trkpt lat="43.21228" lon="5.47463">
        <ele>371.3</ele>
        <time>2025-10-19T12:56:10Z</time>
      </trkpt>
      <trkpt lat="43.21228" lon="5.47463">
        <ele>371.4</ele>
        <time>2025-10-19T12:56:11Z</time>
      </trkpt>
      <trkpt lat="43.21228" lon="5.47463">
        <ele>371.6</ele>
        <time>2025-10-19T12:56:12Z</time>
      </trkpt>
      <trkpt lat="43.21228" lon="5.47463">
        <ele>371.7</ele>
        <time>2025-10-19T12:56:13Z</time>
      </trkpt>
      <trkpt lat="43.21229" lon="5.47463">
        <ele>371.7</ele>
        <time>2025-10-19T12:56:14Z</time>
      </trkpt>
      <trkpt lat="43.2123" lon="5.47463">
        <ele>371.8</ele>
        <time>2025-10-19T12:56:15Z</time>
      </trkpt>
      <trkpt lat="43.2123" lon="5.47463">
        <ele>371.9</ele>
        <time>2025-10-19T12:56:16Z</time>
      </trkpt>
      <trkpt lat="43.21231" lon="5.47463">
        <ele>372.1</ele>
        <time>2025-10-19T12:56:17Z</time>
      </trkpt>
      <trkpt lat="43.21231" lon="5.47463">
        <ele>372.2</ele>
        <time>2025-10-19T12:56:18Z</time>
      </trkpt>
      <trkpt lat="43.21232" lon="5.47463">
        <ele>372.2</ele>
        <time>2025-10-19T12:56:19Z</time>
      </trkpt>
      <trkpt lat="43.21233" lon="5.47463">
        <ele>372.3</ele>
        <time>2025-10-19T12:56:20Z</time>
      </trkpt>
      <trkpt lat="43.21233" lon="5.47463">
        <ele>372.7</ele>
        <time>2025-10-19T12:56:21Z</time>
      </trkpt>
      <trkpt lat="43.21234" lon="5.47463">
        <ele>372.9</ele>
        <time>2025-10-19T12:56:22Z</time>
      </trkpt>
      <trkpt lat="43.21235" lon="5.47463">
        <ele>373</ele>
        <time>2025-10-19T12:56:23Z</time>
      </trkpt>
      <trkpt lat="43.21235" lon="5.47463">
        <ele>373.2</ele>
        <time>2025-10-19T12:56:24Z</time>
      </trkpt>
      <trkpt lat="43.21235" lon="5.47463">
        <ele>373.2</ele>
        <time>2025-10-19T12:56:25Z</time>
      </trkpt>
      <trkpt lat="43.21235" lon="5.47463">
        <ele>373.3</ele>
        <time>2025-10-19T12:56:26Z</time>
      </trkpt>
      <trkpt lat="43.21235" lon="5.47463">
        <ele>373.2</ele>
        <time>2025-10-19T12:56:27Z</time>
      </trkpt>
      <trkpt lat="43.21235" lon="5.47463">
        <ele>373.3</ele>
        <time>2025-10-19T12:56:28Z</time>
      </trkpt>
      <trkpt lat="43.21235" lon="5.47464">
        <ele>373.3</ele>
        <time>2025-10-19T12:56:29Z</time>
      </trkpt>
      <trkpt lat="43.21235" lon="5.47464">
        <ele>373.3</ele>
        <time>2025-10-19T12:56:30Z</time>
      </trkpt>
      <trkpt lat="43.21235" lon="5.47464">
        <ele>373.3</ele>
        <time>2025-10-19T12:56:31Z</time>
      </trkpt>
      <trkpt lat="43.21235" lon="5.47464">
        <ele>373.3</ele>
        <time>2025-10-19T12:56:32Z</time>
      </trkpt>
      <trkpt lat="43.21235" lon="5.47464">
        <ele>373.4</ele>
        <time>2025-10-19T12:56:33Z</time>
      </trkpt>
      <trkpt lat="43.21235" lon="5.47464">
        <ele>373.5</ele>
        <time>2025-10-19T12:56:34Z</time>
      </trkpt>
      <trkpt lat="43.21236" lon="5.47464">
        <ele>373.6</ele>
        <time>2025-10-19T12:56:35Z</time>
      </trkpt>
      <trkpt lat="43.21236" lon="5.47464">
        <ele>373.8</ele>
        <time>2025-10-19T12:56:36Z</time>
      </trkpt>
      <trkpt lat="43.21237" lon="5.47464">
        <ele>374</ele>
        <time>2025-10-19T12:56:37Z</time>
      </trkpt>
      <trkpt lat="43.21238" lon="5.47464">
        <ele>374.1</ele>
        <time>2025-10-19T12:56:38Z</time>
      </trkpt>
      <trkpt lat="43.21238" lon="5.47463">
        <ele>374.2</ele>
        <time>2025-10-19T12:56:39Z</time>
      </trkpt>
      <trkpt lat="43.21239" lon="5.47464">
        <ele>374.3</ele>
        <time>2025-10-19T12:56:40Z</time>
      </trkpt>
      <trkpt lat="43.21239" lon="5.47463">
        <ele>374.4</ele>
        <time>2025-10-19T12:56:41Z</time>
      </trkpt>
      <trkpt lat="43.2124" lon="5.47463">
        <ele>374.6</ele>
        <time>2025-10-19T12:56:42Z</time>
      </trkpt>
      <trkpt lat="43.21241" lon="5.47463">
        <ele>374.7</ele>
        <time>2025-10-19T12:56:43Z</time>
      </trkpt>
      <trkpt lat="43.21241" lon="5.47462">
        <ele>374.8</ele>
        <time>2025-10-19T12:56:44Z</time>
      </trkpt>
      <trkpt lat="43.21242" lon="5.47461">
        <ele>375</ele>
        <time>2025-10-19T12:56:45Z</time>
      </trkpt>
      <trkpt lat="43.21242" lon="5.47461">
        <ele>375.2</ele>
        <time>2025-10-19T12:56:46Z</time>
      </trkpt>
      <trkpt lat="43.21242" lon="5.47461">
        <ele>375.3</ele>
        <time>2025-10-19T12:56:47Z</time>
      </trkpt>
      <trkpt lat="43.21243" lon="5.47461">
        <ele>375.6</ele>
        <time>2025-10-19T12:56:48Z</time>
      </trkpt>
      <trkpt lat="43.21244" lon="5.47461">
        <ele>375.8</ele>
        <time>2025-10-19T12:56:49Z</time>
      </trkpt>
      <trkpt lat="43.21244" lon="5.47461">
        <ele>376</ele>
        <time>2025-10-19T12:56:50Z</time>
      </trkpt>
      <trkpt lat="43.21245" lon="5.47461">
        <ele>376.2</ele>
        <time>2025-10-19T12:56:51Z</time>
      </trkpt>
      <trkpt lat="43.21245" lon="5.47461">
        <ele>376.4</ele>
        <time>2025-10-19T12:56:52Z</time>
      </trkpt>
      <trkpt lat="43.21246" lon="5.47461">
        <ele>376.5</ele>
        <time>2025-10-19T12:56:53Z</time>
      </trkpt>
      <trkpt lat="43.21247" lon="5.47462">
        <ele>376.7</ele>
        <time>2025-10-19T12:56:54Z</time>
      </trkpt>
      <trkpt lat="43.21248" lon="5.47462">
        <ele>376.8</ele>
        <time>2025-10-19T12:56:55Z</time>
      </trkpt>
      <trkpt lat="43.21248" lon="5.47462">
        <ele>376.9</ele>
        <time>2025-10-19T12:56:56Z</time>
      </trkpt>
      <trkpt lat="43.21249" lon="5.47461">
        <ele>377</ele>
        <time>2025-10-19T12:56:57Z</time>
      </trkpt>
      <trkpt lat="43.21249" lon="5.47461">
        <ele>377.1</ele>
        <time>2025-10-19T12:56:58Z</time>
      </trkpt>
      <trkpt lat="43.2125" lon="5.4746">
        <ele>377.4</ele>
        <time>2025-10-19T12:56:59Z</time>
      </trkpt>
      <trkpt lat="43.2125" lon="5.4746">
        <ele>377.6</ele>
        <time>2025-10-19T12:57:00Z</time>
      </trkpt>
      <trkpt lat="43.21251" lon="5.47459">
        <ele>377.7</ele>
        <time>2025-10-19T12:57:01Z</time>
      </trkpt>
      <trkpt lat="43.21251" lon="5.47459">
        <ele>377.8</ele>
        <time>2025-10-19T12:57:02Z</time>
      </trkpt>
      <trkpt lat="43.21252" lon="5.47459">
        <ele>377.9</ele>
        <time>2025-10-19T12:57:03Z</time>
      </trkpt>
      <trkpt lat="43.21252" lon="5.47458">
        <ele>378</ele>
        <time>2025-10-19T12:57:04Z</time>
      </trkpt>
      <trkpt lat="43.21253" lon="5.47458">
        <ele>378.3</ele>
        <time>2025-10-19T12:57:05Z</time>
      </trkpt>
      <trkpt lat="43.21254" lon="5.47457">
        <ele>378.5</ele>
        <time>2025-10-19T12:57:06Z</time>
      </trkpt>
      <trkpt lat="43.21254" lon="5.47457">
        <ele>378.7</ele>
        <time>2025-10-19T12:57:07Z</time>
      </trkpt>
      <trkpt lat="43.21255" lon="5.47456">
        <ele>378.8</ele>
        <time>2025-10-19T12:57:08Z</time>
      </trkpt>
      <trkpt lat="43.21255" lon="5.47456">
        <ele>379</ele>
        <time>2025-10-19T12:57:09Z</time>
      </trkpt>
      <trkpt lat="43.21255" lon="5.47455">
        <ele>379.1</ele>
        <time>2025-10-19T12:57:10Z</time>
      </trkpt>
      <trkpt lat="43.21255" lon="5.47455">
        <ele>379.3</ele>
        <time>2025-10-19T12:57:11Z</time>
      </trkpt>
      <trkpt lat="43.21256" lon="5.47454">
        <ele>379.4</ele>
        <time>2025-10-19T12:57:12Z</time>
      </trkpt>
      <trkpt lat="43.21256" lon="5.47454">
        <ele>379.5</ele>
        <time>2025-10-19T12:57:13Z</time>
      </trkpt>
      <trkpt lat="43.21256" lon="5.47454">
        <ele>379.6</ele>
        <time>2025-10-19T12:57:14Z</time>
      </trkpt>
      <trkpt lat="43.21257" lon="5.47453">
        <ele>379.7</ele>
        <time>2025-10-19T12:57:15Z</time>
      </trkpt>
      <trkpt lat="43.21257" lon="5.47453">
        <ele>379.8</ele>
        <time>2025-10-19T12:57:16Z</time>
      </trkpt>
      <trkpt lat="43.21258" lon="5.47453">
        <ele>380</ele>
        <time>2025-10-19T12:57:17Z</time>
      </trkpt>
      <trkpt lat="43.21258" lon="5.47453">
        <ele>380.2</ele>
        <time>2025-10-19T12:57:18Z</time>
      </trkpt>
      <trkpt lat="43.21259" lon="5.47452">
        <ele>380.3</ele>
        <time>2025-10-19T12:57:19Z</time>
      </trkpt>
      <trkpt lat="43.21259" lon="5.47452">
        <ele>380.5</ele>
        <time>2025-10-19T12:57:20Z</time>
      </trkpt>
      <trkpt lat="43.21259" lon="5.47452">
        <ele>380.7</ele>
        <time>2025-10-19T12:57:21Z</time>
      </trkpt>
      <trkpt lat="43.2126" lon="5.47451">
        <ele>380.9</ele>
        <time>2025-10-19T12:57:22Z</time>
      </trkpt>
      <trkpt lat="43.2126" lon="5.47451">
        <ele>381.1</ele>
        <time>2025-10-19T12:57:23Z</time>
      </trkpt>
      <trkpt lat="43.2126" lon="5.47451">
        <ele>381.4</ele>
        <time>2025-10-19T12:57:24Z</time>
      </trkpt>
      <trkpt lat="43.21261" lon="5.47451">
        <ele>381.6</ele>
        <time>2025-10-19T12:57:25Z</time>
      </trkpt>
      <trkpt lat="43.21261" lon="5.4745">
        <ele>381.8</ele>
        <time>2025-10-19T12:57:26Z</time>
      </trkpt>
      <trkpt lat="43.21261" lon="5.4745">
        <ele>382</ele>
        <time>2025-10-19T12:57:27Z</time>
      </trkpt>
      <trkpt lat="43.21262" lon="5.47449">
        <ele>382.3</ele>
        <time>2025-10-19T12:57:28Z</time>
      </trkpt>
      <trkpt lat="43.21263" lon="5.47449">
        <ele>382.5</ele>
        <time>2025-10-19T12:57:29Z</time>
      </trkpt>
      <trkpt lat="43.21263" lon="5.47448">
        <ele>382.7</ele>
        <time>2025-10-19T12:57:30Z</time>
      </trkpt>
      <trkpt lat="43.21264" lon="5.47447">
        <ele>382.8</ele>
        <time>2025-10-19T12:57:31Z</time>
      </trkpt>
      <trkpt lat="43.21264" lon="5.47447">
        <ele>382.9</ele>
        <time>2025-10-19T12:57:32Z</time>
      </trkpt>
      <trkpt lat="43.21265" lon="5.47447">
        <ele>383.1</ele>
        <time>2025-10-19T12:57:33Z</time>
      </trkpt>
      <trkpt lat="43.21266" lon="5.47446">
        <ele>383.2</ele>
        <time>2025-10-19T12:57:34Z</time>
      </trkpt>
      <trkpt lat="43.21266" lon="5.47445">
        <ele>383.4</ele>
        <time>2025-10-19T12:57:35Z</time>
      </trkpt>
      <trkpt lat="43.21266" lon="5.47444">
        <ele>383.6</ele>
        <time>2025-10-19T12:57:36Z</time>
      </trkpt>
      <trkpt lat="43.21266" lon="5.47443">
        <ele>383.7</ele>
        <time>2025-10-19T12:57:37Z</time>
      </trkpt>
      <trkpt lat="43.21267" lon="5.47442">
        <ele>383.8</ele>
        <time>2025-10-19T12:57:38Z</time>
      </trkpt>
      <trkpt lat="43.21267" lon="5.47441">
        <ele>384</ele>
        <time>2025-10-19T12:57:39Z</time>
      </trkpt>
      <trkpt lat="43.21267" lon="5.47441">
        <ele>384.2</ele>
        <time>2025-10-19T12:57:40Z</time>
      </trkpt>
      <trkpt lat="43.21267" lon="5.47441">
        <ele>384.3</ele>
        <time>2025-10-19T12:57:41Z</time>
      </trkpt>
      <trkpt lat="43.21267" lon="5.47441">
        <ele>384.4</ele>
        <time>2025-10-19T12:57:42Z</time>
      </trkpt>
      <trkpt lat="43.21267" lon="5.47441">
        <ele>384.5</ele>
        <time>2025-10-19T12:57:43Z</time>
      </trkpt>
      <trkpt lat="43.21267" lon="5.47441">
        <ele>384.5</ele>
        <time>2025-10-19T12:57:44Z</time>
      </trkpt>
      <trkpt lat="43.21267" lon="5.47441">
        <ele>384.5</ele>
        <time>2025-10-19T12:57:45Z</time>
      </trkpt>
      <trkpt lat="43.21267" lon="5.47441">
        <ele>384.5</ele>
        <time>2025-10-19T12:57:46Z</time>
      </trkpt>
      <trkpt lat="43.21267" lon="5.47441">
        <ele>384.5</ele>
        <time>2025-10-19T12:57:47Z</time>
      </trkpt>
      <trkpt lat="43.21267" lon="5.4744">
        <ele>384.6</ele>
        <time>2025-10-19T12:57:48Z</time>
      </trkpt>
      <trkpt lat="43.21268" lon="5.4744">
        <ele>384.6</ele>
        <time>2025-10-19T12:57:49Z</time>
      </trkpt>
      <trkpt lat="43.21268" lon="5.47439">
        <ele>384.7</ele>
        <time>2025-10-19T12:57:50Z</time>
      </trkpt>
      <trkpt lat="43.21269" lon="5.47438">
        <ele>384.8</ele>
        <time>2025-10-19T12:57:51Z</time>
      </trkpt>
      <trkpt lat="43.21269" lon="5.47437">
        <ele>384.8</ele>
        <time>2025-10-19T12:57:52Z</time>
      </trkpt>
      <trkpt lat="43.21269" lon="5.47437">
        <ele>384.9</ele>
        <time>2025-10-19T12:57:53Z</time>
      </trkpt>
      <trkpt lat="43.2127" lon="5.47436">
        <ele>385</ele>
        <time>2025-10-19T12:57:54Z</time>
      </trkpt>
      <trkpt lat="43.2127" lon="5.47436">
        <ele>385.1</ele>
        <time>2025-10-19T12:57:55Z</time>
      </trkpt>
      <trkpt lat="43.21271" lon="5.47435">
        <ele>385.1</ele>
        <time>2025-10-19T12:57:56Z</time>
      </trkpt>
      <trkpt lat="43.21271" lon="5.47434">
        <ele>385.2</ele>
        <time>2025-10-19T12:57:57Z</time>
      </trkpt>
      <trkpt lat="43.21272" lon="5.47433">
        <ele>385.3</ele>
        <time>2025-10-19T12:57:58Z</time>
      </trkpt>
      <trkpt lat="43.21272" lon="5.47433">
        <ele>385.4</ele>
        <time>2025-10-19T12:57:59Z</time>
      </trkpt>
      <trkpt lat="43.21273" lon="5.47432">
        <ele>385.4</ele>
        <time>2025-10-19T12:58:00Z</time>
      </trkpt>
      <trkpt lat="43.21273" lon="5.47432">
        <ele>385.5</ele>
        <time>2025-10-19T12:58:01Z</time>
      </trkpt>
      <trkpt lat="43.21274" lon="5.47431">
        <ele>385.7</ele>
        <time>2025-10-19T12:58:02Z</time>
      </trkpt>
      <trkpt lat="43.21274" lon="5.47431">
        <ele>385.9</ele>
        <time>2025-10-19T12:58:03Z</time>
      </trkpt>
      <trkpt lat="43.21275" lon="5.47431">
        <ele>386</ele>
        <time>2025-10-19T12:58:04Z</time>
      </trkpt>
      <trkpt lat="43.21275" lon="5.4743">
        <ele>386.2</ele>
        <time>2025-10-19T12:58:05Z</time>
      </trkpt>
      <trkpt lat="43.21275" lon="5.4743">
        <ele>386.4</ele>
        <time>2025-10-19T12:58:06Z</time>
      </trkpt>
      <trkpt lat="43.21275" lon="5.4743">
        <ele>386.5</ele>
        <time>2025-10-19T12:58:07Z</time>
      </trkpt>
      <trkpt lat="43.21276" lon="5.47429">
        <ele>386.7</ele>
        <time>2025-10-19T12:58:08Z</time>
      </trkpt>
      <trkpt lat="43.21276" lon="5.47428">
        <ele>386.8</ele>
        <time>2025-10-19T12:58:09Z</time>
      </trkpt>
      <trkpt lat="43.21276" lon="5.47428">
        <ele>386.9</ele>
        <time>2025-10-19T12:58:10Z</time>
      </trkpt>
      <trkpt lat="43.21276" lon="5.47427">
        <ele>387</ele>
        <time>2025-10-19T12:58:11Z</time>
      </trkpt>
      <trkpt lat="43.21276" lon="5.47425">
        <ele>387</ele>
        <time>2025-10-19T12:58:12Z</time>
      </trkpt>
      <trkpt lat="43.21276" lon="5.47424">
        <ele>387</ele>
        <time>2025-10-19T12:58:13Z</time>
      </trkpt>
      <trkpt lat="43.21276" lon="5.47423">
        <ele>387</ele>
        <time>2025-10-19T12:58:14Z</time>
      </trkpt>
      <trkpt lat="43.21275" lon="5.47422">
        <ele>387</ele>
        <time>2025-10-19T12:58:15Z</time>
      </trkpt>
      <trkpt lat="43.21275" lon="5.47421">
        <ele>387</ele>
        <time>2025-10-19T12:58:16Z</time>
      </trkpt>
      <trkpt lat="43.21275" lon="5.4742">
        <ele>387</ele>
        <time>2025-10-19T12:58:17Z</time>
      </trkpt>
      <trkpt lat="43.21274" lon="5.47419">
        <ele>387</ele>
        <time>2025-10-19T12:58:18Z</time>
      </trkpt>
      <trkpt lat="43.21274" lon="5.47418">
        <ele>386.9</ele>
        <time>2025-10-19T12:58:19Z</time>
      </trkpt>
      <trkpt lat="43.21274" lon="5.47417">
        <ele>387</ele>
        <time>2025-10-19T12:58:20Z</time>
      </trkpt>
      <trkpt lat="43.21275" lon="5.47416">
        <ele>387</ele>
        <time>2025-10-19T12:58:21Z</time>
      </trkpt>
      <trkpt lat="43.21275" lon="5.47415">
        <ele>387</ele>
        <time>2025-10-19T12:58:22Z</time>
      </trkpt>
      <trkpt lat="43.21275" lon="5.47413">
        <ele>387</ele>
        <time>2025-10-19T12:58:23Z</time>
      </trkpt>
      <trkpt lat="43.21275" lon="5.47412">
        <ele>387.2</ele>
        <time>2025-10-19T12:58:24Z</time>
      </trkpt>
      <trkpt lat="43.21276" lon="5.47411">
        <ele>387.3</ele>
        <time>2025-10-19T12:58:25Z</time>
      </trkpt>
      <trkpt lat="43.21276" lon="5.4741">
        <ele>387.3</ele>
        <time>2025-10-19T12:58:26Z</time>
      </trkpt>
      <trkpt lat="43.21276" lon="5.4741">
        <ele>387.4</ele>
        <time>2025-10-19T12:58:27Z</time>
      </trkpt>
      <trkpt lat="43.21276" lon="5.47409">
        <ele>387.3</ele>
        <time>2025-10-19T12:58:28Z</time>
      </trkpt>
      <trkpt lat="43.21276" lon="5.47408">
        <ele>387.4</ele>
        <time>2025-10-19T12:58:29Z</time>
      </trkpt>
      <trkpt lat="43.21276" lon="5.47408">
        <ele>387.4</ele>
        <time>2025-10-19T12:58:30Z</time>
      </trkpt>
      <trkpt lat="43.21276" lon="5.47407">
        <ele>387.5</ele>
        <time>2025-10-19T12:58:31Z</time>
      </trkpt>
      <trkpt lat="43.21276" lon="5.47406">
        <ele>387.8</ele>
        <time>2025-10-19T12:58:32Z</time>
      </trkpt>
      <trkpt lat="43.21277" lon="5.47405">
        <ele>387.9</ele>
        <time>2025-10-19T12:58:33Z</time>
      </trkpt>
      <trkpt lat="43.21277" lon="5.47405">
        <ele>388</ele>
        <time>2025-10-19T12:58:34Z</time>
      </trkpt>
      <trkpt lat="43.21277" lon="5.47404">
        <ele>388.1</ele>
        <time>2025-10-19T12:58:35Z</time>
      </trkpt>
      <trkpt lat="43.21276" lon="5.47404">
        <ele>388.1</ele>
        <time>2025-10-19T12:58:36Z</time>
      </trkpt>
      <trkpt lat="43.21276" lon="5.47404">
        <ele>388.2</ele>
        <time>2025-10-19T12:58:37Z</time>
      </trkpt>
      <trkpt lat="43.21276" lon="5.47404">
        <ele>388.3</ele>
        <time>2025-10-19T12:58:38Z</time>
      </trkpt>
      <trkpt lat="43.21276" lon="5.47403">
        <ele>388.3</ele>
        <time>2025-10-19T12:58:39Z</time>
      </trkpt>
      <trkpt lat="43.21277" lon="5.47403">
        <ele>388.3</ele>
        <time>2025-10-19T12:58:40Z</time>
      </trkpt>
      <trkpt lat="43.21277" lon="5.47402">
        <ele>388.5</ele>
        <time>2025-10-19T12:58:41Z</time>
      </trkpt>
      <trkpt lat="43.21277" lon="5.47402">
        <ele>388.5</ele>
        <time>2025-10-19T12:58:42Z</time>
      </trkpt>
      <trkpt lat="43.21277" lon="5.47401">
        <ele>388.6</ele>
        <time>2025-10-19T12:58:43Z</time>
      </trkpt>
      <trkpt lat="43.21277" lon="5.474">
        <ele>388.7</ele>
        <time>2025-10-19T12:58:44Z</time>
      </trkpt>
      <trkpt lat="43.21277" lon="5.474">
        <ele>388.8</ele>
        <time>2025-10-19T12:58:45Z</time>
      </trkpt>
      <trkpt lat="43.21277" lon="5.47399">
        <ele>388.8</ele>
        <time>2025-10-19T12:58:46Z</time>
      </trkpt>
      <trkpt lat="43.21277" lon="5.47399">
        <ele>389</ele>
        <time>2025-10-19T12:58:47Z</time>
      </trkpt>
      <trkpt lat="43.21278" lon="5.47398">
        <ele>389.1</ele>
        <time>2025-10-19T12:58:48Z</time>
      </trkpt>
      <trkpt lat="43.21278" lon="5.47398">
        <ele>389.2</ele>
        <time>2025-10-19T12:58:49Z</time>
      </trkpt>
      <trkpt lat="43.21279" lon="5.47397">
        <ele>389.3</ele>
        <time>2025-10-19T12:58:50Z</time>
      </trkpt>
      <trkpt lat="43.21279" lon="5.47396">
        <ele>389.4</ele>
        <time>2025-10-19T12:58:51Z</time>
      </trkpt>
      <trkpt lat="43.21279" lon="5.47396">
        <ele>389.6</ele>
        <time>2025-10-19T12:58:52Z</time>
      </trkpt>
      <trkpt lat="43.21279" lon="5.47396">
        <ele>389.8</ele>
        <time>2025-10-19T12:58:53Z</time>
      </trkpt>
      <trkpt lat="43.2128" lon="5.47395">
        <ele>389.9</ele>
        <time>2025-10-19T12:58:54Z</time>
      </trkpt>
      <trkpt lat="43.2128" lon="5.47395">
        <ele>390.1</ele>
        <time>2025-10-19T12:58:55Z</time>
      </trkpt>
      <trkpt lat="43.2128" lon="5.47394">
        <ele>390.3</ele>
        <time>2025-10-19T12:58:56Z</time>
      </trkpt>
      <trkpt lat="43.21281" lon="5.47394">
        <ele>390.5</ele>
        <time>2025-10-19T12:58:57Z</time>
      </trkpt>
      <trkpt lat="43.21281" lon="5.47393">
        <ele>390.6</ele>
        <time>2025-10-19T12:58:58Z</time>
      </trkpt>
      <trkpt lat="43.21281" lon="5.47393">
        <ele>390.7</ele>
        <time>2025-10-19T12:58:59Z</time>
      </trkpt>
      <trkpt lat="43.21282" lon="5.47392">
        <ele>390.8</ele>
        <time>2025-10-19T12:59:00Z</time>
      </trkpt>
      <trkpt lat="43.21282" lon="5.47391">
        <ele>390.8</ele>
        <time>2025-10-19T12:59:01Z</time>
      </trkpt>
      <trkpt lat="43.21283" lon="5.47391">
        <ele>390.9</ele>
        <time>2025-10-19T12:59:02Z</time>
      </trkpt>
      <trkpt lat="43.21283" lon="5.4739">
        <ele>391</ele>
        <time>2025-10-19T12:59:03Z</time>
      </trkpt>
      <trkpt lat="43.21283" lon="5.4739">
        <ele>391.2</ele>
        <time>2025-10-19T12:59:04Z</time>
      </trkpt>
      <trkpt lat="43.21283" lon="5.47389">
        <ele>391.4</ele>
        <time>2025-10-19T12:59:05Z</time>
      </trkpt>
      <trkpt lat="43.21284" lon="5.47389">
        <ele>391.6</ele>
        <time>2025-10-19T12:59:06Z</time>
      </trkpt>
      <trkpt lat="43.21284" lon="5.47388">
        <ele>391.8</ele>
        <time>2025-10-19T12:59:07Z</time>
      </trkpt>
      <trkpt lat="43.21285" lon="5.47387">
        <ele>391.9</ele>
        <time>2025-10-19T12:59:08Z</time>
      </trkpt>
      <trkpt lat="43.21285" lon="5.47386">
        <ele>392</ele>
        <time>2025-10-19T12:59:09Z</time>
      </trkpt>
      <trkpt lat="43.21286" lon="5.47385">
        <ele>392.1</ele>
        <time>2025-10-19T12:59:10Z</time>
      </trkpt>
      <trkpt lat="43.21286" lon="5.47385">
        <ele>392.2</ele>
        <time>2025-10-19T12:59:11Z</time>
      </trkpt>
      <trkpt lat="43.21286" lon="5.47384">
        <ele>392.2</ele>
        <time>2025-10-19T12:59:12Z</time>
      </trkpt>
      <trkpt lat="43.21287" lon="5.47383">
        <ele>392.5</ele>
        <time>2025-10-19T12:59:13Z</time>
      </trkpt>
      <trkpt lat="43.21287" lon="5.47383">
        <ele>392.6</ele>
        <time>2025-10-19T12:59:14Z</time>
      </trkpt>
      <trkpt lat="43.21287" lon="5.47382">
        <ele>392.7</ele>
        <time>2025-10-19T12:59:15Z</time>
      </trkpt>
      <trkpt lat="43.21287" lon="5.47382">
        <ele>392.8</ele>
        <time>2025-10-19T12:59:16Z</time>
      </trkpt>
      <trkpt lat="43.21288" lon="5.47381">
        <ele>392.9</ele>
        <time>2025-10-19T12:59:17Z</time>
      </trkpt>
      <trkpt lat="43.21288" lon="5.47381">
        <ele>393</ele>
        <time>2025-10-19T12:59:18Z</time>
      </trkpt>
      <trkpt lat="43.21289" lon="5.4738">
        <ele>393.1</ele>
        <time>2025-10-19T12:59:19Z</time>
      </trkpt>
      <trkpt lat="43.21289" lon="5.47379">
        <ele>393.1</ele>
        <time>2025-10-19T12:59:20Z</time>
      </trkpt>
      <trkpt lat="43.21289" lon="5.47378">
        <ele>393.1</ele>
        <time>2025-10-19T12:59:21Z</time>
      </trkpt>
      <trkpt lat="43.2129" lon="5.47377">
        <ele>393.2</ele>
        <time>2025-10-19T12:59:22Z</time>
      </trkpt>
      <trkpt lat="43.2129" lon="5.47376">
        <ele>393.2</ele>
        <time>2025-10-19T12:59:23Z</time>
      </trkpt>
      <trkpt lat="43.2129" lon="5.47375">
        <ele>393.2</ele>
        <time>2025-10-19T12:59:24Z</time>
      </trkpt>
      <trkpt lat="43.21291" lon="5.47374">
        <ele>393.2</ele>
        <time>2025-10-19T12:59:25Z</time>
      </trkpt>
      <trkpt lat="43.21291" lon="5.47374">
        <ele>393.2</ele>
        <time>2025-10-19T12:59:26Z</time>
      </trkpt>
      <trkpt lat="43.21292" lon="5.47373">
        <ele>393.3</ele>
        <time>2025-10-19T12:59:27Z</time>
      </trkpt>
      <trkpt lat="43.21292" lon="5.47373">
        <ele>393.4</ele>
        <time>2025-10-19T12:59:28Z</time>
      </trkpt>
      <trkpt lat="43.21292" lon="5.47372">
        <ele>393.5</ele>
        <time>2025-10-19T12:59:29Z</time>
      </trkpt>
      <trkpt lat="43.21293" lon="5.47371">
        <ele>393.5</ele>
        <time>2025-10-19T12:59:30Z</time>
      </trkpt>
      <trkpt lat="43.21293" lon="5.4737">
        <ele>393.7</ele>
        <time>2025-10-19T12:59:31Z</time>
      </trkpt>
      <trkpt lat="43.21293" lon="5.4737">
        <ele>393.9</ele>
        <time>2025-10-19T12:59:32Z</time>
      </trkpt>
      <trkpt lat="43.21293" lon="5.47368">
        <ele>394.1</ele>
        <time>2025-10-19T12:59:33Z</time>
      </trkpt>
      <trkpt lat="43.21293" lon="5.47368">
        <ele>394.1</ele>
        <time>2025-10-19T12:59:34Z</time>
      </trkpt>
      <trkpt lat="43.21293" lon="5.47368">
        <ele>394.2</ele>
        <time>2025-10-19T12:59:35Z</time>
      </trkpt>
      <trkpt lat="43.21293" lon="5.47367">
        <ele>394.2</ele>
        <time>2025-10-19T12:59:36Z</time>
      </trkpt>
      <trkpt lat="43.21294" lon="5.47366">
        <ele>394.3</ele>
        <time>2025-10-19T12:59:37Z</time>
      </trkpt>
      <trkpt lat="43.21294" lon="5.47366">
        <ele>394.3</ele>
        <time>2025-10-19T12:59:38Z</time>
      </trkpt>
      <trkpt lat="43.21294" lon="5.47366">
        <ele>394.4</ele>
        <time>2025-10-19T12:59:39Z</time>
      </trkpt>
      <trkpt lat="43.21295" lon="5.47365">
        <ele>394.6</ele>
        <time>2025-10-19T12:59:40Z</time>
      </trkpt>
      <trkpt lat="43.21296" lon="5.47365">
        <ele>394.7</ele>
        <time>2025-10-19T12:59:41Z</time>
      </trkpt>
      <trkpt lat="43.21296" lon="5.47364">
        <ele>394.9</ele>
        <time>2025-10-19T12:59:42Z</time>
      </trkpt>
      <trkpt lat="43.21296" lon="5.47364">
        <ele>394.9</ele>
        <time>2025-10-19T12:59:43Z</time>
      </trkpt>
      <trkpt lat="43.21297" lon="5.47363">
        <ele>395</ele>
        <time>2025-10-19T12:59:44Z</time>
      </trkpt>
      <trkpt lat="43.21297" lon="5.47363">
        <ele>395.2</ele>
        <time>2025-10-19T12:59:45Z</time>
      </trkpt>
      <trkpt lat="43.21298" lon="5.47362">
        <ele>395.4</ele>
        <time>2025-10-19T12:59:46Z</time>
      </trkpt>
      <trkpt lat="43.21298" lon="5.47361">
        <ele>395.5</ele>
        <time>2025-10-19T12:59:47Z</time>
      </trkpt>
      <trkpt lat="43.21299" lon="5.47361">
        <ele>395.5</ele>
        <time>2025-10-19T12:59:48Z</time>
      </trkpt>
      <trkpt lat="43.21299" lon="5.4736">
        <ele>395.6</ele>
        <time>2025-10-19T12:59:49Z</time>
      </trkpt>
      <trkpt lat="43.21299" lon="5.47359">
        <ele>395.6</ele>
        <time>2025-10-19T12:59:50Z</time>
      </trkpt>
      <trkpt lat="43.213" lon="5.47358">
        <ele>395.7</ele>
        <time>2025-10-19T12:59:51Z</time>
      </trkpt>
      <trkpt lat="43.213" lon="5.47358">
        <ele>395.8</ele>
        <time>2025-10-19T12:59:52Z</time>
      </trkpt>
      <trkpt lat="43.21301" lon="5.47357">
        <ele>395.9</ele>
        <time>2025-10-19T12:59:53Z</time>
      </trkpt>
      <trkpt lat="43.21301" lon="5.47357">
        <ele>396.1</ele>
        <time>2025-10-19T12:59:54Z</time>
      </trkpt>
      <trkpt lat="43.21301" lon="5.47357">
        <ele>396.2</ele>
        <time>2025-10-19T12:59:55Z</time>
      </trkpt>
      <trkpt lat="43.21302" lon="5.47356">
        <ele>396.3</ele>
        <time>2025-10-19T12:59:56Z</time>
      </trkpt>
      <trkpt lat="43.21302" lon="5.47356">
        <ele>396.5</ele>
        <time>2025-10-19T12:59:57Z</time>
      </trkpt>
      <trkpt lat="43.21302" lon="5.47356">
        <ele>396.7</ele>
        <time>2025-10-19T12:59:58Z</time>
      </trkpt>
      <trkpt lat="43.21303" lon="5.47356">
        <ele>396.9</ele>
        <time>2025-10-19T12:59:59Z</time>
      </trkpt>
      <trkpt lat="43.21303" lon="5.47356">
        <ele>397</ele>
        <time>2025-10-19T13:00:00Z</time>
      </trkpt>
      <trkpt lat="43.21304" lon="5.47355">
        <ele>397.2</ele>
        <time>2025-10-19T13:00:01Z</time>
      </trkpt>
      <trkpt lat="43.21304" lon="5.47354">
        <ele>397.3</ele>
        <time>2025-10-19T13:00:02Z</time>
      </trkpt>
      <trkpt lat="43.21305" lon="5.47353">
        <ele>397.4</ele>
        <time>2025-10-19T13:00:03Z</time>
      </trkpt>
      <trkpt lat="43.21306" lon="5.47353">
        <ele>397.4</ele>
        <time>2025-10-19T13:00:04Z</time>
      </trkpt>
      <trkpt lat="43.21306" lon="5.47352">
        <ele>397.5</ele>
        <time>2025-10-19T13:00:05Z</time>
      </trkpt>
      <trkpt lat="43.21307" lon="5.47352">
        <ele>397.6</ele>
        <time>2025-10-19T13:00:06Z</time>
      </trkpt>
      <trkpt lat="43.21307" lon="5.47351">
        <ele>397.8</ele>
        <time>2025-10-19T13:00:07Z</time>
      </trkpt>
      <trkpt lat="43.21308" lon="5.47351">
        <ele>397.9</ele>
        <time>2025-10-19T13:00:08Z</time>
      </trkpt>
      <trkpt lat="43.21308" lon="5.47351">
        <ele>398</ele>
        <time>2025-10-19T13:00:09Z</time>
      </trkpt>
      <trkpt lat="43.21309" lon="5.4735">
        <ele>398.3</ele>
        <time>2025-10-19T13:00:10Z</time>
      </trkpt>
      <trkpt lat="43.21309" lon="5.47349">
        <ele>398.4</ele>
        <time>2025-10-19T13:00:11Z</time>
      </trkpt>
      <trkpt lat="43.2131" lon="5.47349">
        <ele>398.5</ele>
        <time>2025-10-19T13:00:12Z</time>
      </trkpt>
      <trkpt lat="43.2131" lon="5.47348">
        <ele>398.5</ele>
        <time>2025-10-19T13:00:13Z</time>
      </trkpt>
      <trkpt lat="43.21311" lon="5.47348">
        <ele>398.5</ele>
        <time>2025-10-19T13:00:14Z</time>
      </trkpt>
      <trkpt lat="43.21311" lon="5.47347">
        <ele>398.5</ele>
        <time>2025-10-19T13:00:15Z</time>
      </trkpt>
      <trkpt lat="43.21312" lon="5.47347">
        <ele>398.5</ele>
        <time>2025-10-19T13:00:16Z</time>
      </trkpt>
      <trkpt lat="43.21312" lon="5.47347">
        <ele>398.6</ele>
        <time>2025-10-19T13:00:17Z</time>
      </trkpt>
      <trkpt lat="43.21312" lon="5.47347">
        <ele>398.7</ele>
        <time>2025-10-19T13:00:18Z</time>
      </trkpt>
      <trkpt lat="43.21312" lon="5.47347">
        <ele>398.8</ele>
        <time>2025-10-19T13:00:19Z</time>
      </trkpt>
      <trkpt lat="43.21312" lon="5.47347">
        <ele>399</ele>
        <time>2025-10-19T13:00:20Z</time>
      </trkpt>
      <trkpt lat="43.21312" lon="5.47346">
        <ele>399</ele>
        <time>2025-10-19T13:00:21Z</time>
      </trkpt>
      <trkpt lat="43.21312" lon="5.47346">
        <ele>399.1</ele>
        <time>2025-10-19T13:00:22Z</time>
      </trkpt>
      <trkpt lat="43.21313" lon="5.47346">
        <ele>399.1</ele>
        <time>2025-10-19T13:00:23Z</time>
      </trkpt>
      <trkpt lat="43.21313" lon="5.47345">
        <ele>399.2</ele>
        <time>2025-10-19T13:00:24Z</time>
      </trkpt>
      <trkpt lat="43.21314" lon="5.47345">
        <ele>399.3</ele>
        <time>2025-10-19T13:00:25Z</time>
      </trkpt>
      <trkpt lat="43.21315" lon="5.47344">
        <ele>399.5</ele>
        <time>2025-10-19T13:00:26Z</time>
      </trkpt>
      <trkpt lat="43.21316" lon="5.47344">
        <ele>399.6</ele>
        <time>2025-10-19T13:00:27Z</time>
      </trkpt>
      <trkpt lat="43.21316" lon="5.47343">
        <ele>399.7</ele>
        <time>2025-10-19T13:00:28Z</time>
      </trkpt>
      <trkpt lat="43.21317" lon="5.47342">
        <ele>399.8</ele>
        <time>2025-10-19T13:00:29Z</time>
      </trkpt>
      <trkpt lat="43.21318" lon="5.47341">
        <ele>399.9</ele>
        <time>2025-10-19T13:00:30Z</time>
      </trkpt>
      <trkpt lat="43.21319" lon="5.4734">
        <ele>400</ele>
        <time>2025-10-19T13:00:31Z</time>
      </trkpt>
      <trkpt lat="43.21319" lon="5.47339">
        <ele>400</ele>
        <time>2025-10-19T13:00:32Z</time>
      </trkpt>
      <trkpt lat="43.2132" lon="5.47339">
        <ele>400.1</ele>
        <time>2025-10-19T13:00:33Z</time>
      </trkpt>
      <trkpt lat="43.2132" lon="5.47338">
        <ele>400.1</ele>
        <time>2025-10-19T13:00:34Z</time>
      </trkpt>
      <trkpt lat="43.21321" lon="5.47337">
        <ele>400.1</ele>
        <time>2025-10-19T13:00:35Z</time>
      </trkpt>
      <trkpt lat="43.21321" lon="5.47337">
        <ele>400.1</ele>
        <time>2025-10-19T13:00:36Z</time>
      </trkpt>
      <trkpt lat="43.2132" lon="5.47337">
        <ele>400.1</ele>
        <time>2025-10-19T13:00:37Z</time>
      </trkpt>
      <trkpt lat="43.21321" lon="5.47337">
        <ele>400.1</ele>
        <time>2025-10-19T13:00:38Z</time>
      </trkpt>
      <trkpt lat="43.21321" lon="5.47336">
        <ele>400.1</ele>
        <time>2025-10-19T13:00:39Z</time>
      </trkpt>
      <trkpt lat="43.21322" lon="5.47336">
        <ele>400.1</ele>
        <time>2025-10-19T13:00:40Z</time>
      </trkpt>
      <trkpt lat="43.21322" lon="5.47335">
        <ele>400</ele>
        <time>2025-10-19T13:00:41Z</time>
      </trkpt>
      <trkpt lat="43.21323" lon="5.47335">
        <ele>400</ele>
        <time>2025-10-19T13:00:42Z</time>
      </trkpt>
      <trkpt lat="43.21323" lon="5.47335">
        <ele>400</ele>
        <time>2025-10-19T13:00:43Z</time>
      </trkpt>
      <trkpt lat="43.21324" lon="5.47334">
        <ele>400</ele>
        <time>2025-10-19T13:00:44Z</time>
      </trkpt>
      <trkpt lat="43.21324" lon="5.47334">
        <ele>399.9</ele>
        <time>2025-10-19T13:00:45Z</time>
      </trkpt>
      <trkpt lat="43.21325" lon="5.47333">
        <ele>399.9</ele>
        <time>2025-10-19T13:00:46Z</time>
      </trkpt>
      <trkpt lat="43.21326" lon="5.47332">
        <ele>399.8</ele>
        <time>2025-10-19T13:00:47Z</time>
      </trkpt>
      <trkpt lat="43.21327" lon="5.47332">
        <ele>399.8</ele>
        <time>2025-10-19T13:00:48Z</time>
      </trkpt>
      <trkpt lat="43.21328" lon="5.47331">
        <ele>399.8</ele>
        <time>2025-10-19T13:00:49Z</time>
      </trkpt>
      <trkpt lat="43.21328" lon="5.47331">
        <ele>399.8</ele>
        <time>2025-10-19T13:00:50Z</time>
      </trkpt>
      <trkpt lat="43.21329" lon="5.4733">
        <ele>399.8</ele>
        <time>2025-10-19T13:00:51Z</time>
      </trkpt>
      <trkpt lat="43.21329" lon="5.47329">
        <ele>399.8</ele>
        <time>2025-10-19T13:00:52Z</time>
      </trkpt>
      <trkpt lat="43.2133" lon="5.47329">
        <ele>399.8</ele>
        <time>2025-10-19T13:00:53Z</time>
      </trkpt>
      <trkpt lat="43.21331" lon="5.47329">
        <ele>399.8</ele>
        <time>2025-10-19T13:00:54Z</time>
      </trkpt>
      <trkpt lat="43.21332" lon="5.47328">
        <ele>399.7</ele>
        <time>2025-10-19T13:00:55Z</time>
      </trkpt>
      <trkpt lat="43.21332" lon="5.47328">
        <ele>399.7</ele>
        <time>2025-10-19T13:00:56Z</time>
      </trkpt>
      <trkpt lat="43.21333" lon="5.47328">
        <ele>399.8</ele>
        <time>2025-10-19T13:00:57Z</time>
      </trkpt>
      <trkpt lat="43.21334" lon="5.47327">
        <ele>399.9</ele>
        <time>2025-10-19T13:00:58Z</time>
      </trkpt>
      <trkpt lat="43.21334" lon="5.47327">
        <ele>399.9</ele>
        <time>2025-10-19T13:00:59Z</time>
      </trkpt>
      <trkpt lat="43.21335" lon="5.47326">
        <ele>399.9</ele>
        <time>2025-10-19T13:01:00Z</time>
      </trkpt>
      <trkpt lat="43.21336" lon="5.47326">
        <ele>400</ele>
        <time>2025-10-19T13:01:01Z</time>
      </trkpt>
      <trkpt lat="43.21336" lon="5.47325">
        <ele>400.1</ele>
        <time>2025-10-19T13:01:02Z</time>
      </trkpt>
      <trkpt lat="43.21336" lon="5.47324">
        <ele>400.2</ele>
        <time>2025-10-19T13:01:03Z</time>
      </trkpt>
      <trkpt lat="43.21337" lon="5.47324">
        <ele>400.3</ele>
        <time>2025-10-19T13:01:04Z</time>
      </trkpt>
      <trkpt lat="43.21338" lon="5.47323">
        <ele>400.2</ele>
        <time>2025-10-19T13:01:05Z</time>
      </trkpt>
      <trkpt lat="43.21338" lon="5.47322">
        <ele>400.2</ele>
        <time>2025-10-19T13:01:06Z</time>
      </trkpt>
      <trkpt lat="43.21339" lon="5.47321">
        <ele>400.1</ele>
        <time>2025-10-19T13:01:07Z</time>
      </trkpt>
      <trkpt lat="43.21339" lon="5.47321">
        <ele>400.1</ele>
        <time>2025-10-19T13:01:08Z</time>
      </trkpt>
      <trkpt lat="43.2134" lon="5.47321">
        <ele>400.2</ele>
        <time>2025-10-19T13:01:09Z</time>
      </trkpt>
      <trkpt lat="43.21341" lon="5.4732">
        <ele>400.4</ele>
        <time>2025-10-19T13:01:10Z</time>
      </trkpt>
      <trkpt lat="43.21341" lon="5.4732">
        <ele>400.5</ele>
        <time>2025-10-19T13:01:11Z</time>
      </trkpt>
      <trkpt lat="43.21342" lon="5.4732">
        <ele>400.7</ele>
        <time>2025-10-19T13:01:12Z</time>
      </trkpt>
      <trkpt lat="43.21343" lon="5.4732">
        <ele>400.8</ele>
        <time>2025-10-19T13:01:13Z</time>
      </trkpt>
      <trkpt lat="43.21343" lon="5.47319">
        <ele>401</ele>
        <time>2025-10-19T13:01:14Z</time>
      </trkpt>
      <trkpt lat="43.21344" lon="5.47318">
        <ele>401.2</ele>
        <time>2025-10-19T13:01:15Z</time>
      </trkpt>
      <trkpt lat="43.21344" lon="5.47318">
        <ele>401.3</ele>
        <time>2025-10-19T13:01:16Z</time>
      </trkpt>
      <trkpt lat="43.21345" lon="5.47317">
        <ele>401.5</ele>
        <time>2025-10-19T13:01:17Z</time>
      </trkpt>
      <trkpt lat="43.21345" lon="5.47316">
        <ele>401.6</ele>
        <time>2025-10-19T13:01:18Z</time>
      </trkpt>
      <trkpt lat="43.21346" lon="5.47316">
        <ele>401.8</ele>
        <time>2025-10-19T13:01:19Z</time>
      </trkpt>
      <trkpt lat="43.21346" lon="5.47315">
        <ele>402</ele>
        <time>2025-10-19T13:01:20Z</time>
      </trkpt>
      <trkpt lat="43.21347" lon="5.47315">
        <ele>402.2</ele>
        <time>2025-10-19T13:01:21Z</time>
      </trkpt>
      <trkpt lat="43.21348" lon="5.47315">
        <ele>402.3</ele>
        <time>2025-10-19T13:01:22Z</time>
      </trkpt>
      <trkpt lat="43.21348" lon="5.47314">
        <ele>402.3</ele>
        <time>2025-10-19T13:01:23Z</time>
      </trkpt>
      <trkpt lat="43.21349" lon="5.47314">
        <ele>402.4</ele>
        <time>2025-10-19T13:01:24Z</time>
      </trkpt>
      <trkpt lat="43.21349" lon="5.47314">
        <ele>402.4</ele>
        <time>2025-10-19T13:01:25Z</time>
      </trkpt>
      <trkpt lat="43.21349" lon="5.47313">
        <ele>402.6</ele>
        <time>2025-10-19T13:01:26Z</time>
      </trkpt>
      <trkpt lat="43.21349" lon="5.47313">
        <ele>402.7</ele>
        <time>2025-10-19T13:01:27Z</time>
      </trkpt>
      <trkpt lat="43.2135" lon="5.47313">
        <ele>402.8</ele>
        <time>2025-10-19T13:01:28Z</time>
      </trkpt>
      <trkpt lat="43.21351" lon="5.47313">
        <ele>402.9</ele>
        <time>2025-10-19T13:01:29Z</time>
      </trkpt>
      <trkpt lat="43.21351" lon="5.47312">
        <ele>403</ele>
        <time>2025-10-19T13:01:30Z</time>
      </trkpt>
      <trkpt lat="43.21352" lon="5.47312">
        <ele>403.2</ele>
        <time>2025-10-19T13:01:31Z</time>
      </trkpt>
      <trkpt lat="43.21352" lon="5.47312">
        <ele>403.4</ele>
        <time>2025-10-19T13:01:32Z</time>
      </trkpt>
      <trkpt lat="43.21353" lon="5.47311">
        <ele>403.6</ele>
        <time>2025-10-19T13:01:33Z</time>
      </trkpt>
      <trkpt lat="43.21353" lon="5.47311">
        <ele>403.7</ele>
        <time>2025-10-19T13:01:34Z</time>
      </trkpt>
      <trkpt lat="43.21354" lon="5.4731">
        <ele>403.8</ele>
        <time>2025-10-19T13:01:35Z</time>
      </trkpt>
      <trkpt lat="43.21354" lon="5.4731">
        <ele>403.9</ele>
        <time>2025-10-19T13:01:36Z</time>
      </trkpt>
      <trkpt lat="43.21354" lon="5.4731">
        <ele>404.1</ele>
        <time>2025-10-19T13:01:37Z</time>
      </trkpt>
      <trkpt lat="43.21355" lon="5.47309">
        <ele>404</ele>
        <time>2025-10-19T13:01:38Z</time>
      </trkpt>
      <trkpt lat="43.21355" lon="5.47309">
        <ele>404</ele>
        <time>2025-10-19T13:01:39Z</time>
      </trkpt>
      <trkpt lat="43.21355" lon="5.47309">
        <ele>404.1</ele>
        <time>2025-10-19T13:01:40Z</time>
      </trkpt>
      <trkpt lat="43.21355" lon="5.47308">
        <ele>404.2</ele>
        <time>2025-10-19T13:01:41Z</time>
      </trkpt>
      <trkpt lat="43.21355" lon="5.47308">
        <ele>404.3</ele>
        <time>2025-10-19T13:01:42Z</time>
      </trkpt>
      <trkpt lat="43.21355" lon="5.47308">
        <ele>404.4</ele>
        <time>2025-10-19T13:01:43Z</time>
      </trkpt>
      <trkpt lat="43.21356" lon="5.47308">
        <ele>404.4</ele>
        <time>2025-10-19T13:01:44Z</time>
      </trkpt>
      <trkpt lat="43.21356" lon="5.47308">
        <ele>404.7</ele>
        <time>2025-10-19T13:01:45Z</time>
      </trkpt>
      <trkpt lat="43.21356" lon="5.47308">
        <ele>404.9</ele>
        <time>2025-10-19T13:01:46Z</time>
      </trkpt>
      <trkpt lat="43.21357" lon="5.47308">
        <ele>405.1</ele>
        <time>2025-10-19T13:01:47Z</time>
      </trkpt>
      <trkpt lat="43.21357" lon="5.47307">
        <ele>405.2</ele>
        <time>2025-10-19T13:01:48Z</time>
      </trkpt>
      <trkpt lat="43.21358" lon="5.47307">
        <ele>405.5</ele>
        <time>2025-10-19T13:01:49Z</time>
      </trkpt>
      <trkpt lat="43.21359" lon="5.47307">
        <ele>405.7</ele>
        <time>2025-10-19T13:01:50Z</time>
      </trkpt>
      <trkpt lat="43.21359" lon="5.47307">
        <ele>405.9</ele>
        <time>2025-10-19T13:01:51Z</time>
      </trkpt>
      <trkpt lat="43.21359" lon="5.47306">
        <ele>406.1</ele>
        <time>2025-10-19T13:01:52Z</time>
      </trkpt>
      <trkpt lat="43.21359" lon="5.47306">
        <ele>406.3</ele>
        <time>2025-10-19T13:01:53Z</time>
      </trkpt>
      <trkpt lat="43.2136" lon="5.47305">
        <ele>406.4</ele>
        <time>2025-10-19T13:01:54Z</time>
      </trkpt>
      <trkpt lat="43.2136" lon="5.47305">
        <ele>406.5</ele>
        <time>2025-10-19T13:01:55Z</time>
      </trkpt>
      <trkpt lat="43.2136" lon="5.47305">
        <ele>406.6</ele>
        <time>2025-10-19T13:01:56Z</time>
      </trkpt>
      <trkpt lat="43.21361" lon="5.47305">
        <ele>406.8</ele>
        <time>2025-10-19T13:01:57Z</time>
      </trkpt>
      <trkpt lat="43.21361" lon="5.47304">
        <ele>407</ele>
        <time>2025-10-19T13:01:58Z</time>
      </trkpt>
      <trkpt lat="43.21362" lon="5.47304">
        <ele>407.2</ele>
        <time>2025-10-19T13:01:59Z</time>
      </trkpt>
      <trkpt lat="43.21362" lon="5.47304">
        <ele>407.3</ele>
        <time>2025-10-19T13:02:00Z</time>
      </trkpt>
      <trkpt lat="43.21363" lon="5.47303">
        <ele>407.4</ele>
        <time>2025-10-19T13:02:01Z</time>
      </trkpt>
      <trkpt lat="43.21363" lon="5.47303">
        <ele>407.5</ele>
        <time>2025-10-19T13:02:02Z</time>
      </trkpt>
      <trkpt lat="43.21364" lon="5.47303">
        <ele>407.7</ele>
        <time>2025-10-19T13:02:03Z</time>
      </trkpt>
      <trkpt lat="43.21364" lon="5.47302">
        <ele>407.8</ele>
        <time>2025-10-19T13:02:04Z</time>
      </trkpt>
      <trkpt lat="43.21365" lon="5.47302">
        <ele>407.9</ele>
        <time>2025-10-19T13:02:05Z</time>
      </trkpt>
      <trkpt lat="43.21365" lon="5.47301">
        <ele>408.2</ele>
        <time>2025-10-19T13:02:06Z</time>
      </trkpt>
      <trkpt lat="43.21366" lon="5.47301">
        <ele>408.3</ele>
        <time>2025-10-19T13:02:07Z</time>
      </trkpt>
      <trkpt lat="43.21367" lon="5.473">
        <ele>408.5</ele>
        <time>2025-10-19T13:02:08Z</time>
      </trkpt>
      <trkpt lat="43.21367" lon="5.47299">
        <ele>408.6</ele>
        <time>2025-10-19T13:02:09Z</time>
      </trkpt>
      <trkpt lat="43.21367" lon="5.47299">
        <ele>408.7</ele>
        <time>2025-10-19T13:02:10Z</time>
      </trkpt>
      <trkpt lat="43.21368" lon="5.47298">
        <ele>408.8</ele>
        <time>2025-10-19T13:02:11Z</time>
      </trkpt>
      <trkpt lat="43.21369" lon="5.47297">
        <ele>408.9</ele>
        <time>2025-10-19T13:02:12Z</time>
      </trkpt>
      <trkpt lat="43.2137" lon="5.47297">
        <ele>409</ele>
        <time>2025-10-19T13:02:13Z</time>
      </trkpt>
      <trkpt lat="43.2137" lon="5.47297">
        <ele>409</ele>
        <time>2025-10-19T13:02:14Z</time>
      </trkpt>
      <trkpt lat="43.21371" lon="5.47296">
        <ele>409.2</ele>
        <time>2025-10-19T13:02:15Z</time>
      </trkpt>
      <trkpt lat="43.21372" lon="5.47295">
        <ele>409.3</ele>
        <time>2025-10-19T13:02:16Z</time>
      </trkpt>
      <trkpt lat="43.21372" lon="5.47295">
        <ele>409.4</ele>
        <time>2025-10-19T13:02:17Z</time>
      </trkpt>
      <trkpt lat="43.21373" lon="5.47294">
        <ele>409.4</ele>
        <time>2025-10-19T13:02:18Z</time>
      </trkpt>
      <trkpt lat="43.21373" lon="5.47294">
        <ele>409.5</ele>
        <time>2025-10-19T13:02:19Z</time>
      </trkpt>
      <trkpt lat="43.21374" lon="5.47294">
        <ele>409.7</ele>
        <time>2025-10-19T13:02:20Z</time>
      </trkpt>
      <trkpt lat="43.21375" lon="5.47293">
        <ele>409.7</ele>
        <time>2025-10-19T13:02:21Z</time>
      </trkpt>
      <trkpt lat="43.21375" lon="5.47293">
        <ele>409.8</ele>
        <time>2025-10-19T13:02:22Z</time>
      </trkpt>
      <trkpt lat="43.21376" lon="5.47292">
        <ele>409.9</ele>
        <time>2025-10-19T13:02:23Z</time>
      </trkpt>
      <trkpt lat="43.21376" lon="5.47291">
        <ele>410.1</ele>
        <time>2025-10-19T13:02:24Z</time>
      </trkpt>
      <trkpt lat="43.21377" lon="5.47291">
        <ele>410.2</ele>
        <time>2025-10-19T13:02:25Z</time>
      </trkpt>
      <trkpt lat="43.21378" lon="5.4729">
        <ele>410.3</ele>
        <time>2025-10-19T13:02:26Z</time>
      </trkpt>
      <trkpt lat="43.21378" lon="5.47289">
        <ele>410.4</ele>
        <time>2025-10-19T13:02:27Z</time>
      </trkpt>
      <trkpt lat="43.21379" lon="5.47289">
        <ele>410.4</ele>
        <time>2025-10-19T13:02:28Z</time>
      </trkpt>
      <trkpt lat="43.21379" lon="5.47288">
        <ele>410.5</ele>
        <time>2025-10-19T13:02:29Z</time>
      </trkpt>
      <trkpt lat="43.2138" lon="5.47287">
        <ele>410.7</ele>
        <time>2025-10-19T13:02:30Z</time>
      </trkpt>
      <trkpt lat="43.2138" lon="5.47287">
        <ele>410.9</ele>
        <time>2025-10-19T13:02:31Z</time>
      </trkpt>
      <trkpt lat="43.2138" lon="5.47285">
        <ele>410.9</ele>
        <time>2025-10-19T13:02:32Z</time>
      </trkpt>
      <trkpt lat="43.21381" lon="5.47285">
        <ele>410.9</ele>
        <time>2025-10-19T13:02:33Z</time>
      </trkpt>
      <trkpt lat="43.21381" lon="5.47284">
        <ele>411</ele>
        <time>2025-10-19T13:02:34Z</time>
      </trkpt>
      <trkpt lat="43.21382" lon="5.47284">
        <ele>411.1</ele>
        <time>2025-10-19T13:02:35Z</time>
      </trkpt>
      <trkpt lat="43.21382" lon="5.47284">
        <ele>411.1</ele>
        <time>2025-10-19T13:02:36Z</time>
      </trkpt>
      <trkpt lat="43.21383" lon="5.47284">
        <ele>411.2</ele>
        <time>2025-10-19T13:02:37Z</time>
      </trkpt>
      <trkpt lat="43.21383" lon="5.47284">
        <ele>411.4</ele>
        <time>2025-10-19T13:02:38Z</time>
      </trkpt>
      <trkpt lat="43.21383" lon="5.47284">
        <ele>411.6</ele>
        <time>2025-10-19T13:02:39Z</time>
      </trkpt>
      <trkpt lat="43.21384" lon="5.47283">
        <ele>411.6</ele>
        <time>2025-10-19T13:02:40Z</time>
      </trkpt>
      <trkpt lat="43.21384" lon="5.47283">
        <ele>411.7</ele>
        <time>2025-10-19T13:02:41Z</time>
      </trkpt>
      <trkpt lat="43.21385" lon="5.47283">
        <ele>411.8</ele>
        <time>2025-10-19T13:02:42Z</time>
      </trkpt>
      <trkpt lat="43.21385" lon="5.47283">
        <ele>411.8</ele>
        <time>2025-10-19T13:02:43Z</time>
      </trkpt>
      <trkpt lat="43.21385" lon="5.47283">
        <ele>411.9</ele>
        <time>2025-10-19T13:02:44Z</time>
      </trkpt>
      <trkpt lat="43.21386" lon="5.47283">
        <ele>412</ele>
        <time>2025-10-19T13:02:45Z</time>
      </trkpt>
      <trkpt lat="43.21386" lon="5.47284">
        <ele>412.2</ele>
        <time>2025-10-19T13:02:46Z</time>
      </trkpt>
      <trkpt lat="43.21386" lon="5.47284">
        <ele>412.4</ele>
        <time>2025-10-19T13:02:47Z</time>
      </trkpt>
      <trkpt lat="43.21387" lon="5.47285">
        <ele>412.7</ele>
        <time>2025-10-19T13:02:48Z</time>
      </trkpt>
      <trkpt lat="43.21387" lon="5.47284">
        <ele>413</ele>
        <time>2025-10-19T13:02:49Z</time>
      </trkpt>
      <trkpt lat="43.21388" lon="5.47284">
        <ele>413.2</ele>
        <time>2025-10-19T13:02:50Z</time>
      </trkpt>
      <trkpt lat="43.21389" lon="5.47283">
        <ele>413.4</ele>
        <time>2025-10-19T13:02:51Z</time>
      </trkpt>
      <trkpt lat="43.21389" lon="5.47283">
        <ele>413.6</ele>
        <time>2025-10-19T13:02:52Z</time>
      </trkpt>
      <trkpt lat="43.21389" lon="5.47282">
        <ele>413.8</ele>
        <time>2025-10-19T13:02:53Z</time>
      </trkpt>
      <trkpt lat="43.2139" lon="5.47282">
        <ele>413.9</ele>
        <time>2025-10-19T13:02:54Z</time>
      </trkpt>
      <trkpt lat="43.2139" lon="5.47281">
        <ele>414</ele>
        <time>2025-10-19T13:02:55Z</time>
      </trkpt>
      <trkpt lat="43.2139" lon="5.47281">
        <ele>414.2</ele>
        <time>2025-10-19T13:02:56Z</time>
      </trkpt>
      <trkpt lat="43.2139" lon="5.47281">
        <ele>414.3</ele>
        <time>2025-10-19T13:02:57Z</time>
      </trkpt>
      <trkpt lat="43.2139" lon="5.47281">
        <ele>414.4</ele>
        <time>2025-10-19T13:02:58Z</time>
      </trkpt>
      <trkpt lat="43.21391" lon="5.4728">
        <ele>414.5</ele>
        <time>2025-10-19T13:02:59Z</time>
      </trkpt>
      <trkpt lat="43.21391" lon="5.4728">
        <ele>414.6</ele>
        <time>2025-10-19T13:03:00Z</time>
      </trkpt>
      <trkpt lat="43.21392" lon="5.4728">
        <ele>414.7</ele>
        <time>2025-10-19T13:03:01Z</time>
      </trkpt>
      <trkpt lat="43.21392" lon="5.47279">
        <ele>414.9</ele>
        <time>2025-10-19T13:03:02Z</time>
      </trkpt>
      <trkpt lat="43.21393" lon="5.47279">
        <ele>415</ele>
        <time>2025-10-19T13:03:03Z</time>
      </trkpt>
      <trkpt lat="43.21393" lon="5.47279">
        <ele>415.1</ele>
        <time>2025-10-19T13:03:04Z</time>
      </trkpt>
      <trkpt lat="43.21393" lon="5.47278">
        <ele>415.2</ele>
        <time>2025-10-19T13:03:05Z</time>
      </trkpt>
      <trkpt lat="43.21394" lon="5.47278">
        <ele>415.2</ele>
        <time>2025-10-19T13:03:06Z</time>
      </trkpt>
      <trkpt lat="43.21394" lon="5.47277">
        <ele>415.3</ele>
        <time>2025-10-19T13:03:07Z</time>
      </trkpt>
      <trkpt lat="43.21394" lon="5.47277">
        <ele>415.4</ele>
        <time>2025-10-19T13:03:08Z</time>
      </trkpt>
      <trkpt lat="43.21394" lon="5.47277">
        <ele>415.6</ele>
        <time>2025-10-19T13:03:09Z</time>
      </trkpt>
      <trkpt lat="43.21394" lon="5.47277">
        <ele>415.8</ele>
        <time>2025-10-19T13:03:10Z</time>
      </trkpt>
      <trkpt lat="43.21394" lon="5.47276">
        <ele>415.8</ele>
        <time>2025-10-19T13:03:11Z</time>
      </trkpt>
      <trkpt lat="43.21394" lon="5.47276">
        <ele>415.8</ele>
        <time>2025-10-19T13:03:12Z</time>
      </trkpt>
      <trkpt lat="43.21395" lon="5.47275">
        <ele>415.8</ele>
        <time>2025-10-19T13:03:13Z</time>
      </trkpt>
      <trkpt lat="43.21395" lon="5.47275">
        <ele>415.8</ele>
        <time>2025-10-19T13:03:14Z</time>
      </trkpt>
      <trkpt lat="43.21396" lon="5.47275">
        <ele>416</ele>
        <time>2025-10-19T13:03:15Z</time>
      </trkpt>
      <trkpt lat="43.21396" lon="5.47274">
        <ele>416</ele>
        <time>2025-10-19T13:03:16Z</time>
      </trkpt>
      <trkpt lat="43.21397" lon="5.47274">
        <ele>416</ele>
        <time>2025-10-19T13:03:17Z</time>
      </trkpt>
      <trkpt lat="43.21397" lon="5.47274">
        <ele>416.1</ele>
        <time>2025-10-19T13:03:18Z</time>
      </trkpt>
      <trkpt lat="43.21397" lon="5.47274">
        <ele>416.2</ele>
        <time>2025-10-19T13:03:19Z</time>
      </trkpt>
      <trkpt lat="43.21397" lon="5.47274">
        <ele>416.3</ele>
        <time>2025-10-19T13:03:20Z</time>
      </trkpt>
      <trkpt lat="43.21397" lon="5.47273">
        <ele>416.3</ele>
        <time>2025-10-19T13:03:21Z</time>
      </trkpt>
      <trkpt lat="43.21397" lon="5.47273">
        <ele>416.2</ele>
        <time>2025-10-19T13:03:22Z</time>
      </trkpt>
      <trkpt lat="43.21397" lon="5.47273">
        <ele>416.2</ele>
        <time>2025-10-19T13:03:23Z</time>
      </trkpt>
      <trkpt lat="43.21397" lon="5.47273">
        <ele>416.1</ele>
        <time>2025-10-19T13:03:24Z</time>
      </trkpt>
      <trkpt lat="43.21397" lon="5.47273">
        <ele>416.1</ele>
        <time>2025-10-19T13:03:25Z</time>
      </trkpt>
      <trkpt lat="43.21397" lon="5.47272">
        <ele>416.2</ele>
        <time>2025-10-19T13:03:26Z</time>
      </trkpt>
      <trkpt lat="43.21398" lon="5.47272">
        <ele>416.2</ele>
        <time>2025-10-19T13:03:27Z</time>
      </trkpt>
      <trkpt lat="43.21398" lon="5.47272">
        <ele>416.3</ele>
        <time>2025-10-19T13:03:28Z</time>
      </trkpt>
      <trkpt lat="43.21398" lon="5.47272">
        <ele>416.4</ele>
        <time>2025-10-19T13:03:29Z</time>
      </trkpt>
      <trkpt lat="43.21398" lon="5.47272">
        <ele>416.5</ele>
        <time>2025-10-19T13:03:30Z</time>
      </trkpt>
      <trkpt lat="43.21398" lon="5.47272">
        <ele>416.6</ele>
        <time>2025-10-19T13:03:31Z</time>
      </trkpt>
      <trkpt lat="43.21398" lon="5.47272">
        <ele>416.8</ele>
        <time>2025-10-19T13:03:32Z</time>
      </trkpt>
      <trkpt lat="43.21398" lon="5.47273">
        <ele>416.8</ele>
        <time>2025-10-19T13:03:33Z</time>
      </trkpt>
      <trkpt lat="43.21398" lon="5.47273">
        <ele>416.9</ele>
        <time>2025-10-19T13:03:34Z</time>
      </trkpt>
      <trkpt lat="43.21399" lon="5.47273">
        <ele>416.9</ele>
        <time>2025-10-19T13:03:35Z</time>
      </trkpt>
      <trkpt lat="43.21398" lon="5.47273">
        <ele>417</ele>
        <time>2025-10-19T13:03:36Z</time>
      </trkpt>
      <trkpt lat="43.21398" lon="5.47273">
        <ele>417.1</ele>
        <time>2025-10-19T13:03:37Z</time>
      </trkpt>
      <trkpt lat="43.21398" lon="5.47274">
        <ele>417.2</ele>
        <time>2025-10-19T13:03:38Z</time>
      </trkpt>
      <trkpt lat="43.21398" lon="5.47275">
        <ele>417.4</ele>
        <time>2025-10-19T13:03:39Z</time>
      </trkpt>
      <trkpt lat="43.21398" lon="5.47275">
        <ele>417.5</ele>
        <time>2025-10-19T13:03:40Z</time>
      </trkpt>
      <trkpt lat="43.21398" lon="5.47275">
        <ele>417.6</ele>
        <time>2025-10-19T13:03:41Z</time>
      </trkpt>
      <trkpt lat="43.21398" lon="5.47275">
        <ele>417.6</ele>
        <time>2025-10-19T13:03:42Z</time>
      </trkpt>
      <trkpt lat="43.21398" lon="5.47275">
        <ele>417.7</ele>
        <time>2025-10-19T13:03:43Z</time>
      </trkpt>
      <trkpt lat="43.21398" lon="5.47274">
        <ele>417.7</ele>
        <time>2025-10-19T13:03:44Z</time>
      </trkpt>
      <trkpt lat="43.21398" lon="5.47274">
        <ele>417.7</ele>
        <time>2025-10-19T13:03:45Z</time>
      </trkpt>
      <trkpt lat="43.21398" lon="5.47274">
        <ele>417.7</ele>
        <time>2025-10-19T13:03:46Z</time>
      </trkpt>
      <trkpt lat="43.21399" lon="5.47275">
        <ele>417.7</ele>
        <time>2025-10-19T13:03:47Z</time>
      </trkpt>
      <trkpt lat="43.21399" lon="5.47275">
        <ele>417.8</ele>
        <time>2025-10-19T13:03:48Z</time>
      </trkpt>
      <trkpt lat="43.21399" lon="5.47275">
        <ele>417.9</ele>
        <time>2025-10-19T13:03:49Z</time>
      </trkpt>
      <trkpt lat="43.21399" lon="5.47276">
        <ele>418</ele>
        <time>2025-10-19T13:03:50Z</time>
      </trkpt>
      <trkpt lat="43.21399" lon="5.47277">
        <ele>418.2</ele>
        <time>2025-10-19T13:03:51Z</time>
      </trkpt>
      <trkpt lat="43.21399" lon="5.47277">
        <ele>418.5</ele>
        <time>2025-10-19T13:03:52Z</time>
      </trkpt>
      <trkpt lat="43.21399" lon="5.47278">
        <ele>418.8</ele>
        <time>2025-10-19T13:03:53Z</time>
      </trkpt>
      <trkpt lat="43.214" lon="5.47278">
        <ele>419</ele>
        <time>2025-10-19T13:03:54Z</time>
      </trkpt>
      <trkpt lat="43.214" lon="5.47278">
        <ele>419.3</ele>
        <time>2025-10-19T13:03:55Z</time>
      </trkpt>
      <trkpt lat="43.214" lon="5.47278">
        <ele>419.4</ele>
        <time>2025-10-19T13:03:56Z</time>
      </trkpt>
      <trkpt lat="43.21399" lon="5.47278">
        <ele>419.6</ele>
        <time>2025-10-19T13:03:57Z</time>
      </trkpt>
      <trkpt lat="43.21399" lon="5.47278">
        <ele>419.8</ele>
        <time>2025-10-19T13:03:58Z</time>
      </trkpt>
      <trkpt lat="43.21399" lon="5.47278">
        <ele>419.8</ele>
        <time>2025-10-19T13:03:59Z</time>
      </trkpt>
      <trkpt lat="43.21399" lon="5.47278">
        <ele>419.8</ele>
        <time>2025-10-19T13:04:00Z</time>
      </trkpt>
      <trkpt lat="43.21399" lon="5.47278">
        <ele>419.8</ele>
        <time>2025-10-19T13:04:01Z</time>
      </trkpt>
      <trkpt lat="43.21399" lon="5.47278">
        <ele>419.9</ele>
        <time>2025-10-19T13:04:02Z</time>
      </trkpt>
      <trkpt lat="43.21399" lon="5.47278">
        <ele>419.9</ele>
        <time>2025-10-19T13:04:03Z</time>
      </trkpt>
      <trkpt lat="43.21399" lon="5.47278">
        <ele>419.9</ele>
        <time>2025-10-19T13:04:04Z</time>
      </trkpt>
      <trkpt lat="43.214" lon="5.47278">
        <ele>419.9</ele>
        <time>2025-10-19T13:04:05Z</time>
      </trkpt>
      <trkpt lat="43.214" lon="5.47278">
        <ele>420</ele>
        <time>2025-10-19T13:04:06Z</time>
      </trkpt>
      <trkpt lat="43.21401" lon="5.47278">
        <ele>420.1</ele>
        <time>2025-10-19T13:04:07Z</time>
      </trkpt>
      <trkpt lat="43.21401" lon="5.47278">
        <ele>420.1</ele>
        <time>2025-10-19T13:04:08Z</time>
      </trkpt>
      <trkpt lat="43.21401" lon="5.47278">
        <ele>420.2</ele>
        <time>2025-10-19T13:04:09Z</time>
      </trkpt>
      <trkpt lat="43.21401" lon="5.47278">
        <ele>420.2</ele>
        <time>2025-10-19T13:04:10Z</time>
      </trkpt>
      <trkpt lat="43.21401" lon="5.47278">
        <ele>420.4</ele>
        <time>2025-10-19T13:04:11Z</time>
      </trkpt>
      <trkpt lat="43.21401" lon="5.47278">
        <ele>420.6</ele>
        <time>2025-10-19T13:04:12Z</time>
      </trkpt>
      <trkpt lat="43.21401" lon="5.47278">
        <ele>420.7</ele>
        <time>2025-10-19T13:04:13Z</time>
      </trkpt>
      <trkpt lat="43.21401" lon="5.47278">
        <ele>420.8</ele>
        <time>2025-10-19T13:04:14Z</time>
      </trkpt>
      <trkpt lat="43.21402" lon="5.47278">
        <ele>420.9</ele>
        <time>2025-10-19T13:04:15Z</time>
      </trkpt>
      <trkpt lat="43.21402" lon="5.47278">
        <ele>421</ele>
        <time>2025-10-19T13:04:16Z</time>
      </trkpt>
      <trkpt lat="43.21402" lon="5.47278">
        <ele>421.1</ele>
        <time>2025-10-19T13:04:17Z</time>
      </trkpt>
      <trkpt lat="43.21402" lon="5.47278">
        <ele>421.1</ele>
        <time>2025-10-19T13:04:18Z</time>
      </trkpt>
      <trkpt lat="43.21403" lon="5.47278">
        <ele>421.2</ele>
        <time>2025-10-19T13:04:19Z</time>
      </trkpt>
      <trkpt lat="43.21403" lon="5.47279">
        <ele>421.3</ele>
        <time>2025-10-19T13:04:20Z</time>
      </trkpt>
      <trkpt lat="43.21403" lon="5.47279">
        <ele>421.4</ele>
        <time>2025-10-19T13:04:21Z</time>
      </trkpt>
      <trkpt lat="43.21404" lon="5.47279">
        <ele>421.6</ele>
        <time>2025-10-19T13:04:22Z</time>
      </trkpt>
      <trkpt lat="43.21404" lon="5.47278">
        <ele>421.8</ele>
        <time>2025-10-19T13:04:23Z</time>
      </trkpt>
      <trkpt lat="43.21404" lon="5.47278">
        <ele>421.9</ele>
        <time>2025-10-19T13:04:24Z</time>
      </trkpt>
      <trkpt lat="43.21404" lon="5.47278">
        <ele>422.1</ele>
        <time>2025-10-19T13:04:25Z</time>
      </trkpt>
      <trkpt lat="43.21404" lon="5.47278">
        <ele>422.3</ele>
        <time>2025-10-19T13:04:26Z</time>
      </trkpt>
      <trkpt lat="43.21405" lon="5.47278">
        <ele>422.5</ele>
        <time>2025-10-19T13:04:27Z</time>
      </trkpt>
      <trkpt lat="43.21405" lon="5.47278">
        <ele>422.7</ele>
        <time>2025-10-19T13:04:28Z</time>
      </trkpt>
      <trkpt lat="43.21406" lon="5.47278">
        <ele>422.9</ele>
        <time>2025-10-19T13:04:29Z</time>
      </trkpt>
      <trkpt lat="43.21406" lon="5.47277">
        <ele>423</ele>
        <time>2025-10-19T13:04:30Z</time>
      </trkpt>
      <trkpt lat="43.21406" lon="5.47278">
        <ele>423.1</ele>
        <time>2025-10-19T13:04:31Z</time>
      </trkpt>
      <trkpt lat="43.21406" lon="5.47278">
        <ele>423.2</ele>
        <time>2025-10-19T13:04:32Z</time>
      </trkpt>
      <trkpt lat="43.21406" lon="5.47277">
        <ele>423.4</ele>
        <time>2025-10-19T13:04:33Z</time>
      </trkpt>
      <trkpt lat="43.21405" lon="5.47277">
        <ele>423.5</ele>
        <time>2025-10-19T13:04:34Z</time>
      </trkpt>
      <trkpt lat="43.21405" lon="5.47278">
        <ele>423.5</ele>
        <time>2025-10-19T13:04:35Z</time>
      </trkpt>
      <trkpt lat="43.21406" lon="5.47278">
        <ele>423.6</ele>
        <time>2025-10-19T13:04:36Z</time>
      </trkpt>
      <trkpt lat="43.21406" lon="5.47277">
        <ele>423.6</ele>
        <time>2025-10-19T13:04:37Z</time>
      </trkpt>
      <trkpt lat="43.21407" lon="5.47277">
        <ele>423.8</ele>
        <time>2025-10-19T13:04:38Z</time>
      </trkpt>
      <trkpt lat="43.21407" lon="5.47277">
        <ele>423.9</ele>
        <time>2025-10-19T13:04:39Z</time>
      </trkpt>
      <trkpt lat="43.21407" lon="5.47277">
        <ele>423.9</ele>
        <time>2025-10-19T13:04:40Z</time>
      </trkpt>
      <trkpt lat="43.21407" lon="5.47277">
        <ele>424.1</ele>
        <time>2025-10-19T13:04:41Z</time>
      </trkpt>
      <trkpt lat="43.21407" lon="5.47277">
        <ele>424.2</ele>
        <time>2025-10-19T13:04:42Z</time>
      </trkpt>
      <trkpt lat="43.21407" lon="5.47277">
        <ele>424.3</ele>
        <time>2025-10-19T13:04:43Z</time>
      </trkpt>
      <trkpt lat="43.21407" lon="5.47277">
        <ele>424.3</ele>
        <time>2025-10-19T13:04:44Z</time>
      </trkpt>
      <trkpt lat="43.21407" lon="5.47277">
        <ele>424.4</ele>
        <time>2025-10-19T13:04:45Z</time>
      </trkpt>
      <trkpt lat="43.21408" lon="5.47277">
        <ele>424.6</ele>
        <time>2025-10-19T13:04:46Z</time>
      </trkpt>
      <trkpt lat="43.21408" lon="5.47277">
        <ele>424.8</ele>
        <time>2025-10-19T13:04:47Z</time>
      </trkpt>
      <trkpt lat="43.21408" lon="5.47278">
        <ele>425</ele>
        <time>2025-10-19T13:04:48Z</time>
      </trkpt>
      <trkpt lat="43.21408" lon="5.47278">
        <ele>425.2</ele>
        <time>2025-10-19T13:04:49Z</time>
      </trkpt>
      <trkpt lat="43.21408" lon="5.47278">
        <ele>425.3</ele>
        <time>2025-10-19T13:04:50Z</time>
      </trkpt>
      <trkpt lat="43.21408" lon="5.47278">
        <ele>425.5</ele>
        <time>2025-10-19T13:04:51Z</time>
      </trkpt>
      <trkpt lat="43.21408" lon="5.47278">
        <ele>425.6</ele>
        <time>2025-10-19T13:04:52Z</time>
      </trkpt>
      <trkpt lat="43.21408" lon="5.47278">
        <ele>425.6</ele>
        <time>2025-10-19T13:04:53Z</time>
      </trkpt>
      <trkpt lat="43.21408" lon="5.47278">
        <ele>425.6</ele>
        <time>2025-10-19T13:04:54Z</time>
      </trkpt>
      <trkpt lat="43.21408" lon="5.47278">
        <ele>425.7</ele>
        <time>2025-10-19T13:04:55Z</time>
      </trkpt>
      <trkpt lat="43.21408" lon="5.47279">
        <ele>425.7</ele>
        <time>2025-10-19T13:04:56Z</time>
      </trkpt>
      <trkpt lat="43.21408" lon="5.4728">
        <ele>425.8</ele>
        <time>2025-10-19T13:04:57Z</time>
      </trkpt>
      <trkpt lat="43.21408" lon="5.47281">
        <ele>426</ele>
        <time>2025-10-19T13:04:58Z</time>
      </trkpt>
      <trkpt lat="43.21408" lon="5.47282">
        <ele>426.2</ele>
        <time>2025-10-19T13:04:59Z</time>
      </trkpt>
      <trkpt lat="43.21408" lon="5.47282">
        <ele>426.3</ele>
        <time>2025-10-19T13:05:00Z</time>
      </trkpt>
      <trkpt lat="43.21408" lon="5.47284">
        <ele>426.5</ele>
        <time>2025-10-19T13:05:01Z</time>
      </trkpt>
      <trkpt lat="43.21408" lon="5.47285">
        <ele>426.7</ele>
        <time>2025-10-19T13:05:02Z</time>
      </trkpt>
      <trkpt lat="43.21408" lon="5.47285">
        <ele>427</ele>
        <time>2025-10-19T13:05:03Z</time>
      </trkpt>
      <trkpt lat="43.21408" lon="5.47286">
        <ele>427.1</ele>
        <time>2025-10-19T13:05:04Z</time>
      </trkpt>
      <trkpt lat="43.21409" lon="5.47286">
        <ele>427.4</ele>
        <time>2025-10-19T13:05:05Z</time>
      </trkpt>
      <trkpt lat="43.21409" lon="5.47287">
        <ele>427.7</ele>
        <time>2025-10-19T13:05:06Z</time>
      </trkpt>
      <trkpt lat="43.2141" lon="5.47287">
        <ele>427.9</ele>
        <time>2025-10-19T13:05:07Z</time>
      </trkpt>
      <trkpt lat="43.2141" lon="5.47287">
        <ele>428.2</ele>
        <time>2025-10-19T13:05:08Z</time>
      </trkpt>
      <trkpt lat="43.2141" lon="5.47287">
        <ele>428.4</ele>
        <time>2025-10-19T13:05:09Z</time>
      </trkpt>
      <trkpt lat="43.2141" lon="5.47287">
        <ele>428.5</ele>
        <time>2025-10-19T13:05:10Z</time>
      </trkpt>
      <trkpt lat="43.2141" lon="5.47287">
        <ele>428.8</ele>
        <time>2025-10-19T13:05:11Z</time>
      </trkpt>
      <trkpt lat="43.21411" lon="5.47287">
        <ele>429</ele>
        <time>2025-10-19T13:05:12Z</time>
      </trkpt>
      <trkpt lat="43.21411" lon="5.47287">
        <ele>429.3</ele>
        <time>2025-10-19T13:05:13Z</time>
      </trkpt>
      <trkpt lat="43.21412" lon="5.47287">
        <ele>429.5</ele>
        <time>2025-10-19T13:05:14Z</time>
      </trkpt>
      <trkpt lat="43.21413" lon="5.47288">
        <ele>429.8</ele>
        <time>2025-10-19T13:05:15Z</time>
      </trkpt>
      <trkpt lat="43.21413" lon="5.47288">
        <ele>430.1</ele>
        <time>2025-10-19T13:05:16Z</time>
      </trkpt>
      <trkpt lat="43.21413" lon="5.47288">
        <ele>430.3</ele>
        <time>2025-10-19T13:05:17Z</time>
      </trkpt>
      <trkpt lat="43.21413" lon="5.47288">
        <ele>430.6</ele>
        <time>2025-10-19T13:05:18Z</time>
      </trkpt>
      <trkpt lat="43.21413" lon="5.47288">
        <ele>430.8</ele>
        <time>2025-10-19T13:05:19Z</time>
      </trkpt>
      <trkpt lat="43.21414" lon="5.47288">
        <ele>431</ele>
        <time>2025-10-19T13:05:20Z</time>
      </trkpt>
      <trkpt lat="43.21414" lon="5.47288">
        <ele>431.1</ele>
        <time>2025-10-19T13:05:21Z</time>
      </trkpt>
      <trkpt lat="43.21414" lon="5.47288">
        <ele>431.2</ele>
        <time>2025-10-19T13:05:22Z</time>
      </trkpt>
      <trkpt lat="43.21414" lon="5.47287">
        <ele>431.2</ele>
        <time>2025-10-19T13:05:23Z</time>
      </trkpt>
      <trkpt lat="43.21414" lon="5.47287">
        <ele>431.3</ele>
        <time>2025-10-19T13:05:24Z</time>
      </trkpt>
      <trkpt lat="43.21414" lon="5.47287">
        <ele>431.3</ele>
        <time>2025-10-19T13:05:25Z</time>
      </trkpt>
      <trkpt lat="43.21414" lon="5.47287">
        <ele>431.5</ele>
        <time>2025-10-19T13:05:26Z</time>
      </trkpt>
      <trkpt lat="43.21415" lon="5.47287">
        <ele>431.5</ele>
        <time>2025-10-19T13:05:27Z</time>
      </trkpt>
      <trkpt lat="43.21415" lon="5.47287">
        <ele>431.5</ele>
        <time>2025-10-19T13:05:28Z</time>
      </trkpt>
      <trkpt lat="43.21415" lon="5.47287">
        <ele>431.6</ele>
        <time>2025-10-19T13:05:29Z</time>
      </trkpt>
      <trkpt lat="43.21415" lon="5.47287">
        <ele>431.6</ele>
        <time>2025-10-19T13:05:30Z</time>
      </trkpt>
      <trkpt lat="43.21415" lon="5.47287">
        <ele>431.7</ele>
        <time>2025-10-19T13:05:31Z</time>
      </trkpt>
      <trkpt lat="43.21415" lon="5.47287">
        <ele>431.7</ele>
        <time>2025-10-19T13:05:32Z</time>
      </trkpt>
      <trkpt lat="43.21415" lon="5.47287">
        <ele>431.7</ele>
        <time>2025-10-19T13:05:33Z</time>
      </trkpt>
      <trkpt lat="43.21415" lon="5.47287">
        <ele>431.9</ele>
        <time>2025-10-19T13:05:34Z</time>
      </trkpt>
      <trkpt lat="43.21415" lon="5.47286">
        <ele>431.8</ele>
        <time>2025-10-19T13:05:35Z</time>
      </trkpt>
      <trkpt lat="43.21415" lon="5.47286">
        <ele>431.7</ele>
        <time>2025-10-19T13:05:36Z</time>
      </trkpt>
      <trkpt lat="43.21415" lon="5.47286">
        <ele>431.7</ele>
        <time>2025-10-19T13:05:37Z</time>
      </trkpt>
      <trkpt lat="43.21415" lon="5.47286">
        <ele>431.6</ele>
        <time>2025-10-19T13:05:38Z</time>
      </trkpt>
      <trkpt lat="43.21415" lon="5.47286">
        <ele>431.6</ele>
        <time>2025-10-19T13:05:39Z</time>
      </trkpt>
      <trkpt lat="43.21415" lon="5.47286">
        <ele>431.6</ele>
        <time>2025-10-19T13:05:40Z</time>
      </trkpt>
      <trkpt lat="43.21415" lon="5.47286">
        <ele>431.6</ele>
        <time>2025-10-19T13:05:41Z</time>
      </trkpt>
      <trkpt lat="43.21416" lon="5.47286">
        <ele>431.5</ele>
        <time>2025-10-19T13:05:42Z</time>
      </trkpt>
      <trkpt lat="43.21416" lon="5.47286">
        <ele>431.4</ele>
        <time>2025-10-19T13:05:43Z</time>
      </trkpt>
      <trkpt lat="43.21416" lon="5.47286">
        <ele>431.3</ele>
        <time>2025-10-19T13:05:44Z</time>
      </trkpt>
      <trkpt lat="43.21415" lon="5.47286">
        <ele>431.3</ele>
        <time>2025-10-19T13:05:45Z</time>
      </trkpt>
      <trkpt lat="43.21416" lon="5.47286">
        <ele>431.3</ele>
        <time>2025-10-19T13:05:46Z</time>
      </trkpt>
      <trkpt lat="43.21416" lon="5.47286">
        <ele>431.2</ele>
        <time>2025-10-19T13:05:47Z</time>
      </trkpt>
      <trkpt lat="43.21416" lon="5.47286">
        <ele>431.2</ele>
        <time>2025-10-19T13:05:48Z</time>
      </trkpt>
      <trkpt lat="43.21416" lon="5.47286">
        <ele>431.2</ele>
        <time>2025-10-19T13:05:49Z</time>
      </trkpt>
      <trkpt lat="43.21416" lon="5.47286">
        <ele>431.3</ele>
        <time>2025-10-19T13:05:50Z</time>
      </trkpt>
      <trkpt lat="43.21416" lon="5.47286">
        <ele>431.3</ele>
        <time>2025-10-19T13:05:51Z</time>
      </trkpt>
      <trkpt lat="43.21416" lon="5.47286">
        <ele>431.2</ele>
        <time>2025-10-19T13:05:52Z</time>
      </trkpt>
      <trkpt lat="43.21416" lon="5.47286">
        <ele>431.2</ele>
        <time>2025-10-19T13:05:53Z</time>
      </trkpt>
      <trkpt lat="43.21416" lon="5.47286">
        <ele>431.1</ele>
        <time>2025-10-19T13:05:54Z</time>
      </trkpt>
      <trkpt lat="43.21416" lon="5.47285">
        <ele>431.1</ele>
        <time>2025-10-19T13:05:55Z</time>
      </trkpt>
      <trkpt lat="43.21416" lon="5.47285">
        <ele>431.2</ele>
        <time>2025-10-19T13:05:56Z</time>
      </trkpt>
      <trkpt lat="43.21416" lon="5.47285">
        <ele>431.3</ele>
        <time>2025-10-19T13:05:57Z</time>
      </trkpt>
      <trkpt lat="43.21416" lon="5.47285">
        <ele>431.4</ele>
        <time>2025-10-19T13:05:58Z</time>
      </trkpt>
      <trkpt lat="43.21417" lon="5.47286">
        <ele>431.4</ele>
        <time>2025-10-19T13:05:59Z</time>
      </trkpt>
      <trkpt lat="43.21417" lon="5.47286">
        <ele>431.4</ele>
        <time>2025-10-19T13:06:00Z</time>
      </trkpt>
      <trkpt lat="43.21417" lon="5.47286">
        <ele>431.3</ele>
        <time>2025-10-19T13:06:01Z</time>
      </trkpt>
      <trkpt lat="43.21417" lon="5.47286">
        <ele>431.3</ele>
        <time>2025-10-19T13:06:02Z</time>
      </trkpt>
      <trkpt lat="43.21416" lon="5.47286">
        <ele>431.3</ele>
        <time>2025-10-19T13:06:03Z</time>
      </trkpt>
      <trkpt lat="43.21416" lon="5.47286">
        <ele>431.3</ele>
        <time>2025-10-19T13:06:04Z</time>
      </trkpt>
      <trkpt lat="43.21416" lon="5.47286">
        <ele>431.4</ele>
        <time>2025-10-19T13:06:05Z</time>
      </trkpt>
      <trkpt lat="43.21416" lon="5.47286">
        <ele>431.4</ele>
        <time>2025-10-19T13:06:06Z</time>
      </trkpt>
      <trkpt lat="43.21416" lon="5.47286">
        <ele>431.3</ele>
        <time>2025-10-19T13:06:07Z</time>
      </trkpt>
      <trkpt lat="43.21416" lon="5.47286">
        <ele>431.3</ele>
        <time>2025-10-19T13:06:08Z</time>
      </trkpt>
      <trkpt lat="43.21416" lon="5.47285">
        <ele>431.3</ele>
        <time>2025-10-19T13:06:09Z</time>
      </trkpt>
      <trkpt lat="43.21416" lon="5.47285">
        <ele>431.3</ele>
        <time>2025-10-19T13:06:10Z</time>
      </trkpt>
      <trkpt lat="43.21416" lon="5.47285">
        <ele>431.3</ele>
        <time>2025-10-19T13:06:11Z</time>
      </trkpt>
      <trkpt lat="43.21416" lon="5.47285">
        <ele>431.4</ele>
        <time>2025-10-19T13:06:12Z</time>
      </trkpt>
      <trkpt lat="43.21416" lon="5.47285">
        <ele>431.4</ele>
        <time>2025-10-19T13:06:13Z</time>
      </trkpt>
      <trkpt lat="43.21416" lon="5.47285">
        <ele>431.4</ele>
        <time>2025-10-19T13:06:14Z</time>
      </trkpt>
      <trkpt lat="43.21416" lon="5.47285">
        <ele>431.5</ele>
        <time>2025-10-19T13:06:15Z</time>
      </trkpt>
      <trkpt lat="43.21416" lon="5.47285">
        <ele>431.5</ele>
        <time>2025-10-19T13:06:16Z</time>
      </trkpt>
      <trkpt lat="43.21416" lon="5.47285">
        <ele>431.5</ele>
        <time>2025-10-19T13:06:17Z</time>
      </trkpt>
      <trkpt lat="43.21416" lon="5.47285">
        <ele>431.5</ele>
        <time>2025-10-19T13:06:18Z</time>
      </trkpt>
      <trkpt lat="43.21416" lon="5.47285">
        <ele>431.5</ele>
        <time>2025-10-19T13:06:19Z</time>
      </trkpt>
      <trkpt lat="43.21416" lon="5.47285">
        <ele>431.5</ele>
        <time>2025-10-19T13:06:20Z</time>
      </trkpt>
      <trkpt lat="43.21416" lon="5.47285">
        <ele>431.5</ele>
        <time>2025-10-19T13:06:21Z</time>
      </trkpt>
      <trkpt lat="43.21416" lon="5.47285">
        <ele>431.5</ele>
        <time>2025-10-19T13:06:22Z</time>
      </trkpt>
      <trkpt lat="43.21417" lon="5.47285">
        <ele>431.5</ele>
        <time>2025-10-19T13:06:23Z</time>
      </trkpt>
      <trkpt lat="43.21417" lon="5.47285">
        <ele>431.5</ele>
        <time>2025-10-19T13:06:24Z</time>
      </trkpt>
      <trkpt lat="43.21417" lon="5.47285">
        <ele>431.4</ele>
        <time>2025-10-19T13:06:25Z</time>
      </trkpt>
      <trkpt lat="43.21417" lon="5.47285">
        <ele>431.3</ele>
        <time>2025-10-19T13:06:26Z</time>
      </trkpt>
      <trkpt lat="43.21417" lon="5.47285">
        <ele>431.4</ele>
        <time>2025-10-19T13:06:27Z</time>
      </trkpt>
      <trkpt lat="43.21417" lon="5.47284">
        <ele>431.5</ele>
        <time>2025-10-19T13:06:28Z</time>
      </trkpt>
      <trkpt lat="43.21417" lon="5.47284">
        <ele>431.6</ele>
        <time>2025-10-19T13:06:29Z</time>
      </trkpt>
      <trkpt lat="43.21417" lon="5.47283">
        <ele>431.6</ele>
        <time>2025-10-19T13:06:30Z</time>
      </trkpt>
      <trkpt lat="43.21417" lon="5.47283">
        <ele>431.6</ele>
        <time>2025-10-19T13:06:31Z</time>
      </trkpt>
      <trkpt lat="43.21417" lon="5.47283">
        <ele>431.6</ele>
        <time>2025-10-19T13:06:32Z</time>
      </trkpt>
      <trkpt lat="43.21417" lon="5.47283">
        <ele>431.6</ele>
        <time>2025-10-19T13:06:33Z</time>
      </trkpt>
      <trkpt lat="43.21416" lon="5.47283">
        <ele>431.5</ele>
        <time>2025-10-19T13:06:34Z</time>
      </trkpt>
      <trkpt lat="43.21416" lon="5.47283">
        <ele>431.4</ele>
        <time>2025-10-19T13:06:35Z</time>
      </trkpt>
      <trkpt lat="43.21416" lon="5.47283">
        <ele>431.3</ele>
        <time>2025-10-19T13:06:36Z</time>
      </trkpt>
      <trkpt lat="43.21416" lon="5.47283">
        <ele>431.2</ele>
        <time>2025-10-19T13:06:37Z</time>
      </trkpt>
      <trkpt lat="43.21416" lon="5.47283">
        <ele>431.2</ele>
        <time>2025-10-19T13:06:38Z</time>
      </trkpt>
      <trkpt lat="43.21416" lon="5.47283">
        <ele>431.1</ele>
        <time>2025-10-19T13:06:39Z</time>
      </trkpt>
      <trkpt lat="43.21416" lon="5.47282">
        <ele>431.1</ele>
        <time>2025-10-19T13:06:40Z</time>
      </trkpt>
      <trkpt lat="43.21416" lon="5.47282">
        <ele>431.1</ele>
        <time>2025-10-19T13:06:41Z</time>
      </trkpt>
      <trkpt lat="43.21416" lon="5.47282">
        <ele>431.1</ele>
        <time>2025-10-19T13:06:42Z</time>
      </trkpt>
      <trkpt lat="43.21416" lon="5.47282">
        <ele>431</ele>
        <time>2025-10-19T13:06:43Z</time>
      </trkpt>
      <trkpt lat="43.21416" lon="5.47282">
        <ele>431</ele>
        <time>2025-10-19T13:06:44Z</time>
      </trkpt>
      <trkpt lat="43.21416" lon="5.47282">
        <ele>430.9</ele>
        <time>2025-10-19T13:06:45Z</time>
      </trkpt>
      <trkpt lat="43.21416" lon="5.47282">
        <ele>430.7</ele>
        <time>2025-10-19T13:06:46Z</time>
      </trkpt>
      <trkpt lat="43.21416" lon="5.47282">
        <ele>430.6</ele>
        <time>2025-10-19T13:06:47Z</time>
      </trkpt>
      <trkpt lat="43.21416" lon="5.47283">
        <ele>430.5</ele>
        <time>2025-10-19T13:06:48Z</time>
      </trkpt>
      <trkpt lat="43.21416" lon="5.47282">
        <ele>430.5</ele>
        <time>2025-10-19T13:06:49Z</time>
      </trkpt>
      <trkpt lat="43.21416" lon="5.47282">
        <ele>430.6</ele>
        <time>2025-10-19T13:06:50Z</time>
      </trkpt>
      <trkpt lat="43.21416" lon="5.47283">
        <ele>430.7</ele>
        <time>2025-10-19T13:06:51Z</time>
      </trkpt>
      <trkpt lat="43.21416" lon="5.47283">
        <ele>430.6</ele>
        <time>2025-10-19T13:06:52Z</time>
      </trkpt>
      <trkpt lat="43.21416" lon="5.47283">
        <ele>430.6</ele>
        <time>2025-10-19T13:06:53Z</time>
      </trkpt>
      <trkpt lat="43.21416" lon="5.47283">
        <ele>430.6</ele>
        <time>2025-10-19T13:06:54Z</time>
      </trkpt>
      <trkpt lat="43.21416" lon="5.47282">
        <ele>430.5</ele>
        <time>2025-10-19T13:06:55Z</time>
      </trkpt>
      <trkpt lat="43.21416" lon="5.47282">
        <ele>430.5</ele>
        <time>2025-10-19T13:06:56Z</time>
      </trkpt>
      <trkpt lat="43.21417" lon="5.47282">
        <ele>430.5</ele>
        <time>2025-10-19T13:06:57Z</time>
      </trkpt>
      <trkpt lat="43.21417" lon="5.47282">
        <ele>430.5</ele>
        <time>2025-10-19T13:06:58Z</time>
      </trkpt>
      <trkpt lat="43.21417" lon="5.47282">
        <ele>430.5</ele>
        <time>2025-10-19T13:06:59Z</time>
      </trkpt>
      <trkpt lat="43.21417" lon="5.47282">
        <ele>430.7</ele>
        <time>2025-10-19T13:07:00Z</time>
      </trkpt>
      <trkpt lat="43.21417" lon="5.47282">
        <ele>430.8</ele>
        <time>2025-10-19T13:07:01Z</time>
      </trkpt>
      <trkpt lat="43.21417" lon="5.47281">
        <ele>431</ele>
        <time>2025-10-19T13:07:02Z</time>
      </trkpt>
      <trkpt lat="43.21418" lon="5.4728">
        <ele>431.1</ele>
        <time>2025-10-19T13:07:03Z</time>
      </trkpt>
      <trkpt lat="43.21419" lon="5.47279">
        <ele>431.2</ele>
        <time>2025-10-19T13:07:04Z</time>
      </trkpt>
      <trkpt lat="43.21419" lon="5.47278">
        <ele>431.3</ele>
        <time>2025-10-19T13:07:05Z</time>
      </trkpt>
      <trkpt lat="43.21419" lon="5.47278">
        <ele>431.4</ele>
        <time>2025-10-19T13:07:06Z</time>
      </trkpt>
      <trkpt lat="43.21419" lon="5.47278">
        <ele>431.6</ele>
        <time>2025-10-19T13:07:07Z</time>
      </trkpt>
      <trkpt lat="43.21419" lon="5.47277">
        <ele>431.7</ele>
        <time>2025-10-19T13:07:08Z</time>
      </trkpt>
      <trkpt lat="43.21419" lon="5.47277">
        <ele>431.8</ele>
        <time>2025-10-19T13:07:09Z</time>
      </trkpt>
      <trkpt lat="43.21418" lon="5.47277">
        <ele>431.8</ele>
        <time>2025-10-19T13:07:10Z</time>
      </trkpt>
      <trkpt lat="43.21418" lon="5.47276">
        <ele>431.7</ele>
        <time>2025-10-19T13:07:11Z</time>
      </trkpt>
      <trkpt lat="43.21418" lon="5.47275">
        <ele>431.6</ele>
        <time>2025-10-19T13:07:12Z</time>
      </trkpt>
      <trkpt lat="43.21419" lon="5.47274">
        <ele>431.6</ele>
        <time>2025-10-19T13:07:13Z</time>
      </trkpt>
      <trkpt lat="43.21419" lon="5.47273">
        <ele>431.4</ele>
        <time>2025-10-19T13:07:14Z</time>
      </trkpt>
      <trkpt lat="43.2142" lon="5.47272">
        <ele>431.3</ele>
        <time>2025-10-19T13:07:15Z</time>
      </trkpt>
      <trkpt lat="43.2142" lon="5.47271">
        <ele>431.4</ele>
        <time>2025-10-19T13:07:16Z</time>
      </trkpt>
      <trkpt lat="43.2142" lon="5.4727">
        <ele>431.4</ele>
        <time>2025-10-19T13:07:17Z</time>
      </trkpt>
      <trkpt lat="43.21421" lon="5.47269">
        <ele>431.4</ele>
        <time>2025-10-19T13:07:18Z</time>
      </trkpt>
      <trkpt lat="43.21421" lon="5.47267">
        <ele>431.4</ele>
        <time>2025-10-19T13:07:19Z</time>
      </trkpt>
      <trkpt lat="43.21421" lon="5.47266">
        <ele>431.6</ele>
        <time>2025-10-19T13:07:20Z</time>
      </trkpt>
      <trkpt lat="43.21422" lon="5.47265">
        <ele>431.8</ele>
        <time>2025-10-19T13:07:21Z</time>
      </trkpt>
      <trkpt lat="43.21422" lon="5.47265">
        <ele>431.9</ele>
        <time>2025-10-19T13:07:22Z</time>
      </trkpt>
      <trkpt lat="43.21422" lon="5.47264">
        <ele>432.1</ele>
        <time>2025-10-19T13:07:23Z</time>
      </trkpt>
      <trkpt lat="43.21423" lon="5.47264">
        <ele>432.2</ele>
        <time>2025-10-19T13:07:24Z</time>
      </trkpt>
      <trkpt lat="43.21423" lon="5.47264">
        <ele>432.4</ele>
        <time>2025-10-19T13:07:25Z</time>
      </trkpt>
      <trkpt lat="43.21423" lon="5.47263">
        <ele>432.7</ele>
        <time>2025-10-19T13:07:26Z</time>
      </trkpt>
      <trkpt lat="43.21424" lon="5.47263">
        <ele>432.8</ele>
        <time>2025-10-19T13:07:27Z</time>
      </trkpt>
      <trkpt lat="43.21424" lon="5.47263">
        <ele>433</ele>
        <time>2025-10-19T13:07:28Z</time>
      </trkpt>
      <trkpt lat="43.21425" lon="5.47262">
        <ele>433.2</ele>
        <time>2025-10-19T13:07:29Z</time>
      </trkpt>
      <trkpt lat="43.21425" lon="5.47262">
        <ele>433.4</ele>
        <time>2025-10-19T13:07:30Z</time>
      </trkpt>
      <trkpt lat="43.21425" lon="5.47263">
        <ele>433.7</ele>
        <time>2025-10-19T13:07:31Z</time>
      </trkpt>
      <trkpt lat="43.21425" lon="5.47264">
        <ele>433.8</ele>
        <time>2025-10-19T13:07:32Z</time>
      </trkpt>
      <trkpt lat="43.21425" lon="5.47265">
        <ele>434.1</ele>
        <time>2025-10-19T13:07:33Z</time>
      </trkpt>
      <trkpt lat="43.21425" lon="5.47266">
        <ele>434.3</ele>
        <time>2025-10-19T13:07:34Z</time>
      </trkpt>
      <trkpt lat="43.21425" lon="5.47266">
        <ele>434.5</ele>
        <time>2025-10-19T13:07:35Z</time>
      </trkpt>
      <trkpt lat="43.21425" lon="5.47267">
        <ele>434.7</ele>
        <time>2025-10-19T13:07:36Z</time>
      </trkpt>
      <trkpt lat="43.21426" lon="5.47267">
        <ele>434.8</ele>
        <time>2025-10-19T13:07:37Z</time>
      </trkpt>
      <trkpt lat="43.21426" lon="5.47268">
        <ele>435</ele>
        <time>2025-10-19T13:07:38Z</time>
      </trkpt>
      <trkpt lat="43.21426" lon="5.47268">
        <ele>435.2</ele>
        <time>2025-10-19T13:07:39Z</time>
      </trkpt>
      <trkpt lat="43.21426" lon="5.47269">
        <ele>435.4</ele>
        <time>2025-10-19T13:07:40Z</time>
      </trkpt>
      <trkpt lat="43.21427" lon="5.47268">
        <ele>435.6</ele>
        <time>2025-10-19T13:07:41Z</time>
      </trkpt>
      <trkpt lat="43.21427" lon="5.47267">
        <ele>435.8</ele>
        <time>2025-10-19T13:07:42Z</time>
      </trkpt>
      <trkpt lat="43.21428" lon="5.47267">
        <ele>436</ele>
        <time>2025-10-19T13:07:43Z</time>
      </trkpt>
      <trkpt lat="43.21428" lon="5.47267">
        <ele>436</ele>
        <time>2025-10-19T13:07:44Z</time>
      </trkpt>
      <trkpt lat="43.21427" lon="5.47266">
        <ele>436.1</ele>
        <time>2025-10-19T13:07:45Z</time>
      </trkpt>
      <trkpt lat="43.21427" lon="5.47266">
        <ele>436.1</ele>
        <time>2025-10-19T13:07:46Z</time>
      </trkpt>
      <trkpt lat="43.21428" lon="5.47266">
        <ele>436.2</ele>
        <time>2025-10-19T13:07:47Z</time>
      </trkpt>
      <trkpt lat="43.21428" lon="5.47266">
        <ele>436.2</ele>
        <time>2025-10-19T13:07:48Z</time>
      </trkpt>
      <trkpt lat="43.21428" lon="5.47266">
        <ele>436.2</ele>
        <time>2025-10-19T13:07:49Z</time>
      </trkpt>
      <trkpt lat="43.21429" lon="5.47266">
        <ele>436.3</ele>
        <time>2025-10-19T13:07:50Z</time>
      </trkpt>
      <trkpt lat="43.2143" lon="5.47266">
        <ele>436.4</ele>
        <time>2025-10-19T13:07:51Z</time>
      </trkpt>
      <trkpt lat="43.2143" lon="5.47265">
        <ele>436.7</ele>
        <time>2025-10-19T13:07:52Z</time>
      </trkpt>
      <trkpt lat="43.2143" lon="5.47265">
        <ele>436.9</ele>
        <time>2025-10-19T13:07:53Z</time>
      </trkpt>
      <trkpt lat="43.2143" lon="5.47264">
        <ele>437.1</ele>
        <time>2025-10-19T13:07:54Z</time>
      </trkpt>
      <trkpt lat="43.21431" lon="5.47263">
        <ele>437.4</ele>
        <time>2025-10-19T13:07:55Z</time>
      </trkpt>
      <trkpt lat="43.21431" lon="5.47263">
        <ele>437.7</ele>
        <time>2025-10-19T13:07:56Z</time>
      </trkpt>
      <trkpt lat="43.21431" lon="5.47262">
        <ele>437.9</ele>
        <time>2025-10-19T13:07:57Z</time>
      </trkpt>
      <trkpt lat="43.21432" lon="5.47262">
        <ele>438.3</ele>
        <time>2025-10-19T13:07:58Z</time>
      </trkpt>
      <trkpt lat="43.21433" lon="5.47262">
        <ele>438.5</ele>
        <time>2025-10-19T13:07:59Z</time>
      </trkpt>
      <trkpt lat="43.21433" lon="5.47261">
        <ele>438.7</ele>
        <time>2025-10-19T13:08:00Z</time>
      </trkpt>
      <trkpt lat="43.21433" lon="5.47261">
        <ele>438.8</ele>
        <time>2025-10-19T13:08:01Z</time>
      </trkpt>
      <trkpt lat="43.21433" lon="5.4726">
        <ele>439</ele>
        <time>2025-10-19T13:08:02Z</time>
      </trkpt>
      <trkpt lat="43.21434" lon="5.47259">
        <ele>439.1</ele>
        <time>2025-10-19T13:08:03Z</time>
      </trkpt>
      <trkpt lat="43.21434" lon="5.47259">
        <ele>439.3</ele>
        <time>2025-10-19T13:08:04Z</time>
      </trkpt>
      <trkpt lat="43.21434" lon="5.47258">
        <ele>439.5</ele>
        <time>2025-10-19T13:08:05Z</time>
      </trkpt>
      <trkpt lat="43.21434" lon="5.47259">
        <ele>439.7</ele>
        <time>2025-10-19T13:08:06Z</time>
      </trkpt>
      <trkpt lat="43.21434" lon="5.47258">
        <ele>440</ele>
        <time>2025-10-19T13:08:07Z</time>
      </trkpt>
      <trkpt lat="43.21435" lon="5.47258">
        <ele>440.4</ele>
        <time>2025-10-19T13:08:08Z</time>
      </trkpt>
      <trkpt lat="43.21435" lon="5.47258">
        <ele>440.8</ele>
        <time>2025-10-19T13:08:09Z</time>
      </trkpt>
      <trkpt lat="43.21435" lon="5.47257">
        <ele>441.3</ele>
        <time>2025-10-19T13:08:10Z</time>
      </trkpt>
      <trkpt lat="43.21436" lon="5.47257">
        <ele>441.6</ele>
        <time>2025-10-19T13:08:11Z</time>
      </trkpt>
      <trkpt lat="43.21436" lon="5.47257">
        <ele>441.9</ele>
        <time>2025-10-19T13:08:12Z</time>
      </trkpt>
      <trkpt lat="43.21437" lon="5.47257">
        <ele>442.2</ele>
        <time>2025-10-19T13:08:13Z</time>
      </trkpt>
      <trkpt lat="43.21437" lon="5.47256">
        <ele>442.7</ele>
        <time>2025-10-19T13:08:14Z</time>
      </trkpt>
      <trkpt lat="43.21438" lon="5.47256">
        <ele>443</ele>
        <time>2025-10-19T13:08:15Z</time>
      </trkpt>
      <trkpt lat="43.21438" lon="5.47255">
        <ele>443.2</ele>
        <time>2025-10-19T13:08:16Z</time>
      </trkpt>
      <trkpt lat="43.21439" lon="5.47254">
        <ele>443.4</ele>
        <time>2025-10-19T13:08:17Z</time>
      </trkpt>
      <trkpt lat="43.21439" lon="5.47254">
        <ele>443.6</ele>
        <time>2025-10-19T13:08:18Z</time>
      </trkpt>
      <trkpt lat="43.2144" lon="5.47253">
        <ele>443.8</ele>
        <time>2025-10-19T13:08:19Z</time>
      </trkpt>
      <trkpt lat="43.2144" lon="5.47252">
        <ele>444</ele>
        <time>2025-10-19T13:08:20Z</time>
      </trkpt>
      <trkpt lat="43.2144" lon="5.47252">
        <ele>444.1</ele>
        <time>2025-10-19T13:08:21Z</time>
      </trkpt>
      <trkpt lat="43.2144" lon="5.47252">
        <ele>444.4</ele>
        <time>2025-10-19T13:08:22Z</time>
      </trkpt>
      <trkpt lat="43.21441" lon="5.47251">
        <ele>444.6</ele>
        <time>2025-10-19T13:08:23Z</time>
      </trkpt>
      <trkpt lat="43.21441" lon="5.4725">
        <ele>444.8</ele>
        <time>2025-10-19T13:08:24Z</time>
      </trkpt>
      <trkpt lat="43.21442" lon="5.4725">
        <ele>445.1</ele>
        <time>2025-10-19T13:08:25Z</time>
      </trkpt>
      <trkpt lat="43.21442" lon="5.47249">
        <ele>445.4</ele>
        <time>2025-10-19T13:08:26Z</time>
      </trkpt>
      <trkpt lat="43.21443" lon="5.47249">
        <ele>445.6</ele>
        <time>2025-10-19T13:08:27Z</time>
      </trkpt>
      <trkpt lat="43.21443" lon="5.47248">
        <ele>445.8</ele>
        <time>2025-10-19T13:08:28Z</time>
      </trkpt>
      <trkpt lat="43.21444" lon="5.47248">
        <ele>446</ele>
        <time>2025-10-19T13:08:29Z</time>
      </trkpt>
      <trkpt lat="43.21444" lon="5.47248">
        <ele>446.2</ele>
        <time>2025-10-19T13:08:30Z</time>
      </trkpt>
      <trkpt lat="43.21444" lon="5.47248">
        <ele>446.3</ele>
        <time>2025-10-19T13:08:31Z</time>
      </trkpt>
      <trkpt lat="43.21444" lon="5.47248">
        <ele>446.4</ele>
        <time>2025-10-19T13:08:32Z</time>
      </trkpt>
      <trkpt lat="43.21444" lon="5.47247">
        <ele>446.5</ele>
        <time>2025-10-19T13:08:33Z</time>
      </trkpt>
      <trkpt lat="43.21445" lon="5.47247">
        <ele>446.6</ele>
        <time>2025-10-19T13:08:34Z</time>
      </trkpt>
      <trkpt lat="43.21445" lon="5.47246">
        <ele>446.8</ele>
        <time>2025-10-19T13:08:35Z</time>
      </trkpt>
      <trkpt lat="43.21445" lon="5.47245">
        <ele>447</ele>
        <time>2025-10-19T13:08:36Z</time>
      </trkpt>
      <trkpt lat="43.21445" lon="5.47244">
        <ele>447.2</ele>
        <time>2025-10-19T13:08:37Z</time>
      </trkpt>
      <trkpt lat="43.21446" lon="5.47244">
        <ele>447.3</ele>
        <time>2025-10-19T13:08:38Z</time>
      </trkpt>
      <trkpt lat="43.21446" lon="5.47243">
        <ele>447.6</ele>
        <time>2025-10-19T13:08:39Z</time>
      </trkpt>
      <trkpt lat="43.21446" lon="5.47242">
        <ele>447.8</ele>
        <time>2025-10-19T13:08:40Z</time>
      </trkpt>
      <trkpt lat="43.21446" lon="5.47242">
        <ele>448.1</ele>
        <time>2025-10-19T13:08:41Z</time>
      </trkpt>
      <trkpt lat="43.21447" lon="5.47241">
        <ele>448.3</ele>
        <time>2025-10-19T13:08:42Z</time>
      </trkpt>
      <trkpt lat="43.21447" lon="5.4724">
        <ele>448.5</ele>
        <time>2025-10-19T13:08:43Z</time>
      </trkpt>
      <trkpt lat="43.21447" lon="5.47239">
        <ele>448.7</ele>
        <time>2025-10-19T13:08:44Z</time>
      </trkpt>
      <trkpt lat="43.21447" lon="5.47239">
        <ele>448.9</ele>
        <time>2025-10-19T13:08:45Z</time>
      </trkpt>
      <trkpt lat="43.21447" lon="5.47239">
        <ele>449</ele>
        <time>2025-10-19T13:08:46Z</time>
      </trkpt>
      <trkpt lat="43.21448" lon="5.47238">
        <ele>449</ele>
        <time>2025-10-19T13:08:47Z</time>
      </trkpt>
      <trkpt lat="43.21448" lon="5.47237">
        <ele>449.1</ele>
        <time>2025-10-19T13:08:48Z</time>
      </trkpt>
      <trkpt lat="43.21448" lon="5.47236">
        <ele>449.2</ele>
        <time>2025-10-19T13:08:49Z</time>
      </trkpt>
      <trkpt lat="43.21448" lon="5.47235">
        <ele>449.4</ele>
        <time>2025-10-19T13:08:50Z</time>
      </trkpt>
      <trkpt lat="43.21448" lon="5.47234">
        <ele>449.5</ele>
        <time>2025-10-19T13:08:51Z</time>
      </trkpt>
      <trkpt lat="43.21448" lon="5.47234">
        <ele>449.6</ele>
        <time>2025-10-19T13:08:52Z</time>
      </trkpt>
      <trkpt lat="43.21448" lon="5.47234">
        <ele>449.7</ele>
        <time>2025-10-19T13:08:53Z</time>
      </trkpt>
      <trkpt lat="43.21449" lon="5.47234">
        <ele>449.8</ele>
        <time>2025-10-19T13:08:54Z</time>
      </trkpt>
      <trkpt lat="43.21449" lon="5.47234">
        <ele>449.8</ele>
        <time>2025-10-19T13:08:55Z</time>
      </trkpt>
      <trkpt lat="43.21449" lon="5.47234">
        <ele>449.8</ele>
        <time>2025-10-19T13:08:56Z</time>
      </trkpt>
      <trkpt lat="43.21449" lon="5.47233">
        <ele>449.8</ele>
        <time>2025-10-19T13:08:57Z</time>
      </trkpt>
      <trkpt lat="43.21449" lon="5.47232">
        <ele>449.8</ele>
        <time>2025-10-19T13:08:58Z</time>
      </trkpt>
      <trkpt lat="43.21449" lon="5.4723">
        <ele>449.8</ele>
        <time>2025-10-19T13:08:59Z</time>
      </trkpt>
      <trkpt lat="43.21449" lon="5.47229">
        <ele>449.9</ele>
        <time>2025-10-19T13:09:00Z</time>
      </trkpt>
      <trkpt lat="43.21449" lon="5.47227">
        <ele>449.9</ele>
        <time>2025-10-19T13:09:01Z</time>
      </trkpt>
      <trkpt lat="43.21449" lon="5.47226">
        <ele>449.9</ele>
        <time>2025-10-19T13:09:02Z</time>
      </trkpt>
      <trkpt lat="43.21449" lon="5.47226">
        <ele>449.9</ele>
        <time>2025-10-19T13:09:03Z</time>
      </trkpt>
      <trkpt lat="43.21449" lon="5.47225">
        <ele>450</ele>
        <time>2025-10-19T13:09:04Z</time>
      </trkpt>
      <trkpt lat="43.21449" lon="5.47225">
        <ele>450.1</ele>
        <time>2025-10-19T13:09:05Z</time>
      </trkpt>
      <trkpt lat="43.2145" lon="5.47225">
        <ele>450.1</ele>
        <time>2025-10-19T13:09:06Z</time>
      </trkpt>
      <trkpt lat="43.2145" lon="5.47225">
        <ele>450.2</ele>
        <time>2025-10-19T13:09:07Z</time>
      </trkpt>
      <trkpt lat="43.2145" lon="5.47225">
        <ele>450.4</ele>
        <time>2025-10-19T13:09:08Z</time>
      </trkpt>
      <trkpt lat="43.2145" lon="5.47225">
        <ele>450.5</ele>
        <time>2025-10-19T13:09:09Z</time>
      </trkpt>
      <trkpt lat="43.2145" lon="5.47225">
        <ele>450.6</ele>
        <time>2025-10-19T13:09:10Z</time>
      </trkpt>
      <trkpt lat="43.2145" lon="5.47225">
        <ele>450.6</ele>
        <time>2025-10-19T13:09:11Z</time>
      </trkpt>
      <trkpt lat="43.2145" lon="5.47225">
        <ele>450.6</ele>
        <time>2025-10-19T13:09:12Z</time>
      </trkpt>
      <trkpt lat="43.2145" lon="5.47225">
        <ele>450.6</ele>
        <time>2025-10-19T13:09:13Z</time>
      </trkpt>
      <trkpt lat="43.2145" lon="5.47225">
        <ele>450.6</ele>
        <time>2025-10-19T13:09:14Z</time>
      </trkpt>
      <trkpt lat="43.2145" lon="5.47225">
        <ele>450.6</ele>
        <time>2025-10-19T13:09:15Z</time>
      </trkpt>
      <trkpt lat="43.2145" lon="5.47225">
        <ele>450.5</ele>
        <time>2025-10-19T13:09:16Z</time>
      </trkpt>
      <trkpt lat="43.2145" lon="5.47225">
        <ele>450.4</ele>
        <time>2025-10-19T13:09:17Z</time>
      </trkpt>
      <trkpt lat="43.2145" lon="5.47225">
        <ele>450.4</ele>
        <time>2025-10-19T13:09:18Z</time>
      </trkpt>
      <trkpt lat="43.2145" lon="5.47225">
        <ele>450.3</ele>
        <time>2025-10-19T13:09:19Z</time>
      </trkpt>
      <trkpt lat="43.2145" lon="5.47225">
        <ele>450.4</ele>
        <time>2025-10-19T13:09:20Z</time>
      </trkpt>
      <trkpt lat="43.2145" lon="5.47225">
        <ele>450.4</ele>
        <time>2025-10-19T13:09:21Z</time>
      </trkpt>
      <trkpt lat="43.2145" lon="5.47225">
        <ele>450.4</ele>
        <time>2025-10-19T13:09:22Z</time>
      </trkpt>
      <trkpt lat="43.2145" lon="5.47225">
        <ele>450.4</ele>
        <time>2025-10-19T13:09:23Z</time>
      </trkpt>
      <trkpt lat="43.2145" lon="5.47225">
        <ele>450.4</ele>
        <time>2025-10-19T13:09:24Z</time>
      </trkpt>
      <trkpt lat="43.2145" lon="5.47224">
        <ele>450.2</ele>
        <time>2025-10-19T13:09:25Z</time>
      </trkpt>
      <trkpt lat="43.2145" lon="5.47223">
        <ele>450.2</ele>
        <time>2025-10-19T13:09:26Z</time>
      </trkpt>
      <trkpt lat="43.21451" lon="5.47222">
        <ele>450.3</ele>
        <time>2025-10-19T13:09:27Z</time>
      </trkpt>
      <trkpt lat="43.21451" lon="5.47221">
        <ele>450.5</ele>
        <time>2025-10-19T13:09:28Z</time>
      </trkpt>
      <trkpt lat="43.21451" lon="5.47219">
        <ele>450.7</ele>
        <time>2025-10-19T13:09:29Z</time>
      </trkpt>
      <trkpt lat="43.21451" lon="5.47218">
        <ele>451</ele>
        <time>2025-10-19T13:09:30Z</time>
      </trkpt>
      <trkpt lat="43.2145" lon="5.47217">
        <ele>451.2</ele>
        <time>2025-10-19T13:09:31Z</time>
      </trkpt>
      <trkpt lat="43.2145" lon="5.47216">
        <ele>451.4</ele>
        <time>2025-10-19T13:09:32Z</time>
      </trkpt>
      <trkpt lat="43.2145" lon="5.47215">
        <ele>451.5</ele>
        <time>2025-10-19T13:09:33Z</time>
      </trkpt>
      <trkpt lat="43.2145" lon="5.47214">
        <ele>451.7</ele>
        <time>2025-10-19T13:09:34Z</time>
      </trkpt>
      <trkpt lat="43.2145" lon="5.47213">
        <ele>451.8</ele>
        <time>2025-10-19T13:09:35Z</time>
      </trkpt>
      <trkpt lat="43.21449" lon="5.47213">
        <ele>451.7</ele>
        <time>2025-10-19T13:09:36Z</time>
      </trkpt>
      <trkpt lat="43.2145" lon="5.47212">
        <ele>451.7</ele>
        <time>2025-10-19T13:09:37Z</time>
      </trkpt>
      <trkpt lat="43.2145" lon="5.47212">
        <ele>451.7</ele>
        <time>2025-10-19T13:09:38Z</time>
      </trkpt>
      <trkpt lat="43.2145" lon="5.47211">
        <ele>451.8</ele>
        <time>2025-10-19T13:09:39Z</time>
      </trkpt>
      <trkpt lat="43.2145" lon="5.47211">
        <ele>451.8</ele>
        <time>2025-10-19T13:09:40Z</time>
      </trkpt>
      <trkpt lat="43.2145" lon="5.4721">
        <ele>451.9</ele>
        <time>2025-10-19T13:09:41Z</time>
      </trkpt>
      <trkpt lat="43.2145" lon="5.47209">
        <ele>452.1</ele>
        <time>2025-10-19T13:09:42Z</time>
      </trkpt>
      <trkpt lat="43.2145" lon="5.47208">
        <ele>452.2</ele>
        <time>2025-10-19T13:09:43Z</time>
      </trkpt>
      <trkpt lat="43.2145" lon="5.47207">
        <ele>452.4</ele>
        <time>2025-10-19T13:09:44Z</time>
      </trkpt>
      <trkpt lat="43.2145" lon="5.47207">
        <ele>452.5</ele>
        <time>2025-10-19T13:09:45Z</time>
      </trkpt>
      <trkpt lat="43.2145" lon="5.47207">
        <ele>452.7</ele>
        <time>2025-10-19T13:09:46Z</time>
      </trkpt>
      <trkpt lat="43.2145" lon="5.47206">
        <ele>452.8</ele>
        <time>2025-10-19T13:09:47Z</time>
      </trkpt>
      <trkpt lat="43.2145" lon="5.47206">
        <ele>452.8</ele>
        <time>2025-10-19T13:09:48Z</time>
      </trkpt>
      <trkpt lat="43.2145" lon="5.47206">
        <ele>452.9</ele>
        <time>2025-10-19T13:09:49Z</time>
      </trkpt>
      <trkpt lat="43.2145" lon="5.47206">
        <ele>452.8</ele>
        <time>2025-10-19T13:09:50Z</time>
      </trkpt>
      <trkpt lat="43.2145" lon="5.47206">
        <ele>452.8</ele>
        <time>2025-10-19T13:09:51Z</time>
      </trkpt>
      <trkpt lat="43.21449" lon="5.47206">
        <ele>452.8</ele>
        <time>2025-10-19T13:09:52Z</time>
      </trkpt>
      <trkpt lat="43.21449" lon="5.47206">
        <ele>452.8</ele>
        <time>2025-10-19T13:09:53Z</time>
      </trkpt>
      <trkpt lat="43.21449" lon="5.47206">
        <ele>452.7</ele>
        <time>2025-10-19T13:09:54Z</time>
      </trkpt>
      <trkpt lat="43.21449" lon="5.47206">
        <ele>452.7</ele>
        <time>2025-10-19T13:09:55Z</time>
      </trkpt>
      <trkpt lat="43.21449" lon="5.47206">
        <ele>452.6</ele>
        <time>2025-10-19T13:09:56Z</time>
      </trkpt>
      <trkpt lat="43.21449" lon="5.47206">
        <ele>452.5</ele>
        <time>2025-10-19T13:09:57Z</time>
      </trkpt>
      <trkpt lat="43.21449" lon="5.47206">
        <ele>452.5</ele>
        <time>2025-10-19T13:09:58Z</time>
      </trkpt>
      <trkpt lat="43.21449" lon="5.47205">
        <ele>452.5</ele>
        <time>2025-10-19T13:09:59Z</time>
      </trkpt>
      <trkpt lat="43.21449" lon="5.47205">
        <ele>452.5</ele>
        <time>2025-10-19T13:10:00Z</time>
      </trkpt>
      <trkpt lat="43.21449" lon="5.47205">
        <ele>452.6</ele>
        <time>2025-10-19T13:10:01Z</time>
      </trkpt>
      <trkpt lat="43.21449" lon="5.47205">
        <ele>452.6</ele>
        <time>2025-10-19T13:10:02Z</time>
      </trkpt>
      <trkpt lat="43.21449" lon="5.47205">
        <ele>452.6</ele>
        <time>2025-10-19T13:10:03Z</time>
      </trkpt>
      <trkpt lat="43.21449" lon="5.47205">
        <ele>452.7</ele>
        <time>2025-10-19T13:10:04Z</time>
      </trkpt>
      <trkpt lat="43.21449" lon="5.47205">
        <ele>452.7</ele>
        <time>2025-10-19T13:10:05Z</time>
      </trkpt>
      <trkpt lat="43.21449" lon="5.47205">
        <ele>452.8</ele>
        <time>2025-10-19T13:10:06Z</time>
      </trkpt>
      <trkpt lat="43.21449" lon="5.47205">
        <ele>452.8</ele>
        <time>2025-10-19T13:10:07Z</time>
      </trkpt>
      <trkpt lat="43.21449" lon="5.47205">
        <ele>452.8</ele>
        <time>2025-10-19T13:10:08Z</time>
      </trkpt>
      <trkpt lat="43.21449" lon="5.47205">
        <ele>452.8</ele>
        <time>2025-10-19T13:10:09Z</time>
      </trkpt>
      <trkpt lat="43.21449" lon="5.47205">
        <ele>452.9</ele>
        <time>2025-10-19T13:10:10Z</time>
      </trkpt>
      <trkpt lat="43.21449" lon="5.47205">
        <ele>452.9</ele>
        <time>2025-10-19T13:10:11Z</time>
      </trkpt>
      <trkpt lat="43.21449" lon="5.47205">
        <ele>452.9</ele>
        <time>2025-10-19T13:10:12Z</time>
      </trkpt>
      <trkpt lat="43.21449" lon="5.47205">
        <ele>452.9</ele>
        <time>2025-10-19T13:10:13Z</time>
      </trkpt>
      <trkpt lat="43.21449" lon="5.47205">
        <ele>452.9</ele>
        <time>2025-10-19T13:10:14Z</time>
      </trkpt>
      <trkpt lat="43.21449" lon="5.47205">
        <ele>452.9</ele>
        <time>2025-10-19T13:10:15Z</time>
      </trkpt>
      <trkpt lat="43.21449" lon="5.47205">
        <ele>452.9</ele>
        <time>2025-10-19T13:10:16Z</time>
      </trkpt>
      <trkpt lat="43.21449" lon="5.47204">
        <ele>452.9</ele>
        <time>2025-10-19T13:10:17Z</time>
      </trkpt>
      <trkpt lat="43.21449" lon="5.47204">
        <ele>452.9</ele>
        <time>2025-10-19T13:10:18Z</time>
      </trkpt>
      <trkpt lat="43.21449" lon="5.47204">
        <ele>453</ele>
        <time>2025-10-19T13:10:19Z</time>
      </trkpt>
      <trkpt lat="43.21449" lon="5.47204">
        <ele>453.1</ele>
        <time>2025-10-19T13:10:20Z</time>
      </trkpt>
      <trkpt lat="43.21449" lon="5.47204">
        <ele>453.1</ele>
        <time>2025-10-19T13:10:21Z</time>
      </trkpt>
      <trkpt lat="43.21449" lon="5.47204">
        <ele>453</ele>
        <time>2025-10-19T13:10:22Z</time>
      </trkpt>
      <trkpt lat="43.21449" lon="5.47204">
        <ele>453.2</ele>
        <time>2025-10-19T13:10:23Z</time>
      </trkpt>
      <trkpt lat="43.21449" lon="5.47204">
        <ele>453.1</ele>
        <time>2025-10-19T13:10:24Z</time>
      </trkpt>
      <trkpt lat="43.21449" lon="5.47204">
        <ele>453.1</ele>
        <time>2025-10-19T13:10:25Z</time>
      </trkpt>
      <trkpt lat="43.21449" lon="5.47204">
        <ele>453</ele>
        <time>2025-10-19T13:10:26Z</time>
      </trkpt>
      <trkpt lat="43.21449" lon="5.47204">
        <ele>453.1</ele>
        <time>2025-10-19T13:10:27Z</time>
      </trkpt>
      <trkpt lat="43.21449" lon="5.47205">
        <ele>453.1</ele>
        <time>2025-10-19T13:10:28Z</time>
      </trkpt>
      <trkpt lat="43.21449" lon="5.47204">
        <ele>453.1</ele>
        <time>2025-10-19T13:10:29Z</time>
      </trkpt>
      <trkpt lat="43.2145" lon="5.47204">
        <ele>453.1</ele>
        <time>2025-10-19T13:10:30Z</time>
      </trkpt>
      <trkpt lat="43.2145" lon="5.47204">
        <ele>453.1</ele>
        <time>2025-10-19T13:10:31Z</time>
      </trkpt>
      <trkpt lat="43.2145" lon="5.47204">
        <ele>453.2</ele>
        <time>2025-10-19T13:10:32Z</time>
      </trkpt>
      <trkpt lat="43.21451" lon="5.47204">
        <ele>453.3</ele>
        <time>2025-10-19T13:10:33Z</time>
      </trkpt>
      <trkpt lat="43.21451" lon="5.47204">
        <ele>453.4</ele>
        <time>2025-10-19T13:10:34Z</time>
      </trkpt>
      <trkpt lat="43.21452" lon="5.47203">
        <ele>453.6</ele>
        <time>2025-10-19T13:10:35Z</time>
      </trkpt>
      <trkpt lat="43.21452" lon="5.47203">
        <ele>453.7</ele>
        <time>2025-10-19T13:10:36Z</time>
      </trkpt>
      <trkpt lat="43.21452" lon="5.47202">
        <ele>453.8</ele>
        <time>2025-10-19T13:10:37Z</time>
      </trkpt>
      <trkpt lat="43.21453" lon="5.47201">
        <ele>453.9</ele>
        <time>2025-10-19T13:10:38Z</time>
      </trkpt>
      <trkpt lat="43.21454" lon="5.47201">
        <ele>454.1</ele>
        <time>2025-10-19T13:10:39Z</time>
      </trkpt>
      <trkpt lat="43.21454" lon="5.472">
        <ele>454.2</ele>
        <time>2025-10-19T13:10:40Z</time>
      </trkpt>
      <trkpt lat="43.21454" lon="5.472">
        <ele>454.4</ele>
        <time>2025-10-19T13:10:41Z</time>
      </trkpt>
      <trkpt lat="43.21455" lon="5.472">
        <ele>454.5</ele>
        <time>2025-10-19T13:10:42Z</time>
      </trkpt>
      <trkpt lat="43.21455" lon="5.472">
        <ele>454.7</ele>
        <time>2025-10-19T13:10:43Z</time>
      </trkpt>
      <trkpt lat="43.21455" lon="5.472">
        <ele>454.8</ele>
        <time>2025-10-19T13:10:44Z</time>
      </trkpt>
      <trkpt lat="43.21455" lon="5.472">
        <ele>455</ele>
        <time>2025-10-19T13:10:45Z</time>
      </trkpt>
      <trkpt lat="43.21456" lon="5.472">
        <ele>455.3</ele>
        <time>2025-10-19T13:10:46Z</time>
      </trkpt>
      <trkpt lat="43.21456" lon="5.472">
        <ele>455.5</ele>
        <time>2025-10-19T13:10:47Z</time>
      </trkpt>
      <trkpt lat="43.21456" lon="5.472">
        <ele>455.8</ele>
        <time>2025-10-19T13:10:48Z</time>
      </trkpt>
      <trkpt lat="43.21457" lon="5.472">
        <ele>456</ele>
        <time>2025-10-19T13:10:49Z</time>
      </trkpt>
      <trkpt lat="43.21457" lon="5.47199">
        <ele>456.2</ele>
        <time>2025-10-19T13:10:50Z</time>
      </trkpt>
      <trkpt lat="43.21457" lon="5.47199">
        <ele>456.4</ele>
        <time>2025-10-19T13:10:51Z</time>
      </trkpt>
      <trkpt lat="43.21457" lon="5.472">
        <ele>456.7</ele>
        <time>2025-10-19T13:10:52Z</time>
      </trkpt>
      <trkpt lat="43.21457" lon="5.472">
        <ele>456.8</ele>
        <time>2025-10-19T13:10:53Z</time>
      </trkpt>
      <trkpt lat="43.21457" lon="5.472">
        <ele>456.8</ele>
        <time>2025-10-19T13:10:54Z</time>
      </trkpt>
      <trkpt lat="43.21457" lon="5.472">
        <ele>456.9</ele>
        <time>2025-10-19T13:10:55Z</time>
      </trkpt>
      <trkpt lat="43.21457" lon="5.472">
        <ele>456.9</ele>
        <time>2025-10-19T13:10:56Z</time>
      </trkpt>
      <trkpt lat="43.21457" lon="5.472">
        <ele>456.9</ele>
        <time>2025-10-19T13:10:57Z</time>
      </trkpt>
      <trkpt lat="43.21457" lon="5.472">
        <ele>456.9</ele>
        <time>2025-10-19T13:10:58Z</time>
      </trkpt>
      <trkpt lat="43.21457" lon="5.472">
        <ele>456.9</ele>
        <time>2025-10-19T13:10:59Z</time>
      </trkpt>
      <trkpt lat="43.21457" lon="5.472">
        <ele>457.2</ele>
        <time>2025-10-19T13:11:00Z</time>
      </trkpt>
      <trkpt lat="43.21457" lon="5.472">
        <ele>457.4</ele>
        <time>2025-10-19T13:11:01Z</time>
      </trkpt>
      <trkpt lat="43.21457" lon="5.472">
        <ele>457.6</ele>
        <time>2025-10-19T13:11:02Z</time>
      </trkpt>
      <trkpt lat="43.21457" lon="5.47199">
        <ele>457.8</ele>
        <time>2025-10-19T13:11:03Z</time>
      </trkpt>
      <trkpt lat="43.21458" lon="5.472">
        <ele>458.1</ele>
        <time>2025-10-19T13:11:04Z</time>
      </trkpt>
      <trkpt lat="43.21458" lon="5.47201">
        <ele>458.3</ele>
        <time>2025-10-19T13:11:05Z</time>
      </trkpt>
      <trkpt lat="43.21458" lon="5.47201">
        <ele>458.7</ele>
        <time>2025-10-19T13:11:06Z</time>
      </trkpt>
      <trkpt lat="43.21458" lon="5.47202">
        <ele>459</ele>
        <time>2025-10-19T13:11:07Z</time>
      </trkpt>
      <trkpt lat="43.21458" lon="5.47202">
        <ele>459.3</ele>
        <time>2025-10-19T13:11:08Z</time>
      </trkpt>
      <trkpt lat="43.21458" lon="5.47202">
        <ele>459.6</ele>
        <time>2025-10-19T13:11:09Z</time>
      </trkpt>
      <trkpt lat="43.21458" lon="5.47202">
        <ele>459.8</ele>
        <time>2025-10-19T13:11:10Z</time>
      </trkpt>
      <trkpt lat="43.21458" lon="5.47202">
        <ele>459.9</ele>
        <time>2025-10-19T13:11:11Z</time>
      </trkpt>
      <trkpt lat="43.21458" lon="5.47203">
        <ele>460.1</ele>
        <time>2025-10-19T13:11:12Z</time>
      </trkpt>
      <trkpt lat="43.21458" lon="5.47202">
        <ele>460.3</ele>
        <time>2025-10-19T13:11:13Z</time>
      </trkpt>
      <trkpt lat="43.21458" lon="5.47202">
        <ele>460.4</ele>
        <time>2025-10-19T13:11:14Z</time>
      </trkpt>
      <trkpt lat="43.21458" lon="5.47202">
        <ele>460.6</ele>
        <time>2025-10-19T13:11:15Z</time>
      </trkpt>
      <trkpt lat="43.21459" lon="5.47202">
        <ele>460.7</ele>
        <time>2025-10-19T13:11:16Z</time>
      </trkpt>
      <trkpt lat="43.21459" lon="5.47202">
        <ele>460.9</ele>
        <time>2025-10-19T13:11:17Z</time>
      </trkpt>
      <trkpt lat="43.21459" lon="5.47202">
        <ele>461</ele>
        <time>2025-10-19T13:11:18Z</time>
      </trkpt>
      <trkpt lat="43.2146" lon="5.47202">
        <ele>461.1</ele>
        <time>2025-10-19T13:11:19Z</time>
      </trkpt>
      <trkpt lat="43.2146" lon="5.47202">
        <ele>461.3</ele>
        <time>2025-10-19T13:11:20Z</time>
      </trkpt>
      <trkpt lat="43.2146" lon="5.47202">
        <ele>461.5</ele>
        <time>2025-10-19T13:11:21Z</time>
      </trkpt>
      <trkpt lat="43.2146" lon="5.47202">
        <ele>461.6</ele>
        <time>2025-10-19T13:11:22Z</time>
      </trkpt>
      <trkpt lat="43.21461" lon="5.47203">
        <ele>461.8</ele>
        <time>2025-10-19T13:11:23Z</time>
      </trkpt>
      <trkpt lat="43.21462" lon="5.47202">
        <ele>461.9</ele>
        <time>2025-10-19T13:11:24Z</time>
      </trkpt>
      <trkpt lat="43.21462" lon="5.47203">
        <ele>462.2</ele>
        <time>2025-10-19T13:11:25Z</time>
      </trkpt>
      <trkpt lat="43.21462" lon="5.47203">
        <ele>462.4</ele>
        <time>2025-10-19T13:11:26Z</time>
      </trkpt>
      <trkpt lat="43.21463" lon="5.47203">
        <ele>462.6</ele>
        <time>2025-10-19T13:11:27Z</time>
      </trkpt>
      <trkpt lat="43.21463" lon="5.47202">
        <ele>462.8</ele>
        <time>2025-10-19T13:11:28Z</time>
      </trkpt>
      <trkpt lat="43.21463" lon="5.47202">
        <ele>463</ele>
        <time>2025-10-19T13:11:29Z</time>
      </trkpt>
      <trkpt lat="43.21464" lon="5.47202">
        <ele>463.1</ele>
        <time>2025-10-19T13:11:30Z</time>
      </trkpt>
      <trkpt lat="43.21464" lon="5.47202">
        <ele>463.3</ele>
        <time>2025-10-19T13:11:31Z</time>
      </trkpt>
      <trkpt lat="43.21465" lon="5.47203">
        <ele>463.4</ele>
        <time>2025-10-19T13:11:32Z</time>
      </trkpt>
      <trkpt lat="43.21465" lon="5.47203">
        <ele>463.6</ele>
        <time>2025-10-19T13:11:33Z</time>
      </trkpt>
      <trkpt lat="43.21465" lon="5.47203">
        <ele>463.9</ele>
        <time>2025-10-19T13:11:34Z</time>
      </trkpt>
      <trkpt lat="43.21466" lon="5.47203">
        <ele>464.2</ele>
        <time>2025-10-19T13:11:35Z</time>
      </trkpt>
      <trkpt lat="43.21466" lon="5.47204">
        <ele>464.5</ele>
        <time>2025-10-19T13:11:36Z</time>
      </trkpt>
      <trkpt lat="43.21467" lon="5.47204">
        <ele>464.6</ele>
        <time>2025-10-19T13:11:37Z</time>
      </trkpt>
      <trkpt lat="43.21467" lon="5.47203">
        <ele>464.8</ele>
        <time>2025-10-19T13:11:38Z</time>
      </trkpt>
      <trkpt lat="43.21468" lon="5.47203">
        <ele>465.1</ele>
        <time>2025-10-19T13:11:39Z</time>
      </trkpt>
      <trkpt lat="43.21468" lon="5.47202">
        <ele>465.3</ele>
        <time>2025-10-19T13:11:40Z</time>
      </trkpt>
      <trkpt lat="43.21469" lon="5.47202">
        <ele>465.6</ele>
        <time>2025-10-19T13:11:41Z</time>
      </trkpt>
      <trkpt lat="43.21469" lon="5.47202">
        <ele>465.8</ele>
        <time>2025-10-19T13:11:42Z</time>
      </trkpt>
      <trkpt lat="43.21469" lon="5.47202">
        <ele>466.1</ele>
        <time>2025-10-19T13:11:43Z</time>
      </trkpt>
      <trkpt lat="43.21469" lon="5.47201">
        <ele>466.2</ele>
        <time>2025-10-19T13:11:44Z</time>
      </trkpt>
      <trkpt lat="43.21468" lon="5.47201">
        <ele>466.3</ele>
        <time>2025-10-19T13:11:45Z</time>
      </trkpt>
      <trkpt lat="43.21468" lon="5.472">
        <ele>466.3</ele>
        <time>2025-10-19T13:11:46Z</time>
      </trkpt>
      <trkpt lat="43.21468" lon="5.472">
        <ele>466.3</ele>
        <time>2025-10-19T13:11:47Z</time>
      </trkpt>
      <trkpt lat="43.21468" lon="5.472">
        <ele>466.3</ele>
        <time>2025-10-19T13:11:48Z</time>
      </trkpt>
      <trkpt lat="43.21468" lon="5.47199">
        <ele>466.4</ele>
        <time>2025-10-19T13:11:49Z</time>
      </trkpt>
      <trkpt lat="43.21468" lon="5.47199">
        <ele>466.4</ele>
        <time>2025-10-19T13:11:50Z</time>
      </trkpt>
      <trkpt lat="43.21468" lon="5.47199">
        <ele>466.4</ele>
        <time>2025-10-19T13:11:51Z</time>
      </trkpt>
      <trkpt lat="43.21469" lon="5.47198">
        <ele>466.4</ele>
        <time>2025-10-19T13:11:52Z</time>
      </trkpt>
      <trkpt lat="43.21469" lon="5.47198">
        <ele>466.4</ele>
        <time>2025-10-19T13:11:53Z</time>
      </trkpt>
      <trkpt lat="43.21468" lon="5.47198">
        <ele>466.6</ele>
        <time>2025-10-19T13:11:54Z</time>
      </trkpt>
      <trkpt lat="43.21468" lon="5.47198">
        <ele>466.7</ele>
        <time>2025-10-19T13:11:55Z</time>
      </trkpt>
      <trkpt lat="43.21468" lon="5.47197">
        <ele>467</ele>
        <time>2025-10-19T13:11:56Z</time>
      </trkpt>
      <trkpt lat="43.21467" lon="5.47197">
        <ele>467.1</ele>
        <time>2025-10-19T13:11:57Z</time>
      </trkpt>
      <trkpt lat="43.21467" lon="5.47197">
        <ele>467.3</ele>
        <time>2025-10-19T13:11:58Z</time>
      </trkpt>
      <trkpt lat="43.21467" lon="5.47196">
        <ele>467.5</ele>
        <time>2025-10-19T13:11:59Z</time>
      </trkpt>
      <trkpt lat="43.21466" lon="5.47196">
        <ele>467.7</ele>
        <time>2025-10-19T13:12:00Z</time>
      </trkpt>
      <trkpt lat="43.21466" lon="5.47195">
        <ele>467.9</ele>
        <time>2025-10-19T13:12:01Z</time>
      </trkpt>
      <trkpt lat="43.21467" lon="5.47195">
        <ele>468.1</ele>
        <time>2025-10-19T13:12:02Z</time>
      </trkpt>
      <trkpt lat="43.21467" lon="5.47194">
        <ele>468.4</ele>
        <time>2025-10-19T13:12:03Z</time>
      </trkpt>
      <trkpt lat="43.21467" lon="5.47194">
        <ele>468.7</ele>
        <time>2025-10-19T13:12:04Z</time>
      </trkpt>
      <trkpt lat="43.21468" lon="5.47193">
        <ele>468.9</ele>
        <time>2025-10-19T13:12:05Z</time>
      </trkpt>
      <trkpt lat="43.21468" lon="5.47193">
        <ele>469</ele>
        <time>2025-10-19T13:12:06Z</time>
      </trkpt>
      <trkpt lat="43.21469" lon="5.47192">
        <ele>469.3</ele>
        <time>2025-10-19T13:12:07Z</time>
      </trkpt>
      <trkpt lat="43.21469" lon="5.47192">
        <ele>469.6</ele>
        <time>2025-10-19T13:12:08Z</time>
      </trkpt>
      <trkpt lat="43.21469" lon="5.47192">
        <ele>469.8</ele>
        <time>2025-10-19T13:12:09Z</time>
      </trkpt>
      <trkpt lat="43.2147" lon="5.47191">
        <ele>469.9</ele>
        <time>2025-10-19T13:12:10Z</time>
      </trkpt>
      <trkpt lat="43.2147" lon="5.47191">
        <ele>470.1</ele>
        <time>2025-10-19T13:12:11Z</time>
      </trkpt>
      <trkpt lat="43.2147" lon="5.47191">
        <ele>470.2</ele>
        <time>2025-10-19T13:12:12Z</time>
      </trkpt>
      <trkpt lat="43.2147" lon="5.47191">
        <ele>470.3</ele>
        <time>2025-10-19T13:12:13Z</time>
      </trkpt>
      <trkpt lat="43.2147" lon="5.47191">
        <ele>470.5</ele>
        <time>2025-10-19T13:12:14Z</time>
      </trkpt>
      <trkpt lat="43.2147" lon="5.47191">
        <ele>470.7</ele>
        <time>2025-10-19T13:12:15Z</time>
      </trkpt>
      <trkpt lat="43.2147" lon="5.47191">
        <ele>470.8</ele>
        <time>2025-10-19T13:12:16Z</time>
      </trkpt>
      <trkpt lat="43.2147" lon="5.47191">
        <ele>470.9</ele>
        <time>2025-10-19T13:12:17Z</time>
      </trkpt>
      <trkpt lat="43.2147" lon="5.47191">
        <ele>470.9</ele>
        <time>2025-10-19T13:12:18Z</time>
      </trkpt>
      <trkpt lat="43.2147" lon="5.4719">
        <ele>470.9</ele>
        <time>2025-10-19T13:12:19Z</time>
      </trkpt>
      <trkpt lat="43.2147" lon="5.4719">
        <ele>470.9</ele>
        <time>2025-10-19T13:12:20Z</time>
      </trkpt>
      <trkpt lat="43.21471" lon="5.47189">
        <ele>470.9</ele>
        <time>2025-10-19T13:12:21Z</time>
      </trkpt>
      <trkpt lat="43.21471" lon="5.47189">
        <ele>470.8</ele>
        <time>2025-10-19T13:12:22Z</time>
      </trkpt>
      <trkpt lat="43.2147" lon="5.47189">
        <ele>470.9</ele>
        <time>2025-10-19T13:12:23Z</time>
      </trkpt>
      <trkpt lat="43.2147" lon="5.47188">
        <ele>470.9</ele>
        <time>2025-10-19T13:12:24Z</time>
      </trkpt>
      <trkpt lat="43.2147" lon="5.47188">
        <ele>471.1</ele>
        <time>2025-10-19T13:12:25Z</time>
      </trkpt>
      <trkpt lat="43.2147" lon="5.47188">
        <ele>471.2</ele>
        <time>2025-10-19T13:12:26Z</time>
      </trkpt>
      <trkpt lat="43.2147" lon="5.47187">
        <ele>471.3</ele>
        <time>2025-10-19T13:12:27Z</time>
      </trkpt>
      <trkpt lat="43.2147" lon="5.47186">
        <ele>471.4</ele>
        <time>2025-10-19T13:12:28Z</time>
      </trkpt>
      <trkpt lat="43.21469" lon="5.47186">
        <ele>471.6</ele>
        <time>2025-10-19T13:12:29Z</time>
      </trkpt>
      <trkpt lat="43.21469" lon="5.47185">
        <ele>471.8</ele>
        <time>2025-10-19T13:12:30Z</time>
      </trkpt>
      <trkpt lat="43.21469" lon="5.47184">
        <ele>471.9</ele>
        <time>2025-10-19T13:12:31Z</time>
      </trkpt>
      <trkpt lat="43.21469" lon="5.47184">
        <ele>472.1</ele>
        <time>2025-10-19T13:12:32Z</time>
      </trkpt>
      <trkpt lat="43.21468" lon="5.47182">
        <ele>472.3</ele>
        <time>2025-10-19T13:12:33Z</time>
      </trkpt>
      <trkpt lat="43.21468" lon="5.47181">
        <ele>472.5</ele>
        <time>2025-10-19T13:12:34Z</time>
      </trkpt>
      <trkpt lat="43.21468" lon="5.47181">
        <ele>472.6</ele>
        <time>2025-10-19T13:12:35Z</time>
      </trkpt>
      <trkpt lat="43.21468" lon="5.4718">
        <ele>472.8</ele>
        <time>2025-10-19T13:12:36Z</time>
      </trkpt>
      <trkpt lat="43.21467" lon="5.47179">
        <ele>472.9</ele>
        <time>2025-10-19T13:12:37Z</time>
      </trkpt>
      <trkpt lat="43.21467" lon="5.47178">
        <ele>472.9</ele>
        <time>2025-10-19T13:12:38Z</time>
      </trkpt>
      <trkpt lat="43.21467" lon="5.47177">
        <ele>473</ele>
        <time>2025-10-19T13:12:39Z</time>
      </trkpt>
      <trkpt lat="43.21467" lon="5.47177">
        <ele>473</ele>
        <time>2025-10-19T13:12:40Z</time>
      </trkpt>
      <trkpt lat="43.21467" lon="5.47176">
        <ele>473.1</ele>
        <time>2025-10-19T13:12:41Z</time>
      </trkpt>
      <trkpt lat="43.21466" lon="5.47175">
        <ele>473.3</ele>
        <time>2025-10-19T13:12:42Z</time>
      </trkpt>
      <trkpt lat="43.21466" lon="5.47174">
        <ele>473.5</ele>
        <time>2025-10-19T13:12:43Z</time>
      </trkpt>
      <trkpt lat="43.21466" lon="5.47173">
        <ele>473.6</ele>
        <time>2025-10-19T13:12:44Z</time>
      </trkpt>
      <trkpt lat="43.21466" lon="5.47172">
        <ele>473.7</ele>
        <time>2025-10-19T13:12:45Z</time>
      </trkpt>
      <trkpt lat="43.21465" lon="5.47172">
        <ele>473.9</ele>
        <time>2025-10-19T13:12:46Z</time>
      </trkpt>
      <trkpt lat="43.21465" lon="5.47171">
        <ele>474</ele>
        <time>2025-10-19T13:12:47Z</time>
      </trkpt>
      <trkpt lat="43.21465" lon="5.4717">
        <ele>474.1</ele>
        <time>2025-10-19T13:12:48Z</time>
      </trkpt>
      <trkpt lat="43.21465" lon="5.4717">
        <ele>474.2</ele>
        <time>2025-10-19T13:12:49Z</time>
      </trkpt>
      <trkpt lat="43.21465" lon="5.47169">
        <ele>474.2</ele>
        <time>2025-10-19T13:12:50Z</time>
      </trkpt>
      <trkpt lat="43.21466" lon="5.47169">
        <ele>474.2</ele>
        <time>2025-10-19T13:12:51Z</time>
      </trkpt>
      <trkpt lat="43.21466" lon="5.47168">
        <ele>474.3</ele>
        <time>2025-10-19T13:12:52Z</time>
      </trkpt>
      <trkpt lat="43.21466" lon="5.47167">
        <ele>474.4</ele>
        <time>2025-10-19T13:12:53Z</time>
      </trkpt>
      <trkpt lat="43.21466" lon="5.47166">
        <ele>474.6</ele>
        <time>2025-10-19T13:12:54Z</time>
      </trkpt>
      <trkpt lat="43.21466" lon="5.47166">
        <ele>474.7</ele>
        <time>2025-10-19T13:12:55Z</time>
      </trkpt>
      <trkpt lat="43.21466" lon="5.47165">
        <ele>474.8</ele>
        <time>2025-10-19T13:12:56Z</time>
      </trkpt>
      <trkpt lat="43.21465" lon="5.47165">
        <ele>474.8</ele>
        <time>2025-10-19T13:12:57Z</time>
      </trkpt>
      <trkpt lat="43.21465" lon="5.47164">
        <ele>474.9</ele>
        <time>2025-10-19T13:12:58Z</time>
      </trkpt>
      <trkpt lat="43.21465" lon="5.47163">
        <ele>475.1</ele>
        <time>2025-10-19T13:12:59Z</time>
      </trkpt>
      <trkpt lat="43.21465" lon="5.47163">
        <ele>475.3</ele>
        <time>2025-10-19T13:13:00Z</time>
      </trkpt>
      <trkpt lat="43.21465" lon="5.47162">
        <ele>475.5</ele>
        <time>2025-10-19T13:13:01Z</time>
      </trkpt>
      <trkpt lat="43.21465" lon="5.47161">
        <ele>475.6</ele>
        <time>2025-10-19T13:13:02Z</time>
      </trkpt>
      <trkpt lat="43.21465" lon="5.47161">
        <ele>475.7</ele>
        <time>2025-10-19T13:13:03Z</time>
      </trkpt>
      <trkpt lat="43.21465" lon="5.4716">
        <ele>475.8</ele>
        <time>2025-10-19T13:13:04Z</time>
      </trkpt>
      <trkpt lat="43.21465" lon="5.47159">
        <ele>476.1</ele>
        <time>2025-10-19T13:13:05Z</time>
      </trkpt>
      <trkpt lat="43.21465" lon="5.47159">
        <ele>476.2</ele>
        <time>2025-10-19T13:13:06Z</time>
      </trkpt>
      <trkpt lat="43.21466" lon="5.47158">
        <ele>476.4</ele>
        <time>2025-10-19T13:13:07Z</time>
      </trkpt>
      <trkpt lat="43.21466" lon="5.47157">
        <ele>476.5</ele>
        <time>2025-10-19T13:13:08Z</time>
      </trkpt>
      <trkpt lat="43.21466" lon="5.47157">
        <ele>476.7</ele>
        <time>2025-10-19T13:13:09Z</time>
      </trkpt>
      <trkpt lat="43.21466" lon="5.47156">
        <ele>476.9</ele>
        <time>2025-10-19T13:13:10Z</time>
      </trkpt>
      <trkpt lat="43.21466" lon="5.47156">
        <ele>477</ele>
        <time>2025-10-19T13:13:11Z</time>
      </trkpt>
      <trkpt lat="43.21466" lon="5.47155">
        <ele>477.2</ele>
        <time>2025-10-19T13:13:12Z</time>
      </trkpt>
      <trkpt lat="43.21466" lon="5.47154">
        <ele>477.3</ele>
        <time>2025-10-19T13:13:13Z</time>
      </trkpt>
      <trkpt lat="43.21466" lon="5.47154">
        <ele>477.4</ele>
        <time>2025-10-19T13:13:14Z</time>
      </trkpt>
      <trkpt lat="43.21465" lon="5.47153">
        <ele>477.5</ele>
        <time>2025-10-19T13:13:15Z</time>
      </trkpt>
      <trkpt lat="43.21465" lon="5.47152">
        <ele>477.5</ele>
        <time>2025-10-19T13:13:16Z</time>
      </trkpt>
      <trkpt lat="43.21465" lon="5.47151">
        <ele>477.6</ele>
        <time>2025-10-19T13:13:17Z</time>
      </trkpt>
      <trkpt lat="43.21465" lon="5.4715">
        <ele>477.7</ele>
        <time>2025-10-19T13:13:18Z</time>
      </trkpt>
      <trkpt lat="43.21465" lon="5.47149">
        <ele>477.7</ele>
        <time>2025-10-19T13:13:19Z</time>
      </trkpt>
      <trkpt lat="43.21466" lon="5.47148">
        <ele>477.8</ele>
        <time>2025-10-19T13:13:20Z</time>
      </trkpt>
      <trkpt lat="43.21466" lon="5.47147">
        <ele>477.9</ele>
        <time>2025-10-19T13:13:21Z</time>
      </trkpt>
      <trkpt lat="43.21466" lon="5.47146">
        <ele>477.9</ele>
        <time>2025-10-19T13:13:22Z</time>
      </trkpt>
      <trkpt lat="43.21466" lon="5.47146">
        <ele>478</ele>
        <time>2025-10-19T13:13:23Z</time>
      </trkpt>
      <trkpt lat="43.21467" lon="5.47146">
        <ele>478.1</ele>
        <time>2025-10-19T13:13:24Z</time>
      </trkpt>
      <trkpt lat="43.21467" lon="5.47145">
        <ele>478.3</ele>
        <time>2025-10-19T13:13:25Z</time>
      </trkpt>
      <trkpt lat="43.21467" lon="5.47144">
        <ele>478.4</ele>
        <time>2025-10-19T13:13:26Z</time>
      </trkpt>
      <trkpt lat="43.21467" lon="5.47143">
        <ele>478.5</ele>
        <time>2025-10-19T13:13:27Z</time>
      </trkpt>
      <trkpt lat="43.21468" lon="5.47142">
        <ele>478.6</ele>
        <time>2025-10-19T13:13:28Z</time>
      </trkpt>
      <trkpt lat="43.21468" lon="5.47141">
        <ele>478.7</ele>
        <time>2025-10-19T13:13:29Z</time>
      </trkpt>
      <trkpt lat="43.21468" lon="5.4714">
        <ele>478.8</ele>
        <time>2025-10-19T13:13:30Z</time>
      </trkpt>
      <trkpt lat="43.21469" lon="5.47139">
        <ele>478.9</ele>
        <time>2025-10-19T13:13:31Z</time>
      </trkpt>
      <trkpt lat="43.21469" lon="5.47138">
        <ele>479</ele>
        <time>2025-10-19T13:13:32Z</time>
      </trkpt>
      <trkpt lat="43.21469" lon="5.47138">
        <ele>479.1</ele>
        <time>2025-10-19T13:13:33Z</time>
      </trkpt>
      <trkpt lat="43.2147" lon="5.47137">
        <ele>479.2</ele>
        <time>2025-10-19T13:13:34Z</time>
      </trkpt>
      <trkpt lat="43.2147" lon="5.47137">
        <ele>479.2</ele>
        <time>2025-10-19T13:13:35Z</time>
      </trkpt>
      <trkpt lat="43.2147" lon="5.47136">
        <ele>479.3</ele>
        <time>2025-10-19T13:13:36Z</time>
      </trkpt>
      <trkpt lat="43.21471" lon="5.47135">
        <ele>479.3</ele>
        <time>2025-10-19T13:13:37Z</time>
      </trkpt>
      <trkpt lat="43.21471" lon="5.47135">
        <ele>479.3</ele>
        <time>2025-10-19T13:13:38Z</time>
      </trkpt>
      <trkpt lat="43.21471" lon="5.47134">
        <ele>479.3</ele>
        <time>2025-10-19T13:13:39Z</time>
      </trkpt>
      <trkpt lat="43.21472" lon="5.47133">
        <ele>479.4</ele>
        <time>2025-10-19T13:13:40Z</time>
      </trkpt>
      <trkpt lat="43.21472" lon="5.47132">
        <ele>479.4</ele>
        <time>2025-10-19T13:13:41Z</time>
      </trkpt>
      <trkpt lat="43.21472" lon="5.47131">
        <ele>479.5</ele>
        <time>2025-10-19T13:13:42Z</time>
      </trkpt>
      <trkpt lat="43.21472" lon="5.47131">
        <ele>479.6</ele>
        <time>2025-10-19T13:13:43Z</time>
      </trkpt>
      <trkpt lat="43.21473" lon="5.4713">
        <ele>479.6</ele>
        <time>2025-10-19T13:13:44Z</time>
      </trkpt>
      <trkpt lat="43.21473" lon="5.47129">
        <ele>479.7</ele>
        <time>2025-10-19T13:13:45Z</time>
      </trkpt>
      <trkpt lat="43.21473" lon="5.47128">
        <ele>479.8</ele>
        <time>2025-10-19T13:13:46Z</time>
      </trkpt>
      <trkpt lat="43.21473" lon="5.47128">
        <ele>479.9</ele>
        <time>2025-10-19T13:13:47Z</time>
      </trkpt>
      <trkpt lat="43.21474" lon="5.47126">
        <ele>479.9</ele>
        <time>2025-10-19T13:13:48Z</time>
      </trkpt>
      <trkpt lat="43.21474" lon="5.47125">
        <ele>479.9</ele>
        <time>2025-10-19T13:13:49Z</time>
      </trkpt>
      <trkpt lat="43.21474" lon="5.47124">
        <ele>479.9</ele>
        <time>2025-10-19T13:13:50Z</time>
      </trkpt>
      <trkpt lat="43.21474" lon="5.47123">
        <ele>479.9</ele>
        <time>2025-10-19T13:13:51Z</time>
      </trkpt>
      <trkpt lat="43.21475" lon="5.47123">
        <ele>480</ele>
        <time>2025-10-19T13:13:52Z</time>
      </trkpt>
      <trkpt lat="43.21475" lon="5.47122">
        <ele>480.1</ele>
        <time>2025-10-19T13:13:53Z</time>
      </trkpt>
      <trkpt lat="43.21476" lon="5.47121">
        <ele>480.2</ele>
        <time>2025-10-19T13:13:54Z</time>
      </trkpt>
      <trkpt lat="43.21476" lon="5.4712">
        <ele>480.4</ele>
        <time>2025-10-19T13:13:55Z</time>
      </trkpt>
      <trkpt lat="43.21476" lon="5.47119">
        <ele>480.5</ele>
        <time>2025-10-19T13:13:56Z</time>
      </trkpt>
      <trkpt lat="43.21476" lon="5.47118">
        <ele>480.7</ele>
        <time>2025-10-19T13:13:57Z</time>
      </trkpt>
      <trkpt lat="43.21476" lon="5.47117">
        <ele>480.8</ele>
        <time>2025-10-19T13:13:58Z</time>
      </trkpt>
      <trkpt lat="43.21477" lon="5.47116">
        <ele>480.9</ele>
        <time>2025-10-19T13:13:59Z</time>
      </trkpt>
      <trkpt lat="43.21477" lon="5.47115">
        <ele>481</ele>
        <time>2025-10-19T13:14:00Z</time>
      </trkpt>
      <trkpt lat="43.21477" lon="5.47115">
        <ele>481.1</ele>
        <time>2025-10-19T13:14:01Z</time>
      </trkpt>
      <trkpt lat="43.21477" lon="5.47114">
        <ele>481.2</ele>
        <time>2025-10-19T13:14:02Z</time>
      </trkpt>
      <trkpt lat="43.21478" lon="5.47113">
        <ele>481.2</ele>
        <time>2025-10-19T13:14:03Z</time>
      </trkpt>
      <trkpt lat="43.21478" lon="5.47112">
        <ele>481.2</ele>
        <time>2025-10-19T13:14:04Z</time>
      </trkpt>
      <trkpt lat="43.21478" lon="5.47112">
        <ele>481.2</ele>
        <time>2025-10-19T13:14:05Z</time>
      </trkpt>
      <trkpt lat="43.21479" lon="5.47111">
        <ele>481.2</ele>
        <time>2025-10-19T13:14:06Z</time>
      </trkpt>
      <trkpt lat="43.21479" lon="5.4711">
        <ele>481.2</ele>
        <time>2025-10-19T13:14:07Z</time>
      </trkpt>
      <trkpt lat="43.21479" lon="5.47109">
        <ele>481.3</ele>
        <time>2025-10-19T13:14:08Z</time>
      </trkpt>
      <trkpt lat="43.21479" lon="5.47109">
        <ele>481.3</ele>
        <time>2025-10-19T13:14:09Z</time>
      </trkpt>
      <trkpt lat="43.2148" lon="5.47108">
        <ele>481.3</ele>
        <time>2025-10-19T13:14:10Z</time>
      </trkpt>
      <trkpt lat="43.21481" lon="5.47107">
        <ele>481.4</ele>
        <time>2025-10-19T13:14:11Z</time>
      </trkpt>
      <trkpt lat="43.21481" lon="5.47106">
        <ele>481.5</ele>
        <time>2025-10-19T13:14:12Z</time>
      </trkpt>
      <trkpt lat="43.21481" lon="5.47106">
        <ele>481.6</ele>
        <time>2025-10-19T13:14:13Z</time>
      </trkpt>
      <trkpt lat="43.21482" lon="5.47105">
        <ele>481.8</ele>
        <time>2025-10-19T13:14:14Z</time>
      </trkpt>
      <trkpt lat="43.21482" lon="5.47104">
        <ele>481.8</ele>
        <time>2025-10-19T13:14:15Z</time>
      </trkpt>
      <trkpt lat="43.21482" lon="5.47103">
        <ele>481.9</ele>
        <time>2025-10-19T13:14:16Z</time>
      </trkpt>
      <trkpt lat="43.21483" lon="5.47102">
        <ele>482</ele>
        <time>2025-10-19T13:14:17Z</time>
      </trkpt>
      <trkpt lat="43.21483" lon="5.47102">
        <ele>482.1</ele>
        <time>2025-10-19T13:14:18Z</time>
      </trkpt>
      <trkpt lat="43.21484" lon="5.47101">
        <ele>482.2</ele>
        <time>2025-10-19T13:14:19Z</time>
      </trkpt>
      <trkpt lat="43.21484" lon="5.47101">
        <ele>482.2</ele>
        <time>2025-10-19T13:14:20Z</time>
      </trkpt>
      <trkpt lat="43.21485" lon="5.471">
        <ele>482.3</ele>
        <time>2025-10-19T13:14:21Z</time>
      </trkpt>
      <trkpt lat="43.21486" lon="5.471">
        <ele>482.3</ele>
        <time>2025-10-19T13:14:22Z</time>
      </trkpt>
      <trkpt lat="43.21486" lon="5.47099">
        <ele>482.3</ele>
        <time>2025-10-19T13:14:23Z</time>
      </trkpt>
      <trkpt lat="43.21487" lon="5.47099">
        <ele>482.3</ele>
        <time>2025-10-19T13:14:24Z</time>
      </trkpt>
      <trkpt lat="43.21487" lon="5.47098">
        <ele>482.4</ele>
        <time>2025-10-19T13:14:25Z</time>
      </trkpt>
      <trkpt lat="43.21488" lon="5.47097">
        <ele>482.6</ele>
        <time>2025-10-19T13:14:26Z</time>
      </trkpt>
      <trkpt lat="43.21488" lon="5.47096">
        <ele>482.6</ele>
        <time>2025-10-19T13:14:27Z</time>
      </trkpt>
      <trkpt lat="43.21489" lon="5.47095">
        <ele>482.8</ele>
        <time>2025-10-19T13:14:28Z</time>
      </trkpt>
      <trkpt lat="43.21489" lon="5.47094">
        <ele>482.9</ele>
        <time>2025-10-19T13:14:29Z</time>
      </trkpt>
      <trkpt lat="43.21489" lon="5.47093">
        <ele>483</ele>
        <time>2025-10-19T13:14:30Z</time>
      </trkpt>
      <trkpt lat="43.21489" lon="5.47092">
        <ele>483.1</ele>
        <time>2025-10-19T13:14:31Z</time>
      </trkpt>
      <trkpt lat="43.21489" lon="5.47091">
        <ele>483.2</ele>
        <time>2025-10-19T13:14:32Z</time>
      </trkpt>
      <trkpt lat="43.21489" lon="5.4709">
        <ele>483.3</ele>
        <time>2025-10-19T13:14:33Z</time>
      </trkpt>
      <trkpt lat="43.21489" lon="5.47089">
        <ele>483.4</ele>
        <time>2025-10-19T13:14:34Z</time>
      </trkpt>
      <trkpt lat="43.21489" lon="5.47088">
        <ele>483.5</ele>
        <time>2025-10-19T13:14:35Z</time>
      </trkpt>
      <trkpt lat="43.2149" lon="5.47088">
        <ele>483.6</ele>
        <time>2025-10-19T13:14:36Z</time>
      </trkpt>
      <trkpt lat="43.2149" lon="5.47087">
        <ele>483.8</ele>
        <time>2025-10-19T13:14:37Z</time>
      </trkpt>
      <trkpt lat="43.2149" lon="5.47086">
        <ele>483.9</ele>
        <time>2025-10-19T13:14:38Z</time>
      </trkpt>
      <trkpt lat="43.21491" lon="5.47085">
        <ele>484</ele>
        <time>2025-10-19T13:14:39Z</time>
      </trkpt>
      <trkpt lat="43.21491" lon="5.47084">
        <ele>484.2</ele>
        <time>2025-10-19T13:14:40Z</time>
      </trkpt>
      <trkpt lat="43.21491" lon="5.47083">
        <ele>484.2</ele>
        <time>2025-10-19T13:14:41Z</time>
      </trkpt>
      <trkpt lat="43.21491" lon="5.47082">
        <ele>484.3</ele>
        <time>2025-10-19T13:14:42Z</time>
      </trkpt>
      <trkpt lat="43.21491" lon="5.47081">
        <ele>484.3</ele>
        <time>2025-10-19T13:14:43Z</time>
      </trkpt>
      <trkpt lat="43.21492" lon="5.4708">
        <ele>484.4</ele>
        <time>2025-10-19T13:14:44Z</time>
      </trkpt>
      <trkpt lat="43.21491" lon="5.47079">
        <ele>484.4</ele>
        <time>2025-10-19T13:14:45Z</time>
      </trkpt>
      <trkpt lat="43.21491" lon="5.47078">
        <ele>484.3</ele>
        <time>2025-10-19T13:14:46Z</time>
      </trkpt>
      <trkpt lat="43.21492" lon="5.47077">
        <ele>484.4</ele>
        <time>2025-10-19T13:14:47Z</time>
      </trkpt>
      <trkpt lat="43.21492" lon="5.47076">
        <ele>484.5</ele>
        <time>2025-10-19T13:14:48Z</time>
      </trkpt>
      <trkpt lat="43.21492" lon="5.47075">
        <ele>484.5</ele>
        <time>2025-10-19T13:14:49Z</time>
      </trkpt>
      <trkpt lat="43.21493" lon="5.47075">
        <ele>484.6</ele>
        <time>2025-10-19T13:14:50Z</time>
      </trkpt>
      <trkpt lat="43.21493" lon="5.47073">
        <ele>484.6</ele>
        <time>2025-10-19T13:14:51Z</time>
      </trkpt>
      <trkpt lat="43.21494" lon="5.47073">
        <ele>484.6</ele>
        <time>2025-10-19T13:14:52Z</time>
      </trkpt>
      <trkpt lat="43.21494" lon="5.47072">
        <ele>484.8</ele>
        <time>2025-10-19T13:14:53Z</time>
      </trkpt>
      <trkpt lat="43.21495" lon="5.47071">
        <ele>484.8</ele>
        <time>2025-10-19T13:14:54Z</time>
      </trkpt>
      <trkpt lat="43.21495" lon="5.4707">
        <ele>484.9</ele>
        <time>2025-10-19T13:14:55Z</time>
      </trkpt>
      <trkpt lat="43.21496" lon="5.47069">
        <ele>484.9</ele>
        <time>2025-10-19T13:14:56Z</time>
      </trkpt>
      <trkpt lat="43.21496" lon="5.47068">
        <ele>484.9</ele>
        <time>2025-10-19T13:14:57Z</time>
      </trkpt>
      <trkpt lat="43.21497" lon="5.47067">
        <ele>485.1</ele>
        <time>2025-10-19T13:14:58Z</time>
      </trkpt>
      <trkpt lat="43.21498" lon="5.47066">
        <ele>485.1</ele>
        <time>2025-10-19T13:14:59Z</time>
      </trkpt>
      <trkpt lat="43.21498" lon="5.47065">
        <ele>485.1</ele>
        <time>2025-10-19T13:15:00Z</time>
      </trkpt>
      <trkpt lat="43.21499" lon="5.47064">
        <ele>485</ele>
        <time>2025-10-19T13:15:01Z</time>
      </trkpt>
      <trkpt lat="43.21499" lon="5.47063">
        <ele>485.1</ele>
        <time>2025-10-19T13:15:02Z</time>
      </trkpt>
      <trkpt lat="43.215" lon="5.47063">
        <ele>485</ele>
        <time>2025-10-19T13:15:03Z</time>
      </trkpt>
      <trkpt lat="43.215" lon="5.47061">
        <ele>485</ele>
        <time>2025-10-19T13:15:04Z</time>
      </trkpt>
      <trkpt lat="43.21501" lon="5.4706">
        <ele>485</ele>
        <time>2025-10-19T13:15:05Z</time>
      </trkpt>
      <trkpt lat="43.21501" lon="5.4706">
        <ele>485</ele>
        <time>2025-10-19T13:15:06Z</time>
      </trkpt>
      <trkpt lat="43.21502" lon="5.47059">
        <ele>485</ele>
        <time>2025-10-19T13:15:07Z</time>
      </trkpt>
      <trkpt lat="43.21503" lon="5.47058">
        <ele>484.9</ele>
        <time>2025-10-19T13:15:08Z</time>
      </trkpt>
      <trkpt lat="43.21504" lon="5.47058">
        <ele>484.9</ele>
        <time>2025-10-19T13:15:09Z</time>
      </trkpt>
      <trkpt lat="43.21504" lon="5.47057">
        <ele>484.9</ele>
        <time>2025-10-19T13:15:10Z</time>
      </trkpt>
      <trkpt lat="43.21505" lon="5.47056">
        <ele>484.9</ele>
        <time>2025-10-19T13:15:11Z</time>
      </trkpt>
      <trkpt lat="43.21505" lon="5.47055">
        <ele>484.9</ele>
        <time>2025-10-19T13:15:12Z</time>
      </trkpt>
      <trkpt lat="43.21505" lon="5.47055">
        <ele>484.9</ele>
        <time>2025-10-19T13:15:13Z</time>
      </trkpt>
      <trkpt lat="43.21505" lon="5.47054">
        <ele>484.8</ele>
        <time>2025-10-19T13:15:14Z</time>
      </trkpt>
      <trkpt lat="43.21505" lon="5.47053">
        <ele>484.8</ele>
        <time>2025-10-19T13:15:15Z</time>
      </trkpt>
      <trkpt lat="43.21505" lon="5.47052">
        <ele>484.9</ele>
        <time>2025-10-19T13:15:16Z</time>
      </trkpt>
      <trkpt lat="43.21505" lon="5.47052">
        <ele>485.1</ele>
        <time>2025-10-19T13:15:17Z</time>
      </trkpt>
      <trkpt lat="43.21505" lon="5.47051">
        <ele>485.2</ele>
        <time>2025-10-19T13:15:18Z</time>
      </trkpt>
      <trkpt lat="43.21505" lon="5.47051">
        <ele>485.2</ele>
        <time>2025-10-19T13:15:19Z</time>
      </trkpt>
      <trkpt lat="43.21505" lon="5.4705">
        <ele>485.3</ele>
        <time>2025-10-19T13:15:20Z</time>
      </trkpt>
      <trkpt lat="43.21505" lon="5.47049">
        <ele>485.4</ele>
        <time>2025-10-19T13:15:21Z</time>
      </trkpt>
      <trkpt lat="43.21505" lon="5.47048">
        <ele>485.5</ele>
        <time>2025-10-19T13:15:22Z</time>
      </trkpt>
      <trkpt lat="43.21505" lon="5.47047">
        <ele>485.5</ele>
        <time>2025-10-19T13:15:23Z</time>
      </trkpt>
      <trkpt lat="43.21505" lon="5.47047">
        <ele>485.5</ele>
        <time>2025-10-19T13:15:24Z</time>
      </trkpt>
      <trkpt lat="43.21505" lon="5.47047">
        <ele>485.5</ele>
        <time>2025-10-19T13:15:25Z</time>
      </trkpt>
      <trkpt lat="43.21505" lon="5.47046">
        <ele>485.5</ele>
        <time>2025-10-19T13:15:26Z</time>
      </trkpt>
      <trkpt lat="43.21505" lon="5.47046">
        <ele>485.5</ele>
        <time>2025-10-19T13:15:27Z</time>
      </trkpt>
      <trkpt lat="43.21505" lon="5.47046">
        <ele>485.5</ele>
        <time>2025-10-19T13:15:28Z</time>
      </trkpt>
      <trkpt lat="43.21505" lon="5.47046">
        <ele>485.5</ele>
        <time>2025-10-19T13:15:29Z</time>
      </trkpt>
      <trkpt lat="43.21505" lon="5.47047">
        <ele>485.5</ele>
        <time>2025-10-19T13:15:30Z</time>
      </trkpt>
      <trkpt lat="43.21505" lon="5.47047">
        <ele>485.5</ele>
        <time>2025-10-19T13:15:31Z</time>
      </trkpt>
      <trkpt lat="43.21506" lon="5.47047">
        <ele>485.5</ele>
        <time>2025-10-19T13:15:32Z</time>
      </trkpt>
      <trkpt lat="43.21506" lon="5.47047">
        <ele>485.6</ele>
        <time>2025-10-19T13:15:33Z</time>
      </trkpt>
      <trkpt lat="43.21506" lon="5.47047">
        <ele>485.7</ele>
        <time>2025-10-19T13:15:34Z</time>
      </trkpt>
      <trkpt lat="43.21506" lon="5.47047">
        <ele>485.6</ele>
        <time>2025-10-19T13:15:35Z</time>
      </trkpt>
      <trkpt lat="43.21506" lon="5.47047">
        <ele>485.7</ele>
        <time>2025-10-19T13:15:36Z</time>
      </trkpt>
      <trkpt lat="43.21507" lon="5.47046">
        <ele>485.8</ele>
        <time>2025-10-19T13:15:37Z</time>
      </trkpt>
      <trkpt lat="43.21507" lon="5.47046">
        <ele>485.8</ele>
        <time>2025-10-19T13:15:38Z</time>
      </trkpt>
      <trkpt lat="43.21507" lon="5.47046">
        <ele>485.8</ele>
        <time>2025-10-19T13:15:39Z</time>
      </trkpt>
      <trkpt lat="43.21507" lon="5.47046">
        <ele>485.8</ele>
        <time>2025-10-19T13:15:40Z</time>
      </trkpt>
      <trkpt lat="43.21507" lon="5.47046">
        <ele>485.7</ele>
        <time>2025-10-19T13:15:41Z</time>
      </trkpt>
      <trkpt lat="43.21507" lon="5.47046">
        <ele>485.6</ele>
        <time>2025-10-19T13:15:42Z</time>
      </trkpt>
      <trkpt lat="43.21507" lon="5.47046">
        <ele>485.6</ele>
        <time>2025-10-19T13:15:43Z</time>
      </trkpt>
      <trkpt lat="43.21507" lon="5.47046">
        <ele>485.6</ele>
        <time>2025-10-19T13:15:44Z</time>
      </trkpt>
      <trkpt lat="43.21507" lon="5.47046">
        <ele>485.7</ele>
        <time>2025-10-19T13:15:45Z</time>
      </trkpt>
      <trkpt lat="43.21507" lon="5.47046">
        <ele>485.7</ele>
        <time>2025-10-19T13:15:46Z</time>
      </trkpt>
      <trkpt lat="43.21507" lon="5.47046">
        <ele>485.7</ele>
        <time>2025-10-19T13:15:47Z</time>
      </trkpt>
      <trkpt lat="43.21507" lon="5.47046">
        <ele>485.7</ele>
        <time>2025-10-19T13:15:48Z</time>
      </trkpt>
      <trkpt lat="43.21507" lon="5.47046">
        <ele>485.6</ele>
        <time>2025-10-19T13:15:49Z</time>
      </trkpt>
      <trkpt lat="43.21507" lon="5.47046">
        <ele>485.6</ele>
        <time>2025-10-19T13:15:50Z</time>
      </trkpt>
      <trkpt lat="43.21507" lon="5.47046">
        <ele>485.7</ele>
        <time>2025-10-19T13:15:51Z</time>
      </trkpt>
      <trkpt lat="43.21507" lon="5.47046">
        <ele>485.7</ele>
        <time>2025-10-19T13:15:52Z</time>
      </trkpt>
      <trkpt lat="43.21507" lon="5.47046">
        <ele>485.7</ele>
        <time>2025-10-19T13:15:53Z</time>
      </trkpt>
      <trkpt lat="43.21507" lon="5.47046">
        <ele>485.8</ele>
        <time>2025-10-19T13:15:54Z</time>
      </trkpt>
      <trkpt lat="43.21507" lon="5.47045">
        <ele>485.8</ele>
        <time>2025-10-19T13:15:55Z</time>
      </trkpt>
      <trkpt lat="43.21507" lon="5.47045">
        <ele>485.8</ele>
        <time>2025-10-19T13:15:56Z</time>
      </trkpt>
      <trkpt lat="43.21507" lon="5.47045">
        <ele>485.8</ele>
        <time>2025-10-19T13:15:57Z</time>
      </trkpt>
      <trkpt lat="43.21507" lon="5.47045">
        <ele>485.8</ele>
        <time>2025-10-19T13:15:58Z</time>
      </trkpt>
      <trkpt lat="43.21507" lon="5.47045">
        <ele>485.7</ele>
        <time>2025-10-19T13:15:59Z</time>
      </trkpt>
      <trkpt lat="43.21507" lon="5.47045">
        <ele>485.7</ele>
        <time>2025-10-19T13:16:00Z</time>
      </trkpt>
      <trkpt lat="43.21507" lon="5.47045">
        <ele>485.7</ele>
        <time>2025-10-19T13:16:01Z</time>
      </trkpt>
      <trkpt lat="43.21507" lon="5.47045">
        <ele>485.6</ele>
        <time>2025-10-19T13:16:02Z</time>
      </trkpt>
      <trkpt lat="43.21507" lon="5.47045">
        <ele>485.5</ele>
        <time>2025-10-19T13:16:03Z</time>
      </trkpt>
      <trkpt lat="43.21507" lon="5.47045">
        <ele>485.5</ele>
        <time>2025-10-19T13:16:04Z</time>
      </trkpt>
      <trkpt lat="43.21508" lon="5.47045">
        <ele>485.5</ele>
        <time>2025-10-19T13:16:05Z</time>
      </trkpt>
      <trkpt lat="43.21507" lon="5.47045">
        <ele>485.5</ele>
        <time>2025-10-19T13:16:06Z</time>
      </trkpt>
      <trkpt lat="43.21507" lon="5.47045">
        <ele>485.4</ele>
        <time>2025-10-19T13:16:07Z</time>
      </trkpt>
      <trkpt lat="43.21508" lon="5.47045">
        <ele>485.4</ele>
        <time>2025-10-19T13:16:08Z</time>
      </trkpt>
      <trkpt lat="43.21507" lon="5.47045">
        <ele>485.3</ele>
        <time>2025-10-19T13:16:09Z</time>
      </trkpt>
      <trkpt lat="43.21507" lon="5.47045">
        <ele>485.3</ele>
        <time>2025-10-19T13:16:10Z</time>
      </trkpt>
      <trkpt lat="43.21507" lon="5.47044">
        <ele>485.2</ele>
        <time>2025-10-19T13:16:11Z</time>
      </trkpt>
      <trkpt lat="43.21507" lon="5.47045">
        <ele>485.1</ele>
        <time>2025-10-19T13:16:12Z</time>
      </trkpt>
      <trkpt lat="43.21507" lon="5.47045">
        <ele>485.1</ele>
        <time>2025-10-19T13:16:13Z</time>
      </trkpt>
      <trkpt lat="43.21507" lon="5.47044">
        <ele>485</ele>
        <time>2025-10-19T13:16:14Z</time>
      </trkpt>
      <trkpt lat="43.21507" lon="5.47044">
        <ele>485</ele>
        <time>2025-10-19T13:16:15Z</time>
      </trkpt>
      <trkpt lat="43.21507" lon="5.47044">
        <ele>485</ele>
        <time>2025-10-19T13:16:16Z</time>
      </trkpt>
      <trkpt lat="43.21507" lon="5.47044">
        <ele>485.1</ele>
        <time>2025-10-19T13:16:17Z</time>
      </trkpt>
      <trkpt lat="43.21507" lon="5.47044">
        <ele>485</ele>
        <time>2025-10-19T13:16:18Z</time>
      </trkpt>
      <trkpt lat="43.21507" lon="5.47044">
        <ele>485</ele>
        <time>2025-10-19T13:16:19Z</time>
      </trkpt>
      <trkpt lat="43.21507" lon="5.47044">
        <ele>485</ele>
        <time>2025-10-19T13:16:20Z</time>
      </trkpt>
      <trkpt lat="43.21507" lon="5.47044">
        <ele>485.1</ele>
        <time>2025-10-19T13:16:21Z</time>
      </trkpt>
      <trkpt lat="43.21507" lon="5.47044">
        <ele>485</ele>
        <time>2025-10-19T13:16:22Z</time>
      </trkpt>
      <trkpt lat="43.21507" lon="5.47044">
        <ele>485</ele>
        <time>2025-10-19T13:16:23Z</time>
      </trkpt>
      <trkpt lat="43.21507" lon="5.47045">
        <ele>485</ele>
        <time>2025-10-19T13:16:24Z</time>
      </trkpt>
      <trkpt lat="43.21507" lon="5.47045">
        <ele>484.9</ele>
        <time>2025-10-19T13:16:25Z</time>
      </trkpt>
      <trkpt lat="43.21507" lon="5.47045">
        <ele>485</ele>
        <time>2025-10-19T13:16:26Z</time>
      </trkpt>
      <trkpt lat="43.21507" lon="5.47046">
        <ele>484.9</ele>
        <time>2025-10-19T13:16:27Z</time>
      </trkpt>
      <trkpt lat="43.21506" lon="5.47046">
        <ele>484.9</ele>
        <time>2025-10-19T13:16:28Z</time>
      </trkpt>
      <trkpt lat="43.21506" lon="5.47047">
        <ele>484.9</ele>
        <time>2025-10-19T13:16:29Z</time>
      </trkpt>
      <trkpt lat="43.21506" lon="5.47048">
        <ele>484.8</ele>
        <time>2025-10-19T13:16:30Z</time>
      </trkpt>
      <trkpt lat="43.21507" lon="5.47049">
        <ele>484.9</ele>
        <time>2025-10-19T13:16:31Z</time>
      </trkpt>
      <trkpt lat="43.21507" lon="5.4705">
        <ele>484.9</ele>
        <time>2025-10-19T13:16:32Z</time>
      </trkpt>
      <trkpt lat="43.21507" lon="5.47051">
        <ele>484.8</ele>
        <time>2025-10-19T13:16:33Z</time>
      </trkpt>
      <trkpt lat="43.21508" lon="5.4705">
        <ele>484.6</ele>
        <time>2025-10-19T13:16:34Z</time>
      </trkpt>
      <trkpt lat="43.21509" lon="5.4705">
        <ele>484.5</ele>
        <time>2025-10-19T13:16:35Z</time>
      </trkpt>
      <trkpt lat="43.2151" lon="5.47048">
        <ele>484.4</ele>
        <time>2025-10-19T13:16:36Z</time>
      </trkpt>
      <trkpt lat="43.21511" lon="5.47047">
        <ele>484.3</ele>
        <time>2025-10-19T13:16:37Z</time>
      </trkpt>
      <trkpt lat="43.21511" lon="5.47046">
        <ele>484.2</ele>
        <time>2025-10-19T13:16:38Z</time>
      </trkpt>
      <trkpt lat="43.21511" lon="5.47045">
        <ele>484.3</ele>
        <time>2025-10-19T13:16:39Z</time>
      </trkpt>
      <trkpt lat="43.21512" lon="5.47044">
        <ele>484.3</ele>
        <time>2025-10-19T13:16:40Z</time>
      </trkpt>
      <trkpt lat="43.21512" lon="5.47043">
        <ele>484.4</ele>
        <time>2025-10-19T13:16:41Z</time>
      </trkpt>
      <trkpt lat="43.21513" lon="5.47042">
        <ele>484.4</ele>
        <time>2025-10-19T13:16:42Z</time>
      </trkpt>
      <trkpt lat="43.21513" lon="5.47041">
        <ele>484.4</ele>
        <time>2025-10-19T13:16:43Z</time>
      </trkpt>
      <trkpt lat="43.21514" lon="5.4704">
        <ele>484.4</ele>
        <time>2025-10-19T13:16:44Z</time>
      </trkpt>
      <trkpt lat="43.21514" lon="5.47039">
        <ele>484.4</ele>
        <time>2025-10-19T13:16:45Z</time>
      </trkpt>
      <trkpt lat="43.21515" lon="5.47038">
        <ele>484.4</ele>
        <time>2025-10-19T13:16:46Z</time>
      </trkpt>
      <trkpt lat="43.21515" lon="5.47037">
        <ele>484.6</ele>
        <time>2025-10-19T13:16:47Z</time>
      </trkpt>
      <trkpt lat="43.21515" lon="5.47036">
        <ele>484.7</ele>
        <time>2025-10-19T13:16:48Z</time>
      </trkpt>
      <trkpt lat="43.21516" lon="5.47035">
        <ele>484.8</ele>
        <time>2025-10-19T13:16:49Z</time>
      </trkpt>
      <trkpt lat="43.21516" lon="5.47034">
        <ele>484.9</ele>
        <time>2025-10-19T13:16:50Z</time>
      </trkpt>
      <trkpt lat="43.21516" lon="5.47032">
        <ele>485.1</ele>
        <time>2025-10-19T13:16:51Z</time>
      </trkpt>
      <trkpt lat="43.21517" lon="5.47031">
        <ele>485.2</ele>
        <time>2025-10-19T13:16:52Z</time>
      </trkpt>
      <trkpt lat="43.21517" lon="5.4703">
        <ele>485.2</ele>
        <time>2025-10-19T13:16:53Z</time>
      </trkpt>
      <trkpt lat="43.21517" lon="5.47029">
        <ele>485.2</ele>
        <time>2025-10-19T13:16:54Z</time>
      </trkpt>
      <trkpt lat="43.21517" lon="5.47028">
        <ele>485.3</ele>
        <time>2025-10-19T13:16:55Z</time>
      </trkpt>
      <trkpt lat="43.21518" lon="5.47027">
        <ele>485.3</ele>
        <time>2025-10-19T13:16:56Z</time>
      </trkpt>
      <trkpt lat="43.21519" lon="5.47026">
        <ele>485.4</ele>
        <time>2025-10-19T13:16:57Z</time>
      </trkpt>
      <trkpt lat="43.21519" lon="5.47025">
        <ele>485.4</ele>
        <time>2025-10-19T13:16:58Z</time>
      </trkpt>
      <trkpt lat="43.2152" lon="5.47025">
        <ele>485.5</ele>
        <time>2025-10-19T13:16:59Z</time>
      </trkpt>
      <trkpt lat="43.21521" lon="5.47024">
        <ele>485.6</ele>
        <time>2025-10-19T13:17:00Z</time>
      </trkpt>
      <trkpt lat="43.21521" lon="5.47023">
        <ele>485.7</ele>
        <time>2025-10-19T13:17:01Z</time>
      </trkpt>
      <trkpt lat="43.21522" lon="5.47022">
        <ele>485.8</ele>
        <time>2025-10-19T13:17:02Z</time>
      </trkpt>
      <trkpt lat="43.21522" lon="5.47021">
        <ele>485.9</ele>
        <time>2025-10-19T13:17:03Z</time>
      </trkpt>
      <trkpt lat="43.21522" lon="5.4702">
        <ele>486.1</ele>
        <time>2025-10-19T13:17:04Z</time>
      </trkpt>
      <trkpt lat="43.21523" lon="5.47019">
        <ele>486.2</ele>
        <time>2025-10-19T13:17:05Z</time>
      </trkpt>
      <trkpt lat="43.21522" lon="5.47018">
        <ele>486.4</ele>
        <time>2025-10-19T13:17:06Z</time>
      </trkpt>
      <trkpt lat="43.21522" lon="5.47017">
        <ele>486.5</ele>
        <time>2025-10-19T13:17:07Z</time>
      </trkpt>
      <trkpt lat="43.21523" lon="5.47016">
        <ele>486.5</ele>
        <time>2025-10-19T13:17:08Z</time>
      </trkpt>
      <trkpt lat="43.21523" lon="5.47015">
        <ele>486.7</ele>
        <time>2025-10-19T13:17:09Z</time>
      </trkpt>
      <trkpt lat="43.21523" lon="5.47015">
        <ele>486.8</ele>
        <time>2025-10-19T13:17:10Z</time>
      </trkpt>
      <trkpt lat="43.21524" lon="5.47014">
        <ele>486.9</ele>
        <time>2025-10-19T13:17:11Z</time>
      </trkpt>
      <trkpt lat="43.21524" lon="5.47014">
        <ele>486.9</ele>
        <time>2025-10-19T13:17:12Z</time>
      </trkpt>
      <trkpt lat="43.21524" lon="5.47013">
        <ele>487</ele>
        <time>2025-10-19T13:17:13Z</time>
      </trkpt>
      <trkpt lat="43.21524" lon="5.47012">
        <ele>487.1</ele>
        <time>2025-10-19T13:17:14Z</time>
      </trkpt>
      <trkpt lat="43.21525" lon="5.47012">
        <ele>487.1</ele>
        <time>2025-10-19T13:17:15Z</time>
      </trkpt>
      <trkpt lat="43.21525" lon="5.47012">
        <ele>487.2</ele>
        <time>2025-10-19T13:17:16Z</time>
      </trkpt>
      <trkpt lat="43.21526" lon="5.47011">
        <ele>487.3</ele>
        <time>2025-10-19T13:17:17Z</time>
      </trkpt>
      <trkpt lat="43.21526" lon="5.47011">
        <ele>487.4</ele>
        <time>2025-10-19T13:17:18Z</time>
      </trkpt>
      <trkpt lat="43.21527" lon="5.4701">
        <ele>487.4</ele>
        <time>2025-10-19T13:17:19Z</time>
      </trkpt>
      <trkpt lat="43.21528" lon="5.4701">
        <ele>487.6</ele>
        <time>2025-10-19T13:17:20Z</time>
      </trkpt>
      <trkpt lat="43.21528" lon="5.47009">
        <ele>487.7</ele>
        <time>2025-10-19T13:17:21Z</time>
      </trkpt>
      <trkpt lat="43.21529" lon="5.47009">
        <ele>487.7</ele>
        <time>2025-10-19T13:17:22Z</time>
      </trkpt>
      <trkpt lat="43.21529" lon="5.47008">
        <ele>487.8</ele>
        <time>2025-10-19T13:17:23Z</time>
      </trkpt>
      <trkpt lat="43.2153" lon="5.47008">
        <ele>487.8</ele>
        <time>2025-10-19T13:17:24Z</time>
      </trkpt>
      <trkpt lat="43.21531" lon="5.47007">
        <ele>488</ele>
        <time>2025-10-19T13:17:25Z</time>
      </trkpt>
      <trkpt lat="43.21531" lon="5.47007">
        <ele>488.2</ele>
        <time>2025-10-19T13:17:26Z</time>
      </trkpt>
      <trkpt lat="43.21532" lon="5.47006">
        <ele>488.3</ele>
        <time>2025-10-19T13:17:27Z</time>
      </trkpt>
      <trkpt lat="43.21532" lon="5.47005">
        <ele>488.4</ele>
        <time>2025-10-19T13:17:28Z</time>
      </trkpt>
      <trkpt lat="43.21532" lon="5.47003">
        <ele>488.5</ele>
        <time>2025-10-19T13:17:29Z</time>
      </trkpt>
      <trkpt lat="43.21532" lon="5.47003">
        <ele>488.6</ele>
        <time>2025-10-19T13:17:30Z</time>
      </trkpt>
      <trkpt lat="43.21533" lon="5.47002">
        <ele>488.7</ele>
        <time>2025-10-19T13:17:31Z</time>
      </trkpt>
      <trkpt lat="43.21533" lon="5.47002">
        <ele>488.7</ele>
        <time>2025-10-19T13:17:32Z</time>
      </trkpt>
      <trkpt lat="43.21533" lon="5.47001">
        <ele>488.8</ele>
        <time>2025-10-19T13:17:33Z</time>
      </trkpt>
      <trkpt lat="43.21533" lon="5.47">
        <ele>488.8</ele>
        <time>2025-10-19T13:17:34Z</time>
      </trkpt>
      <trkpt lat="43.21533" lon="5.46999">
        <ele>488.9</ele>
        <time>2025-10-19T13:17:35Z</time>
      </trkpt>
      <trkpt lat="43.21533" lon="5.46998">
        <ele>489.1</ele>
        <time>2025-10-19T13:17:36Z</time>
      </trkpt>
      <trkpt lat="43.21533" lon="5.46997">
        <ele>489.3</ele>
        <time>2025-10-19T13:17:37Z</time>
      </trkpt>
      <trkpt lat="43.21533" lon="5.46996">
        <ele>489.5</ele>
        <time>2025-10-19T13:17:38Z</time>
      </trkpt>
      <trkpt lat="43.21534" lon="5.46995">
        <ele>489.8</ele>
        <time>2025-10-19T13:17:39Z</time>
      </trkpt>
      <trkpt lat="43.21533" lon="5.46994">
        <ele>490.1</ele>
        <time>2025-10-19T13:17:40Z</time>
      </trkpt>
      <trkpt lat="43.21533" lon="5.46993">
        <ele>490.3</ele>
        <time>2025-10-19T13:17:41Z</time>
      </trkpt>
      <trkpt lat="43.21533" lon="5.46992">
        <ele>490.6</ele>
        <time>2025-10-19T13:17:42Z</time>
      </trkpt>
      <trkpt lat="43.21532" lon="5.46992">
        <ele>491</ele>
        <time>2025-10-19T13:17:43Z</time>
      </trkpt>
      <trkpt lat="43.21532" lon="5.46991">
        <ele>491.4</ele>
        <time>2025-10-19T13:17:44Z</time>
      </trkpt>
      <trkpt lat="43.21531" lon="5.46991">
        <ele>491.8</ele>
        <time>2025-10-19T13:17:45Z</time>
      </trkpt>
      <trkpt lat="43.21531" lon="5.46991">
        <ele>492.2</ele>
        <time>2025-10-19T13:17:46Z</time>
      </trkpt>
      <trkpt lat="43.2153" lon="5.4699">
        <ele>492.4</ele>
        <time>2025-10-19T13:17:47Z</time>
      </trkpt>
      <trkpt lat="43.2153" lon="5.4699">
        <ele>492.6</ele>
        <time>2025-10-19T13:17:48Z</time>
      </trkpt>
      <trkpt lat="43.21529" lon="5.46989">
        <ele>492.8</ele>
        <time>2025-10-19T13:17:49Z</time>
      </trkpt>
      <trkpt lat="43.21529" lon="5.46989">
        <ele>493</ele>
        <time>2025-10-19T13:17:50Z</time>
      </trkpt>
      <trkpt lat="43.21528" lon="5.46988">
        <ele>492.9</ele>
        <time>2025-10-19T13:17:51Z</time>
      </trkpt>
      <trkpt lat="43.21528" lon="5.46988">
        <ele>492.8</ele>
        <time>2025-10-19T13:17:52Z</time>
      </trkpt>
      <trkpt lat="43.21529" lon="5.46988">
        <ele>492.8</ele>
        <time>2025-10-19T13:17:53Z</time>
      </trkpt>
      <trkpt lat="43.21529" lon="5.46987">
        <ele>492.7</ele>
        <time>2025-10-19T13:17:54Z</time>
      </trkpt>
      <trkpt lat="43.21529" lon="5.46987">
        <ele>492.8</ele>
        <time>2025-10-19T13:17:55Z</time>
      </trkpt>
      <trkpt lat="43.2153" lon="5.46987">
        <ele>493.1</ele>
        <time>2025-10-19T13:17:56Z</time>
      </trkpt>
      <trkpt lat="43.2153" lon="5.46986">
        <ele>493.1</ele>
        <time>2025-10-19T13:17:57Z</time>
      </trkpt>
      <trkpt lat="43.2153" lon="5.46986">
        <ele>493</ele>
        <time>2025-10-19T13:17:58Z</time>
      </trkpt>
      <trkpt lat="43.2153" lon="5.46986">
        <ele>493</ele>
        <time>2025-10-19T13:17:59Z</time>
      </trkpt>
      <trkpt lat="43.2153" lon="5.46986">
        <ele>493.1</ele>
        <time>2025-10-19T13:18:00Z</time>
      </trkpt>
      <trkpt lat="43.2153" lon="5.46986">
        <ele>493.3</ele>
        <time>2025-10-19T13:18:01Z</time>
      </trkpt>
      <trkpt lat="43.2153" lon="5.46986">
        <ele>493.5</ele>
        <time>2025-10-19T13:18:02Z</time>
      </trkpt>
      <trkpt lat="43.2153" lon="5.46986">
        <ele>493.6</ele>
        <time>2025-10-19T13:18:03Z</time>
      </trkpt>
      <trkpt lat="43.2153" lon="5.46985">
        <ele>493.7</ele>
        <time>2025-10-19T13:18:04Z</time>
      </trkpt>
      <trkpt lat="43.2153" lon="5.46986">
        <ele>493.8</ele>
        <time>2025-10-19T13:18:05Z</time>
      </trkpt>
      <trkpt lat="43.2153" lon="5.46986">
        <ele>493.8</ele>
        <time>2025-10-19T13:18:06Z</time>
      </trkpt>
      <trkpt lat="43.2153" lon="5.46986">
        <ele>493.9</ele>
        <time>2025-10-19T13:18:07Z</time>
      </trkpt>
      <trkpt lat="43.2153" lon="5.46985">
        <ele>493.9</ele>
        <time>2025-10-19T13:18:08Z</time>
      </trkpt>
      <trkpt lat="43.2153" lon="5.46985">
        <ele>493.9</ele>
        <time>2025-10-19T13:18:09Z</time>
      </trkpt>
      <trkpt lat="43.2153" lon="5.46985">
        <ele>494</ele>
        <time>2025-10-19T13:18:10Z</time>
      </trkpt>
      <trkpt lat="43.2153" lon="5.46985">
        <ele>494.1</ele>
        <time>2025-10-19T13:18:11Z</time>
      </trkpt>
      <trkpt lat="43.2153" lon="5.46985">
        <ele>494.1</ele>
        <time>2025-10-19T13:18:12Z</time>
      </trkpt>
      <trkpt lat="43.2153" lon="5.46985">
        <ele>494.1</ele>
        <time>2025-10-19T13:18:13Z</time>
      </trkpt>
      <trkpt lat="43.2153" lon="5.46985">
        <ele>494.2</ele>
        <time>2025-10-19T13:18:14Z</time>
      </trkpt>
      <trkpt lat="43.2153" lon="5.46985">
        <ele>494.1</ele>
        <time>2025-10-19T13:18:15Z</time>
      </trkpt>
      <trkpt lat="43.2153" lon="5.46985">
        <ele>494</ele>
        <time>2025-10-19T13:18:16Z</time>
      </trkpt>
      <trkpt lat="43.21529" lon="5.46984">
        <ele>493.9</ele>
        <time>2025-10-19T13:18:17Z</time>
      </trkpt>
      <trkpt lat="43.21529" lon="5.46984">
        <ele>493.8</ele>
        <time>2025-10-19T13:18:18Z</time>
      </trkpt>
      <trkpt lat="43.21529" lon="5.46984">
        <ele>493.6</ele>
        <time>2025-10-19T13:18:19Z</time>
      </trkpt>
      <trkpt lat="43.21529" lon="5.46984">
        <ele>493.6</ele>
        <time>2025-10-19T13:18:20Z</time>
      </trkpt>
      <trkpt lat="43.21529" lon="5.46983">
        <ele>493.5</ele>
        <time>2025-10-19T13:18:21Z</time>
      </trkpt>
      <trkpt lat="43.21529" lon="5.46983">
        <ele>493.5</ele>
        <time>2025-10-19T13:18:22Z</time>
      </trkpt>
      <trkpt lat="43.21529" lon="5.46983">
        <ele>493.4</ele>
        <time>2025-10-19T13:18:23Z</time>
      </trkpt>
      <trkpt lat="43.2153" lon="5.46983">
        <ele>493.4</ele>
        <time>2025-10-19T13:18:24Z</time>
      </trkpt>
      <trkpt lat="43.2153" lon="5.46983">
        <ele>493.4</ele>
        <time>2025-10-19T13:18:25Z</time>
      </trkpt>
      <trkpt lat="43.2153" lon="5.46983">
        <ele>493.4</ele>
        <time>2025-10-19T13:18:26Z</time>
      </trkpt>
      <trkpt lat="43.2153" lon="5.46983">
        <ele>493.4</ele>
        <time>2025-10-19T13:18:27Z</time>
      </trkpt>
      <trkpt lat="43.2153" lon="5.46983">
        <ele>493.4</ele>
        <time>2025-10-19T13:18:28Z</time>
      </trkpt>
      <trkpt lat="43.2153" lon="5.46983">
        <ele>493.4</ele>
        <time>2025-10-19T13:18:29Z</time>
      </trkpt>
      <trkpt lat="43.2153" lon="5.46983">
        <ele>493.4</ele>
        <time>2025-10-19T13:18:30Z</time>
      </trkpt>
      <trkpt lat="43.2153" lon="5.46982">
        <ele>493.5</ele>
        <time>2025-10-19T13:18:31Z</time>
      </trkpt>
      <trkpt lat="43.2153" lon="5.46982">
        <ele>493.6</ele>
        <time>2025-10-19T13:18:32Z</time>
      </trkpt>
      <trkpt lat="43.2153" lon="5.46982">
        <ele>493.6</ele>
        <time>2025-10-19T13:18:33Z</time>
      </trkpt>
      <trkpt lat="43.2153" lon="5.46982">
        <ele>493.7</ele>
        <time>2025-10-19T13:18:34Z</time>
      </trkpt>
      <trkpt lat="43.2153" lon="5.46982">
        <ele>493.7</ele>
        <time>2025-10-19T13:18:35Z</time>
      </trkpt>
      <trkpt lat="43.2153" lon="5.46982">
        <ele>493.7</ele>
        <time>2025-10-19T13:18:36Z</time>
      </trkpt>
      <trkpt lat="43.21529" lon="5.46982">
        <ele>493.7</ele>
        <time>2025-10-19T13:18:37Z</time>
      </trkpt>
      <trkpt lat="43.21529" lon="5.46982">
        <ele>493.7</ele>
        <time>2025-10-19T13:18:38Z</time>
      </trkpt>
      <trkpt lat="43.21529" lon="5.46982">
        <ele>493.7</ele>
        <time>2025-10-19T13:18:39Z</time>
      </trkpt>
      <trkpt lat="43.21529" lon="5.46982">
        <ele>493.8</ele>
        <time>2025-10-19T13:18:40Z</time>
      </trkpt>
      <trkpt lat="43.21529" lon="5.46982">
        <ele>493.9</ele>
        <time>2025-10-19T13:18:41Z</time>
      </trkpt>
      <trkpt lat="43.21529" lon="5.46982">
        <ele>493.8</ele>
        <time>2025-10-19T13:18:42Z</time>
      </trkpt>
      <trkpt lat="43.21529" lon="5.46982">
        <ele>493.8</ele>
        <time>2025-10-19T13:18:43Z</time>
      </trkpt>
      <trkpt lat="43.21529" lon="5.46982">
        <ele>493.8</ele>
        <time>2025-10-19T13:18:44Z</time>
      </trkpt>
      <trkpt lat="43.21529" lon="5.46982">
        <ele>493.7</ele>
        <time>2025-10-19T13:18:45Z</time>
      </trkpt>
      <trkpt lat="43.21529" lon="5.46982">
        <ele>493.7</ele>
        <time>2025-10-19T13:18:46Z</time>
      </trkpt>
      <trkpt lat="43.21529" lon="5.46981">
        <ele>493.7</ele>
        <time>2025-10-19T13:18:47Z</time>
      </trkpt>
      <trkpt lat="43.21529" lon="5.46981">
        <ele>493.8</ele>
        <time>2025-10-19T13:18:48Z</time>
      </trkpt>
      <trkpt lat="43.21528" lon="5.46981">
        <ele>493.9</ele>
        <time>2025-10-19T13:18:49Z</time>
      </trkpt>
      <trkpt lat="43.21529" lon="5.46981">
        <ele>494.1</ele>
        <time>2025-10-19T13:18:50Z</time>
      </trkpt>
      <trkpt lat="43.21528" lon="5.46981">
        <ele>494.2</ele>
        <time>2025-10-19T13:18:51Z</time>
      </trkpt>
      <trkpt lat="43.21528" lon="5.46981">
        <ele>494.3</ele>
        <time>2025-10-19T13:18:52Z</time>
      </trkpt>
      <trkpt lat="43.21528" lon="5.46981">
        <ele>494.3</ele>
        <time>2025-10-19T13:18:53Z</time>
      </trkpt>
      <trkpt lat="43.21528" lon="5.4698">
        <ele>494.4</ele>
        <time>2025-10-19T13:18:54Z</time>
      </trkpt>
      <trkpt lat="43.21528" lon="5.4698">
        <ele>494.5</ele>
        <time>2025-10-19T13:18:55Z</time>
      </trkpt>
      <trkpt lat="43.21528" lon="5.4698">
        <ele>494.5</ele>
        <time>2025-10-19T13:18:56Z</time>
      </trkpt>
      <trkpt lat="43.21528" lon="5.4698">
        <ele>494.5</ele>
        <time>2025-10-19T13:18:57Z</time>
      </trkpt>
      <trkpt lat="43.21528" lon="5.4698">
        <ele>494.3</ele>
        <time>2025-10-19T13:18:58Z</time>
      </trkpt>
      <trkpt lat="43.21528" lon="5.4698">
        <ele>494.3</ele>
        <time>2025-10-19T13:18:59Z</time>
      </trkpt>
      <trkpt lat="43.21528" lon="5.4698">
        <ele>494.3</ele>
        <time>2025-10-19T13:19:00Z</time>
      </trkpt>
      <trkpt lat="43.21528" lon="5.4698">
        <ele>494.2</ele>
        <time>2025-10-19T13:19:01Z</time>
      </trkpt>
      <trkpt lat="43.21528" lon="5.4698">
        <ele>494.1</ele>
        <time>2025-10-19T13:19:02Z</time>
      </trkpt>
      <trkpt lat="43.21528" lon="5.4698">
        <ele>494</ele>
        <time>2025-10-19T13:19:03Z</time>
      </trkpt>
      <trkpt lat="43.21528" lon="5.4698">
        <ele>494</ele>
        <time>2025-10-19T13:19:04Z</time>
      </trkpt>
      <trkpt lat="43.21528" lon="5.4698">
        <ele>494</ele>
        <time>2025-10-19T13:19:05Z</time>
      </trkpt>
      <trkpt lat="43.21528" lon="5.4698">
        <ele>494</ele>
        <time>2025-10-19T13:19:06Z</time>
      </trkpt>
      <trkpt lat="43.21528" lon="5.4698">
        <ele>494</ele>
        <time>2025-10-19T13:19:07Z</time>
      </trkpt>
      <trkpt lat="43.21528" lon="5.46979">
        <ele>494</ele>
        <time>2025-10-19T13:19:08Z</time>
      </trkpt>
      <trkpt lat="43.21528" lon="5.46979">
        <ele>494.1</ele>
        <time>2025-10-19T13:19:09Z</time>
      </trkpt>
      <trkpt lat="43.21528" lon="5.46979">
        <ele>494.1</ele>
        <time>2025-10-19T13:19:10Z</time>
      </trkpt>
      <trkpt lat="43.21528" lon="5.46979">
        <ele>494.2</ele>
        <time>2025-10-19T13:19:11Z</time>
      </trkpt>
      <trkpt lat="43.21528" lon="5.46979">
        <ele>494.1</ele>
        <time>2025-10-19T13:19:12Z</time>
      </trkpt>
      <trkpt lat="43.21528" lon="5.46979">
        <ele>494.2</ele>
        <time>2025-10-19T13:19:13Z</time>
      </trkpt>
      <trkpt lat="43.21528" lon="5.46979">
        <ele>494.2</ele>
        <time>2025-10-19T13:19:14Z</time>
      </trkpt>
      <trkpt lat="43.21528" lon="5.46979">
        <ele>494.2</ele>
        <time>2025-10-19T13:19:15Z</time>
      </trkpt>
      <trkpt lat="43.21528" lon="5.46979">
        <ele>494.2</ele>
        <time>2025-10-19T13:19:16Z</time>
      </trkpt>
      <trkpt lat="43.21528" lon="5.46979">
        <ele>494.1</ele>
        <time>2025-10-19T13:19:17Z</time>
      </trkpt>
      <trkpt lat="43.21527" lon="5.46979">
        <ele>494.1</ele>
        <time>2025-10-19T13:19:18Z</time>
      </trkpt>
      <trkpt lat="43.21527" lon="5.46979">
        <ele>494.1</ele>
        <time>2025-10-19T13:19:19Z</time>
      </trkpt>
      <trkpt lat="43.21527" lon="5.46979">
        <ele>494.1</ele>
        <time>2025-10-19T13:19:20Z</time>
      </trkpt>
      <trkpt lat="43.21527" lon="5.46978">
        <ele>494.1</ele>
        <time>2025-10-19T13:19:21Z</time>
      </trkpt>
      <trkpt lat="43.21527" lon="5.46978">
        <ele>494.1</ele>
        <time>2025-10-19T13:19:22Z</time>
      </trkpt>
      <trkpt lat="43.21527" lon="5.46978">
        <ele>494</ele>
        <time>2025-10-19T13:19:23Z</time>
      </trkpt>
      <trkpt lat="43.21527" lon="5.46978">
        <ele>494</ele>
        <time>2025-10-19T13:19:24Z</time>
      </trkpt>
      <trkpt lat="43.21527" lon="5.46978">
        <ele>494</ele>
        <time>2025-10-19T13:19:25Z</time>
      </trkpt>
      <trkpt lat="43.21527" lon="5.46978">
        <ele>494</ele>
        <time>2025-10-19T13:19:26Z</time>
      </trkpt>
      <trkpt lat="43.21527" lon="5.46978">
        <ele>494</ele>
        <time>2025-10-19T13:19:27Z</time>
      </trkpt>
      <trkpt lat="43.21527" lon="5.46978">
        <ele>494</ele>
        <time>2025-10-19T13:19:28Z</time>
      </trkpt>
      <trkpt lat="43.21527" lon="5.46978">
        <ele>494</ele>
        <time>2025-10-19T13:19:29Z</time>
      </trkpt>
      <trkpt lat="43.21527" lon="5.46978">
        <ele>494</ele>
        <time>2025-10-19T13:19:30Z</time>
      </trkpt>
      <trkpt lat="43.21527" lon="5.46978">
        <ele>494</ele>
        <time>2025-10-19T13:19:31Z</time>
      </trkpt>
      <trkpt lat="43.21527" lon="5.46978">
        <ele>494</ele>
        <time>2025-10-19T13:19:32Z</time>
      </trkpt>
      <trkpt lat="43.21527" lon="5.46978">
        <ele>493.9</ele>
        <time>2025-10-19T13:19:33Z</time>
      </trkpt>
      <trkpt lat="43.21527" lon="5.46978">
        <ele>493.9</ele>
        <time>2025-10-19T13:19:34Z</time>
      </trkpt>
      <trkpt lat="43.21527" lon="5.46978">
        <ele>493.8</ele>
        <time>2025-10-19T13:19:35Z</time>
      </trkpt>
      <trkpt lat="43.21527" lon="5.46978">
        <ele>493.8</ele>
        <time>2025-10-19T13:19:36Z</time>
      </trkpt>
      <trkpt lat="43.21527" lon="5.46979">
        <ele>493.7</ele>
        <time>2025-10-19T13:19:37Z</time>
      </trkpt>
      <trkpt lat="43.21527" lon="5.46979">
        <ele>493.8</ele>
        <time>2025-10-19T13:19:38Z</time>
      </trkpt>
      <trkpt lat="43.21528" lon="5.46979">
        <ele>493.8</ele>
        <time>2025-10-19T13:19:39Z</time>
      </trkpt>
      <trkpt lat="43.21528" lon="5.46979">
        <ele>493.9</ele>
        <time>2025-10-19T13:19:40Z</time>
      </trkpt>
      <trkpt lat="43.21528" lon="5.46979">
        <ele>493.9</ele>
        <time>2025-10-19T13:19:41Z</time>
      </trkpt>
      <trkpt lat="43.21528" lon="5.46979">
        <ele>494</ele>
        <time>2025-10-19T13:19:42Z</time>
      </trkpt>
      <trkpt lat="43.21528" lon="5.46978">
        <ele>493.9</ele>
        <time>2025-10-19T13:19:43Z</time>
      </trkpt>
      <trkpt lat="43.21528" lon="5.46978">
        <ele>493.9</ele>
        <time>2025-10-19T13:19:44Z</time>
      </trkpt>
      <trkpt lat="43.21528" lon="5.46978">
        <ele>493.9</ele>
        <time>2025-10-19T13:19:45Z</time>
      </trkpt>
      <trkpt lat="43.21528" lon="5.46978">
        <ele>493.9</ele>
        <time>2025-10-19T13:19:46Z</time>
      </trkpt>
      <trkpt lat="43.21528" lon="5.46978">
        <ele>494</ele>
        <time>2025-10-19T13:19:47Z</time>
      </trkpt>
      <trkpt lat="43.21528" lon="5.46979">
        <ele>494</ele>
        <time>2025-10-19T13:19:48Z</time>
      </trkpt>
      <trkpt lat="43.21528" lon="5.46979">
        <ele>494</ele>
        <time>2025-10-19T13:19:49Z</time>
      </trkpt>
      <trkpt lat="43.21528" lon="5.46979">
        <ele>493.9</ele>
        <time>2025-10-19T13:19:50Z</time>
      </trkpt>
      <trkpt lat="43.21527" lon="5.46978">
        <ele>493.9</ele>
        <time>2025-10-19T13:19:51Z</time>
      </trkpt>
      <trkpt lat="43.21527" lon="5.46978">
        <ele>493.8</ele>
        <time>2025-10-19T13:19:52Z</time>
      </trkpt>
      <trkpt lat="43.21528" lon="5.46979">
        <ele>493.8</ele>
        <time>2025-10-19T13:19:53Z</time>
      </trkpt>
      <trkpt lat="43.21528" lon="5.46979">
        <ele>493.8</ele>
        <time>2025-10-19T13:19:54Z</time>
      </trkpt>
      <trkpt lat="43.21528" lon="5.46979">
        <ele>493.8</ele>
        <time>2025-10-19T13:19:55Z</time>
      </trkpt>
      <trkpt lat="43.21528" lon="5.46979">
        <ele>493.7</ele>
        <time>2025-10-19T13:19:56Z</time>
      </trkpt>
      <trkpt lat="43.21528" lon="5.46979">
        <ele>493.7</ele>
        <time>2025-10-19T13:19:57Z</time>
      </trkpt>
      <trkpt lat="43.21527" lon="5.46979">
        <ele>493.6</ele>
        <time>2025-10-19T13:19:58Z</time>
      </trkpt>
      <trkpt lat="43.21528" lon="5.46979">
        <ele>493.5</ele>
        <time>2025-10-19T13:19:59Z</time>
      </trkpt>
      <trkpt lat="43.21528" lon="5.46979">
        <ele>493.5</ele>
        <time>2025-10-19T13:20:00Z</time>
      </trkpt>
      <trkpt lat="43.21528" lon="5.46979">
        <ele>493.4</ele>
        <time>2025-10-19T13:20:01Z</time>
      </trkpt>
      <trkpt lat="43.21528" lon="5.46979">
        <ele>493.5</ele>
        <time>2025-10-19T13:20:02Z</time>
      </trkpt>
      <trkpt lat="43.21528" lon="5.46979">
        <ele>493.5</ele>
        <time>2025-10-19T13:20:03Z</time>
      </trkpt>
      <trkpt lat="43.21528" lon="5.46979">
        <ele>493.6</ele>
        <time>2025-10-19T13:20:04Z</time>
      </trkpt>
      <trkpt lat="43.21528" lon="5.46979">
        <ele>493.5</ele>
        <time>2025-10-19T13:20:05Z</time>
      </trkpt>
      <trkpt lat="43.21528" lon="5.46979">
        <ele>493.5</ele>
        <time>2025-10-19T13:20:06Z</time>
      </trkpt>
      <trkpt lat="43.21528" lon="5.46979">
        <ele>493.5</ele>
        <time>2025-10-19T13:20:07Z</time>
      </trkpt>
      <trkpt lat="43.21528" lon="5.46979">
        <ele>493.5</ele>
        <time>2025-10-19T13:20:08Z</time>
      </trkpt>
      <trkpt lat="43.21528" lon="5.46979">
        <ele>493.5</ele>
        <time>2025-10-19T13:20:09Z</time>
      </trkpt>
      <trkpt lat="43.21527" lon="5.46979">
        <ele>493.5</ele>
        <time>2025-10-19T13:20:10Z</time>
      </trkpt>
      <trkpt lat="43.21528" lon="5.46979">
        <ele>493.5</ele>
        <time>2025-10-19T13:20:11Z</time>
      </trkpt>
      <trkpt lat="43.21528" lon="5.46979">
        <ele>493.4</ele>
        <time>2025-10-19T13:20:12Z</time>
      </trkpt>
      <trkpt lat="43.21528" lon="5.46979">
        <ele>493.5</ele>
        <time>2025-10-19T13:20:13Z</time>
      </trkpt>
      <trkpt lat="43.21528" lon="5.46979">
        <ele>493.5</ele>
        <time>2025-10-19T13:20:14Z</time>
      </trkpt>
      <trkpt lat="43.21528" lon="5.46979">
        <ele>493.4</ele>
        <time>2025-10-19T13:20:15Z</time>
      </trkpt>
      <trkpt lat="43.21528" lon="5.4698">
        <ele>493.5</ele>
        <time>2025-10-19T13:20:16Z</time>
      </trkpt>
      <trkpt lat="43.21528" lon="5.4698">
        <ele>493.5</ele>
        <time>2025-10-19T13:20:17Z</time>
      </trkpt>
      <trkpt lat="43.21528" lon="5.4698">
        <ele>493.6</ele>
        <time>2025-10-19T13:20:18Z</time>
      </trkpt>
      <trkpt lat="43.21528" lon="5.4698">
        <ele>493.6</ele>
        <time>2025-10-19T13:20:19Z</time>
      </trkpt>
      <trkpt lat="43.21527" lon="5.4698">
        <ele>493.6</ele>
        <time>2025-10-19T13:20:20Z</time>
      </trkpt>
      <trkpt lat="43.21527" lon="5.4698">
        <ele>493.6</ele>
        <time>2025-10-19T13:20:21Z</time>
      </trkpt>
      <trkpt lat="43.21527" lon="5.4698">
        <ele>493.6</ele>
        <time>2025-10-19T13:20:22Z</time>
      </trkpt>
      <trkpt lat="43.21527" lon="5.4698">
        <ele>493.5</ele>
        <time>2025-10-19T13:20:23Z</time>
      </trkpt>
      <trkpt lat="43.21527" lon="5.4698">
        <ele>493.5</ele>
        <time>2025-10-19T13:20:24Z</time>
      </trkpt>
      <trkpt lat="43.21527" lon="5.4698">
        <ele>493.5</ele>
        <time>2025-10-19T13:20:25Z</time>
      </trkpt>
      <trkpt lat="43.21527" lon="5.4698">
        <ele>493.5</ele>
        <time>2025-10-19T13:20:26Z</time>
      </trkpt>
      <trkpt lat="43.21527" lon="5.4698">
        <ele>493.5</ele>
        <time>2025-10-19T13:20:27Z</time>
      </trkpt>
      <trkpt lat="43.21527" lon="5.4698">
        <ele>493.5</ele>
        <time>2025-10-19T13:20:28Z</time>
      </trkpt>
      <trkpt lat="43.21527" lon="5.4698">
        <ele>493.6</ele>
        <time>2025-10-19T13:20:29Z</time>
      </trkpt>
      <trkpt lat="43.21527" lon="5.4698">
        <ele>493.6</ele>
        <time>2025-10-19T13:20:30Z</time>
      </trkpt>
      <trkpt lat="43.21527" lon="5.4698">
        <ele>493.6</ele>
        <time>2025-10-19T13:20:31Z</time>
      </trkpt>
      <trkpt lat="43.21527" lon="5.4698">
        <ele>493.6</ele>
        <time>2025-10-19T13:20:32Z</time>
      </trkpt>
      <trkpt lat="43.21527" lon="5.4698">
        <ele>493.6</ele>
        <time>2025-10-19T13:20:33Z</time>
      </trkpt>
      <trkpt lat="43.21527" lon="5.4698">
        <ele>493.6</ele>
        <time>2025-10-19T13:20:34Z</time>
      </trkpt>
      <trkpt lat="43.21527" lon="5.4698">
        <ele>493.6</ele>
        <time>2025-10-19T13:20:35Z</time>
      </trkpt>
      <trkpt lat="43.21527" lon="5.4698">
        <ele>493.6</ele>
        <time>2025-10-19T13:20:36Z</time>
      </trkpt>
      <trkpt lat="43.21527" lon="5.4698">
        <ele>493.5</ele>
        <time>2025-10-19T13:20:37Z</time>
      </trkpt>
      <trkpt lat="43.21527" lon="5.4698">
        <ele>493.5</ele>
        <time>2025-10-19T13:20:38Z</time>
      </trkpt>
      <trkpt lat="43.21527" lon="5.4698">
        <ele>493.6</ele>
        <time>2025-10-19T13:20:39Z</time>
      </trkpt>
      <trkpt lat="43.21527" lon="5.4698">
        <ele>493.6</ele>
        <time>2025-10-19T13:20:40Z</time>
      </trkpt>
      <trkpt lat="43.21527" lon="5.4698">
        <ele>493.6</ele>
        <time>2025-10-19T13:20:41Z</time>
      </trkpt>
      <trkpt lat="43.21527" lon="5.4698">
        <ele>493.7</ele>
        <time>2025-10-19T13:20:42Z</time>
      </trkpt>
      <trkpt lat="43.21527" lon="5.4698">
        <ele>493.7</ele>
        <time>2025-10-19T13:20:43Z</time>
      </trkpt>
      <trkpt lat="43.21527" lon="5.4698">
        <ele>493.7</ele>
        <time>2025-10-19T13:20:44Z</time>
      </trkpt>
      <trkpt lat="43.21527" lon="5.4698">
        <ele>493.7</ele>
        <time>2025-10-19T13:20:45Z</time>
      </trkpt>
      <trkpt lat="43.21527" lon="5.4698">
        <ele>493.7</ele>
        <time>2025-10-19T13:20:46Z</time>
      </trkpt>
      <trkpt lat="43.21527" lon="5.4698">
        <ele>493.7</ele>
        <time>2025-10-19T13:20:47Z</time>
      </trkpt>
      <trkpt lat="43.21527" lon="5.4698">
        <ele>493.6</ele>
        <time>2025-10-19T13:20:48Z</time>
      </trkpt>
      <trkpt lat="43.21527" lon="5.4698">
        <ele>493.5</ele>
        <time>2025-10-19T13:20:49Z</time>
      </trkpt>
      <trkpt lat="43.21527" lon="5.4698">
        <ele>493.5</ele>
        <time>2025-10-19T13:20:50Z</time>
      </trkpt>
      <trkpt lat="43.21527" lon="5.4698">
        <ele>493.4</ele>
        <time>2025-10-19T13:20:51Z</time>
      </trkpt>
      <trkpt lat="43.21527" lon="5.4698">
        <ele>493.4</ele>
        <time>2025-10-19T13:20:52Z</time>
      </trkpt>
      <trkpt lat="43.21527" lon="5.4698">
        <ele>493.4</ele>
        <time>2025-10-19T13:20:53Z</time>
      </trkpt>
      <trkpt lat="43.21527" lon="5.4698">
        <ele>493.2</ele>
        <time>2025-10-19T13:20:54Z</time>
      </trkpt>
      <trkpt lat="43.21527" lon="5.4698">
        <ele>493.1</ele>
        <time>2025-10-19T13:20:55Z</time>
      </trkpt>
      <trkpt lat="43.21527" lon="5.4698">
        <ele>493</ele>
        <time>2025-10-19T13:20:56Z</time>
      </trkpt>
      <trkpt lat="43.21527" lon="5.4698">
        <ele>493</ele>
        <time>2025-10-19T13:20:57Z</time>
      </trkpt>
      <trkpt lat="43.21527" lon="5.4698">
        <ele>492.9</ele>
        <time>2025-10-19T13:20:58Z</time>
      </trkpt>
      <trkpt lat="43.21527" lon="5.4698">
        <ele>492.9</ele>
        <time>2025-10-19T13:20:59Z</time>
      </trkpt>
      <trkpt lat="43.21527" lon="5.4698">
        <ele>493</ele>
        <time>2025-10-19T13:21:00Z</time>
      </trkpt>
      <trkpt lat="43.21527" lon="5.4698">
        <ele>493</ele>
        <time>2025-10-19T13:21:01Z</time>
      </trkpt>
      <trkpt lat="43.21527" lon="5.4698">
        <ele>493.1</ele>
        <time>2025-10-19T13:21:02Z</time>
      </trkpt>
      <trkpt lat="43.21528" lon="5.46981">
        <ele>493.2</ele>
        <time>2025-10-19T13:21:03Z</time>
      </trkpt>
      <trkpt lat="43.21528" lon="5.46981">
        <ele>493.2</ele>
        <time>2025-10-19T13:21:04Z</time>
      </trkpt>
      <trkpt lat="43.21528" lon="5.46981">
        <ele>493.1</ele>
        <time>2025-10-19T13:21:05Z</time>
      </trkpt>
      <trkpt lat="43.21528" lon="5.46981">
        <ele>493.1</ele>
        <time>2025-10-19T13:21:06Z</time>
      </trkpt>
      <trkpt lat="43.21528" lon="5.46981">
        <ele>493.1</ele>
        <time>2025-10-19T13:21:07Z</time>
      </trkpt>
      <trkpt lat="43.21528" lon="5.46981">
        <ele>493</ele>
        <time>2025-10-19T13:21:08Z</time>
      </trkpt>
      <trkpt lat="43.21528" lon="5.46981">
        <ele>492.9</ele>
        <time>2025-10-19T13:21:09Z</time>
      </trkpt>
      <trkpt lat="43.21528" lon="5.46981">
        <ele>492.9</ele>
        <time>2025-10-19T13:21:10Z</time>
      </trkpt>
      <trkpt lat="43.21528" lon="5.46981">
        <ele>492.9</ele>
        <time>2025-10-19T13:21:11Z</time>
      </trkpt>
      <trkpt lat="43.21528" lon="5.46981">
        <ele>492.8</ele>
        <time>2025-10-19T13:21:12Z</time>
      </trkpt>
      <trkpt lat="43.21528" lon="5.46981">
        <ele>492.8</ele>
        <time>2025-10-19T13:21:13Z</time>
      </trkpt>
      <trkpt lat="43.21528" lon="5.46981">
        <ele>492.8</ele>
        <time>2025-10-19T13:21:14Z</time>
      </trkpt>
      <trkpt lat="43.21528" lon="5.46981">
        <ele>492.9</ele>
        <time>2025-10-19T13:21:15Z</time>
      </trkpt>
      <trkpt lat="43.21529" lon="5.46981">
        <ele>492.8</ele>
        <time>2025-10-19T13:21:16Z</time>
      </trkpt>
      <trkpt lat="43.21529" lon="5.46981">
        <ele>492.8</ele>
        <time>2025-10-19T13:21:17Z</time>
      </trkpt>
      <trkpt lat="43.21529" lon="5.46981">
        <ele>492.8</ele>
        <time>2025-10-19T13:21:18Z</time>
      </trkpt>
      <trkpt lat="43.21529" lon="5.46981">
        <ele>492.9</ele>
        <time>2025-10-19T13:21:19Z</time>
      </trkpt>
      <trkpt lat="43.21529" lon="5.4698">
        <ele>492.9</ele>
        <time>2025-10-19T13:21:20Z</time>
      </trkpt>
      <trkpt lat="43.21529" lon="5.4698">
        <ele>493</ele>
        <time>2025-10-19T13:21:21Z</time>
      </trkpt>
      <trkpt lat="43.21529" lon="5.4698">
        <ele>493.1</ele>
        <time>2025-10-19T13:21:22Z</time>
      </trkpt>
      <trkpt lat="43.21529" lon="5.4698">
        <ele>493.2</ele>
        <time>2025-10-19T13:21:23Z</time>
      </trkpt>
      <trkpt lat="43.21529" lon="5.4698">
        <ele>493.1</ele>
        <time>2025-10-19T13:21:24Z</time>
      </trkpt>
      <trkpt lat="43.21529" lon="5.4698">
        <ele>493.1</ele>
        <time>2025-10-19T13:21:25Z</time>
      </trkpt>
      <trkpt lat="43.21529" lon="5.4698">
        <ele>493.1</ele>
        <time>2025-10-19T13:21:26Z</time>
      </trkpt>
      <trkpt lat="43.21529" lon="5.4698">
        <ele>493.2</ele>
        <time>2025-10-19T13:21:27Z</time>
      </trkpt>
      <trkpt lat="43.21529" lon="5.4698">
        <ele>493.2</ele>
        <time>2025-10-19T13:21:28Z</time>
      </trkpt>
      <trkpt lat="43.21529" lon="5.4698">
        <ele>493.2</ele>
        <time>2025-10-19T13:21:29Z</time>
      </trkpt>
      <trkpt lat="43.21529" lon="5.4698">
        <ele>493.2</ele>
        <time>2025-10-19T13:21:30Z</time>
      </trkpt>
      <trkpt lat="43.21529" lon="5.4698">
        <ele>493.1</ele>
        <time>2025-10-19T13:21:31Z</time>
      </trkpt>
      <trkpt lat="43.21529" lon="5.4698">
        <ele>493.1</ele>
        <time>2025-10-19T13:21:32Z</time>
      </trkpt>
      <trkpt lat="43.21529" lon="5.4698">
        <ele>493</ele>
        <time>2025-10-19T13:21:33Z</time>
      </trkpt>
      <trkpt lat="43.21529" lon="5.4698">
        <ele>493</ele>
        <time>2025-10-19T13:21:34Z</time>
      </trkpt>
      <trkpt lat="43.21529" lon="5.4698">
        <ele>493</ele>
        <time>2025-10-19T13:21:35Z</time>
      </trkpt>
      <trkpt lat="43.21529" lon="5.4698">
        <ele>493</ele>
        <time>2025-10-19T13:21:36Z</time>
      </trkpt>
      <trkpt lat="43.21529" lon="5.4698">
        <ele>493</ele>
        <time>2025-10-19T13:21:37Z</time>
      </trkpt>
      <trkpt lat="43.21529" lon="5.4698">
        <ele>493</ele>
        <time>2025-10-19T13:21:38Z</time>
      </trkpt>
      <trkpt lat="43.21529" lon="5.4698">
        <ele>493.1</ele>
        <time>2025-10-19T13:21:39Z</time>
      </trkpt>
      <trkpt lat="43.21529" lon="5.4698">
        <ele>493</ele>
        <time>2025-10-19T13:21:40Z</time>
      </trkpt>
      <trkpt lat="43.21529" lon="5.4698">
        <ele>493</ele>
        <time>2025-10-19T13:21:41Z</time>
      </trkpt>
      <trkpt lat="43.21529" lon="5.4698">
        <ele>493</ele>
        <time>2025-10-19T13:21:42Z</time>
      </trkpt>
      <trkpt lat="43.21529" lon="5.4698">
        <ele>493</ele>
        <time>2025-10-19T13:21:43Z</time>
      </trkpt>
      <trkpt lat="43.21529" lon="5.4698">
        <ele>493.1</ele>
        <time>2025-10-19T13:21:44Z</time>
      </trkpt>
      <trkpt lat="43.21529" lon="5.4698">
        <ele>493.1</ele>
        <time>2025-10-19T13:21:45Z</time>
      </trkpt>
      <trkpt lat="43.21529" lon="5.4698">
        <ele>493.1</ele>
        <time>2025-10-19T13:21:46Z</time>
      </trkpt>
      <trkpt lat="43.21529" lon="5.4698">
        <ele>493.1</ele>
        <time>2025-10-19T13:21:47Z</time>
      </trkpt>
      <trkpt lat="43.2153" lon="5.4698">
        <ele>493</ele>
        <time>2025-10-19T13:21:48Z</time>
      </trkpt>
      <trkpt lat="43.2153" lon="5.4698">
        <ele>493</ele>
        <time>2025-10-19T13:21:49Z</time>
      </trkpt>
      <trkpt lat="43.21529" lon="5.4698">
        <ele>493</ele>
        <time>2025-10-19T13:21:50Z</time>
      </trkpt>
      <trkpt lat="43.2153" lon="5.4698">
        <ele>493</ele>
        <time>2025-10-19T13:21:51Z</time>
      </trkpt>
      <trkpt lat="43.2153" lon="5.4698">
        <ele>493</ele>
        <time>2025-10-19T13:21:52Z</time>
      </trkpt>
      <trkpt lat="43.2153" lon="5.4698">
        <ele>493</ele>
        <time>2025-10-19T13:21:53Z</time>
      </trkpt>
      <trkpt lat="43.2153" lon="5.4698">
        <ele>493</ele>
        <time>2025-10-19T13:21:54Z</time>
      </trkpt>
      <trkpt lat="43.2153" lon="5.4698">
        <ele>492.9</ele>
        <time>2025-10-19T13:21:55Z</time>
      </trkpt>
      <trkpt lat="43.2153" lon="5.4698">
        <ele>493</ele>
        <time>2025-10-19T13:21:56Z</time>
      </trkpt>
      <trkpt lat="43.2153" lon="5.4698">
        <ele>493</ele>
        <time>2025-10-19T13:21:57Z</time>
      </trkpt>
      <trkpt lat="43.2153" lon="5.4698">
        <ele>493</ele>
        <time>2025-10-19T13:21:58Z</time>
      </trkpt>
      <trkpt lat="43.2153" lon="5.4698">
        <ele>493</ele>
        <time>2025-10-19T13:21:59Z</time>
      </trkpt>
      <trkpt lat="43.2153" lon="5.4698">
        <ele>493.1</ele>
        <time>2025-10-19T13:22:00Z</time>
      </trkpt>
      <trkpt lat="43.2153" lon="5.4698">
        <ele>493.2</ele>
        <time>2025-10-19T13:22:01Z</time>
      </trkpt>
      <trkpt lat="43.2153" lon="5.4698">
        <ele>493.2</ele>
        <time>2025-10-19T13:22:02Z</time>
      </trkpt>
      <trkpt lat="43.2153" lon="5.4698">
        <ele>493.2</ele>
        <time>2025-10-19T13:22:03Z</time>
      </trkpt>
      <trkpt lat="43.2153" lon="5.4698">
        <ele>493.1</ele>
        <time>2025-10-19T13:22:04Z</time>
      </trkpt>
      <trkpt lat="43.2153" lon="5.4698">
        <ele>493.1</ele>
        <time>2025-10-19T13:22:05Z</time>
      </trkpt>
      <trkpt lat="43.2153" lon="5.4698">
        <ele>493.1</ele>
        <time>2025-10-19T13:22:06Z</time>
      </trkpt>
      <trkpt lat="43.2153" lon="5.46981">
        <ele>493.1</ele>
        <time>2025-10-19T13:22:07Z</time>
      </trkpt>
      <trkpt lat="43.2153" lon="5.46981">
        <ele>493.1</ele>
        <time>2025-10-19T13:22:08Z</time>
      </trkpt>
      <trkpt lat="43.2153" lon="5.46981">
        <ele>493.1</ele>
        <time>2025-10-19T13:22:09Z</time>
      </trkpt>
      <trkpt lat="43.2153" lon="5.46981">
        <ele>493.1</ele>
        <time>2025-10-19T13:22:10Z</time>
      </trkpt>
      <trkpt lat="43.2153" lon="5.46981">
        <ele>493.1</ele>
        <time>2025-10-19T13:22:11Z</time>
      </trkpt>
      <trkpt lat="43.2153" lon="5.46981">
        <ele>493.1</ele>
        <time>2025-10-19T13:22:12Z</time>
      </trkpt>
      <trkpt lat="43.2153" lon="5.46981">
        <ele>493.2</ele>
        <time>2025-10-19T13:22:13Z</time>
      </trkpt>
      <trkpt lat="43.2153" lon="5.46981">
        <ele>493.2</ele>
        <time>2025-10-19T13:22:14Z</time>
      </trkpt>
      <trkpt lat="43.2153" lon="5.46981">
        <ele>493.3</ele>
        <time>2025-10-19T13:22:15Z</time>
      </trkpt>
      <trkpt lat="43.2153" lon="5.46982">
        <ele>493.4</ele>
        <time>2025-10-19T13:22:16Z</time>
      </trkpt>
      <trkpt lat="43.21531" lon="5.46982">
        <ele>493.4</ele>
        <time>2025-10-19T13:22:17Z</time>
      </trkpt>
      <trkpt lat="43.21531" lon="5.46982">
        <ele>493.5</ele>
        <time>2025-10-19T13:22:18Z</time>
      </trkpt>
      <trkpt lat="43.21532" lon="5.46981">
        <ele>493.5</ele>
        <time>2025-10-19T13:22:19Z</time>
      </trkpt>
      <trkpt lat="43.21533" lon="5.46981">
        <ele>493.5</ele>
        <time>2025-10-19T13:22:20Z</time>
      </trkpt>
      <trkpt lat="43.21533" lon="5.46981">
        <ele>493.5</ele>
        <time>2025-10-19T13:22:21Z</time>
      </trkpt>
      <trkpt lat="43.21534" lon="5.4698">
        <ele>493.6</ele>
        <time>2025-10-19T13:22:22Z</time>
      </trkpt>
      <trkpt lat="43.21534" lon="5.4698">
        <ele>493.7</ele>
        <time>2025-10-19T13:22:23Z</time>
      </trkpt>
      <trkpt lat="43.21535" lon="5.4698">
        <ele>493.8</ele>
        <time>2025-10-19T13:22:24Z</time>
      </trkpt>
      <trkpt lat="43.21536" lon="5.4698">
        <ele>493.9</ele>
        <time>2025-10-19T13:22:25Z</time>
      </trkpt>
      <trkpt lat="43.21536" lon="5.46979">
        <ele>494</ele>
        <time>2025-10-19T13:22:26Z</time>
      </trkpt>
      <trkpt lat="43.21537" lon="5.46979">
        <ele>494.1</ele>
        <time>2025-10-19T13:22:27Z</time>
      </trkpt>
      <trkpt lat="43.21538" lon="5.46979">
        <ele>494.2</ele>
        <time>2025-10-19T13:22:28Z</time>
      </trkpt>
      <trkpt lat="43.21538" lon="5.46978">
        <ele>494.3</ele>
        <time>2025-10-19T13:22:29Z</time>
      </trkpt>
      <trkpt lat="43.21538" lon="5.46978">
        <ele>494.4</ele>
        <time>2025-10-19T13:22:30Z</time>
      </trkpt>
      <trkpt lat="43.21539" lon="5.46977">
        <ele>494.6</ele>
        <time>2025-10-19T13:22:31Z</time>
      </trkpt>
      <trkpt lat="43.21539" lon="5.46976">
        <ele>494.6</ele>
        <time>2025-10-19T13:22:32Z</time>
      </trkpt>
      <trkpt lat="43.21539" lon="5.46975">
        <ele>494.8</ele>
        <time>2025-10-19T13:22:33Z</time>
      </trkpt>
      <trkpt lat="43.21539" lon="5.46974">
        <ele>494.9</ele>
        <time>2025-10-19T13:22:34Z</time>
      </trkpt>
      <trkpt lat="43.21539" lon="5.46973">
        <ele>494.9</ele>
        <time>2025-10-19T13:22:35Z</time>
      </trkpt>
      <trkpt lat="43.21539" lon="5.46972">
        <ele>495</ele>
        <time>2025-10-19T13:22:36Z</time>
      </trkpt>
      <trkpt lat="43.21539" lon="5.46971">
        <ele>495</ele>
        <time>2025-10-19T13:22:37Z</time>
      </trkpt>
      <trkpt lat="43.21539" lon="5.4697">
        <ele>495.1</ele>
        <time>2025-10-19T13:22:38Z</time>
      </trkpt>
      <trkpt lat="43.21539" lon="5.4697">
        <ele>495.1</ele>
        <time>2025-10-19T13:22:39Z</time>
      </trkpt>
      <trkpt lat="43.21539" lon="5.46969">
        <ele>495.1</ele>
        <time>2025-10-19T13:22:40Z</time>
      </trkpt>
      <trkpt lat="43.21539" lon="5.46968">
        <ele>495.1</ele>
        <time>2025-10-19T13:22:41Z</time>
      </trkpt>
      <trkpt lat="43.21538" lon="5.46967">
        <ele>495.2</ele>
        <time>2025-10-19T13:22:42Z</time>
      </trkpt>
      <trkpt lat="43.21537" lon="5.46967">
        <ele>495.3</ele>
        <time>2025-10-19T13:22:43Z</time>
      </trkpt>
      <trkpt lat="43.21536" lon="5.46966">
        <ele>495.4</ele>
        <time>2025-10-19T13:22:44Z</time>
      </trkpt>
      <trkpt lat="43.21536" lon="5.46966">
        <ele>495.5</ele>
        <time>2025-10-19T13:22:45Z</time>
      </trkpt>
      <trkpt lat="43.21535" lon="5.46965">
        <ele>495.6</ele>
        <time>2025-10-19T13:22:46Z</time>
      </trkpt>
      <trkpt lat="43.21534" lon="5.46964">
        <ele>495.8</ele>
        <time>2025-10-19T13:22:47Z</time>
      </trkpt>
      <trkpt lat="43.21534" lon="5.46963">
        <ele>495.8</ele>
        <time>2025-10-19T13:22:48Z</time>
      </trkpt>
      <trkpt lat="43.21533" lon="5.46962">
        <ele>496</ele>
        <time>2025-10-19T13:22:49Z</time>
      </trkpt>
      <trkpt lat="43.21532" lon="5.46961">
        <ele>496.1</ele>
        <time>2025-10-19T13:22:50Z</time>
      </trkpt>
      <trkpt lat="43.21532" lon="5.4696">
        <ele>496.1</ele>
        <time>2025-10-19T13:22:51Z</time>
      </trkpt>
      <trkpt lat="43.21531" lon="5.46959">
        <ele>496.3</ele>
        <time>2025-10-19T13:22:52Z</time>
      </trkpt>
      <trkpt lat="43.21531" lon="5.46957">
        <ele>496.4</ele>
        <time>2025-10-19T13:22:53Z</time>
      </trkpt>
      <trkpt lat="43.21531" lon="5.46956">
        <ele>496.6</ele>
        <time>2025-10-19T13:22:54Z</time>
      </trkpt>
      <trkpt lat="43.21531" lon="5.46954">
        <ele>496.6</ele>
        <time>2025-10-19T13:22:55Z</time>
      </trkpt>
      <trkpt lat="43.21531" lon="5.46953">
        <ele>496.7</ele>
        <time>2025-10-19T13:22:56Z</time>
      </trkpt>
      <trkpt lat="43.21531" lon="5.46952">
        <ele>496.9</ele>
        <time>2025-10-19T13:22:57Z</time>
      </trkpt>
      <trkpt lat="43.21531" lon="5.4695">
        <ele>497</ele>
        <time>2025-10-19T13:22:58Z</time>
      </trkpt>
      <trkpt lat="43.21531" lon="5.46949">
        <ele>497.2</ele>
        <time>2025-10-19T13:22:59Z</time>
      </trkpt>
      <trkpt lat="43.2153" lon="5.46948">
        <ele>497.3</ele>
        <time>2025-10-19T13:23:00Z</time>
      </trkpt>
      <trkpt lat="43.2153" lon="5.46947">
        <ele>497.5</ele>
        <time>2025-10-19T13:23:01Z</time>
      </trkpt>
      <trkpt lat="43.2153" lon="5.46946">
        <ele>497.7</ele>
        <time>2025-10-19T13:23:02Z</time>
      </trkpt>
      <trkpt lat="43.2153" lon="5.46945">
        <ele>497.8</ele>
        <time>2025-10-19T13:23:03Z</time>
      </trkpt>
      <trkpt lat="43.2153" lon="5.46944">
        <ele>498</ele>
        <time>2025-10-19T13:23:04Z</time>
      </trkpt>
      <trkpt lat="43.2153" lon="5.46943">
        <ele>498.1</ele>
        <time>2025-10-19T13:23:05Z</time>
      </trkpt>
      <trkpt lat="43.2153" lon="5.46941">
        <ele>498.2</ele>
        <time>2025-10-19T13:23:06Z</time>
      </trkpt>
      <trkpt lat="43.2153" lon="5.4694">
        <ele>498.3</ele>
        <time>2025-10-19T13:23:07Z</time>
      </trkpt>
      <trkpt lat="43.2153" lon="5.46939">
        <ele>498.4</ele>
        <time>2025-10-19T13:23:08Z</time>
      </trkpt>
      <trkpt lat="43.21529" lon="5.46939">
        <ele>498.5</ele>
        <time>2025-10-19T13:23:09Z</time>
      </trkpt>
      <trkpt lat="43.21528" lon="5.46939">
        <ele>498.5</ele>
        <time>2025-10-19T13:23:10Z</time>
      </trkpt>
      <trkpt lat="43.21527" lon="5.46939">
        <ele>498.7</ele>
        <time>2025-10-19T13:23:11Z</time>
      </trkpt>
      <trkpt lat="43.21526" lon="5.46939">
        <ele>498.8</ele>
        <time>2025-10-19T13:23:12Z</time>
      </trkpt>
      <trkpt lat="43.21526" lon="5.46938">
        <ele>498.9</ele>
        <time>2025-10-19T13:23:13Z</time>
      </trkpt>
      <trkpt lat="43.21525" lon="5.46937">
        <ele>499</ele>
        <time>2025-10-19T13:23:14Z</time>
      </trkpt>
      <trkpt lat="43.21524" lon="5.46937">
        <ele>499</ele>
        <time>2025-10-19T13:23:15Z</time>
      </trkpt>
      <trkpt lat="43.21523" lon="5.46936">
        <ele>499.1</ele>
        <time>2025-10-19T13:23:16Z</time>
      </trkpt>
      <trkpt lat="43.21523" lon="5.46935">
        <ele>499.2</ele>
        <time>2025-10-19T13:23:17Z</time>
      </trkpt>
      <trkpt lat="43.21522" lon="5.46934">
        <ele>499.3</ele>
        <time>2025-10-19T13:23:18Z</time>
      </trkpt>
      <trkpt lat="43.21521" lon="5.46933">
        <ele>499.4</ele>
        <time>2025-10-19T13:23:19Z</time>
      </trkpt>
      <trkpt lat="43.21521" lon="5.46932">
        <ele>499.4</ele>
        <time>2025-10-19T13:23:20Z</time>
      </trkpt>
      <trkpt lat="43.2152" lon="5.46932">
        <ele>499.4</ele>
        <time>2025-10-19T13:23:21Z</time>
      </trkpt>
      <trkpt lat="43.21519" lon="5.46931">
        <ele>499.4</ele>
        <time>2025-10-19T13:23:22Z</time>
      </trkpt>
      <trkpt lat="43.21518" lon="5.4693">
        <ele>499.4</ele>
        <time>2025-10-19T13:23:23Z</time>
      </trkpt>
      <trkpt lat="43.21517" lon="5.4693">
        <ele>499.3</ele>
        <time>2025-10-19T13:23:24Z</time>
      </trkpt>
      <trkpt lat="43.21517" lon="5.46929">
        <ele>499.3</ele>
        <time>2025-10-19T13:23:25Z</time>
      </trkpt>
      <trkpt lat="43.21517" lon="5.46928">
        <ele>499.2</ele>
        <time>2025-10-19T13:23:26Z</time>
      </trkpt>
      <trkpt lat="43.21517" lon="5.46927">
        <ele>499.1</ele>
        <time>2025-10-19T13:23:27Z</time>
      </trkpt>
      <trkpt lat="43.21517" lon="5.46926">
        <ele>499</ele>
        <time>2025-10-19T13:23:28Z</time>
      </trkpt>
      <trkpt lat="43.21517" lon="5.46924">
        <ele>498.6</ele>
        <time>2025-10-19T13:23:29Z</time>
      </trkpt>
      <trkpt lat="43.21516" lon="5.46923">
        <ele>498.5</ele>
        <time>2025-10-19T13:23:30Z</time>
      </trkpt>
      <trkpt lat="43.21516" lon="5.46922">
        <ele>498.4</ele>
        <time>2025-10-19T13:23:31Z</time>
      </trkpt>
      <trkpt lat="43.21516" lon="5.46921">
        <ele>498.3</ele>
        <time>2025-10-19T13:23:32Z</time>
      </trkpt>
      <trkpt lat="43.21515" lon="5.4692">
        <ele>498.3</ele>
        <time>2025-10-19T13:23:33Z</time>
      </trkpt>
      <trkpt lat="43.21515" lon="5.46919">
        <ele>498.2</ele>
        <time>2025-10-19T13:23:34Z</time>
      </trkpt>
      <trkpt lat="43.21514" lon="5.46919">
        <ele>498.3</ele>
        <time>2025-10-19T13:23:35Z</time>
      </trkpt>
      <trkpt lat="43.21514" lon="5.46919">
        <ele>498.3</ele>
        <time>2025-10-19T13:23:36Z</time>
      </trkpt>
      <trkpt lat="43.21514" lon="5.46919">
        <ele>498.3</ele>
        <time>2025-10-19T13:23:37Z</time>
      </trkpt>
      <trkpt lat="43.21514" lon="5.46919">
        <ele>498.2</ele>
        <time>2025-10-19T13:23:38Z</time>
      </trkpt>
      <trkpt lat="43.21514" lon="5.46919">
        <ele>498.3</ele>
        <time>2025-10-19T13:23:39Z</time>
      </trkpt>
      <trkpt lat="43.21514" lon="5.46919">
        <ele>498.1</ele>
        <time>2025-10-19T13:23:40Z</time>
      </trkpt>
      <trkpt lat="43.21514" lon="5.46919">
        <ele>498</ele>
        <time>2025-10-19T13:23:41Z</time>
      </trkpt>
      <trkpt lat="43.21514" lon="5.46919">
        <ele>498.1</ele>
        <time>2025-10-19T13:23:42Z</time>
      </trkpt>
      <trkpt lat="43.21514" lon="5.46919">
        <ele>498.2</ele>
        <time>2025-10-19T13:23:43Z</time>
      </trkpt>
      <trkpt lat="43.21514" lon="5.46919">
        <ele>498.2</ele>
        <time>2025-10-19T13:23:44Z</time>
      </trkpt>
      <trkpt lat="43.21514" lon="5.46919">
        <ele>498.2</ele>
        <time>2025-10-19T13:23:45Z</time>
      </trkpt>
      <trkpt lat="43.21514" lon="5.4692">
        <ele>498.2</ele>
        <time>2025-10-19T13:23:46Z</time>
      </trkpt>
      <trkpt lat="43.21514" lon="5.4692">
        <ele>498.2</ele>
        <time>2025-10-19T13:23:47Z</time>
      </trkpt>
      <trkpt lat="43.21514" lon="5.4692">
        <ele>498.3</ele>
        <time>2025-10-19T13:23:48Z</time>
      </trkpt>
      <trkpt lat="43.21514" lon="5.4692">
        <ele>498.4</ele>
        <time>2025-10-19T13:23:49Z</time>
      </trkpt>
      <trkpt lat="43.21514" lon="5.4692">
        <ele>498.5</ele>
        <time>2025-10-19T13:23:50Z</time>
      </trkpt>
      <trkpt lat="43.21514" lon="5.4692">
        <ele>498.5</ele>
        <time>2025-10-19T13:23:51Z</time>
      </trkpt>
      <trkpt lat="43.21514" lon="5.4692">
        <ele>498.6</ele>
        <time>2025-10-19T13:23:52Z</time>
      </trkpt>
      <trkpt lat="43.21514" lon="5.4692">
        <ele>498.5</ele>
        <time>2025-10-19T13:23:53Z</time>
      </trkpt>
      <trkpt lat="43.21514" lon="5.4692">
        <ele>498.5</ele>
        <time>2025-10-19T13:23:54Z</time>
      </trkpt>
      <trkpt lat="43.21514" lon="5.4692">
        <ele>498.5</ele>
        <time>2025-10-19T13:23:55Z</time>
      </trkpt>
      <trkpt lat="43.21514" lon="5.4692">
        <ele>498.5</ele>
        <time>2025-10-19T13:23:56Z</time>
      </trkpt>
      <trkpt lat="43.21514" lon="5.4692">
        <ele>498.5</ele>
        <time>2025-10-19T13:23:57Z</time>
      </trkpt>
      <trkpt lat="43.21514" lon="5.4692">
        <ele>498.6</ele>
        <time>2025-10-19T13:23:58Z</time>
      </trkpt>
      <trkpt lat="43.21514" lon="5.4692">
        <ele>498.6</ele>
        <time>2025-10-19T13:23:59Z</time>
      </trkpt>
      <trkpt lat="43.21514" lon="5.4692">
        <ele>498.6</ele>
        <time>2025-10-19T13:24:00Z</time>
      </trkpt>
      <trkpt lat="43.21514" lon="5.4692">
        <ele>498.5</ele>
        <time>2025-10-19T13:24:01Z</time>
      </trkpt>
      <trkpt lat="43.21514" lon="5.4692">
        <ele>498.4</ele>
        <time>2025-10-19T13:24:02Z</time>
      </trkpt>
      <trkpt lat="43.21514" lon="5.46919">
        <ele>498.6</ele>
        <time>2025-10-19T13:24:03Z</time>
      </trkpt>
      <trkpt lat="43.21514" lon="5.46919">
        <ele>498.7</ele>
        <time>2025-10-19T13:24:04Z</time>
      </trkpt>
      <trkpt lat="43.21514" lon="5.46919">
        <ele>498.7</ele>
        <time>2025-10-19T13:24:05Z</time>
      </trkpt>
      <trkpt lat="43.21514" lon="5.46919">
        <ele>498.7</ele>
        <time>2025-10-19T13:24:06Z</time>
      </trkpt>
      <trkpt lat="43.21514" lon="5.46919">
        <ele>498.7</ele>
        <time>2025-10-19T13:24:07Z</time>
      </trkpt>
      <trkpt lat="43.21513" lon="5.46919">
        <ele>498.7</ele>
        <time>2025-10-19T13:24:08Z</time>
      </trkpt>
      <trkpt lat="43.21513" lon="5.46919">
        <ele>498.9</ele>
        <time>2025-10-19T13:24:09Z</time>
      </trkpt>
      <trkpt lat="43.21512" lon="5.46919">
        <ele>499</ele>
        <time>2025-10-19T13:24:10Z</time>
      </trkpt>
      <trkpt lat="43.21512" lon="5.46919">
        <ele>499.1</ele>
        <time>2025-10-19T13:24:11Z</time>
      </trkpt>
      <trkpt lat="43.21512" lon="5.46919">
        <ele>499.1</ele>
        <time>2025-10-19T13:24:12Z</time>
      </trkpt>
      <trkpt lat="43.21512" lon="5.46919">
        <ele>499.1</ele>
        <time>2025-10-19T13:24:13Z</time>
      </trkpt>
      <trkpt lat="43.21512" lon="5.46919">
        <ele>499.2</ele>
        <time>2025-10-19T13:24:14Z</time>
      </trkpt>
      <trkpt lat="43.21512" lon="5.46919">
        <ele>499.2</ele>
        <time>2025-10-19T13:24:15Z</time>
      </trkpt>
      <trkpt lat="43.21512" lon="5.46919">
        <ele>499.3</ele>
        <time>2025-10-19T13:24:16Z</time>
      </trkpt>
      <trkpt lat="43.21512" lon="5.46919">
        <ele>499.3</ele>
        <time>2025-10-19T13:24:17Z</time>
      </trkpt>
      <trkpt lat="43.21512" lon="5.46919">
        <ele>499.4</ele>
        <time>2025-10-19T13:24:18Z</time>
      </trkpt>
      <trkpt lat="43.21512" lon="5.46919">
        <ele>499.4</ele>
        <time>2025-10-19T13:24:19Z</time>
      </trkpt>
      <trkpt lat="43.21512" lon="5.46919">
        <ele>499.5</ele>
        <time>2025-10-19T13:24:20Z</time>
      </trkpt>
      <trkpt lat="43.21512" lon="5.46919">
        <ele>499.5</ele>
        <time>2025-10-19T13:24:21Z</time>
      </trkpt>
      <trkpt lat="43.21512" lon="5.46919">
        <ele>499.6</ele>
        <time>2025-10-19T13:24:22Z</time>
      </trkpt>
      <trkpt lat="43.21512" lon="5.46919">
        <ele>499.6</ele>
        <time>2025-10-19T13:24:23Z</time>
      </trkpt>
      <trkpt lat="43.21512" lon="5.46919">
        <ele>499.7</ele>
        <time>2025-10-19T13:24:24Z</time>
      </trkpt>
      <trkpt lat="43.21512" lon="5.46919">
        <ele>499.7</ele>
        <time>2025-10-19T13:24:25Z</time>
      </trkpt>
      <trkpt lat="43.21512" lon="5.46919">
        <ele>499.6</ele>
        <time>2025-10-19T13:24:26Z</time>
      </trkpt>
      <trkpt lat="43.21512" lon="5.46919">
        <ele>499.6</ele>
        <time>2025-10-19T13:24:27Z</time>
      </trkpt>
      <trkpt lat="43.21512" lon="5.46919">
        <ele>499.5</ele>
        <time>2025-10-19T13:24:28Z</time>
      </trkpt>
      <trkpt lat="43.21512" lon="5.46919">
        <ele>499.2</ele>
        <time>2025-10-19T13:24:29Z</time>
      </trkpt>
      <trkpt lat="43.21512" lon="5.46918">
        <ele>499</ele>
        <time>2025-10-19T13:24:30Z</time>
      </trkpt>
      <trkpt lat="43.21512" lon="5.46918">
        <ele>499</ele>
        <time>2025-10-19T13:24:31Z</time>
      </trkpt>
      <trkpt lat="43.21512" lon="5.46919">
        <ele>499</ele>
        <time>2025-10-19T13:24:32Z</time>
      </trkpt>
      <trkpt lat="43.21512" lon="5.46918">
        <ele>499.1</ele>
        <time>2025-10-19T13:24:33Z</time>
      </trkpt>
      <trkpt lat="43.21512" lon="5.46918">
        <ele>499.3</ele>
        <time>2025-10-19T13:24:34Z</time>
      </trkpt>
      <trkpt lat="43.21512" lon="5.46919">
        <ele>499.5</ele>
        <time>2025-10-19T13:24:35Z</time>
      </trkpt>
      <trkpt lat="43.21512" lon="5.46919">
        <ele>499.7</ele>
        <time>2025-10-19T13:24:36Z</time>
      </trkpt>
      <trkpt lat="43.21512" lon="5.46919">
        <ele>499.9</ele>
        <time>2025-10-19T13:24:37Z</time>
      </trkpt>
      <trkpt lat="43.21513" lon="5.46919">
        <ele>499.8</ele>
        <time>2025-10-19T13:24:38Z</time>
      </trkpt>
      <trkpt lat="43.21513" lon="5.46919">
        <ele>499.6</ele>
        <time>2025-10-19T13:24:39Z</time>
      </trkpt>
      <trkpt lat="43.21513" lon="5.46918">
        <ele>499.3</ele>
        <time>2025-10-19T13:24:40Z</time>
      </trkpt>
      <trkpt lat="43.21512" lon="5.46918">
        <ele>499</ele>
        <time>2025-10-19T13:24:41Z</time>
      </trkpt>
      <trkpt lat="43.21512" lon="5.46918">
        <ele>498.7</ele>
        <time>2025-10-19T13:24:42Z</time>
      </trkpt>
      <trkpt lat="43.21513" lon="5.46918">
        <ele>498.7</ele>
        <time>2025-10-19T13:24:43Z</time>
      </trkpt>
      <trkpt lat="43.21513" lon="5.46918">
        <ele>498.5</ele>
        <time>2025-10-19T13:24:44Z</time>
      </trkpt>
      <trkpt lat="43.21512" lon="5.46918">
        <ele>498.3</ele>
        <time>2025-10-19T13:24:45Z</time>
      </trkpt>
      <trkpt lat="43.21512" lon="5.46918">
        <ele>498.1</ele>
        <time>2025-10-19T13:24:46Z</time>
      </trkpt>
      <trkpt lat="43.21512" lon="5.46918">
        <ele>498.3</ele>
        <time>2025-10-19T13:24:47Z</time>
      </trkpt>
      <trkpt lat="43.21512" lon="5.46918">
        <ele>498.3</ele>
        <time>2025-10-19T13:24:48Z</time>
      </trkpt>
      <trkpt lat="43.21512" lon="5.46918">
        <ele>498.4</ele>
        <time>2025-10-19T13:24:49Z</time>
      </trkpt>
      <trkpt lat="43.21512" lon="5.46918">
        <ele>498.5</ele>
        <time>2025-10-19T13:24:50Z</time>
      </trkpt>
      <trkpt lat="43.21512" lon="5.46918">
        <ele>498.6</ele>
        <time>2025-10-19T13:24:51Z</time>
      </trkpt>
      <trkpt lat="43.21512" lon="5.46918">
        <ele>498.7</ele>
        <time>2025-10-19T13:24:52Z</time>
      </trkpt>
      <trkpt lat="43.21512" lon="5.46918">
        <ele>498.9</ele>
        <time>2025-10-19T13:24:53Z</time>
      </trkpt>
      <trkpt lat="43.21512" lon="5.46918">
        <ele>498.8</ele>
        <time>2025-10-19T13:24:54Z</time>
      </trkpt>
      <trkpt lat="43.21512" lon="5.46918">
        <ele>498.8</ele>
        <time>2025-10-19T13:24:55Z</time>
      </trkpt>
      <trkpt lat="43.21512" lon="5.46918">
        <ele>498.7</ele>
        <time>2025-10-19T13:24:56Z</time>
      </trkpt>
      <trkpt lat="43.21512" lon="5.46918">
        <ele>498.6</ele>
        <time>2025-10-19T13:24:57Z</time>
      </trkpt>
      <trkpt lat="43.21512" lon="5.46918">
        <ele>498.6</ele>
        <time>2025-10-19T13:24:58Z</time>
      </trkpt>
      <trkpt lat="43.21512" lon="5.46918">
        <ele>498.6</ele>
        <time>2025-10-19T13:24:59Z</time>
      </trkpt>
      <trkpt lat="43.21512" lon="5.46918">
        <ele>498.6</ele>
        <time>2025-10-19T13:25:00Z</time>
      </trkpt>
      <trkpt lat="43.21512" lon="5.46918">
        <ele>498.6</ele>
        <time>2025-10-19T13:25:01Z</time>
      </trkpt>
      <trkpt lat="43.21512" lon="5.46919">
        <ele>498.8</ele>
        <time>2025-10-19T13:25:02Z</time>
      </trkpt>
      <trkpt lat="43.21512" lon="5.46921">
        <ele>498.9</ele>
        <time>2025-10-19T13:25:03Z</time>
      </trkpt>
      <trkpt lat="43.21512" lon="5.46922">
        <ele>498.7</ele>
        <time>2025-10-19T13:25:04Z</time>
      </trkpt>
      <trkpt lat="43.21513" lon="5.46922">
        <ele>498.7</ele>
        <time>2025-10-19T13:25:05Z</time>
      </trkpt>
      <trkpt lat="43.21513" lon="5.46922">
        <ele>498.7</ele>
        <time>2025-10-19T13:25:06Z</time>
      </trkpt>
      <trkpt lat="43.21514" lon="5.46922">
        <ele>498.7</ele>
        <time>2025-10-19T13:25:07Z</time>
      </trkpt>
      <trkpt lat="43.21514" lon="5.46922">
        <ele>498.7</ele>
        <time>2025-10-19T13:25:08Z</time>
      </trkpt>
      <trkpt lat="43.21514" lon="5.46922">
        <ele>498.8</ele>
        <time>2025-10-19T13:25:09Z</time>
      </trkpt>
      <trkpt lat="43.21514" lon="5.46922">
        <ele>498.7</ele>
        <time>2025-10-19T13:25:10Z</time>
      </trkpt>
      <trkpt lat="43.21514" lon="5.46922">
        <ele>498.7</ele>
        <time>2025-10-19T13:25:11Z</time>
      </trkpt>
      <trkpt lat="43.21514" lon="5.46922">
        <ele>498.7</ele>
        <time>2025-10-19T13:25:12Z</time>
      </trkpt>
      <trkpt lat="43.21514" lon="5.46922">
        <ele>498.7</ele>
        <time>2025-10-19T13:25:13Z</time>
      </trkpt>
      <trkpt lat="43.21514" lon="5.46922">
        <ele>498.6</ele>
        <time>2025-10-19T13:25:14Z</time>
      </trkpt>
      <trkpt lat="43.21514" lon="5.46922">
        <ele>498.4</ele>
        <time>2025-10-19T13:25:15Z</time>
      </trkpt>
      <trkpt lat="43.21514" lon="5.46923">
        <ele>498.2</ele>
        <time>2025-10-19T13:25:16Z</time>
      </trkpt>
      <trkpt lat="43.21514" lon="5.46923">
        <ele>498.1</ele>
        <time>2025-10-19T13:25:17Z</time>
      </trkpt>
      <trkpt lat="43.21514" lon="5.46922">
        <ele>498</ele>
        <time>2025-10-19T13:25:18Z</time>
      </trkpt>
      <trkpt lat="43.21514" lon="5.46922">
        <ele>497.9</ele>
        <time>2025-10-19T13:25:19Z</time>
      </trkpt>
      <trkpt lat="43.21513" lon="5.46922">
        <ele>498.1</ele>
        <time>2025-10-19T13:25:20Z</time>
      </trkpt>
      <trkpt lat="43.21513" lon="5.46923">
        <ele>498.2</ele>
        <time>2025-10-19T13:25:21Z</time>
      </trkpt>
      <trkpt lat="43.21513" lon="5.46924">
        <ele>498.2</ele>
        <time>2025-10-19T13:25:22Z</time>
      </trkpt>
      <trkpt lat="43.21514" lon="5.46925">
        <ele>498.2</ele>
        <time>2025-10-19T13:25:23Z</time>
      </trkpt>
      <trkpt lat="43.21514" lon="5.46927">
        <ele>498.3</ele>
        <time>2025-10-19T13:25:24Z</time>
      </trkpt>
      <trkpt lat="43.21514" lon="5.46928">
        <ele>498.3</ele>
        <time>2025-10-19T13:25:25Z</time>
      </trkpt>
      <trkpt lat="43.21514" lon="5.46929">
        <ele>498.5</ele>
        <time>2025-10-19T13:25:26Z</time>
      </trkpt>
      <trkpt lat="43.21515" lon="5.46931">
        <ele>498.6</ele>
        <time>2025-10-19T13:25:27Z</time>
      </trkpt>
      <trkpt lat="43.21515" lon="5.46932">
        <ele>498.4</ele>
        <time>2025-10-19T13:25:28Z</time>
      </trkpt>
      <trkpt lat="43.21516" lon="5.46934">
        <ele>498.6</ele>
        <time>2025-10-19T13:25:29Z</time>
      </trkpt>
      <trkpt lat="43.21517" lon="5.46935">
        <ele>498.6</ele>
        <time>2025-10-19T13:25:30Z</time>
      </trkpt>
      <trkpt lat="43.21518" lon="5.46936">
        <ele>498.7</ele>
        <time>2025-10-19T13:25:31Z</time>
      </trkpt>
      <trkpt lat="43.21519" lon="5.46937">
        <ele>498.7</ele>
        <time>2025-10-19T13:25:32Z</time>
      </trkpt>
      <trkpt lat="43.2152" lon="5.46937">
        <ele>498.6</ele>
        <time>2025-10-19T13:25:33Z</time>
      </trkpt>
      <trkpt lat="43.21521" lon="5.46938">
        <ele>498.6</ele>
        <time>2025-10-19T13:25:34Z</time>
      </trkpt>
      <trkpt lat="43.21522" lon="5.46939">
        <ele>498.6</ele>
        <time>2025-10-19T13:25:35Z</time>
      </trkpt>
      <trkpt lat="43.21523" lon="5.46939">
        <ele>498.6</ele>
        <time>2025-10-19T13:25:36Z</time>
      </trkpt>
      <trkpt lat="43.21524" lon="5.4694">
        <ele>498.6</ele>
        <time>2025-10-19T13:25:37Z</time>
      </trkpt>
      <trkpt lat="43.21525" lon="5.46941">
        <ele>498.5</ele>
        <time>2025-10-19T13:25:38Z</time>
      </trkpt>
      <trkpt lat="43.21526" lon="5.46941">
        <ele>498.4</ele>
        <time>2025-10-19T13:25:39Z</time>
      </trkpt>
      <trkpt lat="43.21528" lon="5.46942">
        <ele>498.4</ele>
        <time>2025-10-19T13:25:40Z</time>
      </trkpt>
      <trkpt lat="43.21529" lon="5.46943">
        <ele>498.3</ele>
        <time>2025-10-19T13:25:41Z</time>
      </trkpt>
      <trkpt lat="43.2153" lon="5.46944">
        <ele>498.4</ele>
        <time>2025-10-19T13:25:42Z</time>
      </trkpt>
      <trkpt lat="43.21531" lon="5.46944">
        <ele>498.3</ele>
        <time>2025-10-19T13:25:43Z</time>
      </trkpt>
      <trkpt lat="43.21532" lon="5.46944">
        <ele>498.1</ele>
        <time>2025-10-19T13:25:44Z</time>
      </trkpt>
      <trkpt lat="43.21533" lon="5.46945">
        <ele>498</ele>
        <time>2025-10-19T13:25:45Z</time>
      </trkpt>
      <trkpt lat="43.21534" lon="5.46946">
        <ele>498</ele>
        <time>2025-10-19T13:25:46Z</time>
      </trkpt>
      <trkpt lat="43.21535" lon="5.46946">
        <ele>497.8</ele>
        <time>2025-10-19T13:25:47Z</time>
      </trkpt>
      <trkpt lat="43.21537" lon="5.46947">
        <ele>497.7</ele>
        <time>2025-10-19T13:25:48Z</time>
      </trkpt>
      <trkpt lat="43.21538" lon="5.46947">
        <ele>497.6</ele>
        <time>2025-10-19T13:25:49Z</time>
      </trkpt>
      <trkpt lat="43.2154" lon="5.46946">
        <ele>497.6</ele>
        <time>2025-10-19T13:25:50Z</time>
      </trkpt>
      <trkpt lat="43.21541" lon="5.46946">
        <ele>497.5</ele>
        <time>2025-10-19T13:25:51Z</time>
      </trkpt>
      <trkpt lat="43.21542" lon="5.46946">
        <ele>497.5</ele>
        <time>2025-10-19T13:25:52Z</time>
      </trkpt>
      <trkpt lat="43.21543" lon="5.46947">
        <ele>497.5</ele>
        <time>2025-10-19T13:25:53Z</time>
      </trkpt>
      <trkpt lat="43.21545" lon="5.46946">
        <ele>497.3</ele>
        <time>2025-10-19T13:25:54Z</time>
      </trkpt>
      <trkpt lat="43.21545" lon="5.46947">
        <ele>497.2</ele>
        <time>2025-10-19T13:25:55Z</time>
      </trkpt>
      <trkpt lat="43.21546" lon="5.46947">
        <ele>497.2</ele>
        <time>2025-10-19T13:25:56Z</time>
      </trkpt>
      <trkpt lat="43.21547" lon="5.46948">
        <ele>497.1</ele>
        <time>2025-10-19T13:25:57Z</time>
      </trkpt>
      <trkpt lat="43.21548" lon="5.46949">
        <ele>497</ele>
        <time>2025-10-19T13:25:58Z</time>
      </trkpt>
      <trkpt lat="43.21548" lon="5.46949">
        <ele>497</ele>
        <time>2025-10-19T13:25:59Z</time>
      </trkpt>
      <trkpt lat="43.21549" lon="5.4695">
        <ele>496.9</ele>
        <time>2025-10-19T13:26:00Z</time>
      </trkpt>
      <trkpt lat="43.2155" lon="5.46951">
        <ele>496.8</ele>
        <time>2025-10-19T13:26:01Z</time>
      </trkpt>
      <trkpt lat="43.2155" lon="5.46953">
        <ele>496.6</ele>
        <time>2025-10-19T13:26:02Z</time>
      </trkpt>
      <trkpt lat="43.21551" lon="5.46954">
        <ele>496</ele>
        <time>2025-10-19T13:26:03Z</time>
      </trkpt>
      <trkpt lat="43.21553" lon="5.46954">
        <ele>495.8</ele>
        <time>2025-10-19T13:26:04Z</time>
      </trkpt>
      <trkpt lat="43.21555" lon="5.46954">
        <ele>495.6</ele>
        <time>2025-10-19T13:26:05Z</time>
      </trkpt>
      <trkpt lat="43.21556" lon="5.46953">
        <ele>495.4</ele>
        <time>2025-10-19T13:26:06Z</time>
      </trkpt>
      <trkpt lat="43.21557" lon="5.46952">
        <ele>495.3</ele>
        <time>2025-10-19T13:26:07Z</time>
      </trkpt>
      <trkpt lat="43.21558" lon="5.46951">
        <ele>495.2</ele>
        <time>2025-10-19T13:26:08Z</time>
      </trkpt>
      <trkpt lat="43.2156" lon="5.4695">
        <ele>495.2</ele>
        <time>2025-10-19T13:26:09Z</time>
      </trkpt>
      <trkpt lat="43.21561" lon="5.46949">
        <ele>495</ele>
        <time>2025-10-19T13:26:10Z</time>
      </trkpt>
      <trkpt lat="43.21563" lon="5.46949">
        <ele>494.8</ele>
        <time>2025-10-19T13:26:11Z</time>
      </trkpt>
      <trkpt lat="43.21564" lon="5.46948">
        <ele>494.9</ele>
        <time>2025-10-19T13:26:12Z</time>
      </trkpt>
      <trkpt lat="43.21566" lon="5.46947">
        <ele>494.9</ele>
        <time>2025-10-19T13:26:13Z</time>
      </trkpt>
      <trkpt lat="43.21567" lon="5.46946">
        <ele>494.8</ele>
        <time>2025-10-19T13:26:14Z</time>
      </trkpt>
      <trkpt lat="43.21569" lon="5.46945">
        <ele>495</ele>
        <time>2025-10-19T13:26:15Z</time>
      </trkpt>
      <trkpt lat="43.2157" lon="5.46944">
        <ele>495</ele>
        <time>2025-10-19T13:26:16Z</time>
      </trkpt>
      <trkpt lat="43.21572" lon="5.46943">
        <ele>495</ele>
        <time>2025-10-19T13:26:17Z</time>
      </trkpt>
      <trkpt lat="43.21573" lon="5.46943">
        <ele>495</ele>
        <time>2025-10-19T13:26:18Z</time>
      </trkpt>
      <trkpt lat="43.21575" lon="5.46942">
        <ele>494.9</ele>
        <time>2025-10-19T13:26:19Z</time>
      </trkpt>
      <trkpt lat="43.21577" lon="5.4694">
        <ele>494.8</ele>
        <time>2025-10-19T13:26:20Z</time>
      </trkpt>
      <trkpt lat="43.21578" lon="5.46939">
        <ele>494.8</ele>
        <time>2025-10-19T13:26:21Z</time>
      </trkpt>
      <trkpt lat="43.2158" lon="5.46938">
        <ele>494.8</ele>
        <time>2025-10-19T13:26:22Z</time>
      </trkpt>
      <trkpt lat="43.21582" lon="5.46937">
        <ele>494.7</ele>
        <time>2025-10-19T13:26:23Z</time>
      </trkpt>
      <trkpt lat="43.21583" lon="5.46935">
        <ele>494.6</ele>
        <time>2025-10-19T13:26:24Z</time>
      </trkpt>
      <trkpt lat="43.21586" lon="5.46933">
        <ele>494.4</ele>
        <time>2025-10-19T13:26:25Z</time>
      </trkpt>
      <trkpt lat="43.21587" lon="5.46932">
        <ele>494.3</ele>
        <time>2025-10-19T13:26:26Z</time>
      </trkpt>
      <trkpt lat="43.21589" lon="5.4693">
        <ele>494.6</ele>
        <time>2025-10-19T13:26:27Z</time>
      </trkpt>
      <trkpt lat="43.21591" lon="5.46929">
        <ele>494.6</ele>
        <time>2025-10-19T13:26:28Z</time>
      </trkpt>
      <trkpt lat="43.21593" lon="5.46927">
        <ele>494.2</ele>
        <time>2025-10-19T13:26:29Z</time>
      </trkpt>
      <trkpt lat="43.21594" lon="5.46926">
        <ele>494.4</ele>
        <time>2025-10-19T13:26:30Z</time>
      </trkpt>
      <trkpt lat="43.21596" lon="5.46924">
        <ele>494.6</ele>
        <time>2025-10-19T13:26:31Z</time>
      </trkpt>
      <trkpt lat="43.21598" lon="5.46922">
        <ele>493.8</ele>
        <time>2025-10-19T13:26:32Z</time>
      </trkpt>
      <trkpt lat="43.216" lon="5.4692">
        <ele>494.2</ele>
        <time>2025-10-19T13:26:33Z</time>
      </trkpt>
      <trkpt lat="43.21601" lon="5.46919">
        <ele>494.3</ele>
        <time>2025-10-19T13:26:34Z</time>
      </trkpt>
      <trkpt lat="43.21603" lon="5.46917">
        <ele>494.5</ele>
        <time>2025-10-19T13:26:35Z</time>
      </trkpt>
      <trkpt lat="43.21605" lon="5.46915">
        <ele>494.6</ele>
        <time>2025-10-19T13:26:36Z</time>
      </trkpt>
      <trkpt lat="43.21607" lon="5.46913">
        <ele>495.1</ele>
        <time>2025-10-19T13:26:37Z</time>
      </trkpt>
      <trkpt lat="43.21609" lon="5.46912">
        <ele>494.9</ele>
        <time>2025-10-19T13:26:38Z</time>
      </trkpt>
      <trkpt lat="43.21611" lon="5.4691">
        <ele>494.8</ele>
        <time>2025-10-19T13:26:39Z</time>
      </trkpt>
      <trkpt lat="43.21613" lon="5.46909">
        <ele>494.9</ele>
        <time>2025-10-19T13:26:40Z</time>
      </trkpt>
      <trkpt lat="43.21615" lon="5.46907">
        <ele>495</ele>
        <time>2025-10-19T13:26:41Z</time>
      </trkpt>
      <trkpt lat="43.21617" lon="5.46906">
        <ele>495</ele>
        <time>2025-10-19T13:26:42Z</time>
      </trkpt>
      <trkpt lat="43.21619" lon="5.46904">
        <ele>495.1</ele>
        <time>2025-10-19T13:26:43Z</time>
      </trkpt>
      <trkpt lat="43.21621" lon="5.46903">
        <ele>495.2</ele>
        <time>2025-10-19T13:26:44Z</time>
      </trkpt>
      <trkpt lat="43.21622" lon="5.46901">
        <ele>495.3</ele>
        <time>2025-10-19T13:26:45Z</time>
      </trkpt>
      <trkpt lat="43.21624" lon="5.469">
        <ele>495.5</ele>
        <time>2025-10-19T13:26:46Z</time>
      </trkpt>
      <trkpt lat="43.21626" lon="5.46899">
        <ele>495.5</ele>
        <time>2025-10-19T13:26:47Z</time>
      </trkpt>
      <trkpt lat="43.21628" lon="5.46897">
        <ele>495.5</ele>
        <time>2025-10-19T13:26:48Z</time>
      </trkpt>
      <trkpt lat="43.2163" lon="5.46896">
        <ele>495.5</ele>
        <time>2025-10-19T13:26:49Z</time>
      </trkpt>
      <trkpt lat="43.21632" lon="5.46894">
        <ele>495.5</ele>
        <time>2025-10-19T13:26:50Z</time>
      </trkpt>
      <trkpt lat="43.21634" lon="5.46892">
        <ele>495.6</ele>
        <time>2025-10-19T13:26:51Z</time>
      </trkpt>
      <trkpt lat="43.21635" lon="5.4689">
        <ele>495.8</ele>
        <time>2025-10-19T13:26:52Z</time>
      </trkpt>
      <trkpt lat="43.21636" lon="5.46889">
        <ele>495.9</ele>
        <time>2025-10-19T13:26:53Z</time>
      </trkpt>
      <trkpt lat="43.21637" lon="5.46887">
        <ele>496</ele>
        <time>2025-10-19T13:26:54Z</time>
      </trkpt>
      <trkpt lat="43.21638" lon="5.46885">
        <ele>496.3</ele>
        <time>2025-10-19T13:26:55Z</time>
      </trkpt>
      <trkpt lat="43.21639" lon="5.46884">
        <ele>496.5</ele>
        <time>2025-10-19T13:26:56Z</time>
      </trkpt>
      <trkpt lat="43.2164" lon="5.46881">
        <ele>496.7</ele>
        <time>2025-10-19T13:26:57Z</time>
      </trkpt>
      <trkpt lat="43.21641" lon="5.46879">
        <ele>496.9</ele>
        <time>2025-10-19T13:26:58Z</time>
      </trkpt>
      <trkpt lat="43.21643" lon="5.46877">
        <ele>497.2</ele>
        <time>2025-10-19T13:26:59Z</time>
      </trkpt>
      <trkpt lat="43.21644" lon="5.46875">
        <ele>497.5</ele>
        <time>2025-10-19T13:27:00Z</time>
      </trkpt>
      <trkpt lat="43.21645" lon="5.46874">
        <ele>497.7</ele>
        <time>2025-10-19T13:27:01Z</time>
      </trkpt>
      <trkpt lat="43.21646" lon="5.46872">
        <ele>498</ele>
        <time>2025-10-19T13:27:02Z</time>
      </trkpt>
      <trkpt lat="43.21647" lon="5.4687">
        <ele>498.4</ele>
        <time>2025-10-19T13:27:03Z</time>
      </trkpt>
      <trkpt lat="43.21649" lon="5.46868">
        <ele>498.6</ele>
        <time>2025-10-19T13:27:04Z</time>
      </trkpt>
      <trkpt lat="43.2165" lon="5.46867">
        <ele>499.1</ele>
        <time>2025-10-19T13:27:05Z</time>
      </trkpt>
      <trkpt lat="43.21651" lon="5.46865">
        <ele>499.6</ele>
        <time>2025-10-19T13:27:06Z</time>
      </trkpt>
      <trkpt lat="43.21653" lon="5.46864">
        <ele>499.7</ele>
        <time>2025-10-19T13:27:07Z</time>
      </trkpt>
      <trkpt lat="43.21655" lon="5.46863">
        <ele>499.9</ele>
        <time>2025-10-19T13:27:08Z</time>
      </trkpt>
      <trkpt lat="43.21657" lon="5.46862">
        <ele>500.1</ele>
        <time>2025-10-19T13:27:09Z</time>
      </trkpt>
      <trkpt lat="43.21658" lon="5.46862">
        <ele>500.2</ele>
        <time>2025-10-19T13:27:10Z</time>
      </trkpt>
      <trkpt lat="43.2166" lon="5.46861">
        <ele>500.3</ele>
        <time>2025-10-19T13:27:11Z</time>
      </trkpt>
      <trkpt lat="43.21661" lon="5.4686">
        <ele>500.3</ele>
        <time>2025-10-19T13:27:12Z</time>
      </trkpt>
      <trkpt lat="43.21662" lon="5.4686">
        <ele>500.5</ele>
        <time>2025-10-19T13:27:13Z</time>
      </trkpt>
      <trkpt lat="43.21663" lon="5.46858">
        <ele>500.6</ele>
        <time>2025-10-19T13:27:14Z</time>
      </trkpt>
      <trkpt lat="43.21664" lon="5.46857">
        <ele>500.7</ele>
        <time>2025-10-19T13:27:15Z</time>
      </trkpt>
      <trkpt lat="43.21665" lon="5.46856">
        <ele>500.7</ele>
        <time>2025-10-19T13:27:16Z</time>
      </trkpt>
      <trkpt lat="43.21666" lon="5.46855">
        <ele>500.7</ele>
        <time>2025-10-19T13:27:17Z</time>
      </trkpt>
      <trkpt lat="43.21667" lon="5.46853">
        <ele>500.8</ele>
        <time>2025-10-19T13:27:18Z</time>
      </trkpt>
      <trkpt lat="43.21667" lon="5.46852">
        <ele>501</ele>
        <time>2025-10-19T13:27:19Z</time>
      </trkpt>
      <trkpt lat="43.21668" lon="5.46851">
        <ele>501.1</ele>
        <time>2025-10-19T13:27:20Z</time>
      </trkpt>
      <trkpt lat="43.21669" lon="5.46849">
        <ele>501.3</ele>
        <time>2025-10-19T13:27:21Z</time>
      </trkpt>
      <trkpt lat="43.2167" lon="5.46848">
        <ele>501.5</ele>
        <time>2025-10-19T13:27:22Z</time>
      </trkpt>
      <trkpt lat="43.21671" lon="5.46847">
        <ele>501.6</ele>
        <time>2025-10-19T13:27:23Z</time>
      </trkpt>
      <trkpt lat="43.21671" lon="5.46846">
        <ele>501.7</ele>
        <time>2025-10-19T13:27:24Z</time>
      </trkpt>
      <trkpt lat="43.21672" lon="5.46844">
        <ele>501.8</ele>
        <time>2025-10-19T13:27:25Z</time>
      </trkpt>
      <trkpt lat="43.21673" lon="5.46843">
        <ele>501.9</ele>
        <time>2025-10-19T13:27:26Z</time>
      </trkpt>
      <trkpt lat="43.21674" lon="5.46842">
        <ele>502.1</ele>
        <time>2025-10-19T13:27:27Z</time>
      </trkpt>
      <trkpt lat="43.21674" lon="5.46841">
        <ele>502.2</ele>
        <time>2025-10-19T13:27:28Z</time>
      </trkpt>
      <trkpt lat="43.21675" lon="5.4684">
        <ele>502.5</ele>
        <time>2025-10-19T13:27:29Z</time>
      </trkpt>
      <trkpt lat="43.21676" lon="5.46839">
        <ele>502.6</ele>
        <time>2025-10-19T13:27:30Z</time>
      </trkpt>
      <trkpt lat="43.21676" lon="5.46838">
        <ele>502.7</ele>
        <time>2025-10-19T13:27:31Z</time>
      </trkpt>
      <trkpt lat="43.21677" lon="5.46837">
        <ele>502.8</ele>
        <time>2025-10-19T13:27:32Z</time>
      </trkpt>
      <trkpt lat="43.21677" lon="5.46836">
        <ele>502.8</ele>
        <time>2025-10-19T13:27:33Z</time>
      </trkpt>
      <trkpt lat="43.21678" lon="5.46836">
        <ele>502.8</ele>
        <time>2025-10-19T13:27:34Z</time>
      </trkpt>
      <trkpt lat="43.21679" lon="5.46835">
        <ele>502.7</ele>
        <time>2025-10-19T13:27:35Z</time>
      </trkpt>
      <trkpt lat="43.21679" lon="5.46835">
        <ele>502.6</ele>
        <time>2025-10-19T13:27:36Z</time>
      </trkpt>
      <trkpt lat="43.21679" lon="5.46835">
        <ele>502.6</ele>
        <time>2025-10-19T13:27:37Z</time>
      </trkpt>
      <trkpt lat="43.21679" lon="5.46835">
        <ele>502.7</ele>
        <time>2025-10-19T13:27:38Z</time>
      </trkpt>
      <trkpt lat="43.21679" lon="5.46835">
        <ele>502.6</ele>
        <time>2025-10-19T13:27:39Z</time>
      </trkpt>
      <trkpt lat="43.21679" lon="5.46835">
        <ele>502.6</ele>
        <time>2025-10-19T13:27:40Z</time>
      </trkpt>
      <trkpt lat="43.21679" lon="5.46835">
        <ele>502.6</ele>
        <time>2025-10-19T13:27:41Z</time>
      </trkpt>
      <trkpt lat="43.21679" lon="5.46835">
        <ele>502.6</ele>
        <time>2025-10-19T13:27:42Z</time>
      </trkpt>
      <trkpt lat="43.21679" lon="5.46835">
        <ele>502.6</ele>
        <time>2025-10-19T13:27:43Z</time>
      </trkpt>
      <trkpt lat="43.21679" lon="5.46835">
        <ele>502.6</ele>
        <time>2025-10-19T13:27:44Z</time>
      </trkpt>
      <trkpt lat="43.21679" lon="5.46835">
        <ele>502.6</ele>
        <time>2025-10-19T13:27:45Z</time>
      </trkpt>
      <trkpt lat="43.21679" lon="5.46835">
        <ele>502.7</ele>
        <time>2025-10-19T13:27:46Z</time>
      </trkpt>
      <trkpt lat="43.21679" lon="5.46835">
        <ele>502.7</ele>
        <time>2025-10-19T13:27:47Z</time>
      </trkpt>
      <trkpt lat="43.2168" lon="5.46835">
        <ele>502.8</ele>
        <time>2025-10-19T13:27:48Z</time>
      </trkpt>
      <trkpt lat="43.2168" lon="5.46835">
        <ele>502.7</ele>
        <time>2025-10-19T13:27:49Z</time>
      </trkpt>
      <trkpt lat="43.2168" lon="5.46835">
        <ele>502.6</ele>
        <time>2025-10-19T13:27:50Z</time>
      </trkpt>
      <trkpt lat="43.2168" lon="5.46835">
        <ele>502.6</ele>
        <time>2025-10-19T13:27:51Z</time>
      </trkpt>
      <trkpt lat="43.2168" lon="5.46835">
        <ele>502.6</ele>
        <time>2025-10-19T13:27:52Z</time>
      </trkpt>
      <trkpt lat="43.2168" lon="5.46835">
        <ele>502.6</ele>
        <time>2025-10-19T13:27:53Z</time>
      </trkpt>
      <trkpt lat="43.2168" lon="5.46834">
        <ele>502.6</ele>
        <time>2025-10-19T13:27:54Z</time>
      </trkpt>
      <trkpt lat="43.2168" lon="5.46834">
        <ele>502.6</ele>
        <time>2025-10-19T13:27:55Z</time>
      </trkpt>
      <trkpt lat="43.2168" lon="5.46834">
        <ele>502.6</ele>
        <time>2025-10-19T13:27:56Z</time>
      </trkpt>
      <trkpt lat="43.2168" lon="5.46833">
        <ele>502.6</ele>
        <time>2025-10-19T13:27:57Z</time>
      </trkpt>
      <trkpt lat="43.2168" lon="5.46833">
        <ele>502.7</ele>
        <time>2025-10-19T13:27:58Z</time>
      </trkpt>
      <trkpt lat="43.2168" lon="5.46832">
        <ele>502.8</ele>
        <time>2025-10-19T13:27:59Z</time>
      </trkpt>
      <trkpt lat="43.2168" lon="5.46832">
        <ele>502.8</ele>
        <time>2025-10-19T13:28:00Z</time>
      </trkpt>
      <trkpt lat="43.2168" lon="5.46831">
        <ele>502.8</ele>
        <time>2025-10-19T13:28:01Z</time>
      </trkpt>
      <trkpt lat="43.2168" lon="5.46831">
        <ele>502.7</ele>
        <time>2025-10-19T13:28:02Z</time>
      </trkpt>
      <trkpt lat="43.2168" lon="5.4683">
        <ele>502.7</ele>
        <time>2025-10-19T13:28:03Z</time>
      </trkpt>
      <trkpt lat="43.2168" lon="5.46829">
        <ele>502.8</ele>
        <time>2025-10-19T13:28:04Z</time>
      </trkpt>
      <trkpt lat="43.21681" lon="5.46829">
        <ele>502.8</ele>
        <time>2025-10-19T13:28:05Z</time>
      </trkpt>
      <trkpt lat="43.21682" lon="5.46829">
        <ele>502.8</ele>
        <time>2025-10-19T13:28:06Z</time>
      </trkpt>
      <trkpt lat="43.21683" lon="5.46828">
        <ele>502.9</ele>
        <time>2025-10-19T13:28:07Z</time>
      </trkpt>
      <trkpt lat="43.21683" lon="5.46827">
        <ele>502.9</ele>
        <time>2025-10-19T13:28:08Z</time>
      </trkpt>
      <trkpt lat="43.21684" lon="5.46827">
        <ele>502.9</ele>
        <time>2025-10-19T13:28:09Z</time>
      </trkpt>
      <trkpt lat="43.21685" lon="5.46826">
        <ele>502.9</ele>
        <time>2025-10-19T13:28:10Z</time>
      </trkpt>
      <trkpt lat="43.21686" lon="5.46825">
        <ele>503</ele>
        <time>2025-10-19T13:28:11Z</time>
      </trkpt>
      <trkpt lat="43.21687" lon="5.46824">
        <ele>503.1</ele>
        <time>2025-10-19T13:28:12Z</time>
      </trkpt>
      <trkpt lat="43.21688" lon="5.46824">
        <ele>503.2</ele>
        <time>2025-10-19T13:28:13Z</time>
      </trkpt>
      <trkpt lat="43.21688" lon="5.46823">
        <ele>503.2</ele>
        <time>2025-10-19T13:28:14Z</time>
      </trkpt>
      <trkpt lat="43.21689" lon="5.46822">
        <ele>503.2</ele>
        <time>2025-10-19T13:28:15Z</time>
      </trkpt>
      <trkpt lat="43.21689" lon="5.46821">
        <ele>503.2</ele>
        <time>2025-10-19T13:28:16Z</time>
      </trkpt>
      <trkpt lat="43.2169" lon="5.4682">
        <ele>503.3</ele>
        <time>2025-10-19T13:28:17Z</time>
      </trkpt>
      <trkpt lat="43.2169" lon="5.4682">
        <ele>503.4</ele>
        <time>2025-10-19T13:28:18Z</time>
      </trkpt>
      <trkpt lat="43.21691" lon="5.46819">
        <ele>503.5</ele>
        <time>2025-10-19T13:28:19Z</time>
      </trkpt>
      <trkpt lat="43.21691" lon="5.46818">
        <ele>503.6</ele>
        <time>2025-10-19T13:28:20Z</time>
      </trkpt>
      <trkpt lat="43.21691" lon="5.46817">
        <ele>503.7</ele>
        <time>2025-10-19T13:28:21Z</time>
      </trkpt>
      <trkpt lat="43.21692" lon="5.46817">
        <ele>503.8</ele>
        <time>2025-10-19T13:28:22Z</time>
      </trkpt>
      <trkpt lat="43.21693" lon="5.46816">
        <ele>503.8</ele>
        <time>2025-10-19T13:28:23Z</time>
      </trkpt>
      <trkpt lat="43.21693" lon="5.46816">
        <ele>503.9</ele>
        <time>2025-10-19T13:28:24Z</time>
      </trkpt>
      <trkpt lat="43.21694" lon="5.46815">
        <ele>503.9</ele>
        <time>2025-10-19T13:28:25Z</time>
      </trkpt>
      <trkpt lat="43.21695" lon="5.46814">
        <ele>504</ele>
        <time>2025-10-19T13:28:26Z</time>
      </trkpt>
      <trkpt lat="43.21695" lon="5.46813">
        <ele>504</ele>
        <time>2025-10-19T13:28:27Z</time>
      </trkpt>
      <trkpt lat="43.21696" lon="5.46812">
        <ele>504.1</ele>
        <time>2025-10-19T13:28:28Z</time>
      </trkpt>
      <trkpt lat="43.21697" lon="5.46811">
        <ele>504</ele>
        <time>2025-10-19T13:28:29Z</time>
      </trkpt>
      <trkpt lat="43.21698" lon="5.46811">
        <ele>504</ele>
        <time>2025-10-19T13:28:30Z</time>
      </trkpt>
      <trkpt lat="43.21698" lon="5.46811">
        <ele>504.1</ele>
        <time>2025-10-19T13:28:31Z</time>
      </trkpt>
      <trkpt lat="43.21699" lon="5.4681">
        <ele>504.1</ele>
        <time>2025-10-19T13:28:32Z</time>
      </trkpt>
      <trkpt lat="43.217" lon="5.4681">
        <ele>504.1</ele>
        <time>2025-10-19T13:28:33Z</time>
      </trkpt>
      <trkpt lat="43.21701" lon="5.4681">
        <ele>504.1</ele>
        <time>2025-10-19T13:28:34Z</time>
      </trkpt>
      <trkpt lat="43.21702" lon="5.46809">
        <ele>504.1</ele>
        <time>2025-10-19T13:28:35Z</time>
      </trkpt>
      <trkpt lat="43.21702" lon="5.46808">
        <ele>504</ele>
        <time>2025-10-19T13:28:36Z</time>
      </trkpt>
      <trkpt lat="43.21703" lon="5.46808">
        <ele>504.1</ele>
        <time>2025-10-19T13:28:37Z</time>
      </trkpt>
      <trkpt lat="43.21704" lon="5.46807">
        <ele>504.1</ele>
        <time>2025-10-19T13:28:38Z</time>
      </trkpt>
      <trkpt lat="43.21705" lon="5.46806">
        <ele>504.2</ele>
        <time>2025-10-19T13:28:39Z</time>
      </trkpt>
      <trkpt lat="43.21706" lon="5.46806">
        <ele>504.4</ele>
        <time>2025-10-19T13:28:40Z</time>
      </trkpt>
      <trkpt lat="43.21706" lon="5.46805">
        <ele>504.5</ele>
        <time>2025-10-19T13:28:41Z</time>
      </trkpt>
      <trkpt lat="43.21707" lon="5.46804">
        <ele>504.6</ele>
        <time>2025-10-19T13:28:42Z</time>
      </trkpt>
      <trkpt lat="43.21708" lon="5.46804">
        <ele>504.8</ele>
        <time>2025-10-19T13:28:43Z</time>
      </trkpt>
      <trkpt lat="43.21709" lon="5.46803">
        <ele>504.9</ele>
        <time>2025-10-19T13:28:44Z</time>
      </trkpt>
      <trkpt lat="43.2171" lon="5.46802">
        <ele>505</ele>
        <time>2025-10-19T13:28:45Z</time>
      </trkpt>
      <trkpt lat="43.2171" lon="5.46801">
        <ele>505</ele>
        <time>2025-10-19T13:28:46Z</time>
      </trkpt>
      <trkpt lat="43.21711" lon="5.468">
        <ele>505.1</ele>
        <time>2025-10-19T13:28:47Z</time>
      </trkpt>
      <trkpt lat="43.21712" lon="5.468">
        <ele>505.2</ele>
        <time>2025-10-19T13:28:48Z</time>
      </trkpt>
      <trkpt lat="43.21713" lon="5.46799">
        <ele>505.2</ele>
        <time>2025-10-19T13:28:49Z</time>
      </trkpt>
      <trkpt lat="43.21714" lon="5.46798">
        <ele>505.3</ele>
        <time>2025-10-19T13:28:50Z</time>
      </trkpt>
      <trkpt lat="43.21715" lon="5.46797">
        <ele>505.4</ele>
        <time>2025-10-19T13:28:51Z</time>
      </trkpt>
      <trkpt lat="43.21715" lon="5.46796">
        <ele>505.5</ele>
        <time>2025-10-19T13:28:52Z</time>
      </trkpt>
      <trkpt lat="43.21716" lon="5.46795">
        <ele>505.6</ele>
        <time>2025-10-19T13:28:53Z</time>
      </trkpt>
      <trkpt lat="43.21717" lon="5.46794">
        <ele>505.7</ele>
        <time>2025-10-19T13:28:54Z</time>
      </trkpt>
      <trkpt lat="43.21718" lon="5.46793">
        <ele>505.8</ele>
        <time>2025-10-19T13:28:55Z</time>
      </trkpt>
      <trkpt lat="43.21719" lon="5.46793">
        <ele>505.9</ele>
        <time>2025-10-19T13:28:56Z</time>
      </trkpt>
      <trkpt lat="43.2172" lon="5.46792">
        <ele>505.9</ele>
        <time>2025-10-19T13:28:57Z</time>
      </trkpt>
      <trkpt lat="43.2172" lon="5.46791">
        <ele>505.7</ele>
        <time>2025-10-19T13:28:58Z</time>
      </trkpt>
      <trkpt lat="43.21721" lon="5.4679">
        <ele>505.7</ele>
        <time>2025-10-19T13:28:59Z</time>
      </trkpt>
      <trkpt lat="43.21722" lon="5.46789">
        <ele>505.6</ele>
        <time>2025-10-19T13:29:00Z</time>
      </trkpt>
      <trkpt lat="43.21723" lon="5.46788">
        <ele>505.6</ele>
        <time>2025-10-19T13:29:01Z</time>
      </trkpt>
      <trkpt lat="43.21724" lon="5.46787">
        <ele>505.6</ele>
        <time>2025-10-19T13:29:02Z</time>
      </trkpt>
      <trkpt lat="43.21725" lon="5.46786">
        <ele>505.6</ele>
        <time>2025-10-19T13:29:03Z</time>
      </trkpt>
      <trkpt lat="43.21726" lon="5.46785">
        <ele>505.5</ele>
        <time>2025-10-19T13:29:04Z</time>
      </trkpt>
      <trkpt lat="43.21727" lon="5.46784">
        <ele>505.5</ele>
        <time>2025-10-19T13:29:05Z</time>
      </trkpt>
      <trkpt lat="43.21728" lon="5.46783">
        <ele>505.6</ele>
        <time>2025-10-19T13:29:06Z</time>
      </trkpt>
      <trkpt lat="43.21729" lon="5.46782">
        <ele>505.6</ele>
        <time>2025-10-19T13:29:07Z</time>
      </trkpt>
      <trkpt lat="43.2173" lon="5.46781">
        <ele>505.6</ele>
        <time>2025-10-19T13:29:08Z</time>
      </trkpt>
      <trkpt lat="43.21731" lon="5.4678">
        <ele>505.7</ele>
        <time>2025-10-19T13:29:09Z</time>
      </trkpt>
      <trkpt lat="43.21732" lon="5.46779">
        <ele>505.8</ele>
        <time>2025-10-19T13:29:10Z</time>
      </trkpt>
      <trkpt lat="43.21733" lon="5.46778">
        <ele>505.8</ele>
        <time>2025-10-19T13:29:11Z</time>
      </trkpt>
      <trkpt lat="43.21734" lon="5.46777">
        <ele>505.8</ele>
        <time>2025-10-19T13:29:12Z</time>
      </trkpt>
      <trkpt lat="43.21735" lon="5.46776">
        <ele>505.9</ele>
        <time>2025-10-19T13:29:13Z</time>
      </trkpt>
      <trkpt lat="43.21735" lon="5.46775">
        <ele>505.9</ele>
        <time>2025-10-19T13:29:14Z</time>
      </trkpt>
      <trkpt lat="43.21736" lon="5.46774">
        <ele>506.1</ele>
        <time>2025-10-19T13:29:15Z</time>
      </trkpt>
      <trkpt lat="43.21737" lon="5.46773">
        <ele>506.3</ele>
        <time>2025-10-19T13:29:16Z</time>
      </trkpt>
      <trkpt lat="43.21738" lon="5.46772">
        <ele>506.4</ele>
        <time>2025-10-19T13:29:17Z</time>
      </trkpt>
      <trkpt lat="43.21739" lon="5.46771">
        <ele>506.4</ele>
        <time>2025-10-19T13:29:18Z</time>
      </trkpt>
      <trkpt lat="43.2174" lon="5.4677">
        <ele>506.5</ele>
        <time>2025-10-19T13:29:19Z</time>
      </trkpt>
      <trkpt lat="43.21741" lon="5.46769">
        <ele>506.6</ele>
        <time>2025-10-19T13:29:20Z</time>
      </trkpt>
      <trkpt lat="43.21742" lon="5.46768">
        <ele>506.8</ele>
        <time>2025-10-19T13:29:21Z</time>
      </trkpt>
      <trkpt lat="43.21743" lon="5.46767">
        <ele>506.8</ele>
        <time>2025-10-19T13:29:22Z</time>
      </trkpt>
      <trkpt lat="43.21744" lon="5.46767">
        <ele>507</ele>
        <time>2025-10-19T13:29:23Z</time>
      </trkpt>
      <trkpt lat="43.21745" lon="5.46766">
        <ele>507.2</ele>
        <time>2025-10-19T13:29:24Z</time>
      </trkpt>
      <trkpt lat="43.21746" lon="5.46765">
        <ele>507.3</ele>
        <time>2025-10-19T13:29:25Z</time>
      </trkpt>
      <trkpt lat="43.21747" lon="5.46763">
        <ele>507.5</ele>
        <time>2025-10-19T13:29:26Z</time>
      </trkpt>
      <trkpt lat="43.21747" lon="5.46763">
        <ele>507.6</ele>
        <time>2025-10-19T13:29:27Z</time>
      </trkpt>
      <trkpt lat="43.21748" lon="5.46762">
        <ele>507.7</ele>
        <time>2025-10-19T13:29:28Z</time>
      </trkpt>
      <trkpt lat="43.21749" lon="5.46761">
        <ele>507.8</ele>
        <time>2025-10-19T13:29:29Z</time>
      </trkpt>
      <trkpt lat="43.21749" lon="5.4676">
        <ele>507.9</ele>
        <time>2025-10-19T13:29:30Z</time>
      </trkpt>
      <trkpt lat="43.2175" lon="5.4676">
        <ele>507.9</ele>
        <time>2025-10-19T13:29:31Z</time>
      </trkpt>
      <trkpt lat="43.21751" lon="5.46759">
        <ele>508</ele>
        <time>2025-10-19T13:29:32Z</time>
      </trkpt>
      <trkpt lat="43.21752" lon="5.46759">
        <ele>508.1</ele>
        <time>2025-10-19T13:29:33Z</time>
      </trkpt>
      <trkpt lat="43.21753" lon="5.46758">
        <ele>508.1</ele>
        <time>2025-10-19T13:29:34Z</time>
      </trkpt>
      <trkpt lat="43.21753" lon="5.46757">
        <ele>508.3</ele>
        <time>2025-10-19T13:29:35Z</time>
      </trkpt>
      <trkpt lat="43.21754" lon="5.46756">
        <ele>508.4</ele>
        <time>2025-10-19T13:29:36Z</time>
      </trkpt>
      <trkpt lat="43.21755" lon="5.46756">
        <ele>508.4</ele>
        <time>2025-10-19T13:29:37Z</time>
      </trkpt>
      <trkpt lat="43.21756" lon="5.46755">
        <ele>508.5</ele>
        <time>2025-10-19T13:29:38Z</time>
      </trkpt>
      <trkpt lat="43.21757" lon="5.46754">
        <ele>508.7</ele>
        <time>2025-10-19T13:29:39Z</time>
      </trkpt>
      <trkpt lat="43.21758" lon="5.46754">
        <ele>508.8</ele>
        <time>2025-10-19T13:29:40Z</time>
      </trkpt>
      <trkpt lat="43.21759" lon="5.46753">
        <ele>508.9</ele>
        <time>2025-10-19T13:29:41Z</time>
      </trkpt>
      <trkpt lat="43.2176" lon="5.46752">
        <ele>509</ele>
        <time>2025-10-19T13:29:42Z</time>
      </trkpt>
      <trkpt lat="43.21761" lon="5.46752">
        <ele>509.1</ele>
        <time>2025-10-19T13:29:43Z</time>
      </trkpt>
      <trkpt lat="43.21762" lon="5.46751">
        <ele>509.1</ele>
        <time>2025-10-19T13:29:44Z</time>
      </trkpt>
      <trkpt lat="43.21763" lon="5.4675">
        <ele>509.1</ele>
        <time>2025-10-19T13:29:45Z</time>
      </trkpt>
      <trkpt lat="43.21764" lon="5.46749">
        <ele>509.1</ele>
        <time>2025-10-19T13:29:46Z</time>
      </trkpt>
      <trkpt lat="43.21765" lon="5.46749">
        <ele>509.1</ele>
        <time>2025-10-19T13:29:47Z</time>
      </trkpt>
      <trkpt lat="43.21766" lon="5.46748">
        <ele>509.1</ele>
        <time>2025-10-19T13:29:48Z</time>
      </trkpt>
      <trkpt lat="43.21767" lon="5.46747">
        <ele>509</ele>
        <time>2025-10-19T13:29:49Z</time>
      </trkpt>
      <trkpt lat="43.21768" lon="5.46747">
        <ele>508.9</ele>
        <time>2025-10-19T13:29:50Z</time>
      </trkpt>
      <trkpt lat="43.21769" lon="5.46746">
        <ele>508.9</ele>
        <time>2025-10-19T13:29:51Z</time>
      </trkpt>
      <trkpt lat="43.21771" lon="5.46745">
        <ele>508.9</ele>
        <time>2025-10-19T13:29:52Z</time>
      </trkpt>
      <trkpt lat="43.21772" lon="5.46744">
        <ele>508.9</ele>
        <time>2025-10-19T13:29:53Z</time>
      </trkpt>
      <trkpt lat="43.21773" lon="5.46744">
        <ele>508.9</ele>
        <time>2025-10-19T13:29:54Z</time>
      </trkpt>
      <trkpt lat="43.21774" lon="5.46743">
        <ele>508.9</ele>
        <time>2025-10-19T13:29:55Z</time>
      </trkpt>
      <trkpt lat="43.21775" lon="5.46743">
        <ele>508.9</ele>
        <time>2025-10-19T13:29:56Z</time>
      </trkpt>
      <trkpt lat="43.21776" lon="5.46743">
        <ele>508.9</ele>
        <time>2025-10-19T13:29:57Z</time>
      </trkpt>
      <trkpt lat="43.21777" lon="5.46742">
        <ele>509</ele>
        <time>2025-10-19T13:29:58Z</time>
      </trkpt>
      <trkpt lat="43.21778" lon="5.46742">
        <ele>509</ele>
        <time>2025-10-19T13:29:59Z</time>
      </trkpt>
      <trkpt lat="43.21779" lon="5.46742">
        <ele>509</ele>
        <time>2025-10-19T13:30:00Z</time>
      </trkpt>
      <trkpt lat="43.2178" lon="5.46741">
        <ele>509</ele>
        <time>2025-10-19T13:30:01Z</time>
      </trkpt>
      <trkpt lat="43.21781" lon="5.4674">
        <ele>509</ele>
        <time>2025-10-19T13:30:02Z</time>
      </trkpt>
      <trkpt lat="43.21782" lon="5.46739">
        <ele>509</ele>
        <time>2025-10-19T13:30:03Z</time>
      </trkpt>
      <trkpt lat="43.21783" lon="5.46739">
        <ele>509</ele>
        <time>2025-10-19T13:30:04Z</time>
      </trkpt>
      <trkpt lat="43.21784" lon="5.46739">
        <ele>509.1</ele>
        <time>2025-10-19T13:30:05Z</time>
      </trkpt>
      <trkpt lat="43.21785" lon="5.46738">
        <ele>509.1</ele>
        <time>2025-10-19T13:30:06Z</time>
      </trkpt>
      <trkpt lat="43.21785" lon="5.46738">
        <ele>509.1</ele>
        <time>2025-10-19T13:30:07Z</time>
      </trkpt>
      <trkpt lat="43.21786" lon="5.46738">
        <ele>509</ele>
        <time>2025-10-19T13:30:08Z</time>
      </trkpt>
      <trkpt lat="43.21787" lon="5.46737">
        <ele>509</ele>
        <time>2025-10-19T13:30:09Z</time>
      </trkpt>
      <trkpt lat="43.21788" lon="5.46737">
        <ele>509</ele>
        <time>2025-10-19T13:30:10Z</time>
      </trkpt>
      <trkpt lat="43.21789" lon="5.46736">
        <ele>508.9</ele>
        <time>2025-10-19T13:30:11Z</time>
      </trkpt>
      <trkpt lat="43.2179" lon="5.46736">
        <ele>508.8</ele>
        <time>2025-10-19T13:30:12Z</time>
      </trkpt>
      <trkpt lat="43.21791" lon="5.46735">
        <ele>508.9</ele>
        <time>2025-10-19T13:30:13Z</time>
      </trkpt>
      <trkpt lat="43.21793" lon="5.46735">
        <ele>509</ele>
        <time>2025-10-19T13:30:14Z</time>
      </trkpt>
      <trkpt lat="43.21794" lon="5.46734">
        <ele>509</ele>
        <time>2025-10-19T13:30:15Z</time>
      </trkpt>
      <trkpt lat="43.21795" lon="5.46734">
        <ele>509.1</ele>
        <time>2025-10-19T13:30:16Z</time>
      </trkpt>
      <trkpt lat="43.21796" lon="5.46733">
        <ele>509.1</ele>
        <time>2025-10-19T13:30:17Z</time>
      </trkpt>
      <trkpt lat="43.21797" lon="5.46732">
        <ele>509.1</ele>
        <time>2025-10-19T13:30:18Z</time>
      </trkpt>
      <trkpt lat="43.21798" lon="5.46732">
        <ele>509.2</ele>
        <time>2025-10-19T13:30:19Z</time>
      </trkpt>
      <trkpt lat="43.21798" lon="5.46731">
        <ele>509.2</ele>
        <time>2025-10-19T13:30:20Z</time>
      </trkpt>
      <trkpt lat="43.21799" lon="5.46731">
        <ele>509.3</ele>
        <time>2025-10-19T13:30:21Z</time>
      </trkpt>
      <trkpt lat="43.21801" lon="5.4673">
        <ele>509.3</ele>
        <time>2025-10-19T13:30:22Z</time>
      </trkpt>
      <trkpt lat="43.21802" lon="5.4673">
        <ele>509.3</ele>
        <time>2025-10-19T13:30:23Z</time>
      </trkpt>
      <trkpt lat="43.21803" lon="5.4673">
        <ele>509.3</ele>
        <time>2025-10-19T13:30:24Z</time>
      </trkpt>
      <trkpt lat="43.21804" lon="5.46729">
        <ele>509.3</ele>
        <time>2025-10-19T13:30:25Z</time>
      </trkpt>
      <trkpt lat="43.21805" lon="5.46729">
        <ele>509.3</ele>
        <time>2025-10-19T13:30:26Z</time>
      </trkpt>
      <trkpt lat="43.21806" lon="5.46728">
        <ele>509.3</ele>
        <time>2025-10-19T13:30:27Z</time>
      </trkpt>
      <trkpt lat="43.21807" lon="5.46728">
        <ele>509.4</ele>
        <time>2025-10-19T13:30:28Z</time>
      </trkpt>
      <trkpt lat="43.21808" lon="5.46728">
        <ele>509.4</ele>
        <time>2025-10-19T13:30:29Z</time>
      </trkpt>
      <trkpt lat="43.21809" lon="5.46727">
        <ele>509.4</ele>
        <time>2025-10-19T13:30:30Z</time>
      </trkpt>
      <trkpt lat="43.2181" lon="5.46727">
        <ele>509.5</ele>
        <time>2025-10-19T13:30:31Z</time>
      </trkpt>
      <trkpt lat="43.21811" lon="5.46726">
        <ele>509.5</ele>
        <time>2025-10-19T13:30:32Z</time>
      </trkpt>
      <trkpt lat="43.21812" lon="5.46726">
        <ele>509.5</ele>
        <time>2025-10-19T13:30:33Z</time>
      </trkpt>
      <trkpt lat="43.21813" lon="5.46726">
        <ele>509.6</ele>
        <time>2025-10-19T13:30:34Z</time>
      </trkpt>
      <trkpt lat="43.21814" lon="5.46725">
        <ele>509.6</ele>
        <time>2025-10-19T13:30:35Z</time>
      </trkpt>
      <trkpt lat="43.21816" lon="5.46725">
        <ele>509.6</ele>
        <time>2025-10-19T13:30:36Z</time>
      </trkpt>
      <trkpt lat="43.21817" lon="5.46724">
        <ele>509.7</ele>
        <time>2025-10-19T13:30:37Z</time>
      </trkpt>
      <trkpt lat="43.21818" lon="5.46724">
        <ele>509.9</ele>
        <time>2025-10-19T13:30:38Z</time>
      </trkpt>
      <trkpt lat="43.21819" lon="5.46724">
        <ele>510</ele>
        <time>2025-10-19T13:30:39Z</time>
      </trkpt>
      <trkpt lat="43.21819" lon="5.46723">
        <ele>510.1</ele>
        <time>2025-10-19T13:30:40Z</time>
      </trkpt>
      <trkpt lat="43.2182" lon="5.46723">
        <ele>510.2</ele>
        <time>2025-10-19T13:30:41Z</time>
      </trkpt>
      <trkpt lat="43.21821" lon="5.46723">
        <ele>510.2</ele>
        <time>2025-10-19T13:30:42Z</time>
      </trkpt>
      <trkpt lat="43.21822" lon="5.46722">
        <ele>510.2</ele>
        <time>2025-10-19T13:30:43Z</time>
      </trkpt>
      <trkpt lat="43.21823" lon="5.46722">
        <ele>510.2</ele>
        <time>2025-10-19T13:30:44Z</time>
      </trkpt>
      <trkpt lat="43.21824" lon="5.46722">
        <ele>510.2</ele>
        <time>2025-10-19T13:30:45Z</time>
      </trkpt>
      <trkpt lat="43.21825" lon="5.46721">
        <ele>510.4</ele>
        <time>2025-10-19T13:30:46Z</time>
      </trkpt>
      <trkpt lat="43.21826" lon="5.46721">
        <ele>510.5</ele>
        <time>2025-10-19T13:30:47Z</time>
      </trkpt>
      <trkpt lat="43.21827" lon="5.46722">
        <ele>510.5</ele>
        <time>2025-10-19T13:30:48Z</time>
      </trkpt>
      <trkpt lat="43.21828" lon="5.46721">
        <ele>510.5</ele>
        <time>2025-10-19T13:30:49Z</time>
      </trkpt>
      <trkpt lat="43.21829" lon="5.46721">
        <ele>510.5</ele>
        <time>2025-10-19T13:30:50Z</time>
      </trkpt>
      <trkpt lat="43.2183" lon="5.4672">
        <ele>510.4</ele>
        <time>2025-10-19T13:30:51Z</time>
      </trkpt>
      <trkpt lat="43.21831" lon="5.4672">
        <ele>510.4</ele>
        <time>2025-10-19T13:30:52Z</time>
      </trkpt>
      <trkpt lat="43.21832" lon="5.4672">
        <ele>510.4</ele>
        <time>2025-10-19T13:30:53Z</time>
      </trkpt>
      <trkpt lat="43.21833" lon="5.46719">
        <ele>510.4</ele>
        <time>2025-10-19T13:30:54Z</time>
      </trkpt>
      <trkpt lat="43.21834" lon="5.46719">
        <ele>510.3</ele>
        <time>2025-10-19T13:30:55Z</time>
      </trkpt>
      <trkpt lat="43.21835" lon="5.46718">
        <ele>510.4</ele>
        <time>2025-10-19T13:30:56Z</time>
      </trkpt>
      <trkpt lat="43.21836" lon="5.46718">
        <ele>510.4</ele>
        <time>2025-10-19T13:30:57Z</time>
      </trkpt>
      <trkpt lat="43.21837" lon="5.46718">
        <ele>510.4</ele>
        <time>2025-10-19T13:30:58Z</time>
      </trkpt>
      <trkpt lat="43.21838" lon="5.46717">
        <ele>510.4</ele>
        <time>2025-10-19T13:30:59Z</time>
      </trkpt>
      <trkpt lat="43.21839" lon="5.46717">
        <ele>510.7</ele>
        <time>2025-10-19T13:31:00Z</time>
      </trkpt>
      <trkpt lat="43.2184" lon="5.46716">
        <ele>510.6</ele>
        <time>2025-10-19T13:31:01Z</time>
      </trkpt>
      <trkpt lat="43.21841" lon="5.46716">
        <ele>510.5</ele>
        <time>2025-10-19T13:31:02Z</time>
      </trkpt>
      <trkpt lat="43.21842" lon="5.46716">
        <ele>510.4</ele>
        <time>2025-10-19T13:31:03Z</time>
      </trkpt>
      <trkpt lat="43.21843" lon="5.46716">
        <ele>510.4</ele>
        <time>2025-10-19T13:31:04Z</time>
      </trkpt>
      <trkpt lat="43.21844" lon="5.46716">
        <ele>510.5</ele>
        <time>2025-10-19T13:31:05Z</time>
      </trkpt>
      <trkpt lat="43.21846" lon="5.46715">
        <ele>510.5</ele>
        <time>2025-10-19T13:31:06Z</time>
      </trkpt>
      <trkpt lat="43.21847" lon="5.46715">
        <ele>510.5</ele>
        <time>2025-10-19T13:31:07Z</time>
      </trkpt>
      <trkpt lat="43.21848" lon="5.46715">
        <ele>510.6</ele>
        <time>2025-10-19T13:31:08Z</time>
      </trkpt>
      <trkpt lat="43.21849" lon="5.46714">
        <ele>510.7</ele>
        <time>2025-10-19T13:31:09Z</time>
      </trkpt>
      <trkpt lat="43.21851" lon="5.46714">
        <ele>510.8</ele>
        <time>2025-10-19T13:31:10Z</time>
      </trkpt>
      <trkpt lat="43.21852" lon="5.46714">
        <ele>510.9</ele>
        <time>2025-10-19T13:31:11Z</time>
      </trkpt>
      <trkpt lat="43.21853" lon="5.46714">
        <ele>511</ele>
        <time>2025-10-19T13:31:12Z</time>
      </trkpt>
      <trkpt lat="43.21854" lon="5.46713">
        <ele>511.1</ele>
        <time>2025-10-19T13:31:13Z</time>
      </trkpt>
      <trkpt lat="43.21855" lon="5.46713">
        <ele>511.3</ele>
        <time>2025-10-19T13:31:14Z</time>
      </trkpt>
      <trkpt lat="43.21856" lon="5.46713">
        <ele>511.4</ele>
        <time>2025-10-19T13:31:15Z</time>
      </trkpt>
      <trkpt lat="43.21857" lon="5.46712">
        <ele>511.5</ele>
        <time>2025-10-19T13:31:16Z</time>
      </trkpt>
      <trkpt lat="43.21858" lon="5.46712">
        <ele>511.7</ele>
        <time>2025-10-19T13:31:17Z</time>
      </trkpt>
      <trkpt lat="43.2186" lon="5.46712">
        <ele>511.8</ele>
        <time>2025-10-19T13:31:18Z</time>
      </trkpt>
      <trkpt lat="43.21861" lon="5.46711">
        <ele>511.9</ele>
        <time>2025-10-19T13:31:19Z</time>
      </trkpt>
      <trkpt lat="43.21862" lon="5.46711">
        <ele>512</ele>
        <time>2025-10-19T13:31:20Z</time>
      </trkpt>
      <trkpt lat="43.21863" lon="5.4671">
        <ele>512.2</ele>
        <time>2025-10-19T13:31:21Z</time>
      </trkpt>
      <trkpt lat="43.21864" lon="5.4671">
        <ele>512.2</ele>
        <time>2025-10-19T13:31:22Z</time>
      </trkpt>
      <trkpt lat="43.21865" lon="5.46709">
        <ele>512.3</ele>
        <time>2025-10-19T13:31:23Z</time>
      </trkpt>
      <trkpt lat="43.21866" lon="5.46709">
        <ele>512.3</ele>
        <time>2025-10-19T13:31:24Z</time>
      </trkpt>
      <trkpt lat="43.21868" lon="5.46708">
        <ele>512.4</ele>
        <time>2025-10-19T13:31:25Z</time>
      </trkpt>
      <trkpt lat="43.21869" lon="5.46708">
        <ele>512.5</ele>
        <time>2025-10-19T13:31:26Z</time>
      </trkpt>
      <trkpt lat="43.2187" lon="5.46707">
        <ele>512.5</ele>
        <time>2025-10-19T13:31:27Z</time>
      </trkpt>
      <trkpt lat="43.21871" lon="5.46706">
        <ele>512.5</ele>
        <time>2025-10-19T13:31:28Z</time>
      </trkpt>
      <trkpt lat="43.21872" lon="5.46706">
        <ele>512.5</ele>
        <time>2025-10-19T13:31:29Z</time>
      </trkpt>
      <trkpt lat="43.21873" lon="5.46705">
        <ele>512.6</ele>
        <time>2025-10-19T13:31:30Z</time>
      </trkpt>
      <trkpt lat="43.21874" lon="5.46705">
        <ele>512.6</ele>
        <time>2025-10-19T13:31:31Z</time>
      </trkpt>
      <trkpt lat="43.21875" lon="5.46704">
        <ele>512.7</ele>
        <time>2025-10-19T13:31:32Z</time>
      </trkpt>
      <trkpt lat="43.21876" lon="5.46704">
        <ele>512.7</ele>
        <time>2025-10-19T13:31:33Z</time>
      </trkpt>
      <trkpt lat="43.21878" lon="5.46703">
        <ele>512.7</ele>
        <time>2025-10-19T13:31:34Z</time>
      </trkpt>
      <trkpt lat="43.21879" lon="5.46702">
        <ele>512.7</ele>
        <time>2025-10-19T13:31:35Z</time>
      </trkpt>
      <trkpt lat="43.2188" lon="5.46702">
        <ele>512.7</ele>
        <time>2025-10-19T13:31:36Z</time>
      </trkpt>
      <trkpt lat="43.21881" lon="5.46701">
        <ele>512.8</ele>
        <time>2025-10-19T13:31:37Z</time>
      </trkpt>
      <trkpt lat="43.21882" lon="5.46701">
        <ele>512.9</ele>
        <time>2025-10-19T13:31:38Z</time>
      </trkpt>
      <trkpt lat="43.21883" lon="5.467">
        <ele>512.9</ele>
        <time>2025-10-19T13:31:39Z</time>
      </trkpt>
      <trkpt lat="43.21884" lon="5.467">
        <ele>512.9</ele>
        <time>2025-10-19T13:31:40Z</time>
      </trkpt>
      <trkpt lat="43.21885" lon="5.46699">
        <ele>512.9</ele>
        <time>2025-10-19T13:31:41Z</time>
      </trkpt>
      <trkpt lat="43.21886" lon="5.46699">
        <ele>513</ele>
        <time>2025-10-19T13:31:42Z</time>
      </trkpt>
      <trkpt lat="43.21887" lon="5.46699">
        <ele>513</ele>
        <time>2025-10-19T13:31:43Z</time>
      </trkpt>
      <trkpt lat="43.21888" lon="5.46698">
        <ele>513</ele>
        <time>2025-10-19T13:31:44Z</time>
      </trkpt>
      <trkpt lat="43.21889" lon="5.46697">
        <ele>513.1</ele>
        <time>2025-10-19T13:31:45Z</time>
      </trkpt>
      <trkpt lat="43.2189" lon="5.46697">
        <ele>513.2</ele>
        <time>2025-10-19T13:31:46Z</time>
      </trkpt>
      <trkpt lat="43.21891" lon="5.46696">
        <ele>513.3</ele>
        <time>2025-10-19T13:31:47Z</time>
      </trkpt>
      <trkpt lat="43.21893" lon="5.46696">
        <ele>513.4</ele>
        <time>2025-10-19T13:31:48Z</time>
      </trkpt>
      <trkpt lat="43.21894" lon="5.46696">
        <ele>513.4</ele>
        <time>2025-10-19T13:31:49Z</time>
      </trkpt>
      <trkpt lat="43.21895" lon="5.46695">
        <ele>513.5</ele>
        <time>2025-10-19T13:31:50Z</time>
      </trkpt>
      <trkpt lat="43.21896" lon="5.46695">
        <ele>513.4</ele>
        <time>2025-10-19T13:31:51Z</time>
      </trkpt>
      <trkpt lat="43.21897" lon="5.46695">
        <ele>513.5</ele>
        <time>2025-10-19T13:31:52Z</time>
      </trkpt>
      <trkpt lat="43.21898" lon="5.46695">
        <ele>513.5</ele>
        <time>2025-10-19T13:31:53Z</time>
      </trkpt>
      <trkpt lat="43.21899" lon="5.46694">
        <ele>513.4</ele>
        <time>2025-10-19T13:31:54Z</time>
      </trkpt>
      <trkpt lat="43.219" lon="5.46694">
        <ele>513.4</ele>
        <time>2025-10-19T13:31:55Z</time>
      </trkpt>
      <trkpt lat="43.21902" lon="5.46694">
        <ele>513.4</ele>
        <time>2025-10-19T13:31:56Z</time>
      </trkpt>
      <trkpt lat="43.21903" lon="5.46694">
        <ele>513.4</ele>
        <time>2025-10-19T13:31:57Z</time>
      </trkpt>
      <trkpt lat="43.21904" lon="5.46693">
        <ele>513.5</ele>
        <time>2025-10-19T13:31:58Z</time>
      </trkpt>
      <trkpt lat="43.21905" lon="5.46693">
        <ele>513.6</ele>
        <time>2025-10-19T13:31:59Z</time>
      </trkpt>
      <trkpt lat="43.21906" lon="5.46693">
        <ele>513.7</ele>
        <time>2025-10-19T13:32:00Z</time>
      </trkpt>
      <trkpt lat="43.21907" lon="5.46692">
        <ele>513.7</ele>
        <time>2025-10-19T13:32:01Z</time>
      </trkpt>
      <trkpt lat="43.21909" lon="5.46692">
        <ele>513.8</ele>
        <time>2025-10-19T13:32:02Z</time>
      </trkpt>
      <trkpt lat="43.2191" lon="5.46692">
        <ele>513.8</ele>
        <time>2025-10-19T13:32:03Z</time>
      </trkpt>
      <trkpt lat="43.21911" lon="5.46692">
        <ele>513.8</ele>
        <time>2025-10-19T13:32:04Z</time>
      </trkpt>
      <trkpt lat="43.21912" lon="5.46692">
        <ele>513.9</ele>
        <time>2025-10-19T13:32:05Z</time>
      </trkpt>
      <trkpt lat="43.21914" lon="5.46691">
        <ele>513.9</ele>
        <time>2025-10-19T13:32:06Z</time>
      </trkpt>
      <trkpt lat="43.21915" lon="5.46691">
        <ele>513.9</ele>
        <time>2025-10-19T13:32:07Z</time>
      </trkpt>
      <trkpt lat="43.21916" lon="5.46691">
        <ele>514</ele>
        <time>2025-10-19T13:32:08Z</time>
      </trkpt>
      <trkpt lat="43.21917" lon="5.46691">
        <ele>514.1</ele>
        <time>2025-10-19T13:32:09Z</time>
      </trkpt>
      <trkpt lat="43.21918" lon="5.4669">
        <ele>514.2</ele>
        <time>2025-10-19T13:32:10Z</time>
      </trkpt>
      <trkpt lat="43.21919" lon="5.4669">
        <ele>514.3</ele>
        <time>2025-10-19T13:32:11Z</time>
      </trkpt>
      <trkpt lat="43.2192" lon="5.4669">
        <ele>514.3</ele>
        <time>2025-10-19T13:32:12Z</time>
      </trkpt>
      <trkpt lat="43.21921" lon="5.4669">
        <ele>514.4</ele>
        <time>2025-10-19T13:32:13Z</time>
      </trkpt>
      <trkpt lat="43.21922" lon="5.4669">
        <ele>514.4</ele>
        <time>2025-10-19T13:32:14Z</time>
      </trkpt>
      <trkpt lat="43.21924" lon="5.4669">
        <ele>514.5</ele>
        <time>2025-10-19T13:32:15Z</time>
      </trkpt>
      <trkpt lat="43.21925" lon="5.4669">
        <ele>514.5</ele>
        <time>2025-10-19T13:32:16Z</time>
      </trkpt>
      <trkpt lat="43.21926" lon="5.46689">
        <ele>514.7</ele>
        <time>2025-10-19T13:32:17Z</time>
      </trkpt>
      <trkpt lat="43.21927" lon="5.46689">
        <ele>514.8</ele>
        <time>2025-10-19T13:32:18Z</time>
      </trkpt>
      <trkpt lat="43.21929" lon="5.46689">
        <ele>514.9</ele>
        <time>2025-10-19T13:32:19Z</time>
      </trkpt>
      <trkpt lat="43.2193" lon="5.46689">
        <ele>514.9</ele>
        <time>2025-10-19T13:32:20Z</time>
      </trkpt>
      <trkpt lat="43.21931" lon="5.46689">
        <ele>514.9</ele>
        <time>2025-10-19T13:32:21Z</time>
      </trkpt>
      <trkpt lat="43.21933" lon="5.46689">
        <ele>514.8</ele>
        <time>2025-10-19T13:32:22Z</time>
      </trkpt>
      <trkpt lat="43.21934" lon="5.46688">
        <ele>514.8</ele>
        <time>2025-10-19T13:32:23Z</time>
      </trkpt>
      <trkpt lat="43.21935" lon="5.46688">
        <ele>514.8</ele>
        <time>2025-10-19T13:32:24Z</time>
      </trkpt>
      <trkpt lat="43.21936" lon="5.46688">
        <ele>514.9</ele>
        <time>2025-10-19T13:32:25Z</time>
      </trkpt>
      <trkpt lat="43.21937" lon="5.46688">
        <ele>515</ele>
        <time>2025-10-19T13:32:26Z</time>
      </trkpt>
      <trkpt lat="43.21939" lon="5.46688">
        <ele>515</ele>
        <time>2025-10-19T13:32:27Z</time>
      </trkpt>
      <trkpt lat="43.2194" lon="5.46688">
        <ele>515.1</ele>
        <time>2025-10-19T13:32:28Z</time>
      </trkpt>
      <trkpt lat="43.21941" lon="5.46688">
        <ele>515.1</ele>
        <time>2025-10-19T13:32:29Z</time>
      </trkpt>
      <trkpt lat="43.21942" lon="5.46688">
        <ele>515</ele>
        <time>2025-10-19T13:32:30Z</time>
      </trkpt>
      <trkpt lat="43.21944" lon="5.46688">
        <ele>514.9</ele>
        <time>2025-10-19T13:32:31Z</time>
      </trkpt>
      <trkpt lat="43.21945" lon="5.46688">
        <ele>514.8</ele>
        <time>2025-10-19T13:32:32Z</time>
      </trkpt>
      <trkpt lat="43.21946" lon="5.46688">
        <ele>514.8</ele>
        <time>2025-10-19T13:32:33Z</time>
      </trkpt>
      <trkpt lat="43.21947" lon="5.46688">
        <ele>514.8</ele>
        <time>2025-10-19T13:32:34Z</time>
      </trkpt>
      <trkpt lat="43.21949" lon="5.46687">
        <ele>514.8</ele>
        <time>2025-10-19T13:32:35Z</time>
      </trkpt>
      <trkpt lat="43.2195" lon="5.46687">
        <ele>514.9</ele>
        <time>2025-10-19T13:32:36Z</time>
      </trkpt>
      <trkpt lat="43.21951" lon="5.46687">
        <ele>515</ele>
        <time>2025-10-19T13:32:37Z</time>
      </trkpt>
      <trkpt lat="43.21952" lon="5.46687">
        <ele>515.1</ele>
        <time>2025-10-19T13:32:38Z</time>
      </trkpt>
      <trkpt lat="43.21954" lon="5.46687">
        <ele>515.2</ele>
        <time>2025-10-19T13:32:39Z</time>
      </trkpt>
      <trkpt lat="43.21955" lon="5.46687">
        <ele>515.3</ele>
        <time>2025-10-19T13:32:40Z</time>
      </trkpt>
      <trkpt lat="43.21956" lon="5.46687">
        <ele>515.3</ele>
        <time>2025-10-19T13:32:41Z</time>
      </trkpt>
      <trkpt lat="43.21957" lon="5.46687">
        <ele>515.5</ele>
        <time>2025-10-19T13:32:42Z</time>
      </trkpt>
      <trkpt lat="43.21958" lon="5.46687">
        <ele>515.5</ele>
        <time>2025-10-19T13:32:43Z</time>
      </trkpt>
      <trkpt lat="43.2196" lon="5.46687">
        <ele>515.7</ele>
        <time>2025-10-19T13:32:44Z</time>
      </trkpt>
      <trkpt lat="43.21961" lon="5.46687">
        <ele>515.8</ele>
        <time>2025-10-19T13:32:45Z</time>
      </trkpt>
      <trkpt lat="43.21962" lon="5.46687">
        <ele>515.8</ele>
        <time>2025-10-19T13:32:46Z</time>
      </trkpt>
      <trkpt lat="43.21963" lon="5.46687">
        <ele>515.8</ele>
        <time>2025-10-19T13:32:47Z</time>
      </trkpt>
      <trkpt lat="43.21965" lon="5.46687">
        <ele>515.7</ele>
        <time>2025-10-19T13:32:48Z</time>
      </trkpt>
      <trkpt lat="43.21966" lon="5.46687">
        <ele>515.8</ele>
        <time>2025-10-19T13:32:49Z</time>
      </trkpt>
      <trkpt lat="43.21967" lon="5.46687">
        <ele>515.9</ele>
        <time>2025-10-19T13:32:50Z</time>
      </trkpt>
      <trkpt lat="43.21968" lon="5.46686">
        <ele>516</ele>
        <time>2025-10-19T13:32:51Z</time>
      </trkpt>
      <trkpt lat="43.2197" lon="5.46686">
        <ele>516</ele>
        <time>2025-10-19T13:32:52Z</time>
      </trkpt>
      <trkpt lat="43.21971" lon="5.46686">
        <ele>516.1</ele>
        <time>2025-10-19T13:32:53Z</time>
      </trkpt>
      <trkpt lat="43.21972" lon="5.46686">
        <ele>516.1</ele>
        <time>2025-10-19T13:32:54Z</time>
      </trkpt>
      <trkpt lat="43.21974" lon="5.46686">
        <ele>516.2</ele>
        <time>2025-10-19T13:32:55Z</time>
      </trkpt>
      <trkpt lat="43.21975" lon="5.46686">
        <ele>516.3</ele>
        <time>2025-10-19T13:32:56Z</time>
      </trkpt>
      <trkpt lat="43.21976" lon="5.46686">
        <ele>516.4</ele>
        <time>2025-10-19T13:32:57Z</time>
      </trkpt>
      <trkpt lat="43.21977" lon="5.46686">
        <ele>516.4</ele>
        <time>2025-10-19T13:32:58Z</time>
      </trkpt>
      <trkpt lat="43.21978" lon="5.46686">
        <ele>516.5</ele>
        <time>2025-10-19T13:32:59Z</time>
      </trkpt>
      <trkpt lat="43.21979" lon="5.46687">
        <ele>516.4</ele>
        <time>2025-10-19T13:33:00Z</time>
      </trkpt>
      <trkpt lat="43.21981" lon="5.46687">
        <ele>516.4</ele>
        <time>2025-10-19T13:33:01Z</time>
      </trkpt>
      <trkpt lat="43.21982" lon="5.46687">
        <ele>516.4</ele>
        <time>2025-10-19T13:33:02Z</time>
      </trkpt>
      <trkpt lat="43.21983" lon="5.46687">
        <ele>516.4</ele>
        <time>2025-10-19T13:33:03Z</time>
      </trkpt>
      <trkpt lat="43.21984" lon="5.46687">
        <ele>516.4</ele>
        <time>2025-10-19T13:33:04Z</time>
      </trkpt>
      <trkpt lat="43.21986" lon="5.46687">
        <ele>516.5</ele>
        <time>2025-10-19T13:33:05Z</time>
      </trkpt>
      <trkpt lat="43.21987" lon="5.46687">
        <ele>516.5</ele>
        <time>2025-10-19T13:33:06Z</time>
      </trkpt>
      <trkpt lat="43.21988" lon="5.46687">
        <ele>516.5</ele>
        <time>2025-10-19T13:33:07Z</time>
      </trkpt>
      <trkpt lat="43.2199" lon="5.46686">
        <ele>516.5</ele>
        <time>2025-10-19T13:33:08Z</time>
      </trkpt>
      <trkpt lat="43.21991" lon="5.46686">
        <ele>516.5</ele>
        <time>2025-10-19T13:33:09Z</time>
      </trkpt>
      <trkpt lat="43.21992" lon="5.46686">
        <ele>516.5</ele>
        <time>2025-10-19T13:33:10Z</time>
      </trkpt>
      <trkpt lat="43.21993" lon="5.46687">
        <ele>516.5</ele>
        <time>2025-10-19T13:33:11Z</time>
      </trkpt>
      <trkpt lat="43.21994" lon="5.46687">
        <ele>516.5</ele>
        <time>2025-10-19T13:33:12Z</time>
      </trkpt>
      <trkpt lat="43.21996" lon="5.46687">
        <ele>516.4</ele>
        <time>2025-10-19T13:33:13Z</time>
      </trkpt>
      <trkpt lat="43.21997" lon="5.46687">
        <ele>516.4</ele>
        <time>2025-10-19T13:33:14Z</time>
      </trkpt>
      <trkpt lat="43.21998" lon="5.46688">
        <ele>516.4</ele>
        <time>2025-10-19T13:33:15Z</time>
      </trkpt>
      <trkpt lat="43.21999" lon="5.46688">
        <ele>516.4</ele>
        <time>2025-10-19T13:33:16Z</time>
      </trkpt>
      <trkpt lat="43.22001" lon="5.46689">
        <ele>516.5</ele>
        <time>2025-10-19T13:33:17Z</time>
      </trkpt>
      <trkpt lat="43.22002" lon="5.46689">
        <ele>516.6</ele>
        <time>2025-10-19T13:33:18Z</time>
      </trkpt>
      <trkpt lat="43.22003" lon="5.4669">
        <ele>516.8</ele>
        <time>2025-10-19T13:33:19Z</time>
      </trkpt>
      <trkpt lat="43.22005" lon="5.46691">
        <ele>516.8</ele>
        <time>2025-10-19T13:33:20Z</time>
      </trkpt>
      <trkpt lat="43.22006" lon="5.46692">
        <ele>516.9</ele>
        <time>2025-10-19T13:33:21Z</time>
      </trkpt>
      <trkpt lat="43.22007" lon="5.46693">
        <ele>516.9</ele>
        <time>2025-10-19T13:33:22Z</time>
      </trkpt>
      <trkpt lat="43.22008" lon="5.46693">
        <ele>516.9</ele>
        <time>2025-10-19T13:33:23Z</time>
      </trkpt>
      <trkpt lat="43.22009" lon="5.46694">
        <ele>517</ele>
        <time>2025-10-19T13:33:24Z</time>
      </trkpt>
      <trkpt lat="43.22011" lon="5.46695">
        <ele>516.9</ele>
        <time>2025-10-19T13:33:25Z</time>
      </trkpt>
      <trkpt lat="43.22012" lon="5.46696">
        <ele>516.9</ele>
        <time>2025-10-19T13:33:26Z</time>
      </trkpt>
      <trkpt lat="43.22013" lon="5.46696">
        <ele>516.9</ele>
        <time>2025-10-19T13:33:27Z</time>
      </trkpt>
      <trkpt lat="43.22014" lon="5.46697">
        <ele>516.9</ele>
        <time>2025-10-19T13:33:28Z</time>
      </trkpt>
      <trkpt lat="43.22015" lon="5.46698">
        <ele>516.9</ele>
        <time>2025-10-19T13:33:29Z</time>
      </trkpt>
      <trkpt lat="43.22017" lon="5.46699">
        <ele>517</ele>
        <time>2025-10-19T13:33:30Z</time>
      </trkpt>
      <trkpt lat="43.22018" lon="5.467">
        <ele>517</ele>
        <time>2025-10-19T13:33:31Z</time>
      </trkpt>
      <trkpt lat="43.22019" lon="5.46701">
        <ele>517</ele>
        <time>2025-10-19T13:33:32Z</time>
      </trkpt>
      <trkpt lat="43.2202" lon="5.46702">
        <ele>517</ele>
        <time>2025-10-19T13:33:33Z</time>
      </trkpt>
      <trkpt lat="43.22021" lon="5.46703">
        <ele>517</ele>
        <time>2025-10-19T13:33:34Z</time>
      </trkpt>
      <trkpt lat="43.22022" lon="5.46704">
        <ele>516.9</ele>
        <time>2025-10-19T13:33:35Z</time>
      </trkpt>
      <trkpt lat="43.22023" lon="5.46704">
        <ele>517</ele>
        <time>2025-10-19T13:33:36Z</time>
      </trkpt>
      <trkpt lat="43.22024" lon="5.46705">
        <ele>517</ele>
        <time>2025-10-19T13:33:37Z</time>
      </trkpt>
      <trkpt lat="43.22025" lon="5.46707">
        <ele>517</ele>
        <time>2025-10-19T13:33:38Z</time>
      </trkpt>
      <trkpt lat="43.22026" lon="5.46708">
        <ele>517</ele>
        <time>2025-10-19T13:33:39Z</time>
      </trkpt>
      <trkpt lat="43.22027" lon="5.46709">
        <ele>517</ele>
        <time>2025-10-19T13:33:40Z</time>
      </trkpt>
      <trkpt lat="43.22028" lon="5.4671">
        <ele>517</ele>
        <time>2025-10-19T13:33:41Z</time>
      </trkpt>
      <trkpt lat="43.22029" lon="5.46711">
        <ele>517.1</ele>
        <time>2025-10-19T13:33:42Z</time>
      </trkpt>
      <trkpt lat="43.2203" lon="5.46712">
        <ele>517.1</ele>
        <time>2025-10-19T13:33:43Z</time>
      </trkpt>
      <trkpt lat="43.22031" lon="5.46713">
        <ele>517.1</ele>
        <time>2025-10-19T13:33:44Z</time>
      </trkpt>
      <trkpt lat="43.22032" lon="5.46714">
        <ele>517.1</ele>
        <time>2025-10-19T13:33:45Z</time>
      </trkpt>
      <trkpt lat="43.22033" lon="5.46715">
        <ele>517.1</ele>
        <time>2025-10-19T13:33:46Z</time>
      </trkpt>
      <trkpt lat="43.22033" lon="5.46716">
        <ele>517.1</ele>
        <time>2025-10-19T13:33:47Z</time>
      </trkpt>
      <trkpt lat="43.22035" lon="5.46717">
        <ele>517.1</ele>
        <time>2025-10-19T13:33:48Z</time>
      </trkpt>
      <trkpt lat="43.22036" lon="5.46718">
        <ele>517</ele>
        <time>2025-10-19T13:33:49Z</time>
      </trkpt>
      <trkpt lat="43.22037" lon="5.46719">
        <ele>517</ele>
        <time>2025-10-19T13:33:50Z</time>
      </trkpt>
      <trkpt lat="43.22038" lon="5.4672">
        <ele>517</ele>
        <time>2025-10-19T13:33:51Z</time>
      </trkpt>
      <trkpt lat="43.22038" lon="5.46721">
        <ele>516.9</ele>
        <time>2025-10-19T13:33:52Z</time>
      </trkpt>
      <trkpt lat="43.22039" lon="5.46722">
        <ele>516.8</ele>
        <time>2025-10-19T13:33:53Z</time>
      </trkpt>
      <trkpt lat="43.2204" lon="5.46723">
        <ele>516.7</ele>
        <time>2025-10-19T13:33:54Z</time>
      </trkpt>
      <trkpt lat="43.22041" lon="5.46725">
        <ele>516.6</ele>
        <time>2025-10-19T13:33:55Z</time>
      </trkpt>
      <trkpt lat="43.22042" lon="5.46726">
        <ele>516.6</ele>
        <time>2025-10-19T13:33:56Z</time>
      </trkpt>
      <trkpt lat="43.22042" lon="5.46727">
        <ele>516.5</ele>
        <time>2025-10-19T13:33:57Z</time>
      </trkpt>
      <trkpt lat="43.22043" lon="5.46728">
        <ele>516.5</ele>
        <time>2025-10-19T13:33:58Z</time>
      </trkpt>
      <trkpt lat="43.22044" lon="5.46729">
        <ele>516.5</ele>
        <time>2025-10-19T13:33:59Z</time>
      </trkpt>
      <trkpt lat="43.22045" lon="5.4673">
        <ele>516.5</ele>
        <time>2025-10-19T13:34:00Z</time>
      </trkpt>
      <trkpt lat="43.22046" lon="5.46731">
        <ele>516.4</ele>
        <time>2025-10-19T13:34:01Z</time>
      </trkpt>
      <trkpt lat="43.22046" lon="5.46732">
        <ele>516.3</ele>
        <time>2025-10-19T13:34:02Z</time>
      </trkpt>
      <trkpt lat="43.22047" lon="5.46733">
        <ele>516.2</ele>
        <time>2025-10-19T13:34:03Z</time>
      </trkpt>
      <trkpt lat="43.22048" lon="5.46735">
        <ele>516.2</ele>
        <time>2025-10-19T13:34:04Z</time>
      </trkpt>
      <trkpt lat="43.22049" lon="5.46736">
        <ele>516.1</ele>
        <time>2025-10-19T13:34:05Z</time>
      </trkpt>
      <trkpt lat="43.2205" lon="5.46737">
        <ele>516.1</ele>
        <time>2025-10-19T13:34:06Z</time>
      </trkpt>
      <trkpt lat="43.2205" lon="5.46738">
        <ele>516.1</ele>
        <time>2025-10-19T13:34:07Z</time>
      </trkpt>
      <trkpt lat="43.22051" lon="5.46739">
        <ele>516</ele>
        <time>2025-10-19T13:34:08Z</time>
      </trkpt>
      <trkpt lat="43.22052" lon="5.4674">
        <ele>515.9</ele>
        <time>2025-10-19T13:34:09Z</time>
      </trkpt>
      <trkpt lat="43.22052" lon="5.46741">
        <ele>515.9</ele>
        <time>2025-10-19T13:34:10Z</time>
      </trkpt>
      <trkpt lat="43.22053" lon="5.46742">
        <ele>515.8</ele>
        <time>2025-10-19T13:34:11Z</time>
      </trkpt>
      <trkpt lat="43.22054" lon="5.46744">
        <ele>515.5</ele>
        <time>2025-10-19T13:34:12Z</time>
      </trkpt>
      <trkpt lat="43.22055" lon="5.46745">
        <ele>515.4</ele>
        <time>2025-10-19T13:34:13Z</time>
      </trkpt>
      <trkpt lat="43.22055" lon="5.46746">
        <ele>515.3</ele>
        <time>2025-10-19T13:34:14Z</time>
      </trkpt>
      <trkpt lat="43.22056" lon="5.46747">
        <ele>515.1</ele>
        <time>2025-10-19T13:34:15Z</time>
      </trkpt>
      <trkpt lat="43.22057" lon="5.46748">
        <ele>515</ele>
        <time>2025-10-19T13:34:16Z</time>
      </trkpt>
      <trkpt lat="43.22058" lon="5.46749">
        <ele>514.9</ele>
        <time>2025-10-19T13:34:17Z</time>
      </trkpt>
      <trkpt lat="43.22058" lon="5.4675">
        <ele>514.9</ele>
        <time>2025-10-19T13:34:18Z</time>
      </trkpt>
      <trkpt lat="43.22059" lon="5.46751">
        <ele>514.8</ele>
        <time>2025-10-19T13:34:19Z</time>
      </trkpt>
      <trkpt lat="43.22059" lon="5.46752">
        <ele>514.7</ele>
        <time>2025-10-19T13:34:20Z</time>
      </trkpt>
      <trkpt lat="43.2206" lon="5.46754">
        <ele>514.6</ele>
        <time>2025-10-19T13:34:21Z</time>
      </trkpt>
      <trkpt lat="43.22061" lon="5.46755">
        <ele>514.4</ele>
        <time>2025-10-19T13:34:22Z</time>
      </trkpt>
      <trkpt lat="43.22061" lon="5.46757">
        <ele>514.3</ele>
        <time>2025-10-19T13:34:23Z</time>
      </trkpt>
      <trkpt lat="43.22062" lon="5.46758">
        <ele>514.1</ele>
        <time>2025-10-19T13:34:24Z</time>
      </trkpt>
      <trkpt lat="43.22062" lon="5.46759">
        <ele>514.1</ele>
        <time>2025-10-19T13:34:25Z</time>
      </trkpt>
      <trkpt lat="43.22063" lon="5.4676">
        <ele>514.1</ele>
        <time>2025-10-19T13:34:26Z</time>
      </trkpt>
      <trkpt lat="43.22064" lon="5.46761">
        <ele>514</ele>
        <time>2025-10-19T13:34:27Z</time>
      </trkpt>
      <trkpt lat="43.22065" lon="5.46762">
        <ele>514</ele>
        <time>2025-10-19T13:34:28Z</time>
      </trkpt>
      <trkpt lat="43.22065" lon="5.46764">
        <ele>514</ele>
        <time>2025-10-19T13:34:29Z</time>
      </trkpt>
      <trkpt lat="43.22066" lon="5.46765">
        <ele>514</ele>
        <time>2025-10-19T13:34:30Z</time>
      </trkpt>
      <trkpt lat="43.22066" lon="5.46766">
        <ele>513.9</ele>
        <time>2025-10-19T13:34:31Z</time>
      </trkpt>
      <trkpt lat="43.22067" lon="5.46767">
        <ele>513.8</ele>
        <time>2025-10-19T13:34:32Z</time>
      </trkpt>
      <trkpt lat="43.22067" lon="5.46769">
        <ele>513.6</ele>
        <time>2025-10-19T13:34:33Z</time>
      </trkpt>
      <trkpt lat="43.22068" lon="5.4677">
        <ele>513.5</ele>
        <time>2025-10-19T13:34:34Z</time>
      </trkpt>
      <trkpt lat="43.22068" lon="5.46771">
        <ele>513.3</ele>
        <time>2025-10-19T13:34:35Z</time>
      </trkpt>
      <trkpt lat="43.22069" lon="5.46772">
        <ele>513.3</ele>
        <time>2025-10-19T13:34:36Z</time>
      </trkpt>
      <trkpt lat="43.2207" lon="5.46773">
        <ele>513.2</ele>
        <time>2025-10-19T13:34:37Z</time>
      </trkpt>
      <trkpt lat="43.2207" lon="5.46774">
        <ele>513.2</ele>
        <time>2025-10-19T13:34:38Z</time>
      </trkpt>
      <trkpt lat="43.22071" lon="5.46775">
        <ele>512.9</ele>
        <time>2025-10-19T13:34:39Z</time>
      </trkpt>
      <trkpt lat="43.22071" lon="5.46777">
        <ele>512.9</ele>
        <time>2025-10-19T13:34:40Z</time>
      </trkpt>
      <trkpt lat="43.22072" lon="5.46778">
        <ele>512.7</ele>
        <time>2025-10-19T13:34:41Z</time>
      </trkpt>
      <trkpt lat="43.22073" lon="5.46779">
        <ele>512.6</ele>
        <time>2025-10-19T13:34:42Z</time>
      </trkpt>
      <trkpt lat="43.22073" lon="5.46781">
        <ele>512.4</ele>
        <time>2025-10-19T13:34:43Z</time>
      </trkpt>
      <trkpt lat="43.22074" lon="5.46782">
        <ele>512.2</ele>
        <time>2025-10-19T13:34:44Z</time>
      </trkpt>
      <trkpt lat="43.22074" lon="5.46783">
        <ele>512</ele>
        <time>2025-10-19T13:34:45Z</time>
      </trkpt>
      <trkpt lat="43.22075" lon="5.46784">
        <ele>511.8</ele>
        <time>2025-10-19T13:34:46Z</time>
      </trkpt>
      <trkpt lat="43.22075" lon="5.46786">
        <ele>511.6</ele>
        <time>2025-10-19T13:34:47Z</time>
      </trkpt>
      <trkpt lat="43.22076" lon="5.46787">
        <ele>511.4</ele>
        <time>2025-10-19T13:34:48Z</time>
      </trkpt>
      <trkpt lat="43.22076" lon="5.46788">
        <ele>511.3</ele>
        <time>2025-10-19T13:34:49Z</time>
      </trkpt>
      <trkpt lat="43.22077" lon="5.46789">
        <ele>511.2</ele>
        <time>2025-10-19T13:34:50Z</time>
      </trkpt>
      <trkpt lat="43.22077" lon="5.4679">
        <ele>511</ele>
        <time>2025-10-19T13:34:51Z</time>
      </trkpt>
      <trkpt lat="43.22078" lon="5.46792">
        <ele>510.9</ele>
        <time>2025-10-19T13:34:52Z</time>
      </trkpt>
      <trkpt lat="43.22078" lon="5.46793">
        <ele>510.8</ele>
        <time>2025-10-19T13:34:53Z</time>
      </trkpt>
      <trkpt lat="43.22078" lon="5.46794">
        <ele>510.7</ele>
        <time>2025-10-19T13:34:54Z</time>
      </trkpt>
      <trkpt lat="43.22079" lon="5.46795">
        <ele>510.4</ele>
        <time>2025-10-19T13:34:55Z</time>
      </trkpt>
      <trkpt lat="43.22079" lon="5.46797">
        <ele>510.2</ele>
        <time>2025-10-19T13:34:56Z</time>
      </trkpt>
      <trkpt lat="43.22079" lon="5.46798">
        <ele>510.1</ele>
        <time>2025-10-19T13:34:57Z</time>
      </trkpt>
      <trkpt lat="43.2208" lon="5.46799">
        <ele>510</ele>
        <time>2025-10-19T13:34:58Z</time>
      </trkpt>
      <trkpt lat="43.2208" lon="5.468">
        <ele>509.9</ele>
        <time>2025-10-19T13:34:59Z</time>
      </trkpt>
      <trkpt lat="43.22081" lon="5.46801">
        <ele>509.8</ele>
        <time>2025-10-19T13:35:00Z</time>
      </trkpt>
      <trkpt lat="43.22081" lon="5.46802">
        <ele>509.6</ele>
        <time>2025-10-19T13:35:01Z</time>
      </trkpt>
      <trkpt lat="43.22081" lon="5.46804">
        <ele>509.5</ele>
        <time>2025-10-19T13:35:02Z</time>
      </trkpt>
      <trkpt lat="43.22081" lon="5.46805">
        <ele>509.3</ele>
        <time>2025-10-19T13:35:03Z</time>
      </trkpt>
      <trkpt lat="43.22082" lon="5.46806">
        <ele>509.2</ele>
        <time>2025-10-19T13:35:04Z</time>
      </trkpt>
      <trkpt lat="43.22082" lon="5.46808">
        <ele>509.1</ele>
        <time>2025-10-19T13:35:05Z</time>
      </trkpt>
      <trkpt lat="43.22082" lon="5.46809">
        <ele>509.1</ele>
        <time>2025-10-19T13:35:06Z</time>
      </trkpt>
      <trkpt lat="43.22082" lon="5.4681">
        <ele>509</ele>
        <time>2025-10-19T13:35:07Z</time>
      </trkpt>
      <trkpt lat="43.22082" lon="5.46811">
        <ele>508.9</ele>
        <time>2025-10-19T13:35:08Z</time>
      </trkpt>
      <trkpt lat="43.22083" lon="5.46812">
        <ele>508.8</ele>
        <time>2025-10-19T13:35:09Z</time>
      </trkpt>
      <trkpt lat="43.22083" lon="5.46814">
        <ele>508.7</ele>
        <time>2025-10-19T13:35:10Z</time>
      </trkpt>
      <trkpt lat="43.22083" lon="5.46815">
        <ele>508.5</ele>
        <time>2025-10-19T13:35:11Z</time>
      </trkpt>
      <trkpt lat="43.22084" lon="5.46816">
        <ele>508.4</ele>
        <time>2025-10-19T13:35:12Z</time>
      </trkpt>
      <trkpt lat="43.22084" lon="5.46817">
        <ele>508.2</ele>
        <time>2025-10-19T13:35:13Z</time>
      </trkpt>
      <trkpt lat="43.22085" lon="5.46818">
        <ele>508.4</ele>
        <time>2025-10-19T13:35:14Z</time>
      </trkpt>
      <trkpt lat="43.22085" lon="5.46819">
        <ele>508.3</ele>
        <time>2025-10-19T13:35:15Z</time>
      </trkpt>
      <trkpt lat="43.22085" lon="5.46821">
        <ele>508.2</ele>
        <time>2025-10-19T13:35:16Z</time>
      </trkpt>
      <trkpt lat="43.22086" lon="5.46822">
        <ele>507.9</ele>
        <time>2025-10-19T13:35:17Z</time>
      </trkpt>
      <trkpt lat="43.22086" lon="5.46823">
        <ele>507.7</ele>
        <time>2025-10-19T13:35:18Z</time>
      </trkpt>
      <trkpt lat="43.22086" lon="5.46824">
        <ele>507.6</ele>
        <time>2025-10-19T13:35:19Z</time>
      </trkpt>
      <trkpt lat="43.22086" lon="5.46825">
        <ele>507.4</ele>
        <time>2025-10-19T13:35:20Z</time>
      </trkpt>
      <trkpt lat="43.22086" lon="5.46827">
        <ele>507.1</ele>
        <time>2025-10-19T13:35:21Z</time>
      </trkpt>
      <trkpt lat="43.22086" lon="5.46828">
        <ele>506.8</ele>
        <time>2025-10-19T13:35:22Z</time>
      </trkpt>
      <trkpt lat="43.22086" lon="5.46829">
        <ele>506.5</ele>
        <time>2025-10-19T13:35:23Z</time>
      </trkpt>
      <trkpt lat="43.22087" lon="5.4683">
        <ele>506.3</ele>
        <time>2025-10-19T13:35:24Z</time>
      </trkpt>
      <trkpt lat="43.22087" lon="5.46832">
        <ele>505.9</ele>
        <time>2025-10-19T13:35:25Z</time>
      </trkpt>
      <trkpt lat="43.22087" lon="5.46833">
        <ele>505.6</ele>
        <time>2025-10-19T13:35:26Z</time>
      </trkpt>
      <trkpt lat="43.22087" lon="5.46834">
        <ele>505.3</ele>
        <time>2025-10-19T13:35:27Z</time>
      </trkpt>
      <trkpt lat="43.22087" lon="5.46835">
        <ele>505.1</ele>
        <time>2025-10-19T13:35:28Z</time>
      </trkpt>
      <trkpt lat="43.22088" lon="5.46837">
        <ele>505</ele>
        <time>2025-10-19T13:35:29Z</time>
      </trkpt>
      <trkpt lat="43.22088" lon="5.46838">
        <ele>504.7</ele>
        <time>2025-10-19T13:35:30Z</time>
      </trkpt>
      <trkpt lat="43.22088" lon="5.46839">
        <ele>504.5</ele>
        <time>2025-10-19T13:35:31Z</time>
      </trkpt>
      <trkpt lat="43.22089" lon="5.46841">
        <ele>504.5</ele>
        <time>2025-10-19T13:35:32Z</time>
      </trkpt>
      <trkpt lat="43.22089" lon="5.46842">
        <ele>504.3</ele>
        <time>2025-10-19T13:35:33Z</time>
      </trkpt>
      <trkpt lat="43.22089" lon="5.46843">
        <ele>504.2</ele>
        <time>2025-10-19T13:35:34Z</time>
      </trkpt>
      <trkpt lat="43.22089" lon="5.46844">
        <ele>504.1</ele>
        <time>2025-10-19T13:35:35Z</time>
      </trkpt>
      <trkpt lat="43.2209" lon="5.46845">
        <ele>503.7</ele>
        <time>2025-10-19T13:35:36Z</time>
      </trkpt>
      <trkpt lat="43.2209" lon="5.46846">
        <ele>503.3</ele>
        <time>2025-10-19T13:35:37Z</time>
      </trkpt>
      <trkpt lat="43.2209" lon="5.46847">
        <ele>502.9</ele>
        <time>2025-10-19T13:35:38Z</time>
      </trkpt>
      <trkpt lat="43.22091" lon="5.46848">
        <ele>502.5</ele>
        <time>2025-10-19T13:35:39Z</time>
      </trkpt>
      <trkpt lat="43.22091" lon="5.46849">
        <ele>502.3</ele>
        <time>2025-10-19T13:35:40Z</time>
      </trkpt>
      <trkpt lat="43.22092" lon="5.46851">
        <ele>502.2</ele>
        <time>2025-10-19T13:35:41Z</time>
      </trkpt>
      <trkpt lat="43.22092" lon="5.46852">
        <ele>502</ele>
        <time>2025-10-19T13:35:42Z</time>
      </trkpt>
      <trkpt lat="43.22092" lon="5.46853">
        <ele>501.9</ele>
        <time>2025-10-19T13:35:43Z</time>
      </trkpt>
      <trkpt lat="43.22093" lon="5.46853">
        <ele>501.6</ele>
        <time>2025-10-19T13:35:44Z</time>
      </trkpt>
      <trkpt lat="43.22093" lon="5.46854">
        <ele>501.3</ele>
        <time>2025-10-19T13:35:45Z</time>
      </trkpt>
      <trkpt lat="43.22093" lon="5.46856">
        <ele>501</ele>
        <time>2025-10-19T13:35:46Z</time>
      </trkpt>
      <trkpt lat="43.22093" lon="5.46857">
        <ele>500.8</ele>
        <time>2025-10-19T13:35:47Z</time>
      </trkpt>
      <trkpt lat="43.22093" lon="5.46859">
        <ele>500.5</ele>
        <time>2025-10-19T13:35:48Z</time>
      </trkpt>
      <trkpt lat="43.22094" lon="5.4686">
        <ele>500.3</ele>
        <time>2025-10-19T13:35:49Z</time>
      </trkpt>
      <trkpt lat="43.22094" lon="5.46861">
        <ele>500</ele>
        <time>2025-10-19T13:35:50Z</time>
      </trkpt>
      <trkpt lat="43.22094" lon="5.46863">
        <ele>499.8</ele>
        <time>2025-10-19T13:35:51Z</time>
      </trkpt>
      <trkpt lat="43.22094" lon="5.46864">
        <ele>499.5</ele>
        <time>2025-10-19T13:35:52Z</time>
      </trkpt>
      <trkpt lat="43.22094" lon="5.46865">
        <ele>499.2</ele>
        <time>2025-10-19T13:35:53Z</time>
      </trkpt>
      <trkpt lat="43.22094" lon="5.46866">
        <ele>499</ele>
        <time>2025-10-19T13:35:54Z</time>
      </trkpt>
      <trkpt lat="43.22094" lon="5.46868">
        <ele>498.8</ele>
        <time>2025-10-19T13:35:55Z</time>
      </trkpt>
      <trkpt lat="43.22094" lon="5.46869">
        <ele>498.5</ele>
        <time>2025-10-19T13:35:56Z</time>
      </trkpt>
      <trkpt lat="43.22094" lon="5.4687">
        <ele>498.3</ele>
        <time>2025-10-19T13:35:57Z</time>
      </trkpt>
      <trkpt lat="43.22094" lon="5.46871">
        <ele>498.1</ele>
        <time>2025-10-19T13:35:58Z</time>
      </trkpt>
      <trkpt lat="43.22094" lon="5.46872">
        <ele>497.9</ele>
        <time>2025-10-19T13:35:59Z</time>
      </trkpt>
      <trkpt lat="43.22095" lon="5.46874">
        <ele>497.7</ele>
        <time>2025-10-19T13:36:00Z</time>
      </trkpt>
      <trkpt lat="43.22095" lon="5.46875">
        <ele>497.6</ele>
        <time>2025-10-19T13:36:01Z</time>
      </trkpt>
      <trkpt lat="43.22095" lon="5.46877">
        <ele>497.4</ele>
        <time>2025-10-19T13:36:02Z</time>
      </trkpt>
      <trkpt lat="43.22095" lon="5.46878">
        <ele>497.2</ele>
        <time>2025-10-19T13:36:03Z</time>
      </trkpt>
      <trkpt lat="43.22095" lon="5.46878">
        <ele>497</ele>
        <time>2025-10-19T13:36:04Z</time>
      </trkpt>
      <trkpt lat="43.22095" lon="5.46879">
        <ele>496.9</ele>
        <time>2025-10-19T13:36:05Z</time>
      </trkpt>
      <trkpt lat="43.22096" lon="5.46881">
        <ele>496.8</ele>
        <time>2025-10-19T13:36:06Z</time>
      </trkpt>
      <trkpt lat="43.22096" lon="5.46882">
        <ele>496.6</ele>
        <time>2025-10-19T13:36:07Z</time>
      </trkpt>
      <trkpt lat="43.22097" lon="5.46883">
        <ele>496.4</ele>
        <time>2025-10-19T13:36:08Z</time>
      </trkpt>
      <trkpt lat="43.22098" lon="5.46884">
        <ele>496.3</ele>
        <time>2025-10-19T13:36:09Z</time>
      </trkpt>
      <trkpt lat="43.22098" lon="5.46885">
        <ele>496.2</ele>
        <time>2025-10-19T13:36:10Z</time>
      </trkpt>
      <trkpt lat="43.22098" lon="5.46887">
        <ele>496</ele>
        <time>2025-10-19T13:36:11Z</time>
      </trkpt>
      <trkpt lat="43.22099" lon="5.46888">
        <ele>495.9</ele>
        <time>2025-10-19T13:36:12Z</time>
      </trkpt>
      <trkpt lat="43.22099" lon="5.46889">
        <ele>495.8</ele>
        <time>2025-10-19T13:36:13Z</time>
      </trkpt>
      <trkpt lat="43.22099" lon="5.4689">
        <ele>495.7</ele>
        <time>2025-10-19T13:36:14Z</time>
      </trkpt>
      <trkpt lat="43.221" lon="5.46891">
        <ele>495.5</ele>
        <time>2025-10-19T13:36:15Z</time>
      </trkpt>
      <trkpt lat="43.221" lon="5.46893">
        <ele>495.3</ele>
        <time>2025-10-19T13:36:16Z</time>
      </trkpt>
      <trkpt lat="43.221" lon="5.46894">
        <ele>495.2</ele>
        <time>2025-10-19T13:36:17Z</time>
      </trkpt>
      <trkpt lat="43.221" lon="5.46895">
        <ele>495.1</ele>
        <time>2025-10-19T13:36:18Z</time>
      </trkpt>
      <trkpt lat="43.221" lon="5.46897">
        <ele>495</ele>
        <time>2025-10-19T13:36:19Z</time>
      </trkpt>
      <trkpt lat="43.22101" lon="5.46898">
        <ele>494.9</ele>
        <time>2025-10-19T13:36:20Z</time>
      </trkpt>
      <trkpt lat="43.22101" lon="5.46899">
        <ele>494.9</ele>
        <time>2025-10-19T13:36:21Z</time>
      </trkpt>
      <trkpt lat="43.22101" lon="5.46901">
        <ele>494.7</ele>
        <time>2025-10-19T13:36:22Z</time>
      </trkpt>
      <trkpt lat="43.22101" lon="5.46902">
        <ele>494.4</ele>
        <time>2025-10-19T13:36:23Z</time>
      </trkpt>
      <trkpt lat="43.22101" lon="5.46902">
        <ele>494.2</ele>
        <time>2025-10-19T13:36:24Z</time>
      </trkpt>
      <trkpt lat="43.221" lon="5.46902">
        <ele>493.9</ele>
        <time>2025-10-19T13:36:25Z</time>
      </trkpt>
      <trkpt lat="43.22101" lon="5.46903">
        <ele>493.8</ele>
        <time>2025-10-19T13:36:26Z</time>
      </trkpt>
      <trkpt lat="43.22101" lon="5.46904">
        <ele>493.6</ele>
        <time>2025-10-19T13:36:27Z</time>
      </trkpt>
      <trkpt lat="43.22101" lon="5.46905">
        <ele>493.5</ele>
        <time>2025-10-19T13:36:28Z</time>
      </trkpt>
      <trkpt lat="43.22101" lon="5.46907">
        <ele>493.5</ele>
        <time>2025-10-19T13:36:29Z</time>
      </trkpt>
      <trkpt lat="43.22101" lon="5.46908">
        <ele>493.4</ele>
        <time>2025-10-19T13:36:30Z</time>
      </trkpt>
      <trkpt lat="43.22102" lon="5.46909">
        <ele>493.2</ele>
        <time>2025-10-19T13:36:31Z</time>
      </trkpt>
      <trkpt lat="43.22102" lon="5.4691">
        <ele>493</ele>
        <time>2025-10-19T13:36:32Z</time>
      </trkpt>
      <trkpt lat="43.22102" lon="5.46912">
        <ele>492.9</ele>
        <time>2025-10-19T13:36:33Z</time>
      </trkpt>
      <trkpt lat="43.22102" lon="5.46913">
        <ele>492.7</ele>
        <time>2025-10-19T13:36:34Z</time>
      </trkpt>
      <trkpt lat="43.22103" lon="5.46914">
        <ele>492.6</ele>
        <time>2025-10-19T13:36:35Z</time>
      </trkpt>
      <trkpt lat="43.22103" lon="5.46915">
        <ele>492.4</ele>
        <time>2025-10-19T13:36:36Z</time>
      </trkpt>
      <trkpt lat="43.22103" lon="5.46917">
        <ele>492.3</ele>
        <time>2025-10-19T13:36:37Z</time>
      </trkpt>
      <trkpt lat="43.22103" lon="5.46918">
        <ele>491.9</ele>
        <time>2025-10-19T13:36:38Z</time>
      </trkpt>
      <trkpt lat="43.22104" lon="5.46919">
        <ele>491.7</ele>
        <time>2025-10-19T13:36:39Z</time>
      </trkpt>
      <trkpt lat="43.22104" lon="5.4692">
        <ele>491.5</ele>
        <time>2025-10-19T13:36:40Z</time>
      </trkpt>
      <trkpt lat="43.22104" lon="5.46922">
        <ele>491.3</ele>
        <time>2025-10-19T13:36:41Z</time>
      </trkpt>
      <trkpt lat="43.22104" lon="5.46923">
        <ele>491.2</ele>
        <time>2025-10-19T13:36:42Z</time>
      </trkpt>
      <trkpt lat="43.22104" lon="5.46925">
        <ele>491.1</ele>
        <time>2025-10-19T13:36:43Z</time>
      </trkpt>
      <trkpt lat="43.22105" lon="5.46926">
        <ele>490.9</ele>
        <time>2025-10-19T13:36:44Z</time>
      </trkpt>
      <trkpt lat="43.22105" lon="5.46928">
        <ele>490.7</ele>
        <time>2025-10-19T13:36:45Z</time>
      </trkpt>
      <trkpt lat="43.22105" lon="5.46929">
        <ele>490.6</ele>
        <time>2025-10-19T13:36:46Z</time>
      </trkpt>
      <trkpt lat="43.22106" lon="5.4693">
        <ele>490.5</ele>
        <time>2025-10-19T13:36:47Z</time>
      </trkpt>
      <trkpt lat="43.22106" lon="5.46931">
        <ele>490.4</ele>
        <time>2025-10-19T13:36:48Z</time>
      </trkpt>
      <trkpt lat="43.22107" lon="5.46932">
        <ele>490.4</ele>
        <time>2025-10-19T13:36:49Z</time>
      </trkpt>
      <trkpt lat="43.22107" lon="5.46934">
        <ele>490.3</ele>
        <time>2025-10-19T13:36:50Z</time>
      </trkpt>
      <trkpt lat="43.22107" lon="5.46935">
        <ele>490.3</ele>
        <time>2025-10-19T13:36:51Z</time>
      </trkpt>
      <trkpt lat="43.22107" lon="5.46936">
        <ele>490.2</ele>
        <time>2025-10-19T13:36:52Z</time>
      </trkpt>
      <trkpt lat="43.22108" lon="5.46937">
        <ele>490</ele>
        <time>2025-10-19T13:36:53Z</time>
      </trkpt>
      <trkpt lat="43.22108" lon="5.46939">
        <ele>489.7</ele>
        <time>2025-10-19T13:36:54Z</time>
      </trkpt>
      <trkpt lat="43.22108" lon="5.4694">
        <ele>489.5</ele>
        <time>2025-10-19T13:36:55Z</time>
      </trkpt>
      <trkpt lat="43.22109" lon="5.46941">
        <ele>489.2</ele>
        <time>2025-10-19T13:36:56Z</time>
      </trkpt>
      <trkpt lat="43.22109" lon="5.46943">
        <ele>489.2</ele>
        <time>2025-10-19T13:36:57Z</time>
      </trkpt>
      <trkpt lat="43.22109" lon="5.46944">
        <ele>489.1</ele>
        <time>2025-10-19T13:36:58Z</time>
      </trkpt>
      <trkpt lat="43.2211" lon="5.46946">
        <ele>488.9</ele>
        <time>2025-10-19T13:36:59Z</time>
      </trkpt>
      <trkpt lat="43.2211" lon="5.46947">
        <ele>488.6</ele>
        <time>2025-10-19T13:37:00Z</time>
      </trkpt>
      <trkpt lat="43.2211" lon="5.46948">
        <ele>488.5</ele>
        <time>2025-10-19T13:37:01Z</time>
      </trkpt>
      <trkpt lat="43.22111" lon="5.4695">
        <ele>488.3</ele>
        <time>2025-10-19T13:37:02Z</time>
      </trkpt>
      <trkpt lat="43.22111" lon="5.46951">
        <ele>488.2</ele>
        <time>2025-10-19T13:37:03Z</time>
      </trkpt>
      <trkpt lat="43.22111" lon="5.46952">
        <ele>487.9</ele>
        <time>2025-10-19T13:37:04Z</time>
      </trkpt>
      <trkpt lat="43.22112" lon="5.46953">
        <ele>487.6</ele>
        <time>2025-10-19T13:37:05Z</time>
      </trkpt>
      <trkpt lat="43.22112" lon="5.46955">
        <ele>487.5</ele>
        <time>2025-10-19T13:37:06Z</time>
      </trkpt>
      <trkpt lat="43.22112" lon="5.46956">
        <ele>487.3</ele>
        <time>2025-10-19T13:37:07Z</time>
      </trkpt>
      <trkpt lat="43.22113" lon="5.46957">
        <ele>487</ele>
        <time>2025-10-19T13:37:08Z</time>
      </trkpt>
      <trkpt lat="43.22113" lon="5.46959">
        <ele>486.9</ele>
        <time>2025-10-19T13:37:09Z</time>
      </trkpt>
      <trkpt lat="43.22113" lon="5.4696">
        <ele>486.7</ele>
        <time>2025-10-19T13:37:10Z</time>
      </trkpt>
      <trkpt lat="43.22113" lon="5.46961">
        <ele>486.6</ele>
        <time>2025-10-19T13:37:11Z</time>
      </trkpt>
      <trkpt lat="43.22114" lon="5.46962">
        <ele>486.5</ele>
        <time>2025-10-19T13:37:12Z</time>
      </trkpt>
      <trkpt lat="43.22114" lon="5.46963">
        <ele>486.4</ele>
        <time>2025-10-19T13:37:13Z</time>
      </trkpt>
      <trkpt lat="43.22115" lon="5.46964">
        <ele>486.3</ele>
        <time>2025-10-19T13:37:14Z</time>
      </trkpt>
      <trkpt lat="43.22115" lon="5.46965">
        <ele>486.2</ele>
        <time>2025-10-19T13:37:15Z</time>
      </trkpt>
      <trkpt lat="43.22116" lon="5.46966">
        <ele>486</ele>
        <time>2025-10-19T13:37:16Z</time>
      </trkpt>
      <trkpt lat="43.22116" lon="5.46966">
        <ele>485.9</ele>
        <time>2025-10-19T13:37:17Z</time>
      </trkpt>
      <trkpt lat="43.22117" lon="5.46967">
        <ele>485.8</ele>
        <time>2025-10-19T13:37:18Z</time>
      </trkpt>
      <trkpt lat="43.22117" lon="5.46968">
        <ele>485.6</ele>
        <time>2025-10-19T13:37:19Z</time>
      </trkpt>
      <trkpt lat="43.22117" lon="5.46969">
        <ele>485.4</ele>
        <time>2025-10-19T13:37:20Z</time>
      </trkpt>
      <trkpt lat="43.22117" lon="5.46969">
        <ele>485.3</ele>
        <time>2025-10-19T13:37:21Z</time>
      </trkpt>
      <trkpt lat="43.22118" lon="5.4697">
        <ele>485.2</ele>
        <time>2025-10-19T13:37:22Z</time>
      </trkpt>
      <trkpt lat="43.22118" lon="5.46971">
        <ele>485.1</ele>
        <time>2025-10-19T13:37:23Z</time>
      </trkpt>
      <trkpt lat="43.22118" lon="5.46972">
        <ele>485</ele>
        <time>2025-10-19T13:37:24Z</time>
      </trkpt>
      <trkpt lat="43.22118" lon="5.46972">
        <ele>484.6</ele>
        <time>2025-10-19T13:37:25Z</time>
      </trkpt>
      <trkpt lat="43.22118" lon="5.46972">
        <ele>484.3</ele>
        <time>2025-10-19T13:37:26Z</time>
      </trkpt>
      <trkpt lat="43.22118" lon="5.46972">
        <ele>484.1</ele>
        <time>2025-10-19T13:37:27Z</time>
      </trkpt>
      <trkpt lat="43.22119" lon="5.46973">
        <ele>484.1</ele>
        <time>2025-10-19T13:37:28Z</time>
      </trkpt>
      <trkpt lat="43.22118" lon="5.46974">
        <ele>484</ele>
        <time>2025-10-19T13:37:29Z</time>
      </trkpt>
      <trkpt lat="43.22119" lon="5.46975">
        <ele>484</ele>
        <time>2025-10-19T13:37:30Z</time>
      </trkpt>
      <trkpt lat="43.22119" lon="5.46976">
        <ele>483.9</ele>
        <time>2025-10-19T13:37:31Z</time>
      </trkpt>
      <trkpt lat="43.2212" lon="5.46977">
        <ele>483.9</ele>
        <time>2025-10-19T13:37:32Z</time>
      </trkpt>
      <trkpt lat="43.2212" lon="5.46978">
        <ele>483.8</ele>
        <time>2025-10-19T13:37:33Z</time>
      </trkpt>
      <trkpt lat="43.22121" lon="5.46979">
        <ele>483.7</ele>
        <time>2025-10-19T13:37:34Z</time>
      </trkpt>
      <trkpt lat="43.22121" lon="5.4698">
        <ele>483.8</ele>
        <time>2025-10-19T13:37:35Z</time>
      </trkpt>
      <trkpt lat="43.22122" lon="5.46981">
        <ele>483.7</ele>
        <time>2025-10-19T13:37:36Z</time>
      </trkpt>
      <trkpt lat="43.22123" lon="5.46982">
        <ele>483.6</ele>
        <time>2025-10-19T13:37:37Z</time>
      </trkpt>
      <trkpt lat="43.22123" lon="5.46983">
        <ele>483.4</ele>
        <time>2025-10-19T13:37:38Z</time>
      </trkpt>
      <trkpt lat="43.22124" lon="5.46985">
        <ele>483.2</ele>
        <time>2025-10-19T13:37:39Z</time>
      </trkpt>
      <trkpt lat="43.22125" lon="5.46985">
        <ele>483</ele>
        <time>2025-10-19T13:37:40Z</time>
      </trkpt>
      <trkpt lat="43.22125" lon="5.46986">
        <ele>482.8</ele>
        <time>2025-10-19T13:37:41Z</time>
      </trkpt>
      <trkpt lat="43.22125" lon="5.46987">
        <ele>482.6</ele>
        <time>2025-10-19T13:37:42Z</time>
      </trkpt>
      <trkpt lat="43.22126" lon="5.46988">
        <ele>482.4</ele>
        <time>2025-10-19T13:37:43Z</time>
      </trkpt>
      <trkpt lat="43.22127" lon="5.46989">
        <ele>482.2</ele>
        <time>2025-10-19T13:37:44Z</time>
      </trkpt>
      <trkpt lat="43.22127" lon="5.4699">
        <ele>482.2</ele>
        <time>2025-10-19T13:37:45Z</time>
      </trkpt>
      <trkpt lat="43.22128" lon="5.46991">
        <ele>481.9</ele>
        <time>2025-10-19T13:37:46Z</time>
      </trkpt>
      <trkpt lat="43.22129" lon="5.46991">
        <ele>481.6</ele>
        <time>2025-10-19T13:37:47Z</time>
      </trkpt>
      <trkpt lat="43.22129" lon="5.46992">
        <ele>481.7</ele>
        <time>2025-10-19T13:37:48Z</time>
      </trkpt>
      <trkpt lat="43.2213" lon="5.46994">
        <ele>481.8</ele>
        <time>2025-10-19T13:37:49Z</time>
      </trkpt>
      <trkpt lat="43.22131" lon="5.46996">
        <ele>481.8</ele>
        <time>2025-10-19T13:37:50Z</time>
      </trkpt>
      <trkpt lat="43.22132" lon="5.46998">
        <ele>481.6</ele>
        <time>2025-10-19T13:37:51Z</time>
      </trkpt>
      <trkpt lat="43.22134" lon="5.47">
        <ele>481.7</ele>
        <time>2025-10-19T13:37:52Z</time>
      </trkpt>
      <trkpt lat="43.22134" lon="5.47001">
        <ele>481.1</ele>
        <time>2025-10-19T13:37:53Z</time>
      </trkpt>
      <trkpt lat="43.22134" lon="5.47001">
        <ele>481</ele>
        <time>2025-10-19T13:37:54Z</time>
      </trkpt>
      <trkpt lat="43.22134" lon="5.47001">
        <ele>481.2</ele>
        <time>2025-10-19T13:37:55Z</time>
      </trkpt>
      <trkpt lat="43.22134" lon="5.47001">
        <ele>481.3</ele>
        <time>2025-10-19T13:37:56Z</time>
      </trkpt>
      <trkpt lat="43.22134" lon="5.47001">
        <ele>481.2</ele>
        <time>2025-10-19T13:37:57Z</time>
      </trkpt>
      <trkpt lat="43.22134" lon="5.47001">
        <ele>481.2</ele>
        <time>2025-10-19T13:37:58Z</time>
      </trkpt>
      <trkpt lat="43.22134" lon="5.47002">
        <ele>481.2</ele>
        <time>2025-10-19T13:37:59Z</time>
      </trkpt>
      <trkpt lat="43.22134" lon="5.47002">
        <ele>481</ele>
        <time>2025-10-19T13:38:00Z</time>
      </trkpt>
      <trkpt lat="43.22135" lon="5.47003">
        <ele>480.8</ele>
        <time>2025-10-19T13:38:01Z</time>
      </trkpt>
      <trkpt lat="43.22135" lon="5.47003">
        <ele>480.7</ele>
        <time>2025-10-19T13:38:02Z</time>
      </trkpt>
      <trkpt lat="43.22136" lon="5.47004">
        <ele>480.6</ele>
        <time>2025-10-19T13:38:03Z</time>
      </trkpt>
      <trkpt lat="43.22136" lon="5.47005">
        <ele>480.4</ele>
        <time>2025-10-19T13:38:04Z</time>
      </trkpt>
      <trkpt lat="43.22137" lon="5.47006">
        <ele>480.3</ele>
        <time>2025-10-19T13:38:05Z</time>
      </trkpt>
      <trkpt lat="43.22138" lon="5.47007">
        <ele>480.2</ele>
        <time>2025-10-19T13:38:06Z</time>
      </trkpt>
      <trkpt lat="43.22139" lon="5.47008">
        <ele>480.2</ele>
        <time>2025-10-19T13:38:07Z</time>
      </trkpt>
      <trkpt lat="43.22139" lon="5.47008">
        <ele>480</ele>
        <time>2025-10-19T13:38:08Z</time>
      </trkpt>
      <trkpt lat="43.2214" lon="5.47009">
        <ele>479.8</ele>
        <time>2025-10-19T13:38:09Z</time>
      </trkpt>
      <trkpt lat="43.2214" lon="5.4701">
        <ele>479.7</ele>
        <time>2025-10-19T13:38:10Z</time>
      </trkpt>
      <trkpt lat="43.22141" lon="5.47011">
        <ele>479.5</ele>
        <time>2025-10-19T13:38:11Z</time>
      </trkpt>
      <trkpt lat="43.22142" lon="5.47012">
        <ele>479.4</ele>
        <time>2025-10-19T13:38:12Z</time>
      </trkpt>
      <trkpt lat="43.22142" lon="5.47013">
        <ele>479.2</ele>
        <time>2025-10-19T13:38:13Z</time>
      </trkpt>
      <trkpt lat="43.22143" lon="5.47014">
        <ele>479.1</ele>
        <time>2025-10-19T13:38:14Z</time>
      </trkpt>
      <trkpt lat="43.22144" lon="5.47014">
        <ele>479</ele>
        <time>2025-10-19T13:38:15Z</time>
      </trkpt>
      <trkpt lat="43.22144" lon="5.47015">
        <ele>478.8</ele>
        <time>2025-10-19T13:38:16Z</time>
      </trkpt>
      <trkpt lat="43.22145" lon="5.47016">
        <ele>478.7</ele>
        <time>2025-10-19T13:38:17Z</time>
      </trkpt>
      <trkpt lat="43.22146" lon="5.47017">
        <ele>478.6</ele>
        <time>2025-10-19T13:38:18Z</time>
      </trkpt>
      <trkpt lat="43.22146" lon="5.47018">
        <ele>478.4</ele>
        <time>2025-10-19T13:38:19Z</time>
      </trkpt>
      <trkpt lat="43.22147" lon="5.47019">
        <ele>478.3</ele>
        <time>2025-10-19T13:38:20Z</time>
      </trkpt>
      <trkpt lat="43.22148" lon="5.4702">
        <ele>478.2</ele>
        <time>2025-10-19T13:38:21Z</time>
      </trkpt>
      <trkpt lat="43.22148" lon="5.47021">
        <ele>478</ele>
        <time>2025-10-19T13:38:22Z</time>
      </trkpt>
      <trkpt lat="43.22149" lon="5.47022">
        <ele>477.8</ele>
        <time>2025-10-19T13:38:23Z</time>
      </trkpt>
      <trkpt lat="43.22149" lon="5.47023">
        <ele>477.7</ele>
        <time>2025-10-19T13:38:24Z</time>
      </trkpt>
      <trkpt lat="43.2215" lon="5.47024">
        <ele>477.4</ele>
        <time>2025-10-19T13:38:25Z</time>
      </trkpt>
      <trkpt lat="43.2215" lon="5.47025">
        <ele>477.2</ele>
        <time>2025-10-19T13:38:26Z</time>
      </trkpt>
      <trkpt lat="43.22151" lon="5.47025">
        <ele>477.1</ele>
        <time>2025-10-19T13:38:27Z</time>
      </trkpt>
      <trkpt lat="43.22152" lon="5.47026">
        <ele>477.1</ele>
        <time>2025-10-19T13:38:28Z</time>
      </trkpt>
      <trkpt lat="43.22153" lon="5.47027">
        <ele>477</ele>
        <time>2025-10-19T13:38:29Z</time>
      </trkpt>
      <trkpt lat="43.22153" lon="5.47028">
        <ele>476.9</ele>
        <time>2025-10-19T13:38:30Z</time>
      </trkpt>
      <trkpt lat="43.22154" lon="5.47029">
        <ele>476.9</ele>
        <time>2025-10-19T13:38:31Z</time>
      </trkpt>
      <trkpt lat="43.22155" lon="5.4703">
        <ele>476.8</ele>
        <time>2025-10-19T13:38:32Z</time>
      </trkpt>
      <trkpt lat="43.22156" lon="5.4703">
        <ele>476.6</ele>
        <time>2025-10-19T13:38:33Z</time>
      </trkpt>
      <trkpt lat="43.22156" lon="5.47031">
        <ele>476.6</ele>
        <time>2025-10-19T13:38:34Z</time>
      </trkpt>
      <trkpt lat="43.22157" lon="5.47032">
        <ele>476.5</ele>
        <time>2025-10-19T13:38:35Z</time>
      </trkpt>
      <trkpt lat="43.22158" lon="5.47033">
        <ele>476.4</ele>
        <time>2025-10-19T13:38:36Z</time>
      </trkpt>
      <trkpt lat="43.22159" lon="5.47034">
        <ele>476.3</ele>
        <time>2025-10-19T13:38:37Z</time>
      </trkpt>
      <trkpt lat="43.22159" lon="5.47035">
        <ele>476.2</ele>
        <time>2025-10-19T13:38:38Z</time>
      </trkpt>
      <trkpt lat="43.2216" lon="5.47036">
        <ele>476</ele>
        <time>2025-10-19T13:38:39Z</time>
      </trkpt>
      <trkpt lat="43.22161" lon="5.47037">
        <ele>475.8</ele>
        <time>2025-10-19T13:38:40Z</time>
      </trkpt>
      <trkpt lat="43.22162" lon="5.47038">
        <ele>475.9</ele>
        <time>2025-10-19T13:38:41Z</time>
      </trkpt>
      <trkpt lat="43.22162" lon="5.47039">
        <ele>475.9</ele>
        <time>2025-10-19T13:38:42Z</time>
      </trkpt>
      <trkpt lat="43.22163" lon="5.4704">
        <ele>476</ele>
        <time>2025-10-19T13:38:43Z</time>
      </trkpt>
      <trkpt lat="43.22164" lon="5.4704">
        <ele>476</ele>
        <time>2025-10-19T13:38:44Z</time>
      </trkpt>
      <trkpt lat="43.22165" lon="5.47041">
        <ele>475.9</ele>
        <time>2025-10-19T13:38:45Z</time>
      </trkpt>
      <trkpt lat="43.22166" lon="5.47042">
        <ele>475.7</ele>
        <time>2025-10-19T13:38:46Z</time>
      </trkpt>
      <trkpt lat="43.22167" lon="5.47043">
        <ele>475.5</ele>
        <time>2025-10-19T13:38:47Z</time>
      </trkpt>
      <trkpt lat="43.22167" lon="5.47044">
        <ele>475.3</ele>
        <time>2025-10-19T13:38:48Z</time>
      </trkpt>
      <trkpt lat="43.22168" lon="5.47045">
        <ele>475.1</ele>
        <time>2025-10-19T13:38:49Z</time>
      </trkpt>
      <trkpt lat="43.22169" lon="5.47046">
        <ele>474.9</ele>
        <time>2025-10-19T13:38:50Z</time>
      </trkpt>
      <trkpt lat="43.22169" lon="5.47047">
        <ele>474.8</ele>
        <time>2025-10-19T13:38:51Z</time>
      </trkpt>
      <trkpt lat="43.2217" lon="5.47048">
        <ele>474.7</ele>
        <time>2025-10-19T13:38:52Z</time>
      </trkpt>
      <trkpt lat="43.22171" lon="5.47049">
        <ele>474.5</ele>
        <time>2025-10-19T13:38:53Z</time>
      </trkpt>
      <trkpt lat="43.22172" lon="5.4705">
        <ele>474.4</ele>
        <time>2025-10-19T13:38:54Z</time>
      </trkpt>
      <trkpt lat="43.22172" lon="5.47051">
        <ele>474.3</ele>
        <time>2025-10-19T13:38:55Z</time>
      </trkpt>
      <trkpt lat="43.22173" lon="5.47052">
        <ele>474.1</ele>
        <time>2025-10-19T13:38:56Z</time>
      </trkpt>
      <trkpt lat="43.22174" lon="5.47053">
        <ele>474</ele>
        <time>2025-10-19T13:38:57Z</time>
      </trkpt>
      <trkpt lat="43.22175" lon="5.47054">
        <ele>473.9</ele>
        <time>2025-10-19T13:38:58Z</time>
      </trkpt>
      <trkpt lat="43.22176" lon="5.47055">
        <ele>473.8</ele>
        <time>2025-10-19T13:38:59Z</time>
      </trkpt>
      <trkpt lat="43.22177" lon="5.47056">
        <ele>473.8</ele>
        <time>2025-10-19T13:39:00Z</time>
      </trkpt>
      <trkpt lat="43.22178" lon="5.47056">
        <ele>473.7</ele>
        <time>2025-10-19T13:39:01Z</time>
      </trkpt>
      <trkpt lat="43.22179" lon="5.47057">
        <ele>473.6</ele>
        <time>2025-10-19T13:39:02Z</time>
      </trkpt>
      <trkpt lat="43.2218" lon="5.47058">
        <ele>473.5</ele>
        <time>2025-10-19T13:39:03Z</time>
      </trkpt>
      <trkpt lat="43.22181" lon="5.47059">
        <ele>473.3</ele>
        <time>2025-10-19T13:39:04Z</time>
      </trkpt>
      <trkpt lat="43.22182" lon="5.4706">
        <ele>473.2</ele>
        <time>2025-10-19T13:39:05Z</time>
      </trkpt>
      <trkpt lat="43.22182" lon="5.4706">
        <ele>473</ele>
        <time>2025-10-19T13:39:06Z</time>
      </trkpt>
      <trkpt lat="43.22183" lon="5.47061">
        <ele>473</ele>
        <time>2025-10-19T13:39:07Z</time>
      </trkpt>
      <trkpt lat="43.22184" lon="5.47062">
        <ele>472.9</ele>
        <time>2025-10-19T13:39:08Z</time>
      </trkpt>
      <trkpt lat="43.22185" lon="5.47063">
        <ele>472.9</ele>
        <time>2025-10-19T13:39:09Z</time>
      </trkpt>
      <trkpt lat="43.22186" lon="5.47064">
        <ele>472.8</ele>
        <time>2025-10-19T13:39:10Z</time>
      </trkpt>
      <trkpt lat="43.22187" lon="5.47065">
        <ele>472.6</ele>
        <time>2025-10-19T13:39:11Z</time>
      </trkpt>
      <trkpt lat="43.22188" lon="5.47065">
        <ele>472.4</ele>
        <time>2025-10-19T13:39:12Z</time>
      </trkpt>
      <trkpt lat="43.22189" lon="5.47066">
        <ele>472.3</ele>
        <time>2025-10-19T13:39:13Z</time>
      </trkpt>
      <trkpt lat="43.22191" lon="5.47067">
        <ele>472.2</ele>
        <time>2025-10-19T13:39:14Z</time>
      </trkpt>
      <trkpt lat="43.22192" lon="5.47068">
        <ele>472.1</ele>
        <time>2025-10-19T13:39:15Z</time>
      </trkpt>
      <trkpt lat="43.22193" lon="5.47068">
        <ele>471.9</ele>
        <time>2025-10-19T13:39:16Z</time>
      </trkpt>
      <trkpt lat="43.22194" lon="5.47069">
        <ele>471.8</ele>
        <time>2025-10-19T13:39:17Z</time>
      </trkpt>
      <trkpt lat="43.22195" lon="5.4707">
        <ele>471.7</ele>
        <time>2025-10-19T13:39:18Z</time>
      </trkpt>
      <trkpt lat="43.22196" lon="5.47071">
        <ele>471.7</ele>
        <time>2025-10-19T13:39:19Z</time>
      </trkpt>
      <trkpt lat="43.22197" lon="5.47072">
        <ele>471.7</ele>
        <time>2025-10-19T13:39:20Z</time>
      </trkpt>
      <trkpt lat="43.22198" lon="5.47072">
        <ele>471.8</ele>
        <time>2025-10-19T13:39:21Z</time>
      </trkpt>
      <trkpt lat="43.22199" lon="5.47073">
        <ele>471.9</ele>
        <time>2025-10-19T13:39:22Z</time>
      </trkpt>
      <trkpt lat="43.222" lon="5.47073">
        <ele>471.8</ele>
        <time>2025-10-19T13:39:23Z</time>
      </trkpt>
      <trkpt lat="43.22202" lon="5.47074">
        <ele>471.7</ele>
        <time>2025-10-19T13:39:24Z</time>
      </trkpt>
      <trkpt lat="43.22203" lon="5.47074">
        <ele>471.4</ele>
        <time>2025-10-19T13:39:25Z</time>
      </trkpt>
      <trkpt lat="43.22204" lon="5.47075">
        <ele>471.2</ele>
        <time>2025-10-19T13:39:26Z</time>
      </trkpt>
      <trkpt lat="43.22205" lon="5.47075">
        <ele>471.2</ele>
        <time>2025-10-19T13:39:27Z</time>
      </trkpt>
      <trkpt lat="43.22206" lon="5.47076">
        <ele>471.1</ele>
        <time>2025-10-19T13:39:28Z</time>
      </trkpt>
      <trkpt lat="43.22207" lon="5.47076">
        <ele>471</ele>
        <time>2025-10-19T13:39:29Z</time>
      </trkpt>
      <trkpt lat="43.22208" lon="5.47077">
        <ele>470.9</ele>
        <time>2025-10-19T13:39:30Z</time>
      </trkpt>
      <trkpt lat="43.22209" lon="5.47077">
        <ele>470.8</ele>
        <time>2025-10-19T13:39:31Z</time>
      </trkpt>
      <trkpt lat="43.22211" lon="5.47078">
        <ele>470.6</ele>
        <time>2025-10-19T13:39:32Z</time>
      </trkpt>
      <trkpt lat="43.22212" lon="5.47079">
        <ele>470.4</ele>
        <time>2025-10-19T13:39:33Z</time>
      </trkpt>
      <trkpt lat="43.22213" lon="5.47079">
        <ele>470.3</ele>
        <time>2025-10-19T13:39:34Z</time>
      </trkpt>
      <trkpt lat="43.22214" lon="5.4708">
        <ele>470.2</ele>
        <time>2025-10-19T13:39:35Z</time>
      </trkpt>
      <trkpt lat="43.22215" lon="5.4708">
        <ele>470.2</ele>
        <time>2025-10-19T13:39:36Z</time>
      </trkpt>
      <trkpt lat="43.22216" lon="5.47081">
        <ele>470.1</ele>
        <time>2025-10-19T13:39:37Z</time>
      </trkpt>
      <trkpt lat="43.22217" lon="5.47081">
        <ele>470.1</ele>
        <time>2025-10-19T13:39:38Z</time>
      </trkpt>
      <trkpt lat="43.22218" lon="5.47081">
        <ele>470.1</ele>
        <time>2025-10-19T13:39:39Z</time>
      </trkpt>
      <trkpt lat="43.2222" lon="5.47082">
        <ele>470.2</ele>
        <time>2025-10-19T13:39:40Z</time>
      </trkpt>
      <trkpt lat="43.22221" lon="5.47082">
        <ele>470.1</ele>
        <time>2025-10-19T13:39:41Z</time>
      </trkpt>
      <trkpt lat="43.22222" lon="5.47082">
        <ele>470.1</ele>
        <time>2025-10-19T13:39:42Z</time>
      </trkpt>
      <trkpt lat="43.22223" lon="5.47083">
        <ele>470.1</ele>
        <time>2025-10-19T13:39:43Z</time>
      </trkpt>
      <trkpt lat="43.22224" lon="5.47083">
        <ele>470.1</ele>
        <time>2025-10-19T13:39:44Z</time>
      </trkpt>
      <trkpt lat="43.22225" lon="5.47084">
        <ele>470.1</ele>
        <time>2025-10-19T13:39:45Z</time>
      </trkpt>
      <trkpt lat="43.22226" lon="5.47084">
        <ele>470.1</ele>
        <time>2025-10-19T13:39:46Z</time>
      </trkpt>
      <trkpt lat="43.22227" lon="5.47085">
        <ele>470</ele>
        <time>2025-10-19T13:39:47Z</time>
      </trkpt>
      <trkpt lat="43.22228" lon="5.47086">
        <ele>469.9</ele>
        <time>2025-10-19T13:39:48Z</time>
      </trkpt>
      <trkpt lat="43.22229" lon="5.47086">
        <ele>469.8</ele>
        <time>2025-10-19T13:39:49Z</time>
      </trkpt>
      <trkpt lat="43.22231" lon="5.47087">
        <ele>469.6</ele>
        <time>2025-10-19T13:39:50Z</time>
      </trkpt>
      <trkpt lat="43.22232" lon="5.47087">
        <ele>469.5</ele>
        <time>2025-10-19T13:39:51Z</time>
      </trkpt>
      <trkpt lat="43.22234" lon="5.47088">
        <ele>469.3</ele>
        <time>2025-10-19T13:39:52Z</time>
      </trkpt>
      <trkpt lat="43.22235" lon="5.47088">
        <ele>469.3</ele>
        <time>2025-10-19T13:39:53Z</time>
      </trkpt>
      <trkpt lat="43.22236" lon="5.47089">
        <ele>469.2</ele>
        <time>2025-10-19T13:39:54Z</time>
      </trkpt>
      <trkpt lat="43.22237" lon="5.47089">
        <ele>469.1</ele>
        <time>2025-10-19T13:39:55Z</time>
      </trkpt>
      <trkpt lat="43.22238" lon="5.47089">
        <ele>469.2</ele>
        <time>2025-10-19T13:39:56Z</time>
      </trkpt>
      <trkpt lat="43.22239" lon="5.4709">
        <ele>469.2</ele>
        <time>2025-10-19T13:39:57Z</time>
      </trkpt>
      <trkpt lat="43.2224" lon="5.4709">
        <ele>469.1</ele>
        <time>2025-10-19T13:39:58Z</time>
      </trkpt>
      <trkpt lat="43.22241" lon="5.4709">
        <ele>469</ele>
        <time>2025-10-19T13:39:59Z</time>
      </trkpt>
      <trkpt lat="43.22242" lon="5.4709">
        <ele>469</ele>
        <time>2025-10-19T13:40:00Z</time>
      </trkpt>
      <trkpt lat="43.22244" lon="5.47091">
        <ele>468.9</ele>
        <time>2025-10-19T13:40:01Z</time>
      </trkpt>
      <trkpt lat="43.22245" lon="5.47092">
        <ele>468.8</ele>
        <time>2025-10-19T13:40:02Z</time>
      </trkpt>
      <trkpt lat="43.22246" lon="5.47092">
        <ele>468.8</ele>
        <time>2025-10-19T13:40:03Z</time>
      </trkpt>
      <trkpt lat="43.22247" lon="5.47093">
        <ele>468.7</ele>
        <time>2025-10-19T13:40:04Z</time>
      </trkpt>
      <trkpt lat="43.22248" lon="5.47093">
        <ele>468.6</ele>
        <time>2025-10-19T13:40:05Z</time>
      </trkpt>
      <trkpt lat="43.22249" lon="5.47094">
        <ele>468.6</ele>
        <time>2025-10-19T13:40:06Z</time>
      </trkpt>
      <trkpt lat="43.22251" lon="5.47094">
        <ele>468.6</ele>
        <time>2025-10-19T13:40:07Z</time>
      </trkpt>
      <trkpt lat="43.22252" lon="5.47094">
        <ele>468.6</ele>
        <time>2025-10-19T13:40:08Z</time>
      </trkpt>
      <trkpt lat="43.22253" lon="5.47095">
        <ele>468.6</ele>
        <time>2025-10-19T13:40:09Z</time>
      </trkpt>
      <trkpt lat="43.22254" lon="5.47095">
        <ele>468.4</ele>
        <time>2025-10-19T13:40:10Z</time>
      </trkpt>
      <trkpt lat="43.22255" lon="5.47096">
        <ele>468.3</ele>
        <time>2025-10-19T13:40:11Z</time>
      </trkpt>
      <trkpt lat="43.22256" lon="5.47096">
        <ele>468.2</ele>
        <time>2025-10-19T13:40:12Z</time>
      </trkpt>
      <trkpt lat="43.22257" lon="5.47097">
        <ele>468.2</ele>
        <time>2025-10-19T13:40:13Z</time>
      </trkpt>
      <trkpt lat="43.22258" lon="5.47097">
        <ele>468.1</ele>
        <time>2025-10-19T13:40:14Z</time>
      </trkpt>
      <trkpt lat="43.22259" lon="5.47098">
        <ele>468.1</ele>
        <time>2025-10-19T13:40:15Z</time>
      </trkpt>
      <trkpt lat="43.2226" lon="5.47099">
        <ele>467.9</ele>
        <time>2025-10-19T13:40:16Z</time>
      </trkpt>
      <trkpt lat="43.22261" lon="5.47099">
        <ele>467.7</ele>
        <time>2025-10-19T13:40:17Z</time>
      </trkpt>
      <trkpt lat="43.22262" lon="5.471">
        <ele>467.7</ele>
        <time>2025-10-19T13:40:18Z</time>
      </trkpt>
      <trkpt lat="43.22263" lon="5.47101">
        <ele>467.7</ele>
        <time>2025-10-19T13:40:19Z</time>
      </trkpt>
      <trkpt lat="43.22264" lon="5.47101">
        <ele>467.6</ele>
        <time>2025-10-19T13:40:20Z</time>
      </trkpt>
      <trkpt lat="43.22265" lon="5.47102">
        <ele>467.5</ele>
        <time>2025-10-19T13:40:21Z</time>
      </trkpt>
      <trkpt lat="43.22267" lon="5.47102">
        <ele>467.3</ele>
        <time>2025-10-19T13:40:22Z</time>
      </trkpt>
      <trkpt lat="43.22268" lon="5.47102">
        <ele>467.2</ele>
        <time>2025-10-19T13:40:23Z</time>
      </trkpt>
      <trkpt lat="43.22269" lon="5.47103">
        <ele>467.1</ele>
        <time>2025-10-19T13:40:24Z</time>
      </trkpt>
      <trkpt lat="43.2227" lon="5.47103">
        <ele>467</ele>
        <time>2025-10-19T13:40:25Z</time>
      </trkpt>
      <trkpt lat="43.22271" lon="5.47104">
        <ele>467.1</ele>
        <time>2025-10-19T13:40:26Z</time>
      </trkpt>
      <trkpt lat="43.22272" lon="5.47105">
        <ele>467</ele>
        <time>2025-10-19T13:40:27Z</time>
      </trkpt>
      <trkpt lat="43.22273" lon="5.47105">
        <ele>466.9</ele>
        <time>2025-10-19T13:40:28Z</time>
      </trkpt>
      <trkpt lat="43.22275" lon="5.47106">
        <ele>466.8</ele>
        <time>2025-10-19T13:40:29Z</time>
      </trkpt>
      <trkpt lat="43.22276" lon="5.47106">
        <ele>466.8</ele>
        <time>2025-10-19T13:40:30Z</time>
      </trkpt>
      <trkpt lat="43.22277" lon="5.47107">
        <ele>466.7</ele>
        <time>2025-10-19T13:40:31Z</time>
      </trkpt>
      <trkpt lat="43.22278" lon="5.47107">
        <ele>466.7</ele>
        <time>2025-10-19T13:40:32Z</time>
      </trkpt>
      <trkpt lat="43.22279" lon="5.47108">
        <ele>466.6</ele>
        <time>2025-10-19T13:40:33Z</time>
      </trkpt>
      <trkpt lat="43.22279" lon="5.47108">
        <ele>466.6</ele>
        <time>2025-10-19T13:40:34Z</time>
      </trkpt>
      <trkpt lat="43.2228" lon="5.47109">
        <ele>466.6</ele>
        <time>2025-10-19T13:40:35Z</time>
      </trkpt>
      <trkpt lat="43.22281" lon="5.4711">
        <ele>466.5</ele>
        <time>2025-10-19T13:40:36Z</time>
      </trkpt>
      <trkpt lat="43.22282" lon="5.4711">
        <ele>466.6</ele>
        <time>2025-10-19T13:40:37Z</time>
      </trkpt>
      <trkpt lat="43.22283" lon="5.47111">
        <ele>466.5</ele>
        <time>2025-10-19T13:40:38Z</time>
      </trkpt>
      <trkpt lat="43.22284" lon="5.47112">
        <ele>466.6</ele>
        <time>2025-10-19T13:40:39Z</time>
      </trkpt>
      <trkpt lat="43.22285" lon="5.47112">
        <ele>466.6</ele>
        <time>2025-10-19T13:40:40Z</time>
      </trkpt>
      <trkpt lat="43.22286" lon="5.47113">
        <ele>466.6</ele>
        <time>2025-10-19T13:40:41Z</time>
      </trkpt>
      <trkpt lat="43.22287" lon="5.47114">
        <ele>466.5</ele>
        <time>2025-10-19T13:40:42Z</time>
      </trkpt>
      <trkpt lat="43.22288" lon="5.47115">
        <ele>466.5</ele>
        <time>2025-10-19T13:40:43Z</time>
      </trkpt>
      <trkpt lat="43.22289" lon="5.47116">
        <ele>466.5</ele>
        <time>2025-10-19T13:40:44Z</time>
      </trkpt>
      <trkpt lat="43.22289" lon="5.47116">
        <ele>466.5</ele>
        <time>2025-10-19T13:40:45Z</time>
      </trkpt>
      <trkpt lat="43.2229" lon="5.47117">
        <ele>466.6</ele>
        <time>2025-10-19T13:40:46Z</time>
      </trkpt>
      <trkpt lat="43.22291" lon="5.47117">
        <ele>466.7</ele>
        <time>2025-10-19T13:40:47Z</time>
      </trkpt>
      <trkpt lat="43.22292" lon="5.47118">
        <ele>466.7</ele>
        <time>2025-10-19T13:40:48Z</time>
      </trkpt>
      <trkpt lat="43.22292" lon="5.47119">
        <ele>466.5</ele>
        <time>2025-10-19T13:40:49Z</time>
      </trkpt>
      <trkpt lat="43.22293" lon="5.4712">
        <ele>466.5</ele>
        <time>2025-10-19T13:40:50Z</time>
      </trkpt>
      <trkpt lat="43.22294" lon="5.4712">
        <ele>466.6</ele>
        <time>2025-10-19T13:40:51Z</time>
      </trkpt>
      <trkpt lat="43.22295" lon="5.47121">
        <ele>466.6</ele>
        <time>2025-10-19T13:40:52Z</time>
      </trkpt>
      <trkpt lat="43.22296" lon="5.47122">
        <ele>466.6</ele>
        <time>2025-10-19T13:40:53Z</time>
      </trkpt>
      <trkpt lat="43.22297" lon="5.47123">
        <ele>466.7</ele>
        <time>2025-10-19T13:40:54Z</time>
      </trkpt>
      <trkpt lat="43.22298" lon="5.47124">
        <ele>466.8</ele>
        <time>2025-10-19T13:40:55Z</time>
      </trkpt>
      <trkpt lat="43.22298" lon="5.47124">
        <ele>466.9</ele>
        <time>2025-10-19T13:40:56Z</time>
      </trkpt>
      <trkpt lat="43.22299" lon="5.47126">
        <ele>466.9</ele>
        <time>2025-10-19T13:40:57Z</time>
      </trkpt>
      <trkpt lat="43.223" lon="5.47127">
        <ele>466.9</ele>
        <time>2025-10-19T13:40:58Z</time>
      </trkpt>
      <trkpt lat="43.22301" lon="5.47128">
        <ele>467</ele>
        <time>2025-10-19T13:40:59Z</time>
      </trkpt>
      <trkpt lat="43.22302" lon="5.47129">
        <ele>466.9</ele>
        <time>2025-10-19T13:41:00Z</time>
      </trkpt>
      <trkpt lat="43.22302" lon="5.4713">
        <ele>467</ele>
        <time>2025-10-19T13:41:01Z</time>
      </trkpt>
      <trkpt lat="43.22303" lon="5.47131">
        <ele>467</ele>
        <time>2025-10-19T13:41:02Z</time>
      </trkpt>
      <trkpt lat="43.22304" lon="5.47132">
        <ele>467.2</ele>
        <time>2025-10-19T13:41:03Z</time>
      </trkpt>
      <trkpt lat="43.22305" lon="5.47133">
        <ele>467.3</ele>
        <time>2025-10-19T13:41:04Z</time>
      </trkpt>
      <trkpt lat="43.22306" lon="5.47134">
        <ele>467.3</ele>
        <time>2025-10-19T13:41:05Z</time>
      </trkpt>
      <trkpt lat="43.22307" lon="5.47135">
        <ele>467.3</ele>
        <time>2025-10-19T13:41:06Z</time>
      </trkpt>
      <trkpt lat="43.22307" lon="5.47136">
        <ele>467.2</ele>
        <time>2025-10-19T13:41:07Z</time>
      </trkpt>
      <trkpt lat="43.22308" lon="5.47137">
        <ele>467.2</ele>
        <time>2025-10-19T13:41:08Z</time>
      </trkpt>
      <trkpt lat="43.22308" lon="5.47138">
        <ele>467.1</ele>
        <time>2025-10-19T13:41:09Z</time>
      </trkpt>
      <trkpt lat="43.22309" lon="5.47139">
        <ele>467</ele>
        <time>2025-10-19T13:41:10Z</time>
      </trkpt>
      <trkpt lat="43.2231" lon="5.4714">
        <ele>466.9</ele>
        <time>2025-10-19T13:41:11Z</time>
      </trkpt>
      <trkpt lat="43.22311" lon="5.47141">
        <ele>466.9</ele>
        <time>2025-10-19T13:41:12Z</time>
      </trkpt>
      <trkpt lat="43.22311" lon="5.47143">
        <ele>466.9</ele>
        <time>2025-10-19T13:41:13Z</time>
      </trkpt>
      <trkpt lat="43.22312" lon="5.47144">
        <ele>466.9</ele>
        <time>2025-10-19T13:41:14Z</time>
      </trkpt>
      <trkpt lat="43.22313" lon="5.47145">
        <ele>467</ele>
        <time>2025-10-19T13:41:15Z</time>
      </trkpt>
      <trkpt lat="43.22314" lon="5.47146">
        <ele>466.8</ele>
        <time>2025-10-19T13:41:16Z</time>
      </trkpt>
      <trkpt lat="43.22315" lon="5.47146">
        <ele>466.7</ele>
        <time>2025-10-19T13:41:17Z</time>
      </trkpt>
      <trkpt lat="43.22315" lon="5.47147">
        <ele>466.8</ele>
        <time>2025-10-19T13:41:18Z</time>
      </trkpt>
      <trkpt lat="43.22316" lon="5.47148">
        <ele>466.8</ele>
        <time>2025-10-19T13:41:19Z</time>
      </trkpt>
      <trkpt lat="43.22317" lon="5.47149">
        <ele>466.7</ele>
        <time>2025-10-19T13:41:20Z</time>
      </trkpt>
      <trkpt lat="43.22317" lon="5.4715">
        <ele>466.6</ele>
        <time>2025-10-19T13:41:21Z</time>
      </trkpt>
      <trkpt lat="43.22318" lon="5.47152">
        <ele>466.6</ele>
        <time>2025-10-19T13:41:22Z</time>
      </trkpt>
      <trkpt lat="43.22319" lon="5.47153">
        <ele>466.5</ele>
        <time>2025-10-19T13:41:23Z</time>
      </trkpt>
      <trkpt lat="43.22319" lon="5.47154">
        <ele>466.5</ele>
        <time>2025-10-19T13:41:24Z</time>
      </trkpt>
      <trkpt lat="43.2232" lon="5.47155">
        <ele>466.4</ele>
        <time>2025-10-19T13:41:25Z</time>
      </trkpt>
      <trkpt lat="43.22321" lon="5.47156">
        <ele>466.4</ele>
        <time>2025-10-19T13:41:26Z</time>
      </trkpt>
      <trkpt lat="43.22322" lon="5.47157">
        <ele>466.4</ele>
        <time>2025-10-19T13:41:27Z</time>
      </trkpt>
      <trkpt lat="43.22322" lon="5.47159">
        <ele>466.6</ele>
        <time>2025-10-19T13:41:28Z</time>
      </trkpt>
      <trkpt lat="43.22323" lon="5.4716">
        <ele>466.6</ele>
        <time>2025-10-19T13:41:29Z</time>
      </trkpt>
      <trkpt lat="43.22324" lon="5.47161">
        <ele>466.6</ele>
        <time>2025-10-19T13:41:30Z</time>
      </trkpt>
      <trkpt lat="43.22324" lon="5.47163">
        <ele>466.5</ele>
        <time>2025-10-19T13:41:31Z</time>
      </trkpt>
      <trkpt lat="43.22325" lon="5.47164">
        <ele>466.5</ele>
        <time>2025-10-19T13:41:32Z</time>
      </trkpt>
      <trkpt lat="43.22326" lon="5.47165">
        <ele>466.5</ele>
        <time>2025-10-19T13:41:33Z</time>
      </trkpt>
      <trkpt lat="43.22327" lon="5.47166">
        <ele>466.5</ele>
        <time>2025-10-19T13:41:34Z</time>
      </trkpt>
      <trkpt lat="43.22327" lon="5.47167">
        <ele>466.5</ele>
        <time>2025-10-19T13:41:35Z</time>
      </trkpt>
      <trkpt lat="43.22328" lon="5.47167">
        <ele>465.9</ele>
        <time>2025-10-19T13:41:36Z</time>
      </trkpt>
      <trkpt lat="43.22328" lon="5.47167">
        <ele>465.8</ele>
        <time>2025-10-19T13:41:37Z</time>
      </trkpt>
      <trkpt lat="43.22328" lon="5.47168">
        <ele>465.7</ele>
        <time>2025-10-19T13:41:38Z</time>
      </trkpt>
      <trkpt lat="43.22328" lon="5.47168">
        <ele>465.5</ele>
        <time>2025-10-19T13:41:39Z</time>
      </trkpt>
      <trkpt lat="43.22328" lon="5.47168">
        <ele>465.3</ele>
        <time>2025-10-19T13:41:40Z</time>
      </trkpt>
      <trkpt lat="43.22328" lon="5.47168">
        <ele>465.2</ele>
        <time>2025-10-19T13:41:41Z</time>
      </trkpt>
      <trkpt lat="43.22328" lon="5.47168">
        <ele>465.1</ele>
        <time>2025-10-19T13:41:42Z</time>
      </trkpt>
      <trkpt lat="43.22328" lon="5.47168">
        <ele>465.1</ele>
        <time>2025-10-19T13:41:43Z</time>
      </trkpt>
      <trkpt lat="43.22328" lon="5.47168">
        <ele>465.1</ele>
        <time>2025-10-19T13:41:44Z</time>
      </trkpt>
      <trkpt lat="43.22328" lon="5.47168">
        <ele>465.1</ele>
        <time>2025-10-19T13:41:45Z</time>
      </trkpt>
      <trkpt lat="43.22328" lon="5.47168">
        <ele>465.1</ele>
        <time>2025-10-19T13:41:46Z</time>
      </trkpt>
      <trkpt lat="43.22328" lon="5.47168">
        <ele>465</ele>
        <time>2025-10-19T13:41:47Z</time>
      </trkpt>
      <trkpt lat="43.22328" lon="5.47169">
        <ele>465.1</ele>
        <time>2025-10-19T13:41:48Z</time>
      </trkpt>
      <trkpt lat="43.22328" lon="5.47169">
        <ele>465.1</ele>
        <time>2025-10-19T13:41:49Z</time>
      </trkpt>
      <trkpt lat="43.22328" lon="5.47169">
        <ele>465</ele>
        <time>2025-10-19T13:41:50Z</time>
      </trkpt>
      <trkpt lat="43.22328" lon="5.47169">
        <ele>465</ele>
        <time>2025-10-19T13:41:51Z</time>
      </trkpt>
      <trkpt lat="43.22328" lon="5.47169">
        <ele>464.9</ele>
        <time>2025-10-19T13:41:52Z</time>
      </trkpt>
      <trkpt lat="43.22328" lon="5.47169">
        <ele>464.9</ele>
        <time>2025-10-19T13:41:53Z</time>
      </trkpt>
      <trkpt lat="43.22328" lon="5.47169">
        <ele>465</ele>
        <time>2025-10-19T13:41:54Z</time>
      </trkpt>
      <trkpt lat="43.22329" lon="5.47169">
        <ele>465</ele>
        <time>2025-10-19T13:41:55Z</time>
      </trkpt>
      <trkpt lat="43.22328" lon="5.47169">
        <ele>465.1</ele>
        <time>2025-10-19T13:41:56Z</time>
      </trkpt>
      <trkpt lat="43.22329" lon="5.47169">
        <ele>465.1</ele>
        <time>2025-10-19T13:41:57Z</time>
      </trkpt>
      <trkpt lat="43.22329" lon="5.47169">
        <ele>465.1</ele>
        <time>2025-10-19T13:41:58Z</time>
      </trkpt>
      <trkpt lat="43.22329" lon="5.47169">
        <ele>465.1</ele>
        <time>2025-10-19T13:41:59Z</time>
      </trkpt>
      <trkpt lat="43.22329" lon="5.47169">
        <ele>465</ele>
        <time>2025-10-19T13:42:00Z</time>
      </trkpt>
      <trkpt lat="43.22329" lon="5.47169">
        <ele>465</ele>
        <time>2025-10-19T13:42:01Z</time>
      </trkpt>
      <trkpt lat="43.22329" lon="5.47169">
        <ele>464.9</ele>
        <time>2025-10-19T13:42:02Z</time>
      </trkpt>
      <trkpt lat="43.22329" lon="5.4717">
        <ele>464.9</ele>
        <time>2025-10-19T13:42:03Z</time>
      </trkpt>
      <trkpt lat="43.22328" lon="5.4717">
        <ele>464.9</ele>
        <time>2025-10-19T13:42:04Z</time>
      </trkpt>
      <trkpt lat="43.22328" lon="5.4717">
        <ele>464.8</ele>
        <time>2025-10-19T13:42:05Z</time>
      </trkpt>
      <trkpt lat="43.22328" lon="5.4717">
        <ele>464.8</ele>
        <time>2025-10-19T13:42:06Z</time>
      </trkpt>
      <trkpt lat="43.22328" lon="5.4717">
        <ele>464.7</ele>
        <time>2025-10-19T13:42:07Z</time>
      </trkpt>
      <trkpt lat="43.22328" lon="5.4717">
        <ele>464.5</ele>
        <time>2025-10-19T13:42:08Z</time>
      </trkpt>
      <trkpt lat="43.22328" lon="5.4717">
        <ele>464.4</ele>
        <time>2025-10-19T13:42:09Z</time>
      </trkpt>
      <trkpt lat="43.22329" lon="5.4717">
        <ele>464.6</ele>
        <time>2025-10-19T13:42:10Z</time>
      </trkpt>
      <trkpt lat="43.22329" lon="5.47171">
        <ele>464.7</ele>
        <time>2025-10-19T13:42:11Z</time>
      </trkpt>
      <trkpt lat="43.2233" lon="5.47172">
        <ele>465</ele>
        <time>2025-10-19T13:42:12Z</time>
      </trkpt>
      <trkpt lat="43.2233" lon="5.47172">
        <ele>465.2</ele>
        <time>2025-10-19T13:42:13Z</time>
      </trkpt>
      <trkpt lat="43.2233" lon="5.47172">
        <ele>465.4</ele>
        <time>2025-10-19T13:42:14Z</time>
      </trkpt>
      <trkpt lat="43.2233" lon="5.47173">
        <ele>465.5</ele>
        <time>2025-10-19T13:42:15Z</time>
      </trkpt>
      <trkpt lat="43.22331" lon="5.47175">
        <ele>465.7</ele>
        <time>2025-10-19T13:42:16Z</time>
      </trkpt>
      <trkpt lat="43.22331" lon="5.47176">
        <ele>465.8</ele>
        <time>2025-10-19T13:42:17Z</time>
      </trkpt>
      <trkpt lat="43.22331" lon="5.47177">
        <ele>465.7</ele>
        <time>2025-10-19T13:42:18Z</time>
      </trkpt>
      <trkpt lat="43.22332" lon="5.47179">
        <ele>465.7</ele>
        <time>2025-10-19T13:42:19Z</time>
      </trkpt>
      <trkpt lat="43.22332" lon="5.4718">
        <ele>465.7</ele>
        <time>2025-10-19T13:42:20Z</time>
      </trkpt>
      <trkpt lat="43.22333" lon="5.47181">
        <ele>465.8</ele>
        <time>2025-10-19T13:42:21Z</time>
      </trkpt>
      <trkpt lat="43.22333" lon="5.47182">
        <ele>465.7</ele>
        <time>2025-10-19T13:42:22Z</time>
      </trkpt>
      <trkpt lat="43.22334" lon="5.47183">
        <ele>465.6</ele>
        <time>2025-10-19T13:42:23Z</time>
      </trkpt>
      <trkpt lat="43.22334" lon="5.47184">
        <ele>465.6</ele>
        <time>2025-10-19T13:42:24Z</time>
      </trkpt>
      <trkpt lat="43.22335" lon="5.47185">
        <ele>465.6</ele>
        <time>2025-10-19T13:42:25Z</time>
      </trkpt>
      <trkpt lat="43.22336" lon="5.47187">
        <ele>465.6</ele>
        <time>2025-10-19T13:42:26Z</time>
      </trkpt>
      <trkpt lat="43.22336" lon="5.47188">
        <ele>465.6</ele>
        <time>2025-10-19T13:42:27Z</time>
      </trkpt>
      <trkpt lat="43.22336" lon="5.47189">
        <ele>465.5</ele>
        <time>2025-10-19T13:42:28Z</time>
      </trkpt>
      <trkpt lat="43.22337" lon="5.47191">
        <ele>465.3</ele>
        <time>2025-10-19T13:42:29Z</time>
      </trkpt>
      <trkpt lat="43.22338" lon="5.47192">
        <ele>465.1</ele>
        <time>2025-10-19T13:42:30Z</time>
      </trkpt>
      <trkpt lat="43.22338" lon="5.47193">
        <ele>465</ele>
        <time>2025-10-19T13:42:31Z</time>
      </trkpt>
      <trkpt lat="43.22339" lon="5.47194">
        <ele>464.9</ele>
        <time>2025-10-19T13:42:32Z</time>
      </trkpt>
      <trkpt lat="43.22339" lon="5.47195">
        <ele>464.9</ele>
        <time>2025-10-19T13:42:33Z</time>
      </trkpt>
      <trkpt lat="43.2234" lon="5.47196">
        <ele>464.9</ele>
        <time>2025-10-19T13:42:34Z</time>
      </trkpt>
      <trkpt lat="43.2234" lon="5.47197">
        <ele>465</ele>
        <time>2025-10-19T13:42:35Z</time>
      </trkpt>
      <trkpt lat="43.22341" lon="5.47199">
        <ele>465.1</ele>
        <time>2025-10-19T13:42:36Z</time>
      </trkpt>
      <trkpt lat="43.22341" lon="5.472">
        <ele>465.2</ele>
        <time>2025-10-19T13:42:37Z</time>
      </trkpt>
      <trkpt lat="43.22342" lon="5.47202">
        <ele>465.2</ele>
        <time>2025-10-19T13:42:38Z</time>
      </trkpt>
      <trkpt lat="43.22342" lon="5.47203">
        <ele>465.2</ele>
        <time>2025-10-19T13:42:39Z</time>
      </trkpt>
      <trkpt lat="43.22343" lon="5.47204">
        <ele>465.2</ele>
        <time>2025-10-19T13:42:40Z</time>
      </trkpt>
      <trkpt lat="43.22343" lon="5.47205">
        <ele>465.3</ele>
        <time>2025-10-19T13:42:41Z</time>
      </trkpt>
      <trkpt lat="43.22344" lon="5.47206">
        <ele>465.3</ele>
        <time>2025-10-19T13:42:42Z</time>
      </trkpt>
      <trkpt lat="43.22345" lon="5.47207">
        <ele>465.3</ele>
        <time>2025-10-19T13:42:43Z</time>
      </trkpt>
      <trkpt lat="43.22345" lon="5.47208">
        <ele>465.3</ele>
        <time>2025-10-19T13:42:44Z</time>
      </trkpt>
      <trkpt lat="43.22345" lon="5.4721">
        <ele>465.5</ele>
        <time>2025-10-19T13:42:45Z</time>
      </trkpt>
      <trkpt lat="43.22346" lon="5.47211">
        <ele>465.4</ele>
        <time>2025-10-19T13:42:46Z</time>
      </trkpt>
      <trkpt lat="43.22346" lon="5.47212">
        <ele>465.4</ele>
        <time>2025-10-19T13:42:47Z</time>
      </trkpt>
      <trkpt lat="43.22346" lon="5.47213">
        <ele>465.3</ele>
        <time>2025-10-19T13:42:48Z</time>
      </trkpt>
      <trkpt lat="43.22347" lon="5.47215">
        <ele>465.4</ele>
        <time>2025-10-19T13:42:49Z</time>
      </trkpt>
      <trkpt lat="43.22347" lon="5.47216">
        <ele>465.4</ele>
        <time>2025-10-19T13:42:50Z</time>
      </trkpt>
      <trkpt lat="43.22348" lon="5.47217">
        <ele>465.5</ele>
        <time>2025-10-19T13:42:51Z</time>
      </trkpt>
      <trkpt lat="43.22348" lon="5.47218">
        <ele>465.8</ele>
        <time>2025-10-19T13:42:52Z</time>
      </trkpt>
      <trkpt lat="43.22348" lon="5.4722">
        <ele>465.8</ele>
        <time>2025-10-19T13:42:53Z</time>
      </trkpt>
      <trkpt lat="43.22348" lon="5.47221">
        <ele>465.7</ele>
        <time>2025-10-19T13:42:54Z</time>
      </trkpt>
      <trkpt lat="43.22348" lon="5.47222">
        <ele>465.6</ele>
        <time>2025-10-19T13:42:55Z</time>
      </trkpt>
      <trkpt lat="43.22349" lon="5.47224">
        <ele>465.5</ele>
        <time>2025-10-19T13:42:56Z</time>
      </trkpt>
      <trkpt lat="43.22349" lon="5.47225">
        <ele>465.5</ele>
        <time>2025-10-19T13:42:57Z</time>
      </trkpt>
      <trkpt lat="43.2235" lon="5.47226">
        <ele>465.4</ele>
        <time>2025-10-19T13:42:58Z</time>
      </trkpt>
      <trkpt lat="43.2235" lon="5.47228">
        <ele>465.3</ele>
        <time>2025-10-19T13:42:59Z</time>
      </trkpt>
      <trkpt lat="43.2235" lon="5.47229">
        <ele>465.2</ele>
        <time>2025-10-19T13:43:00Z</time>
      </trkpt>
      <trkpt lat="43.2235" lon="5.47231">
        <ele>465.2</ele>
        <time>2025-10-19T13:43:01Z</time>
      </trkpt>
      <trkpt lat="43.2235" lon="5.47232">
        <ele>465.1</ele>
        <time>2025-10-19T13:43:02Z</time>
      </trkpt>
      <trkpt lat="43.2235" lon="5.47234">
        <ele>465</ele>
        <time>2025-10-19T13:43:03Z</time>
      </trkpt>
      <trkpt lat="43.22351" lon="5.47235">
        <ele>464.9</ele>
        <time>2025-10-19T13:43:04Z</time>
      </trkpt>
      <trkpt lat="43.22351" lon="5.47237">
        <ele>464.8</ele>
        <time>2025-10-19T13:43:05Z</time>
      </trkpt>
      <trkpt lat="43.22351" lon="5.47238">
        <ele>464.7</ele>
        <time>2025-10-19T13:43:06Z</time>
      </trkpt>
      <trkpt lat="43.22351" lon="5.4724">
        <ele>464.7</ele>
        <time>2025-10-19T13:43:07Z</time>
      </trkpt>
      <trkpt lat="43.22352" lon="5.47242">
        <ele>464.6</ele>
        <time>2025-10-19T13:43:08Z</time>
      </trkpt>
      <trkpt lat="43.22352" lon="5.47243">
        <ele>464.8</ele>
        <time>2025-10-19T13:43:09Z</time>
      </trkpt>
      <trkpt lat="43.22352" lon="5.47245">
        <ele>464.9</ele>
        <time>2025-10-19T13:43:10Z</time>
      </trkpt>
      <trkpt lat="43.22353" lon="5.47246">
        <ele>464.8</ele>
        <time>2025-10-19T13:43:11Z</time>
      </trkpt>
      <trkpt lat="43.22353" lon="5.47247">
        <ele>464.7</ele>
        <time>2025-10-19T13:43:12Z</time>
      </trkpt>
      <trkpt lat="43.22353" lon="5.47249">
        <ele>464.7</ele>
        <time>2025-10-19T13:43:13Z</time>
      </trkpt>
      <trkpt lat="43.22354" lon="5.4725">
        <ele>464.6</ele>
        <time>2025-10-19T13:43:14Z</time>
      </trkpt>
      <trkpt lat="43.22354" lon="5.47252">
        <ele>464.7</ele>
        <time>2025-10-19T13:43:15Z</time>
      </trkpt>
      <trkpt lat="43.22354" lon="5.47254">
        <ele>464.8</ele>
        <time>2025-10-19T13:43:16Z</time>
      </trkpt>
      <trkpt lat="43.22355" lon="5.47255">
        <ele>464.8</ele>
        <time>2025-10-19T13:43:17Z</time>
      </trkpt>
      <trkpt lat="43.22355" lon="5.47256">
        <ele>464.9</ele>
        <time>2025-10-19T13:43:18Z</time>
      </trkpt>
      <trkpt lat="43.22356" lon="5.47257">
        <ele>464.9</ele>
        <time>2025-10-19T13:43:19Z</time>
      </trkpt>
      <trkpt lat="43.22356" lon="5.47259">
        <ele>464.9</ele>
        <time>2025-10-19T13:43:20Z</time>
      </trkpt>
      <trkpt lat="43.22356" lon="5.47261">
        <ele>464.9</ele>
        <time>2025-10-19T13:43:21Z</time>
      </trkpt>
      <trkpt lat="43.22357" lon="5.47262">
        <ele>464.9</ele>
        <time>2025-10-19T13:43:22Z</time>
      </trkpt>
      <trkpt lat="43.22357" lon="5.47264">
        <ele>464.9</ele>
        <time>2025-10-19T13:43:23Z</time>
      </trkpt>
      <trkpt lat="43.22358" lon="5.47265">
        <ele>464.9</ele>
        <time>2025-10-19T13:43:24Z</time>
      </trkpt>
      <trkpt lat="43.22358" lon="5.47267">
        <ele>464.9</ele>
        <time>2025-10-19T13:43:25Z</time>
      </trkpt>
      <trkpt lat="43.22358" lon="5.47268">
        <ele>464.8</ele>
        <time>2025-10-19T13:43:26Z</time>
      </trkpt>
      <trkpt lat="43.22359" lon="5.47269">
        <ele>464.7</ele>
        <time>2025-10-19T13:43:27Z</time>
      </trkpt>
      <trkpt lat="43.22359" lon="5.47271">
        <ele>464.7</ele>
        <time>2025-10-19T13:43:28Z</time>
      </trkpt>
      <trkpt lat="43.2236" lon="5.47272">
        <ele>464.6</ele>
        <time>2025-10-19T13:43:29Z</time>
      </trkpt>
      <trkpt lat="43.2236" lon="5.47274">
        <ele>464.6</ele>
        <time>2025-10-19T13:43:30Z</time>
      </trkpt>
      <trkpt lat="43.2236" lon="5.47275">
        <ele>464.7</ele>
        <time>2025-10-19T13:43:31Z</time>
      </trkpt>
      <trkpt lat="43.22361" lon="5.47276">
        <ele>464.7</ele>
        <time>2025-10-19T13:43:32Z</time>
      </trkpt>
      <trkpt lat="43.22361" lon="5.47278">
        <ele>464.8</ele>
        <time>2025-10-19T13:43:33Z</time>
      </trkpt>
      <trkpt lat="43.22362" lon="5.4728">
        <ele>464.8</ele>
        <time>2025-10-19T13:43:34Z</time>
      </trkpt>
      <trkpt lat="43.22362" lon="5.47281">
        <ele>464.8</ele>
        <time>2025-10-19T13:43:35Z</time>
      </trkpt>
      <trkpt lat="43.22363" lon="5.47283">
        <ele>464.7</ele>
        <time>2025-10-19T13:43:36Z</time>
      </trkpt>
      <trkpt lat="43.22363" lon="5.47284">
        <ele>464.7</ele>
        <time>2025-10-19T13:43:37Z</time>
      </trkpt>
      <trkpt lat="43.22364" lon="5.47286">
        <ele>464.6</ele>
        <time>2025-10-19T13:43:38Z</time>
      </trkpt>
      <trkpt lat="43.22364" lon="5.47287">
        <ele>464.6</ele>
        <time>2025-10-19T13:43:39Z</time>
      </trkpt>
      <trkpt lat="43.22365" lon="5.47288">
        <ele>464.6</ele>
        <time>2025-10-19T13:43:40Z</time>
      </trkpt>
      <trkpt lat="43.22365" lon="5.4729">
        <ele>464.7</ele>
        <time>2025-10-19T13:43:41Z</time>
      </trkpt>
      <trkpt lat="43.22366" lon="5.47291">
        <ele>464.8</ele>
        <time>2025-10-19T13:43:42Z</time>
      </trkpt>
      <trkpt lat="43.22366" lon="5.47292">
        <ele>464.9</ele>
        <time>2025-10-19T13:43:43Z</time>
      </trkpt>
      <trkpt lat="43.22367" lon="5.47294">
        <ele>465</ele>
        <time>2025-10-19T13:43:44Z</time>
      </trkpt>
      <trkpt lat="43.22367" lon="5.47295">
        <ele>464.9</ele>
        <time>2025-10-19T13:43:45Z</time>
      </trkpt>
      <trkpt lat="43.22368" lon="5.47297">
        <ele>464.8</ele>
        <time>2025-10-19T13:43:46Z</time>
      </trkpt>
      <trkpt lat="43.22368" lon="5.47298">
        <ele>464.8</ele>
        <time>2025-10-19T13:43:47Z</time>
      </trkpt>
      <trkpt lat="43.22369" lon="5.473">
        <ele>464.8</ele>
        <time>2025-10-19T13:43:48Z</time>
      </trkpt>
      <trkpt lat="43.22369" lon="5.47302">
        <ele>464.9</ele>
        <time>2025-10-19T13:43:49Z</time>
      </trkpt>
      <trkpt lat="43.22369" lon="5.47303">
        <ele>465.1</ele>
        <time>2025-10-19T13:43:50Z</time>
      </trkpt>
      <trkpt lat="43.2237" lon="5.47305">
        <ele>465.2</ele>
        <time>2025-10-19T13:43:51Z</time>
      </trkpt>
      <trkpt lat="43.2237" lon="5.47306">
        <ele>465.3</ele>
        <time>2025-10-19T13:43:52Z</time>
      </trkpt>
      <trkpt lat="43.22371" lon="5.47308">
        <ele>465.4</ele>
        <time>2025-10-19T13:43:53Z</time>
      </trkpt>
      <trkpt lat="43.22371" lon="5.47309">
        <ele>465.3</ele>
        <time>2025-10-19T13:43:54Z</time>
      </trkpt>
      <trkpt lat="43.22372" lon="5.4731">
        <ele>465.3</ele>
        <time>2025-10-19T13:43:55Z</time>
      </trkpt>
      <trkpt lat="43.22372" lon="5.47312">
        <ele>465.3</ele>
        <time>2025-10-19T13:43:56Z</time>
      </trkpt>
      <trkpt lat="43.22373" lon="5.47313">
        <ele>465.2</ele>
        <time>2025-10-19T13:43:57Z</time>
      </trkpt>
      <trkpt lat="43.22373" lon="5.47314">
        <ele>465.2</ele>
        <time>2025-10-19T13:43:58Z</time>
      </trkpt>
      <trkpt lat="43.22374" lon="5.47316">
        <ele>465.1</ele>
        <time>2025-10-19T13:43:59Z</time>
      </trkpt>
      <trkpt lat="43.22374" lon="5.47317">
        <ele>465.1</ele>
        <time>2025-10-19T13:44:00Z</time>
      </trkpt>
      <trkpt lat="43.22375" lon="5.47319">
        <ele>465.1</ele>
        <time>2025-10-19T13:44:01Z</time>
      </trkpt>
      <trkpt lat="43.22376" lon="5.4732">
        <ele>465</ele>
        <time>2025-10-19T13:44:02Z</time>
      </trkpt>
      <trkpt lat="43.22376" lon="5.47322">
        <ele>465</ele>
        <time>2025-10-19T13:44:03Z</time>
      </trkpt>
      <trkpt lat="43.22377" lon="5.47323">
        <ele>464.9</ele>
        <time>2025-10-19T13:44:04Z</time>
      </trkpt>
      <trkpt lat="43.22377" lon="5.47324">
        <ele>464.9</ele>
        <time>2025-10-19T13:44:05Z</time>
      </trkpt>
      <trkpt lat="43.22378" lon="5.47326">
        <ele>464.8</ele>
        <time>2025-10-19T13:44:06Z</time>
      </trkpt>
      <trkpt lat="43.22378" lon="5.47327">
        <ele>464.7</ele>
        <time>2025-10-19T13:44:07Z</time>
      </trkpt>
      <trkpt lat="43.22378" lon="5.47329">
        <ele>464.8</ele>
        <time>2025-10-19T13:44:08Z</time>
      </trkpt>
      <trkpt lat="43.22379" lon="5.4733">
        <ele>464.8</ele>
        <time>2025-10-19T13:44:09Z</time>
      </trkpt>
      <trkpt lat="43.2238" lon="5.47331">
        <ele>464.9</ele>
        <time>2025-10-19T13:44:10Z</time>
      </trkpt>
      <trkpt lat="43.2238" lon="5.47332">
        <ele>465</ele>
        <time>2025-10-19T13:44:11Z</time>
      </trkpt>
      <trkpt lat="43.22381" lon="5.47334">
        <ele>465</ele>
        <time>2025-10-19T13:44:12Z</time>
      </trkpt>
      <trkpt lat="43.22381" lon="5.47335">
        <ele>465.1</ele>
        <time>2025-10-19T13:44:13Z</time>
      </trkpt>
      <trkpt lat="43.22382" lon="5.47336">
        <ele>465.1</ele>
        <time>2025-10-19T13:44:14Z</time>
      </trkpt>
      <trkpt lat="43.22382" lon="5.47338">
        <ele>465.1</ele>
        <time>2025-10-19T13:44:15Z</time>
      </trkpt>
      <trkpt lat="43.22383" lon="5.47339">
        <ele>465.2</ele>
        <time>2025-10-19T13:44:16Z</time>
      </trkpt>
      <trkpt lat="43.22383" lon="5.4734">
        <ele>465.2</ele>
        <time>2025-10-19T13:44:17Z</time>
      </trkpt>
      <trkpt lat="43.22384" lon="5.47341">
        <ele>465.2</ele>
        <time>2025-10-19T13:44:18Z</time>
      </trkpt>
      <trkpt lat="43.22384" lon="5.47343">
        <ele>465.1</ele>
        <time>2025-10-19T13:44:19Z</time>
      </trkpt>
      <trkpt lat="43.22385" lon="5.47344">
        <ele>465.2</ele>
        <time>2025-10-19T13:44:20Z</time>
      </trkpt>
      <trkpt lat="43.22385" lon="5.47345">
        <ele>465.2</ele>
        <time>2025-10-19T13:44:21Z</time>
      </trkpt>
      <trkpt lat="43.22386" lon="5.47346">
        <ele>465.1</ele>
        <time>2025-10-19T13:44:22Z</time>
      </trkpt>
      <trkpt lat="43.22386" lon="5.47348">
        <ele>465.1</ele>
        <time>2025-10-19T13:44:23Z</time>
      </trkpt>
      <trkpt lat="43.22386" lon="5.47349">
        <ele>465</ele>
        <time>2025-10-19T13:44:24Z</time>
      </trkpt>
      <trkpt lat="43.22387" lon="5.4735">
        <ele>465</ele>
        <time>2025-10-19T13:44:25Z</time>
      </trkpt>
      <trkpt lat="43.22387" lon="5.47351">
        <ele>465</ele>
        <time>2025-10-19T13:44:26Z</time>
      </trkpt>
      <trkpt lat="43.22388" lon="5.47353">
        <ele>464.8</ele>
        <time>2025-10-19T13:44:27Z</time>
      </trkpt>
      <trkpt lat="43.22388" lon="5.47354">
        <ele>464.7</ele>
        <time>2025-10-19T13:44:28Z</time>
      </trkpt>
      <trkpt lat="43.22388" lon="5.47355">
        <ele>464.7</ele>
        <time>2025-10-19T13:44:29Z</time>
      </trkpt>
      <trkpt lat="43.22388" lon="5.47356">
        <ele>464.6</ele>
        <time>2025-10-19T13:44:30Z</time>
      </trkpt>
      <trkpt lat="43.22389" lon="5.47358">
        <ele>464.5</ele>
        <time>2025-10-19T13:44:31Z</time>
      </trkpt>
      <trkpt lat="43.22389" lon="5.47359">
        <ele>464.4</ele>
        <time>2025-10-19T13:44:32Z</time>
      </trkpt>
      <trkpt lat="43.22389" lon="5.4736">
        <ele>464.3</ele>
        <time>2025-10-19T13:44:33Z</time>
      </trkpt>
      <trkpt lat="43.2239" lon="5.47362">
        <ele>464.2</ele>
        <time>2025-10-19T13:44:34Z</time>
      </trkpt>
      <trkpt lat="43.2239" lon="5.47363">
        <ele>464.2</ele>
        <time>2025-10-19T13:44:35Z</time>
      </trkpt>
      <trkpt lat="43.2239" lon="5.47364">
        <ele>464.1</ele>
        <time>2025-10-19T13:44:36Z</time>
      </trkpt>
      <trkpt lat="43.2239" lon="5.47365">
        <ele>464</ele>
        <time>2025-10-19T13:44:37Z</time>
      </trkpt>
      <trkpt lat="43.2239" lon="5.47367">
        <ele>463.8</ele>
        <time>2025-10-19T13:44:38Z</time>
      </trkpt>
      <trkpt lat="43.22391" lon="5.47368">
        <ele>463.6</ele>
        <time>2025-10-19T13:44:39Z</time>
      </trkpt>
      <trkpt lat="43.22391" lon="5.47369">
        <ele>463.5</ele>
        <time>2025-10-19T13:44:40Z</time>
      </trkpt>
      <trkpt lat="43.22391" lon="5.47371">
        <ele>463.3</ele>
        <time>2025-10-19T13:44:41Z</time>
      </trkpt>
      <trkpt lat="43.22391" lon="5.47372">
        <ele>463.3</ele>
        <time>2025-10-19T13:44:42Z</time>
      </trkpt>
      <trkpt lat="43.22391" lon="5.47373">
        <ele>463.2</ele>
        <time>2025-10-19T13:44:43Z</time>
      </trkpt>
      <trkpt lat="43.22391" lon="5.47374">
        <ele>463.1</ele>
        <time>2025-10-19T13:44:44Z</time>
      </trkpt>
      <trkpt lat="43.22391" lon="5.47375">
        <ele>463</ele>
        <time>2025-10-19T13:44:45Z</time>
      </trkpt>
      <trkpt lat="43.22391" lon="5.47376">
        <ele>462.9</ele>
        <time>2025-10-19T13:44:46Z</time>
      </trkpt>
      <trkpt lat="43.22391" lon="5.47378">
        <ele>462.7</ele>
        <time>2025-10-19T13:44:47Z</time>
      </trkpt>
      <trkpt lat="43.22391" lon="5.47379">
        <ele>462.7</ele>
        <time>2025-10-19T13:44:48Z</time>
      </trkpt>
      <trkpt lat="43.22391" lon="5.4738">
        <ele>462.5</ele>
        <time>2025-10-19T13:44:49Z</time>
      </trkpt>
      <trkpt lat="43.22391" lon="5.47381">
        <ele>462.4</ele>
        <time>2025-10-19T13:44:50Z</time>
      </trkpt>
      <trkpt lat="43.2239" lon="5.47383">
        <ele>462.3</ele>
        <time>2025-10-19T13:44:51Z</time>
      </trkpt>
      <trkpt lat="43.22391" lon="5.47384">
        <ele>462.1</ele>
        <time>2025-10-19T13:44:52Z</time>
      </trkpt>
      <trkpt lat="43.22391" lon="5.47385">
        <ele>462</ele>
        <time>2025-10-19T13:44:53Z</time>
      </trkpt>
      <trkpt lat="43.22391" lon="5.47386">
        <ele>461.8</ele>
        <time>2025-10-19T13:44:54Z</time>
      </trkpt>
      <trkpt lat="43.22391" lon="5.47387">
        <ele>461.8</ele>
        <time>2025-10-19T13:44:55Z</time>
      </trkpt>
      <trkpt lat="43.22391" lon="5.47388">
        <ele>461.8</ele>
        <time>2025-10-19T13:44:56Z</time>
      </trkpt>
      <trkpt lat="43.2239" lon="5.4739">
        <ele>461.7</ele>
        <time>2025-10-19T13:44:57Z</time>
      </trkpt>
      <trkpt lat="43.2239" lon="5.47391">
        <ele>461.4</ele>
        <time>2025-10-19T13:44:58Z</time>
      </trkpt>
      <trkpt lat="43.2239" lon="5.47392">
        <ele>461.3</ele>
        <time>2025-10-19T13:44:59Z</time>
      </trkpt>
      <trkpt lat="43.2239" lon="5.47394">
        <ele>461.3</ele>
        <time>2025-10-19T13:45:00Z</time>
      </trkpt>
      <trkpt lat="43.2239" lon="5.47395">
        <ele>461.1</ele>
        <time>2025-10-19T13:45:01Z</time>
      </trkpt>
      <trkpt lat="43.2239" lon="5.47396">
        <ele>461.1</ele>
        <time>2025-10-19T13:45:02Z</time>
      </trkpt>
      <trkpt lat="43.2239" lon="5.47397">
        <ele>461</ele>
        <time>2025-10-19T13:45:03Z</time>
      </trkpt>
      <trkpt lat="43.2239" lon="5.47398">
        <ele>461</ele>
        <time>2025-10-19T13:45:04Z</time>
      </trkpt>
      <trkpt lat="43.2239" lon="5.474">
        <ele>460.9</ele>
        <time>2025-10-19T13:45:05Z</time>
      </trkpt>
      <trkpt lat="43.2239" lon="5.47401">
        <ele>460.8</ele>
        <time>2025-10-19T13:45:06Z</time>
      </trkpt>
      <trkpt lat="43.2239" lon="5.47402">
        <ele>460.6</ele>
        <time>2025-10-19T13:45:07Z</time>
      </trkpt>
      <trkpt lat="43.2239" lon="5.47403">
        <ele>460.5</ele>
        <time>2025-10-19T13:45:08Z</time>
      </trkpt>
      <trkpt lat="43.2239" lon="5.47404">
        <ele>460.3</ele>
        <time>2025-10-19T13:45:09Z</time>
      </trkpt>
      <trkpt lat="43.2239" lon="5.47405">
        <ele>460.2</ele>
        <time>2025-10-19T13:45:10Z</time>
      </trkpt>
      <trkpt lat="43.2239" lon="5.47407">
        <ele>460.1</ele>
        <time>2025-10-19T13:45:11Z</time>
      </trkpt>
      <trkpt lat="43.2239" lon="5.47408">
        <ele>459.9</ele>
        <time>2025-10-19T13:45:12Z</time>
      </trkpt>
      <trkpt lat="43.2239" lon="5.47409">
        <ele>459.6</ele>
        <time>2025-10-19T13:45:13Z</time>
      </trkpt>
      <trkpt lat="43.2239" lon="5.4741">
        <ele>459.4</ele>
        <time>2025-10-19T13:45:14Z</time>
      </trkpt>
      <trkpt lat="43.2239" lon="5.47411">
        <ele>459.2</ele>
        <time>2025-10-19T13:45:15Z</time>
      </trkpt>
      <trkpt lat="43.2239" lon="5.47413">
        <ele>459</ele>
        <time>2025-10-19T13:45:16Z</time>
      </trkpt>
      <trkpt lat="43.2239" lon="5.47414">
        <ele>458.8</ele>
        <time>2025-10-19T13:45:17Z</time>
      </trkpt>
      <trkpt lat="43.22389" lon="5.47415">
        <ele>458.7</ele>
        <time>2025-10-19T13:45:18Z</time>
      </trkpt>
      <trkpt lat="43.22389" lon="5.47416">
        <ele>458.6</ele>
        <time>2025-10-19T13:45:19Z</time>
      </trkpt>
      <trkpt lat="43.22389" lon="5.47418">
        <ele>458.5</ele>
        <time>2025-10-19T13:45:20Z</time>
      </trkpt>
      <trkpt lat="43.22389" lon="5.47419">
        <ele>458.4</ele>
        <time>2025-10-19T13:45:21Z</time>
      </trkpt>
      <trkpt lat="43.22389" lon="5.4742">
        <ele>458.4</ele>
        <time>2025-10-19T13:45:22Z</time>
      </trkpt>
      <trkpt lat="43.22388" lon="5.47422">
        <ele>458.2</ele>
        <time>2025-10-19T13:45:23Z</time>
      </trkpt>
      <trkpt lat="43.22388" lon="5.47423">
        <ele>458</ele>
        <time>2025-10-19T13:45:24Z</time>
      </trkpt>
      <trkpt lat="43.22388" lon="5.47424">
        <ele>457.9</ele>
        <time>2025-10-19T13:45:25Z</time>
      </trkpt>
      <trkpt lat="43.22388" lon="5.47426">
        <ele>457.8</ele>
        <time>2025-10-19T13:45:26Z</time>
      </trkpt>
      <trkpt lat="43.22388" lon="5.47427">
        <ele>457.6</ele>
        <time>2025-10-19T13:45:27Z</time>
      </trkpt>
      <trkpt lat="43.22388" lon="5.47429">
        <ele>457.5</ele>
        <time>2025-10-19T13:45:28Z</time>
      </trkpt>
      <trkpt lat="43.22387" lon="5.4743">
        <ele>457.4</ele>
        <time>2025-10-19T13:45:29Z</time>
      </trkpt>
      <trkpt lat="43.22387" lon="5.47431">
        <ele>457.3</ele>
        <time>2025-10-19T13:45:30Z</time>
      </trkpt>
      <trkpt lat="43.22387" lon="5.47432">
        <ele>457.3</ele>
        <time>2025-10-19T13:45:31Z</time>
      </trkpt>
      <trkpt lat="43.22386" lon="5.47434">
        <ele>457.1</ele>
        <time>2025-10-19T13:45:32Z</time>
      </trkpt>
      <trkpt lat="43.22386" lon="5.47435">
        <ele>456.9</ele>
        <time>2025-10-19T13:45:33Z</time>
      </trkpt>
      <trkpt lat="43.22386" lon="5.47437">
        <ele>456.8</ele>
        <time>2025-10-19T13:45:34Z</time>
      </trkpt>
      <trkpt lat="43.22385" lon="5.47438">
        <ele>456.7</ele>
        <time>2025-10-19T13:45:35Z</time>
      </trkpt>
      <trkpt lat="43.22385" lon="5.4744">
        <ele>456.6</ele>
        <time>2025-10-19T13:45:36Z</time>
      </trkpt>
      <trkpt lat="43.22385" lon="5.47441">
        <ele>456.4</ele>
        <time>2025-10-19T13:45:37Z</time>
      </trkpt>
      <trkpt lat="43.22385" lon="5.47443">
        <ele>456.3</ele>
        <time>2025-10-19T13:45:38Z</time>
      </trkpt>
      <trkpt lat="43.22385" lon="5.47444">
        <ele>456.1</ele>
        <time>2025-10-19T13:45:39Z</time>
      </trkpt>
      <trkpt lat="43.22385" lon="5.47445">
        <ele>456.1</ele>
        <time>2025-10-19T13:45:40Z</time>
      </trkpt>
      <trkpt lat="43.22384" lon="5.47447">
        <ele>456.2</ele>
        <time>2025-10-19T13:45:41Z</time>
      </trkpt>
      <trkpt lat="43.22384" lon="5.47449">
        <ele>456.1</ele>
        <time>2025-10-19T13:45:42Z</time>
      </trkpt>
      <trkpt lat="43.22385" lon="5.4745">
        <ele>456</ele>
        <time>2025-10-19T13:45:43Z</time>
      </trkpt>
      <trkpt lat="43.22385" lon="5.47452">
        <ele>455.9</ele>
        <time>2025-10-19T13:45:44Z</time>
      </trkpt>
      <trkpt lat="43.22385" lon="5.47454">
        <ele>455.7</ele>
        <time>2025-10-19T13:45:45Z</time>
      </trkpt>
      <trkpt lat="43.22386" lon="5.47455">
        <ele>455.4</ele>
        <time>2025-10-19T13:45:46Z</time>
      </trkpt>
      <trkpt lat="43.22387" lon="5.47456">
        <ele>455.3</ele>
        <time>2025-10-19T13:45:47Z</time>
      </trkpt>
      <trkpt lat="43.22388" lon="5.47457">
        <ele>455.1</ele>
        <time>2025-10-19T13:45:48Z</time>
      </trkpt>
      <trkpt lat="43.22389" lon="5.47458">
        <ele>454.9</ele>
        <time>2025-10-19T13:45:49Z</time>
      </trkpt>
      <trkpt lat="43.2239" lon="5.47459">
        <ele>454.6</ele>
        <time>2025-10-19T13:45:50Z</time>
      </trkpt>
      <trkpt lat="43.22391" lon="5.4746">
        <ele>454.5</ele>
        <time>2025-10-19T13:45:51Z</time>
      </trkpt>
      <trkpt lat="43.22392" lon="5.4746">
        <ele>454.4</ele>
        <time>2025-10-19T13:45:52Z</time>
      </trkpt>
      <trkpt lat="43.22392" lon="5.47461">
        <ele>454.3</ele>
        <time>2025-10-19T13:45:53Z</time>
      </trkpt>
      <trkpt lat="43.22393" lon="5.47462">
        <ele>454.2</ele>
        <time>2025-10-19T13:45:54Z</time>
      </trkpt>
      <trkpt lat="43.22394" lon="5.47463">
        <ele>454</ele>
        <time>2025-10-19T13:45:55Z</time>
      </trkpt>
      <trkpt lat="43.22395" lon="5.47464">
        <ele>453.9</ele>
        <time>2025-10-19T13:45:56Z</time>
      </trkpt>
      <trkpt lat="43.22396" lon="5.47464">
        <ele>453.8</ele>
        <time>2025-10-19T13:45:57Z</time>
      </trkpt>
      <trkpt lat="43.22397" lon="5.47465">
        <ele>453.7</ele>
        <time>2025-10-19T13:45:58Z</time>
      </trkpt>
      <trkpt lat="43.22397" lon="5.47466">
        <ele>453.7</ele>
        <time>2025-10-19T13:45:59Z</time>
      </trkpt>
      <trkpt lat="43.22398" lon="5.47466">
        <ele>453.6</ele>
        <time>2025-10-19T13:46:00Z</time>
      </trkpt>
      <trkpt lat="43.22399" lon="5.47467">
        <ele>453.5</ele>
        <time>2025-10-19T13:46:01Z</time>
      </trkpt>
      <trkpt lat="43.224" lon="5.47468">
        <ele>453.5</ele>
        <time>2025-10-19T13:46:02Z</time>
      </trkpt>
      <trkpt lat="43.224" lon="5.47468">
        <ele>453.3</ele>
        <time>2025-10-19T13:46:03Z</time>
      </trkpt>
      <trkpt lat="43.22401" lon="5.47469">
        <ele>453.2</ele>
        <time>2025-10-19T13:46:04Z</time>
      </trkpt>
      <trkpt lat="43.22402" lon="5.47469">
        <ele>453.2</ele>
        <time>2025-10-19T13:46:05Z</time>
      </trkpt>
      <trkpt lat="43.22403" lon="5.4747">
        <ele>453</ele>
        <time>2025-10-19T13:46:06Z</time>
      </trkpt>
      <trkpt lat="43.22403" lon="5.4747">
        <ele>452.9</ele>
        <time>2025-10-19T13:46:07Z</time>
      </trkpt>
      <trkpt lat="43.22404" lon="5.47471">
        <ele>452.7</ele>
        <time>2025-10-19T13:46:08Z</time>
      </trkpt>
      <trkpt lat="43.22405" lon="5.47471">
        <ele>452.6</ele>
        <time>2025-10-19T13:46:09Z</time>
      </trkpt>
      <trkpt lat="43.22405" lon="5.47472">
        <ele>452.5</ele>
        <time>2025-10-19T13:46:10Z</time>
      </trkpt>
      <trkpt lat="43.22406" lon="5.47473">
        <ele>452.4</ele>
        <time>2025-10-19T13:46:11Z</time>
      </trkpt>
      <trkpt lat="43.22407" lon="5.47474">
        <ele>452.3</ele>
        <time>2025-10-19T13:46:12Z</time>
      </trkpt>
      <trkpt lat="43.22408" lon="5.47475">
        <ele>452.2</ele>
        <time>2025-10-19T13:46:13Z</time>
      </trkpt>
      <trkpt lat="43.22408" lon="5.47476">
        <ele>452.1</ele>
        <time>2025-10-19T13:46:14Z</time>
      </trkpt>
      <trkpt lat="43.22409" lon="5.47477">
        <ele>451.9</ele>
        <time>2025-10-19T13:46:15Z</time>
      </trkpt>
      <trkpt lat="43.22409" lon="5.47478">
        <ele>451.8</ele>
        <time>2025-10-19T13:46:16Z</time>
      </trkpt>
      <trkpt lat="43.2241" lon="5.4748">
        <ele>451.6</ele>
        <time>2025-10-19T13:46:17Z</time>
      </trkpt>
      <trkpt lat="43.2241" lon="5.47481">
        <ele>451.5</ele>
        <time>2025-10-19T13:46:18Z</time>
      </trkpt>
      <trkpt lat="43.2241" lon="5.47483">
        <ele>451.3</ele>
        <time>2025-10-19T13:46:19Z</time>
      </trkpt>
      <trkpt lat="43.2241" lon="5.47484">
        <ele>451.2</ele>
        <time>2025-10-19T13:46:20Z</time>
      </trkpt>
      <trkpt lat="43.2241" lon="5.47486">
        <ele>451.2</ele>
        <time>2025-10-19T13:46:21Z</time>
      </trkpt>
      <trkpt lat="43.2241" lon="5.47487">
        <ele>451.1</ele>
        <time>2025-10-19T13:46:22Z</time>
      </trkpt>
      <trkpt lat="43.22411" lon="5.47489">
        <ele>451</ele>
        <time>2025-10-19T13:46:23Z</time>
      </trkpt>
      <trkpt lat="43.22411" lon="5.4749">
        <ele>450.9</ele>
        <time>2025-10-19T13:46:24Z</time>
      </trkpt>
      <trkpt lat="43.22411" lon="5.47491">
        <ele>450.8</ele>
        <time>2025-10-19T13:46:25Z</time>
      </trkpt>
      <trkpt lat="43.22412" lon="5.47493">
        <ele>450.6</ele>
        <time>2025-10-19T13:46:26Z</time>
      </trkpt>
      <trkpt lat="43.22411" lon="5.47494">
        <ele>450.4</ele>
        <time>2025-10-19T13:46:27Z</time>
      </trkpt>
      <trkpt lat="43.22411" lon="5.47495">
        <ele>450.4</ele>
        <time>2025-10-19T13:46:28Z</time>
      </trkpt>
      <trkpt lat="43.22411" lon="5.47497">
        <ele>450.3</ele>
        <time>2025-10-19T13:46:29Z</time>
      </trkpt>
      <trkpt lat="43.22411" lon="5.47498">
        <ele>450.2</ele>
        <time>2025-10-19T13:46:30Z</time>
      </trkpt>
      <trkpt lat="43.22411" lon="5.475">
        <ele>450</ele>
        <time>2025-10-19T13:46:31Z</time>
      </trkpt>
      <trkpt lat="43.22411" lon="5.47502">
        <ele>449.9</ele>
        <time>2025-10-19T13:46:32Z</time>
      </trkpt>
      <trkpt lat="43.22411" lon="5.47503">
        <ele>449.7</ele>
        <time>2025-10-19T13:46:33Z</time>
      </trkpt>
      <trkpt lat="43.22412" lon="5.47505">
        <ele>449.7</ele>
        <time>2025-10-19T13:46:34Z</time>
      </trkpt>
      <trkpt lat="43.22412" lon="5.47506">
        <ele>449.5</ele>
        <time>2025-10-19T13:46:35Z</time>
      </trkpt>
      <trkpt lat="43.22412" lon="5.47508">
        <ele>449.3</ele>
        <time>2025-10-19T13:46:36Z</time>
      </trkpt>
      <trkpt lat="43.22412" lon="5.47509">
        <ele>449.3</ele>
        <time>2025-10-19T13:46:37Z</time>
      </trkpt>
      <trkpt lat="43.22412" lon="5.47511">
        <ele>449.3</ele>
        <time>2025-10-19T13:46:38Z</time>
      </trkpt>
      <trkpt lat="43.22413" lon="5.47513">
        <ele>449.2</ele>
        <time>2025-10-19T13:46:39Z</time>
      </trkpt>
      <trkpt lat="43.22413" lon="5.47514">
        <ele>449.2</ele>
        <time>2025-10-19T13:46:40Z</time>
      </trkpt>
      <trkpt lat="43.22413" lon="5.47515">
        <ele>449.4</ele>
        <time>2025-10-19T13:46:41Z</time>
      </trkpt>
      <trkpt lat="43.22412" lon="5.47516">
        <ele>449.4</ele>
        <time>2025-10-19T13:46:42Z</time>
      </trkpt>
      <trkpt lat="43.22411" lon="5.47516">
        <ele>449.4</ele>
        <time>2025-10-19T13:46:43Z</time>
      </trkpt>
      <trkpt lat="43.2241" lon="5.47516">
        <ele>449.3</ele>
        <time>2025-10-19T13:46:44Z</time>
      </trkpt>
      <trkpt lat="43.22409" lon="5.47516">
        <ele>449.3</ele>
        <time>2025-10-19T13:46:45Z</time>
      </trkpt>
      <trkpt lat="43.22408" lon="5.47516">
        <ele>449.3</ele>
        <time>2025-10-19T13:46:46Z</time>
      </trkpt>
      <trkpt lat="43.22406" lon="5.47516">
        <ele>449.3</ele>
        <time>2025-10-19T13:46:47Z</time>
      </trkpt>
      <trkpt lat="43.22405" lon="5.47516">
        <ele>449.2</ele>
        <time>2025-10-19T13:46:48Z</time>
      </trkpt>
      <trkpt lat="43.22404" lon="5.47515">
        <ele>449.4</ele>
        <time>2025-10-19T13:46:49Z</time>
      </trkpt>
      <trkpt lat="43.22403" lon="5.47515">
        <ele>449.4</ele>
        <time>2025-10-19T13:46:50Z</time>
      </trkpt>
      <trkpt lat="43.22402" lon="5.47516">
        <ele>449.5</ele>
        <time>2025-10-19T13:46:51Z</time>
      </trkpt>
      <trkpt lat="43.22401" lon="5.47516">
        <ele>449.6</ele>
        <time>2025-10-19T13:46:52Z</time>
      </trkpt>
      <trkpt lat="43.224" lon="5.47517">
        <ele>449.6</ele>
        <time>2025-10-19T13:46:53Z</time>
      </trkpt>
      <trkpt lat="43.22398" lon="5.47517">
        <ele>449.7</ele>
        <time>2025-10-19T13:46:54Z</time>
      </trkpt>
      <trkpt lat="43.22398" lon="5.47517">
        <ele>449.8</ele>
        <time>2025-10-19T13:46:55Z</time>
      </trkpt>
      <trkpt lat="43.22397" lon="5.47517">
        <ele>449.9</ele>
        <time>2025-10-19T13:46:56Z</time>
      </trkpt>
      <trkpt lat="43.22396" lon="5.47518">
        <ele>450.2</ele>
        <time>2025-10-19T13:46:57Z</time>
      </trkpt>
      <trkpt lat="43.22394" lon="5.47519">
        <ele>450.1</ele>
        <time>2025-10-19T13:46:58Z</time>
      </trkpt>
      <trkpt lat="43.22394" lon="5.47519">
        <ele>450.2</ele>
        <time>2025-10-19T13:46:59Z</time>
      </trkpt>
      <trkpt lat="43.22393" lon="5.47521">
        <ele>450.4</ele>
        <time>2025-10-19T13:47:00Z</time>
      </trkpt>
      <trkpt lat="43.22392" lon="5.47521">
        <ele>450.6</ele>
        <time>2025-10-19T13:47:01Z</time>
      </trkpt>
      <trkpt lat="43.22391" lon="5.47522">
        <ele>450.8</ele>
        <time>2025-10-19T13:47:02Z</time>
      </trkpt>
      <trkpt lat="43.2239" lon="5.47522">
        <ele>451</ele>
        <time>2025-10-19T13:47:03Z</time>
      </trkpt>
      <trkpt lat="43.22389" lon="5.47523">
        <ele>451.1</ele>
        <time>2025-10-19T13:47:04Z</time>
      </trkpt>
      <trkpt lat="43.22389" lon="5.47523">
        <ele>451.2</ele>
        <time>2025-10-19T13:47:05Z</time>
      </trkpt>
      <trkpt lat="43.22388" lon="5.47524">
        <ele>451.3</ele>
        <time>2025-10-19T13:47:06Z</time>
      </trkpt>
      <trkpt lat="43.22388" lon="5.47524">
        <ele>451.4</ele>
        <time>2025-10-19T13:47:07Z</time>
      </trkpt>
      <trkpt lat="43.22388" lon="5.47524">
        <ele>451.3</ele>
        <time>2025-10-19T13:47:08Z</time>
      </trkpt>
      <trkpt lat="43.22388" lon="5.47524">
        <ele>451.5</ele>
        <time>2025-10-19T13:47:09Z</time>
      </trkpt>
      <trkpt lat="43.22387" lon="5.47525">
        <ele>451.3</ele>
        <time>2025-10-19T13:47:10Z</time>
      </trkpt>
      <trkpt lat="43.22386" lon="5.47525">
        <ele>450.8</ele>
        <time>2025-10-19T13:47:11Z</time>
      </trkpt>
      <trkpt lat="43.22386" lon="5.47526">
        <ele>450.9</ele>
        <time>2025-10-19T13:47:12Z</time>
      </trkpt>
      <trkpt lat="43.22385" lon="5.47526">
        <ele>450.7</ele>
        <time>2025-10-19T13:47:13Z</time>
      </trkpt>
      <trkpt lat="43.22384" lon="5.47527">
        <ele>450.5</ele>
        <time>2025-10-19T13:47:14Z</time>
      </trkpt>
      <trkpt lat="43.22383" lon="5.47527">
        <ele>450.4</ele>
        <time>2025-10-19T13:47:15Z</time>
      </trkpt>
      <trkpt lat="43.22382" lon="5.47528">
        <ele>450.4</ele>
        <time>2025-10-19T13:47:16Z</time>
      </trkpt>
      <trkpt lat="43.22381" lon="5.47529">
        <ele>450.3</ele>
        <time>2025-10-19T13:47:17Z</time>
      </trkpt>
      <trkpt lat="43.22381" lon="5.47529">
        <ele>450</ele>
        <time>2025-10-19T13:47:18Z</time>
      </trkpt>
      <trkpt lat="43.2238" lon="5.4753">
        <ele>449.8</ele>
        <time>2025-10-19T13:47:19Z</time>
      </trkpt>
      <trkpt lat="43.22379" lon="5.4753">
        <ele>449.5</ele>
        <time>2025-10-19T13:47:20Z</time>
      </trkpt>
      <trkpt lat="43.22378" lon="5.47531">
        <ele>449.6</ele>
        <time>2025-10-19T13:47:21Z</time>
      </trkpt>
      <trkpt lat="43.22378" lon="5.47531">
        <ele>449.3</ele>
        <time>2025-10-19T13:47:22Z</time>
      </trkpt>
      <trkpt lat="43.22377" lon="5.47532">
        <ele>449.2</ele>
        <time>2025-10-19T13:47:23Z</time>
      </trkpt>
      <trkpt lat="43.22377" lon="5.47533">
        <ele>449.1</ele>
        <time>2025-10-19T13:47:24Z</time>
      </trkpt>
      <trkpt lat="43.22376" lon="5.47534">
        <ele>449</ele>
        <time>2025-10-19T13:47:25Z</time>
      </trkpt>
      <trkpt lat="43.22376" lon="5.47534">
        <ele>449.3</ele>
        <time>2025-10-19T13:47:26Z</time>
      </trkpt>
      <trkpt lat="43.22376" lon="5.47535">
        <ele>449.1</ele>
        <time>2025-10-19T13:47:27Z</time>
      </trkpt>
      <trkpt lat="43.22376" lon="5.47535">
        <ele>448.8</ele>
        <time>2025-10-19T13:47:28Z</time>
      </trkpt>
      <trkpt lat="43.22376" lon="5.47536">
        <ele>448.4</ele>
        <time>2025-10-19T13:47:29Z</time>
      </trkpt>
      <trkpt lat="43.22376" lon="5.47536">
        <ele>448.2</ele>
        <time>2025-10-19T13:47:30Z</time>
      </trkpt>
      <trkpt lat="43.22376" lon="5.47536">
        <ele>448</ele>
        <time>2025-10-19T13:47:31Z</time>
      </trkpt>
      <trkpt lat="43.22376" lon="5.47536">
        <ele>447.5</ele>
        <time>2025-10-19T13:47:32Z</time>
      </trkpt>
      <trkpt lat="43.22376" lon="5.47536">
        <ele>447.2</ele>
        <time>2025-10-19T13:47:33Z</time>
      </trkpt>
      <trkpt lat="43.22376" lon="5.47536">
        <ele>447</ele>
        <time>2025-10-19T13:47:34Z</time>
      </trkpt>
      <trkpt lat="43.22376" lon="5.47536">
        <ele>446.8</ele>
        <time>2025-10-19T13:47:35Z</time>
      </trkpt>
      <trkpt lat="43.22376" lon="5.47536">
        <ele>446.7</ele>
        <time>2025-10-19T13:47:36Z</time>
      </trkpt>
      <trkpt lat="43.22376" lon="5.47536">
        <ele>446.6</ele>
        <time>2025-10-19T13:47:37Z</time>
      </trkpt>
      <trkpt lat="43.22376" lon="5.47536">
        <ele>446.2</ele>
        <time>2025-10-19T13:47:38Z</time>
      </trkpt>
      <trkpt lat="43.22376" lon="5.47536">
        <ele>446.4</ele>
        <time>2025-10-19T13:47:39Z</time>
      </trkpt>
      <trkpt lat="43.22376" lon="5.47536">
        <ele>446.6</ele>
        <time>2025-10-19T13:47:40Z</time>
      </trkpt>
      <trkpt lat="43.22376" lon="5.47536">
        <ele>446.7</ele>
        <time>2025-10-19T13:47:41Z</time>
      </trkpt>
      <trkpt lat="43.22376" lon="5.47536">
        <ele>446.6</ele>
        <time>2025-10-19T13:47:42Z</time>
      </trkpt>
      <trkpt lat="43.22376" lon="5.47536">
        <ele>446.5</ele>
        <time>2025-10-19T13:47:43Z</time>
      </trkpt>
      <trkpt lat="43.22376" lon="5.47536">
        <ele>446.8</ele>
        <time>2025-10-19T13:47:44Z</time>
      </trkpt>
      <trkpt lat="43.22376" lon="5.47536">
        <ele>446.7</ele>
        <time>2025-10-19T13:47:45Z</time>
      </trkpt>
      <trkpt lat="43.22376" lon="5.47536">
        <ele>446.6</ele>
        <time>2025-10-19T13:47:46Z</time>
      </trkpt>
      <trkpt lat="43.22376" lon="5.47536">
        <ele>446.5</ele>
        <time>2025-10-19T13:47:47Z</time>
      </trkpt>
      <trkpt lat="43.22376" lon="5.47536">
        <ele>446.6</ele>
        <time>2025-10-19T13:47:48Z</time>
      </trkpt>
      <trkpt lat="43.22377" lon="5.47537">
        <ele>445.9</ele>
        <time>2025-10-19T13:47:49Z</time>
      </trkpt>
      <trkpt lat="43.22377" lon="5.47536">
        <ele>445.7</ele>
        <time>2025-10-19T13:47:50Z</time>
      </trkpt>
      <trkpt lat="43.22378" lon="5.47536">
        <ele>445.8</ele>
        <time>2025-10-19T13:47:51Z</time>
      </trkpt>
      <trkpt lat="43.22379" lon="5.47536">
        <ele>445.4</ele>
        <time>2025-10-19T13:47:52Z</time>
      </trkpt>
      <trkpt lat="43.22379" lon="5.47536">
        <ele>445.7</ele>
        <time>2025-10-19T13:47:53Z</time>
      </trkpt>
      <trkpt lat="43.2238" lon="5.47536">
        <ele>445.7</ele>
        <time>2025-10-19T13:47:54Z</time>
      </trkpt>
      <trkpt lat="43.2238" lon="5.47536">
        <ele>445.6</ele>
        <time>2025-10-19T13:47:55Z</time>
      </trkpt>
      <trkpt lat="43.22381" lon="5.47537">
        <ele>445.6</ele>
        <time>2025-10-19T13:47:56Z</time>
      </trkpt>
      <trkpt lat="43.22382" lon="5.47537">
        <ele>445.7</ele>
        <time>2025-10-19T13:47:57Z</time>
      </trkpt>
      <trkpt lat="43.22383" lon="5.47538">
        <ele>445.8</ele>
        <time>2025-10-19T13:47:58Z</time>
      </trkpt>
      <trkpt lat="43.22384" lon="5.47538">
        <ele>446</ele>
        <time>2025-10-19T13:47:59Z</time>
      </trkpt>
      <trkpt lat="43.22385" lon="5.47537">
        <ele>446.2</ele>
        <time>2025-10-19T13:48:00Z</time>
      </trkpt>
      <trkpt lat="43.22386" lon="5.47538">
        <ele>446.3</ele>
        <time>2025-10-19T13:48:01Z</time>
      </trkpt>
      <trkpt lat="43.22387" lon="5.47538">
        <ele>446.5</ele>
        <time>2025-10-19T13:48:02Z</time>
      </trkpt>
      <trkpt lat="43.22387" lon="5.47538">
        <ele>446.6</ele>
        <time>2025-10-19T13:48:03Z</time>
      </trkpt>
      <trkpt lat="43.22388" lon="5.47538">
        <ele>446.5</ele>
        <time>2025-10-19T13:48:04Z</time>
      </trkpt>
      <trkpt lat="43.22389" lon="5.47538">
        <ele>446.4</ele>
        <time>2025-10-19T13:48:05Z</time>
      </trkpt>
      <trkpt lat="43.2239" lon="5.47538">
        <ele>446.5</ele>
        <time>2025-10-19T13:48:06Z</time>
      </trkpt>
      <trkpt lat="43.22391" lon="5.47538">
        <ele>446.7</ele>
        <time>2025-10-19T13:48:07Z</time>
      </trkpt>
      <trkpt lat="43.22392" lon="5.47538">
        <ele>447</ele>
        <time>2025-10-19T13:48:08Z</time>
      </trkpt>
      <trkpt lat="43.22393" lon="5.47538">
        <ele>446.9</ele>
        <time>2025-10-19T13:48:09Z</time>
      </trkpt>
      <trkpt lat="43.22394" lon="5.47539">
        <ele>447.1</ele>
        <time>2025-10-19T13:48:10Z</time>
      </trkpt>
      <trkpt lat="43.22395" lon="5.47539">
        <ele>447.2</ele>
        <time>2025-10-19T13:48:11Z</time>
      </trkpt>
      <trkpt lat="43.22396" lon="5.4754">
        <ele>447.6</ele>
        <time>2025-10-19T13:48:12Z</time>
      </trkpt>
      <trkpt lat="43.22397" lon="5.47541">
        <ele>448</ele>
        <time>2025-10-19T13:48:13Z</time>
      </trkpt>
      <trkpt lat="43.22397" lon="5.47542">
        <ele>448.4</ele>
        <time>2025-10-19T13:48:14Z</time>
      </trkpt>
      <trkpt lat="43.22398" lon="5.47542">
        <ele>448.7</ele>
        <time>2025-10-19T13:48:15Z</time>
      </trkpt>
      <trkpt lat="43.22399" lon="5.47543">
        <ele>448.9</ele>
        <time>2025-10-19T13:48:16Z</time>
      </trkpt>
      <trkpt lat="43.224" lon="5.47544">
        <ele>449.1</ele>
        <time>2025-10-19T13:48:17Z</time>
      </trkpt>
      <trkpt lat="43.22401" lon="5.47545">
        <ele>449.3</ele>
        <time>2025-10-19T13:48:18Z</time>
      </trkpt>
      <trkpt lat="43.22401" lon="5.47545">
        <ele>449.6</ele>
        <time>2025-10-19T13:48:19Z</time>
      </trkpt>
      <trkpt lat="43.22402" lon="5.47546">
        <ele>449.8</ele>
        <time>2025-10-19T13:48:20Z</time>
      </trkpt>
      <trkpt lat="43.22402" lon="5.47546">
        <ele>450</ele>
        <time>2025-10-19T13:48:21Z</time>
      </trkpt>
      <trkpt lat="43.22403" lon="5.47547">
        <ele>450.1</ele>
        <time>2025-10-19T13:48:22Z</time>
      </trkpt>
      <trkpt lat="43.22404" lon="5.47547">
        <ele>450.2</ele>
        <time>2025-10-19T13:48:23Z</time>
      </trkpt>
      <trkpt lat="43.22405" lon="5.47547">
        <ele>450.1</ele>
        <time>2025-10-19T13:48:24Z</time>
      </trkpt>
      <trkpt lat="43.22406" lon="5.47548">
        <ele>450.1</ele>
        <time>2025-10-19T13:48:25Z</time>
      </trkpt>
      <trkpt lat="43.22407" lon="5.47548">
        <ele>450.3</ele>
        <time>2025-10-19T13:48:26Z</time>
      </trkpt>
      <trkpt lat="43.22407" lon="5.47549">
        <ele>450.5</ele>
        <time>2025-10-19T13:48:27Z</time>
      </trkpt>
      <trkpt lat="43.22408" lon="5.47549">
        <ele>450.6</ele>
        <time>2025-10-19T13:48:28Z</time>
      </trkpt>
      <trkpt lat="43.22409" lon="5.47549">
        <ele>450.8</ele>
        <time>2025-10-19T13:48:29Z</time>
      </trkpt>
      <trkpt lat="43.22409" lon="5.47551">
        <ele>450.9</ele>
        <time>2025-10-19T13:48:30Z</time>
      </trkpt>
      <trkpt lat="43.2241" lon="5.47551">
        <ele>451.4</ele>
        <time>2025-10-19T13:48:31Z</time>
      </trkpt>
      <trkpt lat="43.22411" lon="5.47552">
        <ele>451.9</ele>
        <time>2025-10-19T13:48:32Z</time>
      </trkpt>
      <trkpt lat="43.22412" lon="5.47553">
        <ele>452.4</ele>
        <time>2025-10-19T13:48:33Z</time>
      </trkpt>
      <trkpt lat="43.22413" lon="5.47554">
        <ele>452.6</ele>
        <time>2025-10-19T13:48:34Z</time>
      </trkpt>
      <trkpt lat="43.22413" lon="5.47555">
        <ele>452.7</ele>
        <time>2025-10-19T13:48:35Z</time>
      </trkpt>
      <trkpt lat="43.22414" lon="5.47555">
        <ele>452.6</ele>
        <time>2025-10-19T13:48:36Z</time>
      </trkpt>
      <trkpt lat="43.22415" lon="5.47555">
        <ele>452.6</ele>
        <time>2025-10-19T13:48:37Z</time>
      </trkpt>
      <trkpt lat="43.22415" lon="5.47555">
        <ele>452.6</ele>
        <time>2025-10-19T13:48:38Z</time>
      </trkpt>
      <trkpt lat="43.22416" lon="5.47555">
        <ele>452.6</ele>
        <time>2025-10-19T13:48:39Z</time>
      </trkpt>
      <trkpt lat="43.22416" lon="5.47556">
        <ele>452.6</ele>
        <time>2025-10-19T13:48:40Z</time>
      </trkpt>
      <trkpt lat="43.22417" lon="5.47556">
        <ele>452.8</ele>
        <time>2025-10-19T13:48:41Z</time>
      </trkpt>
      <trkpt lat="43.22418" lon="5.47557">
        <ele>452.9</ele>
        <time>2025-10-19T13:48:42Z</time>
      </trkpt>
      <trkpt lat="43.22418" lon="5.47558">
        <ele>453</ele>
        <time>2025-10-19T13:48:43Z</time>
      </trkpt>
      <trkpt lat="43.22419" lon="5.47559">
        <ele>453.1</ele>
        <time>2025-10-19T13:48:44Z</time>
      </trkpt>
      <trkpt lat="43.2242" lon="5.4756">
        <ele>453</ele>
        <time>2025-10-19T13:48:45Z</time>
      </trkpt>
      <trkpt lat="43.2242" lon="5.4756">
        <ele>452.9</ele>
        <time>2025-10-19T13:48:46Z</time>
      </trkpt>
      <trkpt lat="43.22421" lon="5.47561">
        <ele>452.9</ele>
        <time>2025-10-19T13:48:47Z</time>
      </trkpt>
      <trkpt lat="43.22422" lon="5.47562">
        <ele>453</ele>
        <time>2025-10-19T13:48:48Z</time>
      </trkpt>
      <trkpt lat="43.22422" lon="5.47563">
        <ele>453.1</ele>
        <time>2025-10-19T13:48:49Z</time>
      </trkpt>
      <trkpt lat="43.22423" lon="5.47564">
        <ele>453.1</ele>
        <time>2025-10-19T13:48:50Z</time>
      </trkpt>
      <trkpt lat="43.22423" lon="5.47564">
        <ele>453.2</ele>
        <time>2025-10-19T13:48:51Z</time>
      </trkpt>
      <trkpt lat="43.22423" lon="5.47565">
        <ele>453.2</ele>
        <time>2025-10-19T13:48:52Z</time>
      </trkpt>
      <trkpt lat="43.22424" lon="5.47566">
        <ele>453.4</ele>
        <time>2025-10-19T13:48:53Z</time>
      </trkpt>
      <trkpt lat="43.22425" lon="5.47566">
        <ele>453.6</ele>
        <time>2025-10-19T13:48:54Z</time>
      </trkpt>
      <trkpt lat="43.22425" lon="5.47567">
        <ele>453.8</ele>
        <time>2025-10-19T13:48:55Z</time>
      </trkpt>
      <trkpt lat="43.22426" lon="5.47568">
        <ele>453.8</ele>
        <time>2025-10-19T13:48:56Z</time>
      </trkpt>
      <trkpt lat="43.22427" lon="5.47569">
        <ele>453.9</ele>
        <time>2025-10-19T13:48:57Z</time>
      </trkpt>
      <trkpt lat="43.22427" lon="5.4757">
        <ele>453.9</ele>
        <time>2025-10-19T13:48:58Z</time>
      </trkpt>
      <trkpt lat="43.22428" lon="5.47571">
        <ele>453.8</ele>
        <time>2025-10-19T13:48:59Z</time>
      </trkpt>
      <trkpt lat="43.22429" lon="5.47571">
        <ele>453.9</ele>
        <time>2025-10-19T13:49:00Z</time>
      </trkpt>
      <trkpt lat="43.2243" lon="5.47571">
        <ele>454</ele>
        <time>2025-10-19T13:49:01Z</time>
      </trkpt>
      <trkpt lat="43.22431" lon="5.47572">
        <ele>454.1</ele>
        <time>2025-10-19T13:49:02Z</time>
      </trkpt>
      <trkpt lat="43.22432" lon="5.47572">
        <ele>454.3</ele>
        <time>2025-10-19T13:49:03Z</time>
      </trkpt>
      <trkpt lat="43.22432" lon="5.47572">
        <ele>454.5</ele>
        <time>2025-10-19T13:49:04Z</time>
      </trkpt>
      <trkpt lat="43.22433" lon="5.47573">
        <ele>454.7</ele>
        <time>2025-10-19T13:49:05Z</time>
      </trkpt>
      <trkpt lat="43.22434" lon="5.47573">
        <ele>454.9</ele>
        <time>2025-10-19T13:49:06Z</time>
      </trkpt>
      <trkpt lat="43.22435" lon="5.47573">
        <ele>455.1</ele>
        <time>2025-10-19T13:49:07Z</time>
      </trkpt>
      <trkpt lat="43.22436" lon="5.47573">
        <ele>455.4</ele>
        <time>2025-10-19T13:49:08Z</time>
      </trkpt>
      <trkpt lat="43.22437" lon="5.47574">
        <ele>455.6</ele>
        <time>2025-10-19T13:49:09Z</time>
      </trkpt>
      <trkpt lat="43.22438" lon="5.47574">
        <ele>455.9</ele>
        <time>2025-10-19T13:49:10Z</time>
      </trkpt>
      <trkpt lat="43.22439" lon="5.47575">
        <ele>456.2</ele>
        <time>2025-10-19T13:49:11Z</time>
      </trkpt>
      <trkpt lat="43.2244" lon="5.47575">
        <ele>456.5</ele>
        <time>2025-10-19T13:49:12Z</time>
      </trkpt>
      <trkpt lat="43.22441" lon="5.47576">
        <ele>456.7</ele>
        <time>2025-10-19T13:49:13Z</time>
      </trkpt>
      <trkpt lat="43.22441" lon="5.47577">
        <ele>457</ele>
        <time>2025-10-19T13:49:14Z</time>
      </trkpt>
      <trkpt lat="43.22442" lon="5.47577">
        <ele>457.3</ele>
        <time>2025-10-19T13:49:15Z</time>
      </trkpt>
      <trkpt lat="43.22443" lon="5.47578">
        <ele>457.5</ele>
        <time>2025-10-19T13:49:16Z</time>
      </trkpt>
      <trkpt lat="43.22444" lon="5.47579">
        <ele>457.6</ele>
        <time>2025-10-19T13:49:17Z</time>
      </trkpt>
      <trkpt lat="43.22444" lon="5.4758">
        <ele>457.7</ele>
        <time>2025-10-19T13:49:18Z</time>
      </trkpt>
      <trkpt lat="43.22445" lon="5.4758">
        <ele>457.8</ele>
        <time>2025-10-19T13:49:19Z</time>
      </trkpt>
      <trkpt lat="43.22445" lon="5.4758">
        <ele>457.9</ele>
        <time>2025-10-19T13:49:20Z</time>
      </trkpt>
      <trkpt lat="43.22445" lon="5.4758">
        <ele>458</ele>
        <time>2025-10-19T13:49:21Z</time>
      </trkpt>
      <trkpt lat="43.22445" lon="5.4758">
        <ele>458.1</ele>
        <time>2025-10-19T13:49:22Z</time>
      </trkpt>
      <trkpt lat="43.22445" lon="5.4758">
        <ele>458.1</ele>
        <time>2025-10-19T13:49:23Z</time>
      </trkpt>
      <trkpt lat="43.22445" lon="5.47581">
        <ele>458.1</ele>
        <time>2025-10-19T13:49:24Z</time>
      </trkpt>
      <trkpt lat="43.22445" lon="5.47581">
        <ele>458.2</ele>
        <time>2025-10-19T13:49:25Z</time>
      </trkpt>
      <trkpt lat="43.22445" lon="5.47583">
        <ele>458.3</ele>
        <time>2025-10-19T13:49:26Z</time>
      </trkpt>
      <trkpt lat="43.22445" lon="5.47584">
        <ele>458.4</ele>
        <time>2025-10-19T13:49:27Z</time>
      </trkpt>
      <trkpt lat="43.22446" lon="5.47585">
        <ele>458.4</ele>
        <time>2025-10-19T13:49:28Z</time>
      </trkpt>
      <trkpt lat="43.22446" lon="5.47586">
        <ele>458.7</ele>
        <time>2025-10-19T13:49:29Z</time>
      </trkpt>
      <trkpt lat="43.22446" lon="5.47587">
        <ele>458.7</ele>
        <time>2025-10-19T13:49:30Z</time>
      </trkpt>
      <trkpt lat="43.22446" lon="5.47589">
        <ele>458.9</ele>
        <time>2025-10-19T13:49:31Z</time>
      </trkpt>
      <trkpt lat="43.22446" lon="5.4759">
        <ele>459</ele>
        <time>2025-10-19T13:49:32Z</time>
      </trkpt>
      <trkpt lat="43.22446" lon="5.47591">
        <ele>459.1</ele>
        <time>2025-10-19T13:49:33Z</time>
      </trkpt>
      <trkpt lat="43.22446" lon="5.47592">
        <ele>459.1</ele>
        <time>2025-10-19T13:49:34Z</time>
      </trkpt>
      <trkpt lat="43.22445" lon="5.47594">
        <ele>459.2</ele>
        <time>2025-10-19T13:49:35Z</time>
      </trkpt>
      <trkpt lat="43.22445" lon="5.47595">
        <ele>459.2</ele>
        <time>2025-10-19T13:49:36Z</time>
      </trkpt>
      <trkpt lat="43.22445" lon="5.47596">
        <ele>459.2</ele>
        <time>2025-10-19T13:49:37Z</time>
      </trkpt>
      <trkpt lat="43.22444" lon="5.47598">
        <ele>459.2</ele>
        <time>2025-10-19T13:49:38Z</time>
      </trkpt>
      <trkpt lat="43.22444" lon="5.47599">
        <ele>459.2</ele>
        <time>2025-10-19T13:49:39Z</time>
      </trkpt>
      <trkpt lat="43.22444" lon="5.47601">
        <ele>459.2</ele>
        <time>2025-10-19T13:49:40Z</time>
      </trkpt>
      <trkpt lat="43.22444" lon="5.47602">
        <ele>459.4</ele>
        <time>2025-10-19T13:49:41Z</time>
      </trkpt>
      <trkpt lat="43.22444" lon="5.47603">
        <ele>459.5</ele>
        <time>2025-10-19T13:49:42Z</time>
      </trkpt>
      <trkpt lat="43.22444" lon="5.47604">
        <ele>459.5</ele>
        <time>2025-10-19T13:49:43Z</time>
      </trkpt>
      <trkpt lat="43.22444" lon="5.47604">
        <ele>459.6</ele>
        <time>2025-10-19T13:49:44Z</time>
      </trkpt>
      <trkpt lat="43.22444" lon="5.47605">
        <ele>459.7</ele>
        <time>2025-10-19T13:49:45Z</time>
      </trkpt>
      <trkpt lat="43.22444" lon="5.47607">
        <ele>459.7</ele>
        <time>2025-10-19T13:49:46Z</time>
      </trkpt>
      <trkpt lat="43.22444" lon="5.47608">
        <ele>459.9</ele>
        <time>2025-10-19T13:49:47Z</time>
      </trkpt>
      <trkpt lat="43.22444" lon="5.47609">
        <ele>460</ele>
        <time>2025-10-19T13:49:48Z</time>
      </trkpt>
      <trkpt lat="43.22443" lon="5.47611">
        <ele>460.2</ele>
        <time>2025-10-19T13:49:49Z</time>
      </trkpt>
      <trkpt lat="43.22443" lon="5.47612">
        <ele>460.3</ele>
        <time>2025-10-19T13:49:50Z</time>
      </trkpt>
      <trkpt lat="43.22443" lon="5.47614">
        <ele>460.5</ele>
        <time>2025-10-19T13:49:51Z</time>
      </trkpt>
      <trkpt lat="43.22443" lon="5.47616">
        <ele>460.5</ele>
        <time>2025-10-19T13:49:52Z</time>
      </trkpt>
      <trkpt lat="43.22443" lon="5.47618">
        <ele>460.7</ele>
        <time>2025-10-19T13:49:53Z</time>
      </trkpt>
      <trkpt lat="43.22443" lon="5.4762">
        <ele>461</ele>
        <time>2025-10-19T13:49:54Z</time>
      </trkpt>
      <trkpt lat="43.22443" lon="5.47622">
        <ele>461.1</ele>
        <time>2025-10-19T13:49:55Z</time>
      </trkpt>
      <trkpt lat="43.22443" lon="5.47623">
        <ele>461.1</ele>
        <time>2025-10-19T13:49:56Z</time>
      </trkpt>
      <trkpt lat="43.22444" lon="5.47625">
        <ele>461.2</ele>
        <time>2025-10-19T13:49:57Z</time>
      </trkpt>
      <trkpt lat="43.22444" lon="5.47627">
        <ele>461.3</ele>
        <time>2025-10-19T13:49:58Z</time>
      </trkpt>
      <trkpt lat="43.22445" lon="5.47629">
        <ele>461.4</ele>
        <time>2025-10-19T13:49:59Z</time>
      </trkpt>
      <trkpt lat="43.22445" lon="5.47631">
        <ele>461.6</ele>
        <time>2025-10-19T13:50:00Z</time>
      </trkpt>
      <trkpt lat="43.22445" lon="5.47633">
        <ele>461.7</ele>
        <time>2025-10-19T13:50:01Z</time>
      </trkpt>
      <trkpt lat="43.22446" lon="5.47635">
        <ele>461.8</ele>
        <time>2025-10-19T13:50:02Z</time>
      </trkpt>
      <trkpt lat="43.22447" lon="5.47637">
        <ele>461.9</ele>
        <time>2025-10-19T13:50:03Z</time>
      </trkpt>
      <trkpt lat="43.22447" lon="5.47638">
        <ele>462</ele>
        <time>2025-10-19T13:50:04Z</time>
      </trkpt>
      <trkpt lat="43.22448" lon="5.4764">
        <ele>462.1</ele>
        <time>2025-10-19T13:50:05Z</time>
      </trkpt>
      <trkpt lat="43.22448" lon="5.47642">
        <ele>462.2</ele>
        <time>2025-10-19T13:50:06Z</time>
      </trkpt>
      <trkpt lat="43.22449" lon="5.47644">
        <ele>462.2</ele>
        <time>2025-10-19T13:50:07Z</time>
      </trkpt>
      <trkpt lat="43.22449" lon="5.47646">
        <ele>462.2</ele>
        <time>2025-10-19T13:50:08Z</time>
      </trkpt>
      <trkpt lat="43.2245" lon="5.47648">
        <ele>462.3</ele>
        <time>2025-10-19T13:50:09Z</time>
      </trkpt>
      <trkpt lat="43.22451" lon="5.4765">
        <ele>462.3</ele>
        <time>2025-10-19T13:50:10Z</time>
      </trkpt>
      <trkpt lat="43.22451" lon="5.47651">
        <ele>462.3</ele>
        <time>2025-10-19T13:50:11Z</time>
      </trkpt>
      <trkpt lat="43.22452" lon="5.47653">
        <ele>462.3</ele>
        <time>2025-10-19T13:50:12Z</time>
      </trkpt>
      <trkpt lat="43.22452" lon="5.47655">
        <ele>462.3</ele>
        <time>2025-10-19T13:50:13Z</time>
      </trkpt>
      <trkpt lat="43.22453" lon="5.47657">
        <ele>462.5</ele>
        <time>2025-10-19T13:50:14Z</time>
      </trkpt>
      <trkpt lat="43.22453" lon="5.47658">
        <ele>462.6</ele>
        <time>2025-10-19T13:50:15Z</time>
      </trkpt>
      <trkpt lat="43.22454" lon="5.4766">
        <ele>462.7</ele>
        <time>2025-10-19T13:50:16Z</time>
      </trkpt>
      <trkpt lat="43.22454" lon="5.47662">
        <ele>462.8</ele>
        <time>2025-10-19T13:50:17Z</time>
      </trkpt>
      <trkpt lat="43.22455" lon="5.47663">
        <ele>462.9</ele>
        <time>2025-10-19T13:50:18Z</time>
      </trkpt>
      <trkpt lat="43.22455" lon="5.47665">
        <ele>463</ele>
        <time>2025-10-19T13:50:19Z</time>
      </trkpt>
      <trkpt lat="43.22456" lon="5.47667">
        <ele>463.1</ele>
        <time>2025-10-19T13:50:20Z</time>
      </trkpt>
      <trkpt lat="43.22456" lon="5.47669">
        <ele>463.1</ele>
        <time>2025-10-19T13:50:21Z</time>
      </trkpt>
      <trkpt lat="43.22456" lon="5.47671">
        <ele>463.1</ele>
        <time>2025-10-19T13:50:22Z</time>
      </trkpt>
      <trkpt lat="43.22457" lon="5.47673">
        <ele>463.3</ele>
        <time>2025-10-19T13:50:23Z</time>
      </trkpt>
      <trkpt lat="43.22457" lon="5.47675">
        <ele>463.4</ele>
        <time>2025-10-19T13:50:24Z</time>
      </trkpt>
      <trkpt lat="43.22457" lon="5.47676">
        <ele>463.3</ele>
        <time>2025-10-19T13:50:25Z</time>
      </trkpt>
      <trkpt lat="43.22458" lon="5.47678">
        <ele>463.4</ele>
        <time>2025-10-19T13:50:26Z</time>
      </trkpt>
      <trkpt lat="43.22458" lon="5.4768">
        <ele>463.6</ele>
        <time>2025-10-19T13:50:27Z</time>
      </trkpt>
      <trkpt lat="43.22458" lon="5.47682">
        <ele>463.6</ele>
        <time>2025-10-19T13:50:28Z</time>
      </trkpt>
      <trkpt lat="43.22459" lon="5.47684">
        <ele>463.6</ele>
        <time>2025-10-19T13:50:29Z</time>
      </trkpt>
      <trkpt lat="43.22459" lon="5.47685">
        <ele>463.6</ele>
        <time>2025-10-19T13:50:30Z</time>
      </trkpt>
      <trkpt lat="43.2246" lon="5.47687">
        <ele>463.7</ele>
        <time>2025-10-19T13:50:31Z</time>
      </trkpt>
      <trkpt lat="43.2246" lon="5.47688">
        <ele>463.7</ele>
        <time>2025-10-19T13:50:32Z</time>
      </trkpt>
      <trkpt lat="43.2246" lon="5.4769">
        <ele>463.8</ele>
        <time>2025-10-19T13:50:33Z</time>
      </trkpt>
      <trkpt lat="43.22461" lon="5.47692">
        <ele>463.8</ele>
        <time>2025-10-19T13:50:34Z</time>
      </trkpt>
      <trkpt lat="43.22461" lon="5.47693">
        <ele>463.9</ele>
        <time>2025-10-19T13:50:35Z</time>
      </trkpt>
      <trkpt lat="43.22462" lon="5.47695">
        <ele>464</ele>
        <time>2025-10-19T13:50:36Z</time>
      </trkpt>
      <trkpt lat="43.22462" lon="5.47697">
        <ele>464.2</ele>
        <time>2025-10-19T13:50:37Z</time>
      </trkpt>
      <trkpt lat="43.22463" lon="5.47699">
        <ele>464.3</ele>
        <time>2025-10-19T13:50:38Z</time>
      </trkpt>
      <trkpt lat="43.22464" lon="5.477">
        <ele>464.3</ele>
        <time>2025-10-19T13:50:39Z</time>
      </trkpt>
      <trkpt lat="43.22464" lon="5.47702">
        <ele>464.3</ele>
        <time>2025-10-19T13:50:40Z</time>
      </trkpt>
      <trkpt lat="43.22465" lon="5.47704">
        <ele>464.3</ele>
        <time>2025-10-19T13:50:41Z</time>
      </trkpt>
      <trkpt lat="43.22465" lon="5.47706">
        <ele>464.3</ele>
        <time>2025-10-19T13:50:42Z</time>
      </trkpt>
      <trkpt lat="43.22466" lon="5.47707">
        <ele>464.3</ele>
        <time>2025-10-19T13:50:43Z</time>
      </trkpt>
      <trkpt lat="43.22466" lon="5.47709">
        <ele>464.2</ele>
        <time>2025-10-19T13:50:44Z</time>
      </trkpt>
      <trkpt lat="43.22467" lon="5.47711">
        <ele>464.2</ele>
        <time>2025-10-19T13:50:45Z</time>
      </trkpt>
      <trkpt lat="43.22467" lon="5.47713">
        <ele>464.2</ele>
        <time>2025-10-19T13:50:46Z</time>
      </trkpt>
      <trkpt lat="43.22468" lon="5.47715">
        <ele>464.3</ele>
        <time>2025-10-19T13:50:47Z</time>
      </trkpt>
      <trkpt lat="43.22468" lon="5.47717">
        <ele>464.3</ele>
        <time>2025-10-19T13:50:48Z</time>
      </trkpt>
      <trkpt lat="43.22469" lon="5.47719">
        <ele>464.5</ele>
        <time>2025-10-19T13:50:49Z</time>
      </trkpt>
      <trkpt lat="43.2247" lon="5.47721">
        <ele>464.6</ele>
        <time>2025-10-19T13:50:50Z</time>
      </trkpt>
      <trkpt lat="43.2247" lon="5.47723">
        <ele>464.5</ele>
        <time>2025-10-19T13:50:51Z</time>
      </trkpt>
      <trkpt lat="43.22471" lon="5.47724">
        <ele>464.7</ele>
        <time>2025-10-19T13:50:52Z</time>
      </trkpt>
      <trkpt lat="43.22472" lon="5.47726">
        <ele>464.6</ele>
        <time>2025-10-19T13:50:53Z</time>
      </trkpt>
      <trkpt lat="43.22472" lon="5.47728">
        <ele>464.4</ele>
        <time>2025-10-19T13:50:54Z</time>
      </trkpt>
      <trkpt lat="43.22473" lon="5.4773">
        <ele>464.2</ele>
        <time>2025-10-19T13:50:55Z</time>
      </trkpt>
      <trkpt lat="43.22474" lon="5.47731">
        <ele>464</ele>
        <time>2025-10-19T13:50:56Z</time>
      </trkpt>
      <trkpt lat="43.22474" lon="5.47733">
        <ele>464.1</ele>
        <time>2025-10-19T13:50:57Z</time>
      </trkpt>
      <trkpt lat="43.22475" lon="5.47735">
        <ele>464.2</ele>
        <time>2025-10-19T13:50:58Z</time>
      </trkpt>
      <trkpt lat="43.22475" lon="5.47736">
        <ele>464.2</ele>
        <time>2025-10-19T13:50:59Z</time>
      </trkpt>
      <trkpt lat="43.22476" lon="5.47738">
        <ele>464.2</ele>
        <time>2025-10-19T13:51:00Z</time>
      </trkpt>
      <trkpt lat="43.22477" lon="5.47739">
        <ele>464.2</ele>
        <time>2025-10-19T13:51:01Z</time>
      </trkpt>
      <trkpt lat="43.22477" lon="5.47741">
        <ele>464.3</ele>
        <time>2025-10-19T13:51:02Z</time>
      </trkpt>
      <trkpt lat="43.22478" lon="5.47743">
        <ele>464.2</ele>
        <time>2025-10-19T13:51:03Z</time>
      </trkpt>
      <trkpt lat="43.22478" lon="5.47745">
        <ele>464.5</ele>
        <time>2025-10-19T13:51:04Z</time>
      </trkpt>
      <trkpt lat="43.22479" lon="5.47746">
        <ele>464.2</ele>
        <time>2025-10-19T13:51:05Z</time>
      </trkpt>
      <trkpt lat="43.22479" lon="5.47748">
        <ele>464</ele>
        <time>2025-10-19T13:51:06Z</time>
      </trkpt>
      <trkpt lat="43.2248" lon="5.4775">
        <ele>463.8</ele>
        <time>2025-10-19T13:51:07Z</time>
      </trkpt>
      <trkpt lat="43.2248" lon="5.47752">
        <ele>463.7</ele>
        <time>2025-10-19T13:51:08Z</time>
      </trkpt>
      <trkpt lat="43.22481" lon="5.47754">
        <ele>463.4</ele>
        <time>2025-10-19T13:51:09Z</time>
      </trkpt>
      <trkpt lat="43.22481" lon="5.47756">
        <ele>463</ele>
        <time>2025-10-19T13:51:10Z</time>
      </trkpt>
      <trkpt lat="43.22481" lon="5.47757">
        <ele>462.8</ele>
        <time>2025-10-19T13:51:11Z</time>
      </trkpt>
      <trkpt lat="43.22482" lon="5.47759">
        <ele>462.6</ele>
        <time>2025-10-19T13:51:12Z</time>
      </trkpt>
      <trkpt lat="43.22482" lon="5.47761">
        <ele>462.4</ele>
        <time>2025-10-19T13:51:13Z</time>
      </trkpt>
      <trkpt lat="43.22483" lon="5.47763">
        <ele>462.2</ele>
        <time>2025-10-19T13:51:14Z</time>
      </trkpt>
      <trkpt lat="43.22483" lon="5.47765">
        <ele>462.2</ele>
        <time>2025-10-19T13:51:15Z</time>
      </trkpt>
      <trkpt lat="43.22484" lon="5.47766">
        <ele>462</ele>
        <time>2025-10-19T13:51:16Z</time>
      </trkpt>
      <trkpt lat="43.22484" lon="5.47768">
        <ele>461.9</ele>
        <time>2025-10-19T13:51:17Z</time>
      </trkpt>
      <trkpt lat="43.22484" lon="5.4777">
        <ele>461.7</ele>
        <time>2025-10-19T13:51:18Z</time>
      </trkpt>
      <trkpt lat="43.22485" lon="5.47772">
        <ele>461.5</ele>
        <time>2025-10-19T13:51:19Z</time>
      </trkpt>
      <trkpt lat="43.22485" lon="5.47774">
        <ele>461.2</ele>
        <time>2025-10-19T13:51:20Z</time>
      </trkpt>
      <trkpt lat="43.22486" lon="5.47776">
        <ele>461</ele>
        <time>2025-10-19T13:51:21Z</time>
      </trkpt>
      <trkpt lat="43.22487" lon="5.47777">
        <ele>460.9</ele>
        <time>2025-10-19T13:51:22Z</time>
      </trkpt>
      <trkpt lat="43.22487" lon="5.47779">
        <ele>460.6</ele>
        <time>2025-10-19T13:51:23Z</time>
      </trkpt>
      <trkpt lat="43.22487" lon="5.47781">
        <ele>460.4</ele>
        <time>2025-10-19T13:51:24Z</time>
      </trkpt>
      <trkpt lat="43.22488" lon="5.47783">
        <ele>460.2</ele>
        <time>2025-10-19T13:51:25Z</time>
      </trkpt>
      <trkpt lat="43.22488" lon="5.47785">
        <ele>460.1</ele>
        <time>2025-10-19T13:51:26Z</time>
      </trkpt>
      <trkpt lat="43.22489" lon="5.47787">
        <ele>460</ele>
        <time>2025-10-19T13:51:27Z</time>
      </trkpt>
      <trkpt lat="43.2249" lon="5.47788">
        <ele>459.8</ele>
        <time>2025-10-19T13:51:28Z</time>
      </trkpt>
      <trkpt lat="43.2249" lon="5.4779">
        <ele>459.5</ele>
        <time>2025-10-19T13:51:29Z</time>
      </trkpt>
      <trkpt lat="43.22491" lon="5.47792">
        <ele>459.3</ele>
        <time>2025-10-19T13:51:30Z</time>
      </trkpt>
      <trkpt lat="43.22491" lon="5.47794">
        <ele>459</ele>
        <time>2025-10-19T13:51:31Z</time>
      </trkpt>
      <trkpt lat="43.22492" lon="5.47796">
        <ele>458.8</ele>
        <time>2025-10-19T13:51:32Z</time>
      </trkpt>
      <trkpt lat="43.22493" lon="5.47797">
        <ele>458.7</ele>
        <time>2025-10-19T13:51:33Z</time>
      </trkpt>
      <trkpt lat="43.22493" lon="5.47799">
        <ele>458.5</ele>
        <time>2025-10-19T13:51:34Z</time>
      </trkpt>
      <trkpt lat="43.22494" lon="5.47801">
        <ele>458.2</ele>
        <time>2025-10-19T13:51:35Z</time>
      </trkpt>
      <trkpt lat="43.22494" lon="5.47803">
        <ele>457.9</ele>
        <time>2025-10-19T13:51:36Z</time>
      </trkpt>
      <trkpt lat="43.22495" lon="5.47804">
        <ele>457.7</ele>
        <time>2025-10-19T13:51:37Z</time>
      </trkpt>
      <trkpt lat="43.22495" lon="5.47806">
        <ele>457.6</ele>
        <time>2025-10-19T13:51:38Z</time>
      </trkpt>
      <trkpt lat="43.22496" lon="5.47808">
        <ele>457.5</ele>
        <time>2025-10-19T13:51:39Z</time>
      </trkpt>
      <trkpt lat="43.22497" lon="5.47809">
        <ele>457.4</ele>
        <time>2025-10-19T13:51:40Z</time>
      </trkpt>
      <trkpt lat="43.22497" lon="5.47811">
        <ele>457.2</ele>
        <time>2025-10-19T13:51:41Z</time>
      </trkpt>
      <trkpt lat="43.22498" lon="5.47813">
        <ele>457</ele>
        <time>2025-10-19T13:51:42Z</time>
      </trkpt>
      <trkpt lat="43.22499" lon="5.47814">
        <ele>456.8</ele>
        <time>2025-10-19T13:51:43Z</time>
      </trkpt>
      <trkpt lat="43.22499" lon="5.47816">
        <ele>456.7</ele>
        <time>2025-10-19T13:51:44Z</time>
      </trkpt>
      <trkpt lat="43.225" lon="5.47818">
        <ele>456.4</ele>
        <time>2025-10-19T13:51:45Z</time>
      </trkpt>
      <trkpt lat="43.225" lon="5.47819">
        <ele>456.1</ele>
        <time>2025-10-19T13:51:46Z</time>
      </trkpt>
      <trkpt lat="43.22501" lon="5.47821">
        <ele>455.9</ele>
        <time>2025-10-19T13:51:47Z</time>
      </trkpt>
      <trkpt lat="43.22501" lon="5.47823">
        <ele>455.6</ele>
        <time>2025-10-19T13:51:48Z</time>
      </trkpt>
      <trkpt lat="43.22502" lon="5.47824">
        <ele>455.4</ele>
        <time>2025-10-19T13:51:49Z</time>
      </trkpt>
      <trkpt lat="43.22503" lon="5.47826">
        <ele>455.2</ele>
        <time>2025-10-19T13:51:50Z</time>
      </trkpt>
      <trkpt lat="43.22504" lon="5.47827">
        <ele>454.9</ele>
        <time>2025-10-19T13:51:51Z</time>
      </trkpt>
      <trkpt lat="43.22504" lon="5.47829">
        <ele>454.7</ele>
        <time>2025-10-19T13:51:52Z</time>
      </trkpt>
      <trkpt lat="43.22505" lon="5.4783">
        <ele>454.5</ele>
        <time>2025-10-19T13:51:53Z</time>
      </trkpt>
      <trkpt lat="43.22506" lon="5.47832">
        <ele>454.5</ele>
        <time>2025-10-19T13:51:54Z</time>
      </trkpt>
      <trkpt lat="43.22506" lon="5.47833">
        <ele>454.4</ele>
        <time>2025-10-19T13:51:55Z</time>
      </trkpt>
      <trkpt lat="43.22507" lon="5.47835">
        <ele>454.3</ele>
        <time>2025-10-19T13:51:56Z</time>
      </trkpt>
      <trkpt lat="43.22508" lon="5.47836">
        <ele>454</ele>
        <time>2025-10-19T13:51:57Z</time>
      </trkpt>
      <trkpt lat="43.22508" lon="5.47838">
        <ele>453.9</ele>
        <time>2025-10-19T13:51:58Z</time>
      </trkpt>
      <trkpt lat="43.22509" lon="5.47839">
        <ele>453.7</ele>
        <time>2025-10-19T13:51:59Z</time>
      </trkpt>
      <trkpt lat="43.22509" lon="5.47841">
        <ele>453.5</ele>
        <time>2025-10-19T13:52:00Z</time>
      </trkpt>
      <trkpt lat="43.22509" lon="5.47842">
        <ele>453.3</ele>
        <time>2025-10-19T13:52:01Z</time>
      </trkpt>
      <trkpt lat="43.22509" lon="5.47843">
        <ele>453.1</ele>
        <time>2025-10-19T13:52:02Z</time>
      </trkpt>
      <trkpt lat="43.22509" lon="5.47845">
        <ele>452.9</ele>
        <time>2025-10-19T13:52:03Z</time>
      </trkpt>
      <trkpt lat="43.22509" lon="5.47845">
        <ele>452.7</ele>
        <time>2025-10-19T13:52:04Z</time>
      </trkpt>
      <trkpt lat="43.22509" lon="5.47846">
        <ele>452.5</ele>
        <time>2025-10-19T13:52:05Z</time>
      </trkpt>
      <trkpt lat="43.2251" lon="5.47846">
        <ele>452.3</ele>
        <time>2025-10-19T13:52:06Z</time>
      </trkpt>
      <trkpt lat="43.2251" lon="5.47847">
        <ele>452.2</ele>
        <time>2025-10-19T13:52:07Z</time>
      </trkpt>
      <trkpt lat="43.2251" lon="5.47847">
        <ele>452.1</ele>
        <time>2025-10-19T13:52:08Z</time>
      </trkpt>
      <trkpt lat="43.2251" lon="5.47848">
        <ele>451.8</ele>
        <time>2025-10-19T13:52:09Z</time>
      </trkpt>
      <trkpt lat="43.2251" lon="5.47849">
        <ele>451.6</ele>
        <time>2025-10-19T13:52:10Z</time>
      </trkpt>
      <trkpt lat="43.2251" lon="5.4785">
        <ele>451.5</ele>
        <time>2025-10-19T13:52:11Z</time>
      </trkpt>
      <trkpt lat="43.22509" lon="5.47852">
        <ele>451.4</ele>
        <time>2025-10-19T13:52:12Z</time>
      </trkpt>
      <trkpt lat="43.22509" lon="5.47853">
        <ele>451.3</ele>
        <time>2025-10-19T13:52:13Z</time>
      </trkpt>
      <trkpt lat="43.22509" lon="5.47854">
        <ele>451.1</ele>
        <time>2025-10-19T13:52:14Z</time>
      </trkpt>
      <trkpt lat="43.22509" lon="5.47856">
        <ele>451</ele>
        <time>2025-10-19T13:52:15Z</time>
      </trkpt>
      <trkpt lat="43.22509" lon="5.47857">
        <ele>450.8</ele>
        <time>2025-10-19T13:52:16Z</time>
      </trkpt>
      <trkpt lat="43.2251" lon="5.47858">
        <ele>450.6</ele>
        <time>2025-10-19T13:52:17Z</time>
      </trkpt>
      <trkpt lat="43.2251" lon="5.4786">
        <ele>450.3</ele>
        <time>2025-10-19T13:52:18Z</time>
      </trkpt>
      <trkpt lat="43.2251" lon="5.47861">
        <ele>450.1</ele>
        <time>2025-10-19T13:52:19Z</time>
      </trkpt>
      <trkpt lat="43.2251" lon="5.47862">
        <ele>449.8</ele>
        <time>2025-10-19T13:52:20Z</time>
      </trkpt>
      <trkpt lat="43.2251" lon="5.47863">
        <ele>449.5</ele>
        <time>2025-10-19T13:52:21Z</time>
      </trkpt>
      <trkpt lat="43.22511" lon="5.47864">
        <ele>449.1</ele>
        <time>2025-10-19T13:52:22Z</time>
      </trkpt>
      <trkpt lat="43.22511" lon="5.47866">
        <ele>448.7</ele>
        <time>2025-10-19T13:52:23Z</time>
      </trkpt>
      <trkpt lat="43.22511" lon="5.47867">
        <ele>448.4</ele>
        <time>2025-10-19T13:52:24Z</time>
      </trkpt>
      <trkpt lat="43.22511" lon="5.47868">
        <ele>448.1</ele>
        <time>2025-10-19T13:52:25Z</time>
      </trkpt>
      <trkpt lat="43.22511" lon="5.4787">
        <ele>447.9</ele>
        <time>2025-10-19T13:52:26Z</time>
      </trkpt>
      <trkpt lat="43.22511" lon="5.47871">
        <ele>447.7</ele>
        <time>2025-10-19T13:52:27Z</time>
      </trkpt>
      <trkpt lat="43.22511" lon="5.47872">
        <ele>447.4</ele>
        <time>2025-10-19T13:52:28Z</time>
      </trkpt>
      <trkpt lat="43.22511" lon="5.47873">
        <ele>447.2</ele>
        <time>2025-10-19T13:52:29Z</time>
      </trkpt>
      <trkpt lat="43.22512" lon="5.47875">
        <ele>447</ele>
        <time>2025-10-19T13:52:30Z</time>
      </trkpt>
      <trkpt lat="43.22512" lon="5.47876">
        <ele>446.8</ele>
        <time>2025-10-19T13:52:31Z</time>
      </trkpt>
      <trkpt lat="43.22512" lon="5.47877">
        <ele>446.6</ele>
        <time>2025-10-19T13:52:32Z</time>
      </trkpt>
      <trkpt lat="43.22513" lon="5.47878">
        <ele>446.4</ele>
        <time>2025-10-19T13:52:33Z</time>
      </trkpt>
      <trkpt lat="43.22513" lon="5.4788">
        <ele>446.3</ele>
        <time>2025-10-19T13:52:34Z</time>
      </trkpt>
      <trkpt lat="43.22514" lon="5.47881">
        <ele>446.2</ele>
        <time>2025-10-19T13:52:35Z</time>
      </trkpt>
      <trkpt lat="43.22514" lon="5.47882">
        <ele>446.1</ele>
        <time>2025-10-19T13:52:36Z</time>
      </trkpt>
      <trkpt lat="43.22514" lon="5.47884">
        <ele>445.7</ele>
        <time>2025-10-19T13:52:37Z</time>
      </trkpt>
      <trkpt lat="43.22514" lon="5.47885">
        <ele>445.6</ele>
        <time>2025-10-19T13:52:38Z</time>
      </trkpt>
      <trkpt lat="43.22514" lon="5.47886">
        <ele>445.4</ele>
        <time>2025-10-19T13:52:39Z</time>
      </trkpt>
      <trkpt lat="43.22514" lon="5.47888">
        <ele>445.3</ele>
        <time>2025-10-19T13:52:40Z</time>
      </trkpt>
      <trkpt lat="43.22514" lon="5.47889">
        <ele>445.1</ele>
        <time>2025-10-19T13:52:41Z</time>
      </trkpt>
      <trkpt lat="43.22514" lon="5.4789">
        <ele>444.9</ele>
        <time>2025-10-19T13:52:42Z</time>
      </trkpt>
      <trkpt lat="43.22513" lon="5.47891">
        <ele>444.7</ele>
        <time>2025-10-19T13:52:43Z</time>
      </trkpt>
      <trkpt lat="43.22513" lon="5.47893">
        <ele>444.6</ele>
        <time>2025-10-19T13:52:44Z</time>
      </trkpt>
      <trkpt lat="43.22513" lon="5.47894">
        <ele>444.3</ele>
        <time>2025-10-19T13:52:45Z</time>
      </trkpt>
      <trkpt lat="43.22512" lon="5.47896">
        <ele>444.2</ele>
        <time>2025-10-19T13:52:46Z</time>
      </trkpt>
      <trkpt lat="43.22512" lon="5.47897">
        <ele>444</ele>
        <time>2025-10-19T13:52:47Z</time>
      </trkpt>
      <trkpt lat="43.22512" lon="5.47898">
        <ele>443.9</ele>
        <time>2025-10-19T13:52:48Z</time>
      </trkpt>
      <trkpt lat="43.22512" lon="5.479">
        <ele>443.8</ele>
        <time>2025-10-19T13:52:49Z</time>
      </trkpt>
      <trkpt lat="43.22511" lon="5.47901">
        <ele>443.7</ele>
        <time>2025-10-19T13:52:50Z</time>
      </trkpt>
      <trkpt lat="43.22511" lon="5.47903">
        <ele>443.7</ele>
        <time>2025-10-19T13:52:51Z</time>
      </trkpt>
      <trkpt lat="43.22511" lon="5.47904">
        <ele>443.6</ele>
        <time>2025-10-19T13:52:52Z</time>
      </trkpt>
      <trkpt lat="43.2251" lon="5.47905">
        <ele>443.6</ele>
        <time>2025-10-19T13:52:53Z</time>
      </trkpt>
      <trkpt lat="43.2251" lon="5.47906">
        <ele>443.6</ele>
        <time>2025-10-19T13:52:54Z</time>
      </trkpt>
      <trkpt lat="43.2251" lon="5.47907">
        <ele>443.6</ele>
        <time>2025-10-19T13:52:55Z</time>
      </trkpt>
      <trkpt lat="43.22509" lon="5.47909">
        <ele>443.5</ele>
        <time>2025-10-19T13:52:56Z</time>
      </trkpt>
      <trkpt lat="43.22509" lon="5.47911">
        <ele>443.5</ele>
        <time>2025-10-19T13:52:57Z</time>
      </trkpt>
      <trkpt lat="43.22509" lon="5.47912">
        <ele>443.2</ele>
        <time>2025-10-19T13:52:58Z</time>
      </trkpt>
      <trkpt lat="43.22508" lon="5.47914">
        <ele>443.3</ele>
        <time>2025-10-19T13:52:59Z</time>
      </trkpt>
      <trkpt lat="43.22509" lon="5.47915">
        <ele>443.2</ele>
        <time>2025-10-19T13:53:00Z</time>
      </trkpt>
      <trkpt lat="43.22508" lon="5.47916">
        <ele>442.9</ele>
        <time>2025-10-19T13:53:01Z</time>
      </trkpt>
      <trkpt lat="43.22508" lon="5.47918">
        <ele>442.9</ele>
        <time>2025-10-19T13:53:02Z</time>
      </trkpt>
      <trkpt lat="43.22508" lon="5.4792">
        <ele>443</ele>
        <time>2025-10-19T13:53:03Z</time>
      </trkpt>
      <trkpt lat="43.22507" lon="5.47921">
        <ele>443</ele>
        <time>2025-10-19T13:53:04Z</time>
      </trkpt>
      <trkpt lat="43.22507" lon="5.47923">
        <ele>442.8</ele>
        <time>2025-10-19T13:53:05Z</time>
      </trkpt>
      <trkpt lat="43.22507" lon="5.47925">
        <ele>442.5</ele>
        <time>2025-10-19T13:53:06Z</time>
      </trkpt>
      <trkpt lat="43.22507" lon="5.47926">
        <ele>442.2</ele>
        <time>2025-10-19T13:53:07Z</time>
      </trkpt>
      <trkpt lat="43.22506" lon="5.47927">
        <ele>442.1</ele>
        <time>2025-10-19T13:53:08Z</time>
      </trkpt>
      <trkpt lat="43.22506" lon="5.47929">
        <ele>441.9</ele>
        <time>2025-10-19T13:53:09Z</time>
      </trkpt>
      <trkpt lat="43.22506" lon="5.4793">
        <ele>441.7</ele>
        <time>2025-10-19T13:53:10Z</time>
      </trkpt>
      <trkpt lat="43.22506" lon="5.47932">
        <ele>441.3</ele>
        <time>2025-10-19T13:53:11Z</time>
      </trkpt>
      <trkpt lat="43.22506" lon="5.47934">
        <ele>441</ele>
        <time>2025-10-19T13:53:12Z</time>
      </trkpt>
      <trkpt lat="43.22506" lon="5.47936">
        <ele>440.8</ele>
        <time>2025-10-19T13:53:13Z</time>
      </trkpt>
      <trkpt lat="43.22507" lon="5.47938">
        <ele>440.6</ele>
        <time>2025-10-19T13:53:14Z</time>
      </trkpt>
      <trkpt lat="43.22507" lon="5.47939">
        <ele>440.3</ele>
        <time>2025-10-19T13:53:15Z</time>
      </trkpt>
      <trkpt lat="43.22507" lon="5.47941">
        <ele>440.1</ele>
        <time>2025-10-19T13:53:16Z</time>
      </trkpt>
      <trkpt lat="43.22507" lon="5.47942">
        <ele>439.9</ele>
        <time>2025-10-19T13:53:17Z</time>
      </trkpt>
      <trkpt lat="43.22508" lon="5.47944">
        <ele>439.8</ele>
        <time>2025-10-19T13:53:18Z</time>
      </trkpt>
      <trkpt lat="43.22508" lon="5.47945">
        <ele>439.6</ele>
        <time>2025-10-19T13:53:19Z</time>
      </trkpt>
      <trkpt lat="43.22509" lon="5.47946">
        <ele>439.6</ele>
        <time>2025-10-19T13:53:20Z</time>
      </trkpt>
      <trkpt lat="43.22509" lon="5.47948">
        <ele>439.6</ele>
        <time>2025-10-19T13:53:21Z</time>
      </trkpt>
      <trkpt lat="43.2251" lon="5.47949">
        <ele>439.5</ele>
        <time>2025-10-19T13:53:22Z</time>
      </trkpt>
      <trkpt lat="43.2251" lon="5.47951">
        <ele>439.3</ele>
        <time>2025-10-19T13:53:23Z</time>
      </trkpt>
      <trkpt lat="43.22511" lon="5.47952">
        <ele>439.1</ele>
        <time>2025-10-19T13:53:24Z</time>
      </trkpt>
      <trkpt lat="43.22511" lon="5.47953">
        <ele>438.9</ele>
        <time>2025-10-19T13:53:25Z</time>
      </trkpt>
      <trkpt lat="43.22512" lon="5.47954">
        <ele>438.8</ele>
        <time>2025-10-19T13:53:26Z</time>
      </trkpt>
      <trkpt lat="43.22512" lon="5.47955">
        <ele>438.8</ele>
        <time>2025-10-19T13:53:27Z</time>
      </trkpt>
      <trkpt lat="43.22512" lon="5.47956">
        <ele>438.6</ele>
        <time>2025-10-19T13:53:28Z</time>
      </trkpt>
      <trkpt lat="43.22513" lon="5.47957">
        <ele>438.5</ele>
        <time>2025-10-19T13:53:29Z</time>
      </trkpt>
      <trkpt lat="43.22513" lon="5.47958">
        <ele>438.3</ele>
        <time>2025-10-19T13:53:30Z</time>
      </trkpt>
      <trkpt lat="43.22514" lon="5.47958">
        <ele>438.2</ele>
        <time>2025-10-19T13:53:31Z</time>
      </trkpt>
      <trkpt lat="43.22514" lon="5.4796">
        <ele>438.1</ele>
        <time>2025-10-19T13:53:32Z</time>
      </trkpt>
      <trkpt lat="43.22515" lon="5.47961">
        <ele>438</ele>
        <time>2025-10-19T13:53:33Z</time>
      </trkpt>
      <trkpt lat="43.22515" lon="5.47962">
        <ele>437.9</ele>
        <time>2025-10-19T13:53:34Z</time>
      </trkpt>
      <trkpt lat="43.22515" lon="5.47963">
        <ele>437.8</ele>
        <time>2025-10-19T13:53:35Z</time>
      </trkpt>
      <trkpt lat="43.22515" lon="5.47964">
        <ele>437.6</ele>
        <time>2025-10-19T13:53:36Z</time>
      </trkpt>
      <trkpt lat="43.22515" lon="5.47964">
        <ele>437.5</ele>
        <time>2025-10-19T13:53:37Z</time>
      </trkpt>
      <trkpt lat="43.22515" lon="5.47964">
        <ele>437.4</ele>
        <time>2025-10-19T13:53:38Z</time>
      </trkpt>
      <trkpt lat="43.22515" lon="5.47964">
        <ele>437.3</ele>
        <time>2025-10-19T13:53:39Z</time>
      </trkpt>
      <trkpt lat="43.22515" lon="5.47964">
        <ele>437.3</ele>
        <time>2025-10-19T13:53:40Z</time>
      </trkpt>
      <trkpt lat="43.22515" lon="5.47964">
        <ele>437.3</ele>
        <time>2025-10-19T13:53:41Z</time>
      </trkpt>
      <trkpt lat="43.22515" lon="5.47964">
        <ele>437.2</ele>
        <time>2025-10-19T13:53:42Z</time>
      </trkpt>
      <trkpt lat="43.22515" lon="5.47965">
        <ele>437.4</ele>
        <time>2025-10-19T13:53:43Z</time>
      </trkpt>
      <trkpt lat="43.22515" lon="5.47965">
        <ele>437.5</ele>
        <time>2025-10-19T13:53:44Z</time>
      </trkpt>
      <trkpt lat="43.22515" lon="5.47965">
        <ele>437.5</ele>
        <time>2025-10-19T13:53:45Z</time>
      </trkpt>
      <trkpt lat="43.22515" lon="5.47965">
        <ele>437.5</ele>
        <time>2025-10-19T13:53:46Z</time>
      </trkpt>
      <trkpt lat="43.22515" lon="5.47965">
        <ele>437.6</ele>
        <time>2025-10-19T13:53:47Z</time>
      </trkpt>
      <trkpt lat="43.22515" lon="5.47965">
        <ele>437.8</ele>
        <time>2025-10-19T13:53:48Z</time>
      </trkpt>
      <trkpt lat="43.22515" lon="5.47966">
        <ele>437.9</ele>
        <time>2025-10-19T13:53:49Z</time>
      </trkpt>
      <trkpt lat="43.22515" lon="5.47967">
        <ele>438</ele>
        <time>2025-10-19T13:53:50Z</time>
      </trkpt>
      <trkpt lat="43.22515" lon="5.47967">
        <ele>438</ele>
        <time>2025-10-19T13:53:51Z</time>
      </trkpt>
      <trkpt lat="43.22515" lon="5.47968">
        <ele>437.9</ele>
        <time>2025-10-19T13:53:52Z</time>
      </trkpt>
      <trkpt lat="43.22515" lon="5.4797">
        <ele>437.9</ele>
        <time>2025-10-19T13:53:53Z</time>
      </trkpt>
      <trkpt lat="43.22516" lon="5.47971">
        <ele>438</ele>
        <time>2025-10-19T13:53:54Z</time>
      </trkpt>
      <trkpt lat="43.22516" lon="5.47973">
        <ele>438</ele>
        <time>2025-10-19T13:53:55Z</time>
      </trkpt>
      <trkpt lat="43.22516" lon="5.47975">
        <ele>437.9</ele>
        <time>2025-10-19T13:53:56Z</time>
      </trkpt>
      <trkpt lat="43.22516" lon="5.47976">
        <ele>437.8</ele>
        <time>2025-10-19T13:53:57Z</time>
      </trkpt>
      <trkpt lat="43.22516" lon="5.47977">
        <ele>437.7</ele>
        <time>2025-10-19T13:53:58Z</time>
      </trkpt>
      <trkpt lat="43.22517" lon="5.47979">
        <ele>437.7</ele>
        <time>2025-10-19T13:53:59Z</time>
      </trkpt>
      <trkpt lat="43.22517" lon="5.4798">
        <ele>437.6</ele>
        <time>2025-10-19T13:54:00Z</time>
      </trkpt>
      <trkpt lat="43.22517" lon="5.47982">
        <ele>437.5</ele>
        <time>2025-10-19T13:54:01Z</time>
      </trkpt>
      <trkpt lat="43.22517" lon="5.47983">
        <ele>437.5</ele>
        <time>2025-10-19T13:54:02Z</time>
      </trkpt>
      <trkpt lat="43.22517" lon="5.47985">
        <ele>437.3</ele>
        <time>2025-10-19T13:54:03Z</time>
      </trkpt>
      <trkpt lat="43.22518" lon="5.47986">
        <ele>437.5</ele>
        <time>2025-10-19T13:54:04Z</time>
      </trkpt>
      <trkpt lat="43.22518" lon="5.47988">
        <ele>437.4</ele>
        <time>2025-10-19T13:54:05Z</time>
      </trkpt>
      <trkpt lat="43.22518" lon="5.47989">
        <ele>437.3</ele>
        <time>2025-10-19T13:54:06Z</time>
      </trkpt>
      <trkpt lat="43.22518" lon="5.47991">
        <ele>437.2</ele>
        <time>2025-10-19T13:54:07Z</time>
      </trkpt>
      <trkpt lat="43.22518" lon="5.47992">
        <ele>437.2</ele>
        <time>2025-10-19T13:54:08Z</time>
      </trkpt>
      <trkpt lat="43.22518" lon="5.47994">
        <ele>437.3</ele>
        <time>2025-10-19T13:54:09Z</time>
      </trkpt>
      <trkpt lat="43.22518" lon="5.47995">
        <ele>437.4</ele>
        <time>2025-10-19T13:54:10Z</time>
      </trkpt>
      <trkpt lat="43.22518" lon="5.47997">
        <ele>437.5</ele>
        <time>2025-10-19T13:54:11Z</time>
      </trkpt>
      <trkpt lat="43.22518" lon="5.47998">
        <ele>437.6</ele>
        <time>2025-10-19T13:54:12Z</time>
      </trkpt>
      <trkpt lat="43.22518" lon="5.47999">
        <ele>437.8</ele>
        <time>2025-10-19T13:54:13Z</time>
      </trkpt>
      <trkpt lat="43.22518" lon="5.48001">
        <ele>438</ele>
        <time>2025-10-19T13:54:14Z</time>
      </trkpt>
      <trkpt lat="43.22518" lon="5.48002">
        <ele>438.1</ele>
        <time>2025-10-19T13:54:15Z</time>
      </trkpt>
      <trkpt lat="43.22519" lon="5.48004">
        <ele>438.3</ele>
        <time>2025-10-19T13:54:16Z</time>
      </trkpt>
      <trkpt lat="43.22519" lon="5.48004">
        <ele>438.4</ele>
        <time>2025-10-19T13:54:17Z</time>
      </trkpt>
      <trkpt lat="43.22519" lon="5.48006">
        <ele>438.5</ele>
        <time>2025-10-19T13:54:18Z</time>
      </trkpt>
      <trkpt lat="43.2252" lon="5.48008">
        <ele>438.5</ele>
        <time>2025-10-19T13:54:19Z</time>
      </trkpt>
      <trkpt lat="43.2252" lon="5.48009">
        <ele>438.5</ele>
        <time>2025-10-19T13:54:20Z</time>
      </trkpt>
      <trkpt lat="43.22521" lon="5.4801">
        <ele>438.6</ele>
        <time>2025-10-19T13:54:21Z</time>
      </trkpt>
      <trkpt lat="43.22521" lon="5.48012">
        <ele>438.7</ele>
        <time>2025-10-19T13:54:22Z</time>
      </trkpt>
      <trkpt lat="43.22522" lon="5.48013">
        <ele>438.7</ele>
        <time>2025-10-19T13:54:23Z</time>
      </trkpt>
      <trkpt lat="43.22523" lon="5.48014">
        <ele>438.8</ele>
        <time>2025-10-19T13:54:24Z</time>
      </trkpt>
      <trkpt lat="43.22524" lon="5.48015">
        <ele>438.9</ele>
        <time>2025-10-19T13:54:25Z</time>
      </trkpt>
      <trkpt lat="43.22524" lon="5.48016">
        <ele>438.8</ele>
        <time>2025-10-19T13:54:26Z</time>
      </trkpt>
      <trkpt lat="43.22525" lon="5.48017">
        <ele>438.9</ele>
        <time>2025-10-19T13:54:27Z</time>
      </trkpt>
      <trkpt lat="43.22526" lon="5.48018">
        <ele>438.8</ele>
        <time>2025-10-19T13:54:28Z</time>
      </trkpt>
      <trkpt lat="43.22526" lon="5.48019">
        <ele>438.6</ele>
        <time>2025-10-19T13:54:29Z</time>
      </trkpt>
      <trkpt lat="43.22527" lon="5.4802">
        <ele>438.5</ele>
        <time>2025-10-19T13:54:30Z</time>
      </trkpt>
      <trkpt lat="43.22527" lon="5.48022">
        <ele>438.3</ele>
        <time>2025-10-19T13:54:31Z</time>
      </trkpt>
      <trkpt lat="43.22527" lon="5.48023">
        <ele>438.1</ele>
        <time>2025-10-19T13:54:32Z</time>
      </trkpt>
      <trkpt lat="43.22528" lon="5.48025">
        <ele>437.8</ele>
        <time>2025-10-19T13:54:33Z</time>
      </trkpt>
      <trkpt lat="43.22528" lon="5.48026">
        <ele>437.8</ele>
        <time>2025-10-19T13:54:34Z</time>
      </trkpt>
      <trkpt lat="43.22528" lon="5.48027">
        <ele>437.6</ele>
        <time>2025-10-19T13:54:35Z</time>
      </trkpt>
      <trkpt lat="43.22529" lon="5.48028">
        <ele>437.6</ele>
        <time>2025-10-19T13:54:36Z</time>
      </trkpt>
      <trkpt lat="43.22529" lon="5.48028">
        <ele>437.5</ele>
        <time>2025-10-19T13:54:37Z</time>
      </trkpt>
      <trkpt lat="43.22529" lon="5.48028">
        <ele>437.4</ele>
        <time>2025-10-19T13:54:38Z</time>
      </trkpt>
      <trkpt lat="43.22529" lon="5.48028">
        <ele>437.4</ele>
        <time>2025-10-19T13:54:39Z</time>
      </trkpt>
      <trkpt lat="43.22529" lon="5.48028">
        <ele>437.4</ele>
        <time>2025-10-19T13:54:40Z</time>
      </trkpt>
      <trkpt lat="43.22529" lon="5.48028">
        <ele>437.3</ele>
        <time>2025-10-19T13:54:41Z</time>
      </trkpt>
      <trkpt lat="43.22529" lon="5.48028">
        <ele>437.4</ele>
        <time>2025-10-19T13:54:42Z</time>
      </trkpt>
      <trkpt lat="43.2253" lon="5.48028">
        <ele>437.4</ele>
        <time>2025-10-19T13:54:43Z</time>
      </trkpt>
      <trkpt lat="43.2253" lon="5.48029">
        <ele>437.5</ele>
        <time>2025-10-19T13:54:44Z</time>
      </trkpt>
      <trkpt lat="43.22531" lon="5.4803">
        <ele>437.5</ele>
        <time>2025-10-19T13:54:45Z</time>
      </trkpt>
      <trkpt lat="43.22532" lon="5.48031">
        <ele>437.4</ele>
        <time>2025-10-19T13:54:46Z</time>
      </trkpt>
      <trkpt lat="43.22532" lon="5.48032">
        <ele>437.4</ele>
        <time>2025-10-19T13:54:47Z</time>
      </trkpt>
      <trkpt lat="43.22533" lon="5.48033">
        <ele>437.4</ele>
        <time>2025-10-19T13:54:48Z</time>
      </trkpt>
      <trkpt lat="43.22533" lon="5.48034">
        <ele>437.4</ele>
        <time>2025-10-19T13:54:49Z</time>
      </trkpt>
      <trkpt lat="43.22534" lon="5.48035">
        <ele>437.4</ele>
        <time>2025-10-19T13:54:50Z</time>
      </trkpt>
      <trkpt lat="43.22535" lon="5.48036">
        <ele>437.4</ele>
        <time>2025-10-19T13:54:51Z</time>
      </trkpt>
      <trkpt lat="43.22535" lon="5.48037">
        <ele>437.3</ele>
        <time>2025-10-19T13:54:52Z</time>
      </trkpt>
      <trkpt lat="43.22535" lon="5.48038">
        <ele>437.4</ele>
        <time>2025-10-19T13:54:53Z</time>
      </trkpt>
      <trkpt lat="43.22536" lon="5.4804">
        <ele>437.5</ele>
        <time>2025-10-19T13:54:54Z</time>
      </trkpt>
      <trkpt lat="43.22536" lon="5.48041">
        <ele>437.6</ele>
        <time>2025-10-19T13:54:55Z</time>
      </trkpt>
      <trkpt lat="43.22537" lon="5.48042">
        <ele>437.4</ele>
        <time>2025-10-19T13:54:56Z</time>
      </trkpt>
      <trkpt lat="43.22538" lon="5.48043">
        <ele>437.4</ele>
        <time>2025-10-19T13:54:57Z</time>
      </trkpt>
      <trkpt lat="43.22539" lon="5.48044">
        <ele>437.4</ele>
        <time>2025-10-19T13:54:58Z</time>
      </trkpt>
      <trkpt lat="43.22539" lon="5.48045">
        <ele>437.2</ele>
        <time>2025-10-19T13:54:59Z</time>
      </trkpt>
      <trkpt lat="43.22539" lon="5.48046">
        <ele>437.2</ele>
        <time>2025-10-19T13:55:00Z</time>
      </trkpt>
      <trkpt lat="43.2254" lon="5.48048">
        <ele>437.2</ele>
        <time>2025-10-19T13:55:01Z</time>
      </trkpt>
      <trkpt lat="43.2254" lon="5.48049">
        <ele>437.2</ele>
        <time>2025-10-19T13:55:02Z</time>
      </trkpt>
      <trkpt lat="43.22541" lon="5.4805">
        <ele>437.2</ele>
        <time>2025-10-19T13:55:03Z</time>
      </trkpt>
      <trkpt lat="43.22541" lon="5.48051">
        <ele>437.2</ele>
        <time>2025-10-19T13:55:04Z</time>
      </trkpt>
      <trkpt lat="43.22542" lon="5.48052">
        <ele>437.1</ele>
        <time>2025-10-19T13:55:05Z</time>
      </trkpt>
      <trkpt lat="43.22542" lon="5.48053">
        <ele>437.1</ele>
        <time>2025-10-19T13:55:06Z</time>
      </trkpt>
      <trkpt lat="43.22543" lon="5.48054">
        <ele>437</ele>
        <time>2025-10-19T13:55:07Z</time>
      </trkpt>
      <trkpt lat="43.22543" lon="5.48056">
        <ele>437</ele>
        <time>2025-10-19T13:55:08Z</time>
      </trkpt>
      <trkpt lat="43.22544" lon="5.48057">
        <ele>437</ele>
        <time>2025-10-19T13:55:09Z</time>
      </trkpt>
      <trkpt lat="43.22544" lon="5.48058">
        <ele>436.9</ele>
        <time>2025-10-19T13:55:10Z</time>
      </trkpt>
      <trkpt lat="43.22545" lon="5.4806">
        <ele>436.8</ele>
        <time>2025-10-19T13:55:11Z</time>
      </trkpt>
      <trkpt lat="43.22545" lon="5.48061">
        <ele>436.7</ele>
        <time>2025-10-19T13:55:12Z</time>
      </trkpt>
      <trkpt lat="43.22546" lon="5.48063">
        <ele>436.5</ele>
        <time>2025-10-19T13:55:13Z</time>
      </trkpt>
      <trkpt lat="43.22546" lon="5.48064">
        <ele>436.2</ele>
        <time>2025-10-19T13:55:14Z</time>
      </trkpt>
      <trkpt lat="43.22547" lon="5.48066">
        <ele>436.1</ele>
        <time>2025-10-19T13:55:15Z</time>
      </trkpt>
      <trkpt lat="43.22548" lon="5.48067">
        <ele>435.9</ele>
        <time>2025-10-19T13:55:16Z</time>
      </trkpt>
      <trkpt lat="43.22548" lon="5.48068">
        <ele>435.6</ele>
        <time>2025-10-19T13:55:17Z</time>
      </trkpt>
      <trkpt lat="43.22549" lon="5.48069">
        <ele>435.5</ele>
        <time>2025-10-19T13:55:18Z</time>
      </trkpt>
      <trkpt lat="43.2255" lon="5.4807">
        <ele>435.5</ele>
        <time>2025-10-19T13:55:19Z</time>
      </trkpt>
      <trkpt lat="43.22551" lon="5.48071">
        <ele>435.5</ele>
        <time>2025-10-19T13:55:20Z</time>
      </trkpt>
      <trkpt lat="43.22551" lon="5.48072">
        <ele>435.5</ele>
        <time>2025-10-19T13:55:21Z</time>
      </trkpt>
      <trkpt lat="43.22552" lon="5.48073">
        <ele>435.5</ele>
        <time>2025-10-19T13:55:22Z</time>
      </trkpt>
      <trkpt lat="43.22553" lon="5.48074">
        <ele>435.5</ele>
        <time>2025-10-19T13:55:23Z</time>
      </trkpt>
      <trkpt lat="43.22554" lon="5.48075">
        <ele>435.4</ele>
        <time>2025-10-19T13:55:24Z</time>
      </trkpt>
      <trkpt lat="43.22554" lon="5.48077">
        <ele>435.4</ele>
        <time>2025-10-19T13:55:25Z</time>
      </trkpt>
      <trkpt lat="43.22555" lon="5.48078">
        <ele>435.3</ele>
        <time>2025-10-19T13:55:26Z</time>
      </trkpt>
      <trkpt lat="43.22556" lon="5.48079">
        <ele>435.3</ele>
        <time>2025-10-19T13:55:27Z</time>
      </trkpt>
      <trkpt lat="43.22557" lon="5.48081">
        <ele>435.2</ele>
        <time>2025-10-19T13:55:28Z</time>
      </trkpt>
      <trkpt lat="43.22557" lon="5.48082">
        <ele>435.2</ele>
        <time>2025-10-19T13:55:29Z</time>
      </trkpt>
      <trkpt lat="43.22558" lon="5.48083">
        <ele>435</ele>
        <time>2025-10-19T13:55:30Z</time>
      </trkpt>
      <trkpt lat="43.22559" lon="5.48084">
        <ele>434.9</ele>
        <time>2025-10-19T13:55:31Z</time>
      </trkpt>
      <trkpt lat="43.2256" lon="5.48085">
        <ele>434.8</ele>
        <time>2025-10-19T13:55:32Z</time>
      </trkpt>
      <trkpt lat="43.22561" lon="5.48086">
        <ele>434.7</ele>
        <time>2025-10-19T13:55:33Z</time>
      </trkpt>
      <trkpt lat="43.22562" lon="5.48088">
        <ele>434.5</ele>
        <time>2025-10-19T13:55:34Z</time>
      </trkpt>
      <trkpt lat="43.22562" lon="5.48089">
        <ele>434.4</ele>
        <time>2025-10-19T13:55:35Z</time>
      </trkpt>
      <trkpt lat="43.22563" lon="5.4809">
        <ele>434.4</ele>
        <time>2025-10-19T13:55:36Z</time>
      </trkpt>
      <trkpt lat="43.22564" lon="5.48091">
        <ele>434.3</ele>
        <time>2025-10-19T13:55:37Z</time>
      </trkpt>
      <trkpt lat="43.22564" lon="5.48092">
        <ele>434</ele>
        <time>2025-10-19T13:55:38Z</time>
      </trkpt>
      <trkpt lat="43.22565" lon="5.48093">
        <ele>433.8</ele>
        <time>2025-10-19T13:55:39Z</time>
      </trkpt>
      <trkpt lat="43.22566" lon="5.48095">
        <ele>433.5</ele>
        <time>2025-10-19T13:55:40Z</time>
      </trkpt>
      <trkpt lat="43.22567" lon="5.48096">
        <ele>433.4</ele>
        <time>2025-10-19T13:55:41Z</time>
      </trkpt>
      <trkpt lat="43.22567" lon="5.48097">
        <ele>433.3</ele>
        <time>2025-10-19T13:55:42Z</time>
      </trkpt>
      <trkpt lat="43.22568" lon="5.48099">
        <ele>433.2</ele>
        <time>2025-10-19T13:55:43Z</time>
      </trkpt>
      <trkpt lat="43.22569" lon="5.481">
        <ele>433.1</ele>
        <time>2025-10-19T13:55:44Z</time>
      </trkpt>
      <trkpt lat="43.2257" lon="5.48101">
        <ele>432.9</ele>
        <time>2025-10-19T13:55:45Z</time>
      </trkpt>
      <trkpt lat="43.22571" lon="5.48103">
        <ele>432.8</ele>
        <time>2025-10-19T13:55:46Z</time>
      </trkpt>
      <trkpt lat="43.22571" lon="5.48104">
        <ele>432.7</ele>
        <time>2025-10-19T13:55:47Z</time>
      </trkpt>
      <trkpt lat="43.22572" lon="5.48105">
        <ele>432.6</ele>
        <time>2025-10-19T13:55:48Z</time>
      </trkpt>
      <trkpt lat="43.22573" lon="5.48106">
        <ele>432.5</ele>
        <time>2025-10-19T13:55:49Z</time>
      </trkpt>
      <trkpt lat="43.22574" lon="5.48107">
        <ele>432.4</ele>
        <time>2025-10-19T13:55:50Z</time>
      </trkpt>
      <trkpt lat="43.22574" lon="5.48108">
        <ele>432.3</ele>
        <time>2025-10-19T13:55:51Z</time>
      </trkpt>
      <trkpt lat="43.22575" lon="5.4811">
        <ele>432.2</ele>
        <time>2025-10-19T13:55:52Z</time>
      </trkpt>
      <trkpt lat="43.22576" lon="5.48111">
        <ele>432.1</ele>
        <time>2025-10-19T13:55:53Z</time>
      </trkpt>
      <trkpt lat="43.22576" lon="5.48113">
        <ele>432.1</ele>
        <time>2025-10-19T13:55:54Z</time>
      </trkpt>
      <trkpt lat="43.22577" lon="5.48114">
        <ele>432.1</ele>
        <time>2025-10-19T13:55:55Z</time>
      </trkpt>
      <trkpt lat="43.22578" lon="5.48115">
        <ele>432</ele>
        <time>2025-10-19T13:55:56Z</time>
      </trkpt>
      <trkpt lat="43.22579" lon="5.48116">
        <ele>431.9</ele>
        <time>2025-10-19T13:55:57Z</time>
      </trkpt>
      <trkpt lat="43.22579" lon="5.48118">
        <ele>431.7</ele>
        <time>2025-10-19T13:55:58Z</time>
      </trkpt>
      <trkpt lat="43.2258" lon="5.48119">
        <ele>431.6</ele>
        <time>2025-10-19T13:55:59Z</time>
      </trkpt>
      <trkpt lat="43.2258" lon="5.4812">
        <ele>431.6</ele>
        <time>2025-10-19T13:56:00Z</time>
      </trkpt>
      <trkpt lat="43.22581" lon="5.48121">
        <ele>431.5</ele>
        <time>2025-10-19T13:56:01Z</time>
      </trkpt>
      <trkpt lat="43.22582" lon="5.48122">
        <ele>431.4</ele>
        <time>2025-10-19T13:56:02Z</time>
      </trkpt>
      <trkpt lat="43.22582" lon="5.48124">
        <ele>431.3</ele>
        <time>2025-10-19T13:56:03Z</time>
      </trkpt>
      <trkpt lat="43.22583" lon="5.48125">
        <ele>431.2</ele>
        <time>2025-10-19T13:56:04Z</time>
      </trkpt>
      <trkpt lat="43.22584" lon="5.48125">
        <ele>431.1</ele>
        <time>2025-10-19T13:56:05Z</time>
      </trkpt>
      <trkpt lat="43.22584" lon="5.48125">
        <ele>431</ele>
        <time>2025-10-19T13:56:06Z</time>
      </trkpt>
      <trkpt lat="43.22584" lon="5.48126">
        <ele>431.1</ele>
        <time>2025-10-19T13:56:07Z</time>
      </trkpt>
      <trkpt lat="43.22585" lon="5.48127">
        <ele>431.1</ele>
        <time>2025-10-19T13:56:08Z</time>
      </trkpt>
      <trkpt lat="43.22585" lon="5.48128">
        <ele>431.1</ele>
        <time>2025-10-19T13:56:09Z</time>
      </trkpt>
      <trkpt lat="43.22586" lon="5.48129">
        <ele>431.1</ele>
        <time>2025-10-19T13:56:10Z</time>
      </trkpt>
      <trkpt lat="43.22587" lon="5.48129">
        <ele>431.1</ele>
        <time>2025-10-19T13:56:11Z</time>
      </trkpt>
      <trkpt lat="43.22588" lon="5.4813">
        <ele>431.2</ele>
        <time>2025-10-19T13:56:12Z</time>
      </trkpt>
      <trkpt lat="43.22588" lon="5.48131">
        <ele>431.1</ele>
        <time>2025-10-19T13:56:13Z</time>
      </trkpt>
      <trkpt lat="43.22589" lon="5.48132">
        <ele>431.1</ele>
        <time>2025-10-19T13:56:14Z</time>
      </trkpt>
      <trkpt lat="43.22589" lon="5.48133">
        <ele>431.1</ele>
        <time>2025-10-19T13:56:15Z</time>
      </trkpt>
      <trkpt lat="43.2259" lon="5.48135">
        <ele>430.9</ele>
        <time>2025-10-19T13:56:16Z</time>
      </trkpt>
      <trkpt lat="43.2259" lon="5.48136">
        <ele>430.7</ele>
        <time>2025-10-19T13:56:17Z</time>
      </trkpt>
      <trkpt lat="43.22591" lon="5.48137">
        <ele>430.6</ele>
        <time>2025-10-19T13:56:18Z</time>
      </trkpt>
      <trkpt lat="43.22592" lon="5.48139">
        <ele>430.4</ele>
        <time>2025-10-19T13:56:19Z</time>
      </trkpt>
      <trkpt lat="43.22592" lon="5.4814">
        <ele>430.2</ele>
        <time>2025-10-19T13:56:20Z</time>
      </trkpt>
      <trkpt lat="43.22593" lon="5.48141">
        <ele>430</ele>
        <time>2025-10-19T13:56:21Z</time>
      </trkpt>
      <trkpt lat="43.22594" lon="5.48142">
        <ele>429.9</ele>
        <time>2025-10-19T13:56:22Z</time>
      </trkpt>
      <trkpt lat="43.22595" lon="5.48144">
        <ele>429.9</ele>
        <time>2025-10-19T13:56:23Z</time>
      </trkpt>
      <trkpt lat="43.22595" lon="5.48145">
        <ele>429.9</ele>
        <time>2025-10-19T13:56:24Z</time>
      </trkpt>
      <trkpt lat="43.22595" lon="5.48146">
        <ele>429.9</ele>
        <time>2025-10-19T13:56:25Z</time>
      </trkpt>
      <trkpt lat="43.22595" lon="5.48147">
        <ele>429.8</ele>
        <time>2025-10-19T13:56:26Z</time>
      </trkpt>
      <trkpt lat="43.22596" lon="5.48149">
        <ele>429.8</ele>
        <time>2025-10-19T13:56:27Z</time>
      </trkpt>
      <trkpt lat="43.22596" lon="5.4815">
        <ele>429.7</ele>
        <time>2025-10-19T13:56:28Z</time>
      </trkpt>
      <trkpt lat="43.22597" lon="5.48151">
        <ele>429.7</ele>
        <time>2025-10-19T13:56:29Z</time>
      </trkpt>
      <trkpt lat="43.22597" lon="5.48152">
        <ele>429.5</ele>
        <time>2025-10-19T13:56:30Z</time>
      </trkpt>
      <trkpt lat="43.22598" lon="5.48154">
        <ele>429.4</ele>
        <time>2025-10-19T13:56:31Z</time>
      </trkpt>
      <trkpt lat="43.22598" lon="5.48156">
        <ele>429.2</ele>
        <time>2025-10-19T13:56:32Z</time>
      </trkpt>
      <trkpt lat="43.22598" lon="5.48157">
        <ele>429</ele>
        <time>2025-10-19T13:56:33Z</time>
      </trkpt>
      <trkpt lat="43.22598" lon="5.48158">
        <ele>428.9</ele>
        <time>2025-10-19T13:56:34Z</time>
      </trkpt>
      <trkpt lat="43.22599" lon="5.4816">
        <ele>428.8</ele>
        <time>2025-10-19T13:56:35Z</time>
      </trkpt>
      <trkpt lat="43.22599" lon="5.48162">
        <ele>428.7</ele>
        <time>2025-10-19T13:56:36Z</time>
      </trkpt>
      <trkpt lat="43.22599" lon="5.48163">
        <ele>428.6</ele>
        <time>2025-10-19T13:56:37Z</time>
      </trkpt>
      <trkpt lat="43.226" lon="5.48165">
        <ele>428.8</ele>
        <time>2025-10-19T13:56:38Z</time>
      </trkpt>
      <trkpt lat="43.226" lon="5.48166">
        <ele>428.7</ele>
        <time>2025-10-19T13:56:39Z</time>
      </trkpt>
      <trkpt lat="43.226" lon="5.48168">
        <ele>428.7</ele>
        <time>2025-10-19T13:56:40Z</time>
      </trkpt>
      <trkpt lat="43.22601" lon="5.48169">
        <ele>428.6</ele>
        <time>2025-10-19T13:56:41Z</time>
      </trkpt>
      <trkpt lat="43.22601" lon="5.48171">
        <ele>428.5</ele>
        <time>2025-10-19T13:56:42Z</time>
      </trkpt>
      <trkpt lat="43.22601" lon="5.48173">
        <ele>428.4</ele>
        <time>2025-10-19T13:56:43Z</time>
      </trkpt>
      <trkpt lat="43.22601" lon="5.48175">
        <ele>428.3</ele>
        <time>2025-10-19T13:56:44Z</time>
      </trkpt>
      <trkpt lat="43.22602" lon="5.48176">
        <ele>428.2</ele>
        <time>2025-10-19T13:56:45Z</time>
      </trkpt>
      <trkpt lat="43.22602" lon="5.48178">
        <ele>428.1</ele>
        <time>2025-10-19T13:56:46Z</time>
      </trkpt>
      <trkpt lat="43.22602" lon="5.4818">
        <ele>427.9</ele>
        <time>2025-10-19T13:56:47Z</time>
      </trkpt>
      <trkpt lat="43.22602" lon="5.48181">
        <ele>427.8</ele>
        <time>2025-10-19T13:56:48Z</time>
      </trkpt>
      <trkpt lat="43.22601" lon="5.48183">
        <ele>427.7</ele>
        <time>2025-10-19T13:56:49Z</time>
      </trkpt>
      <trkpt lat="43.22601" lon="5.48185">
        <ele>427.6</ele>
        <time>2025-10-19T13:56:50Z</time>
      </trkpt>
      <trkpt lat="43.22601" lon="5.48186">
        <ele>427.5</ele>
        <time>2025-10-19T13:56:51Z</time>
      </trkpt>
      <trkpt lat="43.22601" lon="5.48188">
        <ele>427.4</ele>
        <time>2025-10-19T13:56:52Z</time>
      </trkpt>
      <trkpt lat="43.22601" lon="5.4819">
        <ele>427.4</ele>
        <time>2025-10-19T13:56:53Z</time>
      </trkpt>
      <trkpt lat="43.22601" lon="5.48191">
        <ele>427.3</ele>
        <time>2025-10-19T13:56:54Z</time>
      </trkpt>
      <trkpt lat="43.22601" lon="5.48193">
        <ele>427.2</ele>
        <time>2025-10-19T13:56:55Z</time>
      </trkpt>
      <trkpt lat="43.22601" lon="5.48194">
        <ele>427.1</ele>
        <time>2025-10-19T13:56:56Z</time>
      </trkpt>
      <trkpt lat="43.22601" lon="5.48196">
        <ele>427.1</ele>
        <time>2025-10-19T13:56:57Z</time>
      </trkpt>
      <trkpt lat="43.22601" lon="5.48198">
        <ele>427.1</ele>
        <time>2025-10-19T13:56:58Z</time>
      </trkpt>
      <trkpt lat="43.22601" lon="5.48199">
        <ele>427.2</ele>
        <time>2025-10-19T13:56:59Z</time>
      </trkpt>
      <trkpt lat="43.22601" lon="5.48201">
        <ele>427.2</ele>
        <time>2025-10-19T13:57:00Z</time>
      </trkpt>
      <trkpt lat="43.22601" lon="5.48203">
        <ele>427.2</ele>
        <time>2025-10-19T13:57:01Z</time>
      </trkpt>
      <trkpt lat="43.22601" lon="5.48204">
        <ele>427.3</ele>
        <time>2025-10-19T13:57:02Z</time>
      </trkpt>
      <trkpt lat="43.226" lon="5.48206">
        <ele>427.5</ele>
        <time>2025-10-19T13:57:03Z</time>
      </trkpt>
      <trkpt lat="43.226" lon="5.48207">
        <ele>427.6</ele>
        <time>2025-10-19T13:57:04Z</time>
      </trkpt>
      <trkpt lat="43.226" lon="5.48209">
        <ele>427.7</ele>
        <time>2025-10-19T13:57:05Z</time>
      </trkpt>
      <trkpt lat="43.226" lon="5.4821">
        <ele>427.7</ele>
        <time>2025-10-19T13:57:06Z</time>
      </trkpt>
      <trkpt lat="43.226" lon="5.48212">
        <ele>427.9</ele>
        <time>2025-10-19T13:57:07Z</time>
      </trkpt>
      <trkpt lat="43.22599" lon="5.48213">
        <ele>428</ele>
        <time>2025-10-19T13:57:08Z</time>
      </trkpt>
      <trkpt lat="43.22599" lon="5.48215">
        <ele>428.2</ele>
        <time>2025-10-19T13:57:09Z</time>
      </trkpt>
      <trkpt lat="43.22599" lon="5.48216">
        <ele>428.3</ele>
        <time>2025-10-19T13:57:10Z</time>
      </trkpt>
      <trkpt lat="43.22598" lon="5.48218">
        <ele>428.5</ele>
        <time>2025-10-19T13:57:11Z</time>
      </trkpt>
      <trkpt lat="43.22598" lon="5.48219">
        <ele>428.7</ele>
        <time>2025-10-19T13:57:12Z</time>
      </trkpt>
      <trkpt lat="43.22597" lon="5.4822">
        <ele>428.8</ele>
        <time>2025-10-19T13:57:13Z</time>
      </trkpt>
      <trkpt lat="43.22597" lon="5.48221">
        <ele>428.9</ele>
        <time>2025-10-19T13:57:14Z</time>
      </trkpt>
      <trkpt lat="43.22597" lon="5.48222">
        <ele>429</ele>
        <time>2025-10-19T13:57:15Z</time>
      </trkpt>
      <trkpt lat="43.22597" lon="5.48224">
        <ele>429.1</ele>
        <time>2025-10-19T13:57:16Z</time>
      </trkpt>
      <trkpt lat="43.22597" lon="5.48226">
        <ele>429.2</ele>
        <time>2025-10-19T13:57:17Z</time>
      </trkpt>
      <trkpt lat="43.22597" lon="5.48227">
        <ele>429.3</ele>
        <time>2025-10-19T13:57:18Z</time>
      </trkpt>
      <trkpt lat="43.22596" lon="5.48229">
        <ele>429.5</ele>
        <time>2025-10-19T13:57:19Z</time>
      </trkpt>
      <trkpt lat="43.22597" lon="5.4823">
        <ele>429.7</ele>
        <time>2025-10-19T13:57:20Z</time>
      </trkpt>
      <trkpt lat="43.22596" lon="5.48232">
        <ele>429.8</ele>
        <time>2025-10-19T13:57:21Z</time>
      </trkpt>
      <trkpt lat="43.22596" lon="5.48233">
        <ele>430</ele>
        <time>2025-10-19T13:57:22Z</time>
      </trkpt>
      <trkpt lat="43.22596" lon="5.48235">
        <ele>430.2</ele>
        <time>2025-10-19T13:57:23Z</time>
      </trkpt>
      <trkpt lat="43.22596" lon="5.48236">
        <ele>430.3</ele>
        <time>2025-10-19T13:57:24Z</time>
      </trkpt>
      <trkpt lat="43.22596" lon="5.48237">
        <ele>430.4</ele>
        <time>2025-10-19T13:57:25Z</time>
      </trkpt>
      <trkpt lat="43.22595" lon="5.48239">
        <ele>430.6</ele>
        <time>2025-10-19T13:57:26Z</time>
      </trkpt>
      <trkpt lat="43.22595" lon="5.48241">
        <ele>430.7</ele>
        <time>2025-10-19T13:57:27Z</time>
      </trkpt>
      <trkpt lat="43.22596" lon="5.48242">
        <ele>430.7</ele>
        <time>2025-10-19T13:57:28Z</time>
      </trkpt>
      <trkpt lat="43.22596" lon="5.48244">
        <ele>430.8</ele>
        <time>2025-10-19T13:57:29Z</time>
      </trkpt>
      <trkpt lat="43.22596" lon="5.48245">
        <ele>430.8</ele>
        <time>2025-10-19T13:57:30Z</time>
      </trkpt>
      <trkpt lat="43.22596" lon="5.48247">
        <ele>430.8</ele>
        <time>2025-10-19T13:57:31Z</time>
      </trkpt>
      <trkpt lat="43.22595" lon="5.48249">
        <ele>430.8</ele>
        <time>2025-10-19T13:57:32Z</time>
      </trkpt>
      <trkpt lat="43.22595" lon="5.4825">
        <ele>430.9</ele>
        <time>2025-10-19T13:57:33Z</time>
      </trkpt>
      <trkpt lat="43.22595" lon="5.48251">
        <ele>431</ele>
        <time>2025-10-19T13:57:34Z</time>
      </trkpt>
      <trkpt lat="43.22595" lon="5.48253">
        <ele>431.1</ele>
        <time>2025-10-19T13:57:35Z</time>
      </trkpt>
      <trkpt lat="43.22595" lon="5.48254">
        <ele>431</ele>
        <time>2025-10-19T13:57:36Z</time>
      </trkpt>
      <trkpt lat="43.22595" lon="5.48256">
        <ele>431</ele>
        <time>2025-10-19T13:57:37Z</time>
      </trkpt>
      <trkpt lat="43.22595" lon="5.48258">
        <ele>431</ele>
        <time>2025-10-19T13:57:38Z</time>
      </trkpt>
      <trkpt lat="43.22595" lon="5.4826">
        <ele>431</ele>
        <time>2025-10-19T13:57:39Z</time>
      </trkpt>
      <trkpt lat="43.22596" lon="5.48261">
        <ele>431.1</ele>
        <time>2025-10-19T13:57:40Z</time>
      </trkpt>
      <trkpt lat="43.22596" lon="5.48262">
        <ele>431.2</ele>
        <time>2025-10-19T13:57:41Z</time>
      </trkpt>
      <trkpt lat="43.22596" lon="5.48264">
        <ele>431.3</ele>
        <time>2025-10-19T13:57:42Z</time>
      </trkpt>
      <trkpt lat="43.22596" lon="5.48266">
        <ele>431.3</ele>
        <time>2025-10-19T13:57:43Z</time>
      </trkpt>
      <trkpt lat="43.22596" lon="5.48267">
        <ele>431.4</ele>
        <time>2025-10-19T13:57:44Z</time>
      </trkpt>
      <trkpt lat="43.22596" lon="5.48269">
        <ele>431.3</ele>
        <time>2025-10-19T13:57:45Z</time>
      </trkpt>
      <trkpt lat="43.22596" lon="5.48271">
        <ele>431.3</ele>
        <time>2025-10-19T13:57:46Z</time>
      </trkpt>
      <trkpt lat="43.22596" lon="5.48273">
        <ele>431.2</ele>
        <time>2025-10-19T13:57:47Z</time>
      </trkpt>
      <trkpt lat="43.22596" lon="5.48274">
        <ele>431.2</ele>
        <time>2025-10-19T13:57:48Z</time>
      </trkpt>
      <trkpt lat="43.22597" lon="5.48276">
        <ele>431.2</ele>
        <time>2025-10-19T13:57:49Z</time>
      </trkpt>
      <trkpt lat="43.22597" lon="5.48277">
        <ele>431.3</ele>
        <time>2025-10-19T13:57:50Z</time>
      </trkpt>
      <trkpt lat="43.22597" lon="5.48279">
        <ele>431.3</ele>
        <time>2025-10-19T13:57:51Z</time>
      </trkpt>
      <trkpt lat="43.22598" lon="5.4828">
        <ele>431.4</ele>
        <time>2025-10-19T13:57:52Z</time>
      </trkpt>
      <trkpt lat="43.22598" lon="5.48282">
        <ele>431.5</ele>
        <time>2025-10-19T13:57:53Z</time>
      </trkpt>
      <trkpt lat="43.22598" lon="5.48284">
        <ele>431.5</ele>
        <time>2025-10-19T13:57:54Z</time>
      </trkpt>
      <trkpt lat="43.22598" lon="5.48285">
        <ele>431.5</ele>
        <time>2025-10-19T13:57:55Z</time>
      </trkpt>
      <trkpt lat="43.22598" lon="5.48287">
        <ele>431.4</ele>
        <time>2025-10-19T13:57:56Z</time>
      </trkpt>
      <trkpt lat="43.22598" lon="5.48289">
        <ele>431.2</ele>
        <time>2025-10-19T13:57:57Z</time>
      </trkpt>
      <trkpt lat="43.22599" lon="5.4829">
        <ele>431.2</ele>
        <time>2025-10-19T13:57:58Z</time>
      </trkpt>
      <trkpt lat="43.22599" lon="5.48292">
        <ele>431.1</ele>
        <time>2025-10-19T13:57:59Z</time>
      </trkpt>
      <trkpt lat="43.22599" lon="5.48293">
        <ele>430.9</ele>
        <time>2025-10-19T13:58:00Z</time>
      </trkpt>
      <trkpt lat="43.226" lon="5.48295">
        <ele>430.8</ele>
        <time>2025-10-19T13:58:01Z</time>
      </trkpt>
      <trkpt lat="43.226" lon="5.48296">
        <ele>430.6</ele>
        <time>2025-10-19T13:58:02Z</time>
      </trkpt>
      <trkpt lat="43.22601" lon="5.48298">
        <ele>430.6</ele>
        <time>2025-10-19T13:58:03Z</time>
      </trkpt>
      <trkpt lat="43.22602" lon="5.48299">
        <ele>430.6</ele>
        <time>2025-10-19T13:58:04Z</time>
      </trkpt>
      <trkpt lat="43.22602" lon="5.483">
        <ele>430.6</ele>
        <time>2025-10-19T13:58:05Z</time>
      </trkpt>
      <trkpt lat="43.22603" lon="5.48302">
        <ele>430.3</ele>
        <time>2025-10-19T13:58:06Z</time>
      </trkpt>
      <trkpt lat="43.22603" lon="5.48303">
        <ele>430.3</ele>
        <time>2025-10-19T13:58:07Z</time>
      </trkpt>
      <trkpt lat="43.22604" lon="5.48305">
        <ele>430.2</ele>
        <time>2025-10-19T13:58:08Z</time>
      </trkpt>
      <trkpt lat="43.22605" lon="5.48306">
        <ele>430.3</ele>
        <time>2025-10-19T13:58:09Z</time>
      </trkpt>
      <trkpt lat="43.22606" lon="5.48307">
        <ele>430.3</ele>
        <time>2025-10-19T13:58:10Z</time>
      </trkpt>
      <trkpt lat="43.22606" lon="5.48308">
        <ele>430.2</ele>
        <time>2025-10-19T13:58:11Z</time>
      </trkpt>
      <trkpt lat="43.22607" lon="5.4831">
        <ele>430.1</ele>
        <time>2025-10-19T13:58:12Z</time>
      </trkpt>
      <trkpt lat="43.22607" lon="5.48311">
        <ele>430.2</ele>
        <time>2025-10-19T13:58:13Z</time>
      </trkpt>
      <trkpt lat="43.22607" lon="5.48312">
        <ele>430.2</ele>
        <time>2025-10-19T13:58:14Z</time>
      </trkpt>
      <trkpt lat="43.22607" lon="5.48313">
        <ele>430.3</ele>
        <time>2025-10-19T13:58:15Z</time>
      </trkpt>
      <trkpt lat="43.22608" lon="5.48315">
        <ele>430.2</ele>
        <time>2025-10-19T13:58:16Z</time>
      </trkpt>
      <trkpt lat="43.22608" lon="5.48316">
        <ele>430.2</ele>
        <time>2025-10-19T13:58:17Z</time>
      </trkpt>
      <trkpt lat="43.22608" lon="5.48317">
        <ele>430.2</ele>
        <time>2025-10-19T13:58:18Z</time>
      </trkpt>
      <trkpt lat="43.22609" lon="5.48318">
        <ele>430.1</ele>
        <time>2025-10-19T13:58:19Z</time>
      </trkpt>
      <trkpt lat="43.22609" lon="5.4832">
        <ele>430.1</ele>
        <time>2025-10-19T13:58:20Z</time>
      </trkpt>
      <trkpt lat="43.2261" lon="5.48321">
        <ele>430.1</ele>
        <time>2025-10-19T13:58:21Z</time>
      </trkpt>
      <trkpt lat="43.2261" lon="5.48322">
        <ele>430.1</ele>
        <time>2025-10-19T13:58:22Z</time>
      </trkpt>
      <trkpt lat="43.22611" lon="5.48323">
        <ele>430</ele>
        <time>2025-10-19T13:58:23Z</time>
      </trkpt>
      <trkpt lat="43.22611" lon="5.48325">
        <ele>429.9</ele>
        <time>2025-10-19T13:58:24Z</time>
      </trkpt>
      <trkpt lat="43.22611" lon="5.48326">
        <ele>429.8</ele>
        <time>2025-10-19T13:58:25Z</time>
      </trkpt>
      <trkpt lat="43.22612" lon="5.48328">
        <ele>429.7</ele>
        <time>2025-10-19T13:58:26Z</time>
      </trkpt>
      <trkpt lat="43.22612" lon="5.48329">
        <ele>429.6</ele>
        <time>2025-10-19T13:58:27Z</time>
      </trkpt>
      <trkpt lat="43.22613" lon="5.4833">
        <ele>429.4</ele>
        <time>2025-10-19T13:58:28Z</time>
      </trkpt>
      <trkpt lat="43.22614" lon="5.48331">
        <ele>429.4</ele>
        <time>2025-10-19T13:58:29Z</time>
      </trkpt>
      <trkpt lat="43.22614" lon="5.48332">
        <ele>429.4</ele>
        <time>2025-10-19T13:58:30Z</time>
      </trkpt>
      <trkpt lat="43.22615" lon="5.48333">
        <ele>429.2</ele>
        <time>2025-10-19T13:58:31Z</time>
      </trkpt>
      <trkpt lat="43.22615" lon="5.48334">
        <ele>429</ele>
        <time>2025-10-19T13:58:32Z</time>
      </trkpt>
      <trkpt lat="43.22616" lon="5.48335">
        <ele>428.9</ele>
        <time>2025-10-19T13:58:33Z</time>
      </trkpt>
      <trkpt lat="43.22616" lon="5.48336">
        <ele>428.9</ele>
        <time>2025-10-19T13:58:34Z</time>
      </trkpt>
      <trkpt lat="43.22617" lon="5.48337">
        <ele>428.9</ele>
        <time>2025-10-19T13:58:35Z</time>
      </trkpt>
      <trkpt lat="43.22617" lon="5.48338">
        <ele>428.9</ele>
        <time>2025-10-19T13:58:36Z</time>
      </trkpt>
      <trkpt lat="43.22618" lon="5.48339">
        <ele>428.8</ele>
        <time>2025-10-19T13:58:37Z</time>
      </trkpt>
      <trkpt lat="43.22618" lon="5.4834">
        <ele>428.6</ele>
        <time>2025-10-19T13:58:38Z</time>
      </trkpt>
      <trkpt lat="43.22619" lon="5.48342">
        <ele>428.5</ele>
        <time>2025-10-19T13:58:39Z</time>
      </trkpt>
      <trkpt lat="43.22619" lon="5.48343">
        <ele>428.5</ele>
        <time>2025-10-19T13:58:40Z</time>
      </trkpt>
      <trkpt lat="43.2262" lon="5.48344">
        <ele>428.3</ele>
        <time>2025-10-19T13:58:41Z</time>
      </trkpt>
      <trkpt lat="43.2262" lon="5.48345">
        <ele>428.3</ele>
        <time>2025-10-19T13:58:42Z</time>
      </trkpt>
      <trkpt lat="43.22621" lon="5.48346">
        <ele>428.2</ele>
        <time>2025-10-19T13:58:43Z</time>
      </trkpt>
      <trkpt lat="43.22622" lon="5.48348">
        <ele>428.1</ele>
        <time>2025-10-19T13:58:44Z</time>
      </trkpt>
      <trkpt lat="43.22622" lon="5.48349">
        <ele>428</ele>
        <time>2025-10-19T13:58:45Z</time>
      </trkpt>
      <trkpt lat="43.22623" lon="5.4835">
        <ele>427.9</ele>
        <time>2025-10-19T13:58:46Z</time>
      </trkpt>
      <trkpt lat="43.22624" lon="5.48351">
        <ele>427.8</ele>
        <time>2025-10-19T13:58:47Z</time>
      </trkpt>
      <trkpt lat="43.22624" lon="5.48352">
        <ele>427.7</ele>
        <time>2025-10-19T13:58:48Z</time>
      </trkpt>
      <trkpt lat="43.22625" lon="5.48353">
        <ele>427.6</ele>
        <time>2025-10-19T13:58:49Z</time>
      </trkpt>
      <trkpt lat="43.22625" lon="5.48354">
        <ele>427.6</ele>
        <time>2025-10-19T13:58:50Z</time>
      </trkpt>
      <trkpt lat="43.22626" lon="5.48355">
        <ele>427.5</ele>
        <time>2025-10-19T13:58:51Z</time>
      </trkpt>
      <trkpt lat="43.22627" lon="5.48356">
        <ele>427.5</ele>
        <time>2025-10-19T13:58:52Z</time>
      </trkpt>
      <trkpt lat="43.22628" lon="5.48357">
        <ele>427.4</ele>
        <time>2025-10-19T13:58:53Z</time>
      </trkpt>
      <trkpt lat="43.22629" lon="5.48358">
        <ele>427.4</ele>
        <time>2025-10-19T13:58:54Z</time>
      </trkpt>
      <trkpt lat="43.22629" lon="5.48359">
        <ele>427.4</ele>
        <time>2025-10-19T13:58:55Z</time>
      </trkpt>
      <trkpt lat="43.2263" lon="5.48361">
        <ele>427.4</ele>
        <time>2025-10-19T13:58:56Z</time>
      </trkpt>
      <trkpt lat="43.22631" lon="5.48362">
        <ele>427.5</ele>
        <time>2025-10-19T13:58:57Z</time>
      </trkpt>
      <trkpt lat="43.22631" lon="5.48363">
        <ele>427.5</ele>
        <time>2025-10-19T13:58:58Z</time>
      </trkpt>
      <trkpt lat="43.22632" lon="5.48364">
        <ele>427.6</ele>
        <time>2025-10-19T13:58:59Z</time>
      </trkpt>
      <trkpt lat="43.22633" lon="5.48365">
        <ele>427.6</ele>
        <time>2025-10-19T13:59:00Z</time>
      </trkpt>
      <trkpt lat="43.22634" lon="5.48366">
        <ele>427.7</ele>
        <time>2025-10-19T13:59:01Z</time>
      </trkpt>
      <trkpt lat="43.22634" lon="5.48367">
        <ele>427.6</ele>
        <time>2025-10-19T13:59:02Z</time>
      </trkpt>
      <trkpt lat="43.22635" lon="5.48368">
        <ele>427.6</ele>
        <time>2025-10-19T13:59:03Z</time>
      </trkpt>
      <trkpt lat="43.22636" lon="5.48369">
        <ele>427.6</ele>
        <time>2025-10-19T13:59:04Z</time>
      </trkpt>
      <trkpt lat="43.22636" lon="5.48371">
        <ele>427.5</ele>
        <time>2025-10-19T13:59:05Z</time>
      </trkpt>
      <trkpt lat="43.22637" lon="5.48372">
        <ele>427.2</ele>
        <time>2025-10-19T13:59:06Z</time>
      </trkpt>
      <trkpt lat="43.22637" lon="5.48373">
        <ele>427.2</ele>
        <time>2025-10-19T13:59:07Z</time>
      </trkpt>
      <trkpt lat="43.22638" lon="5.48374">
        <ele>427.1</ele>
        <time>2025-10-19T13:59:08Z</time>
      </trkpt>
      <trkpt lat="43.22639" lon="5.48376">
        <ele>427</ele>
        <time>2025-10-19T13:59:09Z</time>
      </trkpt>
      <trkpt lat="43.2264" lon="5.48377">
        <ele>426.9</ele>
        <time>2025-10-19T13:59:10Z</time>
      </trkpt>
      <trkpt lat="43.22641" lon="5.48378">
        <ele>427</ele>
        <time>2025-10-19T13:59:11Z</time>
      </trkpt>
      <trkpt lat="43.22641" lon="5.48379">
        <ele>427</ele>
        <time>2025-10-19T13:59:12Z</time>
      </trkpt>
      <trkpt lat="43.22642" lon="5.4838">
        <ele>427</ele>
        <time>2025-10-19T13:59:13Z</time>
      </trkpt>
      <trkpt lat="43.22643" lon="5.48381">
        <ele>426.9</ele>
        <time>2025-10-19T13:59:14Z</time>
      </trkpt>
      <trkpt lat="43.22644" lon="5.48382">
        <ele>426.8</ele>
        <time>2025-10-19T13:59:15Z</time>
      </trkpt>
      <trkpt lat="43.22644" lon="5.48384">
        <ele>426.6</ele>
        <time>2025-10-19T13:59:16Z</time>
      </trkpt>
      <trkpt lat="43.22645" lon="5.48385">
        <ele>426.6</ele>
        <time>2025-10-19T13:59:17Z</time>
      </trkpt>
      <trkpt lat="43.22646" lon="5.48386">
        <ele>426.4</ele>
        <time>2025-10-19T13:59:18Z</time>
      </trkpt>
      <trkpt lat="43.22646" lon="5.48387">
        <ele>426.2</ele>
        <time>2025-10-19T13:59:19Z</time>
      </trkpt>
      <trkpt lat="43.22647" lon="5.48388">
        <ele>426.1</ele>
        <time>2025-10-19T13:59:20Z</time>
      </trkpt>
      <trkpt lat="43.22648" lon="5.48389">
        <ele>426</ele>
        <time>2025-10-19T13:59:21Z</time>
      </trkpt>
      <trkpt lat="43.22649" lon="5.48391">
        <ele>426.2</ele>
        <time>2025-10-19T13:59:22Z</time>
      </trkpt>
      <trkpt lat="43.22649" lon="5.48392">
        <ele>426.1</ele>
        <time>2025-10-19T13:59:23Z</time>
      </trkpt>
      <trkpt lat="43.2265" lon="5.48393">
        <ele>426.1</ele>
        <time>2025-10-19T13:59:24Z</time>
      </trkpt>
      <trkpt lat="43.22651" lon="5.48394">
        <ele>426</ele>
        <time>2025-10-19T13:59:25Z</time>
      </trkpt>
      <trkpt lat="43.22651" lon="5.48395">
        <ele>426</ele>
        <time>2025-10-19T13:59:26Z</time>
      </trkpt>
      <trkpt lat="43.22652" lon="5.48397">
        <ele>426</ele>
        <time>2025-10-19T13:59:27Z</time>
      </trkpt>
      <trkpt lat="43.22653" lon="5.48398">
        <ele>425.8</ele>
        <time>2025-10-19T13:59:28Z</time>
      </trkpt>
      <trkpt lat="43.22654" lon="5.48399">
        <ele>425.6</ele>
        <time>2025-10-19T13:59:29Z</time>
      </trkpt>
      <trkpt lat="43.22654" lon="5.484">
        <ele>425.3</ele>
        <time>2025-10-19T13:59:30Z</time>
      </trkpt>
      <trkpt lat="43.22655" lon="5.48401">
        <ele>425.2</ele>
        <time>2025-10-19T13:59:31Z</time>
      </trkpt>
      <trkpt lat="43.22656" lon="5.48402">
        <ele>424.9</ele>
        <time>2025-10-19T13:59:32Z</time>
      </trkpt>
      <trkpt lat="43.22656" lon="5.48404">
        <ele>424.7</ele>
        <time>2025-10-19T13:59:33Z</time>
      </trkpt>
      <trkpt lat="43.22657" lon="5.48405">
        <ele>424.5</ele>
        <time>2025-10-19T13:59:34Z</time>
      </trkpt>
      <trkpt lat="43.22658" lon="5.48406">
        <ele>424.3</ele>
        <time>2025-10-19T13:59:35Z</time>
      </trkpt>
      <trkpt lat="43.22658" lon="5.48407">
        <ele>424.2</ele>
        <time>2025-10-19T13:59:36Z</time>
      </trkpt>
      <trkpt lat="43.22659" lon="5.48408">
        <ele>424.1</ele>
        <time>2025-10-19T13:59:37Z</time>
      </trkpt>
      <trkpt lat="43.22659" lon="5.48409">
        <ele>423.9</ele>
        <time>2025-10-19T13:59:38Z</time>
      </trkpt>
      <trkpt lat="43.2266" lon="5.4841">
        <ele>423.8</ele>
        <time>2025-10-19T13:59:39Z</time>
      </trkpt>
      <trkpt lat="43.22661" lon="5.48411">
        <ele>423.6</ele>
        <time>2025-10-19T13:59:40Z</time>
      </trkpt>
      <trkpt lat="43.22662" lon="5.48411">
        <ele>423.5</ele>
        <time>2025-10-19T13:59:41Z</time>
      </trkpt>
      <trkpt lat="43.22662" lon="5.48412">
        <ele>423.3</ele>
        <time>2025-10-19T13:59:42Z</time>
      </trkpt>
      <trkpt lat="43.22663" lon="5.48413">
        <ele>423.1</ele>
        <time>2025-10-19T13:59:43Z</time>
      </trkpt>
      <trkpt lat="43.22664" lon="5.48414">
        <ele>423</ele>
        <time>2025-10-19T13:59:44Z</time>
      </trkpt>
      <trkpt lat="43.22665" lon="5.48414">
        <ele>422.8</ele>
        <time>2025-10-19T13:59:45Z</time>
      </trkpt>
      <trkpt lat="43.22666" lon="5.48415">
        <ele>422.7</ele>
        <time>2025-10-19T13:59:46Z</time>
      </trkpt>
      <trkpt lat="43.22667" lon="5.48417">
        <ele>422.5</ele>
        <time>2025-10-19T13:59:47Z</time>
      </trkpt>
      <trkpt lat="43.22668" lon="5.48417">
        <ele>422.3</ele>
        <time>2025-10-19T13:59:48Z</time>
      </trkpt>
      <trkpt lat="43.22668" lon="5.48418">
        <ele>422.2</ele>
        <time>2025-10-19T13:59:49Z</time>
      </trkpt>
      <trkpt lat="43.22669" lon="5.48419">
        <ele>421.9</ele>
        <time>2025-10-19T13:59:50Z</time>
      </trkpt>
      <trkpt lat="43.2267" lon="5.48419">
        <ele>421.7</ele>
        <time>2025-10-19T13:59:51Z</time>
      </trkpt>
      <trkpt lat="43.2267" lon="5.4842">
        <ele>421.5</ele>
        <time>2025-10-19T13:59:52Z</time>
      </trkpt>
      <trkpt lat="43.22671" lon="5.48421">
        <ele>421.3</ele>
        <time>2025-10-19T13:59:53Z</time>
      </trkpt>
      <trkpt lat="43.22671" lon="5.48422">
        <ele>421.2</ele>
        <time>2025-10-19T13:59:54Z</time>
      </trkpt>
      <trkpt lat="43.22672" lon="5.48423">
        <ele>421</ele>
        <time>2025-10-19T13:59:55Z</time>
      </trkpt>
      <trkpt lat="43.22673" lon="5.48423">
        <ele>420.9</ele>
        <time>2025-10-19T13:59:56Z</time>
      </trkpt>
      <trkpt lat="43.22674" lon="5.48424">
        <ele>420.8</ele>
        <time>2025-10-19T13:59:57Z</time>
      </trkpt>
      <trkpt lat="43.22674" lon="5.48425">
        <ele>420.5</ele>
        <time>2025-10-19T13:59:58Z</time>
      </trkpt>
      <trkpt lat="43.22675" lon="5.48425">
        <ele>420.3</ele>
        <time>2025-10-19T13:59:59Z</time>
      </trkpt>
      <trkpt lat="43.22675" lon="5.48426">
        <ele>420.2</ele>
        <time>2025-10-19T14:00:00Z</time>
      </trkpt>
      <trkpt lat="43.22676" lon="5.48427">
        <ele>420.1</ele>
        <time>2025-10-19T14:00:01Z</time>
      </trkpt>
      <trkpt lat="43.22677" lon="5.48427">
        <ele>420</ele>
        <time>2025-10-19T14:00:02Z</time>
      </trkpt>
      <trkpt lat="43.22677" lon="5.48428">
        <ele>419.8</ele>
        <time>2025-10-19T14:00:03Z</time>
      </trkpt>
      <trkpt lat="43.22678" lon="5.48429">
        <ele>419.6</ele>
        <time>2025-10-19T14:00:04Z</time>
      </trkpt>
      <trkpt lat="43.22678" lon="5.4843">
        <ele>419.4</ele>
        <time>2025-10-19T14:00:05Z</time>
      </trkpt>
      <trkpt lat="43.22679" lon="5.4843">
        <ele>419.3</ele>
        <time>2025-10-19T14:00:06Z</time>
      </trkpt>
      <trkpt lat="43.22679" lon="5.48431">
        <ele>419.2</ele>
        <time>2025-10-19T14:00:07Z</time>
      </trkpt>
      <trkpt lat="43.2268" lon="5.48432">
        <ele>418.8</ele>
        <time>2025-10-19T14:00:08Z</time>
      </trkpt>
      <trkpt lat="43.2268" lon="5.48432">
        <ele>418.6</ele>
        <time>2025-10-19T14:00:09Z</time>
      </trkpt>
      <trkpt lat="43.22681" lon="5.48432">
        <ele>418.4</ele>
        <time>2025-10-19T14:00:10Z</time>
      </trkpt>
      <trkpt lat="43.22682" lon="5.48433">
        <ele>418.2</ele>
        <time>2025-10-19T14:00:11Z</time>
      </trkpt>
      <trkpt lat="43.22682" lon="5.48434">
        <ele>418</ele>
        <time>2025-10-19T14:00:12Z</time>
      </trkpt>
      <trkpt lat="43.22683" lon="5.48434">
        <ele>417.8</ele>
        <time>2025-10-19T14:00:13Z</time>
      </trkpt>
      <trkpt lat="43.22683" lon="5.48436">
        <ele>417.5</ele>
        <time>2025-10-19T14:00:14Z</time>
      </trkpt>
      <trkpt lat="43.22684" lon="5.48436">
        <ele>417.3</ele>
        <time>2025-10-19T14:00:15Z</time>
      </trkpt>
      <trkpt lat="43.22684" lon="5.48437">
        <ele>417</ele>
        <time>2025-10-19T14:00:16Z</time>
      </trkpt>
      <trkpt lat="43.22685" lon="5.48438">
        <ele>416.8</ele>
        <time>2025-10-19T14:00:17Z</time>
      </trkpt>
      <trkpt lat="43.22686" lon="5.48439">
        <ele>416.6</ele>
        <time>2025-10-19T14:00:18Z</time>
      </trkpt>
      <trkpt lat="43.22686" lon="5.4844">
        <ele>416.4</ele>
        <time>2025-10-19T14:00:19Z</time>
      </trkpt>
      <trkpt lat="43.22686" lon="5.48441">
        <ele>416.4</ele>
        <time>2025-10-19T14:00:20Z</time>
      </trkpt>
      <trkpt lat="43.22686" lon="5.48442">
        <ele>416.4</ele>
        <time>2025-10-19T14:00:21Z</time>
      </trkpt>
      <trkpt lat="43.22687" lon="5.48443">
        <ele>416.1</ele>
        <time>2025-10-19T14:00:22Z</time>
      </trkpt>
      <trkpt lat="43.22687" lon="5.48444">
        <ele>415.9</ele>
        <time>2025-10-19T14:00:23Z</time>
      </trkpt>
      <trkpt lat="43.22688" lon="5.48444">
        <ele>415.6</ele>
        <time>2025-10-19T14:00:24Z</time>
      </trkpt>
      <trkpt lat="43.22688" lon="5.48445">
        <ele>415.3</ele>
        <time>2025-10-19T14:00:25Z</time>
      </trkpt>
      <trkpt lat="43.22689" lon="5.48446">
        <ele>415</ele>
        <time>2025-10-19T14:00:26Z</time>
      </trkpt>
      <trkpt lat="43.2269" lon="5.48447">
        <ele>414.9</ele>
        <time>2025-10-19T14:00:27Z</time>
      </trkpt>
      <trkpt lat="43.22691" lon="5.48448">
        <ele>414.6</ele>
        <time>2025-10-19T14:00:28Z</time>
      </trkpt>
      <trkpt lat="43.22691" lon="5.48448">
        <ele>414.4</ele>
        <time>2025-10-19T14:00:29Z</time>
      </trkpt>
      <trkpt lat="43.22692" lon="5.48449">
        <ele>414.1</ele>
        <time>2025-10-19T14:00:30Z</time>
      </trkpt>
      <trkpt lat="43.22693" lon="5.4845">
        <ele>413.8</ele>
        <time>2025-10-19T14:00:31Z</time>
      </trkpt>
      <trkpt lat="43.22694" lon="5.48451">
        <ele>413.7</ele>
        <time>2025-10-19T14:00:32Z</time>
      </trkpt>
      <trkpt lat="43.22695" lon="5.48451">
        <ele>413.5</ele>
        <time>2025-10-19T14:00:33Z</time>
      </trkpt>
      <trkpt lat="43.22695" lon="5.48452">
        <ele>413.4</ele>
        <time>2025-10-19T14:00:34Z</time>
      </trkpt>
      <trkpt lat="43.22696" lon="5.48453">
        <ele>413.1</ele>
        <time>2025-10-19T14:00:35Z</time>
      </trkpt>
      <trkpt lat="43.22697" lon="5.48454">
        <ele>413</ele>
        <time>2025-10-19T14:00:36Z</time>
      </trkpt>
      <trkpt lat="43.22697" lon="5.48455">
        <ele>412.9</ele>
        <time>2025-10-19T14:00:37Z</time>
      </trkpt>
      <trkpt lat="43.22697" lon="5.48456">
        <ele>412.8</ele>
        <time>2025-10-19T14:00:38Z</time>
      </trkpt>
      <trkpt lat="43.22698" lon="5.48457">
        <ele>412.7</ele>
        <time>2025-10-19T14:00:39Z</time>
      </trkpt>
      <trkpt lat="43.22698" lon="5.48458">
        <ele>412.6</ele>
        <time>2025-10-19T14:00:40Z</time>
      </trkpt>
      <trkpt lat="43.22699" lon="5.48458">
        <ele>412.4</ele>
        <time>2025-10-19T14:00:41Z</time>
      </trkpt>
      <trkpt lat="43.22699" lon="5.48459">
        <ele>412.2</ele>
        <time>2025-10-19T14:00:42Z</time>
      </trkpt>
      <trkpt lat="43.227" lon="5.4846">
        <ele>411.9</ele>
        <time>2025-10-19T14:00:43Z</time>
      </trkpt>
      <trkpt lat="43.227" lon="5.48461">
        <ele>411.7</ele>
        <time>2025-10-19T14:00:44Z</time>
      </trkpt>
      <trkpt lat="43.227" lon="5.48461">
        <ele>411.4</ele>
        <time>2025-10-19T14:00:45Z</time>
      </trkpt>
      <trkpt lat="43.22701" lon="5.48463">
        <ele>411.2</ele>
        <time>2025-10-19T14:00:46Z</time>
      </trkpt>
      <trkpt lat="43.22701" lon="5.48464">
        <ele>411</ele>
        <time>2025-10-19T14:00:47Z</time>
      </trkpt>
      <trkpt lat="43.22702" lon="5.48465">
        <ele>410.9</ele>
        <time>2025-10-19T14:00:48Z</time>
      </trkpt>
      <trkpt lat="43.22702" lon="5.48465">
        <ele>410.8</ele>
        <time>2025-10-19T14:00:49Z</time>
      </trkpt>
      <trkpt lat="43.22703" lon="5.48466">
        <ele>410.7</ele>
        <time>2025-10-19T14:00:50Z</time>
      </trkpt>
      <trkpt lat="43.22703" lon="5.48467">
        <ele>410.5</ele>
        <time>2025-10-19T14:00:51Z</time>
      </trkpt>
      <trkpt lat="43.22704" lon="5.48467">
        <ele>410.3</ele>
        <time>2025-10-19T14:00:52Z</time>
      </trkpt>
      <trkpt lat="43.22704" lon="5.48468">
        <ele>410.2</ele>
        <time>2025-10-19T14:00:53Z</time>
      </trkpt>
      <trkpt lat="43.22705" lon="5.48469">
        <ele>410.1</ele>
        <time>2025-10-19T14:00:54Z</time>
      </trkpt>
      <trkpt lat="43.22705" lon="5.4847">
        <ele>410</ele>
        <time>2025-10-19T14:00:55Z</time>
      </trkpt>
      <trkpt lat="43.22706" lon="5.48471">
        <ele>410</ele>
        <time>2025-10-19T14:00:56Z</time>
      </trkpt>
      <trkpt lat="43.22707" lon="5.48472">
        <ele>409.9</ele>
        <time>2025-10-19T14:00:57Z</time>
      </trkpt>
      <trkpt lat="43.22707" lon="5.48473">
        <ele>409.8</ele>
        <time>2025-10-19T14:00:58Z</time>
      </trkpt>
      <trkpt lat="43.22707" lon="5.48474">
        <ele>409.6</ele>
        <time>2025-10-19T14:00:59Z</time>
      </trkpt>
      <trkpt lat="43.22708" lon="5.48475">
        <ele>409.5</ele>
        <time>2025-10-19T14:01:00Z</time>
      </trkpt>
      <trkpt lat="43.22708" lon="5.48477">
        <ele>409.4</ele>
        <time>2025-10-19T14:01:01Z</time>
      </trkpt>
      <trkpt lat="43.22709" lon="5.48478">
        <ele>409.3</ele>
        <time>2025-10-19T14:01:02Z</time>
      </trkpt>
      <trkpt lat="43.22709" lon="5.48479">
        <ele>409.2</ele>
        <time>2025-10-19T14:01:03Z</time>
      </trkpt>
      <trkpt lat="43.22709" lon="5.48481">
        <ele>409.1</ele>
        <time>2025-10-19T14:01:04Z</time>
      </trkpt>
      <trkpt lat="43.22709" lon="5.48482">
        <ele>409</ele>
        <time>2025-10-19T14:01:05Z</time>
      </trkpt>
      <trkpt lat="43.2271" lon="5.48483">
        <ele>408.9</ele>
        <time>2025-10-19T14:01:06Z</time>
      </trkpt>
      <trkpt lat="43.2271" lon="5.48484">
        <ele>408.9</ele>
        <time>2025-10-19T14:01:07Z</time>
      </trkpt>
      <trkpt lat="43.2271" lon="5.48486">
        <ele>408.8</ele>
        <time>2025-10-19T14:01:08Z</time>
      </trkpt>
      <trkpt lat="43.22711" lon="5.48487">
        <ele>408.7</ele>
        <time>2025-10-19T14:01:09Z</time>
      </trkpt>
      <trkpt lat="43.22711" lon="5.48488">
        <ele>408.5</ele>
        <time>2025-10-19T14:01:10Z</time>
      </trkpt>
      <trkpt lat="43.22711" lon="5.48489">
        <ele>408.5</ele>
        <time>2025-10-19T14:01:11Z</time>
      </trkpt>
      <trkpt lat="43.22712" lon="5.48491">
        <ele>408.4</ele>
        <time>2025-10-19T14:01:12Z</time>
      </trkpt>
      <trkpt lat="43.22712" lon="5.48492">
        <ele>408.4</ele>
        <time>2025-10-19T14:01:13Z</time>
      </trkpt>
      <trkpt lat="43.22712" lon="5.48494">
        <ele>408.3</ele>
        <time>2025-10-19T14:01:14Z</time>
      </trkpt>
      <trkpt lat="43.22712" lon="5.48495">
        <ele>408.2</ele>
        <time>2025-10-19T14:01:15Z</time>
      </trkpt>
      <trkpt lat="43.22713" lon="5.48497">
        <ele>408.1</ele>
        <time>2025-10-19T14:01:16Z</time>
      </trkpt>
      <trkpt lat="43.22713" lon="5.48498">
        <ele>408.2</ele>
        <time>2025-10-19T14:01:17Z</time>
      </trkpt>
      <trkpt lat="43.22713" lon="5.48499">
        <ele>408.2</ele>
        <time>2025-10-19T14:01:18Z</time>
      </trkpt>
      <trkpt lat="43.22713" lon="5.48501">
        <ele>408.1</ele>
        <time>2025-10-19T14:01:19Z</time>
      </trkpt>
      <trkpt lat="43.22713" lon="5.48503">
        <ele>408.1</ele>
        <time>2025-10-19T14:01:20Z</time>
      </trkpt>
      <trkpt lat="43.22713" lon="5.48504">
        <ele>408.1</ele>
        <time>2025-10-19T14:01:21Z</time>
      </trkpt>
      <trkpt lat="43.22714" lon="5.48505">
        <ele>408</ele>
        <time>2025-10-19T14:01:22Z</time>
      </trkpt>
      <trkpt lat="43.22715" lon="5.48507">
        <ele>407.9</ele>
        <time>2025-10-19T14:01:23Z</time>
      </trkpt>
      <trkpt lat="43.22716" lon="5.48508">
        <ele>407.8</ele>
        <time>2025-10-19T14:01:24Z</time>
      </trkpt>
      <trkpt lat="43.22716" lon="5.48509">
        <ele>407.7</ele>
        <time>2025-10-19T14:01:25Z</time>
      </trkpt>
      <trkpt lat="43.22717" lon="5.4851">
        <ele>407.7</ele>
        <time>2025-10-19T14:01:26Z</time>
      </trkpt>
      <trkpt lat="43.22717" lon="5.48512">
        <ele>407.5</ele>
        <time>2025-10-19T14:01:27Z</time>
      </trkpt>
      <trkpt lat="43.22718" lon="5.48513">
        <ele>407.4</ele>
        <time>2025-10-19T14:01:28Z</time>
      </trkpt>
      <trkpt lat="43.22718" lon="5.48515">
        <ele>407.3</ele>
        <time>2025-10-19T14:01:29Z</time>
      </trkpt>
      <trkpt lat="43.22718" lon="5.48516">
        <ele>407.1</ele>
        <time>2025-10-19T14:01:30Z</time>
      </trkpt>
      <trkpt lat="43.22719" lon="5.48518">
        <ele>407</ele>
        <time>2025-10-19T14:01:31Z</time>
      </trkpt>
      <trkpt lat="43.22719" lon="5.48519">
        <ele>406.9</ele>
        <time>2025-10-19T14:01:32Z</time>
      </trkpt>
      <trkpt lat="43.22719" lon="5.4852">
        <ele>406.7</ele>
        <time>2025-10-19T14:01:33Z</time>
      </trkpt>
      <trkpt lat="43.22719" lon="5.48522">
        <ele>406.5</ele>
        <time>2025-10-19T14:01:34Z</time>
      </trkpt>
      <trkpt lat="43.2272" lon="5.48523">
        <ele>406.3</ele>
        <time>2025-10-19T14:01:35Z</time>
      </trkpt>
      <trkpt lat="43.2272" lon="5.48524">
        <ele>406.2</ele>
        <time>2025-10-19T14:01:36Z</time>
      </trkpt>
      <trkpt lat="43.2272" lon="5.48526">
        <ele>405.9</ele>
        <time>2025-10-19T14:01:37Z</time>
      </trkpt>
      <trkpt lat="43.2272" lon="5.48527">
        <ele>405.7</ele>
        <time>2025-10-19T14:01:38Z</time>
      </trkpt>
      <trkpt lat="43.2272" lon="5.48529">
        <ele>405.4</ele>
        <time>2025-10-19T14:01:39Z</time>
      </trkpt>
      <trkpt lat="43.2272" lon="5.4853">
        <ele>405.2</ele>
        <time>2025-10-19T14:01:40Z</time>
      </trkpt>
      <trkpt lat="43.2272" lon="5.48532">
        <ele>405.1</ele>
        <time>2025-10-19T14:01:41Z</time>
      </trkpt>
      <trkpt lat="43.2272" lon="5.48534">
        <ele>404.9</ele>
        <time>2025-10-19T14:01:42Z</time>
      </trkpt>
      <trkpt lat="43.2272" lon="5.48536">
        <ele>404.8</ele>
        <time>2025-10-19T14:01:43Z</time>
      </trkpt>
      <trkpt lat="43.22721" lon="5.48538">
        <ele>404.6</ele>
        <time>2025-10-19T14:01:44Z</time>
      </trkpt>
      <trkpt lat="43.22721" lon="5.48539">
        <ele>404.5</ele>
        <time>2025-10-19T14:01:45Z</time>
      </trkpt>
      <trkpt lat="43.22722" lon="5.48541">
        <ele>404.3</ele>
        <time>2025-10-19T14:01:46Z</time>
      </trkpt>
      <trkpt lat="43.22722" lon="5.48542">
        <ele>404.2</ele>
        <time>2025-10-19T14:01:47Z</time>
      </trkpt>
      <trkpt lat="43.22722" lon="5.48544">
        <ele>404.2</ele>
        <time>2025-10-19T14:01:48Z</time>
      </trkpt>
      <trkpt lat="43.22723" lon="5.48546">
        <ele>404.1</ele>
        <time>2025-10-19T14:01:49Z</time>
      </trkpt>
      <trkpt lat="43.22723" lon="5.48547">
        <ele>404</ele>
        <time>2025-10-19T14:01:50Z</time>
      </trkpt>
      <trkpt lat="43.22724" lon="5.48548">
        <ele>403.9</ele>
        <time>2025-10-19T14:01:51Z</time>
      </trkpt>
      <trkpt lat="43.22724" lon="5.4855">
        <ele>403.9</ele>
        <time>2025-10-19T14:01:52Z</time>
      </trkpt>
      <trkpt lat="43.22724" lon="5.48552">
        <ele>403.8</ele>
        <time>2025-10-19T14:01:53Z</time>
      </trkpt>
      <trkpt lat="43.22725" lon="5.48553">
        <ele>403.7</ele>
        <time>2025-10-19T14:01:54Z</time>
      </trkpt>
      <trkpt lat="43.22725" lon="5.48555">
        <ele>403.6</ele>
        <time>2025-10-19T14:01:55Z</time>
      </trkpt>
      <trkpt lat="43.22725" lon="5.48556">
        <ele>403.6</ele>
        <time>2025-10-19T14:01:56Z</time>
      </trkpt>
      <trkpt lat="43.22726" lon="5.48558">
        <ele>403.6</ele>
        <time>2025-10-19T14:01:57Z</time>
      </trkpt>
      <trkpt lat="43.22726" lon="5.48559">
        <ele>403.7</ele>
        <time>2025-10-19T14:01:58Z</time>
      </trkpt>
      <trkpt lat="43.22727" lon="5.48561">
        <ele>403.7</ele>
        <time>2025-10-19T14:01:59Z</time>
      </trkpt>
      <trkpt lat="43.22727" lon="5.48562">
        <ele>403.7</ele>
        <time>2025-10-19T14:02:00Z</time>
      </trkpt>
      <trkpt lat="43.22728" lon="5.48564">
        <ele>403.7</ele>
        <time>2025-10-19T14:02:01Z</time>
      </trkpt>
      <trkpt lat="43.22728" lon="5.48565">
        <ele>403.8</ele>
        <time>2025-10-19T14:02:02Z</time>
      </trkpt>
      <trkpt lat="43.22728" lon="5.48566">
        <ele>403.8</ele>
        <time>2025-10-19T14:02:03Z</time>
      </trkpt>
      <trkpt lat="43.22729" lon="5.48568">
        <ele>403.8</ele>
        <time>2025-10-19T14:02:04Z</time>
      </trkpt>
      <trkpt lat="43.22729" lon="5.48569">
        <ele>403.7</ele>
        <time>2025-10-19T14:02:05Z</time>
      </trkpt>
      <trkpt lat="43.2273" lon="5.4857">
        <ele>403.7</ele>
        <time>2025-10-19T14:02:06Z</time>
      </trkpt>
      <trkpt lat="43.2273" lon="5.48572">
        <ele>403.6</ele>
        <time>2025-10-19T14:02:07Z</time>
      </trkpt>
      <trkpt lat="43.2273" lon="5.48574">
        <ele>403.6</ele>
        <time>2025-10-19T14:02:08Z</time>
      </trkpt>
      <trkpt lat="43.2273" lon="5.48575">
        <ele>403.5</ele>
        <time>2025-10-19T14:02:09Z</time>
      </trkpt>
      <trkpt lat="43.22731" lon="5.48576">
        <ele>403.5</ele>
        <time>2025-10-19T14:02:10Z</time>
      </trkpt>
      <trkpt lat="43.22731" lon="5.48578">
        <ele>403.4</ele>
        <time>2025-10-19T14:02:11Z</time>
      </trkpt>
      <trkpt lat="43.22732" lon="5.48579">
        <ele>403.4</ele>
        <time>2025-10-19T14:02:12Z</time>
      </trkpt>
      <trkpt lat="43.22732" lon="5.4858">
        <ele>403.3</ele>
        <time>2025-10-19T14:02:13Z</time>
      </trkpt>
      <trkpt lat="43.22733" lon="5.48581">
        <ele>403.2</ele>
        <time>2025-10-19T14:02:14Z</time>
      </trkpt>
      <trkpt lat="43.22733" lon="5.48583">
        <ele>403</ele>
        <time>2025-10-19T14:02:15Z</time>
      </trkpt>
      <trkpt lat="43.22734" lon="5.48584">
        <ele>402.9</ele>
        <time>2025-10-19T14:02:16Z</time>
      </trkpt>
      <trkpt lat="43.22734" lon="5.48586">
        <ele>402.9</ele>
        <time>2025-10-19T14:02:17Z</time>
      </trkpt>
      <trkpt lat="43.22735" lon="5.48587">
        <ele>402.9</ele>
        <time>2025-10-19T14:02:18Z</time>
      </trkpt>
      <trkpt lat="43.22735" lon="5.48589">
        <ele>402.8</ele>
        <time>2025-10-19T14:02:19Z</time>
      </trkpt>
      <trkpt lat="43.22736" lon="5.4859">
        <ele>402.8</ele>
        <time>2025-10-19T14:02:20Z</time>
      </trkpt>
      <trkpt lat="43.22736" lon="5.48592">
        <ele>402.6</ele>
        <time>2025-10-19T14:02:21Z</time>
      </trkpt>
      <trkpt lat="43.22737" lon="5.48594">
        <ele>402.4</ele>
        <time>2025-10-19T14:02:22Z</time>
      </trkpt>
      <trkpt lat="43.22738" lon="5.48595">
        <ele>402.3</ele>
        <time>2025-10-19T14:02:23Z</time>
      </trkpt>
      <trkpt lat="43.22739" lon="5.48596">
        <ele>402.2</ele>
        <time>2025-10-19T14:02:24Z</time>
      </trkpt>
      <trkpt lat="43.22739" lon="5.48597">
        <ele>402</ele>
        <time>2025-10-19T14:02:25Z</time>
      </trkpt>
      <trkpt lat="43.2274" lon="5.48598">
        <ele>401.9</ele>
        <time>2025-10-19T14:02:26Z</time>
      </trkpt>
      <trkpt lat="43.22741" lon="5.48599">
        <ele>401.8</ele>
        <time>2025-10-19T14:02:27Z</time>
      </trkpt>
      <trkpt lat="43.22742" lon="5.486">
        <ele>401.7</ele>
        <time>2025-10-19T14:02:28Z</time>
      </trkpt>
      <trkpt lat="43.22743" lon="5.48602">
        <ele>401.6</ele>
        <time>2025-10-19T14:02:29Z</time>
      </trkpt>
      <trkpt lat="43.22743" lon="5.48603">
        <ele>401.5</ele>
        <time>2025-10-19T14:02:30Z</time>
      </trkpt>
      <trkpt lat="43.22743" lon="5.48604">
        <ele>401.4</ele>
        <time>2025-10-19T14:02:31Z</time>
      </trkpt>
      <trkpt lat="43.22744" lon="5.48605">
        <ele>401.3</ele>
        <time>2025-10-19T14:02:32Z</time>
      </trkpt>
      <trkpt lat="43.22744" lon="5.48607">
        <ele>401.2</ele>
        <time>2025-10-19T14:02:33Z</time>
      </trkpt>
      <trkpt lat="43.22744" lon="5.48608">
        <ele>401.1</ele>
        <time>2025-10-19T14:02:34Z</time>
      </trkpt>
      <trkpt lat="43.22745" lon="5.4861">
        <ele>401.1</ele>
        <time>2025-10-19T14:02:35Z</time>
      </trkpt>
      <trkpt lat="43.22745" lon="5.48611">
        <ele>401.1</ele>
        <time>2025-10-19T14:02:36Z</time>
      </trkpt>
      <trkpt lat="43.22745" lon="5.48612">
        <ele>401</ele>
        <time>2025-10-19T14:02:37Z</time>
      </trkpt>
      <trkpt lat="43.22746" lon="5.48613">
        <ele>400.7</ele>
        <time>2025-10-19T14:02:38Z</time>
      </trkpt>
      <trkpt lat="43.22747" lon="5.48614">
        <ele>400.6</ele>
        <time>2025-10-19T14:02:39Z</time>
      </trkpt>
      <trkpt lat="43.22747" lon="5.48616">
        <ele>400.3</ele>
        <time>2025-10-19T14:02:40Z</time>
      </trkpt>
      <trkpt lat="43.22748" lon="5.48617">
        <ele>400.1</ele>
        <time>2025-10-19T14:02:41Z</time>
      </trkpt>
      <trkpt lat="43.22748" lon="5.48618">
        <ele>400</ele>
        <time>2025-10-19T14:02:42Z</time>
      </trkpt>
      <trkpt lat="43.22748" lon="5.48619">
        <ele>399.8</ele>
        <time>2025-10-19T14:02:43Z</time>
      </trkpt>
      <trkpt lat="43.22749" lon="5.4862">
        <ele>399.8</ele>
        <time>2025-10-19T14:02:44Z</time>
      </trkpt>
      <trkpt lat="43.22749" lon="5.48621">
        <ele>399.6</ele>
        <time>2025-10-19T14:02:45Z</time>
      </trkpt>
      <trkpt lat="43.2275" lon="5.48623">
        <ele>399.4</ele>
        <time>2025-10-19T14:02:46Z</time>
      </trkpt>
      <trkpt lat="43.2275" lon="5.48624">
        <ele>399.3</ele>
        <time>2025-10-19T14:02:47Z</time>
      </trkpt>
      <trkpt lat="43.2275" lon="5.48626">
        <ele>399.1</ele>
        <time>2025-10-19T14:02:48Z</time>
      </trkpt>
      <trkpt lat="43.22751" lon="5.48627">
        <ele>399</ele>
        <time>2025-10-19T14:02:49Z</time>
      </trkpt>
      <trkpt lat="43.22751" lon="5.48628">
        <ele>399</ele>
        <time>2025-10-19T14:02:50Z</time>
      </trkpt>
      <trkpt lat="43.22752" lon="5.48629">
        <ele>398.9</ele>
        <time>2025-10-19T14:02:51Z</time>
      </trkpt>
      <trkpt lat="43.22752" lon="5.4863">
        <ele>398.8</ele>
        <time>2025-10-19T14:02:52Z</time>
      </trkpt>
      <trkpt lat="43.22753" lon="5.48632">
        <ele>398.7</ele>
        <time>2025-10-19T14:02:53Z</time>
      </trkpt>
      <trkpt lat="43.22753" lon="5.48633">
        <ele>398.6</ele>
        <time>2025-10-19T14:02:54Z</time>
      </trkpt>
      <trkpt lat="43.22754" lon="5.48634">
        <ele>398.4</ele>
        <time>2025-10-19T14:02:55Z</time>
      </trkpt>
      <trkpt lat="43.22754" lon="5.48635">
        <ele>398.3</ele>
        <time>2025-10-19T14:02:56Z</time>
      </trkpt>
      <trkpt lat="43.22755" lon="5.48636">
        <ele>398.1</ele>
        <time>2025-10-19T14:02:57Z</time>
      </trkpt>
      <trkpt lat="43.22755" lon="5.48638">
        <ele>397.9</ele>
        <time>2025-10-19T14:02:58Z</time>
      </trkpt>
      <trkpt lat="43.22756" lon="5.48639">
        <ele>397.8</ele>
        <time>2025-10-19T14:02:59Z</time>
      </trkpt>
      <trkpt lat="43.22756" lon="5.4864">
        <ele>397.8</ele>
        <time>2025-10-19T14:03:00Z</time>
      </trkpt>
      <trkpt lat="43.22757" lon="5.48641">
        <ele>397.7</ele>
        <time>2025-10-19T14:03:01Z</time>
      </trkpt>
      <trkpt lat="43.22757" lon="5.48643">
        <ele>397.6</ele>
        <time>2025-10-19T14:03:02Z</time>
      </trkpt>
      <trkpt lat="43.22757" lon="5.48644">
        <ele>397.5</ele>
        <time>2025-10-19T14:03:03Z</time>
      </trkpt>
      <trkpt lat="43.22758" lon="5.48645">
        <ele>397.7</ele>
        <time>2025-10-19T14:03:04Z</time>
      </trkpt>
      <trkpt lat="43.22758" lon="5.48646">
        <ele>397.5</ele>
        <time>2025-10-19T14:03:05Z</time>
      </trkpt>
      <trkpt lat="43.22759" lon="5.48648">
        <ele>397.4</ele>
        <time>2025-10-19T14:03:06Z</time>
      </trkpt>
      <trkpt lat="43.22759" lon="5.48649">
        <ele>397.3</ele>
        <time>2025-10-19T14:03:07Z</time>
      </trkpt>
      <trkpt lat="43.22759" lon="5.48651">
        <ele>397.3</ele>
        <time>2025-10-19T14:03:08Z</time>
      </trkpt>
      <trkpt lat="43.2276" lon="5.48652">
        <ele>397.2</ele>
        <time>2025-10-19T14:03:09Z</time>
      </trkpt>
      <trkpt lat="43.2276" lon="5.48654">
        <ele>397.1</ele>
        <time>2025-10-19T14:03:10Z</time>
      </trkpt>
      <trkpt lat="43.2276" lon="5.48655">
        <ele>397</ele>
        <time>2025-10-19T14:03:11Z</time>
      </trkpt>
      <trkpt lat="43.22761" lon="5.48657">
        <ele>396.8</ele>
        <time>2025-10-19T14:03:12Z</time>
      </trkpt>
      <trkpt lat="43.22762" lon="5.48658">
        <ele>396.6</ele>
        <time>2025-10-19T14:03:13Z</time>
      </trkpt>
      <trkpt lat="43.22762" lon="5.48659">
        <ele>396.5</ele>
        <time>2025-10-19T14:03:14Z</time>
      </trkpt>
      <trkpt lat="43.22762" lon="5.48661">
        <ele>396.5</ele>
        <time>2025-10-19T14:03:15Z</time>
      </trkpt>
      <trkpt lat="43.22762" lon="5.48662">
        <ele>396.5</ele>
        <time>2025-10-19T14:03:16Z</time>
      </trkpt>
      <trkpt lat="43.22763" lon="5.48664">
        <ele>396.4</ele>
        <time>2025-10-19T14:03:17Z</time>
      </trkpt>
      <trkpt lat="43.22763" lon="5.48665">
        <ele>396.3</ele>
        <time>2025-10-19T14:03:18Z</time>
      </trkpt>
      <trkpt lat="43.22763" lon="5.48667">
        <ele>396.2</ele>
        <time>2025-10-19T14:03:19Z</time>
      </trkpt>
      <trkpt lat="43.22764" lon="5.48668">
        <ele>396.1</ele>
        <time>2025-10-19T14:03:20Z</time>
      </trkpt>
      <trkpt lat="43.22764" lon="5.48669">
        <ele>396.2</ele>
        <time>2025-10-19T14:03:21Z</time>
      </trkpt>
      <trkpt lat="43.22764" lon="5.48671">
        <ele>396.1</ele>
        <time>2025-10-19T14:03:22Z</time>
      </trkpt>
      <trkpt lat="43.22765" lon="5.48672">
        <ele>396</ele>
        <time>2025-10-19T14:03:23Z</time>
      </trkpt>
      <trkpt lat="43.22765" lon="5.48674">
        <ele>395.9</ele>
        <time>2025-10-19T14:03:24Z</time>
      </trkpt>
      <trkpt lat="43.22765" lon="5.48675">
        <ele>395.8</ele>
        <time>2025-10-19T14:03:25Z</time>
      </trkpt>
      <trkpt lat="43.22765" lon="5.48677">
        <ele>395.7</ele>
        <time>2025-10-19T14:03:26Z</time>
      </trkpt>
      <trkpt lat="43.22765" lon="5.48678">
        <ele>395.7</ele>
        <time>2025-10-19T14:03:27Z</time>
      </trkpt>
      <trkpt lat="43.22765" lon="5.48679">
        <ele>395.6</ele>
        <time>2025-10-19T14:03:28Z</time>
      </trkpt>
      <trkpt lat="43.22765" lon="5.4868">
        <ele>395.5</ele>
        <time>2025-10-19T14:03:29Z</time>
      </trkpt>
      <trkpt lat="43.22765" lon="5.48681">
        <ele>395.5</ele>
        <time>2025-10-19T14:03:30Z</time>
      </trkpt>
      <trkpt lat="43.22766" lon="5.48683">
        <ele>395.5</ele>
        <time>2025-10-19T14:03:31Z</time>
      </trkpt>
      <trkpt lat="43.22766" lon="5.48684">
        <ele>395.4</ele>
        <time>2025-10-19T14:03:32Z</time>
      </trkpt>
      <trkpt lat="43.22766" lon="5.48685">
        <ele>395.3</ele>
        <time>2025-10-19T14:03:33Z</time>
      </trkpt>
      <trkpt lat="43.22766" lon="5.48687">
        <ele>395.3</ele>
        <time>2025-10-19T14:03:34Z</time>
      </trkpt>
      <trkpt lat="43.22766" lon="5.48688">
        <ele>395.2</ele>
        <time>2025-10-19T14:03:35Z</time>
      </trkpt>
      <trkpt lat="43.22767" lon="5.48689">
        <ele>395.2</ele>
        <time>2025-10-19T14:03:36Z</time>
      </trkpt>
      <trkpt lat="43.22767" lon="5.48691">
        <ele>395.1</ele>
        <time>2025-10-19T14:03:37Z</time>
      </trkpt>
      <trkpt lat="43.22767" lon="5.48692">
        <ele>395</ele>
        <time>2025-10-19T14:03:38Z</time>
      </trkpt>
      <trkpt lat="43.22767" lon="5.48693">
        <ele>394.9</ele>
        <time>2025-10-19T14:03:39Z</time>
      </trkpt>
      <trkpt lat="43.22767" lon="5.48694">
        <ele>394.8</ele>
        <time>2025-10-19T14:03:40Z</time>
      </trkpt>
      <trkpt lat="43.22768" lon="5.48696">
        <ele>394.6</ele>
        <time>2025-10-19T14:03:41Z</time>
      </trkpt>
      <trkpt lat="43.22768" lon="5.48697">
        <ele>394.5</ele>
        <time>2025-10-19T14:03:42Z</time>
      </trkpt>
      <trkpt lat="43.22768" lon="5.48698">
        <ele>394.3</ele>
        <time>2025-10-19T14:03:43Z</time>
      </trkpt>
      <trkpt lat="43.22768" lon="5.487">
        <ele>394.3</ele>
        <time>2025-10-19T14:03:44Z</time>
      </trkpt>
      <trkpt lat="43.22769" lon="5.48701">
        <ele>394.3</ele>
        <time>2025-10-19T14:03:45Z</time>
      </trkpt>
      <trkpt lat="43.22769" lon="5.48703">
        <ele>394.1</ele>
        <time>2025-10-19T14:03:46Z</time>
      </trkpt>
      <trkpt lat="43.22769" lon="5.48704">
        <ele>394.1</ele>
        <time>2025-10-19T14:03:47Z</time>
      </trkpt>
      <trkpt lat="43.2277" lon="5.48705">
        <ele>393.8</ele>
        <time>2025-10-19T14:03:48Z</time>
      </trkpt>
      <trkpt lat="43.2277" lon="5.48706">
        <ele>393.7</ele>
        <time>2025-10-19T14:03:49Z</time>
      </trkpt>
      <trkpt lat="43.2277" lon="5.48708">
        <ele>393.5</ele>
        <time>2025-10-19T14:03:50Z</time>
      </trkpt>
      <trkpt lat="43.2277" lon="5.48709">
        <ele>393.4</ele>
        <time>2025-10-19T14:03:51Z</time>
      </trkpt>
      <trkpt lat="43.2277" lon="5.4871">
        <ele>393.3</ele>
        <time>2025-10-19T14:03:52Z</time>
      </trkpt>
      <trkpt lat="43.2277" lon="5.48712">
        <ele>393.2</ele>
        <time>2025-10-19T14:03:53Z</time>
      </trkpt>
      <trkpt lat="43.22771" lon="5.48713">
        <ele>393</ele>
        <time>2025-10-19T14:03:54Z</time>
      </trkpt>
      <trkpt lat="43.22771" lon="5.48714">
        <ele>392.9</ele>
        <time>2025-10-19T14:03:55Z</time>
      </trkpt>
      <trkpt lat="43.22771" lon="5.48716">
        <ele>392.7</ele>
        <time>2025-10-19T14:03:56Z</time>
      </trkpt>
      <trkpt lat="43.22772" lon="5.48717">
        <ele>392.5</ele>
        <time>2025-10-19T14:03:57Z</time>
      </trkpt>
      <trkpt lat="43.22772" lon="5.48718">
        <ele>392.4</ele>
        <time>2025-10-19T14:03:58Z</time>
      </trkpt>
      <trkpt lat="43.22772" lon="5.48719">
        <ele>392.2</ele>
        <time>2025-10-19T14:03:59Z</time>
      </trkpt>
      <trkpt lat="43.22772" lon="5.4872">
        <ele>392.2</ele>
        <time>2025-10-19T14:04:00Z</time>
      </trkpt>
      <trkpt lat="43.22772" lon="5.48722">
        <ele>392.1</ele>
        <time>2025-10-19T14:04:01Z</time>
      </trkpt>
      <trkpt lat="43.22772" lon="5.48723">
        <ele>392</ele>
        <time>2025-10-19T14:04:02Z</time>
      </trkpt>
      <trkpt lat="43.22772" lon="5.48725">
        <ele>391.9</ele>
        <time>2025-10-19T14:04:03Z</time>
      </trkpt>
      <trkpt lat="43.22773" lon="5.48726">
        <ele>391.7</ele>
        <time>2025-10-19T14:04:04Z</time>
      </trkpt>
      <trkpt lat="43.22773" lon="5.48727">
        <ele>391.4</ele>
        <time>2025-10-19T14:04:05Z</time>
      </trkpt>
      <trkpt lat="43.22773" lon="5.48729">
        <ele>391.3</ele>
        <time>2025-10-19T14:04:06Z</time>
      </trkpt>
      <trkpt lat="43.22774" lon="5.4873">
        <ele>391.1</ele>
        <time>2025-10-19T14:04:07Z</time>
      </trkpt>
      <trkpt lat="43.22774" lon="5.48731">
        <ele>390.9</ele>
        <time>2025-10-19T14:04:08Z</time>
      </trkpt>
      <trkpt lat="43.22774" lon="5.48732">
        <ele>390.6</ele>
        <time>2025-10-19T14:04:09Z</time>
      </trkpt>
      <trkpt lat="43.22775" lon="5.48734">
        <ele>390.4</ele>
        <time>2025-10-19T14:04:10Z</time>
      </trkpt>
      <trkpt lat="43.22775" lon="5.48735">
        <ele>390.2</ele>
        <time>2025-10-19T14:04:11Z</time>
      </trkpt>
      <trkpt lat="43.22775" lon="5.48736">
        <ele>390.1</ele>
        <time>2025-10-19T14:04:12Z</time>
      </trkpt>
      <trkpt lat="43.22775" lon="5.48737">
        <ele>389.8</ele>
        <time>2025-10-19T14:04:13Z</time>
      </trkpt>
      <trkpt lat="43.22775" lon="5.48739">
        <ele>389.7</ele>
        <time>2025-10-19T14:04:14Z</time>
      </trkpt>
      <trkpt lat="43.22776" lon="5.4874">
        <ele>389.5</ele>
        <time>2025-10-19T14:04:15Z</time>
      </trkpt>
      <trkpt lat="43.22776" lon="5.48741">
        <ele>389.4</ele>
        <time>2025-10-19T14:04:16Z</time>
      </trkpt>
      <trkpt lat="43.22776" lon="5.48743">
        <ele>389.2</ele>
        <time>2025-10-19T14:04:17Z</time>
      </trkpt>
      <trkpt lat="43.22777" lon="5.48744">
        <ele>389.1</ele>
        <time>2025-10-19T14:04:18Z</time>
      </trkpt>
      <trkpt lat="43.22777" lon="5.48745">
        <ele>389</ele>
        <time>2025-10-19T14:04:19Z</time>
      </trkpt>
      <trkpt lat="43.22777" lon="5.48747">
        <ele>388.9</ele>
        <time>2025-10-19T14:04:20Z</time>
      </trkpt>
      <trkpt lat="43.22777" lon="5.48748">
        <ele>388.8</ele>
        <time>2025-10-19T14:04:21Z</time>
      </trkpt>
      <trkpt lat="43.22777" lon="5.48749">
        <ele>388.7</ele>
        <time>2025-10-19T14:04:22Z</time>
      </trkpt>
      <trkpt lat="43.22778" lon="5.48751">
        <ele>388.6</ele>
        <time>2025-10-19T14:04:23Z</time>
      </trkpt>
      <trkpt lat="43.22778" lon="5.48752">
        <ele>388.3</ele>
        <time>2025-10-19T14:04:24Z</time>
      </trkpt>
      <trkpt lat="43.22778" lon="5.48754">
        <ele>388.2</ele>
        <time>2025-10-19T14:04:25Z</time>
      </trkpt>
      <trkpt lat="43.22779" lon="5.48755">
        <ele>388</ele>
        <time>2025-10-19T14:04:26Z</time>
      </trkpt>
      <trkpt lat="43.22779" lon="5.48756">
        <ele>387.9</ele>
        <time>2025-10-19T14:04:27Z</time>
      </trkpt>
      <trkpt lat="43.2278" lon="5.48757">
        <ele>387.9</ele>
        <time>2025-10-19T14:04:28Z</time>
      </trkpt>
      <trkpt lat="43.2278" lon="5.48759">
        <ele>387.8</ele>
        <time>2025-10-19T14:04:29Z</time>
      </trkpt>
      <trkpt lat="43.2278" lon="5.4876">
        <ele>387.7</ele>
        <time>2025-10-19T14:04:30Z</time>
      </trkpt>
      <trkpt lat="43.2278" lon="5.48761">
        <ele>387.6</ele>
        <time>2025-10-19T14:04:31Z</time>
      </trkpt>
      <trkpt lat="43.22781" lon="5.48762">
        <ele>387.5</ele>
        <time>2025-10-19T14:04:32Z</time>
      </trkpt>
      <trkpt lat="43.22781" lon="5.48764">
        <ele>387.3</ele>
        <time>2025-10-19T14:04:33Z</time>
      </trkpt>
      <trkpt lat="43.22781" lon="5.48765">
        <ele>387.1</ele>
        <time>2025-10-19T14:04:34Z</time>
      </trkpt>
      <trkpt lat="43.22782" lon="5.48766">
        <ele>387</ele>
        <time>2025-10-19T14:04:35Z</time>
      </trkpt>
      <trkpt lat="43.22782" lon="5.48768">
        <ele>386.9</ele>
        <time>2025-10-19T14:04:36Z</time>
      </trkpt>
      <trkpt lat="43.22782" lon="5.48769">
        <ele>386.9</ele>
        <time>2025-10-19T14:04:37Z</time>
      </trkpt>
      <trkpt lat="43.22783" lon="5.4877">
        <ele>386.7</ele>
        <time>2025-10-19T14:04:38Z</time>
      </trkpt>
      <trkpt lat="43.22783" lon="5.48772">
        <ele>386.6</ele>
        <time>2025-10-19T14:04:39Z</time>
      </trkpt>
      <trkpt lat="43.22783" lon="5.48773">
        <ele>386.5</ele>
        <time>2025-10-19T14:04:40Z</time>
      </trkpt>
      <trkpt lat="43.22783" lon="5.48774">
        <ele>386.4</ele>
        <time>2025-10-19T14:04:41Z</time>
      </trkpt>
      <trkpt lat="43.22784" lon="5.48776">
        <ele>386.3</ele>
        <time>2025-10-19T14:04:42Z</time>
      </trkpt>
      <trkpt lat="43.22784" lon="5.48777">
        <ele>386.2</ele>
        <time>2025-10-19T14:04:43Z</time>
      </trkpt>
      <trkpt lat="43.22784" lon="5.48779">
        <ele>386.1</ele>
        <time>2025-10-19T14:04:44Z</time>
      </trkpt>
      <trkpt lat="43.22784" lon="5.4878">
        <ele>386</ele>
        <time>2025-10-19T14:04:45Z</time>
      </trkpt>
      <trkpt lat="43.22784" lon="5.48782">
        <ele>385.9</ele>
        <time>2025-10-19T14:04:46Z</time>
      </trkpt>
      <trkpt lat="43.22785" lon="5.48783">
        <ele>385.9</ele>
        <time>2025-10-19T14:04:47Z</time>
      </trkpt>
      <trkpt lat="43.22785" lon="5.48784">
        <ele>385.7</ele>
        <time>2025-10-19T14:04:48Z</time>
      </trkpt>
      <trkpt lat="43.22785" lon="5.48786">
        <ele>385.6</ele>
        <time>2025-10-19T14:04:49Z</time>
      </trkpt>
      <trkpt lat="43.22786" lon="5.48787">
        <ele>385.5</ele>
        <time>2025-10-19T14:04:50Z</time>
      </trkpt>
      <trkpt lat="43.22786" lon="5.48788">
        <ele>385.4</ele>
        <time>2025-10-19T14:04:51Z</time>
      </trkpt>
      <trkpt lat="43.22786" lon="5.4879">
        <ele>385.3</ele>
        <time>2025-10-19T14:04:52Z</time>
      </trkpt>
      <trkpt lat="43.22786" lon="5.48791">
        <ele>385.2</ele>
        <time>2025-10-19T14:04:53Z</time>
      </trkpt>
      <trkpt lat="43.22786" lon="5.48792">
        <ele>385</ele>
        <time>2025-10-19T14:04:54Z</time>
      </trkpt>
      <trkpt lat="43.22786" lon="5.48793">
        <ele>384.7</ele>
        <time>2025-10-19T14:04:55Z</time>
      </trkpt>
      <trkpt lat="43.22786" lon="5.48795">
        <ele>384.6</ele>
        <time>2025-10-19T14:04:56Z</time>
      </trkpt>
      <trkpt lat="43.22786" lon="5.48796">
        <ele>384.5</ele>
        <time>2025-10-19T14:04:57Z</time>
      </trkpt>
      <trkpt lat="43.22786" lon="5.48797">
        <ele>384.3</ele>
        <time>2025-10-19T14:04:58Z</time>
      </trkpt>
      <trkpt lat="43.22786" lon="5.48799">
        <ele>384.2</ele>
        <time>2025-10-19T14:04:59Z</time>
      </trkpt>
      <trkpt lat="43.22786" lon="5.488">
        <ele>384.1</ele>
        <time>2025-10-19T14:05:00Z</time>
      </trkpt>
      <trkpt lat="43.22787" lon="5.48801">
        <ele>384</ele>
        <time>2025-10-19T14:05:01Z</time>
      </trkpt>
      <trkpt lat="43.22787" lon="5.48803">
        <ele>383.8</ele>
        <time>2025-10-19T14:05:02Z</time>
      </trkpt>
      <trkpt lat="43.22787" lon="5.48804">
        <ele>383.5</ele>
        <time>2025-10-19T14:05:03Z</time>
      </trkpt>
      <trkpt lat="43.22787" lon="5.48805">
        <ele>383.3</ele>
        <time>2025-10-19T14:05:04Z</time>
      </trkpt>
      <trkpt lat="43.22788" lon="5.48806">
        <ele>383.1</ele>
        <time>2025-10-19T14:05:05Z</time>
      </trkpt>
      <trkpt lat="43.22788" lon="5.48807">
        <ele>383</ele>
        <time>2025-10-19T14:05:06Z</time>
      </trkpt>
      <trkpt lat="43.22788" lon="5.48808">
        <ele>382.8</ele>
        <time>2025-10-19T14:05:07Z</time>
      </trkpt>
      <trkpt lat="43.22788" lon="5.48809">
        <ele>382.8</ele>
        <time>2025-10-19T14:05:08Z</time>
      </trkpt>
      <trkpt lat="43.22788" lon="5.4881">
        <ele>382.7</ele>
        <time>2025-10-19T14:05:09Z</time>
      </trkpt>
      <trkpt lat="43.22788" lon="5.48811">
        <ele>382.6</ele>
        <time>2025-10-19T14:05:10Z</time>
      </trkpt>
      <trkpt lat="43.22788" lon="5.48812">
        <ele>382.5</ele>
        <time>2025-10-19T14:05:11Z</time>
      </trkpt>
      <trkpt lat="43.22788" lon="5.48812">
        <ele>382.5</ele>
        <time>2025-10-19T14:05:12Z</time>
      </trkpt>
      <trkpt lat="43.22788" lon="5.48813">
        <ele>382.5</ele>
        <time>2025-10-19T14:05:13Z</time>
      </trkpt>
      <trkpt lat="43.22788" lon="5.48814">
        <ele>382.3</ele>
        <time>2025-10-19T14:05:14Z</time>
      </trkpt>
      <trkpt lat="43.22788" lon="5.48815">
        <ele>382.2</ele>
        <time>2025-10-19T14:05:15Z</time>
      </trkpt>
      <trkpt lat="43.22788" lon="5.48816">
        <ele>382.1</ele>
        <time>2025-10-19T14:05:16Z</time>
      </trkpt>
      <trkpt lat="43.22788" lon="5.48818">
        <ele>382.1</ele>
        <time>2025-10-19T14:05:17Z</time>
      </trkpt>
      <trkpt lat="43.22789" lon="5.48819">
        <ele>381.9</ele>
        <time>2025-10-19T14:05:18Z</time>
      </trkpt>
      <trkpt lat="43.22789" lon="5.4882">
        <ele>381.7</ele>
        <time>2025-10-19T14:05:19Z</time>
      </trkpt>
      <trkpt lat="43.22789" lon="5.48821">
        <ele>381.6</ele>
        <time>2025-10-19T14:05:20Z</time>
      </trkpt>
      <trkpt lat="43.22789" lon="5.48822">
        <ele>381.3</ele>
        <time>2025-10-19T14:05:21Z</time>
      </trkpt>
      <trkpt lat="43.22789" lon="5.48823">
        <ele>381.1</ele>
        <time>2025-10-19T14:05:22Z</time>
      </trkpt>
      <trkpt lat="43.2279" lon="5.48824">
        <ele>381</ele>
        <time>2025-10-19T14:05:23Z</time>
      </trkpt>
      <trkpt lat="43.2279" lon="5.48825">
        <ele>380.9</ele>
        <time>2025-10-19T14:05:24Z</time>
      </trkpt>
      <trkpt lat="43.2279" lon="5.48826">
        <ele>380.8</ele>
        <time>2025-10-19T14:05:25Z</time>
      </trkpt>
      <trkpt lat="43.2279" lon="5.48828">
        <ele>380.7</ele>
        <time>2025-10-19T14:05:26Z</time>
      </trkpt>
      <trkpt lat="43.2279" lon="5.48829">
        <ele>380.5</ele>
        <time>2025-10-19T14:05:27Z</time>
      </trkpt>
      <trkpt lat="43.22791" lon="5.4883">
        <ele>380.4</ele>
        <time>2025-10-19T14:05:28Z</time>
      </trkpt>
      <trkpt lat="43.22791" lon="5.48831">
        <ele>380.3</ele>
        <time>2025-10-19T14:05:29Z</time>
      </trkpt>
      <trkpt lat="43.22791" lon="5.48832">
        <ele>380.2</ele>
        <time>2025-10-19T14:05:30Z</time>
      </trkpt>
      <trkpt lat="43.22792" lon="5.48833">
        <ele>380.1</ele>
        <time>2025-10-19T14:05:31Z</time>
      </trkpt>
      <trkpt lat="43.22792" lon="5.48834">
        <ele>379.9</ele>
        <time>2025-10-19T14:05:32Z</time>
      </trkpt>
      <trkpt lat="43.22793" lon="5.48835">
        <ele>379.7</ele>
        <time>2025-10-19T14:05:33Z</time>
      </trkpt>
      <trkpt lat="43.22793" lon="5.48836">
        <ele>379.6</ele>
        <time>2025-10-19T14:05:34Z</time>
      </trkpt>
      <trkpt lat="43.22793" lon="5.48838">
        <ele>379.6</ele>
        <time>2025-10-19T14:05:35Z</time>
      </trkpt>
      <trkpt lat="43.22793" lon="5.48839">
        <ele>379.6</ele>
        <time>2025-10-19T14:05:36Z</time>
      </trkpt>
      <trkpt lat="43.22793" lon="5.4884">
        <ele>379.5</ele>
        <time>2025-10-19T14:05:37Z</time>
      </trkpt>
      <trkpt lat="43.22793" lon="5.48841">
        <ele>379.4</ele>
        <time>2025-10-19T14:05:38Z</time>
      </trkpt>
      <trkpt lat="43.22793" lon="5.48843">
        <ele>379.3</ele>
        <time>2025-10-19T14:05:39Z</time>
      </trkpt>
      <trkpt lat="43.22794" lon="5.48844">
        <ele>379.1</ele>
        <time>2025-10-19T14:05:40Z</time>
      </trkpt>
      <trkpt lat="43.22794" lon="5.48845">
        <ele>378.9</ele>
        <time>2025-10-19T14:05:41Z</time>
      </trkpt>
      <trkpt lat="43.22794" lon="5.48847">
        <ele>378.7</ele>
        <time>2025-10-19T14:05:42Z</time>
      </trkpt>
      <trkpt lat="43.22794" lon="5.48848">
        <ele>378.5</ele>
        <time>2025-10-19T14:05:43Z</time>
      </trkpt>
      <trkpt lat="43.22795" lon="5.48849">
        <ele>378.3</ele>
        <time>2025-10-19T14:05:44Z</time>
      </trkpt>
      <trkpt lat="43.22795" lon="5.4885">
        <ele>378.1</ele>
        <time>2025-10-19T14:05:45Z</time>
      </trkpt>
      <trkpt lat="43.22795" lon="5.48852">
        <ele>378</ele>
        <time>2025-10-19T14:05:46Z</time>
      </trkpt>
      <trkpt lat="43.22795" lon="5.48853">
        <ele>377.9</ele>
        <time>2025-10-19T14:05:47Z</time>
      </trkpt>
      <trkpt lat="43.22795" lon="5.48854">
        <ele>377.7</ele>
        <time>2025-10-19T14:05:48Z</time>
      </trkpt>
      <trkpt lat="43.22795" lon="5.48855">
        <ele>377.4</ele>
        <time>2025-10-19T14:05:49Z</time>
      </trkpt>
      <trkpt lat="43.22795" lon="5.48857">
        <ele>377.1</ele>
        <time>2025-10-19T14:05:50Z</time>
      </trkpt>
      <trkpt lat="43.22795" lon="5.48858">
        <ele>377</ele>
        <time>2025-10-19T14:05:51Z</time>
      </trkpt>
      <trkpt lat="43.22795" lon="5.48859">
        <ele>376.9</ele>
        <time>2025-10-19T14:05:52Z</time>
      </trkpt>
      <trkpt lat="43.22795" lon="5.48861">
        <ele>376.9</ele>
        <time>2025-10-19T14:05:53Z</time>
      </trkpt>
      <trkpt lat="43.22795" lon="5.48862">
        <ele>376.8</ele>
        <time>2025-10-19T14:05:54Z</time>
      </trkpt>
      <trkpt lat="43.22795" lon="5.48863">
        <ele>376.7</ele>
        <time>2025-10-19T14:05:55Z</time>
      </trkpt>
      <trkpt lat="43.22795" lon="5.48865">
        <ele>376.6</ele>
        <time>2025-10-19T14:05:56Z</time>
      </trkpt>
      <trkpt lat="43.22795" lon="5.48866">
        <ele>376.5</ele>
        <time>2025-10-19T14:05:57Z</time>
      </trkpt>
      <trkpt lat="43.22795" lon="5.48867">
        <ele>376.4</ele>
        <time>2025-10-19T14:05:58Z</time>
      </trkpt>
      <trkpt lat="43.22795" lon="5.48869">
        <ele>376.3</ele>
        <time>2025-10-19T14:05:59Z</time>
      </trkpt>
      <trkpt lat="43.22795" lon="5.4887">
        <ele>376.1</ele>
        <time>2025-10-19T14:06:00Z</time>
      </trkpt>
      <trkpt lat="43.22795" lon="5.48871">
        <ele>376</ele>
        <time>2025-10-19T14:06:01Z</time>
      </trkpt>
      <trkpt lat="43.22795" lon="5.48873">
        <ele>375.9</ele>
        <time>2025-10-19T14:06:02Z</time>
      </trkpt>
      <trkpt lat="43.22795" lon="5.48874">
        <ele>375.8</ele>
        <time>2025-10-19T14:06:03Z</time>
      </trkpt>
      <trkpt lat="43.22795" lon="5.48875">
        <ele>375.7</ele>
        <time>2025-10-19T14:06:04Z</time>
      </trkpt>
      <trkpt lat="43.22795" lon="5.48876">
        <ele>375.6</ele>
        <time>2025-10-19T14:06:05Z</time>
      </trkpt>
      <trkpt lat="43.22795" lon="5.48878">
        <ele>375.6</ele>
        <time>2025-10-19T14:06:06Z</time>
      </trkpt>
      <trkpt lat="43.22795" lon="5.48879">
        <ele>375.6</ele>
        <time>2025-10-19T14:06:07Z</time>
      </trkpt>
      <trkpt lat="43.22795" lon="5.48881">
        <ele>375.6</ele>
        <time>2025-10-19T14:06:08Z</time>
      </trkpt>
      <trkpt lat="43.22795" lon="5.48882">
        <ele>375.5</ele>
        <time>2025-10-19T14:06:09Z</time>
      </trkpt>
      <trkpt lat="43.22795" lon="5.48883">
        <ele>375.3</ele>
        <time>2025-10-19T14:06:10Z</time>
      </trkpt>
      <trkpt lat="43.22795" lon="5.48884">
        <ele>375.2</ele>
        <time>2025-10-19T14:06:11Z</time>
      </trkpt>
      <trkpt lat="43.22795" lon="5.48886">
        <ele>375.1</ele>
        <time>2025-10-19T14:06:12Z</time>
      </trkpt>
      <trkpt lat="43.22795" lon="5.48887">
        <ele>375</ele>
        <time>2025-10-19T14:06:13Z</time>
      </trkpt>
      <trkpt lat="43.22796" lon="5.48889">
        <ele>374.9</ele>
        <time>2025-10-19T14:06:14Z</time>
      </trkpt>
      <trkpt lat="43.22796" lon="5.4889">
        <ele>374.8</ele>
        <time>2025-10-19T14:06:15Z</time>
      </trkpt>
      <trkpt lat="43.22796" lon="5.48892">
        <ele>374.7</ele>
        <time>2025-10-19T14:06:16Z</time>
      </trkpt>
      <trkpt lat="43.22796" lon="5.48893">
        <ele>374.6</ele>
        <time>2025-10-19T14:06:17Z</time>
      </trkpt>
      <trkpt lat="43.22796" lon="5.48895">
        <ele>374.5</ele>
        <time>2025-10-19T14:06:18Z</time>
      </trkpt>
      <trkpt lat="43.22796" lon="5.48896">
        <ele>374.3</ele>
        <time>2025-10-19T14:06:19Z</time>
      </trkpt>
      <trkpt lat="43.22796" lon="5.48897">
        <ele>374.3</ele>
        <time>2025-10-19T14:06:20Z</time>
      </trkpt>
      <trkpt lat="43.22796" lon="5.48899">
        <ele>374.2</ele>
        <time>2025-10-19T14:06:21Z</time>
      </trkpt>
      <trkpt lat="43.22796" lon="5.48901">
        <ele>374.2</ele>
        <time>2025-10-19T14:06:22Z</time>
      </trkpt>
      <trkpt lat="43.22797" lon="5.48902">
        <ele>374.1</ele>
        <time>2025-10-19T14:06:23Z</time>
      </trkpt>
      <trkpt lat="43.22797" lon="5.48904">
        <ele>374</ele>
        <time>2025-10-19T14:06:24Z</time>
      </trkpt>
      <trkpt lat="43.22797" lon="5.48905">
        <ele>373.9</ele>
        <time>2025-10-19T14:06:25Z</time>
      </trkpt>
      <trkpt lat="43.22797" lon="5.48907">
        <ele>373.8</ele>
        <time>2025-10-19T14:06:26Z</time>
      </trkpt>
      <trkpt lat="43.22797" lon="5.48908">
        <ele>373.7</ele>
        <time>2025-10-19T14:06:27Z</time>
      </trkpt>
      <trkpt lat="43.22797" lon="5.48909">
        <ele>373.7</ele>
        <time>2025-10-19T14:06:28Z</time>
      </trkpt>
      <trkpt lat="43.22797" lon="5.48911">
        <ele>373.6</ele>
        <time>2025-10-19T14:06:29Z</time>
      </trkpt>
      <trkpt lat="43.22798" lon="5.48912">
        <ele>373.6</ele>
        <time>2025-10-19T14:06:30Z</time>
      </trkpt>
      <trkpt lat="43.22798" lon="5.48913">
        <ele>373.6</ele>
        <time>2025-10-19T14:06:31Z</time>
      </trkpt>
      <trkpt lat="43.22798" lon="5.48914">
        <ele>373.6</ele>
        <time>2025-10-19T14:06:32Z</time>
      </trkpt>
      <trkpt lat="43.22798" lon="5.48916">
        <ele>373.5</ele>
        <time>2025-10-19T14:06:33Z</time>
      </trkpt>
      <trkpt lat="43.22798" lon="5.48917">
        <ele>373.5</ele>
        <time>2025-10-19T14:06:34Z</time>
      </trkpt>
      <trkpt lat="43.22798" lon="5.48919">
        <ele>373.4</ele>
        <time>2025-10-19T14:06:35Z</time>
      </trkpt>
      <trkpt lat="43.22799" lon="5.4892">
        <ele>373.4</ele>
        <time>2025-10-19T14:06:36Z</time>
      </trkpt>
      <trkpt lat="43.22799" lon="5.48921">
        <ele>373.3</ele>
        <time>2025-10-19T14:06:37Z</time>
      </trkpt>
      <trkpt lat="43.22799" lon="5.48923">
        <ele>373.2</ele>
        <time>2025-10-19T14:06:38Z</time>
      </trkpt>
      <trkpt lat="43.22799" lon="5.48924">
        <ele>373</ele>
        <time>2025-10-19T14:06:39Z</time>
      </trkpt>
      <trkpt lat="43.22799" lon="5.48925">
        <ele>372.9</ele>
        <time>2025-10-19T14:06:40Z</time>
      </trkpt>
      <trkpt lat="43.22799" lon="5.48926">
        <ele>372.9</ele>
        <time>2025-10-19T14:06:41Z</time>
      </trkpt>
      <trkpt lat="43.228" lon="5.48927">
        <ele>372.7</ele>
        <time>2025-10-19T14:06:42Z</time>
      </trkpt>
      <trkpt lat="43.228" lon="5.48928">
        <ele>372.5</ele>
        <time>2025-10-19T14:06:43Z</time>
      </trkpt>
      <trkpt lat="43.228" lon="5.4893">
        <ele>372.5</ele>
        <time>2025-10-19T14:06:44Z</time>
      </trkpt>
      <trkpt lat="43.228" lon="5.48931">
        <ele>372.4</ele>
        <time>2025-10-19T14:06:45Z</time>
      </trkpt>
      <trkpt lat="43.228" lon="5.48932">
        <ele>372.3</ele>
        <time>2025-10-19T14:06:46Z</time>
      </trkpt>
      <trkpt lat="43.228" lon="5.48933">
        <ele>372.2</ele>
        <time>2025-10-19T14:06:47Z</time>
      </trkpt>
      <trkpt lat="43.228" lon="5.48934">
        <ele>372.1</ele>
        <time>2025-10-19T14:06:48Z</time>
      </trkpt>
      <trkpt lat="43.22801" lon="5.48935">
        <ele>372.1</ele>
        <time>2025-10-19T14:06:49Z</time>
      </trkpt>
      <trkpt lat="43.22801" lon="5.48937">
        <ele>372</ele>
        <time>2025-10-19T14:06:50Z</time>
      </trkpt>
      <trkpt lat="43.22801" lon="5.48938">
        <ele>372</ele>
        <time>2025-10-19T14:06:51Z</time>
      </trkpt>
      <trkpt lat="43.22801" lon="5.48939">
        <ele>372</ele>
        <time>2025-10-19T14:06:52Z</time>
      </trkpt>
      <trkpt lat="43.22801" lon="5.4894">
        <ele>371.9</ele>
        <time>2025-10-19T14:06:53Z</time>
      </trkpt>
      <trkpt lat="43.22801" lon="5.48942">
        <ele>371.9</ele>
        <time>2025-10-19T14:06:54Z</time>
      </trkpt>
      <trkpt lat="43.22801" lon="5.48943">
        <ele>371.8</ele>
        <time>2025-10-19T14:06:55Z</time>
      </trkpt>
      <trkpt lat="43.22801" lon="5.48944">
        <ele>371.6</ele>
        <time>2025-10-19T14:06:56Z</time>
      </trkpt>
      <trkpt lat="43.22801" lon="5.48945">
        <ele>371.6</ele>
        <time>2025-10-19T14:06:57Z</time>
      </trkpt>
      <trkpt lat="43.22801" lon="5.48947">
        <ele>371.5</ele>
        <time>2025-10-19T14:06:58Z</time>
      </trkpt>
      <trkpt lat="43.22801" lon="5.48948">
        <ele>371.5</ele>
        <time>2025-10-19T14:06:59Z</time>
      </trkpt>
      <trkpt lat="43.22801" lon="5.4895">
        <ele>371.4</ele>
        <time>2025-10-19T14:07:00Z</time>
      </trkpt>
      <trkpt lat="43.22801" lon="5.48951">
        <ele>371.3</ele>
        <time>2025-10-19T14:07:01Z</time>
      </trkpt>
      <trkpt lat="43.22801" lon="5.48952">
        <ele>371.3</ele>
        <time>2025-10-19T14:07:02Z</time>
      </trkpt>
      <trkpt lat="43.22801" lon="5.48953">
        <ele>371.3</ele>
        <time>2025-10-19T14:07:03Z</time>
      </trkpt>
      <trkpt lat="43.22801" lon="5.48954">
        <ele>371.2</ele>
        <time>2025-10-19T14:07:04Z</time>
      </trkpt>
      <trkpt lat="43.22801" lon="5.48955">
        <ele>371.2</ele>
        <time>2025-10-19T14:07:05Z</time>
      </trkpt>
      <trkpt lat="43.22801" lon="5.48957">
        <ele>371.2</ele>
        <time>2025-10-19T14:07:06Z</time>
      </trkpt>
      <trkpt lat="43.22801" lon="5.48958">
        <ele>371.2</ele>
        <time>2025-10-19T14:07:07Z</time>
      </trkpt>
      <trkpt lat="43.22801" lon="5.48959">
        <ele>371.1</ele>
        <time>2025-10-19T14:07:08Z</time>
      </trkpt>
      <trkpt lat="43.22802" lon="5.4896">
        <ele>371</ele>
        <time>2025-10-19T14:07:09Z</time>
      </trkpt>
      <trkpt lat="43.22802" lon="5.48961">
        <ele>370.9</ele>
        <time>2025-10-19T14:07:10Z</time>
      </trkpt>
      <trkpt lat="43.22802" lon="5.48962">
        <ele>370.8</ele>
        <time>2025-10-19T14:07:11Z</time>
      </trkpt>
      <trkpt lat="43.22802" lon="5.48964">
        <ele>370.7</ele>
        <time>2025-10-19T14:07:12Z</time>
      </trkpt>
      <trkpt lat="43.22802" lon="5.48965">
        <ele>370.6</ele>
        <time>2025-10-19T14:07:13Z</time>
      </trkpt>
      <trkpt lat="43.22802" lon="5.48966">
        <ele>370.5</ele>
        <time>2025-10-19T14:07:14Z</time>
      </trkpt>
      <trkpt lat="43.22802" lon="5.48967">
        <ele>370.4</ele>
        <time>2025-10-19T14:07:15Z</time>
      </trkpt>
      <trkpt lat="43.22802" lon="5.48968">
        <ele>370.4</ele>
        <time>2025-10-19T14:07:16Z</time>
      </trkpt>
      <trkpt lat="43.22802" lon="5.48969">
        <ele>370.3</ele>
        <time>2025-10-19T14:07:17Z</time>
      </trkpt>
      <trkpt lat="43.22802" lon="5.48971">
        <ele>370.2</ele>
        <time>2025-10-19T14:07:18Z</time>
      </trkpt>
      <trkpt lat="43.22802" lon="5.48972">
        <ele>370.1</ele>
        <time>2025-10-19T14:07:19Z</time>
      </trkpt>
      <trkpt lat="43.22802" lon="5.48973">
        <ele>370</ele>
        <time>2025-10-19T14:07:20Z</time>
      </trkpt>
      <trkpt lat="43.22802" lon="5.48974">
        <ele>369.8</ele>
        <time>2025-10-19T14:07:21Z</time>
      </trkpt>
      <trkpt lat="43.22802" lon="5.48975">
        <ele>369.7</ele>
        <time>2025-10-19T14:07:22Z</time>
      </trkpt>
      <trkpt lat="43.22802" lon="5.48976">
        <ele>369.7</ele>
        <time>2025-10-19T14:07:23Z</time>
      </trkpt>
      <trkpt lat="43.22803" lon="5.48978">
        <ele>369.7</ele>
        <time>2025-10-19T14:07:24Z</time>
      </trkpt>
      <trkpt lat="43.22803" lon="5.48979">
        <ele>369.7</ele>
        <time>2025-10-19T14:07:25Z</time>
      </trkpt>
      <trkpt lat="43.22803" lon="5.4898">
        <ele>369.6</ele>
        <time>2025-10-19T14:07:26Z</time>
      </trkpt>
      <trkpt lat="43.22803" lon="5.48981">
        <ele>369.5</ele>
        <time>2025-10-19T14:07:27Z</time>
      </trkpt>
      <trkpt lat="43.22802" lon="5.48983">
        <ele>369.5</ele>
        <time>2025-10-19T14:07:28Z</time>
      </trkpt>
      <trkpt lat="43.22802" lon="5.48984">
        <ele>369.2</ele>
        <time>2025-10-19T14:07:29Z</time>
      </trkpt>
      <trkpt lat="43.22802" lon="5.48985">
        <ele>369.3</ele>
        <time>2025-10-19T14:07:30Z</time>
      </trkpt>
      <trkpt lat="43.22802" lon="5.48987">
        <ele>369.2</ele>
        <time>2025-10-19T14:07:31Z</time>
      </trkpt>
      <trkpt lat="43.22802" lon="5.48988">
        <ele>369.1</ele>
        <time>2025-10-19T14:07:32Z</time>
      </trkpt>
      <trkpt lat="43.22802" lon="5.48989">
        <ele>369</ele>
        <time>2025-10-19T14:07:33Z</time>
      </trkpt>
      <trkpt lat="43.22802" lon="5.4899">
        <ele>368.8</ele>
        <time>2025-10-19T14:07:34Z</time>
      </trkpt>
      <trkpt lat="43.22802" lon="5.48991">
        <ele>368.5</ele>
        <time>2025-10-19T14:07:35Z</time>
      </trkpt>
      <trkpt lat="43.22802" lon="5.48992">
        <ele>368.3</ele>
        <time>2025-10-19T14:07:36Z</time>
      </trkpt>
      <trkpt lat="43.22802" lon="5.48993">
        <ele>368.2</ele>
        <time>2025-10-19T14:07:37Z</time>
      </trkpt>
      <trkpt lat="43.22803" lon="5.48994">
        <ele>368.1</ele>
        <time>2025-10-19T14:07:38Z</time>
      </trkpt>
      <trkpt lat="43.22803" lon="5.48995">
        <ele>368.1</ele>
        <time>2025-10-19T14:07:39Z</time>
      </trkpt>
      <trkpt lat="43.22803" lon="5.48996">
        <ele>368.3</ele>
        <time>2025-10-19T14:07:40Z</time>
      </trkpt>
      <trkpt lat="43.22803" lon="5.48997">
        <ele>368.2</ele>
        <time>2025-10-19T14:07:41Z</time>
      </trkpt>
      <trkpt lat="43.22803" lon="5.48998">
        <ele>367.9</ele>
        <time>2025-10-19T14:07:42Z</time>
      </trkpt>
      <trkpt lat="43.22803" lon="5.48999">
        <ele>367.5</ele>
        <time>2025-10-19T14:07:43Z</time>
      </trkpt>
      <trkpt lat="43.22803" lon="5.49">
        <ele>367.4</ele>
        <time>2025-10-19T14:07:44Z</time>
      </trkpt>
      <trkpt lat="43.22803" lon="5.49001">
        <ele>367.1</ele>
        <time>2025-10-19T14:07:45Z</time>
      </trkpt>
      <trkpt lat="43.22803" lon="5.49002">
        <ele>366.8</ele>
        <time>2025-10-19T14:07:46Z</time>
      </trkpt>
      <trkpt lat="43.22803" lon="5.49003">
        <ele>366.5</ele>
        <time>2025-10-19T14:07:47Z</time>
      </trkpt>
      <trkpt lat="43.22803" lon="5.49004">
        <ele>366.2</ele>
        <time>2025-10-19T14:07:48Z</time>
      </trkpt>
      <trkpt lat="43.22803" lon="5.49005">
        <ele>366</ele>
        <time>2025-10-19T14:07:49Z</time>
      </trkpt>
      <trkpt lat="43.22803" lon="5.49006">
        <ele>365.8</ele>
        <time>2025-10-19T14:07:50Z</time>
      </trkpt>
      <trkpt lat="43.22803" lon="5.49007">
        <ele>365.7</ele>
        <time>2025-10-19T14:07:51Z</time>
      </trkpt>
      <trkpt lat="43.22803" lon="5.49008">
        <ele>365.5</ele>
        <time>2025-10-19T14:07:52Z</time>
      </trkpt>
      <trkpt lat="43.22803" lon="5.49009">
        <ele>365.3</ele>
        <time>2025-10-19T14:07:53Z</time>
      </trkpt>
      <trkpt lat="43.22804" lon="5.4901">
        <ele>365.2</ele>
        <time>2025-10-19T14:07:54Z</time>
      </trkpt>
      <trkpt lat="43.22804" lon="5.49011">
        <ele>365.1</ele>
        <time>2025-10-19T14:07:55Z</time>
      </trkpt>
      <trkpt lat="43.22804" lon="5.49012">
        <ele>365</ele>
        <time>2025-10-19T14:07:56Z</time>
      </trkpt>
      <trkpt lat="43.22804" lon="5.49013">
        <ele>364.8</ele>
        <time>2025-10-19T14:07:57Z</time>
      </trkpt>
      <trkpt lat="43.22804" lon="5.49015">
        <ele>364.7</ele>
        <time>2025-10-19T14:07:58Z</time>
      </trkpt>
      <trkpt lat="43.22804" lon="5.49016">
        <ele>364.4</ele>
        <time>2025-10-19T14:07:59Z</time>
      </trkpt>
      <trkpt lat="43.22804" lon="5.49017">
        <ele>364.3</ele>
        <time>2025-10-19T14:08:00Z</time>
      </trkpt>
      <trkpt lat="43.22804" lon="5.49018">
        <ele>364.3</ele>
        <time>2025-10-19T14:08:01Z</time>
      </trkpt>
      <trkpt lat="43.22804" lon="5.49019">
        <ele>364.3</ele>
        <time>2025-10-19T14:08:02Z</time>
      </trkpt>
      <trkpt lat="43.22804" lon="5.4902">
        <ele>364.1</ele>
        <time>2025-10-19T14:08:03Z</time>
      </trkpt>
      <trkpt lat="43.22804" lon="5.49021">
        <ele>364</ele>
        <time>2025-10-19T14:08:04Z</time>
      </trkpt>
      <trkpt lat="43.22804" lon="5.49022">
        <ele>363.9</ele>
        <time>2025-10-19T14:08:05Z</time>
      </trkpt>
      <trkpt lat="43.22804" lon="5.49023">
        <ele>363.9</ele>
        <time>2025-10-19T14:08:06Z</time>
      </trkpt>
      <trkpt lat="43.22803" lon="5.49024">
        <ele>363.7</ele>
        <time>2025-10-19T14:08:07Z</time>
      </trkpt>
      <trkpt lat="43.22803" lon="5.49025">
        <ele>363.6</ele>
        <time>2025-10-19T14:08:08Z</time>
      </trkpt>
      <trkpt lat="43.22804" lon="5.49026">
        <ele>363.4</ele>
        <time>2025-10-19T14:08:09Z</time>
      </trkpt>
      <trkpt lat="43.22804" lon="5.49027">
        <ele>363.3</ele>
        <time>2025-10-19T14:08:10Z</time>
      </trkpt>
      <trkpt lat="43.22804" lon="5.49028">
        <ele>363.1</ele>
        <time>2025-10-19T14:08:11Z</time>
      </trkpt>
      <trkpt lat="43.22804" lon="5.49029">
        <ele>363</ele>
        <time>2025-10-19T14:08:12Z</time>
      </trkpt>
      <trkpt lat="43.22804" lon="5.4903">
        <ele>362.9</ele>
        <time>2025-10-19T14:08:13Z</time>
      </trkpt>
      <trkpt lat="43.22804" lon="5.49031">
        <ele>362.8</ele>
        <time>2025-10-19T14:08:14Z</time>
      </trkpt>
      <trkpt lat="43.22804" lon="5.49032">
        <ele>362.7</ele>
        <time>2025-10-19T14:08:15Z</time>
      </trkpt>
      <trkpt lat="43.22804" lon="5.49033">
        <ele>362.6</ele>
        <time>2025-10-19T14:08:16Z</time>
      </trkpt>
      <trkpt lat="43.22804" lon="5.49035">
        <ele>362.5</ele>
        <time>2025-10-19T14:08:17Z</time>
      </trkpt>
      <trkpt lat="43.22804" lon="5.49036">
        <ele>362.3</ele>
        <time>2025-10-19T14:08:18Z</time>
      </trkpt>
      <trkpt lat="43.22804" lon="5.49037">
        <ele>362</ele>
        <time>2025-10-19T14:08:19Z</time>
      </trkpt>
      <trkpt lat="43.22804" lon="5.49039">
        <ele>361.8</ele>
        <time>2025-10-19T14:08:20Z</time>
      </trkpt>
      <trkpt lat="43.22804" lon="5.4904">
        <ele>361.6</ele>
        <time>2025-10-19T14:08:21Z</time>
      </trkpt>
      <trkpt lat="43.22805" lon="5.49041">
        <ele>361.5</ele>
        <time>2025-10-19T14:08:22Z</time>
      </trkpt>
      <trkpt lat="43.22805" lon="5.49042">
        <ele>361.5</ele>
        <time>2025-10-19T14:08:23Z</time>
      </trkpt>
      <trkpt lat="43.22806" lon="5.49042">
        <ele>361.3</ele>
        <time>2025-10-19T14:08:24Z</time>
      </trkpt>
      <trkpt lat="43.22806" lon="5.49043">
        <ele>361.2</ele>
        <time>2025-10-19T14:08:25Z</time>
      </trkpt>
      <trkpt lat="43.22806" lon="5.49044">
        <ele>361.1</ele>
        <time>2025-10-19T14:08:26Z</time>
      </trkpt>
      <trkpt lat="43.22806" lon="5.49045">
        <ele>361</ele>
        <time>2025-10-19T14:08:27Z</time>
      </trkpt>
      <trkpt lat="43.22807" lon="5.49047">
        <ele>360.9</ele>
        <time>2025-10-19T14:08:28Z</time>
      </trkpt>
      <trkpt lat="43.22807" lon="5.49048">
        <ele>360.7</ele>
        <time>2025-10-19T14:08:29Z</time>
      </trkpt>
      <trkpt lat="43.22807" lon="5.49049">
        <ele>360.5</ele>
        <time>2025-10-19T14:08:30Z</time>
      </trkpt>
      <trkpt lat="43.22807" lon="5.4905">
        <ele>360.4</ele>
        <time>2025-10-19T14:08:31Z</time>
      </trkpt>
      <trkpt lat="43.22807" lon="5.49051">
        <ele>360.3</ele>
        <time>2025-10-19T14:08:32Z</time>
      </trkpt>
      <trkpt lat="43.22807" lon="5.49052">
        <ele>360.1</ele>
        <time>2025-10-19T14:08:33Z</time>
      </trkpt>
      <trkpt lat="43.22807" lon="5.49054">
        <ele>359.9</ele>
        <time>2025-10-19T14:08:34Z</time>
      </trkpt>
      <trkpt lat="43.22807" lon="5.49055">
        <ele>359.7</ele>
        <time>2025-10-19T14:08:35Z</time>
      </trkpt>
      <trkpt lat="43.22807" lon="5.49056">
        <ele>359.5</ele>
        <time>2025-10-19T14:08:36Z</time>
      </trkpt>
      <trkpt lat="43.22807" lon="5.49057">
        <ele>359.3</ele>
        <time>2025-10-19T14:08:37Z</time>
      </trkpt>
      <trkpt lat="43.22807" lon="5.49058">
        <ele>359.1</ele>
        <time>2025-10-19T14:08:38Z</time>
      </trkpt>
      <trkpt lat="43.22807" lon="5.49059">
        <ele>358.9</ele>
        <time>2025-10-19T14:08:39Z</time>
      </trkpt>
      <trkpt lat="43.22807" lon="5.4906">
        <ele>358.7</ele>
        <time>2025-10-19T14:08:40Z</time>
      </trkpt>
      <trkpt lat="43.22807" lon="5.49061">
        <ele>358.6</ele>
        <time>2025-10-19T14:08:41Z</time>
      </trkpt>
      <trkpt lat="43.22807" lon="5.49062">
        <ele>358.5</ele>
        <time>2025-10-19T14:08:42Z</time>
      </trkpt>
      <trkpt lat="43.22807" lon="5.49063">
        <ele>358.3</ele>
        <time>2025-10-19T14:08:43Z</time>
      </trkpt>
      <trkpt lat="43.22807" lon="5.49064">
        <ele>358.1</ele>
        <time>2025-10-19T14:08:44Z</time>
      </trkpt>
      <trkpt lat="43.22806" lon="5.49066">
        <ele>358</ele>
        <time>2025-10-19T14:08:45Z</time>
      </trkpt>
      <trkpt lat="43.22806" lon="5.49067">
        <ele>357.8</ele>
        <time>2025-10-19T14:08:46Z</time>
      </trkpt>
      <trkpt lat="43.22806" lon="5.49069">
        <ele>357.7</ele>
        <time>2025-10-19T14:08:47Z</time>
      </trkpt>
      <trkpt lat="43.22806" lon="5.4907">
        <ele>357.6</ele>
        <time>2025-10-19T14:08:48Z</time>
      </trkpt>
      <trkpt lat="43.22805" lon="5.49072">
        <ele>357.6</ele>
        <time>2025-10-19T14:08:49Z</time>
      </trkpt>
      <trkpt lat="43.22805" lon="5.49073">
        <ele>357.4</ele>
        <time>2025-10-19T14:08:50Z</time>
      </trkpt>
      <trkpt lat="43.22805" lon="5.49074">
        <ele>357.2</ele>
        <time>2025-10-19T14:08:51Z</time>
      </trkpt>
      <trkpt lat="43.22805" lon="5.49075">
        <ele>357.1</ele>
        <time>2025-10-19T14:08:52Z</time>
      </trkpt>
      <trkpt lat="43.22806" lon="5.49077">
        <ele>356.9</ele>
        <time>2025-10-19T14:08:53Z</time>
      </trkpt>
      <trkpt lat="43.22806" lon="5.49078">
        <ele>356.8</ele>
        <time>2025-10-19T14:08:54Z</time>
      </trkpt>
      <trkpt lat="43.22806" lon="5.49079">
        <ele>356.6</ele>
        <time>2025-10-19T14:08:55Z</time>
      </trkpt>
      <trkpt lat="43.22806" lon="5.4908">
        <ele>356.5</ele>
        <time>2025-10-19T14:08:56Z</time>
      </trkpt>
      <trkpt lat="43.22806" lon="5.49082">
        <ele>356.4</ele>
        <time>2025-10-19T14:08:57Z</time>
      </trkpt>
      <trkpt lat="43.22806" lon="5.49083">
        <ele>356.2</ele>
        <time>2025-10-19T14:08:58Z</time>
      </trkpt>
      <trkpt lat="43.22806" lon="5.49084">
        <ele>356.1</ele>
        <time>2025-10-19T14:08:59Z</time>
      </trkpt>
      <trkpt lat="43.22806" lon="5.49086">
        <ele>355.9</ele>
        <time>2025-10-19T14:09:00Z</time>
      </trkpt>
      <trkpt lat="43.22806" lon="5.49087">
        <ele>355.7</ele>
        <time>2025-10-19T14:09:01Z</time>
      </trkpt>
      <trkpt lat="43.22806" lon="5.49088">
        <ele>355.6</ele>
        <time>2025-10-19T14:09:02Z</time>
      </trkpt>
      <trkpt lat="43.22806" lon="5.49089">
        <ele>355.4</ele>
        <time>2025-10-19T14:09:03Z</time>
      </trkpt>
      <trkpt lat="43.22806" lon="5.4909">
        <ele>355.3</ele>
        <time>2025-10-19T14:09:04Z</time>
      </trkpt>
      <trkpt lat="43.22806" lon="5.49092">
        <ele>355.2</ele>
        <time>2025-10-19T14:09:05Z</time>
      </trkpt>
      <trkpt lat="43.22806" lon="5.49093">
        <ele>355</ele>
        <time>2025-10-19T14:09:06Z</time>
      </trkpt>
      <trkpt lat="43.22806" lon="5.49094">
        <ele>355</ele>
        <time>2025-10-19T14:09:07Z</time>
      </trkpt>
      <trkpt lat="43.22806" lon="5.49095">
        <ele>354.8</ele>
        <time>2025-10-19T14:09:08Z</time>
      </trkpt>
      <trkpt lat="43.22806" lon="5.49097">
        <ele>354.7</ele>
        <time>2025-10-19T14:09:09Z</time>
      </trkpt>
      <trkpt lat="43.22806" lon="5.49098">
        <ele>354.6</ele>
        <time>2025-10-19T14:09:10Z</time>
      </trkpt>
      <trkpt lat="43.22806" lon="5.49099">
        <ele>354.4</ele>
        <time>2025-10-19T14:09:11Z</time>
      </trkpt>
      <trkpt lat="43.22806" lon="5.49101">
        <ele>354.3</ele>
        <time>2025-10-19T14:09:12Z</time>
      </trkpt>
      <trkpt lat="43.22806" lon="5.49102">
        <ele>354.2</ele>
        <time>2025-10-19T14:09:13Z</time>
      </trkpt>
      <trkpt lat="43.22806" lon="5.49103">
        <ele>354</ele>
        <time>2025-10-19T14:09:14Z</time>
      </trkpt>
      <trkpt lat="43.22807" lon="5.49103">
        <ele>353.9</ele>
        <time>2025-10-19T14:09:15Z</time>
      </trkpt>
      <trkpt lat="43.22807" lon="5.49105">
        <ele>353.9</ele>
        <time>2025-10-19T14:09:16Z</time>
      </trkpt>
      <trkpt lat="43.22807" lon="5.49105">
        <ele>353.8</ele>
        <time>2025-10-19T14:09:17Z</time>
      </trkpt>
      <trkpt lat="43.22806" lon="5.49107">
        <ele>353.7</ele>
        <time>2025-10-19T14:09:18Z</time>
      </trkpt>
      <trkpt lat="43.22806" lon="5.49107">
        <ele>353.6</ele>
        <time>2025-10-19T14:09:19Z</time>
      </trkpt>
      <trkpt lat="43.22806" lon="5.49108">
        <ele>353.4</ele>
        <time>2025-10-19T14:09:20Z</time>
      </trkpt>
      <trkpt lat="43.22807" lon="5.4911">
        <ele>353.2</ele>
        <time>2025-10-19T14:09:21Z</time>
      </trkpt>
      <trkpt lat="43.22807" lon="5.49111">
        <ele>353</ele>
        <time>2025-10-19T14:09:22Z</time>
      </trkpt>
      <trkpt lat="43.22807" lon="5.49111">
        <ele>352.8</ele>
        <time>2025-10-19T14:09:23Z</time>
      </trkpt>
      <trkpt lat="43.22807" lon="5.49112">
        <ele>352.7</ele>
        <time>2025-10-19T14:09:24Z</time>
      </trkpt>
      <trkpt lat="43.22807" lon="5.49113">
        <ele>352.5</ele>
        <time>2025-10-19T14:09:25Z</time>
      </trkpt>
      <trkpt lat="43.22807" lon="5.49114">
        <ele>352.4</ele>
        <time>2025-10-19T14:09:26Z</time>
      </trkpt>
      <trkpt lat="43.22806" lon="5.49115">
        <ele>352.3</ele>
        <time>2025-10-19T14:09:27Z</time>
      </trkpt>
      <trkpt lat="43.22806" lon="5.49117">
        <ele>352.1</ele>
        <time>2025-10-19T14:09:28Z</time>
      </trkpt>
      <trkpt lat="43.22806" lon="5.49118">
        <ele>352</ele>
        <time>2025-10-19T14:09:29Z</time>
      </trkpt>
      <trkpt lat="43.22806" lon="5.49119">
        <ele>351.8</ele>
        <time>2025-10-19T14:09:30Z</time>
      </trkpt>
      <trkpt lat="43.22806" lon="5.4912">
        <ele>351.7</ele>
        <time>2025-10-19T14:09:31Z</time>
      </trkpt>
      <trkpt lat="43.22806" lon="5.49121">
        <ele>351.7</ele>
        <time>2025-10-19T14:09:32Z</time>
      </trkpt>
      <trkpt lat="43.22806" lon="5.49121">
        <ele>351.5</ele>
        <time>2025-10-19T14:09:33Z</time>
      </trkpt>
      <trkpt lat="43.22806" lon="5.49122">
        <ele>351.5</ele>
        <time>2025-10-19T14:09:34Z</time>
      </trkpt>
      <trkpt lat="43.22807" lon="5.49122">
        <ele>351.3</ele>
        <time>2025-10-19T14:09:35Z</time>
      </trkpt>
      <trkpt lat="43.22807" lon="5.49123">
        <ele>351.1</ele>
        <time>2025-10-19T14:09:36Z</time>
      </trkpt>
      <trkpt lat="43.22807" lon="5.49124">
        <ele>351.1</ele>
        <time>2025-10-19T14:09:37Z</time>
      </trkpt>
      <trkpt lat="43.22806" lon="5.49124">
        <ele>351</ele>
        <time>2025-10-19T14:09:38Z</time>
      </trkpt>
      <trkpt lat="43.22806" lon="5.49125">
        <ele>351</ele>
        <time>2025-10-19T14:09:39Z</time>
      </trkpt>
      <trkpt lat="43.22806" lon="5.49126">
        <ele>350.9</ele>
        <time>2025-10-19T14:09:40Z</time>
      </trkpt>
      <trkpt lat="43.22805" lon="5.49127">
        <ele>350.5</ele>
        <time>2025-10-19T14:09:41Z</time>
      </trkpt>
      <trkpt lat="43.22805" lon="5.49129">
        <ele>350.3</ele>
        <time>2025-10-19T14:09:42Z</time>
      </trkpt>
      <trkpt lat="43.22805" lon="5.4913">
        <ele>350.1</ele>
        <time>2025-10-19T14:09:43Z</time>
      </trkpt>
      <trkpt lat="43.22805" lon="5.49131">
        <ele>350</ele>
        <time>2025-10-19T14:09:44Z</time>
      </trkpt>
      <trkpt lat="43.22805" lon="5.49132">
        <ele>349.9</ele>
        <time>2025-10-19T14:09:45Z</time>
      </trkpt>
      <trkpt lat="43.22805" lon="5.49133">
        <ele>349.7</ele>
        <time>2025-10-19T14:09:46Z</time>
      </trkpt>
      <trkpt lat="43.22805" lon="5.49134">
        <ele>349.6</ele>
        <time>2025-10-19T14:09:47Z</time>
      </trkpt>
      <trkpt lat="43.22805" lon="5.49135">
        <ele>349.5</ele>
        <time>2025-10-19T14:09:48Z</time>
      </trkpt>
      <trkpt lat="43.22805" lon="5.49136">
        <ele>349.3</ele>
        <time>2025-10-19T14:09:49Z</time>
      </trkpt>
      <trkpt lat="43.22805" lon="5.49137">
        <ele>349.1</ele>
        <time>2025-10-19T14:09:50Z</time>
      </trkpt>
      <trkpt lat="43.22805" lon="5.49138">
        <ele>348.8</ele>
        <time>2025-10-19T14:09:51Z</time>
      </trkpt>
      <trkpt lat="43.22805" lon="5.49139">
        <ele>348.6</ele>
        <time>2025-10-19T14:09:52Z</time>
      </trkpt>
      <trkpt lat="43.22805" lon="5.49141">
        <ele>348.5</ele>
        <time>2025-10-19T14:09:53Z</time>
      </trkpt>
      <trkpt lat="43.22805" lon="5.49142">
        <ele>348.4</ele>
        <time>2025-10-19T14:09:54Z</time>
      </trkpt>
      <trkpt lat="43.22805" lon="5.49143">
        <ele>348.2</ele>
        <time>2025-10-19T14:09:55Z</time>
      </trkpt>
      <trkpt lat="43.22805" lon="5.49144">
        <ele>348</ele>
        <time>2025-10-19T14:09:56Z</time>
      </trkpt>
      <trkpt lat="43.22806" lon="5.49145">
        <ele>347.8</ele>
        <time>2025-10-19T14:09:57Z</time>
      </trkpt>
      <trkpt lat="43.22806" lon="5.49146">
        <ele>347.6</ele>
        <time>2025-10-19T14:09:58Z</time>
      </trkpt>
      <trkpt lat="43.22806" lon="5.49147">
        <ele>347.5</ele>
        <time>2025-10-19T14:09:59Z</time>
      </trkpt>
      <trkpt lat="43.22806" lon="5.49148">
        <ele>347.3</ele>
        <time>2025-10-19T14:10:00Z</time>
      </trkpt>
      <trkpt lat="43.22806" lon="5.49149">
        <ele>347.2</ele>
        <time>2025-10-19T14:10:01Z</time>
      </trkpt>
      <trkpt lat="43.22806" lon="5.4915">
        <ele>347.1</ele>
        <time>2025-10-19T14:10:02Z</time>
      </trkpt>
      <trkpt lat="43.22806" lon="5.49151">
        <ele>347</ele>
        <time>2025-10-19T14:10:03Z</time>
      </trkpt>
      <trkpt lat="43.22806" lon="5.49152">
        <ele>346.8</ele>
        <time>2025-10-19T14:10:04Z</time>
      </trkpt>
      <trkpt lat="43.22806" lon="5.49153">
        <ele>346.6</ele>
        <time>2025-10-19T14:10:05Z</time>
      </trkpt>
      <trkpt lat="43.22806" lon="5.49154">
        <ele>346.5</ele>
        <time>2025-10-19T14:10:06Z</time>
      </trkpt>
      <trkpt lat="43.22806" lon="5.49154">
        <ele>346.4</ele>
        <time>2025-10-19T14:10:07Z</time>
      </trkpt>
      <trkpt lat="43.22806" lon="5.49155">
        <ele>346.3</ele>
        <time>2025-10-19T14:10:08Z</time>
      </trkpt>
      <trkpt lat="43.22805" lon="5.49156">
        <ele>346.2</ele>
        <time>2025-10-19T14:10:09Z</time>
      </trkpt>
      <trkpt lat="43.22806" lon="5.49157">
        <ele>346.1</ele>
        <time>2025-10-19T14:10:10Z</time>
      </trkpt>
      <trkpt lat="43.22805" lon="5.49158">
        <ele>345.9</ele>
        <time>2025-10-19T14:10:11Z</time>
      </trkpt>
      <trkpt lat="43.22806" lon="5.49158">
        <ele>345.6</ele>
        <time>2025-10-19T14:10:12Z</time>
      </trkpt>
      <trkpt lat="43.22806" lon="5.49159">
        <ele>345.3</ele>
        <time>2025-10-19T14:10:13Z</time>
      </trkpt>
      <trkpt lat="43.22806" lon="5.4916">
        <ele>345.1</ele>
        <time>2025-10-19T14:10:14Z</time>
      </trkpt>
      <trkpt lat="43.22806" lon="5.49161">
        <ele>345</ele>
        <time>2025-10-19T14:10:15Z</time>
      </trkpt>
      <trkpt lat="43.22806" lon="5.49162">
        <ele>344.8</ele>
        <time>2025-10-19T14:10:16Z</time>
      </trkpt>
      <trkpt lat="43.22806" lon="5.49162">
        <ele>344.7</ele>
        <time>2025-10-19T14:10:17Z</time>
      </trkpt>
      <trkpt lat="43.22806" lon="5.49163">
        <ele>344.5</ele>
        <time>2025-10-19T14:10:18Z</time>
      </trkpt>
      <trkpt lat="43.22806" lon="5.49165">
        <ele>344.4</ele>
        <time>2025-10-19T14:10:19Z</time>
      </trkpt>
      <trkpt lat="43.22806" lon="5.49166">
        <ele>344.3</ele>
        <time>2025-10-19T14:10:20Z</time>
      </trkpt>
      <trkpt lat="43.22806" lon="5.49167">
        <ele>344.2</ele>
        <time>2025-10-19T14:10:21Z</time>
      </trkpt>
      <trkpt lat="43.22806" lon="5.49168">
        <ele>344.1</ele>
        <time>2025-10-19T14:10:22Z</time>
      </trkpt>
      <trkpt lat="43.22806" lon="5.49169">
        <ele>344</ele>
        <time>2025-10-19T14:10:23Z</time>
      </trkpt>
      <trkpt lat="43.22806" lon="5.49169">
        <ele>343.9</ele>
        <time>2025-10-19T14:10:24Z</time>
      </trkpt>
      <trkpt lat="43.22806" lon="5.4917">
        <ele>343.7</ele>
        <time>2025-10-19T14:10:25Z</time>
      </trkpt>
      <trkpt lat="43.22806" lon="5.49171">
        <ele>343.6</ele>
        <time>2025-10-19T14:10:26Z</time>
      </trkpt>
      <trkpt lat="43.22806" lon="5.49172">
        <ele>343.2</ele>
        <time>2025-10-19T14:10:27Z</time>
      </trkpt>
      <trkpt lat="43.22806" lon="5.49173">
        <ele>343.1</ele>
        <time>2025-10-19T14:10:28Z</time>
      </trkpt>
      <trkpt lat="43.22806" lon="5.49174">
        <ele>343</ele>
        <time>2025-10-19T14:10:29Z</time>
      </trkpt>
      <trkpt lat="43.22806" lon="5.49175">
        <ele>342.8</ele>
        <time>2025-10-19T14:10:30Z</time>
      </trkpt>
      <trkpt lat="43.22806" lon="5.49176">
        <ele>342.6</ele>
        <time>2025-10-19T14:10:31Z</time>
      </trkpt>
      <trkpt lat="43.22806" lon="5.49177">
        <ele>342.5</ele>
        <time>2025-10-19T14:10:32Z</time>
      </trkpt>
      <trkpt lat="43.22806" lon="5.49178">
        <ele>342.3</ele>
        <time>2025-10-19T14:10:33Z</time>
      </trkpt>
      <trkpt lat="43.22806" lon="5.49179">
        <ele>342.1</ele>
        <time>2025-10-19T14:10:34Z</time>
      </trkpt>
      <trkpt lat="43.22806" lon="5.4918">
        <ele>341.8</ele>
        <time>2025-10-19T14:10:35Z</time>
      </trkpt>
      <trkpt lat="43.22806" lon="5.49181">
        <ele>341.6</ele>
        <time>2025-10-19T14:10:36Z</time>
      </trkpt>
      <trkpt lat="43.22806" lon="5.49182">
        <ele>341.4</ele>
        <time>2025-10-19T14:10:37Z</time>
      </trkpt>
      <trkpt lat="43.22806" lon="5.49184">
        <ele>341.2</ele>
        <time>2025-10-19T14:10:38Z</time>
      </trkpt>
      <trkpt lat="43.22806" lon="5.49185">
        <ele>341.1</ele>
        <time>2025-10-19T14:10:39Z</time>
      </trkpt>
      <trkpt lat="43.22806" lon="5.49186">
        <ele>340.9</ele>
        <time>2025-10-19T14:10:40Z</time>
      </trkpt>
      <trkpt lat="43.22806" lon="5.49187">
        <ele>340.8</ele>
        <time>2025-10-19T14:10:41Z</time>
      </trkpt>
      <trkpt lat="43.22806" lon="5.49188">
        <ele>340.6</ele>
        <time>2025-10-19T14:10:42Z</time>
      </trkpt>
      <trkpt lat="43.22806" lon="5.49189">
        <ele>340.4</ele>
        <time>2025-10-19T14:10:43Z</time>
      </trkpt>
      <trkpt lat="43.22806" lon="5.4919">
        <ele>340.1</ele>
        <time>2025-10-19T14:10:44Z</time>
      </trkpt>
      <trkpt lat="43.22806" lon="5.49191">
        <ele>340</ele>
        <time>2025-10-19T14:10:45Z</time>
      </trkpt>
      <trkpt lat="43.22806" lon="5.49192">
        <ele>340</ele>
        <time>2025-10-19T14:10:46Z</time>
      </trkpt>
      <trkpt lat="43.22806" lon="5.49194">
        <ele>339.8</ele>
        <time>2025-10-19T14:10:47Z</time>
      </trkpt>
      <trkpt lat="43.22806" lon="5.49195">
        <ele>339.7</ele>
        <time>2025-10-19T14:10:48Z</time>
      </trkpt>
      <trkpt lat="43.22806" lon="5.49196">
        <ele>339.6</ele>
        <time>2025-10-19T14:10:49Z</time>
      </trkpt>
      <trkpt lat="43.22806" lon="5.49197">
        <ele>339.5</ele>
        <time>2025-10-19T14:10:50Z</time>
      </trkpt>
      <trkpt lat="43.22806" lon="5.49198">
        <ele>339.4</ele>
        <time>2025-10-19T14:10:51Z</time>
      </trkpt>
      <trkpt lat="43.22806" lon="5.49199">
        <ele>339.3</ele>
        <time>2025-10-19T14:10:52Z</time>
      </trkpt>
      <trkpt lat="43.22806" lon="5.492">
        <ele>339.3</ele>
        <time>2025-10-19T14:10:53Z</time>
      </trkpt>
      <trkpt lat="43.22805" lon="5.49201">
        <ele>339.2</ele>
        <time>2025-10-19T14:10:54Z</time>
      </trkpt>
      <trkpt lat="43.22805" lon="5.49202">
        <ele>339</ele>
        <time>2025-10-19T14:10:55Z</time>
      </trkpt>
      <trkpt lat="43.22805" lon="5.49204">
        <ele>338.9</ele>
        <time>2025-10-19T14:10:56Z</time>
      </trkpt>
      <trkpt lat="43.22804" lon="5.49204">
        <ele>338.8</ele>
        <time>2025-10-19T14:10:57Z</time>
      </trkpt>
      <trkpt lat="43.22804" lon="5.49205">
        <ele>338.7</ele>
        <time>2025-10-19T14:10:58Z</time>
      </trkpt>
      <trkpt lat="43.22803" lon="5.49207">
        <ele>338.6</ele>
        <time>2025-10-19T14:10:59Z</time>
      </trkpt>
      <trkpt lat="43.22803" lon="5.49207">
        <ele>338.5</ele>
        <time>2025-10-19T14:11:00Z</time>
      </trkpt>
      <trkpt lat="43.22803" lon="5.49208">
        <ele>338.3</ele>
        <time>2025-10-19T14:11:01Z</time>
      </trkpt>
      <trkpt lat="43.22803" lon="5.49209">
        <ele>338.1</ele>
        <time>2025-10-19T14:11:02Z</time>
      </trkpt>
      <trkpt lat="43.22803" lon="5.4921">
        <ele>338</ele>
        <time>2025-10-19T14:11:03Z</time>
      </trkpt>
      <trkpt lat="43.22803" lon="5.49211">
        <ele>337.8</ele>
        <time>2025-10-19T14:11:04Z</time>
      </trkpt>
      <trkpt lat="43.22802" lon="5.49213">
        <ele>337.6</ele>
        <time>2025-10-19T14:11:05Z</time>
      </trkpt>
      <trkpt lat="43.22802" lon="5.49214">
        <ele>337.4</ele>
        <time>2025-10-19T14:11:06Z</time>
      </trkpt>
      <trkpt lat="43.22802" lon="5.49215">
        <ele>337.3</ele>
        <time>2025-10-19T14:11:07Z</time>
      </trkpt>
      <trkpt lat="43.22801" lon="5.49216">
        <ele>337.1</ele>
        <time>2025-10-19T14:11:08Z</time>
      </trkpt>
      <trkpt lat="43.22801" lon="5.49217">
        <ele>337.1</ele>
        <time>2025-10-19T14:11:09Z</time>
      </trkpt>
      <trkpt lat="43.22801" lon="5.49218">
        <ele>337</ele>
        <time>2025-10-19T14:11:10Z</time>
      </trkpt>
      <trkpt lat="43.22801" lon="5.49219">
        <ele>336.8</ele>
        <time>2025-10-19T14:11:11Z</time>
      </trkpt>
      <trkpt lat="43.228" lon="5.4922">
        <ele>336.7</ele>
        <time>2025-10-19T14:11:12Z</time>
      </trkpt>
      <trkpt lat="43.228" lon="5.49221">
        <ele>336.6</ele>
        <time>2025-10-19T14:11:13Z</time>
      </trkpt>
      <trkpt lat="43.22799" lon="5.49223">
        <ele>336.5</ele>
        <time>2025-10-19T14:11:14Z</time>
      </trkpt>
      <trkpt lat="43.22799" lon="5.49224">
        <ele>336.3</ele>
        <time>2025-10-19T14:11:15Z</time>
      </trkpt>
      <trkpt lat="43.22799" lon="5.49225">
        <ele>336.1</ele>
        <time>2025-10-19T14:11:16Z</time>
      </trkpt>
      <trkpt lat="43.22798" lon="5.49227">
        <ele>335.8</ele>
        <time>2025-10-19T14:11:17Z</time>
      </trkpt>
      <trkpt lat="43.22798" lon="5.49228">
        <ele>335.7</ele>
        <time>2025-10-19T14:11:18Z</time>
      </trkpt>
      <trkpt lat="43.22798" lon="5.49229">
        <ele>335.6</ele>
        <time>2025-10-19T14:11:19Z</time>
      </trkpt>
      <trkpt lat="43.22798" lon="5.49231">
        <ele>335.4</ele>
        <time>2025-10-19T14:11:20Z</time>
      </trkpt>
      <trkpt lat="43.22797" lon="5.49232">
        <ele>335.3</ele>
        <time>2025-10-19T14:11:21Z</time>
      </trkpt>
      <trkpt lat="43.22797" lon="5.49233">
        <ele>335.2</ele>
        <time>2025-10-19T14:11:22Z</time>
      </trkpt>
      <trkpt lat="43.22797" lon="5.49235">
        <ele>335.1</ele>
        <time>2025-10-19T14:11:23Z</time>
      </trkpt>
      <trkpt lat="43.22797" lon="5.49236">
        <ele>334.9</ele>
        <time>2025-10-19T14:11:24Z</time>
      </trkpt>
      <trkpt lat="43.22797" lon="5.49237">
        <ele>334.7</ele>
        <time>2025-10-19T14:11:25Z</time>
      </trkpt>
      <trkpt lat="43.22796" lon="5.49239">
        <ele>334.6</ele>
        <time>2025-10-19T14:11:26Z</time>
      </trkpt>
      <trkpt lat="43.22796" lon="5.4924">
        <ele>334.4</ele>
        <time>2025-10-19T14:11:27Z</time>
      </trkpt>
      <trkpt lat="43.22796" lon="5.49241">
        <ele>334.3</ele>
        <time>2025-10-19T14:11:28Z</time>
      </trkpt>
      <trkpt lat="43.22796" lon="5.49242">
        <ele>334.1</ele>
        <time>2025-10-19T14:11:29Z</time>
      </trkpt>
      <trkpt lat="43.22796" lon="5.49244">
        <ele>333.9</ele>
        <time>2025-10-19T14:11:30Z</time>
      </trkpt>
      <trkpt lat="43.22795" lon="5.49245">
        <ele>333.8</ele>
        <time>2025-10-19T14:11:31Z</time>
      </trkpt>
      <trkpt lat="43.22795" lon="5.49247">
        <ele>333.6</ele>
        <time>2025-10-19T14:11:32Z</time>
      </trkpt>
      <trkpt lat="43.22795" lon="5.49248">
        <ele>333.4</ele>
        <time>2025-10-19T14:11:33Z</time>
      </trkpt>
      <trkpt lat="43.22795" lon="5.49249">
        <ele>333.2</ele>
        <time>2025-10-19T14:11:34Z</time>
      </trkpt>
      <trkpt lat="43.22795" lon="5.4925">
        <ele>333.1</ele>
        <time>2025-10-19T14:11:35Z</time>
      </trkpt>
      <trkpt lat="43.22794" lon="5.49252">
        <ele>332.9</ele>
        <time>2025-10-19T14:11:36Z</time>
      </trkpt>
      <trkpt lat="43.22794" lon="5.49253">
        <ele>332.8</ele>
        <time>2025-10-19T14:11:37Z</time>
      </trkpt>
      <trkpt lat="43.22794" lon="5.49254">
        <ele>332.8</ele>
        <time>2025-10-19T14:11:38Z</time>
      </trkpt>
      <trkpt lat="43.22793" lon="5.49255">
        <ele>332.7</ele>
        <time>2025-10-19T14:11:39Z</time>
      </trkpt>
      <trkpt lat="43.22793" lon="5.49257">
        <ele>332.8</ele>
        <time>2025-10-19T14:11:40Z</time>
      </trkpt>
      <trkpt lat="43.22792" lon="5.49258">
        <ele>332.7</ele>
        <time>2025-10-19T14:11:41Z</time>
      </trkpt>
      <trkpt lat="43.22792" lon="5.49259">
        <ele>332.7</ele>
        <time>2025-10-19T14:11:42Z</time>
      </trkpt>
      <trkpt lat="43.22791" lon="5.4926">
        <ele>332.7</ele>
        <time>2025-10-19T14:11:43Z</time>
      </trkpt>
      <trkpt lat="43.22791" lon="5.49261">
        <ele>332.7</ele>
        <time>2025-10-19T14:11:44Z</time>
      </trkpt>
      <trkpt lat="43.22791" lon="5.49262">
        <ele>332.6</ele>
        <time>2025-10-19T14:11:45Z</time>
      </trkpt>
      <trkpt lat="43.2279" lon="5.49263">
        <ele>332.5</ele>
        <time>2025-10-19T14:11:46Z</time>
      </trkpt>
      <trkpt lat="43.2279" lon="5.49265">
        <ele>332.3</ele>
        <time>2025-10-19T14:11:47Z</time>
      </trkpt>
      <trkpt lat="43.2279" lon="5.49266">
        <ele>332.2</ele>
        <time>2025-10-19T14:11:48Z</time>
      </trkpt>
      <trkpt lat="43.22789" lon="5.49267">
        <ele>332.1</ele>
        <time>2025-10-19T14:11:49Z</time>
      </trkpt>
      <trkpt lat="43.22789" lon="5.49268">
        <ele>332</ele>
        <time>2025-10-19T14:11:50Z</time>
      </trkpt>
      <trkpt lat="43.22789" lon="5.4927">
        <ele>331.9</ele>
        <time>2025-10-19T14:11:51Z</time>
      </trkpt>
      <trkpt lat="43.22788" lon="5.49271">
        <ele>331.7</ele>
        <time>2025-10-19T14:11:52Z</time>
      </trkpt>
      <trkpt lat="43.22788" lon="5.49272">
        <ele>331.6</ele>
        <time>2025-10-19T14:11:53Z</time>
      </trkpt>
      <trkpt lat="43.22788" lon="5.49273">
        <ele>331.6</ele>
        <time>2025-10-19T14:11:54Z</time>
      </trkpt>
      <trkpt lat="43.22788" lon="5.49274">
        <ele>331.4</ele>
        <time>2025-10-19T14:11:55Z</time>
      </trkpt>
      <trkpt lat="43.22789" lon="5.49276">
        <ele>331.3</ele>
        <time>2025-10-19T14:11:56Z</time>
      </trkpt>
      <trkpt lat="43.22788" lon="5.49277">
        <ele>331.2</ele>
        <time>2025-10-19T14:11:57Z</time>
      </trkpt>
      <trkpt lat="43.22788" lon="5.49278">
        <ele>331</ele>
        <time>2025-10-19T14:11:58Z</time>
      </trkpt>
      <trkpt lat="43.22788" lon="5.49279">
        <ele>330.9</ele>
        <time>2025-10-19T14:11:59Z</time>
      </trkpt>
      <trkpt lat="43.22788" lon="5.4928">
        <ele>330.7</ele>
        <time>2025-10-19T14:12:00Z</time>
      </trkpt>
      <trkpt lat="43.22787" lon="5.49282">
        <ele>330.6</ele>
        <time>2025-10-19T14:12:01Z</time>
      </trkpt>
      <trkpt lat="43.22787" lon="5.49283">
        <ele>330.5</ele>
        <time>2025-10-19T14:12:02Z</time>
      </trkpt>
      <trkpt lat="43.22787" lon="5.49284">
        <ele>330.4</ele>
        <time>2025-10-19T14:12:03Z</time>
      </trkpt>
      <trkpt lat="43.22787" lon="5.49286">
        <ele>330.3</ele>
        <time>2025-10-19T14:12:04Z</time>
      </trkpt>
      <trkpt lat="43.22787" lon="5.49287">
        <ele>330.2</ele>
        <time>2025-10-19T14:12:05Z</time>
      </trkpt>
      <trkpt lat="43.22787" lon="5.49288">
        <ele>330.2</ele>
        <time>2025-10-19T14:12:06Z</time>
      </trkpt>
      <trkpt lat="43.22786" lon="5.49289">
        <ele>330</ele>
        <time>2025-10-19T14:12:07Z</time>
      </trkpt>
      <trkpt lat="43.22786" lon="5.4929">
        <ele>329.9</ele>
        <time>2025-10-19T14:12:08Z</time>
      </trkpt>
      <trkpt lat="43.22786" lon="5.49291">
        <ele>329.7</ele>
        <time>2025-10-19T14:12:09Z</time>
      </trkpt>
      <trkpt lat="43.22785" lon="5.49292">
        <ele>329.6</ele>
        <time>2025-10-19T14:12:10Z</time>
      </trkpt>
      <trkpt lat="43.22785" lon="5.49293">
        <ele>329.4</ele>
        <time>2025-10-19T14:12:11Z</time>
      </trkpt>
      <trkpt lat="43.22784" lon="5.49295">
        <ele>329.3</ele>
        <time>2025-10-19T14:12:12Z</time>
      </trkpt>
      <trkpt lat="43.22784" lon="5.49296">
        <ele>329.2</ele>
        <time>2025-10-19T14:12:13Z</time>
      </trkpt>
      <trkpt lat="43.22783" lon="5.49296">
        <ele>329.1</ele>
        <time>2025-10-19T14:12:14Z</time>
      </trkpt>
      <trkpt lat="43.22783" lon="5.49297">
        <ele>329.1</ele>
        <time>2025-10-19T14:12:15Z</time>
      </trkpt>
      <trkpt lat="43.22782" lon="5.49299">
        <ele>329</ele>
        <time>2025-10-19T14:12:16Z</time>
      </trkpt>
      <trkpt lat="43.22782" lon="5.493">
        <ele>329</ele>
        <time>2025-10-19T14:12:17Z</time>
      </trkpt>
      <trkpt lat="43.22782" lon="5.49301">
        <ele>328.8</ele>
        <time>2025-10-19T14:12:18Z</time>
      </trkpt>
      <trkpt lat="43.22782" lon="5.49302">
        <ele>328.7</ele>
        <time>2025-10-19T14:12:19Z</time>
      </trkpt>
      <trkpt lat="43.22782" lon="5.49304">
        <ele>328.6</ele>
        <time>2025-10-19T14:12:20Z</time>
      </trkpt>
      <trkpt lat="43.22782" lon="5.49305">
        <ele>328.5</ele>
        <time>2025-10-19T14:12:21Z</time>
      </trkpt>
      <trkpt lat="43.22782" lon="5.49306">
        <ele>328.4</ele>
        <time>2025-10-19T14:12:22Z</time>
      </trkpt>
      <trkpt lat="43.22781" lon="5.49308">
        <ele>328.2</ele>
        <time>2025-10-19T14:12:23Z</time>
      </trkpt>
      <trkpt lat="43.22781" lon="5.49309">
        <ele>328.1</ele>
        <time>2025-10-19T14:12:24Z</time>
      </trkpt>
      <trkpt lat="43.22781" lon="5.4931">
        <ele>328</ele>
        <time>2025-10-19T14:12:25Z</time>
      </trkpt>
      <trkpt lat="43.22781" lon="5.49312">
        <ele>327.8</ele>
        <time>2025-10-19T14:12:26Z</time>
      </trkpt>
      <trkpt lat="43.22781" lon="5.49313">
        <ele>327.8</ele>
        <time>2025-10-19T14:12:27Z</time>
      </trkpt>
      <trkpt lat="43.22781" lon="5.49314">
        <ele>327.6</ele>
        <time>2025-10-19T14:12:28Z</time>
      </trkpt>
      <trkpt lat="43.22781" lon="5.49315">
        <ele>327.5</ele>
        <time>2025-10-19T14:12:29Z</time>
      </trkpt>
      <trkpt lat="43.2278" lon="5.49317">
        <ele>327.5</ele>
        <time>2025-10-19T14:12:30Z</time>
      </trkpt>
      <trkpt lat="43.2278" lon="5.49318">
        <ele>327.4</ele>
        <time>2025-10-19T14:12:31Z</time>
      </trkpt>
      <trkpt lat="43.2278" lon="5.49319">
        <ele>327.3</ele>
        <time>2025-10-19T14:12:32Z</time>
      </trkpt>
      <trkpt lat="43.2278" lon="5.4932">
        <ele>327.3</ele>
        <time>2025-10-19T14:12:33Z</time>
      </trkpt>
      <trkpt lat="43.22779" lon="5.49321">
        <ele>327.1</ele>
        <time>2025-10-19T14:12:34Z</time>
      </trkpt>
      <trkpt lat="43.22778" lon="5.49323">
        <ele>327</ele>
        <time>2025-10-19T14:12:35Z</time>
      </trkpt>
      <trkpt lat="43.22778" lon="5.49324">
        <ele>326.8</ele>
        <time>2025-10-19T14:12:36Z</time>
      </trkpt>
      <trkpt lat="43.22778" lon="5.49325">
        <ele>326.7</ele>
        <time>2025-10-19T14:12:37Z</time>
      </trkpt>
      <trkpt lat="43.22778" lon="5.49326">
        <ele>326.5</ele>
        <time>2025-10-19T14:12:38Z</time>
      </trkpt>
      <trkpt lat="43.22777" lon="5.49328">
        <ele>326.4</ele>
        <time>2025-10-19T14:12:39Z</time>
      </trkpt>
      <trkpt lat="43.22777" lon="5.49329">
        <ele>326.2</ele>
        <time>2025-10-19T14:12:40Z</time>
      </trkpt>
      <trkpt lat="43.22777" lon="5.49329">
        <ele>326.1</ele>
        <time>2025-10-19T14:12:41Z</time>
      </trkpt>
      <trkpt lat="43.22777" lon="5.49331">
        <ele>326</ele>
        <time>2025-10-19T14:12:42Z</time>
      </trkpt>
      <trkpt lat="43.22777" lon="5.49332">
        <ele>325.9</ele>
        <time>2025-10-19T14:12:43Z</time>
      </trkpt>
      <trkpt lat="43.22777" lon="5.49333">
        <ele>325.7</ele>
        <time>2025-10-19T14:12:44Z</time>
      </trkpt>
      <trkpt lat="43.22777" lon="5.49334">
        <ele>325.6</ele>
        <time>2025-10-19T14:12:45Z</time>
      </trkpt>
      <trkpt lat="43.22777" lon="5.49336">
        <ele>325.5</ele>
        <time>2025-10-19T14:12:46Z</time>
      </trkpt>
      <trkpt lat="43.22777" lon="5.49337">
        <ele>325.3</ele>
        <time>2025-10-19T14:12:47Z</time>
      </trkpt>
      <trkpt lat="43.22777" lon="5.49338">
        <ele>325.1</ele>
        <time>2025-10-19T14:12:48Z</time>
      </trkpt>
      <trkpt lat="43.22777" lon="5.4934">
        <ele>324.9</ele>
        <time>2025-10-19T14:12:49Z</time>
      </trkpt>
      <trkpt lat="43.22777" lon="5.49341">
        <ele>324.8</ele>
        <time>2025-10-19T14:12:50Z</time>
      </trkpt>
      <trkpt lat="43.22776" lon="5.49342">
        <ele>324.6</ele>
        <time>2025-10-19T14:12:51Z</time>
      </trkpt>
      <trkpt lat="43.22776" lon="5.49343">
        <ele>324.5</ele>
        <time>2025-10-19T14:12:52Z</time>
      </trkpt>
      <trkpt lat="43.22776" lon="5.49345">
        <ele>324.3</ele>
        <time>2025-10-19T14:12:53Z</time>
      </trkpt>
      <trkpt lat="43.22776" lon="5.49346">
        <ele>324.2</ele>
        <time>2025-10-19T14:12:54Z</time>
      </trkpt>
      <trkpt lat="43.22775" lon="5.49347">
        <ele>324.1</ele>
        <time>2025-10-19T14:12:55Z</time>
      </trkpt>
      <trkpt lat="43.22775" lon="5.49348">
        <ele>324</ele>
        <time>2025-10-19T14:12:56Z</time>
      </trkpt>
      <trkpt lat="43.22775" lon="5.49349">
        <ele>323.8</ele>
        <time>2025-10-19T14:12:57Z</time>
      </trkpt>
      <trkpt lat="43.22774" lon="5.4935">
        <ele>323.6</ele>
        <time>2025-10-19T14:12:58Z</time>
      </trkpt>
      <trkpt lat="43.22774" lon="5.49351">
        <ele>323.5</ele>
        <time>2025-10-19T14:12:59Z</time>
      </trkpt>
      <trkpt lat="43.22774" lon="5.49353">
        <ele>323.4</ele>
        <time>2025-10-19T14:13:00Z</time>
      </trkpt>
      <trkpt lat="43.22774" lon="5.49354">
        <ele>323.2</ele>
        <time>2025-10-19T14:13:01Z</time>
      </trkpt>
      <trkpt lat="43.22774" lon="5.49355">
        <ele>323.1</ele>
        <time>2025-10-19T14:13:02Z</time>
      </trkpt>
      <trkpt lat="43.22774" lon="5.49356">
        <ele>323</ele>
        <time>2025-10-19T14:13:03Z</time>
      </trkpt>
      <trkpt lat="43.22774" lon="5.49357">
        <ele>322.9</ele>
        <time>2025-10-19T14:13:04Z</time>
      </trkpt>
      <trkpt lat="43.22773" lon="5.49358">
        <ele>322.8</ele>
        <time>2025-10-19T14:13:05Z</time>
      </trkpt>
      <trkpt lat="43.22773" lon="5.49359">
        <ele>322.7</ele>
        <time>2025-10-19T14:13:06Z</time>
      </trkpt>
      <trkpt lat="43.22773" lon="5.4936">
        <ele>322.6</ele>
        <time>2025-10-19T14:13:07Z</time>
      </trkpt>
      <trkpt lat="43.22773" lon="5.49361">
        <ele>322.5</ele>
        <time>2025-10-19T14:13:08Z</time>
      </trkpt>
      <trkpt lat="43.22773" lon="5.49362">
        <ele>322.4</ele>
        <time>2025-10-19T14:13:09Z</time>
      </trkpt>
      <trkpt lat="43.22773" lon="5.49362">
        <ele>322.2</ele>
        <time>2025-10-19T14:13:10Z</time>
      </trkpt>
      <trkpt lat="43.22773" lon="5.49364">
        <ele>322.1</ele>
        <time>2025-10-19T14:13:11Z</time>
      </trkpt>
      <trkpt lat="43.22773" lon="5.49364">
        <ele>322</ele>
        <time>2025-10-19T14:13:12Z</time>
      </trkpt>
      <trkpt lat="43.22773" lon="5.49365">
        <ele>322</ele>
        <time>2025-10-19T14:13:13Z</time>
      </trkpt>
      <trkpt lat="43.22773" lon="5.49366">
        <ele>321.9</ele>
        <time>2025-10-19T14:13:14Z</time>
      </trkpt>
      <trkpt lat="43.22773" lon="5.49367">
        <ele>321.8</ele>
        <time>2025-10-19T14:13:15Z</time>
      </trkpt>
      <trkpt lat="43.22773" lon="5.49368">
        <ele>321.7</ele>
        <time>2025-10-19T14:13:16Z</time>
      </trkpt>
      <trkpt lat="43.22772" lon="5.49369">
        <ele>321.6</ele>
        <time>2025-10-19T14:13:17Z</time>
      </trkpt>
      <trkpt lat="43.22772" lon="5.4937">
        <ele>321.5</ele>
        <time>2025-10-19T14:13:18Z</time>
      </trkpt>
      <trkpt lat="43.22772" lon="5.4937">
        <ele>321.4</ele>
        <time>2025-10-19T14:13:19Z</time>
      </trkpt>
      <trkpt lat="43.22771" lon="5.49371">
        <ele>321.3</ele>
        <time>2025-10-19T14:13:20Z</time>
      </trkpt>
      <trkpt lat="43.22771" lon="5.49372">
        <ele>321.2</ele>
        <time>2025-10-19T14:13:21Z</time>
      </trkpt>
      <trkpt lat="43.2277" lon="5.49373">
        <ele>321.2</ele>
        <time>2025-10-19T14:13:22Z</time>
      </trkpt>
      <trkpt lat="43.2277" lon="5.49374">
        <ele>321.1</ele>
        <time>2025-10-19T14:13:23Z</time>
      </trkpt>
      <trkpt lat="43.2277" lon="5.49375">
        <ele>320.9</ele>
        <time>2025-10-19T14:13:24Z</time>
      </trkpt>
      <trkpt lat="43.2277" lon="5.49376">
        <ele>320.8</ele>
        <time>2025-10-19T14:13:25Z</time>
      </trkpt>
      <trkpt lat="43.22769" lon="5.49377">
        <ele>320.7</ele>
        <time>2025-10-19T14:13:26Z</time>
      </trkpt>
      <trkpt lat="43.22769" lon="5.49377">
        <ele>320.6</ele>
        <time>2025-10-19T14:13:27Z</time>
      </trkpt>
      <trkpt lat="43.22769" lon="5.49378">
        <ele>320.4</ele>
        <time>2025-10-19T14:13:28Z</time>
      </trkpt>
      <trkpt lat="43.22768" lon="5.49379">
        <ele>320.3</ele>
        <time>2025-10-19T14:13:29Z</time>
      </trkpt>
      <trkpt lat="43.22768" lon="5.4938">
        <ele>320.2</ele>
        <time>2025-10-19T14:13:30Z</time>
      </trkpt>
      <trkpt lat="43.22768" lon="5.49381">
        <ele>319.9</ele>
        <time>2025-10-19T14:13:31Z</time>
      </trkpt>
      <trkpt lat="43.22768" lon="5.49382">
        <ele>319.7</ele>
        <time>2025-10-19T14:13:32Z</time>
      </trkpt>
      <trkpt lat="43.22768" lon="5.49384">
        <ele>319.6</ele>
        <time>2025-10-19T14:13:33Z</time>
      </trkpt>
      <trkpt lat="43.22767" lon="5.49385">
        <ele>319.3</ele>
        <time>2025-10-19T14:13:34Z</time>
      </trkpt>
      <trkpt lat="43.22767" lon="5.49386">
        <ele>319.1</ele>
        <time>2025-10-19T14:13:35Z</time>
      </trkpt>
      <trkpt lat="43.22766" lon="5.49386">
        <ele>319</ele>
        <time>2025-10-19T14:13:36Z</time>
      </trkpt>
      <trkpt lat="43.22766" lon="5.49387">
        <ele>318.9</ele>
        <time>2025-10-19T14:13:37Z</time>
      </trkpt>
      <trkpt lat="43.22766" lon="5.49388">
        <ele>318.8</ele>
        <time>2025-10-19T14:13:38Z</time>
      </trkpt>
      <trkpt lat="43.22766" lon="5.49388">
        <ele>318.7</ele>
        <time>2025-10-19T14:13:39Z</time>
      </trkpt>
      <trkpt lat="43.22766" lon="5.49388">
        <ele>318.5</ele>
        <time>2025-10-19T14:13:40Z</time>
      </trkpt>
      <trkpt lat="43.22767" lon="5.49388">
        <ele>318.4</ele>
        <time>2025-10-19T14:13:41Z</time>
      </trkpt>
      <trkpt lat="43.22767" lon="5.49389">
        <ele>318.3</ele>
        <time>2025-10-19T14:13:42Z</time>
      </trkpt>
      <trkpt lat="43.22767" lon="5.49389">
        <ele>318.2</ele>
        <time>2025-10-19T14:13:43Z</time>
      </trkpt>
      <trkpt lat="43.22767" lon="5.49389">
        <ele>318.2</ele>
        <time>2025-10-19T14:13:44Z</time>
      </trkpt>
      <trkpt lat="43.22767" lon="5.49389">
        <ele>318.2</ele>
        <time>2025-10-19T14:13:45Z</time>
      </trkpt>
      <trkpt lat="43.22767" lon="5.49389">
        <ele>318</ele>
        <time>2025-10-19T14:13:46Z</time>
      </trkpt>
      <trkpt lat="43.22767" lon="5.49389">
        <ele>317.9</ele>
        <time>2025-10-19T14:13:47Z</time>
      </trkpt>
      <trkpt lat="43.22767" lon="5.49389">
        <ele>317.9</ele>
        <time>2025-10-19T14:13:48Z</time>
      </trkpt>
      <trkpt lat="43.22767" lon="5.49389">
        <ele>317.9</ele>
        <time>2025-10-19T14:13:49Z</time>
      </trkpt>
      <trkpt lat="43.22767" lon="5.49389">
        <ele>317.9</ele>
        <time>2025-10-19T14:13:50Z</time>
      </trkpt>
      <trkpt lat="43.22767" lon="5.49389">
        <ele>317.9</ele>
        <time>2025-10-19T14:13:51Z</time>
      </trkpt>
      <trkpt lat="43.22767" lon="5.49389">
        <ele>317.9</ele>
        <time>2025-10-19T14:13:52Z</time>
      </trkpt>
      <trkpt lat="43.22767" lon="5.49389">
        <ele>317.9</ele>
        <time>2025-10-19T14:13:53Z</time>
      </trkpt>
      <trkpt lat="43.22767" lon="5.49389">
        <ele>317.9</ele>
        <time>2025-10-19T14:13:54Z</time>
      </trkpt>
      <trkpt lat="43.22767" lon="5.49389">
        <ele>317.8</ele>
        <time>2025-10-19T14:13:55Z</time>
      </trkpt>
      <trkpt lat="43.22767" lon="5.49389">
        <ele>317.8</ele>
        <time>2025-10-19T14:13:56Z</time>
      </trkpt>
      <trkpt lat="43.22767" lon="5.49389">
        <ele>317.8</ele>
        <time>2025-10-19T14:13:57Z</time>
      </trkpt>
      <trkpt lat="43.22767" lon="5.49389">
        <ele>317.9</ele>
        <time>2025-10-19T14:13:58Z</time>
      </trkpt>
      <trkpt lat="43.22767" lon="5.4939">
        <ele>317.9</ele>
        <time>2025-10-19T14:13:59Z</time>
      </trkpt>
      <trkpt lat="43.22767" lon="5.4939">
        <ele>318</ele>
        <time>2025-10-19T14:14:00Z</time>
      </trkpt>
      <trkpt lat="43.22767" lon="5.4939">
        <ele>318.1</ele>
        <time>2025-10-19T14:14:01Z</time>
      </trkpt>
      <trkpt lat="43.22767" lon="5.4939">
        <ele>318.1</ele>
        <time>2025-10-19T14:14:02Z</time>
      </trkpt>
      <trkpt lat="43.22767" lon="5.4939">
        <ele>318.2</ele>
        <time>2025-10-19T14:14:03Z</time>
      </trkpt>
      <trkpt lat="43.22767" lon="5.4939">
        <ele>318.2</ele>
        <time>2025-10-19T14:14:04Z</time>
      </trkpt>
      <trkpt lat="43.22767" lon="5.4939">
        <ele>318.2</ele>
        <time>2025-10-19T14:14:05Z</time>
      </trkpt>
      <trkpt lat="43.22767" lon="5.49391">
        <ele>318.2</ele>
        <time>2025-10-19T14:14:06Z</time>
      </trkpt>
      <trkpt lat="43.22767" lon="5.49391">
        <ele>318.2</ele>
        <time>2025-10-19T14:14:07Z</time>
      </trkpt>
      <trkpt lat="43.22768" lon="5.49391">
        <ele>318.3</ele>
        <time>2025-10-19T14:14:08Z</time>
      </trkpt>
      <trkpt lat="43.22768" lon="5.49391">
        <ele>318.3</ele>
        <time>2025-10-19T14:14:09Z</time>
      </trkpt>
      <trkpt lat="43.22768" lon="5.49391">
        <ele>318.2</ele>
        <time>2025-10-19T14:14:10Z</time>
      </trkpt>
      <trkpt lat="43.22768" lon="5.49391">
        <ele>318.1</ele>
        <time>2025-10-19T14:14:11Z</time>
      </trkpt>
      <trkpt lat="43.22768" lon="5.49391">
        <ele>318.2</ele>
        <time>2025-10-19T14:14:12Z</time>
      </trkpt>
      <trkpt lat="43.22768" lon="5.49391">
        <ele>318.1</ele>
        <time>2025-10-19T14:14:13Z</time>
      </trkpt>
      <trkpt lat="43.22768" lon="5.49392">
        <ele>318.2</ele>
        <time>2025-10-19T14:14:14Z</time>
      </trkpt>
      <trkpt lat="43.22767" lon="5.49392">
        <ele>318.2</ele>
        <time>2025-10-19T14:14:15Z</time>
      </trkpt>
      <trkpt lat="43.22767" lon="5.49392">
        <ele>318.2</ele>
        <time>2025-10-19T14:14:16Z</time>
      </trkpt>
      <trkpt lat="43.22767" lon="5.49392">
        <ele>318.2</ele>
        <time>2025-10-19T14:14:17Z</time>
      </trkpt>
      <trkpt lat="43.22767" lon="5.49393">
        <ele>318.2</ele>
        <time>2025-10-19T14:14:18Z</time>
      </trkpt>
      <trkpt lat="43.22767" lon="5.49393">
        <ele>318.1</ele>
        <time>2025-10-19T14:14:19Z</time>
      </trkpt>
      <trkpt lat="43.22766" lon="5.49394">
        <ele>318.1</ele>
        <time>2025-10-19T14:14:20Z</time>
      </trkpt>
      <trkpt lat="43.22766" lon="5.49395">
        <ele>317.9</ele>
        <time>2025-10-19T14:14:21Z</time>
      </trkpt>
      <trkpt lat="43.22766" lon="5.49396">
        <ele>317.8</ele>
        <time>2025-10-19T14:14:22Z</time>
      </trkpt>
      <trkpt lat="43.22765" lon="5.49397">
        <ele>317.6</ele>
        <time>2025-10-19T14:14:23Z</time>
      </trkpt>
      <trkpt lat="43.22765" lon="5.49398">
        <ele>317.5</ele>
        <time>2025-10-19T14:14:24Z</time>
      </trkpt>
      <trkpt lat="43.22765" lon="5.49399">
        <ele>317.3</ele>
        <time>2025-10-19T14:14:25Z</time>
      </trkpt>
      <trkpt lat="43.22764" lon="5.494">
        <ele>317.2</ele>
        <time>2025-10-19T14:14:26Z</time>
      </trkpt>
      <trkpt lat="43.22764" lon="5.49401">
        <ele>317.1</ele>
        <time>2025-10-19T14:14:27Z</time>
      </trkpt>
      <trkpt lat="43.22764" lon="5.49402">
        <ele>317</ele>
        <time>2025-10-19T14:14:28Z</time>
      </trkpt>
      <trkpt lat="43.22763" lon="5.49402">
        <ele>316.8</ele>
        <time>2025-10-19T14:14:29Z</time>
      </trkpt>
      <trkpt lat="43.22763" lon="5.49403">
        <ele>316.7</ele>
        <time>2025-10-19T14:14:30Z</time>
      </trkpt>
      <trkpt lat="43.22762" lon="5.49404">
        <ele>316.5</ele>
        <time>2025-10-19T14:14:31Z</time>
      </trkpt>
      <trkpt lat="43.22762" lon="5.49405">
        <ele>316.4</ele>
        <time>2025-10-19T14:14:32Z</time>
      </trkpt>
      <trkpt lat="43.22762" lon="5.49406">
        <ele>316.3</ele>
        <time>2025-10-19T14:14:33Z</time>
      </trkpt>
      <trkpt lat="43.22761" lon="5.49407">
        <ele>316.1</ele>
        <time>2025-10-19T14:14:34Z</time>
      </trkpt>
      <trkpt lat="43.22761" lon="5.49407">
        <ele>316</ele>
        <time>2025-10-19T14:14:35Z</time>
      </trkpt>
      <trkpt lat="43.22761" lon="5.49408">
        <ele>315.9</ele>
        <time>2025-10-19T14:14:36Z</time>
      </trkpt>
      <trkpt lat="43.22761" lon="5.49409">
        <ele>315.8</ele>
        <time>2025-10-19T14:14:37Z</time>
      </trkpt>
      <trkpt lat="43.2276" lon="5.4941">
        <ele>315.7</ele>
        <time>2025-10-19T14:14:38Z</time>
      </trkpt>
      <trkpt lat="43.22759" lon="5.49411">
        <ele>315.7</ele>
        <time>2025-10-19T14:14:39Z</time>
      </trkpt>
      <trkpt lat="43.22759" lon="5.49411">
        <ele>315.5</ele>
        <time>2025-10-19T14:14:40Z</time>
      </trkpt>
      <trkpt lat="43.22758" lon="5.49412">
        <ele>315.3</ele>
        <time>2025-10-19T14:14:41Z</time>
      </trkpt>
      <trkpt lat="43.22758" lon="5.49413">
        <ele>315.2</ele>
        <time>2025-10-19T14:14:42Z</time>
      </trkpt>
      <trkpt lat="43.22758" lon="5.49414">
        <ele>315</ele>
        <time>2025-10-19T14:14:43Z</time>
      </trkpt>
      <trkpt lat="43.22758" lon="5.49416">
        <ele>314.8</ele>
        <time>2025-10-19T14:14:44Z</time>
      </trkpt>
      <trkpt lat="43.22757" lon="5.49417">
        <ele>314.6</ele>
        <time>2025-10-19T14:14:45Z</time>
      </trkpt>
      <trkpt lat="43.22757" lon="5.49418">
        <ele>314.5</ele>
        <time>2025-10-19T14:14:46Z</time>
      </trkpt>
      <trkpt lat="43.22757" lon="5.49419">
        <ele>314.2</ele>
        <time>2025-10-19T14:14:47Z</time>
      </trkpt>
      <trkpt lat="43.22756" lon="5.4942">
        <ele>314</ele>
        <time>2025-10-19T14:14:48Z</time>
      </trkpt>
      <trkpt lat="43.22756" lon="5.49421">
        <ele>313.8</ele>
        <time>2025-10-19T14:14:49Z</time>
      </trkpt>
      <trkpt lat="43.22757" lon="5.49421">
        <ele>313.6</ele>
        <time>2025-10-19T14:14:50Z</time>
      </trkpt>
      <trkpt lat="43.22757" lon="5.49422">
        <ele>313.5</ele>
        <time>2025-10-19T14:14:51Z</time>
      </trkpt>
      <trkpt lat="43.22757" lon="5.49423">
        <ele>313.4</ele>
        <time>2025-10-19T14:14:52Z</time>
      </trkpt>
      <trkpt lat="43.22756" lon="5.49424">
        <ele>313.3</ele>
        <time>2025-10-19T14:14:53Z</time>
      </trkpt>
      <trkpt lat="43.22756" lon="5.49425">
        <ele>313.2</ele>
        <time>2025-10-19T14:14:54Z</time>
      </trkpt>
      <trkpt lat="43.22756" lon="5.49426">
        <ele>312.9</ele>
        <time>2025-10-19T14:14:55Z</time>
      </trkpt>
      <trkpt lat="43.22756" lon="5.49427">
        <ele>312.9</ele>
        <time>2025-10-19T14:14:56Z</time>
      </trkpt>
      <trkpt lat="43.22755" lon="5.49428">
        <ele>312.8</ele>
        <time>2025-10-19T14:14:57Z</time>
      </trkpt>
      <trkpt lat="43.22755" lon="5.49428">
        <ele>312.7</ele>
        <time>2025-10-19T14:14:58Z</time>
      </trkpt>
      <trkpt lat="43.22754" lon="5.4943">
        <ele>312.4</ele>
        <time>2025-10-19T14:14:59Z</time>
      </trkpt>
      <trkpt lat="43.22754" lon="5.49431">
        <ele>312.4</ele>
        <time>2025-10-19T14:15:00Z</time>
      </trkpt>
      <trkpt lat="43.22755" lon="5.49432">
        <ele>312.3</ele>
        <time>2025-10-19T14:15:01Z</time>
      </trkpt>
      <trkpt lat="43.22754" lon="5.49433">
        <ele>312</ele>
        <time>2025-10-19T14:15:02Z</time>
      </trkpt>
      <trkpt lat="43.22754" lon="5.49434">
        <ele>311.8</ele>
        <time>2025-10-19T14:15:03Z</time>
      </trkpt>
      <trkpt lat="43.22754" lon="5.49435">
        <ele>311.6</ele>
        <time>2025-10-19T14:15:04Z</time>
      </trkpt>
      <trkpt lat="43.22754" lon="5.49436">
        <ele>311.5</ele>
        <time>2025-10-19T14:15:05Z</time>
      </trkpt>
      <trkpt lat="43.22754" lon="5.49437">
        <ele>311.3</ele>
        <time>2025-10-19T14:15:06Z</time>
      </trkpt>
      <trkpt lat="43.22754" lon="5.49437">
        <ele>311.2</ele>
        <time>2025-10-19T14:15:07Z</time>
      </trkpt>
      <trkpt lat="43.22754" lon="5.49438">
        <ele>311</ele>
        <time>2025-10-19T14:15:08Z</time>
      </trkpt>
      <trkpt lat="43.22753" lon="5.49439">
        <ele>310.9</ele>
        <time>2025-10-19T14:15:09Z</time>
      </trkpt>
      <trkpt lat="43.22753" lon="5.4944">
        <ele>310.8</ele>
        <time>2025-10-19T14:15:10Z</time>
      </trkpt>
      <trkpt lat="43.22753" lon="5.49441">
        <ele>310.7</ele>
        <time>2025-10-19T14:15:11Z</time>
      </trkpt>
      <trkpt lat="43.22752" lon="5.49442">
        <ele>310.5</ele>
        <time>2025-10-19T14:15:12Z</time>
      </trkpt>
      <trkpt lat="43.22752" lon="5.49443">
        <ele>310.2</ele>
        <time>2025-10-19T14:15:13Z</time>
      </trkpt>
      <trkpt lat="43.22752" lon="5.49444">
        <ele>310</ele>
        <time>2025-10-19T14:15:14Z</time>
      </trkpt>
      <trkpt lat="43.22751" lon="5.49445">
        <ele>309.7</ele>
        <time>2025-10-19T14:15:15Z</time>
      </trkpt>
      <trkpt lat="43.22751" lon="5.49446">
        <ele>309.5</ele>
        <time>2025-10-19T14:15:16Z</time>
      </trkpt>
      <trkpt lat="43.22751" lon="5.49447">
        <ele>309.3</ele>
        <time>2025-10-19T14:15:17Z</time>
      </trkpt>
      <trkpt lat="43.22751" lon="5.49448">
        <ele>309.2</ele>
        <time>2025-10-19T14:15:18Z</time>
      </trkpt>
      <trkpt lat="43.22751" lon="5.49449">
        <ele>309</ele>
        <time>2025-10-19T14:15:19Z</time>
      </trkpt>
      <trkpt lat="43.22751" lon="5.4945">
        <ele>308.8</ele>
        <time>2025-10-19T14:15:20Z</time>
      </trkpt>
      <trkpt lat="43.22751" lon="5.49451">
        <ele>308.7</ele>
        <time>2025-10-19T14:15:21Z</time>
      </trkpt>
      <trkpt lat="43.22751" lon="5.49452">
        <ele>308.5</ele>
        <time>2025-10-19T14:15:22Z</time>
      </trkpt>
      <trkpt lat="43.22751" lon="5.49453">
        <ele>308.3</ele>
        <time>2025-10-19T14:15:23Z</time>
      </trkpt>
      <trkpt lat="43.22751" lon="5.49454">
        <ele>308.1</ele>
        <time>2025-10-19T14:15:24Z</time>
      </trkpt>
      <trkpt lat="43.22752" lon="5.49455">
        <ele>307.9</ele>
        <time>2025-10-19T14:15:25Z</time>
      </trkpt>
      <trkpt lat="43.22752" lon="5.49456">
        <ele>307.7</ele>
        <time>2025-10-19T14:15:26Z</time>
      </trkpt>
      <trkpt lat="43.22751" lon="5.49457">
        <ele>307.6</ele>
        <time>2025-10-19T14:15:27Z</time>
      </trkpt>
      <trkpt lat="43.22751" lon="5.49457">
        <ele>307.4</ele>
        <time>2025-10-19T14:15:28Z</time>
      </trkpt>
      <trkpt lat="43.22751" lon="5.49458">
        <ele>307.3</ele>
        <time>2025-10-19T14:15:29Z</time>
      </trkpt>
      <trkpt lat="43.22751" lon="5.49459">
        <ele>307.1</ele>
        <time>2025-10-19T14:15:30Z</time>
      </trkpt>
      <trkpt lat="43.2275" lon="5.4946">
        <ele>306.9</ele>
        <time>2025-10-19T14:15:31Z</time>
      </trkpt>
      <trkpt lat="43.2275" lon="5.49461">
        <ele>306.7</ele>
        <time>2025-10-19T14:15:32Z</time>
      </trkpt>
      <trkpt lat="43.2275" lon="5.49462">
        <ele>306.5</ele>
        <time>2025-10-19T14:15:33Z</time>
      </trkpt>
      <trkpt lat="43.2275" lon="5.49463">
        <ele>306.4</ele>
        <time>2025-10-19T14:15:34Z</time>
      </trkpt>
      <trkpt lat="43.2275" lon="5.49465">
        <ele>306.2</ele>
        <time>2025-10-19T14:15:35Z</time>
      </trkpt>
      <trkpt lat="43.2275" lon="5.49466">
        <ele>306.1</ele>
        <time>2025-10-19T14:15:36Z</time>
      </trkpt>
      <trkpt lat="43.2275" lon="5.49467">
        <ele>305.9</ele>
        <time>2025-10-19T14:15:37Z</time>
      </trkpt>
      <trkpt lat="43.2275" lon="5.49468">
        <ele>305.7</ele>
        <time>2025-10-19T14:15:38Z</time>
      </trkpt>
      <trkpt lat="43.2275" lon="5.4947">
        <ele>305.5</ele>
        <time>2025-10-19T14:15:39Z</time>
      </trkpt>
      <trkpt lat="43.2275" lon="5.49471">
        <ele>305.3</ele>
        <time>2025-10-19T14:15:40Z</time>
      </trkpt>
      <trkpt lat="43.2275" lon="5.49472">
        <ele>305.1</ele>
        <time>2025-10-19T14:15:41Z</time>
      </trkpt>
      <trkpt lat="43.2275" lon="5.49473">
        <ele>304.9</ele>
        <time>2025-10-19T14:15:42Z</time>
      </trkpt>
      <trkpt lat="43.2275" lon="5.49474">
        <ele>304.7</ele>
        <time>2025-10-19T14:15:43Z</time>
      </trkpt>
      <trkpt lat="43.2275" lon="5.49475">
        <ele>304.4</ele>
        <time>2025-10-19T14:15:44Z</time>
      </trkpt>
      <trkpt lat="43.2275" lon="5.49476">
        <ele>304.1</ele>
        <time>2025-10-19T14:15:45Z</time>
      </trkpt>
      <trkpt lat="43.2275" lon="5.49476">
        <ele>304</ele>
        <time>2025-10-19T14:15:46Z</time>
      </trkpt>
      <trkpt lat="43.22751" lon="5.49476">
        <ele>303.9</ele>
        <time>2025-10-19T14:15:47Z</time>
      </trkpt>
      <trkpt lat="43.22751" lon="5.49477">
        <ele>303.9</ele>
        <time>2025-10-19T14:15:48Z</time>
      </trkpt>
      <trkpt lat="43.22751" lon="5.49477">
        <ele>303.8</ele>
        <time>2025-10-19T14:15:49Z</time>
      </trkpt>
      <trkpt lat="43.22751" lon="5.49477">
        <ele>303.8</ele>
        <time>2025-10-19T14:15:50Z</time>
      </trkpt>
      <trkpt lat="43.22751" lon="5.49477">
        <ele>303.6</ele>
        <time>2025-10-19T14:15:51Z</time>
      </trkpt>
      <trkpt lat="43.22751" lon="5.49477">
        <ele>303.5</ele>
        <time>2025-10-19T14:15:52Z</time>
      </trkpt>
      <trkpt lat="43.22751" lon="5.49478">
        <ele>303.5</ele>
        <time>2025-10-19T14:15:53Z</time>
      </trkpt>
      <trkpt lat="43.22751" lon="5.49478">
        <ele>303.5</ele>
        <time>2025-10-19T14:15:54Z</time>
      </trkpt>
      <trkpt lat="43.22751" lon="5.49478">
        <ele>303.3</ele>
        <time>2025-10-19T14:15:55Z</time>
      </trkpt>
      <trkpt lat="43.22751" lon="5.49478">
        <ele>303.4</ele>
        <time>2025-10-19T14:15:56Z</time>
      </trkpt>
      <trkpt lat="43.2275" lon="5.49478">
        <ele>303.5</ele>
        <time>2025-10-19T14:15:57Z</time>
      </trkpt>
      <trkpt lat="43.2275" lon="5.49479">
        <ele>303.5</ele>
        <time>2025-10-19T14:15:58Z</time>
      </trkpt>
      <trkpt lat="43.2275" lon="5.49479">
        <ele>303.6</ele>
        <time>2025-10-19T14:15:59Z</time>
      </trkpt>
      <trkpt lat="43.2275" lon="5.49479">
        <ele>303.6</ele>
        <time>2025-10-19T14:16:00Z</time>
      </trkpt>
      <trkpt lat="43.2275" lon="5.49479">
        <ele>303.7</ele>
        <time>2025-10-19T14:16:01Z</time>
      </trkpt>
      <trkpt lat="43.2275" lon="5.49479">
        <ele>303.7</ele>
        <time>2025-10-19T14:16:02Z</time>
      </trkpt>
      <trkpt lat="43.2275" lon="5.49479">
        <ele>303.7</ele>
        <time>2025-10-19T14:16:03Z</time>
      </trkpt>
      <trkpt lat="43.2275" lon="5.4948">
        <ele>303.6</ele>
        <time>2025-10-19T14:16:04Z</time>
      </trkpt>
      <trkpt lat="43.2275" lon="5.4948">
        <ele>303.5</ele>
        <time>2025-10-19T14:16:05Z</time>
      </trkpt>
      <trkpt lat="43.2275" lon="5.4948">
        <ele>303.5</ele>
        <time>2025-10-19T14:16:06Z</time>
      </trkpt>
      <trkpt lat="43.2275" lon="5.4948">
        <ele>303.4</ele>
        <time>2025-10-19T14:16:07Z</time>
      </trkpt>
      <trkpt lat="43.2275" lon="5.4948">
        <ele>303.3</ele>
        <time>2025-10-19T14:16:08Z</time>
      </trkpt>
      <trkpt lat="43.2275" lon="5.4948">
        <ele>303.3</ele>
        <time>2025-10-19T14:16:09Z</time>
      </trkpt>
      <trkpt lat="43.22749" lon="5.49481">
        <ele>303.3</ele>
        <time>2025-10-19T14:16:10Z</time>
      </trkpt>
      <trkpt lat="43.22749" lon="5.49481">
        <ele>303.2</ele>
        <time>2025-10-19T14:16:11Z</time>
      </trkpt>
      <trkpt lat="43.22749" lon="5.49481">
        <ele>303.2</ele>
        <time>2025-10-19T14:16:12Z</time>
      </trkpt>
      <trkpt lat="43.22749" lon="5.49481">
        <ele>303.1</ele>
        <time>2025-10-19T14:16:13Z</time>
      </trkpt>
      <trkpt lat="43.22749" lon="5.49481">
        <ele>303.3</ele>
        <time>2025-10-19T14:16:14Z</time>
      </trkpt>
      <trkpt lat="43.22749" lon="5.49481">
        <ele>303.4</ele>
        <time>2025-10-19T14:16:15Z</time>
      </trkpt>
      <trkpt lat="43.22749" lon="5.49481">
        <ele>303.4</ele>
        <time>2025-10-19T14:16:16Z</time>
      </trkpt>
      <trkpt lat="43.22749" lon="5.49481">
        <ele>303.4</ele>
        <time>2025-10-19T14:16:17Z</time>
      </trkpt>
      <trkpt lat="43.22749" lon="5.49481">
        <ele>303.5</ele>
        <time>2025-10-19T14:16:18Z</time>
      </trkpt>
      <trkpt lat="43.22749" lon="5.49481">
        <ele>303.5</ele>
        <time>2025-10-19T14:16:19Z</time>
      </trkpt>
      <trkpt lat="43.22749" lon="5.49482">
        <ele>303.6</ele>
        <time>2025-10-19T14:16:20Z</time>
      </trkpt>
      <trkpt lat="43.22749" lon="5.49482">
        <ele>303.7</ele>
        <time>2025-10-19T14:16:21Z</time>
      </trkpt>
      <trkpt lat="43.22749" lon="5.49482">
        <ele>303.7</ele>
        <time>2025-10-19T14:16:22Z</time>
      </trkpt>
      <trkpt lat="43.22749" lon="5.49482">
        <ele>303.7</ele>
        <time>2025-10-19T14:16:23Z</time>
      </trkpt>
      <trkpt lat="43.22749" lon="5.49481">
        <ele>303.8</ele>
        <time>2025-10-19T14:16:24Z</time>
      </trkpt>
      <trkpt lat="43.22749" lon="5.49481">
        <ele>303.8</ele>
        <time>2025-10-19T14:16:25Z</time>
      </trkpt>
      <trkpt lat="43.22748" lon="5.49481">
        <ele>303.8</ele>
        <time>2025-10-19T14:16:26Z</time>
      </trkpt>
      <trkpt lat="43.22748" lon="5.49481">
        <ele>303.9</ele>
        <time>2025-10-19T14:16:27Z</time>
      </trkpt>
      <trkpt lat="43.22748" lon="5.49482">
        <ele>303.9</ele>
        <time>2025-10-19T14:16:28Z</time>
      </trkpt>
      <trkpt lat="43.22747" lon="5.49483">
        <ele>303.9</ele>
        <time>2025-10-19T14:16:29Z</time>
      </trkpt>
      <trkpt lat="43.22747" lon="5.49484">
        <ele>303.9</ele>
        <time>2025-10-19T14:16:30Z</time>
      </trkpt>
      <trkpt lat="43.22747" lon="5.49484">
        <ele>303.8</ele>
        <time>2025-10-19T14:16:31Z</time>
      </trkpt>
      <trkpt lat="43.22747" lon="5.49485">
        <ele>303.7</ele>
        <time>2025-10-19T14:16:32Z</time>
      </trkpt>
      <trkpt lat="43.22747" lon="5.49486">
        <ele>303.5</ele>
        <time>2025-10-19T14:16:33Z</time>
      </trkpt>
      <trkpt lat="43.22747" lon="5.49486">
        <ele>303.5</ele>
        <time>2025-10-19T14:16:34Z</time>
      </trkpt>
      <trkpt lat="43.22747" lon="5.49487">
        <ele>303.3</ele>
        <time>2025-10-19T14:16:35Z</time>
      </trkpt>
      <trkpt lat="43.22747" lon="5.49488">
        <ele>303.1</ele>
        <time>2025-10-19T14:16:36Z</time>
      </trkpt>
      <trkpt lat="43.22747" lon="5.49488">
        <ele>303</ele>
        <time>2025-10-19T14:16:37Z</time>
      </trkpt>
      <trkpt lat="43.22747" lon="5.49489">
        <ele>302.9</ele>
        <time>2025-10-19T14:16:38Z</time>
      </trkpt>
      <trkpt lat="43.22747" lon="5.49491">
        <ele>302.7</ele>
        <time>2025-10-19T14:16:39Z</time>
      </trkpt>
      <trkpt lat="43.22747" lon="5.49492">
        <ele>302.7</ele>
        <time>2025-10-19T14:16:40Z</time>
      </trkpt>
      <trkpt lat="43.22747" lon="5.49493">
        <ele>302.6</ele>
        <time>2025-10-19T14:16:41Z</time>
      </trkpt>
      <trkpt lat="43.22747" lon="5.49495">
        <ele>302.3</ele>
        <time>2025-10-19T14:16:42Z</time>
      </trkpt>
      <trkpt lat="43.22747" lon="5.49496">
        <ele>302</ele>
        <time>2025-10-19T14:16:43Z</time>
      </trkpt>
      <trkpt lat="43.22747" lon="5.49497">
        <ele>301.9</ele>
        <time>2025-10-19T14:16:44Z</time>
      </trkpt>
      <trkpt lat="43.22748" lon="5.49498">
        <ele>301.6</ele>
        <time>2025-10-19T14:16:45Z</time>
      </trkpt>
      <trkpt lat="43.22748" lon="5.49499">
        <ele>301.6</ele>
        <time>2025-10-19T14:16:46Z</time>
      </trkpt>
      <trkpt lat="43.22748" lon="5.495">
        <ele>301.5</ele>
        <time>2025-10-19T14:16:47Z</time>
      </trkpt>
      <trkpt lat="43.22748" lon="5.49501">
        <ele>301.3</ele>
        <time>2025-10-19T14:16:48Z</time>
      </trkpt>
      <trkpt lat="43.22748" lon="5.49502">
        <ele>301.1</ele>
        <time>2025-10-19T14:16:49Z</time>
      </trkpt>
      <trkpt lat="43.22748" lon="5.49502">
        <ele>301</ele>
        <time>2025-10-19T14:16:50Z</time>
      </trkpt>
      <trkpt lat="43.22748" lon="5.49503">
        <ele>300.8</ele>
        <time>2025-10-19T14:16:51Z</time>
      </trkpt>
      <trkpt lat="43.22748" lon="5.49504">
        <ele>300.6</ele>
        <time>2025-10-19T14:16:52Z</time>
      </trkpt>
      <trkpt lat="43.22748" lon="5.49505">
        <ele>300.5</ele>
        <time>2025-10-19T14:16:53Z</time>
      </trkpt>
      <trkpt lat="43.22747" lon="5.49506">
        <ele>300.4</ele>
        <time>2025-10-19T14:16:54Z</time>
      </trkpt>
      <trkpt lat="43.22746" lon="5.49507">
        <ele>300.2</ele>
        <time>2025-10-19T14:16:55Z</time>
      </trkpt>
      <trkpt lat="43.22746" lon="5.49508">
        <ele>299.9</ele>
        <time>2025-10-19T14:16:56Z</time>
      </trkpt>
      <trkpt lat="43.22746" lon="5.4951">
        <ele>299.7</ele>
        <time>2025-10-19T14:16:57Z</time>
      </trkpt>
      <trkpt lat="43.22746" lon="5.49511">
        <ele>299.5</ele>
        <time>2025-10-19T14:16:58Z</time>
      </trkpt>
      <trkpt lat="43.22746" lon="5.49512">
        <ele>299.3</ele>
        <time>2025-10-19T14:16:59Z</time>
      </trkpt>
      <trkpt lat="43.22747" lon="5.49513">
        <ele>299.2</ele>
        <time>2025-10-19T14:17:00Z</time>
      </trkpt>
      <trkpt lat="43.22747" lon="5.49515">
        <ele>299.1</ele>
        <time>2025-10-19T14:17:01Z</time>
      </trkpt>
      <trkpt lat="43.22747" lon="5.49516">
        <ele>298.9</ele>
        <time>2025-10-19T14:17:02Z</time>
      </trkpt>
      <trkpt lat="43.22747" lon="5.49517">
        <ele>298.8</ele>
        <time>2025-10-19T14:17:03Z</time>
      </trkpt>
      <trkpt lat="43.22747" lon="5.49518">
        <ele>298.6</ele>
        <time>2025-10-19T14:17:04Z</time>
      </trkpt>
      <trkpt lat="43.22747" lon="5.49519">
        <ele>298.4</ele>
        <time>2025-10-19T14:17:05Z</time>
      </trkpt>
      <trkpt lat="43.22747" lon="5.49521">
        <ele>298.3</ele>
        <time>2025-10-19T14:17:06Z</time>
      </trkpt>
      <trkpt lat="43.22747" lon="5.49522">
        <ele>298</ele>
        <time>2025-10-19T14:17:07Z</time>
      </trkpt>
      <trkpt lat="43.22747" lon="5.49523">
        <ele>297.8</ele>
        <time>2025-10-19T14:17:08Z</time>
      </trkpt>
      <trkpt lat="43.22747" lon="5.49525">
        <ele>297.7</ele>
        <time>2025-10-19T14:17:09Z</time>
      </trkpt>
      <trkpt lat="43.22748" lon="5.49526">
        <ele>297.4</ele>
        <time>2025-10-19T14:17:10Z</time>
      </trkpt>
      <trkpt lat="43.22748" lon="5.49527">
        <ele>297.1</ele>
        <time>2025-10-19T14:17:11Z</time>
      </trkpt>
      <trkpt lat="43.22749" lon="5.49529">
        <ele>296.9</ele>
        <time>2025-10-19T14:17:12Z</time>
      </trkpt>
      <trkpt lat="43.22749" lon="5.49531">
        <ele>296.7</ele>
        <time>2025-10-19T14:17:13Z</time>
      </trkpt>
      <trkpt lat="43.22749" lon="5.49533">
        <ele>296.4</ele>
        <time>2025-10-19T14:17:14Z</time>
      </trkpt>
      <trkpt lat="43.2275" lon="5.49534">
        <ele>296.2</ele>
        <time>2025-10-19T14:17:15Z</time>
      </trkpt>
      <trkpt lat="43.2275" lon="5.49536">
        <ele>296.1</ele>
        <time>2025-10-19T14:17:16Z</time>
      </trkpt>
      <trkpt lat="43.2275" lon="5.49537">
        <ele>295.9</ele>
        <time>2025-10-19T14:17:17Z</time>
      </trkpt>
      <trkpt lat="43.2275" lon="5.49539">
        <ele>295.7</ele>
        <time>2025-10-19T14:17:18Z</time>
      </trkpt>
      <trkpt lat="43.22751" lon="5.4954">
        <ele>295.5</ele>
        <time>2025-10-19T14:17:19Z</time>
      </trkpt>
      <trkpt lat="43.22751" lon="5.49542">
        <ele>295.3</ele>
        <time>2025-10-19T14:17:20Z</time>
      </trkpt>
      <trkpt lat="43.22751" lon="5.49543">
        <ele>295</ele>
        <time>2025-10-19T14:17:21Z</time>
      </trkpt>
      <trkpt lat="43.22752" lon="5.49545">
        <ele>294.7</ele>
        <time>2025-10-19T14:17:22Z</time>
      </trkpt>
      <trkpt lat="43.22752" lon="5.49546">
        <ele>294.6</ele>
        <time>2025-10-19T14:17:23Z</time>
      </trkpt>
      <trkpt lat="43.22752" lon="5.49548">
        <ele>294.4</ele>
        <time>2025-10-19T14:17:24Z</time>
      </trkpt>
      <trkpt lat="43.22753" lon="5.49549">
        <ele>294.2</ele>
        <time>2025-10-19T14:17:25Z</time>
      </trkpt>
      <trkpt lat="43.22753" lon="5.49551">
        <ele>294.1</ele>
        <time>2025-10-19T14:17:26Z</time>
      </trkpt>
      <trkpt lat="43.22754" lon="5.49553">
        <ele>293.8</ele>
        <time>2025-10-19T14:17:27Z</time>
      </trkpt>
      <trkpt lat="43.22754" lon="5.49554">
        <ele>293.5</ele>
        <time>2025-10-19T14:17:28Z</time>
      </trkpt>
      <trkpt lat="43.22755" lon="5.49556">
        <ele>293.3</ele>
        <time>2025-10-19T14:17:29Z</time>
      </trkpt>
      <trkpt lat="43.22755" lon="5.49557">
        <ele>293.1</ele>
        <time>2025-10-19T14:17:30Z</time>
      </trkpt>
      <trkpt lat="43.22756" lon="5.49558">
        <ele>292.8</ele>
        <time>2025-10-19T14:17:31Z</time>
      </trkpt>
      <trkpt lat="43.22756" lon="5.4956">
        <ele>292.6</ele>
        <time>2025-10-19T14:17:32Z</time>
      </trkpt>
      <trkpt lat="43.22756" lon="5.49561">
        <ele>292.5</ele>
        <time>2025-10-19T14:17:33Z</time>
      </trkpt>
      <trkpt lat="43.22756" lon="5.49562">
        <ele>292.5</ele>
        <time>2025-10-19T14:17:34Z</time>
      </trkpt>
      <trkpt lat="43.22756" lon="5.49564">
        <ele>292.3</ele>
        <time>2025-10-19T14:17:35Z</time>
      </trkpt>
      <trkpt lat="43.22756" lon="5.49565">
        <ele>292.1</ele>
        <time>2025-10-19T14:17:36Z</time>
      </trkpt>
      <trkpt lat="43.22756" lon="5.49567">
        <ele>291.9</ele>
        <time>2025-10-19T14:17:37Z</time>
      </trkpt>
      <trkpt lat="43.22757" lon="5.49568">
        <ele>291.8</ele>
        <time>2025-10-19T14:17:38Z</time>
      </trkpt>
      <trkpt lat="43.22757" lon="5.49569">
        <ele>291.7</ele>
        <time>2025-10-19T14:17:39Z</time>
      </trkpt>
      <trkpt lat="43.22756" lon="5.49571">
        <ele>291.5</ele>
        <time>2025-10-19T14:17:40Z</time>
      </trkpt>
      <trkpt lat="43.22756" lon="5.49572">
        <ele>291.2</ele>
        <time>2025-10-19T14:17:41Z</time>
      </trkpt>
      <trkpt lat="43.22756" lon="5.49573">
        <ele>291.1</ele>
        <time>2025-10-19T14:17:42Z</time>
      </trkpt>
      <trkpt lat="43.22756" lon="5.49574">
        <ele>290.9</ele>
        <time>2025-10-19T14:17:43Z</time>
      </trkpt>
      <trkpt lat="43.22756" lon="5.49576">
        <ele>290.7</ele>
        <time>2025-10-19T14:17:44Z</time>
      </trkpt>
      <trkpt lat="43.22757" lon="5.49577">
        <ele>290.5</ele>
        <time>2025-10-19T14:17:45Z</time>
      </trkpt>
      <trkpt lat="43.22757" lon="5.49578">
        <ele>290.4</ele>
        <time>2025-10-19T14:17:46Z</time>
      </trkpt>
      <trkpt lat="43.22756" lon="5.4958">
        <ele>290.4</ele>
        <time>2025-10-19T14:17:47Z</time>
      </trkpt>
      <trkpt lat="43.22756" lon="5.49581">
        <ele>290.3</ele>
        <time>2025-10-19T14:17:48Z</time>
      </trkpt>
      <trkpt lat="43.22756" lon="5.49582">
        <ele>290.1</ele>
        <time>2025-10-19T14:17:49Z</time>
      </trkpt>
      <trkpt lat="43.22756" lon="5.49584">
        <ele>289.9</ele>
        <time>2025-10-19T14:17:50Z</time>
      </trkpt>
      <trkpt lat="43.22756" lon="5.49585">
        <ele>289.7</ele>
        <time>2025-10-19T14:17:51Z</time>
      </trkpt>
      <trkpt lat="43.22756" lon="5.49586">
        <ele>289.5</ele>
        <time>2025-10-19T14:17:52Z</time>
      </trkpt>
      <trkpt lat="43.22756" lon="5.49587">
        <ele>289.3</ele>
        <time>2025-10-19T14:17:53Z</time>
      </trkpt>
      <trkpt lat="43.22756" lon="5.49589">
        <ele>289.1</ele>
        <time>2025-10-19T14:17:54Z</time>
      </trkpt>
      <trkpt lat="43.22756" lon="5.4959">
        <ele>288.9</ele>
        <time>2025-10-19T14:17:55Z</time>
      </trkpt>
      <trkpt lat="43.22756" lon="5.49592">
        <ele>288.7</ele>
        <time>2025-10-19T14:17:56Z</time>
      </trkpt>
      <trkpt lat="43.22755" lon="5.49593">
        <ele>288.5</ele>
        <time>2025-10-19T14:17:57Z</time>
      </trkpt>
      <trkpt lat="43.22755" lon="5.49595">
        <ele>288.4</ele>
        <time>2025-10-19T14:17:58Z</time>
      </trkpt>
      <trkpt lat="43.22755" lon="5.49596">
        <ele>288.2</ele>
        <time>2025-10-19T14:17:59Z</time>
      </trkpt>
      <trkpt lat="43.22755" lon="5.49598">
        <ele>288</ele>
        <time>2025-10-19T14:18:00Z</time>
      </trkpt>
      <trkpt lat="43.22755" lon="5.496">
        <ele>287.8</ele>
        <time>2025-10-19T14:18:01Z</time>
      </trkpt>
      <trkpt lat="43.22755" lon="5.49601">
        <ele>287.7</ele>
        <time>2025-10-19T14:18:02Z</time>
      </trkpt>
      <trkpt lat="43.22756" lon="5.49602">
        <ele>287.4</ele>
        <time>2025-10-19T14:18:03Z</time>
      </trkpt>
      <trkpt lat="43.22756" lon="5.49604">
        <ele>287.2</ele>
        <time>2025-10-19T14:18:04Z</time>
      </trkpt>
      <trkpt lat="43.22756" lon="5.49605">
        <ele>287.1</ele>
        <time>2025-10-19T14:18:05Z</time>
      </trkpt>
      <trkpt lat="43.22755" lon="5.49606">
        <ele>286.9</ele>
        <time>2025-10-19T14:18:06Z</time>
      </trkpt>
      <trkpt lat="43.22755" lon="5.49608">
        <ele>286.8</ele>
        <time>2025-10-19T14:18:07Z</time>
      </trkpt>
      <trkpt lat="43.22755" lon="5.49609">
        <ele>286.7</ele>
        <time>2025-10-19T14:18:08Z</time>
      </trkpt>
      <trkpt lat="43.22756" lon="5.49611">
        <ele>286.6</ele>
        <time>2025-10-19T14:18:09Z</time>
      </trkpt>
      <trkpt lat="43.22756" lon="5.49612">
        <ele>286.6</ele>
        <time>2025-10-19T14:18:10Z</time>
      </trkpt>
      <trkpt lat="43.22756" lon="5.49614">
        <ele>286.5</ele>
        <time>2025-10-19T14:18:11Z</time>
      </trkpt>
      <trkpt lat="43.22756" lon="5.49615">
        <ele>286.4</ele>
        <time>2025-10-19T14:18:12Z</time>
      </trkpt>
      <trkpt lat="43.22756" lon="5.49617">
        <ele>286.2</ele>
        <time>2025-10-19T14:18:13Z</time>
      </trkpt>
      <trkpt lat="43.22756" lon="5.49618">
        <ele>286.1</ele>
        <time>2025-10-19T14:18:14Z</time>
      </trkpt>
      <trkpt lat="43.22756" lon="5.49619">
        <ele>285.7</ele>
        <time>2025-10-19T14:18:15Z</time>
      </trkpt>
      <trkpt lat="43.22756" lon="5.49621">
        <ele>285.5</ele>
        <time>2025-10-19T14:18:16Z</time>
      </trkpt>
      <trkpt lat="43.22756" lon="5.49622">
        <ele>285.3</ele>
        <time>2025-10-19T14:18:17Z</time>
      </trkpt>
      <trkpt lat="43.22756" lon="5.49624">
        <ele>285.1</ele>
        <time>2025-10-19T14:18:18Z</time>
      </trkpt>
      <trkpt lat="43.22756" lon="5.49625">
        <ele>284.9</ele>
        <time>2025-10-19T14:18:19Z</time>
      </trkpt>
      <trkpt lat="43.22756" lon="5.49627">
        <ele>284.8</ele>
        <time>2025-10-19T14:18:20Z</time>
      </trkpt>
      <trkpt lat="43.22756" lon="5.49628">
        <ele>284.6</ele>
        <time>2025-10-19T14:18:21Z</time>
      </trkpt>
      <trkpt lat="43.22756" lon="5.49629">
        <ele>284.5</ele>
        <time>2025-10-19T14:18:22Z</time>
      </trkpt>
      <trkpt lat="43.22756" lon="5.4963">
        <ele>284.3</ele>
        <time>2025-10-19T14:18:23Z</time>
      </trkpt>
      <trkpt lat="43.22757" lon="5.49632">
        <ele>284.1</ele>
        <time>2025-10-19T14:18:24Z</time>
      </trkpt>
      <trkpt lat="43.22757" lon="5.49633">
        <ele>284</ele>
        <time>2025-10-19T14:18:25Z</time>
      </trkpt>
      <trkpt lat="43.22757" lon="5.49634">
        <ele>283.9</ele>
        <time>2025-10-19T14:18:26Z</time>
      </trkpt>
      <trkpt lat="43.22757" lon="5.49636">
        <ele>283.8</ele>
        <time>2025-10-19T14:18:27Z</time>
      </trkpt>
      <trkpt lat="43.22757" lon="5.49637">
        <ele>283.6</ele>
        <time>2025-10-19T14:18:28Z</time>
      </trkpt>
      <trkpt lat="43.22757" lon="5.49639">
        <ele>283.3</ele>
        <time>2025-10-19T14:18:29Z</time>
      </trkpt>
      <trkpt lat="43.22757" lon="5.4964">
        <ele>283.1</ele>
        <time>2025-10-19T14:18:30Z</time>
      </trkpt>
      <trkpt lat="43.22757" lon="5.49641">
        <ele>283</ele>
        <time>2025-10-19T14:18:31Z</time>
      </trkpt>
      <trkpt lat="43.22757" lon="5.49642">
        <ele>282.8</ele>
        <time>2025-10-19T14:18:32Z</time>
      </trkpt>
      <trkpt lat="43.22757" lon="5.49644">
        <ele>282.6</ele>
        <time>2025-10-19T14:18:33Z</time>
      </trkpt>
      <trkpt lat="43.22757" lon="5.49645">
        <ele>282.5</ele>
        <time>2025-10-19T14:18:34Z</time>
      </trkpt>
      <trkpt lat="43.22756" lon="5.49647">
        <ele>282.4</ele>
        <time>2025-10-19T14:18:35Z</time>
      </trkpt>
      <trkpt lat="43.22756" lon="5.49648">
        <ele>282.3</ele>
        <time>2025-10-19T14:18:36Z</time>
      </trkpt>
      <trkpt lat="43.22756" lon="5.4965">
        <ele>282.2</ele>
        <time>2025-10-19T14:18:37Z</time>
      </trkpt>
      <trkpt lat="43.22756" lon="5.49651">
        <ele>282.1</ele>
        <time>2025-10-19T14:18:38Z</time>
      </trkpt>
      <trkpt lat="43.22756" lon="5.49653">
        <ele>281.9</ele>
        <time>2025-10-19T14:18:39Z</time>
      </trkpt>
      <trkpt lat="43.22755" lon="5.49654">
        <ele>281.7</ele>
        <time>2025-10-19T14:18:40Z</time>
      </trkpt>
      <trkpt lat="43.22755" lon="5.49656">
        <ele>281.6</ele>
        <time>2025-10-19T14:18:41Z</time>
      </trkpt>
      <trkpt lat="43.22755" lon="5.49658">
        <ele>281.5</ele>
        <time>2025-10-19T14:18:42Z</time>
      </trkpt>
      <trkpt lat="43.22755" lon="5.4966">
        <ele>281.3</ele>
        <time>2025-10-19T14:18:43Z</time>
      </trkpt>
      <trkpt lat="43.22754" lon="5.49661">
        <ele>281.1</ele>
        <time>2025-10-19T14:18:44Z</time>
      </trkpt>
      <trkpt lat="43.22754" lon="5.49663">
        <ele>281</ele>
        <time>2025-10-19T14:18:45Z</time>
      </trkpt>
      <trkpt lat="43.22754" lon="5.49665">
        <ele>280.8</ele>
        <time>2025-10-19T14:18:46Z</time>
      </trkpt>
      <trkpt lat="43.22753" lon="5.49667">
        <ele>280.8</ele>
        <time>2025-10-19T14:18:47Z</time>
      </trkpt>
      <trkpt lat="43.22753" lon="5.49668">
        <ele>280.7</ele>
        <time>2025-10-19T14:18:48Z</time>
      </trkpt>
      <trkpt lat="43.22752" lon="5.4967">
        <ele>280.5</ele>
        <time>2025-10-19T14:18:49Z</time>
      </trkpt>
      <trkpt lat="43.22752" lon="5.49671">
        <ele>280.3</ele>
        <time>2025-10-19T14:18:50Z</time>
      </trkpt>
      <trkpt lat="43.22751" lon="5.49673">
        <ele>280.2</ele>
        <time>2025-10-19T14:18:51Z</time>
      </trkpt>
      <trkpt lat="43.22751" lon="5.49674">
        <ele>280.1</ele>
        <time>2025-10-19T14:18:52Z</time>
      </trkpt>
      <trkpt lat="43.22751" lon="5.49676">
        <ele>280</ele>
        <time>2025-10-19T14:18:53Z</time>
      </trkpt>
      <trkpt lat="43.2275" lon="5.49677">
        <ele>279.9</ele>
        <time>2025-10-19T14:18:54Z</time>
      </trkpt>
      <trkpt lat="43.2275" lon="5.49679">
        <ele>279.8</ele>
        <time>2025-10-19T14:18:55Z</time>
      </trkpt>
      <trkpt lat="43.22749" lon="5.49681">
        <ele>279.7</ele>
        <time>2025-10-19T14:18:56Z</time>
      </trkpt>
      <trkpt lat="43.22749" lon="5.49683">
        <ele>279.6</ele>
        <time>2025-10-19T14:18:57Z</time>
      </trkpt>
      <trkpt lat="43.22749" lon="5.49684">
        <ele>279.4</ele>
        <time>2025-10-19T14:18:58Z</time>
      </trkpt>
      <trkpt lat="43.22748" lon="5.49686">
        <ele>279.3</ele>
        <time>2025-10-19T14:18:59Z</time>
      </trkpt>
      <trkpt lat="43.22748" lon="5.49688">
        <ele>279.1</ele>
        <time>2025-10-19T14:19:00Z</time>
      </trkpt>
      <trkpt lat="43.22747" lon="5.4969">
        <ele>279.1</ele>
        <time>2025-10-19T14:19:01Z</time>
      </trkpt>
      <trkpt lat="43.22747" lon="5.49692">
        <ele>279</ele>
        <time>2025-10-19T14:19:02Z</time>
      </trkpt>
      <trkpt lat="43.22747" lon="5.49694">
        <ele>279</ele>
        <time>2025-10-19T14:19:03Z</time>
      </trkpt>
      <trkpt lat="43.22746" lon="5.49695">
        <ele>279</ele>
        <time>2025-10-19T14:19:04Z</time>
      </trkpt>
      <trkpt lat="43.22746" lon="5.49697">
        <ele>278.9</ele>
        <time>2025-10-19T14:19:05Z</time>
      </trkpt>
      <trkpt lat="43.22745" lon="5.49699">
        <ele>278.8</ele>
        <time>2025-10-19T14:19:06Z</time>
      </trkpt>
      <trkpt lat="43.22745" lon="5.497">
        <ele>278.8</ele>
        <time>2025-10-19T14:19:07Z</time>
      </trkpt>
      <trkpt lat="43.22745" lon="5.49702">
        <ele>278.8</ele>
        <time>2025-10-19T14:19:08Z</time>
      </trkpt>
      <trkpt lat="43.22745" lon="5.49704">
        <ele>278.8</ele>
        <time>2025-10-19T14:19:09Z</time>
      </trkpt>
      <trkpt lat="43.22744" lon="5.49705">
        <ele>278.8</ele>
        <time>2025-10-19T14:19:10Z</time>
      </trkpt>
      <trkpt lat="43.22744" lon="5.49707">
        <ele>278.9</ele>
        <time>2025-10-19T14:19:11Z</time>
      </trkpt>
      <trkpt lat="43.22744" lon="5.49709">
        <ele>279</ele>
        <time>2025-10-19T14:19:12Z</time>
      </trkpt>
      <trkpt lat="43.22743" lon="5.49711">
        <ele>279.1</ele>
        <time>2025-10-19T14:19:13Z</time>
      </trkpt>
      <trkpt lat="43.22743" lon="5.49712">
        <ele>279.2</ele>
        <time>2025-10-19T14:19:14Z</time>
      </trkpt>
      <trkpt lat="43.22743" lon="5.49714">
        <ele>279.3</ele>
        <time>2025-10-19T14:19:15Z</time>
      </trkpt>
      <trkpt lat="43.22743" lon="5.49716">
        <ele>279.3</ele>
        <time>2025-10-19T14:19:16Z</time>
      </trkpt>
      <trkpt lat="43.22743" lon="5.49717">
        <ele>279.4</ele>
        <time>2025-10-19T14:19:17Z</time>
      </trkpt>
      <trkpt lat="43.22743" lon="5.49719">
        <ele>279.5</ele>
        <time>2025-10-19T14:19:18Z</time>
      </trkpt>
      <trkpt lat="43.22743" lon="5.49721">
        <ele>279.5</ele>
        <time>2025-10-19T14:19:19Z</time>
      </trkpt>
      <trkpt lat="43.22743" lon="5.49722">
        <ele>279.6</ele>
        <time>2025-10-19T14:19:20Z</time>
      </trkpt>
      <trkpt lat="43.22743" lon="5.49724">
        <ele>279.6</ele>
        <time>2025-10-19T14:19:21Z</time>
      </trkpt>
      <trkpt lat="43.22742" lon="5.49725">
        <ele>279.7</ele>
        <time>2025-10-19T14:19:22Z</time>
      </trkpt>
      <trkpt lat="43.22742" lon="5.49727">
        <ele>279.8</ele>
        <time>2025-10-19T14:19:23Z</time>
      </trkpt>
      <trkpt lat="43.22742" lon="5.49728">
        <ele>279.9</ele>
        <time>2025-10-19T14:19:24Z</time>
      </trkpt>
      <trkpt lat="43.22742" lon="5.49729">
        <ele>280.1</ele>
        <time>2025-10-19T14:19:25Z</time>
      </trkpt>
      <trkpt lat="43.22742" lon="5.49731">
        <ele>280.3</ele>
        <time>2025-10-19T14:19:26Z</time>
      </trkpt>
      <trkpt lat="43.22742" lon="5.49732">
        <ele>280.4</ele>
        <time>2025-10-19T14:19:27Z</time>
      </trkpt>
      <trkpt lat="43.22742" lon="5.49734">
        <ele>280.5</ele>
        <time>2025-10-19T14:19:28Z</time>
      </trkpt>
      <trkpt lat="43.22742" lon="5.49735">
        <ele>280.6</ele>
        <time>2025-10-19T14:19:29Z</time>
      </trkpt>
      <trkpt lat="43.22741" lon="5.49737">
        <ele>280.7</ele>
        <time>2025-10-19T14:19:30Z</time>
      </trkpt>
      <trkpt lat="43.22741" lon="5.49738">
        <ele>280.9</ele>
        <time>2025-10-19T14:19:31Z</time>
      </trkpt>
      <trkpt lat="43.2274" lon="5.49739">
        <ele>281.1</ele>
        <time>2025-10-19T14:19:32Z</time>
      </trkpt>
      <trkpt lat="43.2274" lon="5.49741">
        <ele>281.3</ele>
        <time>2025-10-19T14:19:33Z</time>
      </trkpt>
      <trkpt lat="43.22739" lon="5.49742">
        <ele>281.4</ele>
        <time>2025-10-19T14:19:34Z</time>
      </trkpt>
      <trkpt lat="43.22739" lon="5.49743">
        <ele>281.6</ele>
        <time>2025-10-19T14:19:35Z</time>
      </trkpt>
      <trkpt lat="43.22738" lon="5.49745">
        <ele>281.7</ele>
        <time>2025-10-19T14:19:36Z</time>
      </trkpt>
      <trkpt lat="43.22738" lon="5.49746">
        <ele>281.8</ele>
        <time>2025-10-19T14:19:37Z</time>
      </trkpt>
      <trkpt lat="43.22737" lon="5.49748">
        <ele>281.9</ele>
        <time>2025-10-19T14:19:38Z</time>
      </trkpt>
      <trkpt lat="43.22736" lon="5.49749">
        <ele>282.1</ele>
        <time>2025-10-19T14:19:39Z</time>
      </trkpt>
      <trkpt lat="43.22736" lon="5.49751">
        <ele>282.2</ele>
        <time>2025-10-19T14:19:40Z</time>
      </trkpt>
      <trkpt lat="43.22735" lon="5.49753">
        <ele>282.4</ele>
        <time>2025-10-19T14:19:41Z</time>
      </trkpt>
      <trkpt lat="43.22734" lon="5.49754">
        <ele>282.6</ele>
        <time>2025-10-19T14:19:42Z</time>
      </trkpt>
      <trkpt lat="43.22734" lon="5.49755">
        <ele>282.8</ele>
        <time>2025-10-19T14:19:43Z</time>
      </trkpt>
      <trkpt lat="43.22733" lon="5.49756">
        <ele>283</ele>
        <time>2025-10-19T14:19:44Z</time>
      </trkpt>
      <trkpt lat="43.22733" lon="5.49758">
        <ele>283.2</ele>
        <time>2025-10-19T14:19:45Z</time>
      </trkpt>
      <trkpt lat="43.22732" lon="5.49759">
        <ele>283.4</ele>
        <time>2025-10-19T14:19:46Z</time>
      </trkpt>
      <trkpt lat="43.22731" lon="5.4976">
        <ele>283.6</ele>
        <time>2025-10-19T14:19:47Z</time>
      </trkpt>
      <trkpt lat="43.22731" lon="5.49762">
        <ele>283.7</ele>
        <time>2025-10-19T14:19:48Z</time>
      </trkpt>
      <trkpt lat="43.2273" lon="5.49763">
        <ele>283.8</ele>
        <time>2025-10-19T14:19:49Z</time>
      </trkpt>
      <trkpt lat="43.2273" lon="5.49765">
        <ele>283.9</ele>
        <time>2025-10-19T14:19:50Z</time>
      </trkpt>
      <trkpt lat="43.22729" lon="5.49766">
        <ele>284.1</ele>
        <time>2025-10-19T14:19:51Z</time>
      </trkpt>
      <trkpt lat="43.22729" lon="5.49767">
        <ele>284.2</ele>
        <time>2025-10-19T14:19:52Z</time>
      </trkpt>
      <trkpt lat="43.22728" lon="5.49768">
        <ele>284.5</ele>
        <time>2025-10-19T14:19:53Z</time>
      </trkpt>
      <trkpt lat="43.22728" lon="5.49769">
        <ele>284.6</ele>
        <time>2025-10-19T14:19:54Z</time>
      </trkpt>
      <trkpt lat="43.22727" lon="5.4977">
        <ele>284.8</ele>
        <time>2025-10-19T14:19:55Z</time>
      </trkpt>
      <trkpt lat="43.22726" lon="5.49771">
        <ele>284.9</ele>
        <time>2025-10-19T14:19:56Z</time>
      </trkpt>
      <trkpt lat="43.22725" lon="5.49773">
        <ele>285.1</ele>
        <time>2025-10-19T14:19:57Z</time>
      </trkpt>
      <trkpt lat="43.22724" lon="5.49774">
        <ele>285.2</ele>
        <time>2025-10-19T14:19:58Z</time>
      </trkpt>
      <trkpt lat="43.22724" lon="5.49776">
        <ele>285.4</ele>
        <time>2025-10-19T14:19:59Z</time>
      </trkpt>
      <trkpt lat="43.22723" lon="5.49778">
        <ele>285.5</ele>
        <time>2025-10-19T14:20:00Z</time>
      </trkpt>
      <trkpt lat="43.22723" lon="5.49779">
        <ele>285.6</ele>
        <time>2025-10-19T14:20:01Z</time>
      </trkpt>
      <trkpt lat="43.22722" lon="5.4978">
        <ele>285.7</ele>
        <time>2025-10-19T14:20:02Z</time>
      </trkpt>
      <trkpt lat="43.22721" lon="5.49782">
        <ele>285.7</ele>
        <time>2025-10-19T14:20:03Z</time>
      </trkpt>
      <trkpt lat="43.2272" lon="5.49783">
        <ele>285.8</ele>
        <time>2025-10-19T14:20:04Z</time>
      </trkpt>
      <trkpt lat="43.2272" lon="5.49785">
        <ele>285.7</ele>
        <time>2025-10-19T14:20:05Z</time>
      </trkpt>
      <trkpt lat="43.22719" lon="5.49786">
        <ele>285.7</ele>
        <time>2025-10-19T14:20:06Z</time>
      </trkpt>
      <trkpt lat="43.22719" lon="5.49788">
        <ele>285.7</ele>
        <time>2025-10-19T14:20:07Z</time>
      </trkpt>
      <trkpt lat="43.22718" lon="5.49789">
        <ele>285.7</ele>
        <time>2025-10-19T14:20:08Z</time>
      </trkpt>
      <trkpt lat="43.22717" lon="5.4979">
        <ele>285.7</ele>
        <time>2025-10-19T14:20:09Z</time>
      </trkpt>
      <trkpt lat="43.22717" lon="5.49792">
        <ele>285.7</ele>
        <time>2025-10-19T14:20:10Z</time>
      </trkpt>
      <trkpt lat="43.22716" lon="5.49793">
        <ele>285.7</ele>
        <time>2025-10-19T14:20:11Z</time>
      </trkpt>
      <trkpt lat="43.22715" lon="5.49795">
        <ele>285.7</ele>
        <time>2025-10-19T14:20:12Z</time>
      </trkpt>
      <trkpt lat="43.22714" lon="5.49796">
        <ele>285.7</ele>
        <time>2025-10-19T14:20:13Z</time>
      </trkpt>
      <trkpt lat="43.22714" lon="5.49798">
        <ele>285.6</ele>
        <time>2025-10-19T14:20:14Z</time>
      </trkpt>
      <trkpt lat="43.22713" lon="5.49799">
        <ele>285.5</ele>
        <time>2025-10-19T14:20:15Z</time>
      </trkpt>
      <trkpt lat="43.22712" lon="5.498">
        <ele>285.5</ele>
        <time>2025-10-19T14:20:16Z</time>
      </trkpt>
      <trkpt lat="43.22712" lon="5.49802">
        <ele>285.5</ele>
        <time>2025-10-19T14:20:17Z</time>
      </trkpt>
      <trkpt lat="43.22711" lon="5.49803">
        <ele>285.4</ele>
        <time>2025-10-19T14:20:18Z</time>
      </trkpt>
      <trkpt lat="43.2271" lon="5.49804">
        <ele>285.3</ele>
        <time>2025-10-19T14:20:19Z</time>
      </trkpt>
      <trkpt lat="43.22709" lon="5.49806">
        <ele>285.2</ele>
        <time>2025-10-19T14:20:20Z</time>
      </trkpt>
      <trkpt lat="43.22709" lon="5.49807">
        <ele>285.2</ele>
        <time>2025-10-19T14:20:21Z</time>
      </trkpt>
      <trkpt lat="43.22708" lon="5.49808">
        <ele>285.2</ele>
        <time>2025-10-19T14:20:22Z</time>
      </trkpt>
      <trkpt lat="43.22707" lon="5.49809">
        <ele>285.1</ele>
        <time>2025-10-19T14:20:23Z</time>
      </trkpt>
      <trkpt lat="43.22706" lon="5.49811">
        <ele>285.1</ele>
        <time>2025-10-19T14:20:24Z</time>
      </trkpt>
      <trkpt lat="43.22705" lon="5.49812">
        <ele>285.1</ele>
        <time>2025-10-19T14:20:25Z</time>
      </trkpt>
      <trkpt lat="43.22704" lon="5.49813">
        <ele>285</ele>
        <time>2025-10-19T14:20:26Z</time>
      </trkpt>
      <trkpt lat="43.22703" lon="5.49815">
        <ele>284.8</ele>
        <time>2025-10-19T14:20:27Z</time>
      </trkpt>
      <trkpt lat="43.22703" lon="5.49816">
        <ele>284.7</ele>
        <time>2025-10-19T14:20:28Z</time>
      </trkpt>
      <trkpt lat="43.22702" lon="5.49817">
        <ele>284.6</ele>
        <time>2025-10-19T14:20:29Z</time>
      </trkpt>
      <trkpt lat="43.22701" lon="5.49818">
        <ele>284.5</ele>
        <time>2025-10-19T14:20:30Z</time>
      </trkpt>
      <trkpt lat="43.22701" lon="5.4982">
        <ele>284.4</ele>
        <time>2025-10-19T14:20:31Z</time>
      </trkpt>
      <trkpt lat="43.227" lon="5.49821">
        <ele>284.2</ele>
        <time>2025-10-19T14:20:32Z</time>
      </trkpt>
      <trkpt lat="43.22699" lon="5.49823">
        <ele>284</ele>
        <time>2025-10-19T14:20:33Z</time>
      </trkpt>
      <trkpt lat="43.22698" lon="5.49824">
        <ele>284.1</ele>
        <time>2025-10-19T14:20:34Z</time>
      </trkpt>
      <trkpt lat="43.22697" lon="5.49826">
        <ele>284</ele>
        <time>2025-10-19T14:20:35Z</time>
      </trkpt>
      <trkpt lat="43.22696" lon="5.49827">
        <ele>283.9</ele>
        <time>2025-10-19T14:20:36Z</time>
      </trkpt>
      <trkpt lat="43.22696" lon="5.49828">
        <ele>284</ele>
        <time>2025-10-19T14:20:37Z</time>
      </trkpt>
      <trkpt lat="43.22695" lon="5.4983">
        <ele>284</ele>
        <time>2025-10-19T14:20:38Z</time>
      </trkpt>
      <trkpt lat="43.22694" lon="5.49831">
        <ele>283.9</ele>
        <time>2025-10-19T14:20:39Z</time>
      </trkpt>
      <trkpt lat="43.22693" lon="5.49832">
        <ele>283.9</ele>
        <time>2025-10-19T14:20:40Z</time>
      </trkpt>
      <trkpt lat="43.22693" lon="5.49834">
        <ele>284</ele>
        <time>2025-10-19T14:20:41Z</time>
      </trkpt>
      <trkpt lat="43.22692" lon="5.49835">
        <ele>284.1</ele>
        <time>2025-10-19T14:20:42Z</time>
      </trkpt>
      <trkpt lat="43.22691" lon="5.49836">
        <ele>284.1</ele>
        <time>2025-10-19T14:20:43Z</time>
      </trkpt>
      <trkpt lat="43.2269" lon="5.49838">
        <ele>284.1</ele>
        <time>2025-10-19T14:20:44Z</time>
      </trkpt>
      <trkpt lat="43.2269" lon="5.49839">
        <ele>284</ele>
        <time>2025-10-19T14:20:45Z</time>
      </trkpt>
      <trkpt lat="43.22689" lon="5.4984">
        <ele>283.9</ele>
        <time>2025-10-19T14:20:46Z</time>
      </trkpt>
      <trkpt lat="43.22688" lon="5.49842">
        <ele>283.8</ele>
        <time>2025-10-19T14:20:47Z</time>
      </trkpt>
      <trkpt lat="43.22687" lon="5.49843">
        <ele>283.7</ele>
        <time>2025-10-19T14:20:48Z</time>
      </trkpt>
      <trkpt lat="43.22686" lon="5.49845">
        <ele>283.6</ele>
        <time>2025-10-19T14:20:49Z</time>
      </trkpt>
      <trkpt lat="43.22685" lon="5.49846">
        <ele>283.7</ele>
        <time>2025-10-19T14:20:50Z</time>
      </trkpt>
      <trkpt lat="43.22685" lon="5.49848">
        <ele>283.7</ele>
        <time>2025-10-19T14:20:51Z</time>
      </trkpt>
      <trkpt lat="43.22684" lon="5.4985">
        <ele>283.7</ele>
        <time>2025-10-19T14:20:52Z</time>
      </trkpt>
      <trkpt lat="43.22684" lon="5.49851">
        <ele>283.6</ele>
        <time>2025-10-19T14:20:53Z</time>
      </trkpt>
      <trkpt lat="43.22683" lon="5.49853">
        <ele>283.6</ele>
        <time>2025-10-19T14:20:54Z</time>
      </trkpt>
      <trkpt lat="43.22683" lon="5.49855">
        <ele>283.5</ele>
        <time>2025-10-19T14:20:55Z</time>
      </trkpt>
      <trkpt lat="43.22683" lon="5.49856">
        <ele>283.5</ele>
        <time>2025-10-19T14:20:56Z</time>
      </trkpt>
      <trkpt lat="43.22682" lon="5.49858">
        <ele>283.5</ele>
        <time>2025-10-19T14:20:57Z</time>
      </trkpt>
      <trkpt lat="43.22682" lon="5.4986">
        <ele>283.6</ele>
        <time>2025-10-19T14:20:58Z</time>
      </trkpt>
      <trkpt lat="43.22682" lon="5.49861">
        <ele>283.7</ele>
        <time>2025-10-19T14:20:59Z</time>
      </trkpt>
      <trkpt lat="43.22681" lon="5.49863">
        <ele>283.7</ele>
        <time>2025-10-19T14:21:00Z</time>
      </trkpt>
      <trkpt lat="43.22681" lon="5.49864">
        <ele>283.7</ele>
        <time>2025-10-19T14:21:01Z</time>
      </trkpt>
      <trkpt lat="43.2268" lon="5.49866">
        <ele>283.7</ele>
        <time>2025-10-19T14:21:02Z</time>
      </trkpt>
      <trkpt lat="43.2268" lon="5.49868">
        <ele>283.7</ele>
        <time>2025-10-19T14:21:03Z</time>
      </trkpt>
      <trkpt lat="43.22679" lon="5.4987">
        <ele>283.6</ele>
        <time>2025-10-19T14:21:04Z</time>
      </trkpt>
      <trkpt lat="43.22679" lon="5.49871">
        <ele>283.5</ele>
        <time>2025-10-19T14:21:05Z</time>
      </trkpt>
      <trkpt lat="43.22678" lon="5.49873">
        <ele>283.5</ele>
        <time>2025-10-19T14:21:06Z</time>
      </trkpt>
      <trkpt lat="43.22678" lon="5.49874">
        <ele>283.5</ele>
        <time>2025-10-19T14:21:07Z</time>
      </trkpt>
      <trkpt lat="43.22677" lon="5.49876">
        <ele>283.5</ele>
        <time>2025-10-19T14:21:08Z</time>
      </trkpt>
      <trkpt lat="43.22676" lon="5.49877">
        <ele>283.6</ele>
        <time>2025-10-19T14:21:09Z</time>
      </trkpt>
      <trkpt lat="43.22676" lon="5.49879">
        <ele>283.7</ele>
        <time>2025-10-19T14:21:10Z</time>
      </trkpt>
      <trkpt lat="43.22676" lon="5.4988">
        <ele>283.7</ele>
        <time>2025-10-19T14:21:11Z</time>
      </trkpt>
      <trkpt lat="43.22676" lon="5.49882">
        <ele>283.8</ele>
        <time>2025-10-19T14:21:12Z</time>
      </trkpt>
      <trkpt lat="43.22675" lon="5.49883">
        <ele>283.9</ele>
        <time>2025-10-19T14:21:13Z</time>
      </trkpt>
      <trkpt lat="43.22675" lon="5.49885">
        <ele>283.9</ele>
        <time>2025-10-19T14:21:14Z</time>
      </trkpt>
      <trkpt lat="43.22675" lon="5.49887">
        <ele>283.9</ele>
        <time>2025-10-19T14:21:15Z</time>
      </trkpt>
      <trkpt lat="43.22675" lon="5.49889">
        <ele>283.9</ele>
        <time>2025-10-19T14:21:16Z</time>
      </trkpt>
      <trkpt lat="43.22675" lon="5.4989">
        <ele>283.9</ele>
        <time>2025-10-19T14:21:17Z</time>
      </trkpt>
      <trkpt lat="43.22675" lon="5.49892">
        <ele>283.9</ele>
        <time>2025-10-19T14:21:18Z</time>
      </trkpt>
      <trkpt lat="43.22675" lon="5.49894">
        <ele>283.7</ele>
        <time>2025-10-19T14:21:19Z</time>
      </trkpt>
      <trkpt lat="43.22675" lon="5.49896">
        <ele>283.7</ele>
        <time>2025-10-19T14:21:20Z</time>
      </trkpt>
      <trkpt lat="43.22675" lon="5.49898">
        <ele>283.6</ele>
        <time>2025-10-19T14:21:21Z</time>
      </trkpt>
      <trkpt lat="43.22675" lon="5.499">
        <ele>283.6</ele>
        <time>2025-10-19T14:21:22Z</time>
      </trkpt>
      <trkpt lat="43.22676" lon="5.49902">
        <ele>283.5</ele>
        <time>2025-10-19T14:21:23Z</time>
      </trkpt>
      <trkpt lat="43.22676" lon="5.49903">
        <ele>283.5</ele>
        <time>2025-10-19T14:21:24Z</time>
      </trkpt>
      <trkpt lat="43.22676" lon="5.49905">
        <ele>283.6</ele>
        <time>2025-10-19T14:21:25Z</time>
      </trkpt>
      <trkpt lat="43.22676" lon="5.49907">
        <ele>283.6</ele>
        <time>2025-10-19T14:21:26Z</time>
      </trkpt>
      <trkpt lat="43.22676" lon="5.49909">
        <ele>283.6</ele>
        <time>2025-10-19T14:21:27Z</time>
      </trkpt>
      <trkpt lat="43.22677" lon="5.4991">
        <ele>283.7</ele>
        <time>2025-10-19T14:21:28Z</time>
      </trkpt>
      <trkpt lat="43.22677" lon="5.49912">
        <ele>283.8</ele>
        <time>2025-10-19T14:21:29Z</time>
      </trkpt>
      <trkpt lat="43.22677" lon="5.49914">
        <ele>284</ele>
        <time>2025-10-19T14:21:30Z</time>
      </trkpt>
      <trkpt lat="43.22677" lon="5.49915">
        <ele>284</ele>
        <time>2025-10-19T14:21:31Z</time>
      </trkpt>
      <trkpt lat="43.22678" lon="5.49917">
        <ele>284</ele>
        <time>2025-10-19T14:21:32Z</time>
      </trkpt>
      <trkpt lat="43.22678" lon="5.49919">
        <ele>284</ele>
        <time>2025-10-19T14:21:33Z</time>
      </trkpt>
      <trkpt lat="43.22679" lon="5.49921">
        <ele>283.8</ele>
        <time>2025-10-19T14:21:34Z</time>
      </trkpt>
      <trkpt lat="43.22679" lon="5.49923">
        <ele>284.1</ele>
        <time>2025-10-19T14:21:35Z</time>
      </trkpt>
      <trkpt lat="43.2268" lon="5.49925">
        <ele>284.1</ele>
        <time>2025-10-19T14:21:36Z</time>
      </trkpt>
      <trkpt lat="43.2268" lon="5.49926">
        <ele>284.2</ele>
        <time>2025-10-19T14:21:37Z</time>
      </trkpt>
      <trkpt lat="43.22681" lon="5.49928">
        <ele>284.2</ele>
        <time>2025-10-19T14:21:38Z</time>
      </trkpt>
      <trkpt lat="43.22681" lon="5.4993">
        <ele>284.1</ele>
        <time>2025-10-19T14:21:39Z</time>
      </trkpt>
      <trkpt lat="43.22682" lon="5.49932">
        <ele>284.2</ele>
        <time>2025-10-19T14:21:40Z</time>
      </trkpt>
      <trkpt lat="43.22682" lon="5.49934">
        <ele>284.3</ele>
        <time>2025-10-19T14:21:41Z</time>
      </trkpt>
      <trkpt lat="43.22683" lon="5.49936">
        <ele>284.2</ele>
        <time>2025-10-19T14:21:42Z</time>
      </trkpt>
      <trkpt lat="43.22683" lon="5.49937">
        <ele>284.4</ele>
        <time>2025-10-19T14:21:43Z</time>
      </trkpt>
      <trkpt lat="43.22684" lon="5.49939">
        <ele>284.3</ele>
        <time>2025-10-19T14:21:44Z</time>
      </trkpt>
      <trkpt lat="43.22684" lon="5.49941">
        <ele>284.5</ele>
        <time>2025-10-19T14:21:45Z</time>
      </trkpt>
      <trkpt lat="43.22685" lon="5.49943">
        <ele>284.5</ele>
        <time>2025-10-19T14:21:46Z</time>
      </trkpt>
      <trkpt lat="43.22685" lon="5.49944">
        <ele>284.5</ele>
        <time>2025-10-19T14:21:47Z</time>
      </trkpt>
      <trkpt lat="43.22686" lon="5.49946">
        <ele>284.5</ele>
        <time>2025-10-19T14:21:48Z</time>
      </trkpt>
      <trkpt lat="43.22686" lon="5.49947">
        <ele>284.5</ele>
        <time>2025-10-19T14:21:49Z</time>
      </trkpt>
      <trkpt lat="43.22686" lon="5.49949">
        <ele>284.4</ele>
        <time>2025-10-19T14:21:50Z</time>
      </trkpt>
      <trkpt lat="43.22687" lon="5.49951">
        <ele>284.4</ele>
        <time>2025-10-19T14:21:51Z</time>
      </trkpt>
      <trkpt lat="43.22687" lon="5.49952">
        <ele>284.4</ele>
        <time>2025-10-19T14:21:52Z</time>
      </trkpt>
      <trkpt lat="43.22687" lon="5.49954">
        <ele>284.4</ele>
        <time>2025-10-19T14:21:53Z</time>
      </trkpt>
      <trkpt lat="43.22688" lon="5.49956">
        <ele>284.5</ele>
        <time>2025-10-19T14:21:54Z</time>
      </trkpt>
      <trkpt lat="43.22689" lon="5.49957">
        <ele>284.5</ele>
        <time>2025-10-19T14:21:55Z</time>
      </trkpt>
      <trkpt lat="43.2269" lon="5.49959">
        <ele>284.5</ele>
        <time>2025-10-19T14:21:56Z</time>
      </trkpt>
      <trkpt lat="43.2269" lon="5.4996">
        <ele>284.5</ele>
        <time>2025-10-19T14:21:57Z</time>
      </trkpt>
      <trkpt lat="43.22691" lon="5.49962">
        <ele>284.6</ele>
        <time>2025-10-19T14:21:58Z</time>
      </trkpt>
      <trkpt lat="43.22691" lon="5.49964">
        <ele>284.6</ele>
        <time>2025-10-19T14:21:59Z</time>
      </trkpt>
      <trkpt lat="43.22692" lon="5.49965">
        <ele>284.6</ele>
        <time>2025-10-19T14:22:00Z</time>
      </trkpt>
      <trkpt lat="43.22693" lon="5.49967">
        <ele>284.7</ele>
        <time>2025-10-19T14:22:01Z</time>
      </trkpt>
      <trkpt lat="43.22693" lon="5.49969">
        <ele>284.6</ele>
        <time>2025-10-19T14:22:02Z</time>
      </trkpt>
      <trkpt lat="43.22694" lon="5.4997">
        <ele>284.6</ele>
        <time>2025-10-19T14:22:03Z</time>
      </trkpt>
      <trkpt lat="43.22695" lon="5.49972">
        <ele>284.6</ele>
        <time>2025-10-19T14:22:04Z</time>
      </trkpt>
      <trkpt lat="43.22695" lon="5.49973">
        <ele>284.6</ele>
        <time>2025-10-19T14:22:05Z</time>
      </trkpt>
      <trkpt lat="43.22696" lon="5.49975">
        <ele>284.6</ele>
        <time>2025-10-19T14:22:06Z</time>
      </trkpt>
      <trkpt lat="43.22696" lon="5.49976">
        <ele>284.6</ele>
        <time>2025-10-19T14:22:07Z</time>
      </trkpt>
      <trkpt lat="43.22697" lon="5.49978">
        <ele>284.5</ele>
        <time>2025-10-19T14:22:08Z</time>
      </trkpt>
      <trkpt lat="43.22697" lon="5.4998">
        <ele>284.6</ele>
        <time>2025-10-19T14:22:09Z</time>
      </trkpt>
      <trkpt lat="43.22698" lon="5.49981">
        <ele>284.7</ele>
        <time>2025-10-19T14:22:10Z</time>
      </trkpt>
      <trkpt lat="43.22698" lon="5.49983">
        <ele>284.8</ele>
        <time>2025-10-19T14:22:11Z</time>
      </trkpt>
      <trkpt lat="43.22699" lon="5.49984">
        <ele>284.7</ele>
        <time>2025-10-19T14:22:12Z</time>
      </trkpt>
      <trkpt lat="43.227" lon="5.49986">
        <ele>284.7</ele>
        <time>2025-10-19T14:22:13Z</time>
      </trkpt>
      <trkpt lat="43.227" lon="5.49987">
        <ele>284.7</ele>
        <time>2025-10-19T14:22:14Z</time>
      </trkpt>
      <trkpt lat="43.22701" lon="5.49988">
        <ele>284.7</ele>
        <time>2025-10-19T14:22:15Z</time>
      </trkpt>
      <trkpt lat="43.22702" lon="5.4999">
        <ele>284.7</ele>
        <time>2025-10-19T14:22:16Z</time>
      </trkpt>
      <trkpt lat="43.22702" lon="5.49991">
        <ele>284.7</ele>
        <time>2025-10-19T14:22:17Z</time>
      </trkpt>
      <trkpt lat="43.22703" lon="5.49993">
        <ele>284.8</ele>
        <time>2025-10-19T14:22:18Z</time>
      </trkpt>
      <trkpt lat="43.22704" lon="5.49994">
        <ele>284.8</ele>
        <time>2025-10-19T14:22:19Z</time>
      </trkpt>
      <trkpt lat="43.22704" lon="5.49996">
        <ele>284.8</ele>
        <time>2025-10-19T14:22:20Z</time>
      </trkpt>
      <trkpt lat="43.22705" lon="5.49998">
        <ele>284.8</ele>
        <time>2025-10-19T14:22:21Z</time>
      </trkpt>
      <trkpt lat="43.22706" lon="5.49999">
        <ele>284.8</ele>
        <time>2025-10-19T14:22:22Z</time>
      </trkpt>
      <trkpt lat="43.22706" lon="5.5">
        <ele>285</ele>
        <time>2025-10-19T14:22:23Z</time>
      </trkpt>
      <trkpt lat="43.22707" lon="5.50002">
        <ele>284.8</ele>
        <time>2025-10-19T14:22:24Z</time>
      </trkpt>
      <trkpt lat="43.22707" lon="5.50003">
        <ele>284.8</ele>
        <time>2025-10-19T14:22:25Z</time>
      </trkpt>
      <trkpt lat="43.22708" lon="5.50005">
        <ele>284.9</ele>
        <time>2025-10-19T14:22:26Z</time>
      </trkpt>
      <trkpt lat="43.22708" lon="5.50007">
        <ele>284.9</ele>
        <time>2025-10-19T14:22:27Z</time>
      </trkpt>
      <trkpt lat="43.22709" lon="5.50008">
        <ele>284.9</ele>
        <time>2025-10-19T14:22:28Z</time>
      </trkpt>
      <trkpt lat="43.22709" lon="5.5001">
        <ele>284.9</ele>
        <time>2025-10-19T14:22:29Z</time>
      </trkpt>
      <trkpt lat="43.2271" lon="5.50012">
        <ele>285</ele>
        <time>2025-10-19T14:22:30Z</time>
      </trkpt>
      <trkpt lat="43.22711" lon="5.50013">
        <ele>284.9</ele>
        <time>2025-10-19T14:22:31Z</time>
      </trkpt>
      <trkpt lat="43.22711" lon="5.50015">
        <ele>284.9</ele>
        <time>2025-10-19T14:22:32Z</time>
      </trkpt>
      <trkpt lat="43.22712" lon="5.50017">
        <ele>284.9</ele>
        <time>2025-10-19T14:22:33Z</time>
      </trkpt>
      <trkpt lat="43.22712" lon="5.50018">
        <ele>284.8</ele>
        <time>2025-10-19T14:22:34Z</time>
      </trkpt>
      <trkpt lat="43.22713" lon="5.5002">
        <ele>284.9</ele>
        <time>2025-10-19T14:22:35Z</time>
      </trkpt>
      <trkpt lat="43.22714" lon="5.50021">
        <ele>284.9</ele>
        <time>2025-10-19T14:22:36Z</time>
      </trkpt>
      <trkpt lat="43.22714" lon="5.50023">
        <ele>284.8</ele>
        <time>2025-10-19T14:22:37Z</time>
      </trkpt>
      <trkpt lat="43.22715" lon="5.50024">
        <ele>284.8</ele>
        <time>2025-10-19T14:22:38Z</time>
      </trkpt>
      <trkpt lat="43.22716" lon="5.50026">
        <ele>284.8</ele>
        <time>2025-10-19T14:22:39Z</time>
      </trkpt>
      <trkpt lat="43.22717" lon="5.50027">
        <ele>284.8</ele>
        <time>2025-10-19T14:22:40Z</time>
      </trkpt>
      <trkpt lat="43.22717" lon="5.50029">
        <ele>284.8</ele>
        <time>2025-10-19T14:22:41Z</time>
      </trkpt>
      <trkpt lat="43.22718" lon="5.5003">
        <ele>284.9</ele>
        <time>2025-10-19T14:22:42Z</time>
      </trkpt>
      <trkpt lat="43.22719" lon="5.50032">
        <ele>285</ele>
        <time>2025-10-19T14:22:43Z</time>
      </trkpt>
      <trkpt lat="43.22719" lon="5.50033">
        <ele>285</ele>
        <time>2025-10-19T14:22:44Z</time>
      </trkpt>
      <trkpt lat="43.2272" lon="5.50035">
        <ele>285.1</ele>
        <time>2025-10-19T14:22:45Z</time>
      </trkpt>
      <trkpt lat="43.2272" lon="5.50036">
        <ele>285.1</ele>
        <time>2025-10-19T14:22:46Z</time>
      </trkpt>
      <trkpt lat="43.22721" lon="5.50037">
        <ele>285</ele>
        <time>2025-10-19T14:22:47Z</time>
      </trkpt>
      <trkpt lat="43.22722" lon="5.50039">
        <ele>284.9</ele>
        <time>2025-10-19T14:22:48Z</time>
      </trkpt>
      <trkpt lat="43.22722" lon="5.50041">
        <ele>284.8</ele>
        <time>2025-10-19T14:22:49Z</time>
      </trkpt>
      <trkpt lat="43.22723" lon="5.50042">
        <ele>284.7</ele>
        <time>2025-10-19T14:22:50Z</time>
      </trkpt>
      <trkpt lat="43.22724" lon="5.50043">
        <ele>284.6</ele>
        <time>2025-10-19T14:22:51Z</time>
      </trkpt>
      <trkpt lat="43.22725" lon="5.50045">
        <ele>284.5</ele>
        <time>2025-10-19T14:22:52Z</time>
      </trkpt>
      <trkpt lat="43.22726" lon="5.50047">
        <ele>284.6</ele>
        <time>2025-10-19T14:22:53Z</time>
      </trkpt>
      <trkpt lat="43.22726" lon="5.50048">
        <ele>284.5</ele>
        <time>2025-10-19T14:22:54Z</time>
      </trkpt>
      <trkpt lat="43.22727" lon="5.5005">
        <ele>284.5</ele>
        <time>2025-10-19T14:22:55Z</time>
      </trkpt>
      <trkpt lat="43.22728" lon="5.50051">
        <ele>284.5</ele>
        <time>2025-10-19T14:22:56Z</time>
      </trkpt>
      <trkpt lat="43.22729" lon="5.50052">
        <ele>284.4</ele>
        <time>2025-10-19T14:22:57Z</time>
      </trkpt>
      <trkpt lat="43.22729" lon="5.50054">
        <ele>284.3</ele>
        <time>2025-10-19T14:22:58Z</time>
      </trkpt>
      <trkpt lat="43.2273" lon="5.50055">
        <ele>284.5</ele>
        <time>2025-10-19T14:22:59Z</time>
      </trkpt>
      <trkpt lat="43.22731" lon="5.50057">
        <ele>284.5</ele>
        <time>2025-10-19T14:23:00Z</time>
      </trkpt>
      <trkpt lat="43.22732" lon="5.50058">
        <ele>284.5</ele>
        <time>2025-10-19T14:23:01Z</time>
      </trkpt>
      <trkpt lat="43.22732" lon="5.5006">
        <ele>284.5</ele>
        <time>2025-10-19T14:23:02Z</time>
      </trkpt>
      <trkpt lat="43.22733" lon="5.50061">
        <ele>284.5</ele>
        <time>2025-10-19T14:23:03Z</time>
      </trkpt>
      <trkpt lat="43.22734" lon="5.50063">
        <ele>284.5</ele>
        <time>2025-10-19T14:23:04Z</time>
      </trkpt>
      <trkpt lat="43.22735" lon="5.50064">
        <ele>284.5</ele>
        <time>2025-10-19T14:23:05Z</time>
      </trkpt>
      <trkpt lat="43.22735" lon="5.50065">
        <ele>284.5</ele>
        <time>2025-10-19T14:23:06Z</time>
      </trkpt>
      <trkpt lat="43.22736" lon="5.50066">
        <ele>284.4</ele>
        <time>2025-10-19T14:23:07Z</time>
      </trkpt>
      <trkpt lat="43.22737" lon="5.50068">
        <ele>284.4</ele>
        <time>2025-10-19T14:23:08Z</time>
      </trkpt>
      <trkpt lat="43.22737" lon="5.50069">
        <ele>284.4</ele>
        <time>2025-10-19T14:23:09Z</time>
      </trkpt>
      <trkpt lat="43.22738" lon="5.5007">
        <ele>284.3</ele>
        <time>2025-10-19T14:23:10Z</time>
      </trkpt>
      <trkpt lat="43.22739" lon="5.50071">
        <ele>284.3</ele>
        <time>2025-10-19T14:23:11Z</time>
      </trkpt>
      <trkpt lat="43.2274" lon="5.50072">
        <ele>284.3</ele>
        <time>2025-10-19T14:23:12Z</time>
      </trkpt>
      <trkpt lat="43.22741" lon="5.50074">
        <ele>284.3</ele>
        <time>2025-10-19T14:23:13Z</time>
      </trkpt>
      <trkpt lat="43.22741" lon="5.50075">
        <ele>284.3</ele>
        <time>2025-10-19T14:23:14Z</time>
      </trkpt>
      <trkpt lat="43.22742" lon="5.50077">
        <ele>284.2</ele>
        <time>2025-10-19T14:23:15Z</time>
      </trkpt>
      <trkpt lat="43.22743" lon="5.50078">
        <ele>284.1</ele>
        <time>2025-10-19T14:23:16Z</time>
      </trkpt>
      <trkpt lat="43.22743" lon="5.50079">
        <ele>284</ele>
        <time>2025-10-19T14:23:17Z</time>
      </trkpt>
      <trkpt lat="43.22744" lon="5.50081">
        <ele>284.1</ele>
        <time>2025-10-19T14:23:18Z</time>
      </trkpt>
      <trkpt lat="43.22745" lon="5.50082">
        <ele>284.1</ele>
        <time>2025-10-19T14:23:19Z</time>
      </trkpt>
      <trkpt lat="43.22746" lon="5.50084">
        <ele>284.1</ele>
        <time>2025-10-19T14:23:20Z</time>
      </trkpt>
      <trkpt lat="43.22746" lon="5.50086">
        <ele>284</ele>
        <time>2025-10-19T14:23:21Z</time>
      </trkpt>
      <trkpt lat="43.22746" lon="5.50087">
        <ele>283.9</ele>
        <time>2025-10-19T14:23:22Z</time>
      </trkpt>
      <trkpt lat="43.22747" lon="5.50088">
        <ele>284</ele>
        <time>2025-10-19T14:23:23Z</time>
      </trkpt>
      <trkpt lat="43.22748" lon="5.5009">
        <ele>284</ele>
        <time>2025-10-19T14:23:24Z</time>
      </trkpt>
      <trkpt lat="43.22748" lon="5.50091">
        <ele>284</ele>
        <time>2025-10-19T14:23:25Z</time>
      </trkpt>
      <trkpt lat="43.22749" lon="5.50093">
        <ele>284</ele>
        <time>2025-10-19T14:23:26Z</time>
      </trkpt>
      <trkpt lat="43.2275" lon="5.50094">
        <ele>284</ele>
        <time>2025-10-19T14:23:27Z</time>
      </trkpt>
      <trkpt lat="43.22751" lon="5.50096">
        <ele>283.9</ele>
        <time>2025-10-19T14:23:28Z</time>
      </trkpt>
      <trkpt lat="43.22752" lon="5.50097">
        <ele>283.9</ele>
        <time>2025-10-19T14:23:29Z</time>
      </trkpt>
      <trkpt lat="43.22752" lon="5.50098">
        <ele>283.9</ele>
        <time>2025-10-19T14:23:30Z</time>
      </trkpt>
      <trkpt lat="43.22753" lon="5.501">
        <ele>283.9</ele>
        <time>2025-10-19T14:23:31Z</time>
      </trkpt>
      <trkpt lat="43.22754" lon="5.50101">
        <ele>283.8</ele>
        <time>2025-10-19T14:23:32Z</time>
      </trkpt>
      <trkpt lat="43.22755" lon="5.50102">
        <ele>283.8</ele>
        <time>2025-10-19T14:23:33Z</time>
      </trkpt>
      <trkpt lat="43.22755" lon="5.50103">
        <ele>283.7</ele>
        <time>2025-10-19T14:23:34Z</time>
      </trkpt>
      <trkpt lat="43.22756" lon="5.50105">
        <ele>283.5</ele>
        <time>2025-10-19T14:23:35Z</time>
      </trkpt>
      <trkpt lat="43.22756" lon="5.50106">
        <ele>283.3</ele>
        <time>2025-10-19T14:23:36Z</time>
      </trkpt>
      <trkpt lat="43.22757" lon="5.50108">
        <ele>283.2</ele>
        <time>2025-10-19T14:23:37Z</time>
      </trkpt>
      <trkpt lat="43.22758" lon="5.50109">
        <ele>283.2</ele>
        <time>2025-10-19T14:23:38Z</time>
      </trkpt>
      <trkpt lat="43.22758" lon="5.50111">
        <ele>283.1</ele>
        <time>2025-10-19T14:23:39Z</time>
      </trkpt>
      <trkpt lat="43.22759" lon="5.50113">
        <ele>283</ele>
        <time>2025-10-19T14:23:40Z</time>
      </trkpt>
      <trkpt lat="43.22759" lon="5.50114">
        <ele>283</ele>
        <time>2025-10-19T14:23:41Z</time>
      </trkpt>
      <trkpt lat="43.2276" lon="5.50116">
        <ele>282.9</ele>
        <time>2025-10-19T14:23:42Z</time>
      </trkpt>
      <trkpt lat="43.2276" lon="5.50117">
        <ele>282.7</ele>
        <time>2025-10-19T14:23:43Z</time>
      </trkpt>
      <trkpt lat="43.22761" lon="5.50119">
        <ele>282.6</ele>
        <time>2025-10-19T14:23:44Z</time>
      </trkpt>
      <trkpt lat="43.22761" lon="5.5012">
        <ele>282.4</ele>
        <time>2025-10-19T14:23:45Z</time>
      </trkpt>
      <trkpt lat="43.22761" lon="5.50121">
        <ele>282.3</ele>
        <time>2025-10-19T14:23:46Z</time>
      </trkpt>
      <trkpt lat="43.22761" lon="5.50123">
        <ele>282.2</ele>
        <time>2025-10-19T14:23:47Z</time>
      </trkpt>
      <trkpt lat="43.22761" lon="5.50125">
        <ele>282.1</ele>
        <time>2025-10-19T14:23:48Z</time>
      </trkpt>
      <trkpt lat="43.22762" lon="5.50126">
        <ele>282</ele>
        <time>2025-10-19T14:23:49Z</time>
      </trkpt>
      <trkpt lat="43.22762" lon="5.50128">
        <ele>282</ele>
        <time>2025-10-19T14:23:50Z</time>
      </trkpt>
      <trkpt lat="43.22762" lon="5.5013">
        <ele>282</ele>
        <time>2025-10-19T14:23:51Z</time>
      </trkpt>
      <trkpt lat="43.22762" lon="5.50131">
        <ele>282</ele>
        <time>2025-10-19T14:23:52Z</time>
      </trkpt>
      <trkpt lat="43.22762" lon="5.50133">
        <ele>281.9</ele>
        <time>2025-10-19T14:23:53Z</time>
      </trkpt>
      <trkpt lat="43.22762" lon="5.50135">
        <ele>281.8</ele>
        <time>2025-10-19T14:23:54Z</time>
      </trkpt>
      <trkpt lat="43.22762" lon="5.50136">
        <ele>281.7</ele>
        <time>2025-10-19T14:23:55Z</time>
      </trkpt>
      <trkpt lat="43.22762" lon="5.50138">
        <ele>281.5</ele>
        <time>2025-10-19T14:23:56Z</time>
      </trkpt>
      <trkpt lat="43.22762" lon="5.5014">
        <ele>281.5</ele>
        <time>2025-10-19T14:23:57Z</time>
      </trkpt>
      <trkpt lat="43.22763" lon="5.50141">
        <ele>281.4</ele>
        <time>2025-10-19T14:23:58Z</time>
      </trkpt>
      <trkpt lat="43.22763" lon="5.50142">
        <ele>281.3</ele>
        <time>2025-10-19T14:23:59Z</time>
      </trkpt>
      <trkpt lat="43.22763" lon="5.50144">
        <ele>281.2</ele>
        <time>2025-10-19T14:24:00Z</time>
      </trkpt>
      <trkpt lat="43.22763" lon="5.50146">
        <ele>281.2</ele>
        <time>2025-10-19T14:24:01Z</time>
      </trkpt>
      <trkpt lat="43.22764" lon="5.50147">
        <ele>281</ele>
        <time>2025-10-19T14:24:02Z</time>
      </trkpt>
      <trkpt lat="43.22764" lon="5.50149">
        <ele>280.8</ele>
        <time>2025-10-19T14:24:03Z</time>
      </trkpt>
      <trkpt lat="43.22764" lon="5.5015">
        <ele>280.6</ele>
        <time>2025-10-19T14:24:04Z</time>
      </trkpt>
      <trkpt lat="43.22764" lon="5.50152">
        <ele>280.4</ele>
        <time>2025-10-19T14:24:05Z</time>
      </trkpt>
      <trkpt lat="43.22764" lon="5.50153">
        <ele>280.3</ele>
        <time>2025-10-19T14:24:06Z</time>
      </trkpt>
      <trkpt lat="43.22764" lon="5.50155">
        <ele>280.1</ele>
        <time>2025-10-19T14:24:07Z</time>
      </trkpt>
      <trkpt lat="43.22765" lon="5.50156">
        <ele>280</ele>
        <time>2025-10-19T14:24:08Z</time>
      </trkpt>
      <trkpt lat="43.22765" lon="5.50158">
        <ele>279.9</ele>
        <time>2025-10-19T14:24:09Z</time>
      </trkpt>
      <trkpt lat="43.22765" lon="5.50159">
        <ele>279.7</ele>
        <time>2025-10-19T14:24:10Z</time>
      </trkpt>
      <trkpt lat="43.22765" lon="5.50161">
        <ele>279.6</ele>
        <time>2025-10-19T14:24:11Z</time>
      </trkpt>
      <trkpt lat="43.22766" lon="5.50162">
        <ele>279.4</ele>
        <time>2025-10-19T14:24:12Z</time>
      </trkpt>
      <trkpt lat="43.22766" lon="5.50164">
        <ele>279.3</ele>
        <time>2025-10-19T14:24:13Z</time>
      </trkpt>
      <trkpt lat="43.22766" lon="5.50165">
        <ele>279.2</ele>
        <time>2025-10-19T14:24:14Z</time>
      </trkpt>
      <trkpt lat="43.22766" lon="5.50167">
        <ele>279.1</ele>
        <time>2025-10-19T14:24:15Z</time>
      </trkpt>
      <trkpt lat="43.22767" lon="5.50169">
        <ele>278.9</ele>
        <time>2025-10-19T14:24:16Z</time>
      </trkpt>
      <trkpt lat="43.22767" lon="5.5017">
        <ele>278.6</ele>
        <time>2025-10-19T14:24:17Z</time>
      </trkpt>
      <trkpt lat="43.22767" lon="5.50171">
        <ele>278.4</ele>
        <time>2025-10-19T14:24:18Z</time>
      </trkpt>
      <trkpt lat="43.22767" lon="5.50173">
        <ele>278.1</ele>
        <time>2025-10-19T14:24:19Z</time>
      </trkpt>
      <trkpt lat="43.22767" lon="5.50174">
        <ele>278</ele>
        <time>2025-10-19T14:24:20Z</time>
      </trkpt>
      <trkpt lat="43.22767" lon="5.50176">
        <ele>278</ele>
        <time>2025-10-19T14:24:21Z</time>
      </trkpt>
      <trkpt lat="43.22767" lon="5.50178">
        <ele>278</ele>
        <time>2025-10-19T14:24:22Z</time>
      </trkpt>
      <trkpt lat="43.22767" lon="5.50179">
        <ele>277.9</ele>
        <time>2025-10-19T14:24:23Z</time>
      </trkpt>
      <trkpt lat="43.22767" lon="5.50181">
        <ele>277.8</ele>
        <time>2025-10-19T14:24:24Z</time>
      </trkpt>
      <trkpt lat="43.22767" lon="5.50182">
        <ele>277.6</ele>
        <time>2025-10-19T14:24:25Z</time>
      </trkpt>
      <trkpt lat="43.22767" lon="5.50184">
        <ele>277.5</ele>
        <time>2025-10-19T14:24:26Z</time>
      </trkpt>
      <trkpt lat="43.22767" lon="5.50185">
        <ele>277.4</ele>
        <time>2025-10-19T14:24:27Z</time>
      </trkpt>
      <trkpt lat="43.22767" lon="5.50187">
        <ele>277.3</ele>
        <time>2025-10-19T14:24:28Z</time>
      </trkpt>
      <trkpt lat="43.22767" lon="5.50189">
        <ele>277.2</ele>
        <time>2025-10-19T14:24:29Z</time>
      </trkpt>
      <trkpt lat="43.22767" lon="5.5019">
        <ele>277</ele>
        <time>2025-10-19T14:24:30Z</time>
      </trkpt>
      <trkpt lat="43.22767" lon="5.50192">
        <ele>276.9</ele>
        <time>2025-10-19T14:24:31Z</time>
      </trkpt>
      <trkpt lat="43.22767" lon="5.50193">
        <ele>276.8</ele>
        <time>2025-10-19T14:24:32Z</time>
      </trkpt>
      <trkpt lat="43.22767" lon="5.50194">
        <ele>276.7</ele>
        <time>2025-10-19T14:24:33Z</time>
      </trkpt>
      <trkpt lat="43.22767" lon="5.50196">
        <ele>276.6</ele>
        <time>2025-10-19T14:24:34Z</time>
      </trkpt>
      <trkpt lat="43.22767" lon="5.50197">
        <ele>276.5</ele>
        <time>2025-10-19T14:24:35Z</time>
      </trkpt>
      <trkpt lat="43.22766" lon="5.50199">
        <ele>276.3</ele>
        <time>2025-10-19T14:24:36Z</time>
      </trkpt>
      <trkpt lat="43.22766" lon="5.50201">
        <ele>276.1</ele>
        <time>2025-10-19T14:24:37Z</time>
      </trkpt>
      <trkpt lat="43.22766" lon="5.50202">
        <ele>276</ele>
        <time>2025-10-19T14:24:38Z</time>
      </trkpt>
      <trkpt lat="43.22766" lon="5.50204">
        <ele>275.8</ele>
        <time>2025-10-19T14:24:39Z</time>
      </trkpt>
      <trkpt lat="43.22766" lon="5.50205">
        <ele>275.7</ele>
        <time>2025-10-19T14:24:40Z</time>
      </trkpt>
      <trkpt lat="43.22765" lon="5.50207">
        <ele>275.5</ele>
        <time>2025-10-19T14:24:41Z</time>
      </trkpt>
      <trkpt lat="43.22765" lon="5.50209">
        <ele>275.4</ele>
        <time>2025-10-19T14:24:42Z</time>
      </trkpt>
      <trkpt lat="43.22765" lon="5.5021">
        <ele>275.3</ele>
        <time>2025-10-19T14:24:43Z</time>
      </trkpt>
      <trkpt lat="43.22765" lon="5.50212">
        <ele>275.2</ele>
        <time>2025-10-19T14:24:44Z</time>
      </trkpt>
      <trkpt lat="43.22764" lon="5.50214">
        <ele>275.1</ele>
        <time>2025-10-19T14:24:45Z</time>
      </trkpt>
      <trkpt lat="43.22764" lon="5.50215">
        <ele>275</ele>
        <time>2025-10-19T14:24:46Z</time>
      </trkpt>
      <trkpt lat="43.22764" lon="5.50217">
        <ele>274.9</ele>
        <time>2025-10-19T14:24:47Z</time>
      </trkpt>
      <trkpt lat="43.22763" lon="5.50218">
        <ele>274.7</ele>
        <time>2025-10-19T14:24:48Z</time>
      </trkpt>
      <trkpt lat="43.22763" lon="5.5022">
        <ele>274.5</ele>
        <time>2025-10-19T14:24:49Z</time>
      </trkpt>
      <trkpt lat="43.22763" lon="5.50222">
        <ele>274.5</ele>
        <time>2025-10-19T14:24:50Z</time>
      </trkpt>
      <trkpt lat="43.22763" lon="5.50223">
        <ele>274.3</ele>
        <time>2025-10-19T14:24:51Z</time>
      </trkpt>
      <trkpt lat="43.22762" lon="5.50225">
        <ele>274.1</ele>
        <time>2025-10-19T14:24:52Z</time>
      </trkpt>
      <trkpt lat="43.22762" lon="5.50227">
        <ele>274</ele>
        <time>2025-10-19T14:24:53Z</time>
      </trkpt>
      <trkpt lat="43.22762" lon="5.50229">
        <ele>273.8</ele>
        <time>2025-10-19T14:24:54Z</time>
      </trkpt>
      <trkpt lat="43.22761" lon="5.5023">
        <ele>273.6</ele>
        <time>2025-10-19T14:24:55Z</time>
      </trkpt>
      <trkpt lat="43.22761" lon="5.50231">
        <ele>273.4</ele>
        <time>2025-10-19T14:24:56Z</time>
      </trkpt>
      <trkpt lat="43.22761" lon="5.50233">
        <ele>273.3</ele>
        <time>2025-10-19T14:24:57Z</time>
      </trkpt>
      <trkpt lat="43.22761" lon="5.50234">
        <ele>273.2</ele>
        <time>2025-10-19T14:24:58Z</time>
      </trkpt>
      <trkpt lat="43.2276" lon="5.50236">
        <ele>273</ele>
        <time>2025-10-19T14:24:59Z</time>
      </trkpt>
      <trkpt lat="43.2276" lon="5.50237">
        <ele>272.8</ele>
        <time>2025-10-19T14:25:00Z</time>
      </trkpt>
      <trkpt lat="43.22759" lon="5.50238">
        <ele>272.7</ele>
        <time>2025-10-19T14:25:01Z</time>
      </trkpt>
      <trkpt lat="43.22758" lon="5.50239">
        <ele>272.5</ele>
        <time>2025-10-19T14:25:02Z</time>
      </trkpt>
      <trkpt lat="43.22758" lon="5.50241">
        <ele>272.4</ele>
        <time>2025-10-19T14:25:03Z</time>
      </trkpt>
      <trkpt lat="43.22758" lon="5.50242">
        <ele>272.3</ele>
        <time>2025-10-19T14:25:04Z</time>
      </trkpt>
      <trkpt lat="43.22758" lon="5.50243">
        <ele>272.2</ele>
        <time>2025-10-19T14:25:05Z</time>
      </trkpt>
      <trkpt lat="43.22758" lon="5.50244">
        <ele>272.2</ele>
        <time>2025-10-19T14:25:06Z</time>
      </trkpt>
      <trkpt lat="43.22757" lon="5.50245">
        <ele>272.1</ele>
        <time>2025-10-19T14:25:07Z</time>
      </trkpt>
      <trkpt lat="43.22757" lon="5.50247">
        <ele>272.1</ele>
        <time>2025-10-19T14:25:08Z</time>
      </trkpt>
      <trkpt lat="43.22757" lon="5.50248">
        <ele>272</ele>
        <time>2025-10-19T14:25:09Z</time>
      </trkpt>
      <trkpt lat="43.22757" lon="5.5025">
        <ele>272</ele>
        <time>2025-10-19T14:25:10Z</time>
      </trkpt>
      <trkpt lat="43.22756" lon="5.50251">
        <ele>271.9</ele>
        <time>2025-10-19T14:25:11Z</time>
      </trkpt>
      <trkpt lat="43.22756" lon="5.50253">
        <ele>271.8</ele>
        <time>2025-10-19T14:25:12Z</time>
      </trkpt>
      <trkpt lat="43.22756" lon="5.50254">
        <ele>271.6</ele>
        <time>2025-10-19T14:25:13Z</time>
      </trkpt>
      <trkpt lat="43.22756" lon="5.50256">
        <ele>271.3</ele>
        <time>2025-10-19T14:25:14Z</time>
      </trkpt>
      <trkpt lat="43.22756" lon="5.50258">
        <ele>271.1</ele>
        <time>2025-10-19T14:25:15Z</time>
      </trkpt>
      <trkpt lat="43.22756" lon="5.5026">
        <ele>270.9</ele>
        <time>2025-10-19T14:25:16Z</time>
      </trkpt>
      <trkpt lat="43.22755" lon="5.50261">
        <ele>270.7</ele>
        <time>2025-10-19T14:25:17Z</time>
      </trkpt>
      <trkpt lat="43.22755" lon="5.50263">
        <ele>270.6</ele>
        <time>2025-10-19T14:25:18Z</time>
      </trkpt>
      <trkpt lat="43.22755" lon="5.50264">
        <ele>270.4</ele>
        <time>2025-10-19T14:25:19Z</time>
      </trkpt>
      <trkpt lat="43.22754" lon="5.50266">
        <ele>270.2</ele>
        <time>2025-10-19T14:25:20Z</time>
      </trkpt>
      <trkpt lat="43.22754" lon="5.50267">
        <ele>270.1</ele>
        <time>2025-10-19T14:25:21Z</time>
      </trkpt>
      <trkpt lat="43.22753" lon="5.50269">
        <ele>269.9</ele>
        <time>2025-10-19T14:25:22Z</time>
      </trkpt>
      <trkpt lat="43.22753" lon="5.5027">
        <ele>269.8</ele>
        <time>2025-10-19T14:25:23Z</time>
      </trkpt>
      <trkpt lat="43.22752" lon="5.50272">
        <ele>269.7</ele>
        <time>2025-10-19T14:25:24Z</time>
      </trkpt>
      <trkpt lat="43.22752" lon="5.50274">
        <ele>269.5</ele>
        <time>2025-10-19T14:25:25Z</time>
      </trkpt>
      <trkpt lat="43.22752" lon="5.50275">
        <ele>269.4</ele>
        <time>2025-10-19T14:25:26Z</time>
      </trkpt>
      <trkpt lat="43.22752" lon="5.50277">
        <ele>269.4</ele>
        <time>2025-10-19T14:25:27Z</time>
      </trkpt>
      <trkpt lat="43.22751" lon="5.50279">
        <ele>269.3</ele>
        <time>2025-10-19T14:25:28Z</time>
      </trkpt>
      <trkpt lat="43.22751" lon="5.5028">
        <ele>269.1</ele>
        <time>2025-10-19T14:25:29Z</time>
      </trkpt>
      <trkpt lat="43.22751" lon="5.50282">
        <ele>268.9</ele>
        <time>2025-10-19T14:25:30Z</time>
      </trkpt>
      <trkpt lat="43.22751" lon="5.50284">
        <ele>268.6</ele>
        <time>2025-10-19T14:25:31Z</time>
      </trkpt>
      <trkpt lat="43.22751" lon="5.50285">
        <ele>268.4</ele>
        <time>2025-10-19T14:25:32Z</time>
      </trkpt>
      <trkpt lat="43.2275" lon="5.50287">
        <ele>268.2</ele>
        <time>2025-10-19T14:25:33Z</time>
      </trkpt>
      <trkpt lat="43.2275" lon="5.50288">
        <ele>268.1</ele>
        <time>2025-10-19T14:25:34Z</time>
      </trkpt>
      <trkpt lat="43.2275" lon="5.5029">
        <ele>268.1</ele>
        <time>2025-10-19T14:25:35Z</time>
      </trkpt>
      <trkpt lat="43.22749" lon="5.50292">
        <ele>268</ele>
        <time>2025-10-19T14:25:36Z</time>
      </trkpt>
      <trkpt lat="43.22749" lon="5.50294">
        <ele>267.9</ele>
        <time>2025-10-19T14:25:37Z</time>
      </trkpt>
      <trkpt lat="43.22749" lon="5.50295">
        <ele>267.7</ele>
        <time>2025-10-19T14:25:38Z</time>
      </trkpt>
      <trkpt lat="43.22748" lon="5.50297">
        <ele>267.7</ele>
        <time>2025-10-19T14:25:39Z</time>
      </trkpt>
      <trkpt lat="43.22748" lon="5.50298">
        <ele>267.5</ele>
        <time>2025-10-19T14:25:40Z</time>
      </trkpt>
      <trkpt lat="43.22747" lon="5.50299">
        <ele>267.3</ele>
        <time>2025-10-19T14:25:41Z</time>
      </trkpt>
      <trkpt lat="43.22747" lon="5.503">
        <ele>267.3</ele>
        <time>2025-10-19T14:25:42Z</time>
      </trkpt>
      <trkpt lat="43.22747" lon="5.50302">
        <ele>267.3</ele>
        <time>2025-10-19T14:25:43Z</time>
      </trkpt>
      <trkpt lat="43.22747" lon="5.50304">
        <ele>267.1</ele>
        <time>2025-10-19T14:25:44Z</time>
      </trkpt>
      <trkpt lat="43.22746" lon="5.50305">
        <ele>267</ele>
        <time>2025-10-19T14:25:45Z</time>
      </trkpt>
      <trkpt lat="43.22746" lon="5.50307">
        <ele>266.9</ele>
        <time>2025-10-19T14:25:46Z</time>
      </trkpt>
      <trkpt lat="43.22745" lon="5.50308">
        <ele>266.7</ele>
        <time>2025-10-19T14:25:47Z</time>
      </trkpt>
      <trkpt lat="43.22745" lon="5.5031">
        <ele>266.6</ele>
        <time>2025-10-19T14:25:48Z</time>
      </trkpt>
      <trkpt lat="43.22745" lon="5.50311">
        <ele>266.3</ele>
        <time>2025-10-19T14:25:49Z</time>
      </trkpt>
      <trkpt lat="43.22745" lon="5.50313">
        <ele>266.2</ele>
        <time>2025-10-19T14:25:50Z</time>
      </trkpt>
      <trkpt lat="43.22745" lon="5.50314">
        <ele>266.2</ele>
        <time>2025-10-19T14:25:51Z</time>
      </trkpt>
      <trkpt lat="43.22745" lon="5.50316">
        <ele>266.1</ele>
        <time>2025-10-19T14:25:52Z</time>
      </trkpt>
      <trkpt lat="43.22745" lon="5.50318">
        <ele>265.9</ele>
        <time>2025-10-19T14:25:53Z</time>
      </trkpt>
      <trkpt lat="43.22745" lon="5.50319">
        <ele>265.8</ele>
        <time>2025-10-19T14:25:54Z</time>
      </trkpt>
      <trkpt lat="43.22745" lon="5.50321">
        <ele>265.6</ele>
        <time>2025-10-19T14:25:55Z</time>
      </trkpt>
      <trkpt lat="43.22745" lon="5.50322">
        <ele>265.4</ele>
        <time>2025-10-19T14:25:56Z</time>
      </trkpt>
      <trkpt lat="43.22745" lon="5.50324">
        <ele>265.2</ele>
        <time>2025-10-19T14:25:57Z</time>
      </trkpt>
      <trkpt lat="43.22745" lon="5.50325">
        <ele>265</ele>
        <time>2025-10-19T14:25:58Z</time>
      </trkpt>
      <trkpt lat="43.22745" lon="5.50327">
        <ele>264.9</ele>
        <time>2025-10-19T14:25:59Z</time>
      </trkpt>
      <trkpt lat="43.22745" lon="5.50328">
        <ele>264.7</ele>
        <time>2025-10-19T14:26:00Z</time>
      </trkpt>
      <trkpt lat="43.22745" lon="5.5033">
        <ele>264.5</ele>
        <time>2025-10-19T14:26:01Z</time>
      </trkpt>
      <trkpt lat="43.22745" lon="5.50331">
        <ele>264.3</ele>
        <time>2025-10-19T14:26:02Z</time>
      </trkpt>
      <trkpt lat="43.22744" lon="5.50333">
        <ele>264.1</ele>
        <time>2025-10-19T14:26:03Z</time>
      </trkpt>
      <trkpt lat="43.22744" lon="5.50334">
        <ele>263.9</ele>
        <time>2025-10-19T14:26:04Z</time>
      </trkpt>
      <trkpt lat="43.22744" lon="5.50336">
        <ele>263.8</ele>
        <time>2025-10-19T14:26:05Z</time>
      </trkpt>
      <trkpt lat="43.22744" lon="5.50338">
        <ele>263.6</ele>
        <time>2025-10-19T14:26:06Z</time>
      </trkpt>
      <trkpt lat="43.22745" lon="5.5034">
        <ele>263.5</ele>
        <time>2025-10-19T14:26:07Z</time>
      </trkpt>
      <trkpt lat="43.22745" lon="5.50341">
        <ele>263.4</ele>
        <time>2025-10-19T14:26:08Z</time>
      </trkpt>
      <trkpt lat="43.22745" lon="5.50343">
        <ele>263.2</ele>
        <time>2025-10-19T14:26:09Z</time>
      </trkpt>
      <trkpt lat="43.22746" lon="5.50344">
        <ele>263.1</ele>
        <time>2025-10-19T14:26:10Z</time>
      </trkpt>
      <trkpt lat="43.22746" lon="5.50346">
        <ele>262.9</ele>
        <time>2025-10-19T14:26:11Z</time>
      </trkpt>
      <trkpt lat="43.22747" lon="5.50348">
        <ele>262.8</ele>
        <time>2025-10-19T14:26:12Z</time>
      </trkpt>
      <trkpt lat="43.22747" lon="5.50349">
        <ele>262.6</ele>
        <time>2025-10-19T14:26:13Z</time>
      </trkpt>
      <trkpt lat="43.22747" lon="5.50351">
        <ele>262.5</ele>
        <time>2025-10-19T14:26:14Z</time>
      </trkpt>
      <trkpt lat="43.22748" lon="5.50352">
        <ele>262.4</ele>
        <time>2025-10-19T14:26:15Z</time>
      </trkpt>
      <trkpt lat="43.22748" lon="5.50354">
        <ele>262.3</ele>
        <time>2025-10-19T14:26:16Z</time>
      </trkpt>
      <trkpt lat="43.22748" lon="5.50356">
        <ele>262.3</ele>
        <time>2025-10-19T14:26:17Z</time>
      </trkpt>
      <trkpt lat="43.22749" lon="5.50357">
        <ele>262.2</ele>
        <time>2025-10-19T14:26:18Z</time>
      </trkpt>
      <trkpt lat="43.2275" lon="5.50359">
        <ele>262</ele>
        <time>2025-10-19T14:26:19Z</time>
      </trkpt>
      <trkpt lat="43.2275" lon="5.5036">
        <ele>261.9</ele>
        <time>2025-10-19T14:26:20Z</time>
      </trkpt>
      <trkpt lat="43.22751" lon="5.50361">
        <ele>261.7</ele>
        <time>2025-10-19T14:26:21Z</time>
      </trkpt>
      <trkpt lat="43.22751" lon="5.50363">
        <ele>261.5</ele>
        <time>2025-10-19T14:26:22Z</time>
      </trkpt>
      <trkpt lat="43.22752" lon="5.50365">
        <ele>261.4</ele>
        <time>2025-10-19T14:26:23Z</time>
      </trkpt>
      <trkpt lat="43.22752" lon="5.50366">
        <ele>261.3</ele>
        <time>2025-10-19T14:26:24Z</time>
      </trkpt>
      <trkpt lat="43.22753" lon="5.50368">
        <ele>261.2</ele>
        <time>2025-10-19T14:26:25Z</time>
      </trkpt>
      <trkpt lat="43.22754" lon="5.50369">
        <ele>261.1</ele>
        <time>2025-10-19T14:26:26Z</time>
      </trkpt>
      <trkpt lat="43.22754" lon="5.5037">
        <ele>261</ele>
        <time>2025-10-19T14:26:27Z</time>
      </trkpt>
      <trkpt lat="43.22754" lon="5.50372">
        <ele>261</ele>
        <time>2025-10-19T14:26:28Z</time>
      </trkpt>
      <trkpt lat="43.22755" lon="5.50373">
        <ele>260.8</ele>
        <time>2025-10-19T14:26:29Z</time>
      </trkpt>
      <trkpt lat="43.22755" lon="5.50375">
        <ele>260.8</ele>
        <time>2025-10-19T14:26:30Z</time>
      </trkpt>
      <trkpt lat="43.22755" lon="5.50376">
        <ele>260.7</ele>
        <time>2025-10-19T14:26:31Z</time>
      </trkpt>
      <trkpt lat="43.22755" lon="5.50378">
        <ele>260.6</ele>
        <time>2025-10-19T14:26:32Z</time>
      </trkpt>
      <trkpt lat="43.22755" lon="5.5038">
        <ele>260.6</ele>
        <time>2025-10-19T14:26:33Z</time>
      </trkpt>
      <trkpt lat="43.22755" lon="5.50381">
        <ele>260.5</ele>
        <time>2025-10-19T14:26:34Z</time>
      </trkpt>
      <trkpt lat="43.22754" lon="5.50383">
        <ele>260.4</ele>
        <time>2025-10-19T14:26:35Z</time>
      </trkpt>
      <trkpt lat="43.22754" lon="5.50384">
        <ele>260.3</ele>
        <time>2025-10-19T14:26:36Z</time>
      </trkpt>
      <trkpt lat="43.22754" lon="5.50386">
        <ele>260.2</ele>
        <time>2025-10-19T14:26:37Z</time>
      </trkpt>
      <trkpt lat="43.22754" lon="5.50388">
        <ele>260.2</ele>
        <time>2025-10-19T14:26:38Z</time>
      </trkpt>
      <trkpt lat="43.22753" lon="5.50389">
        <ele>260.2</ele>
        <time>2025-10-19T14:26:39Z</time>
      </trkpt>
      <trkpt lat="43.22753" lon="5.50391">
        <ele>260.2</ele>
        <time>2025-10-19T14:26:40Z</time>
      </trkpt>
      <trkpt lat="43.22752" lon="5.50392">
        <ele>260</ele>
        <time>2025-10-19T14:26:41Z</time>
      </trkpt>
      <trkpt lat="43.22751" lon="5.50393">
        <ele>259.9</ele>
        <time>2025-10-19T14:26:42Z</time>
      </trkpt>
      <trkpt lat="43.22751" lon="5.50395">
        <ele>259.8</ele>
        <time>2025-10-19T14:26:43Z</time>
      </trkpt>
      <trkpt lat="43.2275" lon="5.50396">
        <ele>259.8</ele>
        <time>2025-10-19T14:26:44Z</time>
      </trkpt>
      <trkpt lat="43.22749" lon="5.50397">
        <ele>259.7</ele>
        <time>2025-10-19T14:26:45Z</time>
      </trkpt>
      <trkpt lat="43.22748" lon="5.50398">
        <ele>259.6</ele>
        <time>2025-10-19T14:26:46Z</time>
      </trkpt>
      <trkpt lat="43.22747" lon="5.50399">
        <ele>259.6</ele>
        <time>2025-10-19T14:26:47Z</time>
      </trkpt>
      <trkpt lat="43.22746" lon="5.504">
        <ele>259.6</ele>
        <time>2025-10-19T14:26:48Z</time>
      </trkpt>
      <trkpt lat="43.22746" lon="5.50402">
        <ele>259.6</ele>
        <time>2025-10-19T14:26:49Z</time>
      </trkpt>
      <trkpt lat="43.22745" lon="5.50403">
        <ele>259.6</ele>
        <time>2025-10-19T14:26:50Z</time>
      </trkpt>
      <trkpt lat="43.22744" lon="5.50404">
        <ele>259.5</ele>
        <time>2025-10-19T14:26:51Z</time>
      </trkpt>
      <trkpt lat="43.22744" lon="5.50405">
        <ele>259.5</ele>
        <time>2025-10-19T14:26:52Z</time>
      </trkpt>
      <trkpt lat="43.22743" lon="5.50407">
        <ele>259.5</ele>
        <time>2025-10-19T14:26:53Z</time>
      </trkpt>
      <trkpt lat="43.22743" lon="5.50408">
        <ele>259.5</ele>
        <time>2025-10-19T14:26:54Z</time>
      </trkpt>
      <trkpt lat="43.22742" lon="5.5041">
        <ele>259.5</ele>
        <time>2025-10-19T14:26:55Z</time>
      </trkpt>
      <trkpt lat="43.22742" lon="5.50411">
        <ele>259.5</ele>
        <time>2025-10-19T14:26:56Z</time>
      </trkpt>
      <trkpt lat="43.22742" lon="5.50413">
        <ele>259.5</ele>
        <time>2025-10-19T14:26:57Z</time>
      </trkpt>
      <trkpt lat="43.22742" lon="5.50414">
        <ele>259.5</ele>
        <time>2025-10-19T14:26:58Z</time>
      </trkpt>
      <trkpt lat="43.22742" lon="5.50416">
        <ele>259.5</ele>
        <time>2025-10-19T14:26:59Z</time>
      </trkpt>
      <trkpt lat="43.22743" lon="5.50417">
        <ele>259.5</ele>
        <time>2025-10-19T14:27:00Z</time>
      </trkpt>
      <trkpt lat="43.22743" lon="5.50419">
        <ele>259.6</ele>
        <time>2025-10-19T14:27:01Z</time>
      </trkpt>
      <trkpt lat="43.22743" lon="5.5042">
        <ele>259.6</ele>
        <time>2025-10-19T14:27:02Z</time>
      </trkpt>
      <trkpt lat="43.22743" lon="5.50421">
        <ele>259.5</ele>
        <time>2025-10-19T14:27:03Z</time>
      </trkpt>
      <trkpt lat="43.22743" lon="5.50423">
        <ele>259.5</ele>
        <time>2025-10-19T14:27:04Z</time>
      </trkpt>
      <trkpt lat="43.22743" lon="5.50424">
        <ele>259.4</ele>
        <time>2025-10-19T14:27:05Z</time>
      </trkpt>
      <trkpt lat="43.22743" lon="5.50425">
        <ele>259.4</ele>
        <time>2025-10-19T14:27:06Z</time>
      </trkpt>
      <trkpt lat="43.22743" lon="5.50426">
        <ele>259.4</ele>
        <time>2025-10-19T14:27:07Z</time>
      </trkpt>
      <trkpt lat="43.22743" lon="5.50426">
        <ele>259.4</ele>
        <time>2025-10-19T14:27:08Z</time>
      </trkpt>
      <trkpt lat="43.22742" lon="5.50427">
        <ele>259.4</ele>
        <time>2025-10-19T14:27:09Z</time>
      </trkpt>
      <trkpt lat="43.22743" lon="5.50428">
        <ele>259.4</ele>
        <time>2025-10-19T14:27:10Z</time>
      </trkpt>
      <trkpt lat="43.22743" lon="5.50429">
        <ele>259.4</ele>
        <time>2025-10-19T14:27:11Z</time>
      </trkpt>
      <trkpt lat="43.22743" lon="5.50429">
        <ele>259.4</ele>
        <time>2025-10-19T14:27:12Z</time>
      </trkpt>
      <trkpt lat="43.22743" lon="5.50429">
        <ele>259.4</ele>
        <time>2025-10-19T14:27:13Z</time>
      </trkpt>
      <trkpt lat="43.22743" lon="5.5043">
        <ele>259.4</ele>
        <time>2025-10-19T14:27:14Z</time>
      </trkpt>
      <trkpt lat="43.22743" lon="5.5043">
        <ele>259.4</ele>
        <time>2025-10-19T14:27:15Z</time>
      </trkpt>
      <trkpt lat="43.22743" lon="5.50431">
        <ele>259.5</ele>
        <time>2025-10-19T14:27:16Z</time>
      </trkpt>
      <trkpt lat="43.22744" lon="5.50431">
        <ele>259.5</ele>
        <time>2025-10-19T14:27:17Z</time>
      </trkpt>
      <trkpt lat="43.22744" lon="5.50431">
        <ele>259.5</ele>
        <time>2025-10-19T14:27:18Z</time>
      </trkpt>
      <trkpt lat="43.22744" lon="5.50431">
        <ele>259.5</ele>
        <time>2025-10-19T14:27:19Z</time>
      </trkpt>
      <trkpt lat="43.22745" lon="5.50432">
        <ele>259.4</ele>
        <time>2025-10-19T14:27:20Z</time>
      </trkpt>
      <trkpt lat="43.22745" lon="5.50432">
        <ele>259.5</ele>
        <time>2025-10-19T14:27:21Z</time>
      </trkpt>
      <trkpt lat="43.22746" lon="5.50433">
        <ele>259.4</ele>
        <time>2025-10-19T14:27:22Z</time>
      </trkpt>
      <trkpt lat="43.22746" lon="5.50433">
        <ele>259.4</ele>
        <time>2025-10-19T14:27:23Z</time>
      </trkpt>
      <trkpt lat="43.22746" lon="5.50434">
        <ele>259.4</ele>
        <time>2025-10-19T14:27:24Z</time>
      </trkpt>
      <trkpt lat="43.22747" lon="5.50434">
        <ele>259.3</ele>
        <time>2025-10-19T14:27:25Z</time>
      </trkpt>
      <trkpt lat="43.22747" lon="5.50435">
        <ele>259.3</ele>
        <time>2025-10-19T14:27:26Z</time>
      </trkpt>
      <trkpt lat="43.22747" lon="5.50436">
        <ele>259.2</ele>
        <time>2025-10-19T14:27:27Z</time>
      </trkpt>
      <trkpt lat="43.22747" lon="5.50436">
        <ele>259.2</ele>
        <time>2025-10-19T14:27:28Z</time>
      </trkpt>
      <trkpt lat="43.22747" lon="5.50436">
        <ele>259.2</ele>
        <time>2025-10-19T14:27:29Z</time>
      </trkpt>
      <trkpt lat="43.22747" lon="5.50436">
        <ele>259.1</ele>
        <time>2025-10-19T14:27:30Z</time>
      </trkpt>
      <trkpt lat="43.22747" lon="5.50436">
        <ele>259.1</ele>
        <time>2025-10-19T14:27:31Z</time>
      </trkpt>
      <trkpt lat="43.22747" lon="5.50436">
        <ele>259</ele>
        <time>2025-10-19T14:27:32Z</time>
      </trkpt>
      <trkpt lat="43.22747" lon="5.50436">
        <ele>258.9</ele>
        <time>2025-10-19T14:27:33Z</time>
      </trkpt>
      <trkpt lat="43.22748" lon="5.50437">
        <ele>258.9</ele>
        <time>2025-10-19T14:27:34Z</time>
      </trkpt>
      <trkpt lat="43.22748" lon="5.50437">
        <ele>258.9</ele>
        <time>2025-10-19T14:27:35Z</time>
      </trkpt>
      <trkpt lat="43.22748" lon="5.50437">
        <ele>258.9</ele>
        <time>2025-10-19T14:27:36Z</time>
      </trkpt>
      <trkpt lat="43.22748" lon="5.50437">
        <ele>258.9</ele>
        <time>2025-10-19T14:27:37Z</time>
      </trkpt>
      <trkpt lat="43.22749" lon="5.50437">
        <ele>259</ele>
        <time>2025-10-19T14:27:38Z</time>
      </trkpt>
      <trkpt lat="43.22749" lon="5.50437">
        <ele>259</ele>
        <time>2025-10-19T14:27:39Z</time>
      </trkpt>
      <trkpt lat="43.22749" lon="5.50437">
        <ele>259</ele>
        <time>2025-10-19T14:27:40Z</time>
      </trkpt>
      <trkpt lat="43.22749" lon="5.50437">
        <ele>258.9</ele>
        <time>2025-10-19T14:27:41Z</time>
      </trkpt>
      <trkpt lat="43.22749" lon="5.50437">
        <ele>258.9</ele>
        <time>2025-10-19T14:27:42Z</time>
      </trkpt>
      <trkpt lat="43.2275" lon="5.50438">
        <ele>258.8</ele>
        <time>2025-10-19T14:27:43Z</time>
      </trkpt>
      <trkpt lat="43.2275" lon="5.50438">
        <ele>258.7</ele>
        <time>2025-10-19T14:27:44Z</time>
      </trkpt>
      <trkpt lat="43.2275" lon="5.50438">
        <ele>258.7</ele>
        <time>2025-10-19T14:27:45Z</time>
      </trkpt>
      <trkpt lat="43.2275" lon="5.50438">
        <ele>258.7</ele>
        <time>2025-10-19T14:27:46Z</time>
      </trkpt>
      <trkpt lat="43.2275" lon="5.50438">
        <ele>258.7</ele>
        <time>2025-10-19T14:27:47Z</time>
      </trkpt>
      <trkpt lat="43.22751" lon="5.50439">
        <ele>258.6</ele>
        <time>2025-10-19T14:27:48Z</time>
      </trkpt>
      <trkpt lat="43.22751" lon="5.5044">
        <ele>258.5</ele>
        <time>2025-10-19T14:27:49Z</time>
      </trkpt>
      <trkpt lat="43.22751" lon="5.50441">
        <ele>258.5</ele>
        <time>2025-10-19T14:27:50Z</time>
      </trkpt>
      <trkpt lat="43.22752" lon="5.50442">
        <ele>258.4</ele>
        <time>2025-10-19T14:27:51Z</time>
      </trkpt>
      <trkpt lat="43.22753" lon="5.50442">
        <ele>258.3</ele>
        <time>2025-10-19T14:27:52Z</time>
      </trkpt>
      <trkpt lat="43.22753" lon="5.50442">
        <ele>258.2</ele>
        <time>2025-10-19T14:27:53Z</time>
      </trkpt>
      <trkpt lat="43.22754" lon="5.50442">
        <ele>258.1</ele>
        <time>2025-10-19T14:27:54Z</time>
      </trkpt>
      <trkpt lat="43.22755" lon="5.50442">
        <ele>258.1</ele>
        <time>2025-10-19T14:27:55Z</time>
      </trkpt>
      <trkpt lat="43.22755" lon="5.50443">
        <ele>258.1</ele>
        <time>2025-10-19T14:27:56Z</time>
      </trkpt>
      <trkpt lat="43.22756" lon="5.50443">
        <ele>258</ele>
        <time>2025-10-19T14:27:57Z</time>
      </trkpt>
      <trkpt lat="43.22757" lon="5.50443">
        <ele>257.9</ele>
        <time>2025-10-19T14:27:58Z</time>
      </trkpt>
      <trkpt lat="43.22757" lon="5.50443">
        <ele>257.9</ele>
        <time>2025-10-19T14:27:59Z</time>
      </trkpt>
      <trkpt lat="43.22758" lon="5.50444">
        <ele>257.8</ele>
        <time>2025-10-19T14:28:00Z</time>
      </trkpt>
      <trkpt lat="43.22759" lon="5.50444">
        <ele>257.8</ele>
        <time>2025-10-19T14:28:01Z</time>
      </trkpt>
      <trkpt lat="43.22759" lon="5.50444">
        <ele>257.7</ele>
        <time>2025-10-19T14:28:02Z</time>
      </trkpt>
      <trkpt lat="43.2276" lon="5.50444">
        <ele>257.7</ele>
        <time>2025-10-19T14:28:03Z</time>
      </trkpt>
      <trkpt lat="43.22761" lon="5.50445">
        <ele>257.6</ele>
        <time>2025-10-19T14:28:04Z</time>
      </trkpt>
      <trkpt lat="43.22762" lon="5.50445">
        <ele>257.5</ele>
        <time>2025-10-19T14:28:05Z</time>
      </trkpt>
      <trkpt lat="43.22762" lon="5.50446">
        <ele>257.4</ele>
        <time>2025-10-19T14:28:06Z</time>
      </trkpt>
      <trkpt lat="43.22763" lon="5.50446">
        <ele>257.2</ele>
        <time>2025-10-19T14:28:07Z</time>
      </trkpt>
      <trkpt lat="43.22764" lon="5.50446">
        <ele>257.1</ele>
        <time>2025-10-19T14:28:08Z</time>
      </trkpt>
      <trkpt lat="43.22765" lon="5.50446">
        <ele>256.9</ele>
        <time>2025-10-19T14:28:09Z</time>
      </trkpt>
      <trkpt lat="43.22766" lon="5.50446">
        <ele>256.7</ele>
        <time>2025-10-19T14:28:10Z</time>
      </trkpt>
      <trkpt lat="43.22767" lon="5.50446">
        <ele>256.6</ele>
        <time>2025-10-19T14:28:11Z</time>
      </trkpt>
      <trkpt lat="43.22767" lon="5.50446">
        <ele>256.5</ele>
        <time>2025-10-19T14:28:12Z</time>
      </trkpt>
      <trkpt lat="43.22768" lon="5.50446">
        <ele>256.4</ele>
        <time>2025-10-19T14:28:13Z</time>
      </trkpt>
      <trkpt lat="43.22768" lon="5.50446">
        <ele>256.2</ele>
        <time>2025-10-19T14:28:14Z</time>
      </trkpt>
      <trkpt lat="43.22769" lon="5.50445">
        <ele>256.1</ele>
        <time>2025-10-19T14:28:15Z</time>
      </trkpt>
      <trkpt lat="43.22769" lon="5.50445">
        <ele>256</ele>
        <time>2025-10-19T14:28:16Z</time>
      </trkpt>
      <trkpt lat="43.2277" lon="5.50445">
        <ele>255.9</ele>
        <time>2025-10-19T14:28:17Z</time>
      </trkpt>
      <trkpt lat="43.22771" lon="5.50445">
        <ele>255.7</ele>
        <time>2025-10-19T14:28:18Z</time>
      </trkpt>
      <trkpt lat="43.22771" lon="5.50445">
        <ele>255.5</ele>
        <time>2025-10-19T14:28:19Z</time>
      </trkpt>
      <trkpt lat="43.22772" lon="5.50445">
        <ele>255.4</ele>
        <time>2025-10-19T14:28:20Z</time>
      </trkpt>
      <trkpt lat="43.22773" lon="5.50444">
        <ele>255.2</ele>
        <time>2025-10-19T14:28:21Z</time>
      </trkpt>
      <trkpt lat="43.22774" lon="5.50444">
        <ele>255</ele>
        <time>2025-10-19T14:28:22Z</time>
      </trkpt>
      <trkpt lat="43.22774" lon="5.50443">
        <ele>254.8</ele>
        <time>2025-10-19T14:28:23Z</time>
      </trkpt>
      <trkpt lat="43.22775" lon="5.50443">
        <ele>254.7</ele>
        <time>2025-10-19T14:28:24Z</time>
      </trkpt>
      <trkpt lat="43.22776" lon="5.50443">
        <ele>254.7</ele>
        <time>2025-10-19T14:28:25Z</time>
      </trkpt>
      <trkpt lat="43.22777" lon="5.50443">
        <ele>254.6</ele>
        <time>2025-10-19T14:28:26Z</time>
      </trkpt>
      <trkpt lat="43.22777" lon="5.50442">
        <ele>254.5</ele>
        <time>2025-10-19T14:28:27Z</time>
      </trkpt>
      <trkpt lat="43.22778" lon="5.50442">
        <ele>254.5</ele>
        <time>2025-10-19T14:28:28Z</time>
      </trkpt>
      <trkpt lat="43.22779" lon="5.50441">
        <ele>254.3</ele>
        <time>2025-10-19T14:28:29Z</time>
      </trkpt>
      <trkpt lat="43.22779" lon="5.5044">
        <ele>254.1</ele>
        <time>2025-10-19T14:28:30Z</time>
      </trkpt>
      <trkpt lat="43.2278" lon="5.50439">
        <ele>254.1</ele>
        <time>2025-10-19T14:28:31Z</time>
      </trkpt>
      <trkpt lat="43.22781" lon="5.50439">
        <ele>253.9</ele>
        <time>2025-10-19T14:28:32Z</time>
      </trkpt>
      <trkpt lat="43.22782" lon="5.50439">
        <ele>253.8</ele>
        <time>2025-10-19T14:28:33Z</time>
      </trkpt>
      <trkpt lat="43.22782" lon="5.50438">
        <ele>253.7</ele>
        <time>2025-10-19T14:28:34Z</time>
      </trkpt>
      <trkpt lat="43.22783" lon="5.50439">
        <ele>253.6</ele>
        <time>2025-10-19T14:28:35Z</time>
      </trkpt>
      <trkpt lat="43.22784" lon="5.50438">
        <ele>253.5</ele>
        <time>2025-10-19T14:28:36Z</time>
      </trkpt>
      <trkpt lat="43.22785" lon="5.50438">
        <ele>253.5</ele>
        <time>2025-10-19T14:28:37Z</time>
      </trkpt>
      <trkpt lat="43.22785" lon="5.50437">
        <ele>253.3</ele>
        <time>2025-10-19T14:28:38Z</time>
      </trkpt>
      <trkpt lat="43.22786" lon="5.50437">
        <ele>253.3</ele>
        <time>2025-10-19T14:28:39Z</time>
      </trkpt>
      <trkpt lat="43.22787" lon="5.50436">
        <ele>253.2</ele>
        <time>2025-10-19T14:28:40Z</time>
      </trkpt>
      <trkpt lat="43.22788" lon="5.50436">
        <ele>253.2</ele>
        <time>2025-10-19T14:28:41Z</time>
      </trkpt>
      <trkpt lat="43.22788" lon="5.50435">
        <ele>253.3</ele>
        <time>2025-10-19T14:28:42Z</time>
      </trkpt>
      <trkpt lat="43.22789" lon="5.50435">
        <ele>253.1</ele>
        <time>2025-10-19T14:28:43Z</time>
      </trkpt>
      <trkpt lat="43.2279" lon="5.50434">
        <ele>253</ele>
        <time>2025-10-19T14:28:44Z</time>
      </trkpt>
      <trkpt lat="43.22791" lon="5.50434">
        <ele>252.9</ele>
        <time>2025-10-19T14:28:45Z</time>
      </trkpt>
      <trkpt lat="43.22792" lon="5.50434">
        <ele>252.9</ele>
        <time>2025-10-19T14:28:46Z</time>
      </trkpt>
      <trkpt lat="43.22792" lon="5.50434">
        <ele>252.8</ele>
        <time>2025-10-19T14:28:47Z</time>
      </trkpt>
      <trkpt lat="43.22793" lon="5.50434">
        <ele>252.9</ele>
        <time>2025-10-19T14:28:48Z</time>
      </trkpt>
      <trkpt lat="43.22794" lon="5.50433">
        <ele>252.9</ele>
        <time>2025-10-19T14:28:49Z</time>
      </trkpt>
      <trkpt lat="43.22794" lon="5.50433">
        <ele>252.8</ele>
        <time>2025-10-19T14:28:50Z</time>
      </trkpt>
      <trkpt lat="43.22795" lon="5.50433">
        <ele>252.7</ele>
        <time>2025-10-19T14:28:51Z</time>
      </trkpt>
      <trkpt lat="43.22796" lon="5.50433">
        <ele>252.5</ele>
        <time>2025-10-19T14:28:52Z</time>
      </trkpt>
      <trkpt lat="43.22796" lon="5.50433">
        <ele>252.5</ele>
        <time>2025-10-19T14:28:53Z</time>
      </trkpt>
      <trkpt lat="43.22797" lon="5.50433">
        <ele>252.4</ele>
        <time>2025-10-19T14:28:54Z</time>
      </trkpt>
      <trkpt lat="43.22798" lon="5.50433">
        <ele>252.3</ele>
        <time>2025-10-19T14:28:55Z</time>
      </trkpt>
      <trkpt lat="43.22798" lon="5.50433">
        <ele>252.2</ele>
        <time>2025-10-19T14:28:56Z</time>
      </trkpt>
      <trkpt lat="43.22799" lon="5.50433">
        <ele>252.1</ele>
        <time>2025-10-19T14:28:57Z</time>
      </trkpt>
      <trkpt lat="43.228" lon="5.50432">
        <ele>252</ele>
        <time>2025-10-19T14:28:58Z</time>
      </trkpt>
      <trkpt lat="43.22801" lon="5.50432">
        <ele>251.8</ele>
        <time>2025-10-19T14:28:59Z</time>
      </trkpt>
      <trkpt lat="43.22802" lon="5.50432">
        <ele>251.6</ele>
        <time>2025-10-19T14:29:00Z</time>
      </trkpt>
      <trkpt lat="43.22802" lon="5.50431">
        <ele>251.5</ele>
        <time>2025-10-19T14:29:01Z</time>
      </trkpt>
      <trkpt lat="43.22803" lon="5.50431">
        <ele>251.4</ele>
        <time>2025-10-19T14:29:02Z</time>
      </trkpt>
      <trkpt lat="43.22803" lon="5.5043">
        <ele>251.3</ele>
        <time>2025-10-19T14:29:03Z</time>
      </trkpt>
      <trkpt lat="43.22804" lon="5.5043">
        <ele>251.2</ele>
        <time>2025-10-19T14:29:04Z</time>
      </trkpt>
      <trkpt lat="43.22804" lon="5.5043">
        <ele>251.2</ele>
        <time>2025-10-19T14:29:05Z</time>
      </trkpt>
      <trkpt lat="43.22805" lon="5.50429">
        <ele>251.1</ele>
        <time>2025-10-19T14:29:06Z</time>
      </trkpt>
      <trkpt lat="43.22805" lon="5.50429">
        <ele>251.1</ele>
        <time>2025-10-19T14:29:07Z</time>
      </trkpt>
      <trkpt lat="43.22806" lon="5.50428">
        <ele>251</ele>
        <time>2025-10-19T14:29:08Z</time>
      </trkpt>
      <trkpt lat="43.22807" lon="5.50428">
        <ele>250.9</ele>
        <time>2025-10-19T14:29:09Z</time>
      </trkpt>
      <trkpt lat="43.22807" lon="5.50428">
        <ele>250.9</ele>
        <time>2025-10-19T14:29:10Z</time>
      </trkpt>
      <trkpt lat="43.22808" lon="5.50428">
        <ele>250.8</ele>
        <time>2025-10-19T14:29:11Z</time>
      </trkpt>
      <trkpt lat="43.22809" lon="5.50428">
        <ele>250.6</ele>
        <time>2025-10-19T14:29:12Z</time>
      </trkpt>
      <trkpt lat="43.22809" lon="5.50428">
        <ele>250.6</ele>
        <time>2025-10-19T14:29:13Z</time>
      </trkpt>
      <trkpt lat="43.22809" lon="5.50429">
        <ele>250.4</ele>
        <time>2025-10-19T14:29:14Z</time>
      </trkpt>
      <trkpt lat="43.2281" lon="5.50429">
        <ele>250.2</ele>
        <time>2025-10-19T14:29:15Z</time>
      </trkpt>
      <trkpt lat="43.2281" lon="5.50429">
        <ele>250.1</ele>
        <time>2025-10-19T14:29:16Z</time>
      </trkpt>
      <trkpt lat="43.22811" lon="5.50429">
        <ele>250</ele>
        <time>2025-10-19T14:29:17Z</time>
      </trkpt>
      <trkpt lat="43.22812" lon="5.50429">
        <ele>249.9</ele>
        <time>2025-10-19T14:29:18Z</time>
      </trkpt>
      <trkpt lat="43.22812" lon="5.50428">
        <ele>249.5</ele>
        <time>2025-10-19T14:29:19Z</time>
      </trkpt>
      <trkpt lat="43.22813" lon="5.50428">
        <ele>249.4</ele>
        <time>2025-10-19T14:29:20Z</time>
      </trkpt>
      <trkpt lat="43.22813" lon="5.50428">
        <ele>249.3</ele>
        <time>2025-10-19T14:29:21Z</time>
      </trkpt>
      <trkpt lat="43.22813" lon="5.50428">
        <ele>249.3</ele>
        <time>2025-10-19T14:29:22Z</time>
      </trkpt>
      <trkpt lat="43.22814" lon="5.50427">
        <ele>249.2</ele>
        <time>2025-10-19T14:29:23Z</time>
      </trkpt>
      <trkpt lat="43.22814" lon="5.50427">
        <ele>249.1</ele>
        <time>2025-10-19T14:29:24Z</time>
      </trkpt>
      <trkpt lat="43.22815" lon="5.50426">
        <ele>249</ele>
        <time>2025-10-19T14:29:25Z</time>
      </trkpt>
      <trkpt lat="43.22816" lon="5.50425">
        <ele>249</ele>
        <time>2025-10-19T14:29:26Z</time>
      </trkpt>
      <trkpt lat="43.22816" lon="5.50425">
        <ele>248.9</ele>
        <time>2025-10-19T14:29:27Z</time>
      </trkpt>
      <trkpt lat="43.22817" lon="5.50424">
        <ele>248.9</ele>
        <time>2025-10-19T14:29:28Z</time>
      </trkpt>
      <trkpt lat="43.22818" lon="5.50424">
        <ele>248.8</ele>
        <time>2025-10-19T14:29:29Z</time>
      </trkpt>
      <trkpt lat="43.22819" lon="5.50423">
        <ele>248.8</ele>
        <time>2025-10-19T14:29:30Z</time>
      </trkpt>
      <trkpt lat="43.22819" lon="5.50422">
        <ele>248.7</ele>
        <time>2025-10-19T14:29:31Z</time>
      </trkpt>
      <trkpt lat="43.2282" lon="5.50422">
        <ele>248.6</ele>
        <time>2025-10-19T14:29:32Z</time>
      </trkpt>
      <trkpt lat="43.2282" lon="5.50421">
        <ele>248.5</ele>
        <time>2025-10-19T14:29:33Z</time>
      </trkpt>
      <trkpt lat="43.2282" lon="5.50421">
        <ele>248.4</ele>
        <time>2025-10-19T14:29:34Z</time>
      </trkpt>
      <trkpt lat="43.2282" lon="5.5042">
        <ele>248.4</ele>
        <time>2025-10-19T14:29:35Z</time>
      </trkpt>
      <trkpt lat="43.2282" lon="5.5042">
        <ele>248.3</ele>
        <time>2025-10-19T14:29:36Z</time>
      </trkpt>
      <trkpt lat="43.2282" lon="5.5042">
        <ele>248.3</ele>
        <time>2025-10-19T14:29:37Z</time>
      </trkpt>
      <trkpt lat="43.22819" lon="5.5042">
        <ele>248.3</ele>
        <time>2025-10-19T14:29:38Z</time>
      </trkpt>
      <trkpt lat="43.22819" lon="5.50419">
        <ele>248.3</ele>
        <time>2025-10-19T14:29:39Z</time>
      </trkpt>
      <trkpt lat="43.2282" lon="5.5042">
        <ele>248.3</ele>
        <time>2025-10-19T14:29:40Z</time>
      </trkpt>
      <trkpt lat="43.2282" lon="5.5042">
        <ele>248.4</ele>
        <time>2025-10-19T14:29:41Z</time>
      </trkpt>
      <trkpt lat="43.22819" lon="5.5042">
        <ele>248.4</ele>
        <time>2025-10-19T14:29:42Z</time>
      </trkpt>
      <trkpt lat="43.2282" lon="5.50419">
        <ele>248.4</ele>
        <time>2025-10-19T14:29:43Z</time>
      </trkpt>
      <trkpt lat="43.2282" lon="5.5042">
        <ele>248.3</ele>
        <time>2025-10-19T14:29:44Z</time>
      </trkpt>
      <trkpt lat="43.22821" lon="5.5042">
        <ele>248.3</ele>
        <time>2025-10-19T14:29:45Z</time>
      </trkpt>
      <trkpt lat="43.22821" lon="5.50419">
        <ele>248.3</ele>
        <time>2025-10-19T14:29:46Z</time>
      </trkpt>
      <trkpt lat="43.22822" lon="5.50419">
        <ele>248.3</ele>
        <time>2025-10-19T14:29:47Z</time>
      </trkpt>
      <trkpt lat="43.22823" lon="5.50419">
        <ele>248.3</ele>
        <time>2025-10-19T14:29:48Z</time>
      </trkpt>
      <trkpt lat="43.22823" lon="5.50418">
        <ele>248.3</ele>
        <time>2025-10-19T14:29:49Z</time>
      </trkpt>
      <trkpt lat="43.22824" lon="5.50418">
        <ele>248.3</ele>
        <time>2025-10-19T14:29:50Z</time>
      </trkpt>
      <trkpt lat="43.22825" lon="5.50418">
        <ele>248.2</ele>
        <time>2025-10-19T14:29:51Z</time>
      </trkpt>
      <trkpt lat="43.22826" lon="5.50417">
        <ele>248.1</ele>
        <time>2025-10-19T14:29:52Z</time>
      </trkpt>
      <trkpt lat="43.22827" lon="5.50417">
        <ele>248</ele>
        <time>2025-10-19T14:29:53Z</time>
      </trkpt>
      <trkpt lat="43.22828" lon="5.50416">
        <ele>247.8</ele>
        <time>2025-10-19T14:29:54Z</time>
      </trkpt>
      <trkpt lat="43.22829" lon="5.50415">
        <ele>247.7</ele>
        <time>2025-10-19T14:29:55Z</time>
      </trkpt>
      <trkpt lat="43.2283" lon="5.50415">
        <ele>247.5</ele>
        <time>2025-10-19T14:29:56Z</time>
      </trkpt>
      <trkpt lat="43.2283" lon="5.50415">
        <ele>247.3</ele>
        <time>2025-10-19T14:29:57Z</time>
      </trkpt>
      <trkpt lat="43.22831" lon="5.50413">
        <ele>247.2</ele>
        <time>2025-10-19T14:29:58Z</time>
      </trkpt>
      <trkpt lat="43.22832" lon="5.50412">
        <ele>247.1</ele>
        <time>2025-10-19T14:29:59Z</time>
      </trkpt>
      <trkpt lat="43.22832" lon="5.50411">
        <ele>247.1</ele>
        <time>2025-10-19T14:30:00Z</time>
      </trkpt>
      <trkpt lat="43.22833" lon="5.5041">
        <ele>247</ele>
        <time>2025-10-19T14:30:01Z</time>
      </trkpt>
      <trkpt lat="43.22834" lon="5.5041">
        <ele>247</ele>
        <time>2025-10-19T14:30:02Z</time>
      </trkpt>
      <trkpt lat="43.22835" lon="5.50409">
        <ele>246.9</ele>
        <time>2025-10-19T14:30:03Z</time>
      </trkpt>
      <trkpt lat="43.22835" lon="5.50408">
        <ele>246.8</ele>
        <time>2025-10-19T14:30:04Z</time>
      </trkpt>
      <trkpt lat="43.22836" lon="5.50408">
        <ele>246.7</ele>
        <time>2025-10-19T14:30:05Z</time>
      </trkpt>
      <trkpt lat="43.22837" lon="5.50407">
        <ele>246.5</ele>
        <time>2025-10-19T14:30:06Z</time>
      </trkpt>
      <trkpt lat="43.22838" lon="5.50406">
        <ele>246.3</ele>
        <time>2025-10-19T14:30:07Z</time>
      </trkpt>
      <trkpt lat="43.22838" lon="5.50406">
        <ele>246.2</ele>
        <time>2025-10-19T14:30:08Z</time>
      </trkpt>
      <trkpt lat="43.22839" lon="5.50405">
        <ele>246.1</ele>
        <time>2025-10-19T14:30:09Z</time>
      </trkpt>
      <trkpt lat="43.2284" lon="5.50405">
        <ele>246</ele>
        <time>2025-10-19T14:30:10Z</time>
      </trkpt>
      <trkpt lat="43.2284" lon="5.50404">
        <ele>246</ele>
        <time>2025-10-19T14:30:11Z</time>
      </trkpt>
      <trkpt lat="43.22841" lon="5.50404">
        <ele>246</ele>
        <time>2025-10-19T14:30:12Z</time>
      </trkpt>
      <trkpt lat="43.22841" lon="5.50403">
        <ele>246</ele>
        <time>2025-10-19T14:30:13Z</time>
      </trkpt>
      <trkpt lat="43.22842" lon="5.50402">
        <ele>245.9</ele>
        <time>2025-10-19T14:30:14Z</time>
      </trkpt>
      <trkpt lat="43.22842" lon="5.50401">
        <ele>245.8</ele>
        <time>2025-10-19T14:30:15Z</time>
      </trkpt>
      <trkpt lat="43.22843" lon="5.504">
        <ele>245.7</ele>
        <time>2025-10-19T14:30:16Z</time>
      </trkpt>
      <trkpt lat="43.22843" lon="5.504">
        <ele>245.5</ele>
        <time>2025-10-19T14:30:17Z</time>
      </trkpt>
      <trkpt lat="43.22844" lon="5.50399">
        <ele>245.5</ele>
        <time>2025-10-19T14:30:18Z</time>
      </trkpt>
      <trkpt lat="43.22844" lon="5.50398">
        <ele>245.4</ele>
        <time>2025-10-19T14:30:19Z</time>
      </trkpt>
      <trkpt lat="43.22845" lon="5.50397">
        <ele>245.3</ele>
        <time>2025-10-19T14:30:20Z</time>
      </trkpt>
      <trkpt lat="43.22846" lon="5.50397">
        <ele>245.3</ele>
        <time>2025-10-19T14:30:21Z</time>
      </trkpt>
      <trkpt lat="43.22847" lon="5.50396">
        <ele>245.3</ele>
        <time>2025-10-19T14:30:22Z</time>
      </trkpt>
      <trkpt lat="43.22848" lon="5.50396">
        <ele>245.2</ele>
        <time>2025-10-19T14:30:23Z</time>
      </trkpt>
      <trkpt lat="43.22848" lon="5.50395">
        <ele>245.1</ele>
        <time>2025-10-19T14:30:24Z</time>
      </trkpt>
      <trkpt lat="43.22849" lon="5.50395">
        <ele>245</ele>
        <time>2025-10-19T14:30:25Z</time>
      </trkpt>
      <trkpt lat="43.22849" lon="5.50394">
        <ele>244.9</ele>
        <time>2025-10-19T14:30:26Z</time>
      </trkpt>
      <trkpt lat="43.2285" lon="5.50394">
        <ele>244.8</ele>
        <time>2025-10-19T14:30:27Z</time>
      </trkpt>
      <trkpt lat="43.22851" lon="5.50394">
        <ele>244.7</ele>
        <time>2025-10-19T14:30:28Z</time>
      </trkpt>
      <trkpt lat="43.22852" lon="5.50393">
        <ele>244.5</ele>
        <time>2025-10-19T14:30:29Z</time>
      </trkpt>
      <trkpt lat="43.22852" lon="5.50392">
        <ele>244.4</ele>
        <time>2025-10-19T14:30:30Z</time>
      </trkpt>
      <trkpt lat="43.22852" lon="5.50392">
        <ele>244.2</ele>
        <time>2025-10-19T14:30:31Z</time>
      </trkpt>
      <trkpt lat="43.22853" lon="5.50391">
        <ele>244.1</ele>
        <time>2025-10-19T14:30:32Z</time>
      </trkpt>
      <trkpt lat="43.22854" lon="5.50391">
        <ele>243.9</ele>
        <time>2025-10-19T14:30:33Z</time>
      </trkpt>
      <trkpt lat="43.22854" lon="5.5039">
        <ele>243.7</ele>
        <time>2025-10-19T14:30:34Z</time>
      </trkpt>
      <trkpt lat="43.22855" lon="5.50389">
        <ele>243.7</ele>
        <time>2025-10-19T14:30:35Z</time>
      </trkpt>
      <trkpt lat="43.22856" lon="5.50389">
        <ele>243.7</ele>
        <time>2025-10-19T14:30:36Z</time>
      </trkpt>
      <trkpt lat="43.22856" lon="5.50388">
        <ele>243.6</ele>
        <time>2025-10-19T14:30:37Z</time>
      </trkpt>
      <trkpt lat="43.22857" lon="5.50387">
        <ele>243.5</ele>
        <time>2025-10-19T14:30:38Z</time>
      </trkpt>
      <trkpt lat="43.22858" lon="5.50386">
        <ele>243.4</ele>
        <time>2025-10-19T14:30:39Z</time>
      </trkpt>
      <trkpt lat="43.22859" lon="5.50386">
        <ele>243.4</ele>
        <time>2025-10-19T14:30:40Z</time>
      </trkpt>
      <trkpt lat="43.2286" lon="5.50385">
        <ele>243.3</ele>
        <time>2025-10-19T14:30:41Z</time>
      </trkpt>
      <trkpt lat="43.22861" lon="5.50385">
        <ele>243.3</ele>
        <time>2025-10-19T14:30:42Z</time>
      </trkpt>
      <trkpt lat="43.22862" lon="5.50384">
        <ele>243.1</ele>
        <time>2025-10-19T14:30:43Z</time>
      </trkpt>
      <trkpt lat="43.22863" lon="5.50383">
        <ele>243.1</ele>
        <time>2025-10-19T14:30:44Z</time>
      </trkpt>
      <trkpt lat="43.22863" lon="5.50382">
        <ele>242.9</ele>
        <time>2025-10-19T14:30:45Z</time>
      </trkpt>
      <trkpt lat="43.22864" lon="5.50381">
        <ele>242.7</ele>
        <time>2025-10-19T14:30:46Z</time>
      </trkpt>
      <trkpt lat="43.22864" lon="5.5038">
        <ele>242.6</ele>
        <time>2025-10-19T14:30:47Z</time>
      </trkpt>
      <trkpt lat="43.22865" lon="5.50379">
        <ele>242.5</ele>
        <time>2025-10-19T14:30:48Z</time>
      </trkpt>
      <trkpt lat="43.22866" lon="5.50378">
        <ele>242.4</ele>
        <time>2025-10-19T14:30:49Z</time>
      </trkpt>
      <trkpt lat="43.22866" lon="5.50377">
        <ele>242.3</ele>
        <time>2025-10-19T14:30:50Z</time>
      </trkpt>
      <trkpt lat="43.22867" lon="5.50376">
        <ele>242.3</ele>
        <time>2025-10-19T14:30:51Z</time>
      </trkpt>
      <trkpt lat="43.22868" lon="5.50376">
        <ele>242.3</ele>
        <time>2025-10-19T14:30:52Z</time>
      </trkpt>
      <trkpt lat="43.22868" lon="5.50375">
        <ele>242.2</ele>
        <time>2025-10-19T14:30:53Z</time>
      </trkpt>
      <trkpt lat="43.22869" lon="5.50375">
        <ele>242.1</ele>
        <time>2025-10-19T14:30:54Z</time>
      </trkpt>
      <trkpt lat="43.22869" lon="5.50374">
        <ele>242</ele>
        <time>2025-10-19T14:30:55Z</time>
      </trkpt>
      <trkpt lat="43.2287" lon="5.50374">
        <ele>242</ele>
        <time>2025-10-19T14:30:56Z</time>
      </trkpt>
      <trkpt lat="43.22871" lon="5.50374">
        <ele>241.9</ele>
        <time>2025-10-19T14:30:57Z</time>
      </trkpt>
      <trkpt lat="43.22872" lon="5.50373">
        <ele>241.8</ele>
        <time>2025-10-19T14:30:58Z</time>
      </trkpt>
      <trkpt lat="43.22873" lon="5.50372">
        <ele>241.7</ele>
        <time>2025-10-19T14:30:59Z</time>
      </trkpt>
      <trkpt lat="43.22873" lon="5.50371">
        <ele>241.6</ele>
        <time>2025-10-19T14:31:00Z</time>
      </trkpt>
      <trkpt lat="43.22874" lon="5.50369">
        <ele>241.6</ele>
        <time>2025-10-19T14:31:01Z</time>
      </trkpt>
      <trkpt lat="43.22875" lon="5.50368">
        <ele>241.6</ele>
        <time>2025-10-19T14:31:02Z</time>
      </trkpt>
      <trkpt lat="43.22875" lon="5.50367">
        <ele>241.6</ele>
        <time>2025-10-19T14:31:03Z</time>
      </trkpt>
      <trkpt lat="43.22876" lon="5.50366">
        <ele>241.6</ele>
        <time>2025-10-19T14:31:04Z</time>
      </trkpt>
      <trkpt lat="43.22876" lon="5.50365">
        <ele>241.7</ele>
        <time>2025-10-19T14:31:05Z</time>
      </trkpt>
      <trkpt lat="43.22877" lon="5.50364">
        <ele>241.7</ele>
        <time>2025-10-19T14:31:06Z</time>
      </trkpt>
      <trkpt lat="43.22878" lon="5.50363">
        <ele>241.6</ele>
        <time>2025-10-19T14:31:07Z</time>
      </trkpt>
      <trkpt lat="43.22878" lon="5.50361">
        <ele>241.5</ele>
        <time>2025-10-19T14:31:08Z</time>
      </trkpt>
      <trkpt lat="43.22879" lon="5.5036">
        <ele>241.4</ele>
        <time>2025-10-19T14:31:09Z</time>
      </trkpt>
      <trkpt lat="43.2288" lon="5.50359">
        <ele>241.3</ele>
        <time>2025-10-19T14:31:10Z</time>
      </trkpt>
      <trkpt lat="43.2288" lon="5.50359">
        <ele>241.2</ele>
        <time>2025-10-19T14:31:11Z</time>
      </trkpt>
      <trkpt lat="43.22881" lon="5.50358">
        <ele>241.1</ele>
        <time>2025-10-19T14:31:12Z</time>
      </trkpt>
      <trkpt lat="43.22881" lon="5.50357">
        <ele>241.1</ele>
        <time>2025-10-19T14:31:13Z</time>
      </trkpt>
      <trkpt lat="43.22882" lon="5.50356">
        <ele>241</ele>
        <time>2025-10-19T14:31:14Z</time>
      </trkpt>
      <trkpt lat="43.22883" lon="5.50355">
        <ele>240.9</ele>
        <time>2025-10-19T14:31:15Z</time>
      </trkpt>
      <trkpt lat="43.22883" lon="5.50354">
        <ele>240.8</ele>
        <time>2025-10-19T14:31:16Z</time>
      </trkpt>
      <trkpt lat="43.22884" lon="5.50353">
        <ele>240.8</ele>
        <time>2025-10-19T14:31:17Z</time>
      </trkpt>
      <trkpt lat="43.22885" lon="5.50352">
        <ele>240.8</ele>
        <time>2025-10-19T14:31:18Z</time>
      </trkpt>
      <trkpt lat="43.22886" lon="5.50352">
        <ele>240.5</ele>
        <time>2025-10-19T14:31:19Z</time>
      </trkpt>
      <trkpt lat="43.22886" lon="5.50351">
        <ele>240.4</ele>
        <time>2025-10-19T14:31:20Z</time>
      </trkpt>
      <trkpt lat="43.22887" lon="5.5035">
        <ele>240.4</ele>
        <time>2025-10-19T14:31:21Z</time>
      </trkpt>
      <trkpt lat="43.22887" lon="5.50349">
        <ele>240.3</ele>
        <time>2025-10-19T14:31:22Z</time>
      </trkpt>
      <trkpt lat="43.22887" lon="5.50348">
        <ele>240.1</ele>
        <time>2025-10-19T14:31:23Z</time>
      </trkpt>
      <trkpt lat="43.22888" lon="5.50348">
        <ele>240.1</ele>
        <time>2025-10-19T14:31:24Z</time>
      </trkpt>
      <trkpt lat="43.22888" lon="5.50347">
        <ele>240</ele>
        <time>2025-10-19T14:31:25Z</time>
      </trkpt>
      <trkpt lat="43.22889" lon="5.50347">
        <ele>239.8</ele>
        <time>2025-10-19T14:31:26Z</time>
      </trkpt>
      <trkpt lat="43.22889" lon="5.50346">
        <ele>239.7</ele>
        <time>2025-10-19T14:31:27Z</time>
      </trkpt>
      <trkpt lat="43.2289" lon="5.50345">
        <ele>239.6</ele>
        <time>2025-10-19T14:31:28Z</time>
      </trkpt>
      <trkpt lat="43.2289" lon="5.50345">
        <ele>239.5</ele>
        <time>2025-10-19T14:31:29Z</time>
      </trkpt>
      <trkpt lat="43.22891" lon="5.50344">
        <ele>239.5</ele>
        <time>2025-10-19T14:31:30Z</time>
      </trkpt>
      <trkpt lat="43.22891" lon="5.50343">
        <ele>239.3</ele>
        <time>2025-10-19T14:31:31Z</time>
      </trkpt>
      <trkpt lat="43.22892" lon="5.50342">
        <ele>239.3</ele>
        <time>2025-10-19T14:31:32Z</time>
      </trkpt>
      <trkpt lat="43.22892" lon="5.50342">
        <ele>239.2</ele>
        <time>2025-10-19T14:31:33Z</time>
      </trkpt>
      <trkpt lat="43.22893" lon="5.50341">
        <ele>239.1</ele>
        <time>2025-10-19T14:31:34Z</time>
      </trkpt>
      <trkpt lat="43.22894" lon="5.5034">
        <ele>239</ele>
        <time>2025-10-19T14:31:35Z</time>
      </trkpt>
      <trkpt lat="43.22894" lon="5.5034">
        <ele>239</ele>
        <time>2025-10-19T14:31:36Z</time>
      </trkpt>
      <trkpt lat="43.22895" lon="5.50339">
        <ele>238.9</ele>
        <time>2025-10-19T14:31:37Z</time>
      </trkpt>
      <trkpt lat="43.22896" lon="5.50339">
        <ele>238.8</ele>
        <time>2025-10-19T14:31:38Z</time>
      </trkpt>
      <trkpt lat="43.22896" lon="5.50339">
        <ele>238.7</ele>
        <time>2025-10-19T14:31:39Z</time>
      </trkpt>
      <trkpt lat="43.22897" lon="5.50338">
        <ele>238.6</ele>
        <time>2025-10-19T14:31:40Z</time>
      </trkpt>
      <trkpt lat="43.22898" lon="5.50336">
        <ele>238.5</ele>
        <time>2025-10-19T14:31:41Z</time>
      </trkpt>
      <trkpt lat="43.22899" lon="5.50335">
        <ele>238.4</ele>
        <time>2025-10-19T14:31:42Z</time>
      </trkpt>
      <trkpt lat="43.22899" lon="5.50333">
        <ele>238.2</ele>
        <time>2025-10-19T14:31:43Z</time>
      </trkpt>
      <trkpt lat="43.229" lon="5.50332">
        <ele>238.1</ele>
        <time>2025-10-19T14:31:44Z</time>
      </trkpt>
      <trkpt lat="43.229" lon="5.50331">
        <ele>238</ele>
        <time>2025-10-19T14:31:45Z</time>
      </trkpt>
      <trkpt lat="43.229" lon="5.50329">
        <ele>238</ele>
        <time>2025-10-19T14:31:46Z</time>
      </trkpt>
      <trkpt lat="43.22901" lon="5.50328">
        <ele>237.9</ele>
        <time>2025-10-19T14:31:47Z</time>
      </trkpt>
      <trkpt lat="43.22901" lon="5.50327">
        <ele>237.8</ele>
        <time>2025-10-19T14:31:48Z</time>
      </trkpt>
      <trkpt lat="43.22902" lon="5.50326">
        <ele>237.8</ele>
        <time>2025-10-19T14:31:49Z</time>
      </trkpt>
      <trkpt lat="43.22902" lon="5.50325">
        <ele>237.5</ele>
        <time>2025-10-19T14:31:50Z</time>
      </trkpt>
      <trkpt lat="43.22903" lon="5.50325">
        <ele>237.4</ele>
        <time>2025-10-19T14:31:51Z</time>
      </trkpt>
      <trkpt lat="43.22904" lon="5.50324">
        <ele>237.3</ele>
        <time>2025-10-19T14:31:52Z</time>
      </trkpt>
      <trkpt lat="43.22905" lon="5.50323">
        <ele>237.2</ele>
        <time>2025-10-19T14:31:53Z</time>
      </trkpt>
      <trkpt lat="43.22905" lon="5.50322">
        <ele>237.1</ele>
        <time>2025-10-19T14:31:54Z</time>
      </trkpt>
      <trkpt lat="43.22906" lon="5.50321">
        <ele>237</ele>
        <time>2025-10-19T14:31:55Z</time>
      </trkpt>
      <trkpt lat="43.22907" lon="5.50319">
        <ele>236.9</ele>
        <time>2025-10-19T14:31:56Z</time>
      </trkpt>
      <trkpt lat="43.22907" lon="5.50318">
        <ele>236.8</ele>
        <time>2025-10-19T14:31:57Z</time>
      </trkpt>
      <trkpt lat="43.22908" lon="5.50317">
        <ele>236.8</ele>
        <time>2025-10-19T14:31:58Z</time>
      </trkpt>
      <trkpt lat="43.22909" lon="5.50317">
        <ele>236.8</ele>
        <time>2025-10-19T14:31:59Z</time>
      </trkpt>
      <trkpt lat="43.2291" lon="5.50316">
        <ele>236.8</ele>
        <time>2025-10-19T14:32:00Z</time>
      </trkpt>
      <trkpt lat="43.22911" lon="5.50315">
        <ele>236.8</ele>
        <time>2025-10-19T14:32:01Z</time>
      </trkpt>
      <trkpt lat="43.22911" lon="5.50314">
        <ele>236.8</ele>
        <time>2025-10-19T14:32:02Z</time>
      </trkpt>
      <trkpt lat="43.22912" lon="5.50314">
        <ele>236.7</ele>
        <time>2025-10-19T14:32:03Z</time>
      </trkpt>
      <trkpt lat="43.22913" lon="5.50313">
        <ele>236.7</ele>
        <time>2025-10-19T14:32:04Z</time>
      </trkpt>
      <trkpt lat="43.22913" lon="5.50313">
        <ele>236.6</ele>
        <time>2025-10-19T14:32:05Z</time>
      </trkpt>
      <trkpt lat="43.22913" lon="5.50312">
        <ele>236.6</ele>
        <time>2025-10-19T14:32:06Z</time>
      </trkpt>
      <trkpt lat="43.22914" lon="5.50311">
        <ele>236.4</ele>
        <time>2025-10-19T14:32:07Z</time>
      </trkpt>
      <trkpt lat="43.22915" lon="5.5031">
        <ele>236.3</ele>
        <time>2025-10-19T14:32:08Z</time>
      </trkpt>
      <trkpt lat="43.22915" lon="5.50309">
        <ele>236.2</ele>
        <time>2025-10-19T14:32:09Z</time>
      </trkpt>
      <trkpt lat="43.22916" lon="5.50308">
        <ele>236.1</ele>
        <time>2025-10-19T14:32:10Z</time>
      </trkpt>
      <trkpt lat="43.22916" lon="5.50307">
        <ele>235.9</ele>
        <time>2025-10-19T14:32:11Z</time>
      </trkpt>
      <trkpt lat="43.22917" lon="5.50307">
        <ele>235.8</ele>
        <time>2025-10-19T14:32:12Z</time>
      </trkpt>
      <trkpt lat="43.22917" lon="5.50306">
        <ele>235.6</ele>
        <time>2025-10-19T14:32:13Z</time>
      </trkpt>
      <trkpt lat="43.22918" lon="5.50305">
        <ele>235.5</ele>
        <time>2025-10-19T14:32:14Z</time>
      </trkpt>
      <trkpt lat="43.22918" lon="5.50304">
        <ele>235.5</ele>
        <time>2025-10-19T14:32:15Z</time>
      </trkpt>
      <trkpt lat="43.22919" lon="5.50303">
        <ele>235.3</ele>
        <time>2025-10-19T14:32:16Z</time>
      </trkpt>
      <trkpt lat="43.22919" lon="5.50303">
        <ele>235.2</ele>
        <time>2025-10-19T14:32:17Z</time>
      </trkpt>
      <trkpt lat="43.2292" lon="5.50302">
        <ele>235.3</ele>
        <time>2025-10-19T14:32:18Z</time>
      </trkpt>
      <trkpt lat="43.2292" lon="5.50302">
        <ele>235.2</ele>
        <time>2025-10-19T14:32:19Z</time>
      </trkpt>
      <trkpt lat="43.22921" lon="5.50301">
        <ele>235.3</ele>
        <time>2025-10-19T14:32:20Z</time>
      </trkpt>
      <trkpt lat="43.22921" lon="5.503">
        <ele>235.2</ele>
        <time>2025-10-19T14:32:21Z</time>
      </trkpt>
      <trkpt lat="43.22922" lon="5.50299">
        <ele>235.1</ele>
        <time>2025-10-19T14:32:22Z</time>
      </trkpt>
      <trkpt lat="43.22922" lon="5.50299">
        <ele>235.1</ele>
        <time>2025-10-19T14:32:23Z</time>
      </trkpt>
      <trkpt lat="43.22923" lon="5.50298">
        <ele>234.9</ele>
        <time>2025-10-19T14:32:24Z</time>
      </trkpt>
      <trkpt lat="43.22924" lon="5.50298">
        <ele>234.7</ele>
        <time>2025-10-19T14:32:25Z</time>
      </trkpt>
      <trkpt lat="43.22924" lon="5.50297">
        <ele>234.6</ele>
        <time>2025-10-19T14:32:26Z</time>
      </trkpt>
      <trkpt lat="43.22925" lon="5.50297">
        <ele>234.5</ele>
        <time>2025-10-19T14:32:27Z</time>
      </trkpt>
      <trkpt lat="43.22925" lon="5.50296">
        <ele>234.4</ele>
        <time>2025-10-19T14:32:28Z</time>
      </trkpt>
      <trkpt lat="43.22926" lon="5.50295">
        <ele>234.3</ele>
        <time>2025-10-19T14:32:29Z</time>
      </trkpt>
      <trkpt lat="43.22927" lon="5.50295">
        <ele>234</ele>
        <time>2025-10-19T14:32:30Z</time>
      </trkpt>
      <trkpt lat="43.22928" lon="5.50294">
        <ele>233.8</ele>
        <time>2025-10-19T14:32:31Z</time>
      </trkpt>
      <trkpt lat="43.22929" lon="5.50293">
        <ele>233.7</ele>
        <time>2025-10-19T14:32:32Z</time>
      </trkpt>
      <trkpt lat="43.22929" lon="5.50292">
        <ele>233.6</ele>
        <time>2025-10-19T14:32:33Z</time>
      </trkpt>
      <trkpt lat="43.2293" lon="5.50291">
        <ele>233.5</ele>
        <time>2025-10-19T14:32:34Z</time>
      </trkpt>
      <trkpt lat="43.2293" lon="5.5029">
        <ele>233.5</ele>
        <time>2025-10-19T14:32:35Z</time>
      </trkpt>
      <trkpt lat="43.2293" lon="5.50289">
        <ele>233.4</ele>
        <time>2025-10-19T14:32:36Z</time>
      </trkpt>
      <trkpt lat="43.22931" lon="5.50289">
        <ele>233.3</ele>
        <time>2025-10-19T14:32:37Z</time>
      </trkpt>
      <trkpt lat="43.22931" lon="5.50288">
        <ele>233.2</ele>
        <time>2025-10-19T14:32:38Z</time>
      </trkpt>
      <trkpt lat="43.22932" lon="5.50288">
        <ele>233.1</ele>
        <time>2025-10-19T14:32:39Z</time>
      </trkpt>
      <trkpt lat="43.22932" lon="5.50287">
        <ele>232.8</ele>
        <time>2025-10-19T14:32:40Z</time>
      </trkpt>
      <trkpt lat="43.22933" lon="5.50287">
        <ele>232.6</ele>
        <time>2025-10-19T14:32:41Z</time>
      </trkpt>
      <trkpt lat="43.22934" lon="5.50286">
        <ele>232.5</ele>
        <time>2025-10-19T14:32:42Z</time>
      </trkpt>
      <trkpt lat="43.22934" lon="5.50285">
        <ele>232.5</ele>
        <time>2025-10-19T14:32:43Z</time>
      </trkpt>
      <trkpt lat="43.22935" lon="5.50284">
        <ele>232.4</ele>
        <time>2025-10-19T14:32:44Z</time>
      </trkpt>
      <trkpt lat="43.22935" lon="5.50283">
        <ele>232.3</ele>
        <time>2025-10-19T14:32:45Z</time>
      </trkpt>
      <trkpt lat="43.22936" lon="5.50282">
        <ele>232.3</ele>
        <time>2025-10-19T14:32:46Z</time>
      </trkpt>
      <trkpt lat="43.22936" lon="5.50281">
        <ele>232.1</ele>
        <time>2025-10-19T14:32:47Z</time>
      </trkpt>
      <trkpt lat="43.22937" lon="5.5028">
        <ele>232</ele>
        <time>2025-10-19T14:32:48Z</time>
      </trkpt>
      <trkpt lat="43.22937" lon="5.50279">
        <ele>231.8</ele>
        <time>2025-10-19T14:32:49Z</time>
      </trkpt>
      <trkpt lat="43.22938" lon="5.50279">
        <ele>231.7</ele>
        <time>2025-10-19T14:32:50Z</time>
      </trkpt>
      <trkpt lat="43.22938" lon="5.50278">
        <ele>231.6</ele>
        <time>2025-10-19T14:32:51Z</time>
      </trkpt>
      <trkpt lat="43.22938" lon="5.50277">
        <ele>231.5</ele>
        <time>2025-10-19T14:32:52Z</time>
      </trkpt>
      <trkpt lat="43.22939" lon="5.50276">
        <ele>231.5</ele>
        <time>2025-10-19T14:32:53Z</time>
      </trkpt>
      <trkpt lat="43.2294" lon="5.50275">
        <ele>231.4</ele>
        <time>2025-10-19T14:32:54Z</time>
      </trkpt>
      <trkpt lat="43.22941" lon="5.50274">
        <ele>231.4</ele>
        <time>2025-10-19T14:32:55Z</time>
      </trkpt>
      <trkpt lat="43.22941" lon="5.50274">
        <ele>231.3</ele>
        <time>2025-10-19T14:32:56Z</time>
      </trkpt>
      <trkpt lat="43.22942" lon="5.50273">
        <ele>231.2</ele>
        <time>2025-10-19T14:32:57Z</time>
      </trkpt>
      <trkpt lat="43.22942" lon="5.50272">
        <ele>231.1</ele>
        <time>2025-10-19T14:32:58Z</time>
      </trkpt>
      <trkpt lat="43.22943" lon="5.50271">
        <ele>231</ele>
        <time>2025-10-19T14:32:59Z</time>
      </trkpt>
      <trkpt lat="43.22944" lon="5.50271">
        <ele>230.9</ele>
        <time>2025-10-19T14:33:00Z</time>
      </trkpt>
      <trkpt lat="43.22944" lon="5.5027">
        <ele>230.8</ele>
        <time>2025-10-19T14:33:01Z</time>
      </trkpt>
      <trkpt lat="43.22945" lon="5.50269">
        <ele>230.7</ele>
        <time>2025-10-19T14:33:02Z</time>
      </trkpt>
      <trkpt lat="43.22945" lon="5.50268">
        <ele>230.5</ele>
        <time>2025-10-19T14:33:03Z</time>
      </trkpt>
      <trkpt lat="43.22946" lon="5.50268">
        <ele>230.4</ele>
        <time>2025-10-19T14:33:04Z</time>
      </trkpt>
      <trkpt lat="43.22947" lon="5.50267">
        <ele>230.3</ele>
        <time>2025-10-19T14:33:05Z</time>
      </trkpt>
      <trkpt lat="43.22948" lon="5.50267">
        <ele>230.2</ele>
        <time>2025-10-19T14:33:06Z</time>
      </trkpt>
      <trkpt lat="43.22948" lon="5.50266">
        <ele>230.1</ele>
        <time>2025-10-19T14:33:07Z</time>
      </trkpt>
      <trkpt lat="43.22948" lon="5.50266">
        <ele>230</ele>
        <time>2025-10-19T14:33:08Z</time>
      </trkpt>
      <trkpt lat="43.22949" lon="5.50265">
        <ele>229.9</ele>
        <time>2025-10-19T14:33:09Z</time>
      </trkpt>
      <trkpt lat="43.2295" lon="5.50264">
        <ele>229.9</ele>
        <time>2025-10-19T14:33:10Z</time>
      </trkpt>
      <trkpt lat="43.2295" lon="5.50264">
        <ele>229.8</ele>
        <time>2025-10-19T14:33:11Z</time>
      </trkpt>
      <trkpt lat="43.22951" lon="5.50263">
        <ele>229.7</ele>
        <time>2025-10-19T14:33:12Z</time>
      </trkpt>
      <trkpt lat="43.22951" lon="5.50263">
        <ele>229.6</ele>
        <time>2025-10-19T14:33:13Z</time>
      </trkpt>
      <trkpt lat="43.22951" lon="5.50262">
        <ele>229.6</ele>
        <time>2025-10-19T14:33:14Z</time>
      </trkpt>
      <trkpt lat="43.22952" lon="5.50262">
        <ele>229.6</ele>
        <time>2025-10-19T14:33:15Z</time>
      </trkpt>
      <trkpt lat="43.22952" lon="5.50261">
        <ele>229.5</ele>
        <time>2025-10-19T14:33:16Z</time>
      </trkpt>
      <trkpt lat="43.22953" lon="5.5026">
        <ele>229.4</ele>
        <time>2025-10-19T14:33:17Z</time>
      </trkpt>
      <trkpt lat="43.22954" lon="5.50259">
        <ele>229.3</ele>
        <time>2025-10-19T14:33:18Z</time>
      </trkpt>
      <trkpt lat="43.22954" lon="5.50258">
        <ele>229.2</ele>
        <time>2025-10-19T14:33:19Z</time>
      </trkpt>
      <trkpt lat="43.22954" lon="5.50258">
        <ele>229.1</ele>
        <time>2025-10-19T14:33:20Z</time>
      </trkpt>
      <trkpt lat="43.22954" lon="5.50257">
        <ele>229</ele>
        <time>2025-10-19T14:33:21Z</time>
      </trkpt>
      <trkpt lat="43.22955" lon="5.50255">
        <ele>228.9</ele>
        <time>2025-10-19T14:33:22Z</time>
      </trkpt>
      <trkpt lat="43.22955" lon="5.50255">
        <ele>228.8</ele>
        <time>2025-10-19T14:33:23Z</time>
      </trkpt>
      <trkpt lat="43.22956" lon="5.50254">
        <ele>228.7</ele>
        <time>2025-10-19T14:33:24Z</time>
      </trkpt>
      <trkpt lat="43.22956" lon="5.50253">
        <ele>228.5</ele>
        <time>2025-10-19T14:33:25Z</time>
      </trkpt>
      <trkpt lat="43.22957" lon="5.50252">
        <ele>228.4</ele>
        <time>2025-10-19T14:33:26Z</time>
      </trkpt>
      <trkpt lat="43.22957" lon="5.50251">
        <ele>228.3</ele>
        <time>2025-10-19T14:33:27Z</time>
      </trkpt>
      <trkpt lat="43.22957" lon="5.5025">
        <ele>228.1</ele>
        <time>2025-10-19T14:33:28Z</time>
      </trkpt>
      <trkpt lat="43.22958" lon="5.50249">
        <ele>228</ele>
        <time>2025-10-19T14:33:29Z</time>
      </trkpt>
      <trkpt lat="43.22958" lon="5.50249">
        <ele>227.9</ele>
        <time>2025-10-19T14:33:30Z</time>
      </trkpt>
      <trkpt lat="43.22958" lon="5.50248">
        <ele>227.7</ele>
        <time>2025-10-19T14:33:31Z</time>
      </trkpt>
      <trkpt lat="43.22959" lon="5.50247">
        <ele>227.5</ele>
        <time>2025-10-19T14:33:32Z</time>
      </trkpt>
      <trkpt lat="43.22959" lon="5.50246">
        <ele>227.5</ele>
        <time>2025-10-19T14:33:33Z</time>
      </trkpt>
      <trkpt lat="43.2296" lon="5.50245">
        <ele>227.5</ele>
        <time>2025-10-19T14:33:34Z</time>
      </trkpt>
      <trkpt lat="43.2296" lon="5.50244">
        <ele>227.4</ele>
        <time>2025-10-19T14:33:35Z</time>
      </trkpt>
      <trkpt lat="43.2296" lon="5.50244">
        <ele>227.4</ele>
        <time>2025-10-19T14:33:36Z</time>
      </trkpt>
      <trkpt lat="43.22961" lon="5.50243">
        <ele>227.2</ele>
        <time>2025-10-19T14:33:37Z</time>
      </trkpt>
      <trkpt lat="43.22961" lon="5.50242">
        <ele>227.1</ele>
        <time>2025-10-19T14:33:38Z</time>
      </trkpt>
      <trkpt lat="43.22962" lon="5.50241">
        <ele>227</ele>
        <time>2025-10-19T14:33:39Z</time>
      </trkpt>
      <trkpt lat="43.22962" lon="5.5024">
        <ele>227</ele>
        <time>2025-10-19T14:33:40Z</time>
      </trkpt>
      <trkpt lat="43.22962" lon="5.5024">
        <ele>226.9</ele>
        <time>2025-10-19T14:33:41Z</time>
      </trkpt>
      <trkpt lat="43.22963" lon="5.50239">
        <ele>226.8</ele>
        <time>2025-10-19T14:33:42Z</time>
      </trkpt>
      <trkpt lat="43.22963" lon="5.50238">
        <ele>226.7</ele>
        <time>2025-10-19T14:33:43Z</time>
      </trkpt>
      <trkpt lat="43.22963" lon="5.50237">
        <ele>226.6</ele>
        <time>2025-10-19T14:33:44Z</time>
      </trkpt>
      <trkpt lat="43.22964" lon="5.50236">
        <ele>226.5</ele>
        <time>2025-10-19T14:33:45Z</time>
      </trkpt>
      <trkpt lat="43.22964" lon="5.50235">
        <ele>226.3</ele>
        <time>2025-10-19T14:33:46Z</time>
      </trkpt>
      <trkpt lat="43.22965" lon="5.50234">
        <ele>226.2</ele>
        <time>2025-10-19T14:33:47Z</time>
      </trkpt>
      <trkpt lat="43.22965" lon="5.50233">
        <ele>226.1</ele>
        <time>2025-10-19T14:33:48Z</time>
      </trkpt>
      <trkpt lat="43.22965" lon="5.50232">
        <ele>226</ele>
        <time>2025-10-19T14:33:49Z</time>
      </trkpt>
      <trkpt lat="43.22966" lon="5.50231">
        <ele>225.9</ele>
        <time>2025-10-19T14:33:50Z</time>
      </trkpt>
      <trkpt lat="43.22966" lon="5.50231">
        <ele>225.9</ele>
        <time>2025-10-19T14:33:51Z</time>
      </trkpt>
      <trkpt lat="43.22966" lon="5.5023">
        <ele>225.8</ele>
        <time>2025-10-19T14:33:52Z</time>
      </trkpt>
      <trkpt lat="43.22967" lon="5.5023">
        <ele>225.8</ele>
        <time>2025-10-19T14:33:53Z</time>
      </trkpt>
      <trkpt lat="43.22967" lon="5.50229">
        <ele>225.6</ele>
        <time>2025-10-19T14:33:54Z</time>
      </trkpt>
      <trkpt lat="43.22968" lon="5.50228">
        <ele>225.5</ele>
        <time>2025-10-19T14:33:55Z</time>
      </trkpt>
      <trkpt lat="43.22968" lon="5.50227">
        <ele>225.4</ele>
        <time>2025-10-19T14:33:56Z</time>
      </trkpt>
      <trkpt lat="43.22968" lon="5.50226">
        <ele>225.2</ele>
        <time>2025-10-19T14:33:57Z</time>
      </trkpt>
      <trkpt lat="43.22968" lon="5.50225">
        <ele>225</ele>
        <time>2025-10-19T14:33:58Z</time>
      </trkpt>
      <trkpt lat="43.22968" lon="5.50224">
        <ele>224.9</ele>
        <time>2025-10-19T14:33:59Z</time>
      </trkpt>
      <trkpt lat="43.22969" lon="5.50223">
        <ele>224.8</ele>
        <time>2025-10-19T14:34:00Z</time>
      </trkpt>
      <trkpt lat="43.22969" lon="5.50222">
        <ele>224.6</ele>
        <time>2025-10-19T14:34:01Z</time>
      </trkpt>
      <trkpt lat="43.22969" lon="5.50221">
        <ele>224.5</ele>
        <time>2025-10-19T14:34:02Z</time>
      </trkpt>
      <trkpt lat="43.2297" lon="5.5022">
        <ele>224.4</ele>
        <time>2025-10-19T14:34:03Z</time>
      </trkpt>
      <trkpt lat="43.2297" lon="5.5022">
        <ele>224.3</ele>
        <time>2025-10-19T14:34:04Z</time>
      </trkpt>
      <trkpt lat="43.22971" lon="5.50219">
        <ele>224.3</ele>
        <time>2025-10-19T14:34:05Z</time>
      </trkpt>
      <trkpt lat="43.22972" lon="5.50218">
        <ele>224.2</ele>
        <time>2025-10-19T14:34:06Z</time>
      </trkpt>
      <trkpt lat="43.22973" lon="5.50217">
        <ele>224.1</ele>
        <time>2025-10-19T14:34:07Z</time>
      </trkpt>
      <trkpt lat="43.22974" lon="5.50216">
        <ele>223.9</ele>
        <time>2025-10-19T14:34:08Z</time>
      </trkpt>
      <trkpt lat="43.22974" lon="5.50216">
        <ele>223.8</ele>
        <time>2025-10-19T14:34:09Z</time>
      </trkpt>
      <trkpt lat="43.22974" lon="5.50215">
        <ele>223.8</ele>
        <time>2025-10-19T14:34:10Z</time>
      </trkpt>
      <trkpt lat="43.22974" lon="5.50214">
        <ele>223.7</ele>
        <time>2025-10-19T14:34:11Z</time>
      </trkpt>
      <trkpt lat="43.22974" lon="5.50214">
        <ele>223.6</ele>
        <time>2025-10-19T14:34:12Z</time>
      </trkpt>
      <trkpt lat="43.22974" lon="5.50213">
        <ele>223.5</ele>
        <time>2025-10-19T14:34:13Z</time>
      </trkpt>
      <trkpt lat="43.22974" lon="5.50213">
        <ele>223.5</ele>
        <time>2025-10-19T14:34:14Z</time>
      </trkpt>
      <trkpt lat="43.22974" lon="5.50212">
        <ele>223.5</ele>
        <time>2025-10-19T14:34:15Z</time>
      </trkpt>
      <trkpt lat="43.22974" lon="5.50212">
        <ele>223.5</ele>
        <time>2025-10-19T14:34:16Z</time>
      </trkpt>
      <trkpt lat="43.22975" lon="5.50212">
        <ele>223.5</ele>
        <time>2025-10-19T14:34:17Z</time>
      </trkpt>
      <trkpt lat="43.22975" lon="5.50212">
        <ele>223.5</ele>
        <time>2025-10-19T14:34:18Z</time>
      </trkpt>
      <trkpt lat="43.22975" lon="5.50212">
        <ele>223.2</ele>
        <time>2025-10-19T14:34:19Z</time>
      </trkpt>
      <trkpt lat="43.22975" lon="5.50212">
        <ele>223.1</ele>
        <time>2025-10-19T14:34:20Z</time>
      </trkpt>
      <trkpt lat="43.22975" lon="5.50211">
        <ele>223</ele>
        <time>2025-10-19T14:34:21Z</time>
      </trkpt>
      <trkpt lat="43.22975" lon="5.50211">
        <ele>222.9</ele>
        <time>2025-10-19T14:34:22Z</time>
      </trkpt>
      <trkpt lat="43.22975" lon="5.5021">
        <ele>222.8</ele>
        <time>2025-10-19T14:34:23Z</time>
      </trkpt>
      <trkpt lat="43.22975" lon="5.50209">
        <ele>222.6</ele>
        <time>2025-10-19T14:34:24Z</time>
      </trkpt>
      <trkpt lat="43.22976" lon="5.50208">
        <ele>222.5</ele>
        <time>2025-10-19T14:34:25Z</time>
      </trkpt>
      <trkpt lat="43.22976" lon="5.50207">
        <ele>222.4</ele>
        <time>2025-10-19T14:34:26Z</time>
      </trkpt>
      <trkpt lat="43.22976" lon="5.50207">
        <ele>222.3</ele>
        <time>2025-10-19T14:34:27Z</time>
      </trkpt>
      <trkpt lat="43.22977" lon="5.50206">
        <ele>222.2</ele>
        <time>2025-10-19T14:34:28Z</time>
      </trkpt>
      <trkpt lat="43.22977" lon="5.50205">
        <ele>222</ele>
        <time>2025-10-19T14:34:29Z</time>
      </trkpt>
      <trkpt lat="43.22977" lon="5.50204">
        <ele>221.8</ele>
        <time>2025-10-19T14:34:30Z</time>
      </trkpt>
      <trkpt lat="43.22978" lon="5.50203">
        <ele>221.7</ele>
        <time>2025-10-19T14:34:31Z</time>
      </trkpt>
      <trkpt lat="43.22978" lon="5.50203">
        <ele>221.5</ele>
        <time>2025-10-19T14:34:32Z</time>
      </trkpt>
      <trkpt lat="43.22979" lon="5.50202">
        <ele>221.3</ele>
        <time>2025-10-19T14:34:33Z</time>
      </trkpt>
      <trkpt lat="43.22979" lon="5.50201">
        <ele>221.2</ele>
        <time>2025-10-19T14:34:34Z</time>
      </trkpt>
      <trkpt lat="43.22979" lon="5.502">
        <ele>221</ele>
        <time>2025-10-19T14:34:35Z</time>
      </trkpt>
      <trkpt lat="43.22979" lon="5.50199">
        <ele>220.9</ele>
        <time>2025-10-19T14:34:36Z</time>
      </trkpt>
      <trkpt lat="43.22979" lon="5.50199">
        <ele>220.8</ele>
        <time>2025-10-19T14:34:37Z</time>
      </trkpt>
      <trkpt lat="43.22979" lon="5.50199">
        <ele>220.6</ele>
        <time>2025-10-19T14:34:38Z</time>
      </trkpt>
      <trkpt lat="43.22979" lon="5.50198">
        <ele>220.5</ele>
        <time>2025-10-19T14:34:39Z</time>
      </trkpt>
      <trkpt lat="43.22979" lon="5.50198">
        <ele>220.5</ele>
        <time>2025-10-19T14:34:40Z</time>
      </trkpt>
      <trkpt lat="43.22979" lon="5.50197">
        <ele>220.4</ele>
        <time>2025-10-19T14:34:41Z</time>
      </trkpt>
      <trkpt lat="43.2298" lon="5.50196">
        <ele>220.3</ele>
        <time>2025-10-19T14:34:42Z</time>
      </trkpt>
      <trkpt lat="43.2298" lon="5.50195">
        <ele>220.3</ele>
        <time>2025-10-19T14:34:43Z</time>
      </trkpt>
      <trkpt lat="43.2298" lon="5.50194">
        <ele>220.2</ele>
        <time>2025-10-19T14:34:44Z</time>
      </trkpt>
      <trkpt lat="43.22981" lon="5.50194">
        <ele>220.2</ele>
        <time>2025-10-19T14:34:45Z</time>
      </trkpt>
      <trkpt lat="43.22981" lon="5.50193">
        <ele>220.2</ele>
        <time>2025-10-19T14:34:46Z</time>
      </trkpt>
      <trkpt lat="43.22981" lon="5.50193">
        <ele>220.1</ele>
        <time>2025-10-19T14:34:47Z</time>
      </trkpt>
      <trkpt lat="43.22982" lon="5.50192">
        <ele>220</ele>
        <time>2025-10-19T14:34:48Z</time>
      </trkpt>
      <trkpt lat="43.22982" lon="5.50191">
        <ele>220</ele>
        <time>2025-10-19T14:34:49Z</time>
      </trkpt>
      <trkpt lat="43.22982" lon="5.5019">
        <ele>219.8</ele>
        <time>2025-10-19T14:34:50Z</time>
      </trkpt>
      <trkpt lat="43.22983" lon="5.5019">
        <ele>219.6</ele>
        <time>2025-10-19T14:34:51Z</time>
      </trkpt>
      <trkpt lat="43.22983" lon="5.50189">
        <ele>219.4</ele>
        <time>2025-10-19T14:34:52Z</time>
      </trkpt>
      <trkpt lat="43.22984" lon="5.50188">
        <ele>219.3</ele>
        <time>2025-10-19T14:34:53Z</time>
      </trkpt>
      <trkpt lat="43.22984" lon="5.50187">
        <ele>219.1</ele>
        <time>2025-10-19T14:34:54Z</time>
      </trkpt>
      <trkpt lat="43.22985" lon="5.50186">
        <ele>218.8</ele>
        <time>2025-10-19T14:34:55Z</time>
      </trkpt>
      <trkpt lat="43.22985" lon="5.50185">
        <ele>218.7</ele>
        <time>2025-10-19T14:34:56Z</time>
      </trkpt>
      <trkpt lat="43.22985" lon="5.50185">
        <ele>218.6</ele>
        <time>2025-10-19T14:34:57Z</time>
      </trkpt>
      <trkpt lat="43.22985" lon="5.50184">
        <ele>218.4</ele>
        <time>2025-10-19T14:34:58Z</time>
      </trkpt>
      <trkpt lat="43.22985" lon="5.50183">
        <ele>218.3</ele>
        <time>2025-10-19T14:34:59Z</time>
      </trkpt>
      <trkpt lat="43.22985" lon="5.50183">
        <ele>218.2</ele>
        <time>2025-10-19T14:35:00Z</time>
      </trkpt>
      <trkpt lat="43.22985" lon="5.50182">
        <ele>218.1</ele>
        <time>2025-10-19T14:35:01Z</time>
      </trkpt>
      <trkpt lat="43.22985" lon="5.50182">
        <ele>218</ele>
        <time>2025-10-19T14:35:02Z</time>
      </trkpt>
      <trkpt lat="43.22985" lon="5.50182">
        <ele>218</ele>
        <time>2025-10-19T14:35:03Z</time>
      </trkpt>
      <trkpt lat="43.22985" lon="5.50181">
        <ele>218</ele>
        <time>2025-10-19T14:35:04Z</time>
      </trkpt>
      <trkpt lat="43.22985" lon="5.50181">
        <ele>217.8</ele>
        <time>2025-10-19T14:35:05Z</time>
      </trkpt>
      <trkpt lat="43.22985" lon="5.50181">
        <ele>217.6</ele>
        <time>2025-10-19T14:35:06Z</time>
      </trkpt>
      <trkpt lat="43.22986" lon="5.5018">
        <ele>217.6</ele>
        <time>2025-10-19T14:35:07Z</time>
      </trkpt>
      <trkpt lat="43.22986" lon="5.50179">
        <ele>217.5</ele>
        <time>2025-10-19T14:35:08Z</time>
      </trkpt>
      <trkpt lat="43.22986" lon="5.50179">
        <ele>217.5</ele>
        <time>2025-10-19T14:35:09Z</time>
      </trkpt>
      <trkpt lat="43.22987" lon="5.50178">
        <ele>217.4</ele>
        <time>2025-10-19T14:35:10Z</time>
      </trkpt>
      <trkpt lat="43.22987" lon="5.50178">
        <ele>217.3</ele>
        <time>2025-10-19T14:35:11Z</time>
      </trkpt>
      <trkpt lat="43.22987" lon="5.50177">
        <ele>217.3</ele>
        <time>2025-10-19T14:35:12Z</time>
      </trkpt>
      <trkpt lat="43.22988" lon="5.50177">
        <ele>217.2</ele>
        <time>2025-10-19T14:35:13Z</time>
      </trkpt>
      <trkpt lat="43.22988" lon="5.50176">
        <ele>217</ele>
        <time>2025-10-19T14:35:14Z</time>
      </trkpt>
      <trkpt lat="43.22989" lon="5.50176">
        <ele>216.8</ele>
        <time>2025-10-19T14:35:15Z</time>
      </trkpt>
      <trkpt lat="43.22989" lon="5.50176">
        <ele>216.8</ele>
        <time>2025-10-19T14:35:16Z</time>
      </trkpt>
      <trkpt lat="43.2299" lon="5.50175">
        <ele>216.6</ele>
        <time>2025-10-19T14:35:17Z</time>
      </trkpt>
      <trkpt lat="43.2299" lon="5.50175">
        <ele>216.4</ele>
        <time>2025-10-19T14:35:18Z</time>
      </trkpt>
      <trkpt lat="43.22991" lon="5.50174">
        <ele>216.2</ele>
        <time>2025-10-19T14:35:19Z</time>
      </trkpt>
      <trkpt lat="43.22991" lon="5.50173">
        <ele>216</ele>
        <time>2025-10-19T14:35:20Z</time>
      </trkpt>
      <trkpt lat="43.22991" lon="5.50172">
        <ele>215.8</ele>
        <time>2025-10-19T14:35:21Z</time>
      </trkpt>
      <trkpt lat="43.22992" lon="5.50172">
        <ele>215.7</ele>
        <time>2025-10-19T14:35:22Z</time>
      </trkpt>
      <trkpt lat="43.22992" lon="5.50171">
        <ele>215.6</ele>
        <time>2025-10-19T14:35:23Z</time>
      </trkpt>
      <trkpt lat="43.22992" lon="5.5017">
        <ele>215.5</ele>
        <time>2025-10-19T14:35:24Z</time>
      </trkpt>
      <trkpt lat="43.22992" lon="5.5017">
        <ele>215.4</ele>
        <time>2025-10-19T14:35:25Z</time>
      </trkpt>
      <trkpt lat="43.22993" lon="5.5017">
        <ele>215.3</ele>
        <time>2025-10-19T14:35:26Z</time>
      </trkpt>
      <trkpt lat="43.22993" lon="5.50169">
        <ele>215.2</ele>
        <time>2025-10-19T14:35:27Z</time>
      </trkpt>
      <trkpt lat="43.22994" lon="5.50169">
        <ele>214.9</ele>
        <time>2025-10-19T14:35:28Z</time>
      </trkpt>
      <trkpt lat="43.22994" lon="5.50168">
        <ele>214.7</ele>
        <time>2025-10-19T14:35:29Z</time>
      </trkpt>
      <trkpt lat="43.22994" lon="5.50168">
        <ele>214.6</ele>
        <time>2025-10-19T14:35:30Z</time>
      </trkpt>
      <trkpt lat="43.22994" lon="5.50167">
        <ele>214.5</ele>
        <time>2025-10-19T14:35:31Z</time>
      </trkpt>
      <trkpt lat="43.22995" lon="5.50166">
        <ele>214.4</ele>
        <time>2025-10-19T14:35:32Z</time>
      </trkpt>
      <trkpt lat="43.22995" lon="5.50166">
        <ele>214.2</ele>
        <time>2025-10-19T14:35:33Z</time>
      </trkpt>
      <trkpt lat="43.22996" lon="5.50165">
        <ele>214.1</ele>
        <time>2025-10-19T14:35:34Z</time>
      </trkpt>
      <trkpt lat="43.22997" lon="5.50165">
        <ele>213.9</ele>
        <time>2025-10-19T14:35:35Z</time>
      </trkpt>
      <trkpt lat="43.22998" lon="5.50164">
        <ele>213.9</ele>
        <time>2025-10-19T14:35:36Z</time>
      </trkpt>
      <trkpt lat="43.22998" lon="5.50164">
        <ele>213.7</ele>
        <time>2025-10-19T14:35:37Z</time>
      </trkpt>
      <trkpt lat="43.22999" lon="5.50165">
        <ele>213.6</ele>
        <time>2025-10-19T14:35:38Z</time>
      </trkpt>
      <trkpt lat="43.22999" lon="5.50165">
        <ele>213.5</ele>
        <time>2025-10-19T14:35:39Z</time>
      </trkpt>
      <trkpt lat="43.23" lon="5.50166">
        <ele>213.4</ele>
        <time>2025-10-19T14:35:40Z</time>
      </trkpt>
      <trkpt lat="43.23" lon="5.50166">
        <ele>213.3</ele>
        <time>2025-10-19T14:35:41Z</time>
      </trkpt>
      <trkpt lat="43.23001" lon="5.50166">
        <ele>213.2</ele>
        <time>2025-10-19T14:35:42Z</time>
      </trkpt>
      <trkpt lat="43.23001" lon="5.50166">
        <ele>213</ele>
        <time>2025-10-19T14:35:43Z</time>
      </trkpt>
      <trkpt lat="43.23002" lon="5.50166">
        <ele>213</ele>
        <time>2025-10-19T14:35:44Z</time>
      </trkpt>
      <trkpt lat="43.23002" lon="5.50166">
        <ele>213</ele>
        <time>2025-10-19T14:35:45Z</time>
      </trkpt>
      <trkpt lat="43.23002" lon="5.50166">
        <ele>212.9</ele>
        <time>2025-10-19T14:35:46Z</time>
      </trkpt>
      <trkpt lat="43.23002" lon="5.50166">
        <ele>212.8</ele>
        <time>2025-10-19T14:35:47Z</time>
      </trkpt>
      <trkpt lat="43.23003" lon="5.50166">
        <ele>212.7</ele>
        <time>2025-10-19T14:35:48Z</time>
      </trkpt>
      <trkpt lat="43.23003" lon="5.50165">
        <ele>212.6</ele>
        <time>2025-10-19T14:35:49Z</time>
      </trkpt>
      <trkpt lat="43.23003" lon="5.50165">
        <ele>212.6</ele>
        <time>2025-10-19T14:35:50Z</time>
      </trkpt>
      <trkpt lat="43.23004" lon="5.50165">
        <ele>212.5</ele>
        <time>2025-10-19T14:35:51Z</time>
      </trkpt>
      <trkpt lat="43.23004" lon="5.50164">
        <ele>212.4</ele>
        <time>2025-10-19T14:35:52Z</time>
      </trkpt>
      <trkpt lat="43.23004" lon="5.50164">
        <ele>212.2</ele>
        <time>2025-10-19T14:35:53Z</time>
      </trkpt>
      <trkpt lat="43.23005" lon="5.50163">
        <ele>212</ele>
        <time>2025-10-19T14:35:54Z</time>
      </trkpt>
      <trkpt lat="43.23005" lon="5.50162">
        <ele>211.9</ele>
        <time>2025-10-19T14:35:55Z</time>
      </trkpt>
      <trkpt lat="43.23006" lon="5.50162">
        <ele>211.7</ele>
        <time>2025-10-19T14:35:56Z</time>
      </trkpt>
      <trkpt lat="43.23006" lon="5.50162">
        <ele>211.5</ele>
        <time>2025-10-19T14:35:57Z</time>
      </trkpt>
      <trkpt lat="43.23006" lon="5.50162">
        <ele>211.4</ele>
        <time>2025-10-19T14:35:58Z</time>
      </trkpt>
      <trkpt lat="43.23007" lon="5.50162">
        <ele>211.3</ele>
        <time>2025-10-19T14:35:59Z</time>
      </trkpt>
      <trkpt lat="43.23007" lon="5.50162">
        <ele>211.1</ele>
        <time>2025-10-19T14:36:00Z</time>
      </trkpt>
      <trkpt lat="43.23008" lon="5.50162">
        <ele>211</ele>
        <time>2025-10-19T14:36:01Z</time>
      </trkpt>
      <trkpt lat="43.23008" lon="5.50161">
        <ele>210.9</ele>
        <time>2025-10-19T14:36:02Z</time>
      </trkpt>
      <trkpt lat="43.23009" lon="5.50161">
        <ele>210.8</ele>
        <time>2025-10-19T14:36:03Z</time>
      </trkpt>
      <trkpt lat="43.23009" lon="5.5016">
        <ele>210.7</ele>
        <time>2025-10-19T14:36:04Z</time>
      </trkpt>
      <trkpt lat="43.2301" lon="5.5016">
        <ele>210.6</ele>
        <time>2025-10-19T14:36:05Z</time>
      </trkpt>
      <trkpt lat="43.2301" lon="5.50159">
        <ele>210.5</ele>
        <time>2025-10-19T14:36:06Z</time>
      </trkpt>
      <trkpt lat="43.2301" lon="5.50159">
        <ele>210.3</ele>
        <time>2025-10-19T14:36:07Z</time>
      </trkpt>
      <trkpt lat="43.23011" lon="5.50158">
        <ele>210.1</ele>
        <time>2025-10-19T14:36:08Z</time>
      </trkpt>
      <trkpt lat="43.23011" lon="5.50158">
        <ele>209.9</ele>
        <time>2025-10-19T14:36:09Z</time>
      </trkpt>
      <trkpt lat="43.23011" lon="5.50157">
        <ele>209.8</ele>
        <time>2025-10-19T14:36:10Z</time>
      </trkpt>
      <trkpt lat="43.23011" lon="5.50157">
        <ele>209.7</ele>
        <time>2025-10-19T14:36:11Z</time>
      </trkpt>
      <trkpt lat="43.23012" lon="5.50157">
        <ele>209.7</ele>
        <time>2025-10-19T14:36:12Z</time>
      </trkpt>
      <trkpt lat="43.23012" lon="5.50156">
        <ele>209.7</ele>
        <time>2025-10-19T14:36:13Z</time>
      </trkpt>
      <trkpt lat="43.23012" lon="5.50155">
        <ele>209.6</ele>
        <time>2025-10-19T14:36:14Z</time>
      </trkpt>
      <trkpt lat="43.23012" lon="5.50155">
        <ele>209.5</ele>
        <time>2025-10-19T14:36:15Z</time>
      </trkpt>
      <trkpt lat="43.23013" lon="5.50154">
        <ele>209.4</ele>
        <time>2025-10-19T14:36:16Z</time>
      </trkpt>
      <trkpt lat="43.23014" lon="5.50154">
        <ele>209.3</ele>
        <time>2025-10-19T14:36:17Z</time>
      </trkpt>
      <trkpt lat="43.23015" lon="5.50154">
        <ele>209.2</ele>
        <time>2025-10-19T14:36:18Z</time>
      </trkpt>
      <trkpt lat="43.23015" lon="5.50153">
        <ele>209.1</ele>
        <time>2025-10-19T14:36:19Z</time>
      </trkpt>
      <trkpt lat="43.23016" lon="5.50152">
        <ele>209</ele>
        <time>2025-10-19T14:36:20Z</time>
      </trkpt>
      <trkpt lat="43.23016" lon="5.50151">
        <ele>209</ele>
        <time>2025-10-19T14:36:21Z</time>
      </trkpt>
      <trkpt lat="43.23017" lon="5.50151">
        <ele>208.9</ele>
        <time>2025-10-19T14:36:22Z</time>
      </trkpt>
      <trkpt lat="43.23017" lon="5.5015">
        <ele>208.8</ele>
        <time>2025-10-19T14:36:23Z</time>
      </trkpt>
      <trkpt lat="43.23018" lon="5.5015">
        <ele>208.6</ele>
        <time>2025-10-19T14:36:24Z</time>
      </trkpt>
      <trkpt lat="43.23018" lon="5.50149">
        <ele>208.4</ele>
        <time>2025-10-19T14:36:25Z</time>
      </trkpt>
      <trkpt lat="43.23018" lon="5.50149">
        <ele>208.3</ele>
        <time>2025-10-19T14:36:26Z</time>
      </trkpt>
      <trkpt lat="43.23018" lon="5.50149">
        <ele>208.2</ele>
        <time>2025-10-19T14:36:27Z</time>
      </trkpt>
      <trkpt lat="43.23019" lon="5.50149">
        <ele>208.1</ele>
        <time>2025-10-19T14:36:28Z</time>
      </trkpt>
      <trkpt lat="43.2302" lon="5.50148">
        <ele>208</ele>
        <time>2025-10-19T14:36:29Z</time>
      </trkpt>
      <trkpt lat="43.2302" lon="5.50148">
        <ele>207.9</ele>
        <time>2025-10-19T14:36:30Z</time>
      </trkpt>
      <trkpt lat="43.2302" lon="5.50148">
        <ele>207.8</ele>
        <time>2025-10-19T14:36:31Z</time>
      </trkpt>
      <trkpt lat="43.23021" lon="5.50148">
        <ele>207.7</ele>
        <time>2025-10-19T14:36:32Z</time>
      </trkpt>
      <trkpt lat="43.23022" lon="5.50147">
        <ele>207.6</ele>
        <time>2025-10-19T14:36:33Z</time>
      </trkpt>
      <trkpt lat="43.23022" lon="5.50147">
        <ele>207.5</ele>
        <time>2025-10-19T14:36:34Z</time>
      </trkpt>
      <trkpt lat="43.23022" lon="5.50146">
        <ele>207.4</ele>
        <time>2025-10-19T14:36:35Z</time>
      </trkpt>
      <trkpt lat="43.23022" lon="5.50146">
        <ele>207.4</ele>
        <time>2025-10-19T14:36:36Z</time>
      </trkpt>
      <trkpt lat="43.23023" lon="5.50146">
        <ele>207.2</ele>
        <time>2025-10-19T14:36:37Z</time>
      </trkpt>
      <trkpt lat="43.23023" lon="5.50146">
        <ele>207.1</ele>
        <time>2025-10-19T14:36:38Z</time>
      </trkpt>
      <trkpt lat="43.23022" lon="5.50146">
        <ele>207</ele>
        <time>2025-10-19T14:36:39Z</time>
      </trkpt>
      <trkpt lat="43.23023" lon="5.50146">
        <ele>206.9</ele>
        <time>2025-10-19T14:36:40Z</time>
      </trkpt>
      <trkpt lat="43.23023" lon="5.50146">
        <ele>206.8</ele>
        <time>2025-10-19T14:36:41Z</time>
      </trkpt>
      <trkpt lat="43.23022" lon="5.50146">
        <ele>206.7</ele>
        <time>2025-10-19T14:36:42Z</time>
      </trkpt>
      <trkpt lat="43.23022" lon="5.50146">
        <ele>206.7</ele>
        <time>2025-10-19T14:36:43Z</time>
      </trkpt>
      <trkpt lat="43.23022" lon="5.50146">
        <ele>206.6</ele>
        <time>2025-10-19T14:36:44Z</time>
      </trkpt>
      <trkpt lat="43.23022" lon="5.50146">
        <ele>206.6</ele>
        <time>2025-10-19T14:36:45Z</time>
      </trkpt>
      <trkpt lat="43.23022" lon="5.50146">
        <ele>206.6</ele>
        <time>2025-10-19T14:36:46Z</time>
      </trkpt>
      <trkpt lat="43.23022" lon="5.50146">
        <ele>206.7</ele>
        <time>2025-10-19T14:36:47Z</time>
      </trkpt>
      <trkpt lat="43.23022" lon="5.50146">
        <ele>206.7</ele>
        <time>2025-10-19T14:36:48Z</time>
      </trkpt>
      <trkpt lat="43.23022" lon="5.50146">
        <ele>206.7</ele>
        <time>2025-10-19T14:36:49Z</time>
      </trkpt>
      <trkpt lat="43.23023" lon="5.50146">
        <ele>206.7</ele>
        <time>2025-10-19T14:36:50Z</time>
      </trkpt>
      <trkpt lat="43.23023" lon="5.50146">
        <ele>206.7</ele>
        <time>2025-10-19T14:36:51Z</time>
      </trkpt>
      <trkpt lat="43.23023" lon="5.50146">
        <ele>206.7</ele>
        <time>2025-10-19T14:36:52Z</time>
      </trkpt>
      <trkpt lat="43.23023" lon="5.50146">
        <ele>206.7</ele>
        <time>2025-10-19T14:36:53Z</time>
      </trkpt>
      <trkpt lat="43.23023" lon="5.50146">
        <ele>206.8</ele>
        <time>2025-10-19T14:36:54Z</time>
      </trkpt>
      <trkpt lat="43.23023" lon="5.50146">
        <ele>206.8</ele>
        <time>2025-10-19T14:36:55Z</time>
      </trkpt>
      <trkpt lat="43.23023" lon="5.50146">
        <ele>206.8</ele>
        <time>2025-10-19T14:36:56Z</time>
      </trkpt>
      <trkpt lat="43.23023" lon="5.50146">
        <ele>206.7</ele>
        <time>2025-10-19T14:36:57Z</time>
      </trkpt>
      <trkpt lat="43.23023" lon="5.50146">
        <ele>206.7</ele>
        <time>2025-10-19T14:36:58Z</time>
      </trkpt>
      <trkpt lat="43.23023" lon="5.50146">
        <ele>206.8</ele>
        <time>2025-10-19T14:36:59Z</time>
      </trkpt>
      <trkpt lat="43.23024" lon="5.50146">
        <ele>206.8</ele>
        <time>2025-10-19T14:37:00Z</time>
      </trkpt>
      <trkpt lat="43.23023" lon="5.50146">
        <ele>206.8</ele>
        <time>2025-10-19T14:37:01Z</time>
      </trkpt>
      <trkpt lat="43.23023" lon="5.50146">
        <ele>206.8</ele>
        <time>2025-10-19T14:37:02Z</time>
      </trkpt>
      <trkpt lat="43.23023" lon="5.50146">
        <ele>206.8</ele>
        <time>2025-10-19T14:37:03Z</time>
      </trkpt>
      <trkpt lat="43.23023" lon="5.50146">
        <ele>206.8</ele>
        <time>2025-10-19T14:37:04Z</time>
      </trkpt>
      <trkpt lat="43.23023" lon="5.50146">
        <ele>206.8</ele>
        <time>2025-10-19T14:37:05Z</time>
      </trkpt>
      <trkpt lat="43.23023" lon="5.50146">
        <ele>206.9</ele>
        <time>2025-10-19T14:37:06Z</time>
      </trkpt>
      <trkpt lat="43.23023" lon="5.50146">
        <ele>206.9</ele>
        <time>2025-10-19T14:37:07Z</time>
      </trkpt>
      <trkpt lat="43.23023" lon="5.50146">
        <ele>206.9</ele>
        <time>2025-10-19T14:37:08Z</time>
      </trkpt>
      <trkpt lat="43.23023" lon="5.50146">
        <ele>206.9</ele>
        <time>2025-10-19T14:37:09Z</time>
      </trkpt>
      <trkpt lat="43.23023" lon="5.50146">
        <ele>207</ele>
        <time>2025-10-19T14:37:10Z</time>
      </trkpt>
      <trkpt lat="43.23023" lon="5.50146">
        <ele>206.9</ele>
        <time>2025-10-19T14:37:11Z</time>
      </trkpt>
      <trkpt lat="43.23023" lon="5.50146">
        <ele>206.9</ele>
        <time>2025-10-19T14:37:12Z</time>
      </trkpt>
      <trkpt lat="43.23023" lon="5.50146">
        <ele>207</ele>
        <time>2025-10-19T14:37:13Z</time>
      </trkpt>
      <trkpt lat="43.23023" lon="5.50146">
        <ele>207</ele>
        <time>2025-10-19T14:37:14Z</time>
      </trkpt>
      <trkpt lat="43.23023" lon="5.50146">
        <ele>207</ele>
        <time>2025-10-19T14:37:15Z</time>
      </trkpt>
      <trkpt lat="43.23023" lon="5.50146">
        <ele>207</ele>
        <time>2025-10-19T14:37:16Z</time>
      </trkpt>
      <trkpt lat="43.23023" lon="5.50146">
        <ele>206.9</ele>
        <time>2025-10-19T14:37:17Z</time>
      </trkpt>
      <trkpt lat="43.23023" lon="5.50146">
        <ele>206.8</ele>
        <time>2025-10-19T14:37:18Z</time>
      </trkpt>
      <trkpt lat="43.23023" lon="5.50146">
        <ele>206.7</ele>
        <time>2025-10-19T14:37:19Z</time>
      </trkpt>
      <trkpt lat="43.23023" lon="5.50146">
        <ele>206.7</ele>
        <time>2025-10-19T14:37:20Z</time>
      </trkpt>
      <trkpt lat="43.23023" lon="5.50146">
        <ele>206.8</ele>
        <time>2025-10-19T14:37:21Z</time>
      </trkpt>
      <trkpt lat="43.23023" lon="5.50146">
        <ele>206.8</ele>
        <time>2025-10-19T14:37:22Z</time>
      </trkpt>
      <trkpt lat="43.23023" lon="5.50146">
        <ele>206.9</ele>
        <time>2025-10-19T14:37:23Z</time>
      </trkpt>
      <trkpt lat="43.23023" lon="5.50146">
        <ele>206.8</ele>
        <time>2025-10-19T14:37:24Z</time>
      </trkpt>
      <trkpt lat="43.23023" lon="5.50146">
        <ele>206.8</ele>
        <time>2025-10-19T14:37:25Z</time>
      </trkpt>
      <trkpt lat="43.23023" lon="5.50146">
        <ele>206.8</ele>
        <time>2025-10-19T14:37:26Z</time>
      </trkpt>
      <trkpt lat="43.23023" lon="5.50146">
        <ele>206.8</ele>
        <time>2025-10-19T14:37:27Z</time>
      </trkpt>
      <trkpt lat="43.23023" lon="5.50146">
        <ele>206.8</ele>
        <time>2025-10-19T14:37:28Z</time>
      </trkpt>
      <trkpt lat="43.23023" lon="5.50146">
        <ele>206.7</ele>
        <time>2025-10-19T14:37:29Z</time>
      </trkpt>
      <trkpt lat="43.23023" lon="5.50146">
        <ele>206.7</ele>
        <time>2025-10-19T14:37:30Z</time>
      </trkpt>
      <trkpt lat="43.23023" lon="5.50147">
        <ele>206.7</ele>
        <time>2025-10-19T14:37:31Z</time>
      </trkpt>
      <trkpt lat="43.23023" lon="5.50147">
        <ele>206.7</ele>
        <time>2025-10-19T14:37:32Z</time>
      </trkpt>
      <trkpt lat="43.23023" lon="5.50146">
        <ele>206.7</ele>
        <time>2025-10-19T14:37:33Z</time>
      </trkpt>
      <trkpt lat="43.23023" lon="5.50146">
        <ele>206.7</ele>
        <time>2025-10-19T14:37:34Z</time>
      </trkpt>
      <trkpt lat="43.23023" lon="5.50146">
        <ele>206.7</ele>
        <time>2025-10-19T14:37:35Z</time>
      </trkpt>
      <trkpt lat="43.23023" lon="5.50146">
        <ele>206.7</ele>
        <time>2025-10-19T14:37:36Z</time>
      </trkpt>
      <trkpt lat="43.23023" lon="5.50146">
        <ele>206.7</ele>
        <time>2025-10-19T14:37:37Z</time>
      </trkpt>
      <trkpt lat="43.23023" lon="5.50146">
        <ele>206.6</ele>
        <time>2025-10-19T14:37:38Z</time>
      </trkpt>
      <trkpt lat="43.23023" lon="5.50146">
        <ele>206.7</ele>
        <time>2025-10-19T14:37:39Z</time>
      </trkpt>
      <trkpt lat="43.23023" lon="5.50146">
        <ele>206.6</ele>
        <time>2025-10-19T14:37:40Z</time>
      </trkpt>
      <trkpt lat="43.23023" lon="5.50146">
        <ele>206.6</ele>
        <time>2025-10-19T14:37:41Z</time>
      </trkpt>
      <trkpt lat="43.23022" lon="5.50145">
        <ele>206.6</ele>
        <time>2025-10-19T14:37:42Z</time>
      </trkpt>
      <trkpt lat="43.23022" lon="5.50145">
        <ele>206.6</ele>
        <time>2025-10-19T14:37:43Z</time>
      </trkpt>
      <trkpt lat="43.23022" lon="5.50145">
        <ele>206.6</ele>
        <time>2025-10-19T14:37:44Z</time>
      </trkpt>
      <trkpt lat="43.23022" lon="5.50145">
        <ele>206.6</ele>
        <time>2025-10-19T14:37:45Z</time>
      </trkpt>
      <trkpt lat="43.23022" lon="5.50145">
        <ele>206.6</ele>
        <time>2025-10-19T14:37:46Z</time>
      </trkpt>
      <trkpt lat="43.23022" lon="5.50145">
        <ele>206.6</ele>
        <time>2025-10-19T14:37:47Z</time>
      </trkpt>
      <trkpt lat="43.23022" lon="5.50145">
        <ele>206.6</ele>
        <time>2025-10-19T14:37:48Z</time>
      </trkpt>
      <trkpt lat="43.23022" lon="5.50145">
        <ele>206.6</ele>
        <time>2025-10-19T14:37:49Z</time>
      </trkpt>
      <trkpt lat="43.23022" lon="5.50145">
        <ele>206.6</ele>
        <time>2025-10-19T14:37:50Z</time>
      </trkpt>
      <trkpt lat="43.23023" lon="5.50145">
        <ele>206.5</ele>
        <time>2025-10-19T14:37:51Z</time>
      </trkpt>
      <trkpt lat="43.23023" lon="5.50145">
        <ele>206.5</ele>
        <time>2025-10-19T14:37:52Z</time>
      </trkpt>
      <trkpt lat="43.23023" lon="5.50146">
        <ele>206.4</ele>
        <time>2025-10-19T14:37:53Z</time>
      </trkpt>
      <trkpt lat="43.23023" lon="5.50146">
        <ele>206.4</ele>
        <time>2025-10-19T14:37:54Z</time>
      </trkpt>
      <trkpt lat="43.23023" lon="5.50145">
        <ele>206.4</ele>
        <time>2025-10-19T14:37:55Z</time>
      </trkpt>
      <trkpt lat="43.23023" lon="5.50145">
        <ele>206.5</ele>
        <time>2025-10-19T14:37:56Z</time>
      </trkpt>
      <trkpt lat="43.23022" lon="5.50145">
        <ele>206.5</ele>
        <time>2025-10-19T14:37:57Z</time>
      </trkpt>
      <trkpt lat="43.23022" lon="5.50145">
        <ele>206.5</ele>
        <time>2025-10-19T14:37:58Z</time>
      </trkpt>
      <trkpt lat="43.23022" lon="5.50145">
        <ele>206.5</ele>
        <time>2025-10-19T14:37:59Z</time>
      </trkpt>
      <trkpt lat="43.23022" lon="5.50145">
        <ele>206.5</ele>
        <time>2025-10-19T14:38:00Z</time>
      </trkpt>
      <trkpt lat="43.23022" lon="5.50144">
        <ele>206.5</ele>
        <time>2025-10-19T14:38:01Z</time>
      </trkpt>
      <trkpt lat="43.23022" lon="5.50144">
        <ele>206.6</ele>
        <time>2025-10-19T14:38:02Z</time>
      </trkpt>
      <trkpt lat="43.23023" lon="5.50144">
        <ele>206.6</ele>
        <time>2025-10-19T14:38:03Z</time>
      </trkpt>
      <trkpt lat="43.23023" lon="5.50144">
        <ele>206.5</ele>
        <time>2025-10-19T14:38:04Z</time>
      </trkpt>
      <trkpt lat="43.23022" lon="5.50144">
        <ele>206.5</ele>
        <time>2025-10-19T14:38:05Z</time>
      </trkpt>
      <trkpt lat="43.23022" lon="5.50143">
        <ele>206.5</ele>
        <time>2025-10-19T14:38:06Z</time>
      </trkpt>
      <trkpt lat="43.23022" lon="5.50143">
        <ele>206.5</ele>
        <time>2025-10-19T14:38:07Z</time>
      </trkpt>
      <trkpt lat="43.23022" lon="5.50143">
        <ele>206.4</ele>
        <time>2025-10-19T14:38:08Z</time>
      </trkpt>
      <trkpt lat="43.23022" lon="5.50143">
        <ele>206.4</ele>
        <time>2025-10-19T14:38:09Z</time>
      </trkpt>
      <trkpt lat="43.23022" lon="5.50143">
        <ele>206.5</ele>
        <time>2025-10-19T14:38:10Z</time>
      </trkpt>
      <trkpt lat="43.23022" lon="5.50143">
        <ele>206.5</ele>
        <time>2025-10-19T14:38:11Z</time>
      </trkpt>
      <trkpt lat="43.23022" lon="5.50143">
        <ele>206.6</ele>
        <time>2025-10-19T14:38:12Z</time>
      </trkpt>
      <trkpt lat="43.23022" lon="5.50143">
        <ele>206.7</ele>
        <time>2025-10-19T14:38:13Z</time>
      </trkpt>
      <trkpt lat="43.23022" lon="5.50143">
        <ele>206.8</ele>
        <time>2025-10-19T14:38:14Z</time>
      </trkpt>
      <trkpt lat="43.23022" lon="5.50143">
        <ele>206.8</ele>
        <time>2025-10-19T14:38:15Z</time>
      </trkpt>
      <trkpt lat="43.23022" lon="5.50143">
        <ele>206.9</ele>
        <time>2025-10-19T14:38:16Z</time>
      </trkpt>
      <trkpt lat="43.23022" lon="5.50143">
        <ele>206.9</ele>
        <time>2025-10-19T14:38:17Z</time>
      </trkpt>
      <trkpt lat="43.23022" lon="5.50143">
        <ele>206.8</ele>
        <time>2025-10-19T14:38:18Z</time>
      </trkpt>
      <trkpt lat="43.23022" lon="5.50143">
        <ele>206.8</ele>
        <time>2025-10-19T14:38:19Z</time>
      </trkpt>
      <trkpt lat="43.23022" lon="5.50143">
        <ele>206.8</ele>
        <time>2025-10-19T14:38:20Z</time>
      </trkpt>
      <trkpt lat="43.23022" lon="5.50143">
        <ele>206.8</ele>
        <time>2025-10-19T14:38:21Z</time>
      </trkpt>
      <trkpt lat="43.23022" lon="5.50143">
        <ele>206.7</ele>
        <time>2025-10-19T14:38:22Z</time>
      </trkpt>
      <trkpt lat="43.23022" lon="5.50143">
        <ele>206.7</ele>
        <time>2025-10-19T14:38:23Z</time>
      </trkpt>
      <trkpt lat="43.23022" lon="5.50142">
        <ele>206.7</ele>
        <time>2025-10-19T14:38:24Z</time>
      </trkpt>
      <trkpt lat="43.23022" lon="5.50142">
        <ele>206.7</ele>
        <time>2025-10-19T14:38:25Z</time>
      </trkpt>
      <trkpt lat="43.23022" lon="5.50142">
        <ele>206.8</ele>
        <time>2025-10-19T14:38:26Z</time>
      </trkpt>
      <trkpt lat="43.23022" lon="5.50142">
        <ele>206.7</ele>
        <time>2025-10-19T14:38:27Z</time>
      </trkpt>
      <trkpt lat="43.23022" lon="5.50142">
        <ele>206.6</ele>
        <time>2025-10-19T14:38:28Z</time>
      </trkpt>
      <trkpt lat="43.23022" lon="5.50142">
        <ele>206.6</ele>
        <time>2025-10-19T14:38:29Z</time>
      </trkpt>
      <trkpt lat="43.23022" lon="5.50142">
        <ele>206.5</ele>
        <time>2025-10-19T14:38:30Z</time>
      </trkpt>
      <trkpt lat="43.23022" lon="5.50142">
        <ele>206.5</ele>
        <time>2025-10-19T14:38:31Z</time>
      </trkpt>
      <trkpt lat="43.23022" lon="5.50142">
        <ele>206.4</ele>
        <time>2025-10-19T14:38:32Z</time>
      </trkpt>
      <trkpt lat="43.23022" lon="5.50142">
        <ele>206.4</ele>
        <time>2025-10-19T14:38:33Z</time>
      </trkpt>
      <trkpt lat="43.23022" lon="5.50142">
        <ele>206.4</ele>
        <time>2025-10-19T14:38:34Z</time>
      </trkpt>
      <trkpt lat="43.23023" lon="5.50142">
        <ele>206.5</ele>
        <time>2025-10-19T14:38:35Z</time>
      </trkpt>
      <trkpt lat="43.23022" lon="5.50142">
        <ele>206.5</ele>
        <time>2025-10-19T14:38:36Z</time>
      </trkpt>
      <trkpt lat="43.23023" lon="5.50142">
        <ele>206.5</ele>
        <time>2025-10-19T14:38:37Z</time>
      </trkpt>
      <trkpt lat="43.23022" lon="5.50142">
        <ele>206.6</ele>
        <time>2025-10-19T14:38:38Z</time>
      </trkpt>
      <trkpt lat="43.23022" lon="5.50142">
        <ele>206.6</ele>
        <time>2025-10-19T14:38:39Z</time>
      </trkpt>
      <trkpt lat="43.23022" lon="5.50142">
        <ele>206.6</ele>
        <time>2025-10-19T14:38:40Z</time>
      </trkpt>
      <trkpt lat="43.23022" lon="5.50142">
        <ele>206.6</ele>
        <time>2025-10-19T14:38:41Z</time>
      </trkpt>
      <trkpt lat="43.23022" lon="5.50142">
        <ele>206.6</ele>
        <time>2025-10-19T14:38:42Z</time>
      </trkpt>
      <trkpt lat="43.23022" lon="5.50142">
        <ele>206.7</ele>
        <time>2025-10-19T14:38:43Z</time>
      </trkpt>
      <trkpt lat="43.23022" lon="5.50142">
        <ele>206.7</ele>
        <time>2025-10-19T14:38:44Z</time>
      </trkpt>
      <trkpt lat="43.23022" lon="5.50142">
        <ele>206.7</ele>
        <time>2025-10-19T14:38:45Z</time>
      </trkpt>
      <trkpt lat="43.23022" lon="5.50142">
        <ele>206.7</ele>
        <time>2025-10-19T14:38:46Z</time>
      </trkpt>
      <trkpt lat="43.23022" lon="5.50142">
        <ele>206.8</ele>
        <time>2025-10-19T14:38:47Z</time>
      </trkpt>
      <trkpt lat="43.23022" lon="5.50142">
        <ele>206.9</ele>
        <time>2025-10-19T14:38:48Z</time>
      </trkpt>
      <trkpt lat="43.23022" lon="5.50142">
        <ele>207</ele>
        <time>2025-10-19T14:38:49Z</time>
      </trkpt>
      <trkpt lat="43.23022" lon="5.50142">
        <ele>207</ele>
        <time>2025-10-19T14:38:50Z</time>
      </trkpt>
      <trkpt lat="43.23022" lon="5.50142">
        <ele>207</ele>
        <time>2025-10-19T14:38:51Z</time>
      </trkpt>
      <trkpt lat="43.23022" lon="5.50142">
        <ele>207</ele>
        <time>2025-10-19T14:38:52Z</time>
      </trkpt>
      <trkpt lat="43.23022" lon="5.50142">
        <ele>207</ele>
        <time>2025-10-19T14:38:53Z</time>
      </trkpt>
      <trkpt lat="43.23022" lon="5.50142">
        <ele>206.9</ele>
        <time>2025-10-19T14:38:54Z</time>
      </trkpt>
      <trkpt lat="43.23022" lon="5.50142">
        <ele>206.9</ele>
        <time>2025-10-19T14:38:55Z</time>
      </trkpt>
      <trkpt lat="43.23022" lon="5.50142">
        <ele>206.9</ele>
        <time>2025-10-19T14:38:56Z</time>
      </trkpt>
      <trkpt lat="43.23022" lon="5.50142">
        <ele>206.9</ele>
        <time>2025-10-19T14:38:57Z</time>
      </trkpt>
      <trkpt lat="43.23022" lon="5.50142">
        <ele>206.9</ele>
        <time>2025-10-19T14:38:58Z</time>
      </trkpt>
      <trkpt lat="43.23023" lon="5.50142">
        <ele>206.9</ele>
        <time>2025-10-19T14:38:59Z</time>
      </trkpt>
      <trkpt lat="43.23023" lon="5.50142">
        <ele>206.8</ele>
        <time>2025-10-19T14:39:00Z</time>
      </trkpt>
      <trkpt lat="43.23023" lon="5.50142">
        <ele>206.7</ele>
        <time>2025-10-19T14:39:01Z</time>
      </trkpt>
      <trkpt lat="43.23023" lon="5.50142">
        <ele>206.7</ele>
        <time>2025-10-19T14:39:02Z</time>
      </trkpt>
      <trkpt lat="43.23023" lon="5.50143">
        <ele>206.6</ele>
        <time>2025-10-19T14:39:03Z</time>
      </trkpt>
      <trkpt lat="43.23023" lon="5.50143">
        <ele>206.6</ele>
        <time>2025-10-19T14:39:04Z</time>
      </trkpt>
      <trkpt lat="43.23023" lon="5.50143">
        <ele>206.6</ele>
        <time>2025-10-19T14:39:05Z</time>
      </trkpt>
      <trkpt lat="43.23023" lon="5.50143">
        <ele>206.6</ele>
        <time>2025-10-19T14:39:06Z</time>
      </trkpt>
      <trkpt lat="43.23023" lon="5.50143">
        <ele>206.6</ele>
        <time>2025-10-19T14:39:07Z</time>
      </trkpt>
      <trkpt lat="43.23023" lon="5.50143">
        <ele>206.6</ele>
        <time>2025-10-19T14:39:08Z</time>
      </trkpt>
      <trkpt lat="43.23024" lon="5.50143">
        <ele>206.5</ele>
        <time>2025-10-19T14:39:09Z</time>
      </trkpt>
      <trkpt lat="43.23024" lon="5.50143">
        <ele>206.5</ele>
        <time>2025-10-19T14:39:10Z</time>
      </trkpt>
      <trkpt lat="43.23025" lon="5.50142">
        <ele>206.4</ele>
        <time>2025-10-19T14:39:11Z</time>
      </trkpt>
      <trkpt lat="43.23025" lon="5.50142">
        <ele>206.4</ele>
        <time>2025-10-19T14:39:12Z</time>
      </trkpt>
      <trkpt lat="43.23026" lon="5.50142">
        <ele>206.3</ele>
        <time>2025-10-19T14:39:13Z</time>
      </trkpt>
      <trkpt lat="43.23027" lon="5.50142">
        <ele>206.2</ele>
        <time>2025-10-19T14:39:14Z</time>
      </trkpt>
      <trkpt lat="43.23028" lon="5.50141">
        <ele>206.1</ele>
        <time>2025-10-19T14:39:15Z</time>
      </trkpt>
      <trkpt lat="43.23028" lon="5.50141">
        <ele>205.9</ele>
        <time>2025-10-19T14:39:16Z</time>
      </trkpt>
      <trkpt lat="43.23029" lon="5.50141">
        <ele>205.8</ele>
        <time>2025-10-19T14:39:17Z</time>
      </trkpt>
      <trkpt lat="43.2303" lon="5.50141">
        <ele>205.7</ele>
        <time>2025-10-19T14:39:18Z</time>
      </trkpt>
      <trkpt lat="43.2303" lon="5.5014">
        <ele>205.6</ele>
        <time>2025-10-19T14:39:19Z</time>
      </trkpt>
      <trkpt lat="43.23031" lon="5.50139">
        <ele>205.6</ele>
        <time>2025-10-19T14:39:20Z</time>
      </trkpt>
      <trkpt lat="43.23032" lon="5.50139">
        <ele>205.5</ele>
        <time>2025-10-19T14:39:21Z</time>
      </trkpt>
      <trkpt lat="43.23033" lon="5.50138">
        <ele>205.4</ele>
        <time>2025-10-19T14:39:22Z</time>
      </trkpt>
      <trkpt lat="43.23034" lon="5.50138">
        <ele>205.3</ele>
        <time>2025-10-19T14:39:23Z</time>
      </trkpt>
      <trkpt lat="43.23034" lon="5.50137">
        <ele>205.2</ele>
        <time>2025-10-19T14:39:24Z</time>
      </trkpt>
      <trkpt lat="43.23035" lon="5.50137">
        <ele>205.1</ele>
        <time>2025-10-19T14:39:25Z</time>
      </trkpt>
      <trkpt lat="43.23036" lon="5.50136">
        <ele>204.9</ele>
        <time>2025-10-19T14:39:26Z</time>
      </trkpt>
      <trkpt lat="43.23037" lon="5.50136">
        <ele>204.8</ele>
        <time>2025-10-19T14:39:27Z</time>
      </trkpt>
      <trkpt lat="43.23038" lon="5.50136">
        <ele>204.7</ele>
        <time>2025-10-19T14:39:28Z</time>
      </trkpt>
      <trkpt lat="43.23038" lon="5.50135">
        <ele>204.5</ele>
        <time>2025-10-19T14:39:29Z</time>
      </trkpt>
      <trkpt lat="43.23039" lon="5.50135">
        <ele>204.3</ele>
        <time>2025-10-19T14:39:30Z</time>
      </trkpt>
      <trkpt lat="43.2304" lon="5.50135">
        <ele>204.2</ele>
        <time>2025-10-19T14:39:31Z</time>
      </trkpt>
      <trkpt lat="43.23041" lon="5.50134">
        <ele>204</ele>
        <time>2025-10-19T14:39:32Z</time>
      </trkpt>
      <trkpt lat="43.23041" lon="5.50134">
        <ele>203.8</ele>
        <time>2025-10-19T14:39:33Z</time>
      </trkpt>
      <trkpt lat="43.23042" lon="5.50134">
        <ele>203.7</ele>
        <time>2025-10-19T14:39:34Z</time>
      </trkpt>
      <trkpt lat="43.23043" lon="5.50134">
        <ele>203.5</ele>
        <time>2025-10-19T14:39:35Z</time>
      </trkpt>
      <trkpt lat="43.23044" lon="5.50134">
        <ele>203.5</ele>
        <time>2025-10-19T14:39:36Z</time>
      </trkpt>
      <trkpt lat="43.23045" lon="5.50133">
        <ele>203.3</ele>
        <time>2025-10-19T14:39:37Z</time>
      </trkpt>
      <trkpt lat="43.23045" lon="5.50133">
        <ele>203.1</ele>
        <time>2025-10-19T14:39:38Z</time>
      </trkpt>
      <trkpt lat="43.23046" lon="5.50132">
        <ele>202.9</ele>
        <time>2025-10-19T14:39:39Z</time>
      </trkpt>
      <trkpt lat="43.23047" lon="5.50132">
        <ele>202.7</ele>
        <time>2025-10-19T14:39:40Z</time>
      </trkpt>
      <trkpt lat="43.23048" lon="5.50131">
        <ele>202.5</ele>
        <time>2025-10-19T14:39:41Z</time>
      </trkpt>
      <trkpt lat="43.23049" lon="5.50131">
        <ele>202.5</ele>
        <time>2025-10-19T14:39:42Z</time>
      </trkpt>
      <trkpt lat="43.2305" lon="5.5013">
        <ele>202.3</ele>
        <time>2025-10-19T14:39:43Z</time>
      </trkpt>
      <trkpt lat="43.2305" lon="5.5013">
        <ele>202.1</ele>
        <time>2025-10-19T14:39:44Z</time>
      </trkpt>
      <trkpt lat="43.23051" lon="5.50129">
        <ele>202</ele>
        <time>2025-10-19T14:39:45Z</time>
      </trkpt>
      <trkpt lat="43.23051" lon="5.50129">
        <ele>201.9</ele>
        <time>2025-10-19T14:39:46Z</time>
      </trkpt>
      <trkpt lat="43.23052" lon="5.50129">
        <ele>201.8</ele>
        <time>2025-10-19T14:39:47Z</time>
      </trkpt>
      <trkpt lat="43.23052" lon="5.50129">
        <ele>201.7</ele>
        <time>2025-10-19T14:39:48Z</time>
      </trkpt>
      <trkpt lat="43.23053" lon="5.50129">
        <ele>201.6</ele>
        <time>2025-10-19T14:39:49Z</time>
      </trkpt>
      <trkpt lat="43.23054" lon="5.50129">
        <ele>201.5</ele>
        <time>2025-10-19T14:39:50Z</time>
      </trkpt>
      <trkpt lat="43.23055" lon="5.50129">
        <ele>201.5</ele>
        <time>2025-10-19T14:39:51Z</time>
      </trkpt>
      <trkpt lat="43.23055" lon="5.50128">
        <ele>201.4</ele>
        <time>2025-10-19T14:39:52Z</time>
      </trkpt>
      <trkpt lat="43.23056" lon="5.50128">
        <ele>201.4</ele>
        <time>2025-10-19T14:39:53Z</time>
      </trkpt>
      <trkpt lat="43.23057" lon="5.50128">
        <ele>201.2</ele>
        <time>2025-10-19T14:39:54Z</time>
      </trkpt>
      <trkpt lat="43.23057" lon="5.50128">
        <ele>201.1</ele>
        <time>2025-10-19T14:39:55Z</time>
      </trkpt>
      <trkpt lat="43.23058" lon="5.50128">
        <ele>201</ele>
        <time>2025-10-19T14:39:56Z</time>
      </trkpt>
      <trkpt lat="43.23058" lon="5.50127">
        <ele>200.9</ele>
        <time>2025-10-19T14:39:57Z</time>
      </trkpt>
      <trkpt lat="43.23059" lon="5.50127">
        <ele>200.8</ele>
        <time>2025-10-19T14:39:58Z</time>
      </trkpt>
      <trkpt lat="43.23059" lon="5.50126">
        <ele>200.7</ele>
        <time>2025-10-19T14:39:59Z</time>
      </trkpt>
      <trkpt lat="43.2306" lon="5.50126">
        <ele>200.6</ele>
        <time>2025-10-19T14:40:00Z</time>
      </trkpt>
      <trkpt lat="43.23061" lon="5.50125">
        <ele>200.5</ele>
        <time>2025-10-19T14:40:01Z</time>
      </trkpt>
      <trkpt lat="43.23061" lon="5.50124">
        <ele>200.4</ele>
        <time>2025-10-19T14:40:02Z</time>
      </trkpt>
      <trkpt lat="43.23062" lon="5.50124">
        <ele>200.3</ele>
        <time>2025-10-19T14:40:03Z</time>
      </trkpt>
      <trkpt lat="43.23063" lon="5.50123">
        <ele>200.2</ele>
        <time>2025-10-19T14:40:04Z</time>
      </trkpt>
      <trkpt lat="43.23063" lon="5.50122">
        <ele>200.2</ele>
        <time>2025-10-19T14:40:05Z</time>
      </trkpt>
      <trkpt lat="43.23064" lon="5.50122">
        <ele>200.1</ele>
        <time>2025-10-19T14:40:06Z</time>
      </trkpt>
      <trkpt lat="43.23065" lon="5.50122">
        <ele>200</ele>
        <time>2025-10-19T14:40:07Z</time>
      </trkpt>
      <trkpt lat="43.23065" lon="5.50122">
        <ele>200</ele>
        <time>2025-10-19T14:40:08Z</time>
      </trkpt>
      <trkpt lat="43.23065" lon="5.50121">
        <ele>199.9</ele>
        <time>2025-10-19T14:40:09Z</time>
      </trkpt>
      <trkpt lat="43.23066" lon="5.50121">
        <ele>199.8</ele>
        <time>2025-10-19T14:40:10Z</time>
      </trkpt>
      <trkpt lat="43.23066" lon="5.50121">
        <ele>199.7</ele>
        <time>2025-10-19T14:40:11Z</time>
      </trkpt>
      <trkpt lat="43.23067" lon="5.50121">
        <ele>199.6</ele>
        <time>2025-10-19T14:40:12Z</time>
      </trkpt>
      <trkpt lat="43.23068" lon="5.5012">
        <ele>199.6</ele>
        <time>2025-10-19T14:40:13Z</time>
      </trkpt>
      <trkpt lat="43.23068" lon="5.5012">
        <ele>199.4</ele>
        <time>2025-10-19T14:40:14Z</time>
      </trkpt>
      <trkpt lat="43.23069" lon="5.5012">
        <ele>199.3</ele>
        <time>2025-10-19T14:40:15Z</time>
      </trkpt>
      <trkpt lat="43.23069" lon="5.5012">
        <ele>199.2</ele>
        <time>2025-10-19T14:40:16Z</time>
      </trkpt>
      <trkpt lat="43.2307" lon="5.5012">
        <ele>199.1</ele>
        <time>2025-10-19T14:40:17Z</time>
      </trkpt>
      <trkpt lat="43.2307" lon="5.50119">
        <ele>199</ele>
        <time>2025-10-19T14:40:18Z</time>
      </trkpt>
      <trkpt lat="43.23071" lon="5.50118">
        <ele>198.7</ele>
        <time>2025-10-19T14:40:19Z</time>
      </trkpt>
      <trkpt lat="43.23071" lon="5.50118">
        <ele>198.5</ele>
        <time>2025-10-19T14:40:20Z</time>
      </trkpt>
      <trkpt lat="43.23072" lon="5.50117">
        <ele>198.3</ele>
        <time>2025-10-19T14:40:21Z</time>
      </trkpt>
      <trkpt lat="43.23072" lon="5.50117">
        <ele>198.2</ele>
        <time>2025-10-19T14:40:22Z</time>
      </trkpt>
      <trkpt lat="43.23073" lon="5.50117">
        <ele>198</ele>
        <time>2025-10-19T14:40:23Z</time>
      </trkpt>
      <trkpt lat="43.23074" lon="5.50116">
        <ele>197.9</ele>
        <time>2025-10-19T14:40:24Z</time>
      </trkpt>
      <trkpt lat="43.23074" lon="5.50115">
        <ele>197.7</ele>
        <time>2025-10-19T14:40:25Z</time>
      </trkpt>
      <trkpt lat="43.23075" lon="5.50114">
        <ele>197.6</ele>
        <time>2025-10-19T14:40:26Z</time>
      </trkpt>
      <trkpt lat="43.23076" lon="5.50113">
        <ele>197.4</ele>
        <time>2025-10-19T14:40:27Z</time>
      </trkpt>
      <trkpt lat="43.23076" lon="5.50113">
        <ele>197.3</ele>
        <time>2025-10-19T14:40:28Z</time>
      </trkpt>
      <trkpt lat="43.23077" lon="5.50113">
        <ele>197.1</ele>
        <time>2025-10-19T14:40:29Z</time>
      </trkpt>
      <trkpt lat="43.23078" lon="5.50113">
        <ele>197</ele>
        <time>2025-10-19T14:40:30Z</time>
      </trkpt>
      <trkpt lat="43.23078" lon="5.50113">
        <ele>196.9</ele>
        <time>2025-10-19T14:40:31Z</time>
      </trkpt>
      <trkpt lat="43.23079" lon="5.50112">
        <ele>196.6</ele>
        <time>2025-10-19T14:40:32Z</time>
      </trkpt>
      <trkpt lat="43.2308" lon="5.50112">
        <ele>196.5</ele>
        <time>2025-10-19T14:40:33Z</time>
      </trkpt>
      <trkpt lat="43.2308" lon="5.50112">
        <ele>196.3</ele>
        <time>2025-10-19T14:40:34Z</time>
      </trkpt>
      <trkpt lat="43.2308" lon="5.50111">
        <ele>196.1</ele>
        <time>2025-10-19T14:40:35Z</time>
      </trkpt>
      <trkpt lat="43.23081" lon="5.50111">
        <ele>196</ele>
        <time>2025-10-19T14:40:36Z</time>
      </trkpt>
      <trkpt lat="43.23081" lon="5.50111">
        <ele>195.8</ele>
        <time>2025-10-19T14:40:37Z</time>
      </trkpt>
      <trkpt lat="43.23082" lon="5.50111">
        <ele>195.6</ele>
        <time>2025-10-19T14:40:38Z</time>
      </trkpt>
      <trkpt lat="43.23082" lon="5.50111">
        <ele>195.3</ele>
        <time>2025-10-19T14:40:39Z</time>
      </trkpt>
      <trkpt lat="43.23083" lon="5.50111">
        <ele>195.2</ele>
        <time>2025-10-19T14:40:40Z</time>
      </trkpt>
      <trkpt lat="43.23083" lon="5.50111">
        <ele>195</ele>
        <time>2025-10-19T14:40:41Z</time>
      </trkpt>
      <trkpt lat="43.23084" lon="5.5011">
        <ele>194.9</ele>
        <time>2025-10-19T14:40:42Z</time>
      </trkpt>
      <trkpt lat="43.23084" lon="5.5011">
        <ele>194.8</ele>
        <time>2025-10-19T14:40:43Z</time>
      </trkpt>
      <trkpt lat="43.23085" lon="5.5011">
        <ele>194.6</ele>
        <time>2025-10-19T14:40:44Z</time>
      </trkpt>
      <trkpt lat="43.23085" lon="5.5011">
        <ele>194.5</ele>
        <time>2025-10-19T14:40:45Z</time>
      </trkpt>
      <trkpt lat="43.23086" lon="5.5011">
        <ele>194.3</ele>
        <time>2025-10-19T14:40:46Z</time>
      </trkpt>
      <trkpt lat="43.23087" lon="5.50109">
        <ele>194.2</ele>
        <time>2025-10-19T14:40:47Z</time>
      </trkpt>
      <trkpt lat="43.23087" lon="5.50109">
        <ele>194</ele>
        <time>2025-10-19T14:40:48Z</time>
      </trkpt>
      <trkpt lat="43.23088" lon="5.50109">
        <ele>193.9</ele>
        <time>2025-10-19T14:40:49Z</time>
      </trkpt>
      <trkpt lat="43.23088" lon="5.50109">
        <ele>193.8</ele>
        <time>2025-10-19T14:40:50Z</time>
      </trkpt>
      <trkpt lat="43.23089" lon="5.50109">
        <ele>193.7</ele>
        <time>2025-10-19T14:40:51Z</time>
      </trkpt>
      <trkpt lat="43.2309" lon="5.50109">
        <ele>193.6</ele>
        <time>2025-10-19T14:40:52Z</time>
      </trkpt>
      <trkpt lat="43.2309" lon="5.50109">
        <ele>193.5</ele>
        <time>2025-10-19T14:40:53Z</time>
      </trkpt>
      <trkpt lat="43.23091" lon="5.50109">
        <ele>193.4</ele>
        <time>2025-10-19T14:40:54Z</time>
      </trkpt>
      <trkpt lat="43.23092" lon="5.50109">
        <ele>193.2</ele>
        <time>2025-10-19T14:40:55Z</time>
      </trkpt>
      <trkpt lat="43.23092" lon="5.50109">
        <ele>193</ele>
        <time>2025-10-19T14:40:56Z</time>
      </trkpt>
      <trkpt lat="43.23093" lon="5.50109">
        <ele>192.9</ele>
        <time>2025-10-19T14:40:57Z</time>
      </trkpt>
      <trkpt lat="43.23093" lon="5.50109">
        <ele>192.8</ele>
        <time>2025-10-19T14:40:58Z</time>
      </trkpt>
      <trkpt lat="43.23094" lon="5.50109">
        <ele>192.6</ele>
        <time>2025-10-19T14:40:59Z</time>
      </trkpt>
      <trkpt lat="43.23094" lon="5.50109">
        <ele>192.4</ele>
        <time>2025-10-19T14:41:00Z</time>
      </trkpt>
      <trkpt lat="43.23094" lon="5.50109">
        <ele>192.2</ele>
        <time>2025-10-19T14:41:01Z</time>
      </trkpt>
      <trkpt lat="43.23095" lon="5.5011">
        <ele>192.1</ele>
        <time>2025-10-19T14:41:02Z</time>
      </trkpt>
      <trkpt lat="43.23095" lon="5.5011">
        <ele>191.9</ele>
        <time>2025-10-19T14:41:03Z</time>
      </trkpt>
      <trkpt lat="43.23096" lon="5.5011">
        <ele>191.7</ele>
        <time>2025-10-19T14:41:04Z</time>
      </trkpt>
      <trkpt lat="43.23096" lon="5.50109">
        <ele>191.5</ele>
        <time>2025-10-19T14:41:05Z</time>
      </trkpt>
      <trkpt lat="43.23097" lon="5.50109">
        <ele>191.3</ele>
        <time>2025-10-19T14:41:06Z</time>
      </trkpt>
      <trkpt lat="43.23098" lon="5.50109">
        <ele>191.1</ele>
        <time>2025-10-19T14:41:07Z</time>
      </trkpt>
      <trkpt lat="43.23099" lon="5.50109">
        <ele>191</ele>
        <time>2025-10-19T14:41:08Z</time>
      </trkpt>
      <trkpt lat="43.23099" lon="5.50109">
        <ele>190.8</ele>
        <time>2025-10-19T14:41:09Z</time>
      </trkpt>
      <trkpt lat="43.231" lon="5.50109">
        <ele>190.7</ele>
        <time>2025-10-19T14:41:10Z</time>
      </trkpt>
      <trkpt lat="43.231" lon="5.5011">
        <ele>190.6</ele>
        <time>2025-10-19T14:41:11Z</time>
      </trkpt>
      <trkpt lat="43.231" lon="5.50111">
        <ele>190.5</ele>
        <time>2025-10-19T14:41:12Z</time>
      </trkpt>
      <trkpt lat="43.231" lon="5.50112">
        <ele>190.3</ele>
        <time>2025-10-19T14:41:13Z</time>
      </trkpt>
      <trkpt lat="43.231" lon="5.50112">
        <ele>190.2</ele>
        <time>2025-10-19T14:41:14Z</time>
      </trkpt>
      <trkpt lat="43.23101" lon="5.50113">
        <ele>190.1</ele>
        <time>2025-10-19T14:41:15Z</time>
      </trkpt>
      <trkpt lat="43.23102" lon="5.50113">
        <ele>190</ele>
        <time>2025-10-19T14:41:16Z</time>
      </trkpt>
      <trkpt lat="43.23102" lon="5.50114">
        <ele>189.9</ele>
        <time>2025-10-19T14:41:17Z</time>
      </trkpt>
      <trkpt lat="43.23102" lon="5.50114">
        <ele>189.8</ele>
        <time>2025-10-19T14:41:18Z</time>
      </trkpt>
      <trkpt lat="43.23102" lon="5.50115">
        <ele>189.7</ele>
        <time>2025-10-19T14:41:19Z</time>
      </trkpt>
      <trkpt lat="43.23103" lon="5.50115">
        <ele>189.6</ele>
        <time>2025-10-19T14:41:20Z</time>
      </trkpt>
      <trkpt lat="43.23103" lon="5.50115">
        <ele>189.3</ele>
        <time>2025-10-19T14:41:21Z</time>
      </trkpt>
      <trkpt lat="43.23103" lon="5.50115">
        <ele>189.1</ele>
        <time>2025-10-19T14:41:22Z</time>
      </trkpt>
      <trkpt lat="43.23104" lon="5.50116">
        <ele>188.9</ele>
        <time>2025-10-19T14:41:23Z</time>
      </trkpt>
      <trkpt lat="43.23104" lon="5.50116">
        <ele>188.8</ele>
        <time>2025-10-19T14:41:24Z</time>
      </trkpt>
      <trkpt lat="43.23104" lon="5.50116">
        <ele>188.7</ele>
        <time>2025-10-19T14:41:25Z</time>
      </trkpt>
      <trkpt lat="43.23105" lon="5.50117">
        <ele>188.7</ele>
        <time>2025-10-19T14:41:26Z</time>
      </trkpt>
      <trkpt lat="43.23105" lon="5.50118">
        <ele>188.5</ele>
        <time>2025-10-19T14:41:27Z</time>
      </trkpt>
      <trkpt lat="43.23106" lon="5.50118">
        <ele>188.4</ele>
        <time>2025-10-19T14:41:28Z</time>
      </trkpt>
      <trkpt lat="43.23106" lon="5.50119">
        <ele>188.3</ele>
        <time>2025-10-19T14:41:29Z</time>
      </trkpt>
      <trkpt lat="43.23106" lon="5.50119">
        <ele>188.2</ele>
        <time>2025-10-19T14:41:30Z</time>
      </trkpt>
      <trkpt lat="43.23106" lon="5.50119">
        <ele>188.1</ele>
        <time>2025-10-19T14:41:31Z</time>
      </trkpt>
      <trkpt lat="43.23107" lon="5.50119">
        <ele>187.9</ele>
        <time>2025-10-19T14:41:32Z</time>
      </trkpt>
      <trkpt lat="43.23107" lon="5.5012">
        <ele>187.7</ele>
        <time>2025-10-19T14:41:33Z</time>
      </trkpt>
      <trkpt lat="43.23107" lon="5.5012">
        <ele>187.6</ele>
        <time>2025-10-19T14:41:34Z</time>
      </trkpt>
      <trkpt lat="43.23107" lon="5.5012">
        <ele>187.5</ele>
        <time>2025-10-19T14:41:35Z</time>
      </trkpt>
      <trkpt lat="43.23107" lon="5.50121">
        <ele>187.3</ele>
        <time>2025-10-19T14:41:36Z</time>
      </trkpt>
      <trkpt lat="43.23108" lon="5.50121">
        <ele>187.2</ele>
        <time>2025-10-19T14:41:37Z</time>
      </trkpt>
      <trkpt lat="43.23108" lon="5.50122">
        <ele>186.9</ele>
        <time>2025-10-19T14:41:38Z</time>
      </trkpt>
      <trkpt lat="43.23109" lon="5.50123">
        <ele>186.8</ele>
        <time>2025-10-19T14:41:39Z</time>
      </trkpt>
      <trkpt lat="43.23109" lon="5.50124">
        <ele>186.8</ele>
        <time>2025-10-19T14:41:40Z</time>
      </trkpt>
      <trkpt lat="43.2311" lon="5.50124">
        <ele>186.7</ele>
        <time>2025-10-19T14:41:41Z</time>
      </trkpt>
      <trkpt lat="43.23111" lon="5.50124">
        <ele>186.6</ele>
        <time>2025-10-19T14:41:42Z</time>
      </trkpt>
      <trkpt lat="43.23111" lon="5.50124">
        <ele>186.4</ele>
        <time>2025-10-19T14:41:43Z</time>
      </trkpt>
      <trkpt lat="43.23111" lon="5.50125">
        <ele>186.2</ele>
        <time>2025-10-19T14:41:44Z</time>
      </trkpt>
      <trkpt lat="43.23111" lon="5.50126">
        <ele>186.1</ele>
        <time>2025-10-19T14:41:45Z</time>
      </trkpt>
      <trkpt lat="43.23112" lon="5.50127">
        <ele>185.9</ele>
        <time>2025-10-19T14:41:46Z</time>
      </trkpt>
      <trkpt lat="43.23112" lon="5.50128">
        <ele>185.8</ele>
        <time>2025-10-19T14:41:47Z</time>
      </trkpt>
      <trkpt lat="43.23113" lon="5.50128">
        <ele>185.7</ele>
        <time>2025-10-19T14:41:48Z</time>
      </trkpt>
      <trkpt lat="43.23113" lon="5.50129">
        <ele>185.5</ele>
        <time>2025-10-19T14:41:49Z</time>
      </trkpt>
      <trkpt lat="43.23114" lon="5.50129">
        <ele>185.4</ele>
        <time>2025-10-19T14:41:50Z</time>
      </trkpt>
      <trkpt lat="43.23115" lon="5.50128">
        <ele>185.3</ele>
        <time>2025-10-19T14:41:51Z</time>
      </trkpt>
      <trkpt lat="43.23115" lon="5.50128">
        <ele>185.2</ele>
        <time>2025-10-19T14:41:52Z</time>
      </trkpt>
      <trkpt lat="43.23115" lon="5.50128">
        <ele>185.1</ele>
        <time>2025-10-19T14:41:53Z</time>
      </trkpt>
      <trkpt lat="43.23116" lon="5.50128">
        <ele>184.9</ele>
        <time>2025-10-19T14:41:54Z</time>
      </trkpt>
      <trkpt lat="43.23116" lon="5.50127">
        <ele>184.8</ele>
        <time>2025-10-19T14:41:55Z</time>
      </trkpt>
      <trkpt lat="43.23117" lon="5.50127">
        <ele>184.7</ele>
        <time>2025-10-19T14:41:56Z</time>
      </trkpt>
      <trkpt lat="43.23117" lon="5.50127">
        <ele>184.4</ele>
        <time>2025-10-19T14:41:57Z</time>
      </trkpt>
      <trkpt lat="43.23117" lon="5.50127">
        <ele>184.3</ele>
        <time>2025-10-19T14:41:58Z</time>
      </trkpt>
      <trkpt lat="43.23118" lon="5.50127">
        <ele>184.2</ele>
        <time>2025-10-19T14:41:59Z</time>
      </trkpt>
      <trkpt lat="43.23118" lon="5.50127">
        <ele>184.1</ele>
        <time>2025-10-19T14:42:00Z</time>
      </trkpt>
      <trkpt lat="43.23119" lon="5.50126">
        <ele>184</ele>
        <time>2025-10-19T14:42:01Z</time>
      </trkpt>
      <trkpt lat="43.23119" lon="5.50127">
        <ele>183.9</ele>
        <time>2025-10-19T14:42:02Z</time>
      </trkpt>
      <trkpt lat="43.23119" lon="5.50127">
        <ele>183.8</ele>
        <time>2025-10-19T14:42:03Z</time>
      </trkpt>
      <trkpt lat="43.2312" lon="5.50127">
        <ele>183.8</ele>
        <time>2025-10-19T14:42:04Z</time>
      </trkpt>
      <trkpt lat="43.23121" lon="5.50127">
        <ele>183.6</ele>
        <time>2025-10-19T14:42:05Z</time>
      </trkpt>
      <trkpt lat="43.23121" lon="5.50128">
        <ele>183.4</ele>
        <time>2025-10-19T14:42:06Z</time>
      </trkpt>
      <trkpt lat="43.23121" lon="5.50128">
        <ele>183.2</ele>
        <time>2025-10-19T14:42:07Z</time>
      </trkpt>
      <trkpt lat="43.23121" lon="5.50128">
        <ele>183</ele>
        <time>2025-10-19T14:42:08Z</time>
      </trkpt>
      <trkpt lat="43.23122" lon="5.50129">
        <ele>182.7</ele>
        <time>2025-10-19T14:42:09Z</time>
      </trkpt>
      <trkpt lat="43.23123" lon="5.50128">
        <ele>182.4</ele>
        <time>2025-10-19T14:42:10Z</time>
      </trkpt>
      <trkpt lat="43.23124" lon="5.50128">
        <ele>182.2</ele>
        <time>2025-10-19T14:42:11Z</time>
      </trkpt>
      <trkpt lat="43.23124" lon="5.50129">
        <ele>181.9</ele>
        <time>2025-10-19T14:42:12Z</time>
      </trkpt>
      <trkpt lat="43.23125" lon="5.50129">
        <ele>181.7</ele>
        <time>2025-10-19T14:42:13Z</time>
      </trkpt>
      <trkpt lat="43.23126" lon="5.5013">
        <ele>181.5</ele>
        <time>2025-10-19T14:42:14Z</time>
      </trkpt>
      <trkpt lat="43.23127" lon="5.5013">
        <ele>181.4</ele>
        <time>2025-10-19T14:42:15Z</time>
      </trkpt>
      <trkpt lat="43.23128" lon="5.5013">
        <ele>181.2</ele>
        <time>2025-10-19T14:42:16Z</time>
      </trkpt>
      <trkpt lat="43.23128" lon="5.5013">
        <ele>181.2</ele>
        <time>2025-10-19T14:42:17Z</time>
      </trkpt>
      <trkpt lat="43.23129" lon="5.5013">
        <ele>181.1</ele>
        <time>2025-10-19T14:42:18Z</time>
      </trkpt>
      <trkpt lat="43.2313" lon="5.5013">
        <ele>181.1</ele>
        <time>2025-10-19T14:42:19Z</time>
      </trkpt>
      <trkpt lat="43.2313" lon="5.5013">
        <ele>180.9</ele>
        <time>2025-10-19T14:42:20Z</time>
      </trkpt>
      <trkpt lat="43.23131" lon="5.50131">
        <ele>180.8</ele>
        <time>2025-10-19T14:42:21Z</time>
      </trkpt>
      <trkpt lat="43.23131" lon="5.50131">
        <ele>180.7</ele>
        <time>2025-10-19T14:42:22Z</time>
      </trkpt>
      <trkpt lat="43.23132" lon="5.50132">
        <ele>180.5</ele>
        <time>2025-10-19T14:42:23Z</time>
      </trkpt>
      <trkpt lat="43.23132" lon="5.50133">
        <ele>180.6</ele>
        <time>2025-10-19T14:42:24Z</time>
      </trkpt>
      <trkpt lat="43.23133" lon="5.50133">
        <ele>180.5</ele>
        <time>2025-10-19T14:42:25Z</time>
      </trkpt>
      <trkpt lat="43.23134" lon="5.50134">
        <ele>180.5</ele>
        <time>2025-10-19T14:42:26Z</time>
      </trkpt>
      <trkpt lat="43.23135" lon="5.50134">
        <ele>180.5</ele>
        <time>2025-10-19T14:42:27Z</time>
      </trkpt>
      <trkpt lat="43.23135" lon="5.50134">
        <ele>180.5</ele>
        <time>2025-10-19T14:42:28Z</time>
      </trkpt>
      <trkpt lat="43.23136" lon="5.50135">
        <ele>180.6</ele>
        <time>2025-10-19T14:42:29Z</time>
      </trkpt>
      <trkpt lat="43.23137" lon="5.50135">
        <ele>180.6</ele>
        <time>2025-10-19T14:42:30Z</time>
      </trkpt>
      <trkpt lat="43.23138" lon="5.50135">
        <ele>180.6</ele>
        <time>2025-10-19T14:42:31Z</time>
      </trkpt>
      <trkpt lat="43.23139" lon="5.50135">
        <ele>180.5</ele>
        <time>2025-10-19T14:42:32Z</time>
      </trkpt>
      <trkpt lat="43.2314" lon="5.50135">
        <ele>180.5</ele>
        <time>2025-10-19T14:42:33Z</time>
      </trkpt>
      <trkpt lat="43.23141" lon="5.50135">
        <ele>180.5</ele>
        <time>2025-10-19T14:42:34Z</time>
      </trkpt>
      <trkpt lat="43.23142" lon="5.50136">
        <ele>180.5</ele>
        <time>2025-10-19T14:42:35Z</time>
      </trkpt>
      <trkpt lat="43.23143" lon="5.50136">
        <ele>180.4</ele>
        <time>2025-10-19T14:42:36Z</time>
      </trkpt>
      <trkpt lat="43.23144" lon="5.50136">
        <ele>180.3</ele>
        <time>2025-10-19T14:42:37Z</time>
      </trkpt>
      <trkpt lat="43.23145" lon="5.50136">
        <ele>180.2</ele>
        <time>2025-10-19T14:42:38Z</time>
      </trkpt>
      <trkpt lat="43.23146" lon="5.50136">
        <ele>180.2</ele>
        <time>2025-10-19T14:42:39Z</time>
      </trkpt>
      <trkpt lat="43.23147" lon="5.50136">
        <ele>180.2</ele>
        <time>2025-10-19T14:42:40Z</time>
      </trkpt>
      <trkpt lat="43.23148" lon="5.50135">
        <ele>180.2</ele>
        <time>2025-10-19T14:42:41Z</time>
      </trkpt>
      <trkpt lat="43.23149" lon="5.50135">
        <ele>180.3</ele>
        <time>2025-10-19T14:42:42Z</time>
      </trkpt>
      <trkpt lat="43.2315" lon="5.50135">
        <ele>180.3</ele>
        <time>2025-10-19T14:42:43Z</time>
      </trkpt>
      <trkpt lat="43.23152" lon="5.50135">
        <ele>180.4</ele>
        <time>2025-10-19T14:42:44Z</time>
      </trkpt>
      <trkpt lat="43.23153" lon="5.50135">
        <ele>180.4</ele>
        <time>2025-10-19T14:42:45Z</time>
      </trkpt>
      <trkpt lat="43.23153" lon="5.50135">
        <ele>180.4</ele>
        <time>2025-10-19T14:42:46Z</time>
      </trkpt>
      <trkpt lat="43.23155" lon="5.50134">
        <ele>180.3</ele>
        <time>2025-10-19T14:42:47Z</time>
      </trkpt>
      <trkpt lat="43.23156" lon="5.50135">
        <ele>180.3</ele>
        <time>2025-10-19T14:42:48Z</time>
      </trkpt>
      <trkpt lat="43.23157" lon="5.50135">
        <ele>180.3</ele>
        <time>2025-10-19T14:42:49Z</time>
      </trkpt>
      <trkpt lat="43.23158" lon="5.50135">
        <ele>180.2</ele>
        <time>2025-10-19T14:42:50Z</time>
      </trkpt>
      <trkpt lat="43.23159" lon="5.50134">
        <ele>180.2</ele>
        <time>2025-10-19T14:42:51Z</time>
      </trkpt>
      <trkpt lat="43.2316" lon="5.50134">
        <ele>180.2</ele>
        <time>2025-10-19T14:42:52Z</time>
      </trkpt>
      <trkpt lat="43.23161" lon="5.50134">
        <ele>180.2</ele>
        <time>2025-10-19T14:42:53Z</time>
      </trkpt>
      <trkpt lat="43.23162" lon="5.50134">
        <ele>180.3</ele>
        <time>2025-10-19T14:42:54Z</time>
      </trkpt>
      <trkpt lat="43.23163" lon="5.50133">
        <ele>180.3</ele>
        <time>2025-10-19T14:42:55Z</time>
      </trkpt>
      <trkpt lat="43.23164" lon="5.50133">
        <ele>180.3</ele>
        <time>2025-10-19T14:42:56Z</time>
      </trkpt>
      <trkpt lat="43.23165" lon="5.50133">
        <ele>180.4</ele>
        <time>2025-10-19T14:42:57Z</time>
      </trkpt>
      <trkpt lat="43.23167" lon="5.50133">
        <ele>180.4</ele>
        <time>2025-10-19T14:42:58Z</time>
      </trkpt>
      <trkpt lat="43.23168" lon="5.50133">
        <ele>180.4</ele>
        <time>2025-10-19T14:42:59Z</time>
      </trkpt>
      <trkpt lat="43.23169" lon="5.50134">
        <ele>180.5</ele>
        <time>2025-10-19T14:43:00Z</time>
      </trkpt>
      <trkpt lat="43.2317" lon="5.50134">
        <ele>180.5</ele>
        <time>2025-10-19T14:43:01Z</time>
      </trkpt>
      <trkpt lat="43.23171" lon="5.50134">
        <ele>180.5</ele>
        <time>2025-10-19T14:43:02Z</time>
      </trkpt>
      <trkpt lat="43.23173" lon="5.50134">
        <ele>180.5</ele>
        <time>2025-10-19T14:43:03Z</time>
      </trkpt>
      <trkpt lat="43.23174" lon="5.50133">
        <ele>180.5</ele>
        <time>2025-10-19T14:43:04Z</time>
      </trkpt>
      <trkpt lat="43.23175" lon="5.50133">
        <ele>180.5</ele>
        <time>2025-10-19T14:43:05Z</time>
      </trkpt>
      <trkpt lat="43.23176" lon="5.50133">
        <ele>180.6</ele>
        <time>2025-10-19T14:43:06Z</time>
      </trkpt>
      <trkpt lat="43.23177" lon="5.50133">
        <ele>180.7</ele>
        <time>2025-10-19T14:43:07Z</time>
      </trkpt>
      <trkpt lat="43.23179" lon="5.50133">
        <ele>180.7</ele>
        <time>2025-10-19T14:43:08Z</time>
      </trkpt>
      <trkpt lat="43.2318" lon="5.50134">
        <ele>180.8</ele>
        <time>2025-10-19T14:43:09Z</time>
      </trkpt>
      <trkpt lat="43.23181" lon="5.50134">
        <ele>180.7</ele>
        <time>2025-10-19T14:43:10Z</time>
      </trkpt>
      <trkpt lat="43.23182" lon="5.50134">
        <ele>180.7</ele>
        <time>2025-10-19T14:43:11Z</time>
      </trkpt>
      <trkpt lat="43.23183" lon="5.50134">
        <ele>180.8</ele>
        <time>2025-10-19T14:43:12Z</time>
      </trkpt>
      <trkpt lat="43.23184" lon="5.50134">
        <ele>180.9</ele>
        <time>2025-10-19T14:43:13Z</time>
      </trkpt>
      <trkpt lat="43.23185" lon="5.50134">
        <ele>181</ele>
        <time>2025-10-19T14:43:14Z</time>
      </trkpt>
      <trkpt lat="43.23187" lon="5.50134">
        <ele>181.1</ele>
        <time>2025-10-19T14:43:15Z</time>
      </trkpt>
      <trkpt lat="43.23188" lon="5.50134">
        <ele>181.1</ele>
        <time>2025-10-19T14:43:16Z</time>
      </trkpt>
      <trkpt lat="43.23189" lon="5.50135">
        <ele>181.1</ele>
        <time>2025-10-19T14:43:17Z</time>
      </trkpt>
      <trkpt lat="43.2319" lon="5.50134">
        <ele>181</ele>
        <time>2025-10-19T14:43:18Z</time>
      </trkpt>
      <trkpt lat="43.23191" lon="5.50134">
        <ele>181</ele>
        <time>2025-10-19T14:43:19Z</time>
      </trkpt>
      <trkpt lat="43.23191" lon="5.50134">
        <ele>181</ele>
        <time>2025-10-19T14:43:20Z</time>
      </trkpt>
      <trkpt lat="43.23192" lon="5.50134">
        <ele>181</ele>
        <time>2025-10-19T14:43:21Z</time>
      </trkpt>
      <trkpt lat="43.23193" lon="5.50133">
        <ele>181</ele>
        <time>2025-10-19T14:43:22Z</time>
      </trkpt>
      <trkpt lat="43.23194" lon="5.50133">
        <ele>181</ele>
        <time>2025-10-19T14:43:23Z</time>
      </trkpt>
      <trkpt lat="43.23195" lon="5.50133">
        <ele>181.1</ele>
        <time>2025-10-19T14:43:24Z</time>
      </trkpt>
      <trkpt lat="43.23197" lon="5.50133">
        <ele>181.1</ele>
        <time>2025-10-19T14:43:25Z</time>
      </trkpt>
      <trkpt lat="43.23198" lon="5.50133">
        <ele>181.2</ele>
        <time>2025-10-19T14:43:26Z</time>
      </trkpt>
      <trkpt lat="43.23199" lon="5.50133">
        <ele>181.3</ele>
        <time>2025-10-19T14:43:27Z</time>
      </trkpt>
      <trkpt lat="43.232" lon="5.50133">
        <ele>181.3</ele>
        <time>2025-10-19T14:43:28Z</time>
      </trkpt>
      <trkpt lat="43.23201" lon="5.50133">
        <ele>181.4</ele>
        <time>2025-10-19T14:43:29Z</time>
      </trkpt>
      <trkpt lat="43.23202" lon="5.50134">
        <ele>181.5</ele>
        <time>2025-10-19T14:43:30Z</time>
      </trkpt>
      <trkpt lat="43.23204" lon="5.50134">
        <ele>181.5</ele>
        <time>2025-10-19T14:43:31Z</time>
      </trkpt>
      <trkpt lat="43.23204" lon="5.50134">
        <ele>181.5</ele>
        <time>2025-10-19T14:43:32Z</time>
      </trkpt>
      <trkpt lat="43.23206" lon="5.50134">
        <ele>181.5</ele>
        <time>2025-10-19T14:43:33Z</time>
      </trkpt>
      <trkpt lat="43.23207" lon="5.50134">
        <ele>181.5</ele>
        <time>2025-10-19T14:43:34Z</time>
      </trkpt>
      <trkpt lat="43.23208" lon="5.50134">
        <ele>181.5</ele>
        <time>2025-10-19T14:43:35Z</time>
      </trkpt>
      <trkpt lat="43.23209" lon="5.50134">
        <ele>181.6</ele>
        <time>2025-10-19T14:43:36Z</time>
      </trkpt>
      <trkpt lat="43.2321" lon="5.50134">
        <ele>181.6</ele>
        <time>2025-10-19T14:43:37Z</time>
      </trkpt>
      <trkpt lat="43.23212" lon="5.50134">
        <ele>181.6</ele>
        <time>2025-10-19T14:43:38Z</time>
      </trkpt>
      <trkpt lat="43.23213" lon="5.50134">
        <ele>181.6</ele>
        <time>2025-10-19T14:43:39Z</time>
      </trkpt>
      <trkpt lat="43.23214" lon="5.50133">
        <ele>181.6</ele>
        <time>2025-10-19T14:43:40Z</time>
      </trkpt>
      <trkpt lat="43.23215" lon="5.50133">
        <ele>181.7</ele>
        <time>2025-10-19T14:43:41Z</time>
      </trkpt>
      <trkpt lat="43.23217" lon="5.50132">
        <ele>181.7</ele>
        <time>2025-10-19T14:43:42Z</time>
      </trkpt>
      <trkpt lat="43.23218" lon="5.50131">
        <ele>181.7</ele>
        <time>2025-10-19T14:43:43Z</time>
      </trkpt>
      <trkpt lat="43.23219" lon="5.50131">
        <ele>181.8</ele>
        <time>2025-10-19T14:43:44Z</time>
      </trkpt>
      <trkpt lat="43.2322" lon="5.50131">
        <ele>181.8</ele>
        <time>2025-10-19T14:43:45Z</time>
      </trkpt>
      <trkpt lat="43.23222" lon="5.5013">
        <ele>181.8</ele>
        <time>2025-10-19T14:43:46Z</time>
      </trkpt>
      <trkpt lat="43.23223" lon="5.50129">
        <ele>181.9</ele>
        <time>2025-10-19T14:43:47Z</time>
      </trkpt>
      <trkpt lat="43.23225" lon="5.50128">
        <ele>182</ele>
        <time>2025-10-19T14:43:48Z</time>
      </trkpt>
      <trkpt lat="43.23226" lon="5.50127">
        <ele>182</ele>
        <time>2025-10-19T14:43:49Z</time>
      </trkpt>
      <trkpt lat="43.23227" lon="5.50127">
        <ele>182</ele>
        <time>2025-10-19T14:43:50Z</time>
      </trkpt>
      <trkpt lat="43.23228" lon="5.50126">
        <ele>182</ele>
        <time>2025-10-19T14:43:51Z</time>
      </trkpt>
      <trkpt lat="43.2323" lon="5.50125">
        <ele>182.1</ele>
        <time>2025-10-19T14:43:52Z</time>
      </trkpt>
      <trkpt lat="43.23231" lon="5.50124">
        <ele>182.2</ele>
        <time>2025-10-19T14:43:53Z</time>
      </trkpt>
      <trkpt lat="43.23232" lon="5.50124">
        <ele>182.3</ele>
        <time>2025-10-19T14:43:54Z</time>
      </trkpt>
      <trkpt lat="43.23233" lon="5.50123">
        <ele>182.3</ele>
        <time>2025-10-19T14:43:55Z</time>
      </trkpt>
      <trkpt lat="43.23234" lon="5.50122">
        <ele>182.4</ele>
        <time>2025-10-19T14:43:56Z</time>
      </trkpt>
      <trkpt lat="43.23235" lon="5.50122">
        <ele>182.4</ele>
        <time>2025-10-19T14:43:57Z</time>
      </trkpt>
      <trkpt lat="43.23236" lon="5.50122">
        <ele>182.4</ele>
        <time>2025-10-19T14:43:58Z</time>
      </trkpt>
      <trkpt lat="43.23237" lon="5.50122">
        <ele>182.4</ele>
        <time>2025-10-19T14:43:59Z</time>
      </trkpt>
      <trkpt lat="43.23237" lon="5.50122">
        <ele>182.5</ele>
        <time>2025-10-19T14:44:00Z</time>
      </trkpt>
      <trkpt lat="43.23238" lon="5.50123">
        <ele>182.5</ele>
        <time>2025-10-19T14:44:01Z</time>
      </trkpt>
      <trkpt lat="43.23239" lon="5.50123">
        <ele>182.5</ele>
        <time>2025-10-19T14:44:02Z</time>
      </trkpt>
      <trkpt lat="43.2324" lon="5.50123">
        <ele>182.5</ele>
        <time>2025-10-19T14:44:03Z</time>
      </trkpt>
      <trkpt lat="43.2324" lon="5.50122">
        <ele>182.6</ele>
        <time>2025-10-19T14:44:04Z</time>
      </trkpt>
      <trkpt lat="43.2324" lon="5.50122">
        <ele>182.7</ele>
        <time>2025-10-19T14:44:05Z</time>
      </trkpt>
      <trkpt lat="43.23241" lon="5.50122">
        <ele>182.7</ele>
        <time>2025-10-19T14:44:06Z</time>
      </trkpt>
      <trkpt lat="43.23242" lon="5.50122">
        <ele>182.7</ele>
        <time>2025-10-19T14:44:07Z</time>
      </trkpt>
      <trkpt lat="43.23243" lon="5.50121">
        <ele>182.7</ele>
        <time>2025-10-19T14:44:08Z</time>
      </trkpt>
      <trkpt lat="43.23243" lon="5.50121">
        <ele>182.8</ele>
        <time>2025-10-19T14:44:09Z</time>
      </trkpt>
      <trkpt lat="43.23244" lon="5.50121">
        <ele>182.8</ele>
        <time>2025-10-19T14:44:10Z</time>
      </trkpt>
      <trkpt lat="43.23244" lon="5.5012">
        <ele>182.9</ele>
        <time>2025-10-19T14:44:11Z</time>
      </trkpt>
      <trkpt lat="43.23245" lon="5.5012">
        <ele>183</ele>
        <time>2025-10-19T14:44:12Z</time>
      </trkpt>
      <trkpt lat="43.23245" lon="5.5012">
        <ele>183</ele>
        <time>2025-10-19T14:44:13Z</time>
      </trkpt>
      <trkpt lat="43.23245" lon="5.50119">
        <ele>183.1</ele>
        <time>2025-10-19T14:44:14Z</time>
      </trkpt>
      <trkpt lat="43.23245" lon="5.50119">
        <ele>183.2</ele>
        <time>2025-10-19T14:44:15Z</time>
      </trkpt>
      <trkpt lat="43.23245" lon="5.50119">
        <ele>183.2</ele>
        <time>2025-10-19T14:44:16Z</time>
      </trkpt>
      <trkpt lat="43.23246" lon="5.50119">
        <ele>183.3</ele>
        <time>2025-10-19T14:44:17Z</time>
      </trkpt>
      <trkpt lat="43.23246" lon="5.50118">
        <ele>183.3</ele>
        <time>2025-10-19T14:44:18Z</time>
      </trkpt>
      <trkpt lat="43.23246" lon="5.50118">
        <ele>183.3</ele>
        <time>2025-10-19T14:44:19Z</time>
      </trkpt>
      <trkpt lat="43.23246" lon="5.50118">
        <ele>183.4</ele>
        <time>2025-10-19T14:44:20Z</time>
      </trkpt>
      <trkpt lat="43.23247" lon="5.50118">
        <ele>183.3</ele>
        <time>2025-10-19T14:44:21Z</time>
      </trkpt>
      <trkpt lat="43.23247" lon="5.50117">
        <ele>183.3</ele>
        <time>2025-10-19T14:44:22Z</time>
      </trkpt>
      <trkpt lat="43.23247" lon="5.50117">
        <ele>183.3</ele>
        <time>2025-10-19T14:44:23Z</time>
      </trkpt>
      <trkpt lat="43.23248" lon="5.50117">
        <ele>183.4</ele>
        <time>2025-10-19T14:44:24Z</time>
      </trkpt>
      <trkpt lat="43.23248" lon="5.50116">
        <ele>183.4</ele>
        <time>2025-10-19T14:44:25Z</time>
      </trkpt>
      <trkpt lat="43.23249" lon="5.50116">
        <ele>183.4</ele>
        <time>2025-10-19T14:44:26Z</time>
      </trkpt>
      <trkpt lat="43.23249" lon="5.50116">
        <ele>183.6</ele>
        <time>2025-10-19T14:44:27Z</time>
      </trkpt>
      <trkpt lat="43.23249" lon="5.50116">
        <ele>183.7</ele>
        <time>2025-10-19T14:44:28Z</time>
      </trkpt>
      <trkpt lat="43.23249" lon="5.50115">
        <ele>183.7</ele>
        <time>2025-10-19T14:44:29Z</time>
      </trkpt>
      <trkpt lat="43.23249" lon="5.50115">
        <ele>183.8</ele>
        <time>2025-10-19T14:44:30Z</time>
      </trkpt>
      <trkpt lat="43.23249" lon="5.50115">
        <ele>183.9</ele>
        <time>2025-10-19T14:44:31Z</time>
      </trkpt>
      <trkpt lat="43.23249" lon="5.50115">
        <ele>183.9</ele>
        <time>2025-10-19T14:44:32Z</time>
      </trkpt>
      <trkpt lat="43.23249" lon="5.50115">
        <ele>184</ele>
        <time>2025-10-19T14:44:33Z</time>
      </trkpt>
      <trkpt lat="43.23249" lon="5.50116">
        <ele>184.2</ele>
        <time>2025-10-19T14:44:34Z</time>
      </trkpt>
      <trkpt lat="43.23249" lon="5.50116">
        <ele>184.3</ele>
        <time>2025-10-19T14:44:35Z</time>
      </trkpt>
      <trkpt lat="43.23249" lon="5.50116">
        <ele>184.4</ele>
        <time>2025-10-19T14:44:36Z</time>
      </trkpt>
      <trkpt lat="43.23249" lon="5.50116">
        <ele>184.5</ele>
        <time>2025-10-19T14:44:37Z</time>
      </trkpt>
      <trkpt lat="43.23249" lon="5.50116">
        <ele>184.7</ele>
        <time>2025-10-19T14:44:38Z</time>
      </trkpt>
      <trkpt lat="43.23249" lon="5.50116">
        <ele>184.8</ele>
        <time>2025-10-19T14:44:39Z</time>
      </trkpt>
      <trkpt lat="43.2325" lon="5.50116">
        <ele>184.9</ele>
        <time>2025-10-19T14:44:40Z</time>
      </trkpt>
      <trkpt lat="43.2325" lon="5.50116">
        <ele>185</ele>
        <time>2025-10-19T14:44:41Z</time>
      </trkpt>
      <trkpt lat="43.2325" lon="5.50116">
        <ele>185.1</ele>
        <time>2025-10-19T14:44:42Z</time>
      </trkpt>
      <trkpt lat="43.23251" lon="5.50116">
        <ele>185.1</ele>
        <time>2025-10-19T14:44:43Z</time>
      </trkpt>
      <trkpt lat="43.23251" lon="5.50116">
        <ele>185.3</ele>
        <time>2025-10-19T14:44:44Z</time>
      </trkpt>
      <trkpt lat="43.23251" lon="5.50116">
        <ele>185.4</ele>
        <time>2025-10-19T14:44:45Z</time>
      </trkpt>
      <trkpt lat="43.23251" lon="5.50116">
        <ele>185.5</ele>
        <time>2025-10-19T14:44:46Z</time>
      </trkpt>
      <trkpt lat="43.23251" lon="5.50116">
        <ele>185.7</ele>
        <time>2025-10-19T14:44:47Z</time>
      </trkpt>
      <trkpt lat="43.23251" lon="5.50116">
        <ele>185.9</ele>
        <time>2025-10-19T14:44:48Z</time>
      </trkpt>
      <trkpt lat="43.23251" lon="5.50116">
        <ele>186.1</ele>
        <time>2025-10-19T14:44:49Z</time>
      </trkpt>
      <trkpt lat="43.23252" lon="5.50116">
        <ele>186.3</ele>
        <time>2025-10-19T14:44:50Z</time>
      </trkpt>
      <trkpt lat="43.23253" lon="5.50116">
        <ele>186.6</ele>
        <time>2025-10-19T14:44:51Z</time>
      </trkpt>
      <trkpt lat="43.23253" lon="5.50115">
        <ele>186.8</ele>
        <time>2025-10-19T14:44:52Z</time>
      </trkpt>
      <trkpt lat="43.23254" lon="5.50115">
        <ele>187</ele>
        <time>2025-10-19T14:44:53Z</time>
      </trkpt>
      <trkpt lat="43.23255" lon="5.50115">
        <ele>187.2</ele>
        <time>2025-10-19T14:44:54Z</time>
      </trkpt>
      <trkpt lat="43.23255" lon="5.50115">
        <ele>187.5</ele>
        <time>2025-10-19T14:44:55Z</time>
      </trkpt>
      <trkpt lat="43.23255" lon="5.50115">
        <ele>187.7</ele>
        <time>2025-10-19T14:44:56Z</time>
      </trkpt>
      <trkpt lat="43.23256" lon="5.50115">
        <ele>187.9</ele>
        <time>2025-10-19T14:44:57Z</time>
      </trkpt>
      <trkpt lat="43.23256" lon="5.50115">
        <ele>188</ele>
        <time>2025-10-19T14:44:58Z</time>
      </trkpt>
      <trkpt lat="43.23256" lon="5.50116">
        <ele>188.2</ele>
        <time>2025-10-19T14:44:59Z</time>
      </trkpt>
      <trkpt lat="43.23257" lon="5.50116">
        <ele>188.4</ele>
        <time>2025-10-19T14:45:00Z</time>
      </trkpt>
      <trkpt lat="43.23257" lon="5.50117">
        <ele>188.5</ele>
        <time>2025-10-19T14:45:01Z</time>
      </trkpt>
      <trkpt lat="43.23258" lon="5.50116">
        <ele>188.7</ele>
        <time>2025-10-19T14:45:02Z</time>
      </trkpt>
      <trkpt lat="43.23258" lon="5.50116">
        <ele>188.8</ele>
        <time>2025-10-19T14:45:03Z</time>
      </trkpt>
      <trkpt lat="43.23259" lon="5.50116">
        <ele>189.1</ele>
        <time>2025-10-19T14:45:04Z</time>
      </trkpt>
      <trkpt lat="43.23259" lon="5.50115">
        <ele>189.2</ele>
        <time>2025-10-19T14:45:05Z</time>
      </trkpt>
      <trkpt lat="43.2326" lon="5.50115">
        <ele>189.4</ele>
        <time>2025-10-19T14:45:06Z</time>
      </trkpt>
      <trkpt lat="43.23261" lon="5.50116">
        <ele>189.6</ele>
        <time>2025-10-19T14:45:07Z</time>
      </trkpt>
      <trkpt lat="43.23261" lon="5.50116">
        <ele>189.7</ele>
        <time>2025-10-19T14:45:08Z</time>
      </trkpt>
      <trkpt lat="43.23261" lon="5.50116">
        <ele>189.8</ele>
        <time>2025-10-19T14:45:09Z</time>
      </trkpt>
      <trkpt lat="43.23261" lon="5.50117">
        <ele>190</ele>
        <time>2025-10-19T14:45:10Z</time>
      </trkpt>
      <trkpt lat="43.23261" lon="5.50117">
        <ele>190.1</ele>
        <time>2025-10-19T14:45:11Z</time>
      </trkpt>
      <trkpt lat="43.23261" lon="5.50117">
        <ele>190.3</ele>
        <time>2025-10-19T14:45:12Z</time>
      </trkpt>
      <trkpt lat="43.23261" lon="5.50117">
        <ele>190.5</ele>
        <time>2025-10-19T14:45:13Z</time>
      </trkpt>
      <trkpt lat="43.23261" lon="5.50117">
        <ele>190.6</ele>
        <time>2025-10-19T14:45:14Z</time>
      </trkpt>
      <trkpt lat="43.23261" lon="5.50117">
        <ele>190.7</ele>
        <time>2025-10-19T14:45:15Z</time>
      </trkpt>
      <trkpt lat="43.23262" lon="5.50117">
        <ele>190.7</ele>
        <time>2025-10-19T14:45:16Z</time>
      </trkpt>
      <trkpt lat="43.23262" lon="5.50118">
        <ele>190.8</ele>
        <time>2025-10-19T14:45:17Z</time>
      </trkpt>
      <trkpt lat="43.23262" lon="5.50118">
        <ele>190.9</ele>
        <time>2025-10-19T14:45:18Z</time>
      </trkpt>
      <trkpt lat="43.23262" lon="5.50119">
        <ele>191</ele>
        <time>2025-10-19T14:45:19Z</time>
      </trkpt>
      <trkpt lat="43.23263" lon="5.50119">
        <ele>191.1</ele>
        <time>2025-10-19T14:45:20Z</time>
      </trkpt>
      <trkpt lat="43.23263" lon="5.50119">
        <ele>191.2</ele>
        <time>2025-10-19T14:45:21Z</time>
      </trkpt>
      <trkpt lat="43.23264" lon="5.50118">
        <ele>191.4</ele>
        <time>2025-10-19T14:45:22Z</time>
      </trkpt>
      <trkpt lat="43.23264" lon="5.50118">
        <ele>191.6</ele>
        <time>2025-10-19T14:45:23Z</time>
      </trkpt>
      <trkpt lat="43.23265" lon="5.50118">
        <ele>191.8</ele>
        <time>2025-10-19T14:45:24Z</time>
      </trkpt>
      <trkpt lat="43.23265" lon="5.50118">
        <ele>192.2</ele>
        <time>2025-10-19T14:45:25Z</time>
      </trkpt>
      <trkpt lat="43.23265" lon="5.50118">
        <ele>192.3</ele>
        <time>2025-10-19T14:45:26Z</time>
      </trkpt>
      <trkpt lat="43.23265" lon="5.50118">
        <ele>192.5</ele>
        <time>2025-10-19T14:45:27Z</time>
      </trkpt>
      <trkpt lat="43.23265" lon="5.50118">
        <ele>192.6</ele>
        <time>2025-10-19T14:45:28Z</time>
      </trkpt>
      <trkpt lat="43.23266" lon="5.50118">
        <ele>192.7</ele>
        <time>2025-10-19T14:45:29Z</time>
      </trkpt>
      <trkpt lat="43.23266" lon="5.50119">
        <ele>192.8</ele>
        <time>2025-10-19T14:45:30Z</time>
      </trkpt>
      <trkpt lat="43.23266" lon="5.50119">
        <ele>192.9</ele>
        <time>2025-10-19T14:45:31Z</time>
      </trkpt>
      <trkpt lat="43.23267" lon="5.50119">
        <ele>193.1</ele>
        <time>2025-10-19T14:45:32Z</time>
      </trkpt>
      <trkpt lat="43.23267" lon="5.50119">
        <ele>193.3</ele>
        <time>2025-10-19T14:45:33Z</time>
      </trkpt>
      <trkpt lat="43.23268" lon="5.50118">
        <ele>193.5</ele>
        <time>2025-10-19T14:45:34Z</time>
      </trkpt>
      <trkpt lat="43.23269" lon="5.50118">
        <ele>193.6</ele>
        <time>2025-10-19T14:45:35Z</time>
      </trkpt>
      <trkpt lat="43.2327" lon="5.50118">
        <ele>193.7</ele>
        <time>2025-10-19T14:45:36Z</time>
      </trkpt>
      <trkpt lat="43.2327" lon="5.50118">
        <ele>194</ele>
        <time>2025-10-19T14:45:37Z</time>
      </trkpt>
      <trkpt lat="43.23271" lon="5.50117">
        <ele>194.1</ele>
        <time>2025-10-19T14:45:38Z</time>
      </trkpt>
      <trkpt lat="43.23271" lon="5.50117">
        <ele>194.3</ele>
        <time>2025-10-19T14:45:39Z</time>
      </trkpt>
      <trkpt lat="43.23272" lon="5.50117">
        <ele>194.5</ele>
        <time>2025-10-19T14:45:40Z</time>
      </trkpt>
      <trkpt lat="43.23272" lon="5.50117">
        <ele>194.6</ele>
        <time>2025-10-19T14:45:41Z</time>
      </trkpt>
      <trkpt lat="43.23272" lon="5.50117">
        <ele>194.8</ele>
        <time>2025-10-19T14:45:42Z</time>
      </trkpt>
      <trkpt lat="43.23272" lon="5.50116">
        <ele>194.9</ele>
        <time>2025-10-19T14:45:43Z</time>
      </trkpt>
      <trkpt lat="43.23272" lon="5.50117">
        <ele>195</ele>
        <time>2025-10-19T14:45:44Z</time>
      </trkpt>
      <trkpt lat="43.23272" lon="5.50117">
        <ele>195.1</ele>
        <time>2025-10-19T14:45:45Z</time>
      </trkpt>
      <trkpt lat="43.23272" lon="5.50117">
        <ele>195.3</ele>
        <time>2025-10-19T14:45:46Z</time>
      </trkpt>
      <trkpt lat="43.23273" lon="5.50117">
        <ele>195.4</ele>
        <time>2025-10-19T14:45:47Z</time>
      </trkpt>
      <trkpt lat="43.23273" lon="5.50117">
        <ele>195.6</ele>
        <time>2025-10-19T14:45:48Z</time>
      </trkpt>
      <trkpt lat="43.23273" lon="5.50117">
        <ele>195.7</ele>
        <time>2025-10-19T14:45:49Z</time>
      </trkpt>
      <trkpt lat="43.23273" lon="5.50117">
        <ele>195.8</ele>
        <time>2025-10-19T14:45:50Z</time>
      </trkpt>
      <trkpt lat="43.23273" lon="5.50117">
        <ele>195.9</ele>
        <time>2025-10-19T14:45:51Z</time>
      </trkpt>
      <trkpt lat="43.23273" lon="5.50118">
        <ele>196</ele>
        <time>2025-10-19T14:45:52Z</time>
      </trkpt>
      <trkpt lat="43.23273" lon="5.50118">
        <ele>196.1</ele>
        <time>2025-10-19T14:45:53Z</time>
      </trkpt>
      <trkpt lat="43.23274" lon="5.50118">
        <ele>196.2</ele>
        <time>2025-10-19T14:45:54Z</time>
      </trkpt>
      <trkpt lat="43.23274" lon="5.50118">
        <ele>196.5</ele>
        <time>2025-10-19T14:45:55Z</time>
      </trkpt>
      <trkpt lat="43.23274" lon="5.50118">
        <ele>196.7</ele>
        <time>2025-10-19T14:45:56Z</time>
      </trkpt>
      <trkpt lat="43.23275" lon="5.50118">
        <ele>196.9</ele>
        <time>2025-10-19T14:45:57Z</time>
      </trkpt>
      <trkpt lat="43.23275" lon="5.50118">
        <ele>197</ele>
        <time>2025-10-19T14:45:58Z</time>
      </trkpt>
      <trkpt lat="43.23275" lon="5.50118">
        <ele>197.1</ele>
        <time>2025-10-19T14:45:59Z</time>
      </trkpt>
      <trkpt lat="43.23275" lon="5.50118">
        <ele>197.2</ele>
        <time>2025-10-19T14:46:00Z</time>
      </trkpt>
      <trkpt lat="43.23275" lon="5.50118">
        <ele>197.2</ele>
        <time>2025-10-19T14:46:01Z</time>
      </trkpt>
      <trkpt lat="43.23275" lon="5.50118">
        <ele>197.3</ele>
        <time>2025-10-19T14:46:02Z</time>
      </trkpt>
      <trkpt lat="43.23275" lon="5.50117">
        <ele>197.4</ele>
        <time>2025-10-19T14:46:03Z</time>
      </trkpt>
      <trkpt lat="43.23275" lon="5.50117">
        <ele>197.5</ele>
        <time>2025-10-19T14:46:04Z</time>
      </trkpt>
      <trkpt lat="43.23275" lon="5.50117">
        <ele>197.5</ele>
        <time>2025-10-19T14:46:05Z</time>
      </trkpt>
      <trkpt lat="43.23275" lon="5.50117">
        <ele>197.5</ele>
        <time>2025-10-19T14:46:06Z</time>
      </trkpt>
      <trkpt lat="43.23275" lon="5.50117">
        <ele>197.5</ele>
        <time>2025-10-19T14:46:07Z</time>
      </trkpt>
      <trkpt lat="43.23276" lon="5.50117">
        <ele>197.6</ele>
        <time>2025-10-19T14:46:08Z</time>
      </trkpt>
      <trkpt lat="43.23276" lon="5.50117">
        <ele>197.6</ele>
        <time>2025-10-19T14:46:09Z</time>
      </trkpt>
      <trkpt lat="43.23276" lon="5.50117">
        <ele>197.6</ele>
        <time>2025-10-19T14:46:10Z</time>
      </trkpt>
      <trkpt lat="43.23276" lon="5.50117">
        <ele>197.6</ele>
        <time>2025-10-19T14:46:11Z</time>
      </trkpt>
      <trkpt lat="43.23276" lon="5.50117">
        <ele>197.7</ele>
        <time>2025-10-19T14:46:12Z</time>
      </trkpt>
      <trkpt lat="43.23276" lon="5.50116">
        <ele>197.7</ele>
        <time>2025-10-19T14:46:13Z</time>
      </trkpt>
      <trkpt lat="43.23276" lon="5.50116">
        <ele>197.6</ele>
        <time>2025-10-19T14:46:14Z</time>
      </trkpt>
      <trkpt lat="43.23276" lon="5.50116">
        <ele>197.5</ele>
        <time>2025-10-19T14:46:15Z</time>
      </trkpt>
      <trkpt lat="43.23276" lon="5.50116">
        <ele>197.4</ele>
        <time>2025-10-19T14:46:16Z</time>
      </trkpt>
      <trkpt lat="43.23276" lon="5.50116">
        <ele>197.4</ele>
        <time>2025-10-19T14:46:17Z</time>
      </trkpt>
      <trkpt lat="43.23276" lon="5.50116">
        <ele>197.4</ele>
        <time>2025-10-19T14:46:18Z</time>
      </trkpt>
      <trkpt lat="43.23277" lon="5.50116">
        <ele>197.5</ele>
        <time>2025-10-19T14:46:19Z</time>
      </trkpt>
      <trkpt lat="43.23277" lon="5.50117">
        <ele>197.8</ele>
        <time>2025-10-19T14:46:20Z</time>
      </trkpt>
      <trkpt lat="43.23277" lon="5.50117">
        <ele>197.9</ele>
        <time>2025-10-19T14:46:21Z</time>
      </trkpt>
      <trkpt lat="43.23278" lon="5.50118">
        <ele>198</ele>
        <time>2025-10-19T14:46:22Z</time>
      </trkpt>
      <trkpt lat="43.23279" lon="5.50118">
        <ele>198.1</ele>
        <time>2025-10-19T14:46:23Z</time>
      </trkpt>
      <trkpt lat="43.23279" lon="5.50118">
        <ele>198.4</ele>
        <time>2025-10-19T14:46:24Z</time>
      </trkpt>
      <trkpt lat="43.2328" lon="5.50119">
        <ele>198.6</ele>
        <time>2025-10-19T14:46:25Z</time>
      </trkpt>
      <trkpt lat="43.2328" lon="5.50119">
        <ele>198.9</ele>
        <time>2025-10-19T14:46:26Z</time>
      </trkpt>
      <trkpt lat="43.23281" lon="5.5012">
        <ele>199.1</ele>
        <time>2025-10-19T14:46:27Z</time>
      </trkpt>
      <trkpt lat="43.23281" lon="5.5012">
        <ele>199.4</ele>
        <time>2025-10-19T14:46:28Z</time>
      </trkpt>
      <trkpt lat="43.23281" lon="5.50121">
        <ele>199.7</ele>
        <time>2025-10-19T14:46:29Z</time>
      </trkpt>
      <trkpt lat="43.23281" lon="5.50121">
        <ele>200.2</ele>
        <time>2025-10-19T14:46:30Z</time>
      </trkpt>
      <trkpt lat="43.23282" lon="5.50121">
        <ele>200.5</ele>
        <time>2025-10-19T14:46:31Z</time>
      </trkpt>
      <trkpt lat="43.23283" lon="5.50121">
        <ele>200.8</ele>
        <time>2025-10-19T14:46:32Z</time>
      </trkpt>
      <trkpt lat="43.23284" lon="5.50122">
        <ele>201</ele>
        <time>2025-10-19T14:46:33Z</time>
      </trkpt>
      <trkpt lat="43.23284" lon="5.50121">
        <ele>201.2</ele>
        <time>2025-10-19T14:46:34Z</time>
      </trkpt>
      <trkpt lat="43.23285" lon="5.50121">
        <ele>201.4</ele>
        <time>2025-10-19T14:46:35Z</time>
      </trkpt>
      <trkpt lat="43.23286" lon="5.5012">
        <ele>201.6</ele>
        <time>2025-10-19T14:46:36Z</time>
      </trkpt>
      <trkpt lat="43.23286" lon="5.5012">
        <ele>201.7</ele>
        <time>2025-10-19T14:46:37Z</time>
      </trkpt>
      <trkpt lat="43.23287" lon="5.5012">
        <ele>202</ele>
        <time>2025-10-19T14:46:38Z</time>
      </trkpt>
      <trkpt lat="43.23288" lon="5.5012">
        <ele>202.2</ele>
        <time>2025-10-19T14:46:39Z</time>
      </trkpt>
      <trkpt lat="43.23288" lon="5.5012">
        <ele>202.3</ele>
        <time>2025-10-19T14:46:40Z</time>
      </trkpt>
      <trkpt lat="43.23289" lon="5.5012">
        <ele>202.5</ele>
        <time>2025-10-19T14:46:41Z</time>
      </trkpt>
      <trkpt lat="43.2329" lon="5.50119">
        <ele>202.6</ele>
        <time>2025-10-19T14:46:42Z</time>
      </trkpt>
      <trkpt lat="43.23291" lon="5.50119">
        <ele>202.8</ele>
        <time>2025-10-19T14:46:43Z</time>
      </trkpt>
      <trkpt lat="43.23291" lon="5.50119">
        <ele>203.1</ele>
        <time>2025-10-19T14:46:44Z</time>
      </trkpt>
      <trkpt lat="43.23292" lon="5.50119">
        <ele>203.2</ele>
        <time>2025-10-19T14:46:45Z</time>
      </trkpt>
      <trkpt lat="43.23293" lon="5.50118">
        <ele>203.4</ele>
        <time>2025-10-19T14:46:46Z</time>
      </trkpt>
      <trkpt lat="43.23294" lon="5.50118">
        <ele>203.6</ele>
        <time>2025-10-19T14:46:47Z</time>
      </trkpt>
      <trkpt lat="43.23294" lon="5.50117">
        <ele>203.8</ele>
        <time>2025-10-19T14:46:48Z</time>
      </trkpt>
      <trkpt lat="43.23295" lon="5.50116">
        <ele>204</ele>
        <time>2025-10-19T14:46:49Z</time>
      </trkpt>
      <trkpt lat="43.23296" lon="5.50115">
        <ele>204.1</ele>
        <time>2025-10-19T14:46:50Z</time>
      </trkpt>
      <trkpt lat="43.23296" lon="5.50115">
        <ele>204.3</ele>
        <time>2025-10-19T14:46:51Z</time>
      </trkpt>
      <trkpt lat="43.23297" lon="5.50114">
        <ele>204.4</ele>
        <time>2025-10-19T14:46:52Z</time>
      </trkpt>
      <trkpt lat="43.23297" lon="5.50113">
        <ele>204.6</ele>
        <time>2025-10-19T14:46:53Z</time>
      </trkpt>
      <trkpt lat="43.23298" lon="5.50113">
        <ele>204.7</ele>
        <time>2025-10-19T14:46:54Z</time>
      </trkpt>
      <trkpt lat="43.23298" lon="5.50114">
        <ele>204.9</ele>
        <time>2025-10-19T14:46:55Z</time>
      </trkpt>
      <trkpt lat="43.23298" lon="5.50114">
        <ele>205</ele>
        <time>2025-10-19T14:46:56Z</time>
      </trkpt>
      <trkpt lat="43.23299" lon="5.50114">
        <ele>205.1</ele>
        <time>2025-10-19T14:46:57Z</time>
      </trkpt>
      <trkpt lat="43.23299" lon="5.50114">
        <ele>205.2</ele>
        <time>2025-10-19T14:46:58Z</time>
      </trkpt>
      <trkpt lat="43.233" lon="5.50114">
        <ele>205.3</ele>
        <time>2025-10-19T14:46:59Z</time>
      </trkpt>
      <trkpt lat="43.233" lon="5.50114">
        <ele>205.6</ele>
        <time>2025-10-19T14:47:00Z</time>
      </trkpt>
      <trkpt lat="43.23301" lon="5.50114">
        <ele>205.9</ele>
        <time>2025-10-19T14:47:01Z</time>
      </trkpt>
      <trkpt lat="43.23302" lon="5.50114">
        <ele>206</ele>
        <time>2025-10-19T14:47:02Z</time>
      </trkpt>
      <trkpt lat="43.23302" lon="5.50113">
        <ele>206</ele>
        <time>2025-10-19T14:47:03Z</time>
      </trkpt>
      <trkpt lat="43.23303" lon="5.50113">
        <ele>206.1</ele>
        <time>2025-10-19T14:47:04Z</time>
      </trkpt>
      <trkpt lat="43.23303" lon="5.50113">
        <ele>206.5</ele>
        <time>2025-10-19T14:47:05Z</time>
      </trkpt>
      <trkpt lat="43.23304" lon="5.50113">
        <ele>206.6</ele>
        <time>2025-10-19T14:47:06Z</time>
      </trkpt>
      <trkpt lat="43.23305" lon="5.50113">
        <ele>206.8</ele>
        <time>2025-10-19T14:47:07Z</time>
      </trkpt>
      <trkpt lat="43.23305" lon="5.50113">
        <ele>207</ele>
        <time>2025-10-19T14:47:08Z</time>
      </trkpt>
      <trkpt lat="43.23306" lon="5.50113">
        <ele>207.1</ele>
        <time>2025-10-19T14:47:09Z</time>
      </trkpt>
      <trkpt lat="43.23306" lon="5.50113">
        <ele>207.2</ele>
        <time>2025-10-19T14:47:10Z</time>
      </trkpt>
      <trkpt lat="43.23307" lon="5.50113">
        <ele>207.3</ele>
        <time>2025-10-19T14:47:11Z</time>
      </trkpt>
      <trkpt lat="43.23307" lon="5.50113">
        <ele>207.4</ele>
        <time>2025-10-19T14:47:12Z</time>
      </trkpt>
      <trkpt lat="43.23307" lon="5.50114">
        <ele>207.6</ele>
        <time>2025-10-19T14:47:13Z</time>
      </trkpt>
      <trkpt lat="43.23307" lon="5.50114">
        <ele>207.7</ele>
        <time>2025-10-19T14:47:14Z</time>
      </trkpt>
      <trkpt lat="43.23308" lon="5.50114">
        <ele>207.9</ele>
        <time>2025-10-19T14:47:15Z</time>
      </trkpt>
      <trkpt lat="43.23308" lon="5.50114">
        <ele>208.1</ele>
        <time>2025-10-19T14:47:16Z</time>
      </trkpt>
      <trkpt lat="43.23309" lon="5.50115">
        <ele>208.3</ele>
        <time>2025-10-19T14:47:17Z</time>
      </trkpt>
      <trkpt lat="43.2331" lon="5.50115">
        <ele>208.6</ele>
        <time>2025-10-19T14:47:18Z</time>
      </trkpt>
      <trkpt lat="43.2331" lon="5.50114">
        <ele>208.8</ele>
        <time>2025-10-19T14:47:19Z</time>
      </trkpt>
      <trkpt lat="43.23311" lon="5.50114">
        <ele>209</ele>
        <time>2025-10-19T14:47:20Z</time>
      </trkpt>
      <trkpt lat="43.23311" lon="5.50114">
        <ele>209.2</ele>
        <time>2025-10-19T14:47:21Z</time>
      </trkpt>
      <trkpt lat="43.23311" lon="5.50114">
        <ele>209.4</ele>
        <time>2025-10-19T14:47:22Z</time>
      </trkpt>
      <trkpt lat="43.23312" lon="5.50114">
        <ele>209.6</ele>
        <time>2025-10-19T14:47:23Z</time>
      </trkpt>
      <trkpt lat="43.23312" lon="5.50113">
        <ele>209.8</ele>
        <time>2025-10-19T14:47:24Z</time>
      </trkpt>
      <trkpt lat="43.23313" lon="5.50113">
        <ele>210</ele>
        <time>2025-10-19T14:47:25Z</time>
      </trkpt>
      <trkpt lat="43.23314" lon="5.50112">
        <ele>210.2</ele>
        <time>2025-10-19T14:47:26Z</time>
      </trkpt>
      <trkpt lat="43.23314" lon="5.50112">
        <ele>210.3</ele>
        <time>2025-10-19T14:47:27Z</time>
      </trkpt>
      <trkpt lat="43.23315" lon="5.50112">
        <ele>210.6</ele>
        <time>2025-10-19T14:47:28Z</time>
      </trkpt>
      <trkpt lat="43.23315" lon="5.50112">
        <ele>210.7</ele>
        <time>2025-10-19T14:47:29Z</time>
      </trkpt>
      <trkpt lat="43.23315" lon="5.50112">
        <ele>210.9</ele>
        <time>2025-10-19T14:47:30Z</time>
      </trkpt>
      <trkpt lat="43.23315" lon="5.50113">
        <ele>211</ele>
        <time>2025-10-19T14:47:31Z</time>
      </trkpt>
      <trkpt lat="43.23315" lon="5.50113">
        <ele>211.2</ele>
        <time>2025-10-19T14:47:32Z</time>
      </trkpt>
      <trkpt lat="43.23315" lon="5.50113">
        <ele>211.3</ele>
        <time>2025-10-19T14:47:33Z</time>
      </trkpt>
      <trkpt lat="43.23316" lon="5.50113">
        <ele>211.5</ele>
        <time>2025-10-19T14:47:34Z</time>
      </trkpt>
      <trkpt lat="43.23316" lon="5.50113">
        <ele>211.6</ele>
        <time>2025-10-19T14:47:35Z</time>
      </trkpt>
      <trkpt lat="43.23316" lon="5.50113">
        <ele>211.8</ele>
        <time>2025-10-19T14:47:36Z</time>
      </trkpt>
      <trkpt lat="43.23316" lon="5.50113">
        <ele>212</ele>
        <time>2025-10-19T14:47:37Z</time>
      </trkpt>
      <trkpt lat="43.23317" lon="5.50113">
        <ele>212.2</ele>
        <time>2025-10-19T14:47:38Z</time>
      </trkpt>
      <trkpt lat="43.23317" lon="5.50112">
        <ele>212.2</ele>
        <time>2025-10-19T14:47:39Z</time>
      </trkpt>
      <trkpt lat="43.23317" lon="5.50112">
        <ele>212.3</ele>
        <time>2025-10-19T14:47:40Z</time>
      </trkpt>
      <trkpt lat="43.23318" lon="5.50112">
        <ele>212.4</ele>
        <time>2025-10-19T14:47:41Z</time>
      </trkpt>
      <trkpt lat="43.23318" lon="5.50112">
        <ele>212.6</ele>
        <time>2025-10-19T14:47:42Z</time>
      </trkpt>
      <trkpt lat="43.23318" lon="5.50112">
        <ele>212.8</ele>
        <time>2025-10-19T14:47:43Z</time>
      </trkpt>
      <trkpt lat="43.23319" lon="5.50112">
        <ele>212.9</ele>
        <time>2025-10-19T14:47:44Z</time>
      </trkpt>
      <trkpt lat="43.23319" lon="5.50111">
        <ele>213.1</ele>
        <time>2025-10-19T14:47:45Z</time>
      </trkpt>
      <trkpt lat="43.2332" lon="5.50111">
        <ele>213.1</ele>
        <time>2025-10-19T14:47:46Z</time>
      </trkpt>
      <trkpt lat="43.2332" lon="5.50111">
        <ele>213.2</ele>
        <time>2025-10-19T14:47:47Z</time>
      </trkpt>
      <trkpt lat="43.2332" lon="5.5011">
        <ele>213.4</ele>
        <time>2025-10-19T14:47:48Z</time>
      </trkpt>
      <trkpt lat="43.23321" lon="5.5011">
        <ele>213.7</ele>
        <time>2025-10-19T14:47:49Z</time>
      </trkpt>
      <trkpt lat="43.23321" lon="5.5011">
        <ele>213.8</ele>
        <time>2025-10-19T14:47:50Z</time>
      </trkpt>
      <trkpt lat="43.23321" lon="5.50109">
        <ele>214</ele>
        <time>2025-10-19T14:47:51Z</time>
      </trkpt>
      <trkpt lat="43.23321" lon="5.50109">
        <ele>214.1</ele>
        <time>2025-10-19T14:47:52Z</time>
      </trkpt>
      <trkpt lat="43.23322" lon="5.50109">
        <ele>214.2</ele>
        <time>2025-10-19T14:47:53Z</time>
      </trkpt>
      <trkpt lat="43.23322" lon="5.5011">
        <ele>214.3</ele>
        <time>2025-10-19T14:47:54Z</time>
      </trkpt>
      <trkpt lat="43.23322" lon="5.5011">
        <ele>214.4</ele>
        <time>2025-10-19T14:47:55Z</time>
      </trkpt>
      <trkpt lat="43.23322" lon="5.50111">
        <ele>214.5</ele>
        <time>2025-10-19T14:47:56Z</time>
      </trkpt>
      <trkpt lat="43.23322" lon="5.50111">
        <ele>214.7</ele>
        <time>2025-10-19T14:47:57Z</time>
      </trkpt>
      <trkpt lat="43.23323" lon="5.50111">
        <ele>214.8</ele>
        <time>2025-10-19T14:47:58Z</time>
      </trkpt>
      <trkpt lat="43.23323" lon="5.50111">
        <ele>215</ele>
        <time>2025-10-19T14:47:59Z</time>
      </trkpt>
      <trkpt lat="43.23324" lon="5.50111">
        <ele>215.1</ele>
        <time>2025-10-19T14:48:00Z</time>
      </trkpt>
      <trkpt lat="43.23324" lon="5.50111">
        <ele>215.3</ele>
        <time>2025-10-19T14:48:01Z</time>
      </trkpt>
      <trkpt lat="43.23324" lon="5.50111">
        <ele>215.5</ele>
        <time>2025-10-19T14:48:02Z</time>
      </trkpt>
      <trkpt lat="43.23324" lon="5.50111">
        <ele>215.7</ele>
        <time>2025-10-19T14:48:03Z</time>
      </trkpt>
      <trkpt lat="43.23325" lon="5.50112">
        <ele>215.9</ele>
        <time>2025-10-19T14:48:04Z</time>
      </trkpt>
      <trkpt lat="43.23325" lon="5.50112">
        <ele>216</ele>
        <time>2025-10-19T14:48:05Z</time>
      </trkpt>
      <trkpt lat="43.23325" lon="5.50111">
        <ele>216.1</ele>
        <time>2025-10-19T14:48:06Z</time>
      </trkpt>
      <trkpt lat="43.23326" lon="5.50111">
        <ele>216.2</ele>
        <time>2025-10-19T14:48:07Z</time>
      </trkpt>
      <trkpt lat="43.23326" lon="5.50112">
        <ele>216.3</ele>
        <time>2025-10-19T14:48:08Z</time>
      </trkpt>
      <trkpt lat="43.23326" lon="5.50112">
        <ele>216.4</ele>
        <time>2025-10-19T14:48:09Z</time>
      </trkpt>
      <trkpt lat="43.23327" lon="5.50112">
        <ele>216.5</ele>
        <time>2025-10-19T14:48:10Z</time>
      </trkpt>
      <trkpt lat="43.23327" lon="5.50113">
        <ele>216.7</ele>
        <time>2025-10-19T14:48:11Z</time>
      </trkpt>
      <trkpt lat="43.23328" lon="5.50113">
        <ele>216.8</ele>
        <time>2025-10-19T14:48:12Z</time>
      </trkpt>
      <trkpt lat="43.23329" lon="5.50112">
        <ele>216.9</ele>
        <time>2025-10-19T14:48:13Z</time>
      </trkpt>
      <trkpt lat="43.23329" lon="5.50112">
        <ele>217.1</ele>
        <time>2025-10-19T14:48:14Z</time>
      </trkpt>
      <trkpt lat="43.2333" lon="5.50111">
        <ele>217.2</ele>
        <time>2025-10-19T14:48:15Z</time>
      </trkpt>
      <trkpt lat="43.2333" lon="5.50112">
        <ele>217.4</ele>
        <time>2025-10-19T14:48:16Z</time>
      </trkpt>
      <trkpt lat="43.2333" lon="5.50112">
        <ele>217.6</ele>
        <time>2025-10-19T14:48:17Z</time>
      </trkpt>
      <trkpt lat="43.23331" lon="5.50112">
        <ele>217.9</ele>
        <time>2025-10-19T14:48:18Z</time>
      </trkpt>
      <trkpt lat="43.23331" lon="5.50113">
        <ele>218.2</ele>
        <time>2025-10-19T14:48:19Z</time>
      </trkpt>
      <trkpt lat="43.23331" lon="5.50113">
        <ele>218.4</ele>
        <time>2025-10-19T14:48:20Z</time>
      </trkpt>
      <trkpt lat="43.23332" lon="5.50113">
        <ele>218.5</ele>
        <time>2025-10-19T14:48:21Z</time>
      </trkpt>
      <trkpt lat="43.23332" lon="5.50113">
        <ele>218.7</ele>
        <time>2025-10-19T14:48:22Z</time>
      </trkpt>
      <trkpt lat="43.23332" lon="5.50113">
        <ele>218.9</ele>
        <time>2025-10-19T14:48:23Z</time>
      </trkpt>
      <trkpt lat="43.23332" lon="5.50113">
        <ele>219</ele>
        <time>2025-10-19T14:48:24Z</time>
      </trkpt>
      <trkpt lat="43.23332" lon="5.50114">
        <ele>219.1</ele>
        <time>2025-10-19T14:48:25Z</time>
      </trkpt>
      <trkpt lat="43.23333" lon="5.50114">
        <ele>219.3</ele>
        <time>2025-10-19T14:48:26Z</time>
      </trkpt>
      <trkpt lat="43.23333" lon="5.50114">
        <ele>219.5</ele>
        <time>2025-10-19T14:48:27Z</time>
      </trkpt>
      <trkpt lat="43.23334" lon="5.50115">
        <ele>219.7</ele>
        <time>2025-10-19T14:48:28Z</time>
      </trkpt>
      <trkpt lat="43.23335" lon="5.50115">
        <ele>219.9</ele>
        <time>2025-10-19T14:48:29Z</time>
      </trkpt>
      <trkpt lat="43.23336" lon="5.50114">
        <ele>220</ele>
        <time>2025-10-19T14:48:30Z</time>
      </trkpt>
      <trkpt lat="43.23337" lon="5.50115">
        <ele>220.2</ele>
        <time>2025-10-19T14:48:31Z</time>
      </trkpt>
      <trkpt lat="43.23338" lon="5.50115">
        <ele>220.3</ele>
        <time>2025-10-19T14:48:32Z</time>
      </trkpt>
      <trkpt lat="43.23339" lon="5.50115">
        <ele>220.4</ele>
        <time>2025-10-19T14:48:33Z</time>
      </trkpt>
      <trkpt lat="43.2334" lon="5.50115">
        <ele>220.5</ele>
        <time>2025-10-19T14:48:34Z</time>
      </trkpt>
      <trkpt lat="43.2334" lon="5.50115">
        <ele>220.6</ele>
        <time>2025-10-19T14:48:35Z</time>
      </trkpt>
      <trkpt lat="43.23341" lon="5.50115">
        <ele>220.8</ele>
        <time>2025-10-19T14:48:36Z</time>
      </trkpt>
      <trkpt lat="43.23342" lon="5.50115">
        <ele>221</ele>
        <time>2025-10-19T14:48:37Z</time>
      </trkpt>
      <trkpt lat="43.23342" lon="5.50115">
        <ele>221.2</ele>
        <time>2025-10-19T14:48:38Z</time>
      </trkpt>
      <trkpt lat="43.23343" lon="5.50116">
        <ele>221.3</ele>
        <time>2025-10-19T14:48:39Z</time>
      </trkpt>
      <trkpt lat="43.23344" lon="5.50116">
        <ele>221.4</ele>
        <time>2025-10-19T14:48:40Z</time>
      </trkpt>
      <trkpt lat="43.23344" lon="5.50117">
        <ele>221.6</ele>
        <time>2025-10-19T14:48:41Z</time>
      </trkpt>
      <trkpt lat="43.23345" lon="5.50117">
        <ele>221.7</ele>
        <time>2025-10-19T14:48:42Z</time>
      </trkpt>
      <trkpt lat="43.23345" lon="5.50118">
        <ele>221.7</ele>
        <time>2025-10-19T14:48:43Z</time>
      </trkpt>
      <trkpt lat="43.23346" lon="5.50118">
        <ele>221.8</ele>
        <time>2025-10-19T14:48:44Z</time>
      </trkpt>
      <trkpt lat="43.23346" lon="5.50119">
        <ele>221.9</ele>
        <time>2025-10-19T14:48:45Z</time>
      </trkpt>
      <trkpt lat="43.23347" lon="5.50119">
        <ele>222.1</ele>
        <time>2025-10-19T14:48:46Z</time>
      </trkpt>
      <trkpt lat="43.23348" lon="5.5012">
        <ele>222.3</ele>
        <time>2025-10-19T14:48:47Z</time>
      </trkpt>
      <trkpt lat="43.23349" lon="5.5012">
        <ele>222.4</ele>
        <time>2025-10-19T14:48:48Z</time>
      </trkpt>
      <trkpt lat="43.2335" lon="5.5012">
        <ele>222.6</ele>
        <time>2025-10-19T14:48:49Z</time>
      </trkpt>
      <trkpt lat="43.23351" lon="5.5012">
        <ele>222.7</ele>
        <time>2025-10-19T14:48:50Z</time>
      </trkpt>
      <trkpt lat="43.23352" lon="5.50121">
        <ele>222.9</ele>
        <time>2025-10-19T14:48:51Z</time>
      </trkpt>
      <trkpt lat="43.23353" lon="5.50121">
        <ele>222.9</ele>
        <time>2025-10-19T14:48:52Z</time>
      </trkpt>
      <trkpt lat="43.23354" lon="5.50121">
        <ele>222.9</ele>
        <time>2025-10-19T14:48:53Z</time>
      </trkpt>
      <trkpt lat="43.23354" lon="5.50121">
        <ele>223.1</ele>
        <time>2025-10-19T14:48:54Z</time>
      </trkpt>
      <trkpt lat="43.23355" lon="5.50121">
        <ele>223.3</ele>
        <time>2025-10-19T14:48:55Z</time>
      </trkpt>
      <trkpt lat="43.23356" lon="5.50121">
        <ele>223.4</ele>
        <time>2025-10-19T14:48:56Z</time>
      </trkpt>
      <trkpt lat="43.23357" lon="5.50121">
        <ele>223.5</ele>
        <time>2025-10-19T14:48:57Z</time>
      </trkpt>
      <trkpt lat="43.23358" lon="5.50121">
        <ele>223.5</ele>
        <time>2025-10-19T14:48:58Z</time>
      </trkpt>
      <trkpt lat="43.23359" lon="5.50122">
        <ele>223.6</ele>
        <time>2025-10-19T14:48:59Z</time>
      </trkpt>
      <trkpt lat="43.2336" lon="5.50122">
        <ele>223.6</ele>
        <time>2025-10-19T14:49:00Z</time>
      </trkpt>
      <trkpt lat="43.23361" lon="5.50122">
        <ele>223.7</ele>
        <time>2025-10-19T14:49:01Z</time>
      </trkpt>
      <trkpt lat="43.23362" lon="5.50123">
        <ele>223.8</ele>
        <time>2025-10-19T14:49:02Z</time>
      </trkpt>
      <trkpt lat="43.23363" lon="5.50123">
        <ele>223.8</ele>
        <time>2025-10-19T14:49:03Z</time>
      </trkpt>
      <trkpt lat="43.23363" lon="5.50124">
        <ele>223.9</ele>
        <time>2025-10-19T14:49:04Z</time>
      </trkpt>
      <trkpt lat="43.23364" lon="5.50125">
        <ele>224</ele>
        <time>2025-10-19T14:49:05Z</time>
      </trkpt>
      <trkpt lat="43.23365" lon="5.50125">
        <ele>224.1</ele>
        <time>2025-10-19T14:49:06Z</time>
      </trkpt>
      <trkpt lat="43.23366" lon="5.50125">
        <ele>224.2</ele>
        <time>2025-10-19T14:49:07Z</time>
      </trkpt>
      <trkpt lat="43.23367" lon="5.50125">
        <ele>224.3</ele>
        <time>2025-10-19T14:49:08Z</time>
      </trkpt>
      <trkpt lat="43.23368" lon="5.50125">
        <ele>224.4</ele>
        <time>2025-10-19T14:49:09Z</time>
      </trkpt>
      <trkpt lat="43.23369" lon="5.50125">
        <ele>224.4</ele>
        <time>2025-10-19T14:49:10Z</time>
      </trkpt>
      <trkpt lat="43.23371" lon="5.50124">
        <ele>224.5</ele>
        <time>2025-10-19T14:49:11Z</time>
      </trkpt>
      <trkpt lat="43.23372" lon="5.50124">
        <ele>224.5</ele>
        <time>2025-10-19T14:49:12Z</time>
      </trkpt>
      <trkpt lat="43.23373" lon="5.50123">
        <ele>224.6</ele>
        <time>2025-10-19T14:49:13Z</time>
      </trkpt>
      <trkpt lat="43.23374" lon="5.50123">
        <ele>224.7</ele>
        <time>2025-10-19T14:49:14Z</time>
      </trkpt>
      <trkpt lat="43.23375" lon="5.50122">
        <ele>224.8</ele>
        <time>2025-10-19T14:49:15Z</time>
      </trkpt>
      <trkpt lat="43.23376" lon="5.50121">
        <ele>224.8</ele>
        <time>2025-10-19T14:49:16Z</time>
      </trkpt>
      <trkpt lat="43.23376" lon="5.50121">
        <ele>224.9</ele>
        <time>2025-10-19T14:49:17Z</time>
      </trkpt>
      <trkpt lat="43.23377" lon="5.5012">
        <ele>225</ele>
        <time>2025-10-19T14:49:18Z</time>
      </trkpt>
      <trkpt lat="43.23378" lon="5.50119">
        <ele>225.2</ele>
        <time>2025-10-19T14:49:19Z</time>
      </trkpt>
      <trkpt lat="43.2338" lon="5.50119">
        <ele>225.3</ele>
        <time>2025-10-19T14:49:20Z</time>
      </trkpt>
      <trkpt lat="43.2338" lon="5.50118">
        <ele>225.3</ele>
        <time>2025-10-19T14:49:21Z</time>
      </trkpt>
      <trkpt lat="43.23381" lon="5.50117">
        <ele>225.3</ele>
        <time>2025-10-19T14:49:22Z</time>
      </trkpt>
      <trkpt lat="43.23383" lon="5.50116">
        <ele>225.5</ele>
        <time>2025-10-19T14:49:23Z</time>
      </trkpt>
      <trkpt lat="43.23384" lon="5.50116">
        <ele>225.5</ele>
        <time>2025-10-19T14:49:24Z</time>
      </trkpt>
      <trkpt lat="43.23385" lon="5.50115">
        <ele>225.5</ele>
        <time>2025-10-19T14:49:25Z</time>
      </trkpt>
      <trkpt lat="43.23386" lon="5.50114">
        <ele>225.5</ele>
        <time>2025-10-19T14:49:26Z</time>
      </trkpt>
      <trkpt lat="43.23387" lon="5.50114">
        <ele>225.6</ele>
        <time>2025-10-19T14:49:27Z</time>
      </trkpt>
      <trkpt lat="43.23388" lon="5.50113">
        <ele>225.7</ele>
        <time>2025-10-19T14:49:28Z</time>
      </trkpt>
      <trkpt lat="43.23389" lon="5.50113">
        <ele>225.8</ele>
        <time>2025-10-19T14:49:29Z</time>
      </trkpt>
      <trkpt lat="43.2339" lon="5.50112">
        <ele>225.8</ele>
        <time>2025-10-19T14:49:30Z</time>
      </trkpt>
      <trkpt lat="43.23391" lon="5.50112">
        <ele>225.9</ele>
        <time>2025-10-19T14:49:31Z</time>
      </trkpt>
      <trkpt lat="43.23392" lon="5.50111">
        <ele>226</ele>
        <time>2025-10-19T14:49:32Z</time>
      </trkpt>
      <trkpt lat="43.23393" lon="5.5011">
        <ele>226.1</ele>
        <time>2025-10-19T14:49:33Z</time>
      </trkpt>
      <trkpt lat="43.23394" lon="5.5011">
        <ele>226.1</ele>
        <time>2025-10-19T14:49:34Z</time>
      </trkpt>
      <trkpt lat="43.23395" lon="5.50109">
        <ele>226.1</ele>
        <time>2025-10-19T14:49:35Z</time>
      </trkpt>
      <trkpt lat="43.23396" lon="5.50108">
        <ele>226.2</ele>
        <time>2025-10-19T14:49:36Z</time>
      </trkpt>
      <trkpt lat="43.23397" lon="5.50107">
        <ele>226.2</ele>
        <time>2025-10-19T14:49:37Z</time>
      </trkpt>
      <trkpt lat="43.23398" lon="5.50106">
        <ele>226.2</ele>
        <time>2025-10-19T14:49:38Z</time>
      </trkpt>
      <trkpt lat="43.23399" lon="5.50106">
        <ele>226.3</ele>
        <time>2025-10-19T14:49:39Z</time>
      </trkpt>
      <trkpt lat="43.234" lon="5.50105">
        <ele>226.3</ele>
        <time>2025-10-19T14:49:40Z</time>
      </trkpt>
      <trkpt lat="43.23402" lon="5.50105">
        <ele>226.4</ele>
        <time>2025-10-19T14:49:41Z</time>
      </trkpt>
      <trkpt lat="43.23403" lon="5.50104">
        <ele>226.5</ele>
        <time>2025-10-19T14:49:42Z</time>
      </trkpt>
      <trkpt lat="43.23404" lon="5.50104">
        <ele>226.6</ele>
        <time>2025-10-19T14:49:43Z</time>
      </trkpt>
      <trkpt lat="43.23404" lon="5.50104">
        <ele>226.7</ele>
        <time>2025-10-19T14:49:44Z</time>
      </trkpt>
      <trkpt lat="43.23404" lon="5.50104">
        <ele>226.7</ele>
        <time>2025-10-19T14:49:45Z</time>
      </trkpt>
      <trkpt lat="43.23405" lon="5.50104">
        <ele>226.8</ele>
        <time>2025-10-19T14:49:46Z</time>
      </trkpt>
      <trkpt lat="43.23405" lon="5.50104">
        <ele>226.9</ele>
        <time>2025-10-19T14:49:47Z</time>
      </trkpt>
      <trkpt lat="43.23405" lon="5.50104">
        <ele>226.9</ele>
        <time>2025-10-19T14:49:48Z</time>
      </trkpt>
      <trkpt lat="43.23405" lon="5.50104">
        <ele>227</ele>
        <time>2025-10-19T14:49:49Z</time>
      </trkpt>
      <trkpt lat="43.23405" lon="5.50104">
        <ele>227</ele>
        <time>2025-10-19T14:49:50Z</time>
      </trkpt>
      <trkpt lat="43.23405" lon="5.50103">
        <ele>227.1</ele>
        <time>2025-10-19T14:49:51Z</time>
      </trkpt>
      <trkpt lat="43.23405" lon="5.50103">
        <ele>227</ele>
        <time>2025-10-19T14:49:52Z</time>
      </trkpt>
      <trkpt lat="43.23405" lon="5.50103">
        <ele>227</ele>
        <time>2025-10-19T14:49:53Z</time>
      </trkpt>
      <trkpt lat="43.23405" lon="5.50103">
        <ele>227</ele>
        <time>2025-10-19T14:49:54Z</time>
      </trkpt>
      <trkpt lat="43.23405" lon="5.50103">
        <ele>227</ele>
        <time>2025-10-19T14:49:55Z</time>
      </trkpt>
      <trkpt lat="43.23405" lon="5.50103">
        <ele>227.1</ele>
        <time>2025-10-19T14:49:56Z</time>
      </trkpt>
      <trkpt lat="43.23405" lon="5.50103">
        <ele>227</ele>
        <time>2025-10-19T14:49:57Z</time>
      </trkpt>
      <trkpt lat="43.23405" lon="5.50103">
        <ele>227</ele>
        <time>2025-10-19T14:49:58Z</time>
      </trkpt>
      <trkpt lat="43.23406" lon="5.50102">
        <ele>227</ele>
        <time>2025-10-19T14:49:59Z</time>
      </trkpt>
      <trkpt lat="43.23406" lon="5.50102">
        <ele>227</ele>
        <time>2025-10-19T14:50:00Z</time>
      </trkpt>
      <trkpt lat="43.23406" lon="5.50102">
        <ele>227</ele>
        <time>2025-10-19T14:50:01Z</time>
      </trkpt>
      <trkpt lat="43.23406" lon="5.50101">
        <ele>227.1</ele>
        <time>2025-10-19T14:50:02Z</time>
      </trkpt>
      <trkpt lat="43.23405" lon="5.50101">
        <ele>227.1</ele>
        <time>2025-10-19T14:50:03Z</time>
      </trkpt>
      <trkpt lat="43.23405" lon="5.50101">
        <ele>227.1</ele>
        <time>2025-10-19T14:50:04Z</time>
      </trkpt>
      <trkpt lat="43.23405" lon="5.50101">
        <ele>227.1</ele>
        <time>2025-10-19T14:50:05Z</time>
      </trkpt>
      <trkpt lat="43.23405" lon="5.501">
        <ele>227.1</ele>
        <time>2025-10-19T14:50:06Z</time>
      </trkpt>
      <trkpt lat="43.23406" lon="5.501">
        <ele>227.1</ele>
        <time>2025-10-19T14:50:07Z</time>
      </trkpt>
      <trkpt lat="43.23405" lon="5.501">
        <ele>227</ele>
        <time>2025-10-19T14:50:08Z</time>
      </trkpt>
      <trkpt lat="43.23406" lon="5.501">
        <ele>227</ele>
        <time>2025-10-19T14:50:09Z</time>
      </trkpt>
      <trkpt lat="43.23406" lon="5.501">
        <ele>227</ele>
        <time>2025-10-19T14:50:10Z</time>
      </trkpt>
      <trkpt lat="43.23406" lon="5.501">
        <ele>227</ele>
        <time>2025-10-19T14:50:11Z</time>
      </trkpt>
      <trkpt lat="43.23406" lon="5.50099">
        <ele>227</ele>
        <time>2025-10-19T14:50:12Z</time>
      </trkpt>
      <trkpt lat="43.23406" lon="5.501">
        <ele>227.1</ele>
        <time>2025-10-19T14:50:13Z</time>
      </trkpt>
      <trkpt lat="43.23406" lon="5.50099">
        <ele>227.1</ele>
        <time>2025-10-19T14:50:14Z</time>
      </trkpt>
      <trkpt lat="43.23406" lon="5.50099">
        <ele>227.1</ele>
        <time>2025-10-19T14:50:15Z</time>
      </trkpt>
      <trkpt lat="43.23406" lon="5.50099">
        <ele>227.1</ele>
        <time>2025-10-19T14:50:16Z</time>
      </trkpt>
      <trkpt lat="43.23406" lon="5.50099">
        <ele>227</ele>
        <time>2025-10-19T14:50:17Z</time>
      </trkpt>
      <trkpt lat="43.23406" lon="5.50099">
        <ele>226.9</ele>
        <time>2025-10-19T14:50:18Z</time>
      </trkpt>
      <trkpt lat="43.23406" lon="5.50099">
        <ele>226.9</ele>
        <time>2025-10-19T14:50:19Z</time>
      </trkpt>
      <trkpt lat="43.23406" lon="5.50099">
        <ele>226.9</ele>
        <time>2025-10-19T14:50:20Z</time>
      </trkpt>
      <trkpt lat="43.23406" lon="5.50099">
        <ele>226.9</ele>
        <time>2025-10-19T14:50:21Z</time>
      </trkpt>
      <trkpt lat="43.23406" lon="5.50099">
        <ele>226.8</ele>
        <time>2025-10-19T14:50:22Z</time>
      </trkpt>
      <trkpt lat="43.23406" lon="5.50099">
        <ele>226.8</ele>
        <time>2025-10-19T14:50:23Z</time>
      </trkpt>
      <trkpt lat="43.23406" lon="5.50099">
        <ele>226.7</ele>
        <time>2025-10-19T14:50:24Z</time>
      </trkpt>
      <trkpt lat="43.23406" lon="5.50099">
        <ele>226.7</ele>
        <time>2025-10-19T14:50:25Z</time>
      </trkpt>
      <trkpt lat="43.23406" lon="5.50099">
        <ele>226.7</ele>
        <time>2025-10-19T14:50:26Z</time>
      </trkpt>
      <trkpt lat="43.23406" lon="5.50099">
        <ele>226.8</ele>
        <time>2025-10-19T14:50:27Z</time>
      </trkpt>
      <trkpt lat="43.23406" lon="5.50099">
        <ele>226.9</ele>
        <time>2025-10-19T14:50:28Z</time>
      </trkpt>
      <trkpt lat="43.23406" lon="5.50098">
        <ele>226.9</ele>
        <time>2025-10-19T14:50:29Z</time>
      </trkpt>
      <trkpt lat="43.23406" lon="5.50098">
        <ele>226.9</ele>
        <time>2025-10-19T14:50:30Z</time>
      </trkpt>
      <trkpt lat="43.23406" lon="5.50098">
        <ele>226.9</ele>
        <time>2025-10-19T14:50:31Z</time>
      </trkpt>
      <trkpt lat="43.23406" lon="5.50098">
        <ele>226.8</ele>
        <time>2025-10-19T14:50:32Z</time>
      </trkpt>
      <trkpt lat="43.23406" lon="5.50098">
        <ele>226.8</ele>
        <time>2025-10-19T14:50:33Z</time>
      </trkpt>
      <trkpt lat="43.23406" lon="5.50098">
        <ele>226.7</ele>
        <time>2025-10-19T14:50:34Z</time>
      </trkpt>
      <trkpt lat="43.23406" lon="5.50098">
        <ele>226.7</ele>
        <time>2025-10-19T14:50:35Z</time>
      </trkpt>
      <trkpt lat="43.23406" lon="5.50098">
        <ele>226.7</ele>
        <time>2025-10-19T14:50:36Z</time>
      </trkpt>
      <trkpt lat="43.23406" lon="5.50098">
        <ele>226.8</ele>
        <time>2025-10-19T14:50:37Z</time>
      </trkpt>
      <trkpt lat="43.23406" lon="5.50098">
        <ele>226.8</ele>
        <time>2025-10-19T14:50:38Z</time>
      </trkpt>
      <trkpt lat="43.23406" lon="5.50098">
        <ele>226.9</ele>
        <time>2025-10-19T14:50:39Z</time>
      </trkpt>
      <trkpt lat="43.23407" lon="5.50098">
        <ele>226.9</ele>
        <time>2025-10-19T14:50:40Z</time>
      </trkpt>
      <trkpt lat="43.23407" lon="5.50098">
        <ele>227</ele>
        <time>2025-10-19T14:50:41Z</time>
      </trkpt>
      <trkpt lat="43.23407" lon="5.50098">
        <ele>227</ele>
        <time>2025-10-19T14:50:42Z</time>
      </trkpt>
      <trkpt lat="43.23407" lon="5.50098">
        <ele>227</ele>
        <time>2025-10-19T14:50:43Z</time>
      </trkpt>
      <trkpt lat="43.23407" lon="5.50098">
        <ele>227</ele>
        <time>2025-10-19T14:50:44Z</time>
      </trkpt>
      <trkpt lat="43.23407" lon="5.50098">
        <ele>226.9</ele>
        <time>2025-10-19T14:50:45Z</time>
      </trkpt>
      <trkpt lat="43.23407" lon="5.50098">
        <ele>226.8</ele>
        <time>2025-10-19T14:50:46Z</time>
      </trkpt>
      <trkpt lat="43.23407" lon="5.50098">
        <ele>226.8</ele>
        <time>2025-10-19T14:50:47Z</time>
      </trkpt>
      <trkpt lat="43.23407" lon="5.50097">
        <ele>226.8</ele>
        <time>2025-10-19T14:50:48Z</time>
      </trkpt>
      <trkpt lat="43.23407" lon="5.50097">
        <ele>226.8</ele>
        <time>2025-10-19T14:50:49Z</time>
      </trkpt>
      <trkpt lat="43.23407" lon="5.50097">
        <ele>226.8</ele>
        <time>2025-10-19T14:50:50Z</time>
      </trkpt>
      <trkpt lat="43.23407" lon="5.50097">
        <ele>226.9</ele>
        <time>2025-10-19T14:50:51Z</time>
      </trkpt>
      <trkpt lat="43.23407" lon="5.50097">
        <ele>226.9</ele>
        <time>2025-10-19T14:50:52Z</time>
      </trkpt>
      <trkpt lat="43.23407" lon="5.50097">
        <ele>226.8</ele>
        <time>2025-10-19T14:50:53Z</time>
      </trkpt>
      <trkpt lat="43.23407" lon="5.50097">
        <ele>226.8</ele>
        <time>2025-10-19T14:50:54Z</time>
      </trkpt>
      <trkpt lat="43.23407" lon="5.50097">
        <ele>226.9</ele>
        <time>2025-10-19T14:50:55Z</time>
      </trkpt>
      <trkpt lat="43.23408" lon="5.50097">
        <ele>226.9</ele>
        <time>2025-10-19T14:50:56Z</time>
      </trkpt>
      <trkpt lat="43.23408" lon="5.50097">
        <ele>226.9</ele>
        <time>2025-10-19T14:50:57Z</time>
      </trkpt>
      <trkpt lat="43.23408" lon="5.50097">
        <ele>226.8</ele>
        <time>2025-10-19T14:50:58Z</time>
      </trkpt>
      <trkpt lat="43.23408" lon="5.50097">
        <ele>226.9</ele>
        <time>2025-10-19T14:50:59Z</time>
      </trkpt>
      <trkpt lat="43.23408" lon="5.50097">
        <ele>226.9</ele>
        <time>2025-10-19T14:51:00Z</time>
      </trkpt>
      <trkpt lat="43.23408" lon="5.50097">
        <ele>226.8</ele>
        <time>2025-10-19T14:51:01Z</time>
      </trkpt>
      <trkpt lat="43.23408" lon="5.50097">
        <ele>226.8</ele>
        <time>2025-10-19T14:51:02Z</time>
      </trkpt>
      <trkpt lat="43.23408" lon="5.50097">
        <ele>226.7</ele>
        <time>2025-10-19T14:51:03Z</time>
      </trkpt>
      <trkpt lat="43.23408" lon="5.50097">
        <ele>226.8</ele>
        <time>2025-10-19T14:51:04Z</time>
      </trkpt>
      <trkpt lat="43.23408" lon="5.50097">
        <ele>226.8</ele>
        <time>2025-10-19T14:51:05Z</time>
      </trkpt>
      <trkpt lat="43.23408" lon="5.50097">
        <ele>226.8</ele>
        <time>2025-10-19T14:51:06Z</time>
      </trkpt>
      <trkpt lat="43.23409" lon="5.50097">
        <ele>226.9</ele>
        <time>2025-10-19T14:51:07Z</time>
      </trkpt>
      <trkpt lat="43.2341" lon="5.50097">
        <ele>227</ele>
        <time>2025-10-19T14:51:08Z</time>
      </trkpt>
      <trkpt lat="43.2341" lon="5.50097">
        <ele>227</ele>
        <time>2025-10-19T14:51:09Z</time>
      </trkpt>
      <trkpt lat="43.23411" lon="5.50096">
        <ele>227</ele>
        <time>2025-10-19T14:51:10Z</time>
      </trkpt>
      <trkpt lat="43.23412" lon="5.50096">
        <ele>227</ele>
        <time>2025-10-19T14:51:11Z</time>
      </trkpt>
      <trkpt lat="43.23413" lon="5.50095">
        <ele>227</ele>
        <time>2025-10-19T14:51:12Z</time>
      </trkpt>
      <trkpt lat="43.23414" lon="5.50095">
        <ele>227</ele>
        <time>2025-10-19T14:51:13Z</time>
      </trkpt>
      <trkpt lat="43.23414" lon="5.50094">
        <ele>227</ele>
        <time>2025-10-19T14:51:14Z</time>
      </trkpt>
      <trkpt lat="43.23415" lon="5.50093">
        <ele>227.1</ele>
        <time>2025-10-19T14:51:15Z</time>
      </trkpt>
      <trkpt lat="43.23415" lon="5.50093">
        <ele>227.1</ele>
        <time>2025-10-19T14:51:16Z</time>
      </trkpt>
      <trkpt lat="43.23415" lon="5.50093">
        <ele>227.1</ele>
        <time>2025-10-19T14:51:17Z</time>
      </trkpt>
      <trkpt lat="43.23415" lon="5.50092">
        <ele>227.2</ele>
        <time>2025-10-19T14:51:18Z</time>
      </trkpt>
      <trkpt lat="43.23415" lon="5.50093">
        <ele>227.2</ele>
        <time>2025-10-19T14:51:19Z</time>
      </trkpt>
      <trkpt lat="43.23416" lon="5.50093">
        <ele>227.1</ele>
        <time>2025-10-19T14:51:20Z</time>
      </trkpt>
      <trkpt lat="43.23416" lon="5.50093">
        <ele>227.1</ele>
        <time>2025-10-19T14:51:21Z</time>
      </trkpt>
      <trkpt lat="43.23417" lon="5.50092">
        <ele>227</ele>
        <time>2025-10-19T14:51:22Z</time>
      </trkpt>
      <trkpt lat="43.23417" lon="5.50092">
        <ele>227</ele>
        <time>2025-10-19T14:51:23Z</time>
      </trkpt>
      <trkpt lat="43.23418" lon="5.50091">
        <ele>227.1</ele>
        <time>2025-10-19T14:51:24Z</time>
      </trkpt>
      <trkpt lat="43.23419" lon="5.50091">
        <ele>227.1</ele>
        <time>2025-10-19T14:51:25Z</time>
      </trkpt>
      <trkpt lat="43.2342" lon="5.5009">
        <ele>227</ele>
        <time>2025-10-19T14:51:26Z</time>
      </trkpt>
      <trkpt lat="43.23421" lon="5.5009">
        <ele>226.9</ele>
        <time>2025-10-19T14:51:27Z</time>
      </trkpt>
      <trkpt lat="43.23422" lon="5.50089">
        <ele>226.9</ele>
        <time>2025-10-19T14:51:28Z</time>
      </trkpt>
      <trkpt lat="43.23423" lon="5.50089">
        <ele>226.9</ele>
        <time>2025-10-19T14:51:29Z</time>
      </trkpt>
      <trkpt lat="43.23424" lon="5.50089">
        <ele>227</ele>
        <time>2025-10-19T14:51:30Z</time>
      </trkpt>
      <trkpt lat="43.23425" lon="5.50088">
        <ele>227</ele>
        <time>2025-10-19T14:51:31Z</time>
      </trkpt>
      <trkpt lat="43.23425" lon="5.50087">
        <ele>227</ele>
        <time>2025-10-19T14:51:32Z</time>
      </trkpt>
      <trkpt lat="43.23426" lon="5.50086">
        <ele>226.9</ele>
        <time>2025-10-19T14:51:33Z</time>
      </trkpt>
      <trkpt lat="43.23427" lon="5.50085">
        <ele>227</ele>
        <time>2025-10-19T14:51:34Z</time>
      </trkpt>
      <trkpt lat="43.23427" lon="5.50085">
        <ele>227</ele>
        <time>2025-10-19T14:51:35Z</time>
      </trkpt>
      <trkpt lat="43.23428" lon="5.50084">
        <ele>227.1</ele>
        <time>2025-10-19T14:51:36Z</time>
      </trkpt>
      <trkpt lat="43.23429" lon="5.50084">
        <ele>227.1</ele>
        <time>2025-10-19T14:51:37Z</time>
      </trkpt>
      <trkpt lat="43.23429" lon="5.50084">
        <ele>227.1</ele>
        <time>2025-10-19T14:51:38Z</time>
      </trkpt>
      <trkpt lat="43.23429" lon="5.50084">
        <ele>227.2</ele>
        <time>2025-10-19T14:51:39Z</time>
      </trkpt>
      <trkpt lat="43.23429" lon="5.50083">
        <ele>227.2</ele>
        <time>2025-10-19T14:51:40Z</time>
      </trkpt>
      <trkpt lat="43.2343" lon="5.50082">
        <ele>227.2</ele>
        <time>2025-10-19T14:51:41Z</time>
      </trkpt>
      <trkpt lat="43.23431" lon="5.50081">
        <ele>227.2</ele>
        <time>2025-10-19T14:51:42Z</time>
      </trkpt>
      <trkpt lat="43.23432" lon="5.5008">
        <ele>227.2</ele>
        <time>2025-10-19T14:51:43Z</time>
      </trkpt>
      <trkpt lat="43.23432" lon="5.50079">
        <ele>227.2</ele>
        <time>2025-10-19T14:51:44Z</time>
      </trkpt>
      <trkpt lat="43.23433" lon="5.50078">
        <ele>227.2</ele>
        <time>2025-10-19T14:51:45Z</time>
      </trkpt>
      <trkpt lat="43.23434" lon="5.50078">
        <ele>227.2</ele>
        <time>2025-10-19T14:51:46Z</time>
      </trkpt>
      <trkpt lat="43.23435" lon="5.50077">
        <ele>227.2</ele>
        <time>2025-10-19T14:51:47Z</time>
      </trkpt>
      <trkpt lat="43.23436" lon="5.50077">
        <ele>227.2</ele>
        <time>2025-10-19T14:51:48Z</time>
      </trkpt>
      <trkpt lat="43.23437" lon="5.50076">
        <ele>227.2</ele>
        <time>2025-10-19T14:51:49Z</time>
      </trkpt>
      <trkpt lat="43.23438" lon="5.50075">
        <ele>227.2</ele>
        <time>2025-10-19T14:51:50Z</time>
      </trkpt>
      <trkpt lat="43.2344" lon="5.50075">
        <ele>227.3</ele>
        <time>2025-10-19T14:51:51Z</time>
      </trkpt>
      <trkpt lat="43.23441" lon="5.50074">
        <ele>227.3</ele>
        <time>2025-10-19T14:51:52Z</time>
      </trkpt>
      <trkpt lat="43.23442" lon="5.50074">
        <ele>227.4</ele>
        <time>2025-10-19T14:51:53Z</time>
      </trkpt>
      <trkpt lat="43.23443" lon="5.50073">
        <ele>227.5</ele>
        <time>2025-10-19T14:51:54Z</time>
      </trkpt>
      <trkpt lat="43.23444" lon="5.50073">
        <ele>227.5</ele>
        <time>2025-10-19T14:51:55Z</time>
      </trkpt>
      <trkpt lat="43.23445" lon="5.50072">
        <ele>227.6</ele>
        <time>2025-10-19T14:51:56Z</time>
      </trkpt>
      <trkpt lat="43.23446" lon="5.50072">
        <ele>227.7</ele>
        <time>2025-10-19T14:51:57Z</time>
      </trkpt>
      <trkpt lat="43.23447" lon="5.50071">
        <ele>227.7</ele>
        <time>2025-10-19T14:51:58Z</time>
      </trkpt>
      <trkpt lat="43.23448" lon="5.5007">
        <ele>227.7</ele>
        <time>2025-10-19T14:51:59Z</time>
      </trkpt>
      <trkpt lat="43.23449" lon="5.50069">
        <ele>227.7</ele>
        <time>2025-10-19T14:52:00Z</time>
      </trkpt>
      <trkpt lat="43.2345" lon="5.50069">
        <ele>227.6</ele>
        <time>2025-10-19T14:52:01Z</time>
      </trkpt>
      <trkpt lat="43.23451" lon="5.50068">
        <ele>227.6</ele>
        <time>2025-10-19T14:52:02Z</time>
      </trkpt>
      <trkpt lat="43.23452" lon="5.50067">
        <ele>227.6</ele>
        <time>2025-10-19T14:52:03Z</time>
      </trkpt>
      <trkpt lat="43.23453" lon="5.50066">
        <ele>227.7</ele>
        <time>2025-10-19T14:52:04Z</time>
      </trkpt>
      <trkpt lat="43.23454" lon="5.50065">
        <ele>227.7</ele>
        <time>2025-10-19T14:52:05Z</time>
      </trkpt>
      <trkpt lat="43.23454" lon="5.50064">
        <ele>227.8</ele>
        <time>2025-10-19T14:52:06Z</time>
      </trkpt>
      <trkpt lat="43.23455" lon="5.50063">
        <ele>227.7</ele>
        <time>2025-10-19T14:52:07Z</time>
      </trkpt>
      <trkpt lat="43.23456" lon="5.50062">
        <ele>227.9</ele>
        <time>2025-10-19T14:52:08Z</time>
      </trkpt>
      <trkpt lat="43.23457" lon="5.50062">
        <ele>227.9</ele>
        <time>2025-10-19T14:52:09Z</time>
      </trkpt>
      <trkpt lat="43.23458" lon="5.50061">
        <ele>228</ele>
        <time>2025-10-19T14:52:10Z</time>
      </trkpt>
      <trkpt lat="43.23459" lon="5.5006">
        <ele>228</ele>
        <time>2025-10-19T14:52:11Z</time>
      </trkpt>
      <trkpt lat="43.2346" lon="5.5006">
        <ele>228</ele>
        <time>2025-10-19T14:52:12Z</time>
      </trkpt>
      <trkpt lat="43.23461" lon="5.50059">
        <ele>228.1</ele>
        <time>2025-10-19T14:52:13Z</time>
      </trkpt>
      <trkpt lat="43.23462" lon="5.50058">
        <ele>228.2</ele>
        <time>2025-10-19T14:52:14Z</time>
      </trkpt>
      <trkpt lat="43.23463" lon="5.50058">
        <ele>228.2</ele>
        <time>2025-10-19T14:52:15Z</time>
      </trkpt>
      <trkpt lat="43.23464" lon="5.50058">
        <ele>228.2</ele>
        <time>2025-10-19T14:52:16Z</time>
      </trkpt>
      <trkpt lat="43.23466" lon="5.50057">
        <ele>228.3</ele>
        <time>2025-10-19T14:52:17Z</time>
      </trkpt>
      <trkpt lat="43.23467" lon="5.50057">
        <ele>228.2</ele>
        <time>2025-10-19T14:52:18Z</time>
      </trkpt>
      <trkpt lat="43.23468" lon="5.50056">
        <ele>228.3</ele>
        <time>2025-10-19T14:52:19Z</time>
      </trkpt>
      <trkpt lat="43.23469" lon="5.50056">
        <ele>228.3</ele>
        <time>2025-10-19T14:52:20Z</time>
      </trkpt>
      <trkpt lat="43.2347" lon="5.50055">
        <ele>228.3</ele>
        <time>2025-10-19T14:52:21Z</time>
      </trkpt>
      <trkpt lat="43.23471" lon="5.50054">
        <ele>228.2</ele>
        <time>2025-10-19T14:52:22Z</time>
      </trkpt>
      <trkpt lat="43.23472" lon="5.50054">
        <ele>228.2</ele>
        <time>2025-10-19T14:52:23Z</time>
      </trkpt>
      <trkpt lat="43.23473" lon="5.50053">
        <ele>228.2</ele>
        <time>2025-10-19T14:52:24Z</time>
      </trkpt>
      <trkpt lat="43.23475" lon="5.50052">
        <ele>228.2</ele>
        <time>2025-10-19T14:52:25Z</time>
      </trkpt>
      <trkpt lat="43.23476" lon="5.50052">
        <ele>228.2</ele>
        <time>2025-10-19T14:52:26Z</time>
      </trkpt>
      <trkpt lat="43.23477" lon="5.50051">
        <ele>228.2</ele>
        <time>2025-10-19T14:52:27Z</time>
      </trkpt>
      <trkpt lat="43.23478" lon="5.5005">
        <ele>228.2</ele>
        <time>2025-10-19T14:52:28Z</time>
      </trkpt>
      <trkpt lat="43.23479" lon="5.50049">
        <ele>228.2</ele>
        <time>2025-10-19T14:52:29Z</time>
      </trkpt>
      <trkpt lat="43.2348" lon="5.50049">
        <ele>228.2</ele>
        <time>2025-10-19T14:52:30Z</time>
      </trkpt>
      <trkpt lat="43.23481" lon="5.50048">
        <ele>228.3</ele>
        <time>2025-10-19T14:52:31Z</time>
      </trkpt>
      <trkpt lat="43.23482" lon="5.50047">
        <ele>228.3</ele>
        <time>2025-10-19T14:52:32Z</time>
      </trkpt>
      <trkpt lat="43.23483" lon="5.50046">
        <ele>228.4</ele>
        <time>2025-10-19T14:52:33Z</time>
      </trkpt>
      <trkpt lat="43.23484" lon="5.50045">
        <ele>228.5</ele>
        <time>2025-10-19T14:52:34Z</time>
      </trkpt>
      <trkpt lat="43.23485" lon="5.50044">
        <ele>228.6</ele>
        <time>2025-10-19T14:52:35Z</time>
      </trkpt>
      <trkpt lat="43.23486" lon="5.50043">
        <ele>228.6</ele>
        <time>2025-10-19T14:52:36Z</time>
      </trkpt>
      <trkpt lat="43.23487" lon="5.50042">
        <ele>228.7</ele>
        <time>2025-10-19T14:52:37Z</time>
      </trkpt>
      <trkpt lat="43.23488" lon="5.50041">
        <ele>228.7</ele>
        <time>2025-10-19T14:52:38Z</time>
      </trkpt>
      <trkpt lat="43.2349" lon="5.50041">
        <ele>228.8</ele>
        <time>2025-10-19T14:52:39Z</time>
      </trkpt>
      <trkpt lat="43.23491" lon="5.5004">
        <ele>228.8</ele>
        <time>2025-10-19T14:52:40Z</time>
      </trkpt>
      <trkpt lat="43.23492" lon="5.5004">
        <ele>228.8</ele>
        <time>2025-10-19T14:52:41Z</time>
      </trkpt>
      <trkpt lat="43.23493" lon="5.50039">
        <ele>228.9</ele>
        <time>2025-10-19T14:52:42Z</time>
      </trkpt>
      <trkpt lat="43.23494" lon="5.50039">
        <ele>229</ele>
        <time>2025-10-19T14:52:43Z</time>
      </trkpt>
      <trkpt lat="43.23495" lon="5.50038">
        <ele>229.1</ele>
        <time>2025-10-19T14:52:44Z</time>
      </trkpt>
      <trkpt lat="43.23496" lon="5.50038">
        <ele>229.1</ele>
        <time>2025-10-19T14:52:45Z</time>
      </trkpt>
      <trkpt lat="43.23496" lon="5.50037">
        <ele>229.2</ele>
        <time>2025-10-19T14:52:46Z</time>
      </trkpt>
      <trkpt lat="43.23498" lon="5.50037">
        <ele>229.3</ele>
        <time>2025-10-19T14:52:47Z</time>
      </trkpt>
      <trkpt lat="43.23499" lon="5.50037">
        <ele>229.4</ele>
        <time>2025-10-19T14:52:48Z</time>
      </trkpt>
      <trkpt lat="43.235" lon="5.50037">
        <ele>229.4</ele>
        <time>2025-10-19T14:52:49Z</time>
      </trkpt>
      <trkpt lat="43.23501" lon="5.50037">
        <ele>229.5</ele>
        <time>2025-10-19T14:52:50Z</time>
      </trkpt>
      <trkpt lat="43.23502" lon="5.50037">
        <ele>229.5</ele>
        <time>2025-10-19T14:52:51Z</time>
      </trkpt>
      <trkpt lat="43.23503" lon="5.50036">
        <ele>229.5</ele>
        <time>2025-10-19T14:52:52Z</time>
      </trkpt>
      <trkpt lat="43.23504" lon="5.50036">
        <ele>229.5</ele>
        <time>2025-10-19T14:52:53Z</time>
      </trkpt>
      <trkpt lat="43.23505" lon="5.50036">
        <ele>229.5</ele>
        <time>2025-10-19T14:52:54Z</time>
      </trkpt>
      <trkpt lat="43.23507" lon="5.50035">
        <ele>229.5</ele>
        <time>2025-10-19T14:52:55Z</time>
      </trkpt>
      <trkpt lat="43.23508" lon="5.50034">
        <ele>229.5</ele>
        <time>2025-10-19T14:52:56Z</time>
      </trkpt>
      <trkpt lat="43.23509" lon="5.50033">
        <ele>229.5</ele>
        <time>2025-10-19T14:52:57Z</time>
      </trkpt>
      <trkpt lat="43.2351" lon="5.50033">
        <ele>229.6</ele>
        <time>2025-10-19T14:52:58Z</time>
      </trkpt>
      <trkpt lat="43.23511" lon="5.50032">
        <ele>229.6</ele>
        <time>2025-10-19T14:52:59Z</time>
      </trkpt>
      <trkpt lat="43.23512" lon="5.50032">
        <ele>229.6</ele>
        <time>2025-10-19T14:53:00Z</time>
      </trkpt>
      <trkpt lat="43.23513" lon="5.50031">
        <ele>229.7</ele>
        <time>2025-10-19T14:53:01Z</time>
      </trkpt>
      <trkpt lat="43.23514" lon="5.5003">
        <ele>229.7</ele>
        <time>2025-10-19T14:53:02Z</time>
      </trkpt>
      <trkpt lat="43.23516" lon="5.5003">
        <ele>229.7</ele>
        <time>2025-10-19T14:53:03Z</time>
      </trkpt>
      <trkpt lat="43.23517" lon="5.50029">
        <ele>229.6</ele>
        <time>2025-10-19T14:53:04Z</time>
      </trkpt>
      <trkpt lat="43.23518" lon="5.50028">
        <ele>229.7</ele>
        <time>2025-10-19T14:53:05Z</time>
      </trkpt>
      <trkpt lat="43.23519" lon="5.50028">
        <ele>229.8</ele>
        <time>2025-10-19T14:53:06Z</time>
      </trkpt>
      <trkpt lat="43.2352" lon="5.50027">
        <ele>229.9</ele>
        <time>2025-10-19T14:53:07Z</time>
      </trkpt>
      <trkpt lat="43.23521" lon="5.50026">
        <ele>230</ele>
        <time>2025-10-19T14:53:08Z</time>
      </trkpt>
      <trkpt lat="43.23522" lon="5.50025">
        <ele>230</ele>
        <time>2025-10-19T14:53:09Z</time>
      </trkpt>
      <trkpt lat="43.23523" lon="5.50025">
        <ele>230.1</ele>
        <time>2025-10-19T14:53:10Z</time>
      </trkpt>
      <trkpt lat="43.23524" lon="5.50024">
        <ele>230.1</ele>
        <time>2025-10-19T14:53:11Z</time>
      </trkpt>
      <trkpt lat="43.23525" lon="5.50023">
        <ele>230.2</ele>
        <time>2025-10-19T14:53:12Z</time>
      </trkpt>
      <trkpt lat="43.23526" lon="5.50023">
        <ele>230.2</ele>
        <time>2025-10-19T14:53:13Z</time>
      </trkpt>
      <trkpt lat="43.23527" lon="5.50022">
        <ele>230.4</ele>
        <time>2025-10-19T14:53:14Z</time>
      </trkpt>
      <trkpt lat="43.23528" lon="5.50021">
        <ele>230.4</ele>
        <time>2025-10-19T14:53:15Z</time>
      </trkpt>
      <trkpt lat="43.2353" lon="5.5002">
        <ele>230.5</ele>
        <time>2025-10-19T14:53:16Z</time>
      </trkpt>
      <trkpt lat="43.23531" lon="5.5002">
        <ele>230.6</ele>
        <time>2025-10-19T14:53:17Z</time>
      </trkpt>
      <trkpt lat="43.23532" lon="5.50019">
        <ele>230.7</ele>
        <time>2025-10-19T14:53:18Z</time>
      </trkpt>
      <trkpt lat="43.23533" lon="5.50019">
        <ele>230.7</ele>
        <time>2025-10-19T14:53:19Z</time>
      </trkpt>
      <trkpt lat="43.23534" lon="5.50018">
        <ele>230.8</ele>
        <time>2025-10-19T14:53:20Z</time>
      </trkpt>
      <trkpt lat="43.23535" lon="5.50018">
        <ele>231</ele>
        <time>2025-10-19T14:53:21Z</time>
      </trkpt>
      <trkpt lat="43.23537" lon="5.50018">
        <ele>231.1</ele>
        <time>2025-10-19T14:53:22Z</time>
      </trkpt>
      <trkpt lat="43.23538" lon="5.50017">
        <ele>231.1</ele>
        <time>2025-10-19T14:53:23Z</time>
      </trkpt>
      <trkpt lat="43.23539" lon="5.50017">
        <ele>231.1</ele>
        <time>2025-10-19T14:53:24Z</time>
      </trkpt>
      <trkpt lat="43.2354" lon="5.50016">
        <ele>231.1</ele>
        <time>2025-10-19T14:53:25Z</time>
      </trkpt>
      <trkpt lat="43.23541" lon="5.50016">
        <ele>231.1</ele>
        <time>2025-10-19T14:53:26Z</time>
      </trkpt>
      <trkpt lat="43.23542" lon="5.50015">
        <ele>231.2</ele>
        <time>2025-10-19T14:53:27Z</time>
      </trkpt>
      <trkpt lat="43.23543" lon="5.50015">
        <ele>231.2</ele>
        <time>2025-10-19T14:53:28Z</time>
      </trkpt>
      <trkpt lat="43.23544" lon="5.50014">
        <ele>231.2</ele>
        <time>2025-10-19T14:53:29Z</time>
      </trkpt>
      <trkpt lat="43.23545" lon="5.50013">
        <ele>231.2</ele>
        <time>2025-10-19T14:53:30Z</time>
      </trkpt>
      <trkpt lat="43.23546" lon="5.50012">
        <ele>231.3</ele>
        <time>2025-10-19T14:53:31Z</time>
      </trkpt>
      <trkpt lat="43.23547" lon="5.50012">
        <ele>231.4</ele>
        <time>2025-10-19T14:53:32Z</time>
      </trkpt>
      <trkpt lat="43.23548" lon="5.50011">
        <ele>231.4</ele>
        <time>2025-10-19T14:53:33Z</time>
      </trkpt>
      <trkpt lat="43.23549" lon="5.50011">
        <ele>231.5</ele>
        <time>2025-10-19T14:53:34Z</time>
      </trkpt>
      <trkpt lat="43.2355" lon="5.50011">
        <ele>231.5</ele>
        <time>2025-10-19T14:53:35Z</time>
      </trkpt>
      <trkpt lat="43.23551" lon="5.50011">
        <ele>231.6</ele>
        <time>2025-10-19T14:53:36Z</time>
      </trkpt>
      <trkpt lat="43.23553" lon="5.5001">
        <ele>231.6</ele>
        <time>2025-10-19T14:53:37Z</time>
      </trkpt>
      <trkpt lat="43.23554" lon="5.5001">
        <ele>231.6</ele>
        <time>2025-10-19T14:53:38Z</time>
      </trkpt>
      <trkpt lat="43.23555" lon="5.50009">
        <ele>231.7</ele>
        <time>2025-10-19T14:53:39Z</time>
      </trkpt>
      <trkpt lat="43.23556" lon="5.50008">
        <ele>231.7</ele>
        <time>2025-10-19T14:53:40Z</time>
      </trkpt>
      <trkpt lat="43.23557" lon="5.50008">
        <ele>231.7</ele>
        <time>2025-10-19T14:53:41Z</time>
      </trkpt>
      <trkpt lat="43.23557" lon="5.50008">
        <ele>231.7</ele>
        <time>2025-10-19T14:53:42Z</time>
      </trkpt>
      <trkpt lat="43.23558" lon="5.50007">
        <ele>231.6</ele>
        <time>2025-10-19T14:53:43Z</time>
      </trkpt>
      <trkpt lat="43.23559" lon="5.50007">
        <ele>231.6</ele>
        <time>2025-10-19T14:53:44Z</time>
      </trkpt>
      <trkpt lat="43.2356" lon="5.50007">
        <ele>231.6</ele>
        <time>2025-10-19T14:53:45Z</time>
      </trkpt>
      <trkpt lat="43.23562" lon="5.50006">
        <ele>231.6</ele>
        <time>2025-10-19T14:53:46Z</time>
      </trkpt>
      <trkpt lat="43.23563" lon="5.50005">
        <ele>231.6</ele>
        <time>2025-10-19T14:53:47Z</time>
      </trkpt>
      <trkpt lat="43.23564" lon="5.50005">
        <ele>231.6</ele>
        <time>2025-10-19T14:53:48Z</time>
      </trkpt>
      <trkpt lat="43.23565" lon="5.50005">
        <ele>231.7</ele>
        <time>2025-10-19T14:53:49Z</time>
      </trkpt>
      <trkpt lat="43.23566" lon="5.50005">
        <ele>231.7</ele>
        <time>2025-10-19T14:53:50Z</time>
      </trkpt>
      <trkpt lat="43.23567" lon="5.50005">
        <ele>231.7</ele>
        <time>2025-10-19T14:53:51Z</time>
      </trkpt>
      <trkpt lat="43.23568" lon="5.50004">
        <ele>231.7</ele>
        <time>2025-10-19T14:53:52Z</time>
      </trkpt>
      <trkpt lat="43.23569" lon="5.50004">
        <ele>231.8</ele>
        <time>2025-10-19T14:53:53Z</time>
      </trkpt>
      <trkpt lat="43.2357" lon="5.50004">
        <ele>231.8</ele>
        <time>2025-10-19T14:53:54Z</time>
      </trkpt>
      <trkpt lat="43.23571" lon="5.50004">
        <ele>231.8</ele>
        <time>2025-10-19T14:53:55Z</time>
      </trkpt>
      <trkpt lat="43.23572" lon="5.50003">
        <ele>231.8</ele>
        <time>2025-10-19T14:53:56Z</time>
      </trkpt>
      <trkpt lat="43.23573" lon="5.50003">
        <ele>231.9</ele>
        <time>2025-10-19T14:53:57Z</time>
      </trkpt>
      <trkpt lat="43.23574" lon="5.50003">
        <ele>231.9</ele>
        <time>2025-10-19T14:53:58Z</time>
      </trkpt>
      <trkpt lat="43.23575" lon="5.50002">
        <ele>231.9</ele>
        <time>2025-10-19T14:53:59Z</time>
      </trkpt>
      <trkpt lat="43.23576" lon="5.50002">
        <ele>232</ele>
        <time>2025-10-19T14:54:00Z</time>
      </trkpt>
      <trkpt lat="43.23577" lon="5.50002">
        <ele>232.1</ele>
        <time>2025-10-19T14:54:01Z</time>
      </trkpt>
      <trkpt lat="43.23578" lon="5.50002">
        <ele>232.2</ele>
        <time>2025-10-19T14:54:02Z</time>
      </trkpt>
      <trkpt lat="43.23579" lon="5.50002">
        <ele>232.2</ele>
        <time>2025-10-19T14:54:03Z</time>
      </trkpt>
      <trkpt lat="43.2358" lon="5.50002">
        <ele>232.4</ele>
        <time>2025-10-19T14:54:04Z</time>
      </trkpt>
      <trkpt lat="43.23582" lon="5.50002">
        <ele>232.5</ele>
        <time>2025-10-19T14:54:05Z</time>
      </trkpt>
      <trkpt lat="43.23583" lon="5.50001">
        <ele>232.5</ele>
        <time>2025-10-19T14:54:06Z</time>
      </trkpt>
      <trkpt lat="43.23584" lon="5.50001">
        <ele>232.6</ele>
        <time>2025-10-19T14:54:07Z</time>
      </trkpt>
      <trkpt lat="43.23585" lon="5.50001">
        <ele>232.7</ele>
        <time>2025-10-19T14:54:08Z</time>
      </trkpt>
      <trkpt lat="43.23587" lon="5.5">
        <ele>232.7</ele>
        <time>2025-10-19T14:54:09Z</time>
      </trkpt>
      <trkpt lat="43.23588" lon="5.5">
        <ele>232.7</ele>
        <time>2025-10-19T14:54:10Z</time>
      </trkpt>
      <trkpt lat="43.23589" lon="5.49999">
        <ele>232.9</ele>
        <time>2025-10-19T14:54:11Z</time>
      </trkpt>
      <trkpt lat="43.2359" lon="5.49999">
        <ele>233</ele>
        <time>2025-10-19T14:54:12Z</time>
      </trkpt>
      <trkpt lat="43.23591" lon="5.49998">
        <ele>233.2</ele>
        <time>2025-10-19T14:54:13Z</time>
      </trkpt>
      <trkpt lat="43.23592" lon="5.49998">
        <ele>233.3</ele>
        <time>2025-10-19T14:54:14Z</time>
      </trkpt>
      <trkpt lat="43.23593" lon="5.49998">
        <ele>233.3</ele>
        <time>2025-10-19T14:54:15Z</time>
      </trkpt>
      <trkpt lat="43.23594" lon="5.49998">
        <ele>233.3</ele>
        <time>2025-10-19T14:54:16Z</time>
      </trkpt>
      <trkpt lat="43.23595" lon="5.49997">
        <ele>233.2</ele>
        <time>2025-10-19T14:54:17Z</time>
      </trkpt>
      <trkpt lat="43.23597" lon="5.49997">
        <ele>233.3</ele>
        <time>2025-10-19T14:54:18Z</time>
      </trkpt>
      <trkpt lat="43.23598" lon="5.49996">
        <ele>233.3</ele>
        <time>2025-10-19T14:54:19Z</time>
      </trkpt>
      <trkpt lat="43.23599" lon="5.49996">
        <ele>233.3</ele>
        <time>2025-10-19T14:54:20Z</time>
      </trkpt>
      <trkpt lat="43.236" lon="5.49995">
        <ele>233.4</ele>
        <time>2025-10-19T14:54:21Z</time>
      </trkpt>
      <trkpt lat="43.23601" lon="5.49994">
        <ele>233.5</ele>
        <time>2025-10-19T14:54:22Z</time>
      </trkpt>
      <trkpt lat="43.23602" lon="5.49994">
        <ele>233.5</ele>
        <time>2025-10-19T14:54:23Z</time>
      </trkpt>
      <trkpt lat="43.23603" lon="5.49994">
        <ele>233.7</ele>
        <time>2025-10-19T14:54:24Z</time>
      </trkpt>
      <trkpt lat="43.23604" lon="5.49994">
        <ele>233.7</ele>
        <time>2025-10-19T14:54:25Z</time>
      </trkpt>
      <trkpt lat="43.23605" lon="5.49993">
        <ele>233.8</ele>
        <time>2025-10-19T14:54:26Z</time>
      </trkpt>
      <trkpt lat="43.23606" lon="5.49993">
        <ele>233.8</ele>
        <time>2025-10-19T14:54:27Z</time>
      </trkpt>
      <trkpt lat="43.23607" lon="5.49992">
        <ele>233.8</ele>
        <time>2025-10-19T14:54:28Z</time>
      </trkpt>
      <trkpt lat="43.23608" lon="5.49992">
        <ele>233.9</ele>
        <time>2025-10-19T14:54:29Z</time>
      </trkpt>
      <trkpt lat="43.23609" lon="5.49991">
        <ele>233.9</ele>
        <time>2025-10-19T14:54:30Z</time>
      </trkpt>
      <trkpt lat="43.23611" lon="5.49991">
        <ele>234</ele>
        <time>2025-10-19T14:54:31Z</time>
      </trkpt>
      <trkpt lat="43.23612" lon="5.49991">
        <ele>234.1</ele>
        <time>2025-10-19T14:54:32Z</time>
      </trkpt>
      <trkpt lat="43.23613" lon="5.49991">
        <ele>234.1</ele>
        <time>2025-10-19T14:54:33Z</time>
      </trkpt>
      <trkpt lat="43.23614" lon="5.4999">
        <ele>234.1</ele>
        <time>2025-10-19T14:54:34Z</time>
      </trkpt>
      <trkpt lat="43.23615" lon="5.4999">
        <ele>234.3</ele>
        <time>2025-10-19T14:54:35Z</time>
      </trkpt>
      <trkpt lat="43.23616" lon="5.4999">
        <ele>234.4</ele>
        <time>2025-10-19T14:54:36Z</time>
      </trkpt>
      <trkpt lat="43.23617" lon="5.4999">
        <ele>234.5</ele>
        <time>2025-10-19T14:54:37Z</time>
      </trkpt>
      <trkpt lat="43.23618" lon="5.49989">
        <ele>234.6</ele>
        <time>2025-10-19T14:54:38Z</time>
      </trkpt>
      <trkpt lat="43.23619" lon="5.49989">
        <ele>234.7</ele>
        <time>2025-10-19T14:54:39Z</time>
      </trkpt>
      <trkpt lat="43.2362" lon="5.49988">
        <ele>234.7</ele>
        <time>2025-10-19T14:54:40Z</time>
      </trkpt>
      <trkpt lat="43.23621" lon="5.49988">
        <ele>234.6</ele>
        <time>2025-10-19T14:54:41Z</time>
      </trkpt>
      <trkpt lat="43.23622" lon="5.49987">
        <ele>234.6</ele>
        <time>2025-10-19T14:54:42Z</time>
      </trkpt>
      <trkpt lat="43.23623" lon="5.49986">
        <ele>234.6</ele>
        <time>2025-10-19T14:54:43Z</time>
      </trkpt>
      <trkpt lat="43.23624" lon="5.49986">
        <ele>234.6</ele>
        <time>2025-10-19T14:54:44Z</time>
      </trkpt>
      <trkpt lat="43.23625" lon="5.49985">
        <ele>234.6</ele>
        <time>2025-10-19T14:54:45Z</time>
      </trkpt>
      <trkpt lat="43.23626" lon="5.49985">
        <ele>234.6</ele>
        <time>2025-10-19T14:54:46Z</time>
      </trkpt>
      <trkpt lat="43.23627" lon="5.49984">
        <ele>234.5</ele>
        <time>2025-10-19T14:54:47Z</time>
      </trkpt>
      <trkpt lat="43.23628" lon="5.49984">
        <ele>234.5</ele>
        <time>2025-10-19T14:54:48Z</time>
      </trkpt>
      <trkpt lat="43.23629" lon="5.49983">
        <ele>234.6</ele>
        <time>2025-10-19T14:54:49Z</time>
      </trkpt>
      <trkpt lat="43.2363" lon="5.49983">
        <ele>234.8</ele>
        <time>2025-10-19T14:54:50Z</time>
      </trkpt>
      <trkpt lat="43.23631" lon="5.49983">
        <ele>234.9</ele>
        <time>2025-10-19T14:54:51Z</time>
      </trkpt>
      <trkpt lat="43.23633" lon="5.49982">
        <ele>235</ele>
        <time>2025-10-19T14:54:52Z</time>
      </trkpt>
      <trkpt lat="43.23634" lon="5.49982">
        <ele>235.1</ele>
        <time>2025-10-19T14:54:53Z</time>
      </trkpt>
      <trkpt lat="43.23635" lon="5.49982">
        <ele>235.1</ele>
        <time>2025-10-19T14:54:54Z</time>
      </trkpt>
      <trkpt lat="43.23636" lon="5.49982">
        <ele>235.2</ele>
        <time>2025-10-19T14:54:55Z</time>
      </trkpt>
      <trkpt lat="43.23637" lon="5.49982">
        <ele>235.2</ele>
        <time>2025-10-19T14:54:56Z</time>
      </trkpt>
      <trkpt lat="43.23638" lon="5.49983">
        <ele>235.2</ele>
        <time>2025-10-19T14:54:57Z</time>
      </trkpt>
      <trkpt lat="43.23639" lon="5.49983">
        <ele>235.1</ele>
        <time>2025-10-19T14:54:58Z</time>
      </trkpt>
      <trkpt lat="43.2364" lon="5.49984">
        <ele>235</ele>
        <time>2025-10-19T14:54:59Z</time>
      </trkpt>
      <trkpt lat="43.23641" lon="5.49985">
        <ele>235</ele>
        <time>2025-10-19T14:55:00Z</time>
      </trkpt>
      <trkpt lat="43.23642" lon="5.49985">
        <ele>235</ele>
        <time>2025-10-19T14:55:01Z</time>
      </trkpt>
      <trkpt lat="43.23643" lon="5.49986">
        <ele>235</ele>
        <time>2025-10-19T14:55:02Z</time>
      </trkpt>
      <trkpt lat="43.23644" lon="5.49986">
        <ele>235</ele>
        <time>2025-10-19T14:55:03Z</time>
      </trkpt>
      <trkpt lat="43.23645" lon="5.49986">
        <ele>234.9</ele>
        <time>2025-10-19T14:55:04Z</time>
      </trkpt>
      <trkpt lat="43.23647" lon="5.49986">
        <ele>235</ele>
        <time>2025-10-19T14:55:05Z</time>
      </trkpt>
      <trkpt lat="43.23648" lon="5.49986">
        <ele>235.1</ele>
        <time>2025-10-19T14:55:06Z</time>
      </trkpt>
      <trkpt lat="43.23649" lon="5.49986">
        <ele>235.2</ele>
        <time>2025-10-19T14:55:07Z</time>
      </trkpt>
      <trkpt lat="43.2365" lon="5.49987">
        <ele>235.4</ele>
        <time>2025-10-19T14:55:08Z</time>
      </trkpt>
      <trkpt lat="43.23651" lon="5.49986">
        <ele>235.5</ele>
        <time>2025-10-19T14:55:09Z</time>
      </trkpt>
      <trkpt lat="43.23653" lon="5.49986">
        <ele>235.5</ele>
        <time>2025-10-19T14:55:10Z</time>
      </trkpt>
      <trkpt lat="43.23654" lon="5.49986">
        <ele>235.5</ele>
        <time>2025-10-19T14:55:11Z</time>
      </trkpt>
      <trkpt lat="43.23655" lon="5.49986">
        <ele>235.5</ele>
        <time>2025-10-19T14:55:12Z</time>
      </trkpt>
      <trkpt lat="43.23656" lon="5.49986">
        <ele>235.7</ele>
        <time>2025-10-19T14:55:13Z</time>
      </trkpt>
      <trkpt lat="43.23657" lon="5.49985">
        <ele>235.8</ele>
        <time>2025-10-19T14:55:14Z</time>
      </trkpt>
      <trkpt lat="43.23659" lon="5.49985">
        <ele>235.8</ele>
        <time>2025-10-19T14:55:15Z</time>
      </trkpt>
      <trkpt lat="43.2366" lon="5.49984">
        <ele>235.8</ele>
        <time>2025-10-19T14:55:16Z</time>
      </trkpt>
      <trkpt lat="43.23661" lon="5.49985">
        <ele>235.8</ele>
        <time>2025-10-19T14:55:17Z</time>
      </trkpt>
      <trkpt lat="43.23662" lon="5.49984">
        <ele>235.8</ele>
        <time>2025-10-19T14:55:18Z</time>
      </trkpt>
      <trkpt lat="43.23663" lon="5.49984">
        <ele>235.8</ele>
        <time>2025-10-19T14:55:19Z</time>
      </trkpt>
      <trkpt lat="43.23664" lon="5.49984">
        <ele>235.8</ele>
        <time>2025-10-19T14:55:20Z</time>
      </trkpt>
      <trkpt lat="43.23665" lon="5.49983">
        <ele>235.8</ele>
        <time>2025-10-19T14:55:21Z</time>
      </trkpt>
      <trkpt lat="43.23666" lon="5.49983">
        <ele>235.8</ele>
        <time>2025-10-19T14:55:22Z</time>
      </trkpt>
      <trkpt lat="43.23667" lon="5.49983">
        <ele>236</ele>
        <time>2025-10-19T14:55:23Z</time>
      </trkpt>
      <trkpt lat="43.23668" lon="5.49982">
        <ele>236.1</ele>
        <time>2025-10-19T14:55:24Z</time>
      </trkpt>
      <trkpt lat="43.23669" lon="5.49982">
        <ele>236.2</ele>
        <time>2025-10-19T14:55:25Z</time>
      </trkpt>
      <trkpt lat="43.2367" lon="5.49981">
        <ele>236.3</ele>
        <time>2025-10-19T14:55:26Z</time>
      </trkpt>
      <trkpt lat="43.23671" lon="5.4998">
        <ele>236.4</ele>
        <time>2025-10-19T14:55:27Z</time>
      </trkpt>
      <trkpt lat="43.23672" lon="5.4998">
        <ele>236.4</ele>
        <time>2025-10-19T14:55:28Z</time>
      </trkpt>
      <trkpt lat="43.23673" lon="5.4998">
        <ele>236.4</ele>
        <time>2025-10-19T14:55:29Z</time>
      </trkpt>
      <trkpt lat="43.23674" lon="5.4998">
        <ele>236.4</ele>
        <time>2025-10-19T14:55:30Z</time>
      </trkpt>
      <trkpt lat="43.23675" lon="5.4998">
        <ele>236.5</ele>
        <time>2025-10-19T14:55:31Z</time>
      </trkpt>
      <trkpt lat="43.23676" lon="5.49981">
        <ele>236.6</ele>
        <time>2025-10-19T14:55:32Z</time>
      </trkpt>
      <trkpt lat="43.23677" lon="5.49982">
        <ele>236.6</ele>
        <time>2025-10-19T14:55:33Z</time>
      </trkpt>
      <trkpt lat="43.23678" lon="5.49983">
        <ele>236.7</ele>
        <time>2025-10-19T14:55:34Z</time>
      </trkpt>
      <trkpt lat="43.23679" lon="5.49984">
        <ele>236.7</ele>
        <time>2025-10-19T14:55:35Z</time>
      </trkpt>
      <trkpt lat="43.2368" lon="5.49985">
        <ele>236.7</ele>
        <time>2025-10-19T14:55:36Z</time>
      </trkpt>
      <trkpt lat="43.2368" lon="5.49986">
        <ele>236.8</ele>
        <time>2025-10-19T14:55:37Z</time>
      </trkpt>
      <trkpt lat="43.23681" lon="5.49986">
        <ele>236.8</ele>
        <time>2025-10-19T14:55:38Z</time>
      </trkpt>
      <trkpt lat="43.23682" lon="5.49987">
        <ele>236.8</ele>
        <time>2025-10-19T14:55:39Z</time>
      </trkpt>
      <trkpt lat="43.23683" lon="5.49987">
        <ele>236.8</ele>
        <time>2025-10-19T14:55:40Z</time>
      </trkpt>
      <trkpt lat="43.23684" lon="5.49988">
        <ele>236.8</ele>
        <time>2025-10-19T14:55:41Z</time>
      </trkpt>
      <trkpt lat="43.23685" lon="5.49989">
        <ele>236.8</ele>
        <time>2025-10-19T14:55:42Z</time>
      </trkpt>
      <trkpt lat="43.23686" lon="5.49989">
        <ele>236.9</ele>
        <time>2025-10-19T14:55:43Z</time>
      </trkpt>
      <trkpt lat="43.23687" lon="5.4999">
        <ele>236.9</ele>
        <time>2025-10-19T14:55:44Z</time>
      </trkpt>
      <trkpt lat="43.23687" lon="5.4999">
        <ele>236.9</ele>
        <time>2025-10-19T14:55:45Z</time>
      </trkpt>
      <trkpt lat="43.23689" lon="5.49991">
        <ele>237</ele>
        <time>2025-10-19T14:55:46Z</time>
      </trkpt>
      <trkpt lat="43.2369" lon="5.49991">
        <ele>237</ele>
        <time>2025-10-19T14:55:47Z</time>
      </trkpt>
      <trkpt lat="43.2369" lon="5.49991">
        <ele>237</ele>
        <time>2025-10-19T14:55:48Z</time>
      </trkpt>
      <trkpt lat="43.23691" lon="5.49992">
        <ele>237.1</ele>
        <time>2025-10-19T14:55:49Z</time>
      </trkpt>
      <trkpt lat="43.23692" lon="5.49992">
        <ele>237.1</ele>
        <time>2025-10-19T14:55:50Z</time>
      </trkpt>
      <trkpt lat="43.23693" lon="5.49993">
        <ele>237.2</ele>
        <time>2025-10-19T14:55:51Z</time>
      </trkpt>
      <trkpt lat="43.23694" lon="5.49994">
        <ele>237.2</ele>
        <time>2025-10-19T14:55:52Z</time>
      </trkpt>
      <trkpt lat="43.23694" lon="5.49995">
        <ele>237.2</ele>
        <time>2025-10-19T14:55:53Z</time>
      </trkpt>
      <trkpt lat="43.23695" lon="5.49995">
        <ele>237.3</ele>
        <time>2025-10-19T14:55:54Z</time>
      </trkpt>
      <trkpt lat="43.23696" lon="5.49995">
        <ele>237.3</ele>
        <time>2025-10-19T14:55:55Z</time>
      </trkpt>
      <trkpt lat="43.23697" lon="5.49996">
        <ele>237.4</ele>
        <time>2025-10-19T14:55:56Z</time>
      </trkpt>
      <trkpt lat="43.23698" lon="5.49997">
        <ele>237.5</ele>
        <time>2025-10-19T14:55:57Z</time>
      </trkpt>
      <trkpt lat="43.23699" lon="5.49997">
        <ele>237.6</ele>
        <time>2025-10-19T14:55:58Z</time>
      </trkpt>
      <trkpt lat="43.237" lon="5.49998">
        <ele>237.7</ele>
        <time>2025-10-19T14:55:59Z</time>
      </trkpt>
      <trkpt lat="43.23701" lon="5.49998">
        <ele>237.8</ele>
        <time>2025-10-19T14:56:00Z</time>
      </trkpt>
      <trkpt lat="43.23701" lon="5.49999">
        <ele>237.8</ele>
        <time>2025-10-19T14:56:01Z</time>
      </trkpt>
      <trkpt lat="43.23702" lon="5.49999">
        <ele>237.9</ele>
        <time>2025-10-19T14:56:02Z</time>
      </trkpt>
      <trkpt lat="43.23702" lon="5.5">
        <ele>237.9</ele>
        <time>2025-10-19T14:56:03Z</time>
      </trkpt>
      <trkpt lat="43.23703" lon="5.50001">
        <ele>238</ele>
        <time>2025-10-19T14:56:04Z</time>
      </trkpt>
      <trkpt lat="43.23703" lon="5.50002">
        <ele>238</ele>
        <time>2025-10-19T14:56:05Z</time>
      </trkpt>
      <trkpt lat="43.23703" lon="5.50003">
        <ele>238</ele>
        <time>2025-10-19T14:56:06Z</time>
      </trkpt>
      <trkpt lat="43.23703" lon="5.50004">
        <ele>238.1</ele>
        <time>2025-10-19T14:56:07Z</time>
      </trkpt>
      <trkpt lat="43.23703" lon="5.50005">
        <ele>238.1</ele>
        <time>2025-10-19T14:56:08Z</time>
      </trkpt>
      <trkpt lat="43.23703" lon="5.50006">
        <ele>238.1</ele>
        <time>2025-10-19T14:56:09Z</time>
      </trkpt>
      <trkpt lat="43.23704" lon="5.50007">
        <ele>238.2</ele>
        <time>2025-10-19T14:56:10Z</time>
      </trkpt>
      <trkpt lat="43.23704" lon="5.50007">
        <ele>238.2</ele>
        <time>2025-10-19T14:56:11Z</time>
      </trkpt>
      <trkpt lat="43.23705" lon="5.50006">
        <ele>238.3</ele>
        <time>2025-10-19T14:56:12Z</time>
      </trkpt>
      <trkpt lat="43.23705" lon="5.50006">
        <ele>238.3</ele>
        <time>2025-10-19T14:56:13Z</time>
      </trkpt>
      <trkpt lat="43.23705" lon="5.50006">
        <ele>238.4</ele>
        <time>2025-10-19T14:56:14Z</time>
      </trkpt>
      <trkpt lat="43.23705" lon="5.50006">
        <ele>238.4</ele>
        <time>2025-10-19T14:56:15Z</time>
      </trkpt>
      <trkpt lat="43.23705" lon="5.50006">
        <ele>238.3</ele>
        <time>2025-10-19T14:56:15Z</time>
      </trkpt>
      <trkpt lat="43.23705" lon="5.50006">
        <ele>238.3</ele>
        <time>2025-10-19T14:56:16Z</time>
      </trkpt>
      <trkpt lat="43.23705" lon="5.50006">
        <ele>238.3</ele>
        <time>2025-10-19T14:56:16Z</time>
      </trkpt>
    </trkseg>
  </trk>
</gpx>